<?xml version="1.0" encoding="UTF-8"?>
<gpx version="1.1" creator="https://www.youtrack.es" xsi:schemaLocation="http://www.topografix.com/GPX/1/1 http://www.topografix.com/GPX/1/1/gpx.xsd http://www.garmin.com/xmlschemas/GpxExtensions/v3 http://www.garmin.com/xmlschemas/GpxExtensionsv3.xsd http://www.garmin.com/xmlschemas/TrackPointExtension/v1 http://www.garmin.com/xmlschemas/TrackPointExtensionv1.xsd" xmlns:gpxtpx="http://www.garmin.com/xmlschemas/TrackPointExtension/v1" xmlns:gpxx="http://www.garmin.com/xmlschemas/GpxExtensions/v3" xmlns:xsi="http://www.w3.org/2001/XMLSchema-instance">
  <metadata>
    <link href="https://www.youtrack.es">
      <text>YouTrack.es</text>
    </link>
    <time>2026-05-10T13:42:56Z</time>
  </metadata>
  <trk>
    <src>https://www.youtrack.es</src>
    <link href="https://www.youtrack.es/ruta/16277-sierra-norte">
      <text>YouTrack.es</text>
    </link>
    <trkseg>
      <trkpt lat="40.3840780" lon="-3.5358580">
        <ele>602.0</ele>
        <time>2020-09-29T06:36:56Z</time>
      </trkpt>
      <trkpt lat="40.3840410" lon="-3.5357990">
        <ele>602.0</ele>
        <time>2020-09-29T06:36:57Z</time>
      </trkpt>
      <trkpt lat="40.3840030" lon="-3.5357400">
        <ele>602.0</ele>
        <time>2020-09-29T06:36:58Z</time>
      </trkpt>
      <trkpt lat="40.3839770" lon="-3.5357000">
        <ele>602.0</ele>
        <time>2020-09-29T06:36:59Z</time>
      </trkpt>
      <trkpt lat="40.3839770" lon="-3.5357000">
        <ele>602.0</ele>
        <time>2020-09-29T06:37:00Z</time>
      </trkpt>
      <trkpt lat="40.3839320" lon="-3.5356100">
        <ele>602.0</ele>
        <time>2020-09-29T06:37:01Z</time>
      </trkpt>
      <trkpt lat="40.3839320" lon="-3.5356100">
        <ele>602.0</ele>
        <time>2020-09-29T06:37:02Z</time>
      </trkpt>
      <trkpt lat="40.3839100" lon="-3.5355070">
        <ele>602.0</ele>
        <time>2020-09-29T06:37:03Z</time>
      </trkpt>
      <trkpt lat="40.3839150" lon="-3.5354520">
        <ele>602.0</ele>
        <time>2020-09-29T06:37:04Z</time>
      </trkpt>
      <trkpt lat="40.3839150" lon="-3.5354520">
        <ele>602.0</ele>
        <time>2020-09-29T06:37:05Z</time>
      </trkpt>
      <trkpt lat="40.3839800" lon="-3.5353680">
        <ele>602.0</ele>
        <time>2020-09-29T06:37:06Z</time>
      </trkpt>
      <trkpt lat="40.3839800" lon="-3.5353680">
        <ele>602.0</ele>
        <time>2020-09-29T06:37:07Z</time>
      </trkpt>
      <trkpt lat="40.3840550" lon="-3.5352930">
        <ele>602.0</ele>
        <time>2020-09-29T06:37:08Z</time>
      </trkpt>
      <trkpt lat="40.3840930" lon="-3.5352600">
        <ele>602.0</ele>
        <time>2020-09-29T06:37:09Z</time>
      </trkpt>
      <trkpt lat="40.3840930" lon="-3.5352600">
        <ele>602.0</ele>
        <time>2020-09-29T06:37:10Z</time>
      </trkpt>
      <trkpt lat="40.3841670" lon="-3.5351830">
        <ele>602.0</ele>
        <time>2020-09-29T06:37:11Z</time>
      </trkpt>
      <trkpt lat="40.3842020" lon="-3.5351420">
        <ele>602.0</ele>
        <time>2020-09-29T06:37:12Z</time>
      </trkpt>
      <trkpt lat="40.3842020" lon="-3.5351420">
        <ele>602.0</ele>
        <time>2020-09-29T06:37:13Z</time>
      </trkpt>
      <trkpt lat="40.3842800" lon="-3.5350580">
        <ele>602.0</ele>
        <time>2020-09-29T06:37:14Z</time>
      </trkpt>
      <trkpt lat="40.3843170" lon="-3.5350200">
        <ele>602.0</ele>
        <time>2020-09-29T06:37:15Z</time>
      </trkpt>
      <trkpt lat="40.3843170" lon="-3.5350200">
        <ele>603.0</ele>
        <time>2020-09-29T06:37:16Z</time>
      </trkpt>
      <trkpt lat="40.3843880" lon="-3.5349400">
        <ele>603.0</ele>
        <time>2020-09-29T06:37:17Z</time>
      </trkpt>
      <trkpt lat="40.3843880" lon="-3.5349400">
        <ele>603.0</ele>
        <time>2020-09-29T06:37:18Z</time>
      </trkpt>
      <trkpt lat="40.3844580" lon="-3.5348620">
        <ele>603.0</ele>
        <time>2020-09-29T06:37:19Z</time>
      </trkpt>
      <trkpt lat="40.3844580" lon="-3.5348620">
        <ele>603.0</ele>
        <time>2020-09-29T06:37:20Z</time>
      </trkpt>
      <trkpt lat="40.3845350" lon="-3.5347950">
        <ele>603.0</ele>
        <time>2020-09-29T06:37:21Z</time>
      </trkpt>
      <trkpt lat="40.3845350" lon="-3.5347950">
        <ele>603.0</ele>
        <time>2020-09-29T06:37:22Z</time>
      </trkpt>
      <trkpt lat="40.3846000" lon="-3.5347230">
        <ele>603.0</ele>
        <time>2020-09-29T06:37:23Z</time>
      </trkpt>
      <trkpt lat="40.3846000" lon="-3.5347230">
        <ele>604.0</ele>
        <time>2020-09-29T06:37:24Z</time>
      </trkpt>
      <trkpt lat="40.3846580" lon="-3.5346350">
        <ele>604.0</ele>
        <time>2020-09-29T06:37:25Z</time>
      </trkpt>
      <trkpt lat="40.3846920" lon="-3.5345930">
        <ele>604.0</ele>
        <time>2020-09-29T06:37:26Z</time>
      </trkpt>
      <trkpt lat="40.3846920" lon="-3.5345930">
        <ele>604.0</ele>
        <time>2020-09-29T06:37:27Z</time>
      </trkpt>
      <trkpt lat="40.3847570" lon="-3.5345180">
        <ele>604.0</ele>
        <time>2020-09-29T06:37:28Z</time>
      </trkpt>
      <trkpt lat="40.3847570" lon="-3.5345180">
        <ele>604.0</ele>
        <time>2020-09-29T06:37:29Z</time>
      </trkpt>
      <trkpt lat="40.3848200" lon="-3.5344320">
        <ele>604.0</ele>
        <time>2020-09-29T06:37:30Z</time>
      </trkpt>
      <trkpt lat="40.3848530" lon="-3.5343900">
        <ele>604.0</ele>
        <time>2020-09-29T06:37:31Z</time>
      </trkpt>
      <trkpt lat="40.3848530" lon="-3.5343900">
        <ele>604.0</ele>
        <time>2020-09-29T06:37:32Z</time>
      </trkpt>
      <trkpt lat="40.3849230" lon="-3.5343170">
        <ele>604.0</ele>
        <time>2020-09-29T06:37:33Z</time>
      </trkpt>
      <trkpt lat="40.3849230" lon="-3.5343170">
        <ele>604.0</ele>
        <time>2020-09-29T06:37:34Z</time>
      </trkpt>
      <trkpt lat="40.3849920" lon="-3.5342450">
        <ele>604.0</ele>
        <time>2020-09-29T06:37:35Z</time>
      </trkpt>
      <trkpt lat="40.3849920" lon="-3.5342450">
        <ele>604.0</ele>
        <time>2020-09-29T06:37:36Z</time>
      </trkpt>
      <trkpt lat="40.3850650" lon="-3.5341750">
        <ele>604.0</ele>
        <time>2020-09-29T06:37:37Z</time>
      </trkpt>
      <trkpt lat="40.3850980" lon="-3.5341420">
        <ele>604.0</ele>
        <time>2020-09-29T06:37:38Z</time>
      </trkpt>
      <trkpt lat="40.3851330" lon="-3.5340980">
        <ele>604.0</ele>
        <time>2020-09-29T06:37:39Z</time>
      </trkpt>
      <trkpt lat="40.3851330" lon="-3.5340980">
        <ele>604.0</ele>
        <time>2020-09-29T06:37:40Z</time>
      </trkpt>
      <trkpt lat="40.3852070" lon="-3.5340200">
        <ele>604.0</ele>
        <time>2020-09-29T06:37:41Z</time>
      </trkpt>
      <trkpt lat="40.3852070" lon="-3.5340200">
        <ele>605.0</ele>
        <time>2020-09-29T06:37:42Z</time>
      </trkpt>
      <trkpt lat="40.3852650" lon="-3.5339270">
        <ele>605.0</ele>
        <time>2020-09-29T06:37:43Z</time>
      </trkpt>
      <trkpt lat="40.3852650" lon="-3.5339270">
        <ele>605.0</ele>
        <time>2020-09-29T06:37:44Z</time>
      </trkpt>
      <trkpt lat="40.3852770" lon="-3.5338000">
        <ele>605.0</ele>
        <time>2020-09-29T06:37:45Z</time>
      </trkpt>
      <trkpt lat="40.3852770" lon="-3.5338000">
        <ele>605.0</ele>
        <time>2020-09-29T06:37:46Z</time>
      </trkpt>
      <trkpt lat="40.3852350" lon="-3.5336850">
        <ele>605.0</ele>
        <time>2020-09-29T06:37:47Z</time>
      </trkpt>
      <trkpt lat="40.3852070" lon="-3.5336300">
        <ele>605.0</ele>
        <time>2020-09-29T06:37:48Z</time>
      </trkpt>
      <trkpt lat="40.3851750" lon="-3.5335800">
        <ele>605.0</ele>
        <time>2020-09-29T06:37:49Z</time>
      </trkpt>
      <trkpt lat="40.3851750" lon="-3.5335800">
        <ele>605.0</ele>
        <time>2020-09-29T06:37:50Z</time>
      </trkpt>
      <trkpt lat="40.3851050" lon="-3.5334780">
        <ele>605.0</ele>
        <time>2020-09-29T06:37:51Z</time>
      </trkpt>
      <trkpt lat="40.3851050" lon="-3.5334780">
        <ele>605.0</ele>
        <time>2020-09-29T06:37:52Z</time>
      </trkpt>
      <trkpt lat="40.3850350" lon="-3.5333700">
        <ele>605.0</ele>
        <time>2020-09-29T06:37:53Z</time>
      </trkpt>
      <trkpt lat="40.3850020" lon="-3.5333170">
        <ele>605.0</ele>
        <time>2020-09-29T06:37:54Z</time>
      </trkpt>
      <trkpt lat="40.3850020" lon="-3.5333170">
        <ele>605.0</ele>
        <time>2020-09-29T06:37:55Z</time>
      </trkpt>
      <trkpt lat="40.3849350" lon="-3.5332020">
        <ele>605.0</ele>
        <time>2020-09-29T06:37:56Z</time>
      </trkpt>
      <trkpt lat="40.3849350" lon="-3.5332020">
        <ele>605.0</ele>
        <time>2020-09-29T06:37:57Z</time>
      </trkpt>
      <trkpt lat="40.3848670" lon="-3.5330870">
        <ele>605.0</ele>
        <time>2020-09-29T06:37:58Z</time>
      </trkpt>
      <trkpt lat="40.3848670" lon="-3.5330870">
        <ele>605.0</ele>
        <time>2020-09-29T06:37:59Z</time>
      </trkpt>
      <trkpt lat="40.3847930" lon="-3.5329700">
        <ele>605.0</ele>
        <time>2020-09-29T06:38:00Z</time>
      </trkpt>
      <trkpt lat="40.3847930" lon="-3.5329700">
        <ele>605.0</ele>
        <time>2020-09-29T06:38:01Z</time>
      </trkpt>
      <trkpt lat="40.3847170" lon="-3.5328470">
        <ele>605.0</ele>
        <time>2020-09-29T06:38:02Z</time>
      </trkpt>
      <trkpt lat="40.3847170" lon="-3.5328470">
        <ele>605.0</ele>
        <time>2020-09-29T06:38:03Z</time>
      </trkpt>
      <trkpt lat="40.3846420" lon="-3.5327200">
        <ele>605.0</ele>
        <time>2020-09-29T06:38:04Z</time>
      </trkpt>
      <trkpt lat="40.3846050" lon="-3.5326550">
        <ele>605.0</ele>
        <time>2020-09-29T06:38:05Z</time>
      </trkpt>
      <trkpt lat="40.3846050" lon="-3.5326550">
        <ele>605.0</ele>
        <time>2020-09-29T06:38:06Z</time>
      </trkpt>
      <trkpt lat="40.3845280" lon="-3.5325270">
        <ele>605.0</ele>
        <time>2020-09-29T06:38:07Z</time>
      </trkpt>
      <trkpt lat="40.3845280" lon="-3.5325270">
        <ele>605.0</ele>
        <time>2020-09-29T06:38:08Z</time>
      </trkpt>
      <trkpt lat="40.3844520" lon="-3.5323950">
        <ele>605.0</ele>
        <time>2020-09-29T06:38:09Z</time>
      </trkpt>
      <trkpt lat="40.3844520" lon="-3.5323950">
        <ele>605.0</ele>
        <time>2020-09-29T06:38:10Z</time>
      </trkpt>
      <trkpt lat="40.3843720" lon="-3.5322650">
        <ele>605.0</ele>
        <time>2020-09-29T06:38:11Z</time>
      </trkpt>
      <trkpt lat="40.3843720" lon="-3.5322650">
        <ele>605.0</ele>
        <time>2020-09-29T06:38:12Z</time>
      </trkpt>
      <trkpt lat="40.3842980" lon="-3.5321320">
        <ele>605.0</ele>
        <time>2020-09-29T06:38:13Z</time>
      </trkpt>
      <trkpt lat="40.3842600" lon="-3.5320650">
        <ele>605.0</ele>
        <time>2020-09-29T06:38:14Z</time>
      </trkpt>
      <trkpt lat="40.3842600" lon="-3.5320650">
        <ele>605.0</ele>
        <time>2020-09-29T06:38:15Z</time>
      </trkpt>
      <trkpt lat="40.3841820" lon="-3.5319350">
        <ele>604.0</ele>
        <time>2020-09-29T06:38:16Z</time>
      </trkpt>
      <trkpt lat="40.3841820" lon="-3.5319350">
        <ele>604.0</ele>
        <time>2020-09-29T06:38:17Z</time>
      </trkpt>
      <trkpt lat="40.3841070" lon="-3.5318100">
        <ele>604.0</ele>
        <time>2020-09-29T06:38:18Z</time>
      </trkpt>
      <trkpt lat="40.3840730" lon="-3.5317480">
        <ele>604.0</ele>
        <time>2020-09-29T06:38:19Z</time>
      </trkpt>
      <trkpt lat="40.3840730" lon="-3.5317480">
        <ele>604.0</ele>
        <time>2020-09-29T06:38:20Z</time>
      </trkpt>
      <trkpt lat="40.3840050" lon="-3.5316320">
        <ele>604.0</ele>
        <time>2020-09-29T06:38:21Z</time>
      </trkpt>
      <trkpt lat="40.3840050" lon="-3.5316320">
        <ele>604.0</ele>
        <time>2020-09-29T06:38:22Z</time>
      </trkpt>
      <trkpt lat="40.3839400" lon="-3.5315180">
        <ele>604.0</ele>
        <time>2020-09-29T06:38:23Z</time>
      </trkpt>
      <trkpt lat="40.3839400" lon="-3.5315180">
        <ele>604.0</ele>
        <time>2020-09-29T06:38:24Z</time>
      </trkpt>
      <trkpt lat="40.3838770" lon="-3.5314180">
        <ele>604.0</ele>
        <time>2020-09-29T06:38:25Z</time>
      </trkpt>
      <trkpt lat="40.3838770" lon="-3.5314180">
        <ele>604.0</ele>
        <time>2020-09-29T06:38:26Z</time>
      </trkpt>
      <trkpt lat="40.3838120" lon="-3.5313220">
        <ele>604.0</ele>
        <time>2020-09-29T06:38:27Z</time>
      </trkpt>
      <trkpt lat="40.3837750" lon="-3.5312730">
        <ele>604.0</ele>
        <time>2020-09-29T06:38:28Z</time>
      </trkpt>
      <trkpt lat="40.3837330" lon="-3.5312350">
        <ele>604.0</ele>
        <time>2020-09-29T06:38:29Z</time>
      </trkpt>
      <trkpt lat="40.3837330" lon="-3.5312350">
        <ele>604.0</ele>
        <time>2020-09-29T06:38:30Z</time>
      </trkpt>
      <trkpt lat="40.3836350" lon="-3.5311780">
        <ele>604.0</ele>
        <time>2020-09-29T06:38:31Z</time>
      </trkpt>
      <trkpt lat="40.3836350" lon="-3.5311780">
        <ele>604.0</ele>
        <time>2020-09-29T06:38:32Z</time>
      </trkpt>
      <trkpt lat="40.3835330" lon="-3.5311200">
        <ele>604.0</ele>
        <time>2020-09-29T06:38:33Z</time>
      </trkpt>
      <trkpt lat="40.3835330" lon="-3.5311200">
        <ele>605.0</ele>
        <time>2020-09-29T06:38:34Z</time>
      </trkpt>
      <trkpt lat="40.3834530" lon="-3.5310180">
        <ele>605.0</ele>
        <time>2020-09-29T06:38:35Z</time>
      </trkpt>
      <trkpt lat="40.3834280" lon="-3.5309530">
        <ele>605.0</ele>
        <time>2020-09-29T06:38:36Z</time>
      </trkpt>
      <trkpt lat="40.3834150" lon="-3.5308820">
        <ele>605.0</ele>
        <time>2020-09-29T06:38:37Z</time>
      </trkpt>
      <trkpt lat="40.3834150" lon="-3.5308820">
        <ele>605.0</ele>
        <time>2020-09-29T06:38:38Z</time>
      </trkpt>
      <trkpt lat="40.3833930" lon="-3.5307350">
        <ele>605.0</ele>
        <time>2020-09-29T06:38:39Z</time>
      </trkpt>
      <trkpt lat="40.3833930" lon="-3.5307350">
        <ele>605.0</ele>
        <time>2020-09-29T06:38:40Z</time>
      </trkpt>
      <trkpt lat="40.3833450" lon="-3.5305980">
        <ele>605.0</ele>
        <time>2020-09-29T06:38:41Z</time>
      </trkpt>
      <trkpt lat="40.3833450" lon="-3.5305980">
        <ele>605.0</ele>
        <time>2020-09-29T06:38:42Z</time>
      </trkpt>
      <trkpt lat="40.3832780" lon="-3.5304750">
        <ele>605.0</ele>
        <time>2020-09-29T06:38:43Z</time>
      </trkpt>
      <trkpt lat="40.3832430" lon="-3.5304180">
        <ele>605.0</ele>
        <time>2020-09-29T06:38:44Z</time>
      </trkpt>
      <trkpt lat="40.3832430" lon="-3.5304180">
        <ele>605.0</ele>
        <time>2020-09-29T06:38:45Z</time>
      </trkpt>
      <trkpt lat="40.3831650" lon="-3.5302970">
        <ele>605.0</ele>
        <time>2020-09-29T06:38:46Z</time>
      </trkpt>
      <trkpt lat="40.3831650" lon="-3.5302970">
        <ele>605.0</ele>
        <time>2020-09-29T06:38:47Z</time>
      </trkpt>
      <trkpt lat="40.3830880" lon="-3.5301730">
        <ele>605.0</ele>
        <time>2020-09-29T06:38:48Z</time>
      </trkpt>
      <trkpt lat="40.3830500" lon="-3.5301100">
        <ele>605.0</ele>
        <time>2020-09-29T06:38:49Z</time>
      </trkpt>
      <trkpt lat="40.3830500" lon="-3.5301100">
        <ele>605.0</ele>
        <time>2020-09-29T06:38:50Z</time>
      </trkpt>
      <trkpt lat="40.3829700" lon="-3.5299880">
        <ele>605.0</ele>
        <time>2020-09-29T06:38:51Z</time>
      </trkpt>
      <trkpt lat="40.3829700" lon="-3.5299880">
        <ele>605.0</ele>
        <time>2020-09-29T06:38:52Z</time>
      </trkpt>
      <trkpt lat="40.3828830" lon="-3.5298730">
        <ele>605.0</ele>
        <time>2020-09-29T06:38:53Z</time>
      </trkpt>
      <trkpt lat="40.3828830" lon="-3.5298730">
        <ele>605.0</ele>
        <time>2020-09-29T06:38:54Z</time>
      </trkpt>
      <trkpt lat="40.3827930" lon="-3.5297620">
        <ele>605.0</ele>
        <time>2020-09-29T06:38:55Z</time>
      </trkpt>
      <trkpt lat="40.3827480" lon="-3.5297000">
        <ele>605.0</ele>
        <time>2020-09-29T06:38:56Z</time>
      </trkpt>
      <trkpt lat="40.3827480" lon="-3.5297000">
        <ele>604.0</ele>
        <time>2020-09-29T06:38:57Z</time>
      </trkpt>
      <trkpt lat="40.3826580" lon="-3.5295650">
        <ele>604.0</ele>
        <time>2020-09-29T06:38:58Z</time>
      </trkpt>
      <trkpt lat="40.3826580" lon="-3.5295650">
        <ele>604.0</ele>
        <time>2020-09-29T06:38:59Z</time>
      </trkpt>
      <trkpt lat="40.3825650" lon="-3.5294130">
        <ele>604.0</ele>
        <time>2020-09-29T06:39:00Z</time>
      </trkpt>
      <trkpt lat="40.3825150" lon="-3.5293330">
        <ele>602.0</ele>
        <time>2020-09-29T06:39:01Z</time>
      </trkpt>
      <trkpt lat="40.3825150" lon="-3.5293330">
        <ele>602.0</ele>
        <time>2020-09-29T06:39:02Z</time>
      </trkpt>
      <trkpt lat="40.3824100" lon="-3.5291580">
        <ele>601.0</ele>
        <time>2020-09-29T06:39:03Z</time>
      </trkpt>
      <trkpt lat="40.3824100" lon="-3.5291580">
        <ele>601.0</ele>
        <time>2020-09-29T06:39:04Z</time>
      </trkpt>
      <trkpt lat="40.3822980" lon="-3.5289670">
        <ele>600.0</ele>
        <time>2020-09-29T06:39:05Z</time>
      </trkpt>
      <trkpt lat="40.3822980" lon="-3.5289670">
        <ele>600.0</ele>
        <time>2020-09-29T06:39:06Z</time>
      </trkpt>
      <trkpt lat="40.3821820" lon="-3.5287600">
        <ele>598.0</ele>
        <time>2020-09-29T06:39:07Z</time>
      </trkpt>
      <trkpt lat="40.3821820" lon="-3.5287600">
        <ele>598.0</ele>
        <time>2020-09-29T06:39:08Z</time>
      </trkpt>
      <trkpt lat="40.3820630" lon="-3.5285350">
        <ele>597.0</ele>
        <time>2020-09-29T06:39:09Z</time>
      </trkpt>
      <trkpt lat="40.3820630" lon="-3.5285350">
        <ele>597.0</ele>
        <time>2020-09-29T06:39:10Z</time>
      </trkpt>
      <trkpt lat="40.3819380" lon="-3.5283020">
        <ele>596.0</ele>
        <time>2020-09-29T06:39:11Z</time>
      </trkpt>
      <trkpt lat="40.3819380" lon="-3.5283020">
        <ele>596.0</ele>
        <time>2020-09-29T06:39:12Z</time>
      </trkpt>
      <trkpt lat="40.3818000" lon="-3.5280770">
        <ele>596.0</ele>
        <time>2020-09-29T06:39:13Z</time>
      </trkpt>
      <trkpt lat="40.3818000" lon="-3.5280770">
        <ele>595.0</ele>
        <time>2020-09-29T06:39:14Z</time>
      </trkpt>
      <trkpt lat="40.3816470" lon="-3.5278850">
        <ele>595.0</ele>
        <time>2020-09-29T06:39:15Z</time>
      </trkpt>
      <trkpt lat="40.3816470" lon="-3.5278850">
        <ele>595.0</ele>
        <time>2020-09-29T06:39:16Z</time>
      </trkpt>
      <trkpt lat="40.3815030" lon="-3.5277150">
        <ele>595.0</ele>
        <time>2020-09-29T06:39:17Z</time>
      </trkpt>
      <trkpt lat="40.3815030" lon="-3.5277150">
        <ele>595.0</ele>
        <time>2020-09-29T06:39:18Z</time>
      </trkpt>
      <trkpt lat="40.3814050" lon="-3.5275020">
        <ele>593.0</ele>
        <time>2020-09-29T06:39:19Z</time>
      </trkpt>
      <trkpt lat="40.3814050" lon="-3.5275020">
        <ele>593.0</ele>
        <time>2020-09-29T06:39:20Z</time>
      </trkpt>
      <trkpt lat="40.3813980" lon="-3.5272400">
        <ele>592.0</ele>
        <time>2020-09-29T06:39:21Z</time>
      </trkpt>
      <trkpt lat="40.3813980" lon="-3.5272400">
        <ele>592.0</ele>
        <time>2020-09-29T06:39:22Z</time>
      </trkpt>
      <trkpt lat="40.3814720" lon="-3.5269830">
        <ele>591.0</ele>
        <time>2020-09-29T06:39:23Z</time>
      </trkpt>
      <trkpt lat="40.3814720" lon="-3.5269830">
        <ele>591.0</ele>
        <time>2020-09-29T06:39:24Z</time>
      </trkpt>
      <trkpt lat="40.3815530" lon="-3.5267350">
        <ele>591.0</ele>
        <time>2020-09-29T06:39:25Z</time>
      </trkpt>
      <trkpt lat="40.3815970" lon="-3.5266130">
        <ele>591.0</ele>
        <time>2020-09-29T06:39:26Z</time>
      </trkpt>
      <trkpt lat="40.3815970" lon="-3.5266130">
        <ele>591.0</ele>
        <time>2020-09-29T06:39:27Z</time>
      </trkpt>
      <trkpt lat="40.3817070" lon="-3.5263820">
        <ele>591.0</ele>
        <time>2020-09-29T06:39:28Z</time>
      </trkpt>
      <trkpt lat="40.3817070" lon="-3.5263820">
        <ele>589.0</ele>
        <time>2020-09-29T06:39:29Z</time>
      </trkpt>
      <trkpt lat="40.3818350" lon="-3.5261480">
        <ele>589.0</ele>
        <time>2020-09-29T06:39:30Z</time>
      </trkpt>
      <trkpt lat="40.3819000" lon="-3.5260250">
        <ele>588.0</ele>
        <time>2020-09-29T06:39:31Z</time>
      </trkpt>
      <trkpt lat="40.3819000" lon="-3.5260250">
        <ele>588.0</ele>
        <time>2020-09-29T06:39:32Z</time>
      </trkpt>
      <trkpt lat="40.3820230" lon="-3.5257630">
        <ele>586.0</ele>
        <time>2020-09-29T06:39:33Z</time>
      </trkpt>
      <trkpt lat="40.3820230" lon="-3.5257630">
        <ele>586.0</ele>
        <time>2020-09-29T06:39:34Z</time>
      </trkpt>
      <trkpt lat="40.3820880" lon="-3.5254630">
        <ele>585.0</ele>
        <time>2020-09-29T06:39:35Z</time>
      </trkpt>
      <trkpt lat="40.3821000" lon="-3.5253030">
        <ele>585.0</ele>
        <time>2020-09-29T06:39:36Z</time>
      </trkpt>
      <trkpt lat="40.3821000" lon="-3.5253030">
        <ele>583.0</ele>
        <time>2020-09-29T06:39:37Z</time>
      </trkpt>
      <trkpt lat="40.3821030" lon="-3.5249870">
        <ele>583.0</ele>
        <time>2020-09-29T06:39:38Z</time>
      </trkpt>
      <trkpt lat="40.3821050" lon="-3.5248300">
        <ele>582.0</ele>
        <time>2020-09-29T06:39:39Z</time>
      </trkpt>
      <trkpt lat="40.3821050" lon="-3.5248300">
        <ele>582.0</ele>
        <time>2020-09-29T06:39:40Z</time>
      </trkpt>
      <trkpt lat="40.3821070" lon="-3.5245250">
        <ele>580.0</ele>
        <time>2020-09-29T06:39:41Z</time>
      </trkpt>
      <trkpt lat="40.3821050" lon="-3.5243770">
        <ele>580.0</ele>
        <time>2020-09-29T06:39:42Z</time>
      </trkpt>
      <trkpt lat="40.3821050" lon="-3.5243770">
        <ele>579.0</ele>
        <time>2020-09-29T06:39:43Z</time>
      </trkpt>
      <trkpt lat="40.3821030" lon="-3.5240830">
        <ele>579.0</ele>
        <time>2020-09-29T06:39:44Z</time>
      </trkpt>
      <trkpt lat="40.3821030" lon="-3.5239350">
        <ele>578.0</ele>
        <time>2020-09-29T06:39:45Z</time>
      </trkpt>
      <trkpt lat="40.3821030" lon="-3.5239350">
        <ele>578.0</ele>
        <time>2020-09-29T06:39:46Z</time>
      </trkpt>
      <trkpt lat="40.3820800" lon="-3.5236450">
        <ele>577.0</ele>
        <time>2020-09-29T06:39:47Z</time>
      </trkpt>
      <trkpt lat="40.3820800" lon="-3.5236450">
        <ele>577.0</ele>
        <time>2020-09-29T06:39:48Z</time>
      </trkpt>
      <trkpt lat="40.3819850" lon="-3.5234100">
        <ele>575.0</ele>
        <time>2020-09-29T06:39:49Z</time>
      </trkpt>
      <trkpt lat="40.3819070" lon="-3.5233350">
        <ele>575.0</ele>
        <time>2020-09-29T06:39:50Z</time>
      </trkpt>
      <trkpt lat="40.3819070" lon="-3.5233350">
        <ele>574.0</ele>
        <time>2020-09-29T06:39:51Z</time>
      </trkpt>
      <trkpt lat="40.3817230" lon="-3.5232800">
        <ele>574.0</ele>
        <time>2020-09-29T06:39:52Z</time>
      </trkpt>
      <trkpt lat="40.3817230" lon="-3.5232800">
        <ele>574.0</ele>
        <time>2020-09-29T06:39:53Z</time>
      </trkpt>
      <trkpt lat="40.3815450" lon="-3.5232280">
        <ele>574.0</ele>
        <time>2020-09-29T06:39:54Z</time>
      </trkpt>
      <trkpt lat="40.3814720" lon="-3.5231580">
        <ele>573.0</ele>
        <time>2020-09-29T06:39:55Z</time>
      </trkpt>
      <trkpt lat="40.3814720" lon="-3.5231580">
        <ele>573.0</ele>
        <time>2020-09-29T06:39:56Z</time>
      </trkpt>
      <trkpt lat="40.3813900" lon="-3.5229650">
        <ele>573.0</ele>
        <time>2020-09-29T06:39:57Z</time>
      </trkpt>
      <trkpt lat="40.3813870" lon="-3.5228570">
        <ele>573.0</ele>
        <time>2020-09-29T06:39:58Z</time>
      </trkpt>
      <trkpt lat="40.3813870" lon="-3.5228570">
        <ele>572.0</ele>
        <time>2020-09-29T06:39:59Z</time>
      </trkpt>
      <trkpt lat="40.3814180" lon="-3.5226380">
        <ele>572.0</ele>
        <time>2020-09-29T06:40:00Z</time>
      </trkpt>
      <trkpt lat="40.3814180" lon="-3.5226380">
        <ele>572.0</ele>
        <time>2020-09-29T06:40:01Z</time>
      </trkpt>
      <trkpt lat="40.3814220" lon="-3.5224070">
        <ele>572.0</ele>
        <time>2020-09-29T06:40:02Z</time>
      </trkpt>
      <trkpt lat="40.3814220" lon="-3.5224070">
        <ele>572.0</ele>
        <time>2020-09-29T06:40:03Z</time>
      </trkpt>
      <trkpt lat="40.3814050" lon="-3.5221580">
        <ele>572.0</ele>
        <time>2020-09-29T06:40:04Z</time>
      </trkpt>
      <trkpt lat="40.3813970" lon="-3.5220280">
        <ele>572.0</ele>
        <time>2020-09-29T06:40:05Z</time>
      </trkpt>
      <trkpt lat="40.3813970" lon="-3.5220280">
        <ele>572.0</ele>
        <time>2020-09-29T06:40:06Z</time>
      </trkpt>
      <trkpt lat="40.3813830" lon="-3.5217570">
        <ele>572.0</ele>
        <time>2020-09-29T06:40:07Z</time>
      </trkpt>
      <trkpt lat="40.3813830" lon="-3.5217570">
        <ele>572.0</ele>
        <time>2020-09-29T06:40:08Z</time>
      </trkpt>
      <trkpt lat="40.3813600" lon="-3.5214770">
        <ele>602.0</ele>
        <time>2020-09-29T06:40:09Z</time>
      </trkpt>
      <trkpt lat="40.3813600" lon="-3.5214770">
        <ele>602.0</ele>
        <time>2020-09-29T06:40:10Z</time>
      </trkpt>
      <trkpt lat="40.3813250" lon="-3.5211920">
        <ele>601.0</ele>
        <time>2020-09-29T06:40:11Z</time>
      </trkpt>
      <trkpt lat="40.3813250" lon="-3.5211920">
        <ele>601.0</ele>
        <time>2020-09-29T06:40:12Z</time>
      </trkpt>
      <trkpt lat="40.3812730" lon="-3.5209050">
        <ele>600.0</ele>
        <time>2020-09-29T06:40:13Z</time>
      </trkpt>
      <trkpt lat="40.3812730" lon="-3.5209050">
        <ele>600.0</ele>
        <time>2020-09-29T06:40:14Z</time>
      </trkpt>
      <trkpt lat="40.3811980" lon="-3.5206230">
        <ele>598.0</ele>
        <time>2020-09-29T06:40:15Z</time>
      </trkpt>
      <trkpt lat="40.3811980" lon="-3.5206230">
        <ele>598.0</ele>
        <time>2020-09-29T06:40:16Z</time>
      </trkpt>
      <trkpt lat="40.3811470" lon="-3.5203480">
        <ele>597.0</ele>
        <time>2020-09-29T06:40:17Z</time>
      </trkpt>
      <trkpt lat="40.3811470" lon="-3.5203480">
        <ele>597.0</ele>
        <time>2020-09-29T06:40:18Z</time>
      </trkpt>
      <trkpt lat="40.3811600" lon="-3.5200780">
        <ele>596.0</ele>
        <time>2020-09-29T06:40:19Z</time>
      </trkpt>
      <trkpt lat="40.3811600" lon="-3.5200780">
        <ele>596.0</ele>
        <time>2020-09-29T06:40:20Z</time>
      </trkpt>
      <trkpt lat="40.3812530" lon="-3.5198320">
        <ele>594.0</ele>
        <time>2020-09-29T06:40:21Z</time>
      </trkpt>
      <trkpt lat="40.3812530" lon="-3.5198320">
        <ele>594.0</ele>
        <time>2020-09-29T06:40:22Z</time>
      </trkpt>
      <trkpt lat="40.3813920" lon="-3.5196180">
        <ele>593.0</ele>
        <time>2020-09-29T06:40:23Z</time>
      </trkpt>
      <trkpt lat="40.3813920" lon="-3.5196180">
        <ele>593.0</ele>
        <time>2020-09-29T06:40:24Z</time>
      </trkpt>
      <trkpt lat="40.3814870" lon="-3.5194030">
        <ele>592.0</ele>
        <time>2020-09-29T06:40:25Z</time>
      </trkpt>
      <trkpt lat="40.3814870" lon="-3.5194030">
        <ele>592.0</ele>
        <time>2020-09-29T06:40:26Z</time>
      </trkpt>
      <trkpt lat="40.3814630" lon="-3.5191670">
        <ele>591.0</ele>
        <time>2020-09-29T06:40:27Z</time>
      </trkpt>
      <trkpt lat="40.3814200" lon="-3.5190620">
        <ele>591.0</ele>
        <time>2020-09-29T06:40:28Z</time>
      </trkpt>
      <trkpt lat="40.3814200" lon="-3.5190620">
        <ele>590.0</ele>
        <time>2020-09-29T06:40:29Z</time>
      </trkpt>
      <trkpt lat="40.3813250" lon="-3.5188600">
        <ele>590.0</ele>
        <time>2020-09-29T06:40:30Z</time>
      </trkpt>
      <trkpt lat="40.3812830" lon="-3.5187570">
        <ele>590.0</ele>
        <time>2020-09-29T06:40:31Z</time>
      </trkpt>
      <trkpt lat="40.3812830" lon="-3.5187570">
        <ele>590.0</ele>
        <time>2020-09-29T06:40:32Z</time>
      </trkpt>
      <trkpt lat="40.3812150" lon="-3.5185450">
        <ele>590.0</ele>
        <time>2020-09-29T06:40:33Z</time>
      </trkpt>
      <trkpt lat="40.3812150" lon="-3.5185450">
        <ele>590.0</ele>
        <time>2020-09-29T06:40:34Z</time>
      </trkpt>
      <trkpt lat="40.3811670" lon="-3.5183270">
        <ele>590.0</ele>
        <time>2020-09-29T06:40:35Z</time>
      </trkpt>
      <trkpt lat="40.3811670" lon="-3.5183270">
        <ele>590.0</ele>
        <time>2020-09-29T06:40:36Z</time>
      </trkpt>
      <trkpt lat="40.3811580" lon="-3.5180980">
        <ele>589.0</ele>
        <time>2020-09-29T06:40:37Z</time>
      </trkpt>
      <trkpt lat="40.3811580" lon="-3.5180980">
        <ele>589.0</ele>
        <time>2020-09-29T06:40:38Z</time>
      </trkpt>
      <trkpt lat="40.3812420" lon="-3.5179130">
        <ele>589.0</ele>
        <time>2020-09-29T06:40:39Z</time>
      </trkpt>
      <trkpt lat="40.3812420" lon="-3.5179130">
        <ele>589.0</ele>
        <time>2020-09-29T06:40:40Z</time>
      </trkpt>
      <trkpt lat="40.3814020" lon="-3.5178230">
        <ele>589.0</ele>
        <time>2020-09-29T06:40:41Z</time>
      </trkpt>
      <trkpt lat="40.3814020" lon="-3.5178230">
        <ele>589.0</ele>
        <time>2020-09-29T06:40:42Z</time>
      </trkpt>
      <trkpt lat="40.3815720" lon="-3.5178230">
        <ele>589.0</ele>
        <time>2020-09-29T06:40:43Z</time>
      </trkpt>
      <trkpt lat="40.3815720" lon="-3.5178230">
        <ele>589.0</ele>
        <time>2020-09-29T06:40:44Z</time>
      </trkpt>
      <trkpt lat="40.3817380" lon="-3.5178850">
        <ele>589.0</ele>
        <time>2020-09-29T06:40:45Z</time>
      </trkpt>
      <trkpt lat="40.3817380" lon="-3.5178850">
        <ele>589.0</ele>
        <time>2020-09-29T06:40:46Z</time>
      </trkpt>
      <trkpt lat="40.3819020" lon="-3.5179600">
        <ele>589.0</ele>
        <time>2020-09-29T06:40:47Z</time>
      </trkpt>
      <trkpt lat="40.3819830" lon="-3.5179980">
        <ele>589.0</ele>
        <time>2020-09-29T06:40:48Z</time>
      </trkpt>
      <trkpt lat="40.3820650" lon="-3.5180350">
        <ele>589.0</ele>
        <time>2020-09-29T06:40:49Z</time>
      </trkpt>
      <trkpt lat="40.3820650" lon="-3.5180350">
        <ele>589.0</ele>
        <time>2020-09-29T06:40:50Z</time>
      </trkpt>
      <trkpt lat="40.3822300" lon="-3.5181050">
        <ele>589.0</ele>
        <time>2020-09-29T06:40:51Z</time>
      </trkpt>
      <trkpt lat="40.3822300" lon="-3.5181050">
        <ele>589.0</ele>
        <time>2020-09-29T06:40:52Z</time>
      </trkpt>
      <trkpt lat="40.3824000" lon="-3.5181730">
        <ele>588.0</ele>
        <time>2020-09-29T06:40:53Z</time>
      </trkpt>
      <trkpt lat="40.3824000" lon="-3.5181730">
        <ele>588.0</ele>
        <time>2020-09-29T06:40:54Z</time>
      </trkpt>
      <trkpt lat="40.3825830" lon="-3.5182280">
        <ele>587.0</ele>
        <time>2020-09-29T06:40:55Z</time>
      </trkpt>
      <trkpt lat="40.3826780" lon="-3.5182500">
        <ele>587.0</ele>
        <time>2020-09-29T06:40:56Z</time>
      </trkpt>
      <trkpt lat="40.3826780" lon="-3.5182500">
        <ele>587.0</ele>
        <time>2020-09-29T06:40:57Z</time>
      </trkpt>
      <trkpt lat="40.3828730" lon="-3.5182900">
        <ele>587.0</ele>
        <time>2020-09-29T06:40:58Z</time>
      </trkpt>
      <trkpt lat="40.3829720" lon="-3.5183130">
        <ele>586.0</ele>
        <time>2020-09-29T06:40:59Z</time>
      </trkpt>
      <trkpt lat="40.3829720" lon="-3.5183130">
        <ele>586.0</ele>
        <time>2020-09-29T06:41:00Z</time>
      </trkpt>
      <trkpt lat="40.3831720" lon="-3.5183580">
        <ele>585.0</ele>
        <time>2020-09-29T06:41:01Z</time>
      </trkpt>
      <trkpt lat="40.3831720" lon="-3.5183580">
        <ele>585.0</ele>
        <time>2020-09-29T06:41:02Z</time>
      </trkpt>
      <trkpt lat="40.3833780" lon="-3.5184050">
        <ele>584.0</ele>
        <time>2020-09-29T06:41:03Z</time>
      </trkpt>
      <trkpt lat="40.3834850" lon="-3.5184320">
        <ele>584.0</ele>
        <time>2020-09-29T06:41:04Z</time>
      </trkpt>
      <trkpt lat="40.3834850" lon="-3.5184320">
        <ele>582.0</ele>
        <time>2020-09-29T06:41:05Z</time>
      </trkpt>
      <trkpt lat="40.3836970" lon="-3.5184850">
        <ele>582.0</ele>
        <time>2020-09-29T06:41:06Z</time>
      </trkpt>
      <trkpt lat="40.3836970" lon="-3.5184850">
        <ele>582.0</ele>
        <time>2020-09-29T06:41:07Z</time>
      </trkpt>
      <trkpt lat="40.3839080" lon="-3.5185350">
        <ele>582.0</ele>
        <time>2020-09-29T06:41:08Z</time>
      </trkpt>
      <trkpt lat="40.3840200" lon="-3.5185450">
        <ele>580.0</ele>
        <time>2020-09-29T06:41:09Z</time>
      </trkpt>
      <trkpt lat="40.3840200" lon="-3.5185450">
        <ele>580.0</ele>
        <time>2020-09-29T06:41:10Z</time>
      </trkpt>
      <trkpt lat="40.3842500" lon="-3.5185430">
        <ele>579.0</ele>
        <time>2020-09-29T06:41:11Z</time>
      </trkpt>
      <trkpt lat="40.3842500" lon="-3.5185430">
        <ele>579.0</ele>
        <time>2020-09-29T06:41:12Z</time>
      </trkpt>
      <trkpt lat="40.3844900" lon="-3.5185350">
        <ele>577.0</ele>
        <time>2020-09-29T06:41:13Z</time>
      </trkpt>
      <trkpt lat="40.3844900" lon="-3.5185350">
        <ele>575.0</ele>
        <time>2020-09-29T06:41:14Z</time>
      </trkpt>
      <trkpt lat="40.3847380" lon="-3.5185200">
        <ele>575.0</ele>
        <time>2020-09-29T06:41:15Z</time>
      </trkpt>
      <trkpt lat="40.3847380" lon="-3.5185200">
        <ele>574.0</ele>
        <time>2020-09-29T06:41:16Z</time>
      </trkpt>
      <trkpt lat="40.3849950" lon="-3.5185070">
        <ele>574.0</ele>
        <time>2020-09-29T06:41:17Z</time>
      </trkpt>
      <trkpt lat="40.3851250" lon="-3.5185020">
        <ele>572.0</ele>
        <time>2020-09-29T06:41:18Z</time>
      </trkpt>
      <trkpt lat="40.3852530" lon="-3.5184950">
        <ele>572.0</ele>
        <time>2020-09-29T06:41:19Z</time>
      </trkpt>
      <trkpt lat="40.3852530" lon="-3.5184950">
        <ele>572.0</ele>
        <time>2020-09-29T06:41:20Z</time>
      </trkpt>
      <trkpt lat="40.3855150" lon="-3.5184800">
        <ele>570.0</ele>
        <time>2020-09-29T06:41:21Z</time>
      </trkpt>
      <trkpt lat="40.3855150" lon="-3.5184800">
        <ele>569.0</ele>
        <time>2020-09-29T06:41:22Z</time>
      </trkpt>
      <trkpt lat="40.3857770" lon="-3.5184350">
        <ele>569.0</ele>
        <time>2020-09-29T06:41:23Z</time>
      </trkpt>
      <trkpt lat="40.3857770" lon="-3.5184350">
        <ele>567.0</ele>
        <time>2020-09-29T06:41:24Z</time>
      </trkpt>
      <trkpt lat="40.3860280" lon="-3.5183350">
        <ele>567.0</ele>
        <time>2020-09-29T06:41:25Z</time>
      </trkpt>
      <trkpt lat="40.3860280" lon="-3.5183350">
        <ele>566.0</ele>
        <time>2020-09-29T06:41:26Z</time>
      </trkpt>
      <trkpt lat="40.3862730" lon="-3.5182280">
        <ele>566.0</ele>
        <time>2020-09-29T06:41:27Z</time>
      </trkpt>
      <trkpt lat="40.3863900" lon="-3.5181850">
        <ele>565.0</ele>
        <time>2020-09-29T06:41:28Z</time>
      </trkpt>
      <trkpt lat="40.3865050" lon="-3.5181450">
        <ele>565.0</ele>
        <time>2020-09-29T06:41:29Z</time>
      </trkpt>
      <trkpt lat="40.3866180" lon="-3.5181130">
        <ele>565.0</ele>
        <time>2020-09-29T06:41:30Z</time>
      </trkpt>
      <trkpt lat="40.3866180" lon="-3.5181130">
        <ele>565.0</ele>
        <time>2020-09-29T06:41:31Z</time>
      </trkpt>
      <trkpt lat="40.3868430" lon="-3.5180670">
        <ele>565.0</ele>
        <time>2020-09-29T06:41:32Z</time>
      </trkpt>
      <trkpt lat="40.3869530" lon="-3.5180500">
        <ele>565.0</ele>
        <time>2020-09-29T06:41:33Z</time>
      </trkpt>
      <trkpt lat="40.3869530" lon="-3.5180500">
        <ele>564.0</ele>
        <time>2020-09-29T06:41:34Z</time>
      </trkpt>
      <trkpt lat="40.3871670" lon="-3.5180380">
        <ele>564.0</ele>
        <time>2020-09-29T06:41:35Z</time>
      </trkpt>
      <trkpt lat="40.3871670" lon="-3.5180380">
        <ele>564.0</ele>
        <time>2020-09-29T06:41:36Z</time>
      </trkpt>
      <trkpt lat="40.3873700" lon="-3.5180430">
        <ele>564.0</ele>
        <time>2020-09-29T06:41:37Z</time>
      </trkpt>
      <trkpt lat="40.3873700" lon="-3.5180430">
        <ele>564.0</ele>
        <time>2020-09-29T06:41:38Z</time>
      </trkpt>
      <trkpt lat="40.3875670" lon="-3.5180550">
        <ele>564.0</ele>
        <time>2020-09-29T06:41:39Z</time>
      </trkpt>
      <trkpt lat="40.3875670" lon="-3.5180550">
        <ele>564.0</ele>
        <time>2020-09-29T06:41:40Z</time>
      </trkpt>
      <trkpt lat="40.3877570" lon="-3.5180620">
        <ele>564.0</ele>
        <time>2020-09-29T06:41:41Z</time>
      </trkpt>
      <trkpt lat="40.3877570" lon="-3.5180620">
        <ele>564.0</ele>
        <time>2020-09-29T06:41:42Z</time>
      </trkpt>
      <trkpt lat="40.3879400" lon="-3.5180700">
        <ele>564.0</ele>
        <time>2020-09-29T06:41:43Z</time>
      </trkpt>
      <trkpt lat="40.3879400" lon="-3.5180700">
        <ele>564.0</ele>
        <time>2020-09-29T06:41:44Z</time>
      </trkpt>
      <trkpt lat="40.3881200" lon="-3.5180770">
        <ele>564.0</ele>
        <time>2020-09-29T06:41:45Z</time>
      </trkpt>
      <trkpt lat="40.3881200" lon="-3.5180770">
        <ele>564.0</ele>
        <time>2020-09-29T06:41:46Z</time>
      </trkpt>
      <trkpt lat="40.3882950" lon="-3.5180880">
        <ele>564.0</ele>
        <time>2020-09-29T06:41:47Z</time>
      </trkpt>
      <trkpt lat="40.3883800" lon="-3.5180950">
        <ele>564.0</ele>
        <time>2020-09-29T06:41:48Z</time>
      </trkpt>
      <trkpt lat="40.3884630" lon="-3.5181030">
        <ele>564.0</ele>
        <time>2020-09-29T06:41:49Z</time>
      </trkpt>
      <trkpt lat="40.3884630" lon="-3.5181030">
        <ele>564.0</ele>
        <time>2020-09-29T06:41:50Z</time>
      </trkpt>
      <trkpt lat="40.3886280" lon="-3.5181080">
        <ele>564.0</ele>
        <time>2020-09-29T06:41:51Z</time>
      </trkpt>
      <trkpt lat="40.3886280" lon="-3.5181080">
        <ele>564.0</ele>
        <time>2020-09-29T06:41:52Z</time>
      </trkpt>
      <trkpt lat="40.3887900" lon="-3.5181120">
        <ele>564.0</ele>
        <time>2020-09-29T06:41:53Z</time>
      </trkpt>
      <trkpt lat="40.3887900" lon="-3.5181120">
        <ele>564.0</ele>
        <time>2020-09-29T06:41:54Z</time>
      </trkpt>
      <trkpt lat="40.3889520" lon="-3.5181200">
        <ele>564.0</ele>
        <time>2020-09-29T06:41:55Z</time>
      </trkpt>
      <trkpt lat="40.3889520" lon="-3.5181200">
        <ele>565.0</ele>
        <time>2020-09-29T06:41:56Z</time>
      </trkpt>
      <trkpt lat="40.3891030" lon="-3.5181300">
        <ele>565.0</ele>
        <time>2020-09-29T06:41:57Z</time>
      </trkpt>
      <trkpt lat="40.3891030" lon="-3.5181300">
        <ele>565.0</ele>
        <time>2020-09-29T06:41:58Z</time>
      </trkpt>
      <trkpt lat="40.3892550" lon="-3.5181280">
        <ele>565.0</ele>
        <time>2020-09-29T06:41:59Z</time>
      </trkpt>
      <trkpt lat="40.3892550" lon="-3.5181280">
        <ele>565.0</ele>
        <time>2020-09-29T06:42:00Z</time>
      </trkpt>
      <trkpt lat="40.3894050" lon="-3.5181370">
        <ele>565.0</ele>
        <time>2020-09-29T06:42:01Z</time>
      </trkpt>
      <trkpt lat="40.3894050" lon="-3.5181370">
        <ele>566.0</ele>
        <time>2020-09-29T06:42:02Z</time>
      </trkpt>
      <trkpt lat="40.3895550" lon="-3.5181500">
        <ele>566.0</ele>
        <time>2020-09-29T06:42:03Z</time>
      </trkpt>
      <trkpt lat="40.3895550" lon="-3.5181500">
        <ele>566.0</ele>
        <time>2020-09-29T06:42:04Z</time>
      </trkpt>
      <trkpt lat="40.3897080" lon="-3.5181500">
        <ele>566.0</ele>
        <time>2020-09-29T06:42:05Z</time>
      </trkpt>
      <trkpt lat="40.3897080" lon="-3.5181500">
        <ele>566.0</ele>
        <time>2020-09-29T06:42:06Z</time>
      </trkpt>
      <trkpt lat="40.3898650" lon="-3.5181630">
        <ele>566.0</ele>
        <time>2020-09-29T06:42:07Z</time>
      </trkpt>
      <trkpt lat="40.3898650" lon="-3.5181630">
        <ele>566.0</ele>
        <time>2020-09-29T06:42:08Z</time>
      </trkpt>
      <trkpt lat="40.3900220" lon="-3.5181780">
        <ele>566.0</ele>
        <time>2020-09-29T06:42:09Z</time>
      </trkpt>
      <trkpt lat="40.3900220" lon="-3.5181780">
        <ele>566.0</ele>
        <time>2020-09-29T06:42:10Z</time>
      </trkpt>
      <trkpt lat="40.3901830" lon="-3.5181870">
        <ele>566.0</ele>
        <time>2020-09-29T06:42:11Z</time>
      </trkpt>
      <trkpt lat="40.3901830" lon="-3.5181870">
        <ele>566.0</ele>
        <time>2020-09-29T06:42:12Z</time>
      </trkpt>
      <trkpt lat="40.3903380" lon="-3.5182000">
        <ele>566.0</ele>
        <time>2020-09-29T06:42:13Z</time>
      </trkpt>
      <trkpt lat="40.3903380" lon="-3.5182000">
        <ele>566.0</ele>
        <time>2020-09-29T06:42:14Z</time>
      </trkpt>
      <trkpt lat="40.3904970" lon="-3.5182080">
        <ele>566.0</ele>
        <time>2020-09-29T06:42:15Z</time>
      </trkpt>
      <trkpt lat="40.3904970" lon="-3.5182080">
        <ele>566.0</ele>
        <time>2020-09-29T06:42:16Z</time>
      </trkpt>
      <trkpt lat="40.3906500" lon="-3.5182150">
        <ele>566.0</ele>
        <time>2020-09-29T06:42:17Z</time>
      </trkpt>
      <trkpt lat="40.3907280" lon="-3.5182200">
        <ele>566.0</ele>
        <time>2020-09-29T06:42:18Z</time>
      </trkpt>
      <trkpt lat="40.3908050" lon="-3.5182270">
        <ele>566.0</ele>
        <time>2020-09-29T06:42:19Z</time>
      </trkpt>
      <trkpt lat="40.3908050" lon="-3.5182270">
        <ele>566.0</ele>
        <time>2020-09-29T06:42:20Z</time>
      </trkpt>
      <trkpt lat="40.3909580" lon="-3.5182370">
        <ele>566.0</ele>
        <time>2020-09-29T06:42:21Z</time>
      </trkpt>
      <trkpt lat="40.3910370" lon="-3.5182420">
        <ele>566.0</ele>
        <time>2020-09-29T06:42:22Z</time>
      </trkpt>
      <trkpt lat="40.3910370" lon="-3.5182420">
        <ele>566.0</ele>
        <time>2020-09-29T06:42:23Z</time>
      </trkpt>
      <trkpt lat="40.3911900" lon="-3.5182520">
        <ele>566.0</ele>
        <time>2020-09-29T06:42:24Z</time>
      </trkpt>
      <trkpt lat="40.3911900" lon="-3.5182520">
        <ele>566.0</ele>
        <time>2020-09-29T06:42:25Z</time>
      </trkpt>
      <trkpt lat="40.3913420" lon="-3.5182620">
        <ele>566.0</ele>
        <time>2020-09-29T06:42:26Z</time>
      </trkpt>
      <trkpt lat="40.3914180" lon="-3.5182630">
        <ele>566.0</ele>
        <time>2020-09-29T06:42:27Z</time>
      </trkpt>
      <trkpt lat="40.3914180" lon="-3.5182630">
        <ele>566.0</ele>
        <time>2020-09-29T06:42:28Z</time>
      </trkpt>
      <trkpt lat="40.3915700" lon="-3.5182720">
        <ele>566.0</ele>
        <time>2020-09-29T06:42:29Z</time>
      </trkpt>
      <trkpt lat="40.3915700" lon="-3.5182720">
        <ele>566.0</ele>
        <time>2020-09-29T06:42:30Z</time>
      </trkpt>
      <trkpt lat="40.3917230" lon="-3.5182850">
        <ele>566.0</ele>
        <time>2020-09-29T06:42:31Z</time>
      </trkpt>
      <trkpt lat="40.3917230" lon="-3.5182850">
        <ele>566.0</ele>
        <time>2020-09-29T06:42:32Z</time>
      </trkpt>
      <trkpt lat="40.3918750" lon="-3.5182920">
        <ele>566.0</ele>
        <time>2020-09-29T06:42:33Z</time>
      </trkpt>
      <trkpt lat="40.3919500" lon="-3.5182970">
        <ele>566.0</ele>
        <time>2020-09-29T06:42:34Z</time>
      </trkpt>
      <trkpt lat="40.3919500" lon="-3.5182970">
        <ele>566.0</ele>
        <time>2020-09-29T06:42:35Z</time>
      </trkpt>
      <trkpt lat="40.3921030" lon="-3.5183030">
        <ele>566.0</ele>
        <time>2020-09-29T06:42:36Z</time>
      </trkpt>
      <trkpt lat="40.3921030" lon="-3.5183030">
        <ele>566.0</ele>
        <time>2020-09-29T06:42:37Z</time>
      </trkpt>
      <trkpt lat="40.3922530" lon="-3.5183120">
        <ele>566.0</ele>
        <time>2020-09-29T06:42:38Z</time>
      </trkpt>
      <trkpt lat="40.3923280" lon="-3.5183150">
        <ele>566.0</ele>
        <time>2020-09-29T06:42:39Z</time>
      </trkpt>
      <trkpt lat="40.3923280" lon="-3.5183150">
        <ele>565.0</ele>
        <time>2020-09-29T06:42:40Z</time>
      </trkpt>
      <trkpt lat="40.3924780" lon="-3.5183170">
        <ele>565.0</ele>
        <time>2020-09-29T06:42:41Z</time>
      </trkpt>
      <trkpt lat="40.3924780" lon="-3.5183170">
        <ele>565.0</ele>
        <time>2020-09-29T06:42:42Z</time>
      </trkpt>
      <trkpt lat="40.3926270" lon="-3.5183220">
        <ele>565.0</ele>
        <time>2020-09-29T06:42:43Z</time>
      </trkpt>
      <trkpt lat="40.3926270" lon="-3.5183220">
        <ele>565.0</ele>
        <time>2020-09-29T06:42:44Z</time>
      </trkpt>
      <trkpt lat="40.3927780" lon="-3.5183220">
        <ele>565.0</ele>
        <time>2020-09-29T06:42:45Z</time>
      </trkpt>
      <trkpt lat="40.3927780" lon="-3.5183220">
        <ele>565.0</ele>
        <time>2020-09-29T06:42:46Z</time>
      </trkpt>
      <trkpt lat="40.3929330" lon="-3.5183150">
        <ele>565.0</ele>
        <time>2020-09-29T06:42:47Z</time>
      </trkpt>
      <trkpt lat="40.3929330" lon="-3.5183150">
        <ele>565.0</ele>
        <time>2020-09-29T06:42:48Z</time>
      </trkpt>
      <trkpt lat="40.3930870" lon="-3.5182950">
        <ele>565.0</ele>
        <time>2020-09-29T06:42:49Z</time>
      </trkpt>
      <trkpt lat="40.3930870" lon="-3.5182950">
        <ele>565.0</ele>
        <time>2020-09-29T06:42:50Z</time>
      </trkpt>
      <trkpt lat="40.3932380" lon="-3.5182650">
        <ele>565.0</ele>
        <time>2020-09-29T06:42:51Z</time>
      </trkpt>
      <trkpt lat="40.3932380" lon="-3.5182650">
        <ele>565.0</ele>
        <time>2020-09-29T06:42:52Z</time>
      </trkpt>
      <trkpt lat="40.3933900" lon="-3.5182180">
        <ele>565.0</ele>
        <time>2020-09-29T06:42:53Z</time>
      </trkpt>
      <trkpt lat="40.3934680" lon="-3.5181880">
        <ele>565.0</ele>
        <time>2020-09-29T06:42:54Z</time>
      </trkpt>
      <trkpt lat="40.3935450" lon="-3.5181550">
        <ele>565.0</ele>
        <time>2020-09-29T06:42:55Z</time>
      </trkpt>
      <trkpt lat="40.3935450" lon="-3.5181550">
        <ele>565.0</ele>
        <time>2020-09-29T06:42:56Z</time>
      </trkpt>
      <trkpt lat="40.3937020" lon="-3.5180730">
        <ele>563.0</ele>
        <time>2020-09-29T06:42:57Z</time>
      </trkpt>
      <trkpt lat="40.3937020" lon="-3.5180730">
        <ele>563.0</ele>
        <time>2020-09-29T06:42:58Z</time>
      </trkpt>
      <trkpt lat="40.3938530" lon="-3.5179500">
        <ele>563.0</ele>
        <time>2020-09-29T06:42:59Z</time>
      </trkpt>
      <trkpt lat="40.3938530" lon="-3.5179500">
        <ele>563.0</ele>
        <time>2020-09-29T06:43:00Z</time>
      </trkpt>
      <trkpt lat="40.3939770" lon="-3.5177830">
        <ele>562.0</ele>
        <time>2020-09-29T06:43:01Z</time>
      </trkpt>
      <trkpt lat="40.3939770" lon="-3.5177830">
        <ele>562.0</ele>
        <time>2020-09-29T06:43:02Z</time>
      </trkpt>
      <trkpt lat="40.3940650" lon="-3.5175800">
        <ele>561.0</ele>
        <time>2020-09-29T06:43:03Z</time>
      </trkpt>
      <trkpt lat="40.3941120" lon="-3.5174780">
        <ele>561.0</ele>
        <time>2020-09-29T06:43:04Z</time>
      </trkpt>
      <trkpt lat="40.3941120" lon="-3.5174780">
        <ele>561.0</ele>
        <time>2020-09-29T06:43:05Z</time>
      </trkpt>
      <trkpt lat="40.3942280" lon="-3.5173070">
        <ele>561.0</ele>
        <time>2020-09-29T06:43:06Z</time>
      </trkpt>
      <trkpt lat="40.3942280" lon="-3.5173070">
        <ele>561.0</ele>
        <time>2020-09-29T06:43:07Z</time>
      </trkpt>
      <trkpt lat="40.3943820" lon="-3.5172270">
        <ele>561.0</ele>
        <time>2020-09-29T06:43:08Z</time>
      </trkpt>
      <trkpt lat="40.3944600" lon="-3.5172230">
        <ele>560.0</ele>
        <time>2020-09-29T06:43:09Z</time>
      </trkpt>
      <trkpt lat="40.3944600" lon="-3.5172230">
        <ele>560.0</ele>
        <time>2020-09-29T06:43:10Z</time>
      </trkpt>
      <trkpt lat="40.3946020" lon="-3.5172930">
        <ele>560.0</ele>
        <time>2020-09-29T06:43:11Z</time>
      </trkpt>
      <trkpt lat="40.3946630" lon="-3.5173450">
        <ele>560.0</ele>
        <time>2020-09-29T06:43:12Z</time>
      </trkpt>
      <trkpt lat="40.3946630" lon="-3.5173450">
        <ele>560.0</ele>
        <time>2020-09-29T06:43:13Z</time>
      </trkpt>
      <trkpt lat="40.3947900" lon="-3.5174420">
        <ele>560.0</ele>
        <time>2020-09-29T06:43:14Z</time>
      </trkpt>
      <trkpt lat="40.3948550" lon="-3.5174850">
        <ele>560.0</ele>
        <time>2020-09-29T06:43:15Z</time>
      </trkpt>
      <trkpt lat="40.3948550" lon="-3.5174850">
        <ele>561.0</ele>
        <time>2020-09-29T06:43:16Z</time>
      </trkpt>
      <trkpt lat="40.3949880" lon="-3.5175650">
        <ele>561.0</ele>
        <time>2020-09-29T06:43:17Z</time>
      </trkpt>
      <trkpt lat="40.3949880" lon="-3.5175650">
        <ele>561.0</ele>
        <time>2020-09-29T06:43:18Z</time>
      </trkpt>
      <trkpt lat="40.3951180" lon="-3.5176570">
        <ele>561.0</ele>
        <time>2020-09-29T06:43:19Z</time>
      </trkpt>
      <trkpt lat="40.3951180" lon="-3.5176570">
        <ele>561.0</ele>
        <time>2020-09-29T06:43:20Z</time>
      </trkpt>
      <trkpt lat="40.3952480" lon="-3.5177650">
        <ele>561.0</ele>
        <time>2020-09-29T06:43:21Z</time>
      </trkpt>
      <trkpt lat="40.3952480" lon="-3.5177650">
        <ele>561.0</ele>
        <time>2020-09-29T06:43:22Z</time>
      </trkpt>
      <trkpt lat="40.3953780" lon="-3.5178770">
        <ele>561.0</ele>
        <time>2020-09-29T06:43:23Z</time>
      </trkpt>
      <trkpt lat="40.3953780" lon="-3.5178770">
        <ele>561.0</ele>
        <time>2020-09-29T06:43:24Z</time>
      </trkpt>
      <trkpt lat="40.3955030" lon="-3.5179850">
        <ele>561.0</ele>
        <time>2020-09-29T06:43:25Z</time>
      </trkpt>
      <trkpt lat="40.3955030" lon="-3.5179850">
        <ele>561.0</ele>
        <time>2020-09-29T06:43:26Z</time>
      </trkpt>
      <trkpt lat="40.3956270" lon="-3.5180950">
        <ele>561.0</ele>
        <time>2020-09-29T06:43:27Z</time>
      </trkpt>
      <trkpt lat="40.3956270" lon="-3.5180950">
        <ele>561.0</ele>
        <time>2020-09-29T06:43:28Z</time>
      </trkpt>
      <trkpt lat="40.3957470" lon="-3.5181980">
        <ele>561.0</ele>
        <time>2020-09-29T06:43:29Z</time>
      </trkpt>
      <trkpt lat="40.3957470" lon="-3.5181980">
        <ele>561.0</ele>
        <time>2020-09-29T06:43:30Z</time>
      </trkpt>
      <trkpt lat="40.3958630" lon="-3.5182900">
        <ele>561.0</ele>
        <time>2020-09-29T06:43:31Z</time>
      </trkpt>
      <trkpt lat="40.3958630" lon="-3.5182900">
        <ele>561.0</ele>
        <time>2020-09-29T06:43:32Z</time>
      </trkpt>
      <trkpt lat="40.3959780" lon="-3.5183800">
        <ele>561.0</ele>
        <time>2020-09-29T06:43:33Z</time>
      </trkpt>
      <trkpt lat="40.3959780" lon="-3.5183800">
        <ele>562.0</ele>
        <time>2020-09-29T06:43:34Z</time>
      </trkpt>
      <trkpt lat="40.3960820" lon="-3.5184700">
        <ele>562.0</ele>
        <time>2020-09-29T06:43:35Z</time>
      </trkpt>
      <trkpt lat="40.3960820" lon="-3.5184700">
        <ele>562.0</ele>
        <time>2020-09-29T06:43:36Z</time>
      </trkpt>
      <trkpt lat="40.3961880" lon="-3.5185630">
        <ele>562.0</ele>
        <time>2020-09-29T06:43:37Z</time>
      </trkpt>
      <trkpt lat="40.3962350" lon="-3.5186070">
        <ele>562.0</ele>
        <time>2020-09-29T06:43:38Z</time>
      </trkpt>
      <trkpt lat="40.3962880" lon="-3.5186480">
        <ele>562.0</ele>
        <time>2020-09-29T06:43:39Z</time>
      </trkpt>
      <trkpt lat="40.3962880" lon="-3.5186480">
        <ele>563.0</ele>
        <time>2020-09-29T06:43:40Z</time>
      </trkpt>
      <trkpt lat="40.3963920" lon="-3.5187270">
        <ele>563.0</ele>
        <time>2020-09-29T06:43:41Z</time>
      </trkpt>
      <trkpt lat="40.3964370" lon="-3.5187670">
        <ele>563.0</ele>
        <time>2020-09-29T06:43:42Z</time>
      </trkpt>
      <trkpt lat="40.3964950" lon="-3.5188030">
        <ele>563.0</ele>
        <time>2020-09-29T06:43:43Z</time>
      </trkpt>
      <trkpt lat="40.3964950" lon="-3.5188030">
        <ele>563.0</ele>
        <time>2020-09-29T06:43:44Z</time>
      </trkpt>
      <trkpt lat="40.3966070" lon="-3.5188730">
        <ele>563.0</ele>
        <time>2020-09-29T06:43:45Z</time>
      </trkpt>
      <trkpt lat="40.3966070" lon="-3.5188730">
        <ele>564.0</ele>
        <time>2020-09-29T06:43:46Z</time>
      </trkpt>
      <trkpt lat="40.3967180" lon="-3.5189330">
        <ele>564.0</ele>
        <time>2020-09-29T06:43:47Z</time>
      </trkpt>
      <trkpt lat="40.3967180" lon="-3.5189330">
        <ele>564.0</ele>
        <time>2020-09-29T06:43:48Z</time>
      </trkpt>
      <trkpt lat="40.3968270" lon="-3.5189900">
        <ele>564.0</ele>
        <time>2020-09-29T06:43:49Z</time>
      </trkpt>
      <trkpt lat="40.3968270" lon="-3.5189900">
        <ele>565.0</ele>
        <time>2020-09-29T06:43:50Z</time>
      </trkpt>
      <trkpt lat="40.3969380" lon="-3.5190380">
        <ele>565.0</ele>
        <time>2020-09-29T06:43:51Z</time>
      </trkpt>
      <trkpt lat="40.3969380" lon="-3.5190380">
        <ele>565.0</ele>
        <time>2020-09-29T06:43:52Z</time>
      </trkpt>
      <trkpt lat="40.3970480" lon="-3.5190800">
        <ele>565.0</ele>
        <time>2020-09-29T06:43:53Z</time>
      </trkpt>
      <trkpt lat="40.3970480" lon="-3.5190800">
        <ele>565.0</ele>
        <time>2020-09-29T06:43:54Z</time>
      </trkpt>
      <trkpt lat="40.3971620" lon="-3.5191150">
        <ele>565.0</ele>
        <time>2020-09-29T06:43:55Z</time>
      </trkpt>
      <trkpt lat="40.3971620" lon="-3.5191150">
        <ele>565.0</ele>
        <time>2020-09-29T06:43:56Z</time>
      </trkpt>
      <trkpt lat="40.3972780" lon="-3.5191430">
        <ele>566.0</ele>
        <time>2020-09-29T06:43:57Z</time>
      </trkpt>
      <trkpt lat="40.3973370" lon="-3.5191570">
        <ele>566.0</ele>
        <time>2020-09-29T06:43:58Z</time>
      </trkpt>
      <trkpt lat="40.3973370" lon="-3.5191570">
        <ele>566.0</ele>
        <time>2020-09-29T06:43:59Z</time>
      </trkpt>
      <trkpt lat="40.3974550" lon="-3.5191750">
        <ele>566.0</ele>
        <time>2020-09-29T06:44:00Z</time>
      </trkpt>
      <trkpt lat="40.3975150" lon="-3.5191800">
        <ele>566.0</ele>
        <time>2020-09-29T06:44:01Z</time>
      </trkpt>
      <trkpt lat="40.3975150" lon="-3.5191800">
        <ele>566.0</ele>
        <time>2020-09-29T06:44:02Z</time>
      </trkpt>
      <trkpt lat="40.3976330" lon="-3.5191880">
        <ele>566.0</ele>
        <time>2020-09-29T06:44:03Z</time>
      </trkpt>
      <trkpt lat="40.3976330" lon="-3.5191880">
        <ele>566.0</ele>
        <time>2020-09-29T06:44:04Z</time>
      </trkpt>
      <trkpt lat="40.3977530" lon="-3.5191880">
        <ele>566.0</ele>
        <time>2020-09-29T06:44:05Z</time>
      </trkpt>
      <trkpt lat="40.3977530" lon="-3.5191880">
        <ele>566.0</ele>
        <time>2020-09-29T06:44:06Z</time>
      </trkpt>
      <trkpt lat="40.3978730" lon="-3.5191820">
        <ele>566.0</ele>
        <time>2020-09-29T06:44:07Z</time>
      </trkpt>
      <trkpt lat="40.3978730" lon="-3.5191820">
        <ele>566.0</ele>
        <time>2020-09-29T06:44:08Z</time>
      </trkpt>
      <trkpt lat="40.3979950" lon="-3.5191670">
        <ele>566.0</ele>
        <time>2020-09-29T06:44:09Z</time>
      </trkpt>
      <trkpt lat="40.3979950" lon="-3.5191670">
        <ele>566.0</ele>
        <time>2020-09-29T06:44:10Z</time>
      </trkpt>
      <trkpt lat="40.3981200" lon="-3.5191430">
        <ele>566.0</ele>
        <time>2020-09-29T06:44:11Z</time>
      </trkpt>
      <trkpt lat="40.3981200" lon="-3.5191430">
        <ele>566.0</ele>
        <time>2020-09-29T06:44:12Z</time>
      </trkpt>
      <trkpt lat="40.3982420" lon="-3.5191080">
        <ele>566.0</ele>
        <time>2020-09-29T06:44:13Z</time>
      </trkpt>
      <trkpt lat="40.3982420" lon="-3.5191080">
        <ele>566.0</ele>
        <time>2020-09-29T06:44:14Z</time>
      </trkpt>
      <trkpt lat="40.3983620" lon="-3.5190720">
        <ele>566.0</ele>
        <time>2020-09-29T06:44:15Z</time>
      </trkpt>
      <trkpt lat="40.3983620" lon="-3.5190720">
        <ele>566.0</ele>
        <time>2020-09-29T06:44:16Z</time>
      </trkpt>
      <trkpt lat="40.3984820" lon="-3.5190280">
        <ele>566.0</ele>
        <time>2020-09-29T06:44:17Z</time>
      </trkpt>
      <trkpt lat="40.3984820" lon="-3.5190280">
        <ele>566.0</ele>
        <time>2020-09-29T06:44:18Z</time>
      </trkpt>
      <trkpt lat="40.3986000" lon="-3.5189820">
        <ele>566.0</ele>
        <time>2020-09-29T06:44:19Z</time>
      </trkpt>
      <trkpt lat="40.3986580" lon="-3.5189570">
        <ele>566.0</ele>
        <time>2020-09-29T06:44:20Z</time>
      </trkpt>
      <trkpt lat="40.3987200" lon="-3.5189320">
        <ele>566.0</ele>
        <time>2020-09-29T06:44:21Z</time>
      </trkpt>
      <trkpt lat="40.3987200" lon="-3.5189320">
        <ele>566.0</ele>
        <time>2020-09-29T06:44:22Z</time>
      </trkpt>
      <trkpt lat="40.3988370" lon="-3.5188800">
        <ele>566.0</ele>
        <time>2020-09-29T06:44:23Z</time>
      </trkpt>
      <trkpt lat="40.3988370" lon="-3.5188800">
        <ele>566.0</ele>
        <time>2020-09-29T06:44:24Z</time>
      </trkpt>
      <trkpt lat="40.3989570" lon="-3.5188230">
        <ele>566.0</ele>
        <time>2020-09-29T06:44:25Z</time>
      </trkpt>
      <trkpt lat="40.3989570" lon="-3.5188230">
        <ele>566.0</ele>
        <time>2020-09-29T06:44:26Z</time>
      </trkpt>
      <trkpt lat="40.3990750" lon="-3.5187670">
        <ele>566.0</ele>
        <time>2020-09-29T06:44:27Z</time>
      </trkpt>
      <trkpt lat="40.3991370" lon="-3.5187380">
        <ele>566.0</ele>
        <time>2020-09-29T06:44:28Z</time>
      </trkpt>
      <trkpt lat="40.3991370" lon="-3.5187380">
        <ele>567.0</ele>
        <time>2020-09-29T06:44:29Z</time>
      </trkpt>
      <trkpt lat="40.3992600" lon="-3.5186830">
        <ele>567.0</ele>
        <time>2020-09-29T06:44:30Z</time>
      </trkpt>
      <trkpt lat="40.3992600" lon="-3.5186830">
        <ele>567.0</ele>
        <time>2020-09-29T06:44:31Z</time>
      </trkpt>
      <trkpt lat="40.3993820" lon="-3.5186230">
        <ele>567.0</ele>
        <time>2020-09-29T06:44:32Z</time>
      </trkpt>
      <trkpt lat="40.3993820" lon="-3.5186230">
        <ele>567.0</ele>
        <time>2020-09-29T06:44:33Z</time>
      </trkpt>
      <trkpt lat="40.3995000" lon="-3.5185630">
        <ele>567.0</ele>
        <time>2020-09-29T06:44:34Z</time>
      </trkpt>
      <trkpt lat="40.3995000" lon="-3.5185630">
        <ele>567.0</ele>
        <time>2020-09-29T06:44:35Z</time>
      </trkpt>
      <trkpt lat="40.3996170" lon="-3.5185100">
        <ele>567.0</ele>
        <time>2020-09-29T06:44:36Z</time>
      </trkpt>
      <trkpt lat="40.3996730" lon="-3.5184830">
        <ele>567.0</ele>
        <time>2020-09-29T06:44:37Z</time>
      </trkpt>
      <trkpt lat="40.3996730" lon="-3.5184830">
        <ele>567.0</ele>
        <time>2020-09-29T06:44:38Z</time>
      </trkpt>
      <trkpt lat="40.3997830" lon="-3.5184250">
        <ele>567.0</ele>
        <time>2020-09-29T06:44:39Z</time>
      </trkpt>
      <trkpt lat="40.3998420" lon="-3.5184050">
        <ele>567.0</ele>
        <time>2020-09-29T06:44:40Z</time>
      </trkpt>
      <trkpt lat="40.3998420" lon="-3.5184050">
        <ele>567.0</ele>
        <time>2020-09-29T06:44:41Z</time>
      </trkpt>
      <trkpt lat="40.3999630" lon="-3.5183580">
        <ele>567.0</ele>
        <time>2020-09-29T06:44:42Z</time>
      </trkpt>
      <trkpt lat="40.4000250" lon="-3.5183350">
        <ele>567.0</ele>
        <time>2020-09-29T06:44:43Z</time>
      </trkpt>
      <trkpt lat="40.4000250" lon="-3.5183350">
        <ele>567.0</ele>
        <time>2020-09-29T06:44:44Z</time>
      </trkpt>
      <trkpt lat="40.4001500" lon="-3.5182970">
        <ele>567.0</ele>
        <time>2020-09-29T06:44:45Z</time>
      </trkpt>
      <trkpt lat="40.4001500" lon="-3.5182970">
        <ele>567.0</ele>
        <time>2020-09-29T06:44:46Z</time>
      </trkpt>
      <trkpt lat="40.4002800" lon="-3.5182620">
        <ele>567.0</ele>
        <time>2020-09-29T06:44:47Z</time>
      </trkpt>
      <trkpt lat="40.4003430" lon="-3.5182480">
        <ele>567.0</ele>
        <time>2020-09-29T06:44:48Z</time>
      </trkpt>
      <trkpt lat="40.4003430" lon="-3.5182480">
        <ele>567.0</ele>
        <time>2020-09-29T06:44:49Z</time>
      </trkpt>
      <trkpt lat="40.4004780" lon="-3.5182180">
        <ele>567.0</ele>
        <time>2020-09-29T06:44:50Z</time>
      </trkpt>
      <trkpt lat="40.4005420" lon="-3.5182050">
        <ele>567.0</ele>
        <time>2020-09-29T06:44:51Z</time>
      </trkpt>
      <trkpt lat="40.4005420" lon="-3.5182050">
        <ele>567.0</ele>
        <time>2020-09-29T06:44:52Z</time>
      </trkpt>
      <trkpt lat="40.4006750" lon="-3.5181720">
        <ele>567.0</ele>
        <time>2020-09-29T06:44:53Z</time>
      </trkpt>
      <trkpt lat="40.4006750" lon="-3.5181720">
        <ele>567.0</ele>
        <time>2020-09-29T06:44:54Z</time>
      </trkpt>
      <trkpt lat="40.4008080" lon="-3.5181420">
        <ele>567.0</ele>
        <time>2020-09-29T06:44:55Z</time>
      </trkpt>
      <trkpt lat="40.4008080" lon="-3.5181420">
        <ele>567.0</ele>
        <time>2020-09-29T06:44:56Z</time>
      </trkpt>
      <trkpt lat="40.4009420" lon="-3.5181130">
        <ele>567.0</ele>
        <time>2020-09-29T06:44:57Z</time>
      </trkpt>
      <trkpt lat="40.4009420" lon="-3.5181130">
        <ele>567.0</ele>
        <time>2020-09-29T06:44:58Z</time>
      </trkpt>
      <trkpt lat="40.4010780" lon="-3.5180820">
        <ele>567.0</ele>
        <time>2020-09-29T06:44:59Z</time>
      </trkpt>
      <trkpt lat="40.4010780" lon="-3.5180820">
        <ele>567.0</ele>
        <time>2020-09-29T06:45:00Z</time>
      </trkpt>
      <trkpt lat="40.4012130" lon="-3.5180480">
        <ele>567.0</ele>
        <time>2020-09-29T06:45:01Z</time>
      </trkpt>
      <trkpt lat="40.4012130" lon="-3.5180480">
        <ele>567.0</ele>
        <time>2020-09-29T06:45:02Z</time>
      </trkpt>
      <trkpt lat="40.4013500" lon="-3.5180170">
        <ele>567.0</ele>
        <time>2020-09-29T06:45:03Z</time>
      </trkpt>
      <trkpt lat="40.4013500" lon="-3.5180170">
        <ele>567.0</ele>
        <time>2020-09-29T06:45:04Z</time>
      </trkpt>
      <trkpt lat="40.4014870" lon="-3.5179850">
        <ele>567.0</ele>
        <time>2020-09-29T06:45:05Z</time>
      </trkpt>
      <trkpt lat="40.4015570" lon="-3.5179680">
        <ele>567.0</ele>
        <time>2020-09-29T06:45:06Z</time>
      </trkpt>
      <trkpt lat="40.4016230" lon="-3.5179520">
        <ele>567.0</ele>
        <time>2020-09-29T06:45:07Z</time>
      </trkpt>
      <trkpt lat="40.4016230" lon="-3.5179520">
        <ele>567.0</ele>
        <time>2020-09-29T06:45:08Z</time>
      </trkpt>
      <trkpt lat="40.4017600" lon="-3.5179200">
        <ele>567.0</ele>
        <time>2020-09-29T06:45:09Z</time>
      </trkpt>
      <trkpt lat="40.4017600" lon="-3.5179200">
        <ele>567.0</ele>
        <time>2020-09-29T06:45:10Z</time>
      </trkpt>
      <trkpt lat="40.4018950" lon="-3.5178920">
        <ele>567.0</ele>
        <time>2020-09-29T06:45:11Z</time>
      </trkpt>
      <trkpt lat="40.4019620" lon="-3.5178780">
        <ele>567.0</ele>
        <time>2020-09-29T06:45:12Z</time>
      </trkpt>
      <trkpt lat="40.4020280" lon="-3.5178680">
        <ele>567.0</ele>
        <time>2020-09-29T06:45:13Z</time>
      </trkpt>
      <trkpt lat="40.4020280" lon="-3.5178680">
        <ele>567.0</ele>
        <time>2020-09-29T06:45:14Z</time>
      </trkpt>
      <trkpt lat="40.4021600" lon="-3.5178500">
        <ele>567.0</ele>
        <time>2020-09-29T06:45:15Z</time>
      </trkpt>
      <trkpt lat="40.4021600" lon="-3.5178500">
        <ele>567.0</ele>
        <time>2020-09-29T06:45:16Z</time>
      </trkpt>
      <trkpt lat="40.4022900" lon="-3.5178330">
        <ele>567.0</ele>
        <time>2020-09-29T06:45:17Z</time>
      </trkpt>
      <trkpt lat="40.4022900" lon="-3.5178330">
        <ele>567.0</ele>
        <time>2020-09-29T06:45:18Z</time>
      </trkpt>
      <trkpt lat="40.4024200" lon="-3.5178280">
        <ele>567.0</ele>
        <time>2020-09-29T06:45:19Z</time>
      </trkpt>
      <trkpt lat="40.4024870" lon="-3.5178270">
        <ele>567.0</ele>
        <time>2020-09-29T06:45:20Z</time>
      </trkpt>
      <trkpt lat="40.4025520" lon="-3.5178320">
        <ele>567.0</ele>
        <time>2020-09-29T06:45:21Z</time>
      </trkpt>
      <trkpt lat="40.4025520" lon="-3.5178320">
        <ele>567.0</ele>
        <time>2020-09-29T06:45:22Z</time>
      </trkpt>
      <trkpt lat="40.4026830" lon="-3.5178430">
        <ele>567.0</ele>
        <time>2020-09-29T06:45:23Z</time>
      </trkpt>
      <trkpt lat="40.4026830" lon="-3.5178430">
        <ele>567.0</ele>
        <time>2020-09-29T06:45:24Z</time>
      </trkpt>
      <trkpt lat="40.4028130" lon="-3.5178650">
        <ele>567.0</ele>
        <time>2020-09-29T06:45:25Z</time>
      </trkpt>
      <trkpt lat="40.4028130" lon="-3.5178650">
        <ele>567.0</ele>
        <time>2020-09-29T06:45:26Z</time>
      </trkpt>
      <trkpt lat="40.4029470" lon="-3.5178930">
        <ele>567.0</ele>
        <time>2020-09-29T06:45:27Z</time>
      </trkpt>
      <trkpt lat="40.4030130" lon="-3.5179100">
        <ele>567.0</ele>
        <time>2020-09-29T06:45:28Z</time>
      </trkpt>
      <trkpt lat="40.4030130" lon="-3.5179100">
        <ele>567.0</ele>
        <time>2020-09-29T06:45:29Z</time>
      </trkpt>
      <trkpt lat="40.4031450" lon="-3.5179520">
        <ele>567.0</ele>
        <time>2020-09-29T06:45:30Z</time>
      </trkpt>
      <trkpt lat="40.4031450" lon="-3.5179520">
        <ele>567.0</ele>
        <time>2020-09-29T06:45:31Z</time>
      </trkpt>
      <trkpt lat="40.4032730" lon="-3.5180030">
        <ele>567.0</ele>
        <time>2020-09-29T06:45:32Z</time>
      </trkpt>
      <trkpt lat="40.4032730" lon="-3.5180030">
        <ele>567.0</ele>
        <time>2020-09-29T06:45:33Z</time>
      </trkpt>
      <trkpt lat="40.4034020" lon="-3.5180620">
        <ele>567.0</ele>
        <time>2020-09-29T06:45:34Z</time>
      </trkpt>
      <trkpt lat="40.4034020" lon="-3.5180620">
        <ele>567.0</ele>
        <time>2020-09-29T06:45:35Z</time>
      </trkpt>
      <trkpt lat="40.4035280" lon="-3.5181200">
        <ele>567.0</ele>
        <time>2020-09-29T06:45:36Z</time>
      </trkpt>
      <trkpt lat="40.4035280" lon="-3.5181200">
        <ele>567.0</ele>
        <time>2020-09-29T06:45:37Z</time>
      </trkpt>
      <trkpt lat="40.4036500" lon="-3.5181830">
        <ele>567.0</ele>
        <time>2020-09-29T06:45:38Z</time>
      </trkpt>
      <trkpt lat="40.4037080" lon="-3.5182170">
        <ele>567.0</ele>
        <time>2020-09-29T06:45:39Z</time>
      </trkpt>
      <trkpt lat="40.4037080" lon="-3.5182170">
        <ele>567.0</ele>
        <time>2020-09-29T06:45:40Z</time>
      </trkpt>
      <trkpt lat="40.4038280" lon="-3.5182850">
        <ele>567.0</ele>
        <time>2020-09-29T06:45:41Z</time>
      </trkpt>
      <trkpt lat="40.4038280" lon="-3.5182850">
        <ele>567.0</ele>
        <time>2020-09-29T06:45:42Z</time>
      </trkpt>
      <trkpt lat="40.4039430" lon="-3.5183570">
        <ele>567.0</ele>
        <time>2020-09-29T06:45:43Z</time>
      </trkpt>
      <trkpt lat="40.4039430" lon="-3.5183570">
        <ele>567.0</ele>
        <time>2020-09-29T06:45:44Z</time>
      </trkpt>
      <trkpt lat="40.4040570" lon="-3.5184270">
        <ele>567.0</ele>
        <time>2020-09-29T06:45:45Z</time>
      </trkpt>
      <trkpt lat="40.4040570" lon="-3.5184270">
        <ele>567.0</ele>
        <time>2020-09-29T06:45:46Z</time>
      </trkpt>
      <trkpt lat="40.4041700" lon="-3.5184980">
        <ele>567.0</ele>
        <time>2020-09-29T06:45:47Z</time>
      </trkpt>
      <trkpt lat="40.4042250" lon="-3.5185330">
        <ele>567.0</ele>
        <time>2020-09-29T06:45:48Z</time>
      </trkpt>
      <trkpt lat="40.4042820" lon="-3.5185680">
        <ele>567.0</ele>
        <time>2020-09-29T06:45:49Z</time>
      </trkpt>
      <trkpt lat="40.4042820" lon="-3.5185680">
        <ele>567.0</ele>
        <time>2020-09-29T06:45:50Z</time>
      </trkpt>
      <trkpt lat="40.4043970" lon="-3.5186320">
        <ele>568.0</ele>
        <time>2020-09-29T06:45:51Z</time>
      </trkpt>
      <trkpt lat="40.4043970" lon="-3.5186320">
        <ele>568.0</ele>
        <time>2020-09-29T06:45:52Z</time>
      </trkpt>
      <trkpt lat="40.4045120" lon="-3.5186930">
        <ele>568.0</ele>
        <time>2020-09-29T06:45:53Z</time>
      </trkpt>
      <trkpt lat="40.4045680" lon="-3.5187220">
        <ele>568.0</ele>
        <time>2020-09-29T06:45:54Z</time>
      </trkpt>
      <trkpt lat="40.4046270" lon="-3.5187480">
        <ele>568.0</ele>
        <time>2020-09-29T06:45:55Z</time>
      </trkpt>
      <trkpt lat="40.4046270" lon="-3.5187480">
        <ele>568.0</ele>
        <time>2020-09-29T06:45:56Z</time>
      </trkpt>
      <trkpt lat="40.4047430" lon="-3.5187970">
        <ele>569.0</ele>
        <time>2020-09-29T06:45:57Z</time>
      </trkpt>
      <trkpt lat="40.4047430" lon="-3.5187970">
        <ele>569.0</ele>
        <time>2020-09-29T06:45:58Z</time>
      </trkpt>
      <trkpt lat="40.4048600" lon="-3.5188420">
        <ele>569.0</ele>
        <time>2020-09-29T06:45:59Z</time>
      </trkpt>
      <trkpt lat="40.4048600" lon="-3.5188420">
        <ele>569.0</ele>
        <time>2020-09-29T06:46:00Z</time>
      </trkpt>
      <trkpt lat="40.4049800" lon="-3.5188750">
        <ele>570.0</ele>
        <time>2020-09-29T06:46:01Z</time>
      </trkpt>
      <trkpt lat="40.4049800" lon="-3.5188750">
        <ele>570.0</ele>
        <time>2020-09-29T06:46:02Z</time>
      </trkpt>
      <trkpt lat="40.4051000" lon="-3.5189070">
        <ele>570.0</ele>
        <time>2020-09-29T06:46:03Z</time>
      </trkpt>
      <trkpt lat="40.4051580" lon="-3.5189170">
        <ele>570.0</ele>
        <time>2020-09-29T06:46:04Z</time>
      </trkpt>
      <trkpt lat="40.4051580" lon="-3.5189170">
        <ele>570.0</ele>
        <time>2020-09-29T06:46:05Z</time>
      </trkpt>
      <trkpt lat="40.4052770" lon="-3.5189320">
        <ele>570.0</ele>
        <time>2020-09-29T06:46:06Z</time>
      </trkpt>
      <trkpt lat="40.4053350" lon="-3.5189430">
        <ele>570.0</ele>
        <time>2020-09-29T06:46:07Z</time>
      </trkpt>
      <trkpt lat="40.4053350" lon="-3.5189430">
        <ele>570.0</ele>
        <time>2020-09-29T06:46:08Z</time>
      </trkpt>
      <trkpt lat="40.4054530" lon="-3.5189630">
        <ele>570.0</ele>
        <time>2020-09-29T06:46:09Z</time>
      </trkpt>
      <trkpt lat="40.4054530" lon="-3.5189630">
        <ele>570.0</ele>
        <time>2020-09-29T06:46:10Z</time>
      </trkpt>
      <trkpt lat="40.4055730" lon="-3.5189730">
        <ele>571.0</ele>
        <time>2020-09-29T06:46:11Z</time>
      </trkpt>
      <trkpt lat="40.4055730" lon="-3.5189730">
        <ele>571.0</ele>
        <time>2020-09-29T06:46:12Z</time>
      </trkpt>
      <trkpt lat="40.4056950" lon="-3.5189880">
        <ele>571.0</ele>
        <time>2020-09-29T06:46:13Z</time>
      </trkpt>
      <trkpt lat="40.4056950" lon="-3.5189880">
        <ele>571.0</ele>
        <time>2020-09-29T06:46:14Z</time>
      </trkpt>
      <trkpt lat="40.4058180" lon="-3.5190020">
        <ele>571.0</ele>
        <time>2020-09-29T06:46:15Z</time>
      </trkpt>
      <trkpt lat="40.4058180" lon="-3.5190020">
        <ele>571.0</ele>
        <time>2020-09-29T06:46:16Z</time>
      </trkpt>
      <trkpt lat="40.4059430" lon="-3.5190200">
        <ele>571.0</ele>
        <time>2020-09-29T06:46:17Z</time>
      </trkpt>
      <trkpt lat="40.4060070" lon="-3.5190270">
        <ele>572.0</ele>
        <time>2020-09-29T06:46:18Z</time>
      </trkpt>
      <trkpt lat="40.4060680" lon="-3.5190320">
        <ele>572.0</ele>
        <time>2020-09-29T06:46:19Z</time>
      </trkpt>
      <trkpt lat="40.4060680" lon="-3.5190320">
        <ele>572.0</ele>
        <time>2020-09-29T06:46:20Z</time>
      </trkpt>
      <trkpt lat="40.4061950" lon="-3.5190450">
        <ele>572.0</ele>
        <time>2020-09-29T06:46:21Z</time>
      </trkpt>
      <trkpt lat="40.4061950" lon="-3.5190450">
        <ele>572.0</ele>
        <time>2020-09-29T06:46:22Z</time>
      </trkpt>
      <trkpt lat="40.4063270" lon="-3.5190580">
        <ele>572.0</ele>
        <time>2020-09-29T06:46:23Z</time>
      </trkpt>
      <trkpt lat="40.4063270" lon="-3.5190580">
        <ele>572.0</ele>
        <time>2020-09-29T06:46:24Z</time>
      </trkpt>
      <trkpt lat="40.4064630" lon="-3.5190750">
        <ele>572.0</ele>
        <time>2020-09-29T06:46:25Z</time>
      </trkpt>
      <trkpt lat="40.4064630" lon="-3.5190750">
        <ele>572.0</ele>
        <time>2020-09-29T06:46:26Z</time>
      </trkpt>
      <trkpt lat="40.4066070" lon="-3.5190850">
        <ele>572.0</ele>
        <time>2020-09-29T06:46:27Z</time>
      </trkpt>
      <trkpt lat="40.4066830" lon="-3.5190900">
        <ele>572.0</ele>
        <time>2020-09-29T06:46:28Z</time>
      </trkpt>
      <trkpt lat="40.4066830" lon="-3.5190900">
        <ele>571.0</ele>
        <time>2020-09-29T06:46:29Z</time>
      </trkpt>
      <trkpt lat="40.4068350" lon="-3.5190970">
        <ele>571.0</ele>
        <time>2020-09-29T06:46:30Z</time>
      </trkpt>
      <trkpt lat="40.4069150" lon="-3.5190970">
        <ele>571.0</ele>
        <time>2020-09-29T06:46:31Z</time>
      </trkpt>
      <trkpt lat="40.4069150" lon="-3.5190970">
        <ele>571.0</ele>
        <time>2020-09-29T06:46:32Z</time>
      </trkpt>
      <trkpt lat="40.4070780" lon="-3.5190980">
        <ele>570.0</ele>
        <time>2020-09-29T06:46:33Z</time>
      </trkpt>
      <trkpt lat="40.4071600" lon="-3.5190980">
        <ele>570.0</ele>
        <time>2020-09-29T06:46:34Z</time>
      </trkpt>
      <trkpt lat="40.4071600" lon="-3.5190980">
        <ele>570.0</ele>
        <time>2020-09-29T06:46:35Z</time>
      </trkpt>
      <trkpt lat="40.4073300" lon="-3.5190880">
        <ele>570.0</ele>
        <time>2020-09-29T06:46:36Z</time>
      </trkpt>
      <trkpt lat="40.4073300" lon="-3.5190880">
        <ele>569.0</ele>
        <time>2020-09-29T06:46:37Z</time>
      </trkpt>
      <trkpt lat="40.4075000" lon="-3.5190750">
        <ele>569.0</ele>
        <time>2020-09-29T06:46:38Z</time>
      </trkpt>
      <trkpt lat="40.4075870" lon="-3.5190670">
        <ele>569.0</ele>
        <time>2020-09-29T06:46:39Z</time>
      </trkpt>
      <trkpt lat="40.4075870" lon="-3.5190670">
        <ele>569.0</ele>
        <time>2020-09-29T06:46:40Z</time>
      </trkpt>
      <trkpt lat="40.4077600" lon="-3.5190350">
        <ele>568.0</ele>
        <time>2020-09-29T06:46:41Z</time>
      </trkpt>
      <trkpt lat="40.4077600" lon="-3.5190350">
        <ele>568.0</ele>
        <time>2020-09-29T06:46:42Z</time>
      </trkpt>
      <trkpt lat="40.4079300" lon="-3.5189980">
        <ele>568.0</ele>
        <time>2020-09-29T06:46:43Z</time>
      </trkpt>
      <trkpt lat="40.4079300" lon="-3.5189980">
        <ele>568.0</ele>
        <time>2020-09-29T06:46:44Z</time>
      </trkpt>
      <trkpt lat="40.4080950" lon="-3.5189530">
        <ele>568.0</ele>
        <time>2020-09-29T06:46:45Z</time>
      </trkpt>
      <trkpt lat="40.4080950" lon="-3.5189530">
        <ele>568.0</ele>
        <time>2020-09-29T06:46:46Z</time>
      </trkpt>
      <trkpt lat="40.4082550" lon="-3.5189000">
        <ele>567.0</ele>
        <time>2020-09-29T06:46:47Z</time>
      </trkpt>
      <trkpt lat="40.4082550" lon="-3.5189000">
        <ele>567.0</ele>
        <time>2020-09-29T06:46:48Z</time>
      </trkpt>
      <trkpt lat="40.4084100" lon="-3.5188420">
        <ele>567.0</ele>
        <time>2020-09-29T06:46:49Z</time>
      </trkpt>
      <trkpt lat="40.4084100" lon="-3.5188420">
        <ele>567.0</ele>
        <time>2020-09-29T06:46:50Z</time>
      </trkpt>
      <trkpt lat="40.4085570" lon="-3.5187750">
        <ele>567.0</ele>
        <time>2020-09-29T06:46:51Z</time>
      </trkpt>
      <trkpt lat="40.4085570" lon="-3.5187750">
        <ele>567.0</ele>
        <time>2020-09-29T06:46:52Z</time>
      </trkpt>
      <trkpt lat="40.4086950" lon="-3.5186870">
        <ele>567.0</ele>
        <time>2020-09-29T06:46:53Z</time>
      </trkpt>
      <trkpt lat="40.4087520" lon="-3.5186270">
        <ele>567.0</ele>
        <time>2020-09-29T06:46:54Z</time>
      </trkpt>
      <trkpt lat="40.4088050" lon="-3.5185600">
        <ele>566.0</ele>
        <time>2020-09-29T06:46:55Z</time>
      </trkpt>
      <trkpt lat="40.4088670" lon="-3.5185020">
        <ele>566.0</ele>
        <time>2020-09-29T06:46:56Z</time>
      </trkpt>
      <trkpt lat="40.4088670" lon="-3.5185020">
        <ele>566.0</ele>
        <time>2020-09-29T06:46:57Z</time>
      </trkpt>
      <trkpt lat="40.4090170" lon="-3.5184520">
        <ele>566.0</ele>
        <time>2020-09-29T06:46:58Z</time>
      </trkpt>
      <trkpt lat="40.4090170" lon="-3.5184520">
        <ele>566.0</ele>
        <time>2020-09-29T06:46:59Z</time>
      </trkpt>
      <trkpt lat="40.4091730" lon="-3.5184570">
        <ele>566.0</ele>
        <time>2020-09-29T06:47:00Z</time>
      </trkpt>
      <trkpt lat="40.4091730" lon="-3.5184570">
        <ele>566.0</ele>
        <time>2020-09-29T06:47:01Z</time>
      </trkpt>
      <trkpt lat="40.4093300" lon="-3.5184130">
        <ele>566.0</ele>
        <time>2020-09-29T06:47:02Z</time>
      </trkpt>
      <trkpt lat="40.4094030" lon="-3.5183720">
        <ele>566.0</ele>
        <time>2020-09-29T06:47:03Z</time>
      </trkpt>
      <trkpt lat="40.4094030" lon="-3.5183720">
        <ele>566.0</ele>
        <time>2020-09-29T06:47:04Z</time>
      </trkpt>
      <trkpt lat="40.4095520" lon="-3.5182880">
        <ele>565.0</ele>
        <time>2020-09-29T06:47:05Z</time>
      </trkpt>
      <trkpt lat="40.4095520" lon="-3.5182880">
        <ele>565.0</ele>
        <time>2020-09-29T06:47:06Z</time>
      </trkpt>
      <trkpt lat="40.4097170" lon="-3.5182250">
        <ele>565.0</ele>
        <time>2020-09-29T06:47:07Z</time>
      </trkpt>
      <trkpt lat="40.4098030" lon="-3.5182000">
        <ele>565.0</ele>
        <time>2020-09-29T06:47:08Z</time>
      </trkpt>
      <trkpt lat="40.4098920" lon="-3.5181820">
        <ele>565.0</ele>
        <time>2020-09-29T06:47:09Z</time>
      </trkpt>
      <trkpt lat="40.4098920" lon="-3.5181820">
        <ele>565.0</ele>
        <time>2020-09-29T06:47:10Z</time>
      </trkpt>
      <trkpt lat="40.4100750" lon="-3.5181530">
        <ele>565.0</ele>
        <time>2020-09-29T06:47:11Z</time>
      </trkpt>
      <trkpt lat="40.4101630" lon="-3.5181480">
        <ele>565.0</ele>
        <time>2020-09-29T06:47:12Z</time>
      </trkpt>
      <trkpt lat="40.4102550" lon="-3.5181470">
        <ele>564.0</ele>
        <time>2020-09-29T06:47:13Z</time>
      </trkpt>
      <trkpt lat="40.4102550" lon="-3.5181470">
        <ele>564.0</ele>
        <time>2020-09-29T06:47:14Z</time>
      </trkpt>
      <trkpt lat="40.4104250" lon="-3.5181720">
        <ele>564.0</ele>
        <time>2020-09-29T06:47:15Z</time>
      </trkpt>
      <trkpt lat="40.4104250" lon="-3.5181720">
        <ele>564.0</ele>
        <time>2020-09-29T06:47:16Z</time>
      </trkpt>
      <trkpt lat="40.4105830" lon="-3.5182170">
        <ele>563.0</ele>
        <time>2020-09-29T06:47:17Z</time>
      </trkpt>
      <trkpt lat="40.4105830" lon="-3.5182170">
        <ele>563.0</ele>
        <time>2020-09-29T06:47:18Z</time>
      </trkpt>
      <trkpt lat="40.4107450" lon="-3.5182530">
        <ele>563.0</ele>
        <time>2020-09-29T06:47:19Z</time>
      </trkpt>
      <trkpt lat="40.4107450" lon="-3.5182530">
        <ele>563.0</ele>
        <time>2020-09-29T06:47:20Z</time>
      </trkpt>
      <trkpt lat="40.4109020" lon="-3.5182900">
        <ele>563.0</ele>
        <time>2020-09-29T06:47:21Z</time>
      </trkpt>
      <trkpt lat="40.4109800" lon="-3.5183020">
        <ele>563.0</ele>
        <time>2020-09-29T06:47:22Z</time>
      </trkpt>
      <trkpt lat="40.4109800" lon="-3.5183020">
        <ele>563.0</ele>
        <time>2020-09-29T06:47:23Z</time>
      </trkpt>
      <trkpt lat="40.4111380" lon="-3.5183380">
        <ele>563.0</ele>
        <time>2020-09-29T06:47:24Z</time>
      </trkpt>
      <trkpt lat="40.4112170" lon="-3.5183550">
        <ele>563.0</ele>
        <time>2020-09-29T06:47:25Z</time>
      </trkpt>
      <trkpt lat="40.4112170" lon="-3.5183550">
        <ele>563.0</ele>
        <time>2020-09-29T06:47:26Z</time>
      </trkpt>
      <trkpt lat="40.4113770" lon="-3.5183830">
        <ele>563.0</ele>
        <time>2020-09-29T06:47:27Z</time>
      </trkpt>
      <trkpt lat="40.4113770" lon="-3.5183830">
        <ele>563.0</ele>
        <time>2020-09-29T06:47:28Z</time>
      </trkpt>
      <trkpt lat="40.4115400" lon="-3.5184170">
        <ele>562.0</ele>
        <time>2020-09-29T06:47:29Z</time>
      </trkpt>
      <trkpt lat="40.4115400" lon="-3.5184170">
        <ele>562.0</ele>
        <time>2020-09-29T06:47:30Z</time>
      </trkpt>
      <trkpt lat="40.4117050" lon="-3.5184470">
        <ele>562.0</ele>
        <time>2020-09-29T06:47:31Z</time>
      </trkpt>
      <trkpt lat="40.4117830" lon="-3.5184630">
        <ele>562.0</ele>
        <time>2020-09-29T06:47:32Z</time>
      </trkpt>
      <trkpt lat="40.4118600" lon="-3.5184780">
        <ele>562.0</ele>
        <time>2020-09-29T06:47:33Z</time>
      </trkpt>
      <trkpt lat="40.4118600" lon="-3.5184780">
        <ele>562.0</ele>
        <time>2020-09-29T06:47:34Z</time>
      </trkpt>
      <trkpt lat="40.4120150" lon="-3.5185080">
        <ele>562.0</ele>
        <time>2020-09-29T06:47:35Z</time>
      </trkpt>
      <trkpt lat="40.4120150" lon="-3.5185080">
        <ele>562.0</ele>
        <time>2020-09-29T06:47:36Z</time>
      </trkpt>
      <trkpt lat="40.4121670" lon="-3.5185400">
        <ele>562.0</ele>
        <time>2020-09-29T06:47:37Z</time>
      </trkpt>
      <trkpt lat="40.4121670" lon="-3.5185400">
        <ele>562.0</ele>
        <time>2020-09-29T06:47:38Z</time>
      </trkpt>
      <trkpt lat="40.4123170" lon="-3.5185680">
        <ele>561.0</ele>
        <time>2020-09-29T06:47:39Z</time>
      </trkpt>
      <trkpt lat="40.4123170" lon="-3.5185680">
        <ele>561.0</ele>
        <time>2020-09-29T06:47:40Z</time>
      </trkpt>
      <trkpt lat="40.4124670" lon="-3.5186000">
        <ele>561.0</ele>
        <time>2020-09-29T06:47:41Z</time>
      </trkpt>
      <trkpt lat="40.4124670" lon="-3.5186000">
        <ele>561.0</ele>
        <time>2020-09-29T06:47:42Z</time>
      </trkpt>
      <trkpt lat="40.4126180" lon="-3.5186270">
        <ele>561.0</ele>
        <time>2020-09-29T06:47:43Z</time>
      </trkpt>
      <trkpt lat="40.4126180" lon="-3.5186270">
        <ele>561.0</ele>
        <time>2020-09-29T06:47:44Z</time>
      </trkpt>
      <trkpt lat="40.4127680" lon="-3.5186150">
        <ele>561.0</ele>
        <time>2020-09-29T06:47:45Z</time>
      </trkpt>
      <trkpt lat="40.4127680" lon="-3.5186150">
        <ele>561.0</ele>
        <time>2020-09-29T06:47:46Z</time>
      </trkpt>
      <trkpt lat="40.4129050" lon="-3.5185530">
        <ele>561.0</ele>
        <time>2020-09-29T06:47:47Z</time>
      </trkpt>
      <trkpt lat="40.4129050" lon="-3.5185530">
        <ele>561.0</ele>
        <time>2020-09-29T06:47:48Z</time>
      </trkpt>
      <trkpt lat="40.4130380" lon="-3.5185850">
        <ele>561.0</ele>
        <time>2020-09-29T06:47:49Z</time>
      </trkpt>
      <trkpt lat="40.4130380" lon="-3.5185850">
        <ele>561.0</ele>
        <time>2020-09-29T06:47:50Z</time>
      </trkpt>
      <trkpt lat="40.4131700" lon="-3.5186550">
        <ele>560.0</ele>
        <time>2020-09-29T06:47:51Z</time>
      </trkpt>
      <trkpt lat="40.4131700" lon="-3.5186550">
        <ele>560.0</ele>
        <time>2020-09-29T06:47:52Z</time>
      </trkpt>
      <trkpt lat="40.4133120" lon="-3.5186770">
        <ele>560.0</ele>
        <time>2020-09-29T06:47:53Z</time>
      </trkpt>
      <trkpt lat="40.4133120" lon="-3.5186770">
        <ele>560.0</ele>
        <time>2020-09-29T06:47:54Z</time>
      </trkpt>
      <trkpt lat="40.4134580" lon="-3.5186720">
        <ele>560.0</ele>
        <time>2020-09-29T06:47:55Z</time>
      </trkpt>
      <trkpt lat="40.4134580" lon="-3.5186720">
        <ele>560.0</ele>
        <time>2020-09-29T06:47:56Z</time>
      </trkpt>
      <trkpt lat="40.4136020" lon="-3.5186730">
        <ele>560.0</ele>
        <time>2020-09-29T06:47:57Z</time>
      </trkpt>
      <trkpt lat="40.4136750" lon="-3.5186750">
        <ele>560.0</ele>
        <time>2020-09-29T06:47:58Z</time>
      </trkpt>
      <trkpt lat="40.4136750" lon="-3.5186750">
        <ele>560.0</ele>
        <time>2020-09-29T06:47:59Z</time>
      </trkpt>
      <trkpt lat="40.4138230" lon="-3.5186780">
        <ele>559.0</ele>
        <time>2020-09-29T06:48:00Z</time>
      </trkpt>
      <trkpt lat="40.4138230" lon="-3.5186780">
        <ele>559.0</ele>
        <time>2020-09-29T06:48:01Z</time>
      </trkpt>
      <trkpt lat="40.4139680" lon="-3.5186970">
        <ele>559.0</ele>
        <time>2020-09-29T06:48:02Z</time>
      </trkpt>
      <trkpt lat="40.4140400" lon="-3.5187020">
        <ele>559.0</ele>
        <time>2020-09-29T06:48:03Z</time>
      </trkpt>
      <trkpt lat="40.4140400" lon="-3.5187020">
        <ele>559.0</ele>
        <time>2020-09-29T06:48:04Z</time>
      </trkpt>
      <trkpt lat="40.4141820" lon="-3.5187200">
        <ele>559.0</ele>
        <time>2020-09-29T06:48:05Z</time>
      </trkpt>
      <trkpt lat="40.4141820" lon="-3.5187200">
        <ele>559.0</ele>
        <time>2020-09-29T06:48:06Z</time>
      </trkpt>
      <trkpt lat="40.4143170" lon="-3.5187430">
        <ele>559.0</ele>
        <time>2020-09-29T06:48:07Z</time>
      </trkpt>
      <trkpt lat="40.4143850" lon="-3.5187600">
        <ele>559.0</ele>
        <time>2020-09-29T06:48:08Z</time>
      </trkpt>
      <trkpt lat="40.4144520" lon="-3.5187750">
        <ele>559.0</ele>
        <time>2020-09-29T06:48:09Z</time>
      </trkpt>
      <trkpt lat="40.4144520" lon="-3.5187750">
        <ele>559.0</ele>
        <time>2020-09-29T06:48:10Z</time>
      </trkpt>
      <trkpt lat="40.4145870" lon="-3.5188120">
        <ele>559.0</ele>
        <time>2020-09-29T06:48:11Z</time>
      </trkpt>
      <trkpt lat="40.4145870" lon="-3.5188120">
        <ele>559.0</ele>
        <time>2020-09-29T06:48:12Z</time>
      </trkpt>
      <trkpt lat="40.4147250" lon="-3.5188530">
        <ele>559.0</ele>
        <time>2020-09-29T06:48:13Z</time>
      </trkpt>
      <trkpt lat="40.4147250" lon="-3.5188530">
        <ele>559.0</ele>
        <time>2020-09-29T06:48:14Z</time>
      </trkpt>
      <trkpt lat="40.4148700" lon="-3.5189080">
        <ele>559.0</ele>
        <time>2020-09-29T06:48:15Z</time>
      </trkpt>
      <trkpt lat="40.4148700" lon="-3.5189080">
        <ele>559.0</ele>
        <time>2020-09-29T06:48:16Z</time>
      </trkpt>
      <trkpt lat="40.4150270" lon="-3.5189670">
        <ele>559.0</ele>
        <time>2020-09-29T06:48:17Z</time>
      </trkpt>
      <trkpt lat="40.4151080" lon="-3.5189950">
        <ele>559.0</ele>
        <time>2020-09-29T06:48:18Z</time>
      </trkpt>
      <trkpt lat="40.4151900" lon="-3.5190270">
        <ele>559.0</ele>
        <time>2020-09-29T06:48:19Z</time>
      </trkpt>
      <trkpt lat="40.4151900" lon="-3.5190270">
        <ele>559.0</ele>
        <time>2020-09-29T06:48:20Z</time>
      </trkpt>
      <trkpt lat="40.4153550" lon="-3.5190930">
        <ele>557.0</ele>
        <time>2020-09-29T06:48:21Z</time>
      </trkpt>
      <trkpt lat="40.4153550" lon="-3.5190930">
        <ele>557.0</ele>
        <time>2020-09-29T06:48:22Z</time>
      </trkpt>
      <trkpt lat="40.4155180" lon="-3.5191680">
        <ele>557.0</ele>
        <time>2020-09-29T06:48:23Z</time>
      </trkpt>
      <trkpt lat="40.4155980" lon="-3.5192120">
        <ele>557.0</ele>
        <time>2020-09-29T06:48:24Z</time>
      </trkpt>
      <trkpt lat="40.4155980" lon="-3.5192120">
        <ele>556.0</ele>
        <time>2020-09-29T06:48:25Z</time>
      </trkpt>
      <trkpt lat="40.4157570" lon="-3.5192950">
        <ele>556.0</ele>
        <time>2020-09-29T06:48:26Z</time>
      </trkpt>
      <trkpt lat="40.4157570" lon="-3.5192950">
        <ele>556.0</ele>
        <time>2020-09-29T06:48:27Z</time>
      </trkpt>
      <trkpt lat="40.4159080" lon="-3.5193800">
        <ele>556.0</ele>
        <time>2020-09-29T06:48:28Z</time>
      </trkpt>
      <trkpt lat="40.4159080" lon="-3.5193800">
        <ele>556.0</ele>
        <time>2020-09-29T06:48:29Z</time>
      </trkpt>
      <trkpt lat="40.4160580" lon="-3.5194780">
        <ele>556.0</ele>
        <time>2020-09-29T06:48:30Z</time>
      </trkpt>
      <trkpt lat="40.4161330" lon="-3.5195300">
        <ele>556.0</ele>
        <time>2020-09-29T06:48:31Z</time>
      </trkpt>
      <trkpt lat="40.4161330" lon="-3.5195300">
        <ele>556.0</ele>
        <time>2020-09-29T06:48:32Z</time>
      </trkpt>
      <trkpt lat="40.4162830" lon="-3.5196280">
        <ele>556.0</ele>
        <time>2020-09-29T06:48:33Z</time>
      </trkpt>
      <trkpt lat="40.4162830" lon="-3.5196280">
        <ele>556.0</ele>
        <time>2020-09-29T06:48:34Z</time>
      </trkpt>
      <trkpt lat="40.4164330" lon="-3.5197280">
        <ele>556.0</ele>
        <time>2020-09-29T06:48:35Z</time>
      </trkpt>
      <trkpt lat="40.4164330" lon="-3.5197280">
        <ele>556.0</ele>
        <time>2020-09-29T06:48:36Z</time>
      </trkpt>
      <trkpt lat="40.4165800" lon="-3.5198280">
        <ele>556.0</ele>
        <time>2020-09-29T06:48:37Z</time>
      </trkpt>
      <trkpt lat="40.4165800" lon="-3.5198280">
        <ele>556.0</ele>
        <time>2020-09-29T06:48:38Z</time>
      </trkpt>
      <trkpt lat="40.4167230" lon="-3.5199300">
        <ele>556.0</ele>
        <time>2020-09-29T06:48:39Z</time>
      </trkpt>
      <trkpt lat="40.4167230" lon="-3.5199300">
        <ele>556.0</ele>
        <time>2020-09-29T06:48:40Z</time>
      </trkpt>
      <trkpt lat="40.4168680" lon="-3.5200180">
        <ele>556.0</ele>
        <time>2020-09-29T06:48:41Z</time>
      </trkpt>
      <trkpt lat="40.4168680" lon="-3.5200180">
        <ele>556.0</ele>
        <time>2020-09-29T06:48:42Z</time>
      </trkpt>
      <trkpt lat="40.4170170" lon="-3.5201100">
        <ele>556.0</ele>
        <time>2020-09-29T06:48:43Z</time>
      </trkpt>
      <trkpt lat="40.4170170" lon="-3.5201100">
        <ele>556.0</ele>
        <time>2020-09-29T06:48:44Z</time>
      </trkpt>
      <trkpt lat="40.4171580" lon="-3.5202080">
        <ele>556.0</ele>
        <time>2020-09-29T06:48:45Z</time>
      </trkpt>
      <trkpt lat="40.4171580" lon="-3.5202080">
        <ele>556.0</ele>
        <time>2020-09-29T06:48:46Z</time>
      </trkpt>
      <trkpt lat="40.4172930" lon="-3.5203070">
        <ele>556.0</ele>
        <time>2020-09-29T06:48:47Z</time>
      </trkpt>
      <trkpt lat="40.4173630" lon="-3.5203530">
        <ele>556.0</ele>
        <time>2020-09-29T06:48:48Z</time>
      </trkpt>
      <trkpt lat="40.4173630" lon="-3.5203530">
        <ele>556.0</ele>
        <time>2020-09-29T06:48:49Z</time>
      </trkpt>
      <trkpt lat="40.4174980" lon="-3.5204450">
        <ele>556.0</ele>
        <time>2020-09-29T06:48:50Z</time>
      </trkpt>
      <trkpt lat="40.4175670" lon="-3.5204870">
        <ele>556.0</ele>
        <time>2020-09-29T06:48:51Z</time>
      </trkpt>
      <trkpt lat="40.4175670" lon="-3.5204870">
        <ele>556.0</ele>
        <time>2020-09-29T06:48:52Z</time>
      </trkpt>
      <trkpt lat="40.4176980" lon="-3.5205770">
        <ele>556.0</ele>
        <time>2020-09-29T06:48:53Z</time>
      </trkpt>
      <trkpt lat="40.4176980" lon="-3.5205770">
        <ele>556.0</ele>
        <time>2020-09-29T06:48:54Z</time>
      </trkpt>
      <trkpt lat="40.4178300" lon="-3.5206630">
        <ele>556.0</ele>
        <time>2020-09-29T06:48:55Z</time>
      </trkpt>
      <trkpt lat="40.4178300" lon="-3.5206630">
        <ele>556.0</ele>
        <time>2020-09-29T06:48:56Z</time>
      </trkpt>
      <trkpt lat="40.4179600" lon="-3.5207570">
        <ele>556.0</ele>
        <time>2020-09-29T06:48:57Z</time>
      </trkpt>
      <trkpt lat="40.4180270" lon="-3.5208000">
        <ele>556.0</ele>
        <time>2020-09-29T06:48:58Z</time>
      </trkpt>
      <trkpt lat="40.4180270" lon="-3.5208000">
        <ele>556.0</ele>
        <time>2020-09-29T06:48:59Z</time>
      </trkpt>
      <trkpt lat="40.4181620" lon="-3.5208800">
        <ele>556.0</ele>
        <time>2020-09-29T06:49:00Z</time>
      </trkpt>
      <trkpt lat="40.4182320" lon="-3.5209120">
        <ele>556.0</ele>
        <time>2020-09-29T06:49:01Z</time>
      </trkpt>
      <trkpt lat="40.4182320" lon="-3.5209120">
        <ele>556.0</ele>
        <time>2020-09-29T06:49:02Z</time>
      </trkpt>
      <trkpt lat="40.4183730" lon="-3.5209570">
        <ele>556.0</ele>
        <time>2020-09-29T06:49:03Z</time>
      </trkpt>
      <trkpt lat="40.4183730" lon="-3.5209570">
        <ele>556.0</ele>
        <time>2020-09-29T06:49:04Z</time>
      </trkpt>
      <trkpt lat="40.4185150" lon="-3.5209820">
        <ele>556.0</ele>
        <time>2020-09-29T06:49:05Z</time>
      </trkpt>
      <trkpt lat="40.4185150" lon="-3.5209820">
        <ele>557.0</ele>
        <time>2020-09-29T06:49:06Z</time>
      </trkpt>
      <trkpt lat="40.4186570" lon="-3.5209870">
        <ele>557.0</ele>
        <time>2020-09-29T06:49:07Z</time>
      </trkpt>
      <trkpt lat="40.4186570" lon="-3.5209870">
        <ele>557.0</ele>
        <time>2020-09-29T06:49:08Z</time>
      </trkpt>
      <trkpt lat="40.4187950" lon="-3.5209600">
        <ele>558.0</ele>
        <time>2020-09-29T06:49:09Z</time>
      </trkpt>
      <trkpt lat="40.4187950" lon="-3.5209600">
        <ele>558.0</ele>
        <time>2020-09-29T06:49:10Z</time>
      </trkpt>
      <trkpt lat="40.4189320" lon="-3.5209130">
        <ele>558.0</ele>
        <time>2020-09-29T06:49:11Z</time>
      </trkpt>
      <trkpt lat="40.4190000" lon="-3.5209180">
        <ele>558.0</ele>
        <time>2020-09-29T06:49:12Z</time>
      </trkpt>
      <trkpt lat="40.4190650" lon="-3.5209500">
        <ele>558.0</ele>
        <time>2020-09-29T06:49:13Z</time>
      </trkpt>
      <trkpt lat="40.4190650" lon="-3.5209500">
        <ele>558.0</ele>
        <time>2020-09-29T06:49:14Z</time>
      </trkpt>
      <trkpt lat="40.4191920" lon="-3.5210220">
        <ele>558.0</ele>
        <time>2020-09-29T06:49:15Z</time>
      </trkpt>
      <trkpt lat="40.4191920" lon="-3.5210220">
        <ele>558.0</ele>
        <time>2020-09-29T06:49:16Z</time>
      </trkpt>
      <trkpt lat="40.4193380" lon="-3.5210430">
        <ele>558.0</ele>
        <time>2020-09-29T06:49:17Z</time>
      </trkpt>
      <trkpt lat="40.4193380" lon="-3.5210430">
        <ele>558.0</ele>
        <time>2020-09-29T06:49:18Z</time>
      </trkpt>
      <trkpt lat="40.4194930" lon="-3.5210230">
        <ele>558.0</ele>
        <time>2020-09-29T06:49:19Z</time>
      </trkpt>
      <trkpt lat="40.4194930" lon="-3.5210230">
        <ele>558.0</ele>
        <time>2020-09-29T06:49:20Z</time>
      </trkpt>
      <trkpt lat="40.4196550" lon="-3.5210020">
        <ele>558.0</ele>
        <time>2020-09-29T06:49:21Z</time>
      </trkpt>
      <trkpt lat="40.4196550" lon="-3.5210020">
        <ele>558.0</ele>
        <time>2020-09-29T06:49:22Z</time>
      </trkpt>
      <trkpt lat="40.4198200" lon="-3.5209780">
        <ele>558.0</ele>
        <time>2020-09-29T06:49:23Z</time>
      </trkpt>
      <trkpt lat="40.4198200" lon="-3.5209780">
        <ele>558.0</ele>
        <time>2020-09-29T06:49:24Z</time>
      </trkpt>
      <trkpt lat="40.4199900" lon="-3.5209580">
        <ele>558.0</ele>
        <time>2020-09-29T06:49:25Z</time>
      </trkpt>
      <trkpt lat="40.4199900" lon="-3.5209580">
        <ele>558.0</ele>
        <time>2020-09-29T06:49:26Z</time>
      </trkpt>
      <trkpt lat="40.4201630" lon="-3.5209420">
        <ele>557.0</ele>
        <time>2020-09-29T06:49:27Z</time>
      </trkpt>
      <trkpt lat="40.4202480" lon="-3.5209350">
        <ele>557.0</ele>
        <time>2020-09-29T06:49:28Z</time>
      </trkpt>
      <trkpt lat="40.4202480" lon="-3.5209350">
        <ele>557.0</ele>
        <time>2020-09-29T06:49:29Z</time>
      </trkpt>
      <trkpt lat="40.4204170" lon="-3.5209200">
        <ele>557.0</ele>
        <time>2020-09-29T06:49:30Z</time>
      </trkpt>
      <trkpt lat="40.4205000" lon="-3.5209100">
        <ele>557.0</ele>
        <time>2020-09-29T06:49:31Z</time>
      </trkpt>
      <trkpt lat="40.4205000" lon="-3.5209100">
        <ele>557.0</ele>
        <time>2020-09-29T06:49:32Z</time>
      </trkpt>
      <trkpt lat="40.4206650" lon="-3.5208920">
        <ele>557.0</ele>
        <time>2020-09-29T06:49:33Z</time>
      </trkpt>
      <trkpt lat="40.4207430" lon="-3.5208870">
        <ele>557.0</ele>
        <time>2020-09-29T06:49:34Z</time>
      </trkpt>
      <trkpt lat="40.4207430" lon="-3.5208870">
        <ele>557.0</ele>
        <time>2020-09-29T06:49:35Z</time>
      </trkpt>
      <trkpt lat="40.4209020" lon="-3.5208750">
        <ele>557.0</ele>
        <time>2020-09-29T06:49:36Z</time>
      </trkpt>
      <trkpt lat="40.4209020" lon="-3.5208750">
        <ele>557.0</ele>
        <time>2020-09-29T06:49:37Z</time>
      </trkpt>
      <trkpt lat="40.4210550" lon="-3.5208620">
        <ele>557.0</ele>
        <time>2020-09-29T06:49:38Z</time>
      </trkpt>
      <trkpt lat="40.4211320" lon="-3.5208550">
        <ele>557.0</ele>
        <time>2020-09-29T06:49:39Z</time>
      </trkpt>
      <trkpt lat="40.4211320" lon="-3.5208550">
        <ele>557.0</ele>
        <time>2020-09-29T06:49:40Z</time>
      </trkpt>
      <trkpt lat="40.4212870" lon="-3.5208450">
        <ele>557.0</ele>
        <time>2020-09-29T06:49:41Z</time>
      </trkpt>
      <trkpt lat="40.4212870" lon="-3.5208450">
        <ele>557.0</ele>
        <time>2020-09-29T06:49:42Z</time>
      </trkpt>
      <trkpt lat="40.4214400" lon="-3.5208330">
        <ele>557.0</ele>
        <time>2020-09-29T06:49:43Z</time>
      </trkpt>
      <trkpt lat="40.4215170" lon="-3.5208280">
        <ele>556.0</ele>
        <time>2020-09-29T06:49:44Z</time>
      </trkpt>
      <trkpt lat="40.4215930" lon="-3.5208130">
        <ele>556.0</ele>
        <time>2020-09-29T06:49:45Z</time>
      </trkpt>
      <trkpt lat="40.4215930" lon="-3.5208130">
        <ele>556.0</ele>
        <time>2020-09-29T06:49:46Z</time>
      </trkpt>
      <trkpt lat="40.4217420" lon="-3.5208000">
        <ele>556.0</ele>
        <time>2020-09-29T06:49:47Z</time>
      </trkpt>
      <trkpt lat="40.4218170" lon="-3.5207950">
        <ele>556.0</ele>
        <time>2020-09-29T06:49:48Z</time>
      </trkpt>
      <trkpt lat="40.4218950" lon="-3.5207850">
        <ele>556.0</ele>
        <time>2020-09-29T06:49:49Z</time>
      </trkpt>
      <trkpt lat="40.4218950" lon="-3.5207850">
        <ele>556.0</ele>
        <time>2020-09-29T06:49:50Z</time>
      </trkpt>
      <trkpt lat="40.4220430" lon="-3.5207720">
        <ele>556.0</ele>
        <time>2020-09-29T06:49:51Z</time>
      </trkpt>
      <trkpt lat="40.4220430" lon="-3.5207720">
        <ele>556.0</ele>
        <time>2020-09-29T06:49:52Z</time>
      </trkpt>
      <trkpt lat="40.4221900" lon="-3.5207520">
        <ele>556.0</ele>
        <time>2020-09-29T06:49:53Z</time>
      </trkpt>
      <trkpt lat="40.4221900" lon="-3.5207520">
        <ele>556.0</ele>
        <time>2020-09-29T06:49:54Z</time>
      </trkpt>
      <trkpt lat="40.4223350" lon="-3.5207420">
        <ele>556.0</ele>
        <time>2020-09-29T06:49:55Z</time>
      </trkpt>
      <trkpt lat="40.4223350" lon="-3.5207420">
        <ele>556.0</ele>
        <time>2020-09-29T06:49:56Z</time>
      </trkpt>
      <trkpt lat="40.4224800" lon="-3.5207370">
        <ele>556.0</ele>
        <time>2020-09-29T06:49:57Z</time>
      </trkpt>
      <trkpt lat="40.4224800" lon="-3.5207370">
        <ele>556.0</ele>
        <time>2020-09-29T06:49:58Z</time>
      </trkpt>
      <trkpt lat="40.4226220" lon="-3.5207420">
        <ele>556.0</ele>
        <time>2020-09-29T06:49:59Z</time>
      </trkpt>
      <trkpt lat="40.4226220" lon="-3.5207420">
        <ele>556.0</ele>
        <time>2020-09-29T06:50:00Z</time>
      </trkpt>
      <trkpt lat="40.4227570" lon="-3.5207480">
        <ele>556.0</ele>
        <time>2020-09-29T06:50:01Z</time>
      </trkpt>
      <trkpt lat="40.4227570" lon="-3.5207480">
        <ele>556.0</ele>
        <time>2020-09-29T06:50:02Z</time>
      </trkpt>
      <trkpt lat="40.4228820" lon="-3.5207500">
        <ele>556.0</ele>
        <time>2020-09-29T06:50:03Z</time>
      </trkpt>
      <trkpt lat="40.4229350" lon="-3.5207530">
        <ele>556.0</ele>
        <time>2020-09-29T06:50:04Z</time>
      </trkpt>
      <trkpt lat="40.4229350" lon="-3.5207530">
        <ele>556.0</ele>
        <time>2020-09-29T06:50:05Z</time>
      </trkpt>
      <trkpt lat="40.4230120" lon="-3.5207620">
        <ele>556.0</ele>
        <time>2020-09-29T06:50:06Z</time>
      </trkpt>
      <trkpt lat="40.4230450" lon="-3.5207620">
        <ele>556.0</ele>
        <time>2020-09-29T06:50:07Z</time>
      </trkpt>
      <trkpt lat="40.4230450" lon="-3.5207620">
        <ele>556.0</ele>
        <time>2020-09-29T06:50:08Z</time>
      </trkpt>
      <trkpt lat="40.4231080" lon="-3.5207500">
        <ele>556.0</ele>
        <time>2020-09-29T06:50:09Z</time>
      </trkpt>
      <trkpt lat="40.4231080" lon="-3.5207500">
        <ele>556.0</ele>
        <time>2020-09-29T06:50:10Z</time>
      </trkpt>
      <trkpt lat="40.4231780" lon="-3.5207150">
        <ele>556.0</ele>
        <time>2020-09-29T06:50:11Z</time>
      </trkpt>
      <trkpt lat="40.4231780" lon="-3.5207150">
        <ele>556.0</ele>
        <time>2020-09-29T06:50:12Z</time>
      </trkpt>
      <trkpt lat="40.4232680" lon="-3.5206430">
        <ele>556.0</ele>
        <time>2020-09-29T06:50:13Z</time>
      </trkpt>
      <trkpt lat="40.4233200" lon="-3.5205900">
        <ele>556.0</ele>
        <time>2020-09-29T06:50:14Z</time>
      </trkpt>
      <trkpt lat="40.4233670" lon="-3.5205250">
        <ele>556.0</ele>
        <time>2020-09-29T06:50:15Z</time>
      </trkpt>
      <trkpt lat="40.4233670" lon="-3.5205250">
        <ele>556.0</ele>
        <time>2020-09-29T06:50:16Z</time>
      </trkpt>
      <trkpt lat="40.4234430" lon="-3.5203530">
        <ele>556.0</ele>
        <time>2020-09-29T06:50:17Z</time>
      </trkpt>
      <trkpt lat="40.4234900" lon="-3.5202650">
        <ele>556.0</ele>
        <time>2020-09-29T06:50:18Z</time>
      </trkpt>
      <trkpt lat="40.4234900" lon="-3.5202650">
        <ele>556.0</ele>
        <time>2020-09-29T06:50:19Z</time>
      </trkpt>
      <trkpt lat="40.4235850" lon="-3.5200900">
        <ele>556.0</ele>
        <time>2020-09-29T06:50:20Z</time>
      </trkpt>
      <trkpt lat="40.4236280" lon="-3.5200020">
        <ele>556.0</ele>
        <time>2020-09-29T06:50:21Z</time>
      </trkpt>
      <trkpt lat="40.4236280" lon="-3.5200020">
        <ele>556.0</ele>
        <time>2020-09-29T06:50:22Z</time>
      </trkpt>
      <trkpt lat="40.4237130" lon="-3.5198300">
        <ele>556.0</ele>
        <time>2020-09-29T06:50:23Z</time>
      </trkpt>
      <trkpt lat="40.4237550" lon="-3.5197430">
        <ele>556.0</ele>
        <time>2020-09-29T06:50:24Z</time>
      </trkpt>
      <trkpt lat="40.4237970" lon="-3.5196580">
        <ele>556.0</ele>
        <time>2020-09-29T06:50:25Z</time>
      </trkpt>
      <trkpt lat="40.4237970" lon="-3.5196580">
        <ele>556.0</ele>
        <time>2020-09-29T06:50:26Z</time>
      </trkpt>
      <trkpt lat="40.4238800" lon="-3.5194920">
        <ele>556.0</ele>
        <time>2020-09-29T06:50:27Z</time>
      </trkpt>
      <trkpt lat="40.4238800" lon="-3.5194920">
        <ele>556.0</ele>
        <time>2020-09-29T06:50:28Z</time>
      </trkpt>
      <trkpt lat="40.4239620" lon="-3.5193250">
        <ele>556.0</ele>
        <time>2020-09-29T06:50:29Z</time>
      </trkpt>
      <trkpt lat="40.4239620" lon="-3.5193250">
        <ele>556.0</ele>
        <time>2020-09-29T06:50:30Z</time>
      </trkpt>
      <trkpt lat="40.4240450" lon="-3.5191630">
        <ele>556.0</ele>
        <time>2020-09-29T06:50:31Z</time>
      </trkpt>
      <trkpt lat="40.4240880" lon="-3.5190830">
        <ele>556.0</ele>
        <time>2020-09-29T06:50:32Z</time>
      </trkpt>
      <trkpt lat="40.4241330" lon="-3.5190050">
        <ele>556.0</ele>
        <time>2020-09-29T06:50:33Z</time>
      </trkpt>
      <trkpt lat="40.4241330" lon="-3.5190050">
        <ele>556.0</ele>
        <time>2020-09-29T06:50:34Z</time>
      </trkpt>
      <trkpt lat="40.4242280" lon="-3.5188520">
        <ele>556.0</ele>
        <time>2020-09-29T06:50:35Z</time>
      </trkpt>
      <trkpt lat="40.4242280" lon="-3.5188520">
        <ele>556.0</ele>
        <time>2020-09-29T06:50:36Z</time>
      </trkpt>
      <trkpt lat="40.4243320" lon="-3.5187070">
        <ele>557.0</ele>
        <time>2020-09-29T06:50:37Z</time>
      </trkpt>
      <trkpt lat="40.4243830" lon="-3.5186370">
        <ele>557.0</ele>
        <time>2020-09-29T06:50:38Z</time>
      </trkpt>
      <trkpt lat="40.4244380" lon="-3.5185680">
        <ele>557.0</ele>
        <time>2020-09-29T06:50:39Z</time>
      </trkpt>
      <trkpt lat="40.4244380" lon="-3.5185680">
        <ele>557.0</ele>
        <time>2020-09-29T06:50:40Z</time>
      </trkpt>
      <trkpt lat="40.4245520" lon="-3.5184380">
        <ele>557.0</ele>
        <time>2020-09-29T06:50:41Z</time>
      </trkpt>
      <trkpt lat="40.4246100" lon="-3.5183750">
        <ele>557.0</ele>
        <time>2020-09-29T06:50:42Z</time>
      </trkpt>
      <trkpt lat="40.4246680" lon="-3.5183150">
        <ele>557.0</ele>
        <time>2020-09-29T06:50:43Z</time>
      </trkpt>
      <trkpt lat="40.4246680" lon="-3.5183150">
        <ele>557.0</ele>
        <time>2020-09-29T06:50:44Z</time>
      </trkpt>
      <trkpt lat="40.4247920" lon="-3.5182020">
        <ele>557.0</ele>
        <time>2020-09-29T06:50:45Z</time>
      </trkpt>
      <trkpt lat="40.4248550" lon="-3.5181500">
        <ele>557.0</ele>
        <time>2020-09-29T06:50:46Z</time>
      </trkpt>
      <trkpt lat="40.4248550" lon="-3.5181500">
        <ele>557.0</ele>
        <time>2020-09-29T06:50:47Z</time>
      </trkpt>
      <trkpt lat="40.4249820" lon="-3.5180470">
        <ele>557.0</ele>
        <time>2020-09-29T06:50:48Z</time>
      </trkpt>
      <trkpt lat="40.4250480" lon="-3.5179980">
        <ele>557.0</ele>
        <time>2020-09-29T06:50:49Z</time>
      </trkpt>
      <trkpt lat="40.4250480" lon="-3.5179980">
        <ele>557.0</ele>
        <time>2020-09-29T06:50:50Z</time>
      </trkpt>
      <trkpt lat="40.4251800" lon="-3.5179120">
        <ele>557.0</ele>
        <time>2020-09-29T06:50:51Z</time>
      </trkpt>
      <trkpt lat="40.4251800" lon="-3.5179120">
        <ele>557.0</ele>
        <time>2020-09-29T06:50:52Z</time>
      </trkpt>
      <trkpt lat="40.4253170" lon="-3.5178330">
        <ele>557.0</ele>
        <time>2020-09-29T06:50:53Z</time>
      </trkpt>
      <trkpt lat="40.4253170" lon="-3.5178330">
        <ele>557.0</ele>
        <time>2020-09-29T06:50:54Z</time>
      </trkpt>
      <trkpt lat="40.4254570" lon="-3.5177620">
        <ele>557.0</ele>
        <time>2020-09-29T06:50:55Z</time>
      </trkpt>
      <trkpt lat="40.4254570" lon="-3.5177620">
        <ele>557.0</ele>
        <time>2020-09-29T06:50:56Z</time>
      </trkpt>
      <trkpt lat="40.4256000" lon="-3.5176970">
        <ele>557.0</ele>
        <time>2020-09-29T06:50:57Z</time>
      </trkpt>
      <trkpt lat="40.4256000" lon="-3.5176970">
        <ele>557.0</ele>
        <time>2020-09-29T06:50:58Z</time>
      </trkpt>
      <trkpt lat="40.4257430" lon="-3.5176480">
        <ele>557.0</ele>
        <time>2020-09-29T06:50:59Z</time>
      </trkpt>
      <trkpt lat="40.4257430" lon="-3.5176480">
        <ele>557.0</ele>
        <time>2020-09-29T06:51:00Z</time>
      </trkpt>
      <trkpt lat="40.4258870" lon="-3.5176070">
        <ele>557.0</ele>
        <time>2020-09-29T06:51:01Z</time>
      </trkpt>
      <trkpt lat="40.4258870" lon="-3.5176070">
        <ele>557.0</ele>
        <time>2020-09-29T06:51:02Z</time>
      </trkpt>
      <trkpt lat="40.4260350" lon="-3.5175750">
        <ele>557.0</ele>
        <time>2020-09-29T06:51:03Z</time>
      </trkpt>
      <trkpt lat="40.4260350" lon="-3.5175750">
        <ele>557.0</ele>
        <time>2020-09-29T06:51:04Z</time>
      </trkpt>
      <trkpt lat="40.4261820" lon="-3.5175520">
        <ele>557.0</ele>
        <time>2020-09-29T06:51:05Z</time>
      </trkpt>
      <trkpt lat="40.4261820" lon="-3.5175520">
        <ele>557.0</ele>
        <time>2020-09-29T06:51:06Z</time>
      </trkpt>
      <trkpt lat="40.4263320" lon="-3.5175400">
        <ele>558.0</ele>
        <time>2020-09-29T06:51:07Z</time>
      </trkpt>
      <trkpt lat="40.4263320" lon="-3.5175400">
        <ele>558.0</ele>
        <time>2020-09-29T06:51:08Z</time>
      </trkpt>
      <trkpt lat="40.4264800" lon="-3.5175320">
        <ele>558.0</ele>
        <time>2020-09-29T06:51:09Z</time>
      </trkpt>
      <trkpt lat="40.4264800" lon="-3.5175320">
        <ele>558.0</ele>
        <time>2020-09-29T06:51:10Z</time>
      </trkpt>
      <trkpt lat="40.4266300" lon="-3.5175300">
        <ele>558.0</ele>
        <time>2020-09-29T06:51:11Z</time>
      </trkpt>
      <trkpt lat="40.4267050" lon="-3.5175320">
        <ele>558.0</ele>
        <time>2020-09-29T06:51:12Z</time>
      </trkpt>
      <trkpt lat="40.4267050" lon="-3.5175320">
        <ele>558.0</ele>
        <time>2020-09-29T06:51:13Z</time>
      </trkpt>
      <trkpt lat="40.4268550" lon="-3.5175320">
        <ele>558.0</ele>
        <time>2020-09-29T06:51:14Z</time>
      </trkpt>
      <trkpt lat="40.4269300" lon="-3.5175320">
        <ele>558.0</ele>
        <time>2020-09-29T06:51:15Z</time>
      </trkpt>
      <trkpt lat="40.4269300" lon="-3.5175320">
        <ele>558.0</ele>
        <time>2020-09-29T06:51:16Z</time>
      </trkpt>
      <trkpt lat="40.4270800" lon="-3.5175320">
        <ele>558.0</ele>
        <time>2020-09-29T06:51:17Z</time>
      </trkpt>
      <trkpt lat="40.4270800" lon="-3.5175320">
        <ele>558.0</ele>
        <time>2020-09-29T06:51:18Z</time>
      </trkpt>
      <trkpt lat="40.4272300" lon="-3.5175250">
        <ele>558.0</ele>
        <time>2020-09-29T06:51:19Z</time>
      </trkpt>
      <trkpt lat="40.4273030" lon="-3.5175220">
        <ele>558.0</ele>
        <time>2020-09-29T06:51:20Z</time>
      </trkpt>
      <trkpt lat="40.4273030" lon="-3.5175220">
        <ele>558.0</ele>
        <time>2020-09-29T06:51:21Z</time>
      </trkpt>
      <trkpt lat="40.4274500" lon="-3.5175050">
        <ele>558.0</ele>
        <time>2020-09-29T06:51:22Z</time>
      </trkpt>
      <trkpt lat="40.4274500" lon="-3.5175050">
        <ele>558.0</ele>
        <time>2020-09-29T06:51:23Z</time>
      </trkpt>
      <trkpt lat="40.4275970" lon="-3.5174820">
        <ele>558.0</ele>
        <time>2020-09-29T06:51:24Z</time>
      </trkpt>
      <trkpt lat="40.4276670" lon="-3.5174650">
        <ele>558.0</ele>
        <time>2020-09-29T06:51:25Z</time>
      </trkpt>
      <trkpt lat="40.4276670" lon="-3.5174650">
        <ele>558.0</ele>
        <time>2020-09-29T06:51:26Z</time>
      </trkpt>
      <trkpt lat="40.4278080" lon="-3.5174220">
        <ele>558.0</ele>
        <time>2020-09-29T06:51:27Z</time>
      </trkpt>
      <trkpt lat="40.4278080" lon="-3.5174220">
        <ele>558.0</ele>
        <time>2020-09-29T06:51:28Z</time>
      </trkpt>
      <trkpt lat="40.4279470" lon="-3.5173720">
        <ele>558.0</ele>
        <time>2020-09-29T06:51:29Z</time>
      </trkpt>
      <trkpt lat="40.4280170" lon="-3.5173450">
        <ele>558.0</ele>
        <time>2020-09-29T06:51:30Z</time>
      </trkpt>
      <trkpt lat="40.4280850" lon="-3.5173130">
        <ele>558.0</ele>
        <time>2020-09-29T06:51:31Z</time>
      </trkpt>
      <trkpt lat="40.4280850" lon="-3.5173130">
        <ele>558.0</ele>
        <time>2020-09-29T06:51:32Z</time>
      </trkpt>
      <trkpt lat="40.4282220" lon="-3.5172450">
        <ele>558.0</ele>
        <time>2020-09-29T06:51:33Z</time>
      </trkpt>
      <trkpt lat="40.4282220" lon="-3.5172450">
        <ele>558.0</ele>
        <time>2020-09-29T06:51:34Z</time>
      </trkpt>
      <trkpt lat="40.4283550" lon="-3.5171670">
        <ele>558.0</ele>
        <time>2020-09-29T06:51:35Z</time>
      </trkpt>
      <trkpt lat="40.4284200" lon="-3.5171270">
        <ele>558.0</ele>
        <time>2020-09-29T06:51:36Z</time>
      </trkpt>
      <trkpt lat="40.4284850" lon="-3.5170820">
        <ele>558.0</ele>
        <time>2020-09-29T06:51:37Z</time>
      </trkpt>
      <trkpt lat="40.4284850" lon="-3.5170820">
        <ele>559.0</ele>
        <time>2020-09-29T06:51:38Z</time>
      </trkpt>
      <trkpt lat="40.4286130" lon="-3.5169880">
        <ele>559.0</ele>
        <time>2020-09-29T06:51:39Z</time>
      </trkpt>
      <trkpt lat="40.4286130" lon="-3.5169880">
        <ele>559.0</ele>
        <time>2020-09-29T06:51:40Z</time>
      </trkpt>
      <trkpt lat="40.4287370" lon="-3.5168820">
        <ele>559.0</ele>
        <time>2020-09-29T06:51:41Z</time>
      </trkpt>
      <trkpt lat="40.4287370" lon="-3.5168820">
        <ele>559.0</ele>
        <time>2020-09-29T06:51:42Z</time>
      </trkpt>
      <trkpt lat="40.4288530" lon="-3.5167670">
        <ele>559.0</ele>
        <time>2020-09-29T06:51:43Z</time>
      </trkpt>
      <trkpt lat="40.4288530" lon="-3.5167670">
        <ele>559.0</ele>
        <time>2020-09-29T06:51:44Z</time>
      </trkpt>
      <trkpt lat="40.4289700" lon="-3.5166430">
        <ele>559.0</ele>
        <time>2020-09-29T06:51:45Z</time>
      </trkpt>
      <trkpt lat="40.4289700" lon="-3.5166430">
        <ele>559.0</ele>
        <time>2020-09-29T06:51:46Z</time>
      </trkpt>
      <trkpt lat="40.4290750" lon="-3.5165120">
        <ele>559.0</ele>
        <time>2020-09-29T06:51:47Z</time>
      </trkpt>
      <trkpt lat="40.4290750" lon="-3.5165120">
        <ele>559.0</ele>
        <time>2020-09-29T06:51:48Z</time>
      </trkpt>
      <trkpt lat="40.4291780" lon="-3.5163730">
        <ele>559.0</ele>
        <time>2020-09-29T06:51:49Z</time>
      </trkpt>
      <trkpt lat="40.4291780" lon="-3.5163730">
        <ele>559.0</ele>
        <time>2020-09-29T06:51:50Z</time>
      </trkpt>
      <trkpt lat="40.4292750" lon="-3.5162300">
        <ele>559.0</ele>
        <time>2020-09-29T06:51:51Z</time>
      </trkpt>
      <trkpt lat="40.4292750" lon="-3.5162300">
        <ele>559.0</ele>
        <time>2020-09-29T06:51:52Z</time>
      </trkpt>
      <trkpt lat="40.4293670" lon="-3.5160780">
        <ele>559.0</ele>
        <time>2020-09-29T06:51:53Z</time>
      </trkpt>
      <trkpt lat="40.4294080" lon="-3.5160020">
        <ele>559.0</ele>
        <time>2020-09-29T06:51:54Z</time>
      </trkpt>
      <trkpt lat="40.4294080" lon="-3.5160020">
        <ele>559.0</ele>
        <time>2020-09-29T06:51:55Z</time>
      </trkpt>
      <trkpt lat="40.4294920" lon="-3.5158470">
        <ele>559.0</ele>
        <time>2020-09-29T06:51:56Z</time>
      </trkpt>
      <trkpt lat="40.4294920" lon="-3.5158470">
        <ele>559.0</ele>
        <time>2020-09-29T06:51:57Z</time>
      </trkpt>
      <trkpt lat="40.4295720" lon="-3.5156880">
        <ele>559.0</ele>
        <time>2020-09-29T06:51:58Z</time>
      </trkpt>
      <trkpt lat="40.4295720" lon="-3.5156880">
        <ele>559.0</ele>
        <time>2020-09-29T06:51:59Z</time>
      </trkpt>
      <trkpt lat="40.4296520" lon="-3.5155300">
        <ele>559.0</ele>
        <time>2020-09-29T06:52:00Z</time>
      </trkpt>
      <trkpt lat="40.4296920" lon="-3.5154480">
        <ele>559.0</ele>
        <time>2020-09-29T06:52:01Z</time>
      </trkpt>
      <trkpt lat="40.4296920" lon="-3.5154480">
        <ele>559.0</ele>
        <time>2020-09-29T06:52:02Z</time>
      </trkpt>
      <trkpt lat="40.4297720" lon="-3.5152870">
        <ele>559.0</ele>
        <time>2020-09-29T06:52:03Z</time>
      </trkpt>
      <trkpt lat="40.4297720" lon="-3.5152870">
        <ele>559.0</ele>
        <time>2020-09-29T06:52:04Z</time>
      </trkpt>
      <trkpt lat="40.4298530" lon="-3.5151270">
        <ele>559.0</ele>
        <time>2020-09-29T06:52:05Z</time>
      </trkpt>
      <trkpt lat="40.4298530" lon="-3.5151270">
        <ele>559.0</ele>
        <time>2020-09-29T06:52:06Z</time>
      </trkpt>
      <trkpt lat="40.4299330" lon="-3.5149630">
        <ele>559.0</ele>
        <time>2020-09-29T06:52:07Z</time>
      </trkpt>
      <trkpt lat="40.4299330" lon="-3.5149630">
        <ele>559.0</ele>
        <time>2020-09-29T06:52:08Z</time>
      </trkpt>
      <trkpt lat="40.4300150" lon="-3.5147970">
        <ele>559.0</ele>
        <time>2020-09-29T06:52:09Z</time>
      </trkpt>
      <trkpt lat="40.4300150" lon="-3.5147970">
        <ele>559.0</ele>
        <time>2020-09-29T06:52:10Z</time>
      </trkpt>
      <trkpt lat="40.4300930" lon="-3.5146300">
        <ele>559.0</ele>
        <time>2020-09-29T06:52:11Z</time>
      </trkpt>
      <trkpt lat="40.4301350" lon="-3.5145480">
        <ele>559.0</ele>
        <time>2020-09-29T06:52:12Z</time>
      </trkpt>
      <trkpt lat="40.4301750" lon="-3.5144670">
        <ele>559.0</ele>
        <time>2020-09-29T06:52:13Z</time>
      </trkpt>
      <trkpt lat="40.4301750" lon="-3.5144670">
        <ele>559.0</ele>
        <time>2020-09-29T06:52:14Z</time>
      </trkpt>
      <trkpt lat="40.4302530" lon="-3.5143030">
        <ele>559.0</ele>
        <time>2020-09-29T06:52:15Z</time>
      </trkpt>
      <trkpt lat="40.4302530" lon="-3.5143030">
        <ele>559.0</ele>
        <time>2020-09-29T06:52:16Z</time>
      </trkpt>
      <trkpt lat="40.4303330" lon="-3.5141420">
        <ele>559.0</ele>
        <time>2020-09-29T06:52:17Z</time>
      </trkpt>
      <trkpt lat="40.4303330" lon="-3.5141420">
        <ele>559.0</ele>
        <time>2020-09-29T06:52:18Z</time>
      </trkpt>
      <trkpt lat="40.4304100" lon="-3.5139780">
        <ele>559.0</ele>
        <time>2020-09-29T06:52:19Z</time>
      </trkpt>
      <trkpt lat="40.4304100" lon="-3.5139780">
        <ele>559.0</ele>
        <time>2020-09-29T06:52:20Z</time>
      </trkpt>
      <trkpt lat="40.4304880" lon="-3.5138170">
        <ele>559.0</ele>
        <time>2020-09-29T06:52:21Z</time>
      </trkpt>
      <trkpt lat="40.4304880" lon="-3.5138170">
        <ele>559.0</ele>
        <time>2020-09-29T06:52:22Z</time>
      </trkpt>
      <trkpt lat="40.4305680" lon="-3.5136550">
        <ele>559.0</ele>
        <time>2020-09-29T06:52:23Z</time>
      </trkpt>
      <trkpt lat="40.4305680" lon="-3.5136550">
        <ele>559.0</ele>
        <time>2020-09-29T06:52:24Z</time>
      </trkpt>
      <trkpt lat="40.4306470" lon="-3.5134970">
        <ele>559.0</ele>
        <time>2020-09-29T06:52:25Z</time>
      </trkpt>
      <trkpt lat="40.4306470" lon="-3.5134970">
        <ele>559.0</ele>
        <time>2020-09-29T06:52:26Z</time>
      </trkpt>
      <trkpt lat="40.4307270" lon="-3.5133420">
        <ele>559.0</ele>
        <time>2020-09-29T06:52:27Z</time>
      </trkpt>
      <trkpt lat="40.4307270" lon="-3.5133420">
        <ele>559.0</ele>
        <time>2020-09-29T06:52:28Z</time>
      </trkpt>
      <trkpt lat="40.4308080" lon="-3.5131880">
        <ele>559.0</ele>
        <time>2020-09-29T06:52:29Z</time>
      </trkpt>
      <trkpt lat="40.4308080" lon="-3.5131880">
        <ele>559.0</ele>
        <time>2020-09-29T06:52:30Z</time>
      </trkpt>
      <trkpt lat="40.4308970" lon="-3.5130380">
        <ele>559.0</ele>
        <time>2020-09-29T06:52:31Z</time>
      </trkpt>
      <trkpt lat="40.4308970" lon="-3.5130380">
        <ele>559.0</ele>
        <time>2020-09-29T06:52:32Z</time>
      </trkpt>
      <trkpt lat="40.4309900" lon="-3.5128950">
        <ele>559.0</ele>
        <time>2020-09-29T06:52:33Z</time>
      </trkpt>
      <trkpt lat="40.4309900" lon="-3.5128950">
        <ele>559.0</ele>
        <time>2020-09-29T06:52:34Z</time>
      </trkpt>
      <trkpt lat="40.4310900" lon="-3.5127550">
        <ele>559.0</ele>
        <time>2020-09-29T06:52:35Z</time>
      </trkpt>
      <trkpt lat="40.4311400" lon="-3.5126900">
        <ele>559.0</ele>
        <time>2020-09-29T06:52:36Z</time>
      </trkpt>
      <trkpt lat="40.4311920" lon="-3.5126270">
        <ele>559.0</ele>
        <time>2020-09-29T06:52:37Z</time>
      </trkpt>
      <trkpt lat="40.4311920" lon="-3.5126270">
        <ele>559.0</ele>
        <time>2020-09-29T06:52:38Z</time>
      </trkpt>
      <trkpt lat="40.4313020" lon="-3.5125050">
        <ele>559.0</ele>
        <time>2020-09-29T06:52:39Z</time>
      </trkpt>
      <trkpt lat="40.4313570" lon="-3.5124480">
        <ele>559.0</ele>
        <time>2020-09-29T06:52:40Z</time>
      </trkpt>
      <trkpt lat="40.4313570" lon="-3.5124480">
        <ele>559.0</ele>
        <time>2020-09-29T06:52:41Z</time>
      </trkpt>
      <trkpt lat="40.4314680" lon="-3.5123370">
        <ele>559.0</ele>
        <time>2020-09-29T06:52:42Z</time>
      </trkpt>
      <trkpt lat="40.4315250" lon="-3.5122830">
        <ele>559.0</ele>
        <time>2020-09-29T06:52:43Z</time>
      </trkpt>
      <trkpt lat="40.4315250" lon="-3.5122830">
        <ele>559.0</ele>
        <time>2020-09-29T06:52:44Z</time>
      </trkpt>
      <trkpt lat="40.4316400" lon="-3.5121770">
        <ele>559.0</ele>
        <time>2020-09-29T06:52:45Z</time>
      </trkpt>
      <trkpt lat="40.4316970" lon="-3.5121270">
        <ele>559.0</ele>
        <time>2020-09-29T06:52:46Z</time>
      </trkpt>
      <trkpt lat="40.4316970" lon="-3.5121270">
        <ele>559.0</ele>
        <time>2020-09-29T06:52:47Z</time>
      </trkpt>
      <trkpt lat="40.4318120" lon="-3.5120230">
        <ele>559.0</ele>
        <time>2020-09-29T06:52:48Z</time>
      </trkpt>
      <trkpt lat="40.4318700" lon="-3.5119730">
        <ele>559.0</ele>
        <time>2020-09-29T06:52:49Z</time>
      </trkpt>
      <trkpt lat="40.4318700" lon="-3.5119730">
        <ele>559.0</ele>
        <time>2020-09-29T06:52:50Z</time>
      </trkpt>
      <trkpt lat="40.4319830" lon="-3.5118680">
        <ele>559.0</ele>
        <time>2020-09-29T06:52:51Z</time>
      </trkpt>
      <trkpt lat="40.4319830" lon="-3.5118680">
        <ele>559.0</ele>
        <time>2020-09-29T06:52:52Z</time>
      </trkpt>
      <trkpt lat="40.4320950" lon="-3.5117620">
        <ele>559.0</ele>
        <time>2020-09-29T06:52:53Z</time>
      </trkpt>
      <trkpt lat="40.4320950" lon="-3.5117620">
        <ele>559.0</ele>
        <time>2020-09-29T06:52:54Z</time>
      </trkpt>
      <trkpt lat="40.4322050" lon="-3.5116500">
        <ele>559.0</ele>
        <time>2020-09-29T06:52:55Z</time>
      </trkpt>
      <trkpt lat="40.4322050" lon="-3.5116500">
        <ele>559.0</ele>
        <time>2020-09-29T06:52:56Z</time>
      </trkpt>
      <trkpt lat="40.4323120" lon="-3.5115300">
        <ele>559.0</ele>
        <time>2020-09-29T06:52:57Z</time>
      </trkpt>
      <trkpt lat="40.4323620" lon="-3.5114670">
        <ele>560.0</ele>
        <time>2020-09-29T06:52:58Z</time>
      </trkpt>
      <trkpt lat="40.4323620" lon="-3.5114670">
        <ele>560.0</ele>
        <time>2020-09-29T06:52:59Z</time>
      </trkpt>
      <trkpt lat="40.4324580" lon="-3.5113370">
        <ele>560.0</ele>
        <time>2020-09-29T06:53:00Z</time>
      </trkpt>
      <trkpt lat="40.4325030" lon="-3.5112700">
        <ele>560.0</ele>
        <time>2020-09-29T06:53:01Z</time>
      </trkpt>
      <trkpt lat="40.4325030" lon="-3.5112700">
        <ele>560.0</ele>
        <time>2020-09-29T06:53:02Z</time>
      </trkpt>
      <trkpt lat="40.4325920" lon="-3.5111320">
        <ele>560.0</ele>
        <time>2020-09-29T06:53:03Z</time>
      </trkpt>
      <trkpt lat="40.4325920" lon="-3.5111320">
        <ele>560.0</ele>
        <time>2020-09-29T06:53:04Z</time>
      </trkpt>
      <trkpt lat="40.4326730" lon="-3.5109870">
        <ele>560.0</ele>
        <time>2020-09-29T06:53:05Z</time>
      </trkpt>
      <trkpt lat="40.4327130" lon="-3.5109100">
        <ele>560.0</ele>
        <time>2020-09-29T06:53:06Z</time>
      </trkpt>
      <trkpt lat="40.4327500" lon="-3.5108350">
        <ele>560.0</ele>
        <time>2020-09-29T06:53:07Z</time>
      </trkpt>
      <trkpt lat="40.4327500" lon="-3.5108350">
        <ele>561.0</ele>
        <time>2020-09-29T06:53:08Z</time>
      </trkpt>
      <trkpt lat="40.4328180" lon="-3.5106800">
        <ele>561.0</ele>
        <time>2020-09-29T06:53:09Z</time>
      </trkpt>
      <trkpt lat="40.4328180" lon="-3.5106800">
        <ele>561.0</ele>
        <time>2020-09-29T06:53:10Z</time>
      </trkpt>
      <trkpt lat="40.4328800" lon="-3.5105200">
        <ele>561.0</ele>
        <time>2020-09-29T06:53:11Z</time>
      </trkpt>
      <trkpt lat="40.4329080" lon="-3.5104400">
        <ele>561.0</ele>
        <time>2020-09-29T06:53:12Z</time>
      </trkpt>
      <trkpt lat="40.4329370" lon="-3.5103580">
        <ele>562.0</ele>
        <time>2020-09-29T06:53:13Z</time>
      </trkpt>
      <trkpt lat="40.4329370" lon="-3.5103580">
        <ele>562.0</ele>
        <time>2020-09-29T06:53:14Z</time>
      </trkpt>
      <trkpt lat="40.4329900" lon="-3.5101930">
        <ele>562.0</ele>
        <time>2020-09-29T06:53:15Z</time>
      </trkpt>
      <trkpt lat="40.4330130" lon="-3.5101100">
        <ele>562.0</ele>
        <time>2020-09-29T06:53:16Z</time>
      </trkpt>
      <trkpt lat="40.4330130" lon="-3.5101100">
        <ele>562.0</ele>
        <time>2020-09-29T06:53:17Z</time>
      </trkpt>
      <trkpt lat="40.4330580" lon="-3.5099420">
        <ele>562.0</ele>
        <time>2020-09-29T06:53:18Z</time>
      </trkpt>
      <trkpt lat="40.4330580" lon="-3.5099420">
        <ele>562.0</ele>
        <time>2020-09-29T06:53:19Z</time>
      </trkpt>
      <trkpt lat="40.4331000" lon="-3.5097720">
        <ele>562.0</ele>
        <time>2020-09-29T06:53:20Z</time>
      </trkpt>
      <trkpt lat="40.4331000" lon="-3.5097720">
        <ele>563.0</ele>
        <time>2020-09-29T06:53:21Z</time>
      </trkpt>
      <trkpt lat="40.4331380" lon="-3.5096030">
        <ele>563.0</ele>
        <time>2020-09-29T06:53:22Z</time>
      </trkpt>
      <trkpt lat="40.4331600" lon="-3.5095200">
        <ele>563.0</ele>
        <time>2020-09-29T06:53:23Z</time>
      </trkpt>
      <trkpt lat="40.4331600" lon="-3.5095200">
        <ele>563.0</ele>
        <time>2020-09-29T06:53:24Z</time>
      </trkpt>
      <trkpt lat="40.4332000" lon="-3.5093520">
        <ele>563.0</ele>
        <time>2020-09-29T06:53:25Z</time>
      </trkpt>
      <trkpt lat="40.4332000" lon="-3.5093520">
        <ele>563.0</ele>
        <time>2020-09-29T06:53:26Z</time>
      </trkpt>
      <trkpt lat="40.4332430" lon="-3.5091870">
        <ele>564.0</ele>
        <time>2020-09-29T06:53:27Z</time>
      </trkpt>
      <trkpt lat="40.4332430" lon="-3.5091870">
        <ele>564.0</ele>
        <time>2020-09-29T06:53:28Z</time>
      </trkpt>
      <trkpt lat="40.4332950" lon="-3.5090230">
        <ele>564.0</ele>
        <time>2020-09-29T06:53:29Z</time>
      </trkpt>
      <trkpt lat="40.4332950" lon="-3.5090230">
        <ele>564.0</ele>
        <time>2020-09-29T06:53:30Z</time>
      </trkpt>
      <trkpt lat="40.4333520" lon="-3.5088620">
        <ele>564.0</ele>
        <time>2020-09-29T06:53:31Z</time>
      </trkpt>
      <trkpt lat="40.4333800" lon="-3.5087800">
        <ele>564.0</ele>
        <time>2020-09-29T06:53:32Z</time>
      </trkpt>
      <trkpt lat="40.4333800" lon="-3.5087800">
        <ele>565.0</ele>
        <time>2020-09-29T06:53:33Z</time>
      </trkpt>
      <trkpt lat="40.4334450" lon="-3.5086220">
        <ele>565.0</ele>
        <time>2020-09-29T06:53:34Z</time>
      </trkpt>
      <trkpt lat="40.4334450" lon="-3.5086220">
        <ele>565.0</ele>
        <time>2020-09-29T06:53:35Z</time>
      </trkpt>
      <trkpt lat="40.4335170" lon="-3.5084670">
        <ele>565.0</ele>
        <time>2020-09-29T06:53:36Z</time>
      </trkpt>
      <trkpt lat="40.4335550" lon="-3.5083920">
        <ele>565.0</ele>
        <time>2020-09-29T06:53:37Z</time>
      </trkpt>
      <trkpt lat="40.4335550" lon="-3.5083920">
        <ele>565.0</ele>
        <time>2020-09-29T06:53:38Z</time>
      </trkpt>
      <trkpt lat="40.4336330" lon="-3.5082450">
        <ele>565.0</ele>
        <time>2020-09-29T06:53:39Z</time>
      </trkpt>
      <trkpt lat="40.4336330" lon="-3.5082450">
        <ele>565.0</ele>
        <time>2020-09-29T06:53:40Z</time>
      </trkpt>
      <trkpt lat="40.4337130" lon="-3.5081000">
        <ele>565.0</ele>
        <time>2020-09-29T06:53:41Z</time>
      </trkpt>
      <trkpt lat="40.4337130" lon="-3.5081000">
        <ele>565.0</ele>
        <time>2020-09-29T06:53:42Z</time>
      </trkpt>
      <trkpt lat="40.4337980" lon="-3.5079580">
        <ele>565.0</ele>
        <time>2020-09-29T06:53:43Z</time>
      </trkpt>
      <trkpt lat="40.4337980" lon="-3.5079580">
        <ele>565.0</ele>
        <time>2020-09-29T06:53:44Z</time>
      </trkpt>
      <trkpt lat="40.4338850" lon="-3.5078170">
        <ele>565.0</ele>
        <time>2020-09-29T06:53:45Z</time>
      </trkpt>
      <trkpt lat="40.4338850" lon="-3.5078170">
        <ele>565.0</ele>
        <time>2020-09-29T06:53:46Z</time>
      </trkpt>
      <trkpt lat="40.4339720" lon="-3.5076770">
        <ele>565.0</ele>
        <time>2020-09-29T06:53:47Z</time>
      </trkpt>
      <trkpt lat="40.4339720" lon="-3.5076770">
        <ele>565.0</ele>
        <time>2020-09-29T06:53:48Z</time>
      </trkpt>
      <trkpt lat="40.4340570" lon="-3.5075320">
        <ele>565.0</ele>
        <time>2020-09-29T06:53:49Z</time>
      </trkpt>
      <trkpt lat="40.4340570" lon="-3.5075320">
        <ele>565.0</ele>
        <time>2020-09-29T06:53:50Z</time>
      </trkpt>
      <trkpt lat="40.4341030" lon="-3.5073950">
        <ele>565.0</ele>
        <time>2020-09-29T06:53:51Z</time>
      </trkpt>
      <trkpt lat="40.4341030" lon="-3.5073950">
        <ele>565.0</ele>
        <time>2020-09-29T06:53:52Z</time>
      </trkpt>
      <trkpt lat="40.4341030" lon="-3.5072880">
        <ele>565.0</ele>
        <time>2020-09-29T06:53:53Z</time>
      </trkpt>
      <trkpt lat="40.4341030" lon="-3.5072880">
        <ele>565.0</ele>
        <time>2020-09-29T06:53:54Z</time>
      </trkpt>
      <trkpt lat="40.4340950" lon="-3.5071750">
        <ele>565.0</ele>
        <time>2020-09-29T06:53:55Z</time>
      </trkpt>
      <trkpt lat="40.4340950" lon="-3.5071750">
        <ele>565.0</ele>
        <time>2020-09-29T06:53:56Z</time>
      </trkpt>
      <trkpt lat="40.4341220" lon="-3.5070220">
        <ele>565.0</ele>
        <time>2020-09-29T06:53:57Z</time>
      </trkpt>
      <trkpt lat="40.4341220" lon="-3.5070220">
        <ele>565.0</ele>
        <time>2020-09-29T06:53:58Z</time>
      </trkpt>
      <trkpt lat="40.4342020" lon="-3.5068720">
        <ele>565.0</ele>
        <time>2020-09-29T06:53:59Z</time>
      </trkpt>
      <trkpt lat="40.4342020" lon="-3.5068720">
        <ele>565.0</ele>
        <time>2020-09-29T06:54:00Z</time>
      </trkpt>
      <trkpt lat="40.4343130" lon="-3.5067480">
        <ele>565.0</ele>
        <time>2020-09-29T06:54:01Z</time>
      </trkpt>
      <trkpt lat="40.4343130" lon="-3.5067480">
        <ele>565.0</ele>
        <time>2020-09-29T06:54:02Z</time>
      </trkpt>
      <trkpt lat="40.4344530" lon="-3.5066750">
        <ele>565.0</ele>
        <time>2020-09-29T06:54:03Z</time>
      </trkpt>
      <trkpt lat="40.4344530" lon="-3.5066750">
        <ele>565.0</ele>
        <time>2020-09-29T06:54:04Z</time>
      </trkpt>
      <trkpt lat="40.4345980" lon="-3.5066170">
        <ele>565.0</ele>
        <time>2020-09-29T06:54:05Z</time>
      </trkpt>
      <trkpt lat="40.4345980" lon="-3.5066170">
        <ele>565.0</ele>
        <time>2020-09-29T06:54:06Z</time>
      </trkpt>
      <trkpt lat="40.4347220" lon="-3.5065030">
        <ele>565.0</ele>
        <time>2020-09-29T06:54:07Z</time>
      </trkpt>
      <trkpt lat="40.4347220" lon="-3.5065030">
        <ele>565.0</ele>
        <time>2020-09-29T06:54:08Z</time>
      </trkpt>
      <trkpt lat="40.4348170" lon="-3.5063570">
        <ele>565.0</ele>
        <time>2020-09-29T06:54:09Z</time>
      </trkpt>
      <trkpt lat="40.4348170" lon="-3.5063570">
        <ele>565.0</ele>
        <time>2020-09-29T06:54:10Z</time>
      </trkpt>
      <trkpt lat="40.4349070" lon="-3.5062020">
        <ele>565.0</ele>
        <time>2020-09-29T06:54:11Z</time>
      </trkpt>
      <trkpt lat="40.4349520" lon="-3.5061250">
        <ele>565.0</ele>
        <time>2020-09-29T06:54:12Z</time>
      </trkpt>
      <trkpt lat="40.4349520" lon="-3.5061250">
        <ele>565.0</ele>
        <time>2020-09-29T06:54:13Z</time>
      </trkpt>
      <trkpt lat="40.4350420" lon="-3.5059750">
        <ele>565.0</ele>
        <time>2020-09-29T06:54:14Z</time>
      </trkpt>
      <trkpt lat="40.4350870" lon="-3.5059020">
        <ele>565.0</ele>
        <time>2020-09-29T06:54:15Z</time>
      </trkpt>
      <trkpt lat="40.4350870" lon="-3.5059020">
        <ele>565.0</ele>
        <time>2020-09-29T06:54:16Z</time>
      </trkpt>
      <trkpt lat="40.4351770" lon="-3.5057520">
        <ele>565.0</ele>
        <time>2020-09-29T06:54:17Z</time>
      </trkpt>
      <trkpt lat="40.4351770" lon="-3.5057520">
        <ele>565.0</ele>
        <time>2020-09-29T06:54:18Z</time>
      </trkpt>
      <trkpt lat="40.4352550" lon="-3.5055920">
        <ele>565.0</ele>
        <time>2020-09-29T06:54:19Z</time>
      </trkpt>
      <trkpt lat="40.4352550" lon="-3.5055920">
        <ele>565.0</ele>
        <time>2020-09-29T06:54:20Z</time>
      </trkpt>
      <trkpt lat="40.4352950" lon="-3.5054180">
        <ele>565.0</ele>
        <time>2020-09-29T06:54:21Z</time>
      </trkpt>
      <trkpt lat="40.4352950" lon="-3.5054180">
        <ele>565.0</ele>
        <time>2020-09-29T06:54:22Z</time>
      </trkpt>
      <trkpt lat="40.4352920" lon="-3.5052570">
        <ele>565.0</ele>
        <time>2020-09-29T06:54:23Z</time>
      </trkpt>
      <trkpt lat="40.4352920" lon="-3.5052570">
        <ele>565.0</ele>
        <time>2020-09-29T06:54:24Z</time>
      </trkpt>
      <trkpt lat="40.4352950" lon="-3.5051120">
        <ele>565.0</ele>
        <time>2020-09-29T06:54:25Z</time>
      </trkpt>
      <trkpt lat="40.4352950" lon="-3.5051120">
        <ele>565.0</ele>
        <time>2020-09-29T06:54:26Z</time>
      </trkpt>
      <trkpt lat="40.4353280" lon="-3.5049720">
        <ele>565.0</ele>
        <time>2020-09-29T06:54:27Z</time>
      </trkpt>
      <trkpt lat="40.4353550" lon="-3.5049070">
        <ele>565.0</ele>
        <time>2020-09-29T06:54:28Z</time>
      </trkpt>
      <trkpt lat="40.4353550" lon="-3.5049070">
        <ele>565.0</ele>
        <time>2020-09-29T06:54:29Z</time>
      </trkpt>
      <trkpt lat="40.4354270" lon="-3.5048000">
        <ele>565.0</ele>
        <time>2020-09-29T06:54:30Z</time>
      </trkpt>
      <trkpt lat="40.4354270" lon="-3.5048000">
        <ele>565.0</ele>
        <time>2020-09-29T06:54:31Z</time>
      </trkpt>
      <trkpt lat="40.4355270" lon="-3.5047350">
        <ele>565.0</ele>
        <time>2020-09-29T06:54:32Z</time>
      </trkpt>
      <trkpt lat="40.4355850" lon="-3.5047200">
        <ele>565.0</ele>
        <time>2020-09-29T06:54:33Z</time>
      </trkpt>
      <trkpt lat="40.4355850" lon="-3.5047200">
        <ele>565.0</ele>
        <time>2020-09-29T06:54:34Z</time>
      </trkpt>
      <trkpt lat="40.4357130" lon="-3.5047000">
        <ele>565.0</ele>
        <time>2020-09-29T06:54:35Z</time>
      </trkpt>
      <trkpt lat="40.4357130" lon="-3.5047000">
        <ele>565.0</ele>
        <time>2020-09-29T06:54:36Z</time>
      </trkpt>
      <trkpt lat="40.4358370" lon="-3.5046280">
        <ele>565.0</ele>
        <time>2020-09-29T06:54:37Z</time>
      </trkpt>
      <trkpt lat="40.4358370" lon="-3.5046280">
        <ele>565.0</ele>
        <time>2020-09-29T06:54:38Z</time>
      </trkpt>
      <trkpt lat="40.4359280" lon="-3.5044930">
        <ele>565.0</ele>
        <time>2020-09-29T06:54:39Z</time>
      </trkpt>
      <trkpt lat="40.4359280" lon="-3.5044930">
        <ele>565.0</ele>
        <time>2020-09-29T06:54:40Z</time>
      </trkpt>
      <trkpt lat="40.4360170" lon="-3.5043370">
        <ele>565.0</ele>
        <time>2020-09-29T06:54:41Z</time>
      </trkpt>
      <trkpt lat="40.4360600" lon="-3.5042600">
        <ele>565.0</ele>
        <time>2020-09-29T06:54:42Z</time>
      </trkpt>
      <trkpt lat="40.4361080" lon="-3.5041830">
        <ele>565.0</ele>
        <time>2020-09-29T06:54:43Z</time>
      </trkpt>
      <trkpt lat="40.4361080" lon="-3.5041830">
        <ele>565.0</ele>
        <time>2020-09-29T06:54:44Z</time>
      </trkpt>
      <trkpt lat="40.4362030" lon="-3.5040320">
        <ele>565.0</ele>
        <time>2020-09-29T06:54:45Z</time>
      </trkpt>
      <trkpt lat="40.4362030" lon="-3.5040320">
        <ele>565.0</ele>
        <time>2020-09-29T06:54:46Z</time>
      </trkpt>
      <trkpt lat="40.4362970" lon="-3.5038770">
        <ele>565.0</ele>
        <time>2020-09-29T06:54:47Z</time>
      </trkpt>
      <trkpt lat="40.4363430" lon="-3.5037980">
        <ele>565.0</ele>
        <time>2020-09-29T06:54:48Z</time>
      </trkpt>
      <trkpt lat="40.4363900" lon="-3.5037220">
        <ele>565.0</ele>
        <time>2020-09-29T06:54:49Z</time>
      </trkpt>
      <trkpt lat="40.4363900" lon="-3.5037220">
        <ele>565.0</ele>
        <time>2020-09-29T06:54:50Z</time>
      </trkpt>
      <trkpt lat="40.4364850" lon="-3.5035680">
        <ele>565.0</ele>
        <time>2020-09-29T06:54:51Z</time>
      </trkpt>
      <trkpt lat="40.4364850" lon="-3.5035680">
        <ele>565.0</ele>
        <time>2020-09-29T06:54:52Z</time>
      </trkpt>
      <trkpt lat="40.4365850" lon="-3.5034230">
        <ele>565.0</ele>
        <time>2020-09-29T06:54:53Z</time>
      </trkpt>
      <trkpt lat="40.4365850" lon="-3.5034230">
        <ele>566.0</ele>
        <time>2020-09-29T06:54:54Z</time>
      </trkpt>
      <trkpt lat="40.4366880" lon="-3.5032850">
        <ele>566.0</ele>
        <time>2020-09-29T06:54:55Z</time>
      </trkpt>
      <trkpt lat="40.4366880" lon="-3.5032850">
        <ele>566.0</ele>
        <time>2020-09-29T06:54:56Z</time>
      </trkpt>
      <trkpt lat="40.4367970" lon="-3.5031520">
        <ele>566.0</ele>
        <time>2020-09-29T06:54:57Z</time>
      </trkpt>
      <trkpt lat="40.4367970" lon="-3.5031520">
        <ele>566.0</ele>
        <time>2020-09-29T06:54:58Z</time>
      </trkpt>
      <trkpt lat="40.4369150" lon="-3.5030200">
        <ele>566.0</ele>
        <time>2020-09-29T06:54:59Z</time>
      </trkpt>
      <trkpt lat="40.4369150" lon="-3.5030200">
        <ele>566.0</ele>
        <time>2020-09-29T06:55:00Z</time>
      </trkpt>
      <trkpt lat="40.4370380" lon="-3.5029000">
        <ele>566.0</ele>
        <time>2020-09-29T06:55:01Z</time>
      </trkpt>
      <trkpt lat="40.4371020" lon="-3.5028420">
        <ele>566.0</ele>
        <time>2020-09-29T06:55:02Z</time>
      </trkpt>
      <trkpt lat="40.4371020" lon="-3.5028420">
        <ele>566.0</ele>
        <time>2020-09-29T06:55:03Z</time>
      </trkpt>
      <trkpt lat="40.4372320" lon="-3.5027330">
        <ele>566.0</ele>
        <time>2020-09-29T06:55:04Z</time>
      </trkpt>
      <trkpt lat="40.4372320" lon="-3.5027330">
        <ele>566.0</ele>
        <time>2020-09-29T06:55:05Z</time>
      </trkpt>
      <trkpt lat="40.4373650" lon="-3.5026270">
        <ele>566.0</ele>
        <time>2020-09-29T06:55:06Z</time>
      </trkpt>
      <trkpt lat="40.4373650" lon="-3.5026270">
        <ele>566.0</ele>
        <time>2020-09-29T06:55:07Z</time>
      </trkpt>
      <trkpt lat="40.4374980" lon="-3.5025170">
        <ele>566.0</ele>
        <time>2020-09-29T06:55:08Z</time>
      </trkpt>
      <trkpt lat="40.4375670" lon="-3.5024650">
        <ele>566.0</ele>
        <time>2020-09-29T06:55:09Z</time>
      </trkpt>
      <trkpt lat="40.4375670" lon="-3.5024650">
        <ele>566.0</ele>
        <time>2020-09-29T06:55:10Z</time>
      </trkpt>
      <trkpt lat="40.4377020" lon="-3.5023600">
        <ele>566.0</ele>
        <time>2020-09-29T06:55:11Z</time>
      </trkpt>
      <trkpt lat="40.4377020" lon="-3.5023600">
        <ele>566.0</ele>
        <time>2020-09-29T06:55:12Z</time>
      </trkpt>
      <trkpt lat="40.4378350" lon="-3.5022520">
        <ele>566.0</ele>
        <time>2020-09-29T06:55:13Z</time>
      </trkpt>
      <trkpt lat="40.4378350" lon="-3.5022520">
        <ele>566.0</ele>
        <time>2020-09-29T06:55:14Z</time>
      </trkpt>
      <trkpt lat="40.4379670" lon="-3.5021380">
        <ele>566.0</ele>
        <time>2020-09-29T06:55:15Z</time>
      </trkpt>
      <trkpt lat="40.4379670" lon="-3.5021380">
        <ele>566.0</ele>
        <time>2020-09-29T06:55:16Z</time>
      </trkpt>
      <trkpt lat="40.4380920" lon="-3.5020230">
        <ele>566.0</ele>
        <time>2020-09-29T06:55:17Z</time>
      </trkpt>
      <trkpt lat="40.4381520" lon="-3.5019630">
        <ele>566.0</ele>
        <time>2020-09-29T06:55:18Z</time>
      </trkpt>
      <trkpt lat="40.4382100" lon="-3.5019000">
        <ele>566.0</ele>
        <time>2020-09-29T06:55:19Z</time>
      </trkpt>
      <trkpt lat="40.4382100" lon="-3.5019000">
        <ele>566.0</ele>
        <time>2020-09-29T06:55:20Z</time>
      </trkpt>
      <trkpt lat="40.4383230" lon="-3.5017680">
        <ele>566.0</ele>
        <time>2020-09-29T06:55:21Z</time>
      </trkpt>
      <trkpt lat="40.4383230" lon="-3.5017680">
        <ele>566.0</ele>
        <time>2020-09-29T06:55:22Z</time>
      </trkpt>
      <trkpt lat="40.4384300" lon="-3.5016320">
        <ele>566.0</ele>
        <time>2020-09-29T06:55:23Z</time>
      </trkpt>
      <trkpt lat="40.4384800" lon="-3.5015600">
        <ele>566.0</ele>
        <time>2020-09-29T06:55:24Z</time>
      </trkpt>
      <trkpt lat="40.4384800" lon="-3.5015600">
        <ele>566.0</ele>
        <time>2020-09-29T06:55:25Z</time>
      </trkpt>
      <trkpt lat="40.4385780" lon="-3.5014100">
        <ele>566.0</ele>
        <time>2020-09-29T06:55:26Z</time>
      </trkpt>
      <trkpt lat="40.4385780" lon="-3.5014100">
        <ele>566.0</ele>
        <time>2020-09-29T06:55:27Z</time>
      </trkpt>
      <trkpt lat="40.4386700" lon="-3.5012520">
        <ele>567.0</ele>
        <time>2020-09-29T06:55:28Z</time>
      </trkpt>
      <trkpt lat="40.4386700" lon="-3.5012520">
        <ele>567.0</ele>
        <time>2020-09-29T06:55:29Z</time>
      </trkpt>
      <trkpt lat="40.4387530" lon="-3.5010850">
        <ele>567.0</ele>
        <time>2020-09-29T06:55:30Z</time>
      </trkpt>
      <trkpt lat="40.4387920" lon="-3.5010000">
        <ele>567.0</ele>
        <time>2020-09-29T06:55:31Z</time>
      </trkpt>
      <trkpt lat="40.4387920" lon="-3.5010000">
        <ele>567.0</ele>
        <time>2020-09-29T06:55:32Z</time>
      </trkpt>
      <trkpt lat="40.4388630" lon="-3.5008300">
        <ele>567.0</ele>
        <time>2020-09-29T06:55:33Z</time>
      </trkpt>
      <trkpt lat="40.4388630" lon="-3.5008300">
        <ele>568.0</ele>
        <time>2020-09-29T06:55:34Z</time>
      </trkpt>
      <trkpt lat="40.4389250" lon="-3.5006550">
        <ele>568.0</ele>
        <time>2020-09-29T06:55:35Z</time>
      </trkpt>
      <trkpt lat="40.4389250" lon="-3.5006550">
        <ele>568.0</ele>
        <time>2020-09-29T06:55:36Z</time>
      </trkpt>
      <trkpt lat="40.4389820" lon="-3.5004800">
        <ele>568.0</ele>
        <time>2020-09-29T06:55:37Z</time>
      </trkpt>
      <trkpt lat="40.4389820" lon="-3.5004800">
        <ele>568.0</ele>
        <time>2020-09-29T06:55:38Z</time>
      </trkpt>
      <trkpt lat="40.4390300" lon="-3.5003050">
        <ele>568.0</ele>
        <time>2020-09-29T06:55:39Z</time>
      </trkpt>
      <trkpt lat="40.4390300" lon="-3.5003050">
        <ele>568.0</ele>
        <time>2020-09-29T06:55:40Z</time>
      </trkpt>
      <trkpt lat="40.4390750" lon="-3.5001300">
        <ele>568.0</ele>
        <time>2020-09-29T06:55:41Z</time>
      </trkpt>
      <trkpt lat="40.4390750" lon="-3.5001300">
        <ele>568.0</ele>
        <time>2020-09-29T06:55:42Z</time>
      </trkpt>
      <trkpt lat="40.4391180" lon="-3.4999550">
        <ele>568.0</ele>
        <time>2020-09-29T06:55:43Z</time>
      </trkpt>
      <trkpt lat="40.4391180" lon="-3.4999550">
        <ele>568.0</ele>
        <time>2020-09-29T06:55:44Z</time>
      </trkpt>
      <trkpt lat="40.4391620" lon="-3.4997770">
        <ele>569.0</ele>
        <time>2020-09-29T06:55:45Z</time>
      </trkpt>
      <trkpt lat="40.4391620" lon="-3.4997770">
        <ele>569.0</ele>
        <time>2020-09-29T06:55:46Z</time>
      </trkpt>
      <trkpt lat="40.4392030" lon="-3.4996000">
        <ele>569.0</ele>
        <time>2020-09-29T06:55:47Z</time>
      </trkpt>
      <trkpt lat="40.4392030" lon="-3.4996000">
        <ele>569.0</ele>
        <time>2020-09-29T06:55:48Z</time>
      </trkpt>
      <trkpt lat="40.4392480" lon="-3.4994250">
        <ele>569.0</ele>
        <time>2020-09-29T06:55:49Z</time>
      </trkpt>
      <trkpt lat="40.4392480" lon="-3.4994250">
        <ele>569.0</ele>
        <time>2020-09-29T06:55:50Z</time>
      </trkpt>
      <trkpt lat="40.4392830" lon="-3.4992450">
        <ele>569.0</ele>
        <time>2020-09-29T06:55:51Z</time>
      </trkpt>
      <trkpt lat="40.4392830" lon="-3.4992450">
        <ele>569.0</ele>
        <time>2020-09-29T06:55:52Z</time>
      </trkpt>
      <trkpt lat="40.4393080" lon="-3.4990620">
        <ele>570.0</ele>
        <time>2020-09-29T06:55:53Z</time>
      </trkpt>
      <trkpt lat="40.4393200" lon="-3.4989700">
        <ele>570.0</ele>
        <time>2020-09-29T06:55:54Z</time>
      </trkpt>
      <trkpt lat="40.4393280" lon="-3.4988770">
        <ele>570.0</ele>
        <time>2020-09-29T06:55:55Z</time>
      </trkpt>
      <trkpt lat="40.4393280" lon="-3.4988770">
        <ele>570.0</ele>
        <time>2020-09-29T06:55:56Z</time>
      </trkpt>
      <trkpt lat="40.4393420" lon="-3.4986900">
        <ele>570.0</ele>
        <time>2020-09-29T06:55:57Z</time>
      </trkpt>
      <trkpt lat="40.4393370" lon="-3.4985950">
        <ele>570.0</ele>
        <time>2020-09-29T06:55:58Z</time>
      </trkpt>
      <trkpt lat="40.4393370" lon="-3.4985950">
        <ele>570.0</ele>
        <time>2020-09-29T06:55:59Z</time>
      </trkpt>
      <trkpt lat="40.4393080" lon="-3.4984080">
        <ele>570.0</ele>
        <time>2020-09-29T06:56:00Z</time>
      </trkpt>
      <trkpt lat="40.4393020" lon="-3.4983120">
        <ele>570.0</ele>
        <time>2020-09-29T06:56:01Z</time>
      </trkpt>
      <trkpt lat="40.4393020" lon="-3.4983120">
        <ele>570.0</ele>
        <time>2020-09-29T06:56:02Z</time>
      </trkpt>
      <trkpt lat="40.4393280" lon="-3.4981230">
        <ele>570.0</ele>
        <time>2020-09-29T06:56:03Z</time>
      </trkpt>
      <trkpt lat="40.4393280" lon="-3.4981230">
        <ele>571.0</ele>
        <time>2020-09-29T06:56:04Z</time>
      </trkpt>
      <trkpt lat="40.4394070" lon="-3.4979630">
        <ele>571.0</ele>
        <time>2020-09-29T06:56:05Z</time>
      </trkpt>
      <trkpt lat="40.4394070" lon="-3.4979630">
        <ele>571.0</ele>
        <time>2020-09-29T06:56:06Z</time>
      </trkpt>
      <trkpt lat="40.4395250" lon="-3.4978580">
        <ele>571.0</ele>
        <time>2020-09-29T06:56:07Z</time>
      </trkpt>
      <trkpt lat="40.4395930" lon="-3.4978350">
        <ele>571.0</ele>
        <time>2020-09-29T06:56:08Z</time>
      </trkpt>
      <trkpt lat="40.4396630" lon="-3.4978350">
        <ele>571.0</ele>
        <time>2020-09-29T06:56:09Z</time>
      </trkpt>
      <trkpt lat="40.4396630" lon="-3.4978350">
        <ele>571.0</ele>
        <time>2020-09-29T06:56:10Z</time>
      </trkpt>
      <trkpt lat="40.4397950" lon="-3.4979020">
        <ele>571.0</ele>
        <time>2020-09-29T06:56:11Z</time>
      </trkpt>
      <trkpt lat="40.4397950" lon="-3.4979020">
        <ele>572.0</ele>
        <time>2020-09-29T06:56:12Z</time>
      </trkpt>
      <trkpt lat="40.4398980" lon="-3.4980350">
        <ele>572.0</ele>
        <time>2020-09-29T06:56:13Z</time>
      </trkpt>
      <trkpt lat="40.4398980" lon="-3.4980350">
        <ele>572.0</ele>
        <time>2020-09-29T06:56:14Z</time>
      </trkpt>
      <trkpt lat="40.4399730" lon="-3.4982000">
        <ele>572.0</ele>
        <time>2020-09-29T06:56:15Z</time>
      </trkpt>
      <trkpt lat="40.4400150" lon="-3.4982800">
        <ele>572.0</ele>
        <time>2020-09-29T06:56:16Z</time>
      </trkpt>
      <trkpt lat="40.4400150" lon="-3.4982800">
        <ele>572.0</ele>
        <time>2020-09-29T06:56:17Z</time>
      </trkpt>
      <trkpt lat="40.4401350" lon="-3.4983930">
        <ele>572.0</ele>
        <time>2020-09-29T06:56:18Z</time>
      </trkpt>
      <trkpt lat="40.4402050" lon="-3.4984320">
        <ele>572.0</ele>
        <time>2020-09-29T06:56:19Z</time>
      </trkpt>
      <trkpt lat="40.4402050" lon="-3.4984320">
        <ele>572.0</ele>
        <time>2020-09-29T06:56:20Z</time>
      </trkpt>
      <trkpt lat="40.4403470" lon="-3.4984980">
        <ele>572.0</ele>
        <time>2020-09-29T06:56:21Z</time>
      </trkpt>
      <trkpt lat="40.4403470" lon="-3.4984980">
        <ele>572.0</ele>
        <time>2020-09-29T06:56:22Z</time>
      </trkpt>
      <trkpt lat="40.4404850" lon="-3.4985680">
        <ele>572.0</ele>
        <time>2020-09-29T06:56:23Z</time>
      </trkpt>
      <trkpt lat="40.4405550" lon="-3.4986020">
        <ele>572.0</ele>
        <time>2020-09-29T06:56:24Z</time>
      </trkpt>
      <trkpt lat="40.4406230" lon="-3.4986350">
        <ele>572.0</ele>
        <time>2020-09-29T06:56:25Z</time>
      </trkpt>
      <trkpt lat="40.4406230" lon="-3.4986350">
        <ele>572.0</ele>
        <time>2020-09-29T06:56:26Z</time>
      </trkpt>
      <trkpt lat="40.4407620" lon="-3.4987020">
        <ele>572.0</ele>
        <time>2020-09-29T06:56:27Z</time>
      </trkpt>
      <trkpt lat="40.4408300" lon="-3.4987380">
        <ele>572.0</ele>
        <time>2020-09-29T06:56:28Z</time>
      </trkpt>
      <trkpt lat="40.4408300" lon="-3.4987380">
        <ele>572.0</ele>
        <time>2020-09-29T06:56:29Z</time>
      </trkpt>
      <trkpt lat="40.4409650" lon="-3.4988150">
        <ele>572.0</ele>
        <time>2020-09-29T06:56:30Z</time>
      </trkpt>
      <trkpt lat="40.4410330" lon="-3.4988520">
        <ele>572.0</ele>
        <time>2020-09-29T06:56:31Z</time>
      </trkpt>
      <trkpt lat="40.4410330" lon="-3.4988520">
        <ele>572.0</ele>
        <time>2020-09-29T06:56:32Z</time>
      </trkpt>
      <trkpt lat="40.4411650" lon="-3.4989320">
        <ele>572.0</ele>
        <time>2020-09-29T06:56:33Z</time>
      </trkpt>
      <trkpt lat="40.4412320" lon="-3.4989750">
        <ele>572.0</ele>
        <time>2020-09-29T06:56:34Z</time>
      </trkpt>
      <trkpt lat="40.4412970" lon="-3.4990200">
        <ele>572.0</ele>
        <time>2020-09-29T06:56:35Z</time>
      </trkpt>
      <trkpt lat="40.4412970" lon="-3.4990200">
        <ele>572.0</ele>
        <time>2020-09-29T06:56:36Z</time>
      </trkpt>
      <trkpt lat="40.4414250" lon="-3.4991100">
        <ele>572.0</ele>
        <time>2020-09-29T06:56:37Z</time>
      </trkpt>
      <trkpt lat="40.4414250" lon="-3.4991100">
        <ele>572.0</ele>
        <time>2020-09-29T06:56:38Z</time>
      </trkpt>
      <trkpt lat="40.4415480" lon="-3.4992100">
        <ele>572.0</ele>
        <time>2020-09-29T06:56:39Z</time>
      </trkpt>
      <trkpt lat="40.4416100" lon="-3.4992650">
        <ele>572.0</ele>
        <time>2020-09-29T06:56:40Z</time>
      </trkpt>
      <trkpt lat="40.4416100" lon="-3.4992650">
        <ele>572.0</ele>
        <time>2020-09-29T06:56:41Z</time>
      </trkpt>
      <trkpt lat="40.4417280" lon="-3.4993780">
        <ele>572.0</ele>
        <time>2020-09-29T06:56:42Z</time>
      </trkpt>
      <trkpt lat="40.4417850" lon="-3.4994400">
        <ele>572.0</ele>
        <time>2020-09-29T06:56:43Z</time>
      </trkpt>
      <trkpt lat="40.4417850" lon="-3.4994400">
        <ele>573.0</ele>
        <time>2020-09-29T06:56:44Z</time>
      </trkpt>
      <trkpt lat="40.4418950" lon="-3.4995680">
        <ele>573.0</ele>
        <time>2020-09-29T06:56:45Z</time>
      </trkpt>
      <trkpt lat="40.4418950" lon="-3.4995680">
        <ele>573.0</ele>
        <time>2020-09-29T06:56:46Z</time>
      </trkpt>
      <trkpt lat="40.4419980" lon="-3.4997030">
        <ele>573.0</ele>
        <time>2020-09-29T06:56:47Z</time>
      </trkpt>
      <trkpt lat="40.4419980" lon="-3.4997030">
        <ele>573.0</ele>
        <time>2020-09-29T06:56:48Z</time>
      </trkpt>
      <trkpt lat="40.4420970" lon="-3.4998450">
        <ele>573.0</ele>
        <time>2020-09-29T06:56:49Z</time>
      </trkpt>
      <trkpt lat="40.4420970" lon="-3.4998450">
        <ele>573.0</ele>
        <time>2020-09-29T06:56:50Z</time>
      </trkpt>
      <trkpt lat="40.4421920" lon="-3.4999920">
        <ele>573.0</ele>
        <time>2020-09-29T06:56:51Z</time>
      </trkpt>
      <trkpt lat="40.4421920" lon="-3.4999920">
        <ele>573.0</ele>
        <time>2020-09-29T06:56:52Z</time>
      </trkpt>
      <trkpt lat="40.4422800" lon="-3.5001430">
        <ele>573.0</ele>
        <time>2020-09-29T06:56:53Z</time>
      </trkpt>
      <trkpt lat="40.4422800" lon="-3.5001430">
        <ele>573.0</ele>
        <time>2020-09-29T06:56:54Z</time>
      </trkpt>
      <trkpt lat="40.4423670" lon="-3.5002980">
        <ele>573.0</ele>
        <time>2020-09-29T06:56:55Z</time>
      </trkpt>
      <trkpt lat="40.4423670" lon="-3.5002980">
        <ele>573.0</ele>
        <time>2020-09-29T06:56:56Z</time>
      </trkpt>
      <trkpt lat="40.4424520" lon="-3.5004580">
        <ele>573.0</ele>
        <time>2020-09-29T06:56:57Z</time>
      </trkpt>
      <trkpt lat="40.4424930" lon="-3.5005380">
        <ele>573.0</ele>
        <time>2020-09-29T06:56:58Z</time>
      </trkpt>
      <trkpt lat="40.4424930" lon="-3.5005380">
        <ele>573.0</ele>
        <time>2020-09-29T06:56:59Z</time>
      </trkpt>
      <trkpt lat="40.4426000" lon="-3.5006680">
        <ele>573.0</ele>
        <time>2020-09-29T06:57:00Z</time>
      </trkpt>
      <trkpt lat="40.4426680" lon="-3.5007020">
        <ele>573.0</ele>
        <time>2020-09-29T06:57:01Z</time>
      </trkpt>
      <trkpt lat="40.4426680" lon="-3.5007020">
        <ele>573.0</ele>
        <time>2020-09-29T06:57:02Z</time>
      </trkpt>
      <trkpt lat="40.4428020" lon="-3.5007770">
        <ele>573.0</ele>
        <time>2020-09-29T06:57:03Z</time>
      </trkpt>
      <trkpt lat="40.4428020" lon="-3.5007770">
        <ele>573.0</ele>
        <time>2020-09-29T06:57:04Z</time>
      </trkpt>
      <trkpt lat="40.4428970" lon="-3.5009200">
        <ele>573.0</ele>
        <time>2020-09-29T06:57:05Z</time>
      </trkpt>
      <trkpt lat="40.4428970" lon="-3.5009200">
        <ele>573.0</ele>
        <time>2020-09-29T06:57:06Z</time>
      </trkpt>
      <trkpt lat="40.4429370" lon="-3.5011000">
        <ele>573.0</ele>
        <time>2020-09-29T06:57:07Z</time>
      </trkpt>
      <trkpt lat="40.4429370" lon="-3.5011000">
        <ele>573.0</ele>
        <time>2020-09-29T06:57:08Z</time>
      </trkpt>
      <trkpt lat="40.4429480" lon="-3.5012850">
        <ele>573.0</ele>
        <time>2020-09-29T06:57:09Z</time>
      </trkpt>
      <trkpt lat="40.4429480" lon="-3.5012850">
        <ele>573.0</ele>
        <time>2020-09-29T06:57:10Z</time>
      </trkpt>
      <trkpt lat="40.4429780" lon="-3.5014650">
        <ele>573.0</ele>
        <time>2020-09-29T06:57:11Z</time>
      </trkpt>
      <trkpt lat="40.4429780" lon="-3.5014650">
        <ele>573.0</ele>
        <time>2020-09-29T06:57:12Z</time>
      </trkpt>
      <trkpt lat="40.4430420" lon="-3.5016300">
        <ele>574.0</ele>
        <time>2020-09-29T06:57:13Z</time>
      </trkpt>
      <trkpt lat="40.4430420" lon="-3.5016300">
        <ele>574.0</ele>
        <time>2020-09-29T06:57:14Z</time>
      </trkpt>
      <trkpt lat="40.4431170" lon="-3.5017830">
        <ele>574.0</ele>
        <time>2020-09-29T06:57:15Z</time>
      </trkpt>
      <trkpt lat="40.4431170" lon="-3.5017830">
        <ele>574.0</ele>
        <time>2020-09-29T06:57:16Z</time>
      </trkpt>
      <trkpt lat="40.4431930" lon="-3.5019380">
        <ele>574.0</ele>
        <time>2020-09-29T06:57:17Z</time>
      </trkpt>
      <trkpt lat="40.4431930" lon="-3.5019380">
        <ele>574.0</ele>
        <time>2020-09-29T06:57:18Z</time>
      </trkpt>
      <trkpt lat="40.4432700" lon="-3.5020920">
        <ele>574.0</ele>
        <time>2020-09-29T06:57:19Z</time>
      </trkpt>
      <trkpt lat="40.4432700" lon="-3.5020920">
        <ele>574.0</ele>
        <time>2020-09-29T06:57:20Z</time>
      </trkpt>
      <trkpt lat="40.4433470" lon="-3.5022420">
        <ele>574.0</ele>
        <time>2020-09-29T06:57:21Z</time>
      </trkpt>
      <trkpt lat="40.4433470" lon="-3.5022420">
        <ele>574.0</ele>
        <time>2020-09-29T06:57:22Z</time>
      </trkpt>
      <trkpt lat="40.4434220" lon="-3.5023920">
        <ele>574.0</ele>
        <time>2020-09-29T06:57:23Z</time>
      </trkpt>
      <trkpt lat="40.4434220" lon="-3.5023920">
        <ele>574.0</ele>
        <time>2020-09-29T06:57:24Z</time>
      </trkpt>
      <trkpt lat="40.4434970" lon="-3.5025380">
        <ele>574.0</ele>
        <time>2020-09-29T06:57:25Z</time>
      </trkpt>
      <trkpt lat="40.4435330" lon="-3.5026120">
        <ele>574.0</ele>
        <time>2020-09-29T06:57:26Z</time>
      </trkpt>
      <trkpt lat="40.4435330" lon="-3.5026120">
        <ele>574.0</ele>
        <time>2020-09-29T06:57:27Z</time>
      </trkpt>
      <trkpt lat="40.4436050" lon="-3.5027550">
        <ele>574.0</ele>
        <time>2020-09-29T06:57:28Z</time>
      </trkpt>
      <trkpt lat="40.4436420" lon="-3.5028250">
        <ele>574.0</ele>
        <time>2020-09-29T06:57:29Z</time>
      </trkpt>
      <trkpt lat="40.4436800" lon="-3.5028930">
        <ele>574.0</ele>
        <time>2020-09-29T06:57:30Z</time>
      </trkpt>
      <trkpt lat="40.4437170" lon="-3.5029620">
        <ele>574.0</ele>
        <time>2020-09-29T06:57:31Z</time>
      </trkpt>
      <trkpt lat="40.4437170" lon="-3.5029620">
        <ele>574.0</ele>
        <time>2020-09-29T06:57:32Z</time>
      </trkpt>
      <trkpt lat="40.4437870" lon="-3.5030970">
        <ele>575.0</ele>
        <time>2020-09-29T06:57:33Z</time>
      </trkpt>
      <trkpt lat="40.4437870" lon="-3.5030970">
        <ele>575.0</ele>
        <time>2020-09-29T06:57:34Z</time>
      </trkpt>
      <trkpt lat="40.4438570" lon="-3.5032320">
        <ele>575.0</ele>
        <time>2020-09-29T06:57:35Z</time>
      </trkpt>
      <trkpt lat="40.4438900" lon="-3.5032980">
        <ele>575.0</ele>
        <time>2020-09-29T06:57:36Z</time>
      </trkpt>
      <trkpt lat="40.4438900" lon="-3.5032980">
        <ele>575.0</ele>
        <time>2020-09-29T06:57:37Z</time>
      </trkpt>
      <trkpt lat="40.4439580" lon="-3.5034300">
        <ele>575.0</ele>
        <time>2020-09-29T06:57:38Z</time>
      </trkpt>
      <trkpt lat="40.4439920" lon="-3.5034950">
        <ele>576.0</ele>
        <time>2020-09-29T06:57:39Z</time>
      </trkpt>
      <trkpt lat="40.4439920" lon="-3.5034950">
        <ele>576.0</ele>
        <time>2020-09-29T06:57:40Z</time>
      </trkpt>
      <trkpt lat="40.4440630" lon="-3.5036230">
        <ele>576.0</ele>
        <time>2020-09-29T06:57:41Z</time>
      </trkpt>
      <trkpt lat="40.4440630" lon="-3.5036230">
        <ele>576.0</ele>
        <time>2020-09-29T06:57:42Z</time>
      </trkpt>
      <trkpt lat="40.4441370" lon="-3.5037470">
        <ele>576.0</ele>
        <time>2020-09-29T06:57:43Z</time>
      </trkpt>
      <trkpt lat="40.4441370" lon="-3.5037470">
        <ele>576.0</ele>
        <time>2020-09-29T06:57:44Z</time>
      </trkpt>
      <trkpt lat="40.4442120" lon="-3.5038650">
        <ele>576.0</ele>
        <time>2020-09-29T06:57:45Z</time>
      </trkpt>
      <trkpt lat="40.4442120" lon="-3.5038650">
        <ele>576.0</ele>
        <time>2020-09-29T06:57:46Z</time>
      </trkpt>
      <trkpt lat="40.4442930" lon="-3.5039780">
        <ele>576.0</ele>
        <time>2020-09-29T06:57:47Z</time>
      </trkpt>
      <trkpt lat="40.4443350" lon="-3.5040370">
        <ele>576.0</ele>
        <time>2020-09-29T06:57:48Z</time>
      </trkpt>
      <trkpt lat="40.4443780" lon="-3.5040900">
        <ele>577.0</ele>
        <time>2020-09-29T06:57:49Z</time>
      </trkpt>
      <trkpt lat="40.4443780" lon="-3.5040900">
        <ele>577.0</ele>
        <time>2020-09-29T06:57:50Z</time>
      </trkpt>
      <trkpt lat="40.4444650" lon="-3.5042000">
        <ele>577.0</ele>
        <time>2020-09-29T06:57:51Z</time>
      </trkpt>
      <trkpt lat="40.4444650" lon="-3.5042000">
        <ele>577.0</ele>
        <time>2020-09-29T06:57:52Z</time>
      </trkpt>
      <trkpt lat="40.4445570" lon="-3.5043000">
        <ele>577.0</ele>
        <time>2020-09-29T06:57:53Z</time>
      </trkpt>
      <trkpt lat="40.4445570" lon="-3.5043000">
        <ele>577.0</ele>
        <time>2020-09-29T06:57:54Z</time>
      </trkpt>
      <trkpt lat="40.4446550" lon="-3.5043970">
        <ele>578.0</ele>
        <time>2020-09-29T06:57:55Z</time>
      </trkpt>
      <trkpt lat="40.4446550" lon="-3.5043970">
        <ele>578.0</ele>
        <time>2020-09-29T06:57:56Z</time>
      </trkpt>
      <trkpt lat="40.4447550" lon="-3.5044850">
        <ele>578.0</ele>
        <time>2020-09-29T06:57:57Z</time>
      </trkpt>
      <trkpt lat="40.4447550" lon="-3.5044850">
        <ele>578.0</ele>
        <time>2020-09-29T06:57:58Z</time>
      </trkpt>
      <trkpt lat="40.4448570" lon="-3.5045720">
        <ele>578.0</ele>
        <time>2020-09-29T06:57:59Z</time>
      </trkpt>
      <trkpt lat="40.4448570" lon="-3.5045720">
        <ele>578.0</ele>
        <time>2020-09-29T06:58:00Z</time>
      </trkpt>
      <trkpt lat="40.4449600" lon="-3.5046530">
        <ele>579.0</ele>
        <time>2020-09-29T06:58:01Z</time>
      </trkpt>
      <trkpt lat="40.4449600" lon="-3.5046530">
        <ele>579.0</ele>
        <time>2020-09-29T06:58:02Z</time>
      </trkpt>
      <trkpt lat="40.4450700" lon="-3.5047250">
        <ele>579.0</ele>
        <time>2020-09-29T06:58:03Z</time>
      </trkpt>
      <trkpt lat="40.4450700" lon="-3.5047250">
        <ele>579.0</ele>
        <time>2020-09-29T06:58:04Z</time>
      </trkpt>
      <trkpt lat="40.4451830" lon="-3.5047920">
        <ele>579.0</ele>
        <time>2020-09-29T06:58:05Z</time>
      </trkpt>
      <trkpt lat="40.4452380" lon="-3.5048230">
        <ele>579.0</ele>
        <time>2020-09-29T06:58:06Z</time>
      </trkpt>
      <trkpt lat="40.4452380" lon="-3.5048230">
        <ele>579.0</ele>
        <time>2020-09-29T06:58:07Z</time>
      </trkpt>
      <trkpt lat="40.4453500" lon="-3.5048900">
        <ele>579.0</ele>
        <time>2020-09-29T06:58:08Z</time>
      </trkpt>
      <trkpt lat="40.4453500" lon="-3.5048900">
        <ele>579.0</ele>
        <time>2020-09-29T06:58:09Z</time>
      </trkpt>
      <trkpt lat="40.4454620" lon="-3.5049550">
        <ele>579.0</ele>
        <time>2020-09-29T06:58:10Z</time>
      </trkpt>
      <trkpt lat="40.4455180" lon="-3.5049870">
        <ele>579.0</ele>
        <time>2020-09-29T06:58:11Z</time>
      </trkpt>
      <trkpt lat="40.4455180" lon="-3.5049870">
        <ele>579.0</ele>
        <time>2020-09-29T06:58:12Z</time>
      </trkpt>
      <trkpt lat="40.4456320" lon="-3.5050480">
        <ele>579.0</ele>
        <time>2020-09-29T06:58:13Z</time>
      </trkpt>
      <trkpt lat="40.4456870" lon="-3.5050770">
        <ele>579.0</ele>
        <time>2020-09-29T06:58:14Z</time>
      </trkpt>
      <trkpt lat="40.4457450" lon="-3.5051000">
        <ele>579.0</ele>
        <time>2020-09-29T06:58:15Z</time>
      </trkpt>
      <trkpt lat="40.4457450" lon="-3.5051000">
        <ele>579.0</ele>
        <time>2020-09-29T06:58:16Z</time>
      </trkpt>
      <trkpt lat="40.4458580" lon="-3.5051480">
        <ele>579.0</ele>
        <time>2020-09-29T06:58:17Z</time>
      </trkpt>
      <trkpt lat="40.4459180" lon="-3.5051600">
        <ele>579.0</ele>
        <time>2020-09-29T06:58:18Z</time>
      </trkpt>
      <trkpt lat="40.4459770" lon="-3.5051770">
        <ele>580.0</ele>
        <time>2020-09-29T06:58:19Z</time>
      </trkpt>
      <trkpt lat="40.4459770" lon="-3.5051770">
        <ele>580.0</ele>
        <time>2020-09-29T06:58:20Z</time>
      </trkpt>
      <trkpt lat="40.4460930" lon="-3.5052100">
        <ele>580.0</ele>
        <time>2020-09-29T06:58:21Z</time>
      </trkpt>
      <trkpt lat="40.4460930" lon="-3.5052100">
        <ele>580.0</ele>
        <time>2020-09-29T06:58:22Z</time>
      </trkpt>
      <trkpt lat="40.4462130" lon="-3.5052280">
        <ele>580.0</ele>
        <time>2020-09-29T06:58:23Z</time>
      </trkpt>
      <trkpt lat="40.4462750" lon="-3.5052220">
        <ele>580.0</ele>
        <time>2020-09-29T06:58:24Z</time>
      </trkpt>
      <trkpt lat="40.4463350" lon="-3.5052050">
        <ele>580.0</ele>
        <time>2020-09-29T06:58:25Z</time>
      </trkpt>
      <trkpt lat="40.4463350" lon="-3.5052050">
        <ele>580.0</ele>
        <time>2020-09-29T06:58:26Z</time>
      </trkpt>
      <trkpt lat="40.4464550" lon="-3.5051780">
        <ele>580.0</ele>
        <time>2020-09-29T06:58:27Z</time>
      </trkpt>
      <trkpt lat="40.4465150" lon="-3.5051780">
        <ele>580.0</ele>
        <time>2020-09-29T06:58:28Z</time>
      </trkpt>
      <trkpt lat="40.4465150" lon="-3.5051780">
        <ele>580.0</ele>
        <time>2020-09-29T06:58:29Z</time>
      </trkpt>
      <trkpt lat="40.4466350" lon="-3.5052080">
        <ele>580.0</ele>
        <time>2020-09-29T06:58:30Z</time>
      </trkpt>
      <trkpt lat="40.4466870" lon="-3.5052470">
        <ele>580.0</ele>
        <time>2020-09-29T06:58:31Z</time>
      </trkpt>
      <trkpt lat="40.4466870" lon="-3.5052470">
        <ele>580.0</ele>
        <time>2020-09-29T06:58:32Z</time>
      </trkpt>
      <trkpt lat="40.4467830" lon="-3.5053400">
        <ele>580.0</ele>
        <time>2020-09-29T06:58:33Z</time>
      </trkpt>
      <trkpt lat="40.4467830" lon="-3.5053400">
        <ele>580.0</ele>
        <time>2020-09-29T06:58:34Z</time>
      </trkpt>
      <trkpt lat="40.4468720" lon="-3.5054450">
        <ele>580.0</ele>
        <time>2020-09-29T06:58:35Z</time>
      </trkpt>
      <trkpt lat="40.4469220" lon="-3.5054920">
        <ele>580.0</ele>
        <time>2020-09-29T06:58:36Z</time>
      </trkpt>
      <trkpt lat="40.4469220" lon="-3.5054920">
        <ele>580.0</ele>
        <time>2020-09-29T06:58:37Z</time>
      </trkpt>
      <trkpt lat="40.4470330" lon="-3.5055600">
        <ele>580.0</ele>
        <time>2020-09-29T06:58:38Z</time>
      </trkpt>
      <trkpt lat="40.4470330" lon="-3.5055600">
        <ele>580.0</ele>
        <time>2020-09-29T06:58:39Z</time>
      </trkpt>
      <trkpt lat="40.4471550" lon="-3.5055930">
        <ele>580.0</ele>
        <time>2020-09-29T06:58:40Z</time>
      </trkpt>
      <trkpt lat="40.4471550" lon="-3.5055930">
        <ele>580.0</ele>
        <time>2020-09-29T06:58:41Z</time>
      </trkpt>
      <trkpt lat="40.4472730" lon="-3.5056220">
        <ele>581.0</ele>
        <time>2020-09-29T06:58:42Z</time>
      </trkpt>
      <trkpt lat="40.4473320" lon="-3.5056370">
        <ele>581.0</ele>
        <time>2020-09-29T06:58:43Z</time>
      </trkpt>
      <trkpt lat="40.4473320" lon="-3.5056370">
        <ele>581.0</ele>
        <time>2020-09-29T06:58:44Z</time>
      </trkpt>
      <trkpt lat="40.4474500" lon="-3.5056700">
        <ele>581.0</ele>
        <time>2020-09-29T06:58:45Z</time>
      </trkpt>
      <trkpt lat="40.4474500" lon="-3.5056700">
        <ele>581.0</ele>
        <time>2020-09-29T06:58:46Z</time>
      </trkpt>
      <trkpt lat="40.4475720" lon="-3.5056970">
        <ele>581.0</ele>
        <time>2020-09-29T06:58:47Z</time>
      </trkpt>
      <trkpt lat="40.4475720" lon="-3.5056970">
        <ele>581.0</ele>
        <time>2020-09-29T06:58:48Z</time>
      </trkpt>
      <trkpt lat="40.4476950" lon="-3.5057350">
        <ele>581.0</ele>
        <time>2020-09-29T06:58:49Z</time>
      </trkpt>
      <trkpt lat="40.4477570" lon="-3.5057550">
        <ele>581.0</ele>
        <time>2020-09-29T06:58:50Z</time>
      </trkpt>
      <trkpt lat="40.4478180" lon="-3.5057720">
        <ele>581.0</ele>
        <time>2020-09-29T06:58:51Z</time>
      </trkpt>
      <trkpt lat="40.4478180" lon="-3.5057720">
        <ele>581.0</ele>
        <time>2020-09-29T06:58:52Z</time>
      </trkpt>
      <trkpt lat="40.4479450" lon="-3.5058080">
        <ele>581.0</ele>
        <time>2020-09-29T06:58:53Z</time>
      </trkpt>
      <trkpt lat="40.4480080" lon="-3.5058280">
        <ele>581.0</ele>
        <time>2020-09-29T06:58:54Z</time>
      </trkpt>
      <trkpt lat="40.4480080" lon="-3.5058280">
        <ele>581.0</ele>
        <time>2020-09-29T06:58:55Z</time>
      </trkpt>
      <trkpt lat="40.4481330" lon="-3.5058750">
        <ele>581.0</ele>
        <time>2020-09-29T06:58:56Z</time>
      </trkpt>
      <trkpt lat="40.4481930" lon="-3.5059000">
        <ele>581.0</ele>
        <time>2020-09-29T06:58:57Z</time>
      </trkpt>
      <trkpt lat="40.4481930" lon="-3.5059000">
        <ele>581.0</ele>
        <time>2020-09-29T06:58:58Z</time>
      </trkpt>
      <trkpt lat="40.4483130" lon="-3.5059480">
        <ele>581.0</ele>
        <time>2020-09-29T06:58:59Z</time>
      </trkpt>
      <trkpt lat="40.4483130" lon="-3.5059480">
        <ele>581.0</ele>
        <time>2020-09-29T06:59:00Z</time>
      </trkpt>
      <trkpt lat="40.4484330" lon="-3.5060000">
        <ele>581.0</ele>
        <time>2020-09-29T06:59:01Z</time>
      </trkpt>
      <trkpt lat="40.4484330" lon="-3.5060000">
        <ele>581.0</ele>
        <time>2020-09-29T06:59:02Z</time>
      </trkpt>
      <trkpt lat="40.4485550" lon="-3.5060530">
        <ele>581.0</ele>
        <time>2020-09-29T06:59:03Z</time>
      </trkpt>
      <trkpt lat="40.4485550" lon="-3.5060530">
        <ele>581.0</ele>
        <time>2020-09-29T06:59:04Z</time>
      </trkpt>
      <trkpt lat="40.4486770" lon="-3.5061070">
        <ele>581.0</ele>
        <time>2020-09-29T06:59:05Z</time>
      </trkpt>
      <trkpt lat="40.4487380" lon="-3.5061300">
        <ele>581.0</ele>
        <time>2020-09-29T06:59:06Z</time>
      </trkpt>
      <trkpt lat="40.4488020" lon="-3.5061530">
        <ele>581.0</ele>
        <time>2020-09-29T06:59:07Z</time>
      </trkpt>
      <trkpt lat="40.4488020" lon="-3.5061530">
        <ele>581.0</ele>
        <time>2020-09-29T06:59:08Z</time>
      </trkpt>
      <trkpt lat="40.4489280" lon="-3.5062070">
        <ele>582.0</ele>
        <time>2020-09-29T06:59:09Z</time>
      </trkpt>
      <trkpt lat="40.4489280" lon="-3.5062070">
        <ele>582.0</ele>
        <time>2020-09-29T06:59:10Z</time>
      </trkpt>
      <trkpt lat="40.4490600" lon="-3.5062570">
        <ele>582.0</ele>
        <time>2020-09-29T06:59:11Z</time>
      </trkpt>
      <trkpt lat="40.4490600" lon="-3.5062570">
        <ele>582.0</ele>
        <time>2020-09-29T06:59:12Z</time>
      </trkpt>
      <trkpt lat="40.4491880" lon="-3.5063050">
        <ele>582.0</ele>
        <time>2020-09-29T06:59:13Z</time>
      </trkpt>
      <trkpt lat="40.4491880" lon="-3.5063050">
        <ele>582.0</ele>
        <time>2020-09-29T06:59:14Z</time>
      </trkpt>
      <trkpt lat="40.4493170" lon="-3.5063520">
        <ele>582.0</ele>
        <time>2020-09-29T06:59:15Z</time>
      </trkpt>
      <trkpt lat="40.4493170" lon="-3.5063520">
        <ele>582.0</ele>
        <time>2020-09-29T06:59:16Z</time>
      </trkpt>
      <trkpt lat="40.4494470" lon="-3.5063930">
        <ele>582.0</ele>
        <time>2020-09-29T06:59:17Z</time>
      </trkpt>
      <trkpt lat="40.4494470" lon="-3.5063930">
        <ele>582.0</ele>
        <time>2020-09-29T06:59:18Z</time>
      </trkpt>
      <trkpt lat="40.4495800" lon="-3.5064030">
        <ele>582.0</ele>
        <time>2020-09-29T06:59:19Z</time>
      </trkpt>
      <trkpt lat="40.4495800" lon="-3.5064030">
        <ele>582.0</ele>
        <time>2020-09-29T06:59:20Z</time>
      </trkpt>
      <trkpt lat="40.4497100" lon="-3.5063670">
        <ele>582.0</ele>
        <time>2020-09-29T06:59:21Z</time>
      </trkpt>
      <trkpt lat="40.4497100" lon="-3.5063670">
        <ele>582.0</ele>
        <time>2020-09-29T06:59:22Z</time>
      </trkpt>
      <trkpt lat="40.4498350" lon="-3.5063380">
        <ele>582.0</ele>
        <time>2020-09-29T06:59:23Z</time>
      </trkpt>
      <trkpt lat="40.4498350" lon="-3.5063380">
        <ele>582.0</ele>
        <time>2020-09-29T06:59:24Z</time>
      </trkpt>
      <trkpt lat="40.4499350" lon="-3.5064080">
        <ele>582.0</ele>
        <time>2020-09-29T06:59:25Z</time>
      </trkpt>
      <trkpt lat="40.4499350" lon="-3.5064080">
        <ele>582.0</ele>
        <time>2020-09-29T06:59:26Z</time>
      </trkpt>
      <trkpt lat="40.4499550" lon="-3.5065670">
        <ele>582.0</ele>
        <time>2020-09-29T06:59:27Z</time>
      </trkpt>
      <trkpt lat="40.4499550" lon="-3.5065670">
        <ele>582.0</ele>
        <time>2020-09-29T06:59:28Z</time>
      </trkpt>
      <trkpt lat="40.4498800" lon="-3.5066930">
        <ele>582.0</ele>
        <time>2020-09-29T06:59:29Z</time>
      </trkpt>
      <trkpt lat="40.4498800" lon="-3.5066930">
        <ele>582.0</ele>
        <time>2020-09-29T06:59:30Z</time>
      </trkpt>
      <trkpt lat="40.4497900" lon="-3.5068080">
        <ele>582.0</ele>
        <time>2020-09-29T06:59:31Z</time>
      </trkpt>
      <trkpt lat="40.4497900" lon="-3.5068080">
        <ele>582.0</ele>
        <time>2020-09-29T06:59:32Z</time>
      </trkpt>
      <trkpt lat="40.4497350" lon="-3.5069550">
        <ele>582.0</ele>
        <time>2020-09-29T06:59:33Z</time>
      </trkpt>
      <trkpt lat="40.4497350" lon="-3.5069550">
        <ele>582.0</ele>
        <time>2020-09-29T06:59:34Z</time>
      </trkpt>
      <trkpt lat="40.4496970" lon="-3.5071150">
        <ele>582.0</ele>
        <time>2020-09-29T06:59:35Z</time>
      </trkpt>
      <trkpt lat="40.4496780" lon="-3.5071930">
        <ele>582.0</ele>
        <time>2020-09-29T06:59:36Z</time>
      </trkpt>
      <trkpt lat="40.4496570" lon="-3.5072700">
        <ele>582.0</ele>
        <time>2020-09-29T06:59:37Z</time>
      </trkpt>
      <trkpt lat="40.4496570" lon="-3.5072700">
        <ele>582.0</ele>
        <time>2020-09-29T06:59:38Z</time>
      </trkpt>
      <trkpt lat="40.4496180" lon="-3.5074330">
        <ele>582.0</ele>
        <time>2020-09-29T06:59:39Z</time>
      </trkpt>
      <trkpt lat="40.4496180" lon="-3.5074330">
        <ele>582.0</ele>
        <time>2020-09-29T06:59:40Z</time>
      </trkpt>
      <trkpt lat="40.4495830" lon="-3.5076000">
        <ele>582.0</ele>
        <time>2020-09-29T06:59:41Z</time>
      </trkpt>
      <trkpt lat="40.4495630" lon="-3.5076800">
        <ele>582.0</ele>
        <time>2020-09-29T06:59:42Z</time>
      </trkpt>
      <trkpt lat="40.4495630" lon="-3.5076800">
        <ele>582.0</ele>
        <time>2020-09-29T06:59:43Z</time>
      </trkpt>
      <trkpt lat="40.4495250" lon="-3.5078430">
        <ele>582.0</ele>
        <time>2020-09-29T06:59:44Z</time>
      </trkpt>
      <trkpt lat="40.4495070" lon="-3.5079250">
        <ele>582.0</ele>
        <time>2020-09-29T06:59:45Z</time>
      </trkpt>
      <trkpt lat="40.4495070" lon="-3.5079250">
        <ele>582.0</ele>
        <time>2020-09-29T06:59:46Z</time>
      </trkpt>
      <trkpt lat="40.4494730" lon="-3.5080900">
        <ele>582.0</ele>
        <time>2020-09-29T06:59:47Z</time>
      </trkpt>
      <trkpt lat="40.4494730" lon="-3.5080900">
        <ele>582.0</ele>
        <time>2020-09-29T06:59:48Z</time>
      </trkpt>
      <trkpt lat="40.4494380" lon="-3.5082520">
        <ele>582.0</ele>
        <time>2020-09-29T06:59:49Z</time>
      </trkpt>
      <trkpt lat="40.4494380" lon="-3.5082520">
        <ele>582.0</ele>
        <time>2020-09-29T06:59:50Z</time>
      </trkpt>
      <trkpt lat="40.4494080" lon="-3.5084180">
        <ele>582.0</ele>
        <time>2020-09-29T06:59:51Z</time>
      </trkpt>
      <trkpt lat="40.4494080" lon="-3.5084180">
        <ele>582.0</ele>
        <time>2020-09-29T06:59:52Z</time>
      </trkpt>
      <trkpt lat="40.4493770" lon="-3.5085830">
        <ele>582.0</ele>
        <time>2020-09-29T06:59:53Z</time>
      </trkpt>
      <trkpt lat="40.4493770" lon="-3.5085830">
        <ele>582.0</ele>
        <time>2020-09-29T06:59:54Z</time>
      </trkpt>
      <trkpt lat="40.4493400" lon="-3.5087450">
        <ele>582.0</ele>
        <time>2020-09-29T06:59:55Z</time>
      </trkpt>
      <trkpt lat="40.4493400" lon="-3.5087450">
        <ele>582.0</ele>
        <time>2020-09-29T06:59:56Z</time>
      </trkpt>
      <trkpt lat="40.4493020" lon="-3.5089100">
        <ele>582.0</ele>
        <time>2020-09-29T06:59:57Z</time>
      </trkpt>
      <trkpt lat="40.4492770" lon="-3.5089900">
        <ele>582.0</ele>
        <time>2020-09-29T06:59:58Z</time>
      </trkpt>
      <trkpt lat="40.4492770" lon="-3.5089900">
        <ele>582.0</ele>
        <time>2020-09-29T06:59:59Z</time>
      </trkpt>
      <trkpt lat="40.4492330" lon="-3.5091550">
        <ele>582.0</ele>
        <time>2020-09-29T07:00:00Z</time>
      </trkpt>
      <trkpt lat="40.4492150" lon="-3.5092380">
        <ele>582.0</ele>
        <time>2020-09-29T07:00:01Z</time>
      </trkpt>
      <trkpt lat="40.4492150" lon="-3.5092380">
        <ele>582.0</ele>
        <time>2020-09-29T07:00:02Z</time>
      </trkpt>
      <trkpt lat="40.4491780" lon="-3.5094050">
        <ele>582.0</ele>
        <time>2020-09-29T07:00:03Z</time>
      </trkpt>
      <trkpt lat="40.4491780" lon="-3.5094050">
        <ele>582.0</ele>
        <time>2020-09-29T07:00:04Z</time>
      </trkpt>
      <trkpt lat="40.4491550" lon="-3.5095820">
        <ele>582.0</ele>
        <time>2020-09-29T07:00:05Z</time>
      </trkpt>
      <trkpt lat="40.4491550" lon="-3.5095820">
        <ele>582.0</ele>
        <time>2020-09-29T07:00:06Z</time>
      </trkpt>
      <trkpt lat="40.4491270" lon="-3.5097580">
        <ele>582.0</ele>
        <time>2020-09-29T07:00:07Z</time>
      </trkpt>
      <trkpt lat="40.4491070" lon="-3.5098450">
        <ele>582.0</ele>
        <time>2020-09-29T07:00:08Z</time>
      </trkpt>
      <trkpt lat="40.4490830" lon="-3.5099300">
        <ele>582.0</ele>
        <time>2020-09-29T07:00:09Z</time>
      </trkpt>
      <trkpt lat="40.4490830" lon="-3.5099300">
        <ele>582.0</ele>
        <time>2020-09-29T07:00:10Z</time>
      </trkpt>
      <trkpt lat="40.4490420" lon="-3.5101000">
        <ele>582.0</ele>
        <time>2020-09-29T07:00:11Z</time>
      </trkpt>
      <trkpt lat="40.4490420" lon="-3.5101000">
        <ele>582.0</ele>
        <time>2020-09-29T07:00:12Z</time>
      </trkpt>
      <trkpt lat="40.4490150" lon="-3.5102920">
        <ele>582.0</ele>
        <time>2020-09-29T07:00:13Z</time>
      </trkpt>
      <trkpt lat="40.4490150" lon="-3.5102920">
        <ele>582.0</ele>
        <time>2020-09-29T07:00:14Z</time>
      </trkpt>
      <trkpt lat="40.4489780" lon="-3.5104780">
        <ele>581.0</ele>
        <time>2020-09-29T07:00:15Z</time>
      </trkpt>
      <trkpt lat="40.4489520" lon="-3.5105680">
        <ele>581.0</ele>
        <time>2020-09-29T07:00:16Z</time>
      </trkpt>
      <trkpt lat="40.4489520" lon="-3.5105680">
        <ele>581.0</ele>
        <time>2020-09-29T07:00:17Z</time>
      </trkpt>
      <trkpt lat="40.4489050" lon="-3.5107480">
        <ele>581.0</ele>
        <time>2020-09-29T07:00:18Z</time>
      </trkpt>
      <trkpt lat="40.4489050" lon="-3.5107480">
        <ele>581.0</ele>
        <time>2020-09-29T07:00:19Z</time>
      </trkpt>
      <trkpt lat="40.4488580" lon="-3.5109280">
        <ele>581.0</ele>
        <time>2020-09-29T07:00:20Z</time>
      </trkpt>
      <trkpt lat="40.4488580" lon="-3.5109280">
        <ele>581.0</ele>
        <time>2020-09-29T07:00:21Z</time>
      </trkpt>
      <trkpt lat="40.4488150" lon="-3.5111070">
        <ele>581.0</ele>
        <time>2020-09-29T07:00:22Z</time>
      </trkpt>
      <trkpt lat="40.4488130" lon="-3.5112020">
        <ele>581.0</ele>
        <time>2020-09-29T07:00:23Z</time>
      </trkpt>
      <trkpt lat="40.4488130" lon="-3.5112020">
        <ele>581.0</ele>
        <time>2020-09-29T07:00:24Z</time>
      </trkpt>
      <trkpt lat="40.4488670" lon="-3.5113670">
        <ele>581.0</ele>
        <time>2020-09-29T07:00:25Z</time>
      </trkpt>
      <trkpt lat="40.4488670" lon="-3.5113670">
        <ele>581.0</ele>
        <time>2020-09-29T07:00:26Z</time>
      </trkpt>
      <trkpt lat="40.4489850" lon="-3.5114700">
        <ele>581.0</ele>
        <time>2020-09-29T07:00:27Z</time>
      </trkpt>
      <trkpt lat="40.4489850" lon="-3.5114700">
        <ele>581.0</ele>
        <time>2020-09-29T07:00:28Z</time>
      </trkpt>
      <trkpt lat="40.4491170" lon="-3.5115320">
        <ele>581.0</ele>
        <time>2020-09-29T07:00:29Z</time>
      </trkpt>
      <trkpt lat="40.4491900" lon="-3.5115650">
        <ele>581.0</ele>
        <time>2020-09-29T07:00:30Z</time>
      </trkpt>
      <trkpt lat="40.4491900" lon="-3.5115650">
        <ele>581.0</ele>
        <time>2020-09-29T07:00:31Z</time>
      </trkpt>
      <trkpt lat="40.4493330" lon="-3.5116030">
        <ele>580.0</ele>
        <time>2020-09-29T07:00:32Z</time>
      </trkpt>
      <trkpt lat="40.4494030" lon="-3.5116270">
        <ele>580.0</ele>
        <time>2020-09-29T07:00:33Z</time>
      </trkpt>
      <trkpt lat="40.4494030" lon="-3.5116270">
        <ele>580.0</ele>
        <time>2020-09-29T07:00:34Z</time>
      </trkpt>
      <trkpt lat="40.4495480" lon="-3.5116700">
        <ele>580.0</ele>
        <time>2020-09-29T07:00:35Z</time>
      </trkpt>
      <trkpt lat="40.4496230" lon="-3.5116920">
        <ele>580.0</ele>
        <time>2020-09-29T07:00:36Z</time>
      </trkpt>
      <trkpt lat="40.4496230" lon="-3.5116920">
        <ele>580.0</ele>
        <time>2020-09-29T07:00:37Z</time>
      </trkpt>
      <trkpt lat="40.4497750" lon="-3.5117270">
        <ele>580.0</ele>
        <time>2020-09-29T07:00:38Z</time>
      </trkpt>
      <trkpt lat="40.4498480" lon="-3.5117500">
        <ele>580.0</ele>
        <time>2020-09-29T07:00:39Z</time>
      </trkpt>
      <trkpt lat="40.4498480" lon="-3.5117500">
        <ele>580.0</ele>
        <time>2020-09-29T07:00:40Z</time>
      </trkpt>
      <trkpt lat="40.4499950" lon="-3.5118000">
        <ele>580.0</ele>
        <time>2020-09-29T07:00:41Z</time>
      </trkpt>
      <trkpt lat="40.4499950" lon="-3.5118000">
        <ele>580.0</ele>
        <time>2020-09-29T07:00:42Z</time>
      </trkpt>
      <trkpt lat="40.4501350" lon="-3.5118630">
        <ele>580.0</ele>
        <time>2020-09-29T07:00:43Z</time>
      </trkpt>
      <trkpt lat="40.4501350" lon="-3.5118630">
        <ele>579.0</ele>
        <time>2020-09-29T07:00:44Z</time>
      </trkpt>
      <trkpt lat="40.4502470" lon="-3.5119970">
        <ele>579.0</ele>
        <time>2020-09-29T07:00:45Z</time>
      </trkpt>
      <trkpt lat="40.4502470" lon="-3.5119970">
        <ele>579.0</ele>
        <time>2020-09-29T07:00:46Z</time>
      </trkpt>
      <trkpt lat="40.4503180" lon="-3.5121750">
        <ele>579.0</ele>
        <time>2020-09-29T07:00:47Z</time>
      </trkpt>
      <trkpt lat="40.4503370" lon="-3.5122720">
        <ele>579.0</ele>
        <time>2020-09-29T07:00:48Z</time>
      </trkpt>
      <trkpt lat="40.4503470" lon="-3.5123700">
        <ele>579.0</ele>
        <time>2020-09-29T07:00:49Z</time>
      </trkpt>
      <trkpt lat="40.4503470" lon="-3.5123700">
        <ele>579.0</ele>
        <time>2020-09-29T07:00:50Z</time>
      </trkpt>
      <trkpt lat="40.4503650" lon="-3.5125670">
        <ele>579.0</ele>
        <time>2020-09-29T07:00:51Z</time>
      </trkpt>
      <trkpt lat="40.4503650" lon="-3.5125670">
        <ele>579.0</ele>
        <time>2020-09-29T07:00:52Z</time>
      </trkpt>
      <trkpt lat="40.4504130" lon="-3.5127650">
        <ele>579.0</ele>
        <time>2020-09-29T07:00:53Z</time>
      </trkpt>
      <trkpt lat="40.4504130" lon="-3.5127650">
        <ele>578.0</ele>
        <time>2020-09-29T07:00:54Z</time>
      </trkpt>
      <trkpt lat="40.4504850" lon="-3.5129600">
        <ele>578.0</ele>
        <time>2020-09-29T07:00:55Z</time>
      </trkpt>
      <trkpt lat="40.4504850" lon="-3.5129600">
        <ele>578.0</ele>
        <time>2020-09-29T07:00:56Z</time>
      </trkpt>
      <trkpt lat="40.4505850" lon="-3.5131480">
        <ele>578.0</ele>
        <time>2020-09-29T07:00:57Z</time>
      </trkpt>
      <trkpt lat="40.4505850" lon="-3.5131480">
        <ele>577.0</ele>
        <time>2020-09-29T07:00:58Z</time>
      </trkpt>
      <trkpt lat="40.4507230" lon="-3.5133150">
        <ele>577.0</ele>
        <time>2020-09-29T07:00:59Z</time>
      </trkpt>
      <trkpt lat="40.4507230" lon="-3.5133150">
        <ele>576.0</ele>
        <time>2020-09-29T07:01:00Z</time>
      </trkpt>
      <trkpt lat="40.4508920" lon="-3.5134470">
        <ele>576.0</ele>
        <time>2020-09-29T07:01:01Z</time>
      </trkpt>
      <trkpt lat="40.4508920" lon="-3.5134470">
        <ele>575.0</ele>
        <time>2020-09-29T07:01:02Z</time>
      </trkpt>
      <trkpt lat="40.4510870" lon="-3.5135270">
        <ele>575.0</ele>
        <time>2020-09-29T07:01:03Z</time>
      </trkpt>
      <trkpt lat="40.4510870" lon="-3.5135270">
        <ele>574.0</ele>
        <time>2020-09-29T07:01:04Z</time>
      </trkpt>
      <trkpt lat="40.4512920" lon="-3.5135470">
        <ele>574.0</ele>
        <time>2020-09-29T07:01:05Z</time>
      </trkpt>
      <trkpt lat="40.4512920" lon="-3.5135470">
        <ele>573.0</ele>
        <time>2020-09-29T07:01:06Z</time>
      </trkpt>
      <trkpt lat="40.4514950" lon="-3.5134920">
        <ele>573.0</ele>
        <time>2020-09-29T07:01:07Z</time>
      </trkpt>
      <trkpt lat="40.4514950" lon="-3.5134920">
        <ele>572.0</ele>
        <time>2020-09-29T07:01:08Z</time>
      </trkpt>
      <trkpt lat="40.4516770" lon="-3.5133920">
        <ele>572.0</ele>
        <time>2020-09-29T07:01:09Z</time>
      </trkpt>
      <trkpt lat="40.4516770" lon="-3.5133920">
        <ele>572.0</ele>
        <time>2020-09-29T07:01:10Z</time>
      </trkpt>
      <trkpt lat="40.4518470" lon="-3.5132820">
        <ele>572.0</ele>
        <time>2020-09-29T07:01:11Z</time>
      </trkpt>
      <trkpt lat="40.4518470" lon="-3.5132820">
        <ele>572.0</ele>
        <time>2020-09-29T07:01:12Z</time>
      </trkpt>
      <trkpt lat="40.4520100" lon="-3.5131730">
        <ele>572.0</ele>
        <time>2020-09-29T07:01:13Z</time>
      </trkpt>
      <trkpt lat="40.4520100" lon="-3.5131730">
        <ele>572.0</ele>
        <time>2020-09-29T07:01:14Z</time>
      </trkpt>
      <trkpt lat="40.4521630" lon="-3.5130680">
        <ele>572.0</ele>
        <time>2020-09-29T07:01:15Z</time>
      </trkpt>
      <trkpt lat="40.4521630" lon="-3.5130680">
        <ele>572.0</ele>
        <time>2020-09-29T07:01:16Z</time>
      </trkpt>
      <trkpt lat="40.4523080" lon="-3.5129650">
        <ele>572.0</ele>
        <time>2020-09-29T07:01:17Z</time>
      </trkpt>
      <trkpt lat="40.4523830" lon="-3.5129100">
        <ele>572.0</ele>
        <time>2020-09-29T07:01:18Z</time>
      </trkpt>
      <trkpt lat="40.4523830" lon="-3.5129100">
        <ele>572.0</ele>
        <time>2020-09-29T07:01:19Z</time>
      </trkpt>
      <trkpt lat="40.4525370" lon="-3.5128130">
        <ele>572.0</ele>
        <time>2020-09-29T07:01:20Z</time>
      </trkpt>
      <trkpt lat="40.4525370" lon="-3.5128130">
        <ele>572.0</ele>
        <time>2020-09-29T07:01:21Z</time>
      </trkpt>
      <trkpt lat="40.4526850" lon="-3.5127180">
        <ele>572.0</ele>
        <time>2020-09-29T07:01:22Z</time>
      </trkpt>
      <trkpt lat="40.4526850" lon="-3.5127180">
        <ele>572.0</ele>
        <time>2020-09-29T07:01:23Z</time>
      </trkpt>
      <trkpt lat="40.4528330" lon="-3.5126120">
        <ele>572.0</ele>
        <time>2020-09-29T07:01:24Z</time>
      </trkpt>
      <trkpt lat="40.4529080" lon="-3.5125730">
        <ele>572.0</ele>
        <time>2020-09-29T07:01:25Z</time>
      </trkpt>
      <trkpt lat="40.4529080" lon="-3.5125730">
        <ele>572.0</ele>
        <time>2020-09-29T07:01:26Z</time>
      </trkpt>
      <trkpt lat="40.4530520" lon="-3.5124530">
        <ele>572.0</ele>
        <time>2020-09-29T07:01:27Z</time>
      </trkpt>
      <trkpt lat="40.4530520" lon="-3.5124530">
        <ele>572.0</ele>
        <time>2020-09-29T07:01:28Z</time>
      </trkpt>
      <trkpt lat="40.4531830" lon="-3.5123630">
        <ele>572.0</ele>
        <time>2020-09-29T07:01:29Z</time>
      </trkpt>
      <trkpt lat="40.4531830" lon="-3.5123630">
        <ele>573.0</ele>
        <time>2020-09-29T07:01:30Z</time>
      </trkpt>
      <trkpt lat="40.4533150" lon="-3.5122750">
        <ele>573.0</ele>
        <time>2020-09-29T07:01:31Z</time>
      </trkpt>
      <trkpt lat="40.4533720" lon="-3.5122270">
        <ele>573.0</ele>
        <time>2020-09-29T07:01:32Z</time>
      </trkpt>
      <trkpt lat="40.4534320" lon="-3.5121800">
        <ele>573.0</ele>
        <time>2020-09-29T07:01:33Z</time>
      </trkpt>
      <trkpt lat="40.4534320" lon="-3.5121800">
        <ele>574.0</ele>
        <time>2020-09-29T07:01:34Z</time>
      </trkpt>
      <trkpt lat="40.4535520" lon="-3.5121100">
        <ele>574.0</ele>
        <time>2020-09-29T07:01:35Z</time>
      </trkpt>
      <trkpt lat="40.4536120" lon="-3.5120720">
        <ele>574.0</ele>
        <time>2020-09-29T07:01:36Z</time>
      </trkpt>
      <trkpt lat="40.4536120" lon="-3.5120720">
        <ele>574.0</ele>
        <time>2020-09-29T07:01:37Z</time>
      </trkpt>
      <trkpt lat="40.4537230" lon="-3.5119980">
        <ele>575.0</ele>
        <time>2020-09-29T07:01:38Z</time>
      </trkpt>
      <trkpt lat="40.4537800" lon="-3.5119620">
        <ele>575.0</ele>
        <time>2020-09-29T07:01:39Z</time>
      </trkpt>
      <trkpt lat="40.4537800" lon="-3.5119620">
        <ele>575.0</ele>
        <time>2020-09-29T07:01:40Z</time>
      </trkpt>
      <trkpt lat="40.4538880" lon="-3.5118850">
        <ele>575.0</ele>
        <time>2020-09-29T07:01:41Z</time>
      </trkpt>
      <trkpt lat="40.4538880" lon="-3.5118850">
        <ele>577.0</ele>
        <time>2020-09-29T07:01:42Z</time>
      </trkpt>
      <trkpt lat="40.4539920" lon="-3.5118130">
        <ele>577.0</ele>
        <time>2020-09-29T07:01:43Z</time>
      </trkpt>
      <trkpt lat="40.4539920" lon="-3.5118130">
        <ele>577.0</ele>
        <time>2020-09-29T07:01:44Z</time>
      </trkpt>
      <trkpt lat="40.4541000" lon="-3.5117330">
        <ele>577.0</ele>
        <time>2020-09-29T07:01:45Z</time>
      </trkpt>
      <trkpt lat="40.4541000" lon="-3.5117330">
        <ele>578.0</ele>
        <time>2020-09-29T07:01:46Z</time>
      </trkpt>
      <trkpt lat="40.4542030" lon="-3.5116600">
        <ele>578.0</ele>
        <time>2020-09-29T07:01:47Z</time>
      </trkpt>
      <trkpt lat="40.4542030" lon="-3.5116600">
        <ele>578.0</ele>
        <time>2020-09-29T07:01:48Z</time>
      </trkpt>
      <trkpt lat="40.4543030" lon="-3.5115850">
        <ele>578.0</ele>
        <time>2020-09-29T07:01:49Z</time>
      </trkpt>
      <trkpt lat="40.4543030" lon="-3.5115850">
        <ele>578.0</ele>
        <time>2020-09-29T07:01:50Z</time>
      </trkpt>
      <trkpt lat="40.4544030" lon="-3.5115170">
        <ele>579.0</ele>
        <time>2020-09-29T07:01:51Z</time>
      </trkpt>
      <trkpt lat="40.4544030" lon="-3.5115170">
        <ele>579.0</ele>
        <time>2020-09-29T07:01:52Z</time>
      </trkpt>
      <trkpt lat="40.4545100" lon="-3.5114500">
        <ele>579.0</ele>
        <time>2020-09-29T07:01:53Z</time>
      </trkpt>
      <trkpt lat="40.4545100" lon="-3.5114500">
        <ele>579.0</ele>
        <time>2020-09-29T07:01:54Z</time>
      </trkpt>
      <trkpt lat="40.4546180" lon="-3.5113830">
        <ele>580.0</ele>
        <time>2020-09-29T07:01:55Z</time>
      </trkpt>
      <trkpt lat="40.4546180" lon="-3.5113830">
        <ele>580.0</ele>
        <time>2020-09-29T07:01:56Z</time>
      </trkpt>
      <trkpt lat="40.4547270" lon="-3.5113170">
        <ele>580.0</ele>
        <time>2020-09-29T07:01:57Z</time>
      </trkpt>
      <trkpt lat="40.4547800" lon="-3.5112850">
        <ele>580.0</ele>
        <time>2020-09-29T07:01:58Z</time>
      </trkpt>
      <trkpt lat="40.4547800" lon="-3.5112850">
        <ele>581.0</ele>
        <time>2020-09-29T07:01:59Z</time>
      </trkpt>
      <trkpt lat="40.4548850" lon="-3.5112220">
        <ele>581.0</ele>
        <time>2020-09-29T07:02:00Z</time>
      </trkpt>
      <trkpt lat="40.4549370" lon="-3.5111830">
        <ele>581.0</ele>
        <time>2020-09-29T07:02:01Z</time>
      </trkpt>
      <trkpt lat="40.4549370" lon="-3.5111830">
        <ele>581.0</ele>
        <time>2020-09-29T07:02:02Z</time>
      </trkpt>
      <trkpt lat="40.4550500" lon="-3.5111050">
        <ele>582.0</ele>
        <time>2020-09-29T07:02:03Z</time>
      </trkpt>
      <trkpt lat="40.4551030" lon="-3.5110670">
        <ele>582.0</ele>
        <time>2020-09-29T07:02:04Z</time>
      </trkpt>
      <trkpt lat="40.4551580" lon="-3.5110300">
        <ele>582.0</ele>
        <time>2020-09-29T07:02:05Z</time>
      </trkpt>
      <trkpt lat="40.4551580" lon="-3.5110300">
        <ele>582.0</ele>
        <time>2020-09-29T07:02:06Z</time>
      </trkpt>
      <trkpt lat="40.4552670" lon="-3.5109430">
        <ele>582.0</ele>
        <time>2020-09-29T07:02:07Z</time>
      </trkpt>
      <trkpt lat="40.4552670" lon="-3.5109430">
        <ele>582.0</ele>
        <time>2020-09-29T07:02:08Z</time>
      </trkpt>
      <trkpt lat="40.4553420" lon="-3.5108100">
        <ele>582.0</ele>
        <time>2020-09-29T07:02:09Z</time>
      </trkpt>
      <trkpt lat="40.4553420" lon="-3.5108100">
        <ele>582.0</ele>
        <time>2020-09-29T07:02:10Z</time>
      </trkpt>
      <trkpt lat="40.4554020" lon="-3.5106680">
        <ele>582.0</ele>
        <time>2020-09-29T07:02:11Z</time>
      </trkpt>
      <trkpt lat="40.4554020" lon="-3.5106680">
        <ele>582.0</ele>
        <time>2020-09-29T07:02:12Z</time>
      </trkpt>
      <trkpt lat="40.4554870" lon="-3.5105570">
        <ele>582.0</ele>
        <time>2020-09-29T07:02:13Z</time>
      </trkpt>
      <trkpt lat="40.4554870" lon="-3.5105570">
        <ele>582.0</ele>
        <time>2020-09-29T07:02:14Z</time>
      </trkpt>
      <trkpt lat="40.4556050" lon="-3.5105150">
        <ele>582.0</ele>
        <time>2020-09-29T07:02:15Z</time>
      </trkpt>
      <trkpt lat="40.4556050" lon="-3.5105150">
        <ele>582.0</ele>
        <time>2020-09-29T07:02:16Z</time>
      </trkpt>
      <trkpt lat="40.4557280" lon="-3.5105480">
        <ele>582.0</ele>
        <time>2020-09-29T07:02:17Z</time>
      </trkpt>
      <trkpt lat="40.4557280" lon="-3.5105480">
        <ele>582.0</ele>
        <time>2020-09-29T07:02:18Z</time>
      </trkpt>
      <trkpt lat="40.4558580" lon="-3.5105730">
        <ele>582.0</ele>
        <time>2020-09-29T07:02:19Z</time>
      </trkpt>
      <trkpt lat="40.4558580" lon="-3.5105730">
        <ele>582.0</ele>
        <time>2020-09-29T07:02:20Z</time>
      </trkpt>
      <trkpt lat="40.4559950" lon="-3.5105300">
        <ele>582.0</ele>
        <time>2020-09-29T07:02:21Z</time>
      </trkpt>
      <trkpt lat="40.4559950" lon="-3.5105300">
        <ele>582.0</ele>
        <time>2020-09-29T07:02:22Z</time>
      </trkpt>
      <trkpt lat="40.4561220" lon="-3.5104620">
        <ele>582.0</ele>
        <time>2020-09-29T07:02:23Z</time>
      </trkpt>
      <trkpt lat="40.4561820" lon="-3.5104230">
        <ele>582.0</ele>
        <time>2020-09-29T07:02:24Z</time>
      </trkpt>
      <trkpt lat="40.4561820" lon="-3.5104230">
        <ele>582.0</ele>
        <time>2020-09-29T07:02:25Z</time>
      </trkpt>
      <trkpt lat="40.4562970" lon="-3.5103480">
        <ele>582.0</ele>
        <time>2020-09-29T07:02:26Z</time>
      </trkpt>
      <trkpt lat="40.4563520" lon="-3.5103100">
        <ele>583.0</ele>
        <time>2020-09-29T07:02:27Z</time>
      </trkpt>
      <trkpt lat="40.4563520" lon="-3.5103100">
        <ele>583.0</ele>
        <time>2020-09-29T07:02:28Z</time>
      </trkpt>
      <trkpt lat="40.4564580" lon="-3.5102370">
        <ele>583.0</ele>
        <time>2020-09-29T07:02:29Z</time>
      </trkpt>
      <trkpt lat="40.4564580" lon="-3.5102370">
        <ele>583.0</ele>
        <time>2020-09-29T07:02:30Z</time>
      </trkpt>
      <trkpt lat="40.4565650" lon="-3.5101680">
        <ele>584.0</ele>
        <time>2020-09-29T07:02:31Z</time>
      </trkpt>
      <trkpt lat="40.4565650" lon="-3.5101680">
        <ele>584.0</ele>
        <time>2020-09-29T07:02:32Z</time>
      </trkpt>
      <trkpt lat="40.4566700" lon="-3.5101030">
        <ele>584.0</ele>
        <time>2020-09-29T07:02:33Z</time>
      </trkpt>
      <trkpt lat="40.4566700" lon="-3.5101030">
        <ele>585.0</ele>
        <time>2020-09-29T07:02:34Z</time>
      </trkpt>
      <trkpt lat="40.4567750" lon="-3.5100420">
        <ele>585.0</ele>
        <time>2020-09-29T07:02:35Z</time>
      </trkpt>
      <trkpt lat="40.4567750" lon="-3.5100420">
        <ele>585.0</ele>
        <time>2020-09-29T07:02:36Z</time>
      </trkpt>
      <trkpt lat="40.4568770" lon="-3.5099820">
        <ele>585.0</ele>
        <time>2020-09-29T07:02:37Z</time>
      </trkpt>
      <trkpt lat="40.4568770" lon="-3.5099820">
        <ele>586.0</ele>
        <time>2020-09-29T07:02:38Z</time>
      </trkpt>
      <trkpt lat="40.4569770" lon="-3.5099270">
        <ele>586.0</ele>
        <time>2020-09-29T07:02:39Z</time>
      </trkpt>
      <trkpt lat="40.4569770" lon="-3.5099270">
        <ele>586.0</ele>
        <time>2020-09-29T07:02:40Z</time>
      </trkpt>
      <trkpt lat="40.4570700" lon="-3.5098750">
        <ele>586.0</ele>
        <time>2020-09-29T07:02:41Z</time>
      </trkpt>
      <trkpt lat="40.4570700" lon="-3.5098750">
        <ele>587.0</ele>
        <time>2020-09-29T07:02:42Z</time>
      </trkpt>
      <trkpt lat="40.4571580" lon="-3.5098300">
        <ele>587.0</ele>
        <time>2020-09-29T07:02:43Z</time>
      </trkpt>
      <trkpt lat="40.4571580" lon="-3.5098300">
        <ele>588.0</ele>
        <time>2020-09-29T07:02:44Z</time>
      </trkpt>
      <trkpt lat="40.4572400" lon="-3.5097920">
        <ele>588.0</ele>
        <time>2020-09-29T07:02:45Z</time>
      </trkpt>
      <trkpt lat="40.4572400" lon="-3.5097920">
        <ele>589.0</ele>
        <time>2020-09-29T07:02:46Z</time>
      </trkpt>
      <trkpt lat="40.4573180" lon="-3.5097520">
        <ele>589.0</ele>
        <time>2020-09-29T07:02:47Z</time>
      </trkpt>
      <trkpt lat="40.4573180" lon="-3.5097520">
        <ele>589.0</ele>
        <time>2020-09-29T07:02:48Z</time>
      </trkpt>
      <trkpt lat="40.4573920" lon="-3.5097120">
        <ele>589.0</ele>
        <time>2020-09-29T07:02:49Z</time>
      </trkpt>
      <trkpt lat="40.4573920" lon="-3.5097120">
        <ele>590.0</ele>
        <time>2020-09-29T07:02:50Z</time>
      </trkpt>
      <trkpt lat="40.4574650" lon="-3.5096770">
        <ele>590.0</ele>
        <time>2020-09-29T07:02:51Z</time>
      </trkpt>
      <trkpt lat="40.4574650" lon="-3.5096770">
        <ele>591.0</ele>
        <time>2020-09-29T07:02:52Z</time>
      </trkpt>
      <trkpt lat="40.4575400" lon="-3.5096420">
        <ele>591.0</ele>
        <time>2020-09-29T07:02:53Z</time>
      </trkpt>
      <trkpt lat="40.4575400" lon="-3.5096420">
        <ele>591.0</ele>
        <time>2020-09-29T07:02:54Z</time>
      </trkpt>
      <trkpt lat="40.4576150" lon="-3.5096020">
        <ele>591.0</ele>
        <time>2020-09-29T07:02:55Z</time>
      </trkpt>
      <trkpt lat="40.4576150" lon="-3.5096020">
        <ele>592.0</ele>
        <time>2020-09-29T07:02:56Z</time>
      </trkpt>
      <trkpt lat="40.4576920" lon="-3.5095630">
        <ele>592.0</ele>
        <time>2020-09-29T07:02:57Z</time>
      </trkpt>
      <trkpt lat="40.4576920" lon="-3.5095630">
        <ele>592.0</ele>
        <time>2020-09-29T07:02:58Z</time>
      </trkpt>
      <trkpt lat="40.4577700" lon="-3.5095250">
        <ele>592.0</ele>
        <time>2020-09-29T07:02:59Z</time>
      </trkpt>
      <trkpt lat="40.4577700" lon="-3.5095250">
        <ele>593.0</ele>
        <time>2020-09-29T07:03:00Z</time>
      </trkpt>
      <trkpt lat="40.4578500" lon="-3.5094850">
        <ele>593.0</ele>
        <time>2020-09-29T07:03:01Z</time>
      </trkpt>
      <trkpt lat="40.4578500" lon="-3.5094850">
        <ele>593.0</ele>
        <time>2020-09-29T07:03:02Z</time>
      </trkpt>
      <trkpt lat="40.4579280" lon="-3.5094450">
        <ele>593.0</ele>
        <time>2020-09-29T07:03:03Z</time>
      </trkpt>
      <trkpt lat="40.4579280" lon="-3.5094450">
        <ele>593.0</ele>
        <time>2020-09-29T07:03:04Z</time>
      </trkpt>
      <trkpt lat="40.4580080" lon="-3.5094000">
        <ele>593.0</ele>
        <time>2020-09-29T07:03:05Z</time>
      </trkpt>
      <trkpt lat="40.4580080" lon="-3.5094000">
        <ele>593.0</ele>
        <time>2020-09-29T07:03:06Z</time>
      </trkpt>
      <trkpt lat="40.4580880" lon="-3.5093570">
        <ele>593.0</ele>
        <time>2020-09-29T07:03:07Z</time>
      </trkpt>
      <trkpt lat="40.4580880" lon="-3.5093570">
        <ele>593.0</ele>
        <time>2020-09-29T07:03:08Z</time>
      </trkpt>
      <trkpt lat="40.4581720" lon="-3.5093120">
        <ele>593.0</ele>
        <time>2020-09-29T07:03:09Z</time>
      </trkpt>
      <trkpt lat="40.4581720" lon="-3.5093120">
        <ele>593.0</ele>
        <time>2020-09-29T07:03:10Z</time>
      </trkpt>
      <trkpt lat="40.4582530" lon="-3.5092650">
        <ele>593.0</ele>
        <time>2020-09-29T07:03:11Z</time>
      </trkpt>
      <trkpt lat="40.4582950" lon="-3.5092380">
        <ele>593.0</ele>
        <time>2020-09-29T07:03:12Z</time>
      </trkpt>
      <trkpt lat="40.4582950" lon="-3.5092380">
        <ele>593.0</ele>
        <time>2020-09-29T07:03:13Z</time>
      </trkpt>
      <trkpt lat="40.4583820" lon="-3.5091870">
        <ele>593.0</ele>
        <time>2020-09-29T07:03:14Z</time>
      </trkpt>
      <trkpt lat="40.4583820" lon="-3.5091870">
        <ele>594.0</ele>
        <time>2020-09-29T07:03:15Z</time>
      </trkpt>
      <trkpt lat="40.4584720" lon="-3.5091320">
        <ele>594.0</ele>
        <time>2020-09-29T07:03:16Z</time>
      </trkpt>
      <trkpt lat="40.4584720" lon="-3.5091320">
        <ele>594.0</ele>
        <time>2020-09-29T07:03:17Z</time>
      </trkpt>
      <trkpt lat="40.4585620" lon="-3.5090720">
        <ele>594.0</ele>
        <time>2020-09-29T07:03:18Z</time>
      </trkpt>
      <trkpt lat="40.4586070" lon="-3.5090420">
        <ele>594.0</ele>
        <time>2020-09-29T07:03:19Z</time>
      </trkpt>
      <trkpt lat="40.4586070" lon="-3.5090420">
        <ele>594.0</ele>
        <time>2020-09-29T07:03:20Z</time>
      </trkpt>
      <trkpt lat="40.4586970" lon="-3.5089750">
        <ele>594.0</ele>
        <time>2020-09-29T07:03:21Z</time>
      </trkpt>
      <trkpt lat="40.4586970" lon="-3.5089750">
        <ele>594.0</ele>
        <time>2020-09-29T07:03:22Z</time>
      </trkpt>
      <trkpt lat="40.4587900" lon="-3.5089070">
        <ele>594.0</ele>
        <time>2020-09-29T07:03:23Z</time>
      </trkpt>
      <trkpt lat="40.4588350" lon="-3.5088720">
        <ele>594.0</ele>
        <time>2020-09-29T07:03:24Z</time>
      </trkpt>
      <trkpt lat="40.4588820" lon="-3.5088320">
        <ele>594.0</ele>
        <time>2020-09-29T07:03:25Z</time>
      </trkpt>
      <trkpt lat="40.4588820" lon="-3.5088320">
        <ele>594.0</ele>
        <time>2020-09-29T07:03:26Z</time>
      </trkpt>
      <trkpt lat="40.4589770" lon="-3.5087550">
        <ele>594.0</ele>
        <time>2020-09-29T07:03:27Z</time>
      </trkpt>
      <trkpt lat="40.4590250" lon="-3.5087150">
        <ele>594.0</ele>
        <time>2020-09-29T07:03:28Z</time>
      </trkpt>
      <trkpt lat="40.4590250" lon="-3.5087150">
        <ele>594.0</ele>
        <time>2020-09-29T07:03:29Z</time>
      </trkpt>
      <trkpt lat="40.4591230" lon="-3.5086300">
        <ele>594.0</ele>
        <time>2020-09-29T07:03:30Z</time>
      </trkpt>
      <trkpt lat="40.4591720" lon="-3.5085870">
        <ele>594.0</ele>
        <time>2020-09-29T07:03:31Z</time>
      </trkpt>
      <trkpt lat="40.4591720" lon="-3.5085870">
        <ele>594.0</ele>
        <time>2020-09-29T07:03:32Z</time>
      </trkpt>
      <trkpt lat="40.4592700" lon="-3.5084970">
        <ele>594.0</ele>
        <time>2020-09-29T07:03:33Z</time>
      </trkpt>
      <trkpt lat="40.4593200" lon="-3.5084500">
        <ele>594.0</ele>
        <time>2020-09-29T07:03:34Z</time>
      </trkpt>
      <trkpt lat="40.4593720" lon="-3.5084030">
        <ele>594.0</ele>
        <time>2020-09-29T07:03:35Z</time>
      </trkpt>
      <trkpt lat="40.4593720" lon="-3.5084030">
        <ele>594.0</ele>
        <time>2020-09-29T07:03:36Z</time>
      </trkpt>
      <trkpt lat="40.4594750" lon="-3.5083030">
        <ele>594.0</ele>
        <time>2020-09-29T07:03:37Z</time>
      </trkpt>
      <trkpt lat="40.4594750" lon="-3.5083030">
        <ele>594.0</ele>
        <time>2020-09-29T07:03:38Z</time>
      </trkpt>
      <trkpt lat="40.4595800" lon="-3.5081980">
        <ele>594.0</ele>
        <time>2020-09-29T07:03:39Z</time>
      </trkpt>
      <trkpt lat="40.4595800" lon="-3.5081980">
        <ele>594.0</ele>
        <time>2020-09-29T07:03:40Z</time>
      </trkpt>
      <trkpt lat="40.4596920" lon="-3.5080920">
        <ele>594.0</ele>
        <time>2020-09-29T07:03:41Z</time>
      </trkpt>
      <trkpt lat="40.4596920" lon="-3.5080920">
        <ele>594.0</ele>
        <time>2020-09-29T07:03:42Z</time>
      </trkpt>
      <trkpt lat="40.4598030" lon="-3.5079830">
        <ele>594.0</ele>
        <time>2020-09-29T07:03:43Z</time>
      </trkpt>
      <trkpt lat="40.4598030" lon="-3.5079830">
        <ele>594.0</ele>
        <time>2020-09-29T07:03:44Z</time>
      </trkpt>
      <trkpt lat="40.4599170" lon="-3.5078720">
        <ele>594.0</ele>
        <time>2020-09-29T07:03:45Z</time>
      </trkpt>
      <trkpt lat="40.4599170" lon="-3.5078720">
        <ele>594.0</ele>
        <time>2020-09-29T07:03:46Z</time>
      </trkpt>
      <trkpt lat="40.4600330" lon="-3.5077600">
        <ele>594.0</ele>
        <time>2020-09-29T07:03:47Z</time>
      </trkpt>
      <trkpt lat="40.4600330" lon="-3.5077600">
        <ele>594.0</ele>
        <time>2020-09-29T07:03:48Z</time>
      </trkpt>
      <trkpt lat="40.4601550" lon="-3.5076500">
        <ele>594.0</ele>
        <time>2020-09-29T07:03:49Z</time>
      </trkpt>
      <trkpt lat="40.4601550" lon="-3.5076500">
        <ele>592.0</ele>
        <time>2020-09-29T07:03:50Z</time>
      </trkpt>
      <trkpt lat="40.4602800" lon="-3.5075400">
        <ele>592.0</ele>
        <time>2020-09-29T07:03:51Z</time>
      </trkpt>
      <trkpt lat="40.4602800" lon="-3.5075400">
        <ele>592.0</ele>
        <time>2020-09-29T07:03:52Z</time>
      </trkpt>
      <trkpt lat="40.4604070" lon="-3.5074330">
        <ele>592.0</ele>
        <time>2020-09-29T07:03:53Z</time>
      </trkpt>
      <trkpt lat="40.4604720" lon="-3.5073820">
        <ele>592.0</ele>
        <time>2020-09-29T07:03:54Z</time>
      </trkpt>
      <trkpt lat="40.4605350" lon="-3.5073300">
        <ele>592.0</ele>
        <time>2020-09-29T07:03:55Z</time>
      </trkpt>
      <trkpt lat="40.4605350" lon="-3.5073300">
        <ele>592.0</ele>
        <time>2020-09-29T07:03:56Z</time>
      </trkpt>
      <trkpt lat="40.4606650" lon="-3.5072280">
        <ele>592.0</ele>
        <time>2020-09-29T07:03:57Z</time>
      </trkpt>
      <trkpt lat="40.4607300" lon="-3.5071800">
        <ele>592.0</ele>
        <time>2020-09-29T07:03:58Z</time>
      </trkpt>
      <trkpt lat="40.4607300" lon="-3.5071800">
        <ele>592.0</ele>
        <time>2020-09-29T07:03:59Z</time>
      </trkpt>
      <trkpt lat="40.4608600" lon="-3.5070880">
        <ele>592.0</ele>
        <time>2020-09-29T07:04:00Z</time>
      </trkpt>
      <trkpt lat="40.4609250" lon="-3.5070420">
        <ele>591.0</ele>
        <time>2020-09-29T07:04:01Z</time>
      </trkpt>
      <trkpt lat="40.4609250" lon="-3.5070420">
        <ele>591.0</ele>
        <time>2020-09-29T07:04:02Z</time>
      </trkpt>
      <trkpt lat="40.4610520" lon="-3.5069530">
        <ele>591.0</ele>
        <time>2020-09-29T07:04:03Z</time>
      </trkpt>
      <trkpt lat="40.4611150" lon="-3.5069100">
        <ele>591.0</ele>
        <time>2020-09-29T07:04:04Z</time>
      </trkpt>
      <trkpt lat="40.4611770" lon="-3.5068650">
        <ele>591.0</ele>
        <time>2020-09-29T07:04:05Z</time>
      </trkpt>
      <trkpt lat="40.4611770" lon="-3.5068650">
        <ele>591.0</ele>
        <time>2020-09-29T07:04:06Z</time>
      </trkpt>
      <trkpt lat="40.4612980" lon="-3.5067770">
        <ele>591.0</ele>
        <time>2020-09-29T07:04:07Z</time>
      </trkpt>
      <trkpt lat="40.4612980" lon="-3.5067770">
        <ele>591.0</ele>
        <time>2020-09-29T07:04:08Z</time>
      </trkpt>
      <trkpt lat="40.4614180" lon="-3.5066930">
        <ele>591.0</ele>
        <time>2020-09-29T07:04:09Z</time>
      </trkpt>
      <trkpt lat="40.4614180" lon="-3.5066930">
        <ele>591.0</ele>
        <time>2020-09-29T07:04:10Z</time>
      </trkpt>
      <trkpt lat="40.4615350" lon="-3.5066120">
        <ele>591.0</ele>
        <time>2020-09-29T07:04:11Z</time>
      </trkpt>
      <trkpt lat="40.4615350" lon="-3.5066120">
        <ele>591.0</ele>
        <time>2020-09-29T07:04:12Z</time>
      </trkpt>
      <trkpt lat="40.4616500" lon="-3.5065300">
        <ele>591.0</ele>
        <time>2020-09-29T07:04:13Z</time>
      </trkpt>
      <trkpt lat="40.4617070" lon="-3.5064880">
        <ele>591.0</ele>
        <time>2020-09-29T07:04:14Z</time>
      </trkpt>
      <trkpt lat="40.4617070" lon="-3.5064880">
        <ele>592.0</ele>
        <time>2020-09-29T07:04:15Z</time>
      </trkpt>
      <trkpt lat="40.4618200" lon="-3.5064080">
        <ele>592.0</ele>
        <time>2020-09-29T07:04:16Z</time>
      </trkpt>
      <trkpt lat="40.4618200" lon="-3.5064080">
        <ele>592.0</ele>
        <time>2020-09-29T07:04:17Z</time>
      </trkpt>
      <trkpt lat="40.4619330" lon="-3.5063300">
        <ele>592.0</ele>
        <time>2020-09-29T07:04:18Z</time>
      </trkpt>
      <trkpt lat="40.4619900" lon="-3.5062880">
        <ele>592.0</ele>
        <time>2020-09-29T07:04:19Z</time>
      </trkpt>
      <trkpt lat="40.4619900" lon="-3.5062880">
        <ele>592.0</ele>
        <time>2020-09-29T07:04:20Z</time>
      </trkpt>
      <trkpt lat="40.4621020" lon="-3.5062020">
        <ele>592.0</ele>
        <time>2020-09-29T07:04:21Z</time>
      </trkpt>
      <trkpt lat="40.4621020" lon="-3.5062020">
        <ele>592.0</ele>
        <time>2020-09-29T07:04:22Z</time>
      </trkpt>
      <trkpt lat="40.4622150" lon="-3.5061150">
        <ele>592.0</ele>
        <time>2020-09-29T07:04:23Z</time>
      </trkpt>
      <trkpt lat="40.4622150" lon="-3.5061150">
        <ele>592.0</ele>
        <time>2020-09-29T07:04:24Z</time>
      </trkpt>
      <trkpt lat="40.4623270" lon="-3.5060270">
        <ele>593.0</ele>
        <time>2020-09-29T07:04:25Z</time>
      </trkpt>
      <trkpt lat="40.4623270" lon="-3.5060270">
        <ele>593.0</ele>
        <time>2020-09-29T07:04:26Z</time>
      </trkpt>
      <trkpt lat="40.4624350" lon="-3.5059350">
        <ele>593.0</ele>
        <time>2020-09-29T07:04:27Z</time>
      </trkpt>
      <trkpt lat="40.4624350" lon="-3.5059350">
        <ele>593.0</ele>
        <time>2020-09-29T07:04:28Z</time>
      </trkpt>
      <trkpt lat="40.4625420" lon="-3.5058450">
        <ele>593.0</ele>
        <time>2020-09-29T07:04:29Z</time>
      </trkpt>
      <trkpt lat="40.4625930" lon="-3.5057980">
        <ele>593.0</ele>
        <time>2020-09-29T07:04:30Z</time>
      </trkpt>
      <trkpt lat="40.4626450" lon="-3.5057530">
        <ele>593.0</ele>
        <time>2020-09-29T07:04:31Z</time>
      </trkpt>
      <trkpt lat="40.4626450" lon="-3.5057530">
        <ele>593.0</ele>
        <time>2020-09-29T07:04:32Z</time>
      </trkpt>
      <trkpt lat="40.4627500" lon="-3.5056620">
        <ele>593.0</ele>
        <time>2020-09-29T07:04:33Z</time>
      </trkpt>
      <trkpt lat="40.4627500" lon="-3.5056620">
        <ele>593.0</ele>
        <time>2020-09-29T07:04:34Z</time>
      </trkpt>
      <trkpt lat="40.4628500" lon="-3.5055700">
        <ele>593.0</ele>
        <time>2020-09-29T07:04:35Z</time>
      </trkpt>
      <trkpt lat="40.4628500" lon="-3.5055700">
        <ele>593.0</ele>
        <time>2020-09-29T07:04:36Z</time>
      </trkpt>
      <trkpt lat="40.4629520" lon="-3.5054780">
        <ele>593.0</ele>
        <time>2020-09-29T07:04:37Z</time>
      </trkpt>
      <trkpt lat="40.4629520" lon="-3.5054780">
        <ele>593.0</ele>
        <time>2020-09-29T07:04:38Z</time>
      </trkpt>
      <trkpt lat="40.4630530" lon="-3.5053920">
        <ele>594.0</ele>
        <time>2020-09-29T07:04:39Z</time>
      </trkpt>
      <trkpt lat="40.4630530" lon="-3.5053920">
        <ele>594.0</ele>
        <time>2020-09-29T07:04:40Z</time>
      </trkpt>
      <trkpt lat="40.4631570" lon="-3.5053070">
        <ele>594.0</ele>
        <time>2020-09-29T07:04:41Z</time>
      </trkpt>
      <trkpt lat="40.4632080" lon="-3.5052670">
        <ele>594.0</ele>
        <time>2020-09-29T07:04:42Z</time>
      </trkpt>
      <trkpt lat="40.4632080" lon="-3.5052670">
        <ele>594.0</ele>
        <time>2020-09-29T07:04:43Z</time>
      </trkpt>
      <trkpt lat="40.4633170" lon="-3.5051830">
        <ele>594.0</ele>
        <time>2020-09-29T07:04:44Z</time>
      </trkpt>
      <trkpt lat="40.4633700" lon="-3.5051400">
        <ele>594.0</ele>
        <time>2020-09-29T07:04:45Z</time>
      </trkpt>
      <trkpt lat="40.4633700" lon="-3.5051400">
        <ele>594.0</ele>
        <time>2020-09-29T07:04:46Z</time>
      </trkpt>
      <trkpt lat="40.4634750" lon="-3.5050520">
        <ele>594.0</ele>
        <time>2020-09-29T07:04:47Z</time>
      </trkpt>
      <trkpt lat="40.4634750" lon="-3.5050520">
        <ele>595.0</ele>
        <time>2020-09-29T07:04:48Z</time>
      </trkpt>
      <trkpt lat="40.4635850" lon="-3.5049730">
        <ele>595.0</ele>
        <time>2020-09-29T07:04:49Z</time>
      </trkpt>
      <trkpt lat="40.4636420" lon="-3.5049370">
        <ele>595.0</ele>
        <time>2020-09-29T07:04:50Z</time>
      </trkpt>
      <trkpt lat="40.4636420" lon="-3.5049370">
        <ele>595.0</ele>
        <time>2020-09-29T07:04:51Z</time>
      </trkpt>
      <trkpt lat="40.4637520" lon="-3.5048530">
        <ele>595.0</ele>
        <time>2020-09-29T07:04:52Z</time>
      </trkpt>
      <trkpt lat="40.4637520" lon="-3.5048530">
        <ele>595.0</ele>
        <time>2020-09-29T07:04:53Z</time>
      </trkpt>
      <trkpt lat="40.4638620" lon="-3.5047720">
        <ele>595.0</ele>
        <time>2020-09-29T07:04:54Z</time>
      </trkpt>
      <trkpt lat="40.4639200" lon="-3.5047330">
        <ele>595.0</ele>
        <time>2020-09-29T07:04:55Z</time>
      </trkpt>
      <trkpt lat="40.4639200" lon="-3.5047330">
        <ele>595.0</ele>
        <time>2020-09-29T07:04:56Z</time>
      </trkpt>
      <trkpt lat="40.4640330" lon="-3.5046570">
        <ele>595.0</ele>
        <time>2020-09-29T07:04:57Z</time>
      </trkpt>
      <trkpt lat="40.4640330" lon="-3.5046570">
        <ele>595.0</ele>
        <time>2020-09-29T07:04:58Z</time>
      </trkpt>
      <trkpt lat="40.4641470" lon="-3.5045800">
        <ele>595.0</ele>
        <time>2020-09-29T07:04:59Z</time>
      </trkpt>
      <trkpt lat="40.4641470" lon="-3.5045800">
        <ele>595.0</ele>
        <time>2020-09-29T07:05:00Z</time>
      </trkpt>
      <trkpt lat="40.4642570" lon="-3.5045020">
        <ele>595.0</ele>
        <time>2020-09-29T07:05:01Z</time>
      </trkpt>
      <trkpt lat="40.4642570" lon="-3.5045020">
        <ele>595.0</ele>
        <time>2020-09-29T07:05:02Z</time>
      </trkpt>
      <trkpt lat="40.4643700" lon="-3.5044270">
        <ele>595.0</ele>
        <time>2020-09-29T07:05:03Z</time>
      </trkpt>
      <trkpt lat="40.4643700" lon="-3.5044270">
        <ele>595.0</ele>
        <time>2020-09-29T07:05:04Z</time>
      </trkpt>
      <trkpt lat="40.4644820" lon="-3.5043480">
        <ele>595.0</ele>
        <time>2020-09-29T07:05:05Z</time>
      </trkpt>
      <trkpt lat="40.4644820" lon="-3.5043480">
        <ele>595.0</ele>
        <time>2020-09-29T07:05:06Z</time>
      </trkpt>
      <trkpt lat="40.4645930" lon="-3.5042620">
        <ele>595.0</ele>
        <time>2020-09-29T07:05:07Z</time>
      </trkpt>
      <trkpt lat="40.4645930" lon="-3.5042620">
        <ele>595.0</ele>
        <time>2020-09-29T07:05:08Z</time>
      </trkpt>
      <trkpt lat="40.4646730" lon="-3.5041450">
        <ele>595.0</ele>
        <time>2020-09-29T07:05:09Z</time>
      </trkpt>
      <trkpt lat="40.4646730" lon="-3.5041450">
        <ele>596.0</ele>
        <time>2020-09-29T07:05:10Z</time>
      </trkpt>
      <trkpt lat="40.4647150" lon="-3.5039950">
        <ele>596.0</ele>
        <time>2020-09-29T07:05:11Z</time>
      </trkpt>
      <trkpt lat="40.4647150" lon="-3.5039950">
        <ele>596.0</ele>
        <time>2020-09-29T07:05:12Z</time>
      </trkpt>
      <trkpt lat="40.4647730" lon="-3.5038500">
        <ele>596.0</ele>
        <time>2020-09-29T07:05:13Z</time>
      </trkpt>
      <trkpt lat="40.4647730" lon="-3.5038500">
        <ele>596.0</ele>
        <time>2020-09-29T07:05:14Z</time>
      </trkpt>
      <trkpt lat="40.4648630" lon="-3.5037380">
        <ele>596.0</ele>
        <time>2020-09-29T07:05:15Z</time>
      </trkpt>
      <trkpt lat="40.4648630" lon="-3.5037380">
        <ele>596.0</ele>
        <time>2020-09-29T07:05:16Z</time>
      </trkpt>
      <trkpt lat="40.4649800" lon="-3.5036720">
        <ele>597.0</ele>
        <time>2020-09-29T07:05:17Z</time>
      </trkpt>
      <trkpt lat="40.4649800" lon="-3.5036720">
        <ele>597.0</ele>
        <time>2020-09-29T07:05:18Z</time>
      </trkpt>
      <trkpt lat="40.4651080" lon="-3.5036630">
        <ele>597.0</ele>
        <time>2020-09-29T07:05:19Z</time>
      </trkpt>
      <trkpt lat="40.4651080" lon="-3.5036630">
        <ele>597.0</ele>
        <time>2020-09-29T07:05:20Z</time>
      </trkpt>
      <trkpt lat="40.4652400" lon="-3.5036620">
        <ele>597.0</ele>
        <time>2020-09-29T07:05:21Z</time>
      </trkpt>
      <trkpt lat="40.4652400" lon="-3.5036620">
        <ele>597.0</ele>
        <time>2020-09-29T07:05:22Z</time>
      </trkpt>
      <trkpt lat="40.4653650" lon="-3.5036120">
        <ele>597.0</ele>
        <time>2020-09-29T07:05:23Z</time>
      </trkpt>
      <trkpt lat="40.4654250" lon="-3.5035750">
        <ele>597.0</ele>
        <time>2020-09-29T07:05:24Z</time>
      </trkpt>
      <trkpt lat="40.4654850" lon="-3.5035400">
        <ele>597.0</ele>
        <time>2020-09-29T07:05:25Z</time>
      </trkpt>
      <trkpt lat="40.4654850" lon="-3.5035400">
        <ele>597.0</ele>
        <time>2020-09-29T07:05:26Z</time>
      </trkpt>
      <trkpt lat="40.4656070" lon="-3.5034700">
        <ele>597.0</ele>
        <time>2020-09-29T07:05:27Z</time>
      </trkpt>
      <trkpt lat="40.4656070" lon="-3.5034700">
        <ele>597.0</ele>
        <time>2020-09-29T07:05:28Z</time>
      </trkpt>
      <trkpt lat="40.4657270" lon="-3.5033980">
        <ele>597.0</ele>
        <time>2020-09-29T07:05:29Z</time>
      </trkpt>
      <trkpt lat="40.4657270" lon="-3.5033980">
        <ele>597.0</ele>
        <time>2020-09-29T07:05:30Z</time>
      </trkpt>
      <trkpt lat="40.4658480" lon="-3.5033250">
        <ele>597.0</ele>
        <time>2020-09-29T07:05:31Z</time>
      </trkpt>
      <trkpt lat="40.4658480" lon="-3.5033250">
        <ele>597.0</ele>
        <time>2020-09-29T07:05:32Z</time>
      </trkpt>
      <trkpt lat="40.4659670" lon="-3.5032500">
        <ele>597.0</ele>
        <time>2020-09-29T07:05:33Z</time>
      </trkpt>
      <trkpt lat="40.4659670" lon="-3.5032500">
        <ele>597.0</ele>
        <time>2020-09-29T07:05:34Z</time>
      </trkpt>
      <trkpt lat="40.4660820" lon="-3.5031720">
        <ele>597.0</ele>
        <time>2020-09-29T07:05:35Z</time>
      </trkpt>
      <trkpt lat="40.4661400" lon="-3.5031330">
        <ele>597.0</ele>
        <time>2020-09-29T07:05:36Z</time>
      </trkpt>
      <trkpt lat="40.4661970" lon="-3.5030950">
        <ele>597.0</ele>
        <time>2020-09-29T07:05:37Z</time>
      </trkpt>
      <trkpt lat="40.4661970" lon="-3.5030950">
        <ele>597.0</ele>
        <time>2020-09-29T07:05:38Z</time>
      </trkpt>
      <trkpt lat="40.4663120" lon="-3.5030170">
        <ele>597.0</ele>
        <time>2020-09-29T07:05:39Z</time>
      </trkpt>
      <trkpt lat="40.4663120" lon="-3.5030170">
        <ele>597.0</ele>
        <time>2020-09-29T07:05:40Z</time>
      </trkpt>
      <trkpt lat="40.4664230" lon="-3.5029330">
        <ele>597.0</ele>
        <time>2020-09-29T07:05:41Z</time>
      </trkpt>
      <trkpt lat="40.4664230" lon="-3.5029330">
        <ele>597.0</ele>
        <time>2020-09-29T07:05:42Z</time>
      </trkpt>
      <trkpt lat="40.4665370" lon="-3.5028520">
        <ele>597.0</ele>
        <time>2020-09-29T07:05:43Z</time>
      </trkpt>
      <trkpt lat="40.4665370" lon="-3.5028520">
        <ele>597.0</ele>
        <time>2020-09-29T07:05:44Z</time>
      </trkpt>
      <trkpt lat="40.4666530" lon="-3.5027720">
        <ele>597.0</ele>
        <time>2020-09-29T07:05:45Z</time>
      </trkpt>
      <trkpt lat="40.4667100" lon="-3.5027300">
        <ele>597.0</ele>
        <time>2020-09-29T07:05:46Z</time>
      </trkpt>
      <trkpt lat="40.4667100" lon="-3.5027300">
        <ele>597.0</ele>
        <time>2020-09-29T07:05:47Z</time>
      </trkpt>
      <trkpt lat="40.4668270" lon="-3.5026480">
        <ele>597.0</ele>
        <time>2020-09-29T07:05:48Z</time>
      </trkpt>
      <trkpt lat="40.4668850" lon="-3.5026050">
        <ele>597.0</ele>
        <time>2020-09-29T07:05:49Z</time>
      </trkpt>
      <trkpt lat="40.4669430" lon="-3.5025620">
        <ele>597.0</ele>
        <time>2020-09-29T07:05:50Z</time>
      </trkpt>
      <trkpt lat="40.4669430" lon="-3.5025620">
        <ele>597.0</ele>
        <time>2020-09-29T07:05:51Z</time>
      </trkpt>
      <trkpt lat="40.4670600" lon="-3.5024770">
        <ele>597.0</ele>
        <time>2020-09-29T07:05:52Z</time>
      </trkpt>
      <trkpt lat="40.4670600" lon="-3.5024770">
        <ele>597.0</ele>
        <time>2020-09-29T07:05:53Z</time>
      </trkpt>
      <trkpt lat="40.4671770" lon="-3.5023950">
        <ele>597.0</ele>
        <time>2020-09-29T07:05:54Z</time>
      </trkpt>
      <trkpt lat="40.4672350" lon="-3.5023530">
        <ele>598.0</ele>
        <time>2020-09-29T07:05:55Z</time>
      </trkpt>
      <trkpt lat="40.4672350" lon="-3.5023530">
        <ele>598.0</ele>
        <time>2020-09-29T07:05:56Z</time>
      </trkpt>
      <trkpt lat="40.4673530" lon="-3.5022730">
        <ele>598.0</ele>
        <time>2020-09-29T07:05:57Z</time>
      </trkpt>
      <trkpt lat="40.4673530" lon="-3.5022730">
        <ele>598.0</ele>
        <time>2020-09-29T07:05:58Z</time>
      </trkpt>
      <trkpt lat="40.4674700" lon="-3.5021900">
        <ele>598.0</ele>
        <time>2020-09-29T07:05:59Z</time>
      </trkpt>
      <trkpt lat="40.4674700" lon="-3.5021900">
        <ele>598.0</ele>
        <time>2020-09-29T07:06:00Z</time>
      </trkpt>
      <trkpt lat="40.4675850" lon="-3.5021080">
        <ele>598.0</ele>
        <time>2020-09-29T07:06:01Z</time>
      </trkpt>
      <trkpt lat="40.4675850" lon="-3.5021080">
        <ele>598.0</ele>
        <time>2020-09-29T07:06:02Z</time>
      </trkpt>
      <trkpt lat="40.4676980" lon="-3.5020280">
        <ele>598.0</ele>
        <time>2020-09-29T07:06:03Z</time>
      </trkpt>
      <trkpt lat="40.4676980" lon="-3.5020280">
        <ele>598.0</ele>
        <time>2020-09-29T07:06:04Z</time>
      </trkpt>
      <trkpt lat="40.4678130" lon="-3.5019450">
        <ele>598.0</ele>
        <time>2020-09-29T07:06:05Z</time>
      </trkpt>
      <trkpt lat="40.4678680" lon="-3.5019030">
        <ele>599.0</ele>
        <time>2020-09-29T07:06:06Z</time>
      </trkpt>
      <trkpt lat="40.4679250" lon="-3.5018630">
        <ele>599.0</ele>
        <time>2020-09-29T07:06:07Z</time>
      </trkpt>
      <trkpt lat="40.4679830" lon="-3.5018230">
        <ele>599.0</ele>
        <time>2020-09-29T07:06:08Z</time>
      </trkpt>
      <trkpt lat="40.4679830" lon="-3.5018230">
        <ele>599.0</ele>
        <time>2020-09-29T07:06:09Z</time>
      </trkpt>
      <trkpt lat="40.4680970" lon="-3.5017420">
        <ele>599.0</ele>
        <time>2020-09-29T07:06:10Z</time>
      </trkpt>
      <trkpt lat="40.4680970" lon="-3.5017420">
        <ele>599.0</ele>
        <time>2020-09-29T07:06:11Z</time>
      </trkpt>
      <trkpt lat="40.4682130" lon="-3.5016600">
        <ele>599.0</ele>
        <time>2020-09-29T07:06:12Z</time>
      </trkpt>
      <trkpt lat="40.4682700" lon="-3.5016170">
        <ele>599.0</ele>
        <time>2020-09-29T07:06:13Z</time>
      </trkpt>
      <trkpt lat="40.4682700" lon="-3.5016170">
        <ele>599.0</ele>
        <time>2020-09-29T07:06:14Z</time>
      </trkpt>
      <trkpt lat="40.4683820" lon="-3.5015330">
        <ele>599.0</ele>
        <time>2020-09-29T07:06:15Z</time>
      </trkpt>
      <trkpt lat="40.4683820" lon="-3.5015330">
        <ele>599.0</ele>
        <time>2020-09-29T07:06:16Z</time>
      </trkpt>
      <trkpt lat="40.4684950" lon="-3.5014530">
        <ele>599.0</ele>
        <time>2020-09-29T07:06:17Z</time>
      </trkpt>
      <trkpt lat="40.4684950" lon="-3.5014530">
        <ele>599.0</ele>
        <time>2020-09-29T07:06:18Z</time>
      </trkpt>
      <trkpt lat="40.4686080" lon="-3.5013730">
        <ele>599.0</ele>
        <time>2020-09-29T07:06:19Z</time>
      </trkpt>
      <trkpt lat="40.4686080" lon="-3.5013730">
        <ele>599.0</ele>
        <time>2020-09-29T07:06:20Z</time>
      </trkpt>
      <trkpt lat="40.4687200" lon="-3.5012930">
        <ele>599.0</ele>
        <time>2020-09-29T07:06:21Z</time>
      </trkpt>
      <trkpt lat="40.4687200" lon="-3.5012930">
        <ele>599.0</ele>
        <time>2020-09-29T07:06:22Z</time>
      </trkpt>
      <trkpt lat="40.4688330" lon="-3.5012170">
        <ele>599.0</ele>
        <time>2020-09-29T07:06:23Z</time>
      </trkpt>
      <trkpt lat="40.4688330" lon="-3.5012170">
        <ele>599.0</ele>
        <time>2020-09-29T07:06:24Z</time>
      </trkpt>
      <trkpt lat="40.4689480" lon="-3.5011350">
        <ele>599.0</ele>
        <time>2020-09-29T07:06:25Z</time>
      </trkpt>
      <trkpt lat="40.4689480" lon="-3.5011350">
        <ele>599.0</ele>
        <time>2020-09-29T07:06:26Z</time>
      </trkpt>
      <trkpt lat="40.4690630" lon="-3.5010570">
        <ele>599.0</ele>
        <time>2020-09-29T07:06:27Z</time>
      </trkpt>
      <trkpt lat="40.4691200" lon="-3.5010150">
        <ele>600.0</ele>
        <time>2020-09-29T07:06:28Z</time>
      </trkpt>
      <trkpt lat="40.4691200" lon="-3.5010150">
        <ele>600.0</ele>
        <time>2020-09-29T07:06:29Z</time>
      </trkpt>
      <trkpt lat="40.4692320" lon="-3.5009320">
        <ele>600.0</ele>
        <time>2020-09-29T07:06:30Z</time>
      </trkpt>
      <trkpt lat="40.4692880" lon="-3.5008880">
        <ele>600.0</ele>
        <time>2020-09-29T07:06:31Z</time>
      </trkpt>
      <trkpt lat="40.4692880" lon="-3.5008880">
        <ele>600.0</ele>
        <time>2020-09-29T07:06:32Z</time>
      </trkpt>
      <trkpt lat="40.4693980" lon="-3.5008030">
        <ele>600.0</ele>
        <time>2020-09-29T07:06:33Z</time>
      </trkpt>
      <trkpt lat="40.4693980" lon="-3.5008030">
        <ele>600.0</ele>
        <time>2020-09-29T07:06:34Z</time>
      </trkpt>
      <trkpt lat="40.4695050" lon="-3.5007130">
        <ele>600.0</ele>
        <time>2020-09-29T07:06:35Z</time>
      </trkpt>
      <trkpt lat="40.4695050" lon="-3.5007130">
        <ele>600.0</ele>
        <time>2020-09-29T07:06:36Z</time>
      </trkpt>
      <trkpt lat="40.4696120" lon="-3.5006220">
        <ele>600.0</ele>
        <time>2020-09-29T07:06:37Z</time>
      </trkpt>
      <trkpt lat="40.4696120" lon="-3.5006220">
        <ele>600.0</ele>
        <time>2020-09-29T07:06:38Z</time>
      </trkpt>
      <trkpt lat="40.4697150" lon="-3.5005280">
        <ele>600.0</ele>
        <time>2020-09-29T07:06:39Z</time>
      </trkpt>
      <trkpt lat="40.4697150" lon="-3.5005280">
        <ele>600.0</ele>
        <time>2020-09-29T07:06:40Z</time>
      </trkpt>
      <trkpt lat="40.4698180" lon="-3.5004370">
        <ele>600.0</ele>
        <time>2020-09-29T07:06:41Z</time>
      </trkpt>
      <trkpt lat="40.4698180" lon="-3.5004370">
        <ele>600.0</ele>
        <time>2020-09-29T07:06:42Z</time>
      </trkpt>
      <trkpt lat="40.4699200" lon="-3.5003420">
        <ele>600.0</ele>
        <time>2020-09-29T07:06:43Z</time>
      </trkpt>
      <trkpt lat="40.4699200" lon="-3.5003420">
        <ele>600.0</ele>
        <time>2020-09-29T07:06:44Z</time>
      </trkpt>
      <trkpt lat="40.4700220" lon="-3.5002420">
        <ele>600.0</ele>
        <time>2020-09-29T07:06:45Z</time>
      </trkpt>
      <trkpt lat="40.4700220" lon="-3.5002420">
        <ele>600.0</ele>
        <time>2020-09-29T07:06:46Z</time>
      </trkpt>
      <trkpt lat="40.4701220" lon="-3.5001430">
        <ele>600.0</ele>
        <time>2020-09-29T07:06:47Z</time>
      </trkpt>
      <trkpt lat="40.4701720" lon="-3.5000920">
        <ele>600.0</ele>
        <time>2020-09-29T07:06:48Z</time>
      </trkpt>
      <trkpt lat="40.4701720" lon="-3.5000920">
        <ele>600.0</ele>
        <time>2020-09-29T07:06:49Z</time>
      </trkpt>
      <trkpt lat="40.4702730" lon="-3.4999900">
        <ele>600.0</ele>
        <time>2020-09-29T07:06:50Z</time>
      </trkpt>
      <trkpt lat="40.4702730" lon="-3.4999900">
        <ele>600.0</ele>
        <time>2020-09-29T07:06:51Z</time>
      </trkpt>
      <trkpt lat="40.4703730" lon="-3.4998900">
        <ele>601.0</ele>
        <time>2020-09-29T07:06:52Z</time>
      </trkpt>
      <trkpt lat="40.4704230" lon="-3.4998400">
        <ele>601.0</ele>
        <time>2020-09-29T07:06:53Z</time>
      </trkpt>
      <trkpt lat="40.4704750" lon="-3.4997920">
        <ele>601.0</ele>
        <time>2020-09-29T07:06:54Z</time>
      </trkpt>
      <trkpt lat="40.4704750" lon="-3.4997920">
        <ele>601.0</ele>
        <time>2020-09-29T07:06:55Z</time>
      </trkpt>
      <trkpt lat="40.4705730" lon="-3.4996930">
        <ele>601.0</ele>
        <time>2020-09-29T07:06:56Z</time>
      </trkpt>
      <trkpt lat="40.4705730" lon="-3.4996930">
        <ele>601.0</ele>
        <time>2020-09-29T07:06:57Z</time>
      </trkpt>
      <trkpt lat="40.4706750" lon="-3.4995950">
        <ele>601.0</ele>
        <time>2020-09-29T07:06:58Z</time>
      </trkpt>
      <trkpt lat="40.4707250" lon="-3.4995470">
        <ele>601.0</ele>
        <time>2020-09-29T07:06:59Z</time>
      </trkpt>
      <trkpt lat="40.4707250" lon="-3.4995470">
        <ele>601.0</ele>
        <time>2020-09-29T07:07:00Z</time>
      </trkpt>
      <trkpt lat="40.4708270" lon="-3.4994480">
        <ele>601.0</ele>
        <time>2020-09-29T07:07:01Z</time>
      </trkpt>
      <trkpt lat="40.4708270" lon="-3.4994480">
        <ele>601.0</ele>
        <time>2020-09-29T07:07:02Z</time>
      </trkpt>
      <trkpt lat="40.4709280" lon="-3.4993570">
        <ele>601.0</ele>
        <time>2020-09-29T07:07:03Z</time>
      </trkpt>
      <trkpt lat="40.4709280" lon="-3.4993570">
        <ele>602.0</ele>
        <time>2020-09-29T07:07:04Z</time>
      </trkpt>
      <trkpt lat="40.4710300" lon="-3.4992620">
        <ele>602.0</ele>
        <time>2020-09-29T07:07:05Z</time>
      </trkpt>
      <trkpt lat="40.4710300" lon="-3.4992620">
        <ele>602.0</ele>
        <time>2020-09-29T07:07:06Z</time>
      </trkpt>
      <trkpt lat="40.4711330" lon="-3.4991670">
        <ele>602.0</ele>
        <time>2020-09-29T07:07:07Z</time>
      </trkpt>
      <trkpt lat="40.4711330" lon="-3.4991670">
        <ele>602.0</ele>
        <time>2020-09-29T07:07:08Z</time>
      </trkpt>
      <trkpt lat="40.4712350" lon="-3.4990730">
        <ele>602.0</ele>
        <time>2020-09-29T07:07:09Z</time>
      </trkpt>
      <trkpt lat="40.4712350" lon="-3.4990730">
        <ele>602.0</ele>
        <time>2020-09-29T07:07:10Z</time>
      </trkpt>
      <trkpt lat="40.4713370" lon="-3.4989820">
        <ele>602.0</ele>
        <time>2020-09-29T07:07:11Z</time>
      </trkpt>
      <trkpt lat="40.4713870" lon="-3.4989350">
        <ele>602.0</ele>
        <time>2020-09-29T07:07:12Z</time>
      </trkpt>
      <trkpt lat="40.4713870" lon="-3.4989350">
        <ele>602.0</ele>
        <time>2020-09-29T07:07:13Z</time>
      </trkpt>
      <trkpt lat="40.4714900" lon="-3.4988420">
        <ele>602.0</ele>
        <time>2020-09-29T07:07:14Z</time>
      </trkpt>
      <trkpt lat="40.4715400" lon="-3.4987970">
        <ele>602.0</ele>
        <time>2020-09-29T07:07:15Z</time>
      </trkpt>
      <trkpt lat="40.4715400" lon="-3.4987970">
        <ele>602.0</ele>
        <time>2020-09-29T07:07:16Z</time>
      </trkpt>
      <trkpt lat="40.4716450" lon="-3.4987070">
        <ele>602.0</ele>
        <time>2020-09-29T07:07:17Z</time>
      </trkpt>
      <trkpt lat="40.4716450" lon="-3.4987070">
        <ele>603.0</ele>
        <time>2020-09-29T07:07:18Z</time>
      </trkpt>
      <trkpt lat="40.4717480" lon="-3.4986120">
        <ele>603.0</ele>
        <time>2020-09-29T07:07:19Z</time>
      </trkpt>
      <trkpt lat="40.4718000" lon="-3.4985670">
        <ele>603.0</ele>
        <time>2020-09-29T07:07:20Z</time>
      </trkpt>
      <trkpt lat="40.4718000" lon="-3.4985670">
        <ele>603.0</ele>
        <time>2020-09-29T07:07:21Z</time>
      </trkpt>
      <trkpt lat="40.4719030" lon="-3.4984730">
        <ele>603.0</ele>
        <time>2020-09-29T07:07:22Z</time>
      </trkpt>
      <trkpt lat="40.4719030" lon="-3.4984730">
        <ele>603.0</ele>
        <time>2020-09-29T07:07:23Z</time>
      </trkpt>
      <trkpt lat="40.4720080" lon="-3.4983830">
        <ele>603.0</ele>
        <time>2020-09-29T07:07:24Z</time>
      </trkpt>
      <trkpt lat="40.4720620" lon="-3.4983380">
        <ele>603.0</ele>
        <time>2020-09-29T07:07:25Z</time>
      </trkpt>
      <trkpt lat="40.4721150" lon="-3.4982920">
        <ele>603.0</ele>
        <time>2020-09-29T07:07:26Z</time>
      </trkpt>
      <trkpt lat="40.4721150" lon="-3.4982920">
        <ele>603.0</ele>
        <time>2020-09-29T07:07:27Z</time>
      </trkpt>
      <trkpt lat="40.4722200" lon="-3.4982030">
        <ele>603.0</ele>
        <time>2020-09-29T07:07:28Z</time>
      </trkpt>
      <trkpt lat="40.4722200" lon="-3.4982030">
        <ele>603.0</ele>
        <time>2020-09-29T07:07:29Z</time>
      </trkpt>
      <trkpt lat="40.4723270" lon="-3.4981170">
        <ele>603.0</ele>
        <time>2020-09-29T07:07:30Z</time>
      </trkpt>
      <trkpt lat="40.4723800" lon="-3.4980750">
        <ele>603.0</ele>
        <time>2020-09-29T07:07:31Z</time>
      </trkpt>
      <trkpt lat="40.4723800" lon="-3.4980750">
        <ele>603.0</ele>
        <time>2020-09-29T07:07:32Z</time>
      </trkpt>
      <trkpt lat="40.4724850" lon="-3.4979880">
        <ele>603.0</ele>
        <time>2020-09-29T07:07:33Z</time>
      </trkpt>
      <trkpt lat="40.4724850" lon="-3.4979880">
        <ele>603.0</ele>
        <time>2020-09-29T07:07:34Z</time>
      </trkpt>
      <trkpt lat="40.4725930" lon="-3.4979050">
        <ele>604.0</ele>
        <time>2020-09-29T07:07:35Z</time>
      </trkpt>
      <trkpt lat="40.4726500" lon="-3.4978630">
        <ele>604.0</ele>
        <time>2020-09-29T07:07:36Z</time>
      </trkpt>
      <trkpt lat="40.4727030" lon="-3.4978220">
        <ele>604.0</ele>
        <time>2020-09-29T07:07:37Z</time>
      </trkpt>
      <trkpt lat="40.4727030" lon="-3.4978220">
        <ele>604.0</ele>
        <time>2020-09-29T07:07:38Z</time>
      </trkpt>
      <trkpt lat="40.4728130" lon="-3.4977380">
        <ele>604.0</ele>
        <time>2020-09-29T07:07:39Z</time>
      </trkpt>
      <trkpt lat="40.4728130" lon="-3.4977380">
        <ele>604.0</ele>
        <time>2020-09-29T07:07:40Z</time>
      </trkpt>
      <trkpt lat="40.4729230" lon="-3.4976550">
        <ele>604.0</ele>
        <time>2020-09-29T07:07:41Z</time>
      </trkpt>
      <trkpt lat="40.4729800" lon="-3.4976120">
        <ele>604.0</ele>
        <time>2020-09-29T07:07:42Z</time>
      </trkpt>
      <trkpt lat="40.4729800" lon="-3.4976120">
        <ele>604.0</ele>
        <time>2020-09-29T07:07:43Z</time>
      </trkpt>
      <trkpt lat="40.4730920" lon="-3.4975300">
        <ele>604.0</ele>
        <time>2020-09-29T07:07:44Z</time>
      </trkpt>
      <trkpt lat="40.4730920" lon="-3.4975300">
        <ele>604.0</ele>
        <time>2020-09-29T07:07:45Z</time>
      </trkpt>
      <trkpt lat="40.4732030" lon="-3.4974470">
        <ele>604.0</ele>
        <time>2020-09-29T07:07:46Z</time>
      </trkpt>
      <trkpt lat="40.4732600" lon="-3.4974070">
        <ele>604.0</ele>
        <time>2020-09-29T07:07:47Z</time>
      </trkpt>
      <trkpt lat="40.4732600" lon="-3.4974070">
        <ele>604.0</ele>
        <time>2020-09-29T07:07:48Z</time>
      </trkpt>
      <trkpt lat="40.4733730" lon="-3.4973270">
        <ele>604.0</ele>
        <time>2020-09-29T07:07:49Z</time>
      </trkpt>
      <trkpt lat="40.4733730" lon="-3.4973270">
        <ele>604.0</ele>
        <time>2020-09-29T07:07:50Z</time>
      </trkpt>
      <trkpt lat="40.4734850" lon="-3.4972480">
        <ele>604.0</ele>
        <time>2020-09-29T07:07:51Z</time>
      </trkpt>
      <trkpt lat="40.4734850" lon="-3.4972480">
        <ele>604.0</ele>
        <time>2020-09-29T07:07:52Z</time>
      </trkpt>
      <trkpt lat="40.4735970" lon="-3.4971730">
        <ele>604.0</ele>
        <time>2020-09-29T07:07:53Z</time>
      </trkpt>
      <trkpt lat="40.4735970" lon="-3.4971730">
        <ele>604.0</ele>
        <time>2020-09-29T07:07:54Z</time>
      </trkpt>
      <trkpt lat="40.4737080" lon="-3.4970930">
        <ele>604.0</ele>
        <time>2020-09-29T07:07:55Z</time>
      </trkpt>
      <trkpt lat="40.4737080" lon="-3.4970930">
        <ele>604.0</ele>
        <time>2020-09-29T07:07:56Z</time>
      </trkpt>
      <trkpt lat="40.4738230" lon="-3.4970200">
        <ele>604.0</ele>
        <time>2020-09-29T07:07:57Z</time>
      </trkpt>
      <trkpt lat="40.4738800" lon="-3.4969830">
        <ele>604.0</ele>
        <time>2020-09-29T07:07:58Z</time>
      </trkpt>
      <trkpt lat="40.4739380" lon="-3.4969480">
        <ele>604.0</ele>
        <time>2020-09-29T07:07:59Z</time>
      </trkpt>
      <trkpt lat="40.4739380" lon="-3.4969480">
        <ele>604.0</ele>
        <time>2020-09-29T07:08:00Z</time>
      </trkpt>
      <trkpt lat="40.4740530" lon="-3.4968750">
        <ele>604.0</ele>
        <time>2020-09-29T07:08:01Z</time>
      </trkpt>
      <trkpt lat="40.4740530" lon="-3.4968750">
        <ele>604.0</ele>
        <time>2020-09-29T07:08:02Z</time>
      </trkpt>
      <trkpt lat="40.4741680" lon="-3.4968030">
        <ele>604.0</ele>
        <time>2020-09-29T07:08:03Z</time>
      </trkpt>
      <trkpt lat="40.4741680" lon="-3.4968030">
        <ele>604.0</ele>
        <time>2020-09-29T07:08:04Z</time>
      </trkpt>
      <trkpt lat="40.4742830" lon="-3.4967320">
        <ele>604.0</ele>
        <time>2020-09-29T07:08:05Z</time>
      </trkpt>
      <trkpt lat="40.4742830" lon="-3.4967320">
        <ele>604.0</ele>
        <time>2020-09-29T07:08:06Z</time>
      </trkpt>
      <trkpt lat="40.4744000" lon="-3.4966620">
        <ele>604.0</ele>
        <time>2020-09-29T07:08:07Z</time>
      </trkpt>
      <trkpt lat="40.4744000" lon="-3.4966620">
        <ele>604.0</ele>
        <time>2020-09-29T07:08:08Z</time>
      </trkpt>
      <trkpt lat="40.4745180" lon="-3.4965950">
        <ele>604.0</ele>
        <time>2020-09-29T07:08:09Z</time>
      </trkpt>
      <trkpt lat="40.4745180" lon="-3.4965950">
        <ele>604.0</ele>
        <time>2020-09-29T07:08:10Z</time>
      </trkpt>
      <trkpt lat="40.4746370" lon="-3.4965250">
        <ele>604.0</ele>
        <time>2020-09-29T07:08:11Z</time>
      </trkpt>
      <trkpt lat="40.4746370" lon="-3.4965250">
        <ele>604.0</ele>
        <time>2020-09-29T07:08:12Z</time>
      </trkpt>
      <trkpt lat="40.4747550" lon="-3.4964550">
        <ele>604.0</ele>
        <time>2020-09-29T07:08:13Z</time>
      </trkpt>
      <trkpt lat="40.4747550" lon="-3.4964550">
        <ele>604.0</ele>
        <time>2020-09-29T07:08:14Z</time>
      </trkpt>
      <trkpt lat="40.4748770" lon="-3.4963870">
        <ele>604.0</ele>
        <time>2020-09-29T07:08:15Z</time>
      </trkpt>
      <trkpt lat="40.4748770" lon="-3.4963870">
        <ele>604.0</ele>
        <time>2020-09-29T07:08:16Z</time>
      </trkpt>
      <trkpt lat="40.4749980" lon="-3.4963220">
        <ele>604.0</ele>
        <time>2020-09-29T07:08:17Z</time>
      </trkpt>
      <trkpt lat="40.4750600" lon="-3.4962870">
        <ele>604.0</ele>
        <time>2020-09-29T07:08:18Z</time>
      </trkpt>
      <trkpt lat="40.4750600" lon="-3.4962870">
        <ele>604.0</ele>
        <time>2020-09-29T07:08:19Z</time>
      </trkpt>
      <trkpt lat="40.4751830" lon="-3.4962200">
        <ele>604.0</ele>
        <time>2020-09-29T07:08:20Z</time>
      </trkpt>
      <trkpt lat="40.4752470" lon="-3.4961870">
        <ele>604.0</ele>
        <time>2020-09-29T07:08:21Z</time>
      </trkpt>
      <trkpt lat="40.4752470" lon="-3.4961870">
        <ele>604.0</ele>
        <time>2020-09-29T07:08:22Z</time>
      </trkpt>
      <trkpt lat="40.4753700" lon="-3.4961180">
        <ele>604.0</ele>
        <time>2020-09-29T07:08:23Z</time>
      </trkpt>
      <trkpt lat="40.4753700" lon="-3.4961180">
        <ele>604.0</ele>
        <time>2020-09-29T07:08:24Z</time>
      </trkpt>
      <trkpt lat="40.4754950" lon="-3.4960470">
        <ele>604.0</ele>
        <time>2020-09-29T07:08:25Z</time>
      </trkpt>
      <trkpt lat="40.4754950" lon="-3.4960470">
        <ele>604.0</ele>
        <time>2020-09-29T07:08:26Z</time>
      </trkpt>
      <trkpt lat="40.4756220" lon="-3.4959750">
        <ele>604.0</ele>
        <time>2020-09-29T07:08:27Z</time>
      </trkpt>
      <trkpt lat="40.4756870" lon="-3.4959420">
        <ele>604.0</ele>
        <time>2020-09-29T07:08:28Z</time>
      </trkpt>
      <trkpt lat="40.4756870" lon="-3.4959420">
        <ele>604.0</ele>
        <time>2020-09-29T07:08:29Z</time>
      </trkpt>
      <trkpt lat="40.4758130" lon="-3.4958750">
        <ele>604.0</ele>
        <time>2020-09-29T07:08:30Z</time>
      </trkpt>
      <trkpt lat="40.4758130" lon="-3.4958750">
        <ele>604.0</ele>
        <time>2020-09-29T07:08:31Z</time>
      </trkpt>
      <trkpt lat="40.4759420" lon="-3.4958080">
        <ele>604.0</ele>
        <time>2020-09-29T07:08:32Z</time>
      </trkpt>
      <trkpt lat="40.4760050" lon="-3.4957730">
        <ele>604.0</ele>
        <time>2020-09-29T07:08:33Z</time>
      </trkpt>
      <trkpt lat="40.4760050" lon="-3.4957730">
        <ele>604.0</ele>
        <time>2020-09-29T07:08:34Z</time>
      </trkpt>
      <trkpt lat="40.4761330" lon="-3.4957050">
        <ele>603.0</ele>
        <time>2020-09-29T07:08:35Z</time>
      </trkpt>
      <trkpt lat="40.4761980" lon="-3.4956720">
        <ele>603.0</ele>
        <time>2020-09-29T07:08:36Z</time>
      </trkpt>
      <trkpt lat="40.4761980" lon="-3.4956720">
        <ele>603.0</ele>
        <time>2020-09-29T07:08:37Z</time>
      </trkpt>
      <trkpt lat="40.4763280" lon="-3.4956030">
        <ele>603.0</ele>
        <time>2020-09-29T07:08:38Z</time>
      </trkpt>
      <trkpt lat="40.4763930" lon="-3.4955700">
        <ele>603.0</ele>
        <time>2020-09-29T07:08:39Z</time>
      </trkpt>
      <trkpt lat="40.4763930" lon="-3.4955700">
        <ele>603.0</ele>
        <time>2020-09-29T07:08:40Z</time>
      </trkpt>
      <trkpt lat="40.4765230" lon="-3.4955020">
        <ele>603.0</ele>
        <time>2020-09-29T07:08:41Z</time>
      </trkpt>
      <trkpt lat="40.4765230" lon="-3.4955020">
        <ele>603.0</ele>
        <time>2020-09-29T07:08:42Z</time>
      </trkpt>
      <trkpt lat="40.4766530" lon="-3.4954350">
        <ele>603.0</ele>
        <time>2020-09-29T07:08:43Z</time>
      </trkpt>
      <trkpt lat="40.4766530" lon="-3.4954350">
        <ele>603.0</ele>
        <time>2020-09-29T07:08:44Z</time>
      </trkpt>
      <trkpt lat="40.4767850" lon="-3.4953670">
        <ele>603.0</ele>
        <time>2020-09-29T07:08:45Z</time>
      </trkpt>
      <trkpt lat="40.4767850" lon="-3.4953670">
        <ele>603.0</ele>
        <time>2020-09-29T07:08:46Z</time>
      </trkpt>
      <trkpt lat="40.4769150" lon="-3.4952970">
        <ele>603.0</ele>
        <time>2020-09-29T07:08:47Z</time>
      </trkpt>
      <trkpt lat="40.4769780" lon="-3.4952620">
        <ele>603.0</ele>
        <time>2020-09-29T07:08:48Z</time>
      </trkpt>
      <trkpt lat="40.4769780" lon="-3.4952620">
        <ele>603.0</ele>
        <time>2020-09-29T07:08:49Z</time>
      </trkpt>
      <trkpt lat="40.4771100" lon="-3.4951930">
        <ele>603.0</ele>
        <time>2020-09-29T07:08:50Z</time>
      </trkpt>
      <trkpt lat="40.4771730" lon="-3.4951600">
        <ele>603.0</ele>
        <time>2020-09-29T07:08:51Z</time>
      </trkpt>
      <trkpt lat="40.4771730" lon="-3.4951600">
        <ele>603.0</ele>
        <time>2020-09-29T07:08:52Z</time>
      </trkpt>
      <trkpt lat="40.4773020" lon="-3.4950920">
        <ele>603.0</ele>
        <time>2020-09-29T07:08:53Z</time>
      </trkpt>
      <trkpt lat="40.4773020" lon="-3.4950920">
        <ele>603.0</ele>
        <time>2020-09-29T07:08:54Z</time>
      </trkpt>
      <trkpt lat="40.4774300" lon="-3.4950250">
        <ele>603.0</ele>
        <time>2020-09-29T07:08:55Z</time>
      </trkpt>
      <trkpt lat="40.4774300" lon="-3.4950250">
        <ele>603.0</ele>
        <time>2020-09-29T07:08:56Z</time>
      </trkpt>
      <trkpt lat="40.4775570" lon="-3.4949570">
        <ele>603.0</ele>
        <time>2020-09-29T07:08:57Z</time>
      </trkpt>
      <trkpt lat="40.4775570" lon="-3.4949570">
        <ele>603.0</ele>
        <time>2020-09-29T07:08:58Z</time>
      </trkpt>
      <trkpt lat="40.4776850" lon="-3.4948880">
        <ele>603.0</ele>
        <time>2020-09-29T07:08:59Z</time>
      </trkpt>
      <trkpt lat="40.4776850" lon="-3.4948880">
        <ele>603.0</ele>
        <time>2020-09-29T07:09:00Z</time>
      </trkpt>
      <trkpt lat="40.4778150" lon="-3.4948220">
        <ele>603.0</ele>
        <time>2020-09-29T07:09:01Z</time>
      </trkpt>
      <trkpt lat="40.4778780" lon="-3.4947870">
        <ele>603.0</ele>
        <time>2020-09-29T07:09:02Z</time>
      </trkpt>
      <trkpt lat="40.4778780" lon="-3.4947870">
        <ele>603.0</ele>
        <time>2020-09-29T07:09:03Z</time>
      </trkpt>
      <trkpt lat="40.4780050" lon="-3.4947100">
        <ele>603.0</ele>
        <time>2020-09-29T07:09:04Z</time>
      </trkpt>
      <trkpt lat="40.4780680" lon="-3.4946730">
        <ele>603.0</ele>
        <time>2020-09-29T07:09:05Z</time>
      </trkpt>
      <trkpt lat="40.4780680" lon="-3.4946730">
        <ele>603.0</ele>
        <time>2020-09-29T07:09:06Z</time>
      </trkpt>
      <trkpt lat="40.4781930" lon="-3.4945970">
        <ele>603.0</ele>
        <time>2020-09-29T07:09:07Z</time>
      </trkpt>
      <trkpt lat="40.4782550" lon="-3.4945600">
        <ele>603.0</ele>
        <time>2020-09-29T07:09:08Z</time>
      </trkpt>
      <trkpt lat="40.4782550" lon="-3.4945600">
        <ele>603.0</ele>
        <time>2020-09-29T07:09:09Z</time>
      </trkpt>
      <trkpt lat="40.4783770" lon="-3.4944870">
        <ele>603.0</ele>
        <time>2020-09-29T07:09:10Z</time>
      </trkpt>
      <trkpt lat="40.4783770" lon="-3.4944870">
        <ele>603.0</ele>
        <time>2020-09-29T07:09:11Z</time>
      </trkpt>
      <trkpt lat="40.4784970" lon="-3.4944070">
        <ele>603.0</ele>
        <time>2020-09-29T07:09:12Z</time>
      </trkpt>
      <trkpt lat="40.4784970" lon="-3.4944070">
        <ele>603.0</ele>
        <time>2020-09-29T07:09:13Z</time>
      </trkpt>
      <trkpt lat="40.4786130" lon="-3.4943230">
        <ele>603.0</ele>
        <time>2020-09-29T07:09:14Z</time>
      </trkpt>
      <trkpt lat="40.4786130" lon="-3.4943230">
        <ele>603.0</ele>
        <time>2020-09-29T07:09:15Z</time>
      </trkpt>
      <trkpt lat="40.4787270" lon="-3.4942320">
        <ele>603.0</ele>
        <time>2020-09-29T07:09:16Z</time>
      </trkpt>
      <trkpt lat="40.4787800" lon="-3.4941830">
        <ele>603.0</ele>
        <time>2020-09-29T07:09:17Z</time>
      </trkpt>
      <trkpt lat="40.4788320" lon="-3.4941330">
        <ele>603.0</ele>
        <time>2020-09-29T07:09:18Z</time>
      </trkpt>
      <trkpt lat="40.4788320" lon="-3.4941330">
        <ele>603.0</ele>
        <time>2020-09-29T07:09:19Z</time>
      </trkpt>
      <trkpt lat="40.4789330" lon="-3.4940180">
        <ele>603.0</ele>
        <time>2020-09-29T07:09:20Z</time>
      </trkpt>
      <trkpt lat="40.4789730" lon="-3.4939480">
        <ele>603.0</ele>
        <time>2020-09-29T07:09:21Z</time>
      </trkpt>
      <trkpt lat="40.4789730" lon="-3.4939480">
        <ele>603.0</ele>
        <time>2020-09-29T07:09:22Z</time>
      </trkpt>
      <trkpt lat="40.4790270" lon="-3.4937870">
        <ele>603.0</ele>
        <time>2020-09-29T07:09:23Z</time>
      </trkpt>
      <trkpt lat="40.4790270" lon="-3.4937870">
        <ele>603.0</ele>
        <time>2020-09-29T07:09:24Z</time>
      </trkpt>
      <trkpt lat="40.4791070" lon="-3.4936380">
        <ele>603.0</ele>
        <time>2020-09-29T07:09:25Z</time>
      </trkpt>
      <trkpt lat="40.4791070" lon="-3.4936380">
        <ele>603.0</ele>
        <time>2020-09-29T07:09:26Z</time>
      </trkpt>
      <trkpt lat="40.4792180" lon="-3.4935400">
        <ele>603.0</ele>
        <time>2020-09-29T07:09:27Z</time>
      </trkpt>
      <trkpt lat="40.4792180" lon="-3.4935400">
        <ele>603.0</ele>
        <time>2020-09-29T07:09:28Z</time>
      </trkpt>
      <trkpt lat="40.4793470" lon="-3.4934900">
        <ele>603.0</ele>
        <time>2020-09-29T07:09:29Z</time>
      </trkpt>
      <trkpt lat="40.4793470" lon="-3.4934900">
        <ele>603.0</ele>
        <time>2020-09-29T07:09:30Z</time>
      </trkpt>
      <trkpt lat="40.4794780" lon="-3.4934680">
        <ele>603.0</ele>
        <time>2020-09-29T07:09:31Z</time>
      </trkpt>
      <trkpt lat="40.4794780" lon="-3.4934680">
        <ele>603.0</ele>
        <time>2020-09-29T07:09:32Z</time>
      </trkpt>
      <trkpt lat="40.4796070" lon="-3.4934220">
        <ele>603.0</ele>
        <time>2020-09-29T07:09:33Z</time>
      </trkpt>
      <trkpt lat="40.4796630" lon="-3.4933750">
        <ele>603.0</ele>
        <time>2020-09-29T07:09:34Z</time>
      </trkpt>
      <trkpt lat="40.4796630" lon="-3.4933750">
        <ele>603.0</ele>
        <time>2020-09-29T07:09:35Z</time>
      </trkpt>
      <trkpt lat="40.4797720" lon="-3.4932650">
        <ele>603.0</ele>
        <time>2020-09-29T07:09:36Z</time>
      </trkpt>
      <trkpt lat="40.4797720" lon="-3.4932650">
        <ele>603.0</ele>
        <time>2020-09-29T07:09:37Z</time>
      </trkpt>
      <trkpt lat="40.4798770" lon="-3.4931430">
        <ele>603.0</ele>
        <time>2020-09-29T07:09:38Z</time>
      </trkpt>
      <trkpt lat="40.4798770" lon="-3.4931430">
        <ele>603.0</ele>
        <time>2020-09-29T07:09:39Z</time>
      </trkpt>
      <trkpt lat="40.4799780" lon="-3.4930170">
        <ele>603.0</ele>
        <time>2020-09-29T07:09:40Z</time>
      </trkpt>
      <trkpt lat="40.4799780" lon="-3.4930170">
        <ele>603.0</ele>
        <time>2020-09-29T07:09:41Z</time>
      </trkpt>
      <trkpt lat="40.4800770" lon="-3.4928880">
        <ele>603.0</ele>
        <time>2020-09-29T07:09:42Z</time>
      </trkpt>
      <trkpt lat="40.4801250" lon="-3.4928230">
        <ele>603.0</ele>
        <time>2020-09-29T07:09:43Z</time>
      </trkpt>
      <trkpt lat="40.4801700" lon="-3.4927570">
        <ele>603.0</ele>
        <time>2020-09-29T07:09:44Z</time>
      </trkpt>
      <trkpt lat="40.4801700" lon="-3.4927570">
        <ele>603.0</ele>
        <time>2020-09-29T07:09:45Z</time>
      </trkpt>
      <trkpt lat="40.4802650" lon="-3.4926270">
        <ele>603.0</ele>
        <time>2020-09-29T07:09:46Z</time>
      </trkpt>
      <trkpt lat="40.4802650" lon="-3.4926270">
        <ele>603.0</ele>
        <time>2020-09-29T07:09:47Z</time>
      </trkpt>
      <trkpt lat="40.4803530" lon="-3.4924930">
        <ele>603.0</ele>
        <time>2020-09-29T07:09:48Z</time>
      </trkpt>
      <trkpt lat="40.4803950" lon="-3.4924250">
        <ele>603.0</ele>
        <time>2020-09-29T07:09:49Z</time>
      </trkpt>
      <trkpt lat="40.4804370" lon="-3.4923550">
        <ele>603.0</ele>
        <time>2020-09-29T07:09:50Z</time>
      </trkpt>
      <trkpt lat="40.4804370" lon="-3.4923550">
        <ele>603.0</ele>
        <time>2020-09-29T07:09:51Z</time>
      </trkpt>
      <trkpt lat="40.4805120" lon="-3.4922000">
        <ele>603.0</ele>
        <time>2020-09-29T07:09:52Z</time>
      </trkpt>
      <trkpt lat="40.4805120" lon="-3.4922000">
        <ele>603.0</ele>
        <time>2020-09-29T07:09:53Z</time>
      </trkpt>
      <trkpt lat="40.4805830" lon="-3.4920480">
        <ele>603.0</ele>
        <time>2020-09-29T07:09:54Z</time>
      </trkpt>
      <trkpt lat="40.4805830" lon="-3.4920480">
        <ele>603.0</ele>
        <time>2020-09-29T07:09:55Z</time>
      </trkpt>
      <trkpt lat="40.4806530" lon="-3.4918920">
        <ele>603.0</ele>
        <time>2020-09-29T07:09:56Z</time>
      </trkpt>
      <trkpt lat="40.4806530" lon="-3.4918920">
        <ele>603.0</ele>
        <time>2020-09-29T07:09:57Z</time>
      </trkpt>
      <trkpt lat="40.4807220" lon="-3.4917350">
        <ele>603.0</ele>
        <time>2020-09-29T07:09:58Z</time>
      </trkpt>
      <trkpt lat="40.4807220" lon="-3.4917350">
        <ele>603.0</ele>
        <time>2020-09-29T07:09:59Z</time>
      </trkpt>
      <trkpt lat="40.4807900" lon="-3.4915830">
        <ele>603.0</ele>
        <time>2020-09-29T07:10:00Z</time>
      </trkpt>
      <trkpt lat="40.4808250" lon="-3.4915080">
        <ele>603.0</ele>
        <time>2020-09-29T07:10:01Z</time>
      </trkpt>
      <trkpt lat="40.4808250" lon="-3.4915080">
        <ele>603.0</ele>
        <time>2020-09-29T07:10:02Z</time>
      </trkpt>
      <trkpt lat="40.4808930" lon="-3.4913570">
        <ele>603.0</ele>
        <time>2020-09-29T07:10:03Z</time>
      </trkpt>
      <trkpt lat="40.4808930" lon="-3.4913570">
        <ele>603.0</ele>
        <time>2020-09-29T07:10:04Z</time>
      </trkpt>
      <trkpt lat="40.4809620" lon="-3.4912080">
        <ele>603.0</ele>
        <time>2020-09-29T07:10:05Z</time>
      </trkpt>
      <trkpt lat="40.4809620" lon="-3.4912080">
        <ele>603.0</ele>
        <time>2020-09-29T07:10:06Z</time>
      </trkpt>
      <trkpt lat="40.4810320" lon="-3.4910580">
        <ele>603.0</ele>
        <time>2020-09-29T07:10:07Z</time>
      </trkpt>
      <trkpt lat="40.4810320" lon="-3.4910580">
        <ele>603.0</ele>
        <time>2020-09-29T07:10:08Z</time>
      </trkpt>
      <trkpt lat="40.4810980" lon="-3.4909070">
        <ele>603.0</ele>
        <time>2020-09-29T07:10:09Z</time>
      </trkpt>
      <trkpt lat="40.4810980" lon="-3.4909070">
        <ele>603.0</ele>
        <time>2020-09-29T07:10:10Z</time>
      </trkpt>
      <trkpt lat="40.4811650" lon="-3.4907570">
        <ele>603.0</ele>
        <time>2020-09-29T07:10:11Z</time>
      </trkpt>
      <trkpt lat="40.4812000" lon="-3.4906820">
        <ele>603.0</ele>
        <time>2020-09-29T07:10:12Z</time>
      </trkpt>
      <trkpt lat="40.4812350" lon="-3.4906080">
        <ele>603.0</ele>
        <time>2020-09-29T07:10:13Z</time>
      </trkpt>
      <trkpt lat="40.4812350" lon="-3.4906080">
        <ele>603.0</ele>
        <time>2020-09-29T07:10:14Z</time>
      </trkpt>
      <trkpt lat="40.4813020" lon="-3.4904600">
        <ele>603.0</ele>
        <time>2020-09-29T07:10:15Z</time>
      </trkpt>
      <trkpt lat="40.4813020" lon="-3.4904600">
        <ele>603.0</ele>
        <time>2020-09-29T07:10:16Z</time>
      </trkpt>
      <trkpt lat="40.4813700" lon="-3.4903130">
        <ele>603.0</ele>
        <time>2020-09-29T07:10:17Z</time>
      </trkpt>
      <trkpt lat="40.4814030" lon="-3.4902380">
        <ele>603.0</ele>
        <time>2020-09-29T07:10:18Z</time>
      </trkpt>
      <trkpt lat="40.4814030" lon="-3.4902380">
        <ele>603.0</ele>
        <time>2020-09-29T07:10:19Z</time>
      </trkpt>
      <trkpt lat="40.4814680" lon="-3.4900900">
        <ele>603.0</ele>
        <time>2020-09-29T07:10:20Z</time>
      </trkpt>
      <trkpt lat="40.4815020" lon="-3.4900170">
        <ele>603.0</ele>
        <time>2020-09-29T07:10:21Z</time>
      </trkpt>
      <trkpt lat="40.4815370" lon="-3.4899450">
        <ele>603.0</ele>
        <time>2020-09-29T07:10:22Z</time>
      </trkpt>
      <trkpt lat="40.4815370" lon="-3.4899450">
        <ele>603.0</ele>
        <time>2020-09-29T07:10:23Z</time>
      </trkpt>
      <trkpt lat="40.4816050" lon="-3.4898020">
        <ele>603.0</ele>
        <time>2020-09-29T07:10:24Z</time>
      </trkpt>
      <trkpt lat="40.4816380" lon="-3.4897300">
        <ele>603.0</ele>
        <time>2020-09-29T07:10:25Z</time>
      </trkpt>
      <trkpt lat="40.4816380" lon="-3.4897300">
        <ele>603.0</ele>
        <time>2020-09-29T07:10:26Z</time>
      </trkpt>
      <trkpt lat="40.4817020" lon="-3.4895850">
        <ele>603.0</ele>
        <time>2020-09-29T07:10:27Z</time>
      </trkpt>
      <trkpt lat="40.4817350" lon="-3.4895130">
        <ele>603.0</ele>
        <time>2020-09-29T07:10:28Z</time>
      </trkpt>
      <trkpt lat="40.4817680" lon="-3.4894420">
        <ele>603.0</ele>
        <time>2020-09-29T07:10:29Z</time>
      </trkpt>
      <trkpt lat="40.4817680" lon="-3.4894420">
        <ele>603.0</ele>
        <time>2020-09-29T07:10:30Z</time>
      </trkpt>
      <trkpt lat="40.4818350" lon="-3.4893020">
        <ele>603.0</ele>
        <time>2020-09-29T07:10:31Z</time>
      </trkpt>
      <trkpt lat="40.4818350" lon="-3.4893020">
        <ele>603.0</ele>
        <time>2020-09-29T07:10:32Z</time>
      </trkpt>
      <trkpt lat="40.4818930" lon="-3.4891650">
        <ele>603.0</ele>
        <time>2020-09-29T07:10:33Z</time>
      </trkpt>
      <trkpt lat="40.4819220" lon="-3.4891000">
        <ele>603.0</ele>
        <time>2020-09-29T07:10:34Z</time>
      </trkpt>
      <trkpt lat="40.4819220" lon="-3.4891000">
        <ele>603.0</ele>
        <time>2020-09-29T07:10:35Z</time>
      </trkpt>
      <trkpt lat="40.4819670" lon="-3.4889930">
        <ele>603.0</ele>
        <time>2020-09-29T07:10:36Z</time>
      </trkpt>
      <trkpt lat="40.4819670" lon="-3.4889930">
        <ele>603.0</ele>
        <time>2020-09-29T07:10:37Z</time>
      </trkpt>
      <trkpt lat="40.4819900" lon="-3.4889320">
        <ele>603.0</ele>
        <time>2020-09-29T07:10:38Z</time>
      </trkpt>
      <trkpt lat="40.4819900" lon="-3.4889250">
        <ele>603.0</ele>
        <time>2020-09-29T07:10:39Z</time>
      </trkpt>
      <trkpt lat="40.4819900" lon="-3.4889250">
        <ele>603.0</ele>
        <time>2020-09-29T07:10:40Z</time>
      </trkpt>
      <trkpt lat="40.4819880" lon="-3.4889270">
        <ele>603.0</ele>
        <time>2020-09-29T07:10:41Z</time>
      </trkpt>
      <trkpt lat="40.4819880" lon="-3.4889270">
        <ele>603.0</ele>
        <time>2020-09-29T07:10:42Z</time>
      </trkpt>
      <trkpt lat="40.4819880" lon="-3.4889270">
        <ele>603.0</ele>
        <time>2020-09-29T07:11:47Z</time>
      </trkpt>
      <trkpt lat="40.4819780" lon="-3.4889350">
        <ele>603.0</ele>
        <time>2020-09-29T07:11:48Z</time>
      </trkpt>
      <trkpt lat="40.4819780" lon="-3.4889350">
        <ele>603.0</ele>
        <time>2020-09-29T07:11:49Z</time>
      </trkpt>
      <trkpt lat="40.4819780" lon="-3.4889350">
        <ele>603.0</ele>
        <time>2020-09-29T07:11:56Z</time>
      </trkpt>
      <trkpt lat="40.4820120" lon="-3.4888880">
        <ele>603.0</ele>
        <time>2020-09-29T07:11:57Z</time>
      </trkpt>
      <trkpt lat="40.4820280" lon="-3.4888600">
        <ele>603.0</ele>
        <time>2020-09-29T07:11:58Z</time>
      </trkpt>
      <trkpt lat="40.4820280" lon="-3.4888600">
        <ele>603.0</ele>
        <time>2020-09-29T07:11:59Z</time>
      </trkpt>
      <trkpt lat="40.4820700" lon="-3.4887870">
        <ele>603.0</ele>
        <time>2020-09-29T07:12:00Z</time>
      </trkpt>
      <trkpt lat="40.4820950" lon="-3.4887400">
        <ele>603.0</ele>
        <time>2020-09-29T07:12:01Z</time>
      </trkpt>
      <trkpt lat="40.4820950" lon="-3.4887400">
        <ele>603.0</ele>
        <time>2020-09-29T07:12:02Z</time>
      </trkpt>
      <trkpt lat="40.4821470" lon="-3.4886320">
        <ele>603.0</ele>
        <time>2020-09-29T07:12:03Z</time>
      </trkpt>
      <trkpt lat="40.4821770" lon="-3.4885720">
        <ele>603.0</ele>
        <time>2020-09-29T07:12:04Z</time>
      </trkpt>
      <trkpt lat="40.4821770" lon="-3.4885720">
        <ele>603.0</ele>
        <time>2020-09-29T07:12:05Z</time>
      </trkpt>
      <trkpt lat="40.4822430" lon="-3.4884500">
        <ele>603.0</ele>
        <time>2020-09-29T07:12:06Z</time>
      </trkpt>
      <trkpt lat="40.4822780" lon="-3.4883870">
        <ele>603.0</ele>
        <time>2020-09-29T07:12:07Z</time>
      </trkpt>
      <trkpt lat="40.4822780" lon="-3.4883870">
        <ele>603.0</ele>
        <time>2020-09-29T07:12:08Z</time>
      </trkpt>
      <trkpt lat="40.4823520" lon="-3.4882580">
        <ele>603.0</ele>
        <time>2020-09-29T07:12:09Z</time>
      </trkpt>
      <trkpt lat="40.4823880" lon="-3.4881930">
        <ele>603.0</ele>
        <time>2020-09-29T07:12:10Z</time>
      </trkpt>
      <trkpt lat="40.4823880" lon="-3.4881930">
        <ele>603.0</ele>
        <time>2020-09-29T07:12:11Z</time>
      </trkpt>
      <trkpt lat="40.4824600" lon="-3.4880570">
        <ele>603.0</ele>
        <time>2020-09-29T07:12:12Z</time>
      </trkpt>
      <trkpt lat="40.4824950" lon="-3.4879850">
        <ele>603.0</ele>
        <time>2020-09-29T07:12:13Z</time>
      </trkpt>
      <trkpt lat="40.4824950" lon="-3.4879850">
        <ele>603.0</ele>
        <time>2020-09-29T07:12:14Z</time>
      </trkpt>
      <trkpt lat="40.4825600" lon="-3.4878420">
        <ele>603.0</ele>
        <time>2020-09-29T07:12:15Z</time>
      </trkpt>
      <trkpt lat="40.4825920" lon="-3.4877700">
        <ele>603.0</ele>
        <time>2020-09-29T07:12:16Z</time>
      </trkpt>
      <trkpt lat="40.4826270" lon="-3.4876980">
        <ele>603.0</ele>
        <time>2020-09-29T07:12:17Z</time>
      </trkpt>
      <trkpt lat="40.4826270" lon="-3.4876980">
        <ele>603.0</ele>
        <time>2020-09-29T07:12:18Z</time>
      </trkpt>
      <trkpt lat="40.4826920" lon="-3.4875570">
        <ele>603.0</ele>
        <time>2020-09-29T07:12:19Z</time>
      </trkpt>
      <trkpt lat="40.4826920" lon="-3.4875570">
        <ele>603.0</ele>
        <time>2020-09-29T07:12:20Z</time>
      </trkpt>
      <trkpt lat="40.4827580" lon="-3.4874130">
        <ele>603.0</ele>
        <time>2020-09-29T07:12:21Z</time>
      </trkpt>
      <trkpt lat="40.4827580" lon="-3.4874130">
        <ele>603.0</ele>
        <time>2020-09-29T07:12:22Z</time>
      </trkpt>
      <trkpt lat="40.4828230" lon="-3.4872680">
        <ele>603.0</ele>
        <time>2020-09-29T07:12:23Z</time>
      </trkpt>
      <trkpt lat="40.4828570" lon="-3.4871970">
        <ele>603.0</ele>
        <time>2020-09-29T07:12:24Z</time>
      </trkpt>
      <trkpt lat="40.4828900" lon="-3.4871250">
        <ele>603.0</ele>
        <time>2020-09-29T07:12:25Z</time>
      </trkpt>
      <trkpt lat="40.4828900" lon="-3.4871250">
        <ele>603.0</ele>
        <time>2020-09-29T07:12:26Z</time>
      </trkpt>
      <trkpt lat="40.4829580" lon="-3.4869820">
        <ele>603.0</ele>
        <time>2020-09-29T07:12:27Z</time>
      </trkpt>
      <trkpt lat="40.4829580" lon="-3.4869820">
        <ele>603.0</ele>
        <time>2020-09-29T07:12:28Z</time>
      </trkpt>
      <trkpt lat="40.4830320" lon="-3.4868400">
        <ele>603.0</ele>
        <time>2020-09-29T07:12:29Z</time>
      </trkpt>
      <trkpt lat="40.4830320" lon="-3.4868400">
        <ele>603.0</ele>
        <time>2020-09-29T07:12:30Z</time>
      </trkpt>
      <trkpt lat="40.4831000" lon="-3.4866970">
        <ele>603.0</ele>
        <time>2020-09-29T07:12:31Z</time>
      </trkpt>
      <trkpt lat="40.4831000" lon="-3.4866970">
        <ele>603.0</ele>
        <time>2020-09-29T07:12:32Z</time>
      </trkpt>
      <trkpt lat="40.4831670" lon="-3.4865500">
        <ele>603.0</ele>
        <time>2020-09-29T07:12:33Z</time>
      </trkpt>
      <trkpt lat="40.4831670" lon="-3.4865500">
        <ele>603.0</ele>
        <time>2020-09-29T07:12:34Z</time>
      </trkpt>
      <trkpt lat="40.4832330" lon="-3.4864020">
        <ele>603.0</ele>
        <time>2020-09-29T07:12:35Z</time>
      </trkpt>
      <trkpt lat="40.4832330" lon="-3.4864020">
        <ele>603.0</ele>
        <time>2020-09-29T07:12:36Z</time>
      </trkpt>
      <trkpt lat="40.4833050" lon="-3.4862570">
        <ele>603.0</ele>
        <time>2020-09-29T07:12:37Z</time>
      </trkpt>
      <trkpt lat="40.4833050" lon="-3.4862570">
        <ele>603.0</ele>
        <time>2020-09-29T07:12:38Z</time>
      </trkpt>
      <trkpt lat="40.4833750" lon="-3.4861070">
        <ele>603.0</ele>
        <time>2020-09-29T07:12:39Z</time>
      </trkpt>
      <trkpt lat="40.4834100" lon="-3.4860320">
        <ele>603.0</ele>
        <time>2020-09-29T07:12:40Z</time>
      </trkpt>
      <trkpt lat="40.4834100" lon="-3.4860320">
        <ele>603.0</ele>
        <time>2020-09-29T07:12:41Z</time>
      </trkpt>
      <trkpt lat="40.4834820" lon="-3.4858850">
        <ele>603.0</ele>
        <time>2020-09-29T07:12:42Z</time>
      </trkpt>
      <trkpt lat="40.4835170" lon="-3.4858120">
        <ele>603.0</ele>
        <time>2020-09-29T07:12:43Z</time>
      </trkpt>
      <trkpt lat="40.4835170" lon="-3.4858120">
        <ele>603.0</ele>
        <time>2020-09-29T07:12:44Z</time>
      </trkpt>
      <trkpt lat="40.4835880" lon="-3.4856620">
        <ele>603.0</ele>
        <time>2020-09-29T07:12:45Z</time>
      </trkpt>
      <trkpt lat="40.4835880" lon="-3.4856620">
        <ele>603.0</ele>
        <time>2020-09-29T07:12:46Z</time>
      </trkpt>
      <trkpt lat="40.4836600" lon="-3.4855130">
        <ele>603.0</ele>
        <time>2020-09-29T07:12:47Z</time>
      </trkpt>
      <trkpt lat="40.4836600" lon="-3.4855130">
        <ele>603.0</ele>
        <time>2020-09-29T07:12:48Z</time>
      </trkpt>
      <trkpt lat="40.4837280" lon="-3.4853650">
        <ele>603.0</ele>
        <time>2020-09-29T07:12:49Z</time>
      </trkpt>
      <trkpt lat="40.4837280" lon="-3.4853650">
        <ele>603.0</ele>
        <time>2020-09-29T07:12:50Z</time>
      </trkpt>
      <trkpt lat="40.4837970" lon="-3.4852180">
        <ele>603.0</ele>
        <time>2020-09-29T07:12:51Z</time>
      </trkpt>
      <trkpt lat="40.4837970" lon="-3.4852180">
        <ele>603.0</ele>
        <time>2020-09-29T07:12:52Z</time>
      </trkpt>
      <trkpt lat="40.4838650" lon="-3.4850700">
        <ele>603.0</ele>
        <time>2020-09-29T07:12:53Z</time>
      </trkpt>
      <trkpt lat="40.4838980" lon="-3.4849950">
        <ele>603.0</ele>
        <time>2020-09-29T07:12:54Z</time>
      </trkpt>
      <trkpt lat="40.4839330" lon="-3.4849200">
        <ele>603.0</ele>
        <time>2020-09-29T07:12:55Z</time>
      </trkpt>
      <trkpt lat="40.4839330" lon="-3.4849200">
        <ele>603.0</ele>
        <time>2020-09-29T07:12:56Z</time>
      </trkpt>
      <trkpt lat="40.4840020" lon="-3.4847700">
        <ele>603.0</ele>
        <time>2020-09-29T07:12:57Z</time>
      </trkpt>
      <trkpt lat="40.4840020" lon="-3.4847700">
        <ele>603.0</ele>
        <time>2020-09-29T07:12:58Z</time>
      </trkpt>
      <trkpt lat="40.4840700" lon="-3.4846220">
        <ele>603.0</ele>
        <time>2020-09-29T07:12:59Z</time>
      </trkpt>
      <trkpt lat="40.4840700" lon="-3.4846220">
        <ele>603.0</ele>
        <time>2020-09-29T07:13:00Z</time>
      </trkpt>
      <trkpt lat="40.4841380" lon="-3.4844730">
        <ele>603.0</ele>
        <time>2020-09-29T07:13:01Z</time>
      </trkpt>
      <trkpt lat="40.4841380" lon="-3.4844730">
        <ele>603.0</ele>
        <time>2020-09-29T07:13:02Z</time>
      </trkpt>
      <trkpt lat="40.4842070" lon="-3.4843230">
        <ele>603.0</ele>
        <time>2020-09-29T07:13:03Z</time>
      </trkpt>
      <trkpt lat="40.4842420" lon="-3.4842480">
        <ele>603.0</ele>
        <time>2020-09-29T07:13:04Z</time>
      </trkpt>
      <trkpt lat="40.4842420" lon="-3.4842480">
        <ele>603.0</ele>
        <time>2020-09-29T07:13:05Z</time>
      </trkpt>
      <trkpt lat="40.4843100" lon="-3.4840980">
        <ele>603.0</ele>
        <time>2020-09-29T07:13:06Z</time>
      </trkpt>
      <trkpt lat="40.4843450" lon="-3.4840250">
        <ele>603.0</ele>
        <time>2020-09-29T07:13:07Z</time>
      </trkpt>
      <trkpt lat="40.4843450" lon="-3.4840250">
        <ele>603.0</ele>
        <time>2020-09-29T07:13:08Z</time>
      </trkpt>
      <trkpt lat="40.4844150" lon="-3.4838750">
        <ele>603.0</ele>
        <time>2020-09-29T07:13:09Z</time>
      </trkpt>
      <trkpt lat="40.4844150" lon="-3.4838750">
        <ele>603.0</ele>
        <time>2020-09-29T07:13:10Z</time>
      </trkpt>
      <trkpt lat="40.4844830" lon="-3.4837270">
        <ele>603.0</ele>
        <time>2020-09-29T07:13:11Z</time>
      </trkpt>
      <trkpt lat="40.4844830" lon="-3.4837270">
        <ele>603.0</ele>
        <time>2020-09-29T07:13:12Z</time>
      </trkpt>
      <trkpt lat="40.4845520" lon="-3.4835770">
        <ele>603.0</ele>
        <time>2020-09-29T07:13:13Z</time>
      </trkpt>
      <trkpt lat="40.4845520" lon="-3.4835770">
        <ele>603.0</ele>
        <time>2020-09-29T07:13:14Z</time>
      </trkpt>
      <trkpt lat="40.4846200" lon="-3.4834270">
        <ele>603.0</ele>
        <time>2020-09-29T07:13:15Z</time>
      </trkpt>
      <trkpt lat="40.4846200" lon="-3.4834270">
        <ele>603.0</ele>
        <time>2020-09-29T07:13:16Z</time>
      </trkpt>
      <trkpt lat="40.4846900" lon="-3.4832770">
        <ele>603.0</ele>
        <time>2020-09-29T07:13:17Z</time>
      </trkpt>
      <trkpt lat="40.4847250" lon="-3.4832020">
        <ele>603.0</ele>
        <time>2020-09-29T07:13:18Z</time>
      </trkpt>
      <trkpt lat="40.4847250" lon="-3.4832020">
        <ele>603.0</ele>
        <time>2020-09-29T07:13:19Z</time>
      </trkpt>
      <trkpt lat="40.4847930" lon="-3.4830500">
        <ele>603.0</ele>
        <time>2020-09-29T07:13:20Z</time>
      </trkpt>
      <trkpt lat="40.4847930" lon="-3.4830500">
        <ele>603.0</ele>
        <time>2020-09-29T07:13:21Z</time>
      </trkpt>
      <trkpt lat="40.4848630" lon="-3.4829000">
        <ele>603.0</ele>
        <time>2020-09-29T07:13:22Z</time>
      </trkpt>
      <trkpt lat="40.4848970" lon="-3.4828250">
        <ele>603.0</ele>
        <time>2020-09-29T07:13:23Z</time>
      </trkpt>
      <trkpt lat="40.4848970" lon="-3.4828250">
        <ele>603.0</ele>
        <time>2020-09-29T07:13:24Z</time>
      </trkpt>
      <trkpt lat="40.4849650" lon="-3.4826720">
        <ele>603.0</ele>
        <time>2020-09-29T07:13:25Z</time>
      </trkpt>
      <trkpt lat="40.4849650" lon="-3.4826720">
        <ele>603.0</ele>
        <time>2020-09-29T07:13:26Z</time>
      </trkpt>
      <trkpt lat="40.4850370" lon="-3.4825180">
        <ele>603.0</ele>
        <time>2020-09-29T07:13:27Z</time>
      </trkpt>
      <trkpt lat="40.4850370" lon="-3.4825180">
        <ele>603.0</ele>
        <time>2020-09-29T07:13:28Z</time>
      </trkpt>
      <trkpt lat="40.4851070" lon="-3.4823670">
        <ele>603.0</ele>
        <time>2020-09-29T07:13:29Z</time>
      </trkpt>
      <trkpt lat="40.4851070" lon="-3.4823670">
        <ele>603.0</ele>
        <time>2020-09-29T07:13:30Z</time>
      </trkpt>
      <trkpt lat="40.4851770" lon="-3.4822150">
        <ele>603.0</ele>
        <time>2020-09-29T07:13:31Z</time>
      </trkpt>
      <trkpt lat="40.4851770" lon="-3.4822150">
        <ele>603.0</ele>
        <time>2020-09-29T07:13:32Z</time>
      </trkpt>
      <trkpt lat="40.4852480" lon="-3.4820630">
        <ele>603.0</ele>
        <time>2020-09-29T07:13:33Z</time>
      </trkpt>
      <trkpt lat="40.4852830" lon="-3.4819880">
        <ele>603.0</ele>
        <time>2020-09-29T07:13:34Z</time>
      </trkpt>
      <trkpt lat="40.4852830" lon="-3.4819880">
        <ele>603.0</ele>
        <time>2020-09-29T07:13:35Z</time>
      </trkpt>
      <trkpt lat="40.4853570" lon="-3.4818380">
        <ele>603.0</ele>
        <time>2020-09-29T07:13:36Z</time>
      </trkpt>
      <trkpt lat="40.4853930" lon="-3.4817650">
        <ele>603.0</ele>
        <time>2020-09-29T07:13:37Z</time>
      </trkpt>
      <trkpt lat="40.4853930" lon="-3.4817650">
        <ele>603.0</ele>
        <time>2020-09-29T07:13:38Z</time>
      </trkpt>
      <trkpt lat="40.4854670" lon="-3.4816170">
        <ele>603.0</ele>
        <time>2020-09-29T07:13:39Z</time>
      </trkpt>
      <trkpt lat="40.4855030" lon="-3.4815400">
        <ele>603.0</ele>
        <time>2020-09-29T07:13:40Z</time>
      </trkpt>
      <trkpt lat="40.4855030" lon="-3.4815400">
        <ele>603.0</ele>
        <time>2020-09-29T07:13:41Z</time>
      </trkpt>
      <trkpt lat="40.4855770" lon="-3.4813900">
        <ele>603.0</ele>
        <time>2020-09-29T07:13:42Z</time>
      </trkpt>
      <trkpt lat="40.4855770" lon="-3.4813900">
        <ele>603.0</ele>
        <time>2020-09-29T07:13:43Z</time>
      </trkpt>
      <trkpt lat="40.4856480" lon="-3.4812380">
        <ele>603.0</ele>
        <time>2020-09-29T07:13:44Z</time>
      </trkpt>
      <trkpt lat="40.4856850" lon="-3.4811650">
        <ele>603.0</ele>
        <time>2020-09-29T07:13:45Z</time>
      </trkpt>
      <trkpt lat="40.4857220" lon="-3.4810900">
        <ele>603.0</ele>
        <time>2020-09-29T07:13:46Z</time>
      </trkpt>
      <trkpt lat="40.4857220" lon="-3.4810900">
        <ele>603.0</ele>
        <time>2020-09-29T07:13:47Z</time>
      </trkpt>
      <trkpt lat="40.4857950" lon="-3.4809420">
        <ele>603.0</ele>
        <time>2020-09-29T07:13:48Z</time>
      </trkpt>
      <trkpt lat="40.4858320" lon="-3.4808680">
        <ele>603.0</ele>
        <time>2020-09-29T07:13:49Z</time>
      </trkpt>
      <trkpt lat="40.4858320" lon="-3.4808680">
        <ele>603.0</ele>
        <time>2020-09-29T07:13:50Z</time>
      </trkpt>
      <trkpt lat="40.4859050" lon="-3.4807200">
        <ele>603.0</ele>
        <time>2020-09-29T07:13:51Z</time>
      </trkpt>
      <trkpt lat="40.4859420" lon="-3.4806470">
        <ele>603.0</ele>
        <time>2020-09-29T07:13:52Z</time>
      </trkpt>
      <trkpt lat="40.4859420" lon="-3.4806470">
        <ele>603.0</ele>
        <time>2020-09-29T07:13:53Z</time>
      </trkpt>
      <trkpt lat="40.4860130" lon="-3.4804970">
        <ele>603.0</ele>
        <time>2020-09-29T07:13:54Z</time>
      </trkpt>
      <trkpt lat="40.4860130" lon="-3.4804970">
        <ele>603.0</ele>
        <time>2020-09-29T07:13:55Z</time>
      </trkpt>
      <trkpt lat="40.4860870" lon="-3.4803480">
        <ele>603.0</ele>
        <time>2020-09-29T07:13:56Z</time>
      </trkpt>
      <trkpt lat="40.4861220" lon="-3.4802730">
        <ele>603.0</ele>
        <time>2020-09-29T07:13:57Z</time>
      </trkpt>
      <trkpt lat="40.4861220" lon="-3.4802730">
        <ele>603.0</ele>
        <time>2020-09-29T07:13:58Z</time>
      </trkpt>
      <trkpt lat="40.4861920" lon="-3.4801230">
        <ele>603.0</ele>
        <time>2020-09-29T07:13:59Z</time>
      </trkpt>
      <trkpt lat="40.4861920" lon="-3.4801230">
        <ele>603.0</ele>
        <time>2020-09-29T07:14:00Z</time>
      </trkpt>
      <trkpt lat="40.4862630" lon="-3.4799750">
        <ele>603.0</ele>
        <time>2020-09-29T07:14:01Z</time>
      </trkpt>
      <trkpt lat="40.4863000" lon="-3.4798980">
        <ele>603.0</ele>
        <time>2020-09-29T07:14:02Z</time>
      </trkpt>
      <trkpt lat="40.4863000" lon="-3.4798980">
        <ele>603.0</ele>
        <time>2020-09-29T07:14:03Z</time>
      </trkpt>
      <trkpt lat="40.4863700" lon="-3.4797470">
        <ele>604.0</ele>
        <time>2020-09-29T07:14:04Z</time>
      </trkpt>
      <trkpt lat="40.4863700" lon="-3.4797470">
        <ele>604.0</ele>
        <time>2020-09-29T07:14:05Z</time>
      </trkpt>
      <trkpt lat="40.4864380" lon="-3.4795930">
        <ele>604.0</ele>
        <time>2020-09-29T07:14:06Z</time>
      </trkpt>
      <trkpt lat="40.4864730" lon="-3.4795170">
        <ele>604.0</ele>
        <time>2020-09-29T07:14:07Z</time>
      </trkpt>
      <trkpt lat="40.4864730" lon="-3.4795170">
        <ele>604.0</ele>
        <time>2020-09-29T07:14:08Z</time>
      </trkpt>
      <trkpt lat="40.4865430" lon="-3.4793650">
        <ele>604.0</ele>
        <time>2020-09-29T07:14:09Z</time>
      </trkpt>
      <trkpt lat="40.4865780" lon="-3.4792880">
        <ele>604.0</ele>
        <time>2020-09-29T07:14:10Z</time>
      </trkpt>
      <trkpt lat="40.4865780" lon="-3.4792880">
        <ele>604.0</ele>
        <time>2020-09-29T07:14:11Z</time>
      </trkpt>
      <trkpt lat="40.4866480" lon="-3.4791380">
        <ele>604.0</ele>
        <time>2020-09-29T07:14:12Z</time>
      </trkpt>
      <trkpt lat="40.4866820" lon="-3.4790630">
        <ele>604.0</ele>
        <time>2020-09-29T07:14:13Z</time>
      </trkpt>
      <trkpt lat="40.4866820" lon="-3.4790630">
        <ele>604.0</ele>
        <time>2020-09-29T07:14:14Z</time>
      </trkpt>
      <trkpt lat="40.4867530" lon="-3.4789180">
        <ele>604.0</ele>
        <time>2020-09-29T07:14:15Z</time>
      </trkpt>
      <trkpt lat="40.4867530" lon="-3.4789180">
        <ele>604.0</ele>
        <time>2020-09-29T07:14:16Z</time>
      </trkpt>
      <trkpt lat="40.4868170" lon="-3.4787800">
        <ele>604.0</ele>
        <time>2020-09-29T07:14:17Z</time>
      </trkpt>
      <trkpt lat="40.4868470" lon="-3.4787070">
        <ele>603.0</ele>
        <time>2020-09-29T07:14:18Z</time>
      </trkpt>
      <trkpt lat="40.4868470" lon="-3.4787070">
        <ele>603.0</ele>
        <time>2020-09-29T07:14:19Z</time>
      </trkpt>
      <trkpt lat="40.4868920" lon="-3.4785530">
        <ele>603.0</ele>
        <time>2020-09-29T07:14:20Z</time>
      </trkpt>
      <trkpt lat="40.4869000" lon="-3.4784750">
        <ele>603.0</ele>
        <time>2020-09-29T07:14:21Z</time>
      </trkpt>
      <trkpt lat="40.4869000" lon="-3.4784750">
        <ele>603.0</ele>
        <time>2020-09-29T07:14:22Z</time>
      </trkpt>
      <trkpt lat="40.4868970" lon="-3.4783080">
        <ele>603.0</ele>
        <time>2020-09-29T07:14:23Z</time>
      </trkpt>
      <trkpt lat="40.4868980" lon="-3.4782220">
        <ele>603.0</ele>
        <time>2020-09-29T07:14:24Z</time>
      </trkpt>
      <trkpt lat="40.4868980" lon="-3.4782220">
        <ele>603.0</ele>
        <time>2020-09-29T07:14:25Z</time>
      </trkpt>
      <trkpt lat="40.4869330" lon="-3.4780550">
        <ele>603.0</ele>
        <time>2020-09-29T07:14:26Z</time>
      </trkpt>
      <trkpt lat="40.4869730" lon="-3.4779800">
        <ele>603.0</ele>
        <time>2020-09-29T07:14:27Z</time>
      </trkpt>
      <trkpt lat="40.4869730" lon="-3.4779800">
        <ele>603.0</ele>
        <time>2020-09-29T07:14:28Z</time>
      </trkpt>
      <trkpt lat="40.4870830" lon="-3.4778720">
        <ele>603.0</ele>
        <time>2020-09-29T07:14:29Z</time>
      </trkpt>
      <trkpt lat="40.4871480" lon="-3.4778470">
        <ele>603.0</ele>
        <time>2020-09-29T07:14:30Z</time>
      </trkpt>
      <trkpt lat="40.4872150" lon="-3.4778420">
        <ele>603.0</ele>
        <time>2020-09-29T07:14:31Z</time>
      </trkpt>
      <trkpt lat="40.4872150" lon="-3.4778420">
        <ele>603.0</ele>
        <time>2020-09-29T07:14:32Z</time>
      </trkpt>
      <trkpt lat="40.4873420" lon="-3.4778880">
        <ele>603.0</ele>
        <time>2020-09-29T07:14:33Z</time>
      </trkpt>
      <trkpt lat="40.4873980" lon="-3.4779350">
        <ele>603.0</ele>
        <time>2020-09-29T07:14:34Z</time>
      </trkpt>
      <trkpt lat="40.4873980" lon="-3.4779350">
        <ele>603.0</ele>
        <time>2020-09-29T07:14:35Z</time>
      </trkpt>
      <trkpt lat="40.4875020" lon="-3.4780350">
        <ele>603.0</ele>
        <time>2020-09-29T07:14:36Z</time>
      </trkpt>
      <trkpt lat="40.4875580" lon="-3.4780720">
        <ele>603.0</ele>
        <time>2020-09-29T07:14:37Z</time>
      </trkpt>
      <trkpt lat="40.4875580" lon="-3.4780720">
        <ele>603.0</ele>
        <time>2020-09-29T07:14:38Z</time>
      </trkpt>
      <trkpt lat="40.4876800" lon="-3.4781100">
        <ele>604.0</ele>
        <time>2020-09-29T07:14:39Z</time>
      </trkpt>
      <trkpt lat="40.4877420" lon="-3.4781200">
        <ele>604.0</ele>
        <time>2020-09-29T07:14:40Z</time>
      </trkpt>
      <trkpt lat="40.4877420" lon="-3.4781200">
        <ele>604.0</ele>
        <time>2020-09-29T07:14:41Z</time>
      </trkpt>
      <trkpt lat="40.4878650" lon="-3.4781330">
        <ele>604.0</ele>
        <time>2020-09-29T07:14:42Z</time>
      </trkpt>
      <trkpt lat="40.4879250" lon="-3.4781400">
        <ele>604.0</ele>
        <time>2020-09-29T07:14:43Z</time>
      </trkpt>
      <trkpt lat="40.4879250" lon="-3.4781400">
        <ele>604.0</ele>
        <time>2020-09-29T07:14:44Z</time>
      </trkpt>
      <trkpt lat="40.4880480" lon="-3.4781530">
        <ele>604.0</ele>
        <time>2020-09-29T07:14:45Z</time>
      </trkpt>
      <trkpt lat="40.4880480" lon="-3.4781530">
        <ele>604.0</ele>
        <time>2020-09-29T07:14:46Z</time>
      </trkpt>
      <trkpt lat="40.4881720" lon="-3.4781650">
        <ele>605.0</ele>
        <time>2020-09-29T07:14:47Z</time>
      </trkpt>
      <trkpt lat="40.4881720" lon="-3.4781650">
        <ele>605.0</ele>
        <time>2020-09-29T07:14:48Z</time>
      </trkpt>
      <trkpt lat="40.4882930" lon="-3.4781770">
        <ele>605.0</ele>
        <time>2020-09-29T07:14:49Z</time>
      </trkpt>
      <trkpt lat="40.4882930" lon="-3.4781770">
        <ele>605.0</ele>
        <time>2020-09-29T07:14:50Z</time>
      </trkpt>
      <trkpt lat="40.4884180" lon="-3.4781870">
        <ele>605.0</ele>
        <time>2020-09-29T07:14:51Z</time>
      </trkpt>
      <trkpt lat="40.4884780" lon="-3.4782030">
        <ele>605.0</ele>
        <time>2020-09-29T07:14:52Z</time>
      </trkpt>
      <trkpt lat="40.4885380" lon="-3.4782080">
        <ele>605.0</ele>
        <time>2020-09-29T07:14:53Z</time>
      </trkpt>
      <trkpt lat="40.4886000" lon="-3.4782150">
        <ele>605.0</ele>
        <time>2020-09-29T07:14:54Z</time>
      </trkpt>
      <trkpt lat="40.4886000" lon="-3.4782150">
        <ele>605.0</ele>
        <time>2020-09-29T07:14:55Z</time>
      </trkpt>
      <trkpt lat="40.4887230" lon="-3.4782250">
        <ele>605.0</ele>
        <time>2020-09-29T07:14:56Z</time>
      </trkpt>
      <trkpt lat="40.4887230" lon="-3.4782250">
        <ele>605.0</ele>
        <time>2020-09-29T07:14:57Z</time>
      </trkpt>
      <trkpt lat="40.4888450" lon="-3.4782380">
        <ele>605.0</ele>
        <time>2020-09-29T07:14:58Z</time>
      </trkpt>
      <trkpt lat="40.4888450" lon="-3.4782380">
        <ele>605.0</ele>
        <time>2020-09-29T07:14:59Z</time>
      </trkpt>
      <trkpt lat="40.4889680" lon="-3.4782500">
        <ele>605.0</ele>
        <time>2020-09-29T07:15:00Z</time>
      </trkpt>
      <trkpt lat="40.4889680" lon="-3.4782500">
        <ele>606.0</ele>
        <time>2020-09-29T07:15:01Z</time>
      </trkpt>
      <trkpt lat="40.4890920" lon="-3.4782650">
        <ele>606.0</ele>
        <time>2020-09-29T07:15:02Z</time>
      </trkpt>
      <trkpt lat="40.4890920" lon="-3.4782650">
        <ele>606.0</ele>
        <time>2020-09-29T07:15:03Z</time>
      </trkpt>
      <trkpt lat="40.4892120" lon="-3.4782850">
        <ele>606.0</ele>
        <time>2020-09-29T07:15:04Z</time>
      </trkpt>
      <trkpt lat="40.4892720" lon="-3.4782920">
        <ele>606.0</ele>
        <time>2020-09-29T07:15:05Z</time>
      </trkpt>
      <trkpt lat="40.4892720" lon="-3.4782920">
        <ele>606.0</ele>
        <time>2020-09-29T07:15:06Z</time>
      </trkpt>
      <trkpt lat="40.4893930" lon="-3.4783050">
        <ele>606.0</ele>
        <time>2020-09-29T07:15:07Z</time>
      </trkpt>
      <trkpt lat="40.4894550" lon="-3.4783120">
        <ele>606.0</ele>
        <time>2020-09-29T07:15:08Z</time>
      </trkpt>
      <trkpt lat="40.4895180" lon="-3.4783170">
        <ele>606.0</ele>
        <time>2020-09-29T07:15:09Z</time>
      </trkpt>
      <trkpt lat="40.4895180" lon="-3.4783170">
        <ele>606.0</ele>
        <time>2020-09-29T07:15:10Z</time>
      </trkpt>
      <trkpt lat="40.4896430" lon="-3.4783280">
        <ele>606.0</ele>
        <time>2020-09-29T07:15:11Z</time>
      </trkpt>
      <trkpt lat="40.4897070" lon="-3.4783350">
        <ele>606.0</ele>
        <time>2020-09-29T07:15:12Z</time>
      </trkpt>
      <trkpt lat="40.4897680" lon="-3.4783400">
        <ele>606.0</ele>
        <time>2020-09-29T07:15:13Z</time>
      </trkpt>
      <trkpt lat="40.4897680" lon="-3.4783400">
        <ele>606.0</ele>
        <time>2020-09-29T07:15:14Z</time>
      </trkpt>
      <trkpt lat="40.4898930" lon="-3.4783550">
        <ele>606.0</ele>
        <time>2020-09-29T07:15:15Z</time>
      </trkpt>
      <trkpt lat="40.4898930" lon="-3.4783550">
        <ele>607.0</ele>
        <time>2020-09-29T07:15:16Z</time>
      </trkpt>
      <trkpt lat="40.4900200" lon="-3.4783680">
        <ele>607.0</ele>
        <time>2020-09-29T07:15:17Z</time>
      </trkpt>
      <trkpt lat="40.4900200" lon="-3.4783680">
        <ele>607.0</ele>
        <time>2020-09-29T07:15:18Z</time>
      </trkpt>
      <trkpt lat="40.4901480" lon="-3.4783820">
        <ele>607.0</ele>
        <time>2020-09-29T07:15:19Z</time>
      </trkpt>
      <trkpt lat="40.4901480" lon="-3.4783820">
        <ele>607.0</ele>
        <time>2020-09-29T07:15:20Z</time>
      </trkpt>
      <trkpt lat="40.4902770" lon="-3.4783950">
        <ele>607.0</ele>
        <time>2020-09-29T07:15:21Z</time>
      </trkpt>
      <trkpt lat="40.4902770" lon="-3.4783950">
        <ele>607.0</ele>
        <time>2020-09-29T07:15:22Z</time>
      </trkpt>
      <trkpt lat="40.4904030" lon="-3.4784070">
        <ele>607.0</ele>
        <time>2020-09-29T07:15:23Z</time>
      </trkpt>
      <trkpt lat="40.4904030" lon="-3.4784070">
        <ele>607.0</ele>
        <time>2020-09-29T07:15:24Z</time>
      </trkpt>
      <trkpt lat="40.4905350" lon="-3.4784120">
        <ele>607.0</ele>
        <time>2020-09-29T07:15:25Z</time>
      </trkpt>
      <trkpt lat="40.4905350" lon="-3.4784120">
        <ele>607.0</ele>
        <time>2020-09-29T07:15:26Z</time>
      </trkpt>
      <trkpt lat="40.4906670" lon="-3.4784200">
        <ele>607.0</ele>
        <time>2020-09-29T07:15:27Z</time>
      </trkpt>
      <trkpt lat="40.4906670" lon="-3.4784200">
        <ele>607.0</ele>
        <time>2020-09-29T07:15:28Z</time>
      </trkpt>
      <trkpt lat="40.4907930" lon="-3.4784330">
        <ele>607.0</ele>
        <time>2020-09-29T07:15:29Z</time>
      </trkpt>
      <trkpt lat="40.4907930" lon="-3.4784330">
        <ele>607.0</ele>
        <time>2020-09-29T07:15:30Z</time>
      </trkpt>
      <trkpt lat="40.4909220" lon="-3.4784450">
        <ele>607.0</ele>
        <time>2020-09-29T07:15:31Z</time>
      </trkpt>
      <trkpt lat="40.4909220" lon="-3.4784450">
        <ele>607.0</ele>
        <time>2020-09-29T07:15:32Z</time>
      </trkpt>
      <trkpt lat="40.4910450" lon="-3.4784570">
        <ele>607.0</ele>
        <time>2020-09-29T07:15:33Z</time>
      </trkpt>
      <trkpt lat="40.4910450" lon="-3.4784570">
        <ele>607.0</ele>
        <time>2020-09-29T07:15:34Z</time>
      </trkpt>
      <trkpt lat="40.4911720" lon="-3.4784700">
        <ele>607.0</ele>
        <time>2020-09-29T07:15:35Z</time>
      </trkpt>
      <trkpt lat="40.4911720" lon="-3.4784700">
        <ele>608.0</ele>
        <time>2020-09-29T07:15:36Z</time>
      </trkpt>
      <trkpt lat="40.4912980" lon="-3.4784850">
        <ele>608.0</ele>
        <time>2020-09-29T07:15:37Z</time>
      </trkpt>
      <trkpt lat="40.4912980" lon="-3.4784850">
        <ele>608.0</ele>
        <time>2020-09-29T07:15:38Z</time>
      </trkpt>
      <trkpt lat="40.4914250" lon="-3.4784970">
        <ele>608.0</ele>
        <time>2020-09-29T07:15:39Z</time>
      </trkpt>
      <trkpt lat="40.4914880" lon="-3.4784980">
        <ele>608.0</ele>
        <time>2020-09-29T07:15:40Z</time>
      </trkpt>
      <trkpt lat="40.4914880" lon="-3.4784980">
        <ele>608.0</ele>
        <time>2020-09-29T07:15:41Z</time>
      </trkpt>
      <trkpt lat="40.4916180" lon="-3.4784930">
        <ele>608.0</ele>
        <time>2020-09-29T07:15:42Z</time>
      </trkpt>
      <trkpt lat="40.4916180" lon="-3.4784930">
        <ele>608.0</ele>
        <time>2020-09-29T07:15:43Z</time>
      </trkpt>
      <trkpt lat="40.4917450" lon="-3.4784800">
        <ele>608.0</ele>
        <time>2020-09-29T07:15:44Z</time>
      </trkpt>
      <trkpt lat="40.4918080" lon="-3.4784680">
        <ele>608.0</ele>
        <time>2020-09-29T07:15:45Z</time>
      </trkpt>
      <trkpt lat="40.4918080" lon="-3.4784680">
        <ele>608.0</ele>
        <time>2020-09-29T07:15:46Z</time>
      </trkpt>
      <trkpt lat="40.4919320" lon="-3.4784330">
        <ele>608.0</ele>
        <time>2020-09-29T07:15:47Z</time>
      </trkpt>
      <trkpt lat="40.4919320" lon="-3.4784330">
        <ele>608.0</ele>
        <time>2020-09-29T07:15:48Z</time>
      </trkpt>
      <trkpt lat="40.4920430" lon="-3.4783480">
        <ele>608.0</ele>
        <time>2020-09-29T07:15:49Z</time>
      </trkpt>
      <trkpt lat="40.4920950" lon="-3.4782980">
        <ele>608.0</ele>
        <time>2020-09-29T07:15:50Z</time>
      </trkpt>
      <trkpt lat="40.4920950" lon="-3.4782980">
        <ele>608.0</ele>
        <time>2020-09-29T07:15:51Z</time>
      </trkpt>
      <trkpt lat="40.4922150" lon="-3.4782370">
        <ele>608.0</ele>
        <time>2020-09-29T07:15:52Z</time>
      </trkpt>
      <trkpt lat="40.4922150" lon="-3.4782370">
        <ele>609.0</ele>
        <time>2020-09-29T07:15:53Z</time>
      </trkpt>
      <trkpt lat="40.4923400" lon="-3.4782500">
        <ele>609.0</ele>
        <time>2020-09-29T07:15:54Z</time>
      </trkpt>
      <trkpt lat="40.4923980" lon="-3.4782850">
        <ele>609.0</ele>
        <time>2020-09-29T07:15:55Z</time>
      </trkpt>
      <trkpt lat="40.4923980" lon="-3.4782850">
        <ele>609.0</ele>
        <time>2020-09-29T07:15:56Z</time>
      </trkpt>
      <trkpt lat="40.4924930" lon="-3.4783970">
        <ele>609.0</ele>
        <time>2020-09-29T07:15:57Z</time>
      </trkpt>
      <trkpt lat="40.4925420" lon="-3.4784530">
        <ele>609.0</ele>
        <time>2020-09-29T07:15:58Z</time>
      </trkpt>
      <trkpt lat="40.4925420" lon="-3.4784530">
        <ele>609.0</ele>
        <time>2020-09-29T07:15:59Z</time>
      </trkpt>
      <trkpt lat="40.4926570" lon="-3.4785370">
        <ele>609.0</ele>
        <time>2020-09-29T07:16:00Z</time>
      </trkpt>
      <trkpt lat="40.4927220" lon="-3.4785670">
        <ele>609.0</ele>
        <time>2020-09-29T07:16:01Z</time>
      </trkpt>
      <trkpt lat="40.4927220" lon="-3.4785670">
        <ele>609.0</ele>
        <time>2020-09-29T07:16:02Z</time>
      </trkpt>
      <trkpt lat="40.4928570" lon="-3.4786030">
        <ele>609.0</ele>
        <time>2020-09-29T07:16:03Z</time>
      </trkpt>
      <trkpt lat="40.4928570" lon="-3.4786030">
        <ele>609.0</ele>
        <time>2020-09-29T07:16:04Z</time>
      </trkpt>
      <trkpt lat="40.4929920" lon="-3.4786200">
        <ele>609.0</ele>
        <time>2020-09-29T07:16:05Z</time>
      </trkpt>
      <trkpt lat="40.4929920" lon="-3.4786200">
        <ele>609.0</ele>
        <time>2020-09-29T07:16:06Z</time>
      </trkpt>
      <trkpt lat="40.4931230" lon="-3.4786330">
        <ele>609.0</ele>
        <time>2020-09-29T07:16:07Z</time>
      </trkpt>
      <trkpt lat="40.4931230" lon="-3.4786330">
        <ele>609.0</ele>
        <time>2020-09-29T07:16:08Z</time>
      </trkpt>
      <trkpt lat="40.4932550" lon="-3.4786450">
        <ele>609.0</ele>
        <time>2020-09-29T07:16:09Z</time>
      </trkpt>
      <trkpt lat="40.4932550" lon="-3.4786450">
        <ele>609.0</ele>
        <time>2020-09-29T07:16:10Z</time>
      </trkpt>
      <trkpt lat="40.4933870" lon="-3.4786570">
        <ele>609.0</ele>
        <time>2020-09-29T07:16:11Z</time>
      </trkpt>
      <trkpt lat="40.4933870" lon="-3.4786570">
        <ele>609.0</ele>
        <time>2020-09-29T07:16:12Z</time>
      </trkpt>
      <trkpt lat="40.4935200" lon="-3.4786680">
        <ele>609.0</ele>
        <time>2020-09-29T07:16:13Z</time>
      </trkpt>
      <trkpt lat="40.4935200" lon="-3.4786680">
        <ele>609.0</ele>
        <time>2020-09-29T07:16:14Z</time>
      </trkpt>
      <trkpt lat="40.4936530" lon="-3.4786820">
        <ele>609.0</ele>
        <time>2020-09-29T07:16:15Z</time>
      </trkpt>
      <trkpt lat="40.4936530" lon="-3.4786820">
        <ele>609.0</ele>
        <time>2020-09-29T07:16:16Z</time>
      </trkpt>
      <trkpt lat="40.4937850" lon="-3.4786920">
        <ele>610.0</ele>
        <time>2020-09-29T07:16:17Z</time>
      </trkpt>
      <trkpt lat="40.4937850" lon="-3.4786920">
        <ele>610.0</ele>
        <time>2020-09-29T07:16:18Z</time>
      </trkpt>
      <trkpt lat="40.4939180" lon="-3.4787030">
        <ele>610.0</ele>
        <time>2020-09-29T07:16:19Z</time>
      </trkpt>
      <trkpt lat="40.4939180" lon="-3.4787030">
        <ele>610.0</ele>
        <time>2020-09-29T07:16:20Z</time>
      </trkpt>
      <trkpt lat="40.4940480" lon="-3.4787170">
        <ele>610.0</ele>
        <time>2020-09-29T07:16:21Z</time>
      </trkpt>
      <trkpt lat="40.4941150" lon="-3.4787250">
        <ele>610.0</ele>
        <time>2020-09-29T07:16:22Z</time>
      </trkpt>
      <trkpt lat="40.4941150" lon="-3.4787250">
        <ele>610.0</ele>
        <time>2020-09-29T07:16:23Z</time>
      </trkpt>
      <trkpt lat="40.4942430" lon="-3.4787350">
        <ele>610.0</ele>
        <time>2020-09-29T07:16:24Z</time>
      </trkpt>
      <trkpt lat="40.4943080" lon="-3.4787400">
        <ele>611.0</ele>
        <time>2020-09-29T07:16:25Z</time>
      </trkpt>
      <trkpt lat="40.4943080" lon="-3.4787400">
        <ele>611.0</ele>
        <time>2020-09-29T07:16:26Z</time>
      </trkpt>
      <trkpt lat="40.4944370" lon="-3.4787530">
        <ele>611.0</ele>
        <time>2020-09-29T07:16:27Z</time>
      </trkpt>
      <trkpt lat="40.4944370" lon="-3.4787530">
        <ele>611.0</ele>
        <time>2020-09-29T07:16:28Z</time>
      </trkpt>
      <trkpt lat="40.4945650" lon="-3.4787630">
        <ele>611.0</ele>
        <time>2020-09-29T07:16:29Z</time>
      </trkpt>
      <trkpt lat="40.4946300" lon="-3.4787670">
        <ele>613.0</ele>
        <time>2020-09-29T07:16:30Z</time>
      </trkpt>
      <trkpt lat="40.4946930" lon="-3.4787680">
        <ele>613.0</ele>
        <time>2020-09-29T07:16:31Z</time>
      </trkpt>
      <trkpt lat="40.4946930" lon="-3.4787680">
        <ele>613.0</ele>
        <time>2020-09-29T07:16:32Z</time>
      </trkpt>
      <trkpt lat="40.4948220" lon="-3.4787750">
        <ele>613.0</ele>
        <time>2020-09-29T07:16:33Z</time>
      </trkpt>
      <trkpt lat="40.4948850" lon="-3.4787770">
        <ele>613.0</ele>
        <time>2020-09-29T07:16:34Z</time>
      </trkpt>
      <trkpt lat="40.4948850" lon="-3.4787770">
        <ele>613.0</ele>
        <time>2020-09-29T07:16:35Z</time>
      </trkpt>
      <trkpt lat="40.4950100" lon="-3.4787830">
        <ele>613.0</ele>
        <time>2020-09-29T07:16:36Z</time>
      </trkpt>
      <trkpt lat="40.4950730" lon="-3.4787850">
        <ele>613.0</ele>
        <time>2020-09-29T07:16:37Z</time>
      </trkpt>
      <trkpt lat="40.4951350" lon="-3.4787880">
        <ele>613.0</ele>
        <time>2020-09-29T07:16:38Z</time>
      </trkpt>
      <trkpt lat="40.4951350" lon="-3.4787880">
        <ele>613.0</ele>
        <time>2020-09-29T07:16:39Z</time>
      </trkpt>
      <trkpt lat="40.4952600" lon="-3.4787920">
        <ele>613.0</ele>
        <time>2020-09-29T07:16:40Z</time>
      </trkpt>
      <trkpt lat="40.4952600" lon="-3.4787920">
        <ele>613.0</ele>
        <time>2020-09-29T07:16:41Z</time>
      </trkpt>
      <trkpt lat="40.4953830" lon="-3.4787930">
        <ele>614.0</ele>
        <time>2020-09-29T07:16:42Z</time>
      </trkpt>
      <trkpt lat="40.4953830" lon="-3.4787930">
        <ele>614.0</ele>
        <time>2020-09-29T07:16:43Z</time>
      </trkpt>
      <trkpt lat="40.4955080" lon="-3.4787950">
        <ele>614.0</ele>
        <time>2020-09-29T07:16:44Z</time>
      </trkpt>
      <trkpt lat="40.4955080" lon="-3.4787950">
        <ele>614.0</ele>
        <time>2020-09-29T07:16:45Z</time>
      </trkpt>
      <trkpt lat="40.4956320" lon="-3.4787970">
        <ele>614.0</ele>
        <time>2020-09-29T07:16:46Z</time>
      </trkpt>
      <trkpt lat="40.4956950" lon="-3.4787970">
        <ele>614.0</ele>
        <time>2020-09-29T07:16:47Z</time>
      </trkpt>
      <trkpt lat="40.4957570" lon="-3.4788000">
        <ele>614.0</ele>
        <time>2020-09-29T07:16:48Z</time>
      </trkpt>
      <trkpt lat="40.4957570" lon="-3.4788000">
        <ele>615.0</ele>
        <time>2020-09-29T07:16:49Z</time>
      </trkpt>
      <trkpt lat="40.4958820" lon="-3.4788070">
        <ele>615.0</ele>
        <time>2020-09-29T07:16:50Z</time>
      </trkpt>
      <trkpt lat="40.4958820" lon="-3.4788070">
        <ele>615.0</ele>
        <time>2020-09-29T07:16:51Z</time>
      </trkpt>
      <trkpt lat="40.4960030" lon="-3.4788130">
        <ele>615.0</ele>
        <time>2020-09-29T07:16:52Z</time>
      </trkpt>
      <trkpt lat="40.4960030" lon="-3.4788130">
        <ele>616.0</ele>
        <time>2020-09-29T07:16:53Z</time>
      </trkpt>
      <trkpt lat="40.4961280" lon="-3.4788200">
        <ele>616.0</ele>
        <time>2020-09-29T07:16:54Z</time>
      </trkpt>
      <trkpt lat="40.4961920" lon="-3.4788230">
        <ele>616.0</ele>
        <time>2020-09-29T07:16:55Z</time>
      </trkpt>
      <trkpt lat="40.4961920" lon="-3.4788230">
        <ele>616.0</ele>
        <time>2020-09-29T07:16:56Z</time>
      </trkpt>
      <trkpt lat="40.4963200" lon="-3.4788280">
        <ele>616.0</ele>
        <time>2020-09-29T07:16:57Z</time>
      </trkpt>
      <trkpt lat="40.4963200" lon="-3.4788280">
        <ele>616.0</ele>
        <time>2020-09-29T07:16:58Z</time>
      </trkpt>
      <trkpt lat="40.4964520" lon="-3.4788400">
        <ele>616.0</ele>
        <time>2020-09-29T07:16:59Z</time>
      </trkpt>
      <trkpt lat="40.4965170" lon="-3.4788450">
        <ele>616.0</ele>
        <time>2020-09-29T07:17:00Z</time>
      </trkpt>
      <trkpt lat="40.4965170" lon="-3.4788450">
        <ele>616.0</ele>
        <time>2020-09-29T07:17:01Z</time>
      </trkpt>
      <trkpt lat="40.4966480" lon="-3.4788550">
        <ele>616.0</ele>
        <time>2020-09-29T07:17:02Z</time>
      </trkpt>
      <trkpt lat="40.4967130" lon="-3.4788600">
        <ele>616.0</ele>
        <time>2020-09-29T07:17:03Z</time>
      </trkpt>
      <trkpt lat="40.4967130" lon="-3.4788600">
        <ele>616.0</ele>
        <time>2020-09-29T07:17:04Z</time>
      </trkpt>
      <trkpt lat="40.4968430" lon="-3.4788720">
        <ele>616.0</ele>
        <time>2020-09-29T07:17:05Z</time>
      </trkpt>
      <trkpt lat="40.4969080" lon="-3.4788800">
        <ele>616.0</ele>
        <time>2020-09-29T07:17:06Z</time>
      </trkpt>
      <trkpt lat="40.4969080" lon="-3.4788800">
        <ele>616.0</ele>
        <time>2020-09-29T07:17:07Z</time>
      </trkpt>
      <trkpt lat="40.4970380" lon="-3.4788920">
        <ele>616.0</ele>
        <time>2020-09-29T07:17:08Z</time>
      </trkpt>
      <trkpt lat="40.4971030" lon="-3.4788980">
        <ele>616.0</ele>
        <time>2020-09-29T07:17:09Z</time>
      </trkpt>
      <trkpt lat="40.4971680" lon="-3.4789070">
        <ele>616.0</ele>
        <time>2020-09-29T07:17:10Z</time>
      </trkpt>
      <trkpt lat="40.4971680" lon="-3.4789070">
        <ele>616.0</ele>
        <time>2020-09-29T07:17:11Z</time>
      </trkpt>
      <trkpt lat="40.4972980" lon="-3.4789200">
        <ele>616.0</ele>
        <time>2020-09-29T07:17:12Z</time>
      </trkpt>
      <trkpt lat="40.4973630" lon="-3.4789280">
        <ele>616.0</ele>
        <time>2020-09-29T07:17:13Z</time>
      </trkpt>
      <trkpt lat="40.4973630" lon="-3.4789280">
        <ele>616.0</ele>
        <time>2020-09-29T07:17:14Z</time>
      </trkpt>
      <trkpt lat="40.4974930" lon="-3.4789420">
        <ele>616.0</ele>
        <time>2020-09-29T07:17:15Z</time>
      </trkpt>
      <trkpt lat="40.4975600" lon="-3.4789480">
        <ele>616.0</ele>
        <time>2020-09-29T07:17:16Z</time>
      </trkpt>
      <trkpt lat="40.4976250" lon="-3.4789530">
        <ele>616.0</ele>
        <time>2020-09-29T07:17:17Z</time>
      </trkpt>
      <trkpt lat="40.4976250" lon="-3.4789530">
        <ele>617.0</ele>
        <time>2020-09-29T07:17:18Z</time>
      </trkpt>
      <trkpt lat="40.4977530" lon="-3.4789680">
        <ele>617.0</ele>
        <time>2020-09-29T07:17:19Z</time>
      </trkpt>
      <trkpt lat="40.4977530" lon="-3.4789680">
        <ele>617.0</ele>
        <time>2020-09-29T07:17:20Z</time>
      </trkpt>
      <trkpt lat="40.4978780" lon="-3.4789820">
        <ele>617.0</ele>
        <time>2020-09-29T07:17:21Z</time>
      </trkpt>
      <trkpt lat="40.4979400" lon="-3.4789880">
        <ele>617.0</ele>
        <time>2020-09-29T07:17:22Z</time>
      </trkpt>
      <trkpt lat="40.4979400" lon="-3.4789880">
        <ele>617.0</ele>
        <time>2020-09-29T07:17:23Z</time>
      </trkpt>
      <trkpt lat="40.4980600" lon="-3.4790020">
        <ele>618.0</ele>
        <time>2020-09-29T07:17:24Z</time>
      </trkpt>
      <trkpt lat="40.4981230" lon="-3.4790070">
        <ele>618.0</ele>
        <time>2020-09-29T07:17:25Z</time>
      </trkpt>
      <trkpt lat="40.4981230" lon="-3.4790070">
        <ele>618.0</ele>
        <time>2020-09-29T07:17:26Z</time>
      </trkpt>
      <trkpt lat="40.4982400" lon="-3.4790120">
        <ele>618.0</ele>
        <time>2020-09-29T07:17:27Z</time>
      </trkpt>
      <trkpt lat="40.4982400" lon="-3.4790120">
        <ele>618.0</ele>
        <time>2020-09-29T07:17:28Z</time>
      </trkpt>
      <trkpt lat="40.4983550" lon="-3.4790170">
        <ele>618.0</ele>
        <time>2020-09-29T07:17:29Z</time>
      </trkpt>
      <trkpt lat="40.4983550" lon="-3.4790170">
        <ele>618.0</ele>
        <time>2020-09-29T07:17:30Z</time>
      </trkpt>
      <trkpt lat="40.4984670" lon="-3.4790250">
        <ele>618.0</ele>
        <time>2020-09-29T07:17:31Z</time>
      </trkpt>
      <trkpt lat="40.4984670" lon="-3.4790250">
        <ele>619.0</ele>
        <time>2020-09-29T07:17:32Z</time>
      </trkpt>
      <trkpt lat="40.4985770" lon="-3.4790350">
        <ele>619.0</ele>
        <time>2020-09-29T07:17:33Z</time>
      </trkpt>
      <trkpt lat="40.4986300" lon="-3.4790420">
        <ele>619.0</ele>
        <time>2020-09-29T07:17:34Z</time>
      </trkpt>
      <trkpt lat="40.4986300" lon="-3.4790420">
        <ele>619.0</ele>
        <time>2020-09-29T07:17:35Z</time>
      </trkpt>
      <trkpt lat="40.4987330" lon="-3.4790550">
        <ele>620.0</ele>
        <time>2020-09-29T07:17:36Z</time>
      </trkpt>
      <trkpt lat="40.4987870" lon="-3.4790620">
        <ele>620.0</ele>
        <time>2020-09-29T07:17:37Z</time>
      </trkpt>
      <trkpt lat="40.4987870" lon="-3.4790620">
        <ele>620.0</ele>
        <time>2020-09-29T07:17:38Z</time>
      </trkpt>
      <trkpt lat="40.4988930" lon="-3.4790720">
        <ele>620.0</ele>
        <time>2020-09-29T07:17:39Z</time>
      </trkpt>
      <trkpt lat="40.4988930" lon="-3.4790720">
        <ele>620.0</ele>
        <time>2020-09-29T07:17:40Z</time>
      </trkpt>
      <trkpt lat="40.4989970" lon="-3.4790870">
        <ele>621.0</ele>
        <time>2020-09-29T07:17:41Z</time>
      </trkpt>
      <trkpt lat="40.4989970" lon="-3.4790870">
        <ele>621.0</ele>
        <time>2020-09-29T07:17:42Z</time>
      </trkpt>
      <trkpt lat="40.4991000" lon="-3.4790950">
        <ele>622.0</ele>
        <time>2020-09-29T07:17:43Z</time>
      </trkpt>
      <trkpt lat="40.4991000" lon="-3.4790950">
        <ele>622.0</ele>
        <time>2020-09-29T07:17:44Z</time>
      </trkpt>
      <trkpt lat="40.4992080" lon="-3.4791020">
        <ele>622.0</ele>
        <time>2020-09-29T07:17:45Z</time>
      </trkpt>
      <trkpt lat="40.4992080" lon="-3.4791020">
        <ele>623.0</ele>
        <time>2020-09-29T07:17:46Z</time>
      </trkpt>
      <trkpt lat="40.4993070" lon="-3.4791120">
        <ele>623.0</ele>
        <time>2020-09-29T07:17:47Z</time>
      </trkpt>
      <trkpt lat="40.4993570" lon="-3.4791170">
        <ele>623.0</ele>
        <time>2020-09-29T07:17:48Z</time>
      </trkpt>
      <trkpt lat="40.4994070" lon="-3.4791200">
        <ele>623.0</ele>
        <time>2020-09-29T07:17:49Z</time>
      </trkpt>
      <trkpt lat="40.4994070" lon="-3.4791200">
        <ele>623.0</ele>
        <time>2020-09-29T07:17:50Z</time>
      </trkpt>
      <trkpt lat="40.4995050" lon="-3.4791280">
        <ele>623.0</ele>
        <time>2020-09-29T07:17:51Z</time>
      </trkpt>
      <trkpt lat="40.4995570" lon="-3.4791330">
        <ele>623.0</ele>
        <time>2020-09-29T07:17:52Z</time>
      </trkpt>
      <trkpt lat="40.4995570" lon="-3.4791330">
        <ele>623.0</ele>
        <time>2020-09-29T07:17:53Z</time>
      </trkpt>
      <trkpt lat="40.4996450" lon="-3.4791430">
        <ele>625.0</ele>
        <time>2020-09-29T07:17:54Z</time>
      </trkpt>
      <trkpt lat="40.4996950" lon="-3.4791600">
        <ele>625.0</ele>
        <time>2020-09-29T07:17:55Z</time>
      </trkpt>
      <trkpt lat="40.4996950" lon="-3.4791600">
        <ele>625.0</ele>
        <time>2020-09-29T07:17:56Z</time>
      </trkpt>
      <trkpt lat="40.4997820" lon="-3.4791670">
        <ele>625.0</ele>
        <time>2020-09-29T07:17:57Z</time>
      </trkpt>
      <trkpt lat="40.4997820" lon="-3.4791670">
        <ele>625.0</ele>
        <time>2020-09-29T07:17:58Z</time>
      </trkpt>
      <trkpt lat="40.4998820" lon="-3.4791670">
        <ele>625.0</ele>
        <time>2020-09-29T07:17:59Z</time>
      </trkpt>
      <trkpt lat="40.4998820" lon="-3.4791670">
        <ele>625.0</ele>
        <time>2020-09-29T07:18:00Z</time>
      </trkpt>
      <trkpt lat="40.4999850" lon="-3.4791730">
        <ele>625.0</ele>
        <time>2020-09-29T07:18:01Z</time>
      </trkpt>
      <trkpt lat="40.4999850" lon="-3.4791730">
        <ele>627.0</ele>
        <time>2020-09-29T07:18:02Z</time>
      </trkpt>
      <trkpt lat="40.5000830" lon="-3.4791770">
        <ele>627.0</ele>
        <time>2020-09-29T07:18:03Z</time>
      </trkpt>
      <trkpt lat="40.5001330" lon="-3.4791820">
        <ele>627.0</ele>
        <time>2020-09-29T07:18:04Z</time>
      </trkpt>
      <trkpt lat="40.5001820" lon="-3.4791870">
        <ele>627.0</ele>
        <time>2020-09-29T07:18:05Z</time>
      </trkpt>
      <trkpt lat="40.5001820" lon="-3.4791870">
        <ele>627.0</ele>
        <time>2020-09-29T07:18:06Z</time>
      </trkpt>
      <trkpt lat="40.5002770" lon="-3.4792030">
        <ele>627.0</ele>
        <time>2020-09-29T07:18:07Z</time>
      </trkpt>
      <trkpt lat="40.5002770" lon="-3.4792030">
        <ele>627.0</ele>
        <time>2020-09-29T07:18:08Z</time>
      </trkpt>
      <trkpt lat="40.5003770" lon="-3.4792120">
        <ele>627.0</ele>
        <time>2020-09-29T07:18:09Z</time>
      </trkpt>
      <trkpt lat="40.5004230" lon="-3.4792170">
        <ele>627.0</ele>
        <time>2020-09-29T07:18:10Z</time>
      </trkpt>
      <trkpt lat="40.5004230" lon="-3.4792170">
        <ele>627.0</ele>
        <time>2020-09-29T07:18:11Z</time>
      </trkpt>
      <trkpt lat="40.5005180" lon="-3.4792280">
        <ele>628.0</ele>
        <time>2020-09-29T07:18:12Z</time>
      </trkpt>
      <trkpt lat="40.5005650" lon="-3.4792330">
        <ele>628.0</ele>
        <time>2020-09-29T07:18:13Z</time>
      </trkpt>
      <trkpt lat="40.5005650" lon="-3.4792330">
        <ele>628.0</ele>
        <time>2020-09-29T07:18:14Z</time>
      </trkpt>
      <trkpt lat="40.5006580" lon="-3.4792420">
        <ele>628.0</ele>
        <time>2020-09-29T07:18:15Z</time>
      </trkpt>
      <trkpt lat="40.5007050" lon="-3.4792450">
        <ele>628.0</ele>
        <time>2020-09-29T07:18:16Z</time>
      </trkpt>
      <trkpt lat="40.5007050" lon="-3.4792450">
        <ele>628.0</ele>
        <time>2020-09-29T07:18:17Z</time>
      </trkpt>
      <trkpt lat="40.5008000" lon="-3.4792550">
        <ele>629.0</ele>
        <time>2020-09-29T07:18:18Z</time>
      </trkpt>
      <trkpt lat="40.5008000" lon="-3.4792550">
        <ele>629.0</ele>
        <time>2020-09-29T07:18:19Z</time>
      </trkpt>
      <trkpt lat="40.5008950" lon="-3.4792650">
        <ele>629.0</ele>
        <time>2020-09-29T07:18:20Z</time>
      </trkpt>
      <trkpt lat="40.5009430" lon="-3.4792680">
        <ele>629.0</ele>
        <time>2020-09-29T07:18:21Z</time>
      </trkpt>
      <trkpt lat="40.5009430" lon="-3.4792680">
        <ele>630.0</ele>
        <time>2020-09-29T07:18:22Z</time>
      </trkpt>
      <trkpt lat="40.5010420" lon="-3.4792770">
        <ele>630.0</ele>
        <time>2020-09-29T07:18:23Z</time>
      </trkpt>
      <trkpt lat="40.5010920" lon="-3.4792830">
        <ele>630.0</ele>
        <time>2020-09-29T07:18:24Z</time>
      </trkpt>
      <trkpt lat="40.5010920" lon="-3.4792830">
        <ele>630.0</ele>
        <time>2020-09-29T07:18:25Z</time>
      </trkpt>
      <trkpt lat="40.5011900" lon="-3.4792950">
        <ele>630.0</ele>
        <time>2020-09-29T07:18:26Z</time>
      </trkpt>
      <trkpt lat="40.5012400" lon="-3.4792980">
        <ele>630.0</ele>
        <time>2020-09-29T07:18:27Z</time>
      </trkpt>
      <trkpt lat="40.5012400" lon="-3.4792980">
        <ele>630.0</ele>
        <time>2020-09-29T07:18:28Z</time>
      </trkpt>
      <trkpt lat="40.5013430" lon="-3.4793070">
        <ele>631.0</ele>
        <time>2020-09-29T07:18:29Z</time>
      </trkpt>
      <trkpt lat="40.5013430" lon="-3.4793070">
        <ele>631.0</ele>
        <time>2020-09-29T07:18:30Z</time>
      </trkpt>
      <trkpt lat="40.5014450" lon="-3.4793180">
        <ele>631.0</ele>
        <time>2020-09-29T07:18:31Z</time>
      </trkpt>
      <trkpt lat="40.5014450" lon="-3.4793180">
        <ele>631.0</ele>
        <time>2020-09-29T07:18:32Z</time>
      </trkpt>
      <trkpt lat="40.5015480" lon="-3.4793250">
        <ele>631.0</ele>
        <time>2020-09-29T07:18:33Z</time>
      </trkpt>
      <trkpt lat="40.5016000" lon="-3.4793280">
        <ele>631.0</ele>
        <time>2020-09-29T07:18:34Z</time>
      </trkpt>
      <trkpt lat="40.5016520" lon="-3.4793320">
        <ele>631.0</ele>
        <time>2020-09-29T07:18:35Z</time>
      </trkpt>
      <trkpt lat="40.5016520" lon="-3.4793320">
        <ele>631.0</ele>
        <time>2020-09-29T07:18:36Z</time>
      </trkpt>
      <trkpt lat="40.5017550" lon="-3.4793420">
        <ele>631.0</ele>
        <time>2020-09-29T07:18:37Z</time>
      </trkpt>
      <trkpt lat="40.5017550" lon="-3.4793420">
        <ele>631.0</ele>
        <time>2020-09-29T07:18:38Z</time>
      </trkpt>
      <trkpt lat="40.5018570" lon="-3.4793570">
        <ele>631.0</ele>
        <time>2020-09-29T07:18:39Z</time>
      </trkpt>
      <trkpt lat="40.5018570" lon="-3.4793570">
        <ele>632.0</ele>
        <time>2020-09-29T07:18:40Z</time>
      </trkpt>
      <trkpt lat="40.5019580" lon="-3.4793670">
        <ele>632.0</ele>
        <time>2020-09-29T07:18:41Z</time>
      </trkpt>
      <trkpt lat="40.5019580" lon="-3.4793670">
        <ele>632.0</ele>
        <time>2020-09-29T07:18:42Z</time>
      </trkpt>
      <trkpt lat="40.5020600" lon="-3.4793750">
        <ele>632.0</ele>
        <time>2020-09-29T07:18:43Z</time>
      </trkpt>
      <trkpt lat="40.5021120" lon="-3.4793800">
        <ele>632.0</ele>
        <time>2020-09-29T07:18:44Z</time>
      </trkpt>
      <trkpt lat="40.5021120" lon="-3.4793800">
        <ele>632.0</ele>
        <time>2020-09-29T07:18:45Z</time>
      </trkpt>
      <trkpt lat="40.5022130" lon="-3.4793930">
        <ele>632.0</ele>
        <time>2020-09-29T07:18:46Z</time>
      </trkpt>
      <trkpt lat="40.5022650" lon="-3.4794020">
        <ele>632.0</ele>
        <time>2020-09-29T07:18:47Z</time>
      </trkpt>
      <trkpt lat="40.5023170" lon="-3.4794100">
        <ele>633.0</ele>
        <time>2020-09-29T07:18:48Z</time>
      </trkpt>
      <trkpt lat="40.5023170" lon="-3.4794100">
        <ele>633.0</ele>
        <time>2020-09-29T07:18:49Z</time>
      </trkpt>
      <trkpt lat="40.5024230" lon="-3.4794180">
        <ele>633.0</ele>
        <time>2020-09-29T07:18:50Z</time>
      </trkpt>
      <trkpt lat="40.5024770" lon="-3.4794220">
        <ele>633.0</ele>
        <time>2020-09-29T07:18:51Z</time>
      </trkpt>
      <trkpt lat="40.5024770" lon="-3.4794220">
        <ele>633.0</ele>
        <time>2020-09-29T07:18:52Z</time>
      </trkpt>
      <trkpt lat="40.5025820" lon="-3.4794350">
        <ele>633.0</ele>
        <time>2020-09-29T07:18:53Z</time>
      </trkpt>
      <trkpt lat="40.5025820" lon="-3.4794350">
        <ele>633.0</ele>
        <time>2020-09-29T07:18:54Z</time>
      </trkpt>
      <trkpt lat="40.5026870" lon="-3.4794500">
        <ele>633.0</ele>
        <time>2020-09-29T07:18:55Z</time>
      </trkpt>
      <trkpt lat="40.5026870" lon="-3.4794500">
        <ele>633.0</ele>
        <time>2020-09-29T07:18:56Z</time>
      </trkpt>
      <trkpt lat="40.5027920" lon="-3.4794620">
        <ele>633.0</ele>
        <time>2020-09-29T07:18:57Z</time>
      </trkpt>
      <trkpt lat="40.5027920" lon="-3.4794620">
        <ele>633.0</ele>
        <time>2020-09-29T07:18:58Z</time>
      </trkpt>
      <trkpt lat="40.5028980" lon="-3.4794700">
        <ele>633.0</ele>
        <time>2020-09-29T07:18:59Z</time>
      </trkpt>
      <trkpt lat="40.5028980" lon="-3.4794700">
        <ele>633.0</ele>
        <time>2020-09-29T07:19:00Z</time>
      </trkpt>
      <trkpt lat="40.5030050" lon="-3.4794700">
        <ele>633.0</ele>
        <time>2020-09-29T07:19:01Z</time>
      </trkpt>
      <trkpt lat="40.5030050" lon="-3.4794700">
        <ele>633.0</ele>
        <time>2020-09-29T07:19:02Z</time>
      </trkpt>
      <trkpt lat="40.5031100" lon="-3.4794620">
        <ele>633.0</ele>
        <time>2020-09-29T07:19:03Z</time>
      </trkpt>
      <trkpt lat="40.5031100" lon="-3.4794620">
        <ele>633.0</ele>
        <time>2020-09-29T07:19:04Z</time>
      </trkpt>
      <trkpt lat="40.5032150" lon="-3.4794450">
        <ele>633.0</ele>
        <time>2020-09-29T07:19:05Z</time>
      </trkpt>
      <trkpt lat="40.5032150" lon="-3.4794450">
        <ele>633.0</ele>
        <time>2020-09-29T07:19:06Z</time>
      </trkpt>
      <trkpt lat="40.5033150" lon="-3.4794120">
        <ele>634.0</ele>
        <time>2020-09-29T07:19:07Z</time>
      </trkpt>
      <trkpt lat="40.5033150" lon="-3.4794120">
        <ele>634.0</ele>
        <time>2020-09-29T07:19:08Z</time>
      </trkpt>
      <trkpt lat="40.5034130" lon="-3.4793780">
        <ele>634.0</ele>
        <time>2020-09-29T07:19:09Z</time>
      </trkpt>
      <trkpt lat="40.5034130" lon="-3.4793780">
        <ele>634.0</ele>
        <time>2020-09-29T07:19:10Z</time>
      </trkpt>
      <trkpt lat="40.5035130" lon="-3.4793830">
        <ele>634.0</ele>
        <time>2020-09-29T07:19:11Z</time>
      </trkpt>
      <trkpt lat="40.5035130" lon="-3.4793830">
        <ele>634.0</ele>
        <time>2020-09-29T07:19:12Z</time>
      </trkpt>
      <trkpt lat="40.5036080" lon="-3.4794270">
        <ele>634.0</ele>
        <time>2020-09-29T07:19:13Z</time>
      </trkpt>
      <trkpt lat="40.5036080" lon="-3.4794270">
        <ele>635.0</ele>
        <time>2020-09-29T07:19:14Z</time>
      </trkpt>
      <trkpt lat="40.5036970" lon="-3.4794950">
        <ele>635.0</ele>
        <time>2020-09-29T07:19:15Z</time>
      </trkpt>
      <trkpt lat="40.5036970" lon="-3.4794950">
        <ele>635.0</ele>
        <time>2020-09-29T07:19:16Z</time>
      </trkpt>
      <trkpt lat="40.5037970" lon="-3.4795400">
        <ele>635.0</ele>
        <time>2020-09-29T07:19:17Z</time>
      </trkpt>
      <trkpt lat="40.5038480" lon="-3.4795530">
        <ele>635.0</ele>
        <time>2020-09-29T07:19:18Z</time>
      </trkpt>
      <trkpt lat="40.5038480" lon="-3.4795530">
        <ele>635.0</ele>
        <time>2020-09-29T07:19:19Z</time>
      </trkpt>
      <trkpt lat="40.5039520" lon="-3.4795770">
        <ele>636.0</ele>
        <time>2020-09-29T07:19:20Z</time>
      </trkpt>
      <trkpt lat="40.5040030" lon="-3.4795870">
        <ele>636.0</ele>
        <time>2020-09-29T07:19:21Z</time>
      </trkpt>
      <trkpt lat="40.5040030" lon="-3.4795870">
        <ele>636.0</ele>
        <time>2020-09-29T07:19:22Z</time>
      </trkpt>
      <trkpt lat="40.5041070" lon="-3.4795980">
        <ele>636.0</ele>
        <time>2020-09-29T07:19:23Z</time>
      </trkpt>
      <trkpt lat="40.5041070" lon="-3.4795980">
        <ele>636.0</ele>
        <time>2020-09-29T07:19:24Z</time>
      </trkpt>
      <trkpt lat="40.5042100" lon="-3.4796020">
        <ele>636.0</ele>
        <time>2020-09-29T07:19:25Z</time>
      </trkpt>
      <trkpt lat="40.5042600" lon="-3.4795980">
        <ele>637.0</ele>
        <time>2020-09-29T07:19:26Z</time>
      </trkpt>
      <trkpt lat="40.5042600" lon="-3.4795980">
        <ele>637.0</ele>
        <time>2020-09-29T07:19:27Z</time>
      </trkpt>
      <trkpt lat="40.5043630" lon="-3.4795920">
        <ele>637.0</ele>
        <time>2020-09-29T07:19:28Z</time>
      </trkpt>
      <trkpt lat="40.5044170" lon="-3.4795900">
        <ele>637.0</ele>
        <time>2020-09-29T07:19:29Z</time>
      </trkpt>
      <trkpt lat="40.5044170" lon="-3.4795900">
        <ele>637.0</ele>
        <time>2020-09-29T07:19:30Z</time>
      </trkpt>
      <trkpt lat="40.5045200" lon="-3.4795900">
        <ele>637.0</ele>
        <time>2020-09-29T07:19:31Z</time>
      </trkpt>
      <trkpt lat="40.5045200" lon="-3.4795900">
        <ele>638.0</ele>
        <time>2020-09-29T07:19:32Z</time>
      </trkpt>
      <trkpt lat="40.5046230" lon="-3.4795930">
        <ele>638.0</ele>
        <time>2020-09-29T07:19:33Z</time>
      </trkpt>
      <trkpt lat="40.5046230" lon="-3.4795930">
        <ele>638.0</ele>
        <time>2020-09-29T07:19:34Z</time>
      </trkpt>
      <trkpt lat="40.5047230" lon="-3.4796020">
        <ele>638.0</ele>
        <time>2020-09-29T07:19:35Z</time>
      </trkpt>
      <trkpt lat="40.5047750" lon="-3.4796070">
        <ele>638.0</ele>
        <time>2020-09-29T07:19:36Z</time>
      </trkpt>
      <trkpt lat="40.5048250" lon="-3.4796130">
        <ele>639.0</ele>
        <time>2020-09-29T07:19:37Z</time>
      </trkpt>
      <trkpt lat="40.5048250" lon="-3.4796130">
        <ele>639.0</ele>
        <time>2020-09-29T07:19:38Z</time>
      </trkpt>
      <trkpt lat="40.5049270" lon="-3.4796300">
        <ele>639.0</ele>
        <time>2020-09-29T07:19:39Z</time>
      </trkpt>
      <trkpt lat="40.5049270" lon="-3.4796300">
        <ele>639.0</ele>
        <time>2020-09-29T07:19:40Z</time>
      </trkpt>
      <trkpt lat="40.5050270" lon="-3.4796430">
        <ele>639.0</ele>
        <time>2020-09-29T07:19:41Z</time>
      </trkpt>
      <trkpt lat="40.5050270" lon="-3.4796430">
        <ele>639.0</ele>
        <time>2020-09-29T07:19:42Z</time>
      </trkpt>
      <trkpt lat="40.5051250" lon="-3.4796480">
        <ele>639.0</ele>
        <time>2020-09-29T07:19:43Z</time>
      </trkpt>
      <trkpt lat="40.5051250" lon="-3.4796480">
        <ele>639.0</ele>
        <time>2020-09-29T07:19:44Z</time>
      </trkpt>
      <trkpt lat="40.5052230" lon="-3.4796550">
        <ele>640.0</ele>
        <time>2020-09-29T07:19:45Z</time>
      </trkpt>
      <trkpt lat="40.5052230" lon="-3.4796550">
        <ele>640.0</ele>
        <time>2020-09-29T07:19:46Z</time>
      </trkpt>
      <trkpt lat="40.5053180" lon="-3.4796650">
        <ele>640.0</ele>
        <time>2020-09-29T07:19:47Z</time>
      </trkpt>
      <trkpt lat="40.5053180" lon="-3.4796650">
        <ele>641.0</ele>
        <time>2020-09-29T07:19:48Z</time>
      </trkpt>
      <trkpt lat="40.5054170" lon="-3.4796870">
        <ele>641.0</ele>
        <time>2020-09-29T07:19:49Z</time>
      </trkpt>
      <trkpt lat="40.5054170" lon="-3.4796870">
        <ele>641.0</ele>
        <time>2020-09-29T07:19:50Z</time>
      </trkpt>
      <trkpt lat="40.5055130" lon="-3.4796950">
        <ele>641.0</ele>
        <time>2020-09-29T07:19:51Z</time>
      </trkpt>
      <trkpt lat="40.5055130" lon="-3.4796950">
        <ele>642.0</ele>
        <time>2020-09-29T07:19:52Z</time>
      </trkpt>
      <trkpt lat="40.5056080" lon="-3.4797000">
        <ele>642.0</ele>
        <time>2020-09-29T07:19:53Z</time>
      </trkpt>
      <trkpt lat="40.5056080" lon="-3.4797000">
        <ele>642.0</ele>
        <time>2020-09-29T07:19:54Z</time>
      </trkpt>
      <trkpt lat="40.5057070" lon="-3.4797100">
        <ele>642.0</ele>
        <time>2020-09-29T07:19:55Z</time>
      </trkpt>
      <trkpt lat="40.5057070" lon="-3.4797100">
        <ele>642.0</ele>
        <time>2020-09-29T07:19:56Z</time>
      </trkpt>
      <trkpt lat="40.5058020" lon="-3.4797200">
        <ele>642.0</ele>
        <time>2020-09-29T07:19:57Z</time>
      </trkpt>
      <trkpt lat="40.5058520" lon="-3.4797270">
        <ele>643.0</ele>
        <time>2020-09-29T07:19:58Z</time>
      </trkpt>
      <trkpt lat="40.5059000" lon="-3.4797330">
        <ele>643.0</ele>
        <time>2020-09-29T07:19:59Z</time>
      </trkpt>
      <trkpt lat="40.5059000" lon="-3.4797330">
        <ele>643.0</ele>
        <time>2020-09-29T07:20:00Z</time>
      </trkpt>
      <trkpt lat="40.5059980" lon="-3.4797420">
        <ele>643.0</ele>
        <time>2020-09-29T07:20:01Z</time>
      </trkpt>
      <trkpt lat="40.5059980" lon="-3.4797420">
        <ele>644.0</ele>
        <time>2020-09-29T07:20:02Z</time>
      </trkpt>
      <trkpt lat="40.5060970" lon="-3.4797470">
        <ele>644.0</ele>
        <time>2020-09-29T07:20:03Z</time>
      </trkpt>
      <trkpt lat="40.5061430" lon="-3.4797500">
        <ele>644.0</ele>
        <time>2020-09-29T07:20:04Z</time>
      </trkpt>
      <trkpt lat="40.5061920" lon="-3.4797530">
        <ele>644.0</ele>
        <time>2020-09-29T07:20:05Z</time>
      </trkpt>
      <trkpt lat="40.5061920" lon="-3.4797530">
        <ele>645.0</ele>
        <time>2020-09-29T07:20:06Z</time>
      </trkpt>
      <trkpt lat="40.5062880" lon="-3.4797630">
        <ele>645.0</ele>
        <time>2020-09-29T07:20:07Z</time>
      </trkpt>
      <trkpt lat="40.5062880" lon="-3.4797630">
        <ele>645.0</ele>
        <time>2020-09-29T07:20:08Z</time>
      </trkpt>
      <trkpt lat="40.5063830" lon="-3.4797700">
        <ele>645.0</ele>
        <time>2020-09-29T07:20:09Z</time>
      </trkpt>
      <trkpt lat="40.5063830" lon="-3.4797700">
        <ele>645.0</ele>
        <time>2020-09-29T07:20:10Z</time>
      </trkpt>
      <trkpt lat="40.5064770" lon="-3.4797870">
        <ele>645.0</ele>
        <time>2020-09-29T07:20:11Z</time>
      </trkpt>
      <trkpt lat="40.5064770" lon="-3.4797870">
        <ele>645.0</ele>
        <time>2020-09-29T07:20:12Z</time>
      </trkpt>
      <trkpt lat="40.5065730" lon="-3.4798020">
        <ele>645.0</ele>
        <time>2020-09-29T07:20:13Z</time>
      </trkpt>
      <trkpt lat="40.5065730" lon="-3.4798020">
        <ele>645.0</ele>
        <time>2020-09-29T07:20:14Z</time>
      </trkpt>
      <trkpt lat="40.5066700" lon="-3.4798070">
        <ele>645.0</ele>
        <time>2020-09-29T07:20:15Z</time>
      </trkpt>
      <trkpt lat="40.5067180" lon="-3.4798120">
        <ele>645.0</ele>
        <time>2020-09-29T07:20:16Z</time>
      </trkpt>
      <trkpt lat="40.5067180" lon="-3.4798120">
        <ele>645.0</ele>
        <time>2020-09-29T07:20:17Z</time>
      </trkpt>
      <trkpt lat="40.5068150" lon="-3.4798250">
        <ele>645.0</ele>
        <time>2020-09-29T07:20:18Z</time>
      </trkpt>
      <trkpt lat="40.5068630" lon="-3.4798330">
        <ele>646.0</ele>
        <time>2020-09-29T07:20:19Z</time>
      </trkpt>
      <trkpt lat="40.5068630" lon="-3.4798330">
        <ele>646.0</ele>
        <time>2020-09-29T07:20:20Z</time>
      </trkpt>
      <trkpt lat="40.5069600" lon="-3.4798420">
        <ele>646.0</ele>
        <time>2020-09-29T07:20:21Z</time>
      </trkpt>
      <trkpt lat="40.5070100" lon="-3.4798450">
        <ele>646.0</ele>
        <time>2020-09-29T07:20:22Z</time>
      </trkpt>
      <trkpt lat="40.5070100" lon="-3.4798450">
        <ele>647.0</ele>
        <time>2020-09-29T07:20:23Z</time>
      </trkpt>
      <trkpt lat="40.5071070" lon="-3.4798530">
        <ele>647.0</ele>
        <time>2020-09-29T07:20:24Z</time>
      </trkpt>
      <trkpt lat="40.5071550" lon="-3.4798580">
        <ele>647.0</ele>
        <time>2020-09-29T07:20:25Z</time>
      </trkpt>
      <trkpt lat="40.5071550" lon="-3.4798580">
        <ele>647.0</ele>
        <time>2020-09-29T07:20:26Z</time>
      </trkpt>
      <trkpt lat="40.5072520" lon="-3.4798680">
        <ele>648.0</ele>
        <time>2020-09-29T07:20:27Z</time>
      </trkpt>
      <trkpt lat="40.5073000" lon="-3.4798750">
        <ele>648.0</ele>
        <time>2020-09-29T07:20:28Z</time>
      </trkpt>
      <trkpt lat="40.5073000" lon="-3.4798750">
        <ele>648.0</ele>
        <time>2020-09-29T07:20:29Z</time>
      </trkpt>
      <trkpt lat="40.5074000" lon="-3.4798820">
        <ele>648.0</ele>
        <time>2020-09-29T07:20:30Z</time>
      </trkpt>
      <trkpt lat="40.5074000" lon="-3.4798820">
        <ele>648.0</ele>
        <time>2020-09-29T07:20:31Z</time>
      </trkpt>
      <trkpt lat="40.5075000" lon="-3.4798830">
        <ele>649.0</ele>
        <time>2020-09-29T07:20:32Z</time>
      </trkpt>
      <trkpt lat="40.5075000" lon="-3.4798830">
        <ele>649.0</ele>
        <time>2020-09-29T07:20:33Z</time>
      </trkpt>
      <trkpt lat="40.5076020" lon="-3.4798830">
        <ele>649.0</ele>
        <time>2020-09-29T07:20:34Z</time>
      </trkpt>
      <trkpt lat="40.5076020" lon="-3.4798830">
        <ele>649.0</ele>
        <time>2020-09-29T07:20:35Z</time>
      </trkpt>
      <trkpt lat="40.5077000" lon="-3.4798920">
        <ele>649.0</ele>
        <time>2020-09-29T07:20:36Z</time>
      </trkpt>
      <trkpt lat="40.5077480" lon="-3.4798970">
        <ele>649.0</ele>
        <time>2020-09-29T07:20:37Z</time>
      </trkpt>
      <trkpt lat="40.5077480" lon="-3.4798970">
        <ele>649.0</ele>
        <time>2020-09-29T07:20:38Z</time>
      </trkpt>
      <trkpt lat="40.5078400" lon="-3.4799120">
        <ele>649.0</ele>
        <time>2020-09-29T07:20:39Z</time>
      </trkpt>
      <trkpt lat="40.5078870" lon="-3.4799180">
        <ele>649.0</ele>
        <time>2020-09-29T07:20:40Z</time>
      </trkpt>
      <trkpt lat="40.5079330" lon="-3.4799250">
        <ele>649.0</ele>
        <time>2020-09-29T07:20:41Z</time>
      </trkpt>
      <trkpt lat="40.5079330" lon="-3.4799250">
        <ele>650.0</ele>
        <time>2020-09-29T07:20:42Z</time>
      </trkpt>
      <trkpt lat="40.5080320" lon="-3.4799320">
        <ele>650.0</ele>
        <time>2020-09-29T07:20:43Z</time>
      </trkpt>
      <trkpt lat="40.5080320" lon="-3.4799320">
        <ele>650.0</ele>
        <time>2020-09-29T07:20:44Z</time>
      </trkpt>
      <trkpt lat="40.5081280" lon="-3.4799370">
        <ele>650.0</ele>
        <time>2020-09-29T07:20:45Z</time>
      </trkpt>
      <trkpt lat="40.5081280" lon="-3.4799370">
        <ele>650.0</ele>
        <time>2020-09-29T07:20:46Z</time>
      </trkpt>
      <trkpt lat="40.5082250" lon="-3.4799420">
        <ele>650.0</ele>
        <time>2020-09-29T07:20:47Z</time>
      </trkpt>
      <trkpt lat="40.5082250" lon="-3.4799420">
        <ele>650.0</ele>
        <time>2020-09-29T07:20:48Z</time>
      </trkpt>
      <trkpt lat="40.5083220" lon="-3.4799470">
        <ele>650.0</ele>
        <time>2020-09-29T07:20:49Z</time>
      </trkpt>
      <trkpt lat="40.5083220" lon="-3.4799470">
        <ele>651.0</ele>
        <time>2020-09-29T07:20:50Z</time>
      </trkpt>
      <trkpt lat="40.5084180" lon="-3.4799520">
        <ele>651.0</ele>
        <time>2020-09-29T07:20:51Z</time>
      </trkpt>
      <trkpt lat="40.5084180" lon="-3.4799520">
        <ele>651.0</ele>
        <time>2020-09-29T07:20:52Z</time>
      </trkpt>
      <trkpt lat="40.5085130" lon="-3.4799700">
        <ele>651.0</ele>
        <time>2020-09-29T07:20:53Z</time>
      </trkpt>
      <trkpt lat="40.5085130" lon="-3.4799700">
        <ele>651.0</ele>
        <time>2020-09-29T07:20:54Z</time>
      </trkpt>
      <trkpt lat="40.5086100" lon="-3.4799750">
        <ele>651.0</ele>
        <time>2020-09-29T07:20:55Z</time>
      </trkpt>
      <trkpt lat="40.5086100" lon="-3.4799750">
        <ele>651.0</ele>
        <time>2020-09-29T07:20:56Z</time>
      </trkpt>
      <trkpt lat="40.5087120" lon="-3.4799900">
        <ele>651.0</ele>
        <time>2020-09-29T07:20:57Z</time>
      </trkpt>
      <trkpt lat="40.5087620" lon="-3.4799980">
        <ele>651.0</ele>
        <time>2020-09-29T07:20:58Z</time>
      </trkpt>
      <trkpt lat="40.5087620" lon="-3.4799980">
        <ele>651.0</ele>
        <time>2020-09-29T07:20:59Z</time>
      </trkpt>
      <trkpt lat="40.5088670" lon="-3.4800070">
        <ele>652.0</ele>
        <time>2020-09-29T07:21:00Z</time>
      </trkpt>
      <trkpt lat="40.5088670" lon="-3.4800070">
        <ele>652.0</ele>
        <time>2020-09-29T07:21:01Z</time>
      </trkpt>
      <trkpt lat="40.5089750" lon="-3.4800030">
        <ele>652.0</ele>
        <time>2020-09-29T07:21:02Z</time>
      </trkpt>
      <trkpt lat="40.5089750" lon="-3.4800030">
        <ele>652.0</ele>
        <time>2020-09-29T07:21:03Z</time>
      </trkpt>
      <trkpt lat="40.5090830" lon="-3.4799980">
        <ele>652.0</ele>
        <time>2020-09-29T07:21:04Z</time>
      </trkpt>
      <trkpt lat="40.5090830" lon="-3.4799980">
        <ele>652.0</ele>
        <time>2020-09-29T07:21:05Z</time>
      </trkpt>
      <trkpt lat="40.5091880" lon="-3.4800080">
        <ele>652.0</ele>
        <time>2020-09-29T07:21:06Z</time>
      </trkpt>
      <trkpt lat="40.5092380" lon="-3.4800080">
        <ele>652.0</ele>
        <time>2020-09-29T07:21:07Z</time>
      </trkpt>
      <trkpt lat="40.5092380" lon="-3.4800080">
        <ele>652.0</ele>
        <time>2020-09-29T07:21:08Z</time>
      </trkpt>
      <trkpt lat="40.5093330" lon="-3.4800030">
        <ele>653.0</ele>
        <time>2020-09-29T07:21:09Z</time>
      </trkpt>
      <trkpt lat="40.5093820" lon="-3.4800070">
        <ele>653.0</ele>
        <time>2020-09-29T07:21:10Z</time>
      </trkpt>
      <trkpt lat="40.5093820" lon="-3.4800070">
        <ele>653.0</ele>
        <time>2020-09-29T07:21:11Z</time>
      </trkpt>
      <trkpt lat="40.5094820" lon="-3.4800250">
        <ele>654.0</ele>
        <time>2020-09-29T07:21:12Z</time>
      </trkpt>
      <trkpt lat="40.5094820" lon="-3.4800250">
        <ele>654.0</ele>
        <time>2020-09-29T07:21:13Z</time>
      </trkpt>
      <trkpt lat="40.5095880" lon="-3.4800350">
        <ele>654.0</ele>
        <time>2020-09-29T07:21:14Z</time>
      </trkpt>
      <trkpt lat="40.5095880" lon="-3.4800350">
        <ele>654.0</ele>
        <time>2020-09-29T07:21:15Z</time>
      </trkpt>
      <trkpt lat="40.5097000" lon="-3.4800420">
        <ele>654.0</ele>
        <time>2020-09-29T07:21:16Z</time>
      </trkpt>
      <trkpt lat="40.5097550" lon="-3.4800470">
        <ele>654.0</ele>
        <time>2020-09-29T07:21:17Z</time>
      </trkpt>
      <trkpt lat="40.5098120" lon="-3.4800480">
        <ele>654.0</ele>
        <time>2020-09-29T07:21:18Z</time>
      </trkpt>
      <trkpt lat="40.5098120" lon="-3.4800480">
        <ele>654.0</ele>
        <time>2020-09-29T07:21:19Z</time>
      </trkpt>
      <trkpt lat="40.5099220" lon="-3.4800580">
        <ele>654.0</ele>
        <time>2020-09-29T07:21:20Z</time>
      </trkpt>
      <trkpt lat="40.5099770" lon="-3.4800630">
        <ele>654.0</ele>
        <time>2020-09-29T07:21:21Z</time>
      </trkpt>
      <trkpt lat="40.5099770" lon="-3.4800630">
        <ele>654.0</ele>
        <time>2020-09-29T07:21:22Z</time>
      </trkpt>
      <trkpt lat="40.5100880" lon="-3.4800720">
        <ele>654.0</ele>
        <time>2020-09-29T07:21:23Z</time>
      </trkpt>
      <trkpt lat="40.5100880" lon="-3.4800720">
        <ele>654.0</ele>
        <time>2020-09-29T07:21:24Z</time>
      </trkpt>
      <trkpt lat="40.5101900" lon="-3.4800880">
        <ele>654.0</ele>
        <time>2020-09-29T07:21:25Z</time>
      </trkpt>
      <trkpt lat="40.5101900" lon="-3.4800880">
        <ele>655.0</ele>
        <time>2020-09-29T07:21:26Z</time>
      </trkpt>
      <trkpt lat="40.5102830" lon="-3.4801030">
        <ele>655.0</ele>
        <time>2020-09-29T07:21:27Z</time>
      </trkpt>
      <trkpt lat="40.5102830" lon="-3.4801030">
        <ele>655.0</ele>
        <time>2020-09-29T07:21:28Z</time>
      </trkpt>
      <trkpt lat="40.5103830" lon="-3.4801170">
        <ele>655.0</ele>
        <time>2020-09-29T07:21:29Z</time>
      </trkpt>
      <trkpt lat="40.5103830" lon="-3.4801170">
        <ele>656.0</ele>
        <time>2020-09-29T07:21:30Z</time>
      </trkpt>
      <trkpt lat="40.5104780" lon="-3.4801280">
        <ele>656.0</ele>
        <time>2020-09-29T07:21:31Z</time>
      </trkpt>
      <trkpt lat="40.5104780" lon="-3.4801280">
        <ele>656.0</ele>
        <time>2020-09-29T07:21:32Z</time>
      </trkpt>
      <trkpt lat="40.5105830" lon="-3.4801330">
        <ele>656.0</ele>
        <time>2020-09-29T07:21:33Z</time>
      </trkpt>
      <trkpt lat="40.5105830" lon="-3.4801330">
        <ele>656.0</ele>
        <time>2020-09-29T07:21:34Z</time>
      </trkpt>
      <trkpt lat="40.5106880" lon="-3.4801500">
        <ele>656.0</ele>
        <time>2020-09-29T07:21:35Z</time>
      </trkpt>
      <trkpt lat="40.5106880" lon="-3.4801500">
        <ele>656.0</ele>
        <time>2020-09-29T07:21:36Z</time>
      </trkpt>
      <trkpt lat="40.5107920" lon="-3.4801620">
        <ele>656.0</ele>
        <time>2020-09-29T07:21:37Z</time>
      </trkpt>
      <trkpt lat="40.5107920" lon="-3.4801620">
        <ele>656.0</ele>
        <time>2020-09-29T07:21:38Z</time>
      </trkpt>
      <trkpt lat="40.5108930" lon="-3.4801750">
        <ele>656.0</ele>
        <time>2020-09-29T07:21:39Z</time>
      </trkpt>
      <trkpt lat="40.5109420" lon="-3.4801820">
        <ele>656.0</ele>
        <time>2020-09-29T07:21:40Z</time>
      </trkpt>
      <trkpt lat="40.5109420" lon="-3.4801820">
        <ele>656.0</ele>
        <time>2020-09-29T07:21:41Z</time>
      </trkpt>
      <trkpt lat="40.5110430" lon="-3.4801880">
        <ele>657.0</ele>
        <time>2020-09-29T07:21:42Z</time>
      </trkpt>
      <trkpt lat="40.5110930" lon="-3.4801950">
        <ele>657.0</ele>
        <time>2020-09-29T07:21:43Z</time>
      </trkpt>
      <trkpt lat="40.5110930" lon="-3.4801950">
        <ele>657.0</ele>
        <time>2020-09-29T07:21:44Z</time>
      </trkpt>
      <trkpt lat="40.5111920" lon="-3.4802030">
        <ele>657.0</ele>
        <time>2020-09-29T07:21:45Z</time>
      </trkpt>
      <trkpt lat="40.5111920" lon="-3.4802030">
        <ele>657.0</ele>
        <time>2020-09-29T07:21:46Z</time>
      </trkpt>
      <trkpt lat="40.5112880" lon="-3.4802130">
        <ele>657.0</ele>
        <time>2020-09-29T07:21:47Z</time>
      </trkpt>
      <trkpt lat="40.5112880" lon="-3.4802130">
        <ele>658.0</ele>
        <time>2020-09-29T07:21:48Z</time>
      </trkpt>
      <trkpt lat="40.5113870" lon="-3.4802230">
        <ele>658.0</ele>
        <time>2020-09-29T07:21:49Z</time>
      </trkpt>
      <trkpt lat="40.5113870" lon="-3.4802230">
        <ele>658.0</ele>
        <time>2020-09-29T07:21:50Z</time>
      </trkpt>
      <trkpt lat="40.5114830" lon="-3.4802330">
        <ele>658.0</ele>
        <time>2020-09-29T07:21:51Z</time>
      </trkpt>
      <trkpt lat="40.5114830" lon="-3.4802330">
        <ele>659.0</ele>
        <time>2020-09-29T07:21:52Z</time>
      </trkpt>
      <trkpt lat="40.5115770" lon="-3.4802400">
        <ele>659.0</ele>
        <time>2020-09-29T07:21:53Z</time>
      </trkpt>
      <trkpt lat="40.5116230" lon="-3.4802520">
        <ele>659.0</ele>
        <time>2020-09-29T07:21:54Z</time>
      </trkpt>
      <trkpt lat="40.5116230" lon="-3.4802520">
        <ele>659.0</ele>
        <time>2020-09-29T07:21:55Z</time>
      </trkpt>
      <trkpt lat="40.5117150" lon="-3.4802580">
        <ele>660.0</ele>
        <time>2020-09-29T07:21:56Z</time>
      </trkpt>
      <trkpt lat="40.5117620" lon="-3.4802720">
        <ele>660.0</ele>
        <time>2020-09-29T07:21:57Z</time>
      </trkpt>
      <trkpt lat="40.5117620" lon="-3.4802720">
        <ele>660.0</ele>
        <time>2020-09-29T07:21:58Z</time>
      </trkpt>
      <trkpt lat="40.5118570" lon="-3.4802880">
        <ele>660.0</ele>
        <time>2020-09-29T07:21:59Z</time>
      </trkpt>
      <trkpt lat="40.5118570" lon="-3.4802880">
        <ele>660.0</ele>
        <time>2020-09-29T07:22:00Z</time>
      </trkpt>
      <trkpt lat="40.5119550" lon="-3.4803030">
        <ele>660.0</ele>
        <time>2020-09-29T07:22:01Z</time>
      </trkpt>
      <trkpt lat="40.5119550" lon="-3.4803030">
        <ele>660.0</ele>
        <time>2020-09-29T07:22:02Z</time>
      </trkpt>
      <trkpt lat="40.5120620" lon="-3.4803170">
        <ele>660.0</ele>
        <time>2020-09-29T07:22:03Z</time>
      </trkpt>
      <trkpt lat="40.5121170" lon="-3.4803220">
        <ele>660.0</ele>
        <time>2020-09-29T07:22:04Z</time>
      </trkpt>
      <trkpt lat="40.5121170" lon="-3.4803220">
        <ele>660.0</ele>
        <time>2020-09-29T07:22:05Z</time>
      </trkpt>
      <trkpt lat="40.5122230" lon="-3.4803330">
        <ele>660.0</ele>
        <time>2020-09-29T07:22:06Z</time>
      </trkpt>
      <trkpt lat="40.5122230" lon="-3.4803330">
        <ele>660.0</ele>
        <time>2020-09-29T07:22:07Z</time>
      </trkpt>
      <trkpt lat="40.5123350" lon="-3.4803430">
        <ele>660.0</ele>
        <time>2020-09-29T07:22:08Z</time>
      </trkpt>
      <trkpt lat="40.5123870" lon="-3.4803480">
        <ele>660.0</ele>
        <time>2020-09-29T07:22:09Z</time>
      </trkpt>
      <trkpt lat="40.5123870" lon="-3.4803480">
        <ele>660.0</ele>
        <time>2020-09-29T07:22:10Z</time>
      </trkpt>
      <trkpt lat="40.5124870" lon="-3.4803530">
        <ele>661.0</ele>
        <time>2020-09-29T07:22:11Z</time>
      </trkpt>
      <trkpt lat="40.5125380" lon="-3.4803570">
        <ele>661.0</ele>
        <time>2020-09-29T07:22:12Z</time>
      </trkpt>
      <trkpt lat="40.5125900" lon="-3.4803600">
        <ele>661.0</ele>
        <time>2020-09-29T07:22:13Z</time>
      </trkpt>
      <trkpt lat="40.5125900" lon="-3.4803600">
        <ele>661.0</ele>
        <time>2020-09-29T07:22:14Z</time>
      </trkpt>
      <trkpt lat="40.5126980" lon="-3.4803700">
        <ele>661.0</ele>
        <time>2020-09-29T07:22:15Z</time>
      </trkpt>
      <trkpt lat="40.5127550" lon="-3.4803720">
        <ele>661.0</ele>
        <time>2020-09-29T07:22:16Z</time>
      </trkpt>
      <trkpt lat="40.5128130" lon="-3.4803770">
        <ele>661.0</ele>
        <time>2020-09-29T07:22:17Z</time>
      </trkpt>
      <trkpt lat="40.5128700" lon="-3.4803780">
        <ele>661.0</ele>
        <time>2020-09-29T07:22:18Z</time>
      </trkpt>
      <trkpt lat="40.5128700" lon="-3.4803780">
        <ele>661.0</ele>
        <time>2020-09-29T07:22:19Z</time>
      </trkpt>
      <trkpt lat="40.5129870" lon="-3.4803870">
        <ele>661.0</ele>
        <time>2020-09-29T07:22:20Z</time>
      </trkpt>
      <trkpt lat="40.5130480" lon="-3.4803930">
        <ele>661.0</ele>
        <time>2020-09-29T07:22:21Z</time>
      </trkpt>
      <trkpt lat="40.5130480" lon="-3.4803930">
        <ele>661.0</ele>
        <time>2020-09-29T07:22:22Z</time>
      </trkpt>
      <trkpt lat="40.5131700" lon="-3.4804050">
        <ele>661.0</ele>
        <time>2020-09-29T07:22:23Z</time>
      </trkpt>
      <trkpt lat="40.5131700" lon="-3.4804050">
        <ele>661.0</ele>
        <time>2020-09-29T07:22:24Z</time>
      </trkpt>
      <trkpt lat="40.5132930" lon="-3.4804180">
        <ele>661.0</ele>
        <time>2020-09-29T07:22:25Z</time>
      </trkpt>
      <trkpt lat="40.5132930" lon="-3.4804180">
        <ele>661.0</ele>
        <time>2020-09-29T07:22:26Z</time>
      </trkpt>
      <trkpt lat="40.5134200" lon="-3.4804300">
        <ele>661.0</ele>
        <time>2020-09-29T07:22:27Z</time>
      </trkpt>
      <trkpt lat="40.5134850" lon="-3.4804370">
        <ele>661.0</ele>
        <time>2020-09-29T07:22:28Z</time>
      </trkpt>
      <trkpt lat="40.5134850" lon="-3.4804370">
        <ele>661.0</ele>
        <time>2020-09-29T07:22:29Z</time>
      </trkpt>
      <trkpt lat="40.5136130" lon="-3.4804470">
        <ele>661.0</ele>
        <time>2020-09-29T07:22:30Z</time>
      </trkpt>
      <trkpt lat="40.5136750" lon="-3.4804530">
        <ele>661.0</ele>
        <time>2020-09-29T07:22:31Z</time>
      </trkpt>
      <trkpt lat="40.5136750" lon="-3.4804530">
        <ele>661.0</ele>
        <time>2020-09-29T07:22:32Z</time>
      </trkpt>
      <trkpt lat="40.5138030" lon="-3.4804630">
        <ele>661.0</ele>
        <time>2020-09-29T07:22:33Z</time>
      </trkpt>
      <trkpt lat="40.5138030" lon="-3.4804630">
        <ele>661.0</ele>
        <time>2020-09-29T07:22:34Z</time>
      </trkpt>
      <trkpt lat="40.5139350" lon="-3.4804720">
        <ele>661.0</ele>
        <time>2020-09-29T07:22:35Z</time>
      </trkpt>
      <trkpt lat="40.5139350" lon="-3.4804720">
        <ele>661.0</ele>
        <time>2020-09-29T07:22:36Z</time>
      </trkpt>
      <trkpt lat="40.5140670" lon="-3.4804820">
        <ele>661.0</ele>
        <time>2020-09-29T07:22:37Z</time>
      </trkpt>
      <trkpt lat="40.5140670" lon="-3.4804820">
        <ele>661.0</ele>
        <time>2020-09-29T07:22:38Z</time>
      </trkpt>
      <trkpt lat="40.5141970" lon="-3.4804930">
        <ele>661.0</ele>
        <time>2020-09-29T07:22:39Z</time>
      </trkpt>
      <trkpt lat="40.5141970" lon="-3.4804930">
        <ele>661.0</ele>
        <time>2020-09-29T07:22:40Z</time>
      </trkpt>
      <trkpt lat="40.5143380" lon="-3.4805200">
        <ele>661.0</ele>
        <time>2020-09-29T07:22:41Z</time>
      </trkpt>
      <trkpt lat="40.5143380" lon="-3.4805200">
        <ele>661.0</ele>
        <time>2020-09-29T07:22:42Z</time>
      </trkpt>
      <trkpt lat="40.5144700" lon="-3.4805450">
        <ele>661.0</ele>
        <time>2020-09-29T07:22:43Z</time>
      </trkpt>
      <trkpt lat="40.5144700" lon="-3.4805450">
        <ele>661.0</ele>
        <time>2020-09-29T07:22:44Z</time>
      </trkpt>
      <trkpt lat="40.5146000" lon="-3.4805630">
        <ele>661.0</ele>
        <time>2020-09-29T07:22:45Z</time>
      </trkpt>
      <trkpt lat="40.5146000" lon="-3.4805630">
        <ele>661.0</ele>
        <time>2020-09-29T07:22:46Z</time>
      </trkpt>
      <trkpt lat="40.5147350" lon="-3.4805720">
        <ele>661.0</ele>
        <time>2020-09-29T07:22:47Z</time>
      </trkpt>
      <trkpt lat="40.5147350" lon="-3.4805720">
        <ele>661.0</ele>
        <time>2020-09-29T07:22:48Z</time>
      </trkpt>
      <trkpt lat="40.5148750" lon="-3.4805830">
        <ele>661.0</ele>
        <time>2020-09-29T07:22:49Z</time>
      </trkpt>
      <trkpt lat="40.5148750" lon="-3.4805830">
        <ele>661.0</ele>
        <time>2020-09-29T07:22:50Z</time>
      </trkpt>
      <trkpt lat="40.5150150" lon="-3.4805980">
        <ele>661.0</ele>
        <time>2020-09-29T07:22:51Z</time>
      </trkpt>
      <trkpt lat="40.5150150" lon="-3.4805980">
        <ele>661.0</ele>
        <time>2020-09-29T07:22:52Z</time>
      </trkpt>
      <trkpt lat="40.5151580" lon="-3.4806080">
        <ele>661.0</ele>
        <time>2020-09-29T07:22:53Z</time>
      </trkpt>
      <trkpt lat="40.5151580" lon="-3.4806080">
        <ele>661.0</ele>
        <time>2020-09-29T07:22:54Z</time>
      </trkpt>
      <trkpt lat="40.5153020" lon="-3.4806180">
        <ele>661.0</ele>
        <time>2020-09-29T07:22:55Z</time>
      </trkpt>
      <trkpt lat="40.5153020" lon="-3.4806180">
        <ele>661.0</ele>
        <time>2020-09-29T07:22:56Z</time>
      </trkpt>
      <trkpt lat="40.5154520" lon="-3.4806100">
        <ele>661.0</ele>
        <time>2020-09-29T07:22:57Z</time>
      </trkpt>
      <trkpt lat="40.5154520" lon="-3.4806100">
        <ele>661.0</ele>
        <time>2020-09-29T07:22:58Z</time>
      </trkpt>
      <trkpt lat="40.5155850" lon="-3.4806080">
        <ele>661.0</ele>
        <time>2020-09-29T07:22:59Z</time>
      </trkpt>
      <trkpt lat="40.5155850" lon="-3.4806080">
        <ele>662.0</ele>
        <time>2020-09-29T07:23:00Z</time>
      </trkpt>
      <trkpt lat="40.5157050" lon="-3.4806150">
        <ele>662.0</ele>
        <time>2020-09-29T07:23:01Z</time>
      </trkpt>
      <trkpt lat="40.5157050" lon="-3.4806150">
        <ele>662.0</ele>
        <time>2020-09-29T07:23:02Z</time>
      </trkpt>
      <trkpt lat="40.5158200" lon="-3.4806230">
        <ele>662.0</ele>
        <time>2020-09-29T07:23:03Z</time>
      </trkpt>
      <trkpt lat="40.5158200" lon="-3.4806230">
        <ele>663.0</ele>
        <time>2020-09-29T07:23:04Z</time>
      </trkpt>
      <trkpt lat="40.5159250" lon="-3.4806370">
        <ele>663.0</ele>
        <time>2020-09-29T07:23:05Z</time>
      </trkpt>
      <trkpt lat="40.5159250" lon="-3.4806370">
        <ele>663.0</ele>
        <time>2020-09-29T07:23:06Z</time>
      </trkpt>
      <trkpt lat="40.5160280" lon="-3.4806450">
        <ele>663.0</ele>
        <time>2020-09-29T07:23:07Z</time>
      </trkpt>
      <trkpt lat="40.5160280" lon="-3.4806450">
        <ele>664.0</ele>
        <time>2020-09-29T07:23:08Z</time>
      </trkpt>
      <trkpt lat="40.5161330" lon="-3.4806500">
        <ele>664.0</ele>
        <time>2020-09-29T07:23:09Z</time>
      </trkpt>
      <trkpt lat="40.5161830" lon="-3.4806570">
        <ele>664.0</ele>
        <time>2020-09-29T07:23:10Z</time>
      </trkpt>
      <trkpt lat="40.5161830" lon="-3.4806570">
        <ele>664.0</ele>
        <time>2020-09-29T07:23:11Z</time>
      </trkpt>
      <trkpt lat="40.5162830" lon="-3.4806650">
        <ele>665.0</ele>
        <time>2020-09-29T07:23:12Z</time>
      </trkpt>
      <trkpt lat="40.5163330" lon="-3.4806700">
        <ele>665.0</ele>
        <time>2020-09-29T07:23:13Z</time>
      </trkpt>
      <trkpt lat="40.5163330" lon="-3.4806700">
        <ele>666.0</ele>
        <time>2020-09-29T07:23:14Z</time>
      </trkpt>
      <trkpt lat="40.5164330" lon="-3.4806830">
        <ele>666.0</ele>
        <time>2020-09-29T07:23:15Z</time>
      </trkpt>
      <trkpt lat="40.5164330" lon="-3.4806830">
        <ele>666.0</ele>
        <time>2020-09-29T07:23:16Z</time>
      </trkpt>
      <trkpt lat="40.5165320" lon="-3.4806950">
        <ele>666.0</ele>
        <time>2020-09-29T07:23:17Z</time>
      </trkpt>
      <trkpt lat="40.5165320" lon="-3.4806950">
        <ele>666.0</ele>
        <time>2020-09-29T07:23:18Z</time>
      </trkpt>
      <trkpt lat="40.5166320" lon="-3.4807030">
        <ele>667.0</ele>
        <time>2020-09-29T07:23:19Z</time>
      </trkpt>
      <trkpt lat="40.5166320" lon="-3.4807030">
        <ele>667.0</ele>
        <time>2020-09-29T07:23:20Z</time>
      </trkpt>
      <trkpt lat="40.5167380" lon="-3.4807120">
        <ele>667.0</ele>
        <time>2020-09-29T07:23:21Z</time>
      </trkpt>
      <trkpt lat="40.5167380" lon="-3.4807120">
        <ele>667.0</ele>
        <time>2020-09-29T07:23:22Z</time>
      </trkpt>
      <trkpt lat="40.5168430" lon="-3.4807220">
        <ele>668.0</ele>
        <time>2020-09-29T07:23:23Z</time>
      </trkpt>
      <trkpt lat="40.5168430" lon="-3.4807220">
        <ele>668.0</ele>
        <time>2020-09-29T07:23:24Z</time>
      </trkpt>
      <trkpt lat="40.5169500" lon="-3.4807320">
        <ele>668.0</ele>
        <time>2020-09-29T07:23:25Z</time>
      </trkpt>
      <trkpt lat="40.5169500" lon="-3.4807320">
        <ele>668.0</ele>
        <time>2020-09-29T07:23:26Z</time>
      </trkpt>
      <trkpt lat="40.5170580" lon="-3.4807400">
        <ele>668.0</ele>
        <time>2020-09-29T07:23:27Z</time>
      </trkpt>
      <trkpt lat="40.5170580" lon="-3.4807400">
        <ele>668.0</ele>
        <time>2020-09-29T07:23:28Z</time>
      </trkpt>
      <trkpt lat="40.5171670" lon="-3.4807480">
        <ele>668.0</ele>
        <time>2020-09-29T07:23:29Z</time>
      </trkpt>
      <trkpt lat="40.5171670" lon="-3.4807480">
        <ele>668.0</ele>
        <time>2020-09-29T07:23:30Z</time>
      </trkpt>
      <trkpt lat="40.5172750" lon="-3.4807600">
        <ele>669.0</ele>
        <time>2020-09-29T07:23:31Z</time>
      </trkpt>
      <trkpt lat="40.5172750" lon="-3.4807600">
        <ele>669.0</ele>
        <time>2020-09-29T07:23:32Z</time>
      </trkpt>
      <trkpt lat="40.5173870" lon="-3.4807750">
        <ele>669.0</ele>
        <time>2020-09-29T07:23:33Z</time>
      </trkpt>
      <trkpt lat="40.5173870" lon="-3.4807750">
        <ele>669.0</ele>
        <time>2020-09-29T07:23:34Z</time>
      </trkpt>
      <trkpt lat="40.5175020" lon="-3.4807870">
        <ele>669.0</ele>
        <time>2020-09-29T07:23:35Z</time>
      </trkpt>
      <trkpt lat="40.5175020" lon="-3.4807870">
        <ele>669.0</ele>
        <time>2020-09-29T07:23:36Z</time>
      </trkpt>
      <trkpt lat="40.5176270" lon="-3.4807970">
        <ele>669.0</ele>
        <time>2020-09-29T07:23:37Z</time>
      </trkpt>
      <trkpt lat="40.5176270" lon="-3.4807970">
        <ele>669.0</ele>
        <time>2020-09-29T07:23:38Z</time>
      </trkpt>
      <trkpt lat="40.5177550" lon="-3.4808100">
        <ele>669.0</ele>
        <time>2020-09-29T07:23:39Z</time>
      </trkpt>
      <trkpt lat="40.5178200" lon="-3.4808180">
        <ele>669.0</ele>
        <time>2020-09-29T07:23:40Z</time>
      </trkpt>
      <trkpt lat="40.5178870" lon="-3.4808230">
        <ele>669.0</ele>
        <time>2020-09-29T07:23:41Z</time>
      </trkpt>
      <trkpt lat="40.5178870" lon="-3.4808230">
        <ele>669.0</ele>
        <time>2020-09-29T07:23:42Z</time>
      </trkpt>
      <trkpt lat="40.5180250" lon="-3.4808320">
        <ele>669.0</ele>
        <time>2020-09-29T07:23:43Z</time>
      </trkpt>
      <trkpt lat="40.5180250" lon="-3.4808320">
        <ele>668.0</ele>
        <time>2020-09-29T07:23:44Z</time>
      </trkpt>
      <trkpt lat="40.5181720" lon="-3.4808430">
        <ele>668.0</ele>
        <time>2020-09-29T07:23:45Z</time>
      </trkpt>
      <trkpt lat="40.5181720" lon="-3.4808430">
        <ele>668.0</ele>
        <time>2020-09-29T07:23:46Z</time>
      </trkpt>
      <trkpt lat="40.5183250" lon="-3.4808520">
        <ele>668.0</ele>
        <time>2020-09-29T07:23:47Z</time>
      </trkpt>
      <trkpt lat="40.5184070" lon="-3.4808520">
        <ele>668.0</ele>
        <time>2020-09-29T07:23:48Z</time>
      </trkpt>
      <trkpt lat="40.5184880" lon="-3.4808500">
        <ele>667.0</ele>
        <time>2020-09-29T07:23:49Z</time>
      </trkpt>
      <trkpt lat="40.5184880" lon="-3.4808500">
        <ele>667.0</ele>
        <time>2020-09-29T07:23:50Z</time>
      </trkpt>
      <trkpt lat="40.5186620" lon="-3.4808430">
        <ele>667.0</ele>
        <time>2020-09-29T07:23:51Z</time>
      </trkpt>
      <trkpt lat="40.5187520" lon="-3.4808400">
        <ele>665.0</ele>
        <time>2020-09-29T07:23:52Z</time>
      </trkpt>
      <trkpt lat="40.5188450" lon="-3.4808330">
        <ele>665.0</ele>
        <time>2020-09-29T07:23:53Z</time>
      </trkpt>
      <trkpt lat="40.5188450" lon="-3.4808330">
        <ele>664.0</ele>
        <time>2020-09-29T07:23:54Z</time>
      </trkpt>
      <trkpt lat="40.5190350" lon="-3.4808220">
        <ele>664.0</ele>
        <time>2020-09-29T07:23:55Z</time>
      </trkpt>
      <trkpt lat="40.5190350" lon="-3.4808220">
        <ele>663.0</ele>
        <time>2020-09-29T07:23:56Z</time>
      </trkpt>
      <trkpt lat="40.5192270" lon="-3.4807950">
        <ele>663.0</ele>
        <time>2020-09-29T07:23:57Z</time>
      </trkpt>
      <trkpt lat="40.5193250" lon="-3.4807770">
        <ele>662.0</ele>
        <time>2020-09-29T07:23:58Z</time>
      </trkpt>
      <trkpt lat="40.5193250" lon="-3.4807770">
        <ele>662.0</ele>
        <time>2020-09-29T07:23:59Z</time>
      </trkpt>
      <trkpt lat="40.5195250" lon="-3.4807170">
        <ele>661.0</ele>
        <time>2020-09-29T07:24:00Z</time>
      </trkpt>
      <trkpt lat="40.5196230" lon="-3.4806730">
        <ele>661.0</ele>
        <time>2020-09-29T07:24:01Z</time>
      </trkpt>
      <trkpt lat="40.5196230" lon="-3.4806730">
        <ele>660.0</ele>
        <time>2020-09-29T07:24:02Z</time>
      </trkpt>
      <trkpt lat="40.5198130" lon="-3.4805570">
        <ele>660.0</ele>
        <time>2020-09-29T07:24:03Z</time>
      </trkpt>
      <trkpt lat="40.5198130" lon="-3.4805570">
        <ele>659.0</ele>
        <time>2020-09-29T07:24:04Z</time>
      </trkpt>
      <trkpt lat="40.5199850" lon="-3.4804050">
        <ele>659.0</ele>
        <time>2020-09-29T07:24:05Z</time>
      </trkpt>
      <trkpt lat="40.5199850" lon="-3.4804050">
        <ele>659.0</ele>
        <time>2020-09-29T07:24:06Z</time>
      </trkpt>
      <trkpt lat="40.5201600" lon="-3.4802850">
        <ele>659.0</ele>
        <time>2020-09-29T07:24:07Z</time>
      </trkpt>
      <trkpt lat="40.5201600" lon="-3.4802850">
        <ele>659.0</ele>
        <time>2020-09-29T07:24:08Z</time>
      </trkpt>
      <trkpt lat="40.5203470" lon="-3.4802120">
        <ele>659.0</ele>
        <time>2020-09-29T07:24:09Z</time>
      </trkpt>
      <trkpt lat="40.5203470" lon="-3.4802120">
        <ele>658.0</ele>
        <time>2020-09-29T07:24:10Z</time>
      </trkpt>
      <trkpt lat="40.5205200" lon="-3.4800880">
        <ele>658.0</ele>
        <time>2020-09-29T07:24:11Z</time>
      </trkpt>
      <trkpt lat="40.5205200" lon="-3.4800880">
        <ele>658.0</ele>
        <time>2020-09-29T07:24:12Z</time>
      </trkpt>
      <trkpt lat="40.5206750" lon="-3.4799320">
        <ele>658.0</ele>
        <time>2020-09-29T07:24:13Z</time>
      </trkpt>
      <trkpt lat="40.5207480" lon="-3.4798480">
        <ele>658.0</ele>
        <time>2020-09-29T07:24:14Z</time>
      </trkpt>
      <trkpt lat="40.5207480" lon="-3.4798480">
        <ele>658.0</ele>
        <time>2020-09-29T07:24:15Z</time>
      </trkpt>
      <trkpt lat="40.5208930" lon="-3.4796800">
        <ele>658.0</ele>
        <time>2020-09-29T07:24:16Z</time>
      </trkpt>
      <trkpt lat="40.5208930" lon="-3.4796800">
        <ele>658.0</ele>
        <time>2020-09-29T07:24:17Z</time>
      </trkpt>
      <trkpt lat="40.5210350" lon="-3.4795080">
        <ele>657.0</ele>
        <time>2020-09-29T07:24:18Z</time>
      </trkpt>
      <trkpt lat="40.5210350" lon="-3.4795080">
        <ele>657.0</ele>
        <time>2020-09-29T07:24:19Z</time>
      </trkpt>
      <trkpt lat="40.5211730" lon="-3.4793370">
        <ele>657.0</ele>
        <time>2020-09-29T07:24:20Z</time>
      </trkpt>
      <trkpt lat="40.5211730" lon="-3.4793370">
        <ele>657.0</ele>
        <time>2020-09-29T07:24:21Z</time>
      </trkpt>
      <trkpt lat="40.5213150" lon="-3.4791670">
        <ele>656.0</ele>
        <time>2020-09-29T07:24:22Z</time>
      </trkpt>
      <trkpt lat="40.5213150" lon="-3.4791670">
        <ele>656.0</ele>
        <time>2020-09-29T07:24:23Z</time>
      </trkpt>
      <trkpt lat="40.5214600" lon="-3.4790050">
        <ele>656.0</ele>
        <time>2020-09-29T07:24:24Z</time>
      </trkpt>
      <trkpt lat="40.5215350" lon="-3.4789280">
        <ele>656.0</ele>
        <time>2020-09-29T07:24:25Z</time>
      </trkpt>
      <trkpt lat="40.5215350" lon="-3.4789280">
        <ele>656.0</ele>
        <time>2020-09-29T07:24:26Z</time>
      </trkpt>
      <trkpt lat="40.5216870" lon="-3.4787870">
        <ele>656.0</ele>
        <time>2020-09-29T07:24:27Z</time>
      </trkpt>
      <trkpt lat="40.5216870" lon="-3.4787870">
        <ele>655.0</ele>
        <time>2020-09-29T07:24:28Z</time>
      </trkpt>
      <trkpt lat="40.5218480" lon="-3.4786650">
        <ele>655.0</ele>
        <time>2020-09-29T07:24:29Z</time>
      </trkpt>
      <trkpt lat="40.5218480" lon="-3.4786650">
        <ele>655.0</ele>
        <time>2020-09-29T07:24:30Z</time>
      </trkpt>
      <trkpt lat="40.5220130" lon="-3.4785650">
        <ele>655.0</ele>
        <time>2020-09-29T07:24:31Z</time>
      </trkpt>
      <trkpt lat="40.5220130" lon="-3.4785650">
        <ele>655.0</ele>
        <time>2020-09-29T07:24:32Z</time>
      </trkpt>
      <trkpt lat="40.5221780" lon="-3.4784830">
        <ele>655.0</ele>
        <time>2020-09-29T07:24:33Z</time>
      </trkpt>
      <trkpt lat="40.5221780" lon="-3.4784830">
        <ele>655.0</ele>
        <time>2020-09-29T07:24:34Z</time>
      </trkpt>
      <trkpt lat="40.5223420" lon="-3.4784250">
        <ele>654.0</ele>
        <time>2020-09-29T07:24:35Z</time>
      </trkpt>
      <trkpt lat="40.5224220" lon="-3.4784030">
        <ele>654.0</ele>
        <time>2020-09-29T07:24:36Z</time>
      </trkpt>
      <trkpt lat="40.5224220" lon="-3.4784030">
        <ele>654.0</ele>
        <time>2020-09-29T07:24:37Z</time>
      </trkpt>
      <trkpt lat="40.5225850" lon="-3.4783680">
        <ele>654.0</ele>
        <time>2020-09-29T07:24:38Z</time>
      </trkpt>
      <trkpt lat="40.5225850" lon="-3.4783680">
        <ele>654.0</ele>
        <time>2020-09-29T07:24:39Z</time>
      </trkpt>
      <trkpt lat="40.5227420" lon="-3.4783480">
        <ele>654.0</ele>
        <time>2020-09-29T07:24:40Z</time>
      </trkpt>
      <trkpt lat="40.5227420" lon="-3.4783480">
        <ele>654.0</ele>
        <time>2020-09-29T07:24:41Z</time>
      </trkpt>
      <trkpt lat="40.5228950" lon="-3.4783420">
        <ele>654.0</ele>
        <time>2020-09-29T07:24:42Z</time>
      </trkpt>
      <trkpt lat="40.5229700" lon="-3.4783430">
        <ele>654.0</ele>
        <time>2020-09-29T07:24:43Z</time>
      </trkpt>
      <trkpt lat="40.5229700" lon="-3.4783430">
        <ele>654.0</ele>
        <time>2020-09-29T07:24:44Z</time>
      </trkpt>
      <trkpt lat="40.5231180" lon="-3.4783550">
        <ele>654.0</ele>
        <time>2020-09-29T07:24:45Z</time>
      </trkpt>
      <trkpt lat="40.5231920" lon="-3.4783630">
        <ele>654.0</ele>
        <time>2020-09-29T07:24:46Z</time>
      </trkpt>
      <trkpt lat="40.5232630" lon="-3.4783750">
        <ele>654.0</ele>
        <time>2020-09-29T07:24:47Z</time>
      </trkpt>
      <trkpt lat="40.5233350" lon="-3.4783870">
        <ele>654.0</ele>
        <time>2020-09-29T07:24:48Z</time>
      </trkpt>
      <trkpt lat="40.5233350" lon="-3.4783870">
        <ele>655.0</ele>
        <time>2020-09-29T07:24:49Z</time>
      </trkpt>
      <trkpt lat="40.5234730" lon="-3.4784150">
        <ele>655.0</ele>
        <time>2020-09-29T07:24:50Z</time>
      </trkpt>
      <trkpt lat="40.5235420" lon="-3.4784270">
        <ele>655.0</ele>
        <time>2020-09-29T07:24:51Z</time>
      </trkpt>
      <trkpt lat="40.5235420" lon="-3.4784270">
        <ele>655.0</ele>
        <time>2020-09-29T07:24:52Z</time>
      </trkpt>
      <trkpt lat="40.5236750" lon="-3.4784480">
        <ele>656.0</ele>
        <time>2020-09-29T07:24:53Z</time>
      </trkpt>
      <trkpt lat="40.5236750" lon="-3.4784480">
        <ele>656.0</ele>
        <time>2020-09-29T07:24:54Z</time>
      </trkpt>
      <trkpt lat="40.5238050" lon="-3.4784720">
        <ele>656.0</ele>
        <time>2020-09-29T07:24:55Z</time>
      </trkpt>
      <trkpt lat="40.5238050" lon="-3.4784720">
        <ele>656.0</ele>
        <time>2020-09-29T07:24:56Z</time>
      </trkpt>
      <trkpt lat="40.5239370" lon="-3.4784900">
        <ele>656.0</ele>
        <time>2020-09-29T07:24:57Z</time>
      </trkpt>
      <trkpt lat="40.5240020" lon="-3.4784970">
        <ele>656.0</ele>
        <time>2020-09-29T07:24:58Z</time>
      </trkpt>
      <trkpt lat="40.5240650" lon="-3.4785030">
        <ele>657.0</ele>
        <time>2020-09-29T07:24:59Z</time>
      </trkpt>
      <trkpt lat="40.5240650" lon="-3.4785030">
        <ele>657.0</ele>
        <time>2020-09-29T07:25:00Z</time>
      </trkpt>
      <trkpt lat="40.5241920" lon="-3.4785150">
        <ele>657.0</ele>
        <time>2020-09-29T07:25:01Z</time>
      </trkpt>
      <trkpt lat="40.5241920" lon="-3.4785150">
        <ele>657.0</ele>
        <time>2020-09-29T07:25:02Z</time>
      </trkpt>
      <trkpt lat="40.5243170" lon="-3.4785170">
        <ele>658.0</ele>
        <time>2020-09-29T07:25:03Z</time>
      </trkpt>
      <trkpt lat="40.5243780" lon="-3.4785170">
        <ele>658.0</ele>
        <time>2020-09-29T07:25:04Z</time>
      </trkpt>
      <trkpt lat="40.5243780" lon="-3.4785170">
        <ele>658.0</ele>
        <time>2020-09-29T07:25:05Z</time>
      </trkpt>
      <trkpt lat="40.5245030" lon="-3.4785100">
        <ele>658.0</ele>
        <time>2020-09-29T07:25:06Z</time>
      </trkpt>
      <trkpt lat="40.5245650" lon="-3.4785050">
        <ele>659.0</ele>
        <time>2020-09-29T07:25:07Z</time>
      </trkpt>
      <trkpt lat="40.5245650" lon="-3.4785050">
        <ele>659.0</ele>
        <time>2020-09-29T07:25:08Z</time>
      </trkpt>
      <trkpt lat="40.5246920" lon="-3.4784900">
        <ele>659.0</ele>
        <time>2020-09-29T07:25:09Z</time>
      </trkpt>
      <trkpt lat="40.5246920" lon="-3.4784900">
        <ele>659.0</ele>
        <time>2020-09-29T07:25:10Z</time>
      </trkpt>
      <trkpt lat="40.5248170" lon="-3.4784700">
        <ele>659.0</ele>
        <time>2020-09-29T07:25:11Z</time>
      </trkpt>
      <trkpt lat="40.5248820" lon="-3.4784550">
        <ele>659.0</ele>
        <time>2020-09-29T07:25:12Z</time>
      </trkpt>
      <trkpt lat="40.5248820" lon="-3.4784550">
        <ele>660.0</ele>
        <time>2020-09-29T07:25:13Z</time>
      </trkpt>
      <trkpt lat="40.5250070" lon="-3.4784270">
        <ele>660.0</ele>
        <time>2020-09-29T07:25:14Z</time>
      </trkpt>
      <trkpt lat="40.5250700" lon="-3.4784080">
        <ele>660.0</ele>
        <time>2020-09-29T07:25:15Z</time>
      </trkpt>
      <trkpt lat="40.5250700" lon="-3.4784080">
        <ele>660.0</ele>
        <time>2020-09-29T07:25:16Z</time>
      </trkpt>
      <trkpt lat="40.5251930" lon="-3.4783700">
        <ele>660.0</ele>
        <time>2020-09-29T07:25:17Z</time>
      </trkpt>
      <trkpt lat="40.5252550" lon="-3.4783450">
        <ele>660.0</ele>
        <time>2020-09-29T07:25:18Z</time>
      </trkpt>
      <trkpt lat="40.5253170" lon="-3.4783220">
        <ele>660.0</ele>
        <time>2020-09-29T07:25:19Z</time>
      </trkpt>
      <trkpt lat="40.5253820" lon="-3.4782970">
        <ele>660.0</ele>
        <time>2020-09-29T07:25:20Z</time>
      </trkpt>
      <trkpt lat="40.5253820" lon="-3.4782970">
        <ele>660.0</ele>
        <time>2020-09-29T07:25:21Z</time>
      </trkpt>
      <trkpt lat="40.5255100" lon="-3.4782380">
        <ele>660.0</ele>
        <time>2020-09-29T07:25:22Z</time>
      </trkpt>
      <trkpt lat="40.5255770" lon="-3.4782070">
        <ele>660.0</ele>
        <time>2020-09-29T07:25:23Z</time>
      </trkpt>
      <trkpt lat="40.5255770" lon="-3.4782070">
        <ele>660.0</ele>
        <time>2020-09-29T07:25:24Z</time>
      </trkpt>
      <trkpt lat="40.5257050" lon="-3.4781370">
        <ele>660.0</ele>
        <time>2020-09-29T07:25:25Z</time>
      </trkpt>
      <trkpt lat="40.5257050" lon="-3.4781370">
        <ele>660.0</ele>
        <time>2020-09-29T07:25:26Z</time>
      </trkpt>
      <trkpt lat="40.5258320" lon="-3.4780620">
        <ele>660.0</ele>
        <time>2020-09-29T07:25:27Z</time>
      </trkpt>
      <trkpt lat="40.5258320" lon="-3.4780620">
        <ele>660.0</ele>
        <time>2020-09-29T07:25:28Z</time>
      </trkpt>
      <trkpt lat="40.5259630" lon="-3.4779750">
        <ele>660.0</ele>
        <time>2020-09-29T07:25:29Z</time>
      </trkpt>
      <trkpt lat="40.5259630" lon="-3.4779750">
        <ele>660.0</ele>
        <time>2020-09-29T07:25:30Z</time>
      </trkpt>
      <trkpt lat="40.5260930" lon="-3.4778820">
        <ele>660.0</ele>
        <time>2020-09-29T07:25:31Z</time>
      </trkpt>
      <trkpt lat="40.5260930" lon="-3.4778820">
        <ele>660.0</ele>
        <time>2020-09-29T07:25:32Z</time>
      </trkpt>
      <trkpt lat="40.5262250" lon="-3.4777780">
        <ele>660.0</ele>
        <time>2020-09-29T07:25:33Z</time>
      </trkpt>
      <trkpt lat="40.5262250" lon="-3.4777780">
        <ele>659.0</ele>
        <time>2020-09-29T07:25:34Z</time>
      </trkpt>
      <trkpt lat="40.5263600" lon="-3.4776680">
        <ele>659.0</ele>
        <time>2020-09-29T07:25:35Z</time>
      </trkpt>
      <trkpt lat="40.5263600" lon="-3.4776680">
        <ele>659.0</ele>
        <time>2020-09-29T07:25:36Z</time>
      </trkpt>
      <trkpt lat="40.5264980" lon="-3.4775530">
        <ele>659.0</ele>
        <time>2020-09-29T07:25:37Z</time>
      </trkpt>
      <trkpt lat="40.5265680" lon="-3.4774930">
        <ele>658.0</ele>
        <time>2020-09-29T07:25:38Z</time>
      </trkpt>
      <trkpt lat="40.5266400" lon="-3.4774350">
        <ele>658.0</ele>
        <time>2020-09-29T07:25:39Z</time>
      </trkpt>
      <trkpt lat="40.5266400" lon="-3.4774350">
        <ele>658.0</ele>
        <time>2020-09-29T07:25:40Z</time>
      </trkpt>
      <trkpt lat="40.5267830" lon="-3.4773180">
        <ele>658.0</ele>
        <time>2020-09-29T07:25:41Z</time>
      </trkpt>
      <trkpt lat="40.5267830" lon="-3.4773180">
        <ele>657.0</ele>
        <time>2020-09-29T07:25:42Z</time>
      </trkpt>
      <trkpt lat="40.5269280" lon="-3.4772000">
        <ele>657.0</ele>
        <time>2020-09-29T07:25:43Z</time>
      </trkpt>
      <trkpt lat="40.5269280" lon="-3.4772000">
        <ele>657.0</ele>
        <time>2020-09-29T07:25:44Z</time>
      </trkpt>
      <trkpt lat="40.5270800" lon="-3.4770820">
        <ele>657.0</ele>
        <time>2020-09-29T07:25:45Z</time>
      </trkpt>
      <trkpt lat="40.5270800" lon="-3.4770820">
        <ele>656.0</ele>
        <time>2020-09-29T07:25:46Z</time>
      </trkpt>
      <trkpt lat="40.5272370" lon="-3.4769670">
        <ele>656.0</ele>
        <time>2020-09-29T07:25:47Z</time>
      </trkpt>
      <trkpt lat="40.5272370" lon="-3.4769670">
        <ele>656.0</ele>
        <time>2020-09-29T07:25:48Z</time>
      </trkpt>
      <trkpt lat="40.5273970" lon="-3.4768600">
        <ele>656.0</ele>
        <time>2020-09-29T07:25:49Z</time>
      </trkpt>
      <trkpt lat="40.5273970" lon="-3.4768600">
        <ele>655.0</ele>
        <time>2020-09-29T07:25:50Z</time>
      </trkpt>
      <trkpt lat="40.5275570" lon="-3.4767570">
        <ele>655.0</ele>
        <time>2020-09-29T07:25:51Z</time>
      </trkpt>
      <trkpt lat="40.5276380" lon="-3.4767050">
        <ele>654.0</ele>
        <time>2020-09-29T07:25:52Z</time>
      </trkpt>
      <trkpt lat="40.5277200" lon="-3.4766530">
        <ele>654.0</ele>
        <time>2020-09-29T07:25:53Z</time>
      </trkpt>
      <trkpt lat="40.5277200" lon="-3.4766530">
        <ele>654.0</ele>
        <time>2020-09-29T07:25:54Z</time>
      </trkpt>
      <trkpt lat="40.5278870" lon="-3.4765600">
        <ele>653.0</ele>
        <time>2020-09-29T07:25:55Z</time>
      </trkpt>
      <trkpt lat="40.5278870" lon="-3.4765600">
        <ele>653.0</ele>
        <time>2020-09-29T07:25:56Z</time>
      </trkpt>
      <trkpt lat="40.5280550" lon="-3.4764730">
        <ele>653.0</ele>
        <time>2020-09-29T07:25:57Z</time>
      </trkpt>
      <trkpt lat="40.5281400" lon="-3.4764300">
        <ele>653.0</ele>
        <time>2020-09-29T07:25:58Z</time>
      </trkpt>
      <trkpt lat="40.5281400" lon="-3.4764300">
        <ele>652.0</ele>
        <time>2020-09-29T07:25:59Z</time>
      </trkpt>
      <trkpt lat="40.5283100" lon="-3.4763520">
        <ele>652.0</ele>
        <time>2020-09-29T07:26:00Z</time>
      </trkpt>
      <trkpt lat="40.5283950" lon="-3.4763150">
        <ele>652.0</ele>
        <time>2020-09-29T07:26:01Z</time>
      </trkpt>
      <trkpt lat="40.5283950" lon="-3.4763150">
        <ele>652.0</ele>
        <time>2020-09-29T07:26:02Z</time>
      </trkpt>
      <trkpt lat="40.5285620" lon="-3.4762500">
        <ele>652.0</ele>
        <time>2020-09-29T07:26:03Z</time>
      </trkpt>
      <trkpt lat="40.5285620" lon="-3.4762500">
        <ele>652.0</ele>
        <time>2020-09-29T07:26:04Z</time>
      </trkpt>
      <trkpt lat="40.5287350" lon="-3.4761880">
        <ele>652.0</ele>
        <time>2020-09-29T07:26:05Z</time>
      </trkpt>
      <trkpt lat="40.5288200" lon="-3.4761620">
        <ele>652.0</ele>
        <time>2020-09-29T07:26:06Z</time>
      </trkpt>
      <trkpt lat="40.5288200" lon="-3.4761620">
        <ele>652.0</ele>
        <time>2020-09-29T07:26:07Z</time>
      </trkpt>
      <trkpt lat="40.5289900" lon="-3.4761150">
        <ele>652.0</ele>
        <time>2020-09-29T07:26:08Z</time>
      </trkpt>
      <trkpt lat="40.5289900" lon="-3.4761150">
        <ele>652.0</ele>
        <time>2020-09-29T07:26:09Z</time>
      </trkpt>
      <trkpt lat="40.5291580" lon="-3.4760730">
        <ele>652.0</ele>
        <time>2020-09-29T07:26:10Z</time>
      </trkpt>
      <trkpt lat="40.5292400" lon="-3.4760550">
        <ele>652.0</ele>
        <time>2020-09-29T07:26:11Z</time>
      </trkpt>
      <trkpt lat="40.5292400" lon="-3.4760550">
        <ele>652.0</ele>
        <time>2020-09-29T07:26:12Z</time>
      </trkpt>
      <trkpt lat="40.5294000" lon="-3.4760220">
        <ele>652.0</ele>
        <time>2020-09-29T07:26:13Z</time>
      </trkpt>
      <trkpt lat="40.5294000" lon="-3.4760220">
        <ele>652.0</ele>
        <time>2020-09-29T07:26:14Z</time>
      </trkpt>
      <trkpt lat="40.5295580" lon="-3.4759970">
        <ele>652.0</ele>
        <time>2020-09-29T07:26:15Z</time>
      </trkpt>
      <trkpt lat="40.5296350" lon="-3.4759850">
        <ele>652.0</ele>
        <time>2020-09-29T07:26:16Z</time>
      </trkpt>
      <trkpt lat="40.5296350" lon="-3.4759850">
        <ele>652.0</ele>
        <time>2020-09-29T07:26:17Z</time>
      </trkpt>
      <trkpt lat="40.5297880" lon="-3.4759670">
        <ele>652.0</ele>
        <time>2020-09-29T07:26:18Z</time>
      </trkpt>
      <trkpt lat="40.5298630" lon="-3.4759570">
        <ele>651.0</ele>
        <time>2020-09-29T07:26:19Z</time>
      </trkpt>
      <trkpt lat="40.5298630" lon="-3.4759570">
        <ele>651.0</ele>
        <time>2020-09-29T07:26:20Z</time>
      </trkpt>
      <trkpt lat="40.5300170" lon="-3.4759430">
        <ele>651.0</ele>
        <time>2020-09-29T07:26:21Z</time>
      </trkpt>
      <trkpt lat="40.5300950" lon="-3.4759330">
        <ele>651.0</ele>
        <time>2020-09-29T07:26:22Z</time>
      </trkpt>
      <trkpt lat="40.5301700" lon="-3.4759270">
        <ele>651.0</ele>
        <time>2020-09-29T07:26:23Z</time>
      </trkpt>
      <trkpt lat="40.5301700" lon="-3.4759270">
        <ele>651.0</ele>
        <time>2020-09-29T07:26:24Z</time>
      </trkpt>
      <trkpt lat="40.5303200" lon="-3.4759120">
        <ele>651.0</ele>
        <time>2020-09-29T07:26:25Z</time>
      </trkpt>
      <trkpt lat="40.5303200" lon="-3.4759120">
        <ele>651.0</ele>
        <time>2020-09-29T07:26:26Z</time>
      </trkpt>
      <trkpt lat="40.5304680" lon="-3.4759020">
        <ele>652.0</ele>
        <time>2020-09-29T07:26:27Z</time>
      </trkpt>
      <trkpt lat="40.5304680" lon="-3.4759020">
        <ele>652.0</ele>
        <time>2020-09-29T07:26:28Z</time>
      </trkpt>
      <trkpt lat="40.5306200" lon="-3.4758850">
        <ele>652.0</ele>
        <time>2020-09-29T07:26:29Z</time>
      </trkpt>
      <trkpt lat="40.5306200" lon="-3.4758850">
        <ele>652.0</ele>
        <time>2020-09-29T07:26:30Z</time>
      </trkpt>
      <trkpt lat="40.5307630" lon="-3.4758700">
        <ele>652.0</ele>
        <time>2020-09-29T07:26:31Z</time>
      </trkpt>
      <trkpt lat="40.5307630" lon="-3.4758700">
        <ele>652.0</ele>
        <time>2020-09-29T07:26:32Z</time>
      </trkpt>
      <trkpt lat="40.5309050" lon="-3.4758530">
        <ele>652.0</ele>
        <time>2020-09-29T07:26:33Z</time>
      </trkpt>
      <trkpt lat="40.5309050" lon="-3.4758530">
        <ele>652.0</ele>
        <time>2020-09-29T07:26:34Z</time>
      </trkpt>
      <trkpt lat="40.5310470" lon="-3.4758380">
        <ele>652.0</ele>
        <time>2020-09-29T07:26:35Z</time>
      </trkpt>
      <trkpt lat="40.5310470" lon="-3.4758380">
        <ele>653.0</ele>
        <time>2020-09-29T07:26:36Z</time>
      </trkpt>
      <trkpt lat="40.5311830" lon="-3.4758220">
        <ele>653.0</ele>
        <time>2020-09-29T07:26:37Z</time>
      </trkpt>
      <trkpt lat="40.5312520" lon="-3.4758100">
        <ele>653.0</ele>
        <time>2020-09-29T07:26:38Z</time>
      </trkpt>
      <trkpt lat="40.5312520" lon="-3.4758100">
        <ele>653.0</ele>
        <time>2020-09-29T07:26:39Z</time>
      </trkpt>
      <trkpt lat="40.5313880" lon="-3.4757850">
        <ele>653.0</ele>
        <time>2020-09-29T07:26:40Z</time>
      </trkpt>
      <trkpt lat="40.5314580" lon="-3.4757700">
        <ele>653.0</ele>
        <time>2020-09-29T07:26:41Z</time>
      </trkpt>
      <trkpt lat="40.5314580" lon="-3.4757700">
        <ele>653.0</ele>
        <time>2020-09-29T07:26:42Z</time>
      </trkpt>
      <trkpt lat="40.5315930" lon="-3.4757370">
        <ele>653.0</ele>
        <time>2020-09-29T07:26:43Z</time>
      </trkpt>
      <trkpt lat="40.5315930" lon="-3.4757370">
        <ele>653.0</ele>
        <time>2020-09-29T07:26:44Z</time>
      </trkpt>
      <trkpt lat="40.5317250" lon="-3.4756970">
        <ele>653.0</ele>
        <time>2020-09-29T07:26:45Z</time>
      </trkpt>
      <trkpt lat="40.5317900" lon="-3.4756750">
        <ele>654.0</ele>
        <time>2020-09-29T07:26:46Z</time>
      </trkpt>
      <trkpt lat="40.5318530" lon="-3.4756550">
        <ele>654.0</ele>
        <time>2020-09-29T07:26:47Z</time>
      </trkpt>
      <trkpt lat="40.5319130" lon="-3.4756320">
        <ele>654.0</ele>
        <time>2020-09-29T07:26:48Z</time>
      </trkpt>
      <trkpt lat="40.5319730" lon="-3.4756080">
        <ele>654.0</ele>
        <time>2020-09-29T07:26:49Z</time>
      </trkpt>
      <trkpt lat="40.5319730" lon="-3.4756080">
        <ele>654.0</ele>
        <time>2020-09-29T07:26:50Z</time>
      </trkpt>
      <trkpt lat="40.5320970" lon="-3.4755620">
        <ele>654.0</ele>
        <time>2020-09-29T07:26:51Z</time>
      </trkpt>
      <trkpt lat="40.5320970" lon="-3.4755620">
        <ele>655.0</ele>
        <time>2020-09-29T07:26:52Z</time>
      </trkpt>
      <trkpt lat="40.5322170" lon="-3.4755100">
        <ele>655.0</ele>
        <time>2020-09-29T07:26:53Z</time>
      </trkpt>
      <trkpt lat="40.5322170" lon="-3.4755100">
        <ele>655.0</ele>
        <time>2020-09-29T07:26:54Z</time>
      </trkpt>
      <trkpt lat="40.5323330" lon="-3.4754580">
        <ele>655.0</ele>
        <time>2020-09-29T07:26:55Z</time>
      </trkpt>
      <trkpt lat="40.5323330" lon="-3.4754580">
        <ele>655.0</ele>
        <time>2020-09-29T07:26:56Z</time>
      </trkpt>
      <trkpt lat="40.5324480" lon="-3.4754050">
        <ele>655.0</ele>
        <time>2020-09-29T07:26:57Z</time>
      </trkpt>
      <trkpt lat="40.5324480" lon="-3.4754050">
        <ele>656.0</ele>
        <time>2020-09-29T07:26:58Z</time>
      </trkpt>
      <trkpt lat="40.5325570" lon="-3.4753480">
        <ele>656.0</ele>
        <time>2020-09-29T07:26:59Z</time>
      </trkpt>
      <trkpt lat="40.5325570" lon="-3.4753480">
        <ele>656.0</ele>
        <time>2020-09-29T07:27:00Z</time>
      </trkpt>
      <trkpt lat="40.5326620" lon="-3.4752900">
        <ele>656.0</ele>
        <time>2020-09-29T07:27:01Z</time>
      </trkpt>
      <trkpt lat="40.5326620" lon="-3.4752900">
        <ele>657.0</ele>
        <time>2020-09-29T07:27:02Z</time>
      </trkpt>
      <trkpt lat="40.5327620" lon="-3.4752330">
        <ele>657.0</ele>
        <time>2020-09-29T07:27:03Z</time>
      </trkpt>
      <trkpt lat="40.5327620" lon="-3.4752330">
        <ele>657.0</ele>
        <time>2020-09-29T07:27:04Z</time>
      </trkpt>
      <trkpt lat="40.5328550" lon="-3.4751730">
        <ele>657.0</ele>
        <time>2020-09-29T07:27:05Z</time>
      </trkpt>
      <trkpt lat="40.5328550" lon="-3.4751730">
        <ele>658.0</ele>
        <time>2020-09-29T07:27:06Z</time>
      </trkpt>
      <trkpt lat="40.5329450" lon="-3.4751170">
        <ele>658.0</ele>
        <time>2020-09-29T07:27:07Z</time>
      </trkpt>
      <trkpt lat="40.5329900" lon="-3.4750880">
        <ele>658.0</ele>
        <time>2020-09-29T07:27:08Z</time>
      </trkpt>
      <trkpt lat="40.5330350" lon="-3.4750600">
        <ele>658.0</ele>
        <time>2020-09-29T07:27:09Z</time>
      </trkpt>
      <trkpt lat="40.5330350" lon="-3.4750600">
        <ele>658.0</ele>
        <time>2020-09-29T07:27:10Z</time>
      </trkpt>
      <trkpt lat="40.5331220" lon="-3.4749970">
        <ele>658.0</ele>
        <time>2020-09-29T07:27:11Z</time>
      </trkpt>
      <trkpt lat="40.5331630" lon="-3.4749650">
        <ele>658.0</ele>
        <time>2020-09-29T07:27:12Z</time>
      </trkpt>
      <trkpt lat="40.5331630" lon="-3.4749650">
        <ele>658.0</ele>
        <time>2020-09-29T07:27:13Z</time>
      </trkpt>
      <trkpt lat="40.5332480" lon="-3.4749070">
        <ele>659.0</ele>
        <time>2020-09-29T07:27:14Z</time>
      </trkpt>
      <trkpt lat="40.5332900" lon="-3.4748750">
        <ele>659.0</ele>
        <time>2020-09-29T07:27:15Z</time>
      </trkpt>
      <trkpt lat="40.5332900" lon="-3.4748750">
        <ele>659.0</ele>
        <time>2020-09-29T07:27:16Z</time>
      </trkpt>
      <trkpt lat="40.5333700" lon="-3.4748120">
        <ele>661.0</ele>
        <time>2020-09-29T07:27:17Z</time>
      </trkpt>
      <trkpt lat="40.5333700" lon="-3.4748120">
        <ele>661.0</ele>
        <time>2020-09-29T07:27:18Z</time>
      </trkpt>
      <trkpt lat="40.5334520" lon="-3.4747500">
        <ele>661.0</ele>
        <time>2020-09-29T07:27:19Z</time>
      </trkpt>
      <trkpt lat="40.5334520" lon="-3.4747500">
        <ele>661.0</ele>
        <time>2020-09-29T07:27:20Z</time>
      </trkpt>
      <trkpt lat="40.5335230" lon="-3.4746930">
        <ele>661.0</ele>
        <time>2020-09-29T07:27:21Z</time>
      </trkpt>
      <trkpt lat="40.5335230" lon="-3.4746930">
        <ele>661.0</ele>
        <time>2020-09-29T07:27:22Z</time>
      </trkpt>
      <trkpt lat="40.5335970" lon="-3.4746380">
        <ele>663.0</ele>
        <time>2020-09-29T07:27:23Z</time>
      </trkpt>
      <trkpt lat="40.5335970" lon="-3.4746380">
        <ele>663.0</ele>
        <time>2020-09-29T07:27:24Z</time>
      </trkpt>
      <trkpt lat="40.5336650" lon="-3.4745870">
        <ele>663.0</ele>
        <time>2020-09-29T07:27:25Z</time>
      </trkpt>
      <trkpt lat="40.5336650" lon="-3.4745870">
        <ele>663.0</ele>
        <time>2020-09-29T07:27:26Z</time>
      </trkpt>
      <trkpt lat="40.5337350" lon="-3.4745350">
        <ele>664.0</ele>
        <time>2020-09-29T07:27:27Z</time>
      </trkpt>
      <trkpt lat="40.5337680" lon="-3.4745100">
        <ele>664.0</ele>
        <time>2020-09-29T07:27:28Z</time>
      </trkpt>
      <trkpt lat="40.5337680" lon="-3.4745100">
        <ele>664.0</ele>
        <time>2020-09-29T07:27:29Z</time>
      </trkpt>
      <trkpt lat="40.5338400" lon="-3.4744580">
        <ele>664.0</ele>
        <time>2020-09-29T07:27:30Z</time>
      </trkpt>
      <trkpt lat="40.5338750" lon="-3.4744350">
        <ele>664.0</ele>
        <time>2020-09-29T07:27:31Z</time>
      </trkpt>
      <trkpt lat="40.5338750" lon="-3.4744350">
        <ele>664.0</ele>
        <time>2020-09-29T07:27:32Z</time>
      </trkpt>
      <trkpt lat="40.5339470" lon="-3.4743900">
        <ele>664.0</ele>
        <time>2020-09-29T07:27:33Z</time>
      </trkpt>
      <trkpt lat="40.5339470" lon="-3.4743900">
        <ele>664.0</ele>
        <time>2020-09-29T07:27:34Z</time>
      </trkpt>
      <trkpt lat="40.5340200" lon="-3.4743450">
        <ele>666.0</ele>
        <time>2020-09-29T07:27:35Z</time>
      </trkpt>
      <trkpt lat="40.5340200" lon="-3.4743450">
        <ele>666.0</ele>
        <time>2020-09-29T07:27:36Z</time>
      </trkpt>
      <trkpt lat="40.5340950" lon="-3.4743020">
        <ele>666.0</ele>
        <time>2020-09-29T07:27:37Z</time>
      </trkpt>
      <trkpt lat="40.5340950" lon="-3.4743020">
        <ele>666.0</ele>
        <time>2020-09-29T07:27:38Z</time>
      </trkpt>
      <trkpt lat="40.5341720" lon="-3.4742620">
        <ele>666.0</ele>
        <time>2020-09-29T07:27:39Z</time>
      </trkpt>
      <trkpt lat="40.5341720" lon="-3.4742620">
        <ele>666.0</ele>
        <time>2020-09-29T07:27:40Z</time>
      </trkpt>
      <trkpt lat="40.5342470" lon="-3.4742230">
        <ele>666.0</ele>
        <time>2020-09-29T07:27:41Z</time>
      </trkpt>
      <trkpt lat="40.5342850" lon="-3.4742050">
        <ele>666.0</ele>
        <time>2020-09-29T07:27:42Z</time>
      </trkpt>
      <trkpt lat="40.5343220" lon="-3.4741870">
        <ele>667.0</ele>
        <time>2020-09-29T07:27:43Z</time>
      </trkpt>
      <trkpt lat="40.5343220" lon="-3.4741870">
        <ele>667.0</ele>
        <time>2020-09-29T07:27:44Z</time>
      </trkpt>
      <trkpt lat="40.5344000" lon="-3.4741550">
        <ele>667.0</ele>
        <time>2020-09-29T07:27:45Z</time>
      </trkpt>
      <trkpt lat="40.5344000" lon="-3.4741550">
        <ele>667.0</ele>
        <time>2020-09-29T07:27:46Z</time>
      </trkpt>
      <trkpt lat="40.5344800" lon="-3.4741250">
        <ele>668.0</ele>
        <time>2020-09-29T07:27:47Z</time>
      </trkpt>
      <trkpt lat="40.5344800" lon="-3.4741250">
        <ele>668.0</ele>
        <time>2020-09-29T07:27:48Z</time>
      </trkpt>
      <trkpt lat="40.5345600" lon="-3.4740970">
        <ele>668.0</ele>
        <time>2020-09-29T07:27:49Z</time>
      </trkpt>
      <trkpt lat="40.5345600" lon="-3.4740970">
        <ele>668.0</ele>
        <time>2020-09-29T07:27:50Z</time>
      </trkpt>
      <trkpt lat="40.5346430" lon="-3.4740720">
        <ele>669.0</ele>
        <time>2020-09-29T07:27:51Z</time>
      </trkpt>
      <trkpt lat="40.5346430" lon="-3.4740720">
        <ele>669.0</ele>
        <time>2020-09-29T07:27:52Z</time>
      </trkpt>
      <trkpt lat="40.5347270" lon="-3.4740500">
        <ele>669.0</ele>
        <time>2020-09-29T07:27:53Z</time>
      </trkpt>
      <trkpt lat="40.5347270" lon="-3.4740500">
        <ele>669.0</ele>
        <time>2020-09-29T07:27:54Z</time>
      </trkpt>
      <trkpt lat="40.5348100" lon="-3.4740320">
        <ele>670.0</ele>
        <time>2020-09-29T07:27:55Z</time>
      </trkpt>
      <trkpt lat="40.5348100" lon="-3.4740320">
        <ele>670.0</ele>
        <time>2020-09-29T07:27:56Z</time>
      </trkpt>
      <trkpt lat="40.5348980" lon="-3.4740150">
        <ele>670.0</ele>
        <time>2020-09-29T07:27:57Z</time>
      </trkpt>
      <trkpt lat="40.5348980" lon="-3.4740150">
        <ele>670.0</ele>
        <time>2020-09-29T07:27:58Z</time>
      </trkpt>
      <trkpt lat="40.5349900" lon="-3.4740020">
        <ele>670.0</ele>
        <time>2020-09-29T07:27:59Z</time>
      </trkpt>
      <trkpt lat="40.5350370" lon="-3.4739950">
        <ele>671.0</ele>
        <time>2020-09-29T07:28:00Z</time>
      </trkpt>
      <trkpt lat="40.5350850" lon="-3.4739880">
        <ele>671.0</ele>
        <time>2020-09-29T07:28:01Z</time>
      </trkpt>
      <trkpt lat="40.5350850" lon="-3.4739880">
        <ele>671.0</ele>
        <time>2020-09-29T07:28:02Z</time>
      </trkpt>
      <trkpt lat="40.5351780" lon="-3.4739800">
        <ele>671.0</ele>
        <time>2020-09-29T07:28:03Z</time>
      </trkpt>
      <trkpt lat="40.5351780" lon="-3.4739800">
        <ele>671.0</ele>
        <time>2020-09-29T07:28:04Z</time>
      </trkpt>
      <trkpt lat="40.5352750" lon="-3.4739750">
        <ele>671.0</ele>
        <time>2020-09-29T07:28:05Z</time>
      </trkpt>
      <trkpt lat="40.5352750" lon="-3.4739750">
        <ele>671.0</ele>
        <time>2020-09-29T07:28:06Z</time>
      </trkpt>
      <trkpt lat="40.5353730" lon="-3.4739750">
        <ele>671.0</ele>
        <time>2020-09-29T07:28:07Z</time>
      </trkpt>
      <trkpt lat="40.5353730" lon="-3.4739750">
        <ele>671.0</ele>
        <time>2020-09-29T07:28:08Z</time>
      </trkpt>
      <trkpt lat="40.5354770" lon="-3.4739750">
        <ele>671.0</ele>
        <time>2020-09-29T07:28:09Z</time>
      </trkpt>
      <trkpt lat="40.5355270" lon="-3.4739800">
        <ele>672.0</ele>
        <time>2020-09-29T07:28:10Z</time>
      </trkpt>
      <trkpt lat="40.5355270" lon="-3.4739800">
        <ele>672.0</ele>
        <time>2020-09-29T07:28:11Z</time>
      </trkpt>
      <trkpt lat="40.5356300" lon="-3.4739870">
        <ele>672.0</ele>
        <time>2020-09-29T07:28:12Z</time>
      </trkpt>
      <trkpt lat="40.5356830" lon="-3.4739900">
        <ele>672.0</ele>
        <time>2020-09-29T07:28:13Z</time>
      </trkpt>
      <trkpt lat="40.5356830" lon="-3.4739900">
        <ele>672.0</ele>
        <time>2020-09-29T07:28:14Z</time>
      </trkpt>
      <trkpt lat="40.5357870" lon="-3.4739950">
        <ele>672.0</ele>
        <time>2020-09-29T07:28:15Z</time>
      </trkpt>
      <trkpt lat="40.5357870" lon="-3.4739950">
        <ele>672.0</ele>
        <time>2020-09-29T07:28:16Z</time>
      </trkpt>
      <trkpt lat="40.5358930" lon="-3.4740000">
        <ele>672.0</ele>
        <time>2020-09-29T07:28:17Z</time>
      </trkpt>
      <trkpt lat="40.5358930" lon="-3.4740000">
        <ele>672.0</ele>
        <time>2020-09-29T07:28:18Z</time>
      </trkpt>
      <trkpt lat="40.5359980" lon="-3.4740070">
        <ele>672.0</ele>
        <time>2020-09-29T07:28:19Z</time>
      </trkpt>
      <trkpt lat="40.5360520" lon="-3.4740100">
        <ele>672.0</ele>
        <time>2020-09-29T07:28:20Z</time>
      </trkpt>
      <trkpt lat="40.5360520" lon="-3.4740100">
        <ele>672.0</ele>
        <time>2020-09-29T07:28:21Z</time>
      </trkpt>
      <trkpt lat="40.5361570" lon="-3.4740170">
        <ele>672.0</ele>
        <time>2020-09-29T07:28:22Z</time>
      </trkpt>
      <trkpt lat="40.5361570" lon="-3.4740170">
        <ele>672.0</ele>
        <time>2020-09-29T07:28:23Z</time>
      </trkpt>
      <trkpt lat="40.5362620" lon="-3.4740220">
        <ele>672.0</ele>
        <time>2020-09-29T07:28:24Z</time>
      </trkpt>
      <trkpt lat="40.5363130" lon="-3.4740230">
        <ele>672.0</ele>
        <time>2020-09-29T07:28:25Z</time>
      </trkpt>
      <trkpt lat="40.5363130" lon="-3.4740230">
        <ele>672.0</ele>
        <time>2020-09-29T07:28:26Z</time>
      </trkpt>
      <trkpt lat="40.5364200" lon="-3.4740280">
        <ele>672.0</ele>
        <time>2020-09-29T07:28:27Z</time>
      </trkpt>
      <trkpt lat="40.5364730" lon="-3.4740320">
        <ele>673.0</ele>
        <time>2020-09-29T07:28:28Z</time>
      </trkpt>
      <trkpt lat="40.5365270" lon="-3.4740350">
        <ele>673.0</ele>
        <time>2020-09-29T07:28:29Z</time>
      </trkpt>
      <trkpt lat="40.5365270" lon="-3.4740350">
        <ele>673.0</ele>
        <time>2020-09-29T07:28:30Z</time>
      </trkpt>
      <trkpt lat="40.5366330" lon="-3.4740420">
        <ele>673.0</ele>
        <time>2020-09-29T07:28:31Z</time>
      </trkpt>
      <trkpt lat="40.5366330" lon="-3.4740420">
        <ele>673.0</ele>
        <time>2020-09-29T07:28:32Z</time>
      </trkpt>
      <trkpt lat="40.5367400" lon="-3.4740480">
        <ele>673.0</ele>
        <time>2020-09-29T07:28:33Z</time>
      </trkpt>
      <trkpt lat="40.5367400" lon="-3.4740480">
        <ele>673.0</ele>
        <time>2020-09-29T07:28:34Z</time>
      </trkpt>
      <trkpt lat="40.5368470" lon="-3.4740530">
        <ele>674.0</ele>
        <time>2020-09-29T07:28:35Z</time>
      </trkpt>
      <trkpt lat="40.5368470" lon="-3.4740530">
        <ele>674.0</ele>
        <time>2020-09-29T07:28:36Z</time>
      </trkpt>
      <trkpt lat="40.5369530" lon="-3.4740580">
        <ele>674.0</ele>
        <time>2020-09-29T07:28:37Z</time>
      </trkpt>
      <trkpt lat="40.5369530" lon="-3.4740580">
        <ele>674.0</ele>
        <time>2020-09-29T07:28:38Z</time>
      </trkpt>
      <trkpt lat="40.5370620" lon="-3.4740600">
        <ele>674.0</ele>
        <time>2020-09-29T07:28:39Z</time>
      </trkpt>
      <trkpt lat="40.5370620" lon="-3.4740600">
        <ele>674.0</ele>
        <time>2020-09-29T07:28:40Z</time>
      </trkpt>
      <trkpt lat="40.5371700" lon="-3.4740600">
        <ele>674.0</ele>
        <time>2020-09-29T07:28:41Z</time>
      </trkpt>
      <trkpt lat="40.5371700" lon="-3.4740600">
        <ele>674.0</ele>
        <time>2020-09-29T07:28:42Z</time>
      </trkpt>
      <trkpt lat="40.5372730" lon="-3.4740500">
        <ele>675.0</ele>
        <time>2020-09-29T07:28:43Z</time>
      </trkpt>
      <trkpt lat="40.5372730" lon="-3.4740500">
        <ele>675.0</ele>
        <time>2020-09-29T07:28:44Z</time>
      </trkpt>
      <trkpt lat="40.5373770" lon="-3.4740380">
        <ele>675.0</ele>
        <time>2020-09-29T07:28:45Z</time>
      </trkpt>
      <trkpt lat="40.5373770" lon="-3.4740380">
        <ele>675.0</ele>
        <time>2020-09-29T07:28:46Z</time>
      </trkpt>
      <trkpt lat="40.5374800" lon="-3.4740200">
        <ele>675.0</ele>
        <time>2020-09-29T07:28:47Z</time>
      </trkpt>
      <trkpt lat="40.5375320" lon="-3.4740030">
        <ele>675.0</ele>
        <time>2020-09-29T07:28:48Z</time>
      </trkpt>
      <trkpt lat="40.5375830" lon="-3.4739770">
        <ele>676.0</ele>
        <time>2020-09-29T07:28:49Z</time>
      </trkpt>
      <trkpt lat="40.5375830" lon="-3.4739770">
        <ele>676.0</ele>
        <time>2020-09-29T07:28:50Z</time>
      </trkpt>
      <trkpt lat="40.5376770" lon="-3.4738900">
        <ele>676.0</ele>
        <time>2020-09-29T07:28:51Z</time>
      </trkpt>
      <trkpt lat="40.5376770" lon="-3.4738900">
        <ele>676.0</ele>
        <time>2020-09-29T07:28:52Z</time>
      </trkpt>
      <trkpt lat="40.5377670" lon="-3.4737800">
        <ele>676.0</ele>
        <time>2020-09-29T07:28:53Z</time>
      </trkpt>
      <trkpt lat="40.5377670" lon="-3.4737800">
        <ele>676.0</ele>
        <time>2020-09-29T07:28:54Z</time>
      </trkpt>
      <trkpt lat="40.5378780" lon="-3.4736870">
        <ele>676.0</ele>
        <time>2020-09-29T07:28:55Z</time>
      </trkpt>
      <trkpt lat="40.5378780" lon="-3.4736870">
        <ele>676.0</ele>
        <time>2020-09-29T07:28:56Z</time>
      </trkpt>
      <trkpt lat="40.5379880" lon="-3.4735820">
        <ele>676.0</ele>
        <time>2020-09-29T07:28:57Z</time>
      </trkpt>
      <trkpt lat="40.5379880" lon="-3.4735820">
        <ele>675.0</ele>
        <time>2020-09-29T07:28:58Z</time>
      </trkpt>
      <trkpt lat="40.5380730" lon="-3.4734280">
        <ele>675.0</ele>
        <time>2020-09-29T07:28:59Z</time>
      </trkpt>
      <trkpt lat="40.5380730" lon="-3.4734280">
        <ele>675.0</ele>
        <time>2020-09-29T07:29:00Z</time>
      </trkpt>
      <trkpt lat="40.5381520" lon="-3.4732600">
        <ele>675.0</ele>
        <time>2020-09-29T07:29:01Z</time>
      </trkpt>
      <trkpt lat="40.5381520" lon="-3.4732600">
        <ele>675.0</ele>
        <time>2020-09-29T07:29:02Z</time>
      </trkpt>
      <trkpt lat="40.5382250" lon="-3.4730850">
        <ele>674.0</ele>
        <time>2020-09-29T07:29:03Z</time>
      </trkpt>
      <trkpt lat="40.5382250" lon="-3.4730850">
        <ele>674.0</ele>
        <time>2020-09-29T07:29:04Z</time>
      </trkpt>
      <trkpt lat="40.5382930" lon="-3.4729100">
        <ele>674.0</ele>
        <time>2020-09-29T07:29:05Z</time>
      </trkpt>
      <trkpt lat="40.5382930" lon="-3.4729100">
        <ele>674.0</ele>
        <time>2020-09-29T07:29:06Z</time>
      </trkpt>
      <trkpt lat="40.5383580" lon="-3.4727350">
        <ele>673.0</ele>
        <time>2020-09-29T07:29:07Z</time>
      </trkpt>
      <trkpt lat="40.5383580" lon="-3.4727350">
        <ele>673.0</ele>
        <time>2020-09-29T07:29:08Z</time>
      </trkpt>
      <trkpt lat="40.5384230" lon="-3.4725620">
        <ele>673.0</ele>
        <time>2020-09-29T07:29:09Z</time>
      </trkpt>
      <trkpt lat="40.5384530" lon="-3.4724770">
        <ele>673.0</ele>
        <time>2020-09-29T07:29:10Z</time>
      </trkpt>
      <trkpt lat="40.5384830" lon="-3.4723920">
        <ele>673.0</ele>
        <time>2020-09-29T07:29:11Z</time>
      </trkpt>
      <trkpt lat="40.5384830" lon="-3.4723920">
        <ele>673.0</ele>
        <time>2020-09-29T07:29:12Z</time>
      </trkpt>
      <trkpt lat="40.5385330" lon="-3.4722200">
        <ele>673.0</ele>
        <time>2020-09-29T07:29:13Z</time>
      </trkpt>
      <trkpt lat="40.5385330" lon="-3.4722200">
        <ele>673.0</ele>
        <time>2020-09-29T07:29:14Z</time>
      </trkpt>
      <trkpt lat="40.5385750" lon="-3.4720450">
        <ele>673.0</ele>
        <time>2020-09-29T07:29:15Z</time>
      </trkpt>
      <trkpt lat="40.5385750" lon="-3.4720450">
        <ele>673.0</ele>
        <time>2020-09-29T07:29:16Z</time>
      </trkpt>
      <trkpt lat="40.5386020" lon="-3.4718670">
        <ele>673.0</ele>
        <time>2020-09-29T07:29:17Z</time>
      </trkpt>
      <trkpt lat="40.5386020" lon="-3.4718670">
        <ele>674.0</ele>
        <time>2020-09-29T07:29:18Z</time>
      </trkpt>
      <trkpt lat="40.5385820" lon="-3.4716900">
        <ele>674.0</ele>
        <time>2020-09-29T07:29:19Z</time>
      </trkpt>
      <trkpt lat="40.5385600" lon="-3.4716030">
        <ele>674.0</ele>
        <time>2020-09-29T07:29:20Z</time>
      </trkpt>
      <trkpt lat="40.5385600" lon="-3.4716030">
        <ele>674.0</ele>
        <time>2020-09-29T07:29:21Z</time>
      </trkpt>
      <trkpt lat="40.5385330" lon="-3.4714200">
        <ele>674.0</ele>
        <time>2020-09-29T07:29:22Z</time>
      </trkpt>
      <trkpt lat="40.5385330" lon="-3.4714200">
        <ele>674.0</ele>
        <time>2020-09-29T07:29:23Z</time>
      </trkpt>
      <trkpt lat="40.5385530" lon="-3.4712380">
        <ele>674.0</ele>
        <time>2020-09-29T07:29:24Z</time>
      </trkpt>
      <trkpt lat="40.5385530" lon="-3.4712380">
        <ele>674.0</ele>
        <time>2020-09-29T07:29:25Z</time>
      </trkpt>
      <trkpt lat="40.5386170" lon="-3.4710700">
        <ele>674.0</ele>
        <time>2020-09-29T07:29:26Z</time>
      </trkpt>
      <trkpt lat="40.5386650" lon="-3.4709980">
        <ele>674.0</ele>
        <time>2020-09-29T07:29:27Z</time>
      </trkpt>
      <trkpt lat="40.5386650" lon="-3.4709980">
        <ele>674.0</ele>
        <time>2020-09-29T07:29:28Z</time>
      </trkpt>
      <trkpt lat="40.5387830" lon="-3.4708950">
        <ele>674.0</ele>
        <time>2020-09-29T07:29:29Z</time>
      </trkpt>
      <trkpt lat="40.5387830" lon="-3.4708950">
        <ele>674.0</ele>
        <time>2020-09-29T07:29:30Z</time>
      </trkpt>
      <trkpt lat="40.5389170" lon="-3.4708520">
        <ele>674.0</ele>
        <time>2020-09-29T07:29:31Z</time>
      </trkpt>
      <trkpt lat="40.5389170" lon="-3.4708520">
        <ele>674.0</ele>
        <time>2020-09-29T07:29:32Z</time>
      </trkpt>
      <trkpt lat="40.5390530" lon="-3.4708650">
        <ele>674.0</ele>
        <time>2020-09-29T07:29:33Z</time>
      </trkpt>
      <trkpt lat="40.5390530" lon="-3.4708650">
        <ele>674.0</ele>
        <time>2020-09-29T07:29:34Z</time>
      </trkpt>
      <trkpt lat="40.5391800" lon="-3.4709380">
        <ele>674.0</ele>
        <time>2020-09-29T07:29:35Z</time>
      </trkpt>
      <trkpt lat="40.5392350" lon="-3.4709930">
        <ele>674.0</ele>
        <time>2020-09-29T07:29:36Z</time>
      </trkpt>
      <trkpt lat="40.5392350" lon="-3.4709930">
        <ele>674.0</ele>
        <time>2020-09-29T07:29:37Z</time>
      </trkpt>
      <trkpt lat="40.5393370" lon="-3.4711150">
        <ele>674.0</ele>
        <time>2020-09-29T07:29:38Z</time>
      </trkpt>
      <trkpt lat="40.5393370" lon="-3.4711150">
        <ele>674.0</ele>
        <time>2020-09-29T07:29:39Z</time>
      </trkpt>
      <trkpt lat="40.5394570" lon="-3.4712250">
        <ele>674.0</ele>
        <time>2020-09-29T07:29:40Z</time>
      </trkpt>
      <trkpt lat="40.5395250" lon="-3.4712600">
        <ele>674.0</ele>
        <time>2020-09-29T07:29:41Z</time>
      </trkpt>
      <trkpt lat="40.5395250" lon="-3.4712600">
        <ele>674.0</ele>
        <time>2020-09-29T07:29:42Z</time>
      </trkpt>
      <trkpt lat="40.5396620" lon="-3.4713080">
        <ele>674.0</ele>
        <time>2020-09-29T07:29:43Z</time>
      </trkpt>
      <trkpt lat="40.5396620" lon="-3.4713080">
        <ele>674.0</ele>
        <time>2020-09-29T07:29:44Z</time>
      </trkpt>
      <trkpt lat="40.5398000" lon="-3.4713580">
        <ele>674.0</ele>
        <time>2020-09-29T07:29:45Z</time>
      </trkpt>
      <trkpt lat="40.5398700" lon="-3.4713850">
        <ele>674.0</ele>
        <time>2020-09-29T07:29:46Z</time>
      </trkpt>
      <trkpt lat="40.5398700" lon="-3.4713850">
        <ele>674.0</ele>
        <time>2020-09-29T07:29:47Z</time>
      </trkpt>
      <trkpt lat="40.5400220" lon="-3.4714320">
        <ele>674.0</ele>
        <time>2020-09-29T07:29:48Z</time>
      </trkpt>
      <trkpt lat="40.5400970" lon="-3.4714570">
        <ele>674.0</ele>
        <time>2020-09-29T07:29:49Z</time>
      </trkpt>
      <trkpt lat="40.5400970" lon="-3.4714570">
        <ele>674.0</ele>
        <time>2020-09-29T07:29:50Z</time>
      </trkpt>
      <trkpt lat="40.5402530" lon="-3.4715150">
        <ele>674.0</ele>
        <time>2020-09-29T07:29:51Z</time>
      </trkpt>
      <trkpt lat="40.5402530" lon="-3.4715150">
        <ele>673.0</ele>
        <time>2020-09-29T07:29:52Z</time>
      </trkpt>
      <trkpt lat="40.5404130" lon="-3.4715870">
        <ele>673.0</ele>
        <time>2020-09-29T07:29:53Z</time>
      </trkpt>
      <trkpt lat="40.5404950" lon="-3.4716280">
        <ele>673.0</ele>
        <time>2020-09-29T07:29:54Z</time>
      </trkpt>
      <trkpt lat="40.5405750" lon="-3.4716720">
        <ele>673.0</ele>
        <time>2020-09-29T07:29:55Z</time>
      </trkpt>
      <trkpt lat="40.5405750" lon="-3.4716720">
        <ele>672.0</ele>
        <time>2020-09-29T07:29:56Z</time>
      </trkpt>
      <trkpt lat="40.5407350" lon="-3.4717650">
        <ele>672.0</ele>
        <time>2020-09-29T07:29:57Z</time>
      </trkpt>
      <trkpt lat="40.5407350" lon="-3.4717650">
        <ele>671.0</ele>
        <time>2020-09-29T07:29:58Z</time>
      </trkpt>
      <trkpt lat="40.5408930" lon="-3.4718600">
        <ele>671.0</ele>
        <time>2020-09-29T07:29:59Z</time>
      </trkpt>
      <trkpt lat="40.5408930" lon="-3.4718600">
        <ele>671.0</ele>
        <time>2020-09-29T07:30:00Z</time>
      </trkpt>
      <trkpt lat="40.5410500" lon="-3.4719350">
        <ele>671.0</ele>
        <time>2020-09-29T07:30:01Z</time>
      </trkpt>
      <trkpt lat="40.5410500" lon="-3.4719350">
        <ele>671.0</ele>
        <time>2020-09-29T07:30:02Z</time>
      </trkpt>
      <trkpt lat="40.5411980" lon="-3.4719950">
        <ele>671.0</ele>
        <time>2020-09-29T07:30:03Z</time>
      </trkpt>
      <trkpt lat="40.5411980" lon="-3.4719950">
        <ele>671.0</ele>
        <time>2020-09-29T07:30:04Z</time>
      </trkpt>
      <trkpt lat="40.5413430" lon="-3.4720450">
        <ele>671.0</ele>
        <time>2020-09-29T07:30:05Z</time>
      </trkpt>
      <trkpt lat="40.5413430" lon="-3.4720450">
        <ele>671.0</ele>
        <time>2020-09-29T07:30:06Z</time>
      </trkpt>
      <trkpt lat="40.5414850" lon="-3.4720900">
        <ele>671.0</ele>
        <time>2020-09-29T07:30:07Z</time>
      </trkpt>
      <trkpt lat="40.5414850" lon="-3.4720900">
        <ele>671.0</ele>
        <time>2020-09-29T07:30:08Z</time>
      </trkpt>
      <trkpt lat="40.5416220" lon="-3.4721350">
        <ele>671.0</ele>
        <time>2020-09-29T07:30:09Z</time>
      </trkpt>
      <trkpt lat="40.5416220" lon="-3.4721350">
        <ele>671.0</ele>
        <time>2020-09-29T07:30:10Z</time>
      </trkpt>
      <trkpt lat="40.5417570" lon="-3.4721780">
        <ele>671.0</ele>
        <time>2020-09-29T07:30:11Z</time>
      </trkpt>
      <trkpt lat="40.5418230" lon="-3.4721980">
        <ele>672.0</ele>
        <time>2020-09-29T07:30:12Z</time>
      </trkpt>
      <trkpt lat="40.5418230" lon="-3.4721980">
        <ele>672.0</ele>
        <time>2020-09-29T07:30:13Z</time>
      </trkpt>
      <trkpt lat="40.5419520" lon="-3.4722400">
        <ele>672.0</ele>
        <time>2020-09-29T07:30:14Z</time>
      </trkpt>
      <trkpt lat="40.5420150" lon="-3.4722620">
        <ele>672.0</ele>
        <time>2020-09-29T07:30:15Z</time>
      </trkpt>
      <trkpt lat="40.5420150" lon="-3.4722620">
        <ele>672.0</ele>
        <time>2020-09-29T07:30:16Z</time>
      </trkpt>
      <trkpt lat="40.5421400" lon="-3.4723050">
        <ele>672.0</ele>
        <time>2020-09-29T07:30:17Z</time>
      </trkpt>
      <trkpt lat="40.5421400" lon="-3.4723050">
        <ele>673.0</ele>
        <time>2020-09-29T07:30:18Z</time>
      </trkpt>
      <trkpt lat="40.5422630" lon="-3.4723480">
        <ele>673.0</ele>
        <time>2020-09-29T07:30:19Z</time>
      </trkpt>
      <trkpt lat="40.5422630" lon="-3.4723480">
        <ele>673.0</ele>
        <time>2020-09-29T07:30:20Z</time>
      </trkpt>
      <trkpt lat="40.5423800" lon="-3.4723930">
        <ele>673.0</ele>
        <time>2020-09-29T07:30:21Z</time>
      </trkpt>
      <trkpt lat="40.5423800" lon="-3.4723930">
        <ele>674.0</ele>
        <time>2020-09-29T07:30:22Z</time>
      </trkpt>
      <trkpt lat="40.5424970" lon="-3.4724370">
        <ele>674.0</ele>
        <time>2020-09-29T07:30:23Z</time>
      </trkpt>
      <trkpt lat="40.5425570" lon="-3.4724570">
        <ele>674.0</ele>
        <time>2020-09-29T07:30:24Z</time>
      </trkpt>
      <trkpt lat="40.5426150" lon="-3.4724770">
        <ele>674.0</ele>
        <time>2020-09-29T07:30:25Z</time>
      </trkpt>
      <trkpt lat="40.5426150" lon="-3.4724770">
        <ele>674.0</ele>
        <time>2020-09-29T07:30:26Z</time>
      </trkpt>
      <trkpt lat="40.5427280" lon="-3.4725180">
        <ele>674.0</ele>
        <time>2020-09-29T07:30:27Z</time>
      </trkpt>
      <trkpt lat="40.5427280" lon="-3.4725180">
        <ele>674.0</ele>
        <time>2020-09-29T07:30:28Z</time>
      </trkpt>
      <trkpt lat="40.5428420" lon="-3.4725550">
        <ele>674.0</ele>
        <time>2020-09-29T07:30:29Z</time>
      </trkpt>
      <trkpt lat="40.5428420" lon="-3.4725550">
        <ele>675.0</ele>
        <time>2020-09-29T07:30:30Z</time>
      </trkpt>
      <trkpt lat="40.5429550" lon="-3.4725950">
        <ele>675.0</ele>
        <time>2020-09-29T07:30:31Z</time>
      </trkpt>
      <trkpt lat="40.5429550" lon="-3.4725950">
        <ele>675.0</ele>
        <time>2020-09-29T07:30:32Z</time>
      </trkpt>
      <trkpt lat="40.5430680" lon="-3.4726370">
        <ele>675.0</ele>
        <time>2020-09-29T07:30:33Z</time>
      </trkpt>
      <trkpt lat="40.5430680" lon="-3.4726370">
        <ele>675.0</ele>
        <time>2020-09-29T07:30:34Z</time>
      </trkpt>
      <trkpt lat="40.5431780" lon="-3.4726800">
        <ele>675.0</ele>
        <time>2020-09-29T07:30:35Z</time>
      </trkpt>
      <trkpt lat="40.5432370" lon="-3.4727000">
        <ele>676.0</ele>
        <time>2020-09-29T07:30:36Z</time>
      </trkpt>
      <trkpt lat="40.5432930" lon="-3.4727200">
        <ele>676.0</ele>
        <time>2020-09-29T07:30:37Z</time>
      </trkpt>
      <trkpt lat="40.5432930" lon="-3.4727200">
        <ele>676.0</ele>
        <time>2020-09-29T07:30:38Z</time>
      </trkpt>
      <trkpt lat="40.5434070" lon="-3.4727600">
        <ele>676.0</ele>
        <time>2020-09-29T07:30:39Z</time>
      </trkpt>
      <trkpt lat="40.5434070" lon="-3.4727600">
        <ele>676.0</ele>
        <time>2020-09-29T07:30:40Z</time>
      </trkpt>
      <trkpt lat="40.5435180" lon="-3.4728020">
        <ele>677.0</ele>
        <time>2020-09-29T07:30:41Z</time>
      </trkpt>
      <trkpt lat="40.5435180" lon="-3.4728020">
        <ele>677.0</ele>
        <time>2020-09-29T07:30:42Z</time>
      </trkpt>
      <trkpt lat="40.5436280" lon="-3.4728400">
        <ele>677.0</ele>
        <time>2020-09-29T07:30:43Z</time>
      </trkpt>
      <trkpt lat="40.5436280" lon="-3.4728400">
        <ele>677.0</ele>
        <time>2020-09-29T07:30:44Z</time>
      </trkpt>
      <trkpt lat="40.5437420" lon="-3.4728750">
        <ele>678.0</ele>
        <time>2020-09-29T07:30:45Z</time>
      </trkpt>
      <trkpt lat="40.5437980" lon="-3.4728920">
        <ele>678.0</ele>
        <time>2020-09-29T07:30:46Z</time>
      </trkpt>
      <trkpt lat="40.5437980" lon="-3.4728920">
        <ele>678.0</ele>
        <time>2020-09-29T07:30:47Z</time>
      </trkpt>
      <trkpt lat="40.5439070" lon="-3.4729300">
        <ele>678.0</ele>
        <time>2020-09-29T07:30:48Z</time>
      </trkpt>
      <trkpt lat="40.5439620" lon="-3.4729500">
        <ele>679.0</ele>
        <time>2020-09-29T07:30:49Z</time>
      </trkpt>
      <trkpt lat="40.5439620" lon="-3.4729500">
        <ele>679.0</ele>
        <time>2020-09-29T07:30:50Z</time>
      </trkpt>
      <trkpt lat="40.5440720" lon="-3.4729880">
        <ele>679.0</ele>
        <time>2020-09-29T07:30:51Z</time>
      </trkpt>
      <trkpt lat="40.5440720" lon="-3.4729880">
        <ele>679.0</ele>
        <time>2020-09-29T07:30:52Z</time>
      </trkpt>
      <trkpt lat="40.5441800" lon="-3.4730270">
        <ele>680.0</ele>
        <time>2020-09-29T07:30:53Z</time>
      </trkpt>
      <trkpt lat="40.5441800" lon="-3.4730270">
        <ele>680.0</ele>
        <time>2020-09-29T07:30:54Z</time>
      </trkpt>
      <trkpt lat="40.5442880" lon="-3.4730570">
        <ele>680.0</ele>
        <time>2020-09-29T07:30:55Z</time>
      </trkpt>
      <trkpt lat="40.5442880" lon="-3.4730570">
        <ele>680.0</ele>
        <time>2020-09-29T07:30:56Z</time>
      </trkpt>
      <trkpt lat="40.5443970" lon="-3.4730920">
        <ele>680.0</ele>
        <time>2020-09-29T07:30:57Z</time>
      </trkpt>
      <trkpt lat="40.5443970" lon="-3.4730920">
        <ele>680.0</ele>
        <time>2020-09-29T07:30:58Z</time>
      </trkpt>
      <trkpt lat="40.5445030" lon="-3.4731270">
        <ele>681.0</ele>
        <time>2020-09-29T07:30:59Z</time>
      </trkpt>
      <trkpt lat="40.5445030" lon="-3.4731270">
        <ele>681.0</ele>
        <time>2020-09-29T07:31:00Z</time>
      </trkpt>
      <trkpt lat="40.5446050" lon="-3.4731580">
        <ele>682.0</ele>
        <time>2020-09-29T07:31:01Z</time>
      </trkpt>
      <trkpt lat="40.5446050" lon="-3.4731580">
        <ele>682.0</ele>
        <time>2020-09-29T07:31:02Z</time>
      </trkpt>
      <trkpt lat="40.5447020" lon="-3.4731930">
        <ele>682.0</ele>
        <time>2020-09-29T07:31:03Z</time>
      </trkpt>
      <trkpt lat="40.5447020" lon="-3.4731930">
        <ele>682.0</ele>
        <time>2020-09-29T07:31:04Z</time>
      </trkpt>
      <trkpt lat="40.5447950" lon="-3.4732250">
        <ele>682.0</ele>
        <time>2020-09-29T07:31:05Z</time>
      </trkpt>
      <trkpt lat="40.5447950" lon="-3.4732250">
        <ele>682.0</ele>
        <time>2020-09-29T07:31:06Z</time>
      </trkpt>
      <trkpt lat="40.5448900" lon="-3.4732550">
        <ele>682.0</ele>
        <time>2020-09-29T07:31:07Z</time>
      </trkpt>
      <trkpt lat="40.5449370" lon="-3.4732700">
        <ele>682.0</ele>
        <time>2020-09-29T07:31:08Z</time>
      </trkpt>
      <trkpt lat="40.5449370" lon="-3.4732700">
        <ele>683.0</ele>
        <time>2020-09-29T07:31:09Z</time>
      </trkpt>
      <trkpt lat="40.5450300" lon="-3.4733030">
        <ele>683.0</ele>
        <time>2020-09-29T07:31:10Z</time>
      </trkpt>
      <trkpt lat="40.5450770" lon="-3.4733200">
        <ele>683.0</ele>
        <time>2020-09-29T07:31:11Z</time>
      </trkpt>
      <trkpt lat="40.5450770" lon="-3.4733200">
        <ele>683.0</ele>
        <time>2020-09-29T07:31:12Z</time>
      </trkpt>
      <trkpt lat="40.5451700" lon="-3.4733500">
        <ele>683.0</ele>
        <time>2020-09-29T07:31:13Z</time>
      </trkpt>
      <trkpt lat="40.5451700" lon="-3.4733500">
        <ele>683.0</ele>
        <time>2020-09-29T07:31:14Z</time>
      </trkpt>
      <trkpt lat="40.5452630" lon="-3.4733780">
        <ele>683.0</ele>
        <time>2020-09-29T07:31:15Z</time>
      </trkpt>
      <trkpt lat="40.5452630" lon="-3.4733780">
        <ele>683.0</ele>
        <time>2020-09-29T07:31:16Z</time>
      </trkpt>
      <trkpt lat="40.5453550" lon="-3.4734120">
        <ele>683.0</ele>
        <time>2020-09-29T07:31:17Z</time>
      </trkpt>
      <trkpt lat="40.5454020" lon="-3.4734250">
        <ele>684.0</ele>
        <time>2020-09-29T07:31:18Z</time>
      </trkpt>
      <trkpt lat="40.5454500" lon="-3.4734400">
        <ele>684.0</ele>
        <time>2020-09-29T07:31:19Z</time>
      </trkpt>
      <trkpt lat="40.5454500" lon="-3.4734400">
        <ele>684.0</ele>
        <time>2020-09-29T07:31:20Z</time>
      </trkpt>
      <trkpt lat="40.5455430" lon="-3.4734720">
        <ele>684.0</ele>
        <time>2020-09-29T07:31:21Z</time>
      </trkpt>
      <trkpt lat="40.5455430" lon="-3.4734720">
        <ele>684.0</ele>
        <time>2020-09-29T07:31:22Z</time>
      </trkpt>
      <trkpt lat="40.5456370" lon="-3.4735030">
        <ele>684.0</ele>
        <time>2020-09-29T07:31:23Z</time>
      </trkpt>
      <trkpt lat="40.5456370" lon="-3.4735030">
        <ele>685.0</ele>
        <time>2020-09-29T07:31:24Z</time>
      </trkpt>
      <trkpt lat="40.5457330" lon="-3.4735320">
        <ele>685.0</ele>
        <time>2020-09-29T07:31:25Z</time>
      </trkpt>
      <trkpt lat="40.5457330" lon="-3.4735320">
        <ele>685.0</ele>
        <time>2020-09-29T07:31:26Z</time>
      </trkpt>
      <trkpt lat="40.5458250" lon="-3.4735650">
        <ele>685.0</ele>
        <time>2020-09-29T07:31:27Z</time>
      </trkpt>
      <trkpt lat="40.5458250" lon="-3.4735650">
        <ele>685.0</ele>
        <time>2020-09-29T07:31:28Z</time>
      </trkpt>
      <trkpt lat="40.5459170" lon="-3.4735970">
        <ele>685.0</ele>
        <time>2020-09-29T07:31:29Z</time>
      </trkpt>
      <trkpt lat="40.5459170" lon="-3.4735970">
        <ele>685.0</ele>
        <time>2020-09-29T07:31:30Z</time>
      </trkpt>
      <trkpt lat="40.5460120" lon="-3.4736270">
        <ele>686.0</ele>
        <time>2020-09-29T07:31:31Z</time>
      </trkpt>
      <trkpt lat="40.5460580" lon="-3.4736430">
        <ele>686.0</ele>
        <time>2020-09-29T07:31:32Z</time>
      </trkpt>
      <trkpt lat="40.5461050" lon="-3.4736600">
        <ele>686.0</ele>
        <time>2020-09-29T07:31:33Z</time>
      </trkpt>
      <trkpt lat="40.5461050" lon="-3.4736600">
        <ele>686.0</ele>
        <time>2020-09-29T07:31:34Z</time>
      </trkpt>
      <trkpt lat="40.5461970" lon="-3.4736950">
        <ele>686.0</ele>
        <time>2020-09-29T07:31:35Z</time>
      </trkpt>
      <trkpt lat="40.5461970" lon="-3.4736950">
        <ele>687.0</ele>
        <time>2020-09-29T07:31:36Z</time>
      </trkpt>
      <trkpt lat="40.5462900" lon="-3.4737280">
        <ele>687.0</ele>
        <time>2020-09-29T07:31:37Z</time>
      </trkpt>
      <trkpt lat="40.5462900" lon="-3.4737280">
        <ele>687.0</ele>
        <time>2020-09-29T07:31:38Z</time>
      </trkpt>
      <trkpt lat="40.5463850" lon="-3.4737630">
        <ele>687.0</ele>
        <time>2020-09-29T07:31:39Z</time>
      </trkpt>
      <trkpt lat="40.5463850" lon="-3.4737630">
        <ele>688.0</ele>
        <time>2020-09-29T07:31:40Z</time>
      </trkpt>
      <trkpt lat="40.5464830" lon="-3.4738000">
        <ele>688.0</ele>
        <time>2020-09-29T07:31:41Z</time>
      </trkpt>
      <trkpt lat="40.5465320" lon="-3.4738170">
        <ele>688.0</ele>
        <time>2020-09-29T07:31:42Z</time>
      </trkpt>
      <trkpt lat="40.5465820" lon="-3.4738330">
        <ele>688.0</ele>
        <time>2020-09-29T07:31:43Z</time>
      </trkpt>
      <trkpt lat="40.5465820" lon="-3.4738330">
        <ele>689.0</ele>
        <time>2020-09-29T07:31:44Z</time>
      </trkpt>
      <trkpt lat="40.5466770" lon="-3.4738720">
        <ele>689.0</ele>
        <time>2020-09-29T07:31:45Z</time>
      </trkpt>
      <trkpt lat="40.5467250" lon="-3.4738880">
        <ele>689.0</ele>
        <time>2020-09-29T07:31:46Z</time>
      </trkpt>
      <trkpt lat="40.5467750" lon="-3.4739050">
        <ele>689.0</ele>
        <time>2020-09-29T07:31:47Z</time>
      </trkpt>
      <trkpt lat="40.5468230" lon="-3.4739250">
        <ele>689.0</ele>
        <time>2020-09-29T07:31:48Z</time>
      </trkpt>
      <trkpt lat="40.5468230" lon="-3.4739250">
        <ele>689.0</ele>
        <time>2020-09-29T07:31:49Z</time>
      </trkpt>
      <trkpt lat="40.5469200" lon="-3.4739670">
        <ele>690.0</ele>
        <time>2020-09-29T07:31:50Z</time>
      </trkpt>
      <trkpt lat="40.5469670" lon="-3.4739870">
        <ele>690.0</ele>
        <time>2020-09-29T07:31:51Z</time>
      </trkpt>
      <trkpt lat="40.5469670" lon="-3.4739870">
        <ele>690.0</ele>
        <time>2020-09-29T07:31:52Z</time>
      </trkpt>
      <trkpt lat="40.5470600" lon="-3.4740230">
        <ele>690.0</ele>
        <time>2020-09-29T07:31:53Z</time>
      </trkpt>
      <trkpt lat="40.5470600" lon="-3.4740230">
        <ele>690.0</ele>
        <time>2020-09-29T07:31:54Z</time>
      </trkpt>
      <trkpt lat="40.5471550" lon="-3.4740650">
        <ele>690.0</ele>
        <time>2020-09-29T07:31:55Z</time>
      </trkpt>
      <trkpt lat="40.5472030" lon="-3.4740870">
        <ele>691.0</ele>
        <time>2020-09-29T07:31:56Z</time>
      </trkpt>
      <trkpt lat="40.5472500" lon="-3.4741070">
        <ele>691.0</ele>
        <time>2020-09-29T07:31:57Z</time>
      </trkpt>
      <trkpt lat="40.5472500" lon="-3.4741070">
        <ele>691.0</ele>
        <time>2020-09-29T07:31:58Z</time>
      </trkpt>
      <trkpt lat="40.5473450" lon="-3.4741480">
        <ele>691.0</ele>
        <time>2020-09-29T07:31:59Z</time>
      </trkpt>
      <trkpt lat="40.5473930" lon="-3.4741680">
        <ele>691.0</ele>
        <time>2020-09-29T07:32:00Z</time>
      </trkpt>
      <trkpt lat="40.5473930" lon="-3.4741680">
        <ele>691.0</ele>
        <time>2020-09-29T07:32:01Z</time>
      </trkpt>
      <trkpt lat="40.5474900" lon="-3.4742120">
        <ele>691.0</ele>
        <time>2020-09-29T07:32:02Z</time>
      </trkpt>
      <trkpt lat="40.5474900" lon="-3.4742120">
        <ele>691.0</ele>
        <time>2020-09-29T07:32:03Z</time>
      </trkpt>
      <trkpt lat="40.5475830" lon="-3.4742530">
        <ele>691.0</ele>
        <time>2020-09-29T07:32:04Z</time>
      </trkpt>
      <trkpt lat="40.5475830" lon="-3.4742530">
        <ele>692.0</ele>
        <time>2020-09-29T07:32:05Z</time>
      </trkpt>
      <trkpt lat="40.5476800" lon="-3.4742970">
        <ele>692.0</ele>
        <time>2020-09-29T07:32:06Z</time>
      </trkpt>
      <trkpt lat="40.5476800" lon="-3.4742970">
        <ele>692.0</ele>
        <time>2020-09-29T07:32:07Z</time>
      </trkpt>
      <trkpt lat="40.5477730" lon="-3.4743430">
        <ele>692.0</ele>
        <time>2020-09-29T07:32:08Z</time>
      </trkpt>
      <trkpt lat="40.5478200" lon="-3.4743680">
        <ele>693.0</ele>
        <time>2020-09-29T07:32:09Z</time>
      </trkpt>
      <trkpt lat="40.5478200" lon="-3.4743680">
        <ele>693.0</ele>
        <time>2020-09-29T07:32:10Z</time>
      </trkpt>
      <trkpt lat="40.5479130" lon="-3.4744170">
        <ele>693.0</ele>
        <time>2020-09-29T07:32:11Z</time>
      </trkpt>
      <trkpt lat="40.5479130" lon="-3.4744170">
        <ele>693.0</ele>
        <time>2020-09-29T07:32:12Z</time>
      </trkpt>
      <trkpt lat="40.5480070" lon="-3.4744630">
        <ele>694.0</ele>
        <time>2020-09-29T07:32:13Z</time>
      </trkpt>
      <trkpt lat="40.5480070" lon="-3.4744630">
        <ele>694.0</ele>
        <time>2020-09-29T07:32:14Z</time>
      </trkpt>
      <trkpt lat="40.5480970" lon="-3.4745120">
        <ele>694.0</ele>
        <time>2020-09-29T07:32:15Z</time>
      </trkpt>
      <trkpt lat="40.5480970" lon="-3.4745120">
        <ele>694.0</ele>
        <time>2020-09-29T07:32:16Z</time>
      </trkpt>
      <trkpt lat="40.5481870" lon="-3.4745600">
        <ele>695.0</ele>
        <time>2020-09-29T07:32:17Z</time>
      </trkpt>
      <trkpt lat="40.5481870" lon="-3.4745600">
        <ele>695.0</ele>
        <time>2020-09-29T07:32:18Z</time>
      </trkpt>
      <trkpt lat="40.5482730" lon="-3.4746100">
        <ele>695.0</ele>
        <time>2020-09-29T07:32:19Z</time>
      </trkpt>
      <trkpt lat="40.5482730" lon="-3.4746100">
        <ele>695.0</ele>
        <time>2020-09-29T07:32:20Z</time>
      </trkpt>
      <trkpt lat="40.5483620" lon="-3.4746620">
        <ele>696.0</ele>
        <time>2020-09-29T07:32:21Z</time>
      </trkpt>
      <trkpt lat="40.5484050" lon="-3.4746880">
        <ele>696.0</ele>
        <time>2020-09-29T07:32:22Z</time>
      </trkpt>
      <trkpt lat="40.5484050" lon="-3.4746880">
        <ele>696.0</ele>
        <time>2020-09-29T07:32:23Z</time>
      </trkpt>
      <trkpt lat="40.5484950" lon="-3.4747400">
        <ele>696.0</ele>
        <time>2020-09-29T07:32:24Z</time>
      </trkpt>
      <trkpt lat="40.5485400" lon="-3.4747650">
        <ele>697.0</ele>
        <time>2020-09-29T07:32:25Z</time>
      </trkpt>
      <trkpt lat="40.5485400" lon="-3.4747650">
        <ele>697.0</ele>
        <time>2020-09-29T07:32:26Z</time>
      </trkpt>
      <trkpt lat="40.5486280" lon="-3.4748200">
        <ele>697.0</ele>
        <time>2020-09-29T07:32:27Z</time>
      </trkpt>
      <trkpt lat="40.5486280" lon="-3.4748200">
        <ele>697.0</ele>
        <time>2020-09-29T07:32:28Z</time>
      </trkpt>
      <trkpt lat="40.5487180" lon="-3.4748750">
        <ele>698.0</ele>
        <time>2020-09-29T07:32:29Z</time>
      </trkpt>
      <trkpt lat="40.5487620" lon="-3.4749020">
        <ele>698.0</ele>
        <time>2020-09-29T07:32:30Z</time>
      </trkpt>
      <trkpt lat="40.5488050" lon="-3.4749300">
        <ele>698.0</ele>
        <time>2020-09-29T07:32:31Z</time>
      </trkpt>
      <trkpt lat="40.5488480" lon="-3.4749570">
        <ele>698.0</ele>
        <time>2020-09-29T07:32:32Z</time>
      </trkpt>
      <trkpt lat="40.5488480" lon="-3.4749570">
        <ele>699.0</ele>
        <time>2020-09-29T07:32:33Z</time>
      </trkpt>
      <trkpt lat="40.5489370" lon="-3.4750170">
        <ele>699.0</ele>
        <time>2020-09-29T07:32:34Z</time>
      </trkpt>
      <trkpt lat="40.5489370" lon="-3.4750170">
        <ele>699.0</ele>
        <time>2020-09-29T07:32:35Z</time>
      </trkpt>
      <trkpt lat="40.5490250" lon="-3.4750730">
        <ele>699.0</ele>
        <time>2020-09-29T07:32:36Z</time>
      </trkpt>
      <trkpt lat="40.5490670" lon="-3.4751000">
        <ele>699.0</ele>
        <time>2020-09-29T07:32:37Z</time>
      </trkpt>
      <trkpt lat="40.5490670" lon="-3.4751000">
        <ele>700.0</ele>
        <time>2020-09-29T07:32:38Z</time>
      </trkpt>
      <trkpt lat="40.5491530" lon="-3.4751600">
        <ele>700.0</ele>
        <time>2020-09-29T07:32:39Z</time>
      </trkpt>
      <trkpt lat="40.5491950" lon="-3.4751900">
        <ele>700.0</ele>
        <time>2020-09-29T07:32:40Z</time>
      </trkpt>
      <trkpt lat="40.5491950" lon="-3.4751900">
        <ele>700.0</ele>
        <time>2020-09-29T07:32:41Z</time>
      </trkpt>
      <trkpt lat="40.5492800" lon="-3.4752500">
        <ele>700.0</ele>
        <time>2020-09-29T07:32:42Z</time>
      </trkpt>
      <trkpt lat="40.5493230" lon="-3.4752800">
        <ele>700.0</ele>
        <time>2020-09-29T07:32:43Z</time>
      </trkpt>
      <trkpt lat="40.5493230" lon="-3.4752800">
        <ele>701.0</ele>
        <time>2020-09-29T07:32:44Z</time>
      </trkpt>
      <trkpt lat="40.5494080" lon="-3.4753430">
        <ele>701.0</ele>
        <time>2020-09-29T07:32:45Z</time>
      </trkpt>
      <trkpt lat="40.5494080" lon="-3.4753430">
        <ele>701.0</ele>
        <time>2020-09-29T07:32:46Z</time>
      </trkpt>
      <trkpt lat="40.5494930" lon="-3.4754030">
        <ele>701.0</ele>
        <time>2020-09-29T07:32:47Z</time>
      </trkpt>
      <trkpt lat="40.5494930" lon="-3.4754030">
        <ele>702.0</ele>
        <time>2020-09-29T07:32:48Z</time>
      </trkpt>
      <trkpt lat="40.5495820" lon="-3.4754680">
        <ele>702.0</ele>
        <time>2020-09-29T07:32:49Z</time>
      </trkpt>
      <trkpt lat="40.5496220" lon="-3.4754980">
        <ele>702.0</ele>
        <time>2020-09-29T07:32:50Z</time>
      </trkpt>
      <trkpt lat="40.5496220" lon="-3.4754980">
        <ele>702.0</ele>
        <time>2020-09-29T07:32:51Z</time>
      </trkpt>
      <trkpt lat="40.5497070" lon="-3.4755670">
        <ele>703.0</ele>
        <time>2020-09-29T07:32:52Z</time>
      </trkpt>
      <trkpt lat="40.5497070" lon="-3.4755670">
        <ele>703.0</ele>
        <time>2020-09-29T07:32:53Z</time>
      </trkpt>
      <trkpt lat="40.5497920" lon="-3.4756350">
        <ele>703.0</ele>
        <time>2020-09-29T07:32:54Z</time>
      </trkpt>
      <trkpt lat="40.5497920" lon="-3.4756350">
        <ele>703.0</ele>
        <time>2020-09-29T07:32:55Z</time>
      </trkpt>
      <trkpt lat="40.5498770" lon="-3.4757030">
        <ele>703.0</ele>
        <time>2020-09-29T07:32:56Z</time>
      </trkpt>
      <trkpt lat="40.5499180" lon="-3.4757380">
        <ele>703.0</ele>
        <time>2020-09-29T07:32:57Z</time>
      </trkpt>
      <trkpt lat="40.5499180" lon="-3.4757380">
        <ele>704.0</ele>
        <time>2020-09-29T07:32:58Z</time>
      </trkpt>
      <trkpt lat="40.5500030" lon="-3.4758070">
        <ele>704.0</ele>
        <time>2020-09-29T07:32:59Z</time>
      </trkpt>
      <trkpt lat="40.5500030" lon="-3.4758070">
        <ele>704.0</ele>
        <time>2020-09-29T07:33:00Z</time>
      </trkpt>
      <trkpt lat="40.5500870" lon="-3.4758770">
        <ele>704.0</ele>
        <time>2020-09-29T07:33:01Z</time>
      </trkpt>
      <trkpt lat="40.5500870" lon="-3.4758770">
        <ele>705.0</ele>
        <time>2020-09-29T07:33:02Z</time>
      </trkpt>
      <trkpt lat="40.5501680" lon="-3.4759450">
        <ele>705.0</ele>
        <time>2020-09-29T07:33:03Z</time>
      </trkpt>
      <trkpt lat="40.5502080" lon="-3.4759800">
        <ele>705.0</ele>
        <time>2020-09-29T07:33:04Z</time>
      </trkpt>
      <trkpt lat="40.5502480" lon="-3.4760170">
        <ele>705.0</ele>
        <time>2020-09-29T07:33:05Z</time>
      </trkpt>
      <trkpt lat="40.5502480" lon="-3.4760170">
        <ele>705.0</ele>
        <time>2020-09-29T07:33:06Z</time>
      </trkpt>
      <trkpt lat="40.5503320" lon="-3.4760880">
        <ele>705.0</ele>
        <time>2020-09-29T07:33:07Z</time>
      </trkpt>
      <trkpt lat="40.5503720" lon="-3.4761250">
        <ele>705.0</ele>
        <time>2020-09-29T07:33:08Z</time>
      </trkpt>
      <trkpt lat="40.5503720" lon="-3.4761250">
        <ele>705.0</ele>
        <time>2020-09-29T07:33:09Z</time>
      </trkpt>
      <trkpt lat="40.5504550" lon="-3.4762000">
        <ele>705.0</ele>
        <time>2020-09-29T07:33:10Z</time>
      </trkpt>
      <trkpt lat="40.5504970" lon="-3.4762370">
        <ele>705.0</ele>
        <time>2020-09-29T07:33:11Z</time>
      </trkpt>
      <trkpt lat="40.5505380" lon="-3.4762750">
        <ele>706.0</ele>
        <time>2020-09-29T07:33:12Z</time>
      </trkpt>
      <trkpt lat="40.5505820" lon="-3.4763150">
        <ele>706.0</ele>
        <time>2020-09-29T07:33:13Z</time>
      </trkpt>
      <trkpt lat="40.5505820" lon="-3.4763150">
        <ele>706.0</ele>
        <time>2020-09-29T07:33:14Z</time>
      </trkpt>
      <trkpt lat="40.5506650" lon="-3.4763900">
        <ele>706.0</ele>
        <time>2020-09-29T07:33:15Z</time>
      </trkpt>
      <trkpt lat="40.5507050" lon="-3.4764280">
        <ele>706.0</ele>
        <time>2020-09-29T07:33:16Z</time>
      </trkpt>
      <trkpt lat="40.5507050" lon="-3.4764280">
        <ele>707.0</ele>
        <time>2020-09-29T07:33:17Z</time>
      </trkpt>
      <trkpt lat="40.5507900" lon="-3.4765020">
        <ele>707.0</ele>
        <time>2020-09-29T07:33:18Z</time>
      </trkpt>
      <trkpt lat="40.5508300" lon="-3.4765400">
        <ele>707.0</ele>
        <time>2020-09-29T07:33:19Z</time>
      </trkpt>
      <trkpt lat="40.5508300" lon="-3.4765400">
        <ele>708.0</ele>
        <time>2020-09-29T07:33:20Z</time>
      </trkpt>
      <trkpt lat="40.5509100" lon="-3.4766220">
        <ele>708.0</ele>
        <time>2020-09-29T07:33:21Z</time>
      </trkpt>
      <trkpt lat="40.5509100" lon="-3.4766220">
        <ele>708.0</ele>
        <time>2020-09-29T07:33:22Z</time>
      </trkpt>
      <trkpt lat="40.5509870" lon="-3.4767000">
        <ele>708.0</ele>
        <time>2020-09-29T07:33:23Z</time>
      </trkpt>
      <trkpt lat="40.5509870" lon="-3.4767000">
        <ele>708.0</ele>
        <time>2020-09-29T07:33:24Z</time>
      </trkpt>
      <trkpt lat="40.5510620" lon="-3.4767780">
        <ele>708.0</ele>
        <time>2020-09-29T07:33:25Z</time>
      </trkpt>
      <trkpt lat="40.5511020" lon="-3.4768180">
        <ele>708.0</ele>
        <time>2020-09-29T07:33:26Z</time>
      </trkpt>
      <trkpt lat="40.5511020" lon="-3.4768180">
        <ele>708.0</ele>
        <time>2020-09-29T07:33:27Z</time>
      </trkpt>
      <trkpt lat="40.5511770" lon="-3.4769020">
        <ele>709.0</ele>
        <time>2020-09-29T07:33:28Z</time>
      </trkpt>
      <trkpt lat="40.5512170" lon="-3.4769420">
        <ele>709.0</ele>
        <time>2020-09-29T07:33:29Z</time>
      </trkpt>
      <trkpt lat="40.5512170" lon="-3.4769420">
        <ele>709.0</ele>
        <time>2020-09-29T07:33:30Z</time>
      </trkpt>
      <trkpt lat="40.5512930" lon="-3.4770200">
        <ele>709.0</ele>
        <time>2020-09-29T07:33:31Z</time>
      </trkpt>
      <trkpt lat="40.5512930" lon="-3.4770200">
        <ele>709.0</ele>
        <time>2020-09-29T07:33:32Z</time>
      </trkpt>
      <trkpt lat="40.5513680" lon="-3.4771000">
        <ele>709.0</ele>
        <time>2020-09-29T07:33:33Z</time>
      </trkpt>
      <trkpt lat="40.5514050" lon="-3.4771400">
        <ele>710.0</ele>
        <time>2020-09-29T07:33:34Z</time>
      </trkpt>
      <trkpt lat="40.5514050" lon="-3.4771400">
        <ele>710.0</ele>
        <time>2020-09-29T07:33:35Z</time>
      </trkpt>
      <trkpt lat="40.5514800" lon="-3.4772220">
        <ele>710.0</ele>
        <time>2020-09-29T07:33:36Z</time>
      </trkpt>
      <trkpt lat="40.5514800" lon="-3.4772220">
        <ele>710.0</ele>
        <time>2020-09-29T07:33:37Z</time>
      </trkpt>
      <trkpt lat="40.5515550" lon="-3.4773030">
        <ele>710.0</ele>
        <time>2020-09-29T07:33:38Z</time>
      </trkpt>
      <trkpt lat="40.5515550" lon="-3.4773030">
        <ele>710.0</ele>
        <time>2020-09-29T07:33:39Z</time>
      </trkpt>
      <trkpt lat="40.5516270" lon="-3.4773880">
        <ele>711.0</ele>
        <time>2020-09-29T07:33:40Z</time>
      </trkpt>
      <trkpt lat="40.5516620" lon="-3.4774300">
        <ele>711.0</ele>
        <time>2020-09-29T07:33:41Z</time>
      </trkpt>
      <trkpt lat="40.5516980" lon="-3.4774730">
        <ele>711.0</ele>
        <time>2020-09-29T07:33:42Z</time>
      </trkpt>
      <trkpt lat="40.5516980" lon="-3.4774730">
        <ele>711.0</ele>
        <time>2020-09-29T07:33:43Z</time>
      </trkpt>
      <trkpt lat="40.5517700" lon="-3.4775600">
        <ele>711.0</ele>
        <time>2020-09-29T07:33:44Z</time>
      </trkpt>
      <trkpt lat="40.5517700" lon="-3.4775600">
        <ele>711.0</ele>
        <time>2020-09-29T07:33:45Z</time>
      </trkpt>
      <trkpt lat="40.5518430" lon="-3.4776450">
        <ele>711.0</ele>
        <time>2020-09-29T07:33:46Z</time>
      </trkpt>
      <trkpt lat="40.5518430" lon="-3.4776450">
        <ele>711.0</ele>
        <time>2020-09-29T07:33:47Z</time>
      </trkpt>
      <trkpt lat="40.5519100" lon="-3.4777330">
        <ele>711.0</ele>
        <time>2020-09-29T07:33:48Z</time>
      </trkpt>
      <trkpt lat="40.5519100" lon="-3.4777330">
        <ele>711.0</ele>
        <time>2020-09-29T07:33:49Z</time>
      </trkpt>
      <trkpt lat="40.5519800" lon="-3.4778200">
        <ele>712.0</ele>
        <time>2020-09-29T07:33:50Z</time>
      </trkpt>
      <trkpt lat="40.5519800" lon="-3.4778200">
        <ele>712.0</ele>
        <time>2020-09-29T07:33:51Z</time>
      </trkpt>
      <trkpt lat="40.5520500" lon="-3.4779170">
        <ele>713.0</ele>
        <time>2020-09-29T07:33:52Z</time>
      </trkpt>
      <trkpt lat="40.5520500" lon="-3.4779170">
        <ele>713.0</ele>
        <time>2020-09-29T07:33:53Z</time>
      </trkpt>
      <trkpt lat="40.5521220" lon="-3.4780080">
        <ele>713.0</ele>
        <time>2020-09-29T07:33:54Z</time>
      </trkpt>
      <trkpt lat="40.5521580" lon="-3.4780550">
        <ele>713.0</ele>
        <time>2020-09-29T07:33:55Z</time>
      </trkpt>
      <trkpt lat="40.5521580" lon="-3.4780550">
        <ele>713.0</ele>
        <time>2020-09-29T07:33:56Z</time>
      </trkpt>
      <trkpt lat="40.5522320" lon="-3.4781500">
        <ele>713.0</ele>
        <time>2020-09-29T07:33:57Z</time>
      </trkpt>
      <trkpt lat="40.5522320" lon="-3.4781500">
        <ele>713.0</ele>
        <time>2020-09-29T07:33:58Z</time>
      </trkpt>
      <trkpt lat="40.5523030" lon="-3.4782450">
        <ele>713.0</ele>
        <time>2020-09-29T07:33:59Z</time>
      </trkpt>
      <trkpt lat="40.5523400" lon="-3.4782930">
        <ele>713.0</ele>
        <time>2020-09-29T07:34:00Z</time>
      </trkpt>
      <trkpt lat="40.5523750" lon="-3.4783420">
        <ele>714.0</ele>
        <time>2020-09-29T07:34:01Z</time>
      </trkpt>
      <trkpt lat="40.5523750" lon="-3.4783420">
        <ele>714.0</ele>
        <time>2020-09-29T07:34:02Z</time>
      </trkpt>
      <trkpt lat="40.5524470" lon="-3.4784350">
        <ele>714.0</ele>
        <time>2020-09-29T07:34:03Z</time>
      </trkpt>
      <trkpt lat="40.5524470" lon="-3.4784350">
        <ele>714.0</ele>
        <time>2020-09-29T07:34:04Z</time>
      </trkpt>
      <trkpt lat="40.5525150" lon="-3.4785280">
        <ele>715.0</ele>
        <time>2020-09-29T07:34:05Z</time>
      </trkpt>
      <trkpt lat="40.5525150" lon="-3.4785280">
        <ele>715.0</ele>
        <time>2020-09-29T07:34:06Z</time>
      </trkpt>
      <trkpt lat="40.5525830" lon="-3.4786250">
        <ele>715.0</ele>
        <time>2020-09-29T07:34:07Z</time>
      </trkpt>
      <trkpt lat="40.5525830" lon="-3.4786250">
        <ele>715.0</ele>
        <time>2020-09-29T07:34:08Z</time>
      </trkpt>
      <trkpt lat="40.5526480" lon="-3.4787220">
        <ele>715.0</ele>
        <time>2020-09-29T07:34:09Z</time>
      </trkpt>
      <trkpt lat="40.5526480" lon="-3.4787220">
        <ele>715.0</ele>
        <time>2020-09-29T07:34:10Z</time>
      </trkpt>
      <trkpt lat="40.5527130" lon="-3.4788150">
        <ele>716.0</ele>
        <time>2020-09-29T07:34:11Z</time>
      </trkpt>
      <trkpt lat="40.5527470" lon="-3.4788630">
        <ele>716.0</ele>
        <time>2020-09-29T07:34:12Z</time>
      </trkpt>
      <trkpt lat="40.5527470" lon="-3.4788630">
        <ele>716.0</ele>
        <time>2020-09-29T07:34:13Z</time>
      </trkpt>
      <trkpt lat="40.5528100" lon="-3.4789580">
        <ele>716.0</ele>
        <time>2020-09-29T07:34:14Z</time>
      </trkpt>
      <trkpt lat="40.5528100" lon="-3.4789580">
        <ele>716.0</ele>
        <time>2020-09-29T07:34:15Z</time>
      </trkpt>
      <trkpt lat="40.5528750" lon="-3.4790530">
        <ele>716.0</ele>
        <time>2020-09-29T07:34:16Z</time>
      </trkpt>
      <trkpt lat="40.5528750" lon="-3.4790530">
        <ele>716.0</ele>
        <time>2020-09-29T07:34:17Z</time>
      </trkpt>
      <trkpt lat="40.5529400" lon="-3.4791550">
        <ele>716.0</ele>
        <time>2020-09-29T07:34:18Z</time>
      </trkpt>
      <trkpt lat="40.5529730" lon="-3.4792020">
        <ele>716.0</ele>
        <time>2020-09-29T07:34:19Z</time>
      </trkpt>
      <trkpt lat="40.5529730" lon="-3.4792020">
        <ele>716.0</ele>
        <time>2020-09-29T07:34:20Z</time>
      </trkpt>
      <trkpt lat="40.5530370" lon="-3.4793070">
        <ele>716.0</ele>
        <time>2020-09-29T07:34:21Z</time>
      </trkpt>
      <trkpt lat="40.5530370" lon="-3.4793070">
        <ele>716.0</ele>
        <time>2020-09-29T07:34:22Z</time>
      </trkpt>
      <trkpt lat="40.5531030" lon="-3.4794100">
        <ele>717.0</ele>
        <time>2020-09-29T07:34:23Z</time>
      </trkpt>
      <trkpt lat="40.5531030" lon="-3.4794100">
        <ele>717.0</ele>
        <time>2020-09-29T07:34:24Z</time>
      </trkpt>
      <trkpt lat="40.5531680" lon="-3.4795100">
        <ele>717.0</ele>
        <time>2020-09-29T07:34:25Z</time>
      </trkpt>
      <trkpt lat="40.5531680" lon="-3.4795100">
        <ele>717.0</ele>
        <time>2020-09-29T07:34:26Z</time>
      </trkpt>
      <trkpt lat="40.5532280" lon="-3.4796130">
        <ele>718.0</ele>
        <time>2020-09-29T07:34:27Z</time>
      </trkpt>
      <trkpt lat="40.5532580" lon="-3.4796670">
        <ele>718.0</ele>
        <time>2020-09-29T07:34:28Z</time>
      </trkpt>
      <trkpt lat="40.5532580" lon="-3.4796670">
        <ele>718.0</ele>
        <time>2020-09-29T07:34:29Z</time>
      </trkpt>
      <trkpt lat="40.5533200" lon="-3.4797730">
        <ele>718.0</ele>
        <time>2020-09-29T07:34:30Z</time>
      </trkpt>
      <trkpt lat="40.5533520" lon="-3.4798270">
        <ele>719.0</ele>
        <time>2020-09-29T07:34:31Z</time>
      </trkpt>
      <trkpt lat="40.5533520" lon="-3.4798270">
        <ele>719.0</ele>
        <time>2020-09-29T07:34:32Z</time>
      </trkpt>
      <trkpt lat="40.5534130" lon="-3.4799330">
        <ele>719.0</ele>
        <time>2020-09-29T07:34:33Z</time>
      </trkpt>
      <trkpt lat="40.5534450" lon="-3.4799880">
        <ele>719.0</ele>
        <time>2020-09-29T07:34:34Z</time>
      </trkpt>
      <trkpt lat="40.5534450" lon="-3.4799880">
        <ele>719.0</ele>
        <time>2020-09-29T07:34:35Z</time>
      </trkpt>
      <trkpt lat="40.5535080" lon="-3.4800970">
        <ele>719.0</ele>
        <time>2020-09-29T07:34:36Z</time>
      </trkpt>
      <trkpt lat="40.5535080" lon="-3.4800970">
        <ele>720.0</ele>
        <time>2020-09-29T07:34:37Z</time>
      </trkpt>
      <trkpt lat="40.5535700" lon="-3.4802080">
        <ele>720.0</ele>
        <time>2020-09-29T07:34:38Z</time>
      </trkpt>
      <trkpt lat="40.5536020" lon="-3.4802630">
        <ele>720.0</ele>
        <time>2020-09-29T07:34:39Z</time>
      </trkpt>
      <trkpt lat="40.5536020" lon="-3.4802630">
        <ele>721.0</ele>
        <time>2020-09-29T07:34:40Z</time>
      </trkpt>
      <trkpt lat="40.5536620" lon="-3.4803770">
        <ele>721.0</ele>
        <time>2020-09-29T07:34:41Z</time>
      </trkpt>
      <trkpt lat="40.5536900" lon="-3.4804350">
        <ele>721.0</ele>
        <time>2020-09-29T07:34:42Z</time>
      </trkpt>
      <trkpt lat="40.5537220" lon="-3.4804920">
        <ele>721.0</ele>
        <time>2020-09-29T07:34:43Z</time>
      </trkpt>
      <trkpt lat="40.5537220" lon="-3.4804920">
        <ele>721.0</ele>
        <time>2020-09-29T07:34:44Z</time>
      </trkpt>
      <trkpt lat="40.5537800" lon="-3.4806070">
        <ele>721.0</ele>
        <time>2020-09-29T07:34:45Z</time>
      </trkpt>
      <trkpt lat="40.5537800" lon="-3.4806070">
        <ele>722.0</ele>
        <time>2020-09-29T07:34:46Z</time>
      </trkpt>
      <trkpt lat="40.5538380" lon="-3.4807230">
        <ele>722.0</ele>
        <time>2020-09-29T07:34:47Z</time>
      </trkpt>
      <trkpt lat="40.5538670" lon="-3.4807800">
        <ele>722.0</ele>
        <time>2020-09-29T07:34:48Z</time>
      </trkpt>
      <trkpt lat="40.5538970" lon="-3.4808370">
        <ele>722.0</ele>
        <time>2020-09-29T07:34:49Z</time>
      </trkpt>
      <trkpt lat="40.5538970" lon="-3.4808370">
        <ele>723.0</ele>
        <time>2020-09-29T07:34:50Z</time>
      </trkpt>
      <trkpt lat="40.5539570" lon="-3.4809480">
        <ele>723.0</ele>
        <time>2020-09-29T07:34:51Z</time>
      </trkpt>
      <trkpt lat="40.5539570" lon="-3.4809480">
        <ele>723.0</ele>
        <time>2020-09-29T07:34:52Z</time>
      </trkpt>
      <trkpt lat="40.5540100" lon="-3.4810670">
        <ele>723.0</ele>
        <time>2020-09-29T07:34:53Z</time>
      </trkpt>
      <trkpt lat="40.5540100" lon="-3.4810670">
        <ele>723.0</ele>
        <time>2020-09-29T07:34:54Z</time>
      </trkpt>
      <trkpt lat="40.5540650" lon="-3.4811800">
        <ele>723.0</ele>
        <time>2020-09-29T07:34:55Z</time>
      </trkpt>
      <trkpt lat="40.5540650" lon="-3.4811800">
        <ele>724.0</ele>
        <time>2020-09-29T07:34:56Z</time>
      </trkpt>
      <trkpt lat="40.5541180" lon="-3.4812950">
        <ele>724.0</ele>
        <time>2020-09-29T07:34:57Z</time>
      </trkpt>
      <trkpt lat="40.5541450" lon="-3.4813530">
        <ele>724.0</ele>
        <time>2020-09-29T07:34:58Z</time>
      </trkpt>
      <trkpt lat="40.5541450" lon="-3.4813530">
        <ele>724.0</ele>
        <time>2020-09-29T07:34:59Z</time>
      </trkpt>
      <trkpt lat="40.5542000" lon="-3.4814700">
        <ele>725.0</ele>
        <time>2020-09-29T07:35:00Z</time>
      </trkpt>
      <trkpt lat="40.5542270" lon="-3.4815300">
        <ele>725.0</ele>
        <time>2020-09-29T07:35:01Z</time>
      </trkpt>
      <trkpt lat="40.5542270" lon="-3.4815300">
        <ele>725.0</ele>
        <time>2020-09-29T07:35:02Z</time>
      </trkpt>
      <trkpt lat="40.5542780" lon="-3.4816450">
        <ele>725.0</ele>
        <time>2020-09-29T07:35:03Z</time>
      </trkpt>
      <trkpt lat="40.5542780" lon="-3.4816450">
        <ele>725.0</ele>
        <time>2020-09-29T07:35:04Z</time>
      </trkpt>
      <trkpt lat="40.5543280" lon="-3.4817630">
        <ele>725.0</ele>
        <time>2020-09-29T07:35:05Z</time>
      </trkpt>
      <trkpt lat="40.5543280" lon="-3.4817630">
        <ele>725.0</ele>
        <time>2020-09-29T07:35:06Z</time>
      </trkpt>
      <trkpt lat="40.5543800" lon="-3.4818870">
        <ele>725.0</ele>
        <time>2020-09-29T07:35:07Z</time>
      </trkpt>
      <trkpt lat="40.5543800" lon="-3.4818870">
        <ele>725.0</ele>
        <time>2020-09-29T07:35:08Z</time>
      </trkpt>
      <trkpt lat="40.5544270" lon="-3.4820130">
        <ele>725.0</ele>
        <time>2020-09-29T07:35:09Z</time>
      </trkpt>
      <trkpt lat="40.5544500" lon="-3.4820800">
        <ele>725.0</ele>
        <time>2020-09-29T07:35:10Z</time>
      </trkpt>
      <trkpt lat="40.5544500" lon="-3.4820800">
        <ele>725.0</ele>
        <time>2020-09-29T07:35:11Z</time>
      </trkpt>
      <trkpt lat="40.5545000" lon="-3.4822100">
        <ele>725.0</ele>
        <time>2020-09-29T07:35:12Z</time>
      </trkpt>
      <trkpt lat="40.5545270" lon="-3.4822750">
        <ele>725.0</ele>
        <time>2020-09-29T07:35:13Z</time>
      </trkpt>
      <trkpt lat="40.5545520" lon="-3.4823420">
        <ele>725.0</ele>
        <time>2020-09-29T07:35:14Z</time>
      </trkpt>
      <trkpt lat="40.5545780" lon="-3.4824080">
        <ele>725.0</ele>
        <time>2020-09-29T07:35:15Z</time>
      </trkpt>
      <trkpt lat="40.5545780" lon="-3.4824080">
        <ele>725.0</ele>
        <time>2020-09-29T07:35:16Z</time>
      </trkpt>
      <trkpt lat="40.5546300" lon="-3.4825430">
        <ele>725.0</ele>
        <time>2020-09-29T07:35:17Z</time>
      </trkpt>
      <trkpt lat="40.5546300" lon="-3.4825430">
        <ele>725.0</ele>
        <time>2020-09-29T07:35:18Z</time>
      </trkpt>
      <trkpt lat="40.5546800" lon="-3.4826780">
        <ele>725.0</ele>
        <time>2020-09-29T07:35:19Z</time>
      </trkpt>
      <trkpt lat="40.5546800" lon="-3.4826780">
        <ele>725.0</ele>
        <time>2020-09-29T07:35:20Z</time>
      </trkpt>
      <trkpt lat="40.5547330" lon="-3.4828150">
        <ele>726.0</ele>
        <time>2020-09-29T07:35:21Z</time>
      </trkpt>
      <trkpt lat="40.5547580" lon="-3.4828830">
        <ele>726.0</ele>
        <time>2020-09-29T07:35:22Z</time>
      </trkpt>
      <trkpt lat="40.5547830" lon="-3.4829530">
        <ele>726.0</ele>
        <time>2020-09-29T07:35:23Z</time>
      </trkpt>
      <trkpt lat="40.5547830" lon="-3.4829530">
        <ele>726.0</ele>
        <time>2020-09-29T07:35:24Z</time>
      </trkpt>
      <trkpt lat="40.5548330" lon="-3.4830920">
        <ele>726.0</ele>
        <time>2020-09-29T07:35:25Z</time>
      </trkpt>
      <trkpt lat="40.5548330" lon="-3.4830920">
        <ele>726.0</ele>
        <time>2020-09-29T07:35:26Z</time>
      </trkpt>
      <trkpt lat="40.5548820" lon="-3.4832350">
        <ele>726.0</ele>
        <time>2020-09-29T07:35:27Z</time>
      </trkpt>
      <trkpt lat="40.5549050" lon="-3.4833050">
        <ele>726.0</ele>
        <time>2020-09-29T07:35:28Z</time>
      </trkpt>
      <trkpt lat="40.5549280" lon="-3.4833770">
        <ele>726.0</ele>
        <time>2020-09-29T07:35:29Z</time>
      </trkpt>
      <trkpt lat="40.5549280" lon="-3.4833770">
        <ele>726.0</ele>
        <time>2020-09-29T07:35:30Z</time>
      </trkpt>
      <trkpt lat="40.5549770" lon="-3.4835220">
        <ele>727.0</ele>
        <time>2020-09-29T07:35:31Z</time>
      </trkpt>
      <trkpt lat="40.5549770" lon="-3.4835220">
        <ele>727.0</ele>
        <time>2020-09-29T07:35:32Z</time>
      </trkpt>
      <trkpt lat="40.5550200" lon="-3.4836670">
        <ele>727.0</ele>
        <time>2020-09-29T07:35:33Z</time>
      </trkpt>
      <trkpt lat="40.5550430" lon="-3.4837380">
        <ele>727.0</ele>
        <time>2020-09-29T07:35:34Z</time>
      </trkpt>
      <trkpt lat="40.5550430" lon="-3.4837380">
        <ele>727.0</ele>
        <time>2020-09-29T07:35:35Z</time>
      </trkpt>
      <trkpt lat="40.5550870" lon="-3.4838870">
        <ele>727.0</ele>
        <time>2020-09-29T07:35:36Z</time>
      </trkpt>
      <trkpt lat="40.5551070" lon="-3.4839600">
        <ele>727.0</ele>
        <time>2020-09-29T07:35:37Z</time>
      </trkpt>
      <trkpt lat="40.5551070" lon="-3.4839600">
        <ele>727.0</ele>
        <time>2020-09-29T07:35:38Z</time>
      </trkpt>
      <trkpt lat="40.5551500" lon="-3.4841100">
        <ele>727.0</ele>
        <time>2020-09-29T07:35:39Z</time>
      </trkpt>
      <trkpt lat="40.5551700" lon="-3.4841850">
        <ele>727.0</ele>
        <time>2020-09-29T07:35:40Z</time>
      </trkpt>
      <trkpt lat="40.5551700" lon="-3.4841850">
        <ele>727.0</ele>
        <time>2020-09-29T07:35:41Z</time>
      </trkpt>
      <trkpt lat="40.5552120" lon="-3.4843370">
        <ele>727.0</ele>
        <time>2020-09-29T07:35:42Z</time>
      </trkpt>
      <trkpt lat="40.5552320" lon="-3.4844130">
        <ele>727.0</ele>
        <time>2020-09-29T07:35:43Z</time>
      </trkpt>
      <trkpt lat="40.5552320" lon="-3.4844130">
        <ele>727.0</ele>
        <time>2020-09-29T07:35:44Z</time>
      </trkpt>
      <trkpt lat="40.5552720" lon="-3.4845680">
        <ele>727.0</ele>
        <time>2020-09-29T07:35:45Z</time>
      </trkpt>
      <trkpt lat="40.5552720" lon="-3.4845680">
        <ele>728.0</ele>
        <time>2020-09-29T07:35:46Z</time>
      </trkpt>
      <trkpt lat="40.5553100" lon="-3.4847230">
        <ele>728.0</ele>
        <time>2020-09-29T07:35:47Z</time>
      </trkpt>
      <trkpt lat="40.5553300" lon="-3.4848000">
        <ele>728.0</ele>
        <time>2020-09-29T07:35:48Z</time>
      </trkpt>
      <trkpt lat="40.5553500" lon="-3.4848780">
        <ele>728.0</ele>
        <time>2020-09-29T07:35:49Z</time>
      </trkpt>
      <trkpt lat="40.5553500" lon="-3.4848780">
        <ele>728.0</ele>
        <time>2020-09-29T07:35:50Z</time>
      </trkpt>
      <trkpt lat="40.5553880" lon="-3.4850370">
        <ele>728.0</ele>
        <time>2020-09-29T07:35:51Z</time>
      </trkpt>
      <trkpt lat="40.5553880" lon="-3.4850370">
        <ele>728.0</ele>
        <time>2020-09-29T07:35:52Z</time>
      </trkpt>
      <trkpt lat="40.5554250" lon="-3.4851930">
        <ele>728.0</ele>
        <time>2020-09-29T07:35:53Z</time>
      </trkpt>
      <trkpt lat="40.5554420" lon="-3.4852730">
        <ele>728.0</ele>
        <time>2020-09-29T07:35:54Z</time>
      </trkpt>
      <trkpt lat="40.5554600" lon="-3.4853530">
        <ele>728.0</ele>
        <time>2020-09-29T07:35:55Z</time>
      </trkpt>
      <trkpt lat="40.5554600" lon="-3.4853530">
        <ele>728.0</ele>
        <time>2020-09-29T07:35:56Z</time>
      </trkpt>
      <trkpt lat="40.5554930" lon="-3.4855120">
        <ele>728.0</ele>
        <time>2020-09-29T07:35:57Z</time>
      </trkpt>
      <trkpt lat="40.5554930" lon="-3.4855120">
        <ele>728.0</ele>
        <time>2020-09-29T07:35:58Z</time>
      </trkpt>
      <trkpt lat="40.5555250" lon="-3.4856700">
        <ele>728.0</ele>
        <time>2020-09-29T07:35:59Z</time>
      </trkpt>
      <trkpt lat="40.5555250" lon="-3.4856700">
        <ele>728.0</ele>
        <time>2020-09-29T07:36:00Z</time>
      </trkpt>
      <trkpt lat="40.5555550" lon="-3.4858320">
        <ele>729.0</ele>
        <time>2020-09-29T07:36:01Z</time>
      </trkpt>
      <trkpt lat="40.5555550" lon="-3.4858320">
        <ele>729.0</ele>
        <time>2020-09-29T07:36:02Z</time>
      </trkpt>
      <trkpt lat="40.5555870" lon="-3.4859920">
        <ele>729.0</ele>
        <time>2020-09-29T07:36:03Z</time>
      </trkpt>
      <trkpt lat="40.5556020" lon="-3.4860680">
        <ele>729.0</ele>
        <time>2020-09-29T07:36:04Z</time>
      </trkpt>
      <trkpt lat="40.5556020" lon="-3.4860680">
        <ele>729.0</ele>
        <time>2020-09-29T07:36:05Z</time>
      </trkpt>
      <trkpt lat="40.5556280" lon="-3.4862250">
        <ele>729.0</ele>
        <time>2020-09-29T07:36:06Z</time>
      </trkpt>
      <trkpt lat="40.5556280" lon="-3.4862250">
        <ele>729.0</ele>
        <time>2020-09-29T07:36:07Z</time>
      </trkpt>
      <trkpt lat="40.5556550" lon="-3.4863800">
        <ele>729.0</ele>
        <time>2020-09-29T07:36:08Z</time>
      </trkpt>
      <trkpt lat="40.5556680" lon="-3.4864580">
        <ele>729.0</ele>
        <time>2020-09-29T07:36:09Z</time>
      </trkpt>
      <trkpt lat="40.5556680" lon="-3.4864580">
        <ele>729.0</ele>
        <time>2020-09-29T07:36:10Z</time>
      </trkpt>
      <trkpt lat="40.5556920" lon="-3.4866130">
        <ele>729.0</ele>
        <time>2020-09-29T07:36:11Z</time>
      </trkpt>
      <trkpt lat="40.5556920" lon="-3.4866130">
        <ele>729.0</ele>
        <time>2020-09-29T07:36:12Z</time>
      </trkpt>
      <trkpt lat="40.5557170" lon="-3.4867670">
        <ele>729.0</ele>
        <time>2020-09-29T07:36:13Z</time>
      </trkpt>
      <trkpt lat="40.5557170" lon="-3.4867670">
        <ele>729.0</ele>
        <time>2020-09-29T07:36:14Z</time>
      </trkpt>
      <trkpt lat="40.5557380" lon="-3.4869300">
        <ele>730.0</ele>
        <time>2020-09-29T07:36:15Z</time>
      </trkpt>
      <trkpt lat="40.5557500" lon="-3.4870080">
        <ele>730.0</ele>
        <time>2020-09-29T07:36:16Z</time>
      </trkpt>
      <trkpt lat="40.5557500" lon="-3.4870080">
        <ele>730.0</ele>
        <time>2020-09-29T07:36:17Z</time>
      </trkpt>
      <trkpt lat="40.5557720" lon="-3.4871630">
        <ele>730.0</ele>
        <time>2020-09-29T07:36:18Z</time>
      </trkpt>
      <trkpt lat="40.5557820" lon="-3.4872420">
        <ele>730.0</ele>
        <time>2020-09-29T07:36:19Z</time>
      </trkpt>
      <trkpt lat="40.5557820" lon="-3.4872420">
        <ele>730.0</ele>
        <time>2020-09-29T07:36:20Z</time>
      </trkpt>
      <trkpt lat="40.5558030" lon="-3.4874030">
        <ele>730.0</ele>
        <time>2020-09-29T07:36:21Z</time>
      </trkpt>
      <trkpt lat="40.5558030" lon="-3.4874030">
        <ele>730.0</ele>
        <time>2020-09-29T07:36:22Z</time>
      </trkpt>
      <trkpt lat="40.5558220" lon="-3.4875650">
        <ele>730.0</ele>
        <time>2020-09-29T07:36:23Z</time>
      </trkpt>
      <trkpt lat="40.5558320" lon="-3.4876470">
        <ele>730.0</ele>
        <time>2020-09-29T07:36:24Z</time>
      </trkpt>
      <trkpt lat="40.5558400" lon="-3.4877270">
        <ele>730.0</ele>
        <time>2020-09-29T07:36:25Z</time>
      </trkpt>
      <trkpt lat="40.5558400" lon="-3.4877270">
        <ele>730.0</ele>
        <time>2020-09-29T07:36:26Z</time>
      </trkpt>
      <trkpt lat="40.5558550" lon="-3.4878870">
        <ele>730.0</ele>
        <time>2020-09-29T07:36:27Z</time>
      </trkpt>
      <trkpt lat="40.5558620" lon="-3.4879700">
        <ele>730.0</ele>
        <time>2020-09-29T07:36:28Z</time>
      </trkpt>
      <trkpt lat="40.5558620" lon="-3.4879700">
        <ele>730.0</ele>
        <time>2020-09-29T07:36:29Z</time>
      </trkpt>
      <trkpt lat="40.5558770" lon="-3.4881350">
        <ele>730.0</ele>
        <time>2020-09-29T07:36:30Z</time>
      </trkpt>
      <trkpt lat="40.5558850" lon="-3.4882170">
        <ele>730.0</ele>
        <time>2020-09-29T07:36:31Z</time>
      </trkpt>
      <trkpt lat="40.5558850" lon="-3.4882170">
        <ele>730.0</ele>
        <time>2020-09-29T07:36:32Z</time>
      </trkpt>
      <trkpt lat="40.5558980" lon="-3.4883830">
        <ele>731.0</ele>
        <time>2020-09-29T07:36:33Z</time>
      </trkpt>
      <trkpt lat="40.5559050" lon="-3.4884670">
        <ele>731.0</ele>
        <time>2020-09-29T07:36:34Z</time>
      </trkpt>
      <trkpt lat="40.5559100" lon="-3.4885500">
        <ele>731.0</ele>
        <time>2020-09-29T07:36:35Z</time>
      </trkpt>
      <trkpt lat="40.5559150" lon="-3.4886350">
        <ele>731.0</ele>
        <time>2020-09-29T07:36:36Z</time>
      </trkpt>
      <trkpt lat="40.5559200" lon="-3.4887180">
        <ele>731.0</ele>
        <time>2020-09-29T07:36:37Z</time>
      </trkpt>
      <trkpt lat="40.5559200" lon="-3.4887180">
        <ele>731.0</ele>
        <time>2020-09-29T07:36:38Z</time>
      </trkpt>
      <trkpt lat="40.5559230" lon="-3.4888900">
        <ele>731.0</ele>
        <time>2020-09-29T07:36:39Z</time>
      </trkpt>
      <trkpt lat="40.5559230" lon="-3.4888900">
        <ele>731.0</ele>
        <time>2020-09-29T07:36:40Z</time>
      </trkpt>
      <trkpt lat="40.5559270" lon="-3.4890630">
        <ele>731.0</ele>
        <time>2020-09-29T07:36:41Z</time>
      </trkpt>
      <trkpt lat="40.5559270" lon="-3.4890630">
        <ele>731.0</ele>
        <time>2020-09-29T07:36:42Z</time>
      </trkpt>
      <trkpt lat="40.5559280" lon="-3.4892380">
        <ele>731.0</ele>
        <time>2020-09-29T07:36:43Z</time>
      </trkpt>
      <trkpt lat="40.5559280" lon="-3.4892380">
        <ele>731.0</ele>
        <time>2020-09-29T07:36:44Z</time>
      </trkpt>
      <trkpt lat="40.5559220" lon="-3.4894170">
        <ele>731.0</ele>
        <time>2020-09-29T07:36:45Z</time>
      </trkpt>
      <trkpt lat="40.5559220" lon="-3.4894170">
        <ele>731.0</ele>
        <time>2020-09-29T07:36:46Z</time>
      </trkpt>
      <trkpt lat="40.5559170" lon="-3.4895950">
        <ele>731.0</ele>
        <time>2020-09-29T07:36:47Z</time>
      </trkpt>
      <trkpt lat="40.5559170" lon="-3.4895950">
        <ele>731.0</ele>
        <time>2020-09-29T07:36:48Z</time>
      </trkpt>
      <trkpt lat="40.5559080" lon="-3.4897780">
        <ele>731.0</ele>
        <time>2020-09-29T07:36:49Z</time>
      </trkpt>
      <trkpt lat="40.5559050" lon="-3.4898650">
        <ele>732.0</ele>
        <time>2020-09-29T07:36:50Z</time>
      </trkpt>
      <trkpt lat="40.5559050" lon="-3.4898650">
        <ele>732.0</ele>
        <time>2020-09-29T07:36:51Z</time>
      </trkpt>
      <trkpt lat="40.5558900" lon="-3.4900430">
        <ele>732.0</ele>
        <time>2020-09-29T07:36:52Z</time>
      </trkpt>
      <trkpt lat="40.5558900" lon="-3.4900430">
        <ele>732.0</ele>
        <time>2020-09-29T07:36:53Z</time>
      </trkpt>
      <trkpt lat="40.5558750" lon="-3.4902230">
        <ele>731.0</ele>
        <time>2020-09-29T07:36:54Z</time>
      </trkpt>
      <trkpt lat="40.5558750" lon="-3.4902230">
        <ele>731.0</ele>
        <time>2020-09-29T07:36:55Z</time>
      </trkpt>
      <trkpt lat="40.5558580" lon="-3.4904050">
        <ele>731.0</ele>
        <time>2020-09-29T07:36:56Z</time>
      </trkpt>
      <trkpt lat="40.5558580" lon="-3.4904050">
        <ele>731.0</ele>
        <time>2020-09-29T07:36:57Z</time>
      </trkpt>
      <trkpt lat="40.5558370" lon="-3.4905830">
        <ele>732.0</ele>
        <time>2020-09-29T07:36:58Z</time>
      </trkpt>
      <trkpt lat="40.5558370" lon="-3.4905830">
        <ele>732.0</ele>
        <time>2020-09-29T07:36:59Z</time>
      </trkpt>
      <trkpt lat="40.5558120" lon="-3.4907650">
        <ele>732.0</ele>
        <time>2020-09-29T07:37:00Z</time>
      </trkpt>
      <trkpt lat="40.5557970" lon="-3.4908530">
        <ele>732.0</ele>
        <time>2020-09-29T07:37:01Z</time>
      </trkpt>
      <trkpt lat="40.5557970" lon="-3.4908530">
        <ele>733.0</ele>
        <time>2020-09-29T07:37:02Z</time>
      </trkpt>
      <trkpt lat="40.5557630" lon="-3.4910330">
        <ele>733.0</ele>
        <time>2020-09-29T07:37:03Z</time>
      </trkpt>
      <trkpt lat="40.5557630" lon="-3.4910330">
        <ele>733.0</ele>
        <time>2020-09-29T07:37:04Z</time>
      </trkpt>
      <trkpt lat="40.5557280" lon="-3.4912130">
        <ele>733.0</ele>
        <time>2020-09-29T07:37:05Z</time>
      </trkpt>
      <trkpt lat="40.5557280" lon="-3.4912130">
        <ele>733.0</ele>
        <time>2020-09-29T07:37:06Z</time>
      </trkpt>
      <trkpt lat="40.5556920" lon="-3.4913880">
        <ele>733.0</ele>
        <time>2020-09-29T07:37:07Z</time>
      </trkpt>
      <trkpt lat="40.5556920" lon="-3.4913880">
        <ele>733.0</ele>
        <time>2020-09-29T07:37:08Z</time>
      </trkpt>
      <trkpt lat="40.5556570" lon="-3.4915630">
        <ele>733.0</ele>
        <time>2020-09-29T07:37:09Z</time>
      </trkpt>
      <trkpt lat="40.5556370" lon="-3.4916480">
        <ele>733.0</ele>
        <time>2020-09-29T07:37:10Z</time>
      </trkpt>
      <trkpt lat="40.5556370" lon="-3.4916480">
        <ele>733.0</ele>
        <time>2020-09-29T07:37:11Z</time>
      </trkpt>
      <trkpt lat="40.5555930" lon="-3.4918180">
        <ele>734.0</ele>
        <time>2020-09-29T07:37:12Z</time>
      </trkpt>
      <trkpt lat="40.5555930" lon="-3.4918180">
        <ele>734.0</ele>
        <time>2020-09-29T07:37:13Z</time>
      </trkpt>
      <trkpt lat="40.5555520" lon="-3.4919830">
        <ele>734.0</ele>
        <time>2020-09-29T07:37:14Z</time>
      </trkpt>
      <trkpt lat="40.5555520" lon="-3.4919830">
        <ele>734.0</ele>
        <time>2020-09-29T07:37:15Z</time>
      </trkpt>
      <trkpt lat="40.5555070" lon="-3.4921500">
        <ele>734.0</ele>
        <time>2020-09-29T07:37:16Z</time>
      </trkpt>
      <trkpt lat="40.5554830" lon="-3.4922330">
        <ele>734.0</ele>
        <time>2020-09-29T07:37:17Z</time>
      </trkpt>
      <trkpt lat="40.5554830" lon="-3.4922330">
        <ele>734.0</ele>
        <time>2020-09-29T07:37:18Z</time>
      </trkpt>
      <trkpt lat="40.5554350" lon="-3.4923970">
        <ele>734.0</ele>
        <time>2020-09-29T07:37:19Z</time>
      </trkpt>
      <trkpt lat="40.5554350" lon="-3.4923970">
        <ele>734.0</ele>
        <time>2020-09-29T07:37:20Z</time>
      </trkpt>
      <trkpt lat="40.5553850" lon="-3.4925620">
        <ele>734.0</ele>
        <time>2020-09-29T07:37:21Z</time>
      </trkpt>
      <trkpt lat="40.5553600" lon="-3.4926430">
        <ele>734.0</ele>
        <time>2020-09-29T07:37:22Z</time>
      </trkpt>
      <trkpt lat="40.5553330" lon="-3.4927230">
        <ele>735.0</ele>
        <time>2020-09-29T07:37:23Z</time>
      </trkpt>
      <trkpt lat="40.5553330" lon="-3.4927230">
        <ele>735.0</ele>
        <time>2020-09-29T07:37:24Z</time>
      </trkpt>
      <trkpt lat="40.5552730" lon="-3.4928800">
        <ele>735.0</ele>
        <time>2020-09-29T07:37:25Z</time>
      </trkpt>
      <trkpt lat="40.5552730" lon="-3.4928800">
        <ele>735.0</ele>
        <time>2020-09-29T07:37:26Z</time>
      </trkpt>
      <trkpt lat="40.5552120" lon="-3.4930330">
        <ele>735.0</ele>
        <time>2020-09-29T07:37:27Z</time>
      </trkpt>
      <trkpt lat="40.5551820" lon="-3.4931100">
        <ele>735.0</ele>
        <time>2020-09-29T07:37:28Z</time>
      </trkpt>
      <trkpt lat="40.5551820" lon="-3.4931100">
        <ele>735.0</ele>
        <time>2020-09-29T07:37:29Z</time>
      </trkpt>
      <trkpt lat="40.5551220" lon="-3.4932650">
        <ele>735.0</ele>
        <time>2020-09-29T07:37:30Z</time>
      </trkpt>
      <trkpt lat="40.5550920" lon="-3.4933430">
        <ele>735.0</ele>
        <time>2020-09-29T07:37:31Z</time>
      </trkpt>
      <trkpt lat="40.5550920" lon="-3.4933430">
        <ele>735.0</ele>
        <time>2020-09-29T07:37:32Z</time>
      </trkpt>
      <trkpt lat="40.5550280" lon="-3.4935000">
        <ele>735.0</ele>
        <time>2020-09-29T07:37:33Z</time>
      </trkpt>
      <trkpt lat="40.5550280" lon="-3.4935000">
        <ele>735.0</ele>
        <time>2020-09-29T07:37:34Z</time>
      </trkpt>
      <trkpt lat="40.5549650" lon="-3.4936550">
        <ele>735.0</ele>
        <time>2020-09-29T07:37:35Z</time>
      </trkpt>
      <trkpt lat="40.5549350" lon="-3.4937330">
        <ele>735.0</ele>
        <time>2020-09-29T07:37:36Z</time>
      </trkpt>
      <trkpt lat="40.5549050" lon="-3.4938120">
        <ele>735.0</ele>
        <time>2020-09-29T07:37:37Z</time>
      </trkpt>
      <trkpt lat="40.5549050" lon="-3.4938120">
        <ele>735.0</ele>
        <time>2020-09-29T07:37:38Z</time>
      </trkpt>
      <trkpt lat="40.5548450" lon="-3.4939680">
        <ele>735.0</ele>
        <time>2020-09-29T07:37:39Z</time>
      </trkpt>
      <trkpt lat="40.5548150" lon="-3.4940450">
        <ele>735.0</ele>
        <time>2020-09-29T07:37:40Z</time>
      </trkpt>
      <trkpt lat="40.5547850" lon="-3.4941230">
        <ele>736.0</ele>
        <time>2020-09-29T07:37:41Z</time>
      </trkpt>
      <trkpt lat="40.5547850" lon="-3.4941230">
        <ele>736.0</ele>
        <time>2020-09-29T07:37:42Z</time>
      </trkpt>
      <trkpt lat="40.5547280" lon="-3.4942800">
        <ele>736.0</ele>
        <time>2020-09-29T07:37:43Z</time>
      </trkpt>
      <trkpt lat="40.5547000" lon="-3.4943600">
        <ele>736.0</ele>
        <time>2020-09-29T07:37:44Z</time>
      </trkpt>
      <trkpt lat="40.5546730" lon="-3.4944400">
        <ele>736.0</ele>
        <time>2020-09-29T07:37:45Z</time>
      </trkpt>
      <trkpt lat="40.5546730" lon="-3.4944400">
        <ele>736.0</ele>
        <time>2020-09-29T07:37:46Z</time>
      </trkpt>
      <trkpt lat="40.5546180" lon="-3.4945970">
        <ele>736.0</ele>
        <time>2020-09-29T07:37:47Z</time>
      </trkpt>
      <trkpt lat="40.5546180" lon="-3.4945970">
        <ele>736.0</ele>
        <time>2020-09-29T07:37:48Z</time>
      </trkpt>
      <trkpt lat="40.5545670" lon="-3.4947530">
        <ele>736.0</ele>
        <time>2020-09-29T07:37:49Z</time>
      </trkpt>
      <trkpt lat="40.5545670" lon="-3.4947530">
        <ele>736.0</ele>
        <time>2020-09-29T07:37:50Z</time>
      </trkpt>
      <trkpt lat="40.5545200" lon="-3.4949170">
        <ele>736.0</ele>
        <time>2020-09-29T07:37:51Z</time>
      </trkpt>
      <trkpt lat="40.5545050" lon="-3.4950030">
        <ele>736.0</ele>
        <time>2020-09-29T07:37:52Z</time>
      </trkpt>
      <trkpt lat="40.5545050" lon="-3.4950030">
        <ele>736.0</ele>
        <time>2020-09-29T07:37:53Z</time>
      </trkpt>
      <trkpt lat="40.5544820" lon="-3.4951820">
        <ele>736.0</ele>
        <time>2020-09-29T07:37:54Z</time>
      </trkpt>
      <trkpt lat="40.5544820" lon="-3.4951820">
        <ele>736.0</ele>
        <time>2020-09-29T07:37:55Z</time>
      </trkpt>
      <trkpt lat="40.5544480" lon="-3.4953620">
        <ele>736.0</ele>
        <time>2020-09-29T07:37:56Z</time>
      </trkpt>
      <trkpt lat="40.5544480" lon="-3.4953620">
        <ele>736.0</ele>
        <time>2020-09-29T07:37:57Z</time>
      </trkpt>
      <trkpt lat="40.5544100" lon="-3.4955380">
        <ele>736.0</ele>
        <time>2020-09-29T07:37:58Z</time>
      </trkpt>
      <trkpt lat="40.5544100" lon="-3.4955380">
        <ele>736.0</ele>
        <time>2020-09-29T07:37:59Z</time>
      </trkpt>
      <trkpt lat="40.5543730" lon="-3.4957150">
        <ele>736.0</ele>
        <time>2020-09-29T07:38:00Z</time>
      </trkpt>
      <trkpt lat="40.5543550" lon="-3.4958020">
        <ele>736.0</ele>
        <time>2020-09-29T07:38:01Z</time>
      </trkpt>
      <trkpt lat="40.5543550" lon="-3.4958020">
        <ele>736.0</ele>
        <time>2020-09-29T07:38:02Z</time>
      </trkpt>
      <trkpt lat="40.5543270" lon="-3.4959770">
        <ele>736.0</ele>
        <time>2020-09-29T07:38:03Z</time>
      </trkpt>
      <trkpt lat="40.5543270" lon="-3.4959770">
        <ele>736.0</ele>
        <time>2020-09-29T07:38:04Z</time>
      </trkpt>
      <trkpt lat="40.5543000" lon="-3.4961520">
        <ele>736.0</ele>
        <time>2020-09-29T07:38:05Z</time>
      </trkpt>
      <trkpt lat="40.5543000" lon="-3.4961520">
        <ele>736.0</ele>
        <time>2020-09-29T07:38:06Z</time>
      </trkpt>
      <trkpt lat="40.5542780" lon="-3.4963280">
        <ele>736.0</ele>
        <time>2020-09-29T07:38:07Z</time>
      </trkpt>
      <trkpt lat="40.5542700" lon="-3.4964150">
        <ele>736.0</ele>
        <time>2020-09-29T07:38:08Z</time>
      </trkpt>
      <trkpt lat="40.5542600" lon="-3.4965030">
        <ele>736.0</ele>
        <time>2020-09-29T07:38:09Z</time>
      </trkpt>
      <trkpt lat="40.5542600" lon="-3.4965030">
        <ele>736.0</ele>
        <time>2020-09-29T07:38:10Z</time>
      </trkpt>
      <trkpt lat="40.5542430" lon="-3.4966770">
        <ele>736.0</ele>
        <time>2020-09-29T07:38:11Z</time>
      </trkpt>
      <trkpt lat="40.5542430" lon="-3.4966770">
        <ele>736.0</ele>
        <time>2020-09-29T07:38:12Z</time>
      </trkpt>
      <trkpt lat="40.5542320" lon="-3.4968520">
        <ele>736.0</ele>
        <time>2020-09-29T07:38:13Z</time>
      </trkpt>
      <trkpt lat="40.5542320" lon="-3.4968520">
        <ele>737.0</ele>
        <time>2020-09-29T07:38:14Z</time>
      </trkpt>
      <trkpt lat="40.5542220" lon="-3.4970270">
        <ele>737.0</ele>
        <time>2020-09-29T07:38:15Z</time>
      </trkpt>
      <trkpt lat="40.5542200" lon="-3.4971180">
        <ele>737.0</ele>
        <time>2020-09-29T07:38:16Z</time>
      </trkpt>
      <trkpt lat="40.5542200" lon="-3.4971180">
        <ele>737.0</ele>
        <time>2020-09-29T07:38:17Z</time>
      </trkpt>
      <trkpt lat="40.5542180" lon="-3.4972930">
        <ele>737.0</ele>
        <time>2020-09-29T07:38:18Z</time>
      </trkpt>
      <trkpt lat="40.5542180" lon="-3.4972930">
        <ele>737.0</ele>
        <time>2020-09-29T07:38:19Z</time>
      </trkpt>
      <trkpt lat="40.5542180" lon="-3.4974700">
        <ele>737.0</ele>
        <time>2020-09-29T07:38:20Z</time>
      </trkpt>
      <trkpt lat="40.5542200" lon="-3.4975570">
        <ele>737.0</ele>
        <time>2020-09-29T07:38:21Z</time>
      </trkpt>
      <trkpt lat="40.5542200" lon="-3.4975570">
        <ele>737.0</ele>
        <time>2020-09-29T07:38:22Z</time>
      </trkpt>
      <trkpt lat="40.5542270" lon="-3.4977320">
        <ele>737.0</ele>
        <time>2020-09-29T07:38:23Z</time>
      </trkpt>
      <trkpt lat="40.5542270" lon="-3.4977320">
        <ele>737.0</ele>
        <time>2020-09-29T07:38:24Z</time>
      </trkpt>
      <trkpt lat="40.5542350" lon="-3.4979080">
        <ele>737.0</ele>
        <time>2020-09-29T07:38:25Z</time>
      </trkpt>
      <trkpt lat="40.5542350" lon="-3.4979080">
        <ele>737.0</ele>
        <time>2020-09-29T07:38:26Z</time>
      </trkpt>
      <trkpt lat="40.5542470" lon="-3.4980820">
        <ele>737.0</ele>
        <time>2020-09-29T07:38:27Z</time>
      </trkpt>
      <trkpt lat="40.5542530" lon="-3.4981680">
        <ele>738.0</ele>
        <time>2020-09-29T07:38:28Z</time>
      </trkpt>
      <trkpt lat="40.5542630" lon="-3.4982530">
        <ele>738.0</ele>
        <time>2020-09-29T07:38:29Z</time>
      </trkpt>
      <trkpt lat="40.5542630" lon="-3.4982530">
        <ele>738.0</ele>
        <time>2020-09-29T07:38:30Z</time>
      </trkpt>
      <trkpt lat="40.5542870" lon="-3.4984280">
        <ele>738.0</ele>
        <time>2020-09-29T07:38:31Z</time>
      </trkpt>
      <trkpt lat="40.5542870" lon="-3.4984280">
        <ele>738.0</ele>
        <time>2020-09-29T07:38:32Z</time>
      </trkpt>
      <trkpt lat="40.5543130" lon="-3.4986070">
        <ele>738.0</ele>
        <time>2020-09-29T07:38:33Z</time>
      </trkpt>
      <trkpt lat="40.5543280" lon="-3.4986970">
        <ele>738.0</ele>
        <time>2020-09-29T07:38:34Z</time>
      </trkpt>
      <trkpt lat="40.5543450" lon="-3.4987850">
        <ele>738.0</ele>
        <time>2020-09-29T07:38:35Z</time>
      </trkpt>
      <trkpt lat="40.5543450" lon="-3.4987850">
        <ele>738.0</ele>
        <time>2020-09-29T07:38:36Z</time>
      </trkpt>
      <trkpt lat="40.5543750" lon="-3.4989630">
        <ele>738.0</ele>
        <time>2020-09-29T07:38:37Z</time>
      </trkpt>
      <trkpt lat="40.5543750" lon="-3.4989630">
        <ele>738.0</ele>
        <time>2020-09-29T07:38:38Z</time>
      </trkpt>
      <trkpt lat="40.5544130" lon="-3.4991400">
        <ele>738.0</ele>
        <time>2020-09-29T07:38:39Z</time>
      </trkpt>
      <trkpt lat="40.5544130" lon="-3.4991400">
        <ele>738.0</ele>
        <time>2020-09-29T07:38:40Z</time>
      </trkpt>
      <trkpt lat="40.5544500" lon="-3.4993130">
        <ele>738.0</ele>
        <time>2020-09-29T07:38:41Z</time>
      </trkpt>
      <trkpt lat="40.5544500" lon="-3.4993130">
        <ele>738.0</ele>
        <time>2020-09-29T07:38:42Z</time>
      </trkpt>
      <trkpt lat="40.5544920" lon="-3.4994850">
        <ele>738.0</ele>
        <time>2020-09-29T07:38:43Z</time>
      </trkpt>
      <trkpt lat="40.5544920" lon="-3.4994850">
        <ele>738.0</ele>
        <time>2020-09-29T07:38:44Z</time>
      </trkpt>
      <trkpt lat="40.5545270" lon="-3.4996670">
        <ele>738.0</ele>
        <time>2020-09-29T07:38:45Z</time>
      </trkpt>
      <trkpt lat="40.5545270" lon="-3.4996670">
        <ele>738.0</ele>
        <time>2020-09-29T07:38:46Z</time>
      </trkpt>
      <trkpt lat="40.5545680" lon="-3.4998570">
        <ele>738.0</ele>
        <time>2020-09-29T07:38:47Z</time>
      </trkpt>
      <trkpt lat="40.5545680" lon="-3.4998570">
        <ele>738.0</ele>
        <time>2020-09-29T07:38:48Z</time>
      </trkpt>
      <trkpt lat="40.5546150" lon="-3.5000600">
        <ele>738.0</ele>
        <time>2020-09-29T07:38:49Z</time>
      </trkpt>
      <trkpt lat="40.5546150" lon="-3.5000600">
        <ele>738.0</ele>
        <time>2020-09-29T07:38:50Z</time>
      </trkpt>
      <trkpt lat="40.5546630" lon="-3.5002720">
        <ele>737.0</ele>
        <time>2020-09-29T07:38:51Z</time>
      </trkpt>
      <trkpt lat="40.5546630" lon="-3.5002720">
        <ele>737.0</ele>
        <time>2020-09-29T07:38:52Z</time>
      </trkpt>
      <trkpt lat="40.5547230" lon="-3.5004870">
        <ele>737.0</ele>
        <time>2020-09-29T07:38:53Z</time>
      </trkpt>
      <trkpt lat="40.5547230" lon="-3.5004870">
        <ele>737.0</ele>
        <time>2020-09-29T07:38:54Z</time>
      </trkpt>
      <trkpt lat="40.5547930" lon="-3.5007000">
        <ele>736.0</ele>
        <time>2020-09-29T07:38:55Z</time>
      </trkpt>
      <trkpt lat="40.5548300" lon="-3.5008070">
        <ele>736.0</ele>
        <time>2020-09-29T07:38:56Z</time>
      </trkpt>
      <trkpt lat="40.5548300" lon="-3.5008070">
        <ele>736.0</ele>
        <time>2020-09-29T07:38:57Z</time>
      </trkpt>
      <trkpt lat="40.5549180" lon="-3.5010170">
        <ele>736.0</ele>
        <time>2020-09-29T07:38:58Z</time>
      </trkpt>
      <trkpt lat="40.5549180" lon="-3.5010170">
        <ele>735.0</ele>
        <time>2020-09-29T07:38:59Z</time>
      </trkpt>
      <trkpt lat="40.5550200" lon="-3.5012250">
        <ele>735.0</ele>
        <time>2020-09-29T07:39:00Z</time>
      </trkpt>
      <trkpt lat="40.5550750" lon="-3.5013320">
        <ele>735.0</ele>
        <time>2020-09-29T07:39:01Z</time>
      </trkpt>
      <trkpt lat="40.5550750" lon="-3.5013320">
        <ele>735.0</ele>
        <time>2020-09-29T07:39:02Z</time>
      </trkpt>
      <trkpt lat="40.5551900" lon="-3.5015470">
        <ele>733.0</ele>
        <time>2020-09-29T07:39:03Z</time>
      </trkpt>
      <trkpt lat="40.5551900" lon="-3.5015470">
        <ele>733.0</ele>
        <time>2020-09-29T07:39:04Z</time>
      </trkpt>
      <trkpt lat="40.5553120" lon="-3.5017680">
        <ele>732.0</ele>
        <time>2020-09-29T07:39:05Z</time>
      </trkpt>
      <trkpt lat="40.5553120" lon="-3.5017680">
        <ele>732.0</ele>
        <time>2020-09-29T07:39:06Z</time>
      </trkpt>
      <trkpt lat="40.5554370" lon="-3.5020000">
        <ele>731.0</ele>
        <time>2020-09-29T07:39:07Z</time>
      </trkpt>
      <trkpt lat="40.5554370" lon="-3.5020000">
        <ele>731.0</ele>
        <time>2020-09-29T07:39:08Z</time>
      </trkpt>
      <trkpt lat="40.5555670" lon="-3.5022400">
        <ele>730.0</ele>
        <time>2020-09-29T07:39:09Z</time>
      </trkpt>
      <trkpt lat="40.5556330" lon="-3.5023650">
        <ele>730.0</ele>
        <time>2020-09-29T07:39:10Z</time>
      </trkpt>
      <trkpt lat="40.5556330" lon="-3.5023650">
        <ele>729.0</ele>
        <time>2020-09-29T07:39:11Z</time>
      </trkpt>
      <trkpt lat="40.5557620" lon="-3.5026230">
        <ele>729.0</ele>
        <time>2020-09-29T07:39:12Z</time>
      </trkpt>
      <trkpt lat="40.5557620" lon="-3.5026230">
        <ele>728.0</ele>
        <time>2020-09-29T07:39:13Z</time>
      </trkpt>
      <trkpt lat="40.5558850" lon="-3.5028920">
        <ele>728.0</ele>
        <time>2020-09-29T07:39:14Z</time>
      </trkpt>
      <trkpt lat="40.5558850" lon="-3.5028920">
        <ele>727.0</ele>
        <time>2020-09-29T07:39:15Z</time>
      </trkpt>
      <trkpt lat="40.5560020" lon="-3.5031700">
        <ele>726.0</ele>
        <time>2020-09-29T07:39:16Z</time>
      </trkpt>
      <trkpt lat="40.5560020" lon="-3.5031700">
        <ele>726.0</ele>
        <time>2020-09-29T07:39:17Z</time>
      </trkpt>
      <trkpt lat="40.5561120" lon="-3.5034600">
        <ele>725.0</ele>
        <time>2020-09-29T07:39:18Z</time>
      </trkpt>
      <trkpt lat="40.5561650" lon="-3.5036080">
        <ele>725.0</ele>
        <time>2020-09-29T07:39:19Z</time>
      </trkpt>
      <trkpt lat="40.5561650" lon="-3.5036080">
        <ele>724.0</ele>
        <time>2020-09-29T07:39:20Z</time>
      </trkpt>
      <trkpt lat="40.5562700" lon="-3.5039150">
        <ele>724.0</ele>
        <time>2020-09-29T07:39:21Z</time>
      </trkpt>
      <trkpt lat="40.5562700" lon="-3.5039150">
        <ele>723.0</ele>
        <time>2020-09-29T07:39:22Z</time>
      </trkpt>
      <trkpt lat="40.5563650" lon="-3.5042270">
        <ele>723.0</ele>
        <time>2020-09-29T07:39:23Z</time>
      </trkpt>
      <trkpt lat="40.5564100" lon="-3.5043880">
        <ele>721.0</ele>
        <time>2020-09-29T07:39:24Z</time>
      </trkpt>
      <trkpt lat="40.5564520" lon="-3.5045520">
        <ele>721.0</ele>
        <time>2020-09-29T07:39:25Z</time>
      </trkpt>
      <trkpt lat="40.5564520" lon="-3.5045520">
        <ele>720.0</ele>
        <time>2020-09-29T07:39:26Z</time>
      </trkpt>
      <trkpt lat="40.5565280" lon="-3.5048830">
        <ele>720.0</ele>
        <time>2020-09-29T07:39:27Z</time>
      </trkpt>
      <trkpt lat="40.5565280" lon="-3.5048830">
        <ele>719.0</ele>
        <time>2020-09-29T07:39:28Z</time>
      </trkpt>
      <trkpt lat="40.5565970" lon="-3.5052230">
        <ele>719.0</ele>
        <time>2020-09-29T07:39:29Z</time>
      </trkpt>
      <trkpt lat="40.5565970" lon="-3.5052230">
        <ele>717.0</ele>
        <time>2020-09-29T07:39:30Z</time>
      </trkpt>
      <trkpt lat="40.5566620" lon="-3.5055670">
        <ele>717.0</ele>
        <time>2020-09-29T07:39:31Z</time>
      </trkpt>
      <trkpt lat="40.5566620" lon="-3.5055670">
        <ele>716.0</ele>
        <time>2020-09-29T07:39:32Z</time>
      </trkpt>
      <trkpt lat="40.5567100" lon="-3.5059200">
        <ele>716.0</ele>
        <time>2020-09-29T07:39:33Z</time>
      </trkpt>
      <trkpt lat="40.5567100" lon="-3.5059200">
        <ele>714.0</ele>
        <time>2020-09-29T07:39:34Z</time>
      </trkpt>
      <trkpt lat="40.5567450" lon="-3.5062750">
        <ele>714.0</ele>
        <time>2020-09-29T07:39:35Z</time>
      </trkpt>
      <trkpt lat="40.5567450" lon="-3.5062750">
        <ele>713.0</ele>
        <time>2020-09-29T07:39:36Z</time>
      </trkpt>
      <trkpt lat="40.5567750" lon="-3.5066320">
        <ele>713.0</ele>
        <time>2020-09-29T07:39:37Z</time>
      </trkpt>
      <trkpt lat="40.5567750" lon="-3.5066320">
        <ele>712.0</ele>
        <time>2020-09-29T07:39:38Z</time>
      </trkpt>
      <trkpt lat="40.5567880" lon="-3.5069900">
        <ele>712.0</ele>
        <time>2020-09-29T07:39:39Z</time>
      </trkpt>
      <trkpt lat="40.5567930" lon="-3.5071700">
        <ele>711.0</ele>
        <time>2020-09-29T07:39:40Z</time>
      </trkpt>
      <trkpt lat="40.5567930" lon="-3.5073480">
        <ele>711.0</ele>
        <time>2020-09-29T07:39:41Z</time>
      </trkpt>
      <trkpt lat="40.5567900" lon="-3.5075270">
        <ele>709.0</ele>
        <time>2020-09-29T07:39:42Z</time>
      </trkpt>
      <trkpt lat="40.5567870" lon="-3.5077050">
        <ele>709.0</ele>
        <time>2020-09-29T07:39:43Z</time>
      </trkpt>
      <trkpt lat="40.5567870" lon="-3.5077050">
        <ele>708.0</ele>
        <time>2020-09-29T07:39:44Z</time>
      </trkpt>
      <trkpt lat="40.5567800" lon="-3.5080630">
        <ele>708.0</ele>
        <time>2020-09-29T07:39:45Z</time>
      </trkpt>
      <trkpt lat="40.5567750" lon="-3.5082400">
        <ele>707.0</ele>
        <time>2020-09-29T07:39:46Z</time>
      </trkpt>
      <trkpt lat="40.5567750" lon="-3.5082400">
        <ele>707.0</ele>
        <time>2020-09-29T07:39:47Z</time>
      </trkpt>
      <trkpt lat="40.5567630" lon="-3.5085950">
        <ele>705.0</ele>
        <time>2020-09-29T07:39:48Z</time>
      </trkpt>
      <trkpt lat="40.5567630" lon="-3.5085950">
        <ele>705.0</ele>
        <time>2020-09-29T07:39:49Z</time>
      </trkpt>
      <trkpt lat="40.5567550" lon="-3.5089520">
        <ele>704.0</ele>
        <time>2020-09-29T07:39:50Z</time>
      </trkpt>
      <trkpt lat="40.5567550" lon="-3.5089520">
        <ele>704.0</ele>
        <time>2020-09-29T07:39:51Z</time>
      </trkpt>
      <trkpt lat="40.5567530" lon="-3.5093100">
        <ele>702.0</ele>
        <time>2020-09-29T07:39:52Z</time>
      </trkpt>
      <trkpt lat="40.5567530" lon="-3.5093100">
        <ele>702.0</ele>
        <time>2020-09-29T07:39:53Z</time>
      </trkpt>
      <trkpt lat="40.5567650" lon="-3.5096700">
        <ele>701.0</ele>
        <time>2020-09-29T07:39:54Z</time>
      </trkpt>
      <trkpt lat="40.5567650" lon="-3.5096700">
        <ele>700.0</ele>
        <time>2020-09-29T07:39:55Z</time>
      </trkpt>
      <trkpt lat="40.5567880" lon="-3.5100320">
        <ele>700.0</ele>
        <time>2020-09-29T07:39:56Z</time>
      </trkpt>
      <trkpt lat="40.5568080" lon="-3.5102130">
        <ele>698.0</ele>
        <time>2020-09-29T07:39:57Z</time>
      </trkpt>
      <trkpt lat="40.5568080" lon="-3.5102130">
        <ele>698.0</ele>
        <time>2020-09-29T07:39:58Z</time>
      </trkpt>
      <trkpt lat="40.5568550" lon="-3.5105750">
        <ele>696.0</ele>
        <time>2020-09-29T07:39:59Z</time>
      </trkpt>
      <trkpt lat="40.5568550" lon="-3.5105750">
        <ele>696.0</ele>
        <time>2020-09-29T07:40:00Z</time>
      </trkpt>
      <trkpt lat="40.5569150" lon="-3.5109400">
        <ele>694.0</ele>
        <time>2020-09-29T07:40:01Z</time>
      </trkpt>
      <trkpt lat="40.5569520" lon="-3.5111220">
        <ele>694.0</ele>
        <time>2020-09-29T07:40:02Z</time>
      </trkpt>
      <trkpt lat="40.5569900" lon="-3.5113030">
        <ele>692.0</ele>
        <time>2020-09-29T07:40:03Z</time>
      </trkpt>
      <trkpt lat="40.5569900" lon="-3.5113030">
        <ele>692.0</ele>
        <time>2020-09-29T07:40:04Z</time>
      </trkpt>
      <trkpt lat="40.5570780" lon="-3.5116600">
        <ele>690.0</ele>
        <time>2020-09-29T07:40:05Z</time>
      </trkpt>
      <trkpt lat="40.5570780" lon="-3.5116600">
        <ele>690.0</ele>
        <time>2020-09-29T07:40:06Z</time>
      </trkpt>
      <trkpt lat="40.5571800" lon="-3.5120130">
        <ele>689.0</ele>
        <time>2020-09-29T07:40:07Z</time>
      </trkpt>
      <trkpt lat="40.5571800" lon="-3.5120130">
        <ele>689.0</ele>
        <time>2020-09-29T07:40:08Z</time>
      </trkpt>
      <trkpt lat="40.5572970" lon="-3.5123600">
        <ele>689.0</ele>
        <time>2020-09-29T07:40:09Z</time>
      </trkpt>
      <trkpt lat="40.5572970" lon="-3.5123600">
        <ele>689.0</ele>
        <time>2020-09-29T07:40:10Z</time>
      </trkpt>
      <trkpt lat="40.5574250" lon="-3.5127000">
        <ele>687.0</ele>
        <time>2020-09-29T07:40:11Z</time>
      </trkpt>
      <trkpt lat="40.5574950" lon="-3.5128650">
        <ele>687.0</ele>
        <time>2020-09-29T07:40:12Z</time>
      </trkpt>
      <trkpt lat="40.5575680" lon="-3.5130280">
        <ele>686.0</ele>
        <time>2020-09-29T07:40:13Z</time>
      </trkpt>
      <trkpt lat="40.5575680" lon="-3.5130280">
        <ele>686.0</ele>
        <time>2020-09-29T07:40:14Z</time>
      </trkpt>
      <trkpt lat="40.5577170" lon="-3.5133470">
        <ele>685.0</ele>
        <time>2020-09-29T07:40:15Z</time>
      </trkpt>
      <trkpt lat="40.5577170" lon="-3.5133470">
        <ele>685.0</ele>
        <time>2020-09-29T07:40:16Z</time>
      </trkpt>
      <trkpt lat="40.5578800" lon="-3.5136520">
        <ele>684.0</ele>
        <time>2020-09-29T07:40:17Z</time>
      </trkpt>
      <trkpt lat="40.5579630" lon="-3.5138000">
        <ele>684.0</ele>
        <time>2020-09-29T07:40:18Z</time>
      </trkpt>
      <trkpt lat="40.5580520" lon="-3.5139430">
        <ele>682.0</ele>
        <time>2020-09-29T07:40:19Z</time>
      </trkpt>
      <trkpt lat="40.5580520" lon="-3.5139430">
        <ele>682.0</ele>
        <time>2020-09-29T07:40:20Z</time>
      </trkpt>
      <trkpt lat="40.5582320" lon="-3.5142230">
        <ele>681.0</ele>
        <time>2020-09-29T07:40:21Z</time>
      </trkpt>
      <trkpt lat="40.5582320" lon="-3.5142230">
        <ele>681.0</ele>
        <time>2020-09-29T07:40:22Z</time>
      </trkpt>
      <trkpt lat="40.5584180" lon="-3.5144850">
        <ele>680.0</ele>
        <time>2020-09-29T07:40:23Z</time>
      </trkpt>
      <trkpt lat="40.5584180" lon="-3.5144850">
        <ele>680.0</ele>
        <time>2020-09-29T07:40:24Z</time>
      </trkpt>
      <trkpt lat="40.5586130" lon="-3.5147320">
        <ele>678.0</ele>
        <time>2020-09-29T07:40:25Z</time>
      </trkpt>
      <trkpt lat="40.5586130" lon="-3.5147320">
        <ele>678.0</ele>
        <time>2020-09-29T07:40:26Z</time>
      </trkpt>
      <trkpt lat="40.5588120" lon="-3.5149650">
        <ele>677.0</ele>
        <time>2020-09-29T07:40:27Z</time>
      </trkpt>
      <trkpt lat="40.5588120" lon="-3.5149650">
        <ele>677.0</ele>
        <time>2020-09-29T07:40:28Z</time>
      </trkpt>
      <trkpt lat="40.5590150" lon="-3.5151830">
        <ele>676.0</ele>
        <time>2020-09-29T07:40:29Z</time>
      </trkpt>
      <trkpt lat="40.5590150" lon="-3.5151830">
        <ele>676.0</ele>
        <time>2020-09-29T07:40:30Z</time>
      </trkpt>
      <trkpt lat="40.5592250" lon="-3.5153830">
        <ele>675.0</ele>
        <time>2020-09-29T07:40:31Z</time>
      </trkpt>
      <trkpt lat="40.5592250" lon="-3.5153830">
        <ele>675.0</ele>
        <time>2020-09-29T07:40:32Z</time>
      </trkpt>
      <trkpt lat="40.5594370" lon="-3.5155650">
        <ele>674.0</ele>
        <time>2020-09-29T07:40:33Z</time>
      </trkpt>
      <trkpt lat="40.5594370" lon="-3.5155650">
        <ele>674.0</ele>
        <time>2020-09-29T07:40:34Z</time>
      </trkpt>
      <trkpt lat="40.5596530" lon="-3.5157280">
        <ele>673.0</ele>
        <time>2020-09-29T07:40:35Z</time>
      </trkpt>
      <trkpt lat="40.5597620" lon="-3.5158080">
        <ele>672.0</ele>
        <time>2020-09-29T07:40:36Z</time>
      </trkpt>
      <trkpt lat="40.5598730" lon="-3.5158850">
        <ele>672.0</ele>
        <time>2020-09-29T07:40:37Z</time>
      </trkpt>
      <trkpt lat="40.5598730" lon="-3.5158850">
        <ele>671.0</ele>
        <time>2020-09-29T07:40:38Z</time>
      </trkpt>
      <trkpt lat="40.5600950" lon="-3.5160280">
        <ele>671.0</ele>
        <time>2020-09-29T07:40:39Z</time>
      </trkpt>
      <trkpt lat="40.5600950" lon="-3.5160280">
        <ele>671.0</ele>
        <time>2020-09-29T07:40:40Z</time>
      </trkpt>
      <trkpt lat="40.5603150" lon="-3.5161620">
        <ele>671.0</ele>
        <time>2020-09-29T07:40:41Z</time>
      </trkpt>
      <trkpt lat="40.5603150" lon="-3.5161620">
        <ele>670.0</ele>
        <time>2020-09-29T07:40:42Z</time>
      </trkpt>
      <trkpt lat="40.5605370" lon="-3.5162870">
        <ele>670.0</ele>
        <time>2020-09-29T07:40:43Z</time>
      </trkpt>
      <trkpt lat="40.5605370" lon="-3.5162870">
        <ele>669.0</ele>
        <time>2020-09-29T07:40:44Z</time>
      </trkpt>
      <trkpt lat="40.5607630" lon="-3.5163920">
        <ele>669.0</ele>
        <time>2020-09-29T07:40:45Z</time>
      </trkpt>
      <trkpt lat="40.5607630" lon="-3.5163920">
        <ele>668.0</ele>
        <time>2020-09-29T07:40:46Z</time>
      </trkpt>
      <trkpt lat="40.5609870" lon="-3.5164850">
        <ele>668.0</ele>
        <time>2020-09-29T07:40:47Z</time>
      </trkpt>
      <trkpt lat="40.5610980" lon="-3.5165270">
        <ele>667.0</ele>
        <time>2020-09-29T07:40:48Z</time>
      </trkpt>
      <trkpt lat="40.5612100" lon="-3.5165670">
        <ele>667.0</ele>
        <time>2020-09-29T07:40:49Z</time>
      </trkpt>
      <trkpt lat="40.5612100" lon="-3.5165670">
        <ele>666.0</ele>
        <time>2020-09-29T07:40:50Z</time>
      </trkpt>
      <trkpt lat="40.5614330" lon="-3.5166380">
        <ele>666.0</ele>
        <time>2020-09-29T07:40:51Z</time>
      </trkpt>
      <trkpt lat="40.5614330" lon="-3.5166380">
        <ele>665.0</ele>
        <time>2020-09-29T07:40:52Z</time>
      </trkpt>
      <trkpt lat="40.5616600" lon="-3.5166880">
        <ele>665.0</ele>
        <time>2020-09-29T07:40:53Z</time>
      </trkpt>
      <trkpt lat="40.5616600" lon="-3.5166880">
        <ele>664.0</ele>
        <time>2020-09-29T07:40:54Z</time>
      </trkpt>
      <trkpt lat="40.5618880" lon="-3.5167250">
        <ele>664.0</ele>
        <time>2020-09-29T07:40:55Z</time>
      </trkpt>
      <trkpt lat="40.5618880" lon="-3.5167250">
        <ele>663.0</ele>
        <time>2020-09-29T07:40:56Z</time>
      </trkpt>
      <trkpt lat="40.5621170" lon="-3.5167620">
        <ele>663.0</ele>
        <time>2020-09-29T07:40:57Z</time>
      </trkpt>
      <trkpt lat="40.5621170" lon="-3.5167620">
        <ele>662.0</ele>
        <time>2020-09-29T07:40:58Z</time>
      </trkpt>
      <trkpt lat="40.5623470" lon="-3.5167950">
        <ele>662.0</ele>
        <time>2020-09-29T07:40:59Z</time>
      </trkpt>
      <trkpt lat="40.5623470" lon="-3.5167950">
        <ele>661.0</ele>
        <time>2020-09-29T07:41:00Z</time>
      </trkpt>
      <trkpt lat="40.5625770" lon="-3.5168220">
        <ele>661.0</ele>
        <time>2020-09-29T07:41:01Z</time>
      </trkpt>
      <trkpt lat="40.5625770" lon="-3.5168220">
        <ele>660.0</ele>
        <time>2020-09-29T07:41:02Z</time>
      </trkpt>
      <trkpt lat="40.5628070" lon="-3.5168500">
        <ele>660.0</ele>
        <time>2020-09-29T07:41:03Z</time>
      </trkpt>
      <trkpt lat="40.5628070" lon="-3.5168500">
        <ele>659.0</ele>
        <time>2020-09-29T07:41:04Z</time>
      </trkpt>
      <trkpt lat="40.5630350" lon="-3.5168800">
        <ele>659.0</ele>
        <time>2020-09-29T07:41:05Z</time>
      </trkpt>
      <trkpt lat="40.5630350" lon="-3.5168800">
        <ele>658.0</ele>
        <time>2020-09-29T07:41:06Z</time>
      </trkpt>
      <trkpt lat="40.5632620" lon="-3.5169150">
        <ele>658.0</ele>
        <time>2020-09-29T07:41:07Z</time>
      </trkpt>
      <trkpt lat="40.5632620" lon="-3.5169150">
        <ele>657.0</ele>
        <time>2020-09-29T07:41:08Z</time>
      </trkpt>
      <trkpt lat="40.5634880" lon="-3.5169530">
        <ele>657.0</ele>
        <time>2020-09-29T07:41:09Z</time>
      </trkpt>
      <trkpt lat="40.5636000" lon="-3.5169730">
        <ele>656.0</ele>
        <time>2020-09-29T07:41:10Z</time>
      </trkpt>
      <trkpt lat="40.5637120" lon="-3.5169930">
        <ele>656.0</ele>
        <time>2020-09-29T07:41:11Z</time>
      </trkpt>
      <trkpt lat="40.5638270" lon="-3.5170120">
        <ele>656.0</ele>
        <time>2020-09-29T07:41:12Z</time>
      </trkpt>
      <trkpt lat="40.5638270" lon="-3.5170120">
        <ele>656.0</ele>
        <time>2020-09-29T07:41:13Z</time>
      </trkpt>
      <trkpt lat="40.5640520" lon="-3.5170680">
        <ele>655.0</ele>
        <time>2020-09-29T07:41:14Z</time>
      </trkpt>
      <trkpt lat="40.5641670" lon="-3.5171030">
        <ele>654.0</ele>
        <time>2020-09-29T07:41:15Z</time>
      </trkpt>
      <trkpt lat="40.5641670" lon="-3.5171030">
        <ele>654.0</ele>
        <time>2020-09-29T07:41:16Z</time>
      </trkpt>
      <trkpt lat="40.5643980" lon="-3.5171680">
        <ele>654.0</ele>
        <time>2020-09-29T07:41:17Z</time>
      </trkpt>
      <trkpt lat="40.5643980" lon="-3.5171680">
        <ele>654.0</ele>
        <time>2020-09-29T07:41:18Z</time>
      </trkpt>
      <trkpt lat="40.5646280" lon="-3.5172380">
        <ele>652.0</ele>
        <time>2020-09-29T07:41:19Z</time>
      </trkpt>
      <trkpt lat="40.5646280" lon="-3.5172380">
        <ele>652.0</ele>
        <time>2020-09-29T07:41:20Z</time>
      </trkpt>
      <trkpt lat="40.5648550" lon="-3.5173150">
        <ele>652.0</ele>
        <time>2020-09-29T07:41:21Z</time>
      </trkpt>
      <trkpt lat="40.5648550" lon="-3.5173150">
        <ele>652.0</ele>
        <time>2020-09-29T07:41:22Z</time>
      </trkpt>
      <trkpt lat="40.5650780" lon="-3.5173970">
        <ele>651.0</ele>
        <time>2020-09-29T07:41:23Z</time>
      </trkpt>
      <trkpt lat="40.5650780" lon="-3.5173970">
        <ele>651.0</ele>
        <time>2020-09-29T07:41:24Z</time>
      </trkpt>
      <trkpt lat="40.5652970" lon="-3.5174820">
        <ele>651.0</ele>
        <time>2020-09-29T07:41:25Z</time>
      </trkpt>
      <trkpt lat="40.5652970" lon="-3.5174820">
        <ele>651.0</ele>
        <time>2020-09-29T07:41:26Z</time>
      </trkpt>
      <trkpt lat="40.5655080" lon="-3.5175680">
        <ele>650.0</ele>
        <time>2020-09-29T07:41:27Z</time>
      </trkpt>
      <trkpt lat="40.5655080" lon="-3.5175680">
        <ele>650.0</ele>
        <time>2020-09-29T07:41:28Z</time>
      </trkpt>
      <trkpt lat="40.5657130" lon="-3.5176620">
        <ele>650.0</ele>
        <time>2020-09-29T07:41:29Z</time>
      </trkpt>
      <trkpt lat="40.5658130" lon="-3.5177080">
        <ele>650.0</ele>
        <time>2020-09-29T07:41:30Z</time>
      </trkpt>
      <trkpt lat="40.5658130" lon="-3.5177080">
        <ele>650.0</ele>
        <time>2020-09-29T07:41:31Z</time>
      </trkpt>
      <trkpt lat="40.5660080" lon="-3.5178000">
        <ele>650.0</ele>
        <time>2020-09-29T07:41:32Z</time>
      </trkpt>
      <trkpt lat="40.5661050" lon="-3.5178470">
        <ele>650.0</ele>
        <time>2020-09-29T07:41:33Z</time>
      </trkpt>
      <trkpt lat="40.5661050" lon="-3.5178470">
        <ele>650.0</ele>
        <time>2020-09-29T07:41:34Z</time>
      </trkpt>
      <trkpt lat="40.5662900" lon="-3.5179470">
        <ele>650.0</ele>
        <time>2020-09-29T07:41:35Z</time>
      </trkpt>
      <trkpt lat="40.5662900" lon="-3.5179470">
        <ele>650.0</ele>
        <time>2020-09-29T07:41:36Z</time>
      </trkpt>
      <trkpt lat="40.5664650" lon="-3.5180500">
        <ele>650.0</ele>
        <time>2020-09-29T07:41:37Z</time>
      </trkpt>
      <trkpt lat="40.5664650" lon="-3.5180500">
        <ele>650.0</ele>
        <time>2020-09-29T07:41:38Z</time>
      </trkpt>
      <trkpt lat="40.5666400" lon="-3.5181470">
        <ele>649.0</ele>
        <time>2020-09-29T07:41:39Z</time>
      </trkpt>
      <trkpt lat="40.5666400" lon="-3.5181470">
        <ele>649.0</ele>
        <time>2020-09-29T07:41:40Z</time>
      </trkpt>
      <trkpt lat="40.5668050" lon="-3.5182500">
        <ele>649.0</ele>
        <time>2020-09-29T07:41:41Z</time>
      </trkpt>
      <trkpt lat="40.5668050" lon="-3.5182500">
        <ele>649.0</ele>
        <time>2020-09-29T07:41:42Z</time>
      </trkpt>
      <trkpt lat="40.5669650" lon="-3.5183530">
        <ele>649.0</ele>
        <time>2020-09-29T07:41:43Z</time>
      </trkpt>
      <trkpt lat="40.5669650" lon="-3.5183530">
        <ele>649.0</ele>
        <time>2020-09-29T07:41:44Z</time>
      </trkpt>
      <trkpt lat="40.5671220" lon="-3.5184550">
        <ele>649.0</ele>
        <time>2020-09-29T07:41:45Z</time>
      </trkpt>
      <trkpt lat="40.5671970" lon="-3.5185070">
        <ele>649.0</ele>
        <time>2020-09-29T07:41:46Z</time>
      </trkpt>
      <trkpt lat="40.5672700" lon="-3.5185600">
        <ele>649.0</ele>
        <time>2020-09-29T07:41:47Z</time>
      </trkpt>
      <trkpt lat="40.5672700" lon="-3.5185600">
        <ele>649.0</ele>
        <time>2020-09-29T07:41:48Z</time>
      </trkpt>
      <trkpt lat="40.5674150" lon="-3.5186620">
        <ele>649.0</ele>
        <time>2020-09-29T07:41:49Z</time>
      </trkpt>
      <trkpt lat="40.5674150" lon="-3.5186620">
        <ele>649.0</ele>
        <time>2020-09-29T07:41:50Z</time>
      </trkpt>
      <trkpt lat="40.5675550" lon="-3.5187630">
        <ele>649.0</ele>
        <time>2020-09-29T07:41:51Z</time>
      </trkpt>
      <trkpt lat="40.5675550" lon="-3.5187630">
        <ele>649.0</ele>
        <time>2020-09-29T07:41:52Z</time>
      </trkpt>
      <trkpt lat="40.5676880" lon="-3.5188680">
        <ele>649.0</ele>
        <time>2020-09-29T07:41:53Z</time>
      </trkpt>
      <trkpt lat="40.5676880" lon="-3.5188680">
        <ele>649.0</ele>
        <time>2020-09-29T07:41:54Z</time>
      </trkpt>
      <trkpt lat="40.5678130" lon="-3.5189670">
        <ele>649.0</ele>
        <time>2020-09-29T07:41:55Z</time>
      </trkpt>
      <trkpt lat="40.5678130" lon="-3.5189670">
        <ele>650.0</ele>
        <time>2020-09-29T07:41:56Z</time>
      </trkpt>
      <trkpt lat="40.5679300" lon="-3.5190650">
        <ele>650.0</ele>
        <time>2020-09-29T07:41:57Z</time>
      </trkpt>
      <trkpt lat="40.5679300" lon="-3.5190650">
        <ele>650.0</ele>
        <time>2020-09-29T07:41:58Z</time>
      </trkpt>
      <trkpt lat="40.5680420" lon="-3.5191630">
        <ele>650.0</ele>
        <time>2020-09-29T07:41:59Z</time>
      </trkpt>
      <trkpt lat="40.5680980" lon="-3.5192130">
        <ele>650.0</ele>
        <time>2020-09-29T07:42:00Z</time>
      </trkpt>
      <trkpt lat="40.5681570" lon="-3.5192630">
        <ele>650.0</ele>
        <time>2020-09-29T07:42:01Z</time>
      </trkpt>
      <trkpt lat="40.5681570" lon="-3.5192630">
        <ele>650.0</ele>
        <time>2020-09-29T07:42:02Z</time>
      </trkpt>
      <trkpt lat="40.5682670" lon="-3.5193620">
        <ele>650.0</ele>
        <time>2020-09-29T07:42:03Z</time>
      </trkpt>
      <trkpt lat="40.5682670" lon="-3.5193620">
        <ele>650.0</ele>
        <time>2020-09-29T07:42:04Z</time>
      </trkpt>
      <trkpt lat="40.5683820" lon="-3.5194580">
        <ele>650.0</ele>
        <time>2020-09-29T07:42:05Z</time>
      </trkpt>
      <trkpt lat="40.5684370" lon="-3.5195120">
        <ele>650.0</ele>
        <time>2020-09-29T07:42:06Z</time>
      </trkpt>
      <trkpt lat="40.5684370" lon="-3.5195120">
        <ele>650.0</ele>
        <time>2020-09-29T07:42:07Z</time>
      </trkpt>
      <trkpt lat="40.5685450" lon="-3.5196170">
        <ele>650.0</ele>
        <time>2020-09-29T07:42:08Z</time>
      </trkpt>
      <trkpt lat="40.5685450" lon="-3.5196170">
        <ele>650.0</ele>
        <time>2020-09-29T07:42:09Z</time>
      </trkpt>
      <trkpt lat="40.5686550" lon="-3.5197220">
        <ele>650.0</ele>
        <time>2020-09-29T07:42:10Z</time>
      </trkpt>
      <trkpt lat="40.5687080" lon="-3.5197750">
        <ele>650.0</ele>
        <time>2020-09-29T07:42:11Z</time>
      </trkpt>
      <trkpt lat="40.5687080" lon="-3.5197750">
        <ele>650.0</ele>
        <time>2020-09-29T07:42:12Z</time>
      </trkpt>
      <trkpt lat="40.5688120" lon="-3.5198800">
        <ele>650.0</ele>
        <time>2020-09-29T07:42:13Z</time>
      </trkpt>
      <trkpt lat="40.5688120" lon="-3.5198800">
        <ele>650.0</ele>
        <time>2020-09-29T07:42:14Z</time>
      </trkpt>
      <trkpt lat="40.5689130" lon="-3.5199800">
        <ele>650.0</ele>
        <time>2020-09-29T07:42:15Z</time>
      </trkpt>
      <trkpt lat="40.5689130" lon="-3.5199800">
        <ele>650.0</ele>
        <time>2020-09-29T07:42:16Z</time>
      </trkpt>
      <trkpt lat="40.5690100" lon="-3.5200830">
        <ele>650.0</ele>
        <time>2020-09-29T07:42:17Z</time>
      </trkpt>
      <trkpt lat="40.5690580" lon="-3.5201350">
        <ele>651.0</ele>
        <time>2020-09-29T07:42:18Z</time>
      </trkpt>
      <trkpt lat="40.5691070" lon="-3.5201880">
        <ele>651.0</ele>
        <time>2020-09-29T07:42:19Z</time>
      </trkpt>
      <trkpt lat="40.5691070" lon="-3.5201880">
        <ele>651.0</ele>
        <time>2020-09-29T07:42:20Z</time>
      </trkpt>
      <trkpt lat="40.5692000" lon="-3.5202920">
        <ele>651.0</ele>
        <time>2020-09-29T07:42:21Z</time>
      </trkpt>
      <trkpt lat="40.5692000" lon="-3.5202920">
        <ele>651.0</ele>
        <time>2020-09-29T07:42:22Z</time>
      </trkpt>
      <trkpt lat="40.5692920" lon="-3.5204050">
        <ele>651.0</ele>
        <time>2020-09-29T07:42:23Z</time>
      </trkpt>
      <trkpt lat="40.5692920" lon="-3.5204050">
        <ele>651.0</ele>
        <time>2020-09-29T07:42:24Z</time>
      </trkpt>
      <trkpt lat="40.5693850" lon="-3.5205200">
        <ele>651.0</ele>
        <time>2020-09-29T07:42:25Z</time>
      </trkpt>
      <trkpt lat="40.5693850" lon="-3.5205200">
        <ele>651.0</ele>
        <time>2020-09-29T07:42:26Z</time>
      </trkpt>
      <trkpt lat="40.5694830" lon="-3.5206300">
        <ele>651.0</ele>
        <time>2020-09-29T07:42:27Z</time>
      </trkpt>
      <trkpt lat="40.5695320" lon="-3.5206850">
        <ele>651.0</ele>
        <time>2020-09-29T07:42:28Z</time>
      </trkpt>
      <trkpt lat="40.5695320" lon="-3.5206850">
        <ele>651.0</ele>
        <time>2020-09-29T07:42:29Z</time>
      </trkpt>
      <trkpt lat="40.5696250" lon="-3.5208000">
        <ele>652.0</ele>
        <time>2020-09-29T07:42:30Z</time>
      </trkpt>
      <trkpt lat="40.5696720" lon="-3.5208580">
        <ele>652.0</ele>
        <time>2020-09-29T07:42:31Z</time>
      </trkpt>
      <trkpt lat="40.5696720" lon="-3.5208580">
        <ele>652.0</ele>
        <time>2020-09-29T07:42:32Z</time>
      </trkpt>
      <trkpt lat="40.5697650" lon="-3.5209720">
        <ele>652.0</ele>
        <time>2020-09-29T07:42:33Z</time>
      </trkpt>
      <trkpt lat="40.5698100" lon="-3.5210330">
        <ele>652.0</ele>
        <time>2020-09-29T07:42:34Z</time>
      </trkpt>
      <trkpt lat="40.5698550" lon="-3.5210920">
        <ele>652.0</ele>
        <time>2020-09-29T07:42:35Z</time>
      </trkpt>
      <trkpt lat="40.5699030" lon="-3.5211520">
        <ele>652.0</ele>
        <time>2020-09-29T07:42:36Z</time>
      </trkpt>
      <trkpt lat="40.5699030" lon="-3.5211520">
        <ele>652.0</ele>
        <time>2020-09-29T07:42:37Z</time>
      </trkpt>
      <trkpt lat="40.5699970" lon="-3.5212650">
        <ele>652.0</ele>
        <time>2020-09-29T07:42:38Z</time>
      </trkpt>
      <trkpt lat="40.5699970" lon="-3.5212650">
        <ele>652.0</ele>
        <time>2020-09-29T07:42:39Z</time>
      </trkpt>
      <trkpt lat="40.5700970" lon="-3.5213700">
        <ele>653.0</ele>
        <time>2020-09-29T07:42:40Z</time>
      </trkpt>
      <trkpt lat="40.5700970" lon="-3.5213700">
        <ele>653.0</ele>
        <time>2020-09-29T07:42:41Z</time>
      </trkpt>
      <trkpt lat="40.5701920" lon="-3.5214830">
        <ele>653.0</ele>
        <time>2020-09-29T07:42:42Z</time>
      </trkpt>
      <trkpt lat="40.5702350" lon="-3.5215470">
        <ele>653.0</ele>
        <time>2020-09-29T07:42:43Z</time>
      </trkpt>
      <trkpt lat="40.5702350" lon="-3.5215470">
        <ele>653.0</ele>
        <time>2020-09-29T07:42:44Z</time>
      </trkpt>
      <trkpt lat="40.5703220" lon="-3.5216730">
        <ele>653.0</ele>
        <time>2020-09-29T07:42:45Z</time>
      </trkpt>
      <trkpt lat="40.5703220" lon="-3.5216730">
        <ele>653.0</ele>
        <time>2020-09-29T07:42:46Z</time>
      </trkpt>
      <trkpt lat="40.5704070" lon="-3.5218000">
        <ele>653.0</ele>
        <time>2020-09-29T07:42:47Z</time>
      </trkpt>
      <trkpt lat="40.5704500" lon="-3.5218630">
        <ele>653.0</ele>
        <time>2020-09-29T07:42:48Z</time>
      </trkpt>
      <trkpt lat="40.5704500" lon="-3.5218630">
        <ele>653.0</ele>
        <time>2020-09-29T07:42:49Z</time>
      </trkpt>
      <trkpt lat="40.5705300" lon="-3.5219930">
        <ele>654.0</ele>
        <time>2020-09-29T07:42:50Z</time>
      </trkpt>
      <trkpt lat="40.5705300" lon="-3.5219930">
        <ele>654.0</ele>
        <time>2020-09-29T07:42:51Z</time>
      </trkpt>
      <trkpt lat="40.5706100" lon="-3.5221200">
        <ele>654.0</ele>
        <time>2020-09-29T07:42:52Z</time>
      </trkpt>
      <trkpt lat="40.5706100" lon="-3.5221200">
        <ele>654.0</ele>
        <time>2020-09-29T07:42:53Z</time>
      </trkpt>
      <trkpt lat="40.5706870" lon="-3.5222520">
        <ele>654.0</ele>
        <time>2020-09-29T07:42:54Z</time>
      </trkpt>
      <trkpt lat="40.5707250" lon="-3.5223180">
        <ele>654.0</ele>
        <time>2020-09-29T07:42:55Z</time>
      </trkpt>
      <trkpt lat="40.5707250" lon="-3.5223180">
        <ele>654.0</ele>
        <time>2020-09-29T07:42:56Z</time>
      </trkpt>
      <trkpt lat="40.5708000" lon="-3.5224530">
        <ele>654.0</ele>
        <time>2020-09-29T07:42:57Z</time>
      </trkpt>
      <trkpt lat="40.5708000" lon="-3.5224530">
        <ele>654.0</ele>
        <time>2020-09-29T07:42:58Z</time>
      </trkpt>
      <trkpt lat="40.5708700" lon="-3.5225880">
        <ele>654.0</ele>
        <time>2020-09-29T07:42:59Z</time>
      </trkpt>
      <trkpt lat="40.5708700" lon="-3.5225880">
        <ele>654.0</ele>
        <time>2020-09-29T07:43:00Z</time>
      </trkpt>
      <trkpt lat="40.5709400" lon="-3.5227300">
        <ele>655.0</ele>
        <time>2020-09-29T07:43:01Z</time>
      </trkpt>
      <trkpt lat="40.5709400" lon="-3.5227300">
        <ele>655.0</ele>
        <time>2020-09-29T07:43:02Z</time>
      </trkpt>
      <trkpt lat="40.5710150" lon="-3.5228720">
        <ele>655.0</ele>
        <time>2020-09-29T07:43:03Z</time>
      </trkpt>
      <trkpt lat="40.5710150" lon="-3.5228720">
        <ele>655.0</ele>
        <time>2020-09-29T07:43:04Z</time>
      </trkpt>
      <trkpt lat="40.5710920" lon="-3.5230100">
        <ele>655.0</ele>
        <time>2020-09-29T07:43:05Z</time>
      </trkpt>
      <trkpt lat="40.5710920" lon="-3.5230100">
        <ele>655.0</ele>
        <time>2020-09-29T07:43:06Z</time>
      </trkpt>
      <trkpt lat="40.5711700" lon="-3.5231520">
        <ele>655.0</ele>
        <time>2020-09-29T07:43:07Z</time>
      </trkpt>
      <trkpt lat="40.5712080" lon="-3.5232220">
        <ele>655.0</ele>
        <time>2020-09-29T07:43:08Z</time>
      </trkpt>
      <trkpt lat="40.5712080" lon="-3.5232220">
        <ele>655.0</ele>
        <time>2020-09-29T07:43:09Z</time>
      </trkpt>
      <trkpt lat="40.5712870" lon="-3.5233630">
        <ele>655.0</ele>
        <time>2020-09-29T07:43:10Z</time>
      </trkpt>
      <trkpt lat="40.5712870" lon="-3.5233630">
        <ele>655.0</ele>
        <time>2020-09-29T07:43:11Z</time>
      </trkpt>
      <trkpt lat="40.5713620" lon="-3.5235100">
        <ele>655.0</ele>
        <time>2020-09-29T07:43:12Z</time>
      </trkpt>
      <trkpt lat="40.5713980" lon="-3.5235850">
        <ele>655.0</ele>
        <time>2020-09-29T07:43:13Z</time>
      </trkpt>
      <trkpt lat="40.5713980" lon="-3.5235850">
        <ele>655.0</ele>
        <time>2020-09-29T07:43:14Z</time>
      </trkpt>
      <trkpt lat="40.5714720" lon="-3.5237370">
        <ele>655.0</ele>
        <time>2020-09-29T07:43:15Z</time>
      </trkpt>
      <trkpt lat="40.5715070" lon="-3.5238130">
        <ele>655.0</ele>
        <time>2020-09-29T07:43:16Z</time>
      </trkpt>
      <trkpt lat="40.5715070" lon="-3.5238130">
        <ele>655.0</ele>
        <time>2020-09-29T07:43:17Z</time>
      </trkpt>
      <trkpt lat="40.5715800" lon="-3.5239720">
        <ele>655.0</ele>
        <time>2020-09-29T07:43:18Z</time>
      </trkpt>
      <trkpt lat="40.5716150" lon="-3.5240500">
        <ele>655.0</ele>
        <time>2020-09-29T07:43:19Z</time>
      </trkpt>
      <trkpt lat="40.5716150" lon="-3.5240500">
        <ele>655.0</ele>
        <time>2020-09-29T07:43:20Z</time>
      </trkpt>
      <trkpt lat="40.5716880" lon="-3.5242120">
        <ele>655.0</ele>
        <time>2020-09-29T07:43:21Z</time>
      </trkpt>
      <trkpt lat="40.5716880" lon="-3.5242120">
        <ele>654.0</ele>
        <time>2020-09-29T07:43:22Z</time>
      </trkpt>
      <trkpt lat="40.5717570" lon="-3.5243770">
        <ele>654.0</ele>
        <time>2020-09-29T07:43:23Z</time>
      </trkpt>
      <trkpt lat="40.5717920" lon="-3.5244620">
        <ele>654.0</ele>
        <time>2020-09-29T07:43:24Z</time>
      </trkpt>
      <trkpt lat="40.5718270" lon="-3.5245450">
        <ele>654.0</ele>
        <time>2020-09-29T07:43:25Z</time>
      </trkpt>
      <trkpt lat="40.5718270" lon="-3.5245450">
        <ele>654.0</ele>
        <time>2020-09-29T07:43:26Z</time>
      </trkpt>
      <trkpt lat="40.5718970" lon="-3.5247180">
        <ele>654.0</ele>
        <time>2020-09-29T07:43:27Z</time>
      </trkpt>
      <trkpt lat="40.5719320" lon="-3.5248050">
        <ele>653.0</ele>
        <time>2020-09-29T07:43:28Z</time>
      </trkpt>
      <trkpt lat="40.5719320" lon="-3.5248050">
        <ele>653.0</ele>
        <time>2020-09-29T07:43:29Z</time>
      </trkpt>
      <trkpt lat="40.5720030" lon="-3.5249830">
        <ele>653.0</ele>
        <time>2020-09-29T07:43:30Z</time>
      </trkpt>
      <trkpt lat="40.5720030" lon="-3.5249830">
        <ele>653.0</ele>
        <time>2020-09-29T07:43:31Z</time>
      </trkpt>
      <trkpt lat="40.5720720" lon="-3.5251670">
        <ele>653.0</ele>
        <time>2020-09-29T07:43:32Z</time>
      </trkpt>
      <trkpt lat="40.5721050" lon="-3.5252620">
        <ele>653.0</ele>
        <time>2020-09-29T07:43:33Z</time>
      </trkpt>
      <trkpt lat="40.5721050" lon="-3.5252620">
        <ele>653.0</ele>
        <time>2020-09-29T07:43:34Z</time>
      </trkpt>
      <trkpt lat="40.5721750" lon="-3.5254530">
        <ele>652.0</ele>
        <time>2020-09-29T07:43:35Z</time>
      </trkpt>
      <trkpt lat="40.5721750" lon="-3.5254530">
        <ele>652.0</ele>
        <time>2020-09-29T07:43:36Z</time>
      </trkpt>
      <trkpt lat="40.5722430" lon="-3.5256500">
        <ele>652.0</ele>
        <time>2020-09-29T07:43:37Z</time>
      </trkpt>
      <trkpt lat="40.5722430" lon="-3.5256500">
        <ele>652.0</ele>
        <time>2020-09-29T07:43:38Z</time>
      </trkpt>
      <trkpt lat="40.5723080" lon="-3.5258500">
        <ele>651.0</ele>
        <time>2020-09-29T07:43:39Z</time>
      </trkpt>
      <trkpt lat="40.5723080" lon="-3.5258500">
        <ele>651.0</ele>
        <time>2020-09-29T07:43:40Z</time>
      </trkpt>
      <trkpt lat="40.5723750" lon="-3.5260550">
        <ele>651.0</ele>
        <time>2020-09-29T07:43:41Z</time>
      </trkpt>
      <trkpt lat="40.5723750" lon="-3.5260550">
        <ele>651.0</ele>
        <time>2020-09-29T07:43:42Z</time>
      </trkpt>
      <trkpt lat="40.5724380" lon="-3.5262620">
        <ele>650.0</ele>
        <time>2020-09-29T07:43:43Z</time>
      </trkpt>
      <trkpt lat="40.5724380" lon="-3.5262620">
        <ele>650.0</ele>
        <time>2020-09-29T07:43:44Z</time>
      </trkpt>
      <trkpt lat="40.5725000" lon="-3.5264730">
        <ele>650.0</ele>
        <time>2020-09-29T07:43:45Z</time>
      </trkpt>
      <trkpt lat="40.5725320" lon="-3.5265800">
        <ele>650.0</ele>
        <time>2020-09-29T07:43:46Z</time>
      </trkpt>
      <trkpt lat="40.5725320" lon="-3.5265800">
        <ele>649.0</ele>
        <time>2020-09-29T07:43:47Z</time>
      </trkpt>
      <trkpt lat="40.5725950" lon="-3.5267930">
        <ele>649.0</ele>
        <time>2020-09-29T07:43:48Z</time>
      </trkpt>
      <trkpt lat="40.5726270" lon="-3.5269020">
        <ele>649.0</ele>
        <time>2020-09-29T07:43:49Z</time>
      </trkpt>
      <trkpt lat="40.5726270" lon="-3.5269020">
        <ele>649.0</ele>
        <time>2020-09-29T07:43:50Z</time>
      </trkpt>
      <trkpt lat="40.5726880" lon="-3.5271180">
        <ele>649.0</ele>
        <time>2020-09-29T07:43:51Z</time>
      </trkpt>
      <trkpt lat="40.5727200" lon="-3.5272270">
        <ele>648.0</ele>
        <time>2020-09-29T07:43:52Z</time>
      </trkpt>
      <trkpt lat="40.5727200" lon="-3.5272270">
        <ele>648.0</ele>
        <time>2020-09-29T07:43:53Z</time>
      </trkpt>
      <trkpt lat="40.5727830" lon="-3.5274450">
        <ele>648.0</ele>
        <time>2020-09-29T07:43:54Z</time>
      </trkpt>
      <trkpt lat="40.5728150" lon="-3.5275530">
        <ele>648.0</ele>
        <time>2020-09-29T07:43:55Z</time>
      </trkpt>
      <trkpt lat="40.5728150" lon="-3.5275530">
        <ele>647.0</ele>
        <time>2020-09-29T07:43:56Z</time>
      </trkpt>
      <trkpt lat="40.5728780" lon="-3.5277730">
        <ele>647.0</ele>
        <time>2020-09-29T07:43:57Z</time>
      </trkpt>
      <trkpt lat="40.5728780" lon="-3.5277730">
        <ele>647.0</ele>
        <time>2020-09-29T07:43:58Z</time>
      </trkpt>
      <trkpt lat="40.5729430" lon="-3.5279930">
        <ele>647.0</ele>
        <time>2020-09-29T07:43:59Z</time>
      </trkpt>
      <trkpt lat="40.5729430" lon="-3.5279930">
        <ele>647.0</ele>
        <time>2020-09-29T07:44:00Z</time>
      </trkpt>
      <trkpt lat="40.5730080" lon="-3.5282120">
        <ele>647.0</ele>
        <time>2020-09-29T07:44:01Z</time>
      </trkpt>
      <trkpt lat="40.5730080" lon="-3.5282120">
        <ele>646.0</ele>
        <time>2020-09-29T07:44:02Z</time>
      </trkpt>
      <trkpt lat="40.5730770" lon="-3.5284300">
        <ele>646.0</ele>
        <time>2020-09-29T07:44:03Z</time>
      </trkpt>
      <trkpt lat="40.5730770" lon="-3.5284300">
        <ele>646.0</ele>
        <time>2020-09-29T07:44:04Z</time>
      </trkpt>
      <trkpt lat="40.5731450" lon="-3.5286500">
        <ele>646.0</ele>
        <time>2020-09-29T07:44:05Z</time>
      </trkpt>
      <trkpt lat="40.5731450" lon="-3.5286500">
        <ele>646.0</ele>
        <time>2020-09-29T07:44:06Z</time>
      </trkpt>
      <trkpt lat="40.5732170" lon="-3.5288700">
        <ele>646.0</ele>
        <time>2020-09-29T07:44:07Z</time>
      </trkpt>
      <trkpt lat="40.5732170" lon="-3.5288700">
        <ele>645.0</ele>
        <time>2020-09-29T07:44:08Z</time>
      </trkpt>
      <trkpt lat="40.5732870" lon="-3.5290930">
        <ele>645.0</ele>
        <time>2020-09-29T07:44:09Z</time>
      </trkpt>
      <trkpt lat="40.5732870" lon="-3.5290930">
        <ele>645.0</ele>
        <time>2020-09-29T07:44:10Z</time>
      </trkpt>
      <trkpt lat="40.5733600" lon="-3.5293170">
        <ele>645.0</ele>
        <time>2020-09-29T07:44:11Z</time>
      </trkpt>
      <trkpt lat="40.5733980" lon="-3.5294280">
        <ele>645.0</ele>
        <time>2020-09-29T07:44:12Z</time>
      </trkpt>
      <trkpt lat="40.5734380" lon="-3.5295400">
        <ele>645.0</ele>
        <time>2020-09-29T07:44:13Z</time>
      </trkpt>
      <trkpt lat="40.5734380" lon="-3.5295400">
        <ele>643.0</ele>
        <time>2020-09-29T07:44:14Z</time>
      </trkpt>
      <trkpt lat="40.5735180" lon="-3.5297620">
        <ele>643.0</ele>
        <time>2020-09-29T07:44:15Z</time>
      </trkpt>
      <trkpt lat="40.5735180" lon="-3.5297620">
        <ele>643.0</ele>
        <time>2020-09-29T07:44:16Z</time>
      </trkpt>
      <trkpt lat="40.5736020" lon="-3.5299830">
        <ele>643.0</ele>
        <time>2020-09-29T07:44:17Z</time>
      </trkpt>
      <trkpt lat="40.5736430" lon="-3.5300930">
        <ele>643.0</ele>
        <time>2020-09-29T07:44:18Z</time>
      </trkpt>
      <trkpt lat="40.5736430" lon="-3.5300930">
        <ele>643.0</ele>
        <time>2020-09-29T07:44:19Z</time>
      </trkpt>
      <trkpt lat="40.5737280" lon="-3.5303120">
        <ele>642.0</ele>
        <time>2020-09-29T07:44:20Z</time>
      </trkpt>
      <trkpt lat="40.5737280" lon="-3.5303120">
        <ele>642.0</ele>
        <time>2020-09-29T07:44:21Z</time>
      </trkpt>
      <trkpt lat="40.5738170" lon="-3.5305330">
        <ele>642.0</ele>
        <time>2020-09-29T07:44:22Z</time>
      </trkpt>
      <trkpt lat="40.5738170" lon="-3.5305330">
        <ele>642.0</ele>
        <time>2020-09-29T07:44:23Z</time>
      </trkpt>
      <trkpt lat="40.5739070" lon="-3.5307530">
        <ele>641.0</ele>
        <time>2020-09-29T07:44:24Z</time>
      </trkpt>
      <trkpt lat="40.5739520" lon="-3.5308620">
        <ele>641.0</ele>
        <time>2020-09-29T07:44:25Z</time>
      </trkpt>
      <trkpt lat="40.5739520" lon="-3.5308620">
        <ele>641.0</ele>
        <time>2020-09-29T07:44:26Z</time>
      </trkpt>
      <trkpt lat="40.5740450" lon="-3.5310800">
        <ele>641.0</ele>
        <time>2020-09-29T07:44:27Z</time>
      </trkpt>
      <trkpt lat="40.5740450" lon="-3.5310800">
        <ele>640.0</ele>
        <time>2020-09-29T07:44:28Z</time>
      </trkpt>
      <trkpt lat="40.5741420" lon="-3.5312980">
        <ele>640.0</ele>
        <time>2020-09-29T07:44:29Z</time>
      </trkpt>
      <trkpt lat="40.5741900" lon="-3.5314070">
        <ele>640.0</ele>
        <time>2020-09-29T07:44:30Z</time>
      </trkpt>
      <trkpt lat="40.5742400" lon="-3.5315170">
        <ele>639.0</ele>
        <time>2020-09-29T07:44:31Z</time>
      </trkpt>
      <trkpt lat="40.5742400" lon="-3.5315170">
        <ele>639.0</ele>
        <time>2020-09-29T07:44:32Z</time>
      </trkpt>
      <trkpt lat="40.5743400" lon="-3.5317350">
        <ele>639.0</ele>
        <time>2020-09-29T07:44:33Z</time>
      </trkpt>
      <trkpt lat="40.5743400" lon="-3.5317350">
        <ele>639.0</ele>
        <time>2020-09-29T07:44:34Z</time>
      </trkpt>
      <trkpt lat="40.5744450" lon="-3.5319520">
        <ele>638.0</ele>
        <time>2020-09-29T07:44:35Z</time>
      </trkpt>
      <trkpt lat="40.5744450" lon="-3.5319520">
        <ele>638.0</ele>
        <time>2020-09-29T07:44:36Z</time>
      </trkpt>
      <trkpt lat="40.5745500" lon="-3.5321670">
        <ele>637.0</ele>
        <time>2020-09-29T07:44:37Z</time>
      </trkpt>
      <trkpt lat="40.5745500" lon="-3.5321670">
        <ele>637.0</ele>
        <time>2020-09-29T07:44:38Z</time>
      </trkpt>
      <trkpt lat="40.5746570" lon="-3.5323850">
        <ele>637.0</ele>
        <time>2020-09-29T07:44:39Z</time>
      </trkpt>
      <trkpt lat="40.5746570" lon="-3.5323850">
        <ele>637.0</ele>
        <time>2020-09-29T07:44:40Z</time>
      </trkpt>
      <trkpt lat="40.5747670" lon="-3.5326000">
        <ele>637.0</ele>
        <time>2020-09-29T07:44:41Z</time>
      </trkpt>
      <trkpt lat="40.5748220" lon="-3.5327080">
        <ele>636.0</ele>
        <time>2020-09-29T07:44:42Z</time>
      </trkpt>
      <trkpt lat="40.5748770" lon="-3.5328150">
        <ele>636.0</ele>
        <time>2020-09-29T07:44:43Z</time>
      </trkpt>
      <trkpt lat="40.5748770" lon="-3.5328150">
        <ele>636.0</ele>
        <time>2020-09-29T07:44:44Z</time>
      </trkpt>
      <trkpt lat="40.5749830" lon="-3.5330300">
        <ele>636.0</ele>
        <time>2020-09-29T07:44:45Z</time>
      </trkpt>
      <trkpt lat="40.5749830" lon="-3.5330300">
        <ele>635.0</ele>
        <time>2020-09-29T07:44:46Z</time>
      </trkpt>
      <trkpt lat="40.5750900" lon="-3.5332450">
        <ele>635.0</ele>
        <time>2020-09-29T07:44:47Z</time>
      </trkpt>
      <trkpt lat="40.5750900" lon="-3.5332450">
        <ele>634.0</ele>
        <time>2020-09-29T07:44:48Z</time>
      </trkpt>
      <trkpt lat="40.5751950" lon="-3.5334600">
        <ele>634.0</ele>
        <time>2020-09-29T07:44:49Z</time>
      </trkpt>
      <trkpt lat="40.5751950" lon="-3.5334600">
        <ele>634.0</ele>
        <time>2020-09-29T07:44:50Z</time>
      </trkpt>
      <trkpt lat="40.5752980" lon="-3.5336730">
        <ele>634.0</ele>
        <time>2020-09-29T07:44:51Z</time>
      </trkpt>
      <trkpt lat="40.5752980" lon="-3.5336730">
        <ele>633.0</ele>
        <time>2020-09-29T07:44:52Z</time>
      </trkpt>
      <trkpt lat="40.5754030" lon="-3.5338880">
        <ele>633.0</ele>
        <time>2020-09-29T07:44:53Z</time>
      </trkpt>
      <trkpt lat="40.5754550" lon="-3.5339950">
        <ele>633.0</ele>
        <time>2020-09-29T07:44:54Z</time>
      </trkpt>
      <trkpt lat="40.5754550" lon="-3.5339950">
        <ele>633.0</ele>
        <time>2020-09-29T07:44:55Z</time>
      </trkpt>
      <trkpt lat="40.5755570" lon="-3.5342080">
        <ele>633.0</ele>
        <time>2020-09-29T07:44:56Z</time>
      </trkpt>
      <trkpt lat="40.5755570" lon="-3.5342080">
        <ele>633.0</ele>
        <time>2020-09-29T07:44:57Z</time>
      </trkpt>
      <trkpt lat="40.5756570" lon="-3.5344250">
        <ele>633.0</ele>
        <time>2020-09-29T07:44:58Z</time>
      </trkpt>
      <trkpt lat="40.5756570" lon="-3.5344250">
        <ele>632.0</ele>
        <time>2020-09-29T07:44:59Z</time>
      </trkpt>
      <trkpt lat="40.5757530" lon="-3.5346430">
        <ele>632.0</ele>
        <time>2020-09-29T07:45:00Z</time>
      </trkpt>
      <trkpt lat="40.5758020" lon="-3.5347520">
        <ele>632.0</ele>
        <time>2020-09-29T07:45:01Z</time>
      </trkpt>
      <trkpt lat="40.5758020" lon="-3.5347520">
        <ele>632.0</ele>
        <time>2020-09-29T07:45:02Z</time>
      </trkpt>
      <trkpt lat="40.5758970" lon="-3.5349730">
        <ele>630.0</ele>
        <time>2020-09-29T07:45:03Z</time>
      </trkpt>
      <trkpt lat="40.5758970" lon="-3.5349730">
        <ele>630.0</ele>
        <time>2020-09-29T07:45:04Z</time>
      </trkpt>
      <trkpt lat="40.5759900" lon="-3.5351970">
        <ele>630.0</ele>
        <time>2020-09-29T07:45:05Z</time>
      </trkpt>
      <trkpt lat="40.5759900" lon="-3.5351970">
        <ele>630.0</ele>
        <time>2020-09-29T07:45:06Z</time>
      </trkpt>
      <trkpt lat="40.5760820" lon="-3.5354220">
        <ele>629.0</ele>
        <time>2020-09-29T07:45:07Z</time>
      </trkpt>
      <trkpt lat="40.5760820" lon="-3.5354220">
        <ele>629.0</ele>
        <time>2020-09-29T07:45:08Z</time>
      </trkpt>
      <trkpt lat="40.5761700" lon="-3.5356480">
        <ele>629.0</ele>
        <time>2020-09-29T07:45:09Z</time>
      </trkpt>
      <trkpt lat="40.5762130" lon="-3.5357620">
        <ele>629.0</ele>
        <time>2020-09-29T07:45:10Z</time>
      </trkpt>
      <trkpt lat="40.5762570" lon="-3.5358770">
        <ele>628.0</ele>
        <time>2020-09-29T07:45:11Z</time>
      </trkpt>
      <trkpt lat="40.5762570" lon="-3.5358770">
        <ele>628.0</ele>
        <time>2020-09-29T07:45:12Z</time>
      </trkpt>
      <trkpt lat="40.5763380" lon="-3.5361070">
        <ele>628.0</ele>
        <time>2020-09-29T07:45:13Z</time>
      </trkpt>
      <trkpt lat="40.5763380" lon="-3.5361070">
        <ele>627.0</ele>
        <time>2020-09-29T07:45:14Z</time>
      </trkpt>
      <trkpt lat="40.5764220" lon="-3.5363370">
        <ele>627.0</ele>
        <time>2020-09-29T07:45:15Z</time>
      </trkpt>
      <trkpt lat="40.5764220" lon="-3.5363370">
        <ele>627.0</ele>
        <time>2020-09-29T07:45:16Z</time>
      </trkpt>
      <trkpt lat="40.5765020" lon="-3.5365630">
        <ele>627.0</ele>
        <time>2020-09-29T07:45:17Z</time>
      </trkpt>
      <trkpt lat="40.5765400" lon="-3.5366770">
        <ele>626.0</ele>
        <time>2020-09-29T07:45:18Z</time>
      </trkpt>
      <trkpt lat="40.5765780" lon="-3.5367900">
        <ele>626.0</ele>
        <time>2020-09-29T07:45:19Z</time>
      </trkpt>
      <trkpt lat="40.5765780" lon="-3.5367900">
        <ele>626.0</ele>
        <time>2020-09-29T07:45:20Z</time>
      </trkpt>
      <trkpt lat="40.5766550" lon="-3.5370130">
        <ele>626.0</ele>
        <time>2020-09-29T07:45:21Z</time>
      </trkpt>
      <trkpt lat="40.5766930" lon="-3.5371230">
        <ele>626.0</ele>
        <time>2020-09-29T07:45:22Z</time>
      </trkpt>
      <trkpt lat="40.5766930" lon="-3.5371230">
        <ele>626.0</ele>
        <time>2020-09-29T07:45:23Z</time>
      </trkpt>
      <trkpt lat="40.5767670" lon="-3.5373430">
        <ele>626.0</ele>
        <time>2020-09-29T07:45:24Z</time>
      </trkpt>
      <trkpt lat="40.5768030" lon="-3.5374520">
        <ele>626.0</ele>
        <time>2020-09-29T07:45:25Z</time>
      </trkpt>
      <trkpt lat="40.5768030" lon="-3.5374520">
        <ele>625.0</ele>
        <time>2020-09-29T07:45:26Z</time>
      </trkpt>
      <trkpt lat="40.5768730" lon="-3.5376650">
        <ele>625.0</ele>
        <time>2020-09-29T07:45:27Z</time>
      </trkpt>
      <trkpt lat="40.5768730" lon="-3.5376650">
        <ele>625.0</ele>
        <time>2020-09-29T07:45:28Z</time>
      </trkpt>
      <trkpt lat="40.5769470" lon="-3.5378780">
        <ele>625.0</ele>
        <time>2020-09-29T07:45:29Z</time>
      </trkpt>
      <trkpt lat="40.5769470" lon="-3.5378780">
        <ele>625.0</ele>
        <time>2020-09-29T07:45:30Z</time>
      </trkpt>
      <trkpt lat="40.5770170" lon="-3.5380870">
        <ele>625.0</ele>
        <time>2020-09-29T07:45:31Z</time>
      </trkpt>
      <trkpt lat="40.5770170" lon="-3.5380870">
        <ele>625.0</ele>
        <time>2020-09-29T07:45:32Z</time>
      </trkpt>
      <trkpt lat="40.5770870" lon="-3.5382930">
        <ele>625.0</ele>
        <time>2020-09-29T07:45:33Z</time>
      </trkpt>
      <trkpt lat="40.5770870" lon="-3.5382930">
        <ele>625.0</ele>
        <time>2020-09-29T07:45:34Z</time>
      </trkpt>
      <trkpt lat="40.5771580" lon="-3.5384970">
        <ele>625.0</ele>
        <time>2020-09-29T07:45:35Z</time>
      </trkpt>
      <trkpt lat="40.5771580" lon="-3.5384970">
        <ele>624.0</ele>
        <time>2020-09-29T07:45:36Z</time>
      </trkpt>
      <trkpt lat="40.5772280" lon="-3.5386970">
        <ele>624.0</ele>
        <time>2020-09-29T07:45:37Z</time>
      </trkpt>
      <trkpt lat="40.5772630" lon="-3.5387970">
        <ele>624.0</ele>
        <time>2020-09-29T07:45:38Z</time>
      </trkpt>
      <trkpt lat="40.5772630" lon="-3.5387970">
        <ele>624.0</ele>
        <time>2020-09-29T07:45:39Z</time>
      </trkpt>
      <trkpt lat="40.5773370" lon="-3.5389970">
        <ele>624.0</ele>
        <time>2020-09-29T07:45:40Z</time>
      </trkpt>
      <trkpt lat="40.5773720" lon="-3.5390950">
        <ele>624.0</ele>
        <time>2020-09-29T07:45:41Z</time>
      </trkpt>
      <trkpt lat="40.5773720" lon="-3.5390950">
        <ele>624.0</ele>
        <time>2020-09-29T07:45:42Z</time>
      </trkpt>
      <trkpt lat="40.5774450" lon="-3.5392900">
        <ele>624.0</ele>
        <time>2020-09-29T07:45:43Z</time>
      </trkpt>
      <trkpt lat="40.5774450" lon="-3.5392900">
        <ele>624.0</ele>
        <time>2020-09-29T07:45:44Z</time>
      </trkpt>
      <trkpt lat="40.5775200" lon="-3.5394820">
        <ele>624.0</ele>
        <time>2020-09-29T07:45:45Z</time>
      </trkpt>
      <trkpt lat="40.5775200" lon="-3.5394820">
        <ele>624.0</ele>
        <time>2020-09-29T07:45:46Z</time>
      </trkpt>
      <trkpt lat="40.5775930" lon="-3.5396720">
        <ele>624.0</ele>
        <time>2020-09-29T07:45:47Z</time>
      </trkpt>
      <trkpt lat="40.5775930" lon="-3.5396720">
        <ele>624.0</ele>
        <time>2020-09-29T07:45:48Z</time>
      </trkpt>
      <trkpt lat="40.5776670" lon="-3.5398620">
        <ele>624.0</ele>
        <time>2020-09-29T07:45:49Z</time>
      </trkpt>
      <trkpt lat="40.5776670" lon="-3.5398620">
        <ele>624.0</ele>
        <time>2020-09-29T07:45:50Z</time>
      </trkpt>
      <trkpt lat="40.5777420" lon="-3.5400520">
        <ele>624.0</ele>
        <time>2020-09-29T07:45:51Z</time>
      </trkpt>
      <trkpt lat="40.5777800" lon="-3.5401450">
        <ele>624.0</ele>
        <time>2020-09-29T07:45:52Z</time>
      </trkpt>
      <trkpt lat="40.5778200" lon="-3.5402380">
        <ele>624.0</ele>
        <time>2020-09-29T07:45:53Z</time>
      </trkpt>
      <trkpt lat="40.5778580" lon="-3.5403320">
        <ele>624.0</ele>
        <time>2020-09-29T07:45:54Z</time>
      </trkpt>
      <trkpt lat="40.5778980" lon="-3.5404250">
        <ele>624.0</ele>
        <time>2020-09-29T07:45:55Z</time>
      </trkpt>
      <trkpt lat="40.5778980" lon="-3.5404250">
        <ele>624.0</ele>
        <time>2020-09-29T07:45:56Z</time>
      </trkpt>
      <trkpt lat="40.5779770" lon="-3.5406120">
        <ele>623.0</ele>
        <time>2020-09-29T07:45:57Z</time>
      </trkpt>
      <trkpt lat="40.5779770" lon="-3.5406120">
        <ele>623.0</ele>
        <time>2020-09-29T07:45:58Z</time>
      </trkpt>
      <trkpt lat="40.5780550" lon="-3.5407980">
        <ele>623.0</ele>
        <time>2020-09-29T07:45:59Z</time>
      </trkpt>
      <trkpt lat="40.5780970" lon="-3.5408900">
        <ele>623.0</ele>
        <time>2020-09-29T07:46:00Z</time>
      </trkpt>
      <trkpt lat="40.5781380" lon="-3.5409820">
        <ele>623.0</ele>
        <time>2020-09-29T07:46:01Z</time>
      </trkpt>
      <trkpt lat="40.5781800" lon="-3.5410750">
        <ele>623.0</ele>
        <time>2020-09-29T07:46:02Z</time>
      </trkpt>
      <trkpt lat="40.5781800" lon="-3.5410750">
        <ele>623.0</ele>
        <time>2020-09-29T07:46:03Z</time>
      </trkpt>
      <trkpt lat="40.5782630" lon="-3.5412580">
        <ele>623.0</ele>
        <time>2020-09-29T07:46:04Z</time>
      </trkpt>
      <trkpt lat="40.5783070" lon="-3.5413500">
        <ele>622.0</ele>
        <time>2020-09-29T07:46:05Z</time>
      </trkpt>
      <trkpt lat="40.5783070" lon="-3.5413500">
        <ele>622.0</ele>
        <time>2020-09-29T07:46:06Z</time>
      </trkpt>
      <trkpt lat="40.5783920" lon="-3.5415300">
        <ele>622.0</ele>
        <time>2020-09-29T07:46:07Z</time>
      </trkpt>
      <trkpt lat="40.5783920" lon="-3.5415300">
        <ele>622.0</ele>
        <time>2020-09-29T07:46:08Z</time>
      </trkpt>
      <trkpt lat="40.5784780" lon="-3.5417100">
        <ele>622.0</ele>
        <time>2020-09-29T07:46:09Z</time>
      </trkpt>
      <trkpt lat="40.5784780" lon="-3.5417100">
        <ele>622.0</ele>
        <time>2020-09-29T07:46:10Z</time>
      </trkpt>
      <trkpt lat="40.5785670" lon="-3.5418900">
        <ele>622.0</ele>
        <time>2020-09-29T07:46:11Z</time>
      </trkpt>
      <trkpt lat="40.5785670" lon="-3.5418900">
        <ele>622.0</ele>
        <time>2020-09-29T07:46:12Z</time>
      </trkpt>
      <trkpt lat="40.5786550" lon="-3.5420680">
        <ele>622.0</ele>
        <time>2020-09-29T07:46:13Z</time>
      </trkpt>
      <trkpt lat="40.5786550" lon="-3.5420680">
        <ele>622.0</ele>
        <time>2020-09-29T07:46:14Z</time>
      </trkpt>
      <trkpt lat="40.5787430" lon="-3.5422450">
        <ele>621.0</ele>
        <time>2020-09-29T07:46:15Z</time>
      </trkpt>
      <trkpt lat="40.5787430" lon="-3.5422450">
        <ele>621.0</ele>
        <time>2020-09-29T07:46:16Z</time>
      </trkpt>
      <trkpt lat="40.5788330" lon="-3.5424220">
        <ele>621.0</ele>
        <time>2020-09-29T07:46:17Z</time>
      </trkpt>
      <trkpt lat="40.5788770" lon="-3.5425100">
        <ele>621.0</ele>
        <time>2020-09-29T07:46:18Z</time>
      </trkpt>
      <trkpt lat="40.5788770" lon="-3.5425100">
        <ele>621.0</ele>
        <time>2020-09-29T07:46:19Z</time>
      </trkpt>
      <trkpt lat="40.5789700" lon="-3.5426850">
        <ele>621.0</ele>
        <time>2020-09-29T07:46:20Z</time>
      </trkpt>
      <trkpt lat="40.5790200" lon="-3.5427700">
        <ele>621.0</ele>
        <time>2020-09-29T07:46:21Z</time>
      </trkpt>
      <trkpt lat="40.5790200" lon="-3.5427700">
        <ele>621.0</ele>
        <time>2020-09-29T07:46:22Z</time>
      </trkpt>
      <trkpt lat="40.5791180" lon="-3.5429400">
        <ele>621.0</ele>
        <time>2020-09-29T07:46:23Z</time>
      </trkpt>
      <trkpt lat="40.5791180" lon="-3.5429400">
        <ele>621.0</ele>
        <time>2020-09-29T07:46:24Z</time>
      </trkpt>
      <trkpt lat="40.5792130" lon="-3.5431120">
        <ele>621.0</ele>
        <time>2020-09-29T07:46:25Z</time>
      </trkpt>
      <trkpt lat="40.5792130" lon="-3.5431120">
        <ele>621.0</ele>
        <time>2020-09-29T07:46:26Z</time>
      </trkpt>
      <trkpt lat="40.5793080" lon="-3.5432800">
        <ele>620.0</ele>
        <time>2020-09-29T07:46:27Z</time>
      </trkpt>
      <trkpt lat="40.5793080" lon="-3.5432800">
        <ele>620.0</ele>
        <time>2020-09-29T07:46:28Z</time>
      </trkpt>
      <trkpt lat="40.5794050" lon="-3.5434450">
        <ele>620.0</ele>
        <time>2020-09-29T07:46:29Z</time>
      </trkpt>
      <trkpt lat="40.5794050" lon="-3.5434450">
        <ele>619.0</ele>
        <time>2020-09-29T07:46:30Z</time>
      </trkpt>
      <trkpt lat="40.5795050" lon="-3.5436100">
        <ele>619.0</ele>
        <time>2020-09-29T07:46:31Z</time>
      </trkpt>
      <trkpt lat="40.5795050" lon="-3.5436100">
        <ele>619.0</ele>
        <time>2020-09-29T07:46:32Z</time>
      </trkpt>
      <trkpt lat="40.5796030" lon="-3.5437730">
        <ele>619.0</ele>
        <time>2020-09-29T07:46:33Z</time>
      </trkpt>
      <trkpt lat="40.5796030" lon="-3.5437730">
        <ele>619.0</ele>
        <time>2020-09-29T07:46:34Z</time>
      </trkpt>
      <trkpt lat="40.5797030" lon="-3.5439370">
        <ele>619.0</ele>
        <time>2020-09-29T07:46:35Z</time>
      </trkpt>
      <trkpt lat="40.5797030" lon="-3.5439370">
        <ele>619.0</ele>
        <time>2020-09-29T07:46:36Z</time>
      </trkpt>
      <trkpt lat="40.5798050" lon="-3.5440980">
        <ele>619.0</ele>
        <time>2020-09-29T07:46:37Z</time>
      </trkpt>
      <trkpt lat="40.5798570" lon="-3.5441770">
        <ele>618.0</ele>
        <time>2020-09-29T07:46:38Z</time>
      </trkpt>
      <trkpt lat="40.5798570" lon="-3.5441770">
        <ele>618.0</ele>
        <time>2020-09-29T07:46:39Z</time>
      </trkpt>
      <trkpt lat="40.5799620" lon="-3.5443370">
        <ele>618.0</ele>
        <time>2020-09-29T07:46:40Z</time>
      </trkpt>
      <trkpt lat="40.5800130" lon="-3.5444180">
        <ele>618.0</ele>
        <time>2020-09-29T07:46:41Z</time>
      </trkpt>
      <trkpt lat="40.5800670" lon="-3.5445000">
        <ele>618.0</ele>
        <time>2020-09-29T07:46:42Z</time>
      </trkpt>
      <trkpt lat="40.5801200" lon="-3.5445800">
        <ele>618.0</ele>
        <time>2020-09-29T07:46:43Z</time>
      </trkpt>
      <trkpt lat="40.5801200" lon="-3.5445800">
        <ele>618.0</ele>
        <time>2020-09-29T07:46:44Z</time>
      </trkpt>
      <trkpt lat="40.5802320" lon="-3.5447420">
        <ele>618.0</ele>
        <time>2020-09-29T07:46:45Z</time>
      </trkpt>
      <trkpt lat="40.5802870" lon="-3.5448220">
        <ele>617.0</ele>
        <time>2020-09-29T07:46:46Z</time>
      </trkpt>
      <trkpt lat="40.5802870" lon="-3.5448220">
        <ele>617.0</ele>
        <time>2020-09-29T07:46:47Z</time>
      </trkpt>
      <trkpt lat="40.5803970" lon="-3.5449780">
        <ele>617.0</ele>
        <time>2020-09-29T07:46:48Z</time>
      </trkpt>
      <trkpt lat="40.5804500" lon="-3.5450580">
        <ele>617.0</ele>
        <time>2020-09-29T07:46:49Z</time>
      </trkpt>
      <trkpt lat="40.5804500" lon="-3.5450580">
        <ele>617.0</ele>
        <time>2020-09-29T07:46:50Z</time>
      </trkpt>
      <trkpt lat="40.5805620" lon="-3.5452130">
        <ele>617.0</ele>
        <time>2020-09-29T07:46:51Z</time>
      </trkpt>
      <trkpt lat="40.5805620" lon="-3.5452130">
        <ele>616.0</ele>
        <time>2020-09-29T07:46:52Z</time>
      </trkpt>
      <trkpt lat="40.5806730" lon="-3.5453680">
        <ele>616.0</ele>
        <time>2020-09-29T07:46:53Z</time>
      </trkpt>
      <trkpt lat="40.5807300" lon="-3.5454470">
        <ele>616.0</ele>
        <time>2020-09-29T07:46:54Z</time>
      </trkpt>
      <trkpt lat="40.5807850" lon="-3.5455270">
        <ele>616.0</ele>
        <time>2020-09-29T07:46:55Z</time>
      </trkpt>
      <trkpt lat="40.5807850" lon="-3.5455270">
        <ele>616.0</ele>
        <time>2020-09-29T07:46:56Z</time>
      </trkpt>
      <trkpt lat="40.5808970" lon="-3.5456850">
        <ele>616.0</ele>
        <time>2020-09-29T07:46:57Z</time>
      </trkpt>
      <trkpt lat="40.5808970" lon="-3.5456850">
        <ele>615.0</ele>
        <time>2020-09-29T07:46:58Z</time>
      </trkpt>
      <trkpt lat="40.5810120" lon="-3.5458370">
        <ele>615.0</ele>
        <time>2020-09-29T07:46:59Z</time>
      </trkpt>
      <trkpt lat="40.5810120" lon="-3.5458370">
        <ele>615.0</ele>
        <time>2020-09-29T07:47:00Z</time>
      </trkpt>
      <trkpt lat="40.5811270" lon="-3.5459880">
        <ele>615.0</ele>
        <time>2020-09-29T07:47:01Z</time>
      </trkpt>
      <trkpt lat="40.5811270" lon="-3.5459880">
        <ele>615.0</ele>
        <time>2020-09-29T07:47:02Z</time>
      </trkpt>
      <trkpt lat="40.5812380" lon="-3.5461400">
        <ele>615.0</ele>
        <time>2020-09-29T07:47:03Z</time>
      </trkpt>
      <trkpt lat="40.5812950" lon="-3.5462130">
        <ele>615.0</ele>
        <time>2020-09-29T07:47:04Z</time>
      </trkpt>
      <trkpt lat="40.5812950" lon="-3.5462130">
        <ele>615.0</ele>
        <time>2020-09-29T07:47:05Z</time>
      </trkpt>
      <trkpt lat="40.5814080" lon="-3.5463600">
        <ele>615.0</ele>
        <time>2020-09-29T07:47:06Z</time>
      </trkpt>
      <trkpt lat="40.5814650" lon="-3.5464330">
        <ele>614.0</ele>
        <time>2020-09-29T07:47:07Z</time>
      </trkpt>
      <trkpt lat="40.5815220" lon="-3.5465080">
        <ele>614.0</ele>
        <time>2020-09-29T07:47:08Z</time>
      </trkpt>
      <trkpt lat="40.5815220" lon="-3.5465080">
        <ele>614.0</ele>
        <time>2020-09-29T07:47:09Z</time>
      </trkpt>
      <trkpt lat="40.5816330" lon="-3.5466570">
        <ele>614.0</ele>
        <time>2020-09-29T07:47:10Z</time>
      </trkpt>
      <trkpt lat="40.5816330" lon="-3.5466570">
        <ele>614.0</ele>
        <time>2020-09-29T07:47:11Z</time>
      </trkpt>
      <trkpt lat="40.5817470" lon="-3.5468050">
        <ele>613.0</ele>
        <time>2020-09-29T07:47:12Z</time>
      </trkpt>
      <trkpt lat="40.5818030" lon="-3.5468780">
        <ele>613.0</ele>
        <time>2020-09-29T07:47:13Z</time>
      </trkpt>
      <trkpt lat="40.5818030" lon="-3.5468780">
        <ele>613.0</ele>
        <time>2020-09-29T07:47:14Z</time>
      </trkpt>
      <trkpt lat="40.5819170" lon="-3.5470250">
        <ele>613.0</ele>
        <time>2020-09-29T07:47:15Z</time>
      </trkpt>
      <trkpt lat="40.5819730" lon="-3.5471020">
        <ele>612.0</ele>
        <time>2020-09-29T07:47:16Z</time>
      </trkpt>
      <trkpt lat="40.5820280" lon="-3.5471770">
        <ele>612.0</ele>
        <time>2020-09-29T07:47:17Z</time>
      </trkpt>
      <trkpt lat="40.5820850" lon="-3.5472520">
        <ele>612.0</ele>
        <time>2020-09-29T07:47:18Z</time>
      </trkpt>
      <trkpt lat="40.5821420" lon="-3.5473280">
        <ele>612.0</ele>
        <time>2020-09-29T07:47:19Z</time>
      </trkpt>
      <trkpt lat="40.5821420" lon="-3.5473280">
        <ele>612.0</ele>
        <time>2020-09-29T07:47:20Z</time>
      </trkpt>
      <trkpt lat="40.5822530" lon="-3.5474800">
        <ele>612.0</ele>
        <time>2020-09-29T07:47:21Z</time>
      </trkpt>
      <trkpt lat="40.5823080" lon="-3.5475580">
        <ele>612.0</ele>
        <time>2020-09-29T07:47:22Z</time>
      </trkpt>
      <trkpt lat="40.5823080" lon="-3.5475580">
        <ele>612.0</ele>
        <time>2020-09-29T07:47:23Z</time>
      </trkpt>
      <trkpt lat="40.5824130" lon="-3.5477150">
        <ele>612.0</ele>
        <time>2020-09-29T07:47:24Z</time>
      </trkpt>
      <trkpt lat="40.5824130" lon="-3.5477150">
        <ele>612.0</ele>
        <time>2020-09-29T07:47:25Z</time>
      </trkpt>
      <trkpt lat="40.5825220" lon="-3.5478750">
        <ele>612.0</ele>
        <time>2020-09-29T07:47:26Z</time>
      </trkpt>
      <trkpt lat="40.5825750" lon="-3.5479550">
        <ele>612.0</ele>
        <time>2020-09-29T07:47:27Z</time>
      </trkpt>
      <trkpt lat="40.5825750" lon="-3.5479550">
        <ele>611.0</ele>
        <time>2020-09-29T07:47:28Z</time>
      </trkpt>
      <trkpt lat="40.5826800" lon="-3.5481180">
        <ele>611.0</ele>
        <time>2020-09-29T07:47:29Z</time>
      </trkpt>
      <trkpt lat="40.5826800" lon="-3.5481180">
        <ele>611.0</ele>
        <time>2020-09-29T07:47:30Z</time>
      </trkpt>
      <trkpt lat="40.5827820" lon="-3.5482870">
        <ele>611.0</ele>
        <time>2020-09-29T07:47:31Z</time>
      </trkpt>
      <trkpt lat="40.5828320" lon="-3.5483720">
        <ele>611.0</ele>
        <time>2020-09-29T07:47:32Z</time>
      </trkpt>
      <trkpt lat="40.5828320" lon="-3.5483720">
        <ele>611.0</ele>
        <time>2020-09-29T07:47:33Z</time>
      </trkpt>
      <trkpt lat="40.5829300" lon="-3.5485430">
        <ele>611.0</ele>
        <time>2020-09-29T07:47:34Z</time>
      </trkpt>
      <trkpt lat="40.5829300" lon="-3.5485430">
        <ele>611.0</ele>
        <time>2020-09-29T07:47:35Z</time>
      </trkpt>
      <trkpt lat="40.5830250" lon="-3.5487180">
        <ele>611.0</ele>
        <time>2020-09-29T07:47:36Z</time>
      </trkpt>
      <trkpt lat="40.5830720" lon="-3.5488070">
        <ele>611.0</ele>
        <time>2020-09-29T07:47:37Z</time>
      </trkpt>
      <trkpt lat="40.5830720" lon="-3.5488070">
        <ele>611.0</ele>
        <time>2020-09-29T07:47:38Z</time>
      </trkpt>
      <trkpt lat="40.5831600" lon="-3.5489850">
        <ele>611.0</ele>
        <time>2020-09-29T07:47:39Z</time>
      </trkpt>
      <trkpt lat="40.5831600" lon="-3.5489850">
        <ele>611.0</ele>
        <time>2020-09-29T07:47:40Z</time>
      </trkpt>
      <trkpt lat="40.5832470" lon="-3.5491630">
        <ele>611.0</ele>
        <time>2020-09-29T07:47:41Z</time>
      </trkpt>
      <trkpt lat="40.5832470" lon="-3.5491630">
        <ele>611.0</ele>
        <time>2020-09-29T07:47:42Z</time>
      </trkpt>
      <trkpt lat="40.5833300" lon="-3.5493450">
        <ele>610.0</ele>
        <time>2020-09-29T07:47:43Z</time>
      </trkpt>
      <trkpt lat="40.5833300" lon="-3.5493450">
        <ele>610.0</ele>
        <time>2020-09-29T07:47:44Z</time>
      </trkpt>
      <trkpt lat="40.5834120" lon="-3.5495270">
        <ele>610.0</ele>
        <time>2020-09-29T07:47:45Z</time>
      </trkpt>
      <trkpt lat="40.5834120" lon="-3.5495270">
        <ele>610.0</ele>
        <time>2020-09-29T07:47:46Z</time>
      </trkpt>
      <trkpt lat="40.5834920" lon="-3.5497100">
        <ele>610.0</ele>
        <time>2020-09-29T07:47:47Z</time>
      </trkpt>
      <trkpt lat="40.5834920" lon="-3.5497100">
        <ele>610.0</ele>
        <time>2020-09-29T07:47:48Z</time>
      </trkpt>
      <trkpt lat="40.5835680" lon="-3.5498980">
        <ele>610.0</ele>
        <time>2020-09-29T07:47:49Z</time>
      </trkpt>
      <trkpt lat="40.5835680" lon="-3.5498980">
        <ele>609.0</ele>
        <time>2020-09-29T07:47:50Z</time>
      </trkpt>
      <trkpt lat="40.5836400" lon="-3.5500880">
        <ele>609.0</ele>
        <time>2020-09-29T07:47:51Z</time>
      </trkpt>
      <trkpt lat="40.5836400" lon="-3.5500880">
        <ele>609.0</ele>
        <time>2020-09-29T07:47:52Z</time>
      </trkpt>
      <trkpt lat="40.5837120" lon="-3.5502780">
        <ele>609.0</ele>
        <time>2020-09-29T07:47:53Z</time>
      </trkpt>
      <trkpt lat="40.5837120" lon="-3.5502780">
        <ele>609.0</ele>
        <time>2020-09-29T07:47:54Z</time>
      </trkpt>
      <trkpt lat="40.5837800" lon="-3.5504700">
        <ele>609.0</ele>
        <time>2020-09-29T07:47:55Z</time>
      </trkpt>
      <trkpt lat="40.5837800" lon="-3.5504700">
        <ele>609.0</ele>
        <time>2020-09-29T07:47:56Z</time>
      </trkpt>
      <trkpt lat="40.5838430" lon="-3.5506650">
        <ele>609.0</ele>
        <time>2020-09-29T07:47:57Z</time>
      </trkpt>
      <trkpt lat="40.5838430" lon="-3.5506650">
        <ele>609.0</ele>
        <time>2020-09-29T07:47:58Z</time>
      </trkpt>
      <trkpt lat="40.5839050" lon="-3.5508620">
        <ele>609.0</ele>
        <time>2020-09-29T07:47:59Z</time>
      </trkpt>
      <trkpt lat="40.5839350" lon="-3.5509620">
        <ele>609.0</ele>
        <time>2020-09-29T07:48:00Z</time>
      </trkpt>
      <trkpt lat="40.5839630" lon="-3.5510620">
        <ele>609.0</ele>
        <time>2020-09-29T07:48:01Z</time>
      </trkpt>
      <trkpt lat="40.5839630" lon="-3.5510620">
        <ele>608.0</ele>
        <time>2020-09-29T07:48:02Z</time>
      </trkpt>
      <trkpt lat="40.5840170" lon="-3.5512630">
        <ele>608.0</ele>
        <time>2020-09-29T07:48:03Z</time>
      </trkpt>
      <trkpt lat="40.5840170" lon="-3.5512630">
        <ele>608.0</ele>
        <time>2020-09-29T07:48:04Z</time>
      </trkpt>
      <trkpt lat="40.5840680" lon="-3.5514670">
        <ele>608.0</ele>
        <time>2020-09-29T07:48:05Z</time>
      </trkpt>
      <trkpt lat="40.5840680" lon="-3.5514670">
        <ele>608.0</ele>
        <time>2020-09-29T07:48:06Z</time>
      </trkpt>
      <trkpt lat="40.5841170" lon="-3.5516720">
        <ele>608.0</ele>
        <time>2020-09-29T07:48:07Z</time>
      </trkpt>
      <trkpt lat="40.5841400" lon="-3.5517730">
        <ele>607.0</ele>
        <time>2020-09-29T07:48:08Z</time>
      </trkpt>
      <trkpt lat="40.5841400" lon="-3.5517730">
        <ele>607.0</ele>
        <time>2020-09-29T07:48:09Z</time>
      </trkpt>
      <trkpt lat="40.5841830" lon="-3.5519780">
        <ele>607.0</ele>
        <time>2020-09-29T07:48:10Z</time>
      </trkpt>
      <trkpt lat="40.5841830" lon="-3.5519780">
        <ele>607.0</ele>
        <time>2020-09-29T07:48:11Z</time>
      </trkpt>
      <trkpt lat="40.5842230" lon="-3.5521830">
        <ele>607.0</ele>
        <time>2020-09-29T07:48:12Z</time>
      </trkpt>
      <trkpt lat="40.5842430" lon="-3.5522880">
        <ele>607.0</ele>
        <time>2020-09-29T07:48:13Z</time>
      </trkpt>
      <trkpt lat="40.5842430" lon="-3.5522880">
        <ele>607.0</ele>
        <time>2020-09-29T07:48:14Z</time>
      </trkpt>
      <trkpt lat="40.5842780" lon="-3.5524970">
        <ele>607.0</ele>
        <time>2020-09-29T07:48:15Z</time>
      </trkpt>
      <trkpt lat="40.5842950" lon="-3.5526020">
        <ele>607.0</ele>
        <time>2020-09-29T07:48:16Z</time>
      </trkpt>
      <trkpt lat="40.5842950" lon="-3.5526020">
        <ele>607.0</ele>
        <time>2020-09-29T07:48:17Z</time>
      </trkpt>
      <trkpt lat="40.5843270" lon="-3.5528130">
        <ele>607.0</ele>
        <time>2020-09-29T07:48:18Z</time>
      </trkpt>
      <trkpt lat="40.5843420" lon="-3.5529180">
        <ele>607.0</ele>
        <time>2020-09-29T07:48:19Z</time>
      </trkpt>
      <trkpt lat="40.5843420" lon="-3.5529180">
        <ele>607.0</ele>
        <time>2020-09-29T07:48:20Z</time>
      </trkpt>
      <trkpt lat="40.5843700" lon="-3.5531300">
        <ele>607.0</ele>
        <time>2020-09-29T07:48:21Z</time>
      </trkpt>
      <trkpt lat="40.5843700" lon="-3.5531300">
        <ele>607.0</ele>
        <time>2020-09-29T07:48:22Z</time>
      </trkpt>
      <trkpt lat="40.5843980" lon="-3.5533420">
        <ele>607.0</ele>
        <time>2020-09-29T07:48:23Z</time>
      </trkpt>
      <trkpt lat="40.5843980" lon="-3.5533420">
        <ele>607.0</ele>
        <time>2020-09-29T07:48:24Z</time>
      </trkpt>
      <trkpt lat="40.5844270" lon="-3.5535530">
        <ele>607.0</ele>
        <time>2020-09-29T07:48:25Z</time>
      </trkpt>
      <trkpt lat="40.5844270" lon="-3.5535530">
        <ele>606.0</ele>
        <time>2020-09-29T07:48:26Z</time>
      </trkpt>
      <trkpt lat="40.5844550" lon="-3.5537630">
        <ele>606.0</ele>
        <time>2020-09-29T07:48:27Z</time>
      </trkpt>
      <trkpt lat="40.5844680" lon="-3.5538700">
        <ele>606.0</ele>
        <time>2020-09-29T07:48:28Z</time>
      </trkpt>
      <trkpt lat="40.5844680" lon="-3.5538700">
        <ele>606.0</ele>
        <time>2020-09-29T07:48:29Z</time>
      </trkpt>
      <trkpt lat="40.5844880" lon="-3.5540870">
        <ele>606.0</ele>
        <time>2020-09-29T07:48:30Z</time>
      </trkpt>
      <trkpt lat="40.5845020" lon="-3.5541930">
        <ele>606.0</ele>
        <time>2020-09-29T07:48:31Z</time>
      </trkpt>
      <trkpt lat="40.5845020" lon="-3.5541930">
        <ele>606.0</ele>
        <time>2020-09-29T07:48:32Z</time>
      </trkpt>
      <trkpt lat="40.5845250" lon="-3.5544080">
        <ele>606.0</ele>
        <time>2020-09-29T07:48:33Z</time>
      </trkpt>
      <trkpt lat="40.5845350" lon="-3.5545150">
        <ele>606.0</ele>
        <time>2020-09-29T07:48:34Z</time>
      </trkpt>
      <trkpt lat="40.5845350" lon="-3.5545150">
        <ele>605.0</ele>
        <time>2020-09-29T07:48:35Z</time>
      </trkpt>
      <trkpt lat="40.5845600" lon="-3.5547280">
        <ele>605.0</ele>
        <time>2020-09-29T07:48:36Z</time>
      </trkpt>
      <trkpt lat="40.5845600" lon="-3.5547280">
        <ele>605.0</ele>
        <time>2020-09-29T07:48:37Z</time>
      </trkpt>
      <trkpt lat="40.5845850" lon="-3.5549430">
        <ele>605.0</ele>
        <time>2020-09-29T07:48:38Z</time>
      </trkpt>
      <trkpt lat="40.5845980" lon="-3.5550520">
        <ele>605.0</ele>
        <time>2020-09-29T07:48:39Z</time>
      </trkpt>
      <trkpt lat="40.5845980" lon="-3.5550520">
        <ele>605.0</ele>
        <time>2020-09-29T07:48:40Z</time>
      </trkpt>
      <trkpt lat="40.5846230" lon="-3.5552730">
        <ele>604.0</ele>
        <time>2020-09-29T07:48:41Z</time>
      </trkpt>
      <trkpt lat="40.5846230" lon="-3.5552730">
        <ele>604.0</ele>
        <time>2020-09-29T07:48:42Z</time>
      </trkpt>
      <trkpt lat="40.5846480" lon="-3.5555000">
        <ele>604.0</ele>
        <time>2020-09-29T07:48:43Z</time>
      </trkpt>
      <trkpt lat="40.5846480" lon="-3.5555000">
        <ele>604.0</ele>
        <time>2020-09-29T07:48:44Z</time>
      </trkpt>
      <trkpt lat="40.5846750" lon="-3.5557330">
        <ele>604.0</ele>
        <time>2020-09-29T07:48:45Z</time>
      </trkpt>
      <trkpt lat="40.5846750" lon="-3.5557330">
        <ele>604.0</ele>
        <time>2020-09-29T07:48:46Z</time>
      </trkpt>
      <trkpt lat="40.5847030" lon="-3.5559700">
        <ele>604.0</ele>
        <time>2020-09-29T07:48:47Z</time>
      </trkpt>
      <trkpt lat="40.5847030" lon="-3.5559700">
        <ele>604.0</ele>
        <time>2020-09-29T07:48:48Z</time>
      </trkpt>
      <trkpt lat="40.5847320" lon="-3.5562220">
        <ele>603.0</ele>
        <time>2020-09-29T07:48:49Z</time>
      </trkpt>
      <trkpt lat="40.5847320" lon="-3.5562220">
        <ele>603.0</ele>
        <time>2020-09-29T07:48:50Z</time>
      </trkpt>
      <trkpt lat="40.5847600" lon="-3.5564770">
        <ele>603.0</ele>
        <time>2020-09-29T07:48:51Z</time>
      </trkpt>
      <trkpt lat="40.5847750" lon="-3.5566050">
        <ele>603.0</ele>
        <time>2020-09-29T07:48:52Z</time>
      </trkpt>
      <trkpt lat="40.5847750" lon="-3.5566050">
        <ele>602.0</ele>
        <time>2020-09-29T07:48:53Z</time>
      </trkpt>
      <trkpt lat="40.5848050" lon="-3.5568680">
        <ele>602.0</ele>
        <time>2020-09-29T07:48:54Z</time>
      </trkpt>
      <trkpt lat="40.5848220" lon="-3.5570000">
        <ele>601.0</ele>
        <time>2020-09-29T07:48:55Z</time>
      </trkpt>
      <trkpt lat="40.5848220" lon="-3.5570000">
        <ele>601.0</ele>
        <time>2020-09-29T07:48:56Z</time>
      </trkpt>
      <trkpt lat="40.5848580" lon="-3.5572730">
        <ele>600.0</ele>
        <time>2020-09-29T07:48:57Z</time>
      </trkpt>
      <trkpt lat="40.5848580" lon="-3.5572730">
        <ele>600.0</ele>
        <time>2020-09-29T07:48:58Z</time>
      </trkpt>
      <trkpt lat="40.5848900" lon="-3.5575470">
        <ele>599.0</ele>
        <time>2020-09-29T07:48:59Z</time>
      </trkpt>
      <trkpt lat="40.5849070" lon="-3.5576820">
        <ele>599.0</ele>
        <time>2020-09-29T07:49:00Z</time>
      </trkpt>
      <trkpt lat="40.5849230" lon="-3.5578170">
        <ele>598.0</ele>
        <time>2020-09-29T07:49:01Z</time>
      </trkpt>
      <trkpt lat="40.5849230" lon="-3.5578170">
        <ele>598.0</ele>
        <time>2020-09-29T07:49:02Z</time>
      </trkpt>
      <trkpt lat="40.5849550" lon="-3.5580920">
        <ele>597.0</ele>
        <time>2020-09-29T07:49:03Z</time>
      </trkpt>
      <trkpt lat="40.5849550" lon="-3.5580920">
        <ele>597.0</ele>
        <time>2020-09-29T07:49:04Z</time>
      </trkpt>
      <trkpt lat="40.5849920" lon="-3.5583650">
        <ele>597.0</ele>
        <time>2020-09-29T07:49:05Z</time>
      </trkpt>
      <trkpt lat="40.5850100" lon="-3.5584930">
        <ele>597.0</ele>
        <time>2020-09-29T07:49:06Z</time>
      </trkpt>
      <trkpt lat="40.5850100" lon="-3.5584930">
        <ele>595.0</ele>
        <time>2020-09-29T07:49:07Z</time>
      </trkpt>
      <trkpt lat="40.5850430" lon="-3.5587180">
        <ele>595.0</ele>
        <time>2020-09-29T07:49:08Z</time>
      </trkpt>
      <trkpt lat="40.5850430" lon="-3.5587180">
        <ele>595.0</ele>
        <time>2020-09-29T07:49:09Z</time>
      </trkpt>
      <trkpt lat="40.5850870" lon="-3.5588680">
        <ele>595.0</ele>
        <time>2020-09-29T07:49:10Z</time>
      </trkpt>
      <trkpt lat="40.5850870" lon="-3.5588680">
        <ele>595.0</ele>
        <time>2020-09-29T07:49:11Z</time>
      </trkpt>
      <trkpt lat="40.5851450" lon="-3.5589530">
        <ele>595.0</ele>
        <time>2020-09-29T07:49:12Z</time>
      </trkpt>
      <trkpt lat="40.5851450" lon="-3.5589530">
        <ele>595.0</ele>
        <time>2020-09-29T07:49:13Z</time>
      </trkpt>
      <trkpt lat="40.5852030" lon="-3.5590420">
        <ele>595.0</ele>
        <time>2020-09-29T07:49:14Z</time>
      </trkpt>
      <trkpt lat="40.5852030" lon="-3.5590420">
        <ele>595.0</ele>
        <time>2020-09-29T07:49:15Z</time>
      </trkpt>
      <trkpt lat="40.5852720" lon="-3.5591530">
        <ele>595.0</ele>
        <time>2020-09-29T07:49:16Z</time>
      </trkpt>
      <trkpt lat="40.5852720" lon="-3.5591530">
        <ele>595.0</ele>
        <time>2020-09-29T07:49:17Z</time>
      </trkpt>
      <trkpt lat="40.5853370" lon="-3.5592900">
        <ele>595.0</ele>
        <time>2020-09-29T07:49:18Z</time>
      </trkpt>
      <trkpt lat="40.5853670" lon="-3.5593680">
        <ele>595.0</ele>
        <time>2020-09-29T07:49:19Z</time>
      </trkpt>
      <trkpt lat="40.5853670" lon="-3.5593680">
        <ele>594.0</ele>
        <time>2020-09-29T07:49:20Z</time>
      </trkpt>
      <trkpt lat="40.5854370" lon="-3.5595320">
        <ele>594.0</ele>
        <time>2020-09-29T07:49:21Z</time>
      </trkpt>
      <trkpt lat="40.5854850" lon="-3.5596050">
        <ele>594.0</ele>
        <time>2020-09-29T07:49:22Z</time>
      </trkpt>
      <trkpt lat="40.5854850" lon="-3.5596050">
        <ele>594.0</ele>
        <time>2020-09-29T07:49:23Z</time>
      </trkpt>
      <trkpt lat="40.5856230" lon="-3.5596780">
        <ele>594.0</ele>
        <time>2020-09-29T07:49:24Z</time>
      </trkpt>
      <trkpt lat="40.5857000" lon="-3.5596880">
        <ele>594.0</ele>
        <time>2020-09-29T07:49:25Z</time>
      </trkpt>
      <trkpt lat="40.5857000" lon="-3.5596880">
        <ele>594.0</ele>
        <time>2020-09-29T07:49:26Z</time>
      </trkpt>
      <trkpt lat="40.5858570" lon="-3.5596980">
        <ele>594.0</ele>
        <time>2020-09-29T07:49:27Z</time>
      </trkpt>
      <trkpt lat="40.5858570" lon="-3.5596980">
        <ele>594.0</ele>
        <time>2020-09-29T07:49:28Z</time>
      </trkpt>
      <trkpt lat="40.5860200" lon="-3.5597070">
        <ele>594.0</ele>
        <time>2020-09-29T07:49:29Z</time>
      </trkpt>
      <trkpt lat="40.5861020" lon="-3.5597100">
        <ele>594.0</ele>
        <time>2020-09-29T07:49:30Z</time>
      </trkpt>
      <trkpt lat="40.5861820" lon="-3.5597120">
        <ele>594.0</ele>
        <time>2020-09-29T07:49:31Z</time>
      </trkpt>
      <trkpt lat="40.5861820" lon="-3.5597120">
        <ele>594.0</ele>
        <time>2020-09-29T07:49:32Z</time>
      </trkpt>
      <trkpt lat="40.5863420" lon="-3.5597100">
        <ele>594.0</ele>
        <time>2020-09-29T07:49:33Z</time>
      </trkpt>
      <trkpt lat="40.5864200" lon="-3.5597080">
        <ele>594.0</ele>
        <time>2020-09-29T07:49:34Z</time>
      </trkpt>
      <trkpt lat="40.5864990" lon="-3.5597080">
        <ele>594.0</ele>
        <time>2020-09-29T07:49:35Z</time>
      </trkpt>
      <trkpt lat="40.5865770" lon="-3.5597070">
        <ele>594.0</ele>
        <time>2020-09-29T07:49:36Z</time>
      </trkpt>
      <trkpt lat="40.5866530" lon="-3.5597050">
        <ele>594.0</ele>
        <time>2020-09-29T07:49:37Z</time>
      </trkpt>
      <trkpt lat="40.5867320" lon="-3.5597040">
        <ele>594.0</ele>
        <time>2020-09-29T07:49:38Z</time>
      </trkpt>
      <trkpt lat="40.5868100" lon="-3.5597030">
        <ele>594.0</ele>
        <time>2020-09-29T07:49:39Z</time>
      </trkpt>
      <trkpt lat="40.5868100" lon="-3.5597030">
        <ele>594.0</ele>
        <time>2020-09-29T07:49:40Z</time>
      </trkpt>
      <trkpt lat="40.5869650" lon="-3.5597020">
        <ele>594.0</ele>
        <time>2020-09-29T07:49:41Z</time>
      </trkpt>
      <trkpt lat="40.5869650" lon="-3.5597020">
        <ele>594.0</ele>
        <time>2020-09-29T07:49:42Z</time>
      </trkpt>
      <trkpt lat="40.5871170" lon="-3.5597000">
        <ele>594.0</ele>
        <time>2020-09-29T07:49:43Z</time>
      </trkpt>
      <trkpt lat="40.5871930" lon="-3.5596980">
        <ele>594.0</ele>
        <time>2020-09-29T07:49:44Z</time>
      </trkpt>
      <trkpt lat="40.5872680" lon="-3.5596970">
        <ele>594.0</ele>
        <time>2020-09-29T07:49:45Z</time>
      </trkpt>
      <trkpt lat="40.5872680" lon="-3.5596970">
        <ele>594.0</ele>
        <time>2020-09-29T07:49:46Z</time>
      </trkpt>
      <trkpt lat="40.5874170" lon="-3.5596950">
        <ele>594.0</ele>
        <time>2020-09-29T07:49:47Z</time>
      </trkpt>
      <trkpt lat="40.5874880" lon="-3.5596950">
        <ele>594.0</ele>
        <time>2020-09-29T07:49:48Z</time>
      </trkpt>
      <trkpt lat="40.5875600" lon="-3.5596930">
        <ele>594.0</ele>
        <time>2020-09-29T07:49:49Z</time>
      </trkpt>
      <trkpt lat="40.5875600" lon="-3.5596930">
        <ele>594.0</ele>
        <time>2020-09-29T07:49:50Z</time>
      </trkpt>
      <trkpt lat="40.5877030" lon="-3.5596930">
        <ele>594.0</ele>
        <time>2020-09-29T07:49:51Z</time>
      </trkpt>
      <trkpt lat="40.5877750" lon="-3.5596930">
        <ele>594.0</ele>
        <time>2020-09-29T07:49:52Z</time>
      </trkpt>
      <trkpt lat="40.5878450" lon="-3.5596930">
        <ele>594.0</ele>
        <time>2020-09-29T07:49:53Z</time>
      </trkpt>
      <trkpt lat="40.5878450" lon="-3.5596930">
        <ele>594.0</ele>
        <time>2020-09-29T07:49:54Z</time>
      </trkpt>
      <trkpt lat="40.5879850" lon="-3.5596920">
        <ele>595.0</ele>
        <time>2020-09-29T07:49:55Z</time>
      </trkpt>
      <trkpt lat="40.5880570" lon="-3.5596900">
        <ele>595.0</ele>
        <time>2020-09-29T07:49:56Z</time>
      </trkpt>
      <trkpt lat="40.5880570" lon="-3.5596900">
        <ele>595.0</ele>
        <time>2020-09-29T07:49:57Z</time>
      </trkpt>
      <trkpt lat="40.5881980" lon="-3.5596850">
        <ele>595.0</ele>
        <time>2020-09-29T07:49:58Z</time>
      </trkpt>
      <trkpt lat="40.5881980" lon="-3.5596850">
        <ele>595.0</ele>
        <time>2020-09-29T07:49:59Z</time>
      </trkpt>
      <trkpt lat="40.5883380" lon="-3.5596800">
        <ele>595.0</ele>
        <time>2020-09-29T07:50:00Z</time>
      </trkpt>
      <trkpt lat="40.5884100" lon="-3.5596770">
        <ele>595.0</ele>
        <time>2020-09-29T07:50:01Z</time>
      </trkpt>
      <trkpt lat="40.5884100" lon="-3.5596770">
        <ele>595.0</ele>
        <time>2020-09-29T07:50:02Z</time>
      </trkpt>
      <trkpt lat="40.5885500" lon="-3.5596680">
        <ele>595.0</ele>
        <time>2020-09-29T07:50:03Z</time>
      </trkpt>
      <trkpt lat="40.5886180" lon="-3.5596650">
        <ele>595.0</ele>
        <time>2020-09-29T07:50:04Z</time>
      </trkpt>
      <trkpt lat="40.5886180" lon="-3.5596650">
        <ele>595.0</ele>
        <time>2020-09-29T07:50:05Z</time>
      </trkpt>
      <trkpt lat="40.5887530" lon="-3.5596570">
        <ele>595.0</ele>
        <time>2020-09-29T07:50:06Z</time>
      </trkpt>
      <trkpt lat="40.5888200" lon="-3.5596550">
        <ele>595.0</ele>
        <time>2020-09-29T07:50:07Z</time>
      </trkpt>
      <trkpt lat="40.5888200" lon="-3.5596550">
        <ele>595.0</ele>
        <time>2020-09-29T07:50:08Z</time>
      </trkpt>
      <trkpt lat="40.5889520" lon="-3.5596530">
        <ele>595.0</ele>
        <time>2020-09-29T07:50:09Z</time>
      </trkpt>
      <trkpt lat="40.5889520" lon="-3.5596530">
        <ele>595.0</ele>
        <time>2020-09-29T07:50:10Z</time>
      </trkpt>
      <trkpt lat="40.5890830" lon="-3.5596520">
        <ele>595.0</ele>
        <time>2020-09-29T07:50:11Z</time>
      </trkpt>
      <trkpt lat="40.5891500" lon="-3.5596530">
        <ele>595.0</ele>
        <time>2020-09-29T07:50:12Z</time>
      </trkpt>
      <trkpt lat="40.5892150" lon="-3.5596550">
        <ele>596.0</ele>
        <time>2020-09-29T07:50:13Z</time>
      </trkpt>
      <trkpt lat="40.5892150" lon="-3.5596550">
        <ele>596.0</ele>
        <time>2020-09-29T07:50:14Z</time>
      </trkpt>
      <trkpt lat="40.5893430" lon="-3.5596650">
        <ele>596.0</ele>
        <time>2020-09-29T07:50:15Z</time>
      </trkpt>
      <trkpt lat="40.5894080" lon="-3.5596720">
        <ele>596.0</ele>
        <time>2020-09-29T07:50:16Z</time>
      </trkpt>
      <trkpt lat="40.5894080" lon="-3.5596720">
        <ele>597.0</ele>
        <time>2020-09-29T07:50:17Z</time>
      </trkpt>
      <trkpt lat="40.5895380" lon="-3.5596870">
        <ele>597.0</ele>
        <time>2020-09-29T07:50:18Z</time>
      </trkpt>
      <trkpt lat="40.5896030" lon="-3.5596950">
        <ele>597.0</ele>
        <time>2020-09-29T07:50:19Z</time>
      </trkpt>
      <trkpt lat="40.5896030" lon="-3.5596950">
        <ele>597.0</ele>
        <time>2020-09-29T07:50:20Z</time>
      </trkpt>
      <trkpt lat="40.5897350" lon="-3.5597130">
        <ele>597.0</ele>
        <time>2020-09-29T07:50:21Z</time>
      </trkpt>
      <trkpt lat="40.5897980" lon="-3.5597250">
        <ele>597.0</ele>
        <time>2020-09-29T07:50:22Z</time>
      </trkpt>
      <trkpt lat="40.5898630" lon="-3.5597350">
        <ele>597.0</ele>
        <time>2020-09-29T07:50:23Z</time>
      </trkpt>
      <trkpt lat="40.5898630" lon="-3.5597350">
        <ele>597.0</ele>
        <time>2020-09-29T07:50:24Z</time>
      </trkpt>
      <trkpt lat="40.5899950" lon="-3.5597580">
        <ele>598.0</ele>
        <time>2020-09-29T07:50:25Z</time>
      </trkpt>
      <trkpt lat="40.5899950" lon="-3.5597580">
        <ele>598.0</ele>
        <time>2020-09-29T07:50:26Z</time>
      </trkpt>
      <trkpt lat="40.5901250" lon="-3.5597820">
        <ele>598.0</ele>
        <time>2020-09-29T07:50:27Z</time>
      </trkpt>
      <trkpt lat="40.5901250" lon="-3.5597820">
        <ele>598.0</ele>
        <time>2020-09-29T07:50:28Z</time>
      </trkpt>
      <trkpt lat="40.5902530" lon="-3.5598070">
        <ele>598.0</ele>
        <time>2020-09-29T07:50:29Z</time>
      </trkpt>
      <trkpt lat="40.5902530" lon="-3.5598070">
        <ele>598.0</ele>
        <time>2020-09-29T07:50:30Z</time>
      </trkpt>
      <trkpt lat="40.5903850" lon="-3.5598320">
        <ele>598.0</ele>
        <time>2020-09-29T07:50:31Z</time>
      </trkpt>
      <trkpt lat="40.5903850" lon="-3.5598320">
        <ele>598.0</ele>
        <time>2020-09-29T07:50:32Z</time>
      </trkpt>
      <trkpt lat="40.5905170" lon="-3.5598650">
        <ele>598.0</ele>
        <time>2020-09-29T07:50:33Z</time>
      </trkpt>
      <trkpt lat="40.5905830" lon="-3.5598800">
        <ele>598.0</ele>
        <time>2020-09-29T07:50:34Z</time>
      </trkpt>
      <trkpt lat="40.5905830" lon="-3.5598800">
        <ele>598.0</ele>
        <time>2020-09-29T07:50:35Z</time>
      </trkpt>
      <trkpt lat="40.5907220" lon="-3.5599070">
        <ele>598.0</ele>
        <time>2020-09-29T07:50:36Z</time>
      </trkpt>
      <trkpt lat="40.5907920" lon="-3.5599200">
        <ele>598.0</ele>
        <time>2020-09-29T07:50:37Z</time>
      </trkpt>
      <trkpt lat="40.5907920" lon="-3.5599200">
        <ele>598.0</ele>
        <time>2020-09-29T07:50:38Z</time>
      </trkpt>
      <trkpt lat="40.5909370" lon="-3.5599480">
        <ele>598.0</ele>
        <time>2020-09-29T07:50:39Z</time>
      </trkpt>
      <trkpt lat="40.5910100" lon="-3.5599600">
        <ele>598.0</ele>
        <time>2020-09-29T07:50:40Z</time>
      </trkpt>
      <trkpt lat="40.5910100" lon="-3.5599600">
        <ele>598.0</ele>
        <time>2020-09-29T07:50:41Z</time>
      </trkpt>
      <trkpt lat="40.5911600" lon="-3.5599900">
        <ele>598.0</ele>
        <time>2020-09-29T07:50:42Z</time>
      </trkpt>
      <trkpt lat="40.5912370" lon="-3.5600080">
        <ele>598.0</ele>
        <time>2020-09-29T07:50:43Z</time>
      </trkpt>
      <trkpt lat="40.5912370" lon="-3.5600080">
        <ele>598.0</ele>
        <time>2020-09-29T07:50:44Z</time>
      </trkpt>
      <trkpt lat="40.5913920" lon="-3.5600470">
        <ele>598.0</ele>
        <time>2020-09-29T07:50:45Z</time>
      </trkpt>
      <trkpt lat="40.5914720" lon="-3.5600630">
        <ele>598.0</ele>
        <time>2020-09-29T07:50:46Z</time>
      </trkpt>
      <trkpt lat="40.5915520" lon="-3.5600820">
        <ele>598.0</ele>
        <time>2020-09-29T07:50:47Z</time>
      </trkpt>
      <trkpt lat="40.5916320" lon="-3.5600980">
        <ele>598.0</ele>
        <time>2020-09-29T07:50:48Z</time>
      </trkpt>
      <trkpt lat="40.5917130" lon="-3.5601170">
        <ele>598.0</ele>
        <time>2020-09-29T07:50:49Z</time>
      </trkpt>
      <trkpt lat="40.5917130" lon="-3.5601170">
        <ele>597.0</ele>
        <time>2020-09-29T07:50:50Z</time>
      </trkpt>
      <trkpt lat="40.5918800" lon="-3.5601480">
        <ele>597.0</ele>
        <time>2020-09-29T07:50:51Z</time>
      </trkpt>
      <trkpt lat="40.5919650" lon="-3.5601630">
        <ele>597.0</ele>
        <time>2020-09-29T07:50:52Z</time>
      </trkpt>
      <trkpt lat="40.5920500" lon="-3.5601720">
        <ele>597.0</ele>
        <time>2020-09-29T07:50:53Z</time>
      </trkpt>
      <trkpt lat="40.5920500" lon="-3.5601720">
        <ele>597.0</ele>
        <time>2020-09-29T07:50:54Z</time>
      </trkpt>
      <trkpt lat="40.5922120" lon="-3.5601520">
        <ele>597.0</ele>
        <time>2020-09-29T07:50:55Z</time>
      </trkpt>
      <trkpt lat="40.5922120" lon="-3.5601520">
        <ele>596.0</ele>
        <time>2020-09-29T07:50:56Z</time>
      </trkpt>
      <trkpt lat="40.5923620" lon="-3.5600870">
        <ele>596.0</ele>
        <time>2020-09-29T07:50:57Z</time>
      </trkpt>
      <trkpt lat="40.5923620" lon="-3.5600870">
        <ele>596.0</ele>
        <time>2020-09-29T07:50:58Z</time>
      </trkpt>
      <trkpt lat="40.5925070" lon="-3.5599930">
        <ele>596.0</ele>
        <time>2020-09-29T07:50:59Z</time>
      </trkpt>
      <trkpt lat="40.5925070" lon="-3.5599930">
        <ele>596.0</ele>
        <time>2020-09-29T07:51:00Z</time>
      </trkpt>
      <trkpt lat="40.5926620" lon="-3.5599400">
        <ele>596.0</ele>
        <time>2020-09-29T07:51:01Z</time>
      </trkpt>
      <trkpt lat="40.5926620" lon="-3.5599400">
        <ele>596.0</ele>
        <time>2020-09-29T07:51:02Z</time>
      </trkpt>
      <trkpt lat="40.5928150" lon="-3.5599670">
        <ele>596.0</ele>
        <time>2020-09-29T07:51:03Z</time>
      </trkpt>
      <trkpt lat="40.5928150" lon="-3.5599670">
        <ele>596.0</ele>
        <time>2020-09-29T07:51:04Z</time>
      </trkpt>
      <trkpt lat="40.5929480" lon="-3.5600420">
        <ele>596.0</ele>
        <time>2020-09-29T07:51:05Z</time>
      </trkpt>
      <trkpt lat="40.5929480" lon="-3.5600420">
        <ele>596.0</ele>
        <time>2020-09-29T07:51:06Z</time>
      </trkpt>
      <trkpt lat="40.5930770" lon="-3.5601350">
        <ele>596.0</ele>
        <time>2020-09-29T07:51:07Z</time>
      </trkpt>
      <trkpt lat="40.5930770" lon="-3.5601350">
        <ele>596.0</ele>
        <time>2020-09-29T07:51:08Z</time>
      </trkpt>
      <trkpt lat="40.5932170" lon="-3.5601930">
        <ele>596.0</ele>
        <time>2020-09-29T07:51:09Z</time>
      </trkpt>
      <trkpt lat="40.5932170" lon="-3.5601930">
        <ele>596.0</ele>
        <time>2020-09-29T07:51:10Z</time>
      </trkpt>
      <trkpt lat="40.5933670" lon="-3.5602030">
        <ele>596.0</ele>
        <time>2020-09-29T07:51:11Z</time>
      </trkpt>
      <trkpt lat="40.5933670" lon="-3.5602030">
        <ele>596.0</ele>
        <time>2020-09-29T07:51:12Z</time>
      </trkpt>
      <trkpt lat="40.5935120" lon="-3.5601970">
        <ele>596.0</ele>
        <time>2020-09-29T07:51:13Z</time>
      </trkpt>
      <trkpt lat="40.5935830" lon="-3.5601950">
        <ele>596.0</ele>
        <time>2020-09-29T07:51:14Z</time>
      </trkpt>
      <trkpt lat="40.5935830" lon="-3.5601950">
        <ele>596.0</ele>
        <time>2020-09-29T07:51:15Z</time>
      </trkpt>
      <trkpt lat="40.5937230" lon="-3.5601950">
        <ele>596.0</ele>
        <time>2020-09-29T07:51:16Z</time>
      </trkpt>
      <trkpt lat="40.5937230" lon="-3.5601950">
        <ele>596.0</ele>
        <time>2020-09-29T07:51:17Z</time>
      </trkpt>
      <trkpt lat="40.5938600" lon="-3.5601970">
        <ele>596.0</ele>
        <time>2020-09-29T07:51:18Z</time>
      </trkpt>
      <trkpt lat="40.5939280" lon="-3.5601950">
        <ele>597.0</ele>
        <time>2020-09-29T07:51:19Z</time>
      </trkpt>
      <trkpt lat="40.5939280" lon="-3.5601950">
        <ele>597.0</ele>
        <time>2020-09-29T07:51:20Z</time>
      </trkpt>
      <trkpt lat="40.5940620" lon="-3.5601900">
        <ele>597.0</ele>
        <time>2020-09-29T07:51:21Z</time>
      </trkpt>
      <trkpt lat="40.5941270" lon="-3.5601850">
        <ele>597.0</ele>
        <time>2020-09-29T07:51:22Z</time>
      </trkpt>
      <trkpt lat="40.5941270" lon="-3.5601850">
        <ele>597.0</ele>
        <time>2020-09-29T07:51:23Z</time>
      </trkpt>
      <trkpt lat="40.5942570" lon="-3.5601750">
        <ele>597.0</ele>
        <time>2020-09-29T07:51:24Z</time>
      </trkpt>
      <trkpt lat="40.5943200" lon="-3.5601670">
        <ele>597.0</ele>
        <time>2020-09-29T07:51:25Z</time>
      </trkpt>
      <trkpt lat="40.5943200" lon="-3.5601670">
        <ele>598.0</ele>
        <time>2020-09-29T07:51:26Z</time>
      </trkpt>
      <trkpt lat="40.5944480" lon="-3.5601500">
        <ele>598.0</ele>
        <time>2020-09-29T07:51:27Z</time>
      </trkpt>
      <trkpt lat="40.5945120" lon="-3.5601420">
        <ele>598.0</ele>
        <time>2020-09-29T07:51:28Z</time>
      </trkpt>
      <trkpt lat="40.5945750" lon="-3.5601350">
        <ele>598.0</ele>
        <time>2020-09-29T07:51:29Z</time>
      </trkpt>
      <trkpt lat="40.5945750" lon="-3.5601350">
        <ele>599.0</ele>
        <time>2020-09-29T07:51:30Z</time>
      </trkpt>
      <trkpt lat="40.5947020" lon="-3.5601220">
        <ele>599.0</ele>
        <time>2020-09-29T07:51:31Z</time>
      </trkpt>
      <trkpt lat="40.5947020" lon="-3.5601220">
        <ele>599.0</ele>
        <time>2020-09-29T07:51:32Z</time>
      </trkpt>
      <trkpt lat="40.5948300" lon="-3.5601020">
        <ele>599.0</ele>
        <time>2020-09-29T07:51:33Z</time>
      </trkpt>
      <trkpt lat="40.5948300" lon="-3.5601020">
        <ele>599.0</ele>
        <time>2020-09-29T07:51:34Z</time>
      </trkpt>
      <trkpt lat="40.5949600" lon="-3.5600800">
        <ele>599.0</ele>
        <time>2020-09-29T07:51:35Z</time>
      </trkpt>
      <trkpt lat="40.5949600" lon="-3.5600800">
        <ele>599.0</ele>
        <time>2020-09-29T07:51:36Z</time>
      </trkpt>
      <trkpt lat="40.5950930" lon="-3.5600530">
        <ele>599.0</ele>
        <time>2020-09-29T07:51:37Z</time>
      </trkpt>
      <trkpt lat="40.5950930" lon="-3.5600530">
        <ele>599.0</ele>
        <time>2020-09-29T07:51:38Z</time>
      </trkpt>
      <trkpt lat="40.5952300" lon="-3.5600220">
        <ele>599.0</ele>
        <time>2020-09-29T07:51:39Z</time>
      </trkpt>
      <trkpt lat="40.5952300" lon="-3.5600220">
        <ele>599.0</ele>
        <time>2020-09-29T07:51:40Z</time>
      </trkpt>
      <trkpt lat="40.5953680" lon="-3.5599820">
        <ele>599.0</ele>
        <time>2020-09-29T07:51:41Z</time>
      </trkpt>
      <trkpt lat="40.5954380" lon="-3.5599600">
        <ele>599.0</ele>
        <time>2020-09-29T07:51:42Z</time>
      </trkpt>
      <trkpt lat="40.5955080" lon="-3.5599350">
        <ele>599.0</ele>
        <time>2020-09-29T07:51:43Z</time>
      </trkpt>
      <trkpt lat="40.5955080" lon="-3.5599350">
        <ele>599.0</ele>
        <time>2020-09-29T07:51:44Z</time>
      </trkpt>
      <trkpt lat="40.5956500" lon="-3.5598870">
        <ele>599.0</ele>
        <time>2020-09-29T07:51:45Z</time>
      </trkpt>
      <trkpt lat="40.5956500" lon="-3.5598870">
        <ele>599.0</ele>
        <time>2020-09-29T07:51:46Z</time>
      </trkpt>
      <trkpt lat="40.5957920" lon="-3.5598370">
        <ele>599.0</ele>
        <time>2020-09-29T07:51:47Z</time>
      </trkpt>
      <trkpt lat="40.5958620" lon="-3.5598070">
        <ele>599.0</ele>
        <time>2020-09-29T07:51:48Z</time>
      </trkpt>
      <trkpt lat="40.5959330" lon="-3.5597780">
        <ele>598.0</ele>
        <time>2020-09-29T07:51:49Z</time>
      </trkpt>
      <trkpt lat="40.5959330" lon="-3.5597780">
        <ele>598.0</ele>
        <time>2020-09-29T07:51:50Z</time>
      </trkpt>
      <trkpt lat="40.5960780" lon="-3.5597150">
        <ele>598.0</ele>
        <time>2020-09-29T07:51:51Z</time>
      </trkpt>
      <trkpt lat="40.5960780" lon="-3.5597150">
        <ele>598.0</ele>
        <time>2020-09-29T07:51:52Z</time>
      </trkpt>
      <trkpt lat="40.5962220" lon="-3.5596480">
        <ele>598.0</ele>
        <time>2020-09-29T07:51:53Z</time>
      </trkpt>
      <trkpt lat="40.5962220" lon="-3.5596480">
        <ele>598.0</ele>
        <time>2020-09-29T07:51:54Z</time>
      </trkpt>
      <trkpt lat="40.5963650" lon="-3.5595820">
        <ele>598.0</ele>
        <time>2020-09-29T07:51:55Z</time>
      </trkpt>
      <trkpt lat="40.5963650" lon="-3.5595820">
        <ele>598.0</ele>
        <time>2020-09-29T07:51:56Z</time>
      </trkpt>
      <trkpt lat="40.5965080" lon="-3.5595080">
        <ele>598.0</ele>
        <time>2020-09-29T07:51:57Z</time>
      </trkpt>
      <trkpt lat="40.5965780" lon="-3.5594700">
        <ele>598.0</ele>
        <time>2020-09-29T07:51:58Z</time>
      </trkpt>
      <trkpt lat="40.5965780" lon="-3.5594700">
        <ele>598.0</ele>
        <time>2020-09-29T07:51:59Z</time>
      </trkpt>
      <trkpt lat="40.5967200" lon="-3.5593950">
        <ele>597.0</ele>
        <time>2020-09-29T07:52:00Z</time>
      </trkpt>
      <trkpt lat="40.5967200" lon="-3.5593950">
        <ele>597.0</ele>
        <time>2020-09-29T07:52:01Z</time>
      </trkpt>
      <trkpt lat="40.5968580" lon="-3.5593170">
        <ele>597.0</ele>
        <time>2020-09-29T07:52:02Z</time>
      </trkpt>
      <trkpt lat="40.5968580" lon="-3.5593170">
        <ele>597.0</ele>
        <time>2020-09-29T07:52:03Z</time>
      </trkpt>
      <trkpt lat="40.5969950" lon="-3.5592370">
        <ele>597.0</ele>
        <time>2020-09-29T07:52:04Z</time>
      </trkpt>
      <trkpt lat="40.5969950" lon="-3.5592370">
        <ele>597.0</ele>
        <time>2020-09-29T07:52:05Z</time>
      </trkpt>
      <trkpt lat="40.5971330" lon="-3.5591570">
        <ele>597.0</ele>
        <time>2020-09-29T07:52:06Z</time>
      </trkpt>
      <trkpt lat="40.5972020" lon="-3.5591150">
        <ele>597.0</ele>
        <time>2020-09-29T07:52:07Z</time>
      </trkpt>
      <trkpt lat="40.5972020" lon="-3.5591150">
        <ele>597.0</ele>
        <time>2020-09-29T07:52:08Z</time>
      </trkpt>
      <trkpt lat="40.5973350" lon="-3.5590300">
        <ele>597.0</ele>
        <time>2020-09-29T07:52:09Z</time>
      </trkpt>
      <trkpt lat="40.5973350" lon="-3.5590300">
        <ele>597.0</ele>
        <time>2020-09-29T07:52:10Z</time>
      </trkpt>
      <trkpt lat="40.5974670" lon="-3.5589430">
        <ele>597.0</ele>
        <time>2020-09-29T07:52:11Z</time>
      </trkpt>
      <trkpt lat="40.5975320" lon="-3.5588980">
        <ele>597.0</ele>
        <time>2020-09-29T07:52:12Z</time>
      </trkpt>
      <trkpt lat="40.5975950" lon="-3.5588520">
        <ele>597.0</ele>
        <time>2020-09-29T07:52:13Z</time>
      </trkpt>
      <trkpt lat="40.5975950" lon="-3.5588520">
        <ele>597.0</ele>
        <time>2020-09-29T07:52:14Z</time>
      </trkpt>
      <trkpt lat="40.5977220" lon="-3.5587570">
        <ele>597.0</ele>
        <time>2020-09-29T07:52:15Z</time>
      </trkpt>
      <trkpt lat="40.5977220" lon="-3.5587570">
        <ele>597.0</ele>
        <time>2020-09-29T07:52:16Z</time>
      </trkpt>
      <trkpt lat="40.5978470" lon="-3.5586580">
        <ele>597.0</ele>
        <time>2020-09-29T07:52:17Z</time>
      </trkpt>
      <trkpt lat="40.5978470" lon="-3.5586580">
        <ele>597.0</ele>
        <time>2020-09-29T07:52:18Z</time>
      </trkpt>
      <trkpt lat="40.5979680" lon="-3.5585600">
        <ele>597.0</ele>
        <time>2020-09-29T07:52:19Z</time>
      </trkpt>
      <trkpt lat="40.5979680" lon="-3.5585600">
        <ele>597.0</ele>
        <time>2020-09-29T07:52:20Z</time>
      </trkpt>
      <trkpt lat="40.5980900" lon="-3.5584580">
        <ele>597.0</ele>
        <time>2020-09-29T07:52:21Z</time>
      </trkpt>
      <trkpt lat="40.5980900" lon="-3.5584580">
        <ele>597.0</ele>
        <time>2020-09-29T07:52:22Z</time>
      </trkpt>
      <trkpt lat="40.5982100" lon="-3.5583550">
        <ele>597.0</ele>
        <time>2020-09-29T07:52:23Z</time>
      </trkpt>
      <trkpt lat="40.5982100" lon="-3.5583550">
        <ele>597.0</ele>
        <time>2020-09-29T07:52:24Z</time>
      </trkpt>
      <trkpt lat="40.5983280" lon="-3.5582480">
        <ele>597.0</ele>
        <time>2020-09-29T07:52:25Z</time>
      </trkpt>
      <trkpt lat="40.5983280" lon="-3.5582480">
        <ele>597.0</ele>
        <time>2020-09-29T07:52:26Z</time>
      </trkpt>
      <trkpt lat="40.5984470" lon="-3.5581420">
        <ele>597.0</ele>
        <time>2020-09-29T07:52:27Z</time>
      </trkpt>
      <trkpt lat="40.5984470" lon="-3.5581420">
        <ele>597.0</ele>
        <time>2020-09-29T07:52:28Z</time>
      </trkpt>
      <trkpt lat="40.5985630" lon="-3.5580300">
        <ele>597.0</ele>
        <time>2020-09-29T07:52:29Z</time>
      </trkpt>
      <trkpt lat="40.5986220" lon="-3.5579720">
        <ele>597.0</ele>
        <time>2020-09-29T07:52:30Z</time>
      </trkpt>
      <trkpt lat="40.5986800" lon="-3.5579130">
        <ele>597.0</ele>
        <time>2020-09-29T07:52:31Z</time>
      </trkpt>
      <trkpt lat="40.5986800" lon="-3.5579130">
        <ele>597.0</ele>
        <time>2020-09-29T07:52:32Z</time>
      </trkpt>
      <trkpt lat="40.5987970" lon="-3.5577980">
        <ele>597.0</ele>
        <time>2020-09-29T07:52:33Z</time>
      </trkpt>
      <trkpt lat="40.5987970" lon="-3.5577980">
        <ele>597.0</ele>
        <time>2020-09-29T07:52:34Z</time>
      </trkpt>
      <trkpt lat="40.5989080" lon="-3.5576820">
        <ele>597.0</ele>
        <time>2020-09-29T07:52:35Z</time>
      </trkpt>
      <trkpt lat="40.5989080" lon="-3.5576820">
        <ele>598.0</ele>
        <time>2020-09-29T07:52:36Z</time>
      </trkpt>
      <trkpt lat="40.5990180" lon="-3.5575670">
        <ele>598.0</ele>
        <time>2020-09-29T07:52:37Z</time>
      </trkpt>
      <trkpt lat="40.5990180" lon="-3.5575670">
        <ele>598.0</ele>
        <time>2020-09-29T07:52:38Z</time>
      </trkpt>
      <trkpt lat="40.5991270" lon="-3.5574500">
        <ele>598.0</ele>
        <time>2020-09-29T07:52:39Z</time>
      </trkpt>
      <trkpt lat="40.5991270" lon="-3.5574500">
        <ele>598.0</ele>
        <time>2020-09-29T07:52:40Z</time>
      </trkpt>
      <trkpt lat="40.5992350" lon="-3.5573330">
        <ele>598.0</ele>
        <time>2020-09-29T07:52:41Z</time>
      </trkpt>
      <trkpt lat="40.5992350" lon="-3.5573330">
        <ele>598.0</ele>
        <time>2020-09-29T07:52:42Z</time>
      </trkpt>
      <trkpt lat="40.5993420" lon="-3.5572170">
        <ele>598.0</ele>
        <time>2020-09-29T07:52:43Z</time>
      </trkpt>
      <trkpt lat="40.5993420" lon="-3.5572170">
        <ele>598.0</ele>
        <time>2020-09-29T07:52:44Z</time>
      </trkpt>
      <trkpt lat="40.5994500" lon="-3.5571000">
        <ele>598.0</ele>
        <time>2020-09-29T07:52:45Z</time>
      </trkpt>
      <trkpt lat="40.5994500" lon="-3.5571000">
        <ele>598.0</ele>
        <time>2020-09-29T07:52:46Z</time>
      </trkpt>
      <trkpt lat="40.5995570" lon="-3.5569820">
        <ele>598.0</ele>
        <time>2020-09-29T07:52:47Z</time>
      </trkpt>
      <trkpt lat="40.5996100" lon="-3.5569230">
        <ele>598.0</ele>
        <time>2020-09-29T07:52:48Z</time>
      </trkpt>
      <trkpt lat="40.5996100" lon="-3.5569230">
        <ele>598.0</ele>
        <time>2020-09-29T07:52:49Z</time>
      </trkpt>
      <trkpt lat="40.5997200" lon="-3.5568030">
        <ele>598.0</ele>
        <time>2020-09-29T07:52:50Z</time>
      </trkpt>
      <trkpt lat="40.5997750" lon="-3.5567450">
        <ele>599.0</ele>
        <time>2020-09-29T07:52:51Z</time>
      </trkpt>
      <trkpt lat="40.5997750" lon="-3.5567450">
        <ele>599.0</ele>
        <time>2020-09-29T07:52:52Z</time>
      </trkpt>
      <trkpt lat="40.5998850" lon="-3.5566250">
        <ele>599.0</ele>
        <time>2020-09-29T07:52:53Z</time>
      </trkpt>
      <trkpt lat="40.5998850" lon="-3.5566250">
        <ele>599.0</ele>
        <time>2020-09-29T07:52:54Z</time>
      </trkpt>
      <trkpt lat="40.5999930" lon="-3.5565070">
        <ele>599.0</ele>
        <time>2020-09-29T07:52:55Z</time>
      </trkpt>
      <trkpt lat="40.5999930" lon="-3.5565070">
        <ele>599.0</ele>
        <time>2020-09-29T07:52:56Z</time>
      </trkpt>
      <trkpt lat="40.6001000" lon="-3.5563850">
        <ele>599.0</ele>
        <time>2020-09-29T07:52:57Z</time>
      </trkpt>
      <trkpt lat="40.6001000" lon="-3.5563850">
        <ele>599.0</ele>
        <time>2020-09-29T07:52:58Z</time>
      </trkpt>
      <trkpt lat="40.6002080" lon="-3.5562700">
        <ele>599.0</ele>
        <time>2020-09-29T07:52:59Z</time>
      </trkpt>
      <trkpt lat="40.6002620" lon="-3.5562100">
        <ele>599.0</ele>
        <time>2020-09-29T07:53:00Z</time>
      </trkpt>
      <trkpt lat="40.6002620" lon="-3.5562100">
        <ele>599.0</ele>
        <time>2020-09-29T07:53:01Z</time>
      </trkpt>
      <trkpt lat="40.6003700" lon="-3.5560920">
        <ele>599.0</ele>
        <time>2020-09-29T07:53:02Z</time>
      </trkpt>
      <trkpt lat="40.6003700" lon="-3.5560920">
        <ele>599.0</ele>
        <time>2020-09-29T07:53:03Z</time>
      </trkpt>
      <trkpt lat="40.6004800" lon="-3.5559700">
        <ele>599.0</ele>
        <time>2020-09-29T07:53:04Z</time>
      </trkpt>
      <trkpt lat="40.6004800" lon="-3.5559700">
        <ele>599.0</ele>
        <time>2020-09-29T07:53:05Z</time>
      </trkpt>
      <trkpt lat="40.6005900" lon="-3.5558530">
        <ele>599.0</ele>
        <time>2020-09-29T07:53:06Z</time>
      </trkpt>
      <trkpt lat="40.6006450" lon="-3.5557920">
        <ele>599.0</ele>
        <time>2020-09-29T07:53:07Z</time>
      </trkpt>
      <trkpt lat="40.6006450" lon="-3.5557920">
        <ele>599.0</ele>
        <time>2020-09-29T07:53:08Z</time>
      </trkpt>
      <trkpt lat="40.6007530" lon="-3.5556700">
        <ele>599.0</ele>
        <time>2020-09-29T07:53:09Z</time>
      </trkpt>
      <trkpt lat="40.6008080" lon="-3.5556100">
        <ele>599.0</ele>
        <time>2020-09-29T07:53:10Z</time>
      </trkpt>
      <trkpt lat="40.6008080" lon="-3.5556100">
        <ele>599.0</ele>
        <time>2020-09-29T07:53:11Z</time>
      </trkpt>
      <trkpt lat="40.6009150" lon="-3.5554930">
        <ele>599.0</ele>
        <time>2020-09-29T07:53:12Z</time>
      </trkpt>
      <trkpt lat="40.6009150" lon="-3.5554930">
        <ele>599.0</ele>
        <time>2020-09-29T07:53:13Z</time>
      </trkpt>
      <trkpt lat="40.6010230" lon="-3.5553700">
        <ele>599.0</ele>
        <time>2020-09-29T07:53:14Z</time>
      </trkpt>
      <trkpt lat="40.6010230" lon="-3.5553700">
        <ele>599.0</ele>
        <time>2020-09-29T07:53:15Z</time>
      </trkpt>
      <trkpt lat="40.6011370" lon="-3.5552470">
        <ele>599.0</ele>
        <time>2020-09-29T07:53:16Z</time>
      </trkpt>
      <trkpt lat="40.6011370" lon="-3.5552470">
        <ele>599.0</ele>
        <time>2020-09-29T07:53:17Z</time>
      </trkpt>
      <trkpt lat="40.6012500" lon="-3.5551270">
        <ele>599.0</ele>
        <time>2020-09-29T07:53:18Z</time>
      </trkpt>
      <trkpt lat="40.6013050" lon="-3.5550650">
        <ele>599.0</ele>
        <time>2020-09-29T07:53:19Z</time>
      </trkpt>
      <trkpt lat="40.6013050" lon="-3.5550650">
        <ele>599.0</ele>
        <time>2020-09-29T07:53:20Z</time>
      </trkpt>
      <trkpt lat="40.6014120" lon="-3.5549480">
        <ele>599.0</ele>
        <time>2020-09-29T07:53:21Z</time>
      </trkpt>
      <trkpt lat="40.6014670" lon="-3.5548900">
        <ele>599.0</ele>
        <time>2020-09-29T07:53:22Z</time>
      </trkpt>
      <trkpt lat="40.6014670" lon="-3.5548900">
        <ele>599.0</ele>
        <time>2020-09-29T07:53:23Z</time>
      </trkpt>
      <trkpt lat="40.6015780" lon="-3.5547700">
        <ele>599.0</ele>
        <time>2020-09-29T07:53:24Z</time>
      </trkpt>
      <trkpt lat="40.6016330" lon="-3.5547080">
        <ele>599.0</ele>
        <time>2020-09-29T07:53:25Z</time>
      </trkpt>
      <trkpt lat="40.6016330" lon="-3.5547080">
        <ele>599.0</ele>
        <time>2020-09-29T07:53:26Z</time>
      </trkpt>
      <trkpt lat="40.6017420" lon="-3.5545850">
        <ele>599.0</ele>
        <time>2020-09-29T07:53:27Z</time>
      </trkpt>
      <trkpt lat="40.6017420" lon="-3.5545850">
        <ele>599.0</ele>
        <time>2020-09-29T07:53:28Z</time>
      </trkpt>
      <trkpt lat="40.6018520" lon="-3.5544650">
        <ele>599.0</ele>
        <time>2020-09-29T07:53:29Z</time>
      </trkpt>
      <trkpt lat="40.6018520" lon="-3.5544650">
        <ele>599.0</ele>
        <time>2020-09-29T07:53:30Z</time>
      </trkpt>
      <trkpt lat="40.6019630" lon="-3.5543430">
        <ele>599.0</ele>
        <time>2020-09-29T07:53:31Z</time>
      </trkpt>
      <trkpt lat="40.6019630" lon="-3.5543430">
        <ele>599.0</ele>
        <time>2020-09-29T07:53:32Z</time>
      </trkpt>
      <trkpt lat="40.6020750" lon="-3.5542230">
        <ele>599.0</ele>
        <time>2020-09-29T07:53:33Z</time>
      </trkpt>
      <trkpt lat="40.6020750" lon="-3.5542230">
        <ele>599.0</ele>
        <time>2020-09-29T07:53:34Z</time>
      </trkpt>
      <trkpt lat="40.6021870" lon="-3.5541000">
        <ele>599.0</ele>
        <time>2020-09-29T07:53:35Z</time>
      </trkpt>
      <trkpt lat="40.6022400" lon="-3.5540420">
        <ele>599.0</ele>
        <time>2020-09-29T07:53:36Z</time>
      </trkpt>
      <trkpt lat="40.6022970" lon="-3.5539820">
        <ele>599.0</ele>
        <time>2020-09-29T07:53:37Z</time>
      </trkpt>
      <trkpt lat="40.6022970" lon="-3.5539820">
        <ele>599.0</ele>
        <time>2020-09-29T07:53:38Z</time>
      </trkpt>
      <trkpt lat="40.6024050" lon="-3.5538620">
        <ele>599.0</ele>
        <time>2020-09-29T07:53:39Z</time>
      </trkpt>
      <trkpt lat="40.6024050" lon="-3.5538620">
        <ele>599.0</ele>
        <time>2020-09-29T07:53:40Z</time>
      </trkpt>
      <trkpt lat="40.6025130" lon="-3.5537470">
        <ele>599.0</ele>
        <time>2020-09-29T07:53:41Z</time>
      </trkpt>
      <trkpt lat="40.6025130" lon="-3.5537470">
        <ele>599.0</ele>
        <time>2020-09-29T07:53:42Z</time>
      </trkpt>
      <trkpt lat="40.6026220" lon="-3.5536300">
        <ele>599.0</ele>
        <time>2020-09-29T07:53:43Z</time>
      </trkpt>
      <trkpt lat="40.6026750" lon="-3.5535730">
        <ele>599.0</ele>
        <time>2020-09-29T07:53:44Z</time>
      </trkpt>
      <trkpt lat="40.6026750" lon="-3.5535730">
        <ele>599.0</ele>
        <time>2020-09-29T07:53:45Z</time>
      </trkpt>
      <trkpt lat="40.6027820" lon="-3.5534570">
        <ele>599.0</ele>
        <time>2020-09-29T07:53:46Z</time>
      </trkpt>
      <trkpt lat="40.6027820" lon="-3.5534570">
        <ele>599.0</ele>
        <time>2020-09-29T07:53:47Z</time>
      </trkpt>
      <trkpt lat="40.6028900" lon="-3.5533430">
        <ele>599.0</ele>
        <time>2020-09-29T07:53:48Z</time>
      </trkpt>
      <trkpt lat="40.6028900" lon="-3.5533430">
        <ele>599.0</ele>
        <time>2020-09-29T07:53:49Z</time>
      </trkpt>
      <trkpt lat="40.6029970" lon="-3.5532270">
        <ele>599.0</ele>
        <time>2020-09-29T07:53:50Z</time>
      </trkpt>
      <trkpt lat="40.6029970" lon="-3.5532270">
        <ele>599.0</ele>
        <time>2020-09-29T07:53:51Z</time>
      </trkpt>
      <trkpt lat="40.6031000" lon="-3.5531120">
        <ele>599.0</ele>
        <time>2020-09-29T07:53:52Z</time>
      </trkpt>
      <trkpt lat="40.6031000" lon="-3.5531120">
        <ele>599.0</ele>
        <time>2020-09-29T07:53:53Z</time>
      </trkpt>
      <trkpt lat="40.6032050" lon="-3.5529980">
        <ele>599.0</ele>
        <time>2020-09-29T07:53:54Z</time>
      </trkpt>
      <trkpt lat="40.6032050" lon="-3.5529980">
        <ele>599.0</ele>
        <time>2020-09-29T07:53:55Z</time>
      </trkpt>
      <trkpt lat="40.6033100" lon="-3.5528800">
        <ele>599.0</ele>
        <time>2020-09-29T07:53:56Z</time>
      </trkpt>
      <trkpt lat="40.6033100" lon="-3.5528800">
        <ele>599.0</ele>
        <time>2020-09-29T07:53:57Z</time>
      </trkpt>
      <trkpt lat="40.6034130" lon="-3.5527670">
        <ele>599.0</ele>
        <time>2020-09-29T07:53:58Z</time>
      </trkpt>
      <trkpt lat="40.6034650" lon="-3.5527100">
        <ele>599.0</ele>
        <time>2020-09-29T07:53:59Z</time>
      </trkpt>
      <trkpt lat="40.6034650" lon="-3.5527100">
        <ele>598.0</ele>
        <time>2020-09-29T07:54:00Z</time>
      </trkpt>
      <trkpt lat="40.6035700" lon="-3.5525970">
        <ele>598.0</ele>
        <time>2020-09-29T07:54:01Z</time>
      </trkpt>
      <trkpt lat="40.6035700" lon="-3.5525970">
        <ele>598.0</ele>
        <time>2020-09-29T07:54:02Z</time>
      </trkpt>
      <trkpt lat="40.6036750" lon="-3.5524820">
        <ele>598.0</ele>
        <time>2020-09-29T07:54:03Z</time>
      </trkpt>
      <trkpt lat="40.6037270" lon="-3.5524250">
        <ele>598.0</ele>
        <time>2020-09-29T07:54:04Z</time>
      </trkpt>
      <trkpt lat="40.6037270" lon="-3.5524250">
        <ele>598.0</ele>
        <time>2020-09-29T07:54:05Z</time>
      </trkpt>
      <trkpt lat="40.6038320" lon="-3.5523120">
        <ele>598.0</ele>
        <time>2020-09-29T07:54:06Z</time>
      </trkpt>
      <trkpt lat="40.6038830" lon="-3.5522530">
        <ele>598.0</ele>
        <time>2020-09-29T07:54:07Z</time>
      </trkpt>
      <trkpt lat="40.6038830" lon="-3.5522530">
        <ele>599.0</ele>
        <time>2020-09-29T07:54:08Z</time>
      </trkpt>
      <trkpt lat="40.6039880" lon="-3.5521380">
        <ele>599.0</ele>
        <time>2020-09-29T07:54:09Z</time>
      </trkpt>
      <trkpt lat="40.6039880" lon="-3.5521380">
        <ele>599.0</ele>
        <time>2020-09-29T07:54:10Z</time>
      </trkpt>
      <trkpt lat="40.6040930" lon="-3.5520280">
        <ele>599.0</ele>
        <time>2020-09-29T07:54:11Z</time>
      </trkpt>
      <trkpt lat="40.6040930" lon="-3.5520280">
        <ele>599.0</ele>
        <time>2020-09-29T07:54:12Z</time>
      </trkpt>
      <trkpt lat="40.6041950" lon="-3.5519120">
        <ele>599.0</ele>
        <time>2020-09-29T07:54:13Z</time>
      </trkpt>
      <trkpt lat="40.6042480" lon="-3.5518530">
        <ele>599.0</ele>
        <time>2020-09-29T07:54:14Z</time>
      </trkpt>
      <trkpt lat="40.6042480" lon="-3.5518530">
        <ele>599.0</ele>
        <time>2020-09-29T07:54:15Z</time>
      </trkpt>
      <trkpt lat="40.6043520" lon="-3.5517420">
        <ele>599.0</ele>
        <time>2020-09-29T07:54:16Z</time>
      </trkpt>
      <trkpt lat="40.6044030" lon="-3.5516830">
        <ele>599.0</ele>
        <time>2020-09-29T07:54:17Z</time>
      </trkpt>
      <trkpt lat="40.6044030" lon="-3.5516830">
        <ele>600.0</ele>
        <time>2020-09-29T07:54:18Z</time>
      </trkpt>
      <trkpt lat="40.6045100" lon="-3.5515670">
        <ele>600.0</ele>
        <time>2020-09-29T07:54:19Z</time>
      </trkpt>
      <trkpt lat="40.6045630" lon="-3.5515080">
        <ele>600.0</ele>
        <time>2020-09-29T07:54:20Z</time>
      </trkpt>
      <trkpt lat="40.6045630" lon="-3.5515080">
        <ele>600.0</ele>
        <time>2020-09-29T07:54:21Z</time>
      </trkpt>
      <trkpt lat="40.6046680" lon="-3.5513920">
        <ele>600.0</ele>
        <time>2020-09-29T07:54:22Z</time>
      </trkpt>
      <trkpt lat="40.6046680" lon="-3.5513920">
        <ele>600.0</ele>
        <time>2020-09-29T07:54:23Z</time>
      </trkpt>
      <trkpt lat="40.6047720" lon="-3.5512770">
        <ele>600.0</ele>
        <time>2020-09-29T07:54:24Z</time>
      </trkpt>
      <trkpt lat="40.6047720" lon="-3.5512770">
        <ele>600.0</ele>
        <time>2020-09-29T07:54:25Z</time>
      </trkpt>
      <trkpt lat="40.6048730" lon="-3.5511630">
        <ele>600.0</ele>
        <time>2020-09-29T07:54:26Z</time>
      </trkpt>
      <trkpt lat="40.6049230" lon="-3.5511070">
        <ele>600.0</ele>
        <time>2020-09-29T07:54:27Z</time>
      </trkpt>
      <trkpt lat="40.6049230" lon="-3.5511070">
        <ele>600.0</ele>
        <time>2020-09-29T07:54:28Z</time>
      </trkpt>
      <trkpt lat="40.6050270" lon="-3.5509880">
        <ele>600.0</ele>
        <time>2020-09-29T07:54:29Z</time>
      </trkpt>
      <trkpt lat="40.6050270" lon="-3.5509880">
        <ele>600.0</ele>
        <time>2020-09-29T07:54:30Z</time>
      </trkpt>
      <trkpt lat="40.6051280" lon="-3.5508730">
        <ele>600.0</ele>
        <time>2020-09-29T07:54:31Z</time>
      </trkpt>
      <trkpt lat="40.6051800" lon="-3.5508180">
        <ele>600.0</ele>
        <time>2020-09-29T07:54:32Z</time>
      </trkpt>
      <trkpt lat="40.6051800" lon="-3.5508180">
        <ele>600.0</ele>
        <time>2020-09-29T07:54:33Z</time>
      </trkpt>
      <trkpt lat="40.6052820" lon="-3.5507030">
        <ele>600.0</ele>
        <time>2020-09-29T07:54:34Z</time>
      </trkpt>
      <trkpt lat="40.6053330" lon="-3.5506450">
        <ele>600.0</ele>
        <time>2020-09-29T07:54:35Z</time>
      </trkpt>
      <trkpt lat="40.6053330" lon="-3.5506450">
        <ele>600.0</ele>
        <time>2020-09-29T07:54:36Z</time>
      </trkpt>
      <trkpt lat="40.6054380" lon="-3.5505350">
        <ele>600.0</ele>
        <time>2020-09-29T07:54:37Z</time>
      </trkpt>
      <trkpt lat="40.6054380" lon="-3.5505350">
        <ele>600.0</ele>
        <time>2020-09-29T07:54:38Z</time>
      </trkpt>
      <trkpt lat="40.6055400" lon="-3.5504250">
        <ele>600.0</ele>
        <time>2020-09-29T07:54:39Z</time>
      </trkpt>
      <trkpt lat="40.6055400" lon="-3.5504250">
        <ele>600.0</ele>
        <time>2020-09-29T07:54:40Z</time>
      </trkpt>
      <trkpt lat="40.6056430" lon="-3.5503150">
        <ele>600.0</ele>
        <time>2020-09-29T07:54:41Z</time>
      </trkpt>
      <trkpt lat="40.6056930" lon="-3.5502580">
        <ele>600.0</ele>
        <time>2020-09-29T07:54:42Z</time>
      </trkpt>
      <trkpt lat="40.6056930" lon="-3.5502580">
        <ele>600.0</ele>
        <time>2020-09-29T07:54:43Z</time>
      </trkpt>
      <trkpt lat="40.6057930" lon="-3.5501470">
        <ele>601.0</ele>
        <time>2020-09-29T07:54:44Z</time>
      </trkpt>
      <trkpt lat="40.6057930" lon="-3.5501470">
        <ele>601.0</ele>
        <time>2020-09-29T07:54:45Z</time>
      </trkpt>
      <trkpt lat="40.6058970" lon="-3.5500370">
        <ele>601.0</ele>
        <time>2020-09-29T07:54:46Z</time>
      </trkpt>
      <trkpt lat="40.6058970" lon="-3.5500370">
        <ele>601.0</ele>
        <time>2020-09-29T07:54:47Z</time>
      </trkpt>
      <trkpt lat="40.6059970" lon="-3.5499300">
        <ele>601.0</ele>
        <time>2020-09-29T07:54:48Z</time>
      </trkpt>
      <trkpt lat="40.6060480" lon="-3.5498770">
        <ele>601.0</ele>
        <time>2020-09-29T07:54:49Z</time>
      </trkpt>
      <trkpt lat="40.6060480" lon="-3.5498770">
        <ele>602.0</ele>
        <time>2020-09-29T07:54:50Z</time>
      </trkpt>
      <trkpt lat="40.6061520" lon="-3.5497750">
        <ele>602.0</ele>
        <time>2020-09-29T07:54:51Z</time>
      </trkpt>
      <trkpt lat="40.6062020" lon="-3.5497220">
        <ele>602.0</ele>
        <time>2020-09-29T07:54:52Z</time>
      </trkpt>
      <trkpt lat="40.6062020" lon="-3.5497220">
        <ele>602.0</ele>
        <time>2020-09-29T07:54:53Z</time>
      </trkpt>
      <trkpt lat="40.6063030" lon="-3.5496180">
        <ele>602.0</ele>
        <time>2020-09-29T07:54:54Z</time>
      </trkpt>
      <trkpt lat="40.6063550" lon="-3.5495700">
        <ele>602.0</ele>
        <time>2020-09-29T07:54:55Z</time>
      </trkpt>
      <trkpt lat="40.6064070" lon="-3.5495220">
        <ele>602.0</ele>
        <time>2020-09-29T07:54:56Z</time>
      </trkpt>
      <trkpt lat="40.6064070" lon="-3.5495220">
        <ele>602.0</ele>
        <time>2020-09-29T07:54:57Z</time>
      </trkpt>
      <trkpt lat="40.6065130" lon="-3.5494230">
        <ele>602.0</ele>
        <time>2020-09-29T07:54:58Z</time>
      </trkpt>
      <trkpt lat="40.6065670" lon="-3.5493730">
        <ele>602.0</ele>
        <time>2020-09-29T07:54:59Z</time>
      </trkpt>
      <trkpt lat="40.6065670" lon="-3.5493730">
        <ele>602.0</ele>
        <time>2020-09-29T07:55:00Z</time>
      </trkpt>
      <trkpt lat="40.6066700" lon="-3.5492780">
        <ele>602.0</ele>
        <time>2020-09-29T07:55:01Z</time>
      </trkpt>
      <trkpt lat="40.6066700" lon="-3.5492780">
        <ele>602.0</ele>
        <time>2020-09-29T07:55:02Z</time>
      </trkpt>
      <trkpt lat="40.6067770" lon="-3.5491870">
        <ele>602.0</ele>
        <time>2020-09-29T07:55:03Z</time>
      </trkpt>
      <trkpt lat="40.6068320" lon="-3.5491420">
        <ele>602.0</ele>
        <time>2020-09-29T07:55:04Z</time>
      </trkpt>
      <trkpt lat="40.6068320" lon="-3.5491420">
        <ele>602.0</ele>
        <time>2020-09-29T07:55:05Z</time>
      </trkpt>
      <trkpt lat="40.6069400" lon="-3.5490520">
        <ele>602.0</ele>
        <time>2020-09-29T07:55:06Z</time>
      </trkpt>
      <trkpt lat="40.6069950" lon="-3.5490100">
        <ele>602.0</ele>
        <time>2020-09-29T07:55:07Z</time>
      </trkpt>
      <trkpt lat="40.6069950" lon="-3.5490100">
        <ele>602.0</ele>
        <time>2020-09-29T07:55:08Z</time>
      </trkpt>
      <trkpt lat="40.6071030" lon="-3.5489230">
        <ele>602.0</ele>
        <time>2020-09-29T07:55:09Z</time>
      </trkpt>
      <trkpt lat="40.6071030" lon="-3.5489230">
        <ele>602.0</ele>
        <time>2020-09-29T07:55:10Z</time>
      </trkpt>
      <trkpt lat="40.6072130" lon="-3.5488370">
        <ele>602.0</ele>
        <time>2020-09-29T07:55:11Z</time>
      </trkpt>
      <trkpt lat="40.6072130" lon="-3.5488370">
        <ele>602.0</ele>
        <time>2020-09-29T07:55:12Z</time>
      </trkpt>
      <trkpt lat="40.6073270" lon="-3.5487570">
        <ele>602.0</ele>
        <time>2020-09-29T07:55:13Z</time>
      </trkpt>
      <trkpt lat="40.6073270" lon="-3.5487570">
        <ele>602.0</ele>
        <time>2020-09-29T07:55:14Z</time>
      </trkpt>
      <trkpt lat="40.6074400" lon="-3.5486770">
        <ele>602.0</ele>
        <time>2020-09-29T07:55:15Z</time>
      </trkpt>
      <trkpt lat="40.6074400" lon="-3.5486770">
        <ele>602.0</ele>
        <time>2020-09-29T07:55:16Z</time>
      </trkpt>
      <trkpt lat="40.6075530" lon="-3.5485950">
        <ele>602.0</ele>
        <time>2020-09-29T07:55:17Z</time>
      </trkpt>
      <trkpt lat="40.6075530" lon="-3.5485950">
        <ele>602.0</ele>
        <time>2020-09-29T07:55:18Z</time>
      </trkpt>
      <trkpt lat="40.6076650" lon="-3.5485150">
        <ele>602.0</ele>
        <time>2020-09-29T07:55:19Z</time>
      </trkpt>
      <trkpt lat="40.6076650" lon="-3.5485150">
        <ele>602.0</ele>
        <time>2020-09-29T07:55:20Z</time>
      </trkpt>
      <trkpt lat="40.6077800" lon="-3.5484420">
        <ele>602.0</ele>
        <time>2020-09-29T07:55:21Z</time>
      </trkpt>
      <trkpt lat="40.6077800" lon="-3.5484420">
        <ele>603.0</ele>
        <time>2020-09-29T07:55:22Z</time>
      </trkpt>
      <trkpt lat="40.6078950" lon="-3.5483720">
        <ele>603.0</ele>
        <time>2020-09-29T07:55:23Z</time>
      </trkpt>
      <trkpt lat="40.6078950" lon="-3.5483720">
        <ele>603.0</ele>
        <time>2020-09-29T07:55:24Z</time>
      </trkpt>
      <trkpt lat="40.6080120" lon="-3.5483030">
        <ele>603.0</ele>
        <time>2020-09-29T07:55:25Z</time>
      </trkpt>
      <trkpt lat="40.6080120" lon="-3.5483030">
        <ele>603.0</ele>
        <time>2020-09-29T07:55:26Z</time>
      </trkpt>
      <trkpt lat="40.6081300" lon="-3.5482370">
        <ele>603.0</ele>
        <time>2020-09-29T07:55:27Z</time>
      </trkpt>
      <trkpt lat="40.6081300" lon="-3.5482370">
        <ele>603.0</ele>
        <time>2020-09-29T07:55:28Z</time>
      </trkpt>
      <trkpt lat="40.6082470" lon="-3.5481730">
        <ele>603.0</ele>
        <time>2020-09-29T07:55:29Z</time>
      </trkpt>
      <trkpt lat="40.6082470" lon="-3.5481730">
        <ele>603.0</ele>
        <time>2020-09-29T07:55:30Z</time>
      </trkpt>
      <trkpt lat="40.6083630" lon="-3.5481100">
        <ele>603.0</ele>
        <time>2020-09-29T07:55:31Z</time>
      </trkpt>
      <trkpt lat="40.6083630" lon="-3.5481100">
        <ele>603.0</ele>
        <time>2020-09-29T07:55:32Z</time>
      </trkpt>
      <trkpt lat="40.6084830" lon="-3.5480520">
        <ele>603.0</ele>
        <time>2020-09-29T07:55:33Z</time>
      </trkpt>
      <trkpt lat="40.6085430" lon="-3.5480220">
        <ele>603.0</ele>
        <time>2020-09-29T07:55:34Z</time>
      </trkpt>
      <trkpt lat="40.6086030" lon="-3.5479930">
        <ele>603.0</ele>
        <time>2020-09-29T07:55:35Z</time>
      </trkpt>
      <trkpt lat="40.6086030" lon="-3.5479930">
        <ele>603.0</ele>
        <time>2020-09-29T07:55:36Z</time>
      </trkpt>
      <trkpt lat="40.6087250" lon="-3.5479320">
        <ele>603.0</ele>
        <time>2020-09-29T07:55:37Z</time>
      </trkpt>
      <trkpt lat="40.6087250" lon="-3.5479320">
        <ele>603.0</ele>
        <time>2020-09-29T07:55:38Z</time>
      </trkpt>
      <trkpt lat="40.6088480" lon="-3.5478750">
        <ele>603.0</ele>
        <time>2020-09-29T07:55:39Z</time>
      </trkpt>
      <trkpt lat="40.6088480" lon="-3.5478750">
        <ele>603.0</ele>
        <time>2020-09-29T07:55:40Z</time>
      </trkpt>
      <trkpt lat="40.6089730" lon="-3.5478250">
        <ele>603.0</ele>
        <time>2020-09-29T07:55:41Z</time>
      </trkpt>
      <trkpt lat="40.6089730" lon="-3.5478250">
        <ele>604.0</ele>
        <time>2020-09-29T07:55:42Z</time>
      </trkpt>
      <trkpt lat="40.6090980" lon="-3.5477730">
        <ele>604.0</ele>
        <time>2020-09-29T07:55:43Z</time>
      </trkpt>
      <trkpt lat="40.6090980" lon="-3.5477730">
        <ele>604.0</ele>
        <time>2020-09-29T07:55:44Z</time>
      </trkpt>
      <trkpt lat="40.6092230" lon="-3.5477250">
        <ele>604.0</ele>
        <time>2020-09-29T07:55:45Z</time>
      </trkpt>
      <trkpt lat="40.6092230" lon="-3.5477250">
        <ele>604.0</ele>
        <time>2020-09-29T07:55:46Z</time>
      </trkpt>
      <trkpt lat="40.6093480" lon="-3.5476780">
        <ele>604.0</ele>
        <time>2020-09-29T07:55:47Z</time>
      </trkpt>
      <trkpt lat="40.6094120" lon="-3.5476570">
        <ele>604.0</ele>
        <time>2020-09-29T07:55:48Z</time>
      </trkpt>
      <trkpt lat="40.6094120" lon="-3.5476570">
        <ele>604.0</ele>
        <time>2020-09-29T07:55:49Z</time>
      </trkpt>
      <trkpt lat="40.6095400" lon="-3.5476150">
        <ele>604.0</ele>
        <time>2020-09-29T07:55:50Z</time>
      </trkpt>
      <trkpt lat="40.6095400" lon="-3.5476150">
        <ele>604.0</ele>
        <time>2020-09-29T07:55:51Z</time>
      </trkpt>
      <trkpt lat="40.6096680" lon="-3.5475720">
        <ele>604.0</ele>
        <time>2020-09-29T07:55:52Z</time>
      </trkpt>
      <trkpt lat="40.6097330" lon="-3.5475520">
        <ele>604.0</ele>
        <time>2020-09-29T07:55:53Z</time>
      </trkpt>
      <trkpt lat="40.6097980" lon="-3.5475330">
        <ele>604.0</ele>
        <time>2020-09-29T07:55:54Z</time>
      </trkpt>
      <trkpt lat="40.6097980" lon="-3.5475330">
        <ele>604.0</ele>
        <time>2020-09-29T07:55:55Z</time>
      </trkpt>
      <trkpt lat="40.6099250" lon="-3.5474980">
        <ele>604.0</ele>
        <time>2020-09-29T07:55:56Z</time>
      </trkpt>
      <trkpt lat="40.6099250" lon="-3.5474980">
        <ele>604.0</ele>
        <time>2020-09-29T07:55:57Z</time>
      </trkpt>
      <trkpt lat="40.6100550" lon="-3.5474670">
        <ele>604.0</ele>
        <time>2020-09-29T07:55:58Z</time>
      </trkpt>
      <trkpt lat="40.6100550" lon="-3.5474670">
        <ele>604.0</ele>
        <time>2020-09-29T07:55:59Z</time>
      </trkpt>
      <trkpt lat="40.6101830" lon="-3.5474370">
        <ele>605.0</ele>
        <time>2020-09-29T07:56:00Z</time>
      </trkpt>
      <trkpt lat="40.6101830" lon="-3.5474370">
        <ele>605.0</ele>
        <time>2020-09-29T07:56:01Z</time>
      </trkpt>
      <trkpt lat="40.6103120" lon="-3.5474100">
        <ele>605.0</ele>
        <time>2020-09-29T07:56:02Z</time>
      </trkpt>
      <trkpt lat="40.6103120" lon="-3.5474100">
        <ele>605.0</ele>
        <time>2020-09-29T07:56:03Z</time>
      </trkpt>
      <trkpt lat="40.6104430" lon="-3.5473850">
        <ele>605.0</ele>
        <time>2020-09-29T07:56:04Z</time>
      </trkpt>
      <trkpt lat="40.6104430" lon="-3.5473850">
        <ele>605.0</ele>
        <time>2020-09-29T07:56:05Z</time>
      </trkpt>
      <trkpt lat="40.6105730" lon="-3.5473630">
        <ele>605.0</ele>
        <time>2020-09-29T07:56:06Z</time>
      </trkpt>
      <trkpt lat="40.6106380" lon="-3.5473530">
        <ele>605.0</ele>
        <time>2020-09-29T07:56:07Z</time>
      </trkpt>
      <trkpt lat="40.6106380" lon="-3.5473530">
        <ele>605.0</ele>
        <time>2020-09-29T07:56:08Z</time>
      </trkpt>
      <trkpt lat="40.6107700" lon="-3.5473350">
        <ele>605.0</ele>
        <time>2020-09-29T07:56:09Z</time>
      </trkpt>
      <trkpt lat="40.6107700" lon="-3.5473350">
        <ele>605.0</ele>
        <time>2020-09-29T07:56:10Z</time>
      </trkpt>
      <trkpt lat="40.6109000" lon="-3.5473230">
        <ele>605.0</ele>
        <time>2020-09-29T07:56:11Z</time>
      </trkpt>
      <trkpt lat="40.6109000" lon="-3.5473230">
        <ele>605.0</ele>
        <time>2020-09-29T07:56:12Z</time>
      </trkpt>
      <trkpt lat="40.6110320" lon="-3.5473070">
        <ele>605.0</ele>
        <time>2020-09-29T07:56:13Z</time>
      </trkpt>
      <trkpt lat="40.6110320" lon="-3.5473070">
        <ele>605.0</ele>
        <time>2020-09-29T07:56:14Z</time>
      </trkpt>
      <trkpt lat="40.6111580" lon="-3.5472970">
        <ele>605.0</ele>
        <time>2020-09-29T07:56:15Z</time>
      </trkpt>
      <trkpt lat="40.6112230" lon="-3.5472920">
        <ele>605.0</ele>
        <time>2020-09-29T07:56:16Z</time>
      </trkpt>
      <trkpt lat="40.6112230" lon="-3.5472920">
        <ele>605.0</ele>
        <time>2020-09-29T07:56:17Z</time>
      </trkpt>
      <trkpt lat="40.6113520" lon="-3.5472900">
        <ele>605.0</ele>
        <time>2020-09-29T07:56:18Z</time>
      </trkpt>
      <trkpt lat="40.6114170" lon="-3.5472880">
        <ele>605.0</ele>
        <time>2020-09-29T07:56:19Z</time>
      </trkpt>
      <trkpt lat="40.6114170" lon="-3.5472880">
        <ele>605.0</ele>
        <time>2020-09-29T07:56:20Z</time>
      </trkpt>
      <trkpt lat="40.6115470" lon="-3.5472870">
        <ele>605.0</ele>
        <time>2020-09-29T07:56:21Z</time>
      </trkpt>
      <trkpt lat="40.6115470" lon="-3.5472870">
        <ele>606.0</ele>
        <time>2020-09-29T07:56:22Z</time>
      </trkpt>
      <trkpt lat="40.6116770" lon="-3.5472850">
        <ele>606.0</ele>
        <time>2020-09-29T07:56:23Z</time>
      </trkpt>
      <trkpt lat="40.6117400" lon="-3.5472850">
        <ele>606.0</ele>
        <time>2020-09-29T07:56:24Z</time>
      </trkpt>
      <trkpt lat="40.6117400" lon="-3.5472850">
        <ele>606.0</ele>
        <time>2020-09-29T07:56:25Z</time>
      </trkpt>
      <trkpt lat="40.6118670" lon="-3.5472880">
        <ele>606.0</ele>
        <time>2020-09-29T07:56:26Z</time>
      </trkpt>
      <trkpt lat="40.6118670" lon="-3.5472880">
        <ele>606.0</ele>
        <time>2020-09-29T07:56:27Z</time>
      </trkpt>
      <trkpt lat="40.6119950" lon="-3.5472920">
        <ele>606.0</ele>
        <time>2020-09-29T07:56:28Z</time>
      </trkpt>
      <trkpt lat="40.6119950" lon="-3.5472920">
        <ele>606.0</ele>
        <time>2020-09-29T07:56:29Z</time>
      </trkpt>
      <trkpt lat="40.6121220" lon="-3.5472970">
        <ele>606.0</ele>
        <time>2020-09-29T07:56:30Z</time>
      </trkpt>
      <trkpt lat="40.6121850" lon="-3.5473020">
        <ele>606.0</ele>
        <time>2020-09-29T07:56:31Z</time>
      </trkpt>
      <trkpt lat="40.6121850" lon="-3.5473020">
        <ele>606.0</ele>
        <time>2020-09-29T07:56:32Z</time>
      </trkpt>
      <trkpt lat="40.6123130" lon="-3.5473130">
        <ele>606.0</ele>
        <time>2020-09-29T07:56:33Z</time>
      </trkpt>
      <trkpt lat="40.6123770" lon="-3.5473180">
        <ele>606.0</ele>
        <time>2020-09-29T07:56:34Z</time>
      </trkpt>
      <trkpt lat="40.6123770" lon="-3.5473180">
        <ele>606.0</ele>
        <time>2020-09-29T07:56:35Z</time>
      </trkpt>
      <trkpt lat="40.6125050" lon="-3.5473370">
        <ele>606.0</ele>
        <time>2020-09-29T07:56:36Z</time>
      </trkpt>
      <trkpt lat="40.6125050" lon="-3.5473370">
        <ele>606.0</ele>
        <time>2020-09-29T07:56:37Z</time>
      </trkpt>
      <trkpt lat="40.6126330" lon="-3.5473530">
        <ele>606.0</ele>
        <time>2020-09-29T07:56:38Z</time>
      </trkpt>
      <trkpt lat="40.6126970" lon="-3.5473630">
        <ele>606.0</ele>
        <time>2020-09-29T07:56:39Z</time>
      </trkpt>
      <trkpt lat="40.6126970" lon="-3.5473630">
        <ele>606.0</ele>
        <time>2020-09-29T07:56:40Z</time>
      </trkpt>
      <trkpt lat="40.6128230" lon="-3.5473830">
        <ele>606.0</ele>
        <time>2020-09-29T07:56:41Z</time>
      </trkpt>
      <trkpt lat="40.6128870" lon="-3.5473930">
        <ele>606.0</ele>
        <time>2020-09-29T07:56:42Z</time>
      </trkpt>
      <trkpt lat="40.6128870" lon="-3.5473930">
        <ele>606.0</ele>
        <time>2020-09-29T07:56:43Z</time>
      </trkpt>
      <trkpt lat="40.6130150" lon="-3.5474150">
        <ele>606.0</ele>
        <time>2020-09-29T07:56:44Z</time>
      </trkpt>
      <trkpt lat="40.6130800" lon="-3.5474280">
        <ele>606.0</ele>
        <time>2020-09-29T07:56:45Z</time>
      </trkpt>
      <trkpt lat="40.6131450" lon="-3.5474430">
        <ele>606.0</ele>
        <time>2020-09-29T07:56:46Z</time>
      </trkpt>
      <trkpt lat="40.6131450" lon="-3.5474430">
        <ele>606.0</ele>
        <time>2020-09-29T07:56:47Z</time>
      </trkpt>
      <trkpt lat="40.6132720" lon="-3.5474680">
        <ele>606.0</ele>
        <time>2020-09-29T07:56:48Z</time>
      </trkpt>
      <trkpt lat="40.6133370" lon="-3.5474820">
        <ele>606.0</ele>
        <time>2020-09-29T07:56:49Z</time>
      </trkpt>
      <trkpt lat="40.6133370" lon="-3.5474820">
        <ele>606.0</ele>
        <time>2020-09-29T07:56:50Z</time>
      </trkpt>
      <trkpt lat="40.6134630" lon="-3.5475120">
        <ele>606.0</ele>
        <time>2020-09-29T07:56:51Z</time>
      </trkpt>
      <trkpt lat="40.6135280" lon="-3.5475250">
        <ele>606.0</ele>
        <time>2020-09-29T07:56:52Z</time>
      </trkpt>
      <trkpt lat="40.6135280" lon="-3.5475250">
        <ele>606.0</ele>
        <time>2020-09-29T07:56:53Z</time>
      </trkpt>
      <trkpt lat="40.6136550" lon="-3.5475570">
        <ele>606.0</ele>
        <time>2020-09-29T07:56:54Z</time>
      </trkpt>
      <trkpt lat="40.6137200" lon="-3.5475720">
        <ele>606.0</ele>
        <time>2020-09-29T07:56:55Z</time>
      </trkpt>
      <trkpt lat="40.6137200" lon="-3.5475720">
        <ele>606.0</ele>
        <time>2020-09-29T07:56:56Z</time>
      </trkpt>
      <trkpt lat="40.6138480" lon="-3.5476000">
        <ele>606.0</ele>
        <time>2020-09-29T07:56:57Z</time>
      </trkpt>
      <trkpt lat="40.6139130" lon="-3.5476150">
        <ele>606.0</ele>
        <time>2020-09-29T07:56:58Z</time>
      </trkpt>
      <trkpt lat="40.6139780" lon="-3.5476300">
        <ele>606.0</ele>
        <time>2020-09-29T07:56:59Z</time>
      </trkpt>
      <trkpt lat="40.6140450" lon="-3.5476470">
        <ele>606.0</ele>
        <time>2020-09-29T07:57:00Z</time>
      </trkpt>
      <trkpt lat="40.6140450" lon="-3.5476470">
        <ele>606.0</ele>
        <time>2020-09-29T07:57:01Z</time>
      </trkpt>
      <trkpt lat="40.6141750" lon="-3.5476770">
        <ele>606.0</ele>
        <time>2020-09-29T07:57:02Z</time>
      </trkpt>
      <trkpt lat="40.6141750" lon="-3.5476770">
        <ele>606.0</ele>
        <time>2020-09-29T07:57:03Z</time>
      </trkpt>
      <trkpt lat="40.6143050" lon="-3.5477080">
        <ele>606.0</ele>
        <time>2020-09-29T07:57:04Z</time>
      </trkpt>
      <trkpt lat="40.6143050" lon="-3.5477080">
        <ele>606.0</ele>
        <time>2020-09-29T07:57:05Z</time>
      </trkpt>
      <trkpt lat="40.6144350" lon="-3.5477420">
        <ele>606.0</ele>
        <time>2020-09-29T07:57:06Z</time>
      </trkpt>
      <trkpt lat="40.6145000" lon="-3.5477550">
        <ele>606.0</ele>
        <time>2020-09-29T07:57:07Z</time>
      </trkpt>
      <trkpt lat="40.6145000" lon="-3.5477550">
        <ele>606.0</ele>
        <time>2020-09-29T07:57:08Z</time>
      </trkpt>
      <trkpt lat="40.6146280" lon="-3.5477850">
        <ele>606.0</ele>
        <time>2020-09-29T07:57:09Z</time>
      </trkpt>
      <trkpt lat="40.6146280" lon="-3.5477850">
        <ele>606.0</ele>
        <time>2020-09-29T07:57:10Z</time>
      </trkpt>
      <trkpt lat="40.6147580" lon="-3.5478150">
        <ele>606.0</ele>
        <time>2020-09-29T07:57:11Z</time>
      </trkpt>
      <trkpt lat="40.6147580" lon="-3.5478150">
        <ele>606.0</ele>
        <time>2020-09-29T07:57:12Z</time>
      </trkpt>
      <trkpt lat="40.6148870" lon="-3.5478420">
        <ele>607.0</ele>
        <time>2020-09-29T07:57:13Z</time>
      </trkpt>
      <trkpt lat="40.6148870" lon="-3.5478420">
        <ele>607.0</ele>
        <time>2020-09-29T07:57:14Z</time>
      </trkpt>
      <trkpt lat="40.6150130" lon="-3.5478720">
        <ele>607.0</ele>
        <time>2020-09-29T07:57:15Z</time>
      </trkpt>
      <trkpt lat="40.6150130" lon="-3.5478720">
        <ele>607.0</ele>
        <time>2020-09-29T07:57:16Z</time>
      </trkpt>
      <trkpt lat="40.6151420" lon="-3.5479000">
        <ele>607.0</ele>
        <time>2020-09-29T07:57:17Z</time>
      </trkpt>
      <trkpt lat="40.6151420" lon="-3.5479000">
        <ele>607.0</ele>
        <time>2020-09-29T07:57:18Z</time>
      </trkpt>
      <trkpt lat="40.6152700" lon="-3.5479280">
        <ele>607.0</ele>
        <time>2020-09-29T07:57:19Z</time>
      </trkpt>
      <trkpt lat="40.6152700" lon="-3.5479280">
        <ele>607.0</ele>
        <time>2020-09-29T07:57:20Z</time>
      </trkpt>
      <trkpt lat="40.6153980" lon="-3.5479600">
        <ele>607.0</ele>
        <time>2020-09-29T07:57:21Z</time>
      </trkpt>
      <trkpt lat="40.6153980" lon="-3.5479600">
        <ele>607.0</ele>
        <time>2020-09-29T07:57:22Z</time>
      </trkpt>
      <trkpt lat="40.6155280" lon="-3.5479900">
        <ele>607.0</ele>
        <time>2020-09-29T07:57:23Z</time>
      </trkpt>
      <trkpt lat="40.6155930" lon="-3.5480070">
        <ele>607.0</ele>
        <time>2020-09-29T07:57:24Z</time>
      </trkpt>
      <trkpt lat="40.6155930" lon="-3.5480070">
        <ele>607.0</ele>
        <time>2020-09-29T07:57:25Z</time>
      </trkpt>
      <trkpt lat="40.6157220" lon="-3.5480370">
        <ele>607.0</ele>
        <time>2020-09-29T07:57:26Z</time>
      </trkpt>
      <trkpt lat="40.6157870" lon="-3.5480530">
        <ele>607.0</ele>
        <time>2020-09-29T07:57:27Z</time>
      </trkpt>
      <trkpt lat="40.6157870" lon="-3.5480530">
        <ele>607.0</ele>
        <time>2020-09-29T07:57:28Z</time>
      </trkpt>
      <trkpt lat="40.6159170" lon="-3.5480850">
        <ele>607.0</ele>
        <time>2020-09-29T07:57:29Z</time>
      </trkpt>
      <trkpt lat="40.6159170" lon="-3.5480850">
        <ele>607.0</ele>
        <time>2020-09-29T07:57:30Z</time>
      </trkpt>
      <trkpt lat="40.6160470" lon="-3.5481170">
        <ele>607.0</ele>
        <time>2020-09-29T07:57:31Z</time>
      </trkpt>
      <trkpt lat="40.6160470" lon="-3.5481170">
        <ele>607.0</ele>
        <time>2020-09-29T07:57:32Z</time>
      </trkpt>
      <trkpt lat="40.6161780" lon="-3.5481480">
        <ele>607.0</ele>
        <time>2020-09-29T07:57:33Z</time>
      </trkpt>
      <trkpt lat="40.6161780" lon="-3.5481480">
        <ele>607.0</ele>
        <time>2020-09-29T07:57:34Z</time>
      </trkpt>
      <trkpt lat="40.6163070" lon="-3.5481820">
        <ele>607.0</ele>
        <time>2020-09-29T07:57:35Z</time>
      </trkpt>
      <trkpt lat="40.6163070" lon="-3.5481820">
        <ele>607.0</ele>
        <time>2020-09-29T07:57:36Z</time>
      </trkpt>
      <trkpt lat="40.6164380" lon="-3.5482130">
        <ele>607.0</ele>
        <time>2020-09-29T07:57:37Z</time>
      </trkpt>
      <trkpt lat="40.6165030" lon="-3.5482280">
        <ele>607.0</ele>
        <time>2020-09-29T07:57:38Z</time>
      </trkpt>
      <trkpt lat="40.6165030" lon="-3.5482280">
        <ele>607.0</ele>
        <time>2020-09-29T07:57:39Z</time>
      </trkpt>
      <trkpt lat="40.6166370" lon="-3.5482620">
        <ele>607.0</ele>
        <time>2020-09-29T07:57:40Z</time>
      </trkpt>
      <trkpt lat="40.6166370" lon="-3.5482620">
        <ele>607.0</ele>
        <time>2020-09-29T07:57:41Z</time>
      </trkpt>
      <trkpt lat="40.6167700" lon="-3.5482930">
        <ele>607.0</ele>
        <time>2020-09-29T07:57:42Z</time>
      </trkpt>
      <trkpt lat="40.6168370" lon="-3.5483080">
        <ele>607.0</ele>
        <time>2020-09-29T07:57:43Z</time>
      </trkpt>
      <trkpt lat="40.6168370" lon="-3.5483080">
        <ele>607.0</ele>
        <time>2020-09-29T07:57:44Z</time>
      </trkpt>
      <trkpt lat="40.6169700" lon="-3.5483380">
        <ele>607.0</ele>
        <time>2020-09-29T07:57:45Z</time>
      </trkpt>
      <trkpt lat="40.6170380" lon="-3.5483550">
        <ele>607.0</ele>
        <time>2020-09-29T07:57:46Z</time>
      </trkpt>
      <trkpt lat="40.6170380" lon="-3.5483550">
        <ele>607.0</ele>
        <time>2020-09-29T07:57:47Z</time>
      </trkpt>
      <trkpt lat="40.6171720" lon="-3.5483870">
        <ele>607.0</ele>
        <time>2020-09-29T07:57:48Z</time>
      </trkpt>
      <trkpt lat="40.6172380" lon="-3.5484020">
        <ele>607.0</ele>
        <time>2020-09-29T07:57:49Z</time>
      </trkpt>
      <trkpt lat="40.6172380" lon="-3.5484020">
        <ele>607.0</ele>
        <time>2020-09-29T07:57:50Z</time>
      </trkpt>
      <trkpt lat="40.6173700" lon="-3.5484350">
        <ele>607.0</ele>
        <time>2020-09-29T07:57:51Z</time>
      </trkpt>
      <trkpt lat="40.6174380" lon="-3.5484520">
        <ele>607.0</ele>
        <time>2020-09-29T07:57:52Z</time>
      </trkpt>
      <trkpt lat="40.6174380" lon="-3.5484520">
        <ele>607.0</ele>
        <time>2020-09-29T07:57:53Z</time>
      </trkpt>
      <trkpt lat="40.6175750" lon="-3.5484800">
        <ele>607.0</ele>
        <time>2020-09-29T07:57:54Z</time>
      </trkpt>
      <trkpt lat="40.6175750" lon="-3.5484800">
        <ele>607.0</ele>
        <time>2020-09-29T07:57:55Z</time>
      </trkpt>
      <trkpt lat="40.6177130" lon="-3.5485100">
        <ele>607.0</ele>
        <time>2020-09-29T07:57:56Z</time>
      </trkpt>
      <trkpt lat="40.6177130" lon="-3.5485100">
        <ele>607.0</ele>
        <time>2020-09-29T07:57:57Z</time>
      </trkpt>
      <trkpt lat="40.6178500" lon="-3.5485420">
        <ele>607.0</ele>
        <time>2020-09-29T07:57:58Z</time>
      </trkpt>
      <trkpt lat="40.6179180" lon="-3.5485570">
        <ele>607.0</ele>
        <time>2020-09-29T07:57:59Z</time>
      </trkpt>
      <trkpt lat="40.6179180" lon="-3.5485570">
        <ele>607.0</ele>
        <time>2020-09-29T07:58:00Z</time>
      </trkpt>
      <trkpt lat="40.6180550" lon="-3.5485880">
        <ele>607.0</ele>
        <time>2020-09-29T07:58:01Z</time>
      </trkpt>
      <trkpt lat="40.6180550" lon="-3.5485880">
        <ele>607.0</ele>
        <time>2020-09-29T07:58:02Z</time>
      </trkpt>
      <trkpt lat="40.6181920" lon="-3.5486200">
        <ele>607.0</ele>
        <time>2020-09-29T07:58:03Z</time>
      </trkpt>
      <trkpt lat="40.6182600" lon="-3.5486370">
        <ele>607.0</ele>
        <time>2020-09-29T07:58:04Z</time>
      </trkpt>
      <trkpt lat="40.6182600" lon="-3.5486370">
        <ele>607.0</ele>
        <time>2020-09-29T07:58:05Z</time>
      </trkpt>
      <trkpt lat="40.6183970" lon="-3.5486700">
        <ele>607.0</ele>
        <time>2020-09-29T07:58:06Z</time>
      </trkpt>
      <trkpt lat="40.6183970" lon="-3.5486700">
        <ele>607.0</ele>
        <time>2020-09-29T07:58:07Z</time>
      </trkpt>
      <trkpt lat="40.6185330" lon="-3.5487030">
        <ele>607.0</ele>
        <time>2020-09-29T07:58:08Z</time>
      </trkpt>
      <trkpt lat="40.6186020" lon="-3.5487220">
        <ele>607.0</ele>
        <time>2020-09-29T07:58:09Z</time>
      </trkpt>
      <trkpt lat="40.6186020" lon="-3.5487220">
        <ele>607.0</ele>
        <time>2020-09-29T07:58:10Z</time>
      </trkpt>
      <trkpt lat="40.6187380" lon="-3.5487570">
        <ele>607.0</ele>
        <time>2020-09-29T07:58:11Z</time>
      </trkpt>
      <trkpt lat="40.6188080" lon="-3.5487730">
        <ele>607.0</ele>
        <time>2020-09-29T07:58:12Z</time>
      </trkpt>
      <trkpt lat="40.6188080" lon="-3.5487730">
        <ele>607.0</ele>
        <time>2020-09-29T07:58:13Z</time>
      </trkpt>
      <trkpt lat="40.6189480" lon="-3.5488050">
        <ele>607.0</ele>
        <time>2020-09-29T07:58:14Z</time>
      </trkpt>
      <trkpt lat="40.6189480" lon="-3.5488050">
        <ele>607.0</ele>
        <time>2020-09-29T07:58:15Z</time>
      </trkpt>
      <trkpt lat="40.6190880" lon="-3.5488380">
        <ele>607.0</ele>
        <time>2020-09-29T07:58:16Z</time>
      </trkpt>
      <trkpt lat="40.6190880" lon="-3.5488380">
        <ele>606.0</ele>
        <time>2020-09-29T07:58:17Z</time>
      </trkpt>
      <trkpt lat="40.6192320" lon="-3.5488700">
        <ele>606.0</ele>
        <time>2020-09-29T07:58:18Z</time>
      </trkpt>
      <trkpt lat="40.6193020" lon="-3.5488850">
        <ele>606.0</ele>
        <time>2020-09-29T07:58:19Z</time>
      </trkpt>
      <trkpt lat="40.6193020" lon="-3.5488850">
        <ele>606.0</ele>
        <time>2020-09-29T07:58:20Z</time>
      </trkpt>
      <trkpt lat="40.6194400" lon="-3.5489180">
        <ele>606.0</ele>
        <time>2020-09-29T07:58:21Z</time>
      </trkpt>
      <trkpt lat="40.6195100" lon="-3.5489370">
        <ele>606.0</ele>
        <time>2020-09-29T07:58:22Z</time>
      </trkpt>
      <trkpt lat="40.6195100" lon="-3.5489370">
        <ele>606.0</ele>
        <time>2020-09-29T07:58:23Z</time>
      </trkpt>
      <trkpt lat="40.6196500" lon="-3.5489650">
        <ele>606.0</ele>
        <time>2020-09-29T07:58:24Z</time>
      </trkpt>
      <trkpt lat="40.6197220" lon="-3.5489820">
        <ele>606.0</ele>
        <time>2020-09-29T07:58:25Z</time>
      </trkpt>
      <trkpt lat="40.6197220" lon="-3.5489820">
        <ele>606.0</ele>
        <time>2020-09-29T07:58:26Z</time>
      </trkpt>
      <trkpt lat="40.6198620" lon="-3.5490180">
        <ele>606.0</ele>
        <time>2020-09-29T07:58:27Z</time>
      </trkpt>
      <trkpt lat="40.6199320" lon="-3.5490350">
        <ele>606.0</ele>
        <time>2020-09-29T07:58:28Z</time>
      </trkpt>
      <trkpt lat="40.6199320" lon="-3.5490350">
        <ele>606.0</ele>
        <time>2020-09-29T07:58:29Z</time>
      </trkpt>
      <trkpt lat="40.6200700" lon="-3.5490680">
        <ele>606.0</ele>
        <time>2020-09-29T07:58:30Z</time>
      </trkpt>
      <trkpt lat="40.6201400" lon="-3.5490850">
        <ele>606.0</ele>
        <time>2020-09-29T07:58:31Z</time>
      </trkpt>
      <trkpt lat="40.6202100" lon="-3.5491020">
        <ele>606.0</ele>
        <time>2020-09-29T07:58:32Z</time>
      </trkpt>
      <trkpt lat="40.6202100" lon="-3.5491020">
        <ele>606.0</ele>
        <time>2020-09-29T07:58:33Z</time>
      </trkpt>
      <trkpt lat="40.6203480" lon="-3.5491350">
        <ele>606.0</ele>
        <time>2020-09-29T07:58:34Z</time>
      </trkpt>
      <trkpt lat="40.6204180" lon="-3.5491500">
        <ele>606.0</ele>
        <time>2020-09-29T07:58:35Z</time>
      </trkpt>
      <trkpt lat="40.6204870" lon="-3.5491670">
        <ele>606.0</ele>
        <time>2020-09-29T07:58:36Z</time>
      </trkpt>
      <trkpt lat="40.6204870" lon="-3.5491670">
        <ele>606.0</ele>
        <time>2020-09-29T07:58:37Z</time>
      </trkpt>
      <trkpt lat="40.6206250" lon="-3.5492020">
        <ele>606.0</ele>
        <time>2020-09-29T07:58:38Z</time>
      </trkpt>
      <trkpt lat="40.6206250" lon="-3.5492020">
        <ele>606.0</ele>
        <time>2020-09-29T07:58:39Z</time>
      </trkpt>
      <trkpt lat="40.6207650" lon="-3.5492370">
        <ele>605.0</ele>
        <time>2020-09-29T07:58:40Z</time>
      </trkpt>
      <trkpt lat="40.6207650" lon="-3.5492370">
        <ele>605.0</ele>
        <time>2020-09-29T07:58:41Z</time>
      </trkpt>
      <trkpt lat="40.6209050" lon="-3.5492680">
        <ele>605.0</ele>
        <time>2020-09-29T07:58:42Z</time>
      </trkpt>
      <trkpt lat="40.6209050" lon="-3.5492680">
        <ele>605.0</ele>
        <time>2020-09-29T07:58:43Z</time>
      </trkpt>
      <trkpt lat="40.6210480" lon="-3.5493020">
        <ele>605.0</ele>
        <time>2020-09-29T07:58:44Z</time>
      </trkpt>
      <trkpt lat="40.6210480" lon="-3.5493020">
        <ele>605.0</ele>
        <time>2020-09-29T07:58:45Z</time>
      </trkpt>
      <trkpt lat="40.6211900" lon="-3.5493350">
        <ele>605.0</ele>
        <time>2020-09-29T07:58:46Z</time>
      </trkpt>
      <trkpt lat="40.6212620" lon="-3.5493530">
        <ele>605.0</ele>
        <time>2020-09-29T07:58:47Z</time>
      </trkpt>
      <trkpt lat="40.6212620" lon="-3.5493530">
        <ele>605.0</ele>
        <time>2020-09-29T07:58:48Z</time>
      </trkpt>
      <trkpt lat="40.6214070" lon="-3.5493870">
        <ele>605.0</ele>
        <time>2020-09-29T07:58:49Z</time>
      </trkpt>
      <trkpt lat="40.6214820" lon="-3.5494030">
        <ele>605.0</ele>
        <time>2020-09-29T07:58:50Z</time>
      </trkpt>
      <trkpt lat="40.6214820" lon="-3.5494030">
        <ele>605.0</ele>
        <time>2020-09-29T07:58:51Z</time>
      </trkpt>
      <trkpt lat="40.6216250" lon="-3.5494380">
        <ele>605.0</ele>
        <time>2020-09-29T07:58:52Z</time>
      </trkpt>
      <trkpt lat="40.6217000" lon="-3.5494520">
        <ele>605.0</ele>
        <time>2020-09-29T07:58:53Z</time>
      </trkpt>
      <trkpt lat="40.6217000" lon="-3.5494520">
        <ele>605.0</ele>
        <time>2020-09-29T07:58:54Z</time>
      </trkpt>
      <trkpt lat="40.6218430" lon="-3.5494800">
        <ele>605.0</ele>
        <time>2020-09-29T07:58:55Z</time>
      </trkpt>
      <trkpt lat="40.6218430" lon="-3.5494800">
        <ele>605.0</ele>
        <time>2020-09-29T07:58:56Z</time>
      </trkpt>
      <trkpt lat="40.6219880" lon="-3.5495070">
        <ele>605.0</ele>
        <time>2020-09-29T07:58:57Z</time>
      </trkpt>
      <trkpt lat="40.6219880" lon="-3.5495070">
        <ele>605.0</ele>
        <time>2020-09-29T07:58:58Z</time>
      </trkpt>
      <trkpt lat="40.6221350" lon="-3.5495280">
        <ele>605.0</ele>
        <time>2020-09-29T07:58:59Z</time>
      </trkpt>
      <trkpt lat="40.6221350" lon="-3.5495280">
        <ele>604.0</ele>
        <time>2020-09-29T07:59:00Z</time>
      </trkpt>
      <trkpt lat="40.6222820" lon="-3.5495480">
        <ele>604.0</ele>
        <time>2020-09-29T07:59:01Z</time>
      </trkpt>
      <trkpt lat="40.6223550" lon="-3.5495600">
        <ele>604.0</ele>
        <time>2020-09-29T07:59:02Z</time>
      </trkpt>
      <trkpt lat="40.6223550" lon="-3.5495600">
        <ele>604.0</ele>
        <time>2020-09-29T07:59:03Z</time>
      </trkpt>
      <trkpt lat="40.6225020" lon="-3.5495800">
        <ele>604.0</ele>
        <time>2020-09-29T07:59:04Z</time>
      </trkpt>
      <trkpt lat="40.6225750" lon="-3.5495880">
        <ele>604.0</ele>
        <time>2020-09-29T07:59:05Z</time>
      </trkpt>
      <trkpt lat="40.6225750" lon="-3.5495880">
        <ele>604.0</ele>
        <time>2020-09-29T07:59:06Z</time>
      </trkpt>
      <trkpt lat="40.6227220" lon="-3.5496020">
        <ele>604.0</ele>
        <time>2020-09-29T07:59:07Z</time>
      </trkpt>
      <trkpt lat="40.6227970" lon="-3.5496070">
        <ele>604.0</ele>
        <time>2020-09-29T07:59:08Z</time>
      </trkpt>
      <trkpt lat="40.6227970" lon="-3.5496070">
        <ele>604.0</ele>
        <time>2020-09-29T07:59:09Z</time>
      </trkpt>
      <trkpt lat="40.6229420" lon="-3.5496170">
        <ele>604.0</ele>
        <time>2020-09-29T07:59:10Z</time>
      </trkpt>
      <trkpt lat="40.6229420" lon="-3.5496170">
        <ele>604.0</ele>
        <time>2020-09-29T07:59:11Z</time>
      </trkpt>
      <trkpt lat="40.6230870" lon="-3.5496250">
        <ele>604.0</ele>
        <time>2020-09-29T07:59:12Z</time>
      </trkpt>
      <trkpt lat="40.6230870" lon="-3.5496250">
        <ele>604.0</ele>
        <time>2020-09-29T07:59:13Z</time>
      </trkpt>
      <trkpt lat="40.6232350" lon="-3.5496280">
        <ele>604.0</ele>
        <time>2020-09-29T07:59:14Z</time>
      </trkpt>
      <trkpt lat="40.6232350" lon="-3.5496280">
        <ele>604.0</ele>
        <time>2020-09-29T07:59:15Z</time>
      </trkpt>
      <trkpt lat="40.6233800" lon="-3.5496330">
        <ele>604.0</ele>
        <time>2020-09-29T07:59:16Z</time>
      </trkpt>
      <trkpt lat="40.6233800" lon="-3.5496330">
        <ele>604.0</ele>
        <time>2020-09-29T07:59:17Z</time>
      </trkpt>
      <trkpt lat="40.6235280" lon="-3.5496330">
        <ele>604.0</ele>
        <time>2020-09-29T07:59:18Z</time>
      </trkpt>
      <trkpt lat="40.6236020" lon="-3.5496330">
        <ele>604.0</ele>
        <time>2020-09-29T07:59:19Z</time>
      </trkpt>
      <trkpt lat="40.6236020" lon="-3.5496330">
        <ele>604.0</ele>
        <time>2020-09-29T07:59:20Z</time>
      </trkpt>
      <trkpt lat="40.6237550" lon="-3.5496230">
        <ele>604.0</ele>
        <time>2020-09-29T07:59:21Z</time>
      </trkpt>
      <trkpt lat="40.6238320" lon="-3.5496170">
        <ele>604.0</ele>
        <time>2020-09-29T07:59:22Z</time>
      </trkpt>
      <trkpt lat="40.6238320" lon="-3.5496170">
        <ele>604.0</ele>
        <time>2020-09-29T07:59:23Z</time>
      </trkpt>
      <trkpt lat="40.6239830" lon="-3.5496070">
        <ele>604.0</ele>
        <time>2020-09-29T07:59:24Z</time>
      </trkpt>
      <trkpt lat="40.6239830" lon="-3.5496070">
        <ele>604.0</ele>
        <time>2020-09-29T07:59:25Z</time>
      </trkpt>
      <trkpt lat="40.6241370" lon="-3.5495900">
        <ele>604.0</ele>
        <time>2020-09-29T07:59:26Z</time>
      </trkpt>
      <trkpt lat="40.6242120" lon="-3.5495820">
        <ele>604.0</ele>
        <time>2020-09-29T07:59:27Z</time>
      </trkpt>
      <trkpt lat="40.6242120" lon="-3.5495820">
        <ele>604.0</ele>
        <time>2020-09-29T07:59:28Z</time>
      </trkpt>
      <trkpt lat="40.6243650" lon="-3.5495650">
        <ele>604.0</ele>
        <time>2020-09-29T07:59:29Z</time>
      </trkpt>
      <trkpt lat="40.6244400" lon="-3.5495530">
        <ele>604.0</ele>
        <time>2020-09-29T07:59:30Z</time>
      </trkpt>
      <trkpt lat="40.6244400" lon="-3.5495530">
        <ele>604.0</ele>
        <time>2020-09-29T07:59:31Z</time>
      </trkpt>
      <trkpt lat="40.6245880" lon="-3.5495300">
        <ele>604.0</ele>
        <time>2020-09-29T07:59:32Z</time>
      </trkpt>
      <trkpt lat="40.6245880" lon="-3.5495300">
        <ele>604.0</ele>
        <time>2020-09-29T07:59:33Z</time>
      </trkpt>
      <trkpt lat="40.6247380" lon="-3.5495050">
        <ele>604.0</ele>
        <time>2020-09-29T07:59:34Z</time>
      </trkpt>
      <trkpt lat="40.6248120" lon="-3.5494920">
        <ele>604.0</ele>
        <time>2020-09-29T07:59:35Z</time>
      </trkpt>
      <trkpt lat="40.6248120" lon="-3.5494920">
        <ele>604.0</ele>
        <time>2020-09-29T07:59:36Z</time>
      </trkpt>
      <trkpt lat="40.6249570" lon="-3.5494620">
        <ele>604.0</ele>
        <time>2020-09-29T07:59:37Z</time>
      </trkpt>
      <trkpt lat="40.6249570" lon="-3.5494620">
        <ele>604.0</ele>
        <time>2020-09-29T07:59:38Z</time>
      </trkpt>
      <trkpt lat="40.6251020" lon="-3.5494320">
        <ele>604.0</ele>
        <time>2020-09-29T07:59:39Z</time>
      </trkpt>
      <trkpt lat="40.6251020" lon="-3.5494320">
        <ele>604.0</ele>
        <time>2020-09-29T07:59:40Z</time>
      </trkpt>
      <trkpt lat="40.6252450" lon="-3.5493970">
        <ele>604.0</ele>
        <time>2020-09-29T07:59:41Z</time>
      </trkpt>
      <trkpt lat="40.6253170" lon="-3.5493780">
        <ele>604.0</ele>
        <time>2020-09-29T07:59:42Z</time>
      </trkpt>
      <trkpt lat="40.6253170" lon="-3.5493780">
        <ele>604.0</ele>
        <time>2020-09-29T07:59:43Z</time>
      </trkpt>
      <trkpt lat="40.6254600" lon="-3.5493370">
        <ele>604.0</ele>
        <time>2020-09-29T07:59:44Z</time>
      </trkpt>
      <trkpt lat="40.6254600" lon="-3.5493370">
        <ele>604.0</ele>
        <time>2020-09-29T07:59:45Z</time>
      </trkpt>
      <trkpt lat="40.6256020" lon="-3.5492930">
        <ele>604.0</ele>
        <time>2020-09-29T07:59:46Z</time>
      </trkpt>
      <trkpt lat="40.6256020" lon="-3.5492930">
        <ele>604.0</ele>
        <time>2020-09-29T07:59:47Z</time>
      </trkpt>
      <trkpt lat="40.6257450" lon="-3.5492470">
        <ele>604.0</ele>
        <time>2020-09-29T07:59:48Z</time>
      </trkpt>
      <trkpt lat="40.6258130" lon="-3.5492220">
        <ele>604.0</ele>
        <time>2020-09-29T07:59:49Z</time>
      </trkpt>
      <trkpt lat="40.6258130" lon="-3.5492220">
        <ele>604.0</ele>
        <time>2020-09-29T07:59:50Z</time>
      </trkpt>
      <trkpt lat="40.6259570" lon="-3.5491670">
        <ele>604.0</ele>
        <time>2020-09-29T07:59:51Z</time>
      </trkpt>
      <trkpt lat="40.6260270" lon="-3.5491420">
        <ele>604.0</ele>
        <time>2020-09-29T07:59:52Z</time>
      </trkpt>
      <trkpt lat="40.6260270" lon="-3.5491420">
        <ele>604.0</ele>
        <time>2020-09-29T07:59:53Z</time>
      </trkpt>
      <trkpt lat="40.6261630" lon="-3.5490870">
        <ele>604.0</ele>
        <time>2020-09-29T07:59:54Z</time>
      </trkpt>
      <trkpt lat="40.6261630" lon="-3.5490870">
        <ele>604.0</ele>
        <time>2020-09-29T07:59:55Z</time>
      </trkpt>
      <trkpt lat="40.6263000" lon="-3.5490320">
        <ele>604.0</ele>
        <time>2020-09-29T07:59:56Z</time>
      </trkpt>
      <trkpt lat="40.6263670" lon="-3.5490020">
        <ele>604.0</ele>
        <time>2020-09-29T07:59:57Z</time>
      </trkpt>
      <trkpt lat="40.6263670" lon="-3.5490020">
        <ele>604.0</ele>
        <time>2020-09-29T07:59:58Z</time>
      </trkpt>
      <trkpt lat="40.6265080" lon="-3.5489370">
        <ele>604.0</ele>
        <time>2020-09-29T07:59:59Z</time>
      </trkpt>
      <trkpt lat="40.6265780" lon="-3.5489030">
        <ele>604.0</ele>
        <time>2020-09-29T08:00:00Z</time>
      </trkpt>
      <trkpt lat="40.6265780" lon="-3.5489030">
        <ele>604.0</ele>
        <time>2020-09-29T08:00:01Z</time>
      </trkpt>
      <trkpt lat="40.6267200" lon="-3.5488380">
        <ele>604.0</ele>
        <time>2020-09-29T08:00:02Z</time>
      </trkpt>
      <trkpt lat="40.6267920" lon="-3.5488050">
        <ele>604.0</ele>
        <time>2020-09-29T08:00:03Z</time>
      </trkpt>
      <trkpt lat="40.6267920" lon="-3.5488050">
        <ele>604.0</ele>
        <time>2020-09-29T08:00:04Z</time>
      </trkpt>
      <trkpt lat="40.6269280" lon="-3.5487370">
        <ele>604.0</ele>
        <time>2020-09-29T08:00:05Z</time>
      </trkpt>
      <trkpt lat="40.6269950" lon="-3.5487030">
        <ele>604.0</ele>
        <time>2020-09-29T08:00:06Z</time>
      </trkpt>
      <trkpt lat="40.6270630" lon="-3.5486680">
        <ele>604.0</ele>
        <time>2020-09-29T08:00:07Z</time>
      </trkpt>
      <trkpt lat="40.6270630" lon="-3.5486680">
        <ele>604.0</ele>
        <time>2020-09-29T08:00:08Z</time>
      </trkpt>
      <trkpt lat="40.6271930" lon="-3.5485980">
        <ele>604.0</ele>
        <time>2020-09-29T08:00:09Z</time>
      </trkpt>
      <trkpt lat="40.6271930" lon="-3.5485980">
        <ele>604.0</ele>
        <time>2020-09-29T08:00:10Z</time>
      </trkpt>
      <trkpt lat="40.6273270" lon="-3.5485230">
        <ele>604.0</ele>
        <time>2020-09-29T08:00:11Z</time>
      </trkpt>
      <trkpt lat="40.6273270" lon="-3.5485230">
        <ele>604.0</ele>
        <time>2020-09-29T08:00:12Z</time>
      </trkpt>
      <trkpt lat="40.6274570" lon="-3.5484470">
        <ele>604.0</ele>
        <time>2020-09-29T08:00:13Z</time>
      </trkpt>
      <trkpt lat="40.6275230" lon="-3.5484070">
        <ele>604.0</ele>
        <time>2020-09-29T08:00:14Z</time>
      </trkpt>
      <trkpt lat="40.6275230" lon="-3.5484070">
        <ele>605.0</ele>
        <time>2020-09-29T08:00:15Z</time>
      </trkpt>
      <trkpt lat="40.6276530" lon="-3.5483280">
        <ele>605.0</ele>
        <time>2020-09-29T08:00:16Z</time>
      </trkpt>
      <trkpt lat="40.6277180" lon="-3.5482870">
        <ele>605.0</ele>
        <time>2020-09-29T08:00:17Z</time>
      </trkpt>
      <trkpt lat="40.6277830" lon="-3.5482450">
        <ele>605.0</ele>
        <time>2020-09-29T08:00:18Z</time>
      </trkpt>
      <trkpt lat="40.6278470" lon="-3.5482030">
        <ele>605.0</ele>
        <time>2020-09-29T08:00:19Z</time>
      </trkpt>
      <trkpt lat="40.6278470" lon="-3.5482030">
        <ele>605.0</ele>
        <time>2020-09-29T08:00:20Z</time>
      </trkpt>
      <trkpt lat="40.6279720" lon="-3.5481150">
        <ele>605.0</ele>
        <time>2020-09-29T08:00:21Z</time>
      </trkpt>
      <trkpt lat="40.6280330" lon="-3.5480720">
        <ele>605.0</ele>
        <time>2020-09-29T08:00:22Z</time>
      </trkpt>
      <trkpt lat="40.6280330" lon="-3.5480720">
        <ele>605.0</ele>
        <time>2020-09-29T08:00:23Z</time>
      </trkpt>
      <trkpt lat="40.6281550" lon="-3.5479870">
        <ele>605.0</ele>
        <time>2020-09-29T08:00:24Z</time>
      </trkpt>
      <trkpt lat="40.6282150" lon="-3.5479420">
        <ele>605.0</ele>
        <time>2020-09-29T08:00:25Z</time>
      </trkpt>
      <trkpt lat="40.6282150" lon="-3.5479420">
        <ele>605.0</ele>
        <time>2020-09-29T08:00:26Z</time>
      </trkpt>
      <trkpt lat="40.6283330" lon="-3.5478520">
        <ele>605.0</ele>
        <time>2020-09-29T08:00:27Z</time>
      </trkpt>
      <trkpt lat="40.6283900" lon="-3.5478050">
        <ele>605.0</ele>
        <time>2020-09-29T08:00:28Z</time>
      </trkpt>
      <trkpt lat="40.6283900" lon="-3.5478050">
        <ele>605.0</ele>
        <time>2020-09-29T08:00:29Z</time>
      </trkpt>
      <trkpt lat="40.6285050" lon="-3.5477150">
        <ele>605.0</ele>
        <time>2020-09-29T08:00:30Z</time>
      </trkpt>
      <trkpt lat="40.6285630" lon="-3.5476700">
        <ele>605.0</ele>
        <time>2020-09-29T08:00:31Z</time>
      </trkpt>
      <trkpt lat="40.6286200" lon="-3.5476250">
        <ele>605.0</ele>
        <time>2020-09-29T08:00:32Z</time>
      </trkpt>
      <trkpt lat="40.6286770" lon="-3.5475780">
        <ele>605.0</ele>
        <time>2020-09-29T08:00:33Z</time>
      </trkpt>
      <trkpt lat="40.6286770" lon="-3.5475780">
        <ele>606.0</ele>
        <time>2020-09-29T08:00:34Z</time>
      </trkpt>
      <trkpt lat="40.6287880" lon="-3.5474820">
        <ele>606.0</ele>
        <time>2020-09-29T08:00:35Z</time>
      </trkpt>
      <trkpt lat="40.6288450" lon="-3.5474330">
        <ele>606.0</ele>
        <time>2020-09-29T08:00:36Z</time>
      </trkpt>
      <trkpt lat="40.6288450" lon="-3.5474330">
        <ele>606.0</ele>
        <time>2020-09-29T08:00:37Z</time>
      </trkpt>
      <trkpt lat="40.6289550" lon="-3.5473350">
        <ele>606.0</ele>
        <time>2020-09-29T08:00:38Z</time>
      </trkpt>
      <trkpt lat="40.6290100" lon="-3.5472830">
        <ele>606.0</ele>
        <time>2020-09-29T08:00:39Z</time>
      </trkpt>
      <trkpt lat="40.6290100" lon="-3.5472830">
        <ele>606.0</ele>
        <time>2020-09-29T08:00:40Z</time>
      </trkpt>
      <trkpt lat="40.6291200" lon="-3.5471820">
        <ele>606.0</ele>
        <time>2020-09-29T08:00:41Z</time>
      </trkpt>
      <trkpt lat="40.6291200" lon="-3.5471820">
        <ele>606.0</ele>
        <time>2020-09-29T08:00:42Z</time>
      </trkpt>
      <trkpt lat="40.6292280" lon="-3.5470780">
        <ele>606.0</ele>
        <time>2020-09-29T08:00:43Z</time>
      </trkpt>
      <trkpt lat="40.6292280" lon="-3.5470780">
        <ele>606.0</ele>
        <time>2020-09-29T08:00:44Z</time>
      </trkpt>
      <trkpt lat="40.6293350" lon="-3.5469730">
        <ele>606.0</ele>
        <time>2020-09-29T08:00:45Z</time>
      </trkpt>
      <trkpt lat="40.6293880" lon="-3.5469180">
        <ele>606.0</ele>
        <time>2020-09-29T08:00:46Z</time>
      </trkpt>
      <trkpt lat="40.6293880" lon="-3.5469180">
        <ele>606.0</ele>
        <time>2020-09-29T08:00:47Z</time>
      </trkpt>
      <trkpt lat="40.6294930" lon="-3.5468100">
        <ele>606.0</ele>
        <time>2020-09-29T08:00:48Z</time>
      </trkpt>
      <trkpt lat="40.6295450" lon="-3.5467550">
        <ele>606.0</ele>
        <time>2020-09-29T08:00:49Z</time>
      </trkpt>
      <trkpt lat="40.6295450" lon="-3.5467550">
        <ele>606.0</ele>
        <time>2020-09-29T08:00:50Z</time>
      </trkpt>
      <trkpt lat="40.6296500" lon="-3.5466430">
        <ele>606.0</ele>
        <time>2020-09-29T08:00:51Z</time>
      </trkpt>
      <trkpt lat="40.6297020" lon="-3.5465870">
        <ele>606.0</ele>
        <time>2020-09-29T08:00:52Z</time>
      </trkpt>
      <trkpt lat="40.6297020" lon="-3.5465870">
        <ele>606.0</ele>
        <time>2020-09-29T08:00:53Z</time>
      </trkpt>
      <trkpt lat="40.6298050" lon="-3.5464700">
        <ele>606.0</ele>
        <time>2020-09-29T08:00:54Z</time>
      </trkpt>
      <trkpt lat="40.6298050" lon="-3.5464700">
        <ele>606.0</ele>
        <time>2020-09-29T08:00:55Z</time>
      </trkpt>
      <trkpt lat="40.6299070" lon="-3.5463530">
        <ele>607.0</ele>
        <time>2020-09-29T08:00:56Z</time>
      </trkpt>
      <trkpt lat="40.6299070" lon="-3.5463530">
        <ele>607.0</ele>
        <time>2020-09-29T08:00:57Z</time>
      </trkpt>
      <trkpt lat="40.6300070" lon="-3.5462330">
        <ele>607.0</ele>
        <time>2020-09-29T08:00:58Z</time>
      </trkpt>
      <trkpt lat="40.6300070" lon="-3.5462330">
        <ele>607.0</ele>
        <time>2020-09-29T08:00:59Z</time>
      </trkpt>
      <trkpt lat="40.6301050" lon="-3.5461120">
        <ele>607.0</ele>
        <time>2020-09-29T08:01:00Z</time>
      </trkpt>
      <trkpt lat="40.6301550" lon="-3.5460520">
        <ele>607.0</ele>
        <time>2020-09-29T08:01:01Z</time>
      </trkpt>
      <trkpt lat="40.6302030" lon="-3.5459900">
        <ele>607.0</ele>
        <time>2020-09-29T08:01:02Z</time>
      </trkpt>
      <trkpt lat="40.6302030" lon="-3.5459900">
        <ele>607.0</ele>
        <time>2020-09-29T08:01:03Z</time>
      </trkpt>
      <trkpt lat="40.6303000" lon="-3.5458630">
        <ele>607.0</ele>
        <time>2020-09-29T08:01:04Z</time>
      </trkpt>
      <trkpt lat="40.6303000" lon="-3.5458630">
        <ele>607.0</ele>
        <time>2020-09-29T08:01:05Z</time>
      </trkpt>
      <trkpt lat="40.6303950" lon="-3.5457330">
        <ele>607.0</ele>
        <time>2020-09-29T08:01:06Z</time>
      </trkpt>
      <trkpt lat="40.6304420" lon="-3.5456700">
        <ele>607.0</ele>
        <time>2020-09-29T08:01:07Z</time>
      </trkpt>
      <trkpt lat="40.6304420" lon="-3.5456700">
        <ele>607.0</ele>
        <time>2020-09-29T08:01:08Z</time>
      </trkpt>
      <trkpt lat="40.6305370" lon="-3.5455400">
        <ele>607.0</ele>
        <time>2020-09-29T08:01:09Z</time>
      </trkpt>
      <trkpt lat="40.6305370" lon="-3.5455400">
        <ele>607.0</ele>
        <time>2020-09-29T08:01:10Z</time>
      </trkpt>
      <trkpt lat="40.6306300" lon="-3.5454050">
        <ele>607.0</ele>
        <time>2020-09-29T08:01:11Z</time>
      </trkpt>
      <trkpt lat="40.6306300" lon="-3.5454050">
        <ele>607.0</ele>
        <time>2020-09-29T08:01:12Z</time>
      </trkpt>
      <trkpt lat="40.6307220" lon="-3.5452700">
        <ele>607.0</ele>
        <time>2020-09-29T08:01:13Z</time>
      </trkpt>
      <trkpt lat="40.6307220" lon="-3.5452700">
        <ele>607.0</ele>
        <time>2020-09-29T08:01:14Z</time>
      </trkpt>
      <trkpt lat="40.6308100" lon="-3.5451320">
        <ele>607.0</ele>
        <time>2020-09-29T08:01:15Z</time>
      </trkpt>
      <trkpt lat="40.6308550" lon="-3.5450630">
        <ele>607.0</ele>
        <time>2020-09-29T08:01:16Z</time>
      </trkpt>
      <trkpt lat="40.6308550" lon="-3.5450630">
        <ele>607.0</ele>
        <time>2020-09-29T08:01:17Z</time>
      </trkpt>
      <trkpt lat="40.6309430" lon="-3.5449230">
        <ele>607.0</ele>
        <time>2020-09-29T08:01:18Z</time>
      </trkpt>
      <trkpt lat="40.6309870" lon="-3.5448530">
        <ele>607.0</ele>
        <time>2020-09-29T08:01:19Z</time>
      </trkpt>
      <trkpt lat="40.6309870" lon="-3.5448530">
        <ele>607.0</ele>
        <time>2020-09-29T08:01:20Z</time>
      </trkpt>
      <trkpt lat="40.6310730" lon="-3.5447120">
        <ele>607.0</ele>
        <time>2020-09-29T08:01:21Z</time>
      </trkpt>
      <trkpt lat="40.6311170" lon="-3.5446420">
        <ele>607.0</ele>
        <time>2020-09-29T08:01:22Z</time>
      </trkpt>
      <trkpt lat="40.6311170" lon="-3.5446420">
        <ele>607.0</ele>
        <time>2020-09-29T08:01:23Z</time>
      </trkpt>
      <trkpt lat="40.6312020" lon="-3.5444980">
        <ele>607.0</ele>
        <time>2020-09-29T08:01:24Z</time>
      </trkpt>
      <trkpt lat="40.6312420" lon="-3.5444250">
        <ele>607.0</ele>
        <time>2020-09-29T08:01:25Z</time>
      </trkpt>
      <trkpt lat="40.6312420" lon="-3.5444250">
        <ele>607.0</ele>
        <time>2020-09-29T08:01:26Z</time>
      </trkpt>
      <trkpt lat="40.6313230" lon="-3.5442780">
        <ele>607.0</ele>
        <time>2020-09-29T08:01:27Z</time>
      </trkpt>
      <trkpt lat="40.6313230" lon="-3.5442780">
        <ele>607.0</ele>
        <time>2020-09-29T08:01:28Z</time>
      </trkpt>
      <trkpt lat="40.6314030" lon="-3.5441320">
        <ele>607.0</ele>
        <time>2020-09-29T08:01:29Z</time>
      </trkpt>
      <trkpt lat="40.6314030" lon="-3.5441320">
        <ele>607.0</ele>
        <time>2020-09-29T08:01:30Z</time>
      </trkpt>
      <trkpt lat="40.6314800" lon="-3.5439830">
        <ele>607.0</ele>
        <time>2020-09-29T08:01:31Z</time>
      </trkpt>
      <trkpt lat="40.6315180" lon="-3.5439080">
        <ele>607.0</ele>
        <time>2020-09-29T08:01:32Z</time>
      </trkpt>
      <trkpt lat="40.6315180" lon="-3.5439080">
        <ele>607.0</ele>
        <time>2020-09-29T08:01:33Z</time>
      </trkpt>
      <trkpt lat="40.6315930" lon="-3.5437550">
        <ele>607.0</ele>
        <time>2020-09-29T08:01:34Z</time>
      </trkpt>
      <trkpt lat="40.6316300" lon="-3.5436750">
        <ele>607.0</ele>
        <time>2020-09-29T08:01:35Z</time>
      </trkpt>
      <trkpt lat="40.6316300" lon="-3.5436750">
        <ele>607.0</ele>
        <time>2020-09-29T08:01:36Z</time>
      </trkpt>
      <trkpt lat="40.6317030" lon="-3.5435170">
        <ele>607.0</ele>
        <time>2020-09-29T08:01:37Z</time>
      </trkpt>
      <trkpt lat="40.6317030" lon="-3.5435170">
        <ele>607.0</ele>
        <time>2020-09-29T08:01:38Z</time>
      </trkpt>
      <trkpt lat="40.6317800" lon="-3.5433650">
        <ele>607.0</ele>
        <time>2020-09-29T08:01:39Z</time>
      </trkpt>
      <trkpt lat="40.6317800" lon="-3.5433650">
        <ele>607.0</ele>
        <time>2020-09-29T08:01:40Z</time>
      </trkpt>
      <trkpt lat="40.6318500" lon="-3.5432100">
        <ele>607.0</ele>
        <time>2020-09-29T08:01:41Z</time>
      </trkpt>
      <trkpt lat="40.6318830" lon="-3.5431320">
        <ele>607.0</ele>
        <time>2020-09-29T08:01:42Z</time>
      </trkpt>
      <trkpt lat="40.6319170" lon="-3.5430530">
        <ele>607.0</ele>
        <time>2020-09-29T08:01:43Z</time>
      </trkpt>
      <trkpt lat="40.6319170" lon="-3.5430530">
        <ele>607.0</ele>
        <time>2020-09-29T08:01:44Z</time>
      </trkpt>
      <trkpt lat="40.6319830" lon="-3.5428950">
        <ele>608.0</ele>
        <time>2020-09-29T08:01:45Z</time>
      </trkpt>
      <trkpt lat="40.6319830" lon="-3.5428950">
        <ele>608.0</ele>
        <time>2020-09-29T08:01:46Z</time>
      </trkpt>
      <trkpt lat="40.6320480" lon="-3.5427380">
        <ele>608.0</ele>
        <time>2020-09-29T08:01:47Z</time>
      </trkpt>
      <trkpt lat="40.6320820" lon="-3.5426580">
        <ele>608.0</ele>
        <time>2020-09-29T08:01:48Z</time>
      </trkpt>
      <trkpt lat="40.6320820" lon="-3.5426580">
        <ele>608.0</ele>
        <time>2020-09-29T08:01:49Z</time>
      </trkpt>
      <trkpt lat="40.6321450" lon="-3.5424980">
        <ele>608.0</ele>
        <time>2020-09-29T08:01:50Z</time>
      </trkpt>
      <trkpt lat="40.6321450" lon="-3.5424980">
        <ele>608.0</ele>
        <time>2020-09-29T08:01:51Z</time>
      </trkpt>
      <trkpt lat="40.6322050" lon="-3.5423370">
        <ele>608.0</ele>
        <time>2020-09-29T08:01:52Z</time>
      </trkpt>
      <trkpt lat="40.6322050" lon="-3.5423370">
        <ele>608.0</ele>
        <time>2020-09-29T08:01:53Z</time>
      </trkpt>
      <trkpt lat="40.6322620" lon="-3.5421750">
        <ele>608.0</ele>
        <time>2020-09-29T08:01:54Z</time>
      </trkpt>
      <trkpt lat="40.6322620" lon="-3.5421750">
        <ele>608.0</ele>
        <time>2020-09-29T08:01:55Z</time>
      </trkpt>
      <trkpt lat="40.6323180" lon="-3.5420150">
        <ele>608.0</ele>
        <time>2020-09-29T08:01:56Z</time>
      </trkpt>
      <trkpt lat="40.6323180" lon="-3.5420150">
        <ele>608.0</ele>
        <time>2020-09-29T08:01:57Z</time>
      </trkpt>
      <trkpt lat="40.6323730" lon="-3.5418530">
        <ele>608.0</ele>
        <time>2020-09-29T08:01:58Z</time>
      </trkpt>
      <trkpt lat="40.6324000" lon="-3.5417750">
        <ele>608.0</ele>
        <time>2020-09-29T08:01:59Z</time>
      </trkpt>
      <trkpt lat="40.6324000" lon="-3.5417750">
        <ele>608.0</ele>
        <time>2020-09-29T08:02:00Z</time>
      </trkpt>
      <trkpt lat="40.6324520" lon="-3.5416150">
        <ele>608.0</ele>
        <time>2020-09-29T08:02:01Z</time>
      </trkpt>
      <trkpt lat="40.6324520" lon="-3.5416150">
        <ele>609.0</ele>
        <time>2020-09-29T08:02:02Z</time>
      </trkpt>
      <trkpt lat="40.6325000" lon="-3.5414530">
        <ele>609.0</ele>
        <time>2020-09-29T08:02:03Z</time>
      </trkpt>
      <trkpt lat="40.6325230" lon="-3.5413730">
        <ele>609.0</ele>
        <time>2020-09-29T08:02:04Z</time>
      </trkpt>
      <trkpt lat="40.6325230" lon="-3.5413730">
        <ele>609.0</ele>
        <time>2020-09-29T08:02:05Z</time>
      </trkpt>
      <trkpt lat="40.6325720" lon="-3.5412100">
        <ele>609.0</ele>
        <time>2020-09-29T08:02:06Z</time>
      </trkpt>
      <trkpt lat="40.6325950" lon="-3.5411300">
        <ele>609.0</ele>
        <time>2020-09-29T08:02:07Z</time>
      </trkpt>
      <trkpt lat="40.6326170" lon="-3.5410480">
        <ele>609.0</ele>
        <time>2020-09-29T08:02:08Z</time>
      </trkpt>
      <trkpt lat="40.6326170" lon="-3.5410480">
        <ele>609.0</ele>
        <time>2020-09-29T08:02:09Z</time>
      </trkpt>
      <trkpt lat="40.6326620" lon="-3.5408870">
        <ele>609.0</ele>
        <time>2020-09-29T08:02:10Z</time>
      </trkpt>
      <trkpt lat="40.6326620" lon="-3.5408870">
        <ele>609.0</ele>
        <time>2020-09-29T08:02:11Z</time>
      </trkpt>
      <trkpt lat="40.6327050" lon="-3.5407270">
        <ele>609.0</ele>
        <time>2020-09-29T08:02:12Z</time>
      </trkpt>
      <trkpt lat="40.6327250" lon="-3.5406450">
        <ele>609.0</ele>
        <time>2020-09-29T08:02:13Z</time>
      </trkpt>
      <trkpt lat="40.6327250" lon="-3.5406450">
        <ele>609.0</ele>
        <time>2020-09-29T08:02:14Z</time>
      </trkpt>
      <trkpt lat="40.6327620" lon="-3.5404850">
        <ele>609.0</ele>
        <time>2020-09-29T08:02:15Z</time>
      </trkpt>
      <trkpt lat="40.6327620" lon="-3.5404850">
        <ele>609.0</ele>
        <time>2020-09-29T08:02:16Z</time>
      </trkpt>
      <trkpt lat="40.6328000" lon="-3.5403230">
        <ele>609.0</ele>
        <time>2020-09-29T08:02:17Z</time>
      </trkpt>
      <trkpt lat="40.6328000" lon="-3.5403230">
        <ele>609.0</ele>
        <time>2020-09-29T08:02:18Z</time>
      </trkpt>
      <trkpt lat="40.6328350" lon="-3.5401620">
        <ele>609.0</ele>
        <time>2020-09-29T08:02:19Z</time>
      </trkpt>
      <trkpt lat="40.6328350" lon="-3.5401620">
        <ele>610.0</ele>
        <time>2020-09-29T08:02:20Z</time>
      </trkpt>
      <trkpt lat="40.6328680" lon="-3.5399980">
        <ele>610.0</ele>
        <time>2020-09-29T08:02:21Z</time>
      </trkpt>
      <trkpt lat="40.6328680" lon="-3.5399980">
        <ele>610.0</ele>
        <time>2020-09-29T08:02:22Z</time>
      </trkpt>
      <trkpt lat="40.6329000" lon="-3.5398330">
        <ele>610.0</ele>
        <time>2020-09-29T08:02:23Z</time>
      </trkpt>
      <trkpt lat="40.6329170" lon="-3.5397480">
        <ele>610.0</ele>
        <time>2020-09-29T08:02:24Z</time>
      </trkpt>
      <trkpt lat="40.6329170" lon="-3.5397480">
        <ele>610.0</ele>
        <time>2020-09-29T08:02:25Z</time>
      </trkpt>
      <trkpt lat="40.6329470" lon="-3.5395780">
        <ele>610.0</ele>
        <time>2020-09-29T08:02:26Z</time>
      </trkpt>
      <trkpt lat="40.6329620" lon="-3.5394920">
        <ele>610.0</ele>
        <time>2020-09-29T08:02:27Z</time>
      </trkpt>
      <trkpt lat="40.6329620" lon="-3.5394920">
        <ele>610.0</ele>
        <time>2020-09-29T08:02:28Z</time>
      </trkpt>
      <trkpt lat="40.6329900" lon="-3.5393220">
        <ele>610.0</ele>
        <time>2020-09-29T08:02:29Z</time>
      </trkpt>
      <trkpt lat="40.6329900" lon="-3.5393220">
        <ele>610.0</ele>
        <time>2020-09-29T08:02:30Z</time>
      </trkpt>
      <trkpt lat="40.6330180" lon="-3.5391520">
        <ele>611.0</ele>
        <time>2020-09-29T08:02:31Z</time>
      </trkpt>
      <trkpt lat="40.6330180" lon="-3.5391520">
        <ele>611.0</ele>
        <time>2020-09-29T08:02:32Z</time>
      </trkpt>
      <trkpt lat="40.6330420" lon="-3.5389780">
        <ele>611.0</ele>
        <time>2020-09-29T08:02:33Z</time>
      </trkpt>
      <trkpt lat="40.6330520" lon="-3.5388920">
        <ele>611.0</ele>
        <time>2020-09-29T08:02:34Z</time>
      </trkpt>
      <trkpt lat="40.6330520" lon="-3.5388920">
        <ele>611.0</ele>
        <time>2020-09-29T08:02:35Z</time>
      </trkpt>
      <trkpt lat="40.6330720" lon="-3.5387180">
        <ele>611.0</ele>
        <time>2020-09-29T08:02:36Z</time>
      </trkpt>
      <trkpt lat="40.6330720" lon="-3.5387180">
        <ele>611.0</ele>
        <time>2020-09-29T08:02:37Z</time>
      </trkpt>
      <trkpt lat="40.6330900" lon="-3.5385450">
        <ele>611.0</ele>
        <time>2020-09-29T08:02:38Z</time>
      </trkpt>
      <trkpt lat="40.6331000" lon="-3.5384600">
        <ele>611.0</ele>
        <time>2020-09-29T08:02:39Z</time>
      </trkpt>
      <trkpt lat="40.6331000" lon="-3.5384600">
        <ele>611.0</ele>
        <time>2020-09-29T08:02:40Z</time>
      </trkpt>
      <trkpt lat="40.6331180" lon="-3.5382900">
        <ele>611.0</ele>
        <time>2020-09-29T08:02:41Z</time>
      </trkpt>
      <trkpt lat="40.6331270" lon="-3.5382030">
        <ele>611.0</ele>
        <time>2020-09-29T08:02:42Z</time>
      </trkpt>
      <trkpt lat="40.6331330" lon="-3.5381180">
        <ele>611.0</ele>
        <time>2020-09-29T08:02:43Z</time>
      </trkpt>
      <trkpt lat="40.6331330" lon="-3.5381180">
        <ele>611.0</ele>
        <time>2020-09-29T08:02:44Z</time>
      </trkpt>
      <trkpt lat="40.6331480" lon="-3.5379480">
        <ele>611.0</ele>
        <time>2020-09-29T08:02:45Z</time>
      </trkpt>
      <trkpt lat="40.6331480" lon="-3.5379480">
        <ele>611.0</ele>
        <time>2020-09-29T08:02:46Z</time>
      </trkpt>
      <trkpt lat="40.6331580" lon="-3.5377780">
        <ele>611.0</ele>
        <time>2020-09-29T08:02:47Z</time>
      </trkpt>
      <trkpt lat="40.6331620" lon="-3.5376950">
        <ele>611.0</ele>
        <time>2020-09-29T08:02:48Z</time>
      </trkpt>
      <trkpt lat="40.6331620" lon="-3.5376950">
        <ele>611.0</ele>
        <time>2020-09-29T08:02:49Z</time>
      </trkpt>
      <trkpt lat="40.6331720" lon="-3.5375270">
        <ele>611.0</ele>
        <time>2020-09-29T08:02:50Z</time>
      </trkpt>
      <trkpt lat="40.6331750" lon="-3.5374420">
        <ele>611.0</ele>
        <time>2020-09-29T08:02:51Z</time>
      </trkpt>
      <trkpt lat="40.6331800" lon="-3.5373550">
        <ele>611.0</ele>
        <time>2020-09-29T08:02:52Z</time>
      </trkpt>
      <trkpt lat="40.6331830" lon="-3.5372700">
        <ele>611.0</ele>
        <time>2020-09-29T08:02:53Z</time>
      </trkpt>
      <trkpt lat="40.6331870" lon="-3.5371830">
        <ele>611.0</ele>
        <time>2020-09-29T08:02:54Z</time>
      </trkpt>
      <trkpt lat="40.6331870" lon="-3.5371830">
        <ele>612.0</ele>
        <time>2020-09-29T08:02:55Z</time>
      </trkpt>
      <trkpt lat="40.6331920" lon="-3.5370130">
        <ele>612.0</ele>
        <time>2020-09-29T08:02:56Z</time>
      </trkpt>
      <trkpt lat="40.6331930" lon="-3.5369300">
        <ele>612.0</ele>
        <time>2020-09-29T08:02:57Z</time>
      </trkpt>
      <trkpt lat="40.6331930" lon="-3.5369300">
        <ele>612.0</ele>
        <time>2020-09-29T08:02:58Z</time>
      </trkpt>
      <trkpt lat="40.6331930" lon="-3.5367630">
        <ele>612.0</ele>
        <time>2020-09-29T08:02:59Z</time>
      </trkpt>
      <trkpt lat="40.6331900" lon="-3.5366770">
        <ele>612.0</ele>
        <time>2020-09-29T08:03:00Z</time>
      </trkpt>
      <trkpt lat="40.6331900" lon="-3.5366770">
        <ele>612.0</ele>
        <time>2020-09-29T08:03:01Z</time>
      </trkpt>
      <trkpt lat="40.6331900" lon="-3.5365070">
        <ele>612.0</ele>
        <time>2020-09-29T08:03:02Z</time>
      </trkpt>
      <trkpt lat="40.6331880" lon="-3.5364230">
        <ele>612.0</ele>
        <time>2020-09-29T08:03:03Z</time>
      </trkpt>
      <trkpt lat="40.6331880" lon="-3.5364230">
        <ele>612.0</ele>
        <time>2020-09-29T08:03:04Z</time>
      </trkpt>
      <trkpt lat="40.6331830" lon="-3.5362530">
        <ele>612.0</ele>
        <time>2020-09-29T08:03:05Z</time>
      </trkpt>
      <trkpt lat="40.6331830" lon="-3.5362530">
        <ele>612.0</ele>
        <time>2020-09-29T08:03:06Z</time>
      </trkpt>
      <trkpt lat="40.6331750" lon="-3.5360880">
        <ele>612.0</ele>
        <time>2020-09-29T08:03:07Z</time>
      </trkpt>
      <trkpt lat="40.6331750" lon="-3.5360880">
        <ele>612.0</ele>
        <time>2020-09-29T08:03:08Z</time>
      </trkpt>
      <trkpt lat="40.6331700" lon="-3.5359230">
        <ele>612.0</ele>
        <time>2020-09-29T08:03:09Z</time>
      </trkpt>
      <trkpt lat="40.6331680" lon="-3.5358420">
        <ele>612.0</ele>
        <time>2020-09-29T08:03:10Z</time>
      </trkpt>
      <trkpt lat="40.6331680" lon="-3.5358420">
        <ele>612.0</ele>
        <time>2020-09-29T08:03:11Z</time>
      </trkpt>
      <trkpt lat="40.6331650" lon="-3.5356780">
        <ele>612.0</ele>
        <time>2020-09-29T08:03:12Z</time>
      </trkpt>
      <trkpt lat="40.6331650" lon="-3.5356780">
        <ele>612.0</ele>
        <time>2020-09-29T08:03:13Z</time>
      </trkpt>
      <trkpt lat="40.6331600" lon="-3.5355150">
        <ele>612.0</ele>
        <time>2020-09-29T08:03:14Z</time>
      </trkpt>
      <trkpt lat="40.6331600" lon="-3.5355150">
        <ele>612.0</ele>
        <time>2020-09-29T08:03:15Z</time>
      </trkpt>
      <trkpt lat="40.6331550" lon="-3.5353570">
        <ele>612.0</ele>
        <time>2020-09-29T08:03:16Z</time>
      </trkpt>
      <trkpt lat="40.6331550" lon="-3.5353570">
        <ele>612.0</ele>
        <time>2020-09-29T08:03:17Z</time>
      </trkpt>
      <trkpt lat="40.6331480" lon="-3.5351970">
        <ele>612.0</ele>
        <time>2020-09-29T08:03:18Z</time>
      </trkpt>
      <trkpt lat="40.6331450" lon="-3.5351170">
        <ele>612.0</ele>
        <time>2020-09-29T08:03:19Z</time>
      </trkpt>
      <trkpt lat="40.6331450" lon="-3.5351170">
        <ele>612.0</ele>
        <time>2020-09-29T08:03:20Z</time>
      </trkpt>
      <trkpt lat="40.6331400" lon="-3.5349580">
        <ele>612.0</ele>
        <time>2020-09-29T08:03:21Z</time>
      </trkpt>
      <trkpt lat="40.6331370" lon="-3.5348800">
        <ele>612.0</ele>
        <time>2020-09-29T08:03:22Z</time>
      </trkpt>
      <trkpt lat="40.6331350" lon="-3.5348000">
        <ele>612.0</ele>
        <time>2020-09-29T08:03:23Z</time>
      </trkpt>
      <trkpt lat="40.6331320" lon="-3.5347220">
        <ele>612.0</ele>
        <time>2020-09-29T08:03:24Z</time>
      </trkpt>
      <trkpt lat="40.6331320" lon="-3.5347220">
        <ele>612.0</ele>
        <time>2020-09-29T08:03:25Z</time>
      </trkpt>
      <trkpt lat="40.6331270" lon="-3.5345600">
        <ele>612.0</ele>
        <time>2020-09-29T08:03:26Z</time>
      </trkpt>
      <trkpt lat="40.6331250" lon="-3.5344820">
        <ele>612.0</ele>
        <time>2020-09-29T08:03:27Z</time>
      </trkpt>
      <trkpt lat="40.6331250" lon="-3.5344820">
        <ele>612.0</ele>
        <time>2020-09-29T08:03:28Z</time>
      </trkpt>
      <trkpt lat="40.6331230" lon="-3.5343220">
        <ele>612.0</ele>
        <time>2020-09-29T08:03:29Z</time>
      </trkpt>
      <trkpt lat="40.6331230" lon="-3.5342420">
        <ele>612.0</ele>
        <time>2020-09-29T08:03:30Z</time>
      </trkpt>
      <trkpt lat="40.6331230" lon="-3.5342420">
        <ele>612.0</ele>
        <time>2020-09-29T08:03:31Z</time>
      </trkpt>
      <trkpt lat="40.6331250" lon="-3.5340780">
        <ele>612.0</ele>
        <time>2020-09-29T08:03:32Z</time>
      </trkpt>
      <trkpt lat="40.6331270" lon="-3.5339970">
        <ele>612.0</ele>
        <time>2020-09-29T08:03:33Z</time>
      </trkpt>
      <trkpt lat="40.6331270" lon="-3.5339970">
        <ele>612.0</ele>
        <time>2020-09-29T08:03:34Z</time>
      </trkpt>
      <trkpt lat="40.6331300" lon="-3.5338380">
        <ele>612.0</ele>
        <time>2020-09-29T08:03:35Z</time>
      </trkpt>
      <trkpt lat="40.6331300" lon="-3.5338380">
        <ele>613.0</ele>
        <time>2020-09-29T08:03:36Z</time>
      </trkpt>
      <trkpt lat="40.6331370" lon="-3.5336780">
        <ele>613.0</ele>
        <time>2020-09-29T08:03:37Z</time>
      </trkpt>
      <trkpt lat="40.6331370" lon="-3.5336780">
        <ele>613.0</ele>
        <time>2020-09-29T08:03:38Z</time>
      </trkpt>
      <trkpt lat="40.6331470" lon="-3.5335220">
        <ele>613.0</ele>
        <time>2020-09-29T08:03:39Z</time>
      </trkpt>
      <trkpt lat="40.6331470" lon="-3.5335220">
        <ele>613.0</ele>
        <time>2020-09-29T08:03:40Z</time>
      </trkpt>
      <trkpt lat="40.6331580" lon="-3.5333680">
        <ele>613.0</ele>
        <time>2020-09-29T08:03:41Z</time>
      </trkpt>
      <trkpt lat="40.6331580" lon="-3.5333680">
        <ele>613.0</ele>
        <time>2020-09-29T08:03:42Z</time>
      </trkpt>
      <trkpt lat="40.6331730" lon="-3.5332080">
        <ele>613.0</ele>
        <time>2020-09-29T08:03:43Z</time>
      </trkpt>
      <trkpt lat="40.6331730" lon="-3.5332080">
        <ele>613.0</ele>
        <time>2020-09-29T08:03:44Z</time>
      </trkpt>
      <trkpt lat="40.6331870" lon="-3.5330480">
        <ele>613.0</ele>
        <time>2020-09-29T08:03:45Z</time>
      </trkpt>
      <trkpt lat="40.6331970" lon="-3.5329700">
        <ele>613.0</ele>
        <time>2020-09-29T08:03:46Z</time>
      </trkpt>
      <trkpt lat="40.6331970" lon="-3.5329700">
        <ele>614.0</ele>
        <time>2020-09-29T08:03:47Z</time>
      </trkpt>
      <trkpt lat="40.6332150" lon="-3.5328120">
        <ele>614.0</ele>
        <time>2020-09-29T08:03:48Z</time>
      </trkpt>
      <trkpt lat="40.6332250" lon="-3.5327350">
        <ele>614.0</ele>
        <time>2020-09-29T08:03:49Z</time>
      </trkpt>
      <trkpt lat="40.6332250" lon="-3.5327350">
        <ele>614.0</ele>
        <time>2020-09-29T08:03:50Z</time>
      </trkpt>
      <trkpt lat="40.6332520" lon="-3.5325880">
        <ele>614.0</ele>
        <time>2020-09-29T08:03:51Z</time>
      </trkpt>
      <trkpt lat="40.6332630" lon="-3.5325130">
        <ele>614.0</ele>
        <time>2020-09-29T08:03:52Z</time>
      </trkpt>
      <trkpt lat="40.6332630" lon="-3.5325130">
        <ele>614.0</ele>
        <time>2020-09-29T08:03:53Z</time>
      </trkpt>
      <trkpt lat="40.6332880" lon="-3.5323650">
        <ele>614.0</ele>
        <time>2020-09-29T08:03:54Z</time>
      </trkpt>
      <trkpt lat="40.6333020" lon="-3.5322930">
        <ele>615.0</ele>
        <time>2020-09-29T08:03:55Z</time>
      </trkpt>
      <trkpt lat="40.6333020" lon="-3.5322930">
        <ele>615.0</ele>
        <time>2020-09-29T08:03:56Z</time>
      </trkpt>
      <trkpt lat="40.6333300" lon="-3.5321500">
        <ele>615.0</ele>
        <time>2020-09-29T08:03:57Z</time>
      </trkpt>
      <trkpt lat="40.6333300" lon="-3.5321500">
        <ele>615.0</ele>
        <time>2020-09-29T08:03:58Z</time>
      </trkpt>
      <trkpt lat="40.6333620" lon="-3.5320100">
        <ele>615.0</ele>
        <time>2020-09-29T08:03:59Z</time>
      </trkpt>
      <trkpt lat="40.6333620" lon="-3.5320100">
        <ele>616.0</ele>
        <time>2020-09-29T08:04:00Z</time>
      </trkpt>
      <trkpt lat="40.6333920" lon="-3.5318720">
        <ele>616.0</ele>
        <time>2020-09-29T08:04:01Z</time>
      </trkpt>
      <trkpt lat="40.6334080" lon="-3.5318030">
        <ele>617.0</ele>
        <time>2020-09-29T08:04:02Z</time>
      </trkpt>
      <trkpt lat="40.6334080" lon="-3.5318030">
        <ele>617.0</ele>
        <time>2020-09-29T08:04:03Z</time>
      </trkpt>
      <trkpt lat="40.6334400" lon="-3.5316700">
        <ele>617.0</ele>
        <time>2020-09-29T08:04:04Z</time>
      </trkpt>
      <trkpt lat="40.6334400" lon="-3.5316700">
        <ele>617.0</ele>
        <time>2020-09-29T08:04:05Z</time>
      </trkpt>
      <trkpt lat="40.6334730" lon="-3.5315400">
        <ele>618.0</ele>
        <time>2020-09-29T08:04:06Z</time>
      </trkpt>
      <trkpt lat="40.6334920" lon="-3.5314730">
        <ele>618.0</ele>
        <time>2020-09-29T08:04:07Z</time>
      </trkpt>
      <trkpt lat="40.6334920" lon="-3.5314730">
        <ele>618.0</ele>
        <time>2020-09-29T08:04:08Z</time>
      </trkpt>
      <trkpt lat="40.6335280" lon="-3.5313420">
        <ele>618.0</ele>
        <time>2020-09-29T08:04:09Z</time>
      </trkpt>
      <trkpt lat="40.6335480" lon="-3.5312770">
        <ele>618.0</ele>
        <time>2020-09-29T08:04:10Z</time>
      </trkpt>
      <trkpt lat="40.6335670" lon="-3.5312100">
        <ele>618.0</ele>
        <time>2020-09-29T08:04:11Z</time>
      </trkpt>
      <trkpt lat="40.6335670" lon="-3.5312100">
        <ele>618.0</ele>
        <time>2020-09-29T08:04:12Z</time>
      </trkpt>
      <trkpt lat="40.6336050" lon="-3.5310780">
        <ele>618.0</ele>
        <time>2020-09-29T08:04:13Z</time>
      </trkpt>
      <trkpt lat="40.6336050" lon="-3.5310780">
        <ele>618.0</ele>
        <time>2020-09-29T08:04:14Z</time>
      </trkpt>
      <trkpt lat="40.6336450" lon="-3.5309480">
        <ele>619.0</ele>
        <time>2020-09-29T08:04:15Z</time>
      </trkpt>
      <trkpt lat="40.6336450" lon="-3.5309480">
        <ele>619.0</ele>
        <time>2020-09-29T08:04:16Z</time>
      </trkpt>
      <trkpt lat="40.6336880" lon="-3.5308180">
        <ele>619.0</ele>
        <time>2020-09-29T08:04:17Z</time>
      </trkpt>
      <trkpt lat="40.6337080" lon="-3.5307550">
        <ele>619.0</ele>
        <time>2020-09-29T08:04:18Z</time>
      </trkpt>
      <trkpt lat="40.6337080" lon="-3.5307550">
        <ele>619.0</ele>
        <time>2020-09-29T08:04:19Z</time>
      </trkpt>
      <trkpt lat="40.6337520" lon="-3.5306270">
        <ele>619.0</ele>
        <time>2020-09-29T08:04:20Z</time>
      </trkpt>
      <trkpt lat="40.6337720" lon="-3.5305620">
        <ele>620.0</ele>
        <time>2020-09-29T08:04:21Z</time>
      </trkpt>
      <trkpt lat="40.6337720" lon="-3.5305620">
        <ele>620.0</ele>
        <time>2020-09-29T08:04:22Z</time>
      </trkpt>
      <trkpt lat="40.6338150" lon="-3.5304320">
        <ele>620.0</ele>
        <time>2020-09-29T08:04:23Z</time>
      </trkpt>
      <trkpt lat="40.6338150" lon="-3.5304320">
        <ele>621.0</ele>
        <time>2020-09-29T08:04:24Z</time>
      </trkpt>
      <trkpt lat="40.6338620" lon="-3.5303050">
        <ele>621.0</ele>
        <time>2020-09-29T08:04:25Z</time>
      </trkpt>
      <trkpt lat="40.6338620" lon="-3.5303050">
        <ele>621.0</ele>
        <time>2020-09-29T08:04:26Z</time>
      </trkpt>
      <trkpt lat="40.6339050" lon="-3.5301770">
        <ele>621.0</ele>
        <time>2020-09-29T08:04:27Z</time>
      </trkpt>
      <trkpt lat="40.6339280" lon="-3.5301150">
        <ele>621.0</ele>
        <time>2020-09-29T08:04:28Z</time>
      </trkpt>
      <trkpt lat="40.6339280" lon="-3.5301150">
        <ele>621.0</ele>
        <time>2020-09-29T08:04:29Z</time>
      </trkpt>
      <trkpt lat="40.6339750" lon="-3.5299880">
        <ele>622.0</ele>
        <time>2020-09-29T08:04:30Z</time>
      </trkpt>
      <trkpt lat="40.6339750" lon="-3.5299880">
        <ele>622.0</ele>
        <time>2020-09-29T08:04:31Z</time>
      </trkpt>
      <trkpt lat="40.6340200" lon="-3.5298620">
        <ele>622.0</ele>
        <time>2020-09-29T08:04:32Z</time>
      </trkpt>
      <trkpt lat="40.6340200" lon="-3.5298620">
        <ele>622.0</ele>
        <time>2020-09-29T08:04:33Z</time>
      </trkpt>
      <trkpt lat="40.6340700" lon="-3.5297350">
        <ele>622.0</ele>
        <time>2020-09-29T08:04:34Z</time>
      </trkpt>
      <trkpt lat="40.6340700" lon="-3.5297350">
        <ele>622.0</ele>
        <time>2020-09-29T08:04:35Z</time>
      </trkpt>
      <trkpt lat="40.6341200" lon="-3.5296070">
        <ele>622.0</ele>
        <time>2020-09-29T08:04:36Z</time>
      </trkpt>
      <trkpt lat="40.6341200" lon="-3.5296070">
        <ele>622.0</ele>
        <time>2020-09-29T08:04:37Z</time>
      </trkpt>
      <trkpt lat="40.6341700" lon="-3.5294800">
        <ele>622.0</ele>
        <time>2020-09-29T08:04:38Z</time>
      </trkpt>
      <trkpt lat="40.6341700" lon="-3.5294800">
        <ele>622.0</ele>
        <time>2020-09-29T08:04:39Z</time>
      </trkpt>
      <trkpt lat="40.6342230" lon="-3.5293550">
        <ele>622.0</ele>
        <time>2020-09-29T08:04:40Z</time>
      </trkpt>
      <trkpt lat="40.6342500" lon="-3.5292900">
        <ele>622.0</ele>
        <time>2020-09-29T08:04:41Z</time>
      </trkpt>
      <trkpt lat="40.6342500" lon="-3.5292900">
        <ele>622.0</ele>
        <time>2020-09-29T08:04:42Z</time>
      </trkpt>
      <trkpt lat="40.6343070" lon="-3.5291630">
        <ele>622.0</ele>
        <time>2020-09-29T08:04:43Z</time>
      </trkpt>
      <trkpt lat="40.6343070" lon="-3.5291630">
        <ele>622.0</ele>
        <time>2020-09-29T08:04:44Z</time>
      </trkpt>
      <trkpt lat="40.6343620" lon="-3.5290350">
        <ele>622.0</ele>
        <time>2020-09-29T08:04:45Z</time>
      </trkpt>
      <trkpt lat="40.6343620" lon="-3.5290350">
        <ele>623.0</ele>
        <time>2020-09-29T08:04:46Z</time>
      </trkpt>
      <trkpt lat="40.6344250" lon="-3.5289070">
        <ele>623.0</ele>
        <time>2020-09-29T08:04:47Z</time>
      </trkpt>
      <trkpt lat="40.6344250" lon="-3.5289070">
        <ele>623.0</ele>
        <time>2020-09-29T08:04:48Z</time>
      </trkpt>
      <trkpt lat="40.6344820" lon="-3.5287770">
        <ele>623.0</ele>
        <time>2020-09-29T08:04:49Z</time>
      </trkpt>
      <trkpt lat="40.6344820" lon="-3.5287770">
        <ele>623.0</ele>
        <time>2020-09-29T08:04:50Z</time>
      </trkpt>
      <trkpt lat="40.6345420" lon="-3.5286430">
        <ele>623.0</ele>
        <time>2020-09-29T08:04:51Z</time>
      </trkpt>
      <trkpt lat="40.6345700" lon="-3.5285770">
        <ele>623.0</ele>
        <time>2020-09-29T08:04:52Z</time>
      </trkpt>
      <trkpt lat="40.6345700" lon="-3.5285770">
        <ele>623.0</ele>
        <time>2020-09-29T08:04:53Z</time>
      </trkpt>
      <trkpt lat="40.6346300" lon="-3.5284450">
        <ele>623.0</ele>
        <time>2020-09-29T08:04:54Z</time>
      </trkpt>
      <trkpt lat="40.6346620" lon="-3.5283800">
        <ele>623.0</ele>
        <time>2020-09-29T08:04:55Z</time>
      </trkpt>
      <trkpt lat="40.6346620" lon="-3.5283800">
        <ele>623.0</ele>
        <time>2020-09-29T08:04:56Z</time>
      </trkpt>
      <trkpt lat="40.6347250" lon="-3.5282530">
        <ele>623.0</ele>
        <time>2020-09-29T08:04:57Z</time>
      </trkpt>
      <trkpt lat="40.6347250" lon="-3.5282530">
        <ele>623.0</ele>
        <time>2020-09-29T08:04:58Z</time>
      </trkpt>
      <trkpt lat="40.6347900" lon="-3.5281280">
        <ele>623.0</ele>
        <time>2020-09-29T08:04:59Z</time>
      </trkpt>
      <trkpt lat="40.6348230" lon="-3.5280650">
        <ele>624.0</ele>
        <time>2020-09-29T08:05:00Z</time>
      </trkpt>
      <trkpt lat="40.6348230" lon="-3.5280650">
        <ele>624.0</ele>
        <time>2020-09-29T08:05:01Z</time>
      </trkpt>
      <trkpt lat="40.6348880" lon="-3.5279370">
        <ele>624.0</ele>
        <time>2020-09-29T08:05:02Z</time>
      </trkpt>
      <trkpt lat="40.6349220" lon="-3.5278730">
        <ele>624.0</ele>
        <time>2020-09-29T08:05:03Z</time>
      </trkpt>
      <trkpt lat="40.6349220" lon="-3.5278730">
        <ele>624.0</ele>
        <time>2020-09-29T08:05:04Z</time>
      </trkpt>
      <trkpt lat="40.6349900" lon="-3.5277500">
        <ele>624.0</ele>
        <time>2020-09-29T08:05:05Z</time>
      </trkpt>
      <trkpt lat="40.6349900" lon="-3.5277500">
        <ele>624.0</ele>
        <time>2020-09-29T08:05:06Z</time>
      </trkpt>
      <trkpt lat="40.6350580" lon="-3.5276250">
        <ele>624.0</ele>
        <time>2020-09-29T08:05:07Z</time>
      </trkpt>
      <trkpt lat="40.6350580" lon="-3.5276250">
        <ele>624.0</ele>
        <time>2020-09-29T08:05:08Z</time>
      </trkpt>
      <trkpt lat="40.6351270" lon="-3.5275050">
        <ele>624.0</ele>
        <time>2020-09-29T08:05:09Z</time>
      </trkpt>
      <trkpt lat="40.6351270" lon="-3.5275050">
        <ele>624.0</ele>
        <time>2020-09-29T08:05:10Z</time>
      </trkpt>
      <trkpt lat="40.6351970" lon="-3.5273850">
        <ele>624.0</ele>
        <time>2020-09-29T08:05:11Z</time>
      </trkpt>
      <trkpt lat="40.6351970" lon="-3.5273850">
        <ele>624.0</ele>
        <time>2020-09-29T08:05:12Z</time>
      </trkpt>
      <trkpt lat="40.6352670" lon="-3.5272670">
        <ele>624.0</ele>
        <time>2020-09-29T08:05:13Z</time>
      </trkpt>
      <trkpt lat="40.6352670" lon="-3.5272670">
        <ele>624.0</ele>
        <time>2020-09-29T08:05:14Z</time>
      </trkpt>
      <trkpt lat="40.6353380" lon="-3.5271520">
        <ele>624.0</ele>
        <time>2020-09-29T08:05:15Z</time>
      </trkpt>
      <trkpt lat="40.6353380" lon="-3.5271520">
        <ele>624.0</ele>
        <time>2020-09-29T08:05:16Z</time>
      </trkpt>
      <trkpt lat="40.6354120" lon="-3.5270450">
        <ele>624.0</ele>
        <time>2020-09-29T08:05:17Z</time>
      </trkpt>
      <trkpt lat="40.6354450" lon="-3.5269920">
        <ele>624.0</ele>
        <time>2020-09-29T08:05:18Z</time>
      </trkpt>
      <trkpt lat="40.6354450" lon="-3.5269920">
        <ele>624.0</ele>
        <time>2020-09-29T08:05:19Z</time>
      </trkpt>
      <trkpt lat="40.6355080" lon="-3.5268750">
        <ele>624.0</ele>
        <time>2020-09-29T08:05:20Z</time>
      </trkpt>
      <trkpt lat="40.6355080" lon="-3.5268750">
        <ele>625.0</ele>
        <time>2020-09-29T08:05:21Z</time>
      </trkpt>
      <trkpt lat="40.6355780" lon="-3.5267600">
        <ele>625.0</ele>
        <time>2020-09-29T08:05:22Z</time>
      </trkpt>
      <trkpt lat="40.6355780" lon="-3.5267600">
        <ele>625.0</ele>
        <time>2020-09-29T08:05:23Z</time>
      </trkpt>
      <trkpt lat="40.6356500" lon="-3.5266430">
        <ele>625.0</ele>
        <time>2020-09-29T08:05:24Z</time>
      </trkpt>
      <trkpt lat="40.6356500" lon="-3.5266430">
        <ele>625.0</ele>
        <time>2020-09-29T08:05:25Z</time>
      </trkpt>
      <trkpt lat="40.6357250" lon="-3.5265300">
        <ele>625.0</ele>
        <time>2020-09-29T08:05:26Z</time>
      </trkpt>
      <trkpt lat="40.6357250" lon="-3.5265300">
        <ele>625.0</ele>
        <time>2020-09-29T08:05:27Z</time>
      </trkpt>
      <trkpt lat="40.6357980" lon="-3.5264200">
        <ele>625.0</ele>
        <time>2020-09-29T08:05:28Z</time>
      </trkpt>
      <trkpt lat="40.6358370" lon="-3.5263630">
        <ele>625.0</ele>
        <time>2020-09-29T08:05:29Z</time>
      </trkpt>
      <trkpt lat="40.6358370" lon="-3.5263630">
        <ele>625.0</ele>
        <time>2020-09-29T08:05:30Z</time>
      </trkpt>
      <trkpt lat="40.6359150" lon="-3.5262570">
        <ele>625.0</ele>
        <time>2020-09-29T08:05:31Z</time>
      </trkpt>
      <trkpt lat="40.6359150" lon="-3.5262570">
        <ele>625.0</ele>
        <time>2020-09-29T08:05:32Z</time>
      </trkpt>
      <trkpt lat="40.6359920" lon="-3.5261470">
        <ele>625.0</ele>
        <time>2020-09-29T08:05:33Z</time>
      </trkpt>
      <trkpt lat="40.6359920" lon="-3.5261470">
        <ele>625.0</ele>
        <time>2020-09-29T08:05:34Z</time>
      </trkpt>
      <trkpt lat="40.6360720" lon="-3.5260400">
        <ele>625.0</ele>
        <time>2020-09-29T08:05:35Z</time>
      </trkpt>
      <trkpt lat="40.6360720" lon="-3.5260400">
        <ele>625.0</ele>
        <time>2020-09-29T08:05:36Z</time>
      </trkpt>
      <trkpt lat="40.6361520" lon="-3.5259300">
        <ele>625.0</ele>
        <time>2020-09-29T08:05:37Z</time>
      </trkpt>
      <trkpt lat="40.6361520" lon="-3.5259300">
        <ele>625.0</ele>
        <time>2020-09-29T08:05:38Z</time>
      </trkpt>
      <trkpt lat="40.6362330" lon="-3.5258220">
        <ele>625.0</ele>
        <time>2020-09-29T08:05:39Z</time>
      </trkpt>
      <trkpt lat="40.6362750" lon="-3.5257680">
        <ele>625.0</ele>
        <time>2020-09-29T08:05:40Z</time>
      </trkpt>
      <trkpt lat="40.6363170" lon="-3.5257130">
        <ele>625.0</ele>
        <time>2020-09-29T08:05:41Z</time>
      </trkpt>
      <trkpt lat="40.6363170" lon="-3.5257130">
        <ele>625.0</ele>
        <time>2020-09-29T08:05:42Z</time>
      </trkpt>
      <trkpt lat="40.6364020" lon="-3.5256080">
        <ele>625.0</ele>
        <time>2020-09-29T08:05:43Z</time>
      </trkpt>
      <trkpt lat="40.6364020" lon="-3.5256080">
        <ele>625.0</ele>
        <time>2020-09-29T08:05:44Z</time>
      </trkpt>
      <trkpt lat="40.6364880" lon="-3.5255030">
        <ele>625.0</ele>
        <time>2020-09-29T08:05:45Z</time>
      </trkpt>
      <trkpt lat="40.6364880" lon="-3.5255030">
        <ele>625.0</ele>
        <time>2020-09-29T08:05:46Z</time>
      </trkpt>
      <trkpt lat="40.6365750" lon="-3.5253980">
        <ele>625.0</ele>
        <time>2020-09-29T08:05:47Z</time>
      </trkpt>
      <trkpt lat="40.6366180" lon="-3.5253450">
        <ele>625.0</ele>
        <time>2020-09-29T08:05:48Z</time>
      </trkpt>
      <trkpt lat="40.6366600" lon="-3.5252930">
        <ele>625.0</ele>
        <time>2020-09-29T08:05:49Z</time>
      </trkpt>
      <trkpt lat="40.6366600" lon="-3.5252930">
        <ele>625.0</ele>
        <time>2020-09-29T08:05:50Z</time>
      </trkpt>
      <trkpt lat="40.6367480" lon="-3.5251900">
        <ele>625.0</ele>
        <time>2020-09-29T08:05:51Z</time>
      </trkpt>
      <trkpt lat="40.6367920" lon="-3.5251380">
        <ele>625.0</ele>
        <time>2020-09-29T08:05:52Z</time>
      </trkpt>
      <trkpt lat="40.6367920" lon="-3.5251380">
        <ele>625.0</ele>
        <time>2020-09-29T08:05:53Z</time>
      </trkpt>
      <trkpt lat="40.6368830" lon="-3.5250380">
        <ele>625.0</ele>
        <time>2020-09-29T08:05:54Z</time>
      </trkpt>
      <trkpt lat="40.6368830" lon="-3.5250380">
        <ele>625.0</ele>
        <time>2020-09-29T08:05:55Z</time>
      </trkpt>
      <trkpt lat="40.6369770" lon="-3.5249350">
        <ele>625.0</ele>
        <time>2020-09-29T08:05:56Z</time>
      </trkpt>
      <trkpt lat="40.6370220" lon="-3.5248830">
        <ele>625.0</ele>
        <time>2020-09-29T08:05:57Z</time>
      </trkpt>
      <trkpt lat="40.6370220" lon="-3.5248830">
        <ele>625.0</ele>
        <time>2020-09-29T08:05:58Z</time>
      </trkpt>
      <trkpt lat="40.6371170" lon="-3.5247850">
        <ele>625.0</ele>
        <time>2020-09-29T08:05:59Z</time>
      </trkpt>
      <trkpt lat="40.6371630" lon="-3.5247350">
        <ele>625.0</ele>
        <time>2020-09-29T08:06:00Z</time>
      </trkpt>
      <trkpt lat="40.6371630" lon="-3.5247350">
        <ele>625.0</ele>
        <time>2020-09-29T08:06:01Z</time>
      </trkpt>
      <trkpt lat="40.6372580" lon="-3.5246350">
        <ele>625.0</ele>
        <time>2020-09-29T08:06:02Z</time>
      </trkpt>
      <trkpt lat="40.6372580" lon="-3.5246350">
        <ele>625.0</ele>
        <time>2020-09-29T08:06:03Z</time>
      </trkpt>
      <trkpt lat="40.6373530" lon="-3.5245370">
        <ele>625.0</ele>
        <time>2020-09-29T08:06:04Z</time>
      </trkpt>
      <trkpt lat="40.6373530" lon="-3.5245370">
        <ele>625.0</ele>
        <time>2020-09-29T08:06:05Z</time>
      </trkpt>
      <trkpt lat="40.6374500" lon="-3.5244420">
        <ele>625.0</ele>
        <time>2020-09-29T08:06:06Z</time>
      </trkpt>
      <trkpt lat="40.6375000" lon="-3.5243920">
        <ele>625.0</ele>
        <time>2020-09-29T08:06:07Z</time>
      </trkpt>
      <trkpt lat="40.6375000" lon="-3.5243920">
        <ele>625.0</ele>
        <time>2020-09-29T08:06:08Z</time>
      </trkpt>
      <trkpt lat="40.6375980" lon="-3.5242970">
        <ele>625.0</ele>
        <time>2020-09-29T08:06:09Z</time>
      </trkpt>
      <trkpt lat="40.6376480" lon="-3.5242500">
        <ele>625.0</ele>
        <time>2020-09-29T08:06:10Z</time>
      </trkpt>
      <trkpt lat="40.6376980" lon="-3.5242020">
        <ele>625.0</ele>
        <time>2020-09-29T08:06:11Z</time>
      </trkpt>
      <trkpt lat="40.6376980" lon="-3.5242020">
        <ele>625.0</ele>
        <time>2020-09-29T08:06:12Z</time>
      </trkpt>
      <trkpt lat="40.6378000" lon="-3.5241070">
        <ele>625.0</ele>
        <time>2020-09-29T08:06:13Z</time>
      </trkpt>
      <trkpt lat="40.6378000" lon="-3.5241070">
        <ele>625.0</ele>
        <time>2020-09-29T08:06:14Z</time>
      </trkpt>
      <trkpt lat="40.6379020" lon="-3.5240150">
        <ele>625.0</ele>
        <time>2020-09-29T08:06:15Z</time>
      </trkpt>
      <trkpt lat="40.6379530" lon="-3.5239700">
        <ele>625.0</ele>
        <time>2020-09-29T08:06:16Z</time>
      </trkpt>
      <trkpt lat="40.6380050" lon="-3.5239250">
        <ele>625.0</ele>
        <time>2020-09-29T08:06:17Z</time>
      </trkpt>
      <trkpt lat="40.6380050" lon="-3.5239250">
        <ele>625.0</ele>
        <time>2020-09-29T08:06:18Z</time>
      </trkpt>
      <trkpt lat="40.6381080" lon="-3.5238370">
        <ele>625.0</ele>
        <time>2020-09-29T08:06:19Z</time>
      </trkpt>
      <trkpt lat="40.6381080" lon="-3.5238370">
        <ele>625.0</ele>
        <time>2020-09-29T08:06:20Z</time>
      </trkpt>
      <trkpt lat="40.6382130" lon="-3.5237480">
        <ele>625.0</ele>
        <time>2020-09-29T08:06:21Z</time>
      </trkpt>
      <trkpt lat="40.6382130" lon="-3.5237480">
        <ele>626.0</ele>
        <time>2020-09-29T08:06:22Z</time>
      </trkpt>
      <trkpt lat="40.6383180" lon="-3.5236600">
        <ele>626.0</ele>
        <time>2020-09-29T08:06:23Z</time>
      </trkpt>
      <trkpt lat="40.6383180" lon="-3.5236600">
        <ele>626.0</ele>
        <time>2020-09-29T08:06:24Z</time>
      </trkpt>
      <trkpt lat="40.6384230" lon="-3.5235700">
        <ele>626.0</ele>
        <time>2020-09-29T08:06:25Z</time>
      </trkpt>
      <trkpt lat="40.6384230" lon="-3.5235700">
        <ele>626.0</ele>
        <time>2020-09-29T08:06:26Z</time>
      </trkpt>
      <trkpt lat="40.6385270" lon="-3.5234850">
        <ele>627.0</ele>
        <time>2020-09-29T08:06:27Z</time>
      </trkpt>
      <trkpt lat="40.6385270" lon="-3.5234850">
        <ele>627.0</ele>
        <time>2020-09-29T08:06:28Z</time>
      </trkpt>
      <trkpt lat="40.6386300" lon="-3.5234080">
        <ele>627.0</ele>
        <time>2020-09-29T08:06:29Z</time>
      </trkpt>
      <trkpt lat="40.6386300" lon="-3.5234080">
        <ele>627.0</ele>
        <time>2020-09-29T08:06:30Z</time>
      </trkpt>
      <trkpt lat="40.6387380" lon="-3.5233280">
        <ele>627.0</ele>
        <time>2020-09-29T08:06:31Z</time>
      </trkpt>
      <trkpt lat="40.6387380" lon="-3.5233280">
        <ele>627.0</ele>
        <time>2020-09-29T08:06:32Z</time>
      </trkpt>
      <trkpt lat="40.6388480" lon="-3.5232500">
        <ele>627.0</ele>
        <time>2020-09-29T08:06:33Z</time>
      </trkpt>
      <trkpt lat="40.6388480" lon="-3.5232500">
        <ele>627.0</ele>
        <time>2020-09-29T08:06:34Z</time>
      </trkpt>
      <trkpt lat="40.6389570" lon="-3.5231730">
        <ele>627.0</ele>
        <time>2020-09-29T08:06:35Z</time>
      </trkpt>
      <trkpt lat="40.6389570" lon="-3.5231730">
        <ele>627.0</ele>
        <time>2020-09-29T08:06:36Z</time>
      </trkpt>
      <trkpt lat="40.6390700" lon="-3.5230970">
        <ele>627.0</ele>
        <time>2020-09-29T08:06:37Z</time>
      </trkpt>
      <trkpt lat="40.6390700" lon="-3.5230970">
        <ele>627.0</ele>
        <time>2020-09-29T08:06:38Z</time>
      </trkpt>
      <trkpt lat="40.6391800" lon="-3.5230180">
        <ele>627.0</ele>
        <time>2020-09-29T08:06:39Z</time>
      </trkpt>
      <trkpt lat="40.6392350" lon="-3.5229820">
        <ele>627.0</ele>
        <time>2020-09-29T08:06:40Z</time>
      </trkpt>
      <trkpt lat="40.6392900" lon="-3.5229470">
        <ele>627.0</ele>
        <time>2020-09-29T08:06:41Z</time>
      </trkpt>
      <trkpt lat="40.6393450" lon="-3.5229100">
        <ele>627.0</ele>
        <time>2020-09-29T08:06:42Z</time>
      </trkpt>
      <trkpt lat="40.6393450" lon="-3.5229100">
        <ele>627.0</ele>
        <time>2020-09-29T08:06:43Z</time>
      </trkpt>
      <trkpt lat="40.6394570" lon="-3.5228380">
        <ele>627.0</ele>
        <time>2020-09-29T08:06:44Z</time>
      </trkpt>
      <trkpt lat="40.6394570" lon="-3.5228380">
        <ele>627.0</ele>
        <time>2020-09-29T08:06:45Z</time>
      </trkpt>
      <trkpt lat="40.6395670" lon="-3.5227720">
        <ele>627.0</ele>
        <time>2020-09-29T08:06:46Z</time>
      </trkpt>
      <trkpt lat="40.6396220" lon="-3.5227400">
        <ele>627.0</ele>
        <time>2020-09-29T08:06:47Z</time>
      </trkpt>
      <trkpt lat="40.6396220" lon="-3.5227400">
        <ele>627.0</ele>
        <time>2020-09-29T08:06:48Z</time>
      </trkpt>
      <trkpt lat="40.6397330" lon="-3.5226730">
        <ele>627.0</ele>
        <time>2020-09-29T08:06:49Z</time>
      </trkpt>
      <trkpt lat="40.6397900" lon="-3.5226400">
        <ele>627.0</ele>
        <time>2020-09-29T08:06:50Z</time>
      </trkpt>
      <trkpt lat="40.6397900" lon="-3.5226400">
        <ele>627.0</ele>
        <time>2020-09-29T08:06:51Z</time>
      </trkpt>
      <trkpt lat="40.6399020" lon="-3.5225750">
        <ele>627.0</ele>
        <time>2020-09-29T08:06:52Z</time>
      </trkpt>
      <trkpt lat="40.6399570" lon="-3.5225430">
        <ele>627.0</ele>
        <time>2020-09-29T08:06:53Z</time>
      </trkpt>
      <trkpt lat="40.6399570" lon="-3.5225430">
        <ele>627.0</ele>
        <time>2020-09-29T08:06:54Z</time>
      </trkpt>
      <trkpt lat="40.6400680" lon="-3.5224750">
        <ele>628.0</ele>
        <time>2020-09-29T08:06:55Z</time>
      </trkpt>
      <trkpt lat="40.6400680" lon="-3.5224750">
        <ele>628.0</ele>
        <time>2020-09-29T08:06:56Z</time>
      </trkpt>
      <trkpt lat="40.6401830" lon="-3.5224120">
        <ele>628.0</ele>
        <time>2020-09-29T08:06:57Z</time>
      </trkpt>
      <trkpt lat="40.6401830" lon="-3.5224120">
        <ele>628.0</ele>
        <time>2020-09-29T08:06:58Z</time>
      </trkpt>
      <trkpt lat="40.6403050" lon="-3.5223470">
        <ele>628.0</ele>
        <time>2020-09-29T08:06:59Z</time>
      </trkpt>
      <trkpt lat="40.6403050" lon="-3.5223470">
        <ele>628.0</ele>
        <time>2020-09-29T08:07:00Z</time>
      </trkpt>
      <trkpt lat="40.6404230" lon="-3.5222820">
        <ele>628.0</ele>
        <time>2020-09-29T08:07:01Z</time>
      </trkpt>
      <trkpt lat="40.6404830" lon="-3.5222480">
        <ele>628.0</ele>
        <time>2020-09-29T08:07:02Z</time>
      </trkpt>
      <trkpt lat="40.6404830" lon="-3.5222480">
        <ele>628.0</ele>
        <time>2020-09-29T08:07:03Z</time>
      </trkpt>
      <trkpt lat="40.6406050" lon="-3.5221850">
        <ele>628.0</ele>
        <time>2020-09-29T08:07:04Z</time>
      </trkpt>
      <trkpt lat="40.6406650" lon="-3.5221520">
        <ele>628.0</ele>
        <time>2020-09-29T08:07:05Z</time>
      </trkpt>
      <trkpt lat="40.6406650" lon="-3.5221520">
        <ele>628.0</ele>
        <time>2020-09-29T08:07:06Z</time>
      </trkpt>
      <trkpt lat="40.6407830" lon="-3.5220870">
        <ele>628.0</ele>
        <time>2020-09-29T08:07:07Z</time>
      </trkpt>
      <trkpt lat="40.6407830" lon="-3.5220870">
        <ele>628.0</ele>
        <time>2020-09-29T08:07:08Z</time>
      </trkpt>
      <trkpt lat="40.6409000" lon="-3.5220200">
        <ele>628.0</ele>
        <time>2020-09-29T08:07:09Z</time>
      </trkpt>
      <trkpt lat="40.6409570" lon="-3.5219880">
        <ele>628.0</ele>
        <time>2020-09-29T08:07:10Z</time>
      </trkpt>
      <trkpt lat="40.6409570" lon="-3.5219880">
        <ele>628.0</ele>
        <time>2020-09-29T08:07:11Z</time>
      </trkpt>
      <trkpt lat="40.6410730" lon="-3.5219250">
        <ele>628.0</ele>
        <time>2020-09-29T08:07:12Z</time>
      </trkpt>
      <trkpt lat="40.6410730" lon="-3.5219250">
        <ele>628.0</ele>
        <time>2020-09-29T08:07:13Z</time>
      </trkpt>
      <trkpt lat="40.6411880" lon="-3.5218620">
        <ele>628.0</ele>
        <time>2020-09-29T08:07:14Z</time>
      </trkpt>
      <trkpt lat="40.6411880" lon="-3.5218620">
        <ele>628.0</ele>
        <time>2020-09-29T08:07:15Z</time>
      </trkpt>
      <trkpt lat="40.6413030" lon="-3.5217980">
        <ele>628.0</ele>
        <time>2020-09-29T08:07:16Z</time>
      </trkpt>
      <trkpt lat="40.6413600" lon="-3.5217680">
        <ele>628.0</ele>
        <time>2020-09-29T08:07:17Z</time>
      </trkpt>
      <trkpt lat="40.6413600" lon="-3.5217680">
        <ele>628.0</ele>
        <time>2020-09-29T08:07:18Z</time>
      </trkpt>
      <trkpt lat="40.6414730" lon="-3.5217050">
        <ele>628.0</ele>
        <time>2020-09-29T08:07:19Z</time>
      </trkpt>
      <trkpt lat="40.6414730" lon="-3.5217050">
        <ele>628.0</ele>
        <time>2020-09-29T08:07:20Z</time>
      </trkpt>
      <trkpt lat="40.6415870" lon="-3.5216400">
        <ele>628.0</ele>
        <time>2020-09-29T08:07:21Z</time>
      </trkpt>
      <trkpt lat="40.6415870" lon="-3.5216400">
        <ele>628.0</ele>
        <time>2020-09-29T08:07:22Z</time>
      </trkpt>
      <trkpt lat="40.6417000" lon="-3.5215800">
        <ele>628.0</ele>
        <time>2020-09-29T08:07:23Z</time>
      </trkpt>
      <trkpt lat="40.6417550" lon="-3.5215480">
        <ele>628.0</ele>
        <time>2020-09-29T08:07:24Z</time>
      </trkpt>
      <trkpt lat="40.6417550" lon="-3.5215480">
        <ele>628.0</ele>
        <time>2020-09-29T08:07:25Z</time>
      </trkpt>
      <trkpt lat="40.6418670" lon="-3.5214820">
        <ele>628.0</ele>
        <time>2020-09-29T08:07:26Z</time>
      </trkpt>
      <trkpt lat="40.6419230" lon="-3.5214480">
        <ele>628.0</ele>
        <time>2020-09-29T08:07:27Z</time>
      </trkpt>
      <trkpt lat="40.6419230" lon="-3.5214480">
        <ele>629.0</ele>
        <time>2020-09-29T08:07:28Z</time>
      </trkpt>
      <trkpt lat="40.6420350" lon="-3.5213870">
        <ele>629.0</ele>
        <time>2020-09-29T08:07:29Z</time>
      </trkpt>
      <trkpt lat="40.6420350" lon="-3.5213870">
        <ele>629.0</ele>
        <time>2020-09-29T08:07:30Z</time>
      </trkpt>
      <trkpt lat="40.6421500" lon="-3.5213250">
        <ele>629.0</ele>
        <time>2020-09-29T08:07:31Z</time>
      </trkpt>
      <trkpt lat="40.6421500" lon="-3.5213250">
        <ele>629.0</ele>
        <time>2020-09-29T08:07:32Z</time>
      </trkpt>
      <trkpt lat="40.6422650" lon="-3.5212650">
        <ele>629.0</ele>
        <time>2020-09-29T08:07:33Z</time>
      </trkpt>
      <trkpt lat="40.6423220" lon="-3.5212350">
        <ele>629.0</ele>
        <time>2020-09-29T08:07:34Z</time>
      </trkpt>
      <trkpt lat="40.6423220" lon="-3.5212350">
        <ele>629.0</ele>
        <time>2020-09-29T08:07:35Z</time>
      </trkpt>
      <trkpt lat="40.6424370" lon="-3.5211720">
        <ele>629.0</ele>
        <time>2020-09-29T08:07:36Z</time>
      </trkpt>
      <trkpt lat="40.6424930" lon="-3.5211420">
        <ele>629.0</ele>
        <time>2020-09-29T08:07:37Z</time>
      </trkpt>
      <trkpt lat="40.6424930" lon="-3.5211420">
        <ele>629.0</ele>
        <time>2020-09-29T08:07:38Z</time>
      </trkpt>
      <trkpt lat="40.6426080" lon="-3.5210770">
        <ele>629.0</ele>
        <time>2020-09-29T08:07:39Z</time>
      </trkpt>
      <trkpt lat="40.6426080" lon="-3.5210770">
        <ele>629.0</ele>
        <time>2020-09-29T08:07:40Z</time>
      </trkpt>
      <trkpt lat="40.6427230" lon="-3.5210130">
        <ele>629.0</ele>
        <time>2020-09-29T08:07:41Z</time>
      </trkpt>
      <trkpt lat="40.6427230" lon="-3.5210130">
        <ele>629.0</ele>
        <time>2020-09-29T08:07:42Z</time>
      </trkpt>
      <trkpt lat="40.6428400" lon="-3.5209480">
        <ele>629.0</ele>
        <time>2020-09-29T08:07:43Z</time>
      </trkpt>
      <trkpt lat="40.6428400" lon="-3.5209480">
        <ele>629.0</ele>
        <time>2020-09-29T08:07:44Z</time>
      </trkpt>
      <trkpt lat="40.6429570" lon="-3.5208850">
        <ele>629.0</ele>
        <time>2020-09-29T08:07:45Z</time>
      </trkpt>
      <trkpt lat="40.6430150" lon="-3.5208530">
        <ele>629.0</ele>
        <time>2020-09-29T08:07:46Z</time>
      </trkpt>
      <trkpt lat="40.6430150" lon="-3.5208530">
        <ele>629.0</ele>
        <time>2020-09-29T08:07:47Z</time>
      </trkpt>
      <trkpt lat="40.6431320" lon="-3.5207880">
        <ele>629.0</ele>
        <time>2020-09-29T08:07:48Z</time>
      </trkpt>
      <trkpt lat="40.6431900" lon="-3.5207570">
        <ele>629.0</ele>
        <time>2020-09-29T08:07:49Z</time>
      </trkpt>
      <trkpt lat="40.6431900" lon="-3.5207570">
        <ele>629.0</ele>
        <time>2020-09-29T08:07:50Z</time>
      </trkpt>
      <trkpt lat="40.6433080" lon="-3.5206920">
        <ele>629.0</ele>
        <time>2020-09-29T08:07:51Z</time>
      </trkpt>
      <trkpt lat="40.6433080" lon="-3.5206920">
        <ele>629.0</ele>
        <time>2020-09-29T08:07:52Z</time>
      </trkpt>
      <trkpt lat="40.6434270" lon="-3.5206270">
        <ele>627.0</ele>
        <time>2020-09-29T08:07:53Z</time>
      </trkpt>
      <trkpt lat="40.6434870" lon="-3.5205930">
        <ele>627.0</ele>
        <time>2020-09-29T08:07:54Z</time>
      </trkpt>
      <trkpt lat="40.6434870" lon="-3.5205930">
        <ele>628.0</ele>
        <time>2020-09-29T08:07:55Z</time>
      </trkpt>
      <trkpt lat="40.6436030" lon="-3.5205270">
        <ele>628.0</ele>
        <time>2020-09-29T08:07:56Z</time>
      </trkpt>
      <trkpt lat="40.6436620" lon="-3.5204930">
        <ele>629.0</ele>
        <time>2020-09-29T08:07:57Z</time>
      </trkpt>
      <trkpt lat="40.6436620" lon="-3.5204930">
        <ele>629.0</ele>
        <time>2020-09-29T08:07:58Z</time>
      </trkpt>
      <trkpt lat="40.6437820" lon="-3.5204320">
        <ele>629.0</ele>
        <time>2020-09-29T08:07:59Z</time>
      </trkpt>
      <trkpt lat="40.6438420" lon="-3.5204000">
        <ele>629.0</ele>
        <time>2020-09-29T08:08:00Z</time>
      </trkpt>
      <trkpt lat="40.6438420" lon="-3.5204000">
        <ele>630.0</ele>
        <time>2020-09-29T08:08:01Z</time>
      </trkpt>
      <trkpt lat="40.6439620" lon="-3.5203330">
        <ele>630.0</ele>
        <time>2020-09-29T08:08:02Z</time>
      </trkpt>
      <trkpt lat="40.6439620" lon="-3.5203330">
        <ele>630.0</ele>
        <time>2020-09-29T08:08:03Z</time>
      </trkpt>
      <trkpt lat="40.6440800" lon="-3.5202680">
        <ele>630.0</ele>
        <time>2020-09-29T08:08:04Z</time>
      </trkpt>
      <trkpt lat="40.6440800" lon="-3.5202680">
        <ele>630.0</ele>
        <time>2020-09-29T08:08:05Z</time>
      </trkpt>
      <trkpt lat="40.6442000" lon="-3.5202030">
        <ele>630.0</ele>
        <time>2020-09-29T08:08:06Z</time>
      </trkpt>
      <trkpt lat="40.6442000" lon="-3.5202030">
        <ele>630.0</ele>
        <time>2020-09-29T08:08:07Z</time>
      </trkpt>
      <trkpt lat="40.6443180" lon="-3.5201380">
        <ele>630.0</ele>
        <time>2020-09-29T08:08:08Z</time>
      </trkpt>
      <trkpt lat="40.6443770" lon="-3.5201030">
        <ele>630.0</ele>
        <time>2020-09-29T08:08:09Z</time>
      </trkpt>
      <trkpt lat="40.6443770" lon="-3.5201030">
        <ele>630.0</ele>
        <time>2020-09-29T08:08:10Z</time>
      </trkpt>
      <trkpt lat="40.6444950" lon="-3.5200400">
        <ele>630.0</ele>
        <time>2020-09-29T08:08:11Z</time>
      </trkpt>
      <trkpt lat="40.6444950" lon="-3.5200400">
        <ele>630.0</ele>
        <time>2020-09-29T08:08:12Z</time>
      </trkpt>
      <trkpt lat="40.6446120" lon="-3.5199750">
        <ele>630.0</ele>
        <time>2020-09-29T08:08:13Z</time>
      </trkpt>
      <trkpt lat="40.6446120" lon="-3.5199750">
        <ele>630.0</ele>
        <time>2020-09-29T08:08:14Z</time>
      </trkpt>
      <trkpt lat="40.6447320" lon="-3.5199120">
        <ele>630.0</ele>
        <time>2020-09-29T08:08:15Z</time>
      </trkpt>
      <trkpt lat="40.6447320" lon="-3.5199120">
        <ele>630.0</ele>
        <time>2020-09-29T08:08:16Z</time>
      </trkpt>
      <trkpt lat="40.6448480" lon="-3.5198470">
        <ele>630.0</ele>
        <time>2020-09-29T08:08:17Z</time>
      </trkpt>
      <trkpt lat="40.6448480" lon="-3.5198470">
        <ele>630.0</ele>
        <time>2020-09-29T08:08:18Z</time>
      </trkpt>
      <trkpt lat="40.6449650" lon="-3.5197830">
        <ele>630.0</ele>
        <time>2020-09-29T08:08:19Z</time>
      </trkpt>
      <trkpt lat="40.6450230" lon="-3.5197520">
        <ele>630.0</ele>
        <time>2020-09-29T08:08:20Z</time>
      </trkpt>
      <trkpt lat="40.6450230" lon="-3.5197520">
        <ele>630.0</ele>
        <time>2020-09-29T08:08:21Z</time>
      </trkpt>
      <trkpt lat="40.6451400" lon="-3.5196880">
        <ele>631.0</ele>
        <time>2020-09-29T08:08:22Z</time>
      </trkpt>
      <trkpt lat="40.6451970" lon="-3.5196570">
        <ele>631.0</ele>
        <time>2020-09-29T08:08:23Z</time>
      </trkpt>
      <trkpt lat="40.6451970" lon="-3.5196570">
        <ele>631.0</ele>
        <time>2020-09-29T08:08:24Z</time>
      </trkpt>
      <trkpt lat="40.6453150" lon="-3.5195930">
        <ele>631.0</ele>
        <time>2020-09-29T08:08:25Z</time>
      </trkpt>
      <trkpt lat="40.6453150" lon="-3.5195930">
        <ele>631.0</ele>
        <time>2020-09-29T08:08:26Z</time>
      </trkpt>
      <trkpt lat="40.6454280" lon="-3.5195250">
        <ele>631.0</ele>
        <time>2020-09-29T08:08:27Z</time>
      </trkpt>
      <trkpt lat="40.6454280" lon="-3.5195250">
        <ele>631.0</ele>
        <time>2020-09-29T08:08:28Z</time>
      </trkpt>
      <trkpt lat="40.6455400" lon="-3.5194620">
        <ele>631.0</ele>
        <time>2020-09-29T08:08:29Z</time>
      </trkpt>
      <trkpt lat="40.6455970" lon="-3.5194330">
        <ele>631.0</ele>
        <time>2020-09-29T08:08:30Z</time>
      </trkpt>
      <trkpt lat="40.6455970" lon="-3.5194330">
        <ele>631.0</ele>
        <time>2020-09-29T08:08:31Z</time>
      </trkpt>
      <trkpt lat="40.6457050" lon="-3.5193770">
        <ele>631.0</ele>
        <time>2020-09-29T08:08:32Z</time>
      </trkpt>
      <trkpt lat="40.6457600" lon="-3.5193470">
        <ele>631.0</ele>
        <time>2020-09-29T08:08:33Z</time>
      </trkpt>
      <trkpt lat="40.6457600" lon="-3.5193470">
        <ele>631.0</ele>
        <time>2020-09-29T08:08:34Z</time>
      </trkpt>
      <trkpt lat="40.6458720" lon="-3.5192870">
        <ele>631.0</ele>
        <time>2020-09-29T08:08:35Z</time>
      </trkpt>
      <trkpt lat="40.6459270" lon="-3.5192580">
        <ele>631.0</ele>
        <time>2020-09-29T08:08:36Z</time>
      </trkpt>
      <trkpt lat="40.6459270" lon="-3.5192580">
        <ele>631.0</ele>
        <time>2020-09-29T08:08:37Z</time>
      </trkpt>
      <trkpt lat="40.6460370" lon="-3.5191970">
        <ele>631.0</ele>
        <time>2020-09-29T08:08:38Z</time>
      </trkpt>
      <trkpt lat="40.6460920" lon="-3.5191650">
        <ele>631.0</ele>
        <time>2020-09-29T08:08:39Z</time>
      </trkpt>
      <trkpt lat="40.6460920" lon="-3.5191650">
        <ele>631.0</ele>
        <time>2020-09-29T08:08:40Z</time>
      </trkpt>
      <trkpt lat="40.6462030" lon="-3.5191070">
        <ele>631.0</ele>
        <time>2020-09-29T08:08:41Z</time>
      </trkpt>
      <trkpt lat="40.6462600" lon="-3.5190770">
        <ele>631.0</ele>
        <time>2020-09-29T08:08:42Z</time>
      </trkpt>
      <trkpt lat="40.6462600" lon="-3.5190770">
        <ele>631.0</ele>
        <time>2020-09-29T08:08:43Z</time>
      </trkpt>
      <trkpt lat="40.6463720" lon="-3.5190170">
        <ele>631.0</ele>
        <time>2020-09-29T08:08:44Z</time>
      </trkpt>
      <trkpt lat="40.6464270" lon="-3.5189870">
        <ele>631.0</ele>
        <time>2020-09-29T08:08:45Z</time>
      </trkpt>
      <trkpt lat="40.6464270" lon="-3.5189870">
        <ele>631.0</ele>
        <time>2020-09-29T08:08:46Z</time>
      </trkpt>
      <trkpt lat="40.6465430" lon="-3.5189230">
        <ele>631.0</ele>
        <time>2020-09-29T08:08:47Z</time>
      </trkpt>
      <trkpt lat="40.6466030" lon="-3.5188900">
        <ele>631.0</ele>
        <time>2020-09-29T08:08:48Z</time>
      </trkpt>
      <trkpt lat="40.6466620" lon="-3.5188570">
        <ele>631.0</ele>
        <time>2020-09-29T08:08:49Z</time>
      </trkpt>
      <trkpt lat="40.6466620" lon="-3.5188570">
        <ele>631.0</ele>
        <time>2020-09-29T08:08:50Z</time>
      </trkpt>
      <trkpt lat="40.6467780" lon="-3.5187920">
        <ele>631.0</ele>
        <time>2020-09-29T08:08:51Z</time>
      </trkpt>
      <trkpt lat="40.6468370" lon="-3.5187580">
        <ele>631.0</ele>
        <time>2020-09-29T08:08:52Z</time>
      </trkpt>
      <trkpt lat="40.6468370" lon="-3.5187580">
        <ele>631.0</ele>
        <time>2020-09-29T08:08:53Z</time>
      </trkpt>
      <trkpt lat="40.6469570" lon="-3.5186930">
        <ele>631.0</ele>
        <time>2020-09-29T08:08:54Z</time>
      </trkpt>
      <trkpt lat="40.6470170" lon="-3.5186620">
        <ele>631.0</ele>
        <time>2020-09-29T08:08:55Z</time>
      </trkpt>
      <trkpt lat="40.6470170" lon="-3.5186620">
        <ele>631.0</ele>
        <time>2020-09-29T08:08:56Z</time>
      </trkpt>
      <trkpt lat="40.6471370" lon="-3.5185970">
        <ele>631.0</ele>
        <time>2020-09-29T08:08:57Z</time>
      </trkpt>
      <trkpt lat="40.6471370" lon="-3.5185970">
        <ele>631.0</ele>
        <time>2020-09-29T08:08:58Z</time>
      </trkpt>
      <trkpt lat="40.6472570" lon="-3.5185320">
        <ele>631.0</ele>
        <time>2020-09-29T08:08:59Z</time>
      </trkpt>
      <trkpt lat="40.6473170" lon="-3.5184970">
        <ele>631.0</ele>
        <time>2020-09-29T08:09:00Z</time>
      </trkpt>
      <trkpt lat="40.6473170" lon="-3.5184970">
        <ele>631.0</ele>
        <time>2020-09-29T08:09:01Z</time>
      </trkpt>
      <trkpt lat="40.6474380" lon="-3.5184330">
        <ele>631.0</ele>
        <time>2020-09-29T08:09:02Z</time>
      </trkpt>
      <trkpt lat="40.6474380" lon="-3.5184330">
        <ele>631.0</ele>
        <time>2020-09-29T08:09:03Z</time>
      </trkpt>
      <trkpt lat="40.6475580" lon="-3.5183650">
        <ele>631.0</ele>
        <time>2020-09-29T08:09:04Z</time>
      </trkpt>
      <trkpt lat="40.6475580" lon="-3.5183650">
        <ele>631.0</ele>
        <time>2020-09-29T08:09:05Z</time>
      </trkpt>
      <trkpt lat="40.6476780" lon="-3.5183000">
        <ele>632.0</ele>
        <time>2020-09-29T08:09:06Z</time>
      </trkpt>
      <trkpt lat="40.6476780" lon="-3.5183000">
        <ele>632.0</ele>
        <time>2020-09-29T08:09:07Z</time>
      </trkpt>
      <trkpt lat="40.6477980" lon="-3.5182350">
        <ele>632.0</ele>
        <time>2020-09-29T08:09:08Z</time>
      </trkpt>
      <trkpt lat="40.6478570" lon="-3.5182020">
        <ele>632.0</ele>
        <time>2020-09-29T08:09:09Z</time>
      </trkpt>
      <trkpt lat="40.6478570" lon="-3.5182020">
        <ele>632.0</ele>
        <time>2020-09-29T08:09:10Z</time>
      </trkpt>
      <trkpt lat="40.6479770" lon="-3.5181370">
        <ele>632.0</ele>
        <time>2020-09-29T08:09:11Z</time>
      </trkpt>
      <trkpt lat="40.6480370" lon="-3.5181030">
        <ele>632.0</ele>
        <time>2020-09-29T08:09:12Z</time>
      </trkpt>
      <trkpt lat="40.6480370" lon="-3.5181030">
        <ele>632.0</ele>
        <time>2020-09-29T08:09:13Z</time>
      </trkpt>
      <trkpt lat="40.6481580" lon="-3.5180370">
        <ele>632.0</ele>
        <time>2020-09-29T08:09:14Z</time>
      </trkpt>
      <trkpt lat="40.6481580" lon="-3.5180370">
        <ele>632.0</ele>
        <time>2020-09-29T08:09:15Z</time>
      </trkpt>
      <trkpt lat="40.6482800" lon="-3.5179670">
        <ele>632.0</ele>
        <time>2020-09-29T08:09:16Z</time>
      </trkpt>
      <trkpt lat="40.6482800" lon="-3.5179670">
        <ele>632.0</ele>
        <time>2020-09-29T08:09:17Z</time>
      </trkpt>
      <trkpt lat="40.6484030" lon="-3.5179000">
        <ele>632.0</ele>
        <time>2020-09-29T08:09:18Z</time>
      </trkpt>
      <trkpt lat="40.6484650" lon="-3.5178670">
        <ele>632.0</ele>
        <time>2020-09-29T08:09:19Z</time>
      </trkpt>
      <trkpt lat="40.6484650" lon="-3.5178670">
        <ele>632.0</ele>
        <time>2020-09-29T08:09:20Z</time>
      </trkpt>
      <trkpt lat="40.6485880" lon="-3.5178000">
        <ele>632.0</ele>
        <time>2020-09-29T08:09:21Z</time>
      </trkpt>
      <trkpt lat="40.6486500" lon="-3.5177670">
        <ele>632.0</ele>
        <time>2020-09-29T08:09:22Z</time>
      </trkpt>
      <trkpt lat="40.6486500" lon="-3.5177670">
        <ele>632.0</ele>
        <time>2020-09-29T08:09:23Z</time>
      </trkpt>
      <trkpt lat="40.6487700" lon="-3.5177000">
        <ele>632.0</ele>
        <time>2020-09-29T08:09:24Z</time>
      </trkpt>
      <trkpt lat="40.6488300" lon="-3.5176650">
        <ele>632.0</ele>
        <time>2020-09-29T08:09:25Z</time>
      </trkpt>
      <trkpt lat="40.6488300" lon="-3.5176650">
        <ele>632.0</ele>
        <time>2020-09-29T08:09:26Z</time>
      </trkpt>
      <trkpt lat="40.6489500" lon="-3.5175950">
        <ele>632.0</ele>
        <time>2020-09-29T08:09:27Z</time>
      </trkpt>
      <trkpt lat="40.6489500" lon="-3.5175950">
        <ele>632.0</ele>
        <time>2020-09-29T08:09:28Z</time>
      </trkpt>
      <trkpt lat="40.6490720" lon="-3.5175180">
        <ele>632.0</ele>
        <time>2020-09-29T08:09:29Z</time>
      </trkpt>
      <trkpt lat="40.6490720" lon="-3.5175180">
        <ele>632.0</ele>
        <time>2020-09-29T08:09:30Z</time>
      </trkpt>
      <trkpt lat="40.6491900" lon="-3.5174370">
        <ele>632.0</ele>
        <time>2020-09-29T08:09:31Z</time>
      </trkpt>
      <trkpt lat="40.6491900" lon="-3.5174370">
        <ele>632.0</ele>
        <time>2020-09-29T08:09:32Z</time>
      </trkpt>
      <trkpt lat="40.6493100" lon="-3.5173480">
        <ele>632.0</ele>
        <time>2020-09-29T08:09:33Z</time>
      </trkpt>
      <trkpt lat="40.6493100" lon="-3.5173480">
        <ele>632.0</ele>
        <time>2020-09-29T08:09:34Z</time>
      </trkpt>
      <trkpt lat="40.6494270" lon="-3.5172520">
        <ele>632.0</ele>
        <time>2020-09-29T08:09:35Z</time>
      </trkpt>
      <trkpt lat="40.6494270" lon="-3.5172520">
        <ele>632.0</ele>
        <time>2020-09-29T08:09:36Z</time>
      </trkpt>
      <trkpt lat="40.6495400" lon="-3.5171520">
        <ele>632.0</ele>
        <time>2020-09-29T08:09:37Z</time>
      </trkpt>
      <trkpt lat="40.6495400" lon="-3.5171520">
        <ele>632.0</ele>
        <time>2020-09-29T08:09:38Z</time>
      </trkpt>
      <trkpt lat="40.6496470" lon="-3.5170470">
        <ele>632.0</ele>
        <time>2020-09-29T08:09:39Z</time>
      </trkpt>
      <trkpt lat="40.6496970" lon="-3.5169920">
        <ele>632.0</ele>
        <time>2020-09-29T08:09:40Z</time>
      </trkpt>
      <trkpt lat="40.6496970" lon="-3.5169920">
        <ele>632.0</ele>
        <time>2020-09-29T08:09:41Z</time>
      </trkpt>
      <trkpt lat="40.6497980" lon="-3.5168800">
        <ele>632.0</ele>
        <time>2020-09-29T08:09:42Z</time>
      </trkpt>
      <trkpt lat="40.6498450" lon="-3.5168200">
        <ele>632.0</ele>
        <time>2020-09-29T08:09:43Z</time>
      </trkpt>
      <trkpt lat="40.6498450" lon="-3.5168200">
        <ele>632.0</ele>
        <time>2020-09-29T08:09:44Z</time>
      </trkpt>
      <trkpt lat="40.6499370" lon="-3.5167030">
        <ele>632.0</ele>
        <time>2020-09-29T08:09:45Z</time>
      </trkpt>
      <trkpt lat="40.6499370" lon="-3.5167030">
        <ele>632.0</ele>
        <time>2020-09-29T08:09:46Z</time>
      </trkpt>
      <trkpt lat="40.6500250" lon="-3.5165830">
        <ele>632.0</ele>
        <time>2020-09-29T08:09:47Z</time>
      </trkpt>
      <trkpt lat="40.6500250" lon="-3.5165830">
        <ele>632.0</ele>
        <time>2020-09-29T08:09:48Z</time>
      </trkpt>
      <trkpt lat="40.6501080" lon="-3.5164570">
        <ele>632.0</ele>
        <time>2020-09-29T08:09:49Z</time>
      </trkpt>
      <trkpt lat="40.6501080" lon="-3.5164570">
        <ele>632.0</ele>
        <time>2020-09-29T08:09:50Z</time>
      </trkpt>
      <trkpt lat="40.6501850" lon="-3.5163270">
        <ele>632.0</ele>
        <time>2020-09-29T08:09:51Z</time>
      </trkpt>
      <trkpt lat="40.6501850" lon="-3.5163270">
        <ele>632.0</ele>
        <time>2020-09-29T08:09:52Z</time>
      </trkpt>
      <trkpt lat="40.6502600" lon="-3.5161950">
        <ele>632.0</ele>
        <time>2020-09-29T08:09:53Z</time>
      </trkpt>
      <trkpt lat="40.6502950" lon="-3.5161270">
        <ele>632.0</ele>
        <time>2020-09-29T08:09:54Z</time>
      </trkpt>
      <trkpt lat="40.6502950" lon="-3.5161270">
        <ele>632.0</ele>
        <time>2020-09-29T08:09:55Z</time>
      </trkpt>
      <trkpt lat="40.6503630" lon="-3.5159870">
        <ele>633.0</ele>
        <time>2020-09-29T08:09:56Z</time>
      </trkpt>
      <trkpt lat="40.6503970" lon="-3.5159150">
        <ele>633.0</ele>
        <time>2020-09-29T08:09:57Z</time>
      </trkpt>
      <trkpt lat="40.6503970" lon="-3.5159150">
        <ele>633.0</ele>
        <time>2020-09-29T08:09:58Z</time>
      </trkpt>
      <trkpt lat="40.6504580" lon="-3.5157750">
        <ele>633.0</ele>
        <time>2020-09-29T08:09:59Z</time>
      </trkpt>
      <trkpt lat="40.6504880" lon="-3.5157020">
        <ele>633.0</ele>
        <time>2020-09-29T08:10:00Z</time>
      </trkpt>
      <trkpt lat="40.6504880" lon="-3.5157020">
        <ele>633.0</ele>
        <time>2020-09-29T08:10:01Z</time>
      </trkpt>
      <trkpt lat="40.6505420" lon="-3.5155520">
        <ele>633.0</ele>
        <time>2020-09-29T08:10:02Z</time>
      </trkpt>
      <trkpt lat="40.6505680" lon="-3.5154770">
        <ele>633.0</ele>
        <time>2020-09-29T08:10:03Z</time>
      </trkpt>
      <trkpt lat="40.6505680" lon="-3.5154770">
        <ele>633.0</ele>
        <time>2020-09-29T08:10:04Z</time>
      </trkpt>
      <trkpt lat="40.6506170" lon="-3.5153250">
        <ele>633.0</ele>
        <time>2020-09-29T08:10:05Z</time>
      </trkpt>
      <trkpt lat="40.6506170" lon="-3.5153250">
        <ele>633.0</ele>
        <time>2020-09-29T08:10:06Z</time>
      </trkpt>
      <trkpt lat="40.6506600" lon="-3.5151700">
        <ele>633.0</ele>
        <time>2020-09-29T08:10:07Z</time>
      </trkpt>
      <trkpt lat="40.6506600" lon="-3.5151700">
        <ele>633.0</ele>
        <time>2020-09-29T08:10:08Z</time>
      </trkpt>
      <trkpt lat="40.6506970" lon="-3.5150120">
        <ele>633.0</ele>
        <time>2020-09-29T08:10:09Z</time>
      </trkpt>
      <trkpt lat="40.6506970" lon="-3.5150120">
        <ele>633.0</ele>
        <time>2020-09-29T08:10:10Z</time>
      </trkpt>
      <trkpt lat="40.6507320" lon="-3.5148480">
        <ele>633.0</ele>
        <time>2020-09-29T08:10:11Z</time>
      </trkpt>
      <trkpt lat="40.6507320" lon="-3.5148480">
        <ele>633.0</ele>
        <time>2020-09-29T08:10:12Z</time>
      </trkpt>
      <trkpt lat="40.6507600" lon="-3.5146870">
        <ele>633.0</ele>
        <time>2020-09-29T08:10:13Z</time>
      </trkpt>
      <trkpt lat="40.6507730" lon="-3.5146050">
        <ele>633.0</ele>
        <time>2020-09-29T08:10:14Z</time>
      </trkpt>
      <trkpt lat="40.6507730" lon="-3.5146050">
        <ele>633.0</ele>
        <time>2020-09-29T08:10:15Z</time>
      </trkpt>
      <trkpt lat="40.6507950" lon="-3.5144430">
        <ele>633.0</ele>
        <time>2020-09-29T08:10:16Z</time>
      </trkpt>
      <trkpt lat="40.6507950" lon="-3.5144430">
        <ele>633.0</ele>
        <time>2020-09-29T08:10:17Z</time>
      </trkpt>
      <trkpt lat="40.6508070" lon="-3.5142780">
        <ele>633.0</ele>
        <time>2020-09-29T08:10:18Z</time>
      </trkpt>
      <trkpt lat="40.6508070" lon="-3.5142780">
        <ele>633.0</ele>
        <time>2020-09-29T08:10:19Z</time>
      </trkpt>
      <trkpt lat="40.6508180" lon="-3.5141150">
        <ele>633.0</ele>
        <time>2020-09-29T08:10:20Z</time>
      </trkpt>
      <trkpt lat="40.6508180" lon="-3.5141150">
        <ele>633.0</ele>
        <time>2020-09-29T08:10:21Z</time>
      </trkpt>
      <trkpt lat="40.6508220" lon="-3.5139520">
        <ele>633.0</ele>
        <time>2020-09-29T08:10:22Z</time>
      </trkpt>
      <trkpt lat="40.6508220" lon="-3.5139520">
        <ele>633.0</ele>
        <time>2020-09-29T08:10:23Z</time>
      </trkpt>
      <trkpt lat="40.6508230" lon="-3.5137880">
        <ele>634.0</ele>
        <time>2020-09-29T08:10:24Z</time>
      </trkpt>
      <trkpt lat="40.6508220" lon="-3.5137050">
        <ele>634.0</ele>
        <time>2020-09-29T08:10:25Z</time>
      </trkpt>
      <trkpt lat="40.6508220" lon="-3.5137050">
        <ele>634.0</ele>
        <time>2020-09-29T08:10:26Z</time>
      </trkpt>
      <trkpt lat="40.6508200" lon="-3.5135350">
        <ele>634.0</ele>
        <time>2020-09-29T08:10:27Z</time>
      </trkpt>
      <trkpt lat="40.6508200" lon="-3.5135350">
        <ele>634.0</ele>
        <time>2020-09-29T08:10:28Z</time>
      </trkpt>
      <trkpt lat="40.6508120" lon="-3.5133620">
        <ele>634.0</ele>
        <time>2020-09-29T08:10:29Z</time>
      </trkpt>
      <trkpt lat="40.6508120" lon="-3.5133620">
        <ele>634.0</ele>
        <time>2020-09-29T08:10:30Z</time>
      </trkpt>
      <trkpt lat="40.6508050" lon="-3.5131900">
        <ele>634.0</ele>
        <time>2020-09-29T08:10:31Z</time>
      </trkpt>
      <trkpt lat="40.6508050" lon="-3.5131900">
        <ele>634.0</ele>
        <time>2020-09-29T08:10:32Z</time>
      </trkpt>
      <trkpt lat="40.6507980" lon="-3.5130200">
        <ele>634.0</ele>
        <time>2020-09-29T08:10:33Z</time>
      </trkpt>
      <trkpt lat="40.6507980" lon="-3.5130200">
        <ele>634.0</ele>
        <time>2020-09-29T08:10:34Z</time>
      </trkpt>
      <trkpt lat="40.6507900" lon="-3.5128480">
        <ele>634.0</ele>
        <time>2020-09-29T08:10:35Z</time>
      </trkpt>
      <trkpt lat="40.6507880" lon="-3.5127630">
        <ele>634.0</ele>
        <time>2020-09-29T08:10:36Z</time>
      </trkpt>
      <trkpt lat="40.6507880" lon="-3.5127630">
        <ele>634.0</ele>
        <time>2020-09-29T08:10:37Z</time>
      </trkpt>
      <trkpt lat="40.6507820" lon="-3.5125900">
        <ele>634.0</ele>
        <time>2020-09-29T08:10:38Z</time>
      </trkpt>
      <trkpt lat="40.6507770" lon="-3.5125020">
        <ele>634.0</ele>
        <time>2020-09-29T08:10:39Z</time>
      </trkpt>
      <trkpt lat="40.6507770" lon="-3.5125020">
        <ele>634.0</ele>
        <time>2020-09-29T08:10:40Z</time>
      </trkpt>
      <trkpt lat="40.6507700" lon="-3.5123300">
        <ele>634.0</ele>
        <time>2020-09-29T08:10:41Z</time>
      </trkpt>
      <trkpt lat="40.6507670" lon="-3.5122430">
        <ele>634.0</ele>
        <time>2020-09-29T08:10:42Z</time>
      </trkpt>
      <trkpt lat="40.6507670" lon="-3.5122430">
        <ele>634.0</ele>
        <time>2020-09-29T08:10:43Z</time>
      </trkpt>
      <trkpt lat="40.6507580" lon="-3.5120700">
        <ele>634.0</ele>
        <time>2020-09-29T08:10:44Z</time>
      </trkpt>
      <trkpt lat="40.6507580" lon="-3.5120700">
        <ele>634.0</ele>
        <time>2020-09-29T08:10:45Z</time>
      </trkpt>
      <trkpt lat="40.6507420" lon="-3.5119050">
        <ele>634.0</ele>
        <time>2020-09-29T08:10:46Z</time>
      </trkpt>
      <trkpt lat="40.6507420" lon="-3.5119050">
        <ele>634.0</ele>
        <time>2020-09-29T08:10:47Z</time>
      </trkpt>
      <trkpt lat="40.6507270" lon="-3.5117450">
        <ele>634.0</ele>
        <time>2020-09-29T08:10:48Z</time>
      </trkpt>
      <trkpt lat="40.6507200" lon="-3.5116630">
        <ele>634.0</ele>
        <time>2020-09-29T08:10:49Z</time>
      </trkpt>
      <trkpt lat="40.6507200" lon="-3.5116630">
        <ele>635.0</ele>
        <time>2020-09-29T08:10:50Z</time>
      </trkpt>
      <trkpt lat="40.6506870" lon="-3.5114980">
        <ele>635.0</ele>
        <time>2020-09-29T08:10:51Z</time>
      </trkpt>
      <trkpt lat="40.6506870" lon="-3.5114980">
        <ele>635.0</ele>
        <time>2020-09-29T08:10:52Z</time>
      </trkpt>
      <trkpt lat="40.6506180" lon="-3.5113570">
        <ele>635.0</ele>
        <time>2020-09-29T08:10:53Z</time>
      </trkpt>
      <trkpt lat="40.6506180" lon="-3.5113570">
        <ele>635.0</ele>
        <time>2020-09-29T08:10:54Z</time>
      </trkpt>
      <trkpt lat="40.6505220" lon="-3.5112420">
        <ele>635.0</ele>
        <time>2020-09-29T08:10:55Z</time>
      </trkpt>
      <trkpt lat="40.6505220" lon="-3.5112420">
        <ele>635.0</ele>
        <time>2020-09-29T08:10:56Z</time>
      </trkpt>
      <trkpt lat="40.6504450" lon="-3.5110980">
        <ele>635.0</ele>
        <time>2020-09-29T08:10:57Z</time>
      </trkpt>
      <trkpt lat="40.6504180" lon="-3.5110170">
        <ele>635.0</ele>
        <time>2020-09-29T08:10:58Z</time>
      </trkpt>
      <trkpt lat="40.6504180" lon="-3.5110170">
        <ele>635.0</ele>
        <time>2020-09-29T08:10:59Z</time>
      </trkpt>
      <trkpt lat="40.6504080" lon="-3.5108530">
        <ele>635.0</ele>
        <time>2020-09-29T08:11:00Z</time>
      </trkpt>
      <trkpt lat="40.6504220" lon="-3.5107730">
        <ele>635.0</ele>
        <time>2020-09-29T08:11:01Z</time>
      </trkpt>
      <trkpt lat="40.6504220" lon="-3.5107730">
        <ele>635.0</ele>
        <time>2020-09-29T08:11:02Z</time>
      </trkpt>
      <trkpt lat="40.6504800" lon="-3.5106230">
        <ele>635.0</ele>
        <time>2020-09-29T08:11:03Z</time>
      </trkpt>
      <trkpt lat="40.6504800" lon="-3.5106230">
        <ele>635.0</ele>
        <time>2020-09-29T08:11:04Z</time>
      </trkpt>
      <trkpt lat="40.6505680" lon="-3.5105000">
        <ele>636.0</ele>
        <time>2020-09-29T08:11:05Z</time>
      </trkpt>
      <trkpt lat="40.6505680" lon="-3.5105000">
        <ele>636.0</ele>
        <time>2020-09-29T08:11:06Z</time>
      </trkpt>
      <trkpt lat="40.6506830" lon="-3.5104180">
        <ele>636.0</ele>
        <time>2020-09-29T08:11:07Z</time>
      </trkpt>
      <trkpt lat="40.6506830" lon="-3.5104180">
        <ele>636.0</ele>
        <time>2020-09-29T08:11:08Z</time>
      </trkpt>
      <trkpt lat="40.6508120" lon="-3.5103950">
        <ele>636.0</ele>
        <time>2020-09-29T08:11:09Z</time>
      </trkpt>
      <trkpt lat="40.6508120" lon="-3.5103950">
        <ele>636.0</ele>
        <time>2020-09-29T08:11:10Z</time>
      </trkpt>
      <trkpt lat="40.6509380" lon="-3.5104320">
        <ele>636.0</ele>
        <time>2020-09-29T08:11:11Z</time>
      </trkpt>
      <trkpt lat="40.6509970" lon="-3.5104700">
        <ele>636.0</ele>
        <time>2020-09-29T08:11:12Z</time>
      </trkpt>
      <trkpt lat="40.6509970" lon="-3.5104700">
        <ele>636.0</ele>
        <time>2020-09-29T08:11:13Z</time>
      </trkpt>
      <trkpt lat="40.6511020" lon="-3.5105770">
        <ele>636.0</ele>
        <time>2020-09-29T08:11:14Z</time>
      </trkpt>
      <trkpt lat="40.6511020" lon="-3.5105770">
        <ele>636.0</ele>
        <time>2020-09-29T08:11:15Z</time>
      </trkpt>
      <trkpt lat="40.6512070" lon="-3.5106930">
        <ele>636.0</ele>
        <time>2020-09-29T08:11:16Z</time>
      </trkpt>
      <trkpt lat="40.6512070" lon="-3.5106930">
        <ele>636.0</ele>
        <time>2020-09-29T08:11:17Z</time>
      </trkpt>
      <trkpt lat="40.6513420" lon="-3.5107580">
        <ele>636.0</ele>
        <time>2020-09-29T08:11:18Z</time>
      </trkpt>
      <trkpt lat="40.6514130" lon="-3.5107770">
        <ele>636.0</ele>
        <time>2020-09-29T08:11:19Z</time>
      </trkpt>
      <trkpt lat="40.6514130" lon="-3.5107770">
        <ele>636.0</ele>
        <time>2020-09-29T08:11:20Z</time>
      </trkpt>
      <trkpt lat="40.6515570" lon="-3.5108020">
        <ele>636.0</ele>
        <time>2020-09-29T08:11:21Z</time>
      </trkpt>
      <trkpt lat="40.6515570" lon="-3.5108020">
        <ele>636.0</ele>
        <time>2020-09-29T08:11:22Z</time>
      </trkpt>
      <trkpt lat="40.6517050" lon="-3.5108150">
        <ele>636.0</ele>
        <time>2020-09-29T08:11:23Z</time>
      </trkpt>
      <trkpt lat="40.6517050" lon="-3.5108150">
        <ele>636.0</ele>
        <time>2020-09-29T08:11:24Z</time>
      </trkpt>
      <trkpt lat="40.6518570" lon="-3.5108200">
        <ele>636.0</ele>
        <time>2020-09-29T08:11:25Z</time>
      </trkpt>
      <trkpt lat="40.6518570" lon="-3.5108200">
        <ele>636.0</ele>
        <time>2020-09-29T08:11:26Z</time>
      </trkpt>
      <trkpt lat="40.6520130" lon="-3.5108180">
        <ele>636.0</ele>
        <time>2020-09-29T08:11:27Z</time>
      </trkpt>
      <trkpt lat="40.6520130" lon="-3.5108180">
        <ele>636.0</ele>
        <time>2020-09-29T08:11:28Z</time>
      </trkpt>
      <trkpt lat="40.6521680" lon="-3.5108200">
        <ele>635.0</ele>
        <time>2020-09-29T08:11:29Z</time>
      </trkpt>
      <trkpt lat="40.6522450" lon="-3.5108220">
        <ele>635.0</ele>
        <time>2020-09-29T08:11:30Z</time>
      </trkpt>
      <trkpt lat="40.6522450" lon="-3.5108220">
        <ele>635.0</ele>
        <time>2020-09-29T08:11:31Z</time>
      </trkpt>
      <trkpt lat="40.6523970" lon="-3.5108230">
        <ele>635.0</ele>
        <time>2020-09-29T08:11:32Z</time>
      </trkpt>
      <trkpt lat="40.6523970" lon="-3.5108230">
        <ele>635.0</ele>
        <time>2020-09-29T08:11:33Z</time>
      </trkpt>
      <trkpt lat="40.6525480" lon="-3.5108230">
        <ele>635.0</ele>
        <time>2020-09-29T08:11:34Z</time>
      </trkpt>
      <trkpt lat="40.6526230" lon="-3.5108230">
        <ele>635.0</ele>
        <time>2020-09-29T08:11:35Z</time>
      </trkpt>
      <trkpt lat="40.6526230" lon="-3.5108230">
        <ele>635.0</ele>
        <time>2020-09-29T08:11:36Z</time>
      </trkpt>
      <trkpt lat="40.6527720" lon="-3.5108220">
        <ele>635.0</ele>
        <time>2020-09-29T08:11:37Z</time>
      </trkpt>
      <trkpt lat="40.6527720" lon="-3.5108220">
        <ele>635.0</ele>
        <time>2020-09-29T08:11:38Z</time>
      </trkpt>
      <trkpt lat="40.6529200" lon="-3.5108220">
        <ele>635.0</ele>
        <time>2020-09-29T08:11:39Z</time>
      </trkpt>
      <trkpt lat="40.6529200" lon="-3.5108220">
        <ele>635.0</ele>
        <time>2020-09-29T08:11:40Z</time>
      </trkpt>
      <trkpt lat="40.6530670" lon="-3.5108220">
        <ele>635.0</ele>
        <time>2020-09-29T08:11:41Z</time>
      </trkpt>
      <trkpt lat="40.6530670" lon="-3.5108220">
        <ele>635.0</ele>
        <time>2020-09-29T08:11:42Z</time>
      </trkpt>
      <trkpt lat="40.6532130" lon="-3.5108220">
        <ele>635.0</ele>
        <time>2020-09-29T08:11:43Z</time>
      </trkpt>
      <trkpt lat="40.6532130" lon="-3.5108220">
        <ele>635.0</ele>
        <time>2020-09-29T08:11:44Z</time>
      </trkpt>
      <trkpt lat="40.6533580" lon="-3.5108200">
        <ele>635.0</ele>
        <time>2020-09-29T08:11:45Z</time>
      </trkpt>
      <trkpt lat="40.6533580" lon="-3.5108200">
        <ele>635.0</ele>
        <time>2020-09-29T08:11:46Z</time>
      </trkpt>
      <trkpt lat="40.6535020" lon="-3.5108200">
        <ele>635.0</ele>
        <time>2020-09-29T08:11:47Z</time>
      </trkpt>
      <trkpt lat="40.6535750" lon="-3.5108200">
        <ele>635.0</ele>
        <time>2020-09-29T08:11:48Z</time>
      </trkpt>
      <trkpt lat="40.6535750" lon="-3.5108200">
        <ele>635.0</ele>
        <time>2020-09-29T08:11:49Z</time>
      </trkpt>
      <trkpt lat="40.6537200" lon="-3.5108200">
        <ele>635.0</ele>
        <time>2020-09-29T08:11:50Z</time>
      </trkpt>
      <trkpt lat="40.6537930" lon="-3.5108200">
        <ele>635.0</ele>
        <time>2020-09-29T08:11:51Z</time>
      </trkpt>
      <trkpt lat="40.6538670" lon="-3.5108200">
        <ele>635.0</ele>
        <time>2020-09-29T08:11:52Z</time>
      </trkpt>
      <trkpt lat="40.6538670" lon="-3.5108200">
        <ele>635.0</ele>
        <time>2020-09-29T08:11:53Z</time>
      </trkpt>
      <trkpt lat="40.6540130" lon="-3.5108200">
        <ele>635.0</ele>
        <time>2020-09-29T08:11:54Z</time>
      </trkpt>
      <trkpt lat="40.6540130" lon="-3.5108200">
        <ele>635.0</ele>
        <time>2020-09-29T08:11:55Z</time>
      </trkpt>
      <trkpt lat="40.6541570" lon="-3.5108180">
        <ele>635.0</ele>
        <time>2020-09-29T08:11:56Z</time>
      </trkpt>
      <trkpt lat="40.6542280" lon="-3.5108150">
        <ele>635.0</ele>
        <time>2020-09-29T08:11:57Z</time>
      </trkpt>
      <trkpt lat="40.6542280" lon="-3.5108150">
        <ele>635.0</ele>
        <time>2020-09-29T08:11:58Z</time>
      </trkpt>
      <trkpt lat="40.6543730" lon="-3.5108150">
        <ele>635.0</ele>
        <time>2020-09-29T08:11:59Z</time>
      </trkpt>
      <trkpt lat="40.6543730" lon="-3.5108150">
        <ele>635.0</ele>
        <time>2020-09-29T08:12:00Z</time>
      </trkpt>
      <trkpt lat="40.6545180" lon="-3.5108170">
        <ele>635.0</ele>
        <time>2020-09-29T08:12:01Z</time>
      </trkpt>
      <trkpt lat="40.6545180" lon="-3.5108170">
        <ele>635.0</ele>
        <time>2020-09-29T08:12:02Z</time>
      </trkpt>
      <trkpt lat="40.6546630" lon="-3.5108150">
        <ele>635.0</ele>
        <time>2020-09-29T08:12:03Z</time>
      </trkpt>
      <trkpt lat="40.6546630" lon="-3.5108150">
        <ele>635.0</ele>
        <time>2020-09-29T08:12:04Z</time>
      </trkpt>
      <trkpt lat="40.6548080" lon="-3.5108130">
        <ele>635.0</ele>
        <time>2020-09-29T08:12:05Z</time>
      </trkpt>
      <trkpt lat="40.6548080" lon="-3.5108130">
        <ele>635.0</ele>
        <time>2020-09-29T08:12:06Z</time>
      </trkpt>
      <trkpt lat="40.6549520" lon="-3.5108150">
        <ele>635.0</ele>
        <time>2020-09-29T08:12:07Z</time>
      </trkpt>
      <trkpt lat="40.6550230" lon="-3.5108180">
        <ele>635.0</ele>
        <time>2020-09-29T08:12:08Z</time>
      </trkpt>
      <trkpt lat="40.6550230" lon="-3.5108180">
        <ele>635.0</ele>
        <time>2020-09-29T08:12:09Z</time>
      </trkpt>
      <trkpt lat="40.6551680" lon="-3.5108200">
        <ele>635.0</ele>
        <time>2020-09-29T08:12:10Z</time>
      </trkpt>
      <trkpt lat="40.6551680" lon="-3.5108200">
        <ele>635.0</ele>
        <time>2020-09-29T08:12:11Z</time>
      </trkpt>
      <trkpt lat="40.6553150" lon="-3.5108200">
        <ele>635.0</ele>
        <time>2020-09-29T08:12:12Z</time>
      </trkpt>
      <trkpt lat="40.6553880" lon="-3.5108200">
        <ele>635.0</ele>
        <time>2020-09-29T08:12:13Z</time>
      </trkpt>
      <trkpt lat="40.6553880" lon="-3.5108200">
        <ele>635.0</ele>
        <time>2020-09-29T08:12:14Z</time>
      </trkpt>
      <trkpt lat="40.6555350" lon="-3.5108220">
        <ele>635.0</ele>
        <time>2020-09-29T08:12:15Z</time>
      </trkpt>
      <trkpt lat="40.6555350" lon="-3.5108220">
        <ele>635.0</ele>
        <time>2020-09-29T08:12:16Z</time>
      </trkpt>
      <trkpt lat="40.6556780" lon="-3.5108230">
        <ele>635.0</ele>
        <time>2020-09-29T08:12:17Z</time>
      </trkpt>
      <trkpt lat="40.6556780" lon="-3.5108230">
        <ele>635.0</ele>
        <time>2020-09-29T08:12:18Z</time>
      </trkpt>
      <trkpt lat="40.6558200" lon="-3.5108180">
        <ele>635.0</ele>
        <time>2020-09-29T08:12:19Z</time>
      </trkpt>
      <trkpt lat="40.6558200" lon="-3.5108180">
        <ele>635.0</ele>
        <time>2020-09-29T08:12:20Z</time>
      </trkpt>
      <trkpt lat="40.6559620" lon="-3.5108170">
        <ele>635.0</ele>
        <time>2020-09-29T08:12:21Z</time>
      </trkpt>
      <trkpt lat="40.6560320" lon="-3.5108150">
        <ele>635.0</ele>
        <time>2020-09-29T08:12:22Z</time>
      </trkpt>
      <trkpt lat="40.6560320" lon="-3.5108150">
        <ele>635.0</ele>
        <time>2020-09-29T08:12:23Z</time>
      </trkpt>
      <trkpt lat="40.6561700" lon="-3.5108150">
        <ele>635.0</ele>
        <time>2020-09-29T08:12:24Z</time>
      </trkpt>
      <trkpt lat="40.6562380" lon="-3.5108130">
        <ele>635.0</ele>
        <time>2020-09-29T08:12:25Z</time>
      </trkpt>
      <trkpt lat="40.6562380" lon="-3.5108130">
        <ele>635.0</ele>
        <time>2020-09-29T08:12:26Z</time>
      </trkpt>
      <trkpt lat="40.6563730" lon="-3.5108150">
        <ele>635.0</ele>
        <time>2020-09-29T08:12:27Z</time>
      </trkpt>
      <trkpt lat="40.6564410" lon="-3.5108150">
        <ele>635.0</ele>
        <time>2020-09-29T08:12:28Z</time>
      </trkpt>
      <trkpt lat="40.6565100" lon="-3.5108150">
        <ele>635.0</ele>
        <time>2020-09-29T08:12:29Z</time>
      </trkpt>
      <trkpt lat="40.6565780" lon="-3.5108130">
        <ele>635.0</ele>
        <time>2020-09-29T08:12:30Z</time>
      </trkpt>
      <trkpt lat="40.6565780" lon="-3.5108130">
        <ele>635.0</ele>
        <time>2020-09-29T08:12:31Z</time>
      </trkpt>
      <trkpt lat="40.6567150" lon="-3.5108120">
        <ele>635.0</ele>
        <time>2020-09-29T08:12:32Z</time>
      </trkpt>
      <trkpt lat="40.6567150" lon="-3.5108120">
        <ele>635.0</ele>
        <time>2020-09-29T08:12:33Z</time>
      </trkpt>
      <trkpt lat="40.6568500" lon="-3.5108120">
        <ele>635.0</ele>
        <time>2020-09-29T08:12:34Z</time>
      </trkpt>
      <trkpt lat="40.6568500" lon="-3.5108120">
        <ele>635.0</ele>
        <time>2020-09-29T08:12:35Z</time>
      </trkpt>
      <trkpt lat="40.6569850" lon="-3.5108120">
        <ele>635.0</ele>
        <time>2020-09-29T08:12:36Z</time>
      </trkpt>
      <trkpt lat="40.6570520" lon="-3.5108120">
        <ele>635.0</ele>
        <time>2020-09-29T08:12:37Z</time>
      </trkpt>
      <trkpt lat="40.6570520" lon="-3.5108120">
        <ele>635.0</ele>
        <time>2020-09-29T08:12:38Z</time>
      </trkpt>
      <trkpt lat="40.6571870" lon="-3.5108120">
        <ele>635.0</ele>
        <time>2020-09-29T08:12:39Z</time>
      </trkpt>
      <trkpt lat="40.6571870" lon="-3.5108120">
        <ele>635.0</ele>
        <time>2020-09-29T08:12:40Z</time>
      </trkpt>
      <trkpt lat="40.6573230" lon="-3.5108130">
        <ele>635.0</ele>
        <time>2020-09-29T08:12:41Z</time>
      </trkpt>
      <trkpt lat="40.6573230" lon="-3.5108130">
        <ele>635.0</ele>
        <time>2020-09-29T08:12:42Z</time>
      </trkpt>
      <trkpt lat="40.6574600" lon="-3.5108130">
        <ele>635.0</ele>
        <time>2020-09-29T08:12:43Z</time>
      </trkpt>
      <trkpt lat="40.6574600" lon="-3.5108130">
        <ele>635.0</ele>
        <time>2020-09-29T08:12:44Z</time>
      </trkpt>
      <trkpt lat="40.6575980" lon="-3.5108120">
        <ele>636.0</ele>
        <time>2020-09-29T08:12:45Z</time>
      </trkpt>
      <trkpt lat="40.6576670" lon="-3.5108120">
        <ele>636.0</ele>
        <time>2020-09-29T08:12:46Z</time>
      </trkpt>
      <trkpt lat="40.6576670" lon="-3.5108120">
        <ele>636.0</ele>
        <time>2020-09-29T08:12:47Z</time>
      </trkpt>
      <trkpt lat="40.6578030" lon="-3.5108130">
        <ele>636.0</ele>
        <time>2020-09-29T08:12:48Z</time>
      </trkpt>
      <trkpt lat="40.6578720" lon="-3.5108130">
        <ele>636.0</ele>
        <time>2020-09-29T08:12:49Z</time>
      </trkpt>
      <trkpt lat="40.6578720" lon="-3.5108130">
        <ele>636.0</ele>
        <time>2020-09-29T08:12:50Z</time>
      </trkpt>
      <trkpt lat="40.6580120" lon="-3.5108150">
        <ele>636.0</ele>
        <time>2020-09-29T08:12:51Z</time>
      </trkpt>
      <trkpt lat="40.6580780" lon="-3.5108170">
        <ele>636.0</ele>
        <time>2020-09-29T08:12:52Z</time>
      </trkpt>
      <trkpt lat="40.6580780" lon="-3.5108170">
        <ele>636.0</ele>
        <time>2020-09-29T08:12:53Z</time>
      </trkpt>
      <trkpt lat="40.6582150" lon="-3.5108130">
        <ele>636.0</ele>
        <time>2020-09-29T08:12:54Z</time>
      </trkpt>
      <trkpt lat="40.6582820" lon="-3.5108120">
        <ele>636.0</ele>
        <time>2020-09-29T08:12:55Z</time>
      </trkpt>
      <trkpt lat="40.6582820" lon="-3.5108120">
        <ele>636.0</ele>
        <time>2020-09-29T08:12:56Z</time>
      </trkpt>
      <trkpt lat="40.6584180" lon="-3.5108130">
        <ele>636.0</ele>
        <time>2020-09-29T08:12:57Z</time>
      </trkpt>
      <trkpt lat="40.6584180" lon="-3.5108130">
        <ele>636.0</ele>
        <time>2020-09-29T08:12:58Z</time>
      </trkpt>
      <trkpt lat="40.6585570" lon="-3.5108130">
        <ele>636.0</ele>
        <time>2020-09-29T08:12:59Z</time>
      </trkpt>
      <trkpt lat="40.6586250" lon="-3.5108130">
        <ele>636.0</ele>
        <time>2020-09-29T08:13:00Z</time>
      </trkpt>
      <trkpt lat="40.6586930" lon="-3.5108130">
        <ele>636.0</ele>
        <time>2020-09-29T08:13:01Z</time>
      </trkpt>
      <trkpt lat="40.6586930" lon="-3.5108130">
        <ele>636.0</ele>
        <time>2020-09-29T08:13:02Z</time>
      </trkpt>
      <trkpt lat="40.6588320" lon="-3.5108120">
        <ele>636.0</ele>
        <time>2020-09-29T08:13:03Z</time>
      </trkpt>
      <trkpt lat="40.6588320" lon="-3.5108120">
        <ele>636.0</ele>
        <time>2020-09-29T08:13:04Z</time>
      </trkpt>
      <trkpt lat="40.6589700" lon="-3.5108080">
        <ele>636.0</ele>
        <time>2020-09-29T08:13:05Z</time>
      </trkpt>
      <trkpt lat="40.6589700" lon="-3.5108080">
        <ele>636.0</ele>
        <time>2020-09-29T08:13:06Z</time>
      </trkpt>
      <trkpt lat="40.6591050" lon="-3.5108080">
        <ele>636.0</ele>
        <time>2020-09-29T08:13:07Z</time>
      </trkpt>
      <trkpt lat="40.6591050" lon="-3.5108080">
        <ele>636.0</ele>
        <time>2020-09-29T08:13:08Z</time>
      </trkpt>
      <trkpt lat="40.6592430" lon="-3.5108070">
        <ele>636.0</ele>
        <time>2020-09-29T08:13:09Z</time>
      </trkpt>
      <trkpt lat="40.6592430" lon="-3.5108070">
        <ele>636.0</ele>
        <time>2020-09-29T08:13:10Z</time>
      </trkpt>
      <trkpt lat="40.6593820" lon="-3.5108100">
        <ele>636.0</ele>
        <time>2020-09-29T08:13:11Z</time>
      </trkpt>
      <trkpt lat="40.6593820" lon="-3.5108100">
        <ele>636.0</ele>
        <time>2020-09-29T08:13:12Z</time>
      </trkpt>
      <trkpt lat="40.6595220" lon="-3.5108070">
        <ele>636.0</ele>
        <time>2020-09-29T08:13:13Z</time>
      </trkpt>
      <trkpt lat="40.6595220" lon="-3.5108070">
        <ele>636.0</ele>
        <time>2020-09-29T08:13:14Z</time>
      </trkpt>
      <trkpt lat="40.6596600" lon="-3.5108070">
        <ele>636.0</ele>
        <time>2020-09-29T08:13:15Z</time>
      </trkpt>
      <trkpt lat="40.6597280" lon="-3.5108050">
        <ele>636.0</ele>
        <time>2020-09-29T08:13:16Z</time>
      </trkpt>
      <trkpt lat="40.6597280" lon="-3.5108050">
        <ele>636.0</ele>
        <time>2020-09-29T08:13:17Z</time>
      </trkpt>
      <trkpt lat="40.6598650" lon="-3.5108030">
        <ele>636.0</ele>
        <time>2020-09-29T08:13:18Z</time>
      </trkpt>
      <trkpt lat="40.6598650" lon="-3.5108030">
        <ele>636.0</ele>
        <time>2020-09-29T08:13:19Z</time>
      </trkpt>
      <trkpt lat="40.6600020" lon="-3.5108050">
        <ele>636.0</ele>
        <time>2020-09-29T08:13:20Z</time>
      </trkpt>
      <trkpt lat="40.6600020" lon="-3.5108050">
        <ele>636.0</ele>
        <time>2020-09-29T08:13:21Z</time>
      </trkpt>
      <trkpt lat="40.6601370" lon="-3.5108070">
        <ele>636.0</ele>
        <time>2020-09-29T08:13:22Z</time>
      </trkpt>
      <trkpt lat="40.6601370" lon="-3.5108070">
        <ele>636.0</ele>
        <time>2020-09-29T08:13:23Z</time>
      </trkpt>
      <trkpt lat="40.6602750" lon="-3.5108070">
        <ele>636.0</ele>
        <time>2020-09-29T08:13:24Z</time>
      </trkpt>
      <trkpt lat="40.6603430" lon="-3.5108050">
        <ele>636.0</ele>
        <time>2020-09-29T08:13:25Z</time>
      </trkpt>
      <trkpt lat="40.6603430" lon="-3.5108050">
        <ele>636.0</ele>
        <time>2020-09-29T08:13:26Z</time>
      </trkpt>
      <trkpt lat="40.6604830" lon="-3.5108030">
        <ele>636.0</ele>
        <time>2020-09-29T08:13:27Z</time>
      </trkpt>
      <trkpt lat="40.6605530" lon="-3.5108030">
        <ele>636.0</ele>
        <time>2020-09-29T08:13:28Z</time>
      </trkpt>
      <trkpt lat="40.6605530" lon="-3.5108030">
        <ele>636.0</ele>
        <time>2020-09-29T08:13:29Z</time>
      </trkpt>
      <trkpt lat="40.6606930" lon="-3.5108030">
        <ele>636.0</ele>
        <time>2020-09-29T08:13:30Z</time>
      </trkpt>
      <trkpt lat="40.6607630" lon="-3.5108020">
        <ele>636.0</ele>
        <time>2020-09-29T08:13:31Z</time>
      </trkpt>
      <trkpt lat="40.6607630" lon="-3.5108020">
        <ele>636.0</ele>
        <time>2020-09-29T08:13:32Z</time>
      </trkpt>
      <trkpt lat="40.6609030" lon="-3.5108020">
        <ele>636.0</ele>
        <time>2020-09-29T08:13:33Z</time>
      </trkpt>
      <trkpt lat="40.6609730" lon="-3.5108020">
        <ele>636.0</ele>
        <time>2020-09-29T08:13:34Z</time>
      </trkpt>
      <trkpt lat="40.6609730" lon="-3.5108020">
        <ele>636.0</ele>
        <time>2020-09-29T08:13:35Z</time>
      </trkpt>
      <trkpt lat="40.6611130" lon="-3.5107980">
        <ele>636.0</ele>
        <time>2020-09-29T08:13:36Z</time>
      </trkpt>
      <trkpt lat="40.6611830" lon="-3.5107980">
        <ele>636.0</ele>
        <time>2020-09-29T08:13:37Z</time>
      </trkpt>
      <trkpt lat="40.6611830" lon="-3.5107980">
        <ele>636.0</ele>
        <time>2020-09-29T08:13:38Z</time>
      </trkpt>
      <trkpt lat="40.6613220" lon="-3.5108020">
        <ele>636.0</ele>
        <time>2020-09-29T08:13:39Z</time>
      </trkpt>
      <trkpt lat="40.6613900" lon="-3.5108020">
        <ele>636.0</ele>
        <time>2020-09-29T08:13:40Z</time>
      </trkpt>
      <trkpt lat="40.6613900" lon="-3.5108020">
        <ele>636.0</ele>
        <time>2020-09-29T08:13:41Z</time>
      </trkpt>
      <trkpt lat="40.6615280" lon="-3.5108030">
        <ele>636.0</ele>
        <time>2020-09-29T08:13:42Z</time>
      </trkpt>
      <trkpt lat="40.6615980" lon="-3.5108030">
        <ele>636.0</ele>
        <time>2020-09-29T08:13:43Z</time>
      </trkpt>
      <trkpt lat="40.6615980" lon="-3.5108030">
        <ele>636.0</ele>
        <time>2020-09-29T08:13:44Z</time>
      </trkpt>
      <trkpt lat="40.6617370" lon="-3.5108030">
        <ele>636.0</ele>
        <time>2020-09-29T08:13:45Z</time>
      </trkpt>
      <trkpt lat="40.6617370" lon="-3.5108030">
        <ele>636.0</ele>
        <time>2020-09-29T08:13:46Z</time>
      </trkpt>
      <trkpt lat="40.6618750" lon="-3.5108030">
        <ele>636.0</ele>
        <time>2020-09-29T08:13:47Z</time>
      </trkpt>
      <trkpt lat="40.6619430" lon="-3.5108030">
        <ele>636.0</ele>
        <time>2020-09-29T08:13:48Z</time>
      </trkpt>
      <trkpt lat="40.6619430" lon="-3.5108030">
        <ele>636.0</ele>
        <time>2020-09-29T08:13:49Z</time>
      </trkpt>
      <trkpt lat="40.6620800" lon="-3.5108050">
        <ele>636.0</ele>
        <time>2020-09-29T08:13:50Z</time>
      </trkpt>
      <trkpt lat="40.6620800" lon="-3.5108050">
        <ele>636.0</ele>
        <time>2020-09-29T08:13:51Z</time>
      </trkpt>
      <trkpt lat="40.6622170" lon="-3.5108030">
        <ele>636.0</ele>
        <time>2020-09-29T08:13:52Z</time>
      </trkpt>
      <trkpt lat="40.6622170" lon="-3.5108030">
        <ele>636.0</ele>
        <time>2020-09-29T08:13:53Z</time>
      </trkpt>
      <trkpt lat="40.6623520" lon="-3.5108020">
        <ele>636.0</ele>
        <time>2020-09-29T08:13:54Z</time>
      </trkpt>
      <trkpt lat="40.6624200" lon="-3.5107980">
        <ele>636.0</ele>
        <time>2020-09-29T08:13:55Z</time>
      </trkpt>
      <trkpt lat="40.6624200" lon="-3.5107980">
        <ele>636.0</ele>
        <time>2020-09-29T08:13:56Z</time>
      </trkpt>
      <trkpt lat="40.6625550" lon="-3.5107980">
        <ele>637.0</ele>
        <time>2020-09-29T08:13:57Z</time>
      </trkpt>
      <trkpt lat="40.6626230" lon="-3.5107980">
        <ele>637.0</ele>
        <time>2020-09-29T08:13:58Z</time>
      </trkpt>
      <trkpt lat="40.6626230" lon="-3.5107980">
        <ele>637.0</ele>
        <time>2020-09-29T08:13:59Z</time>
      </trkpt>
      <trkpt lat="40.6627600" lon="-3.5108020">
        <ele>637.0</ele>
        <time>2020-09-29T08:14:00Z</time>
      </trkpt>
      <trkpt lat="40.6628300" lon="-3.5108020">
        <ele>637.0</ele>
        <time>2020-09-29T08:14:01Z</time>
      </trkpt>
      <trkpt lat="40.6628300" lon="-3.5108020">
        <ele>637.0</ele>
        <time>2020-09-29T08:14:02Z</time>
      </trkpt>
      <trkpt lat="40.6629670" lon="-3.5108030">
        <ele>637.0</ele>
        <time>2020-09-29T08:14:03Z</time>
      </trkpt>
      <trkpt lat="40.6629670" lon="-3.5108030">
        <ele>637.0</ele>
        <time>2020-09-29T08:14:04Z</time>
      </trkpt>
      <trkpt lat="40.6631030" lon="-3.5108030">
        <ele>637.0</ele>
        <time>2020-09-29T08:14:05Z</time>
      </trkpt>
      <trkpt lat="40.6631720" lon="-3.5108020">
        <ele>637.0</ele>
        <time>2020-09-29T08:14:06Z</time>
      </trkpt>
      <trkpt lat="40.6632400" lon="-3.5108020">
        <ele>637.0</ele>
        <time>2020-09-29T08:14:07Z</time>
      </trkpt>
      <trkpt lat="40.6632400" lon="-3.5108020">
        <ele>637.0</ele>
        <time>2020-09-29T08:14:08Z</time>
      </trkpt>
      <trkpt lat="40.6633780" lon="-3.5108020">
        <ele>637.0</ele>
        <time>2020-09-29T08:14:09Z</time>
      </trkpt>
      <trkpt lat="40.6634480" lon="-3.5108030">
        <ele>637.0</ele>
        <time>2020-09-29T08:14:10Z</time>
      </trkpt>
      <trkpt lat="40.6634480" lon="-3.5108030">
        <ele>637.0</ele>
        <time>2020-09-29T08:14:11Z</time>
      </trkpt>
      <trkpt lat="40.6635830" lon="-3.5108070">
        <ele>637.0</ele>
        <time>2020-09-29T08:14:12Z</time>
      </trkpt>
      <trkpt lat="40.6636520" lon="-3.5108100">
        <ele>637.0</ele>
        <time>2020-09-29T08:14:13Z</time>
      </trkpt>
      <trkpt lat="40.6636520" lon="-3.5108100">
        <ele>637.0</ele>
        <time>2020-09-29T08:14:14Z</time>
      </trkpt>
      <trkpt lat="40.6637850" lon="-3.5108120">
        <ele>637.0</ele>
        <time>2020-09-29T08:14:15Z</time>
      </trkpt>
      <trkpt lat="40.6637850" lon="-3.5108120">
        <ele>637.0</ele>
        <time>2020-09-29T08:14:16Z</time>
      </trkpt>
      <trkpt lat="40.6639220" lon="-3.5108130">
        <ele>637.0</ele>
        <time>2020-09-29T08:14:17Z</time>
      </trkpt>
      <trkpt lat="40.6639900" lon="-3.5108120">
        <ele>637.0</ele>
        <time>2020-09-29T08:14:18Z</time>
      </trkpt>
      <trkpt lat="40.6640580" lon="-3.5108120">
        <ele>637.0</ele>
        <time>2020-09-29T08:14:19Z</time>
      </trkpt>
      <trkpt lat="40.6640580" lon="-3.5108120">
        <ele>637.0</ele>
        <time>2020-09-29T08:14:20Z</time>
      </trkpt>
      <trkpt lat="40.6641930" lon="-3.5108120">
        <ele>637.0</ele>
        <time>2020-09-29T08:14:21Z</time>
      </trkpt>
      <trkpt lat="40.6641930" lon="-3.5108120">
        <ele>637.0</ele>
        <time>2020-09-29T08:14:22Z</time>
      </trkpt>
      <trkpt lat="40.6643280" lon="-3.5108080">
        <ele>637.0</ele>
        <time>2020-09-29T08:14:23Z</time>
      </trkpt>
      <trkpt lat="40.6643970" lon="-3.5108080">
        <ele>637.0</ele>
        <time>2020-09-29T08:14:24Z</time>
      </trkpt>
      <trkpt lat="40.6643970" lon="-3.5108080">
        <ele>637.0</ele>
        <time>2020-09-29T08:14:25Z</time>
      </trkpt>
      <trkpt lat="40.6645320" lon="-3.5108070">
        <ele>637.0</ele>
        <time>2020-09-29T08:14:26Z</time>
      </trkpt>
      <trkpt lat="40.6645320" lon="-3.5108070">
        <ele>637.0</ele>
        <time>2020-09-29T08:14:27Z</time>
      </trkpt>
      <trkpt lat="40.6646670" lon="-3.5108070">
        <ele>637.0</ele>
        <time>2020-09-29T08:14:28Z</time>
      </trkpt>
      <trkpt lat="40.6646670" lon="-3.5108070">
        <ele>637.0</ele>
        <time>2020-09-29T08:14:29Z</time>
      </trkpt>
      <trkpt lat="40.6648020" lon="-3.5108050">
        <ele>637.0</ele>
        <time>2020-09-29T08:14:30Z</time>
      </trkpt>
      <trkpt lat="40.6648680" lon="-3.5108030">
        <ele>637.0</ele>
        <time>2020-09-29T08:14:31Z</time>
      </trkpt>
      <trkpt lat="40.6648680" lon="-3.5108030">
        <ele>637.0</ele>
        <time>2020-09-29T08:14:32Z</time>
      </trkpt>
      <trkpt lat="40.6650020" lon="-3.5108030">
        <ele>637.0</ele>
        <time>2020-09-29T08:14:33Z</time>
      </trkpt>
      <trkpt lat="40.6650680" lon="-3.5108050">
        <ele>637.0</ele>
        <time>2020-09-29T08:14:34Z</time>
      </trkpt>
      <trkpt lat="40.6650680" lon="-3.5108050">
        <ele>637.0</ele>
        <time>2020-09-29T08:14:35Z</time>
      </trkpt>
      <trkpt lat="40.6652000" lon="-3.5108050">
        <ele>637.0</ele>
        <time>2020-09-29T08:14:36Z</time>
      </trkpt>
      <trkpt lat="40.6652650" lon="-3.5108050">
        <ele>637.0</ele>
        <time>2020-09-29T08:14:37Z</time>
      </trkpt>
      <trkpt lat="40.6652650" lon="-3.5108050">
        <ele>637.0</ele>
        <time>2020-09-29T08:14:38Z</time>
      </trkpt>
      <trkpt lat="40.6653980" lon="-3.5108050">
        <ele>637.0</ele>
        <time>2020-09-29T08:14:39Z</time>
      </trkpt>
      <trkpt lat="40.6653980" lon="-3.5108050">
        <ele>637.0</ele>
        <time>2020-09-29T08:14:40Z</time>
      </trkpt>
      <trkpt lat="40.6655280" lon="-3.5108050">
        <ele>637.0</ele>
        <time>2020-09-29T08:14:41Z</time>
      </trkpt>
      <trkpt lat="40.6655280" lon="-3.5108050">
        <ele>637.0</ele>
        <time>2020-09-29T08:14:42Z</time>
      </trkpt>
      <trkpt lat="40.6656600" lon="-3.5108050">
        <ele>637.0</ele>
        <time>2020-09-29T08:14:43Z</time>
      </trkpt>
      <trkpt lat="40.6656600" lon="-3.5108050">
        <ele>637.0</ele>
        <time>2020-09-29T08:14:44Z</time>
      </trkpt>
      <trkpt lat="40.6657920" lon="-3.5108050">
        <ele>637.0</ele>
        <time>2020-09-29T08:14:45Z</time>
      </trkpt>
      <trkpt lat="40.6657920" lon="-3.5108050">
        <ele>637.0</ele>
        <time>2020-09-29T08:14:46Z</time>
      </trkpt>
      <trkpt lat="40.6659230" lon="-3.5108020">
        <ele>637.0</ele>
        <time>2020-09-29T08:14:47Z</time>
      </trkpt>
      <trkpt lat="40.6659230" lon="-3.5108020">
        <ele>637.0</ele>
        <time>2020-09-29T08:14:48Z</time>
      </trkpt>
      <trkpt lat="40.6660550" lon="-3.5108030">
        <ele>637.0</ele>
        <time>2020-09-29T08:14:49Z</time>
      </trkpt>
      <trkpt lat="40.6660550" lon="-3.5108030">
        <ele>637.0</ele>
        <time>2020-09-29T08:14:50Z</time>
      </trkpt>
      <trkpt lat="40.6661870" lon="-3.5108020">
        <ele>637.0</ele>
        <time>2020-09-29T08:14:51Z</time>
      </trkpt>
      <trkpt lat="40.6662520" lon="-3.5108020">
        <ele>637.0</ele>
        <time>2020-09-29T08:14:52Z</time>
      </trkpt>
      <trkpt lat="40.6662520" lon="-3.5108020">
        <ele>637.0</ele>
        <time>2020-09-29T08:14:53Z</time>
      </trkpt>
      <trkpt lat="40.6663830" lon="-3.5108020">
        <ele>637.0</ele>
        <time>2020-09-29T08:14:54Z</time>
      </trkpt>
      <trkpt lat="40.6664500" lon="-3.5108020">
        <ele>637.0</ele>
        <time>2020-09-29T08:14:55Z</time>
      </trkpt>
      <trkpt lat="40.6665150" lon="-3.5108020">
        <ele>637.0</ele>
        <time>2020-09-29T08:14:56Z</time>
      </trkpt>
      <trkpt lat="40.6665150" lon="-3.5108020">
        <ele>637.0</ele>
        <time>2020-09-29T08:14:57Z</time>
      </trkpt>
      <trkpt lat="40.6666470" lon="-3.5107970">
        <ele>637.0</ele>
        <time>2020-09-29T08:14:58Z</time>
      </trkpt>
      <trkpt lat="40.6666470" lon="-3.5107970">
        <ele>637.0</ele>
        <time>2020-09-29T08:14:59Z</time>
      </trkpt>
      <trkpt lat="40.6667800" lon="-3.5107980">
        <ele>637.0</ele>
        <time>2020-09-29T08:15:00Z</time>
      </trkpt>
      <trkpt lat="40.6667800" lon="-3.5107980">
        <ele>637.0</ele>
        <time>2020-09-29T08:15:01Z</time>
      </trkpt>
      <trkpt lat="40.6669170" lon="-3.5107970">
        <ele>637.0</ele>
        <time>2020-09-29T08:15:02Z</time>
      </trkpt>
      <trkpt lat="40.6669170" lon="-3.5107970">
        <ele>637.0</ele>
        <time>2020-09-29T08:15:03Z</time>
      </trkpt>
      <trkpt lat="40.6670530" lon="-3.5108000">
        <ele>637.0</ele>
        <time>2020-09-29T08:15:04Z</time>
      </trkpt>
      <trkpt lat="40.6671200" lon="-3.5108020">
        <ele>637.0</ele>
        <time>2020-09-29T08:15:05Z</time>
      </trkpt>
      <trkpt lat="40.6671200" lon="-3.5108020">
        <ele>637.0</ele>
        <time>2020-09-29T08:15:06Z</time>
      </trkpt>
      <trkpt lat="40.6672520" lon="-3.5108000">
        <ele>638.0</ele>
        <time>2020-09-29T08:15:07Z</time>
      </trkpt>
      <trkpt lat="40.6673170" lon="-3.5108000">
        <ele>638.0</ele>
        <time>2020-09-29T08:15:08Z</time>
      </trkpt>
      <trkpt lat="40.6673170" lon="-3.5108000">
        <ele>638.0</ele>
        <time>2020-09-29T08:15:09Z</time>
      </trkpt>
      <trkpt lat="40.6674450" lon="-3.5108020">
        <ele>638.0</ele>
        <time>2020-09-29T08:15:10Z</time>
      </trkpt>
      <trkpt lat="40.6674450" lon="-3.5108020">
        <ele>638.0</ele>
        <time>2020-09-29T08:15:11Z</time>
      </trkpt>
      <trkpt lat="40.6675730" lon="-3.5107980">
        <ele>638.0</ele>
        <time>2020-09-29T08:15:12Z</time>
      </trkpt>
      <trkpt lat="40.6675730" lon="-3.5107980">
        <ele>638.0</ele>
        <time>2020-09-29T08:15:13Z</time>
      </trkpt>
      <trkpt lat="40.6677020" lon="-3.5107980">
        <ele>638.0</ele>
        <time>2020-09-29T08:15:14Z</time>
      </trkpt>
      <trkpt lat="40.6677020" lon="-3.5107980">
        <ele>638.0</ele>
        <time>2020-09-29T08:15:15Z</time>
      </trkpt>
      <trkpt lat="40.6678320" lon="-3.5107970">
        <ele>638.0</ele>
        <time>2020-09-29T08:15:16Z</time>
      </trkpt>
      <trkpt lat="40.6678320" lon="-3.5107970">
        <ele>638.0</ele>
        <time>2020-09-29T08:15:17Z</time>
      </trkpt>
      <trkpt lat="40.6679600" lon="-3.5107930">
        <ele>638.0</ele>
        <time>2020-09-29T08:15:18Z</time>
      </trkpt>
      <trkpt lat="40.6680270" lon="-3.5107920">
        <ele>638.0</ele>
        <time>2020-09-29T08:15:19Z</time>
      </trkpt>
      <trkpt lat="40.6680270" lon="-3.5107920">
        <ele>638.0</ele>
        <time>2020-09-29T08:15:20Z</time>
      </trkpt>
      <trkpt lat="40.6681570" lon="-3.5107920">
        <ele>638.0</ele>
        <time>2020-09-29T08:15:21Z</time>
      </trkpt>
      <trkpt lat="40.6682220" lon="-3.5107920">
        <ele>638.0</ele>
        <time>2020-09-29T08:15:22Z</time>
      </trkpt>
      <trkpt lat="40.6682220" lon="-3.5107920">
        <ele>638.0</ele>
        <time>2020-09-29T08:15:23Z</time>
      </trkpt>
      <trkpt lat="40.6683520" lon="-3.5107920">
        <ele>638.0</ele>
        <time>2020-09-29T08:15:24Z</time>
      </trkpt>
      <trkpt lat="40.6684170" lon="-3.5107900">
        <ele>638.0</ele>
        <time>2020-09-29T08:15:25Z</time>
      </trkpt>
      <trkpt lat="40.6684170" lon="-3.5107900">
        <ele>638.0</ele>
        <time>2020-09-29T08:15:26Z</time>
      </trkpt>
      <trkpt lat="40.6685480" lon="-3.5107880">
        <ele>638.0</ele>
        <time>2020-09-29T08:15:27Z</time>
      </trkpt>
      <trkpt lat="40.6686150" lon="-3.5107880">
        <ele>638.0</ele>
        <time>2020-09-29T08:15:28Z</time>
      </trkpt>
      <trkpt lat="40.6686800" lon="-3.5107880">
        <ele>638.0</ele>
        <time>2020-09-29T08:15:29Z</time>
      </trkpt>
      <trkpt lat="40.6686800" lon="-3.5107880">
        <ele>638.0</ele>
        <time>2020-09-29T08:15:30Z</time>
      </trkpt>
      <trkpt lat="40.6688120" lon="-3.5107900">
        <ele>638.0</ele>
        <time>2020-09-29T08:15:31Z</time>
      </trkpt>
      <trkpt lat="40.6688120" lon="-3.5107900">
        <ele>638.0</ele>
        <time>2020-09-29T08:15:32Z</time>
      </trkpt>
      <trkpt lat="40.6689430" lon="-3.5107900">
        <ele>638.0</ele>
        <time>2020-09-29T08:15:33Z</time>
      </trkpt>
      <trkpt lat="40.6690100" lon="-3.5107880">
        <ele>638.0</ele>
        <time>2020-09-29T08:15:34Z</time>
      </trkpt>
      <trkpt lat="40.6690100" lon="-3.5107880">
        <ele>638.0</ele>
        <time>2020-09-29T08:15:35Z</time>
      </trkpt>
      <trkpt lat="40.6691430" lon="-3.5107900">
        <ele>638.0</ele>
        <time>2020-09-29T08:15:36Z</time>
      </trkpt>
      <trkpt lat="40.6692100" lon="-3.5107900">
        <ele>638.0</ele>
        <time>2020-09-29T08:15:37Z</time>
      </trkpt>
      <trkpt lat="40.6692100" lon="-3.5107900">
        <ele>638.0</ele>
        <time>2020-09-29T08:15:38Z</time>
      </trkpt>
      <trkpt lat="40.6693430" lon="-3.5107870">
        <ele>638.0</ele>
        <time>2020-09-29T08:15:39Z</time>
      </trkpt>
      <trkpt lat="40.6693430" lon="-3.5107870">
        <ele>638.0</ele>
        <time>2020-09-29T08:15:40Z</time>
      </trkpt>
      <trkpt lat="40.6694780" lon="-3.5107850">
        <ele>639.0</ele>
        <time>2020-09-29T08:15:41Z</time>
      </trkpt>
      <trkpt lat="40.6695450" lon="-3.5107850">
        <ele>639.0</ele>
        <time>2020-09-29T08:15:42Z</time>
      </trkpt>
      <trkpt lat="40.6695450" lon="-3.5107850">
        <ele>639.0</ele>
        <time>2020-09-29T08:15:43Z</time>
      </trkpt>
      <trkpt lat="40.6696800" lon="-3.5107830">
        <ele>639.0</ele>
        <time>2020-09-29T08:15:44Z</time>
      </trkpt>
      <trkpt lat="40.6696800" lon="-3.5107830">
        <ele>639.0</ele>
        <time>2020-09-29T08:15:45Z</time>
      </trkpt>
      <trkpt lat="40.6698150" lon="-3.5107830">
        <ele>639.0</ele>
        <time>2020-09-29T08:15:46Z</time>
      </trkpt>
      <trkpt lat="40.6698150" lon="-3.5107830">
        <ele>639.0</ele>
        <time>2020-09-29T08:15:47Z</time>
      </trkpt>
      <trkpt lat="40.6699480" lon="-3.5107830">
        <ele>639.0</ele>
        <time>2020-09-29T08:15:48Z</time>
      </trkpt>
      <trkpt lat="40.6700130" lon="-3.5107830">
        <ele>639.0</ele>
        <time>2020-09-29T08:15:49Z</time>
      </trkpt>
      <trkpt lat="40.6700130" lon="-3.5107830">
        <ele>639.0</ele>
        <time>2020-09-29T08:15:50Z</time>
      </trkpt>
      <trkpt lat="40.6701470" lon="-3.5107830">
        <ele>639.0</ele>
        <time>2020-09-29T08:15:51Z</time>
      </trkpt>
      <trkpt lat="40.6702150" lon="-3.5107830">
        <ele>639.0</ele>
        <time>2020-09-29T08:15:52Z</time>
      </trkpt>
      <trkpt lat="40.6702820" lon="-3.5107870">
        <ele>639.0</ele>
        <time>2020-09-29T08:15:53Z</time>
      </trkpt>
      <trkpt lat="40.6702820" lon="-3.5107870">
        <ele>639.0</ele>
        <time>2020-09-29T08:15:54Z</time>
      </trkpt>
      <trkpt lat="40.6704180" lon="-3.5107850">
        <ele>639.0</ele>
        <time>2020-09-29T08:15:55Z</time>
      </trkpt>
      <trkpt lat="40.6704180" lon="-3.5107850">
        <ele>639.0</ele>
        <time>2020-09-29T08:15:56Z</time>
      </trkpt>
      <trkpt lat="40.6705520" lon="-3.5107830">
        <ele>639.0</ele>
        <time>2020-09-29T08:15:57Z</time>
      </trkpt>
      <trkpt lat="40.6706170" lon="-3.5107830">
        <ele>639.0</ele>
        <time>2020-09-29T08:15:58Z</time>
      </trkpt>
      <trkpt lat="40.6706830" lon="-3.5107850">
        <ele>639.0</ele>
        <time>2020-09-29T08:15:59Z</time>
      </trkpt>
      <trkpt lat="40.6706830" lon="-3.5107850">
        <ele>639.0</ele>
        <time>2020-09-29T08:16:00Z</time>
      </trkpt>
      <trkpt lat="40.6708150" lon="-3.5107850">
        <ele>639.0</ele>
        <time>2020-09-29T08:16:01Z</time>
      </trkpt>
      <trkpt lat="40.6708150" lon="-3.5107850">
        <ele>639.0</ele>
        <time>2020-09-29T08:16:02Z</time>
      </trkpt>
      <trkpt lat="40.6709500" lon="-3.5107870">
        <ele>640.0</ele>
        <time>2020-09-29T08:16:03Z</time>
      </trkpt>
      <trkpt lat="40.6710170" lon="-3.5107880">
        <ele>640.0</ele>
        <time>2020-09-29T08:16:04Z</time>
      </trkpt>
      <trkpt lat="40.6710170" lon="-3.5107880">
        <ele>640.0</ele>
        <time>2020-09-29T08:16:05Z</time>
      </trkpt>
      <trkpt lat="40.6711520" lon="-3.5107870">
        <ele>640.0</ele>
        <time>2020-09-29T08:16:06Z</time>
      </trkpt>
      <trkpt lat="40.6712180" lon="-3.5107870">
        <ele>640.0</ele>
        <time>2020-09-29T08:16:07Z</time>
      </trkpt>
      <trkpt lat="40.6712180" lon="-3.5107870">
        <ele>640.0</ele>
        <time>2020-09-29T08:16:08Z</time>
      </trkpt>
      <trkpt lat="40.6713550" lon="-3.5107880">
        <ele>640.0</ele>
        <time>2020-09-29T08:16:09Z</time>
      </trkpt>
      <trkpt lat="40.6713550" lon="-3.5107880">
        <ele>640.0</ele>
        <time>2020-09-29T08:16:10Z</time>
      </trkpt>
      <trkpt lat="40.6714900" lon="-3.5107870">
        <ele>640.0</ele>
        <time>2020-09-29T08:16:11Z</time>
      </trkpt>
      <trkpt lat="40.6714900" lon="-3.5107870">
        <ele>640.0</ele>
        <time>2020-09-29T08:16:12Z</time>
      </trkpt>
      <trkpt lat="40.6716230" lon="-3.5107850">
        <ele>640.0</ele>
        <time>2020-09-29T08:16:13Z</time>
      </trkpt>
      <trkpt lat="40.6716900" lon="-3.5107850">
        <ele>640.0</ele>
        <time>2020-09-29T08:16:14Z</time>
      </trkpt>
      <trkpt lat="40.6716900" lon="-3.5107850">
        <ele>640.0</ele>
        <time>2020-09-29T08:16:15Z</time>
      </trkpt>
      <trkpt lat="40.6718230" lon="-3.5107830">
        <ele>640.0</ele>
        <time>2020-09-29T08:16:16Z</time>
      </trkpt>
      <trkpt lat="40.6718900" lon="-3.5107820">
        <ele>640.0</ele>
        <time>2020-09-29T08:16:17Z</time>
      </trkpt>
      <trkpt lat="40.6718900" lon="-3.5107820">
        <ele>640.0</ele>
        <time>2020-09-29T08:16:18Z</time>
      </trkpt>
      <trkpt lat="40.6720220" lon="-3.5107800">
        <ele>640.0</ele>
        <time>2020-09-29T08:16:19Z</time>
      </trkpt>
      <trkpt lat="40.6720870" lon="-3.5107780">
        <ele>640.0</ele>
        <time>2020-09-29T08:16:20Z</time>
      </trkpt>
      <trkpt lat="40.6720870" lon="-3.5107780">
        <ele>640.0</ele>
        <time>2020-09-29T08:16:21Z</time>
      </trkpt>
      <trkpt lat="40.6722170" lon="-3.5107780">
        <ele>640.0</ele>
        <time>2020-09-29T08:16:22Z</time>
      </trkpt>
      <trkpt lat="40.6722170" lon="-3.5107780">
        <ele>640.0</ele>
        <time>2020-09-29T08:16:23Z</time>
      </trkpt>
      <trkpt lat="40.6723470" lon="-3.5107780">
        <ele>640.0</ele>
        <time>2020-09-29T08:16:24Z</time>
      </trkpt>
      <trkpt lat="40.6724120" lon="-3.5107780">
        <ele>640.0</ele>
        <time>2020-09-29T08:16:25Z</time>
      </trkpt>
      <trkpt lat="40.6724120" lon="-3.5107780">
        <ele>640.0</ele>
        <time>2020-09-29T08:16:26Z</time>
      </trkpt>
      <trkpt lat="40.6725420" lon="-3.5107770">
        <ele>640.0</ele>
        <time>2020-09-29T08:16:27Z</time>
      </trkpt>
      <trkpt lat="40.6726070" lon="-3.5107770">
        <ele>640.0</ele>
        <time>2020-09-29T08:16:28Z</time>
      </trkpt>
      <trkpt lat="40.6726070" lon="-3.5107770">
        <ele>640.0</ele>
        <time>2020-09-29T08:16:29Z</time>
      </trkpt>
      <trkpt lat="40.6727350" lon="-3.5107750">
        <ele>640.0</ele>
        <time>2020-09-29T08:16:30Z</time>
      </trkpt>
      <trkpt lat="40.6727350" lon="-3.5107750">
        <ele>640.0</ele>
        <time>2020-09-29T08:16:31Z</time>
      </trkpt>
      <trkpt lat="40.6728650" lon="-3.5107730">
        <ele>640.0</ele>
        <time>2020-09-29T08:16:32Z</time>
      </trkpt>
      <trkpt lat="40.6728650" lon="-3.5107730">
        <ele>640.0</ele>
        <time>2020-09-29T08:16:33Z</time>
      </trkpt>
      <trkpt lat="40.6729930" lon="-3.5107720">
        <ele>640.0</ele>
        <time>2020-09-29T08:16:34Z</time>
      </trkpt>
      <trkpt lat="40.6729930" lon="-3.5107720">
        <ele>640.0</ele>
        <time>2020-09-29T08:16:35Z</time>
      </trkpt>
      <trkpt lat="40.6731250" lon="-3.5107620">
        <ele>640.0</ele>
        <time>2020-09-29T08:16:36Z</time>
      </trkpt>
      <trkpt lat="40.6731250" lon="-3.5107620">
        <ele>640.0</ele>
        <time>2020-09-29T08:16:37Z</time>
      </trkpt>
      <trkpt lat="40.6732550" lon="-3.5107520">
        <ele>641.0</ele>
        <time>2020-09-29T08:16:38Z</time>
      </trkpt>
      <trkpt lat="40.6732550" lon="-3.5107520">
        <ele>641.0</ele>
        <time>2020-09-29T08:16:39Z</time>
      </trkpt>
      <trkpt lat="40.6733870" lon="-3.5107400">
        <ele>641.0</ele>
        <time>2020-09-29T08:16:40Z</time>
      </trkpt>
      <trkpt lat="40.6733870" lon="-3.5107400">
        <ele>641.0</ele>
        <time>2020-09-29T08:16:41Z</time>
      </trkpt>
      <trkpt lat="40.6735180" lon="-3.5107230">
        <ele>641.0</ele>
        <time>2020-09-29T08:16:42Z</time>
      </trkpt>
      <trkpt lat="40.6735830" lon="-3.5107120">
        <ele>641.0</ele>
        <time>2020-09-29T08:16:43Z</time>
      </trkpt>
      <trkpt lat="40.6735830" lon="-3.5107120">
        <ele>641.0</ele>
        <time>2020-09-29T08:16:44Z</time>
      </trkpt>
      <trkpt lat="40.6737130" lon="-3.5106830">
        <ele>641.0</ele>
        <time>2020-09-29T08:16:45Z</time>
      </trkpt>
      <trkpt lat="40.6737780" lon="-3.5106650">
        <ele>641.0</ele>
        <time>2020-09-29T08:16:46Z</time>
      </trkpt>
      <trkpt lat="40.6737780" lon="-3.5106650">
        <ele>641.0</ele>
        <time>2020-09-29T08:16:47Z</time>
      </trkpt>
      <trkpt lat="40.6738980" lon="-3.5106050">
        <ele>641.0</ele>
        <time>2020-09-29T08:16:48Z</time>
      </trkpt>
      <trkpt lat="40.6738980" lon="-3.5106050">
        <ele>641.0</ele>
        <time>2020-09-29T08:16:49Z</time>
      </trkpt>
      <trkpt lat="40.6740050" lon="-3.5105130">
        <ele>641.0</ele>
        <time>2020-09-29T08:16:50Z</time>
      </trkpt>
      <trkpt lat="40.6740050" lon="-3.5105130">
        <ele>641.0</ele>
        <time>2020-09-29T08:16:51Z</time>
      </trkpt>
      <trkpt lat="40.6741320" lon="-3.5104700">
        <ele>641.0</ele>
        <time>2020-09-29T08:16:52Z</time>
      </trkpt>
      <trkpt lat="40.6741320" lon="-3.5104700">
        <ele>641.0</ele>
        <time>2020-09-29T08:16:53Z</time>
      </trkpt>
      <trkpt lat="40.6742580" lon="-3.5104970">
        <ele>641.0</ele>
        <time>2020-09-29T08:16:54Z</time>
      </trkpt>
      <trkpt lat="40.6743150" lon="-3.5105370">
        <ele>641.0</ele>
        <time>2020-09-29T08:16:55Z</time>
      </trkpt>
      <trkpt lat="40.6743150" lon="-3.5105370">
        <ele>641.0</ele>
        <time>2020-09-29T08:16:56Z</time>
      </trkpt>
      <trkpt lat="40.6744220" lon="-3.5106400">
        <ele>641.0</ele>
        <time>2020-09-29T08:16:57Z</time>
      </trkpt>
      <trkpt lat="40.6744830" lon="-3.5106820">
        <ele>641.0</ele>
        <time>2020-09-29T08:16:58Z</time>
      </trkpt>
      <trkpt lat="40.6744830" lon="-3.5106820">
        <ele>641.0</ele>
        <time>2020-09-29T08:16:59Z</time>
      </trkpt>
      <trkpt lat="40.6746200" lon="-3.5107180">
        <ele>641.0</ele>
        <time>2020-09-29T08:17:00Z</time>
      </trkpt>
      <trkpt lat="40.6746880" lon="-3.5107250">
        <ele>641.0</ele>
        <time>2020-09-29T08:17:01Z</time>
      </trkpt>
      <trkpt lat="40.6747550" lon="-3.5107280">
        <ele>641.0</ele>
        <time>2020-09-29T08:17:02Z</time>
      </trkpt>
      <trkpt lat="40.6747550" lon="-3.5107280">
        <ele>641.0</ele>
        <time>2020-09-29T08:17:03Z</time>
      </trkpt>
      <trkpt lat="40.6748900" lon="-3.5107350">
        <ele>641.0</ele>
        <time>2020-09-29T08:17:04Z</time>
      </trkpt>
      <trkpt lat="40.6748900" lon="-3.5107350">
        <ele>641.0</ele>
        <time>2020-09-29T08:17:05Z</time>
      </trkpt>
      <trkpt lat="40.6750270" lon="-3.5107380">
        <ele>641.0</ele>
        <time>2020-09-29T08:17:06Z</time>
      </trkpt>
      <trkpt lat="40.6750270" lon="-3.5107380">
        <ele>641.0</ele>
        <time>2020-09-29T08:17:07Z</time>
      </trkpt>
      <trkpt lat="40.6751600" lon="-3.5107450">
        <ele>641.0</ele>
        <time>2020-09-29T08:17:08Z</time>
      </trkpt>
      <trkpt lat="40.6752270" lon="-3.5107530">
        <ele>641.0</ele>
        <time>2020-09-29T08:17:09Z</time>
      </trkpt>
      <trkpt lat="40.6752270" lon="-3.5107530">
        <ele>641.0</ele>
        <time>2020-09-29T08:17:10Z</time>
      </trkpt>
      <trkpt lat="40.6753580" lon="-3.5107650">
        <ele>641.0</ele>
        <time>2020-09-29T08:17:11Z</time>
      </trkpt>
      <trkpt lat="40.6753580" lon="-3.5107650">
        <ele>641.0</ele>
        <time>2020-09-29T08:17:12Z</time>
      </trkpt>
      <trkpt lat="40.6754900" lon="-3.5107700">
        <ele>641.0</ele>
        <time>2020-09-29T08:17:13Z</time>
      </trkpt>
      <trkpt lat="40.6754900" lon="-3.5107700">
        <ele>641.0</ele>
        <time>2020-09-29T08:17:14Z</time>
      </trkpt>
      <trkpt lat="40.6756230" lon="-3.5107680">
        <ele>641.0</ele>
        <time>2020-09-29T08:17:15Z</time>
      </trkpt>
      <trkpt lat="40.6756230" lon="-3.5107680">
        <ele>641.0</ele>
        <time>2020-09-29T08:17:16Z</time>
      </trkpt>
      <trkpt lat="40.6757570" lon="-3.5107670">
        <ele>641.0</ele>
        <time>2020-09-29T08:17:17Z</time>
      </trkpt>
      <trkpt lat="40.6757570" lon="-3.5107670">
        <ele>641.0</ele>
        <time>2020-09-29T08:17:18Z</time>
      </trkpt>
      <trkpt lat="40.6758880" lon="-3.5107680">
        <ele>641.0</ele>
        <time>2020-09-29T08:17:19Z</time>
      </trkpt>
      <trkpt lat="40.6758880" lon="-3.5107680">
        <ele>641.0</ele>
        <time>2020-09-29T08:17:20Z</time>
      </trkpt>
      <trkpt lat="40.6760220" lon="-3.5107680">
        <ele>641.0</ele>
        <time>2020-09-29T08:17:21Z</time>
      </trkpt>
      <trkpt lat="40.6760220" lon="-3.5107680">
        <ele>641.0</ele>
        <time>2020-09-29T08:17:22Z</time>
      </trkpt>
      <trkpt lat="40.6761530" lon="-3.5107720">
        <ele>641.0</ele>
        <time>2020-09-29T08:17:23Z</time>
      </trkpt>
      <trkpt lat="40.6762200" lon="-3.5107700">
        <ele>641.0</ele>
        <time>2020-09-29T08:17:24Z</time>
      </trkpt>
      <trkpt lat="40.6762200" lon="-3.5107700">
        <ele>641.0</ele>
        <time>2020-09-29T08:17:25Z</time>
      </trkpt>
      <trkpt lat="40.6763520" lon="-3.5107680">
        <ele>641.0</ele>
        <time>2020-09-29T08:17:26Z</time>
      </trkpt>
      <trkpt lat="40.6764170" lon="-3.5107700">
        <ele>641.0</ele>
        <time>2020-09-29T08:17:27Z</time>
      </trkpt>
      <trkpt lat="40.6764170" lon="-3.5107700">
        <ele>641.0</ele>
        <time>2020-09-29T08:17:28Z</time>
      </trkpt>
      <trkpt lat="40.6765500" lon="-3.5107720">
        <ele>641.0</ele>
        <time>2020-09-29T08:17:29Z</time>
      </trkpt>
      <trkpt lat="40.6766180" lon="-3.5107680">
        <ele>641.0</ele>
        <time>2020-09-29T08:17:30Z</time>
      </trkpt>
      <trkpt lat="40.6766870" lon="-3.5107680">
        <ele>641.0</ele>
        <time>2020-09-29T08:17:31Z</time>
      </trkpt>
      <trkpt lat="40.6766870" lon="-3.5107680">
        <ele>641.0</ele>
        <time>2020-09-29T08:17:32Z</time>
      </trkpt>
      <trkpt lat="40.6768220" lon="-3.5107730">
        <ele>641.0</ele>
        <time>2020-09-29T08:17:33Z</time>
      </trkpt>
      <trkpt lat="40.6768220" lon="-3.5107730">
        <ele>641.0</ele>
        <time>2020-09-29T08:17:34Z</time>
      </trkpt>
      <trkpt lat="40.6769600" lon="-3.5107680">
        <ele>640.0</ele>
        <time>2020-09-29T08:17:35Z</time>
      </trkpt>
      <trkpt lat="40.6770270" lon="-3.5107680">
        <ele>640.0</ele>
        <time>2020-09-29T08:17:36Z</time>
      </trkpt>
      <trkpt lat="40.6770270" lon="-3.5107680">
        <ele>640.0</ele>
        <time>2020-09-29T08:17:37Z</time>
      </trkpt>
      <trkpt lat="40.6771630" lon="-3.5107700">
        <ele>640.0</ele>
        <time>2020-09-29T08:17:38Z</time>
      </trkpt>
      <trkpt lat="40.6772320" lon="-3.5107670">
        <ele>640.0</ele>
        <time>2020-09-29T08:17:39Z</time>
      </trkpt>
      <trkpt lat="40.6772320" lon="-3.5107670">
        <ele>640.0</ele>
        <time>2020-09-29T08:17:40Z</time>
      </trkpt>
      <trkpt lat="40.6773680" lon="-3.5107670">
        <ele>640.0</ele>
        <time>2020-09-29T08:17:41Z</time>
      </trkpt>
      <trkpt lat="40.6774400" lon="-3.5107650">
        <ele>640.0</ele>
        <time>2020-09-29T08:17:42Z</time>
      </trkpt>
      <trkpt lat="40.6774400" lon="-3.5107650">
        <ele>640.0</ele>
        <time>2020-09-29T08:17:43Z</time>
      </trkpt>
      <trkpt lat="40.6775800" lon="-3.5107630">
        <ele>640.0</ele>
        <time>2020-09-29T08:17:44Z</time>
      </trkpt>
      <trkpt lat="40.6775800" lon="-3.5107630">
        <ele>640.0</ele>
        <time>2020-09-29T08:17:45Z</time>
      </trkpt>
      <trkpt lat="40.6777180" lon="-3.5107630">
        <ele>640.0</ele>
        <time>2020-09-29T08:17:46Z</time>
      </trkpt>
      <trkpt lat="40.6777180" lon="-3.5107630">
        <ele>641.0</ele>
        <time>2020-09-29T08:17:47Z</time>
      </trkpt>
      <trkpt lat="40.6778570" lon="-3.5107630">
        <ele>641.0</ele>
        <time>2020-09-29T08:17:48Z</time>
      </trkpt>
      <trkpt lat="40.6779230" lon="-3.5107630">
        <ele>641.0</ele>
        <time>2020-09-29T08:17:49Z</time>
      </trkpt>
      <trkpt lat="40.6779230" lon="-3.5107630">
        <ele>641.0</ele>
        <time>2020-09-29T08:17:50Z</time>
      </trkpt>
      <trkpt lat="40.6780580" lon="-3.5107630">
        <ele>641.0</ele>
        <time>2020-09-29T08:17:51Z</time>
      </trkpt>
      <trkpt lat="40.6780580" lon="-3.5107630">
        <ele>641.0</ele>
        <time>2020-09-29T08:17:52Z</time>
      </trkpt>
      <trkpt lat="40.6781930" lon="-3.5107620">
        <ele>641.0</ele>
        <time>2020-09-29T08:17:53Z</time>
      </trkpt>
      <trkpt lat="40.6781930" lon="-3.5107620">
        <ele>641.0</ele>
        <time>2020-09-29T08:17:54Z</time>
      </trkpt>
      <trkpt lat="40.6783280" lon="-3.5107580">
        <ele>641.0</ele>
        <time>2020-09-29T08:17:55Z</time>
      </trkpt>
      <trkpt lat="40.6783280" lon="-3.5107580">
        <ele>641.0</ele>
        <time>2020-09-29T08:17:56Z</time>
      </trkpt>
      <trkpt lat="40.6784600" lon="-3.5107570">
        <ele>641.0</ele>
        <time>2020-09-29T08:17:57Z</time>
      </trkpt>
      <trkpt lat="40.6784600" lon="-3.5107570">
        <ele>641.0</ele>
        <time>2020-09-29T08:17:58Z</time>
      </trkpt>
      <trkpt lat="40.6785920" lon="-3.5107550">
        <ele>641.0</ele>
        <time>2020-09-29T08:17:59Z</time>
      </trkpt>
      <trkpt lat="40.6785920" lon="-3.5107550">
        <ele>641.0</ele>
        <time>2020-09-29T08:18:00Z</time>
      </trkpt>
      <trkpt lat="40.6787230" lon="-3.5107530">
        <ele>641.0</ele>
        <time>2020-09-29T08:18:01Z</time>
      </trkpt>
      <trkpt lat="40.6787230" lon="-3.5107530">
        <ele>641.0</ele>
        <time>2020-09-29T08:18:02Z</time>
      </trkpt>
      <trkpt lat="40.6788530" lon="-3.5107550">
        <ele>641.0</ele>
        <time>2020-09-29T08:18:03Z</time>
      </trkpt>
      <trkpt lat="40.6788530" lon="-3.5107550">
        <ele>641.0</ele>
        <time>2020-09-29T08:18:04Z</time>
      </trkpt>
      <trkpt lat="40.6789820" lon="-3.5107520">
        <ele>641.0</ele>
        <time>2020-09-29T08:18:05Z</time>
      </trkpt>
      <trkpt lat="40.6789820" lon="-3.5107520">
        <ele>641.0</ele>
        <time>2020-09-29T08:18:06Z</time>
      </trkpt>
      <trkpt lat="40.6791130" lon="-3.5107500">
        <ele>641.0</ele>
        <time>2020-09-29T08:18:07Z</time>
      </trkpt>
      <trkpt lat="40.6791130" lon="-3.5107500">
        <ele>641.0</ele>
        <time>2020-09-29T08:18:08Z</time>
      </trkpt>
      <trkpt lat="40.6792430" lon="-3.5107480">
        <ele>641.0</ele>
        <time>2020-09-29T08:18:09Z</time>
      </trkpt>
      <trkpt lat="40.6793080" lon="-3.5107480">
        <ele>641.0</ele>
        <time>2020-09-29T08:18:10Z</time>
      </trkpt>
      <trkpt lat="40.6793080" lon="-3.5107480">
        <ele>641.0</ele>
        <time>2020-09-29T08:18:11Z</time>
      </trkpt>
      <trkpt lat="40.6794380" lon="-3.5107470">
        <ele>641.0</ele>
        <time>2020-09-29T08:18:12Z</time>
      </trkpt>
      <trkpt lat="40.6794380" lon="-3.5107470">
        <ele>641.0</ele>
        <time>2020-09-29T08:18:13Z</time>
      </trkpt>
      <trkpt lat="40.6795680" lon="-3.5107450">
        <ele>641.0</ele>
        <time>2020-09-29T08:18:14Z</time>
      </trkpt>
      <trkpt lat="40.6795680" lon="-3.5107450">
        <ele>641.0</ele>
        <time>2020-09-29T08:18:15Z</time>
      </trkpt>
      <trkpt lat="40.6797000" lon="-3.5107470">
        <ele>641.0</ele>
        <time>2020-09-29T08:18:16Z</time>
      </trkpt>
      <trkpt lat="40.6797650" lon="-3.5107450">
        <ele>641.0</ele>
        <time>2020-09-29T08:18:17Z</time>
      </trkpt>
      <trkpt lat="40.6797650" lon="-3.5107450">
        <ele>641.0</ele>
        <time>2020-09-29T08:18:18Z</time>
      </trkpt>
      <trkpt lat="40.6798970" lon="-3.5107430">
        <ele>641.0</ele>
        <time>2020-09-29T08:18:19Z</time>
      </trkpt>
      <trkpt lat="40.6798970" lon="-3.5107430">
        <ele>641.0</ele>
        <time>2020-09-29T08:18:20Z</time>
      </trkpt>
      <trkpt lat="40.6800280" lon="-3.5107450">
        <ele>641.0</ele>
        <time>2020-09-29T08:18:21Z</time>
      </trkpt>
      <trkpt lat="40.6800950" lon="-3.5107470">
        <ele>641.0</ele>
        <time>2020-09-29T08:18:22Z</time>
      </trkpt>
      <trkpt lat="40.6800950" lon="-3.5107470">
        <ele>641.0</ele>
        <time>2020-09-29T08:18:23Z</time>
      </trkpt>
      <trkpt lat="40.6802280" lon="-3.5107470">
        <ele>641.0</ele>
        <time>2020-09-29T08:18:24Z</time>
      </trkpt>
      <trkpt lat="40.6802970" lon="-3.5107470">
        <ele>641.0</ele>
        <time>2020-09-29T08:18:25Z</time>
      </trkpt>
      <trkpt lat="40.6803650" lon="-3.5107470">
        <ele>641.0</ele>
        <time>2020-09-29T08:18:26Z</time>
      </trkpt>
      <trkpt lat="40.6803650" lon="-3.5107470">
        <ele>641.0</ele>
        <time>2020-09-29T08:18:27Z</time>
      </trkpt>
      <trkpt lat="40.6805000" lon="-3.5107480">
        <ele>641.0</ele>
        <time>2020-09-29T08:18:28Z</time>
      </trkpt>
      <trkpt lat="40.6805000" lon="-3.5107480">
        <ele>641.0</ele>
        <time>2020-09-29T08:18:29Z</time>
      </trkpt>
      <trkpt lat="40.6806350" lon="-3.5107500">
        <ele>641.0</ele>
        <time>2020-09-29T08:18:30Z</time>
      </trkpt>
      <trkpt lat="40.6806350" lon="-3.5107500">
        <ele>641.0</ele>
        <time>2020-09-29T08:18:31Z</time>
      </trkpt>
      <trkpt lat="40.6807720" lon="-3.5107480">
        <ele>641.0</ele>
        <time>2020-09-29T08:18:32Z</time>
      </trkpt>
      <trkpt lat="40.6807720" lon="-3.5107480">
        <ele>641.0</ele>
        <time>2020-09-29T08:18:33Z</time>
      </trkpt>
      <trkpt lat="40.6809070" lon="-3.5107500">
        <ele>641.0</ele>
        <time>2020-09-29T08:18:34Z</time>
      </trkpt>
      <trkpt lat="40.6809750" lon="-3.5107500">
        <ele>641.0</ele>
        <time>2020-09-29T08:18:35Z</time>
      </trkpt>
      <trkpt lat="40.6809750" lon="-3.5107500">
        <ele>641.0</ele>
        <time>2020-09-29T08:18:36Z</time>
      </trkpt>
      <trkpt lat="40.6811080" lon="-3.5107480">
        <ele>641.0</ele>
        <time>2020-09-29T08:18:37Z</time>
      </trkpt>
      <trkpt lat="40.6811750" lon="-3.5107470">
        <ele>641.0</ele>
        <time>2020-09-29T08:18:38Z</time>
      </trkpt>
      <trkpt lat="40.6811750" lon="-3.5107470">
        <ele>641.0</ele>
        <time>2020-09-29T08:18:39Z</time>
      </trkpt>
      <trkpt lat="40.6813070" lon="-3.5107450">
        <ele>641.0</ele>
        <time>2020-09-29T08:18:40Z</time>
      </trkpt>
      <trkpt lat="40.6813070" lon="-3.5107450">
        <ele>641.0</ele>
        <time>2020-09-29T08:18:41Z</time>
      </trkpt>
      <trkpt lat="40.6814370" lon="-3.5107430">
        <ele>641.0</ele>
        <time>2020-09-29T08:18:42Z</time>
      </trkpt>
      <trkpt lat="40.6815030" lon="-3.5107420">
        <ele>641.0</ele>
        <time>2020-09-29T08:18:43Z</time>
      </trkpt>
      <trkpt lat="40.6815030" lon="-3.5107420">
        <ele>641.0</ele>
        <time>2020-09-29T08:18:44Z</time>
      </trkpt>
      <trkpt lat="40.6816330" lon="-3.5107400">
        <ele>641.0</ele>
        <time>2020-09-29T08:18:45Z</time>
      </trkpt>
      <trkpt lat="40.6816330" lon="-3.5107400">
        <ele>641.0</ele>
        <time>2020-09-29T08:18:46Z</time>
      </trkpt>
      <trkpt lat="40.6817630" lon="-3.5107380">
        <ele>641.0</ele>
        <time>2020-09-29T08:18:47Z</time>
      </trkpt>
      <trkpt lat="40.6817630" lon="-3.5107380">
        <ele>641.0</ele>
        <time>2020-09-29T08:18:48Z</time>
      </trkpt>
      <trkpt lat="40.6818900" lon="-3.5107370">
        <ele>641.0</ele>
        <time>2020-09-29T08:18:49Z</time>
      </trkpt>
      <trkpt lat="40.6818900" lon="-3.5107370">
        <ele>641.0</ele>
        <time>2020-09-29T08:18:50Z</time>
      </trkpt>
      <trkpt lat="40.6820180" lon="-3.5107370">
        <ele>641.0</ele>
        <time>2020-09-29T08:18:51Z</time>
      </trkpt>
      <trkpt lat="40.6820180" lon="-3.5107370">
        <ele>641.0</ele>
        <time>2020-09-29T08:18:52Z</time>
      </trkpt>
      <trkpt lat="40.6821450" lon="-3.5107380">
        <ele>641.0</ele>
        <time>2020-09-29T08:18:53Z</time>
      </trkpt>
      <trkpt lat="40.6822080" lon="-3.5107370">
        <ele>641.0</ele>
        <time>2020-09-29T08:18:54Z</time>
      </trkpt>
      <trkpt lat="40.6822080" lon="-3.5107370">
        <ele>641.0</ele>
        <time>2020-09-29T08:18:55Z</time>
      </trkpt>
      <trkpt lat="40.6823350" lon="-3.5107350">
        <ele>642.0</ele>
        <time>2020-09-29T08:18:56Z</time>
      </trkpt>
      <trkpt lat="40.6823350" lon="-3.5107350">
        <ele>642.0</ele>
        <time>2020-09-29T08:18:57Z</time>
      </trkpt>
      <trkpt lat="40.6824630" lon="-3.5107380">
        <ele>642.0</ele>
        <time>2020-09-29T08:18:58Z</time>
      </trkpt>
      <trkpt lat="40.6824630" lon="-3.5107380">
        <ele>642.0</ele>
        <time>2020-09-29T08:18:59Z</time>
      </trkpt>
      <trkpt lat="40.6825900" lon="-3.5107380">
        <ele>642.0</ele>
        <time>2020-09-29T08:19:00Z</time>
      </trkpt>
      <trkpt lat="40.6826550" lon="-3.5107380">
        <ele>642.0</ele>
        <time>2020-09-29T08:19:01Z</time>
      </trkpt>
      <trkpt lat="40.6826550" lon="-3.5107380">
        <ele>642.0</ele>
        <time>2020-09-29T08:19:02Z</time>
      </trkpt>
      <trkpt lat="40.6827830" lon="-3.5107370">
        <ele>642.0</ele>
        <time>2020-09-29T08:19:03Z</time>
      </trkpt>
      <trkpt lat="40.6827830" lon="-3.5107370">
        <ele>642.0</ele>
        <time>2020-09-29T08:19:04Z</time>
      </trkpt>
      <trkpt lat="40.6829120" lon="-3.5107370">
        <ele>642.0</ele>
        <time>2020-09-29T08:19:05Z</time>
      </trkpt>
      <trkpt lat="40.6829120" lon="-3.5107370">
        <ele>642.0</ele>
        <time>2020-09-29T08:19:06Z</time>
      </trkpt>
      <trkpt lat="40.6830400" lon="-3.5107370">
        <ele>642.0</ele>
        <time>2020-09-29T08:19:07Z</time>
      </trkpt>
      <trkpt lat="40.6831030" lon="-3.5107370">
        <ele>642.0</ele>
        <time>2020-09-29T08:19:08Z</time>
      </trkpt>
      <trkpt lat="40.6831030" lon="-3.5107370">
        <ele>643.0</ele>
        <time>2020-09-29T08:19:09Z</time>
      </trkpt>
      <trkpt lat="40.6832280" lon="-3.5107370">
        <ele>643.0</ele>
        <time>2020-09-29T08:19:10Z</time>
      </trkpt>
      <trkpt lat="40.6832280" lon="-3.5107370">
        <ele>643.0</ele>
        <time>2020-09-29T08:19:11Z</time>
      </trkpt>
      <trkpt lat="40.6833550" lon="-3.5107370">
        <ele>643.0</ele>
        <time>2020-09-29T08:19:12Z</time>
      </trkpt>
      <trkpt lat="40.6834180" lon="-3.5107370">
        <ele>643.0</ele>
        <time>2020-09-29T08:19:13Z</time>
      </trkpt>
      <trkpt lat="40.6834180" lon="-3.5107370">
        <ele>643.0</ele>
        <time>2020-09-29T08:19:14Z</time>
      </trkpt>
      <trkpt lat="40.6835430" lon="-3.5107380">
        <ele>643.0</ele>
        <time>2020-09-29T08:19:15Z</time>
      </trkpt>
      <trkpt lat="40.6835430" lon="-3.5107380">
        <ele>643.0</ele>
        <time>2020-09-29T08:19:16Z</time>
      </trkpt>
      <trkpt lat="40.6836680" lon="-3.5107380">
        <ele>643.0</ele>
        <time>2020-09-29T08:19:17Z</time>
      </trkpt>
      <trkpt lat="40.6837300" lon="-3.5107380">
        <ele>643.0</ele>
        <time>2020-09-29T08:19:18Z</time>
      </trkpt>
      <trkpt lat="40.6837300" lon="-3.5107380">
        <ele>643.0</ele>
        <time>2020-09-29T08:19:19Z</time>
      </trkpt>
      <trkpt lat="40.6838550" lon="-3.5107370">
        <ele>643.0</ele>
        <time>2020-09-29T08:19:20Z</time>
      </trkpt>
      <trkpt lat="40.6839170" lon="-3.5107370">
        <ele>643.0</ele>
        <time>2020-09-29T08:19:21Z</time>
      </trkpt>
      <trkpt lat="40.6839170" lon="-3.5107370">
        <ele>643.0</ele>
        <time>2020-09-29T08:19:22Z</time>
      </trkpt>
      <trkpt lat="40.6840400" lon="-3.5107370">
        <ele>644.0</ele>
        <time>2020-09-29T08:19:23Z</time>
      </trkpt>
      <trkpt lat="40.6840400" lon="-3.5107370">
        <ele>644.0</ele>
        <time>2020-09-29T08:19:24Z</time>
      </trkpt>
      <trkpt lat="40.6841650" lon="-3.5107350">
        <ele>644.0</ele>
        <time>2020-09-29T08:19:25Z</time>
      </trkpt>
      <trkpt lat="40.6841650" lon="-3.5107350">
        <ele>644.0</ele>
        <time>2020-09-29T08:19:26Z</time>
      </trkpt>
      <trkpt lat="40.6842880" lon="-3.5107330">
        <ele>644.0</ele>
        <time>2020-09-29T08:19:27Z</time>
      </trkpt>
      <trkpt lat="40.6843520" lon="-3.5107330">
        <ele>644.0</ele>
        <time>2020-09-29T08:19:28Z</time>
      </trkpt>
      <trkpt lat="40.6843520" lon="-3.5107330">
        <ele>644.0</ele>
        <time>2020-09-29T08:19:29Z</time>
      </trkpt>
      <trkpt lat="40.6844770" lon="-3.5107320">
        <ele>644.0</ele>
        <time>2020-09-29T08:19:30Z</time>
      </trkpt>
      <trkpt lat="40.6845400" lon="-3.5107320">
        <ele>644.0</ele>
        <time>2020-09-29T08:19:31Z</time>
      </trkpt>
      <trkpt lat="40.6845400" lon="-3.5107320">
        <ele>644.0</ele>
        <time>2020-09-29T08:19:32Z</time>
      </trkpt>
      <trkpt lat="40.6846650" lon="-3.5107300">
        <ele>644.0</ele>
        <time>2020-09-29T08:19:33Z</time>
      </trkpt>
      <trkpt lat="40.6847280" lon="-3.5107280">
        <ele>644.0</ele>
        <time>2020-09-29T08:19:34Z</time>
      </trkpt>
      <trkpt lat="40.6847280" lon="-3.5107280">
        <ele>644.0</ele>
        <time>2020-09-29T08:19:35Z</time>
      </trkpt>
      <trkpt lat="40.6848570" lon="-3.5107280">
        <ele>644.0</ele>
        <time>2020-09-29T08:19:36Z</time>
      </trkpt>
      <trkpt lat="40.6849180" lon="-3.5107280">
        <ele>644.0</ele>
        <time>2020-09-29T08:19:37Z</time>
      </trkpt>
      <trkpt lat="40.6849180" lon="-3.5107280">
        <ele>644.0</ele>
        <time>2020-09-29T08:19:38Z</time>
      </trkpt>
      <trkpt lat="40.6850450" lon="-3.5107250">
        <ele>644.0</ele>
        <time>2020-09-29T08:19:39Z</time>
      </trkpt>
      <trkpt lat="40.6851070" lon="-3.5107270">
        <ele>644.0</ele>
        <time>2020-09-29T08:19:40Z</time>
      </trkpt>
      <trkpt lat="40.6851070" lon="-3.5107270">
        <ele>644.0</ele>
        <time>2020-09-29T08:19:41Z</time>
      </trkpt>
      <trkpt lat="40.6852320" lon="-3.5107280">
        <ele>644.0</ele>
        <time>2020-09-29T08:19:42Z</time>
      </trkpt>
      <trkpt lat="40.6852320" lon="-3.5107280">
        <ele>644.0</ele>
        <time>2020-09-29T08:19:43Z</time>
      </trkpt>
      <trkpt lat="40.6853580" lon="-3.5107270">
        <ele>644.0</ele>
        <time>2020-09-29T08:19:44Z</time>
      </trkpt>
      <trkpt lat="40.6853580" lon="-3.5107270">
        <ele>644.0</ele>
        <time>2020-09-29T08:19:45Z</time>
      </trkpt>
      <trkpt lat="40.6854830" lon="-3.5107230">
        <ele>644.0</ele>
        <time>2020-09-29T08:19:46Z</time>
      </trkpt>
      <trkpt lat="40.6854830" lon="-3.5107230">
        <ele>644.0</ele>
        <time>2020-09-29T08:19:47Z</time>
      </trkpt>
      <trkpt lat="40.6856100" lon="-3.5107250">
        <ele>644.0</ele>
        <time>2020-09-29T08:19:48Z</time>
      </trkpt>
      <trkpt lat="40.6856100" lon="-3.5107250">
        <ele>644.0</ele>
        <time>2020-09-29T08:19:49Z</time>
      </trkpt>
      <trkpt lat="40.6857370" lon="-3.5107230">
        <ele>644.0</ele>
        <time>2020-09-29T08:19:50Z</time>
      </trkpt>
      <trkpt lat="40.6857370" lon="-3.5107230">
        <ele>644.0</ele>
        <time>2020-09-29T08:19:51Z</time>
      </trkpt>
      <trkpt lat="40.6858630" lon="-3.5107200">
        <ele>644.0</ele>
        <time>2020-09-29T08:19:52Z</time>
      </trkpt>
      <trkpt lat="40.6858630" lon="-3.5107200">
        <ele>644.0</ele>
        <time>2020-09-29T08:19:53Z</time>
      </trkpt>
      <trkpt lat="40.6859880" lon="-3.5107200">
        <ele>644.0</ele>
        <time>2020-09-29T08:19:54Z</time>
      </trkpt>
      <trkpt lat="40.6860520" lon="-3.5107200">
        <ele>644.0</ele>
        <time>2020-09-29T08:19:55Z</time>
      </trkpt>
      <trkpt lat="40.6860520" lon="-3.5107200">
        <ele>644.0</ele>
        <time>2020-09-29T08:19:56Z</time>
      </trkpt>
      <trkpt lat="40.6861800" lon="-3.5107200">
        <ele>644.0</ele>
        <time>2020-09-29T08:19:57Z</time>
      </trkpt>
      <trkpt lat="40.6862420" lon="-3.5107200">
        <ele>644.0</ele>
        <time>2020-09-29T08:19:58Z</time>
      </trkpt>
      <trkpt lat="40.6863070" lon="-3.5107180">
        <ele>644.0</ele>
        <time>2020-09-29T08:19:59Z</time>
      </trkpt>
      <trkpt lat="40.6863070" lon="-3.5107180">
        <ele>644.0</ele>
        <time>2020-09-29T08:20:00Z</time>
      </trkpt>
      <trkpt lat="40.6864330" lon="-3.5107150">
        <ele>644.0</ele>
        <time>2020-09-29T08:20:01Z</time>
      </trkpt>
      <trkpt lat="40.6864330" lon="-3.5107150">
        <ele>644.0</ele>
        <time>2020-09-29T08:20:02Z</time>
      </trkpt>
      <trkpt lat="40.6865620" lon="-3.5107120">
        <ele>644.0</ele>
        <time>2020-09-29T08:20:03Z</time>
      </trkpt>
      <trkpt lat="40.6866250" lon="-3.5107130">
        <ele>644.0</ele>
        <time>2020-09-29T08:20:04Z</time>
      </trkpt>
      <trkpt lat="40.6866250" lon="-3.5107130">
        <ele>644.0</ele>
        <time>2020-09-29T08:20:05Z</time>
      </trkpt>
      <trkpt lat="40.6867550" lon="-3.5107130">
        <ele>644.0</ele>
        <time>2020-09-29T08:20:06Z</time>
      </trkpt>
      <trkpt lat="40.6867550" lon="-3.5107130">
        <ele>644.0</ele>
        <time>2020-09-29T08:20:07Z</time>
      </trkpt>
      <trkpt lat="40.6868830" lon="-3.5107100">
        <ele>644.0</ele>
        <time>2020-09-29T08:20:08Z</time>
      </trkpt>
      <trkpt lat="40.6868830" lon="-3.5107100">
        <ele>644.0</ele>
        <time>2020-09-29T08:20:09Z</time>
      </trkpt>
      <trkpt lat="40.6870120" lon="-3.5107080">
        <ele>644.0</ele>
        <time>2020-09-29T08:20:10Z</time>
      </trkpt>
      <trkpt lat="40.6870770" lon="-3.5107070">
        <ele>644.0</ele>
        <time>2020-09-29T08:20:11Z</time>
      </trkpt>
      <trkpt lat="40.6870770" lon="-3.5107070">
        <ele>644.0</ele>
        <time>2020-09-29T08:20:12Z</time>
      </trkpt>
      <trkpt lat="40.6872070" lon="-3.5107050">
        <ele>644.0</ele>
        <time>2020-09-29T08:20:13Z</time>
      </trkpt>
      <trkpt lat="40.6872070" lon="-3.5107050">
        <ele>644.0</ele>
        <time>2020-09-29T08:20:14Z</time>
      </trkpt>
      <trkpt lat="40.6873350" lon="-3.5107050">
        <ele>644.0</ele>
        <time>2020-09-29T08:20:15Z</time>
      </trkpt>
      <trkpt lat="40.6874000" lon="-3.5107050">
        <ele>644.0</ele>
        <time>2020-09-29T08:20:16Z</time>
      </trkpt>
      <trkpt lat="40.6874650" lon="-3.5107030">
        <ele>644.0</ele>
        <time>2020-09-29T08:20:17Z</time>
      </trkpt>
      <trkpt lat="40.6874650" lon="-3.5107030">
        <ele>644.0</ele>
        <time>2020-09-29T08:20:18Z</time>
      </trkpt>
      <trkpt lat="40.6875950" lon="-3.5107020">
        <ele>644.0</ele>
        <time>2020-09-29T08:20:19Z</time>
      </trkpt>
      <trkpt lat="40.6875950" lon="-3.5107020">
        <ele>644.0</ele>
        <time>2020-09-29T08:20:20Z</time>
      </trkpt>
      <trkpt lat="40.6877250" lon="-3.5107020">
        <ele>644.0</ele>
        <time>2020-09-29T08:20:21Z</time>
      </trkpt>
      <trkpt lat="40.6877900" lon="-3.5107020">
        <ele>644.0</ele>
        <time>2020-09-29T08:20:22Z</time>
      </trkpt>
      <trkpt lat="40.6877900" lon="-3.5107020">
        <ele>644.0</ele>
        <time>2020-09-29T08:20:23Z</time>
      </trkpt>
      <trkpt lat="40.6879180" lon="-3.5107000">
        <ele>644.0</ele>
        <time>2020-09-29T08:20:24Z</time>
      </trkpt>
      <trkpt lat="40.6879820" lon="-3.5107000">
        <ele>644.0</ele>
        <time>2020-09-29T08:20:25Z</time>
      </trkpt>
      <trkpt lat="40.6879820" lon="-3.5107000">
        <ele>644.0</ele>
        <time>2020-09-29T08:20:26Z</time>
      </trkpt>
      <trkpt lat="40.6881080" lon="-3.5106970">
        <ele>644.0</ele>
        <time>2020-09-29T08:20:27Z</time>
      </trkpt>
      <trkpt lat="40.6881720" lon="-3.5106970">
        <ele>644.0</ele>
        <time>2020-09-29T08:20:28Z</time>
      </trkpt>
      <trkpt lat="40.6881720" lon="-3.5106970">
        <ele>644.0</ele>
        <time>2020-09-29T08:20:29Z</time>
      </trkpt>
      <trkpt lat="40.6882980" lon="-3.5106920">
        <ele>644.0</ele>
        <time>2020-09-29T08:20:30Z</time>
      </trkpt>
      <trkpt lat="40.6883620" lon="-3.5106930">
        <ele>644.0</ele>
        <time>2020-09-29T08:20:31Z</time>
      </trkpt>
      <trkpt lat="40.6884250" lon="-3.5106930">
        <ele>644.0</ele>
        <time>2020-09-29T08:20:32Z</time>
      </trkpt>
      <trkpt lat="40.6884250" lon="-3.5106930">
        <ele>644.0</ele>
        <time>2020-09-29T08:20:33Z</time>
      </trkpt>
      <trkpt lat="40.6885530" lon="-3.5106930">
        <ele>644.0</ele>
        <time>2020-09-29T08:20:34Z</time>
      </trkpt>
      <trkpt lat="40.6885530" lon="-3.5106930">
        <ele>644.0</ele>
        <time>2020-09-29T08:20:35Z</time>
      </trkpt>
      <trkpt lat="40.6886800" lon="-3.5106920">
        <ele>644.0</ele>
        <time>2020-09-29T08:20:36Z</time>
      </trkpt>
      <trkpt lat="40.6886800" lon="-3.5106920">
        <ele>644.0</ele>
        <time>2020-09-29T08:20:37Z</time>
      </trkpt>
      <trkpt lat="40.6888080" lon="-3.5106870">
        <ele>644.0</ele>
        <time>2020-09-29T08:20:38Z</time>
      </trkpt>
      <trkpt lat="40.6888080" lon="-3.5106870">
        <ele>644.0</ele>
        <time>2020-09-29T08:20:39Z</time>
      </trkpt>
      <trkpt lat="40.6889370" lon="-3.5106880">
        <ele>644.0</ele>
        <time>2020-09-29T08:20:40Z</time>
      </trkpt>
      <trkpt lat="40.6890020" lon="-3.5106900">
        <ele>644.0</ele>
        <time>2020-09-29T08:20:41Z</time>
      </trkpt>
      <trkpt lat="40.6890680" lon="-3.5106880">
        <ele>644.0</ele>
        <time>2020-09-29T08:20:42Z</time>
      </trkpt>
      <trkpt lat="40.6891330" lon="-3.5106880">
        <ele>644.0</ele>
        <time>2020-09-29T08:20:43Z</time>
      </trkpt>
      <trkpt lat="40.6891330" lon="-3.5106880">
        <ele>644.0</ele>
        <time>2020-09-29T08:20:44Z</time>
      </trkpt>
      <trkpt lat="40.6892680" lon="-3.5106880">
        <ele>644.0</ele>
        <time>2020-09-29T08:20:45Z</time>
      </trkpt>
      <trkpt lat="40.6893350" lon="-3.5106850">
        <ele>644.0</ele>
        <time>2020-09-29T08:20:46Z</time>
      </trkpt>
      <trkpt lat="40.6893350" lon="-3.5106850">
        <ele>644.0</ele>
        <time>2020-09-29T08:20:47Z</time>
      </trkpt>
      <trkpt lat="40.6894670" lon="-3.5106820">
        <ele>644.0</ele>
        <time>2020-09-29T08:20:48Z</time>
      </trkpt>
      <trkpt lat="40.6894670" lon="-3.5106820">
        <ele>644.0</ele>
        <time>2020-09-29T08:20:49Z</time>
      </trkpt>
      <trkpt lat="40.6895950" lon="-3.5106800">
        <ele>644.0</ele>
        <time>2020-09-29T08:20:50Z</time>
      </trkpt>
      <trkpt lat="40.6895950" lon="-3.5106800">
        <ele>644.0</ele>
        <time>2020-09-29T08:20:51Z</time>
      </trkpt>
      <trkpt lat="40.6897250" lon="-3.5106770">
        <ele>644.0</ele>
        <time>2020-09-29T08:20:52Z</time>
      </trkpt>
      <trkpt lat="40.6897250" lon="-3.5106770">
        <ele>644.0</ele>
        <time>2020-09-29T08:20:53Z</time>
      </trkpt>
      <trkpt lat="40.6898600" lon="-3.5106770">
        <ele>644.0</ele>
        <time>2020-09-29T08:20:54Z</time>
      </trkpt>
      <trkpt lat="40.6898600" lon="-3.5106770">
        <ele>644.0</ele>
        <time>2020-09-29T08:20:55Z</time>
      </trkpt>
      <trkpt lat="40.6899920" lon="-3.5106750">
        <ele>644.0</ele>
        <time>2020-09-29T08:20:56Z</time>
      </trkpt>
      <trkpt lat="40.6899920" lon="-3.5106750">
        <ele>644.0</ele>
        <time>2020-09-29T08:20:57Z</time>
      </trkpt>
      <trkpt lat="40.6901270" lon="-3.5106730">
        <ele>644.0</ele>
        <time>2020-09-29T08:20:58Z</time>
      </trkpt>
      <trkpt lat="40.6901270" lon="-3.5106730">
        <ele>644.0</ele>
        <time>2020-09-29T08:20:59Z</time>
      </trkpt>
      <trkpt lat="40.6902580" lon="-3.5106720">
        <ele>644.0</ele>
        <time>2020-09-29T08:21:00Z</time>
      </trkpt>
      <trkpt lat="40.6903250" lon="-3.5106720">
        <ele>644.0</ele>
        <time>2020-09-29T08:21:01Z</time>
      </trkpt>
      <trkpt lat="40.6903250" lon="-3.5106720">
        <ele>645.0</ele>
        <time>2020-09-29T08:21:02Z</time>
      </trkpt>
      <trkpt lat="40.6904570" lon="-3.5106700">
        <ele>645.0</ele>
        <time>2020-09-29T08:21:03Z</time>
      </trkpt>
      <trkpt lat="40.6905220" lon="-3.5106700">
        <ele>645.0</ele>
        <time>2020-09-29T08:21:04Z</time>
      </trkpt>
      <trkpt lat="40.6905220" lon="-3.5106700">
        <ele>645.0</ele>
        <time>2020-09-29T08:21:05Z</time>
      </trkpt>
      <trkpt lat="40.6906530" lon="-3.5106680">
        <ele>645.0</ele>
        <time>2020-09-29T08:21:06Z</time>
      </trkpt>
      <trkpt lat="40.6907180" lon="-3.5106670">
        <ele>645.0</ele>
        <time>2020-09-29T08:21:07Z</time>
      </trkpt>
      <trkpt lat="40.6907180" lon="-3.5106670">
        <ele>645.0</ele>
        <time>2020-09-29T08:21:08Z</time>
      </trkpt>
      <trkpt lat="40.6908520" lon="-3.5106650">
        <ele>645.0</ele>
        <time>2020-09-29T08:21:09Z</time>
      </trkpt>
      <trkpt lat="40.6909150" lon="-3.5106650">
        <ele>645.0</ele>
        <time>2020-09-29T08:21:10Z</time>
      </trkpt>
      <trkpt lat="40.6909150" lon="-3.5106650">
        <ele>645.0</ele>
        <time>2020-09-29T08:21:11Z</time>
      </trkpt>
      <trkpt lat="40.6910450" lon="-3.5106630">
        <ele>645.0</ele>
        <time>2020-09-29T08:21:12Z</time>
      </trkpt>
      <trkpt lat="40.6911130" lon="-3.5106630">
        <ele>645.0</ele>
        <time>2020-09-29T08:21:13Z</time>
      </trkpt>
      <trkpt lat="40.6911130" lon="-3.5106630">
        <ele>645.0</ele>
        <time>2020-09-29T08:21:14Z</time>
      </trkpt>
      <trkpt lat="40.6912470" lon="-3.5106620">
        <ele>645.0</ele>
        <time>2020-09-29T08:21:15Z</time>
      </trkpt>
      <trkpt lat="40.6913150" lon="-3.5106600">
        <ele>645.0</ele>
        <time>2020-09-29T08:21:16Z</time>
      </trkpt>
      <trkpt lat="40.6913150" lon="-3.5106600">
        <ele>645.0</ele>
        <time>2020-09-29T08:21:17Z</time>
      </trkpt>
      <trkpt lat="40.6914480" lon="-3.5106620">
        <ele>645.0</ele>
        <time>2020-09-29T08:21:18Z</time>
      </trkpt>
      <trkpt lat="40.6915170" lon="-3.5106620">
        <ele>645.0</ele>
        <time>2020-09-29T08:21:19Z</time>
      </trkpt>
      <trkpt lat="40.6915170" lon="-3.5106620">
        <ele>645.0</ele>
        <time>2020-09-29T08:21:20Z</time>
      </trkpt>
      <trkpt lat="40.6916480" lon="-3.5106630">
        <ele>645.0</ele>
        <time>2020-09-29T08:21:21Z</time>
      </trkpt>
      <trkpt lat="40.6917130" lon="-3.5106620">
        <ele>645.0</ele>
        <time>2020-09-29T08:21:22Z</time>
      </trkpt>
      <trkpt lat="40.6917130" lon="-3.5106620">
        <ele>645.0</ele>
        <time>2020-09-29T08:21:23Z</time>
      </trkpt>
      <trkpt lat="40.6918430" lon="-3.5106600">
        <ele>645.0</ele>
        <time>2020-09-29T08:21:24Z</time>
      </trkpt>
      <trkpt lat="40.6918430" lon="-3.5106600">
        <ele>645.0</ele>
        <time>2020-09-29T08:21:25Z</time>
      </trkpt>
      <trkpt lat="40.6919720" lon="-3.5106580">
        <ele>645.0</ele>
        <time>2020-09-29T08:21:26Z</time>
      </trkpt>
      <trkpt lat="40.6919720" lon="-3.5106580">
        <ele>645.0</ele>
        <time>2020-09-29T08:21:27Z</time>
      </trkpt>
      <trkpt lat="40.6921020" lon="-3.5106580">
        <ele>646.0</ele>
        <time>2020-09-29T08:21:28Z</time>
      </trkpt>
      <trkpt lat="40.6921020" lon="-3.5106580">
        <ele>646.0</ele>
        <time>2020-09-29T08:21:29Z</time>
      </trkpt>
      <trkpt lat="40.6922350" lon="-3.5106550">
        <ele>646.0</ele>
        <time>2020-09-29T08:21:30Z</time>
      </trkpt>
      <trkpt lat="40.6922350" lon="-3.5106550">
        <ele>646.0</ele>
        <time>2020-09-29T08:21:31Z</time>
      </trkpt>
      <trkpt lat="40.6923650" lon="-3.5106530">
        <ele>646.0</ele>
        <time>2020-09-29T08:21:32Z</time>
      </trkpt>
      <trkpt lat="40.6924320" lon="-3.5106530">
        <ele>646.0</ele>
        <time>2020-09-29T08:21:33Z</time>
      </trkpt>
      <trkpt lat="40.6924950" lon="-3.5106550">
        <ele>646.0</ele>
        <time>2020-09-29T08:21:34Z</time>
      </trkpt>
      <trkpt lat="40.6924950" lon="-3.5106550">
        <ele>646.0</ele>
        <time>2020-09-29T08:21:35Z</time>
      </trkpt>
      <trkpt lat="40.6926270" lon="-3.5106530">
        <ele>646.0</ele>
        <time>2020-09-29T08:21:36Z</time>
      </trkpt>
      <trkpt lat="40.6926270" lon="-3.5106530">
        <ele>646.0</ele>
        <time>2020-09-29T08:21:37Z</time>
      </trkpt>
      <trkpt lat="40.6927570" lon="-3.5106500">
        <ele>646.0</ele>
        <time>2020-09-29T08:21:38Z</time>
      </trkpt>
      <trkpt lat="40.6928230" lon="-3.5106480">
        <ele>646.0</ele>
        <time>2020-09-29T08:21:39Z</time>
      </trkpt>
      <trkpt lat="40.6928230" lon="-3.5106480">
        <ele>646.0</ele>
        <time>2020-09-29T08:21:40Z</time>
      </trkpt>
      <trkpt lat="40.6929550" lon="-3.5106480">
        <ele>646.0</ele>
        <time>2020-09-29T08:21:41Z</time>
      </trkpt>
      <trkpt lat="40.6929550" lon="-3.5106480">
        <ele>646.0</ele>
        <time>2020-09-29T08:21:42Z</time>
      </trkpt>
      <trkpt lat="40.6930870" lon="-3.5106470">
        <ele>646.0</ele>
        <time>2020-09-29T08:21:43Z</time>
      </trkpt>
      <trkpt lat="40.6930870" lon="-3.5106470">
        <ele>646.0</ele>
        <time>2020-09-29T08:21:44Z</time>
      </trkpt>
      <trkpt lat="40.6932180" lon="-3.5106470">
        <ele>646.0</ele>
        <time>2020-09-29T08:21:45Z</time>
      </trkpt>
      <trkpt lat="40.6932180" lon="-3.5106470">
        <ele>646.0</ele>
        <time>2020-09-29T08:21:46Z</time>
      </trkpt>
      <trkpt lat="40.6933500" lon="-3.5106480">
        <ele>646.0</ele>
        <time>2020-09-29T08:21:47Z</time>
      </trkpt>
      <trkpt lat="40.6933500" lon="-3.5106480">
        <ele>646.0</ele>
        <time>2020-09-29T08:21:48Z</time>
      </trkpt>
      <trkpt lat="40.6934830" lon="-3.5106500">
        <ele>646.0</ele>
        <time>2020-09-29T08:21:49Z</time>
      </trkpt>
      <trkpt lat="40.6934830" lon="-3.5106500">
        <ele>646.0</ele>
        <time>2020-09-29T08:21:50Z</time>
      </trkpt>
      <trkpt lat="40.6936180" lon="-3.5106470">
        <ele>646.0</ele>
        <time>2020-09-29T08:21:51Z</time>
      </trkpt>
      <trkpt lat="40.6936180" lon="-3.5106470">
        <ele>646.0</ele>
        <time>2020-09-29T08:21:52Z</time>
      </trkpt>
      <trkpt lat="40.6937530" lon="-3.5106400">
        <ele>646.0</ele>
        <time>2020-09-29T08:21:53Z</time>
      </trkpt>
      <trkpt lat="40.6938230" lon="-3.5106400">
        <ele>646.0</ele>
        <time>2020-09-29T08:21:54Z</time>
      </trkpt>
      <trkpt lat="40.6938920" lon="-3.5106420">
        <ele>646.0</ele>
        <time>2020-09-29T08:21:55Z</time>
      </trkpt>
      <trkpt lat="40.6938920" lon="-3.5106420">
        <ele>646.0</ele>
        <time>2020-09-29T08:21:56Z</time>
      </trkpt>
      <trkpt lat="40.6940270" lon="-3.5106380">
        <ele>646.0</ele>
        <time>2020-09-29T08:21:57Z</time>
      </trkpt>
      <trkpt lat="40.6940270" lon="-3.5106380">
        <ele>647.0</ele>
        <time>2020-09-29T08:21:58Z</time>
      </trkpt>
      <trkpt lat="40.6941630" lon="-3.5106370">
        <ele>647.0</ele>
        <time>2020-09-29T08:21:59Z</time>
      </trkpt>
      <trkpt lat="40.6941630" lon="-3.5106370">
        <ele>647.0</ele>
        <time>2020-09-29T08:22:00Z</time>
      </trkpt>
      <trkpt lat="40.6942980" lon="-3.5106270">
        <ele>647.0</ele>
        <time>2020-09-29T08:22:01Z</time>
      </trkpt>
      <trkpt lat="40.6942980" lon="-3.5106270">
        <ele>647.0</ele>
        <time>2020-09-29T08:22:02Z</time>
      </trkpt>
      <trkpt lat="40.6944350" lon="-3.5106130">
        <ele>647.0</ele>
        <time>2020-09-29T08:22:03Z</time>
      </trkpt>
      <trkpt lat="40.6944350" lon="-3.5106130">
        <ele>647.0</ele>
        <time>2020-09-29T08:22:04Z</time>
      </trkpt>
      <trkpt lat="40.6945700" lon="-3.5105920">
        <ele>647.0</ele>
        <time>2020-09-29T08:22:05Z</time>
      </trkpt>
      <trkpt lat="40.6945700" lon="-3.5105920">
        <ele>647.0</ele>
        <time>2020-09-29T08:22:06Z</time>
      </trkpt>
      <trkpt lat="40.6947030" lon="-3.5105600">
        <ele>647.0</ele>
        <time>2020-09-29T08:22:07Z</time>
      </trkpt>
      <trkpt lat="40.6947700" lon="-3.5105420">
        <ele>647.0</ele>
        <time>2020-09-29T08:22:08Z</time>
      </trkpt>
      <trkpt lat="40.6947700" lon="-3.5105420">
        <ele>647.0</ele>
        <time>2020-09-29T08:22:09Z</time>
      </trkpt>
      <trkpt lat="40.6949030" lon="-3.5104950">
        <ele>647.0</ele>
        <time>2020-09-29T08:22:10Z</time>
      </trkpt>
      <trkpt lat="40.6949030" lon="-3.5104950">
        <ele>647.0</ele>
        <time>2020-09-29T08:22:11Z</time>
      </trkpt>
      <trkpt lat="40.6950370" lon="-3.5104450">
        <ele>647.0</ele>
        <time>2020-09-29T08:22:12Z</time>
      </trkpt>
      <trkpt lat="40.6951000" lon="-3.5104180">
        <ele>647.0</ele>
        <time>2020-09-29T08:22:13Z</time>
      </trkpt>
      <trkpt lat="40.6951000" lon="-3.5104180">
        <ele>647.0</ele>
        <time>2020-09-29T08:22:14Z</time>
      </trkpt>
      <trkpt lat="40.6952300" lon="-3.5103670">
        <ele>647.0</ele>
        <time>2020-09-29T08:22:15Z</time>
      </trkpt>
      <trkpt lat="40.6952300" lon="-3.5103670">
        <ele>647.0</ele>
        <time>2020-09-29T08:22:16Z</time>
      </trkpt>
      <trkpt lat="40.6953580" lon="-3.5103150">
        <ele>647.0</ele>
        <time>2020-09-29T08:22:17Z</time>
      </trkpt>
      <trkpt lat="40.6953580" lon="-3.5103150">
        <ele>647.0</ele>
        <time>2020-09-29T08:22:18Z</time>
      </trkpt>
      <trkpt lat="40.6954900" lon="-3.5102530">
        <ele>647.0</ele>
        <time>2020-09-29T08:22:19Z</time>
      </trkpt>
      <trkpt lat="40.6954900" lon="-3.5102530">
        <ele>647.0</ele>
        <time>2020-09-29T08:22:20Z</time>
      </trkpt>
      <trkpt lat="40.6956270" lon="-3.5101900">
        <ele>647.0</ele>
        <time>2020-09-29T08:22:21Z</time>
      </trkpt>
      <trkpt lat="40.6956270" lon="-3.5101900">
        <ele>647.0</ele>
        <time>2020-09-29T08:22:22Z</time>
      </trkpt>
      <trkpt lat="40.6957630" lon="-3.5101350">
        <ele>647.0</ele>
        <time>2020-09-29T08:22:23Z</time>
      </trkpt>
      <trkpt lat="40.6958320" lon="-3.5101100">
        <ele>647.0</ele>
        <time>2020-09-29T08:22:24Z</time>
      </trkpt>
      <trkpt lat="40.6958320" lon="-3.5101100">
        <ele>647.0</ele>
        <time>2020-09-29T08:22:25Z</time>
      </trkpt>
      <trkpt lat="40.6959700" lon="-3.5100600">
        <ele>647.0</ele>
        <time>2020-09-29T08:22:26Z</time>
      </trkpt>
      <trkpt lat="40.6960380" lon="-3.5100350">
        <ele>647.0</ele>
        <time>2020-09-29T08:22:27Z</time>
      </trkpt>
      <trkpt lat="40.6960380" lon="-3.5100350">
        <ele>647.0</ele>
        <time>2020-09-29T08:22:28Z</time>
      </trkpt>
      <trkpt lat="40.6961770" lon="-3.5099970">
        <ele>647.0</ele>
        <time>2020-09-29T08:22:29Z</time>
      </trkpt>
      <trkpt lat="40.6961770" lon="-3.5099970">
        <ele>647.0</ele>
        <time>2020-09-29T08:22:30Z</time>
      </trkpt>
      <trkpt lat="40.6963180" lon="-3.5099680">
        <ele>647.0</ele>
        <time>2020-09-29T08:22:31Z</time>
      </trkpt>
      <trkpt lat="40.6963870" lon="-3.5099520">
        <ele>647.0</ele>
        <time>2020-09-29T08:22:32Z</time>
      </trkpt>
      <trkpt lat="40.6963870" lon="-3.5099520">
        <ele>647.0</ele>
        <time>2020-09-29T08:22:33Z</time>
      </trkpt>
      <trkpt lat="40.6965250" lon="-3.5099250">
        <ele>647.0</ele>
        <time>2020-09-29T08:22:34Z</time>
      </trkpt>
      <trkpt lat="40.6965250" lon="-3.5099250">
        <ele>647.0</ele>
        <time>2020-09-29T08:22:35Z</time>
      </trkpt>
      <trkpt lat="40.6966570" lon="-3.5098980">
        <ele>647.0</ele>
        <time>2020-09-29T08:22:36Z</time>
      </trkpt>
      <trkpt lat="40.6966570" lon="-3.5098980">
        <ele>647.0</ele>
        <time>2020-09-29T08:22:37Z</time>
      </trkpt>
      <trkpt lat="40.6967900" lon="-3.5098700">
        <ele>647.0</ele>
        <time>2020-09-29T08:22:38Z</time>
      </trkpt>
      <trkpt lat="40.6967900" lon="-3.5098700">
        <ele>647.0</ele>
        <time>2020-09-29T08:22:39Z</time>
      </trkpt>
      <trkpt lat="40.6969200" lon="-3.5098430">
        <ele>647.0</ele>
        <time>2020-09-29T08:22:40Z</time>
      </trkpt>
      <trkpt lat="40.6969200" lon="-3.5098430">
        <ele>647.0</ele>
        <time>2020-09-29T08:22:41Z</time>
      </trkpt>
      <trkpt lat="40.6970500" lon="-3.5098180">
        <ele>647.0</ele>
        <time>2020-09-29T08:22:42Z</time>
      </trkpt>
      <trkpt lat="40.6971130" lon="-3.5098000">
        <ele>647.0</ele>
        <time>2020-09-29T08:22:43Z</time>
      </trkpt>
      <trkpt lat="40.6971130" lon="-3.5098000">
        <ele>647.0</ele>
        <time>2020-09-29T08:22:44Z</time>
      </trkpt>
      <trkpt lat="40.6972430" lon="-3.5097720">
        <ele>647.0</ele>
        <time>2020-09-29T08:22:45Z</time>
      </trkpt>
      <trkpt lat="40.6973050" lon="-3.5097570">
        <ele>647.0</ele>
        <time>2020-09-29T08:22:46Z</time>
      </trkpt>
      <trkpt lat="40.6973670" lon="-3.5097430">
        <ele>647.0</ele>
        <time>2020-09-29T08:22:47Z</time>
      </trkpt>
      <trkpt lat="40.6973670" lon="-3.5097430">
        <ele>647.0</ele>
        <time>2020-09-29T08:22:48Z</time>
      </trkpt>
      <trkpt lat="40.6974900" lon="-3.5097180">
        <ele>647.0</ele>
        <time>2020-09-29T08:22:49Z</time>
      </trkpt>
      <trkpt lat="40.6974900" lon="-3.5097180">
        <ele>647.0</ele>
        <time>2020-09-29T08:22:50Z</time>
      </trkpt>
      <trkpt lat="40.6976130" lon="-3.5096980">
        <ele>647.0</ele>
        <time>2020-09-29T08:22:51Z</time>
      </trkpt>
      <trkpt lat="40.6976130" lon="-3.5096980">
        <ele>648.0</ele>
        <time>2020-09-29T08:22:52Z</time>
      </trkpt>
      <trkpt lat="40.6977350" lon="-3.5096800">
        <ele>648.0</ele>
        <time>2020-09-29T08:22:53Z</time>
      </trkpt>
      <trkpt lat="40.6977350" lon="-3.5096800">
        <ele>648.0</ele>
        <time>2020-09-29T08:22:54Z</time>
      </trkpt>
      <trkpt lat="40.6978570" lon="-3.5096650">
        <ele>648.0</ele>
        <time>2020-09-29T08:22:55Z</time>
      </trkpt>
      <trkpt lat="40.6978570" lon="-3.5096650">
        <ele>648.0</ele>
        <time>2020-09-29T08:22:56Z</time>
      </trkpt>
      <trkpt lat="40.6979780" lon="-3.5096520">
        <ele>648.0</ele>
        <time>2020-09-29T08:22:57Z</time>
      </trkpt>
      <trkpt lat="40.6980420" lon="-3.5096480">
        <ele>648.0</ele>
        <time>2020-09-29T08:22:58Z</time>
      </trkpt>
      <trkpt lat="40.6980420" lon="-3.5096480">
        <ele>648.0</ele>
        <time>2020-09-29T08:22:59Z</time>
      </trkpt>
      <trkpt lat="40.6981680" lon="-3.5096400">
        <ele>648.0</ele>
        <time>2020-09-29T08:23:00Z</time>
      </trkpt>
      <trkpt lat="40.6982320" lon="-3.5096370">
        <ele>648.0</ele>
        <time>2020-09-29T08:23:01Z</time>
      </trkpt>
      <trkpt lat="40.6982320" lon="-3.5096370">
        <ele>648.0</ele>
        <time>2020-09-29T08:23:02Z</time>
      </trkpt>
      <trkpt lat="40.6983570" lon="-3.5096280">
        <ele>648.0</ele>
        <time>2020-09-29T08:23:03Z</time>
      </trkpt>
      <trkpt lat="40.6984180" lon="-3.5096270">
        <ele>648.0</ele>
        <time>2020-09-29T08:23:04Z</time>
      </trkpt>
      <trkpt lat="40.6984180" lon="-3.5096270">
        <ele>648.0</ele>
        <time>2020-09-29T08:23:05Z</time>
      </trkpt>
      <trkpt lat="40.6985430" lon="-3.5096180">
        <ele>648.0</ele>
        <time>2020-09-29T08:23:06Z</time>
      </trkpt>
      <trkpt lat="40.6986070" lon="-3.5096130">
        <ele>648.0</ele>
        <time>2020-09-29T08:23:07Z</time>
      </trkpt>
      <trkpt lat="40.6986070" lon="-3.5096130">
        <ele>648.0</ele>
        <time>2020-09-29T08:23:08Z</time>
      </trkpt>
      <trkpt lat="40.6987300" lon="-3.5096070">
        <ele>648.0</ele>
        <time>2020-09-29T08:23:09Z</time>
      </trkpt>
      <trkpt lat="40.6987930" lon="-3.5096030">
        <ele>648.0</ele>
        <time>2020-09-29T08:23:10Z</time>
      </trkpt>
      <trkpt lat="40.6987930" lon="-3.5096030">
        <ele>648.0</ele>
        <time>2020-09-29T08:23:11Z</time>
      </trkpt>
      <trkpt lat="40.6989180" lon="-3.5096000">
        <ele>648.0</ele>
        <time>2020-09-29T08:23:12Z</time>
      </trkpt>
      <trkpt lat="40.6989820" lon="-3.5095950">
        <ele>648.0</ele>
        <time>2020-09-29T08:23:13Z</time>
      </trkpt>
      <trkpt lat="40.6989820" lon="-3.5095950">
        <ele>648.0</ele>
        <time>2020-09-29T08:23:14Z</time>
      </trkpt>
      <trkpt lat="40.6991070" lon="-3.5095900">
        <ele>648.0</ele>
        <time>2020-09-29T08:23:15Z</time>
      </trkpt>
      <trkpt lat="40.6991070" lon="-3.5095900">
        <ele>648.0</ele>
        <time>2020-09-29T08:23:16Z</time>
      </trkpt>
      <trkpt lat="40.6992320" lon="-3.5095830">
        <ele>648.0</ele>
        <time>2020-09-29T08:23:17Z</time>
      </trkpt>
      <trkpt lat="40.6992950" lon="-3.5095780">
        <ele>648.0</ele>
        <time>2020-09-29T08:23:18Z</time>
      </trkpt>
      <trkpt lat="40.6992950" lon="-3.5095780">
        <ele>648.0</ele>
        <time>2020-09-29T08:23:19Z</time>
      </trkpt>
      <trkpt lat="40.6994220" lon="-3.5095720">
        <ele>648.0</ele>
        <time>2020-09-29T08:23:20Z</time>
      </trkpt>
      <trkpt lat="40.6994850" lon="-3.5095670">
        <ele>648.0</ele>
        <time>2020-09-29T08:23:21Z</time>
      </trkpt>
      <trkpt lat="40.6994850" lon="-3.5095670">
        <ele>648.0</ele>
        <time>2020-09-29T08:23:22Z</time>
      </trkpt>
      <trkpt lat="40.6996130" lon="-3.5095580">
        <ele>648.0</ele>
        <time>2020-09-29T08:23:23Z</time>
      </trkpt>
      <trkpt lat="40.6996780" lon="-3.5095530">
        <ele>648.0</ele>
        <time>2020-09-29T08:23:24Z</time>
      </trkpt>
      <trkpt lat="40.6996780" lon="-3.5095530">
        <ele>648.0</ele>
        <time>2020-09-29T08:23:25Z</time>
      </trkpt>
      <trkpt lat="40.6998080" lon="-3.5095470">
        <ele>648.0</ele>
        <time>2020-09-29T08:23:26Z</time>
      </trkpt>
      <trkpt lat="40.6998730" lon="-3.5095470">
        <ele>648.0</ele>
        <time>2020-09-29T08:23:27Z</time>
      </trkpt>
      <trkpt lat="40.6999400" lon="-3.5095420">
        <ele>648.0</ele>
        <time>2020-09-29T08:23:28Z</time>
      </trkpt>
      <trkpt lat="40.6999400" lon="-3.5095420">
        <ele>648.0</ele>
        <time>2020-09-29T08:23:29Z</time>
      </trkpt>
      <trkpt lat="40.7000730" lon="-3.5095330">
        <ele>648.0</ele>
        <time>2020-09-29T08:23:30Z</time>
      </trkpt>
      <trkpt lat="40.7000730" lon="-3.5095330">
        <ele>648.0</ele>
        <time>2020-09-29T08:23:31Z</time>
      </trkpt>
      <trkpt lat="40.7002070" lon="-3.5095250">
        <ele>648.0</ele>
        <time>2020-09-29T08:23:32Z</time>
      </trkpt>
      <trkpt lat="40.7002720" lon="-3.5095200">
        <ele>648.0</ele>
        <time>2020-09-29T08:23:33Z</time>
      </trkpt>
      <trkpt lat="40.7002720" lon="-3.5095200">
        <ele>648.0</ele>
        <time>2020-09-29T08:23:34Z</time>
      </trkpt>
      <trkpt lat="40.7004070" lon="-3.5095130">
        <ele>648.0</ele>
        <time>2020-09-29T08:23:35Z</time>
      </trkpt>
      <trkpt lat="40.7004070" lon="-3.5095130">
        <ele>648.0</ele>
        <time>2020-09-29T08:23:36Z</time>
      </trkpt>
      <trkpt lat="40.7005400" lon="-3.5095050">
        <ele>648.0</ele>
        <time>2020-09-29T08:23:37Z</time>
      </trkpt>
      <trkpt lat="40.7005400" lon="-3.5095050">
        <ele>648.0</ele>
        <time>2020-09-29T08:23:38Z</time>
      </trkpt>
      <trkpt lat="40.7006750" lon="-3.5094980">
        <ele>648.0</ele>
        <time>2020-09-29T08:23:39Z</time>
      </trkpt>
      <trkpt lat="40.7007420" lon="-3.5094950">
        <ele>648.0</ele>
        <time>2020-09-29T08:23:40Z</time>
      </trkpt>
      <trkpt lat="40.7007420" lon="-3.5094950">
        <ele>648.0</ele>
        <time>2020-09-29T08:23:41Z</time>
      </trkpt>
      <trkpt lat="40.7008730" lon="-3.5094870">
        <ele>648.0</ele>
        <time>2020-09-29T08:23:42Z</time>
      </trkpt>
      <trkpt lat="40.7009380" lon="-3.5094850">
        <ele>648.0</ele>
        <time>2020-09-29T08:23:43Z</time>
      </trkpt>
      <trkpt lat="40.7010030" lon="-3.5094830">
        <ele>648.0</ele>
        <time>2020-09-29T08:23:44Z</time>
      </trkpt>
      <trkpt lat="40.7010030" lon="-3.5094830">
        <ele>648.0</ele>
        <time>2020-09-29T08:23:45Z</time>
      </trkpt>
      <trkpt lat="40.7011330" lon="-3.5094750">
        <ele>648.0</ele>
        <time>2020-09-29T08:23:46Z</time>
      </trkpt>
      <trkpt lat="40.7011980" lon="-3.5094700">
        <ele>648.0</ele>
        <time>2020-09-29T08:23:47Z</time>
      </trkpt>
      <trkpt lat="40.7011980" lon="-3.5094700">
        <ele>648.0</ele>
        <time>2020-09-29T08:23:48Z</time>
      </trkpt>
      <trkpt lat="40.7013280" lon="-3.5094620">
        <ele>648.0</ele>
        <time>2020-09-29T08:23:49Z</time>
      </trkpt>
      <trkpt lat="40.7013930" lon="-3.5094580">
        <ele>648.0</ele>
        <time>2020-09-29T08:23:50Z</time>
      </trkpt>
      <trkpt lat="40.7013930" lon="-3.5094580">
        <ele>648.0</ele>
        <time>2020-09-29T08:23:51Z</time>
      </trkpt>
      <trkpt lat="40.7015230" lon="-3.5094500">
        <ele>648.0</ele>
        <time>2020-09-29T08:23:52Z</time>
      </trkpt>
      <trkpt lat="40.7015230" lon="-3.5094500">
        <ele>648.0</ele>
        <time>2020-09-29T08:23:53Z</time>
      </trkpt>
      <trkpt lat="40.7016530" lon="-3.5094430">
        <ele>648.0</ele>
        <time>2020-09-29T08:23:54Z</time>
      </trkpt>
      <trkpt lat="40.7016530" lon="-3.5094430">
        <ele>648.0</ele>
        <time>2020-09-29T08:23:55Z</time>
      </trkpt>
      <trkpt lat="40.7017820" lon="-3.5094370">
        <ele>648.0</ele>
        <time>2020-09-29T08:23:56Z</time>
      </trkpt>
      <trkpt lat="40.7017820" lon="-3.5094370">
        <ele>648.0</ele>
        <time>2020-09-29T08:23:57Z</time>
      </trkpt>
      <trkpt lat="40.7019080" lon="-3.5094280">
        <ele>648.0</ele>
        <time>2020-09-29T08:23:58Z</time>
      </trkpt>
      <trkpt lat="40.7019080" lon="-3.5094280">
        <ele>648.0</ele>
        <time>2020-09-29T08:23:59Z</time>
      </trkpt>
      <trkpt lat="40.7020370" lon="-3.5094230">
        <ele>648.0</ele>
        <time>2020-09-29T08:24:00Z</time>
      </trkpt>
      <trkpt lat="40.7021000" lon="-3.5094170">
        <ele>648.0</ele>
        <time>2020-09-29T08:24:01Z</time>
      </trkpt>
      <trkpt lat="40.7021620" lon="-3.5094000">
        <ele>648.0</ele>
        <time>2020-09-29T08:24:02Z</time>
      </trkpt>
      <trkpt lat="40.7021620" lon="-3.5094000">
        <ele>648.0</ele>
        <time>2020-09-29T08:24:03Z</time>
      </trkpt>
      <trkpt lat="40.7022720" lon="-3.5093230">
        <ele>648.0</ele>
        <time>2020-09-29T08:24:04Z</time>
      </trkpt>
      <trkpt lat="40.7022720" lon="-3.5093230">
        <ele>648.0</ele>
        <time>2020-09-29T08:24:05Z</time>
      </trkpt>
      <trkpt lat="40.7023650" lon="-3.5092170">
        <ele>648.0</ele>
        <time>2020-09-29T08:24:06Z</time>
      </trkpt>
      <trkpt lat="40.7023650" lon="-3.5092170">
        <ele>648.0</ele>
        <time>2020-09-29T08:24:07Z</time>
      </trkpt>
      <trkpt lat="40.7024800" lon="-3.5091630">
        <ele>648.0</ele>
        <time>2020-09-29T08:24:08Z</time>
      </trkpt>
      <trkpt lat="40.7025420" lon="-3.5091720">
        <ele>648.0</ele>
        <time>2020-09-29T08:24:09Z</time>
      </trkpt>
      <trkpt lat="40.7025950" lon="-3.5092030">
        <ele>648.0</ele>
        <time>2020-09-29T08:24:10Z</time>
      </trkpt>
      <trkpt lat="40.7026420" lon="-3.5092570">
        <ele>648.0</ele>
        <time>2020-09-29T08:24:11Z</time>
      </trkpt>
      <trkpt lat="40.7026420" lon="-3.5092570">
        <ele>648.0</ele>
        <time>2020-09-29T08:24:12Z</time>
      </trkpt>
      <trkpt lat="40.7027200" lon="-3.5093880">
        <ele>648.0</ele>
        <time>2020-09-29T08:24:13Z</time>
      </trkpt>
      <trkpt lat="40.7027630" lon="-3.5094500">
        <ele>648.0</ele>
        <time>2020-09-29T08:24:14Z</time>
      </trkpt>
      <trkpt lat="40.7027630" lon="-3.5094500">
        <ele>648.0</ele>
        <time>2020-09-29T08:24:15Z</time>
      </trkpt>
      <trkpt lat="40.7028670" lon="-3.5095480">
        <ele>648.0</ele>
        <time>2020-09-29T08:24:16Z</time>
      </trkpt>
      <trkpt lat="40.7028670" lon="-3.5095480">
        <ele>648.0</ele>
        <time>2020-09-29T08:24:17Z</time>
      </trkpt>
      <trkpt lat="40.7029850" lon="-3.5096030">
        <ele>649.0</ele>
        <time>2020-09-29T08:24:18Z</time>
      </trkpt>
      <trkpt lat="40.7030470" lon="-3.5096250">
        <ele>649.0</ele>
        <time>2020-09-29T08:24:19Z</time>
      </trkpt>
      <trkpt lat="40.7030470" lon="-3.5096250">
        <ele>649.0</ele>
        <time>2020-09-29T08:24:20Z</time>
      </trkpt>
      <trkpt lat="40.7031700" lon="-3.5096670">
        <ele>649.0</ele>
        <time>2020-09-29T08:24:21Z</time>
      </trkpt>
      <trkpt lat="40.7032330" lon="-3.5096880">
        <ele>649.0</ele>
        <time>2020-09-29T08:24:22Z</time>
      </trkpt>
      <trkpt lat="40.7032330" lon="-3.5096880">
        <ele>649.0</ele>
        <time>2020-09-29T08:24:23Z</time>
      </trkpt>
      <trkpt lat="40.7033580" lon="-3.5097320">
        <ele>649.0</ele>
        <time>2020-09-29T08:24:24Z</time>
      </trkpt>
      <trkpt lat="40.7034220" lon="-3.5097550">
        <ele>649.0</ele>
        <time>2020-09-29T08:24:25Z</time>
      </trkpt>
      <trkpt lat="40.7034220" lon="-3.5097550">
        <ele>649.0</ele>
        <time>2020-09-29T08:24:26Z</time>
      </trkpt>
      <trkpt lat="40.7035480" lon="-3.5098000">
        <ele>649.0</ele>
        <time>2020-09-29T08:24:27Z</time>
      </trkpt>
      <trkpt lat="40.7036100" lon="-3.5098230">
        <ele>649.0</ele>
        <time>2020-09-29T08:24:28Z</time>
      </trkpt>
      <trkpt lat="40.7036100" lon="-3.5098230">
        <ele>649.0</ele>
        <time>2020-09-29T08:24:29Z</time>
      </trkpt>
      <trkpt lat="40.7037330" lon="-3.5098680">
        <ele>649.0</ele>
        <time>2020-09-29T08:24:30Z</time>
      </trkpt>
      <trkpt lat="40.7037950" lon="-3.5098900">
        <ele>649.0</ele>
        <time>2020-09-29T08:24:31Z</time>
      </trkpt>
      <trkpt lat="40.7037950" lon="-3.5098900">
        <ele>649.0</ele>
        <time>2020-09-29T08:24:32Z</time>
      </trkpt>
      <trkpt lat="40.7039200" lon="-3.5099350">
        <ele>649.0</ele>
        <time>2020-09-29T08:24:33Z</time>
      </trkpt>
      <trkpt lat="40.7039200" lon="-3.5099350">
        <ele>649.0</ele>
        <time>2020-09-29T08:24:34Z</time>
      </trkpt>
      <trkpt lat="40.7040470" lon="-3.5099730">
        <ele>649.0</ele>
        <time>2020-09-29T08:24:35Z</time>
      </trkpt>
      <trkpt lat="40.7040470" lon="-3.5099730">
        <ele>649.0</ele>
        <time>2020-09-29T08:24:36Z</time>
      </trkpt>
      <trkpt lat="40.7041700" lon="-3.5100130">
        <ele>649.0</ele>
        <time>2020-09-29T08:24:37Z</time>
      </trkpt>
      <trkpt lat="40.7042330" lon="-3.5100320">
        <ele>649.0</ele>
        <time>2020-09-29T08:24:38Z</time>
      </trkpt>
      <trkpt lat="40.7042330" lon="-3.5100320">
        <ele>649.0</ele>
        <time>2020-09-29T08:24:39Z</time>
      </trkpt>
      <trkpt lat="40.7043600" lon="-3.5100630">
        <ele>649.0</ele>
        <time>2020-09-29T08:24:40Z</time>
      </trkpt>
      <trkpt lat="40.7044250" lon="-3.5100750">
        <ele>649.0</ele>
        <time>2020-09-29T08:24:41Z</time>
      </trkpt>
      <trkpt lat="40.7044250" lon="-3.5100750">
        <ele>649.0</ele>
        <time>2020-09-29T08:24:42Z</time>
      </trkpt>
      <trkpt lat="40.7045550" lon="-3.5100920">
        <ele>649.0</ele>
        <time>2020-09-29T08:24:43Z</time>
      </trkpt>
      <trkpt lat="40.7046200" lon="-3.5100980">
        <ele>649.0</ele>
        <time>2020-09-29T08:24:44Z</time>
      </trkpt>
      <trkpt lat="40.7046200" lon="-3.5100980">
        <ele>649.0</ele>
        <time>2020-09-29T08:24:45Z</time>
      </trkpt>
      <trkpt lat="40.7047500" lon="-3.5101030">
        <ele>649.0</ele>
        <time>2020-09-29T08:24:46Z</time>
      </trkpt>
      <trkpt lat="40.7047500" lon="-3.5101030">
        <ele>649.0</ele>
        <time>2020-09-29T08:24:47Z</time>
      </trkpt>
      <trkpt lat="40.7048820" lon="-3.5101070">
        <ele>649.0</ele>
        <time>2020-09-29T08:24:48Z</time>
      </trkpt>
      <trkpt lat="40.7048820" lon="-3.5101070">
        <ele>649.0</ele>
        <time>2020-09-29T08:24:49Z</time>
      </trkpt>
      <trkpt lat="40.7050120" lon="-3.5101020">
        <ele>649.0</ele>
        <time>2020-09-29T08:24:50Z</time>
      </trkpt>
      <trkpt lat="40.7050770" lon="-3.5100980">
        <ele>650.0</ele>
        <time>2020-09-29T08:24:51Z</time>
      </trkpt>
      <trkpt lat="40.7051400" lon="-3.5100950">
        <ele>650.0</ele>
        <time>2020-09-29T08:24:52Z</time>
      </trkpt>
      <trkpt lat="40.7051400" lon="-3.5100950">
        <ele>650.0</ele>
        <time>2020-09-29T08:24:53Z</time>
      </trkpt>
      <trkpt lat="40.7052680" lon="-3.5100870">
        <ele>650.0</ele>
        <time>2020-09-29T08:24:54Z</time>
      </trkpt>
      <trkpt lat="40.7052680" lon="-3.5100870">
        <ele>650.0</ele>
        <time>2020-09-29T08:24:55Z</time>
      </trkpt>
      <trkpt lat="40.7053970" lon="-3.5100780">
        <ele>650.0</ele>
        <time>2020-09-29T08:24:56Z</time>
      </trkpt>
      <trkpt lat="40.7053970" lon="-3.5100780">
        <ele>650.0</ele>
        <time>2020-09-29T08:24:57Z</time>
      </trkpt>
      <trkpt lat="40.7055250" lon="-3.5100670">
        <ele>650.0</ele>
        <time>2020-09-29T08:24:58Z</time>
      </trkpt>
      <trkpt lat="40.7055900" lon="-3.5100600">
        <ele>650.0</ele>
        <time>2020-09-29T08:24:59Z</time>
      </trkpt>
      <trkpt lat="40.7055900" lon="-3.5100600">
        <ele>650.0</ele>
        <time>2020-09-29T08:25:00Z</time>
      </trkpt>
      <trkpt lat="40.7057180" lon="-3.5100470">
        <ele>650.0</ele>
        <time>2020-09-29T08:25:01Z</time>
      </trkpt>
      <trkpt lat="40.7057180" lon="-3.5100470">
        <ele>650.0</ele>
        <time>2020-09-29T08:25:02Z</time>
      </trkpt>
      <trkpt lat="40.7058450" lon="-3.5100380">
        <ele>650.0</ele>
        <time>2020-09-29T08:25:03Z</time>
      </trkpt>
      <trkpt lat="40.7058450" lon="-3.5100380">
        <ele>650.0</ele>
        <time>2020-09-29T08:25:04Z</time>
      </trkpt>
      <trkpt lat="40.7059720" lon="-3.5100330">
        <ele>650.0</ele>
        <time>2020-09-29T08:25:05Z</time>
      </trkpt>
      <trkpt lat="40.7061000" lon="-3.5100250">
        <ele>650.0</ele>
        <time>2020-09-29T08:25:06Z</time>
      </trkpt>
      <trkpt lat="40.7061000" lon="-3.5100250">
        <ele>650.0</ele>
        <time>2020-09-29T08:25:07Z</time>
      </trkpt>
      <trkpt lat="40.7061000" lon="-3.5100250">
        <ele>650.0</ele>
        <time>2020-09-29T08:25:08Z</time>
      </trkpt>
      <trkpt lat="40.7062270" lon="-3.5100130">
        <ele>650.0</ele>
        <time>2020-09-29T08:25:09Z</time>
      </trkpt>
      <trkpt lat="40.7062270" lon="-3.5100130">
        <ele>650.0</ele>
        <time>2020-09-29T08:25:10Z</time>
      </trkpt>
      <trkpt lat="40.7063530" lon="-3.5100050">
        <ele>650.0</ele>
        <time>2020-09-29T08:25:11Z</time>
      </trkpt>
      <trkpt lat="40.7064170" lon="-3.5100020">
        <ele>650.0</ele>
        <time>2020-09-29T08:25:12Z</time>
      </trkpt>
      <trkpt lat="40.7064800" lon="-3.5099970">
        <ele>650.0</ele>
        <time>2020-09-29T08:25:13Z</time>
      </trkpt>
      <trkpt lat="40.7064800" lon="-3.5099970">
        <ele>650.0</ele>
        <time>2020-09-29T08:25:14Z</time>
      </trkpt>
      <trkpt lat="40.7066050" lon="-3.5099870">
        <ele>650.0</ele>
        <time>2020-09-29T08:25:15Z</time>
      </trkpt>
      <trkpt lat="40.7066050" lon="-3.5099870">
        <ele>650.0</ele>
        <time>2020-09-29T08:25:16Z</time>
      </trkpt>
      <trkpt lat="40.7067280" lon="-3.5099770">
        <ele>651.0</ele>
        <time>2020-09-29T08:25:17Z</time>
      </trkpt>
      <trkpt lat="40.7067280" lon="-3.5099770">
        <ele>651.0</ele>
        <time>2020-09-29T08:25:18Z</time>
      </trkpt>
      <trkpt lat="40.7068530" lon="-3.5099670">
        <ele>651.0</ele>
        <time>2020-09-29T08:25:19Z</time>
      </trkpt>
      <trkpt lat="40.7069150" lon="-3.5099620">
        <ele>651.0</ele>
        <time>2020-09-29T08:25:20Z</time>
      </trkpt>
      <trkpt lat="40.7069150" lon="-3.5099620">
        <ele>651.0</ele>
        <time>2020-09-29T08:25:21Z</time>
      </trkpt>
      <trkpt lat="40.7070420" lon="-3.5099520">
        <ele>651.0</ele>
        <time>2020-09-29T08:25:22Z</time>
      </trkpt>
      <trkpt lat="40.7070420" lon="-3.5099520">
        <ele>651.0</ele>
        <time>2020-09-29T08:25:23Z</time>
      </trkpt>
      <trkpt lat="40.7071720" lon="-3.5099400">
        <ele>651.0</ele>
        <time>2020-09-29T08:25:24Z</time>
      </trkpt>
      <trkpt lat="40.7071720" lon="-3.5099400">
        <ele>651.0</ele>
        <time>2020-09-29T08:25:25Z</time>
      </trkpt>
      <trkpt lat="40.7072980" lon="-3.5099330">
        <ele>651.0</ele>
        <time>2020-09-29T08:25:26Z</time>
      </trkpt>
      <trkpt lat="40.7073620" lon="-3.5099280">
        <ele>651.0</ele>
        <time>2020-09-29T08:25:27Z</time>
      </trkpt>
      <trkpt lat="40.7073620" lon="-3.5099280">
        <ele>651.0</ele>
        <time>2020-09-29T08:25:28Z</time>
      </trkpt>
      <trkpt lat="40.7074900" lon="-3.5099150">
        <ele>651.0</ele>
        <time>2020-09-29T08:25:29Z</time>
      </trkpt>
      <trkpt lat="40.7075530" lon="-3.5099080">
        <ele>651.0</ele>
        <time>2020-09-29T08:25:30Z</time>
      </trkpt>
      <trkpt lat="40.7076180" lon="-3.5099030">
        <ele>651.0</ele>
        <time>2020-09-29T08:25:31Z</time>
      </trkpt>
      <trkpt lat="40.7076180" lon="-3.5099030">
        <ele>651.0</ele>
        <time>2020-09-29T08:25:32Z</time>
      </trkpt>
      <trkpt lat="40.7077450" lon="-3.5098950">
        <ele>651.0</ele>
        <time>2020-09-29T08:25:33Z</time>
      </trkpt>
      <trkpt lat="40.7077450" lon="-3.5098950">
        <ele>651.0</ele>
        <time>2020-09-29T08:25:34Z</time>
      </trkpt>
      <trkpt lat="40.7078730" lon="-3.5098850">
        <ele>651.0</ele>
        <time>2020-09-29T08:25:35Z</time>
      </trkpt>
      <trkpt lat="40.7079380" lon="-3.5098800">
        <ele>651.0</ele>
        <time>2020-09-29T08:25:36Z</time>
      </trkpt>
      <trkpt lat="40.7079380" lon="-3.5098800">
        <ele>651.0</ele>
        <time>2020-09-29T08:25:37Z</time>
      </trkpt>
      <trkpt lat="40.7080720" lon="-3.5098670">
        <ele>651.0</ele>
        <time>2020-09-29T08:25:38Z</time>
      </trkpt>
      <trkpt lat="40.7081400" lon="-3.5098630">
        <ele>651.0</ele>
        <time>2020-09-29T08:25:39Z</time>
      </trkpt>
      <trkpt lat="40.7081400" lon="-3.5098630">
        <ele>651.0</ele>
        <time>2020-09-29T08:25:40Z</time>
      </trkpt>
      <trkpt lat="40.7082700" lon="-3.5098570">
        <ele>651.0</ele>
        <time>2020-09-29T08:25:41Z</time>
      </trkpt>
      <trkpt lat="40.7082700" lon="-3.5098570">
        <ele>651.0</ele>
        <time>2020-09-29T08:25:42Z</time>
      </trkpt>
      <trkpt lat="40.7083970" lon="-3.5098470">
        <ele>651.0</ele>
        <time>2020-09-29T08:25:43Z</time>
      </trkpt>
      <trkpt lat="40.7083970" lon="-3.5098470">
        <ele>651.0</ele>
        <time>2020-09-29T08:25:44Z</time>
      </trkpt>
      <trkpt lat="40.7085280" lon="-3.5098350">
        <ele>651.0</ele>
        <time>2020-09-29T08:25:45Z</time>
      </trkpt>
      <trkpt lat="40.7085920" lon="-3.5098300">
        <ele>651.0</ele>
        <time>2020-09-29T08:25:46Z</time>
      </trkpt>
      <trkpt lat="40.7085920" lon="-3.5098300">
        <ele>651.0</ele>
        <time>2020-09-29T08:25:47Z</time>
      </trkpt>
      <trkpt lat="40.7087220" lon="-3.5098200">
        <ele>651.0</ele>
        <time>2020-09-29T08:25:48Z</time>
      </trkpt>
      <trkpt lat="40.7087870" lon="-3.5098170">
        <ele>651.0</ele>
        <time>2020-09-29T08:25:49Z</time>
      </trkpt>
      <trkpt lat="40.7088520" lon="-3.5098120">
        <ele>651.0</ele>
        <time>2020-09-29T08:25:50Z</time>
      </trkpt>
      <trkpt lat="40.7088520" lon="-3.5098120">
        <ele>652.0</ele>
        <time>2020-09-29T08:25:51Z</time>
      </trkpt>
      <trkpt lat="40.7089800" lon="-3.5098020">
        <ele>652.0</ele>
        <time>2020-09-29T08:25:52Z</time>
      </trkpt>
      <trkpt lat="40.7089800" lon="-3.5098020">
        <ele>652.0</ele>
        <time>2020-09-29T08:25:53Z</time>
      </trkpt>
      <trkpt lat="40.7091080" lon="-3.5097920">
        <ele>652.0</ele>
        <time>2020-09-29T08:25:54Z</time>
      </trkpt>
      <trkpt lat="40.7091080" lon="-3.5097920">
        <ele>652.0</ele>
        <time>2020-09-29T08:25:55Z</time>
      </trkpt>
      <trkpt lat="40.7092370" lon="-3.5097820">
        <ele>652.0</ele>
        <time>2020-09-29T08:25:56Z</time>
      </trkpt>
      <trkpt lat="40.7092370" lon="-3.5097820">
        <ele>652.0</ele>
        <time>2020-09-29T08:25:57Z</time>
      </trkpt>
      <trkpt lat="40.7093650" lon="-3.5097730">
        <ele>652.0</ele>
        <time>2020-09-29T08:25:58Z</time>
      </trkpt>
      <trkpt lat="40.7094280" lon="-3.5097680">
        <ele>652.0</ele>
        <time>2020-09-29T08:25:59Z</time>
      </trkpt>
      <trkpt lat="40.7094280" lon="-3.5097680">
        <ele>652.0</ele>
        <time>2020-09-29T08:26:00Z</time>
      </trkpt>
      <trkpt lat="40.7095530" lon="-3.5097580">
        <ele>652.0</ele>
        <time>2020-09-29T08:26:01Z</time>
      </trkpt>
      <trkpt lat="40.7095530" lon="-3.5097580">
        <ele>652.0</ele>
        <time>2020-09-29T08:26:02Z</time>
      </trkpt>
      <trkpt lat="40.7096780" lon="-3.5097470">
        <ele>652.0</ele>
        <time>2020-09-29T08:26:03Z</time>
      </trkpt>
      <trkpt lat="40.7096780" lon="-3.5097470">
        <ele>652.0</ele>
        <time>2020-09-29T08:26:04Z</time>
      </trkpt>
      <trkpt lat="40.7098050" lon="-3.5097380">
        <ele>652.0</ele>
        <time>2020-09-29T08:26:05Z</time>
      </trkpt>
      <trkpt lat="40.7098050" lon="-3.5097380">
        <ele>652.0</ele>
        <time>2020-09-29T08:26:06Z</time>
      </trkpt>
      <trkpt lat="40.7099320" lon="-3.5097280">
        <ele>652.0</ele>
        <time>2020-09-29T08:26:07Z</time>
      </trkpt>
      <trkpt lat="40.7099320" lon="-3.5097280">
        <ele>652.0</ele>
        <time>2020-09-29T08:26:08Z</time>
      </trkpt>
      <trkpt lat="40.7100580" lon="-3.5097200">
        <ele>652.0</ele>
        <time>2020-09-29T08:26:09Z</time>
      </trkpt>
      <trkpt lat="40.7101220" lon="-3.5097150">
        <ele>652.0</ele>
        <time>2020-09-29T08:26:10Z</time>
      </trkpt>
      <trkpt lat="40.7101220" lon="-3.5097150">
        <ele>652.0</ele>
        <time>2020-09-29T08:26:11Z</time>
      </trkpt>
      <trkpt lat="40.7102470" lon="-3.5097020">
        <ele>652.0</ele>
        <time>2020-09-29T08:26:12Z</time>
      </trkpt>
      <trkpt lat="40.7102470" lon="-3.5097020">
        <ele>652.0</ele>
        <time>2020-09-29T08:26:13Z</time>
      </trkpt>
      <trkpt lat="40.7103700" lon="-3.5096930">
        <ele>652.0</ele>
        <time>2020-09-29T08:26:14Z</time>
      </trkpt>
      <trkpt lat="40.7103700" lon="-3.5096930">
        <ele>652.0</ele>
        <time>2020-09-29T08:26:15Z</time>
      </trkpt>
      <trkpt lat="40.7104930" lon="-3.5096800">
        <ele>652.0</ele>
        <time>2020-09-29T08:26:16Z</time>
      </trkpt>
      <trkpt lat="40.7104930" lon="-3.5096800">
        <ele>652.0</ele>
        <time>2020-09-29T08:26:17Z</time>
      </trkpt>
      <trkpt lat="40.7106150" lon="-3.5096680">
        <ele>652.0</ele>
        <time>2020-09-29T08:26:18Z</time>
      </trkpt>
      <trkpt lat="40.7106750" lon="-3.5096670">
        <ele>652.0</ele>
        <time>2020-09-29T08:26:19Z</time>
      </trkpt>
      <trkpt lat="40.7106750" lon="-3.5096670">
        <ele>652.0</ele>
        <time>2020-09-29T08:26:20Z</time>
      </trkpt>
      <trkpt lat="40.7107970" lon="-3.5096600">
        <ele>652.0</ele>
        <time>2020-09-29T08:26:21Z</time>
      </trkpt>
      <trkpt lat="40.7107970" lon="-3.5096600">
        <ele>652.0</ele>
        <time>2020-09-29T08:26:22Z</time>
      </trkpt>
      <trkpt lat="40.7109230" lon="-3.5096470">
        <ele>652.0</ele>
        <time>2020-09-29T08:26:23Z</time>
      </trkpt>
      <trkpt lat="40.7109900" lon="-3.5096420">
        <ele>652.0</ele>
        <time>2020-09-29T08:26:24Z</time>
      </trkpt>
      <trkpt lat="40.7110580" lon="-3.5096370">
        <ele>652.0</ele>
        <time>2020-09-29T08:26:25Z</time>
      </trkpt>
      <trkpt lat="40.7111280" lon="-3.5096320">
        <ele>652.0</ele>
        <time>2020-09-29T08:26:26Z</time>
      </trkpt>
      <trkpt lat="40.7111280" lon="-3.5096320">
        <ele>652.0</ele>
        <time>2020-09-29T08:26:27Z</time>
      </trkpt>
      <trkpt lat="40.7112720" lon="-3.5096200">
        <ele>652.0</ele>
        <time>2020-09-29T08:26:28Z</time>
      </trkpt>
      <trkpt lat="40.7112720" lon="-3.5096200">
        <ele>652.0</ele>
        <time>2020-09-29T08:26:29Z</time>
      </trkpt>
      <trkpt lat="40.7114180" lon="-3.5096080">
        <ele>652.0</ele>
        <time>2020-09-29T08:26:30Z</time>
      </trkpt>
      <trkpt lat="40.7114930" lon="-3.5096030">
        <ele>652.0</ele>
        <time>2020-09-29T08:26:31Z</time>
      </trkpt>
      <trkpt lat="40.7114930" lon="-3.5096030">
        <ele>651.0</ele>
        <time>2020-09-29T08:26:32Z</time>
      </trkpt>
      <trkpt lat="40.7116420" lon="-3.5095970">
        <ele>651.0</ele>
        <time>2020-09-29T08:26:33Z</time>
      </trkpt>
      <trkpt lat="40.7116420" lon="-3.5095970">
        <ele>651.0</ele>
        <time>2020-09-29T08:26:34Z</time>
      </trkpt>
      <trkpt lat="40.7117950" lon="-3.5095920">
        <ele>651.0</ele>
        <time>2020-09-29T08:26:35Z</time>
      </trkpt>
      <trkpt lat="40.7117950" lon="-3.5095920">
        <ele>651.0</ele>
        <time>2020-09-29T08:26:36Z</time>
      </trkpt>
      <trkpt lat="40.7119480" lon="-3.5095920">
        <ele>651.0</ele>
        <time>2020-09-29T08:26:37Z</time>
      </trkpt>
      <trkpt lat="40.7119480" lon="-3.5095920">
        <ele>650.0</ele>
        <time>2020-09-29T08:26:38Z</time>
      </trkpt>
      <trkpt lat="40.7121030" lon="-3.5096000">
        <ele>650.0</ele>
        <time>2020-09-29T08:26:39Z</time>
      </trkpt>
      <trkpt lat="40.7121820" lon="-3.5096070">
        <ele>650.0</ele>
        <time>2020-09-29T08:26:40Z</time>
      </trkpt>
      <trkpt lat="40.7121820" lon="-3.5096070">
        <ele>650.0</ele>
        <time>2020-09-29T08:26:41Z</time>
      </trkpt>
      <trkpt lat="40.7123350" lon="-3.5096230">
        <ele>649.0</ele>
        <time>2020-09-29T08:26:42Z</time>
      </trkpt>
      <trkpt lat="40.7124100" lon="-3.5096330">
        <ele>649.0</ele>
        <time>2020-09-29T08:26:43Z</time>
      </trkpt>
      <trkpt lat="40.7124870" lon="-3.5096450">
        <ele>649.0</ele>
        <time>2020-09-29T08:26:44Z</time>
      </trkpt>
      <trkpt lat="40.7124870" lon="-3.5096450">
        <ele>649.0</ele>
        <time>2020-09-29T08:26:45Z</time>
      </trkpt>
      <trkpt lat="40.7126350" lon="-3.5096700">
        <ele>648.0</ele>
        <time>2020-09-29T08:26:46Z</time>
      </trkpt>
      <trkpt lat="40.7126350" lon="-3.5096700">
        <ele>648.0</ele>
        <time>2020-09-29T08:26:47Z</time>
      </trkpt>
      <trkpt lat="40.7127820" lon="-3.5096930">
        <ele>648.0</ele>
        <time>2020-09-29T08:26:48Z</time>
      </trkpt>
      <trkpt lat="40.7128530" lon="-3.5097050">
        <ele>648.0</ele>
        <time>2020-09-29T08:26:49Z</time>
      </trkpt>
      <trkpt lat="40.7128530" lon="-3.5097050">
        <ele>648.0</ele>
        <time>2020-09-29T08:26:50Z</time>
      </trkpt>
      <trkpt lat="40.7129950" lon="-3.5097230">
        <ele>648.0</ele>
        <time>2020-09-29T08:26:51Z</time>
      </trkpt>
      <trkpt lat="40.7129950" lon="-3.5097230">
        <ele>647.0</ele>
        <time>2020-09-29T08:26:52Z</time>
      </trkpt>
      <trkpt lat="40.7131350" lon="-3.5097420">
        <ele>647.0</ele>
        <time>2020-09-29T08:26:53Z</time>
      </trkpt>
      <trkpt lat="40.7131350" lon="-3.5097420">
        <ele>647.0</ele>
        <time>2020-09-29T08:26:54Z</time>
      </trkpt>
      <trkpt lat="40.7132750" lon="-3.5097650">
        <ele>647.0</ele>
        <time>2020-09-29T08:26:55Z</time>
      </trkpt>
      <trkpt lat="40.7132750" lon="-3.5097650">
        <ele>647.0</ele>
        <time>2020-09-29T08:26:56Z</time>
      </trkpt>
      <trkpt lat="40.7134130" lon="-3.5097850">
        <ele>647.0</ele>
        <time>2020-09-29T08:26:57Z</time>
      </trkpt>
      <trkpt lat="40.7134850" lon="-3.5097950">
        <ele>647.0</ele>
        <time>2020-09-29T08:26:58Z</time>
      </trkpt>
      <trkpt lat="40.7135550" lon="-3.5098030">
        <ele>647.0</ele>
        <time>2020-09-29T08:26:59Z</time>
      </trkpt>
      <trkpt lat="40.7135550" lon="-3.5098030">
        <ele>647.0</ele>
        <time>2020-09-29T08:27:00Z</time>
      </trkpt>
      <trkpt lat="40.7136970" lon="-3.5098270">
        <ele>647.0</ele>
        <time>2020-09-29T08:27:01Z</time>
      </trkpt>
      <trkpt lat="40.7136970" lon="-3.5098270">
        <ele>647.0</ele>
        <time>2020-09-29T08:27:02Z</time>
      </trkpt>
      <trkpt lat="40.7138350" lon="-3.5098470">
        <ele>647.0</ele>
        <time>2020-09-29T08:27:03Z</time>
      </trkpt>
      <trkpt lat="40.7138350" lon="-3.5098470">
        <ele>647.0</ele>
        <time>2020-09-29T08:27:04Z</time>
      </trkpt>
      <trkpt lat="40.7139750" lon="-3.5098700">
        <ele>647.0</ele>
        <time>2020-09-29T08:27:05Z</time>
      </trkpt>
      <trkpt lat="40.7139750" lon="-3.5098700">
        <ele>647.0</ele>
        <time>2020-09-29T08:27:06Z</time>
      </trkpt>
      <trkpt lat="40.7141130" lon="-3.5098920">
        <ele>647.0</ele>
        <time>2020-09-29T08:27:07Z</time>
      </trkpt>
      <trkpt lat="40.7141130" lon="-3.5098920">
        <ele>647.0</ele>
        <time>2020-09-29T08:27:08Z</time>
      </trkpt>
      <trkpt lat="40.7142520" lon="-3.5099080">
        <ele>647.0</ele>
        <time>2020-09-29T08:27:09Z</time>
      </trkpt>
      <trkpt lat="40.7143220" lon="-3.5099180">
        <ele>647.0</ele>
        <time>2020-09-29T08:27:10Z</time>
      </trkpt>
      <trkpt lat="40.7143220" lon="-3.5099180">
        <ele>647.0</ele>
        <time>2020-09-29T08:27:11Z</time>
      </trkpt>
      <trkpt lat="40.7144600" lon="-3.5099380">
        <ele>647.0</ele>
        <time>2020-09-29T08:27:12Z</time>
      </trkpt>
      <trkpt lat="40.7144600" lon="-3.5099380">
        <ele>647.0</ele>
        <time>2020-09-29T08:27:13Z</time>
      </trkpt>
      <trkpt lat="40.7145950" lon="-3.5099570">
        <ele>647.0</ele>
        <time>2020-09-29T08:27:14Z</time>
      </trkpt>
      <trkpt lat="40.7145950" lon="-3.5099570">
        <ele>647.0</ele>
        <time>2020-09-29T08:27:15Z</time>
      </trkpt>
      <trkpt lat="40.7147320" lon="-3.5099700">
        <ele>647.0</ele>
        <time>2020-09-29T08:27:16Z</time>
      </trkpt>
      <trkpt lat="40.7147320" lon="-3.5099700">
        <ele>647.0</ele>
        <time>2020-09-29T08:27:17Z</time>
      </trkpt>
      <trkpt lat="40.7148680" lon="-3.5099870">
        <ele>647.0</ele>
        <time>2020-09-29T08:27:18Z</time>
      </trkpt>
      <trkpt lat="40.7148680" lon="-3.5099870">
        <ele>647.0</ele>
        <time>2020-09-29T08:27:19Z</time>
      </trkpt>
      <trkpt lat="40.7150070" lon="-3.5100070">
        <ele>647.0</ele>
        <time>2020-09-29T08:27:20Z</time>
      </trkpt>
      <trkpt lat="40.7150070" lon="-3.5100070">
        <ele>647.0</ele>
        <time>2020-09-29T08:27:21Z</time>
      </trkpt>
      <trkpt lat="40.7151430" lon="-3.5100250">
        <ele>647.0</ele>
        <time>2020-09-29T08:27:22Z</time>
      </trkpt>
      <trkpt lat="40.7152100" lon="-3.5100330">
        <ele>647.0</ele>
        <time>2020-09-29T08:27:23Z</time>
      </trkpt>
      <trkpt lat="40.7152100" lon="-3.5100330">
        <ele>647.0</ele>
        <time>2020-09-29T08:27:24Z</time>
      </trkpt>
      <trkpt lat="40.7153370" lon="-3.5100530">
        <ele>647.0</ele>
        <time>2020-09-29T08:27:25Z</time>
      </trkpt>
      <trkpt lat="40.7153370" lon="-3.5100530">
        <ele>647.0</ele>
        <time>2020-09-29T08:27:26Z</time>
      </trkpt>
      <trkpt lat="40.7154570" lon="-3.5100720">
        <ele>647.0</ele>
        <time>2020-09-29T08:27:27Z</time>
      </trkpt>
      <trkpt lat="40.7154570" lon="-3.5100720">
        <ele>647.0</ele>
        <time>2020-09-29T08:27:28Z</time>
      </trkpt>
      <trkpt lat="40.7155670" lon="-3.5100900">
        <ele>647.0</ele>
        <time>2020-09-29T08:27:29Z</time>
      </trkpt>
      <trkpt lat="40.7156220" lon="-3.5101030">
        <ele>647.0</ele>
        <time>2020-09-29T08:27:30Z</time>
      </trkpt>
      <trkpt lat="40.7156220" lon="-3.5101030">
        <ele>648.0</ele>
        <time>2020-09-29T08:27:31Z</time>
      </trkpt>
      <trkpt lat="40.7157300" lon="-3.5101200">
        <ele>648.0</ele>
        <time>2020-09-29T08:27:32Z</time>
      </trkpt>
      <trkpt lat="40.7157300" lon="-3.5101200">
        <ele>648.0</ele>
        <time>2020-09-29T08:27:33Z</time>
      </trkpt>
      <trkpt lat="40.7158330" lon="-3.5101380">
        <ele>649.0</ele>
        <time>2020-09-29T08:27:34Z</time>
      </trkpt>
      <trkpt lat="40.7158830" lon="-3.5101500">
        <ele>649.0</ele>
        <time>2020-09-29T08:27:35Z</time>
      </trkpt>
      <trkpt lat="40.7158830" lon="-3.5101500">
        <ele>649.0</ele>
        <time>2020-09-29T08:27:36Z</time>
      </trkpt>
      <trkpt lat="40.7159880" lon="-3.5101670">
        <ele>649.0</ele>
        <time>2020-09-29T08:27:37Z</time>
      </trkpt>
      <trkpt lat="40.7159880" lon="-3.5101670">
        <ele>650.0</ele>
        <time>2020-09-29T08:27:38Z</time>
      </trkpt>
      <trkpt lat="40.7160930" lon="-3.5101770">
        <ele>650.0</ele>
        <time>2020-09-29T08:27:39Z</time>
      </trkpt>
      <trkpt lat="40.7160930" lon="-3.5101770">
        <ele>650.0</ele>
        <time>2020-09-29T08:27:40Z</time>
      </trkpt>
      <trkpt lat="40.7161980" lon="-3.5101930">
        <ele>650.0</ele>
        <time>2020-09-29T08:27:41Z</time>
      </trkpt>
      <trkpt lat="40.7162500" lon="-3.5102000">
        <ele>650.0</ele>
        <time>2020-09-29T08:27:42Z</time>
      </trkpt>
      <trkpt lat="40.7162500" lon="-3.5102000">
        <ele>650.0</ele>
        <time>2020-09-29T08:27:43Z</time>
      </trkpt>
      <trkpt lat="40.7163550" lon="-3.5102150">
        <ele>651.0</ele>
        <time>2020-09-29T08:27:44Z</time>
      </trkpt>
      <trkpt lat="40.7163550" lon="-3.5102150">
        <ele>651.0</ele>
        <time>2020-09-29T08:27:45Z</time>
      </trkpt>
      <trkpt lat="40.7164580" lon="-3.5102300">
        <ele>651.0</ele>
        <time>2020-09-29T08:27:46Z</time>
      </trkpt>
      <trkpt lat="40.7164580" lon="-3.5102300">
        <ele>651.0</ele>
        <time>2020-09-29T08:27:47Z</time>
      </trkpt>
      <trkpt lat="40.7165570" lon="-3.5102430">
        <ele>651.0</ele>
        <time>2020-09-29T08:27:48Z</time>
      </trkpt>
      <trkpt lat="40.7166050" lon="-3.5102500">
        <ele>651.0</ele>
        <time>2020-09-29T08:27:49Z</time>
      </trkpt>
      <trkpt lat="40.7166050" lon="-3.5102500">
        <ele>651.0</ele>
        <time>2020-09-29T08:27:50Z</time>
      </trkpt>
      <trkpt lat="40.7167000" lon="-3.5102650">
        <ele>651.0</ele>
        <time>2020-09-29T08:27:51Z</time>
      </trkpt>
      <trkpt lat="40.7167000" lon="-3.5102650">
        <ele>652.0</ele>
        <time>2020-09-29T08:27:52Z</time>
      </trkpt>
      <trkpt lat="40.7167950" lon="-3.5102770">
        <ele>652.0</ele>
        <time>2020-09-29T08:27:53Z</time>
      </trkpt>
      <trkpt lat="40.7167950" lon="-3.5102770">
        <ele>652.0</ele>
        <time>2020-09-29T08:27:54Z</time>
      </trkpt>
      <trkpt lat="40.7168900" lon="-3.5102900">
        <ele>652.0</ele>
        <time>2020-09-29T08:27:55Z</time>
      </trkpt>
      <trkpt lat="40.7168900" lon="-3.5102900">
        <ele>653.0</ele>
        <time>2020-09-29T08:27:56Z</time>
      </trkpt>
      <trkpt lat="40.7169880" lon="-3.5103030">
        <ele>653.0</ele>
        <time>2020-09-29T08:27:57Z</time>
      </trkpt>
      <trkpt lat="40.7170370" lon="-3.5103100">
        <ele>653.0</ele>
        <time>2020-09-29T08:27:58Z</time>
      </trkpt>
      <trkpt lat="40.7170370" lon="-3.5103100">
        <ele>653.0</ele>
        <time>2020-09-29T08:27:59Z</time>
      </trkpt>
      <trkpt lat="40.7171370" lon="-3.5103250">
        <ele>653.0</ele>
        <time>2020-09-29T08:28:00Z</time>
      </trkpt>
      <trkpt lat="40.7171370" lon="-3.5103250">
        <ele>653.0</ele>
        <time>2020-09-29T08:28:01Z</time>
      </trkpt>
      <trkpt lat="40.7172380" lon="-3.5103370">
        <ele>653.0</ele>
        <time>2020-09-29T08:28:02Z</time>
      </trkpt>
      <trkpt lat="40.7172380" lon="-3.5103370">
        <ele>653.0</ele>
        <time>2020-09-29T08:28:03Z</time>
      </trkpt>
      <trkpt lat="40.7173420" lon="-3.5103520">
        <ele>654.0</ele>
        <time>2020-09-29T08:28:04Z</time>
      </trkpt>
      <trkpt lat="40.7173420" lon="-3.5103520">
        <ele>654.0</ele>
        <time>2020-09-29T08:28:05Z</time>
      </trkpt>
      <trkpt lat="40.7174450" lon="-3.5103680">
        <ele>654.0</ele>
        <time>2020-09-29T08:28:06Z</time>
      </trkpt>
      <trkpt lat="40.7174450" lon="-3.5103680">
        <ele>654.0</ele>
        <time>2020-09-29T08:28:07Z</time>
      </trkpt>
      <trkpt lat="40.7175480" lon="-3.5103830">
        <ele>654.0</ele>
        <time>2020-09-29T08:28:08Z</time>
      </trkpt>
      <trkpt lat="40.7175480" lon="-3.5103830">
        <ele>654.0</ele>
        <time>2020-09-29T08:28:09Z</time>
      </trkpt>
      <trkpt lat="40.7176530" lon="-3.5103980">
        <ele>654.0</ele>
        <time>2020-09-29T08:28:10Z</time>
      </trkpt>
      <trkpt lat="40.7176530" lon="-3.5103980">
        <ele>654.0</ele>
        <time>2020-09-29T08:28:11Z</time>
      </trkpt>
      <trkpt lat="40.7177630" lon="-3.5104130">
        <ele>654.0</ele>
        <time>2020-09-29T08:28:12Z</time>
      </trkpt>
      <trkpt lat="40.7177630" lon="-3.5104130">
        <ele>654.0</ele>
        <time>2020-09-29T08:28:13Z</time>
      </trkpt>
      <trkpt lat="40.7178770" lon="-3.5104300">
        <ele>654.0</ele>
        <time>2020-09-29T08:28:14Z</time>
      </trkpt>
      <trkpt lat="40.7178770" lon="-3.5104300">
        <ele>654.0</ele>
        <time>2020-09-29T08:28:15Z</time>
      </trkpt>
      <trkpt lat="40.7179900" lon="-3.5104430">
        <ele>654.0</ele>
        <time>2020-09-29T08:28:16Z</time>
      </trkpt>
      <trkpt lat="40.7179900" lon="-3.5104430">
        <ele>654.0</ele>
        <time>2020-09-29T08:28:17Z</time>
      </trkpt>
      <trkpt lat="40.7181020" lon="-3.5104620">
        <ele>654.0</ele>
        <time>2020-09-29T08:28:18Z</time>
      </trkpt>
      <trkpt lat="40.7181580" lon="-3.5104720">
        <ele>654.0</ele>
        <time>2020-09-29T08:28:19Z</time>
      </trkpt>
      <trkpt lat="40.7182150" lon="-3.5104800">
        <ele>654.0</ele>
        <time>2020-09-29T08:28:20Z</time>
      </trkpt>
      <trkpt lat="40.7182150" lon="-3.5104800">
        <ele>654.0</ele>
        <time>2020-09-29T08:28:21Z</time>
      </trkpt>
      <trkpt lat="40.7183270" lon="-3.5104970">
        <ele>654.0</ele>
        <time>2020-09-29T08:28:22Z</time>
      </trkpt>
      <trkpt lat="40.7183270" lon="-3.5104970">
        <ele>654.0</ele>
        <time>2020-09-29T08:28:23Z</time>
      </trkpt>
      <trkpt lat="40.7184400" lon="-3.5105170">
        <ele>654.0</ele>
        <time>2020-09-29T08:28:24Z</time>
      </trkpt>
      <trkpt lat="40.7184970" lon="-3.5105250">
        <ele>654.0</ele>
        <time>2020-09-29T08:28:25Z</time>
      </trkpt>
      <trkpt lat="40.7184970" lon="-3.5105250">
        <ele>655.0</ele>
        <time>2020-09-29T08:28:26Z</time>
      </trkpt>
      <trkpt lat="40.7186120" lon="-3.5105420">
        <ele>655.0</ele>
        <time>2020-09-29T08:28:27Z</time>
      </trkpt>
      <trkpt lat="40.7186700" lon="-3.5105480">
        <ele>655.0</ele>
        <time>2020-09-29T08:28:28Z</time>
      </trkpt>
      <trkpt lat="40.7186700" lon="-3.5105480">
        <ele>655.0</ele>
        <time>2020-09-29T08:28:29Z</time>
      </trkpt>
      <trkpt lat="40.7187870" lon="-3.5105630">
        <ele>655.0</ele>
        <time>2020-09-29T08:28:30Z</time>
      </trkpt>
      <trkpt lat="40.7187870" lon="-3.5105630">
        <ele>655.0</ele>
        <time>2020-09-29T08:28:31Z</time>
      </trkpt>
      <trkpt lat="40.7189030" lon="-3.5105830">
        <ele>655.0</ele>
        <time>2020-09-29T08:28:32Z</time>
      </trkpt>
      <trkpt lat="40.7189030" lon="-3.5105830">
        <ele>655.0</ele>
        <time>2020-09-29T08:28:33Z</time>
      </trkpt>
      <trkpt lat="40.7190220" lon="-3.5106030">
        <ele>655.0</ele>
        <time>2020-09-29T08:28:34Z</time>
      </trkpt>
      <trkpt lat="40.7190830" lon="-3.5106130">
        <ele>655.0</ele>
        <time>2020-09-29T08:28:35Z</time>
      </trkpt>
      <trkpt lat="40.7190830" lon="-3.5106130">
        <ele>655.0</ele>
        <time>2020-09-29T08:28:36Z</time>
      </trkpt>
      <trkpt lat="40.7192030" lon="-3.5106320">
        <ele>655.0</ele>
        <time>2020-09-29T08:28:37Z</time>
      </trkpt>
      <trkpt lat="40.7192030" lon="-3.5106320">
        <ele>655.0</ele>
        <time>2020-09-29T08:28:38Z</time>
      </trkpt>
      <trkpt lat="40.7193270" lon="-3.5106520">
        <ele>655.0</ele>
        <time>2020-09-29T08:28:39Z</time>
      </trkpt>
      <trkpt lat="40.7193270" lon="-3.5106520">
        <ele>654.0</ele>
        <time>2020-09-29T08:28:40Z</time>
      </trkpt>
      <trkpt lat="40.7194520" lon="-3.5106680">
        <ele>654.0</ele>
        <time>2020-09-29T08:28:41Z</time>
      </trkpt>
      <trkpt lat="40.7194520" lon="-3.5106680">
        <ele>654.0</ele>
        <time>2020-09-29T08:28:42Z</time>
      </trkpt>
      <trkpt lat="40.7195820" lon="-3.5106900">
        <ele>654.0</ele>
        <time>2020-09-29T08:28:43Z</time>
      </trkpt>
      <trkpt lat="40.7195820" lon="-3.5106900">
        <ele>654.0</ele>
        <time>2020-09-29T08:28:44Z</time>
      </trkpt>
      <trkpt lat="40.7197130" lon="-3.5107150">
        <ele>654.0</ele>
        <time>2020-09-29T08:28:45Z</time>
      </trkpt>
      <trkpt lat="40.7197780" lon="-3.5107280">
        <ele>654.0</ele>
        <time>2020-09-29T08:28:46Z</time>
      </trkpt>
      <trkpt lat="40.7197780" lon="-3.5107280">
        <ele>654.0</ele>
        <time>2020-09-29T08:28:47Z</time>
      </trkpt>
      <trkpt lat="40.7199120" lon="-3.5107620">
        <ele>653.0</ele>
        <time>2020-09-29T08:28:48Z</time>
      </trkpt>
      <trkpt lat="40.7199780" lon="-3.5107800">
        <ele>653.0</ele>
        <time>2020-09-29T08:28:49Z</time>
      </trkpt>
      <trkpt lat="40.7199780" lon="-3.5107800">
        <ele>653.0</ele>
        <time>2020-09-29T08:28:50Z</time>
      </trkpt>
      <trkpt lat="40.7201120" lon="-3.5108170">
        <ele>653.0</ele>
        <time>2020-09-29T08:28:51Z</time>
      </trkpt>
      <trkpt lat="40.7201780" lon="-3.5108370">
        <ele>653.0</ele>
        <time>2020-09-29T08:28:52Z</time>
      </trkpt>
      <trkpt lat="40.7201780" lon="-3.5108370">
        <ele>652.0</ele>
        <time>2020-09-29T08:28:53Z</time>
      </trkpt>
      <trkpt lat="40.7203120" lon="-3.5108820">
        <ele>652.0</ele>
        <time>2020-09-29T08:28:54Z</time>
      </trkpt>
      <trkpt lat="40.7203780" lon="-3.5109070">
        <ele>652.0</ele>
        <time>2020-09-29T08:28:55Z</time>
      </trkpt>
      <trkpt lat="40.7203780" lon="-3.5109070">
        <ele>652.0</ele>
        <time>2020-09-29T08:28:56Z</time>
      </trkpt>
      <trkpt lat="40.7205120" lon="-3.5109600">
        <ele>652.0</ele>
        <time>2020-09-29T08:28:57Z</time>
      </trkpt>
      <trkpt lat="40.7205120" lon="-3.5109600">
        <ele>652.0</ele>
        <time>2020-09-29T08:28:58Z</time>
      </trkpt>
      <trkpt lat="40.7206450" lon="-3.5110170">
        <ele>652.0</ele>
        <time>2020-09-29T08:28:59Z</time>
      </trkpt>
      <trkpt lat="40.7207120" lon="-3.5110470">
        <ele>652.0</ele>
        <time>2020-09-29T08:29:00Z</time>
      </trkpt>
      <trkpt lat="40.7207120" lon="-3.5110470">
        <ele>651.0</ele>
        <time>2020-09-29T08:29:01Z</time>
      </trkpt>
      <trkpt lat="40.7208450" lon="-3.5111050">
        <ele>651.0</ele>
        <time>2020-09-29T08:29:02Z</time>
      </trkpt>
      <trkpt lat="40.7208450" lon="-3.5111050">
        <ele>651.0</ele>
        <time>2020-09-29T08:29:03Z</time>
      </trkpt>
      <trkpt lat="40.7209770" lon="-3.5111630">
        <ele>651.0</ele>
        <time>2020-09-29T08:29:04Z</time>
      </trkpt>
      <trkpt lat="40.7209770" lon="-3.5111630">
        <ele>651.0</ele>
        <time>2020-09-29T08:29:05Z</time>
      </trkpt>
      <trkpt lat="40.7211080" lon="-3.5112200">
        <ele>651.0</ele>
        <time>2020-09-29T08:29:06Z</time>
      </trkpt>
      <trkpt lat="40.7211080" lon="-3.5112200">
        <ele>651.0</ele>
        <time>2020-09-29T08:29:07Z</time>
      </trkpt>
      <trkpt lat="40.7212380" lon="-3.5112800">
        <ele>651.0</ele>
        <time>2020-09-29T08:29:08Z</time>
      </trkpt>
      <trkpt lat="40.7212380" lon="-3.5112800">
        <ele>650.0</ele>
        <time>2020-09-29T08:29:09Z</time>
      </trkpt>
      <trkpt lat="40.7213680" lon="-3.5113350">
        <ele>650.0</ele>
        <time>2020-09-29T08:29:10Z</time>
      </trkpt>
      <trkpt lat="40.7214350" lon="-3.5113620">
        <ele>650.0</ele>
        <time>2020-09-29T08:29:11Z</time>
      </trkpt>
      <trkpt lat="40.7214350" lon="-3.5113620">
        <ele>650.0</ele>
        <time>2020-09-29T08:29:12Z</time>
      </trkpt>
      <trkpt lat="40.7215670" lon="-3.5114200">
        <ele>650.0</ele>
        <time>2020-09-29T08:29:13Z</time>
      </trkpt>
      <trkpt lat="40.7215670" lon="-3.5114200">
        <ele>650.0</ele>
        <time>2020-09-29T08:29:14Z</time>
      </trkpt>
      <trkpt lat="40.7217000" lon="-3.5114720">
        <ele>650.0</ele>
        <time>2020-09-29T08:29:15Z</time>
      </trkpt>
      <trkpt lat="40.7217000" lon="-3.5114720">
        <ele>650.0</ele>
        <time>2020-09-29T08:29:16Z</time>
      </trkpt>
      <trkpt lat="40.7218350" lon="-3.5115220">
        <ele>650.0</ele>
        <time>2020-09-29T08:29:17Z</time>
      </trkpt>
      <trkpt lat="40.7218350" lon="-3.5115220">
        <ele>650.0</ele>
        <time>2020-09-29T08:29:18Z</time>
      </trkpt>
      <trkpt lat="40.7219720" lon="-3.5115670">
        <ele>650.0</ele>
        <time>2020-09-29T08:29:19Z</time>
      </trkpt>
      <trkpt lat="40.7220400" lon="-3.5115880">
        <ele>650.0</ele>
        <time>2020-09-29T08:29:20Z</time>
      </trkpt>
      <trkpt lat="40.7220400" lon="-3.5115880">
        <ele>650.0</ele>
        <time>2020-09-29T08:29:21Z</time>
      </trkpt>
      <trkpt lat="40.7221830" lon="-3.5116270">
        <ele>650.0</ele>
        <time>2020-09-29T08:29:22Z</time>
      </trkpt>
      <trkpt lat="40.7221830" lon="-3.5116270">
        <ele>649.0</ele>
        <time>2020-09-29T08:29:23Z</time>
      </trkpt>
      <trkpt lat="40.7223250" lon="-3.5116620">
        <ele>649.0</ele>
        <time>2020-09-29T08:29:24Z</time>
      </trkpt>
      <trkpt lat="40.7223250" lon="-3.5116620">
        <ele>649.0</ele>
        <time>2020-09-29T08:29:25Z</time>
      </trkpt>
      <trkpt lat="40.7224700" lon="-3.5116870">
        <ele>649.0</ele>
        <time>2020-09-29T08:29:26Z</time>
      </trkpt>
      <trkpt lat="40.7225420" lon="-3.5116980">
        <ele>649.0</ele>
        <time>2020-09-29T08:29:27Z</time>
      </trkpt>
      <trkpt lat="40.7225420" lon="-3.5116980">
        <ele>649.0</ele>
        <time>2020-09-29T08:29:28Z</time>
      </trkpt>
      <trkpt lat="40.7226880" lon="-3.5117170">
        <ele>648.0</ele>
        <time>2020-09-29T08:29:29Z</time>
      </trkpt>
      <trkpt lat="40.7226880" lon="-3.5117170">
        <ele>648.0</ele>
        <time>2020-09-29T08:29:30Z</time>
      </trkpt>
      <trkpt lat="40.7228350" lon="-3.5117280">
        <ele>648.0</ele>
        <time>2020-09-29T08:29:31Z</time>
      </trkpt>
      <trkpt lat="40.7228350" lon="-3.5117280">
        <ele>648.0</ele>
        <time>2020-09-29T08:29:32Z</time>
      </trkpt>
      <trkpt lat="40.7229830" lon="-3.5117350">
        <ele>648.0</ele>
        <time>2020-09-29T08:29:33Z</time>
      </trkpt>
      <trkpt lat="40.7230580" lon="-3.5117330">
        <ele>647.0</ele>
        <time>2020-09-29T08:29:34Z</time>
      </trkpt>
      <trkpt lat="40.7230580" lon="-3.5117330">
        <ele>647.0</ele>
        <time>2020-09-29T08:29:35Z</time>
      </trkpt>
      <trkpt lat="40.7232050" lon="-3.5117320">
        <ele>647.0</ele>
        <time>2020-09-29T08:29:36Z</time>
      </trkpt>
      <trkpt lat="40.7232780" lon="-3.5117320">
        <ele>647.0</ele>
        <time>2020-09-29T08:29:37Z</time>
      </trkpt>
      <trkpt lat="40.7232780" lon="-3.5117320">
        <ele>647.0</ele>
        <time>2020-09-29T08:29:38Z</time>
      </trkpt>
      <trkpt lat="40.7234280" lon="-3.5117220">
        <ele>647.0</ele>
        <time>2020-09-29T08:29:39Z</time>
      </trkpt>
      <trkpt lat="40.7235030" lon="-3.5117130">
        <ele>646.0</ele>
        <time>2020-09-29T08:29:40Z</time>
      </trkpt>
      <trkpt lat="40.7235030" lon="-3.5117130">
        <ele>646.0</ele>
        <time>2020-09-29T08:29:41Z</time>
      </trkpt>
      <trkpt lat="40.7236480" lon="-3.5116920">
        <ele>646.0</ele>
        <time>2020-09-29T08:29:42Z</time>
      </trkpt>
      <trkpt lat="40.7236480" lon="-3.5116920">
        <ele>646.0</ele>
        <time>2020-09-29T08:29:43Z</time>
      </trkpt>
      <trkpt lat="40.7237930" lon="-3.5116680">
        <ele>646.0</ele>
        <time>2020-09-29T08:29:44Z</time>
      </trkpt>
      <trkpt lat="40.7237930" lon="-3.5116680">
        <ele>646.0</ele>
        <time>2020-09-29T08:29:45Z</time>
      </trkpt>
      <trkpt lat="40.7239400" lon="-3.5116430">
        <ele>646.0</ele>
        <time>2020-09-29T08:29:46Z</time>
      </trkpt>
      <trkpt lat="40.7239400" lon="-3.5116430">
        <ele>646.0</ele>
        <time>2020-09-29T08:29:47Z</time>
      </trkpt>
      <trkpt lat="40.7240870" lon="-3.5116230">
        <ele>646.0</ele>
        <time>2020-09-29T08:29:48Z</time>
      </trkpt>
      <trkpt lat="40.7240870" lon="-3.5116230">
        <ele>645.0</ele>
        <time>2020-09-29T08:29:49Z</time>
      </trkpt>
      <trkpt lat="40.7242350" lon="-3.5116020">
        <ele>645.0</ele>
        <time>2020-09-29T08:29:50Z</time>
      </trkpt>
      <trkpt lat="40.7242350" lon="-3.5116020">
        <ele>645.0</ele>
        <time>2020-09-29T08:29:51Z</time>
      </trkpt>
      <trkpt lat="40.7243850" lon="-3.5115780">
        <ele>645.0</ele>
        <time>2020-09-29T08:29:52Z</time>
      </trkpt>
      <trkpt lat="40.7243850" lon="-3.5115780">
        <ele>645.0</ele>
        <time>2020-09-29T08:29:53Z</time>
      </trkpt>
      <trkpt lat="40.7245330" lon="-3.5115550">
        <ele>645.0</ele>
        <time>2020-09-29T08:29:54Z</time>
      </trkpt>
      <trkpt lat="40.7245330" lon="-3.5115550">
        <ele>645.0</ele>
        <time>2020-09-29T08:29:55Z</time>
      </trkpt>
      <trkpt lat="40.7246830" lon="-3.5115300">
        <ele>645.0</ele>
        <time>2020-09-29T08:29:56Z</time>
      </trkpt>
      <trkpt lat="40.7247580" lon="-3.5115170">
        <ele>645.0</ele>
        <time>2020-09-29T08:29:57Z</time>
      </trkpt>
      <trkpt lat="40.7248330" lon="-3.5115050">
        <ele>645.0</ele>
        <time>2020-09-29T08:29:58Z</time>
      </trkpt>
      <trkpt lat="40.7248330" lon="-3.5115050">
        <ele>645.0</ele>
        <time>2020-09-29T08:29:59Z</time>
      </trkpt>
      <trkpt lat="40.7249820" lon="-3.5114850">
        <ele>645.0</ele>
        <time>2020-09-29T08:30:00Z</time>
      </trkpt>
      <trkpt lat="40.7250550" lon="-3.5114730">
        <ele>644.0</ele>
        <time>2020-09-29T08:30:01Z</time>
      </trkpt>
      <trkpt lat="40.7250550" lon="-3.5114730">
        <ele>644.0</ele>
        <time>2020-09-29T08:30:02Z</time>
      </trkpt>
      <trkpt lat="40.7252030" lon="-3.5114500">
        <ele>644.0</ele>
        <time>2020-09-29T08:30:03Z</time>
      </trkpt>
      <trkpt lat="40.7252770" lon="-3.5114380">
        <ele>644.0</ele>
        <time>2020-09-29T08:30:04Z</time>
      </trkpt>
      <trkpt lat="40.7252770" lon="-3.5114380">
        <ele>644.0</ele>
        <time>2020-09-29T08:30:05Z</time>
      </trkpt>
      <trkpt lat="40.7254230" lon="-3.5114150">
        <ele>644.0</ele>
        <time>2020-09-29T08:30:06Z</time>
      </trkpt>
      <trkpt lat="40.7254230" lon="-3.5114150">
        <ele>644.0</ele>
        <time>2020-09-29T08:30:07Z</time>
      </trkpt>
      <trkpt lat="40.7255670" lon="-3.5113920">
        <ele>644.0</ele>
        <time>2020-09-29T08:30:08Z</time>
      </trkpt>
      <trkpt lat="40.7255670" lon="-3.5113920">
        <ele>644.0</ele>
        <time>2020-09-29T08:30:09Z</time>
      </trkpt>
      <trkpt lat="40.7257100" lon="-3.5113630">
        <ele>644.0</ele>
        <time>2020-09-29T08:30:10Z</time>
      </trkpt>
      <trkpt lat="40.7257100" lon="-3.5113630">
        <ele>644.0</ele>
        <time>2020-09-29T08:30:11Z</time>
      </trkpt>
      <trkpt lat="40.7258580" lon="-3.5113330">
        <ele>643.0</ele>
        <time>2020-09-29T08:30:12Z</time>
      </trkpt>
      <trkpt lat="40.7259280" lon="-3.5113230">
        <ele>643.0</ele>
        <time>2020-09-29T08:30:13Z</time>
      </trkpt>
      <trkpt lat="40.7259280" lon="-3.5113230">
        <ele>643.0</ele>
        <time>2020-09-29T08:30:14Z</time>
      </trkpt>
      <trkpt lat="40.7260720" lon="-3.5112980">
        <ele>643.0</ele>
        <time>2020-09-29T08:30:15Z</time>
      </trkpt>
      <trkpt lat="40.7260720" lon="-3.5112980">
        <ele>643.0</ele>
        <time>2020-09-29T08:30:16Z</time>
      </trkpt>
      <trkpt lat="40.7262180" lon="-3.5112700">
        <ele>643.0</ele>
        <time>2020-09-29T08:30:17Z</time>
      </trkpt>
      <trkpt lat="40.7262180" lon="-3.5112700">
        <ele>643.0</ele>
        <time>2020-09-29T08:30:18Z</time>
      </trkpt>
      <trkpt lat="40.7263630" lon="-3.5112400">
        <ele>643.0</ele>
        <time>2020-09-29T08:30:19Z</time>
      </trkpt>
      <trkpt lat="40.7263630" lon="-3.5112400">
        <ele>642.0</ele>
        <time>2020-09-29T08:30:20Z</time>
      </trkpt>
      <trkpt lat="40.7265120" lon="-3.5112100">
        <ele>642.0</ele>
        <time>2020-09-29T08:30:21Z</time>
      </trkpt>
      <trkpt lat="40.7265120" lon="-3.5112100">
        <ele>642.0</ele>
        <time>2020-09-29T08:30:22Z</time>
      </trkpt>
      <trkpt lat="40.7266520" lon="-3.5111820">
        <ele>642.0</ele>
        <time>2020-09-29T08:30:23Z</time>
      </trkpt>
      <trkpt lat="40.7267230" lon="-3.5111700">
        <ele>642.0</ele>
        <time>2020-09-29T08:30:24Z</time>
      </trkpt>
      <trkpt lat="40.7267230" lon="-3.5111700">
        <ele>642.0</ele>
        <time>2020-09-29T08:30:25Z</time>
      </trkpt>
      <trkpt lat="40.7268630" lon="-3.5111420">
        <ele>642.0</ele>
        <time>2020-09-29T08:30:26Z</time>
      </trkpt>
      <trkpt lat="40.7268630" lon="-3.5111420">
        <ele>642.0</ele>
        <time>2020-09-29T08:30:27Z</time>
      </trkpt>
      <trkpt lat="40.7269980" lon="-3.5111180">
        <ele>642.0</ele>
        <time>2020-09-29T08:30:28Z</time>
      </trkpt>
      <trkpt lat="40.7269980" lon="-3.5111180">
        <ele>642.0</ele>
        <time>2020-09-29T08:30:29Z</time>
      </trkpt>
      <trkpt lat="40.7271350" lon="-3.5110880">
        <ele>642.0</ele>
        <time>2020-09-29T08:30:30Z</time>
      </trkpt>
      <trkpt lat="40.7272030" lon="-3.5110750">
        <ele>642.0</ele>
        <time>2020-09-29T08:30:31Z</time>
      </trkpt>
      <trkpt lat="40.7272030" lon="-3.5110750">
        <ele>642.0</ele>
        <time>2020-09-29T08:30:32Z</time>
      </trkpt>
      <trkpt lat="40.7273430" lon="-3.5110450">
        <ele>642.0</ele>
        <time>2020-09-29T08:30:33Z</time>
      </trkpt>
      <trkpt lat="40.7273430" lon="-3.5110450">
        <ele>642.0</ele>
        <time>2020-09-29T08:30:34Z</time>
      </trkpt>
      <trkpt lat="40.7274850" lon="-3.5110180">
        <ele>642.0</ele>
        <time>2020-09-29T08:30:35Z</time>
      </trkpt>
      <trkpt lat="40.7274850" lon="-3.5110180">
        <ele>642.0</ele>
        <time>2020-09-29T08:30:36Z</time>
      </trkpt>
      <trkpt lat="40.7276230" lon="-3.5109770">
        <ele>642.0</ele>
        <time>2020-09-29T08:30:37Z</time>
      </trkpt>
      <trkpt lat="40.7276230" lon="-3.5109770">
        <ele>642.0</ele>
        <time>2020-09-29T08:30:38Z</time>
      </trkpt>
      <trkpt lat="40.7277630" lon="-3.5109520">
        <ele>642.0</ele>
        <time>2020-09-29T08:30:39Z</time>
      </trkpt>
      <trkpt lat="40.7277630" lon="-3.5109520">
        <ele>642.0</ele>
        <time>2020-09-29T08:30:40Z</time>
      </trkpt>
      <trkpt lat="40.7279050" lon="-3.5109200">
        <ele>642.0</ele>
        <time>2020-09-29T08:30:41Z</time>
      </trkpt>
      <trkpt lat="40.7279050" lon="-3.5109200">
        <ele>642.0</ele>
        <time>2020-09-29T08:30:42Z</time>
      </trkpt>
      <trkpt lat="40.7280450" lon="-3.5108920">
        <ele>642.0</ele>
        <time>2020-09-29T08:30:43Z</time>
      </trkpt>
      <trkpt lat="40.7280450" lon="-3.5108920">
        <ele>642.0</ele>
        <time>2020-09-29T08:30:44Z</time>
      </trkpt>
      <trkpt lat="40.7281830" lon="-3.5108600">
        <ele>642.0</ele>
        <time>2020-09-29T08:30:45Z</time>
      </trkpt>
      <trkpt lat="40.7282530" lon="-3.5108430">
        <ele>642.0</ele>
        <time>2020-09-29T08:30:46Z</time>
      </trkpt>
      <trkpt lat="40.7282530" lon="-3.5108430">
        <ele>642.0</ele>
        <time>2020-09-29T08:30:47Z</time>
      </trkpt>
      <trkpt lat="40.7283920" lon="-3.5108170">
        <ele>642.0</ele>
        <time>2020-09-29T08:30:48Z</time>
      </trkpt>
      <trkpt lat="40.7284600" lon="-3.5108030">
        <ele>642.0</ele>
        <time>2020-09-29T08:30:49Z</time>
      </trkpt>
      <trkpt lat="40.7284600" lon="-3.5108030">
        <ele>642.0</ele>
        <time>2020-09-29T08:30:50Z</time>
      </trkpt>
      <trkpt lat="40.7285980" lon="-3.5107750">
        <ele>642.0</ele>
        <time>2020-09-29T08:30:51Z</time>
      </trkpt>
      <trkpt lat="40.7285980" lon="-3.5107750">
        <ele>642.0</ele>
        <time>2020-09-29T08:30:52Z</time>
      </trkpt>
      <trkpt lat="40.7287350" lon="-3.5107470">
        <ele>642.0</ele>
        <time>2020-09-29T08:30:53Z</time>
      </trkpt>
      <trkpt lat="40.7287350" lon="-3.5107470">
        <ele>642.0</ele>
        <time>2020-09-29T08:30:54Z</time>
      </trkpt>
      <trkpt lat="40.7288720" lon="-3.5107230">
        <ele>642.0</ele>
        <time>2020-09-29T08:30:55Z</time>
      </trkpt>
      <trkpt lat="40.7288720" lon="-3.5107230">
        <ele>642.0</ele>
        <time>2020-09-29T08:30:56Z</time>
      </trkpt>
      <trkpt lat="40.7290080" lon="-3.5107020">
        <ele>642.0</ele>
        <time>2020-09-29T08:30:57Z</time>
      </trkpt>
      <trkpt lat="40.7290080" lon="-3.5107020">
        <ele>642.0</ele>
        <time>2020-09-29T08:30:58Z</time>
      </trkpt>
      <trkpt lat="40.7291430" lon="-3.5106750">
        <ele>642.0</ele>
        <time>2020-09-29T08:30:59Z</time>
      </trkpt>
      <trkpt lat="40.7291430" lon="-3.5106750">
        <ele>642.0</ele>
        <time>2020-09-29T08:31:00Z</time>
      </trkpt>
      <trkpt lat="40.7292780" lon="-3.5106520">
        <ele>642.0</ele>
        <time>2020-09-29T08:31:01Z</time>
      </trkpt>
      <trkpt lat="40.7292780" lon="-3.5106520">
        <ele>642.0</ele>
        <time>2020-09-29T08:31:02Z</time>
      </trkpt>
      <trkpt lat="40.7294170" lon="-3.5106280">
        <ele>642.0</ele>
        <time>2020-09-29T08:31:03Z</time>
      </trkpt>
      <trkpt lat="40.7294850" lon="-3.5106200">
        <ele>642.0</ele>
        <time>2020-09-29T08:31:04Z</time>
      </trkpt>
      <trkpt lat="40.7295520" lon="-3.5106100">
        <ele>642.0</ele>
        <time>2020-09-29T08:31:05Z</time>
      </trkpt>
      <trkpt lat="40.7295520" lon="-3.5106100">
        <ele>642.0</ele>
        <time>2020-09-29T08:31:06Z</time>
      </trkpt>
      <trkpt lat="40.7296880" lon="-3.5105850">
        <ele>642.0</ele>
        <time>2020-09-29T08:31:07Z</time>
      </trkpt>
      <trkpt lat="40.7296880" lon="-3.5105850">
        <ele>642.0</ele>
        <time>2020-09-29T08:31:08Z</time>
      </trkpt>
      <trkpt lat="40.7298220" lon="-3.5105600">
        <ele>642.0</ele>
        <time>2020-09-29T08:31:09Z</time>
      </trkpt>
      <trkpt lat="40.7298220" lon="-3.5105600">
        <ele>642.0</ele>
        <time>2020-09-29T08:31:10Z</time>
      </trkpt>
      <trkpt lat="40.7299530" lon="-3.5105370">
        <ele>642.0</ele>
        <time>2020-09-29T08:31:11Z</time>
      </trkpt>
      <trkpt lat="40.7300180" lon="-3.5105270">
        <ele>642.0</ele>
        <time>2020-09-29T08:31:12Z</time>
      </trkpt>
      <trkpt lat="40.7300180" lon="-3.5105270">
        <ele>642.0</ele>
        <time>2020-09-29T08:31:13Z</time>
      </trkpt>
      <trkpt lat="40.7301480" lon="-3.5105030">
        <ele>642.0</ele>
        <time>2020-09-29T08:31:14Z</time>
      </trkpt>
      <trkpt lat="40.7301480" lon="-3.5105030">
        <ele>642.0</ele>
        <time>2020-09-29T08:31:15Z</time>
      </trkpt>
      <trkpt lat="40.7302800" lon="-3.5104780">
        <ele>642.0</ele>
        <time>2020-09-29T08:31:16Z</time>
      </trkpt>
      <trkpt lat="40.7302800" lon="-3.5104780">
        <ele>642.0</ele>
        <time>2020-09-29T08:31:17Z</time>
      </trkpt>
      <trkpt lat="40.7304100" lon="-3.5104570">
        <ele>642.0</ele>
        <time>2020-09-29T08:31:18Z</time>
      </trkpt>
      <trkpt lat="40.7304750" lon="-3.5104480">
        <ele>642.0</ele>
        <time>2020-09-29T08:31:19Z</time>
      </trkpt>
      <trkpt lat="40.7305400" lon="-3.5104380">
        <ele>642.0</ele>
        <time>2020-09-29T08:31:20Z</time>
      </trkpt>
      <trkpt lat="40.7305400" lon="-3.5104380">
        <ele>642.0</ele>
        <time>2020-09-29T08:31:21Z</time>
      </trkpt>
      <trkpt lat="40.7306700" lon="-3.5104170">
        <ele>642.0</ele>
        <time>2020-09-29T08:31:22Z</time>
      </trkpt>
      <trkpt lat="40.7307350" lon="-3.5104050">
        <ele>642.0</ele>
        <time>2020-09-29T08:31:23Z</time>
      </trkpt>
      <trkpt lat="40.7307350" lon="-3.5104050">
        <ele>642.0</ele>
        <time>2020-09-29T08:31:24Z</time>
      </trkpt>
      <trkpt lat="40.7308630" lon="-3.5103830">
        <ele>642.0</ele>
        <time>2020-09-29T08:31:25Z</time>
      </trkpt>
      <trkpt lat="40.7308630" lon="-3.5103830">
        <ele>642.0</ele>
        <time>2020-09-29T08:31:26Z</time>
      </trkpt>
      <trkpt lat="40.7309920" lon="-3.5103620">
        <ele>642.0</ele>
        <time>2020-09-29T08:31:27Z</time>
      </trkpt>
      <trkpt lat="40.7310570" lon="-3.5103520">
        <ele>642.0</ele>
        <time>2020-09-29T08:31:28Z</time>
      </trkpt>
      <trkpt lat="40.7310570" lon="-3.5103520">
        <ele>642.0</ele>
        <time>2020-09-29T08:31:29Z</time>
      </trkpt>
      <trkpt lat="40.7311880" lon="-3.5103280">
        <ele>642.0</ele>
        <time>2020-09-29T08:31:30Z</time>
      </trkpt>
      <trkpt lat="40.7312530" lon="-3.5103180">
        <ele>642.0</ele>
        <time>2020-09-29T08:31:31Z</time>
      </trkpt>
      <trkpt lat="40.7312530" lon="-3.5103180">
        <ele>642.0</ele>
        <time>2020-09-29T08:31:32Z</time>
      </trkpt>
      <trkpt lat="40.7313850" lon="-3.5103020">
        <ele>642.0</ele>
        <time>2020-09-29T08:31:33Z</time>
      </trkpt>
      <trkpt lat="40.7314500" lon="-3.5102920">
        <ele>642.0</ele>
        <time>2020-09-29T08:31:34Z</time>
      </trkpt>
      <trkpt lat="40.7315150" lon="-3.5102800">
        <ele>642.0</ele>
        <time>2020-09-29T08:31:35Z</time>
      </trkpt>
      <trkpt lat="40.7315150" lon="-3.5102800">
        <ele>642.0</ele>
        <time>2020-09-29T08:31:36Z</time>
      </trkpt>
      <trkpt lat="40.7316430" lon="-3.5102600">
        <ele>642.0</ele>
        <time>2020-09-29T08:31:37Z</time>
      </trkpt>
      <trkpt lat="40.7317080" lon="-3.5102530">
        <ele>642.0</ele>
        <time>2020-09-29T08:31:38Z</time>
      </trkpt>
      <trkpt lat="40.7317080" lon="-3.5102530">
        <ele>642.0</ele>
        <time>2020-09-29T08:31:39Z</time>
      </trkpt>
      <trkpt lat="40.7318350" lon="-3.5102400">
        <ele>642.0</ele>
        <time>2020-09-29T08:31:40Z</time>
      </trkpt>
      <trkpt lat="40.7318350" lon="-3.5102400">
        <ele>642.0</ele>
        <time>2020-09-29T08:31:41Z</time>
      </trkpt>
      <trkpt lat="40.7319670" lon="-3.5102300">
        <ele>642.0</ele>
        <time>2020-09-29T08:31:42Z</time>
      </trkpt>
      <trkpt lat="40.7320300" lon="-3.5102270">
        <ele>642.0</ele>
        <time>2020-09-29T08:31:43Z</time>
      </trkpt>
      <trkpt lat="40.7320300" lon="-3.5102270">
        <ele>642.0</ele>
        <time>2020-09-29T08:31:44Z</time>
      </trkpt>
      <trkpt lat="40.7321630" lon="-3.5102150">
        <ele>642.0</ele>
        <time>2020-09-29T08:31:45Z</time>
      </trkpt>
      <trkpt lat="40.7322300" lon="-3.5102080">
        <ele>642.0</ele>
        <time>2020-09-29T08:31:46Z</time>
      </trkpt>
      <trkpt lat="40.7322300" lon="-3.5102080">
        <ele>642.0</ele>
        <time>2020-09-29T08:31:47Z</time>
      </trkpt>
      <trkpt lat="40.7323670" lon="-3.5102000">
        <ele>642.0</ele>
        <time>2020-09-29T08:31:48Z</time>
      </trkpt>
      <trkpt lat="40.7323670" lon="-3.5102000">
        <ele>642.0</ele>
        <time>2020-09-29T08:31:49Z</time>
      </trkpt>
      <trkpt lat="40.7325050" lon="-3.5101980">
        <ele>642.0</ele>
        <time>2020-09-29T08:31:50Z</time>
      </trkpt>
      <trkpt lat="40.7325750" lon="-3.5101970">
        <ele>642.0</ele>
        <time>2020-09-29T08:31:51Z</time>
      </trkpt>
      <trkpt lat="40.7325750" lon="-3.5101970">
        <ele>642.0</ele>
        <time>2020-09-29T08:31:52Z</time>
      </trkpt>
      <trkpt lat="40.7327150" lon="-3.5101920">
        <ele>642.0</ele>
        <time>2020-09-29T08:31:53Z</time>
      </trkpt>
      <trkpt lat="40.7327150" lon="-3.5101920">
        <ele>642.0</ele>
        <time>2020-09-29T08:31:54Z</time>
      </trkpt>
      <trkpt lat="40.7328530" lon="-3.5101820">
        <ele>642.0</ele>
        <time>2020-09-29T08:31:55Z</time>
      </trkpt>
      <trkpt lat="40.7328530" lon="-3.5101820">
        <ele>642.0</ele>
        <time>2020-09-29T08:31:56Z</time>
      </trkpt>
      <trkpt lat="40.7329900" lon="-3.5101770">
        <ele>642.0</ele>
        <time>2020-09-29T08:31:57Z</time>
      </trkpt>
      <trkpt lat="40.7330580" lon="-3.5101730">
        <ele>642.0</ele>
        <time>2020-09-29T08:31:58Z</time>
      </trkpt>
      <trkpt lat="40.7330580" lon="-3.5101730">
        <ele>642.0</ele>
        <time>2020-09-29T08:31:59Z</time>
      </trkpt>
      <trkpt lat="40.7331920" lon="-3.5101700">
        <ele>642.0</ele>
        <time>2020-09-29T08:32:00Z</time>
      </trkpt>
      <trkpt lat="40.7331920" lon="-3.5101700">
        <ele>642.0</ele>
        <time>2020-09-29T08:32:01Z</time>
      </trkpt>
      <trkpt lat="40.7333250" lon="-3.5101670">
        <ele>642.0</ele>
        <time>2020-09-29T08:32:02Z</time>
      </trkpt>
      <trkpt lat="40.7333250" lon="-3.5101670">
        <ele>642.0</ele>
        <time>2020-09-29T08:32:03Z</time>
      </trkpt>
      <trkpt lat="40.7334570" lon="-3.5101580">
        <ele>641.0</ele>
        <time>2020-09-29T08:32:04Z</time>
      </trkpt>
      <trkpt lat="40.7334570" lon="-3.5101580">
        <ele>641.0</ele>
        <time>2020-09-29T08:32:05Z</time>
      </trkpt>
      <trkpt lat="40.7335880" lon="-3.5101550">
        <ele>641.0</ele>
        <time>2020-09-29T08:32:06Z</time>
      </trkpt>
      <trkpt lat="40.7335880" lon="-3.5101550">
        <ele>641.0</ele>
        <time>2020-09-29T08:32:07Z</time>
      </trkpt>
      <trkpt lat="40.7337200" lon="-3.5101520">
        <ele>641.0</ele>
        <time>2020-09-29T08:32:08Z</time>
      </trkpt>
      <trkpt lat="40.7337200" lon="-3.5101520">
        <ele>641.0</ele>
        <time>2020-09-29T08:32:09Z</time>
      </trkpt>
      <trkpt lat="40.7338530" lon="-3.5101470">
        <ele>641.0</ele>
        <time>2020-09-29T08:32:10Z</time>
      </trkpt>
      <trkpt lat="40.7339180" lon="-3.5101420">
        <ele>641.0</ele>
        <time>2020-09-29T08:32:11Z</time>
      </trkpt>
      <trkpt lat="40.7339850" lon="-3.5101380">
        <ele>641.0</ele>
        <time>2020-09-29T08:32:12Z</time>
      </trkpt>
      <trkpt lat="40.7339850" lon="-3.5101380">
        <ele>641.0</ele>
        <time>2020-09-29T08:32:13Z</time>
      </trkpt>
      <trkpt lat="40.7341180" lon="-3.5101320">
        <ele>641.0</ele>
        <time>2020-09-29T08:32:14Z</time>
      </trkpt>
      <trkpt lat="40.7341180" lon="-3.5101320">
        <ele>641.0</ele>
        <time>2020-09-29T08:32:15Z</time>
      </trkpt>
      <trkpt lat="40.7342500" lon="-3.5101270">
        <ele>641.0</ele>
        <time>2020-09-29T08:32:16Z</time>
      </trkpt>
      <trkpt lat="40.7342500" lon="-3.5101270">
        <ele>641.0</ele>
        <time>2020-09-29T08:32:17Z</time>
      </trkpt>
      <trkpt lat="40.7343820" lon="-3.5101180">
        <ele>641.0</ele>
        <time>2020-09-29T08:32:18Z</time>
      </trkpt>
      <trkpt lat="40.7343820" lon="-3.5101180">
        <ele>641.0</ele>
        <time>2020-09-29T08:32:19Z</time>
      </trkpt>
      <trkpt lat="40.7345120" lon="-3.5101070">
        <ele>641.0</ele>
        <time>2020-09-29T08:32:20Z</time>
      </trkpt>
      <trkpt lat="40.7345770" lon="-3.5101000">
        <ele>641.0</ele>
        <time>2020-09-29T08:32:21Z</time>
      </trkpt>
      <trkpt lat="40.7345770" lon="-3.5101000">
        <ele>641.0</ele>
        <time>2020-09-29T08:32:22Z</time>
      </trkpt>
      <trkpt lat="40.7347080" lon="-3.5100920">
        <ele>642.0</ele>
        <time>2020-09-29T08:32:23Z</time>
      </trkpt>
      <trkpt lat="40.7347080" lon="-3.5100920">
        <ele>642.0</ele>
        <time>2020-09-29T08:32:24Z</time>
      </trkpt>
      <trkpt lat="40.7348380" lon="-3.5100800">
        <ele>642.0</ele>
        <time>2020-09-29T08:32:25Z</time>
      </trkpt>
      <trkpt lat="40.7348380" lon="-3.5100800">
        <ele>642.0</ele>
        <time>2020-09-29T08:32:26Z</time>
      </trkpt>
      <trkpt lat="40.7349670" lon="-3.5100630">
        <ele>642.0</ele>
        <time>2020-09-29T08:32:27Z</time>
      </trkpt>
      <trkpt lat="40.7350320" lon="-3.5100550">
        <ele>642.0</ele>
        <time>2020-09-29T08:32:28Z</time>
      </trkpt>
      <trkpt lat="40.7350320" lon="-3.5100550">
        <ele>642.0</ele>
        <time>2020-09-29T08:32:29Z</time>
      </trkpt>
      <trkpt lat="40.7351620" lon="-3.5100400">
        <ele>642.0</ele>
        <time>2020-09-29T08:32:30Z</time>
      </trkpt>
      <trkpt lat="40.7351620" lon="-3.5100400">
        <ele>642.0</ele>
        <time>2020-09-29T08:32:31Z</time>
      </trkpt>
      <trkpt lat="40.7352920" lon="-3.5100250">
        <ele>642.0</ele>
        <time>2020-09-29T08:32:32Z</time>
      </trkpt>
      <trkpt lat="40.7352920" lon="-3.5100250">
        <ele>642.0</ele>
        <time>2020-09-29T08:32:33Z</time>
      </trkpt>
      <trkpt lat="40.7354230" lon="-3.5100050">
        <ele>642.0</ele>
        <time>2020-09-29T08:32:34Z</time>
      </trkpt>
      <trkpt lat="40.7354230" lon="-3.5100050">
        <ele>642.0</ele>
        <time>2020-09-29T08:32:35Z</time>
      </trkpt>
      <trkpt lat="40.7355520" lon="-3.5099900">
        <ele>642.0</ele>
        <time>2020-09-29T08:32:36Z</time>
      </trkpt>
      <trkpt lat="40.7355520" lon="-3.5099900">
        <ele>642.0</ele>
        <time>2020-09-29T08:32:37Z</time>
      </trkpt>
      <trkpt lat="40.7356800" lon="-3.5099670">
        <ele>642.0</ele>
        <time>2020-09-29T08:32:38Z</time>
      </trkpt>
      <trkpt lat="40.7357450" lon="-3.5099520">
        <ele>642.0</ele>
        <time>2020-09-29T08:32:39Z</time>
      </trkpt>
      <trkpt lat="40.7357450" lon="-3.5099520">
        <ele>642.0</ele>
        <time>2020-09-29T08:32:40Z</time>
      </trkpt>
      <trkpt lat="40.7358750" lon="-3.5099280">
        <ele>642.0</ele>
        <time>2020-09-29T08:32:41Z</time>
      </trkpt>
      <trkpt lat="40.7358750" lon="-3.5099280">
        <ele>642.0</ele>
        <time>2020-09-29T08:32:42Z</time>
      </trkpt>
      <trkpt lat="40.7360050" lon="-3.5099050">
        <ele>642.0</ele>
        <time>2020-09-29T08:32:43Z</time>
      </trkpt>
      <trkpt lat="40.7360050" lon="-3.5099050">
        <ele>642.0</ele>
        <time>2020-09-29T08:32:44Z</time>
      </trkpt>
      <trkpt lat="40.7361370" lon="-3.5098750">
        <ele>642.0</ele>
        <time>2020-09-29T08:32:45Z</time>
      </trkpt>
      <trkpt lat="40.7361370" lon="-3.5098750">
        <ele>642.0</ele>
        <time>2020-09-29T08:32:46Z</time>
      </trkpt>
      <trkpt lat="40.7362630" lon="-3.5098530">
        <ele>642.0</ele>
        <time>2020-09-29T08:32:47Z</time>
      </trkpt>
      <trkpt lat="40.7362630" lon="-3.5098530">
        <ele>643.0</ele>
        <time>2020-09-29T08:32:48Z</time>
      </trkpt>
      <trkpt lat="40.7363880" lon="-3.5098300">
        <ele>643.0</ele>
        <time>2020-09-29T08:32:49Z</time>
      </trkpt>
      <trkpt lat="40.7364500" lon="-3.5098200">
        <ele>643.0</ele>
        <time>2020-09-29T08:32:50Z</time>
      </trkpt>
      <trkpt lat="40.7364500" lon="-3.5098200">
        <ele>643.0</ele>
        <time>2020-09-29T08:32:51Z</time>
      </trkpt>
      <trkpt lat="40.7365720" lon="-3.5097930">
        <ele>643.0</ele>
        <time>2020-09-29T08:32:52Z</time>
      </trkpt>
      <trkpt lat="40.7365720" lon="-3.5097930">
        <ele>643.0</ele>
        <time>2020-09-29T08:32:53Z</time>
      </trkpt>
      <trkpt lat="40.7366920" lon="-3.5097670">
        <ele>643.0</ele>
        <time>2020-09-29T08:32:54Z</time>
      </trkpt>
      <trkpt lat="40.7367500" lon="-3.5097530">
        <ele>643.0</ele>
        <time>2020-09-29T08:32:55Z</time>
      </trkpt>
      <trkpt lat="40.7367500" lon="-3.5097530">
        <ele>643.0</ele>
        <time>2020-09-29T08:32:56Z</time>
      </trkpt>
      <trkpt lat="40.7368700" lon="-3.5097300">
        <ele>643.0</ele>
        <time>2020-09-29T08:32:57Z</time>
      </trkpt>
      <trkpt lat="40.7369320" lon="-3.5097180">
        <ele>643.0</ele>
        <time>2020-09-29T08:32:58Z</time>
      </trkpt>
      <trkpt lat="40.7369320" lon="-3.5097180">
        <ele>643.0</ele>
        <time>2020-09-29T08:32:59Z</time>
      </trkpt>
      <trkpt lat="40.7370450" lon="-3.5096880">
        <ele>643.0</ele>
        <time>2020-09-29T08:33:00Z</time>
      </trkpt>
      <trkpt lat="40.7371020" lon="-3.5096700">
        <ele>643.0</ele>
        <time>2020-09-29T08:33:01Z</time>
      </trkpt>
      <trkpt lat="40.7371020" lon="-3.5096700">
        <ele>643.0</ele>
        <time>2020-09-29T08:33:02Z</time>
      </trkpt>
      <trkpt lat="40.7372130" lon="-3.5096330">
        <ele>643.0</ele>
        <time>2020-09-29T08:33:03Z</time>
      </trkpt>
      <trkpt lat="40.7372680" lon="-3.5096130">
        <ele>643.0</ele>
        <time>2020-09-29T08:33:04Z</time>
      </trkpt>
      <trkpt lat="40.7372680" lon="-3.5096130">
        <ele>643.0</ele>
        <time>2020-09-29T08:33:05Z</time>
      </trkpt>
      <trkpt lat="40.7373830" lon="-3.5095720">
        <ele>643.0</ele>
        <time>2020-09-29T08:33:06Z</time>
      </trkpt>
      <trkpt lat="40.7374420" lon="-3.5095520">
        <ele>643.0</ele>
        <time>2020-09-29T08:33:07Z</time>
      </trkpt>
      <trkpt lat="40.7375000" lon="-3.5095350">
        <ele>643.0</ele>
        <time>2020-09-29T08:33:08Z</time>
      </trkpt>
      <trkpt lat="40.7375000" lon="-3.5095350">
        <ele>643.0</ele>
        <time>2020-09-29T08:33:09Z</time>
      </trkpt>
      <trkpt lat="40.7376180" lon="-3.5095000">
        <ele>643.0</ele>
        <time>2020-09-29T08:33:10Z</time>
      </trkpt>
      <trkpt lat="40.7376180" lon="-3.5095000">
        <ele>643.0</ele>
        <time>2020-09-29T08:33:11Z</time>
      </trkpt>
      <trkpt lat="40.7377370" lon="-3.5094670">
        <ele>643.0</ele>
        <time>2020-09-29T08:33:12Z</time>
      </trkpt>
      <trkpt lat="40.7377370" lon="-3.5094670">
        <ele>643.0</ele>
        <time>2020-09-29T08:33:13Z</time>
      </trkpt>
      <trkpt lat="40.7378550" lon="-3.5094320">
        <ele>643.0</ele>
        <time>2020-09-29T08:33:14Z</time>
      </trkpt>
      <trkpt lat="40.7378550" lon="-3.5094320">
        <ele>643.0</ele>
        <time>2020-09-29T08:33:15Z</time>
      </trkpt>
      <trkpt lat="40.7379750" lon="-3.5093900">
        <ele>643.0</ele>
        <time>2020-09-29T08:33:16Z</time>
      </trkpt>
      <trkpt lat="40.7379750" lon="-3.5093900">
        <ele>643.0</ele>
        <time>2020-09-29T08:33:17Z</time>
      </trkpt>
      <trkpt lat="40.7380880" lon="-3.5093270">
        <ele>643.0</ele>
        <time>2020-09-29T08:33:18Z</time>
      </trkpt>
      <trkpt lat="40.7380880" lon="-3.5093270">
        <ele>643.0</ele>
        <time>2020-09-29T08:33:19Z</time>
      </trkpt>
      <trkpt lat="40.7381870" lon="-3.5092280">
        <ele>643.0</ele>
        <time>2020-09-29T08:33:20Z</time>
      </trkpt>
      <trkpt lat="40.7381870" lon="-3.5092280">
        <ele>643.0</ele>
        <time>2020-09-29T08:33:21Z</time>
      </trkpt>
      <trkpt lat="40.7382950" lon="-3.5091600">
        <ele>643.0</ele>
        <time>2020-09-29T08:33:22Z</time>
      </trkpt>
      <trkpt lat="40.7382950" lon="-3.5091600">
        <ele>643.0</ele>
        <time>2020-09-29T08:33:23Z</time>
      </trkpt>
      <trkpt lat="40.7384150" lon="-3.5091620">
        <ele>643.0</ele>
        <time>2020-09-29T08:33:24Z</time>
      </trkpt>
      <trkpt lat="40.7384720" lon="-3.5091880">
        <ele>643.0</ele>
        <time>2020-09-29T08:33:25Z</time>
      </trkpt>
      <trkpt lat="40.7384720" lon="-3.5091880">
        <ele>643.0</ele>
        <time>2020-09-29T08:33:26Z</time>
      </trkpt>
      <trkpt lat="40.7385870" lon="-3.5092500">
        <ele>643.0</ele>
        <time>2020-09-29T08:33:27Z</time>
      </trkpt>
      <trkpt lat="40.7385870" lon="-3.5092500">
        <ele>643.0</ele>
        <time>2020-09-29T08:33:28Z</time>
      </trkpt>
      <trkpt lat="40.7387130" lon="-3.5092800">
        <ele>643.0</ele>
        <time>2020-09-29T08:33:29Z</time>
      </trkpt>
      <trkpt lat="40.7387130" lon="-3.5092800">
        <ele>643.0</ele>
        <time>2020-09-29T08:33:30Z</time>
      </trkpt>
      <trkpt lat="40.7388400" lon="-3.5092650">
        <ele>643.0</ele>
        <time>2020-09-29T08:33:31Z</time>
      </trkpt>
      <trkpt lat="40.7388400" lon="-3.5092650">
        <ele>643.0</ele>
        <time>2020-09-29T08:33:32Z</time>
      </trkpt>
      <trkpt lat="40.7389680" lon="-3.5092400">
        <ele>643.0</ele>
        <time>2020-09-29T08:33:33Z</time>
      </trkpt>
      <trkpt lat="40.7390320" lon="-3.5092270">
        <ele>643.0</ele>
        <time>2020-09-29T08:33:34Z</time>
      </trkpt>
      <trkpt lat="40.7390930" lon="-3.5092100">
        <ele>643.0</ele>
        <time>2020-09-29T08:33:35Z</time>
      </trkpt>
      <trkpt lat="40.7390930" lon="-3.5092100">
        <ele>643.0</ele>
        <time>2020-09-29T08:33:36Z</time>
      </trkpt>
      <trkpt lat="40.7392180" lon="-3.5091820">
        <ele>643.0</ele>
        <time>2020-09-29T08:33:37Z</time>
      </trkpt>
      <trkpt lat="40.7392180" lon="-3.5091820">
        <ele>643.0</ele>
        <time>2020-09-29T08:33:38Z</time>
      </trkpt>
      <trkpt lat="40.7393400" lon="-3.5091580">
        <ele>643.0</ele>
        <time>2020-09-29T08:33:39Z</time>
      </trkpt>
      <trkpt lat="40.7393400" lon="-3.5091580">
        <ele>643.0</ele>
        <time>2020-09-29T08:33:40Z</time>
      </trkpt>
      <trkpt lat="40.7394630" lon="-3.5091380">
        <ele>643.0</ele>
        <time>2020-09-29T08:33:41Z</time>
      </trkpt>
      <trkpt lat="40.7394630" lon="-3.5091380">
        <ele>643.0</ele>
        <time>2020-09-29T08:33:42Z</time>
      </trkpt>
      <trkpt lat="40.7395850" lon="-3.5091170">
        <ele>643.0</ele>
        <time>2020-09-29T08:33:43Z</time>
      </trkpt>
      <trkpt lat="40.7395850" lon="-3.5091170">
        <ele>643.0</ele>
        <time>2020-09-29T08:33:44Z</time>
      </trkpt>
      <trkpt lat="40.7397050" lon="-3.5090900">
        <ele>643.0</ele>
        <time>2020-09-29T08:33:45Z</time>
      </trkpt>
      <trkpt lat="40.7397650" lon="-3.5090770">
        <ele>643.0</ele>
        <time>2020-09-29T08:33:46Z</time>
      </trkpt>
      <trkpt lat="40.7397650" lon="-3.5090770">
        <ele>643.0</ele>
        <time>2020-09-29T08:33:47Z</time>
      </trkpt>
      <trkpt lat="40.7398850" lon="-3.5090470">
        <ele>643.0</ele>
        <time>2020-09-29T08:33:48Z</time>
      </trkpt>
      <trkpt lat="40.7399450" lon="-3.5090320">
        <ele>643.0</ele>
        <time>2020-09-29T08:33:49Z</time>
      </trkpt>
      <trkpt lat="40.7400050" lon="-3.5090180">
        <ele>643.0</ele>
        <time>2020-09-29T08:33:50Z</time>
      </trkpt>
      <trkpt lat="40.7400050" lon="-3.5090180">
        <ele>643.0</ele>
        <time>2020-09-29T08:33:51Z</time>
      </trkpt>
      <trkpt lat="40.7401220" lon="-3.5089900">
        <ele>643.0</ele>
        <time>2020-09-29T08:33:52Z</time>
      </trkpt>
      <trkpt lat="40.7401820" lon="-3.5089770">
        <ele>643.0</ele>
        <time>2020-09-29T08:33:53Z</time>
      </trkpt>
      <trkpt lat="40.7402400" lon="-3.5089630">
        <ele>643.0</ele>
        <time>2020-09-29T08:33:54Z</time>
      </trkpt>
      <trkpt lat="40.7402400" lon="-3.5089630">
        <ele>643.0</ele>
        <time>2020-09-29T08:33:55Z</time>
      </trkpt>
      <trkpt lat="40.7403570" lon="-3.5089350">
        <ele>643.0</ele>
        <time>2020-09-29T08:33:56Z</time>
      </trkpt>
      <trkpt lat="40.7404170" lon="-3.5089220">
        <ele>643.0</ele>
        <time>2020-09-29T08:33:57Z</time>
      </trkpt>
      <trkpt lat="40.7404750" lon="-3.5089080">
        <ele>643.0</ele>
        <time>2020-09-29T08:33:58Z</time>
      </trkpt>
      <trkpt lat="40.7404750" lon="-3.5089080">
        <ele>643.0</ele>
        <time>2020-09-29T08:33:59Z</time>
      </trkpt>
      <trkpt lat="40.7405950" lon="-3.5088800">
        <ele>643.0</ele>
        <time>2020-09-29T08:34:00Z</time>
      </trkpt>
      <trkpt lat="40.7405950" lon="-3.5088800">
        <ele>643.0</ele>
        <time>2020-09-29T08:34:01Z</time>
      </trkpt>
      <trkpt lat="40.7407170" lon="-3.5088520">
        <ele>643.0</ele>
        <time>2020-09-29T08:34:02Z</time>
      </trkpt>
      <trkpt lat="40.7407170" lon="-3.5088520">
        <ele>643.0</ele>
        <time>2020-09-29T08:34:03Z</time>
      </trkpt>
      <trkpt lat="40.7408380" lon="-3.5088250">
        <ele>643.0</ele>
        <time>2020-09-29T08:34:04Z</time>
      </trkpt>
      <trkpt lat="40.7409000" lon="-3.5088120">
        <ele>643.0</ele>
        <time>2020-09-29T08:34:05Z</time>
      </trkpt>
      <trkpt lat="40.7410220" lon="-3.5087850">
        <ele>643.0</ele>
        <time>2020-09-29T08:34:06Z</time>
      </trkpt>
      <trkpt lat="40.7410220" lon="-3.5087850">
        <ele>643.0</ele>
        <time>2020-09-29T08:34:07Z</time>
      </trkpt>
      <trkpt lat="40.7410820" lon="-3.5087720">
        <ele>643.0</ele>
        <time>2020-09-29T08:34:08Z</time>
      </trkpt>
      <trkpt lat="40.7410820" lon="-3.5087720">
        <ele>643.0</ele>
        <time>2020-09-29T08:34:09Z</time>
      </trkpt>
      <trkpt lat="40.7412020" lon="-3.5087430">
        <ele>643.0</ele>
        <time>2020-09-29T08:34:10Z</time>
      </trkpt>
      <trkpt lat="40.7412020" lon="-3.5087430">
        <ele>643.0</ele>
        <time>2020-09-29T08:34:11Z</time>
      </trkpt>
      <trkpt lat="40.7413220" lon="-3.5087180">
        <ele>643.0</ele>
        <time>2020-09-29T08:34:12Z</time>
      </trkpt>
      <trkpt lat="40.7413820" lon="-3.5087030">
        <ele>643.0</ele>
        <time>2020-09-29T08:34:13Z</time>
      </trkpt>
      <trkpt lat="40.7413820" lon="-3.5087030">
        <ele>643.0</ele>
        <time>2020-09-29T08:34:14Z</time>
      </trkpt>
      <trkpt lat="40.7415000" lon="-3.5086770">
        <ele>643.0</ele>
        <time>2020-09-29T08:34:15Z</time>
      </trkpt>
      <trkpt lat="40.7415000" lon="-3.5086770">
        <ele>643.0</ele>
        <time>2020-09-29T08:34:16Z</time>
      </trkpt>
      <trkpt lat="40.7416170" lon="-3.5086500">
        <ele>644.0</ele>
        <time>2020-09-29T08:34:17Z</time>
      </trkpt>
      <trkpt lat="40.7416170" lon="-3.5086500">
        <ele>644.0</ele>
        <time>2020-09-29T08:34:18Z</time>
      </trkpt>
      <trkpt lat="40.7417330" lon="-3.5086250">
        <ele>644.0</ele>
        <time>2020-09-29T08:34:19Z</time>
      </trkpt>
      <trkpt lat="40.7417330" lon="-3.5086250">
        <ele>644.0</ele>
        <time>2020-09-29T08:34:20Z</time>
      </trkpt>
      <trkpt lat="40.7418530" lon="-3.5085970">
        <ele>644.0</ele>
        <time>2020-09-29T08:34:21Z</time>
      </trkpt>
      <trkpt lat="40.7419120" lon="-3.5085830">
        <ele>644.0</ele>
        <time>2020-09-29T08:34:22Z</time>
      </trkpt>
      <trkpt lat="40.7419700" lon="-3.5085720">
        <ele>645.0</ele>
        <time>2020-09-29T08:34:23Z</time>
      </trkpt>
      <trkpt lat="40.7419700" lon="-3.5085720">
        <ele>645.0</ele>
        <time>2020-09-29T08:34:24Z</time>
      </trkpt>
      <trkpt lat="40.7420920" lon="-3.5085470">
        <ele>645.0</ele>
        <time>2020-09-29T08:34:25Z</time>
      </trkpt>
      <trkpt lat="40.7421530" lon="-3.5085330">
        <ele>645.0</ele>
        <time>2020-09-29T08:34:26Z</time>
      </trkpt>
      <trkpt lat="40.7422130" lon="-3.5085200">
        <ele>645.0</ele>
        <time>2020-09-29T08:34:27Z</time>
      </trkpt>
      <trkpt lat="40.7422130" lon="-3.5085200">
        <ele>645.0</ele>
        <time>2020-09-29T08:34:28Z</time>
      </trkpt>
      <trkpt lat="40.7423300" lon="-3.5084920">
        <ele>645.0</ele>
        <time>2020-09-29T08:34:29Z</time>
      </trkpt>
      <trkpt lat="40.7423780" lon="-3.5084700">
        <ele>645.0</ele>
        <time>2020-09-29T08:34:30Z</time>
      </trkpt>
      <trkpt lat="40.7423780" lon="-3.5084700">
        <ele>645.0</ele>
        <time>2020-09-29T08:34:31Z</time>
      </trkpt>
      <trkpt lat="40.7424520" lon="-3.5083950">
        <ele>645.0</ele>
        <time>2020-09-29T08:34:32Z</time>
      </trkpt>
      <trkpt lat="40.7424520" lon="-3.5083950">
        <ele>645.0</ele>
        <time>2020-09-29T08:34:33Z</time>
      </trkpt>
      <trkpt lat="40.7425250" lon="-3.5083330">
        <ele>645.0</ele>
        <time>2020-09-29T08:34:34Z</time>
      </trkpt>
      <trkpt lat="40.7425250" lon="-3.5083330">
        <ele>645.0</ele>
        <time>2020-09-29T08:34:35Z</time>
      </trkpt>
      <trkpt lat="40.7426200" lon="-3.5083150">
        <ele>645.0</ele>
        <time>2020-09-29T08:34:36Z</time>
      </trkpt>
      <trkpt lat="40.7426200" lon="-3.5083150">
        <ele>645.0</ele>
        <time>2020-09-29T08:34:37Z</time>
      </trkpt>
      <trkpt lat="40.7427180" lon="-3.5083470">
        <ele>645.0</ele>
        <time>2020-09-29T08:34:38Z</time>
      </trkpt>
      <trkpt lat="40.7427180" lon="-3.5083470">
        <ele>645.0</ele>
        <time>2020-09-29T08:34:39Z</time>
      </trkpt>
      <trkpt lat="40.7428220" lon="-3.5083670">
        <ele>645.0</ele>
        <time>2020-09-29T08:34:40Z</time>
      </trkpt>
      <trkpt lat="40.7428220" lon="-3.5083670">
        <ele>645.0</ele>
        <time>2020-09-29T08:34:41Z</time>
      </trkpt>
      <trkpt lat="40.7429380" lon="-3.5083480">
        <ele>645.0</ele>
        <time>2020-09-29T08:34:42Z</time>
      </trkpt>
      <trkpt lat="40.7429380" lon="-3.5083480">
        <ele>645.0</ele>
        <time>2020-09-29T08:34:43Z</time>
      </trkpt>
      <trkpt lat="40.7430600" lon="-3.5083220">
        <ele>645.0</ele>
        <time>2020-09-29T08:34:44Z</time>
      </trkpt>
      <trkpt lat="40.7431230" lon="-3.5083100">
        <ele>645.0</ele>
        <time>2020-09-29T08:34:45Z</time>
      </trkpt>
      <trkpt lat="40.7431230" lon="-3.5083100">
        <ele>645.0</ele>
        <time>2020-09-29T08:34:46Z</time>
      </trkpt>
      <trkpt lat="40.7432530" lon="-3.5082820">
        <ele>645.0</ele>
        <time>2020-09-29T08:34:47Z</time>
      </trkpt>
      <trkpt lat="40.7432530" lon="-3.5082820">
        <ele>646.0</ele>
        <time>2020-09-29T08:34:48Z</time>
      </trkpt>
      <trkpt lat="40.7433830" lon="-3.5082500">
        <ele>646.0</ele>
        <time>2020-09-29T08:34:49Z</time>
      </trkpt>
      <trkpt lat="40.7433830" lon="-3.5082500">
        <ele>646.0</ele>
        <time>2020-09-29T08:34:50Z</time>
      </trkpt>
      <trkpt lat="40.7435120" lon="-3.5082220">
        <ele>646.0</ele>
        <time>2020-09-29T08:34:51Z</time>
      </trkpt>
      <trkpt lat="40.7435120" lon="-3.5082220">
        <ele>646.0</ele>
        <time>2020-09-29T08:34:52Z</time>
      </trkpt>
      <trkpt lat="40.7436420" lon="-3.5081930">
        <ele>646.0</ele>
        <time>2020-09-29T08:34:53Z</time>
      </trkpt>
      <trkpt lat="40.7437050" lon="-3.5081780">
        <ele>646.0</ele>
        <time>2020-09-29T08:34:54Z</time>
      </trkpt>
      <trkpt lat="40.7437050" lon="-3.5081780">
        <ele>646.0</ele>
        <time>2020-09-29T08:34:55Z</time>
      </trkpt>
      <trkpt lat="40.7438370" lon="-3.5081480">
        <ele>646.0</ele>
        <time>2020-09-29T08:34:56Z</time>
      </trkpt>
      <trkpt lat="40.7438370" lon="-3.5081480">
        <ele>646.0</ele>
        <time>2020-09-29T08:34:57Z</time>
      </trkpt>
      <trkpt lat="40.7439630" lon="-3.5081150">
        <ele>646.0</ele>
        <time>2020-09-29T08:34:58Z</time>
      </trkpt>
      <trkpt lat="40.7440250" lon="-3.5081000">
        <ele>646.0</ele>
        <time>2020-09-29T08:34:59Z</time>
      </trkpt>
      <trkpt lat="40.7440250" lon="-3.5081000">
        <ele>646.0</ele>
        <time>2020-09-29T08:35:00Z</time>
      </trkpt>
      <trkpt lat="40.7441430" lon="-3.5080750">
        <ele>646.0</ele>
        <time>2020-09-29T08:35:01Z</time>
      </trkpt>
      <trkpt lat="40.7441430" lon="-3.5080750">
        <ele>646.0</ele>
        <time>2020-09-29T08:35:02Z</time>
      </trkpt>
      <trkpt lat="40.7442500" lon="-3.5080530">
        <ele>646.0</ele>
        <time>2020-09-29T08:35:03Z</time>
      </trkpt>
      <trkpt lat="40.7442500" lon="-3.5080530">
        <ele>646.0</ele>
        <time>2020-09-29T08:35:04Z</time>
      </trkpt>
      <trkpt lat="40.7443320" lon="-3.5080330">
        <ele>646.0</ele>
        <time>2020-09-29T08:35:05Z</time>
      </trkpt>
      <trkpt lat="40.7443320" lon="-3.5080330">
        <ele>646.0</ele>
        <time>2020-09-29T08:35:06Z</time>
      </trkpt>
      <trkpt lat="40.7444050" lon="-3.5080220">
        <ele>646.0</ele>
        <time>2020-09-29T08:35:07Z</time>
      </trkpt>
      <trkpt lat="40.7444050" lon="-3.5080220">
        <ele>646.0</ele>
        <time>2020-09-29T08:35:08Z</time>
      </trkpt>
      <trkpt lat="40.7444850" lon="-3.5080030">
        <ele>646.0</ele>
        <time>2020-09-29T08:35:09Z</time>
      </trkpt>
      <trkpt lat="40.7444850" lon="-3.5080030">
        <ele>646.0</ele>
        <time>2020-09-29T08:35:10Z</time>
      </trkpt>
      <trkpt lat="40.7445750" lon="-3.5079830">
        <ele>646.0</ele>
        <time>2020-09-29T08:35:11Z</time>
      </trkpt>
      <trkpt lat="40.7446250" lon="-3.5079720">
        <ele>646.0</ele>
        <time>2020-09-29T08:35:12Z</time>
      </trkpt>
      <trkpt lat="40.7446770" lon="-3.5079580">
        <ele>646.0</ele>
        <time>2020-09-29T08:35:13Z</time>
      </trkpt>
      <trkpt lat="40.7446770" lon="-3.5079580">
        <ele>646.0</ele>
        <time>2020-09-29T08:35:14Z</time>
      </trkpt>
      <trkpt lat="40.7447870" lon="-3.5079320">
        <ele>646.0</ele>
        <time>2020-09-29T08:35:15Z</time>
      </trkpt>
      <trkpt lat="40.7447870" lon="-3.5079320">
        <ele>646.0</ele>
        <time>2020-09-29T08:35:16Z</time>
      </trkpt>
      <trkpt lat="40.7449020" lon="-3.5079120">
        <ele>646.0</ele>
        <time>2020-09-29T08:35:17Z</time>
      </trkpt>
      <trkpt lat="40.7449020" lon="-3.5079120">
        <ele>646.0</ele>
        <time>2020-09-29T08:35:18Z</time>
      </trkpt>
      <trkpt lat="40.7450270" lon="-3.5078850">
        <ele>646.0</ele>
        <time>2020-09-29T08:35:19Z</time>
      </trkpt>
      <trkpt lat="40.7450270" lon="-3.5078850">
        <ele>646.0</ele>
        <time>2020-09-29T08:35:20Z</time>
      </trkpt>
      <trkpt lat="40.7451600" lon="-3.5078620">
        <ele>646.0</ele>
        <time>2020-09-29T08:35:21Z</time>
      </trkpt>
      <trkpt lat="40.7452320" lon="-3.5078530">
        <ele>646.0</ele>
        <time>2020-09-29T08:35:22Z</time>
      </trkpt>
      <trkpt lat="40.7452320" lon="-3.5078530">
        <ele>646.0</ele>
        <time>2020-09-29T08:35:23Z</time>
      </trkpt>
      <trkpt lat="40.7453730" lon="-3.5078270">
        <ele>646.0</ele>
        <time>2020-09-29T08:35:24Z</time>
      </trkpt>
      <trkpt lat="40.7454450" lon="-3.5078170">
        <ele>646.0</ele>
        <time>2020-09-29T08:35:25Z</time>
      </trkpt>
      <trkpt lat="40.7454450" lon="-3.5078170">
        <ele>646.0</ele>
        <time>2020-09-29T08:35:26Z</time>
      </trkpt>
      <trkpt lat="40.7455870" lon="-3.5078100">
        <ele>646.0</ele>
        <time>2020-09-29T08:35:27Z</time>
      </trkpt>
      <trkpt lat="40.7455870" lon="-3.5078100">
        <ele>646.0</ele>
        <time>2020-09-29T08:35:28Z</time>
      </trkpt>
      <trkpt lat="40.7457300" lon="-3.5077930">
        <ele>646.0</ele>
        <time>2020-09-29T08:35:29Z</time>
      </trkpt>
      <trkpt lat="40.7457300" lon="-3.5077930">
        <ele>646.0</ele>
        <time>2020-09-29T08:35:30Z</time>
      </trkpt>
      <trkpt lat="40.7458750" lon="-3.5077770">
        <ele>645.0</ele>
        <time>2020-09-29T08:35:31Z</time>
      </trkpt>
      <trkpt lat="40.7458750" lon="-3.5077770">
        <ele>645.0</ele>
        <time>2020-09-29T08:35:32Z</time>
      </trkpt>
      <trkpt lat="40.7460180" lon="-3.5077580">
        <ele>645.0</ele>
        <time>2020-09-29T08:35:33Z</time>
      </trkpt>
      <trkpt lat="40.7460870" lon="-3.5077450">
        <ele>645.0</ele>
        <time>2020-09-29T08:35:34Z</time>
      </trkpt>
      <trkpt lat="40.7460870" lon="-3.5077450">
        <ele>645.0</ele>
        <time>2020-09-29T08:35:35Z</time>
      </trkpt>
      <trkpt lat="40.7462080" lon="-3.5077320">
        <ele>645.0</ele>
        <time>2020-09-29T08:35:36Z</time>
      </trkpt>
      <trkpt lat="40.7462620" lon="-3.5077280">
        <ele>645.0</ele>
        <time>2020-09-29T08:35:37Z</time>
      </trkpt>
      <trkpt lat="40.7462620" lon="-3.5077280">
        <ele>645.0</ele>
        <time>2020-09-29T08:35:38Z</time>
      </trkpt>
      <trkpt lat="40.7463620" lon="-3.5077180">
        <ele>645.0</ele>
        <time>2020-09-29T08:35:39Z</time>
      </trkpt>
      <trkpt lat="40.7463620" lon="-3.5077180">
        <ele>645.0</ele>
        <time>2020-09-29T08:35:40Z</time>
      </trkpt>
      <trkpt lat="40.7464480" lon="-3.5077050">
        <ele>645.0</ele>
        <time>2020-09-29T08:35:41Z</time>
      </trkpt>
      <trkpt lat="40.7464930" lon="-3.5076950">
        <ele>645.0</ele>
        <time>2020-09-29T08:35:42Z</time>
      </trkpt>
      <trkpt lat="40.7464930" lon="-3.5076950">
        <ele>645.0</ele>
        <time>2020-09-29T08:35:43Z</time>
      </trkpt>
      <trkpt lat="40.7465900" lon="-3.5076500">
        <ele>645.0</ele>
        <time>2020-09-29T08:35:44Z</time>
      </trkpt>
      <trkpt lat="40.7466350" lon="-3.5076250">
        <ele>645.0</ele>
        <time>2020-09-29T08:35:45Z</time>
      </trkpt>
      <trkpt lat="40.7466350" lon="-3.5076250">
        <ele>645.0</ele>
        <time>2020-09-29T08:35:46Z</time>
      </trkpt>
      <trkpt lat="40.7467180" lon="-3.5075920">
        <ele>645.0</ele>
        <time>2020-09-29T08:35:47Z</time>
      </trkpt>
      <trkpt lat="40.7467180" lon="-3.5075920">
        <ele>645.0</ele>
        <time>2020-09-29T08:35:48Z</time>
      </trkpt>
      <trkpt lat="40.7468020" lon="-3.5075970">
        <ele>645.0</ele>
        <time>2020-09-29T08:35:49Z</time>
      </trkpt>
      <trkpt lat="40.7468020" lon="-3.5075970">
        <ele>645.0</ele>
        <time>2020-09-29T08:35:50Z</time>
      </trkpt>
      <trkpt lat="40.7468950" lon="-3.5076130">
        <ele>645.0</ele>
        <time>2020-09-29T08:35:51Z</time>
      </trkpt>
      <trkpt lat="40.7468950" lon="-3.5076130">
        <ele>645.0</ele>
        <time>2020-09-29T08:35:52Z</time>
      </trkpt>
      <trkpt lat="40.7470080" lon="-3.5076150">
        <ele>645.0</ele>
        <time>2020-09-29T08:35:53Z</time>
      </trkpt>
      <trkpt lat="40.7470080" lon="-3.5076150">
        <ele>645.0</ele>
        <time>2020-09-29T08:35:54Z</time>
      </trkpt>
      <trkpt lat="40.7471420" lon="-3.5075970">
        <ele>645.0</ele>
        <time>2020-09-29T08:35:55Z</time>
      </trkpt>
      <trkpt lat="40.7472130" lon="-3.5075850">
        <ele>645.0</ele>
        <time>2020-09-29T08:35:56Z</time>
      </trkpt>
      <trkpt lat="40.7472130" lon="-3.5075850">
        <ele>645.0</ele>
        <time>2020-09-29T08:35:57Z</time>
      </trkpt>
      <trkpt lat="40.7473670" lon="-3.5075550">
        <ele>645.0</ele>
        <time>2020-09-29T08:35:58Z</time>
      </trkpt>
      <trkpt lat="40.7474480" lon="-3.5075400">
        <ele>645.0</ele>
        <time>2020-09-29T08:35:59Z</time>
      </trkpt>
      <trkpt lat="40.7475280" lon="-3.5075270">
        <ele>645.0</ele>
        <time>2020-09-29T08:36:00Z</time>
      </trkpt>
      <trkpt lat="40.7475280" lon="-3.5075270">
        <ele>645.0</ele>
        <time>2020-09-29T08:36:01Z</time>
      </trkpt>
      <trkpt lat="40.7476920" lon="-3.5074980">
        <ele>645.0</ele>
        <time>2020-09-29T08:36:02Z</time>
      </trkpt>
      <trkpt lat="40.7476920" lon="-3.5074980">
        <ele>645.0</ele>
        <time>2020-09-29T08:36:03Z</time>
      </trkpt>
      <trkpt lat="40.7478530" lon="-3.5074650">
        <ele>645.0</ele>
        <time>2020-09-29T08:36:04Z</time>
      </trkpt>
      <trkpt lat="40.7478530" lon="-3.5074650">
        <ele>645.0</ele>
        <time>2020-09-29T08:36:05Z</time>
      </trkpt>
      <trkpt lat="40.7480080" lon="-3.5074400">
        <ele>645.0</ele>
        <time>2020-09-29T08:36:06Z</time>
      </trkpt>
      <trkpt lat="40.7480080" lon="-3.5074400">
        <ele>645.0</ele>
        <time>2020-09-29T08:36:07Z</time>
      </trkpt>
      <trkpt lat="40.7481570" lon="-3.5074180">
        <ele>645.0</ele>
        <time>2020-09-29T08:36:08Z</time>
      </trkpt>
      <trkpt lat="40.7482300" lon="-3.5074070">
        <ele>645.0</ele>
        <time>2020-09-29T08:36:09Z</time>
      </trkpt>
      <trkpt lat="40.7482300" lon="-3.5074070">
        <ele>645.0</ele>
        <time>2020-09-29T08:36:10Z</time>
      </trkpt>
      <trkpt lat="40.7483770" lon="-3.5073850">
        <ele>645.0</ele>
        <time>2020-09-29T08:36:11Z</time>
      </trkpt>
      <trkpt lat="40.7483770" lon="-3.5073850">
        <ele>645.0</ele>
        <time>2020-09-29T08:36:12Z</time>
      </trkpt>
      <trkpt lat="40.7485230" lon="-3.5073630">
        <ele>646.0</ele>
        <time>2020-09-29T08:36:13Z</time>
      </trkpt>
      <trkpt lat="40.7485230" lon="-3.5073630">
        <ele>646.0</ele>
        <time>2020-09-29T08:36:14Z</time>
      </trkpt>
      <trkpt lat="40.7486700" lon="-3.5073400">
        <ele>646.0</ele>
        <time>2020-09-29T08:36:15Z</time>
      </trkpt>
      <trkpt lat="40.7487420" lon="-3.5073320">
        <ele>646.0</ele>
        <time>2020-09-29T08:36:16Z</time>
      </trkpt>
      <trkpt lat="40.7488130" lon="-3.5073230">
        <ele>646.0</ele>
        <time>2020-09-29T08:36:17Z</time>
      </trkpt>
      <trkpt lat="40.7488870" lon="-3.5073150">
        <ele>646.0</ele>
        <time>2020-09-29T08:36:18Z</time>
      </trkpt>
      <trkpt lat="40.7488870" lon="-3.5073150">
        <ele>646.0</ele>
        <time>2020-09-29T08:36:19Z</time>
      </trkpt>
      <trkpt lat="40.7490300" lon="-3.5072950">
        <ele>646.0</ele>
        <time>2020-09-29T08:36:20Z</time>
      </trkpt>
      <trkpt lat="40.7491020" lon="-3.5072850">
        <ele>646.0</ele>
        <time>2020-09-29T08:36:21Z</time>
      </trkpt>
      <trkpt lat="40.7491020" lon="-3.5072850">
        <ele>646.0</ele>
        <time>2020-09-29T08:36:22Z</time>
      </trkpt>
      <trkpt lat="40.7492450" lon="-3.5072650">
        <ele>646.0</ele>
        <time>2020-09-29T08:36:23Z</time>
      </trkpt>
      <trkpt lat="40.7492450" lon="-3.5072650">
        <ele>646.0</ele>
        <time>2020-09-29T08:36:24Z</time>
      </trkpt>
      <trkpt lat="40.7493870" lon="-3.5072450">
        <ele>647.0</ele>
        <time>2020-09-29T08:36:25Z</time>
      </trkpt>
      <trkpt lat="40.7493870" lon="-3.5072450">
        <ele>647.0</ele>
        <time>2020-09-29T08:36:26Z</time>
      </trkpt>
      <trkpt lat="40.7495300" lon="-3.5072270">
        <ele>647.0</ele>
        <time>2020-09-29T08:36:27Z</time>
      </trkpt>
      <trkpt lat="40.7496020" lon="-3.5072150">
        <ele>647.0</ele>
        <time>2020-09-29T08:36:28Z</time>
      </trkpt>
      <trkpt lat="40.7496020" lon="-3.5072150">
        <ele>647.0</ele>
        <time>2020-09-29T08:36:29Z</time>
      </trkpt>
      <trkpt lat="40.7497470" lon="-3.5071930">
        <ele>647.0</ele>
        <time>2020-09-29T08:36:30Z</time>
      </trkpt>
      <trkpt lat="40.7497470" lon="-3.5071930">
        <ele>647.0</ele>
        <time>2020-09-29T08:36:31Z</time>
      </trkpt>
      <trkpt lat="40.7498880" lon="-3.5071750">
        <ele>647.0</ele>
        <time>2020-09-29T08:36:32Z</time>
      </trkpt>
      <trkpt lat="40.7498880" lon="-3.5071750">
        <ele>647.0</ele>
        <time>2020-09-29T08:36:33Z</time>
      </trkpt>
      <trkpt lat="40.7500320" lon="-3.5071520">
        <ele>647.0</ele>
        <time>2020-09-29T08:36:34Z</time>
      </trkpt>
      <trkpt lat="40.7501030" lon="-3.5071400">
        <ele>647.0</ele>
        <time>2020-09-29T08:36:35Z</time>
      </trkpt>
      <trkpt lat="40.7501030" lon="-3.5071400">
        <ele>647.0</ele>
        <time>2020-09-29T08:36:36Z</time>
      </trkpt>
      <trkpt lat="40.7502450" lon="-3.5071170">
        <ele>647.0</ele>
        <time>2020-09-29T08:36:37Z</time>
      </trkpt>
      <trkpt lat="40.7503170" lon="-3.5071070">
        <ele>647.0</ele>
        <time>2020-09-29T08:36:38Z</time>
      </trkpt>
      <trkpt lat="40.7503170" lon="-3.5071070">
        <ele>647.0</ele>
        <time>2020-09-29T08:36:39Z</time>
      </trkpt>
      <trkpt lat="40.7504570" lon="-3.5070870">
        <ele>647.0</ele>
        <time>2020-09-29T08:36:40Z</time>
      </trkpt>
      <trkpt lat="40.7504570" lon="-3.5070870">
        <ele>647.0</ele>
        <time>2020-09-29T08:36:41Z</time>
      </trkpt>
      <trkpt lat="40.7505970" lon="-3.5070650">
        <ele>647.0</ele>
        <time>2020-09-29T08:36:42Z</time>
      </trkpt>
      <trkpt lat="40.7506680" lon="-3.5070570">
        <ele>647.0</ele>
        <time>2020-09-29T08:36:43Z</time>
      </trkpt>
      <trkpt lat="40.7506680" lon="-3.5070570">
        <ele>647.0</ele>
        <time>2020-09-29T08:36:44Z</time>
      </trkpt>
      <trkpt lat="40.7508120" lon="-3.5070370">
        <ele>647.0</ele>
        <time>2020-09-29T08:36:45Z</time>
      </trkpt>
      <trkpt lat="40.7508120" lon="-3.5070370">
        <ele>647.0</ele>
        <time>2020-09-29T08:36:46Z</time>
      </trkpt>
      <trkpt lat="40.7509550" lon="-3.5070150">
        <ele>647.0</ele>
        <time>2020-09-29T08:36:47Z</time>
      </trkpt>
      <trkpt lat="40.7509550" lon="-3.5070150">
        <ele>647.0</ele>
        <time>2020-09-29T08:36:48Z</time>
      </trkpt>
      <trkpt lat="40.7510970" lon="-3.5069970">
        <ele>648.0</ele>
        <time>2020-09-29T08:36:49Z</time>
      </trkpt>
      <trkpt lat="40.7511670" lon="-3.5069880">
        <ele>648.0</ele>
        <time>2020-09-29T08:36:50Z</time>
      </trkpt>
      <trkpt lat="40.7511670" lon="-3.5069880">
        <ele>648.0</ele>
        <time>2020-09-29T08:36:51Z</time>
      </trkpt>
      <trkpt lat="40.7513080" lon="-3.5069670">
        <ele>648.0</ele>
        <time>2020-09-29T08:36:52Z</time>
      </trkpt>
      <trkpt lat="40.7513080" lon="-3.5069670">
        <ele>648.0</ele>
        <time>2020-09-29T08:36:53Z</time>
      </trkpt>
      <trkpt lat="40.7514470" lon="-3.5069450">
        <ele>648.0</ele>
        <time>2020-09-29T08:36:54Z</time>
      </trkpt>
      <trkpt lat="40.7514470" lon="-3.5069450">
        <ele>648.0</ele>
        <time>2020-09-29T08:36:55Z</time>
      </trkpt>
      <trkpt lat="40.7515870" lon="-3.5069270">
        <ele>648.0</ele>
        <time>2020-09-29T08:36:56Z</time>
      </trkpt>
      <trkpt lat="40.7516570" lon="-3.5069180">
        <ele>648.0</ele>
        <time>2020-09-29T08:36:57Z</time>
      </trkpt>
      <trkpt lat="40.7516570" lon="-3.5069180">
        <ele>648.0</ele>
        <time>2020-09-29T08:36:58Z</time>
      </trkpt>
      <trkpt lat="40.7517920" lon="-3.5069000">
        <ele>648.0</ele>
        <time>2020-09-29T08:36:59Z</time>
      </trkpt>
      <trkpt lat="40.7517920" lon="-3.5069000">
        <ele>648.0</ele>
        <time>2020-09-29T08:37:00Z</time>
      </trkpt>
      <trkpt lat="40.7519270" lon="-3.5068820">
        <ele>648.0</ele>
        <time>2020-09-29T08:37:01Z</time>
      </trkpt>
      <trkpt lat="40.7519270" lon="-3.5068820">
        <ele>648.0</ele>
        <time>2020-09-29T08:37:02Z</time>
      </trkpt>
      <trkpt lat="40.7520600" lon="-3.5068630">
        <ele>649.0</ele>
        <time>2020-09-29T08:37:03Z</time>
      </trkpt>
      <trkpt lat="40.7521250" lon="-3.5068550">
        <ele>649.0</ele>
        <time>2020-09-29T08:37:04Z</time>
      </trkpt>
      <trkpt lat="40.7521250" lon="-3.5068550">
        <ele>649.0</ele>
        <time>2020-09-29T08:37:05Z</time>
      </trkpt>
      <trkpt lat="40.7522550" lon="-3.5068350">
        <ele>649.0</ele>
        <time>2020-09-29T08:37:06Z</time>
      </trkpt>
      <trkpt lat="40.7522550" lon="-3.5068350">
        <ele>649.0</ele>
        <time>2020-09-29T08:37:07Z</time>
      </trkpt>
      <trkpt lat="40.7523830" lon="-3.5068170">
        <ele>649.0</ele>
        <time>2020-09-29T08:37:08Z</time>
      </trkpt>
      <trkpt lat="40.7523830" lon="-3.5068170">
        <ele>649.0</ele>
        <time>2020-09-29T08:37:09Z</time>
      </trkpt>
      <trkpt lat="40.7525100" lon="-3.5068000">
        <ele>649.0</ele>
        <time>2020-09-29T08:37:10Z</time>
      </trkpt>
      <trkpt lat="40.7525100" lon="-3.5068000">
        <ele>649.0</ele>
        <time>2020-09-29T08:37:11Z</time>
      </trkpt>
      <trkpt lat="40.7526370" lon="-3.5067820">
        <ele>649.0</ele>
        <time>2020-09-29T08:37:12Z</time>
      </trkpt>
      <trkpt lat="40.7526370" lon="-3.5067820">
        <ele>649.0</ele>
        <time>2020-09-29T08:37:13Z</time>
      </trkpt>
      <trkpt lat="40.7527620" lon="-3.5067630">
        <ele>649.0</ele>
        <time>2020-09-29T08:37:14Z</time>
      </trkpt>
      <trkpt lat="40.7528250" lon="-3.5067550">
        <ele>650.0</ele>
        <time>2020-09-29T08:37:15Z</time>
      </trkpt>
      <trkpt lat="40.7528870" lon="-3.5067450">
        <ele>650.0</ele>
        <time>2020-09-29T08:37:16Z</time>
      </trkpt>
      <trkpt lat="40.7528870" lon="-3.5067450">
        <ele>650.0</ele>
        <time>2020-09-29T08:37:17Z</time>
      </trkpt>
      <trkpt lat="40.7530100" lon="-3.5067280">
        <ele>650.0</ele>
        <time>2020-09-29T08:37:18Z</time>
      </trkpt>
      <trkpt lat="40.7530100" lon="-3.5067280">
        <ele>651.0</ele>
        <time>2020-09-29T08:37:19Z</time>
      </trkpt>
      <trkpt lat="40.7531330" lon="-3.5067100">
        <ele>651.0</ele>
        <time>2020-09-29T08:37:20Z</time>
      </trkpt>
      <trkpt lat="40.7531330" lon="-3.5067100">
        <ele>651.0</ele>
        <time>2020-09-29T08:37:21Z</time>
      </trkpt>
      <trkpt lat="40.7532570" lon="-3.5066920">
        <ele>651.0</ele>
        <time>2020-09-29T08:37:22Z</time>
      </trkpt>
      <trkpt lat="40.7533180" lon="-3.5066830">
        <ele>651.0</ele>
        <time>2020-09-29T08:37:23Z</time>
      </trkpt>
      <trkpt lat="40.7533180" lon="-3.5066830">
        <ele>651.0</ele>
        <time>2020-09-29T08:37:24Z</time>
      </trkpt>
      <trkpt lat="40.7534430" lon="-3.5066670">
        <ele>651.0</ele>
        <time>2020-09-29T08:37:25Z</time>
      </trkpt>
      <trkpt lat="40.7534430" lon="-3.5066670">
        <ele>651.0</ele>
        <time>2020-09-29T08:37:26Z</time>
      </trkpt>
      <trkpt lat="40.7535680" lon="-3.5066450">
        <ele>651.0</ele>
        <time>2020-09-29T08:37:27Z</time>
      </trkpt>
      <trkpt lat="40.7535680" lon="-3.5066450">
        <ele>651.0</ele>
        <time>2020-09-29T08:37:28Z</time>
      </trkpt>
      <trkpt lat="40.7536970" lon="-3.5066270">
        <ele>651.0</ele>
        <time>2020-09-29T08:37:29Z</time>
      </trkpt>
      <trkpt lat="40.7536970" lon="-3.5066270">
        <ele>651.0</ele>
        <time>2020-09-29T08:37:30Z</time>
      </trkpt>
      <trkpt lat="40.7538230" lon="-3.5066100">
        <ele>651.0</ele>
        <time>2020-09-29T08:37:31Z</time>
      </trkpt>
      <trkpt lat="40.7538230" lon="-3.5066100">
        <ele>652.0</ele>
        <time>2020-09-29T08:37:32Z</time>
      </trkpt>
      <trkpt lat="40.7539520" lon="-3.5065920">
        <ele>652.0</ele>
        <time>2020-09-29T08:37:33Z</time>
      </trkpt>
      <trkpt lat="40.7539520" lon="-3.5065920">
        <ele>652.0</ele>
        <time>2020-09-29T08:37:34Z</time>
      </trkpt>
      <trkpt lat="40.7540770" lon="-3.5065700">
        <ele>652.0</ele>
        <time>2020-09-29T08:37:35Z</time>
      </trkpt>
      <trkpt lat="40.7540770" lon="-3.5065700">
        <ele>652.0</ele>
        <time>2020-09-29T08:37:36Z</time>
      </trkpt>
      <trkpt lat="40.7542030" lon="-3.5065520">
        <ele>652.0</ele>
        <time>2020-09-29T08:37:37Z</time>
      </trkpt>
      <trkpt lat="40.7542030" lon="-3.5065520">
        <ele>652.0</ele>
        <time>2020-09-29T08:37:38Z</time>
      </trkpt>
      <trkpt lat="40.7543300" lon="-3.5065330">
        <ele>652.0</ele>
        <time>2020-09-29T08:37:39Z</time>
      </trkpt>
      <trkpt lat="40.7543920" lon="-3.5065250">
        <ele>652.0</ele>
        <time>2020-09-29T08:37:40Z</time>
      </trkpt>
      <trkpt lat="40.7543920" lon="-3.5065250">
        <ele>652.0</ele>
        <time>2020-09-29T08:37:41Z</time>
      </trkpt>
      <trkpt lat="40.7545130" lon="-3.5065030">
        <ele>652.0</ele>
        <time>2020-09-29T08:37:42Z</time>
      </trkpt>
      <trkpt lat="40.7545770" lon="-3.5064950">
        <ele>652.0</ele>
        <time>2020-09-29T08:37:43Z</time>
      </trkpt>
      <trkpt lat="40.7545770" lon="-3.5064950">
        <ele>652.0</ele>
        <time>2020-09-29T08:37:44Z</time>
      </trkpt>
      <trkpt lat="40.7547020" lon="-3.5064750">
        <ele>652.0</ele>
        <time>2020-09-29T08:37:45Z</time>
      </trkpt>
      <trkpt lat="40.7547650" lon="-3.5064650">
        <ele>652.0</ele>
        <time>2020-09-29T08:37:46Z</time>
      </trkpt>
      <trkpt lat="40.7547650" lon="-3.5064650">
        <ele>653.0</ele>
        <time>2020-09-29T08:37:47Z</time>
      </trkpt>
      <trkpt lat="40.7548920" lon="-3.5064480">
        <ele>653.0</ele>
        <time>2020-09-29T08:37:48Z</time>
      </trkpt>
      <trkpt lat="40.7549550" lon="-3.5064400">
        <ele>653.0</ele>
        <time>2020-09-29T08:37:49Z</time>
      </trkpt>
      <trkpt lat="40.7550180" lon="-3.5064300">
        <ele>653.0</ele>
        <time>2020-09-29T08:37:50Z</time>
      </trkpt>
      <trkpt lat="40.7550180" lon="-3.5064300">
        <ele>653.0</ele>
        <time>2020-09-29T08:37:51Z</time>
      </trkpt>
      <trkpt lat="40.7551470" lon="-3.5064170">
        <ele>653.0</ele>
        <time>2020-09-29T08:37:52Z</time>
      </trkpt>
      <trkpt lat="40.7551470" lon="-3.5064170">
        <ele>653.0</ele>
        <time>2020-09-29T08:37:53Z</time>
      </trkpt>
      <trkpt lat="40.7552780" lon="-3.5064030">
        <ele>653.0</ele>
        <time>2020-09-29T08:37:54Z</time>
      </trkpt>
      <trkpt lat="40.7553430" lon="-3.5063950">
        <ele>653.0</ele>
        <time>2020-09-29T08:37:55Z</time>
      </trkpt>
      <trkpt lat="40.7553430" lon="-3.5063950">
        <ele>653.0</ele>
        <time>2020-09-29T08:37:56Z</time>
      </trkpt>
      <trkpt lat="40.7554780" lon="-3.5063780">
        <ele>653.0</ele>
        <time>2020-09-29T08:37:57Z</time>
      </trkpt>
      <trkpt lat="40.7554780" lon="-3.5063780">
        <ele>653.0</ele>
        <time>2020-09-29T08:37:58Z</time>
      </trkpt>
      <trkpt lat="40.7556150" lon="-3.5063570">
        <ele>653.0</ele>
        <time>2020-09-29T08:37:59Z</time>
      </trkpt>
      <trkpt lat="40.7556150" lon="-3.5063570">
        <ele>653.0</ele>
        <time>2020-09-29T08:38:00Z</time>
      </trkpt>
      <trkpt lat="40.7557530" lon="-3.5063400">
        <ele>653.0</ele>
        <time>2020-09-29T08:38:01Z</time>
      </trkpt>
      <trkpt lat="40.7557530" lon="-3.5063400">
        <ele>653.0</ele>
        <time>2020-09-29T08:38:02Z</time>
      </trkpt>
      <trkpt lat="40.7558930" lon="-3.5063200">
        <ele>653.0</ele>
        <time>2020-09-29T08:38:03Z</time>
      </trkpt>
      <trkpt lat="40.7558930" lon="-3.5063200">
        <ele>653.0</ele>
        <time>2020-09-29T08:38:04Z</time>
      </trkpt>
      <trkpt lat="40.7560330" lon="-3.5062980">
        <ele>653.0</ele>
        <time>2020-09-29T08:38:05Z</time>
      </trkpt>
      <trkpt lat="40.7560330" lon="-3.5062980">
        <ele>653.0</ele>
        <time>2020-09-29T08:38:06Z</time>
      </trkpt>
      <trkpt lat="40.7561770" lon="-3.5062820">
        <ele>653.0</ele>
        <time>2020-09-29T08:38:07Z</time>
      </trkpt>
      <trkpt lat="40.7562430" lon="-3.5062720">
        <ele>653.0</ele>
        <time>2020-09-29T08:38:08Z</time>
      </trkpt>
      <trkpt lat="40.7562430" lon="-3.5062720">
        <ele>653.0</ele>
        <time>2020-09-29T08:38:09Z</time>
      </trkpt>
      <trkpt lat="40.7563750" lon="-3.5062500">
        <ele>653.0</ele>
        <time>2020-09-29T08:38:10Z</time>
      </trkpt>
      <trkpt lat="40.7564430" lon="-3.5062430">
        <ele>653.0</ele>
        <time>2020-09-29T08:38:11Z</time>
      </trkpt>
      <trkpt lat="40.7565080" lon="-3.5062330">
        <ele>652.0</ele>
        <time>2020-09-29T08:38:12Z</time>
      </trkpt>
      <trkpt lat="40.7565080" lon="-3.5062330">
        <ele>652.0</ele>
        <time>2020-09-29T08:38:13Z</time>
      </trkpt>
      <trkpt lat="40.7566420" lon="-3.5062130">
        <ele>652.0</ele>
        <time>2020-09-29T08:38:14Z</time>
      </trkpt>
      <trkpt lat="40.7566420" lon="-3.5062130">
        <ele>652.0</ele>
        <time>2020-09-29T08:38:15Z</time>
      </trkpt>
      <trkpt lat="40.7567730" lon="-3.5061970">
        <ele>652.0</ele>
        <time>2020-09-29T08:38:16Z</time>
      </trkpt>
      <trkpt lat="40.7567730" lon="-3.5061970">
        <ele>652.0</ele>
        <time>2020-09-29T08:38:17Z</time>
      </trkpt>
      <trkpt lat="40.7569070" lon="-3.5061800">
        <ele>652.0</ele>
        <time>2020-09-29T08:38:18Z</time>
      </trkpt>
      <trkpt lat="40.7569720" lon="-3.5061700">
        <ele>652.0</ele>
        <time>2020-09-29T08:38:19Z</time>
      </trkpt>
      <trkpt lat="40.7569720" lon="-3.5061700">
        <ele>652.0</ele>
        <time>2020-09-29T08:38:20Z</time>
      </trkpt>
      <trkpt lat="40.7571070" lon="-3.5061550">
        <ele>652.0</ele>
        <time>2020-09-29T08:38:21Z</time>
      </trkpt>
      <trkpt lat="40.7571730" lon="-3.5061450">
        <ele>652.0</ele>
        <time>2020-09-29T08:38:22Z</time>
      </trkpt>
      <trkpt lat="40.7571730" lon="-3.5061450">
        <ele>652.0</ele>
        <time>2020-09-29T08:38:23Z</time>
      </trkpt>
      <trkpt lat="40.7573070" lon="-3.5061200">
        <ele>652.0</ele>
        <time>2020-09-29T08:38:24Z</time>
      </trkpt>
      <trkpt lat="40.7573070" lon="-3.5061200">
        <ele>652.0</ele>
        <time>2020-09-29T08:38:25Z</time>
      </trkpt>
      <trkpt lat="40.7574420" lon="-3.5061020">
        <ele>652.0</ele>
        <time>2020-09-29T08:38:26Z</time>
      </trkpt>
      <trkpt lat="40.7575080" lon="-3.5060930">
        <ele>652.0</ele>
        <time>2020-09-29T08:38:27Z</time>
      </trkpt>
      <trkpt lat="40.7575080" lon="-3.5060930">
        <ele>652.0</ele>
        <time>2020-09-29T08:38:28Z</time>
      </trkpt>
      <trkpt lat="40.7576420" lon="-3.5060770">
        <ele>652.0</ele>
        <time>2020-09-29T08:38:29Z</time>
      </trkpt>
      <trkpt lat="40.7576420" lon="-3.5060770">
        <ele>652.0</ele>
        <time>2020-09-29T08:38:30Z</time>
      </trkpt>
      <trkpt lat="40.7577750" lon="-3.5060600">
        <ele>652.0</ele>
        <time>2020-09-29T08:38:31Z</time>
      </trkpt>
      <trkpt lat="40.7578400" lon="-3.5060500">
        <ele>652.0</ele>
        <time>2020-09-29T08:38:32Z</time>
      </trkpt>
      <trkpt lat="40.7578400" lon="-3.5060500">
        <ele>652.0</ele>
        <time>2020-09-29T08:38:33Z</time>
      </trkpt>
      <trkpt lat="40.7579720" lon="-3.5060300">
        <ele>652.0</ele>
        <time>2020-09-29T08:38:34Z</time>
      </trkpt>
      <trkpt lat="40.7580370" lon="-3.5060230">
        <ele>652.0</ele>
        <time>2020-09-29T08:38:35Z</time>
      </trkpt>
      <trkpt lat="40.7580370" lon="-3.5060230">
        <ele>652.0</ele>
        <time>2020-09-29T08:38:36Z</time>
      </trkpt>
      <trkpt lat="40.7581650" lon="-3.5060070">
        <ele>652.0</ele>
        <time>2020-09-29T08:38:37Z</time>
      </trkpt>
      <trkpt lat="40.7581650" lon="-3.5060070">
        <ele>652.0</ele>
        <time>2020-09-29T08:38:38Z</time>
      </trkpt>
      <trkpt lat="40.7582950" lon="-3.5059870">
        <ele>652.0</ele>
        <time>2020-09-29T08:38:39Z</time>
      </trkpt>
      <trkpt lat="40.7582950" lon="-3.5059870">
        <ele>652.0</ele>
        <time>2020-09-29T08:38:40Z</time>
      </trkpt>
      <trkpt lat="40.7584230" lon="-3.5059680">
        <ele>652.0</ele>
        <time>2020-09-29T08:38:41Z</time>
      </trkpt>
      <trkpt lat="40.7584880" lon="-3.5059600">
        <ele>652.0</ele>
        <time>2020-09-29T08:38:42Z</time>
      </trkpt>
      <trkpt lat="40.7584880" lon="-3.5059600">
        <ele>652.0</ele>
        <time>2020-09-29T08:38:43Z</time>
      </trkpt>
      <trkpt lat="40.7586180" lon="-3.5059420">
        <ele>652.0</ele>
        <time>2020-09-29T08:38:44Z</time>
      </trkpt>
      <trkpt lat="40.7586180" lon="-3.5059420">
        <ele>652.0</ele>
        <time>2020-09-29T08:38:45Z</time>
      </trkpt>
      <trkpt lat="40.7587480" lon="-3.5059220">
        <ele>652.0</ele>
        <time>2020-09-29T08:38:46Z</time>
      </trkpt>
      <trkpt lat="40.7587480" lon="-3.5059220">
        <ele>652.0</ele>
        <time>2020-09-29T08:38:47Z</time>
      </trkpt>
      <trkpt lat="40.7588800" lon="-3.5059020">
        <ele>652.0</ele>
        <time>2020-09-29T08:38:48Z</time>
      </trkpt>
      <trkpt lat="40.7589470" lon="-3.5058950">
        <ele>652.0</ele>
        <time>2020-09-29T08:38:49Z</time>
      </trkpt>
      <trkpt lat="40.7589470" lon="-3.5058950">
        <ele>652.0</ele>
        <time>2020-09-29T08:38:50Z</time>
      </trkpt>
      <trkpt lat="40.7590780" lon="-3.5058770">
        <ele>652.0</ele>
        <time>2020-09-29T08:38:51Z</time>
      </trkpt>
      <trkpt lat="40.7590780" lon="-3.5058770">
        <ele>652.0</ele>
        <time>2020-09-29T08:38:52Z</time>
      </trkpt>
      <trkpt lat="40.7592130" lon="-3.5058580">
        <ele>652.0</ele>
        <time>2020-09-29T08:38:53Z</time>
      </trkpt>
      <trkpt lat="40.7592130" lon="-3.5058580">
        <ele>652.0</ele>
        <time>2020-09-29T08:38:54Z</time>
      </trkpt>
      <trkpt lat="40.7593450" lon="-3.5058370">
        <ele>652.0</ele>
        <time>2020-09-29T08:38:55Z</time>
      </trkpt>
      <trkpt lat="40.7593450" lon="-3.5058370">
        <ele>652.0</ele>
        <time>2020-09-29T08:38:56Z</time>
      </trkpt>
      <trkpt lat="40.7594780" lon="-3.5058180">
        <ele>652.0</ele>
        <time>2020-09-29T08:38:57Z</time>
      </trkpt>
      <trkpt lat="40.7595430" lon="-3.5058100">
        <ele>652.0</ele>
        <time>2020-09-29T08:38:58Z</time>
      </trkpt>
      <trkpt lat="40.7595430" lon="-3.5058100">
        <ele>652.0</ele>
        <time>2020-09-29T08:38:59Z</time>
      </trkpt>
      <trkpt lat="40.7596730" lon="-3.5057920">
        <ele>652.0</ele>
        <time>2020-09-29T08:39:00Z</time>
      </trkpt>
      <trkpt lat="40.7597400" lon="-3.5057820">
        <ele>652.0</ele>
        <time>2020-09-29T08:39:01Z</time>
      </trkpt>
      <trkpt lat="40.7597400" lon="-3.5057820">
        <ele>652.0</ele>
        <time>2020-09-29T08:39:02Z</time>
      </trkpt>
      <trkpt lat="40.7598700" lon="-3.5057630">
        <ele>652.0</ele>
        <time>2020-09-29T08:39:03Z</time>
      </trkpt>
      <trkpt lat="40.7598700" lon="-3.5057630">
        <ele>652.0</ele>
        <time>2020-09-29T08:39:04Z</time>
      </trkpt>
      <trkpt lat="40.7599980" lon="-3.5057450">
        <ele>652.0</ele>
        <time>2020-09-29T08:39:05Z</time>
      </trkpt>
      <trkpt lat="40.7599980" lon="-3.5057450">
        <ele>652.0</ele>
        <time>2020-09-29T08:39:06Z</time>
      </trkpt>
      <trkpt lat="40.7601270" lon="-3.5057280">
        <ele>652.0</ele>
        <time>2020-09-29T08:39:07Z</time>
      </trkpt>
      <trkpt lat="40.7601920" lon="-3.5057200">
        <ele>652.0</ele>
        <time>2020-09-29T08:39:08Z</time>
      </trkpt>
      <trkpt lat="40.7602550" lon="-3.5057100">
        <ele>652.0</ele>
        <time>2020-09-29T08:39:09Z</time>
      </trkpt>
      <trkpt lat="40.7602550" lon="-3.5057100">
        <ele>652.0</ele>
        <time>2020-09-29T08:39:10Z</time>
      </trkpt>
      <trkpt lat="40.7603820" lon="-3.5056900">
        <ele>652.0</ele>
        <time>2020-09-29T08:39:11Z</time>
      </trkpt>
      <trkpt lat="40.7604480" lon="-3.5056820">
        <ele>652.0</ele>
        <time>2020-09-29T08:39:12Z</time>
      </trkpt>
      <trkpt lat="40.7605130" lon="-3.5056730">
        <ele>652.0</ele>
        <time>2020-09-29T08:39:13Z</time>
      </trkpt>
      <trkpt lat="40.7605130" lon="-3.5056730">
        <ele>652.0</ele>
        <time>2020-09-29T08:39:14Z</time>
      </trkpt>
      <trkpt lat="40.7606450" lon="-3.5056550">
        <ele>652.0</ele>
        <time>2020-09-29T08:39:15Z</time>
      </trkpt>
      <trkpt lat="40.7607100" lon="-3.5056470">
        <ele>652.0</ele>
        <time>2020-09-29T08:39:16Z</time>
      </trkpt>
      <trkpt lat="40.7607100" lon="-3.5056470">
        <ele>652.0</ele>
        <time>2020-09-29T08:39:17Z</time>
      </trkpt>
      <trkpt lat="40.7608380" lon="-3.5056280">
        <ele>652.0</ele>
        <time>2020-09-29T08:39:18Z</time>
      </trkpt>
      <trkpt lat="40.7609030" lon="-3.5056200">
        <ele>652.0</ele>
        <time>2020-09-29T08:39:19Z</time>
      </trkpt>
      <trkpt lat="40.7609030" lon="-3.5056200">
        <ele>652.0</ele>
        <time>2020-09-29T08:39:20Z</time>
      </trkpt>
      <trkpt lat="40.7610320" lon="-3.5056020">
        <ele>652.0</ele>
        <time>2020-09-29T08:39:21Z</time>
      </trkpt>
      <trkpt lat="40.7610320" lon="-3.5056020">
        <ele>652.0</ele>
        <time>2020-09-29T08:39:22Z</time>
      </trkpt>
      <trkpt lat="40.7611630" lon="-3.5055870">
        <ele>652.0</ele>
        <time>2020-09-29T08:39:23Z</time>
      </trkpt>
      <trkpt lat="40.7612280" lon="-3.5055780">
        <ele>652.0</ele>
        <time>2020-09-29T08:39:24Z</time>
      </trkpt>
      <trkpt lat="40.7612280" lon="-3.5055780">
        <ele>652.0</ele>
        <time>2020-09-29T08:39:25Z</time>
      </trkpt>
      <trkpt lat="40.7613600" lon="-3.5055570">
        <ele>652.0</ele>
        <time>2020-09-29T08:39:26Z</time>
      </trkpt>
      <trkpt lat="40.7614270" lon="-3.5055480">
        <ele>652.0</ele>
        <time>2020-09-29T08:39:27Z</time>
      </trkpt>
      <trkpt lat="40.7614270" lon="-3.5055480">
        <ele>652.0</ele>
        <time>2020-09-29T08:39:28Z</time>
      </trkpt>
      <trkpt lat="40.7615570" lon="-3.5055280">
        <ele>652.0</ele>
        <time>2020-09-29T08:39:29Z</time>
      </trkpt>
      <trkpt lat="40.7615570" lon="-3.5055280">
        <ele>653.0</ele>
        <time>2020-09-29T08:39:30Z</time>
      </trkpt>
      <trkpt lat="40.7616870" lon="-3.5055100">
        <ele>653.0</ele>
        <time>2020-09-29T08:39:31Z</time>
      </trkpt>
      <trkpt lat="40.7616870" lon="-3.5055100">
        <ele>653.0</ele>
        <time>2020-09-29T08:39:32Z</time>
      </trkpt>
      <trkpt lat="40.7618180" lon="-3.5054920">
        <ele>653.0</ele>
        <time>2020-09-29T08:39:33Z</time>
      </trkpt>
      <trkpt lat="40.7618850" lon="-3.5054820">
        <ele>653.0</ele>
        <time>2020-09-29T08:39:34Z</time>
      </trkpt>
      <trkpt lat="40.7618850" lon="-3.5054820">
        <ele>653.0</ele>
        <time>2020-09-29T08:39:35Z</time>
      </trkpt>
      <trkpt lat="40.7620150" lon="-3.5054620">
        <ele>653.0</ele>
        <time>2020-09-29T08:39:36Z</time>
      </trkpt>
      <trkpt lat="40.7620820" lon="-3.5054520">
        <ele>653.0</ele>
        <time>2020-09-29T08:39:37Z</time>
      </trkpt>
      <trkpt lat="40.7620820" lon="-3.5054520">
        <ele>653.0</ele>
        <time>2020-09-29T08:39:38Z</time>
      </trkpt>
      <trkpt lat="40.7622130" lon="-3.5054330">
        <ele>653.0</ele>
        <time>2020-09-29T08:39:39Z</time>
      </trkpt>
      <trkpt lat="40.7622780" lon="-3.5054230">
        <ele>653.0</ele>
        <time>2020-09-29T08:39:40Z</time>
      </trkpt>
      <trkpt lat="40.7622780" lon="-3.5054230">
        <ele>653.0</ele>
        <time>2020-09-29T08:39:41Z</time>
      </trkpt>
      <trkpt lat="40.7624080" lon="-3.5054030">
        <ele>653.0</ele>
        <time>2020-09-29T08:39:42Z</time>
      </trkpt>
      <trkpt lat="40.7624080" lon="-3.5054030">
        <ele>653.0</ele>
        <time>2020-09-29T08:39:43Z</time>
      </trkpt>
      <trkpt lat="40.7625380" lon="-3.5053830">
        <ele>653.0</ele>
        <time>2020-09-29T08:39:44Z</time>
      </trkpt>
      <trkpt lat="40.7625380" lon="-3.5053830">
        <ele>653.0</ele>
        <time>2020-09-29T08:39:45Z</time>
      </trkpt>
      <trkpt lat="40.7626700" lon="-3.5053630">
        <ele>653.0</ele>
        <time>2020-09-29T08:39:46Z</time>
      </trkpt>
      <trkpt lat="40.7627350" lon="-3.5053530">
        <ele>653.0</ele>
        <time>2020-09-29T08:39:47Z</time>
      </trkpt>
      <trkpt lat="40.7628000" lon="-3.5053450">
        <ele>653.0</ele>
        <time>2020-09-29T08:39:48Z</time>
      </trkpt>
      <trkpt lat="40.7628000" lon="-3.5053450">
        <ele>653.0</ele>
        <time>2020-09-29T08:39:49Z</time>
      </trkpt>
      <trkpt lat="40.7629320" lon="-3.5053280">
        <ele>653.0</ele>
        <time>2020-09-29T08:39:50Z</time>
      </trkpt>
      <trkpt lat="40.7629970" lon="-3.5053180">
        <ele>653.0</ele>
        <time>2020-09-29T08:39:51Z</time>
      </trkpt>
      <trkpt lat="40.7629970" lon="-3.5053180">
        <ele>653.0</ele>
        <time>2020-09-29T08:39:52Z</time>
      </trkpt>
      <trkpt lat="40.7631280" lon="-3.5052980">
        <ele>653.0</ele>
        <time>2020-09-29T08:39:53Z</time>
      </trkpt>
      <trkpt lat="40.7631280" lon="-3.5052980">
        <ele>653.0</ele>
        <time>2020-09-29T08:39:54Z</time>
      </trkpt>
      <trkpt lat="40.7632580" lon="-3.5052820">
        <ele>653.0</ele>
        <time>2020-09-29T08:39:55Z</time>
      </trkpt>
      <trkpt lat="40.7632580" lon="-3.5052820">
        <ele>653.0</ele>
        <time>2020-09-29T08:39:56Z</time>
      </trkpt>
      <trkpt lat="40.7633900" lon="-3.5052630">
        <ele>653.0</ele>
        <time>2020-09-29T08:39:57Z</time>
      </trkpt>
      <trkpt lat="40.7633900" lon="-3.5052630">
        <ele>653.0</ele>
        <time>2020-09-29T08:39:58Z</time>
      </trkpt>
      <trkpt lat="40.7635200" lon="-3.5052430">
        <ele>653.0</ele>
        <time>2020-09-29T08:39:59Z</time>
      </trkpt>
      <trkpt lat="40.7635850" lon="-3.5052350">
        <ele>653.0</ele>
        <time>2020-09-29T08:40:00Z</time>
      </trkpt>
      <trkpt lat="40.7635850" lon="-3.5052350">
        <ele>653.0</ele>
        <time>2020-09-29T08:40:01Z</time>
      </trkpt>
      <trkpt lat="40.7637130" lon="-3.5052170">
        <ele>653.0</ele>
        <time>2020-09-29T08:40:02Z</time>
      </trkpt>
      <trkpt lat="40.7637130" lon="-3.5052170">
        <ele>653.0</ele>
        <time>2020-09-29T08:40:03Z</time>
      </trkpt>
      <trkpt lat="40.7638370" lon="-3.5052070">
        <ele>653.0</ele>
        <time>2020-09-29T08:40:04Z</time>
      </trkpt>
      <trkpt lat="40.7638950" lon="-3.5052000">
        <ele>653.0</ele>
        <time>2020-09-29T08:40:05Z</time>
      </trkpt>
      <trkpt lat="40.7638950" lon="-3.5052000">
        <ele>653.0</ele>
        <time>2020-09-29T08:40:06Z</time>
      </trkpt>
      <trkpt lat="40.7640050" lon="-3.5051780">
        <ele>653.0</ele>
        <time>2020-09-29T08:40:07Z</time>
      </trkpt>
      <trkpt lat="40.7640050" lon="-3.5051780">
        <ele>653.0</ele>
        <time>2020-09-29T08:40:08Z</time>
      </trkpt>
      <trkpt lat="40.7641120" lon="-3.5051730">
        <ele>653.0</ele>
        <time>2020-09-29T08:40:09Z</time>
      </trkpt>
      <trkpt lat="40.7641630" lon="-3.5051930">
        <ele>653.0</ele>
        <time>2020-09-29T08:40:10Z</time>
      </trkpt>
      <trkpt lat="40.7641630" lon="-3.5051930">
        <ele>653.0</ele>
        <time>2020-09-29T08:40:11Z</time>
      </trkpt>
      <trkpt lat="40.7642620" lon="-3.5052780">
        <ele>653.0</ele>
        <time>2020-09-29T08:40:12Z</time>
      </trkpt>
      <trkpt lat="40.7643080" lon="-3.5053300">
        <ele>653.0</ele>
        <time>2020-09-29T08:40:13Z</time>
      </trkpt>
      <trkpt lat="40.7643080" lon="-3.5053300">
        <ele>653.0</ele>
        <time>2020-09-29T08:40:14Z</time>
      </trkpt>
      <trkpt lat="40.7644030" lon="-3.5054550">
        <ele>653.0</ele>
        <time>2020-09-29T08:40:15Z</time>
      </trkpt>
      <trkpt lat="40.7644030" lon="-3.5054550">
        <ele>653.0</ele>
        <time>2020-09-29T08:40:16Z</time>
      </trkpt>
      <trkpt lat="40.7644980" lon="-3.5055770">
        <ele>653.0</ele>
        <time>2020-09-29T08:40:17Z</time>
      </trkpt>
      <trkpt lat="40.7645470" lon="-3.5056380">
        <ele>653.0</ele>
        <time>2020-09-29T08:40:18Z</time>
      </trkpt>
      <trkpt lat="40.7645470" lon="-3.5056380">
        <ele>653.0</ele>
        <time>2020-09-29T08:40:19Z</time>
      </trkpt>
      <trkpt lat="40.7646450" lon="-3.5057570">
        <ele>653.0</ele>
        <time>2020-09-29T08:40:20Z</time>
      </trkpt>
      <trkpt lat="40.7646900" lon="-3.5058180">
        <ele>653.0</ele>
        <time>2020-09-29T08:40:21Z</time>
      </trkpt>
      <trkpt lat="40.7647370" lon="-3.5058780">
        <ele>653.0</ele>
        <time>2020-09-29T08:40:22Z</time>
      </trkpt>
      <trkpt lat="40.7647370" lon="-3.5058780">
        <ele>653.0</ele>
        <time>2020-09-29T08:40:23Z</time>
      </trkpt>
      <trkpt lat="40.7648320" lon="-3.5060000">
        <ele>653.0</ele>
        <time>2020-09-29T08:40:24Z</time>
      </trkpt>
      <trkpt lat="40.7648780" lon="-3.5060620">
        <ele>653.0</ele>
        <time>2020-09-29T08:40:25Z</time>
      </trkpt>
      <trkpt lat="40.7648780" lon="-3.5060620">
        <ele>653.0</ele>
        <time>2020-09-29T08:40:26Z</time>
      </trkpt>
      <trkpt lat="40.7649700" lon="-3.5061820">
        <ele>653.0</ele>
        <time>2020-09-29T08:40:27Z</time>
      </trkpt>
      <trkpt lat="40.7649700" lon="-3.5061820">
        <ele>653.0</ele>
        <time>2020-09-29T08:40:28Z</time>
      </trkpt>
      <trkpt lat="40.7650630" lon="-3.5063000">
        <ele>653.0</ele>
        <time>2020-09-29T08:40:29Z</time>
      </trkpt>
      <trkpt lat="40.7650630" lon="-3.5063000">
        <ele>653.0</ele>
        <time>2020-09-29T08:40:30Z</time>
      </trkpt>
      <trkpt lat="40.7651550" lon="-3.5064180">
        <ele>653.0</ele>
        <time>2020-09-29T08:40:31Z</time>
      </trkpt>
      <trkpt lat="40.7652020" lon="-3.5064780">
        <ele>653.0</ele>
        <time>2020-09-29T08:40:32Z</time>
      </trkpt>
      <trkpt lat="40.7652020" lon="-3.5064780">
        <ele>653.0</ele>
        <time>2020-09-29T08:40:33Z</time>
      </trkpt>
      <trkpt lat="40.7652950" lon="-3.5065980">
        <ele>653.0</ele>
        <time>2020-09-29T08:40:34Z</time>
      </trkpt>
      <trkpt lat="40.7652950" lon="-3.5065980">
        <ele>653.0</ele>
        <time>2020-09-29T08:40:35Z</time>
      </trkpt>
      <trkpt lat="40.7653900" lon="-3.5067180">
        <ele>653.0</ele>
        <time>2020-09-29T08:40:36Z</time>
      </trkpt>
      <trkpt lat="40.7654380" lon="-3.5067780">
        <ele>653.0</ele>
        <time>2020-09-29T08:40:37Z</time>
      </trkpt>
      <trkpt lat="40.7654380" lon="-3.5067780">
        <ele>653.0</ele>
        <time>2020-09-29T08:40:38Z</time>
      </trkpt>
      <trkpt lat="40.7655330" lon="-3.5069000">
        <ele>653.0</ele>
        <time>2020-09-29T08:40:39Z</time>
      </trkpt>
      <trkpt lat="40.7655330" lon="-3.5069000">
        <ele>653.0</ele>
        <time>2020-09-29T08:40:40Z</time>
      </trkpt>
      <trkpt lat="40.7656270" lon="-3.5070200">
        <ele>653.0</ele>
        <time>2020-09-29T08:40:41Z</time>
      </trkpt>
      <trkpt lat="40.7656270" lon="-3.5070200">
        <ele>653.0</ele>
        <time>2020-09-29T08:40:42Z</time>
      </trkpt>
      <trkpt lat="40.7657220" lon="-3.5071380">
        <ele>653.0</ele>
        <time>2020-09-29T08:40:43Z</time>
      </trkpt>
      <trkpt lat="40.7657220" lon="-3.5071380">
        <ele>653.0</ele>
        <time>2020-09-29T08:40:44Z</time>
      </trkpt>
      <trkpt lat="40.7658170" lon="-3.5072580">
        <ele>653.0</ele>
        <time>2020-09-29T08:40:45Z</time>
      </trkpt>
      <trkpt lat="40.7658170" lon="-3.5072580">
        <ele>653.0</ele>
        <time>2020-09-29T08:40:46Z</time>
      </trkpt>
      <trkpt lat="40.7659120" lon="-3.5073800">
        <ele>653.0</ele>
        <time>2020-09-29T08:40:47Z</time>
      </trkpt>
      <trkpt lat="40.7659120" lon="-3.5073800">
        <ele>653.0</ele>
        <time>2020-09-29T08:40:48Z</time>
      </trkpt>
      <trkpt lat="40.7660070" lon="-3.5075030">
        <ele>653.0</ele>
        <time>2020-09-29T08:40:49Z</time>
      </trkpt>
      <trkpt lat="40.7660070" lon="-3.5075030">
        <ele>653.0</ele>
        <time>2020-09-29T08:40:50Z</time>
      </trkpt>
      <trkpt lat="40.7661020" lon="-3.5076230">
        <ele>653.0</ele>
        <time>2020-09-29T08:40:51Z</time>
      </trkpt>
      <trkpt lat="40.7661480" lon="-3.5076830">
        <ele>653.0</ele>
        <time>2020-09-29T08:40:52Z</time>
      </trkpt>
      <trkpt lat="40.7661480" lon="-3.5076830">
        <ele>653.0</ele>
        <time>2020-09-29T08:40:53Z</time>
      </trkpt>
      <trkpt lat="40.7662420" lon="-3.5078030">
        <ele>653.0</ele>
        <time>2020-09-29T08:40:54Z</time>
      </trkpt>
      <trkpt lat="40.7662880" lon="-3.5078650">
        <ele>653.0</ele>
        <time>2020-09-29T08:40:55Z</time>
      </trkpt>
      <trkpt lat="40.7662880" lon="-3.5078650">
        <ele>653.0</ele>
        <time>2020-09-29T08:40:56Z</time>
      </trkpt>
      <trkpt lat="40.7663830" lon="-3.5079850">
        <ele>653.0</ele>
        <time>2020-09-29T08:40:57Z</time>
      </trkpt>
      <trkpt lat="40.7664300" lon="-3.5080420">
        <ele>653.0</ele>
        <time>2020-09-29T08:40:58Z</time>
      </trkpt>
      <trkpt lat="40.7664300" lon="-3.5080420">
        <ele>653.0</ele>
        <time>2020-09-29T08:40:59Z</time>
      </trkpt>
      <trkpt lat="40.7665250" lon="-3.5081570">
        <ele>653.0</ele>
        <time>2020-09-29T08:41:00Z</time>
      </trkpt>
      <trkpt lat="40.7665250" lon="-3.5081570">
        <ele>653.0</ele>
        <time>2020-09-29T08:41:01Z</time>
      </trkpt>
      <trkpt lat="40.7666230" lon="-3.5082680">
        <ele>653.0</ele>
        <time>2020-09-29T08:41:02Z</time>
      </trkpt>
      <trkpt lat="40.7666230" lon="-3.5082680">
        <ele>653.0</ele>
        <time>2020-09-29T08:41:03Z</time>
      </trkpt>
      <trkpt lat="40.7667220" lon="-3.5083780">
        <ele>653.0</ele>
        <time>2020-09-29T08:41:04Z</time>
      </trkpt>
      <trkpt lat="40.7667220" lon="-3.5083780">
        <ele>653.0</ele>
        <time>2020-09-29T08:41:05Z</time>
      </trkpt>
      <trkpt lat="40.7668200" lon="-3.5084870">
        <ele>653.0</ele>
        <time>2020-09-29T08:41:06Z</time>
      </trkpt>
      <trkpt lat="40.7668200" lon="-3.5084870">
        <ele>653.0</ele>
        <time>2020-09-29T08:41:07Z</time>
      </trkpt>
      <trkpt lat="40.7669380" lon="-3.5085550">
        <ele>653.0</ele>
        <time>2020-09-29T08:41:08Z</time>
      </trkpt>
      <trkpt lat="40.7669380" lon="-3.5085550">
        <ele>653.0</ele>
        <time>2020-09-29T08:41:09Z</time>
      </trkpt>
      <trkpt lat="40.7670650" lon="-3.5085700">
        <ele>653.0</ele>
        <time>2020-09-29T08:41:10Z</time>
      </trkpt>
      <trkpt lat="40.7670650" lon="-3.5085700">
        <ele>653.0</ele>
        <time>2020-09-29T08:41:11Z</time>
      </trkpt>
      <trkpt lat="40.7671820" lon="-3.5086170">
        <ele>653.0</ele>
        <time>2020-09-29T08:41:12Z</time>
      </trkpt>
      <trkpt lat="40.7672270" lon="-3.5086680">
        <ele>653.0</ele>
        <time>2020-09-29T08:41:13Z</time>
      </trkpt>
      <trkpt lat="40.7672270" lon="-3.5086680">
        <ele>653.0</ele>
        <time>2020-09-29T08:41:14Z</time>
      </trkpt>
      <trkpt lat="40.7672780" lon="-3.5088150">
        <ele>653.0</ele>
        <time>2020-09-29T08:41:15Z</time>
      </trkpt>
      <trkpt lat="40.7672780" lon="-3.5088150">
        <ele>653.0</ele>
        <time>2020-09-29T08:41:16Z</time>
      </trkpt>
      <trkpt lat="40.7672970" lon="-3.5089830">
        <ele>653.0</ele>
        <time>2020-09-29T08:41:17Z</time>
      </trkpt>
      <trkpt lat="40.7672970" lon="-3.5089830">
        <ele>653.0</ele>
        <time>2020-09-29T08:41:18Z</time>
      </trkpt>
      <trkpt lat="40.7673430" lon="-3.5091430">
        <ele>653.0</ele>
        <time>2020-09-29T08:41:19Z</time>
      </trkpt>
      <trkpt lat="40.7673830" lon="-3.5092130">
        <ele>653.0</ele>
        <time>2020-09-29T08:41:20Z</time>
      </trkpt>
      <trkpt lat="40.7673830" lon="-3.5092130">
        <ele>653.0</ele>
        <time>2020-09-29T08:41:21Z</time>
      </trkpt>
      <trkpt lat="40.7674720" lon="-3.5093400">
        <ele>653.0</ele>
        <time>2020-09-29T08:41:22Z</time>
      </trkpt>
      <trkpt lat="40.7674720" lon="-3.5093400">
        <ele>653.0</ele>
        <time>2020-09-29T08:41:23Z</time>
      </trkpt>
      <trkpt lat="40.7675630" lon="-3.5094700">
        <ele>653.0</ele>
        <time>2020-09-29T08:41:24Z</time>
      </trkpt>
      <trkpt lat="40.7675630" lon="-3.5094700">
        <ele>653.0</ele>
        <time>2020-09-29T08:41:25Z</time>
      </trkpt>
      <trkpt lat="40.7676570" lon="-3.5095980">
        <ele>653.0</ele>
        <time>2020-09-29T08:41:26Z</time>
      </trkpt>
      <trkpt lat="40.7676570" lon="-3.5095980">
        <ele>653.0</ele>
        <time>2020-09-29T08:41:27Z</time>
      </trkpt>
      <trkpt lat="40.7677520" lon="-3.5097220">
        <ele>653.0</ele>
        <time>2020-09-29T08:41:28Z</time>
      </trkpt>
      <trkpt lat="40.7677520" lon="-3.5097220">
        <ele>653.0</ele>
        <time>2020-09-29T08:41:29Z</time>
      </trkpt>
      <trkpt lat="40.7678480" lon="-3.5098420">
        <ele>653.0</ele>
        <time>2020-09-29T08:41:30Z</time>
      </trkpt>
      <trkpt lat="40.7678970" lon="-3.5099020">
        <ele>653.0</ele>
        <time>2020-09-29T08:41:31Z</time>
      </trkpt>
      <trkpt lat="40.7678970" lon="-3.5099020">
        <ele>653.0</ele>
        <time>2020-09-29T08:41:32Z</time>
      </trkpt>
      <trkpt lat="40.7679930" lon="-3.5100250">
        <ele>653.0</ele>
        <time>2020-09-29T08:41:33Z</time>
      </trkpt>
      <trkpt lat="40.7680420" lon="-3.5100850">
        <ele>653.0</ele>
        <time>2020-09-29T08:41:34Z</time>
      </trkpt>
      <trkpt lat="40.7680420" lon="-3.5100850">
        <ele>653.0</ele>
        <time>2020-09-29T08:41:35Z</time>
      </trkpt>
      <trkpt lat="40.7681400" lon="-3.5102070">
        <ele>653.0</ele>
        <time>2020-09-29T08:41:36Z</time>
      </trkpt>
      <trkpt lat="40.7681400" lon="-3.5102070">
        <ele>653.0</ele>
        <time>2020-09-29T08:41:37Z</time>
      </trkpt>
      <trkpt lat="40.7682420" lon="-3.5103270">
        <ele>653.0</ele>
        <time>2020-09-29T08:41:38Z</time>
      </trkpt>
      <trkpt lat="40.7682420" lon="-3.5103270">
        <ele>653.0</ele>
        <time>2020-09-29T08:41:39Z</time>
      </trkpt>
      <trkpt lat="40.7683430" lon="-3.5104470">
        <ele>653.0</ele>
        <time>2020-09-29T08:41:40Z</time>
      </trkpt>
      <trkpt lat="40.7683430" lon="-3.5104470">
        <ele>653.0</ele>
        <time>2020-09-29T08:41:41Z</time>
      </trkpt>
      <trkpt lat="40.7684400" lon="-3.5105720">
        <ele>653.0</ele>
        <time>2020-09-29T08:41:42Z</time>
      </trkpt>
      <trkpt lat="40.7684400" lon="-3.5105720">
        <ele>653.0</ele>
        <time>2020-09-29T08:41:43Z</time>
      </trkpt>
      <trkpt lat="40.7685400" lon="-3.5106950">
        <ele>652.0</ele>
        <time>2020-09-29T08:41:44Z</time>
      </trkpt>
      <trkpt lat="40.7685900" lon="-3.5107570">
        <ele>652.0</ele>
        <time>2020-09-29T08:41:45Z</time>
      </trkpt>
      <trkpt lat="40.7685900" lon="-3.5107570">
        <ele>652.0</ele>
        <time>2020-09-29T08:41:46Z</time>
      </trkpt>
      <trkpt lat="40.7686880" lon="-3.5108820">
        <ele>652.0</ele>
        <time>2020-09-29T08:41:47Z</time>
      </trkpt>
      <trkpt lat="40.7686880" lon="-3.5108820">
        <ele>653.0</ele>
        <time>2020-09-29T08:41:48Z</time>
      </trkpt>
      <trkpt lat="40.7687870" lon="-3.5110070">
        <ele>653.0</ele>
        <time>2020-09-29T08:41:49Z</time>
      </trkpt>
      <trkpt lat="40.7687870" lon="-3.5110070">
        <ele>653.0</ele>
        <time>2020-09-29T08:41:50Z</time>
      </trkpt>
      <trkpt lat="40.7688870" lon="-3.5111300">
        <ele>653.0</ele>
        <time>2020-09-29T08:41:51Z</time>
      </trkpt>
      <trkpt lat="40.7689350" lon="-3.5111920">
        <ele>653.0</ele>
        <time>2020-09-29T08:41:52Z</time>
      </trkpt>
      <trkpt lat="40.7689350" lon="-3.5111920">
        <ele>653.0</ele>
        <time>2020-09-29T08:41:53Z</time>
      </trkpt>
      <trkpt lat="40.7690320" lon="-3.5113150">
        <ele>653.0</ele>
        <time>2020-09-29T08:41:54Z</time>
      </trkpt>
      <trkpt lat="40.7690780" lon="-3.5113770">
        <ele>653.0</ele>
        <time>2020-09-29T08:41:55Z</time>
      </trkpt>
      <trkpt lat="40.7690780" lon="-3.5113770">
        <ele>653.0</ele>
        <time>2020-09-29T08:41:56Z</time>
      </trkpt>
      <trkpt lat="40.7691750" lon="-3.5114950">
        <ele>653.0</ele>
        <time>2020-09-29T08:41:57Z</time>
      </trkpt>
      <trkpt lat="40.7692250" lon="-3.5115550">
        <ele>653.0</ele>
        <time>2020-09-29T08:41:58Z</time>
      </trkpt>
      <trkpt lat="40.7692250" lon="-3.5115550">
        <ele>653.0</ele>
        <time>2020-09-29T08:41:59Z</time>
      </trkpt>
      <trkpt lat="40.7693220" lon="-3.5116770">
        <ele>653.0</ele>
        <time>2020-09-29T08:42:00Z</time>
      </trkpt>
      <trkpt lat="40.7693680" lon="-3.5117380">
        <ele>653.0</ele>
        <time>2020-09-29T08:42:01Z</time>
      </trkpt>
      <trkpt lat="40.7693680" lon="-3.5117380">
        <ele>653.0</ele>
        <time>2020-09-29T08:42:02Z</time>
      </trkpt>
      <trkpt lat="40.7694670" lon="-3.5118600">
        <ele>653.0</ele>
        <time>2020-09-29T08:42:03Z</time>
      </trkpt>
      <trkpt lat="40.7695150" lon="-3.5119220">
        <ele>653.0</ele>
        <time>2020-09-29T08:42:04Z</time>
      </trkpt>
      <trkpt lat="40.7695650" lon="-3.5119830">
        <ele>653.0</ele>
        <time>2020-09-29T08:42:05Z</time>
      </trkpt>
      <trkpt lat="40.7695650" lon="-3.5119830">
        <ele>653.0</ele>
        <time>2020-09-29T08:42:06Z</time>
      </trkpt>
      <trkpt lat="40.7696630" lon="-3.5121080">
        <ele>653.0</ele>
        <time>2020-09-29T08:42:07Z</time>
      </trkpt>
      <trkpt lat="40.7697130" lon="-3.5121700">
        <ele>653.0</ele>
        <time>2020-09-29T08:42:08Z</time>
      </trkpt>
      <trkpt lat="40.7697130" lon="-3.5121700">
        <ele>653.0</ele>
        <time>2020-09-29T08:42:09Z</time>
      </trkpt>
      <trkpt lat="40.7698150" lon="-3.5122930">
        <ele>653.0</ele>
        <time>2020-09-29T08:42:10Z</time>
      </trkpt>
      <trkpt lat="40.7698650" lon="-3.5123550">
        <ele>653.0</ele>
        <time>2020-09-29T08:42:11Z</time>
      </trkpt>
      <trkpt lat="40.7698650" lon="-3.5123550">
        <ele>653.0</ele>
        <time>2020-09-29T08:42:12Z</time>
      </trkpt>
      <trkpt lat="40.7699680" lon="-3.5124800">
        <ele>653.0</ele>
        <time>2020-09-29T08:42:13Z</time>
      </trkpt>
      <trkpt lat="40.7699680" lon="-3.5124800">
        <ele>653.0</ele>
        <time>2020-09-29T08:42:14Z</time>
      </trkpt>
      <trkpt lat="40.7700720" lon="-3.5126120">
        <ele>653.0</ele>
        <time>2020-09-29T08:42:15Z</time>
      </trkpt>
      <trkpt lat="40.7701230" lon="-3.5126750">
        <ele>653.0</ele>
        <time>2020-09-29T08:42:16Z</time>
      </trkpt>
      <trkpt lat="40.7701750" lon="-3.5127400">
        <ele>652.0</ele>
        <time>2020-09-29T08:42:17Z</time>
      </trkpt>
      <trkpt lat="40.7701750" lon="-3.5127400">
        <ele>652.0</ele>
        <time>2020-09-29T08:42:18Z</time>
      </trkpt>
      <trkpt lat="40.7702780" lon="-3.5128700">
        <ele>652.0</ele>
        <time>2020-09-29T08:42:19Z</time>
      </trkpt>
      <trkpt lat="40.7702780" lon="-3.5128700">
        <ele>652.0</ele>
        <time>2020-09-29T08:42:20Z</time>
      </trkpt>
      <trkpt lat="40.7703830" lon="-3.5130000">
        <ele>652.0</ele>
        <time>2020-09-29T08:42:21Z</time>
      </trkpt>
      <trkpt lat="40.7703830" lon="-3.5130000">
        <ele>652.0</ele>
        <time>2020-09-29T08:42:22Z</time>
      </trkpt>
      <trkpt lat="40.7704850" lon="-3.5131270">
        <ele>651.0</ele>
        <time>2020-09-29T08:42:23Z</time>
      </trkpt>
      <trkpt lat="40.7704850" lon="-3.5131270">
        <ele>651.0</ele>
        <time>2020-09-29T08:42:24Z</time>
      </trkpt>
      <trkpt lat="40.7705830" lon="-3.5132530">
        <ele>651.0</ele>
        <time>2020-09-29T08:42:25Z</time>
      </trkpt>
      <trkpt lat="40.7706300" lon="-3.5133150">
        <ele>651.0</ele>
        <time>2020-09-29T08:42:26Z</time>
      </trkpt>
      <trkpt lat="40.7706300" lon="-3.5133150">
        <ele>651.0</ele>
        <time>2020-09-29T08:42:27Z</time>
      </trkpt>
      <trkpt lat="40.7707250" lon="-3.5134470">
        <ele>651.0</ele>
        <time>2020-09-29T08:42:28Z</time>
      </trkpt>
      <trkpt lat="40.7707250" lon="-3.5134470">
        <ele>651.0</ele>
        <time>2020-09-29T08:42:29Z</time>
      </trkpt>
      <trkpt lat="40.7708120" lon="-3.5135830">
        <ele>651.0</ele>
        <time>2020-09-29T08:42:30Z</time>
      </trkpt>
      <trkpt lat="40.7708120" lon="-3.5135830">
        <ele>651.0</ele>
        <time>2020-09-29T08:42:31Z</time>
      </trkpt>
      <trkpt lat="40.7709000" lon="-3.5137200">
        <ele>651.0</ele>
        <time>2020-09-29T08:42:32Z</time>
      </trkpt>
      <trkpt lat="40.7709000" lon="-3.5137200">
        <ele>651.0</ele>
        <time>2020-09-29T08:42:33Z</time>
      </trkpt>
      <trkpt lat="40.7709800" lon="-3.5138620">
        <ele>651.0</ele>
        <time>2020-09-29T08:42:34Z</time>
      </trkpt>
      <trkpt lat="40.7710220" lon="-3.5139320">
        <ele>651.0</ele>
        <time>2020-09-29T08:42:35Z</time>
      </trkpt>
      <trkpt lat="40.7710630" lon="-3.5140030">
        <ele>651.0</ele>
        <time>2020-09-29T08:42:36Z</time>
      </trkpt>
      <trkpt lat="40.7710630" lon="-3.5140030">
        <ele>651.0</ele>
        <time>2020-09-29T08:42:37Z</time>
      </trkpt>
      <trkpt lat="40.7711420" lon="-3.5141530">
        <ele>651.0</ele>
        <time>2020-09-29T08:42:38Z</time>
      </trkpt>
      <trkpt lat="40.7711420" lon="-3.5141530">
        <ele>651.0</ele>
        <time>2020-09-29T08:42:39Z</time>
      </trkpt>
      <trkpt lat="40.7712180" lon="-3.5143050">
        <ele>650.0</ele>
        <time>2020-09-29T08:42:40Z</time>
      </trkpt>
      <trkpt lat="40.7712180" lon="-3.5143050">
        <ele>650.0</ele>
        <time>2020-09-29T08:42:41Z</time>
      </trkpt>
      <trkpt lat="40.7712920" lon="-3.5144580">
        <ele>650.0</ele>
        <time>2020-09-29T08:42:42Z</time>
      </trkpt>
      <trkpt lat="40.7712920" lon="-3.5144580">
        <ele>650.0</ele>
        <time>2020-09-29T08:42:43Z</time>
      </trkpt>
      <trkpt lat="40.7713670" lon="-3.5146100">
        <ele>650.0</ele>
        <time>2020-09-29T08:42:44Z</time>
      </trkpt>
      <trkpt lat="40.7713670" lon="-3.5146100">
        <ele>650.0</ele>
        <time>2020-09-29T08:42:45Z</time>
      </trkpt>
      <trkpt lat="40.7714380" lon="-3.5147670">
        <ele>650.0</ele>
        <time>2020-09-29T08:42:46Z</time>
      </trkpt>
      <trkpt lat="40.7714750" lon="-3.5148430">
        <ele>650.0</ele>
        <time>2020-09-29T08:42:47Z</time>
      </trkpt>
      <trkpt lat="40.7714750" lon="-3.5148430">
        <ele>650.0</ele>
        <time>2020-09-29T08:42:48Z</time>
      </trkpt>
      <trkpt lat="40.7715480" lon="-3.5149980">
        <ele>650.0</ele>
        <time>2020-09-29T08:42:49Z</time>
      </trkpt>
      <trkpt lat="40.7715480" lon="-3.5149980">
        <ele>650.0</ele>
        <time>2020-09-29T08:42:50Z</time>
      </trkpt>
      <trkpt lat="40.7716220" lon="-3.5151550">
        <ele>650.0</ele>
        <time>2020-09-29T08:42:51Z</time>
      </trkpt>
      <trkpt lat="40.7716220" lon="-3.5151550">
        <ele>650.0</ele>
        <time>2020-09-29T08:42:52Z</time>
      </trkpt>
      <trkpt lat="40.7716950" lon="-3.5153050">
        <ele>650.0</ele>
        <time>2020-09-29T08:42:53Z</time>
      </trkpt>
      <trkpt lat="40.7716950" lon="-3.5153050">
        <ele>650.0</ele>
        <time>2020-09-29T08:42:54Z</time>
      </trkpt>
      <trkpt lat="40.7717650" lon="-3.5154550">
        <ele>650.0</ele>
        <time>2020-09-29T08:42:55Z</time>
      </trkpt>
      <trkpt lat="40.7717650" lon="-3.5154550">
        <ele>650.0</ele>
        <time>2020-09-29T08:42:56Z</time>
      </trkpt>
      <trkpt lat="40.7718330" lon="-3.5156080">
        <ele>650.0</ele>
        <time>2020-09-29T08:42:57Z</time>
      </trkpt>
      <trkpt lat="40.7718330" lon="-3.5156080">
        <ele>650.0</ele>
        <time>2020-09-29T08:42:58Z</time>
      </trkpt>
      <trkpt lat="40.7719050" lon="-3.5157620">
        <ele>650.0</ele>
        <time>2020-09-29T08:42:59Z</time>
      </trkpt>
      <trkpt lat="40.7719050" lon="-3.5157620">
        <ele>650.0</ele>
        <time>2020-09-29T08:43:00Z</time>
      </trkpt>
      <trkpt lat="40.7719730" lon="-3.5159130">
        <ele>650.0</ele>
        <time>2020-09-29T08:43:01Z</time>
      </trkpt>
      <trkpt lat="40.7719730" lon="-3.5159130">
        <ele>650.0</ele>
        <time>2020-09-29T08:43:02Z</time>
      </trkpt>
      <trkpt lat="40.7720400" lon="-3.5160670">
        <ele>650.0</ele>
        <time>2020-09-29T08:43:03Z</time>
      </trkpt>
      <trkpt lat="40.7720750" lon="-3.5161430">
        <ele>650.0</ele>
        <time>2020-09-29T08:43:04Z</time>
      </trkpt>
      <trkpt lat="40.7721120" lon="-3.5162180">
        <ele>650.0</ele>
        <time>2020-09-29T08:43:05Z</time>
      </trkpt>
      <trkpt lat="40.7721120" lon="-3.5162180">
        <ele>650.0</ele>
        <time>2020-09-29T08:43:06Z</time>
      </trkpt>
      <trkpt lat="40.7721830" lon="-3.5163670">
        <ele>650.0</ele>
        <time>2020-09-29T08:43:07Z</time>
      </trkpt>
      <trkpt lat="40.7721830" lon="-3.5163670">
        <ele>650.0</ele>
        <time>2020-09-29T08:43:08Z</time>
      </trkpt>
      <trkpt lat="40.7722550" lon="-3.5165170">
        <ele>650.0</ele>
        <time>2020-09-29T08:43:09Z</time>
      </trkpt>
      <trkpt lat="40.7722550" lon="-3.5165170">
        <ele>650.0</ele>
        <time>2020-09-29T08:43:10Z</time>
      </trkpt>
      <trkpt lat="40.7723230" lon="-3.5166680">
        <ele>650.0</ele>
        <time>2020-09-29T08:43:11Z</time>
      </trkpt>
      <trkpt lat="40.7723600" lon="-3.5167430">
        <ele>650.0</ele>
        <time>2020-09-29T08:43:12Z</time>
      </trkpt>
      <trkpt lat="40.7723600" lon="-3.5167430">
        <ele>650.0</ele>
        <time>2020-09-29T08:43:13Z</time>
      </trkpt>
      <trkpt lat="40.7724280" lon="-3.5168930">
        <ele>650.0</ele>
        <time>2020-09-29T08:43:14Z</time>
      </trkpt>
      <trkpt lat="40.7724280" lon="-3.5168930">
        <ele>650.0</ele>
        <time>2020-09-29T08:43:15Z</time>
      </trkpt>
      <trkpt lat="40.7725000" lon="-3.5170430">
        <ele>650.0</ele>
        <time>2020-09-29T08:43:16Z</time>
      </trkpt>
      <trkpt lat="40.7725000" lon="-3.5170430">
        <ele>650.0</ele>
        <time>2020-09-29T08:43:17Z</time>
      </trkpt>
      <trkpt lat="40.7725700" lon="-3.5171930">
        <ele>650.0</ele>
        <time>2020-09-29T08:43:18Z</time>
      </trkpt>
      <trkpt lat="40.7725700" lon="-3.5171930">
        <ele>650.0</ele>
        <time>2020-09-29T08:43:19Z</time>
      </trkpt>
      <trkpt lat="40.7726380" lon="-3.5173400">
        <ele>650.0</ele>
        <time>2020-09-29T08:43:20Z</time>
      </trkpt>
      <trkpt lat="40.7726730" lon="-3.5174130">
        <ele>649.0</ele>
        <time>2020-09-29T08:43:21Z</time>
      </trkpt>
      <trkpt lat="40.7726730" lon="-3.5174130">
        <ele>649.0</ele>
        <time>2020-09-29T08:43:22Z</time>
      </trkpt>
      <trkpt lat="40.7727430" lon="-3.5175620">
        <ele>649.0</ele>
        <time>2020-09-29T08:43:23Z</time>
      </trkpt>
      <trkpt lat="40.7727430" lon="-3.5175620">
        <ele>649.0</ele>
        <time>2020-09-29T08:43:24Z</time>
      </trkpt>
      <trkpt lat="40.7728130" lon="-3.5177070">
        <ele>649.0</ele>
        <time>2020-09-29T08:43:25Z</time>
      </trkpt>
      <trkpt lat="40.7728130" lon="-3.5177070">
        <ele>649.0</ele>
        <time>2020-09-29T08:43:26Z</time>
      </trkpt>
      <trkpt lat="40.7728820" lon="-3.5178550">
        <ele>649.0</ele>
        <time>2020-09-29T08:43:27Z</time>
      </trkpt>
      <trkpt lat="40.7729150" lon="-3.5179280">
        <ele>649.0</ele>
        <time>2020-09-29T08:43:28Z</time>
      </trkpt>
      <trkpt lat="40.7729150" lon="-3.5179280">
        <ele>649.0</ele>
        <time>2020-09-29T08:43:29Z</time>
      </trkpt>
      <trkpt lat="40.7729780" lon="-3.5180770">
        <ele>649.0</ele>
        <time>2020-09-29T08:43:30Z</time>
      </trkpt>
      <trkpt lat="40.7729780" lon="-3.5180770">
        <ele>649.0</ele>
        <time>2020-09-29T08:43:31Z</time>
      </trkpt>
      <trkpt lat="40.7730430" lon="-3.5182270">
        <ele>649.0</ele>
        <time>2020-09-29T08:43:32Z</time>
      </trkpt>
      <trkpt lat="40.7730430" lon="-3.5182270">
        <ele>649.0</ele>
        <time>2020-09-29T08:43:33Z</time>
      </trkpt>
      <trkpt lat="40.7731080" lon="-3.5183780">
        <ele>649.0</ele>
        <time>2020-09-29T08:43:34Z</time>
      </trkpt>
      <trkpt lat="40.7731420" lon="-3.5184550">
        <ele>649.0</ele>
        <time>2020-09-29T08:43:35Z</time>
      </trkpt>
      <trkpt lat="40.7731420" lon="-3.5184550">
        <ele>649.0</ele>
        <time>2020-09-29T08:43:36Z</time>
      </trkpt>
      <trkpt lat="40.7732030" lon="-3.5186100">
        <ele>650.0</ele>
        <time>2020-09-29T08:43:37Z</time>
      </trkpt>
      <trkpt lat="40.7732030" lon="-3.5186100">
        <ele>650.0</ele>
        <time>2020-09-29T08:43:38Z</time>
      </trkpt>
      <trkpt lat="40.7732630" lon="-3.5187650">
        <ele>650.0</ele>
        <time>2020-09-29T08:43:39Z</time>
      </trkpt>
      <trkpt lat="40.7732630" lon="-3.5187650">
        <ele>650.0</ele>
        <time>2020-09-29T08:43:40Z</time>
      </trkpt>
      <trkpt lat="40.7733200" lon="-3.5189200">
        <ele>650.0</ele>
        <time>2020-09-29T08:43:41Z</time>
      </trkpt>
      <trkpt lat="40.7733200" lon="-3.5189200">
        <ele>650.0</ele>
        <time>2020-09-29T08:43:42Z</time>
      </trkpt>
      <trkpt lat="40.7733750" lon="-3.5190730">
        <ele>650.0</ele>
        <time>2020-09-29T08:43:43Z</time>
      </trkpt>
      <trkpt lat="40.7733750" lon="-3.5190730">
        <ele>650.0</ele>
        <time>2020-09-29T08:43:44Z</time>
      </trkpt>
      <trkpt lat="40.7734280" lon="-3.5192250">
        <ele>650.0</ele>
        <time>2020-09-29T08:43:45Z</time>
      </trkpt>
      <trkpt lat="40.7734280" lon="-3.5192250">
        <ele>650.0</ele>
        <time>2020-09-29T08:43:46Z</time>
      </trkpt>
      <trkpt lat="40.7734820" lon="-3.5193750">
        <ele>650.0</ele>
        <time>2020-09-29T08:43:47Z</time>
      </trkpt>
      <trkpt lat="40.7735100" lon="-3.5194470">
        <ele>650.0</ele>
        <time>2020-09-29T08:43:48Z</time>
      </trkpt>
      <trkpt lat="40.7735380" lon="-3.5195170">
        <ele>651.0</ele>
        <time>2020-09-29T08:43:49Z</time>
      </trkpt>
      <trkpt lat="40.7735380" lon="-3.5195170">
        <ele>651.0</ele>
        <time>2020-09-29T08:43:50Z</time>
      </trkpt>
      <trkpt lat="40.7735900" lon="-3.5196580">
        <ele>651.0</ele>
        <time>2020-09-29T08:43:51Z</time>
      </trkpt>
      <trkpt lat="40.7736130" lon="-3.5197280">
        <ele>651.0</ele>
        <time>2020-09-29T08:43:52Z</time>
      </trkpt>
      <trkpt lat="40.7736130" lon="-3.5197280">
        <ele>651.0</ele>
        <time>2020-09-29T08:43:53Z</time>
      </trkpt>
      <trkpt lat="40.7736620" lon="-3.5198620">
        <ele>651.0</ele>
        <time>2020-09-29T08:43:54Z</time>
      </trkpt>
      <trkpt lat="40.7736850" lon="-3.5199270">
        <ele>651.0</ele>
        <time>2020-09-29T08:43:55Z</time>
      </trkpt>
      <trkpt lat="40.7736850" lon="-3.5199270">
        <ele>651.0</ele>
        <time>2020-09-29T08:43:56Z</time>
      </trkpt>
      <trkpt lat="40.7737370" lon="-3.5200550">
        <ele>651.0</ele>
        <time>2020-09-29T08:43:57Z</time>
      </trkpt>
      <trkpt lat="40.7737370" lon="-3.5200550">
        <ele>651.0</ele>
        <time>2020-09-29T08:43:58Z</time>
      </trkpt>
      <trkpt lat="40.7737800" lon="-3.5201830">
        <ele>652.0</ele>
        <time>2020-09-29T08:43:59Z</time>
      </trkpt>
      <trkpt lat="40.7737800" lon="-3.5201830">
        <ele>652.0</ele>
        <time>2020-09-29T08:44:00Z</time>
      </trkpt>
      <trkpt lat="40.7738270" lon="-3.5203030">
        <ele>652.0</ele>
        <time>2020-09-29T08:44:01Z</time>
      </trkpt>
      <trkpt lat="40.7738530" lon="-3.5203650">
        <ele>652.0</ele>
        <time>2020-09-29T08:44:02Z</time>
      </trkpt>
      <trkpt lat="40.7738800" lon="-3.5204300">
        <ele>652.0</ele>
        <time>2020-09-29T08:44:03Z</time>
      </trkpt>
      <trkpt lat="40.7738800" lon="-3.5204300">
        <ele>653.0</ele>
        <time>2020-09-29T08:44:04Z</time>
      </trkpt>
      <trkpt lat="40.7739220" lon="-3.5205500">
        <ele>653.0</ele>
        <time>2020-09-29T08:44:05Z</time>
      </trkpt>
      <trkpt lat="40.7739430" lon="-3.5206100">
        <ele>653.0</ele>
        <time>2020-09-29T08:44:06Z</time>
      </trkpt>
      <trkpt lat="40.7739650" lon="-3.5206680">
        <ele>653.0</ele>
        <time>2020-09-29T08:44:07Z</time>
      </trkpt>
      <trkpt lat="40.7739650" lon="-3.5206680">
        <ele>653.0</ele>
        <time>2020-09-29T08:44:08Z</time>
      </trkpt>
      <trkpt lat="40.7740080" lon="-3.5207930">
        <ele>653.0</ele>
        <time>2020-09-29T08:44:09Z</time>
      </trkpt>
      <trkpt lat="40.7740080" lon="-3.5207930">
        <ele>653.0</ele>
        <time>2020-09-29T08:44:10Z</time>
      </trkpt>
      <trkpt lat="40.7740480" lon="-3.5209170">
        <ele>653.0</ele>
        <time>2020-09-29T08:44:11Z</time>
      </trkpt>
      <trkpt lat="40.7740680" lon="-3.5209780">
        <ele>653.0</ele>
        <time>2020-09-29T08:44:12Z</time>
      </trkpt>
      <trkpt lat="40.7740920" lon="-3.5210380">
        <ele>653.0</ele>
        <time>2020-09-29T08:44:13Z</time>
      </trkpt>
      <trkpt lat="40.7740920" lon="-3.5210380">
        <ele>653.0</ele>
        <time>2020-09-29T08:44:14Z</time>
      </trkpt>
      <trkpt lat="40.7741380" lon="-3.5211700">
        <ele>654.0</ele>
        <time>2020-09-29T08:44:15Z</time>
      </trkpt>
      <trkpt lat="40.7741380" lon="-3.5211700">
        <ele>654.0</ele>
        <time>2020-09-29T08:44:16Z</time>
      </trkpt>
      <trkpt lat="40.7741830" lon="-3.5213000">
        <ele>654.0</ele>
        <time>2020-09-29T08:44:17Z</time>
      </trkpt>
      <trkpt lat="40.7741830" lon="-3.5213000">
        <ele>654.0</ele>
        <time>2020-09-29T08:44:18Z</time>
      </trkpt>
      <trkpt lat="40.7742280" lon="-3.5214280">
        <ele>654.0</ele>
        <time>2020-09-29T08:44:19Z</time>
      </trkpt>
      <trkpt lat="40.7742280" lon="-3.5214280">
        <ele>654.0</ele>
        <time>2020-09-29T08:44:20Z</time>
      </trkpt>
      <trkpt lat="40.7742750" lon="-3.5215570">
        <ele>655.0</ele>
        <time>2020-09-29T08:44:21Z</time>
      </trkpt>
      <trkpt lat="40.7742750" lon="-3.5215570">
        <ele>655.0</ele>
        <time>2020-09-29T08:44:22Z</time>
      </trkpt>
      <trkpt lat="40.7743220" lon="-3.5216880">
        <ele>655.0</ele>
        <time>2020-09-29T08:44:23Z</time>
      </trkpt>
      <trkpt lat="40.7743450" lon="-3.5217570">
        <ele>655.0</ele>
        <time>2020-09-29T08:44:24Z</time>
      </trkpt>
      <trkpt lat="40.7743680" lon="-3.5218250">
        <ele>655.0</ele>
        <time>2020-09-29T08:44:25Z</time>
      </trkpt>
      <trkpt lat="40.7743680" lon="-3.5218250">
        <ele>655.0</ele>
        <time>2020-09-29T08:44:26Z</time>
      </trkpt>
      <trkpt lat="40.7744180" lon="-3.5219620">
        <ele>655.0</ele>
        <time>2020-09-29T08:44:27Z</time>
      </trkpt>
      <trkpt lat="40.7744180" lon="-3.5219620">
        <ele>655.0</ele>
        <time>2020-09-29T08:44:28Z</time>
      </trkpt>
      <trkpt lat="40.7744670" lon="-3.5221000">
        <ele>655.0</ele>
        <time>2020-09-29T08:44:29Z</time>
      </trkpt>
      <trkpt lat="40.7744670" lon="-3.5221000">
        <ele>655.0</ele>
        <time>2020-09-29T08:44:30Z</time>
      </trkpt>
      <trkpt lat="40.7745150" lon="-3.5222420">
        <ele>655.0</ele>
        <time>2020-09-29T08:44:31Z</time>
      </trkpt>
      <trkpt lat="40.7745150" lon="-3.5222420">
        <ele>655.0</ele>
        <time>2020-09-29T08:44:32Z</time>
      </trkpt>
      <trkpt lat="40.7745680" lon="-3.5223820">
        <ele>655.0</ele>
        <time>2020-09-29T08:44:33Z</time>
      </trkpt>
      <trkpt lat="40.7745930" lon="-3.5224550">
        <ele>655.0</ele>
        <time>2020-09-29T08:44:34Z</time>
      </trkpt>
      <trkpt lat="40.7746170" lon="-3.5225280">
        <ele>655.0</ele>
        <time>2020-09-29T08:44:35Z</time>
      </trkpt>
      <trkpt lat="40.7746170" lon="-3.5225280">
        <ele>655.0</ele>
        <time>2020-09-29T08:44:36Z</time>
      </trkpt>
      <trkpt lat="40.7746720" lon="-3.5226750">
        <ele>655.0</ele>
        <time>2020-09-29T08:44:37Z</time>
      </trkpt>
      <trkpt lat="40.7746720" lon="-3.5226750">
        <ele>655.0</ele>
        <time>2020-09-29T08:44:38Z</time>
      </trkpt>
      <trkpt lat="40.7747250" lon="-3.5228220">
        <ele>655.0</ele>
        <time>2020-09-29T08:44:39Z</time>
      </trkpt>
      <trkpt lat="40.7747250" lon="-3.5228220">
        <ele>655.0</ele>
        <time>2020-09-29T08:44:40Z</time>
      </trkpt>
      <trkpt lat="40.7747770" lon="-3.5229730">
        <ele>655.0</ele>
        <time>2020-09-29T08:44:41Z</time>
      </trkpt>
      <trkpt lat="40.7747770" lon="-3.5229730">
        <ele>655.0</ele>
        <time>2020-09-29T08:44:42Z</time>
      </trkpt>
      <trkpt lat="40.7748320" lon="-3.5231230">
        <ele>655.0</ele>
        <time>2020-09-29T08:44:43Z</time>
      </trkpt>
      <trkpt lat="40.7748320" lon="-3.5231230">
        <ele>655.0</ele>
        <time>2020-09-29T08:44:44Z</time>
      </trkpt>
      <trkpt lat="40.7748850" lon="-3.5232750">
        <ele>655.0</ele>
        <time>2020-09-29T08:44:45Z</time>
      </trkpt>
      <trkpt lat="40.7748850" lon="-3.5232750">
        <ele>655.0</ele>
        <time>2020-09-29T08:44:46Z</time>
      </trkpt>
      <trkpt lat="40.7749280" lon="-3.5234330">
        <ele>655.0</ele>
        <time>2020-09-29T08:44:47Z</time>
      </trkpt>
      <trkpt lat="40.7749480" lon="-3.5235120">
        <ele>655.0</ele>
        <time>2020-09-29T08:44:48Z</time>
      </trkpt>
      <trkpt lat="40.7749480" lon="-3.5235120">
        <ele>655.0</ele>
        <time>2020-09-29T08:44:49Z</time>
      </trkpt>
      <trkpt lat="40.7750020" lon="-3.5236670">
        <ele>655.0</ele>
        <time>2020-09-29T08:44:50Z</time>
      </trkpt>
      <trkpt lat="40.7750020" lon="-3.5236670">
        <ele>655.0</ele>
        <time>2020-09-29T08:44:51Z</time>
      </trkpt>
      <trkpt lat="40.7750620" lon="-3.5238180">
        <ele>655.0</ele>
        <time>2020-09-29T08:44:52Z</time>
      </trkpt>
      <trkpt lat="40.7750880" lon="-3.5238930">
        <ele>655.0</ele>
        <time>2020-09-29T08:44:53Z</time>
      </trkpt>
      <trkpt lat="40.7750880" lon="-3.5238930">
        <ele>655.0</ele>
        <time>2020-09-29T08:44:54Z</time>
      </trkpt>
      <trkpt lat="40.7751420" lon="-3.5240480">
        <ele>655.0</ele>
        <time>2020-09-29T08:44:55Z</time>
      </trkpt>
      <trkpt lat="40.7751420" lon="-3.5240480">
        <ele>655.0</ele>
        <time>2020-09-29T08:44:56Z</time>
      </trkpt>
      <trkpt lat="40.7751930" lon="-3.5242000">
        <ele>655.0</ele>
        <time>2020-09-29T08:44:57Z</time>
      </trkpt>
      <trkpt lat="40.7752200" lon="-3.5242750">
        <ele>655.0</ele>
        <time>2020-09-29T08:44:58Z</time>
      </trkpt>
      <trkpt lat="40.7752200" lon="-3.5242750">
        <ele>655.0</ele>
        <time>2020-09-29T08:44:59Z</time>
      </trkpt>
      <trkpt lat="40.7752730" lon="-3.5244250">
        <ele>655.0</ele>
        <time>2020-09-29T08:45:00Z</time>
      </trkpt>
      <trkpt lat="40.7753000" lon="-3.5244980">
        <ele>655.0</ele>
        <time>2020-09-29T08:45:01Z</time>
      </trkpt>
      <trkpt lat="40.7753000" lon="-3.5244980">
        <ele>655.0</ele>
        <time>2020-09-29T08:45:02Z</time>
      </trkpt>
      <trkpt lat="40.7753530" lon="-3.5246450">
        <ele>655.0</ele>
        <time>2020-09-29T08:45:03Z</time>
      </trkpt>
      <trkpt lat="40.7753820" lon="-3.5247170">
        <ele>655.0</ele>
        <time>2020-09-29T08:45:04Z</time>
      </trkpt>
      <trkpt lat="40.7753820" lon="-3.5247170">
        <ele>655.0</ele>
        <time>2020-09-29T08:45:05Z</time>
      </trkpt>
      <trkpt lat="40.7754380" lon="-3.5248580">
        <ele>655.0</ele>
        <time>2020-09-29T08:45:06Z</time>
      </trkpt>
      <trkpt lat="40.7754380" lon="-3.5248580">
        <ele>655.0</ele>
        <time>2020-09-29T08:45:07Z</time>
      </trkpt>
      <trkpt lat="40.7754880" lon="-3.5250000">
        <ele>655.0</ele>
        <time>2020-09-29T08:45:08Z</time>
      </trkpt>
      <trkpt lat="40.7754880" lon="-3.5250000">
        <ele>655.0</ele>
        <time>2020-09-29T08:45:09Z</time>
      </trkpt>
      <trkpt lat="40.7755350" lon="-3.5251400">
        <ele>656.0</ele>
        <time>2020-09-29T08:45:10Z</time>
      </trkpt>
      <trkpt lat="40.7755600" lon="-3.5252100">
        <ele>656.0</ele>
        <time>2020-09-29T08:45:11Z</time>
      </trkpt>
      <trkpt lat="40.7755600" lon="-3.5252100">
        <ele>656.0</ele>
        <time>2020-09-29T08:45:12Z</time>
      </trkpt>
      <trkpt lat="40.7756120" lon="-3.5253470">
        <ele>656.0</ele>
        <time>2020-09-29T08:45:13Z</time>
      </trkpt>
      <trkpt lat="40.7756120" lon="-3.5253470">
        <ele>656.0</ele>
        <time>2020-09-29T08:45:14Z</time>
      </trkpt>
      <trkpt lat="40.7756670" lon="-3.5254820">
        <ele>656.0</ele>
        <time>2020-09-29T08:45:15Z</time>
      </trkpt>
      <trkpt lat="40.7756950" lon="-3.5255480">
        <ele>656.0</ele>
        <time>2020-09-29T08:45:16Z</time>
      </trkpt>
      <trkpt lat="40.7756950" lon="-3.5255480">
        <ele>656.0</ele>
        <time>2020-09-29T08:45:17Z</time>
      </trkpt>
      <trkpt lat="40.7757520" lon="-3.5256850">
        <ele>656.0</ele>
        <time>2020-09-29T08:45:18Z</time>
      </trkpt>
      <trkpt lat="40.7757520" lon="-3.5256850">
        <ele>657.0</ele>
        <time>2020-09-29T08:45:19Z</time>
      </trkpt>
      <trkpt lat="40.7758130" lon="-3.5258220">
        <ele>657.0</ele>
        <time>2020-09-29T08:45:20Z</time>
      </trkpt>
      <trkpt lat="40.7758130" lon="-3.5258220">
        <ele>657.0</ele>
        <time>2020-09-29T08:45:21Z</time>
      </trkpt>
      <trkpt lat="40.7758780" lon="-3.5259570">
        <ele>657.0</ele>
        <time>2020-09-29T08:45:22Z</time>
      </trkpt>
      <trkpt lat="40.7759120" lon="-3.5260250">
        <ele>657.0</ele>
        <time>2020-09-29T08:45:23Z</time>
      </trkpt>
      <trkpt lat="40.7759120" lon="-3.5260250">
        <ele>657.0</ele>
        <time>2020-09-29T08:45:24Z</time>
      </trkpt>
      <trkpt lat="40.7759820" lon="-3.5261600">
        <ele>657.0</ele>
        <time>2020-09-29T08:45:25Z</time>
      </trkpt>
      <trkpt lat="40.7759820" lon="-3.5261600">
        <ele>657.0</ele>
        <time>2020-09-29T08:45:26Z</time>
      </trkpt>
      <trkpt lat="40.7760500" lon="-3.5262950">
        <ele>657.0</ele>
        <time>2020-09-29T08:45:27Z</time>
      </trkpt>
      <trkpt lat="40.7760500" lon="-3.5262950">
        <ele>657.0</ele>
        <time>2020-09-29T08:45:28Z</time>
      </trkpt>
      <trkpt lat="40.7761230" lon="-3.5264280">
        <ele>657.0</ele>
        <time>2020-09-29T08:45:29Z</time>
      </trkpt>
      <trkpt lat="40.7761230" lon="-3.5264280">
        <ele>657.0</ele>
        <time>2020-09-29T08:45:30Z</time>
      </trkpt>
      <trkpt lat="40.7762000" lon="-3.5265600">
        <ele>657.0</ele>
        <time>2020-09-29T08:45:31Z</time>
      </trkpt>
      <trkpt lat="40.7762380" lon="-3.5266270">
        <ele>657.0</ele>
        <time>2020-09-29T08:45:32Z</time>
      </trkpt>
      <trkpt lat="40.7762380" lon="-3.5266270">
        <ele>657.0</ele>
        <time>2020-09-29T08:45:33Z</time>
      </trkpt>
      <trkpt lat="40.7763200" lon="-3.5267550">
        <ele>657.0</ele>
        <time>2020-09-29T08:45:34Z</time>
      </trkpt>
      <trkpt lat="40.7763200" lon="-3.5267550">
        <ele>657.0</ele>
        <time>2020-09-29T08:45:35Z</time>
      </trkpt>
      <trkpt lat="40.7764020" lon="-3.5268830">
        <ele>657.0</ele>
        <time>2020-09-29T08:45:36Z</time>
      </trkpt>
      <trkpt lat="40.7764020" lon="-3.5268830">
        <ele>657.0</ele>
        <time>2020-09-29T08:45:37Z</time>
      </trkpt>
      <trkpt lat="40.7764880" lon="-3.5270120">
        <ele>657.0</ele>
        <time>2020-09-29T08:45:38Z</time>
      </trkpt>
      <trkpt lat="40.7765320" lon="-3.5270750">
        <ele>656.0</ele>
        <time>2020-09-29T08:45:39Z</time>
      </trkpt>
      <trkpt lat="40.7765320" lon="-3.5270750">
        <ele>656.0</ele>
        <time>2020-09-29T08:45:40Z</time>
      </trkpt>
      <trkpt lat="40.7766200" lon="-3.5272020">
        <ele>656.0</ele>
        <time>2020-09-29T08:45:41Z</time>
      </trkpt>
      <trkpt lat="40.7766200" lon="-3.5272020">
        <ele>656.0</ele>
        <time>2020-09-29T08:45:42Z</time>
      </trkpt>
      <trkpt lat="40.7767120" lon="-3.5273230">
        <ele>656.0</ele>
        <time>2020-09-29T08:45:43Z</time>
      </trkpt>
      <trkpt lat="40.7767120" lon="-3.5273230">
        <ele>656.0</ele>
        <time>2020-09-29T08:45:44Z</time>
      </trkpt>
      <trkpt lat="40.7768030" lon="-3.5274400">
        <ele>656.0</ele>
        <time>2020-09-29T08:45:45Z</time>
      </trkpt>
      <trkpt lat="40.7768030" lon="-3.5274400">
        <ele>656.0</ele>
        <time>2020-09-29T08:45:46Z</time>
      </trkpt>
      <trkpt lat="40.7768980" lon="-3.5275520">
        <ele>656.0</ele>
        <time>2020-09-29T08:45:47Z</time>
      </trkpt>
      <trkpt lat="40.7768980" lon="-3.5275520">
        <ele>656.0</ele>
        <time>2020-09-29T08:45:48Z</time>
      </trkpt>
      <trkpt lat="40.7769950" lon="-3.5276620">
        <ele>656.0</ele>
        <time>2020-09-29T08:45:49Z</time>
      </trkpt>
      <trkpt lat="40.7769950" lon="-3.5276620">
        <ele>656.0</ele>
        <time>2020-09-29T08:45:50Z</time>
      </trkpt>
      <trkpt lat="40.7770920" lon="-3.5277700">
        <ele>656.0</ele>
        <time>2020-09-29T08:45:51Z</time>
      </trkpt>
      <trkpt lat="40.7770920" lon="-3.5277700">
        <ele>656.0</ele>
        <time>2020-09-29T08:45:52Z</time>
      </trkpt>
      <trkpt lat="40.7771920" lon="-3.5278750">
        <ele>656.0</ele>
        <time>2020-09-29T08:45:53Z</time>
      </trkpt>
      <trkpt lat="40.7771920" lon="-3.5278750">
        <ele>656.0</ele>
        <time>2020-09-29T08:45:54Z</time>
      </trkpt>
      <trkpt lat="40.7772950" lon="-3.5279800">
        <ele>656.0</ele>
        <time>2020-09-29T08:45:55Z</time>
      </trkpt>
      <trkpt lat="40.7772950" lon="-3.5279800">
        <ele>656.0</ele>
        <time>2020-09-29T08:45:56Z</time>
      </trkpt>
      <trkpt lat="40.7774000" lon="-3.5280780">
        <ele>655.0</ele>
        <time>2020-09-29T08:45:57Z</time>
      </trkpt>
      <trkpt lat="40.7774000" lon="-3.5280780">
        <ele>655.0</ele>
        <time>2020-09-29T08:45:58Z</time>
      </trkpt>
      <trkpt lat="40.7775070" lon="-3.5281750">
        <ele>655.0</ele>
        <time>2020-09-29T08:45:59Z</time>
      </trkpt>
      <trkpt lat="40.7775070" lon="-3.5281750">
        <ele>655.0</ele>
        <time>2020-09-29T08:46:00Z</time>
      </trkpt>
      <trkpt lat="40.7776150" lon="-3.5282670">
        <ele>655.0</ele>
        <time>2020-09-29T08:46:01Z</time>
      </trkpt>
      <trkpt lat="40.7776150" lon="-3.5282670">
        <ele>656.0</ele>
        <time>2020-09-29T08:46:02Z</time>
      </trkpt>
      <trkpt lat="40.7777220" lon="-3.5283550">
        <ele>656.0</ele>
        <time>2020-09-29T08:46:03Z</time>
      </trkpt>
      <trkpt lat="40.7777220" lon="-3.5283550">
        <ele>656.0</ele>
        <time>2020-09-29T08:46:04Z</time>
      </trkpt>
      <trkpt lat="40.7778280" lon="-3.5284430">
        <ele>656.0</ele>
        <time>2020-09-29T08:46:05Z</time>
      </trkpt>
      <trkpt lat="40.7779370" lon="-3.5285250">
        <ele>656.0</ele>
        <time>2020-09-29T08:46:06Z</time>
      </trkpt>
      <trkpt lat="40.7779370" lon="-3.5285250">
        <ele>656.0</ele>
        <time>2020-09-29T08:46:07Z</time>
      </trkpt>
      <trkpt lat="40.7779370" lon="-3.5285250">
        <ele>657.0</ele>
        <time>2020-09-29T08:46:08Z</time>
      </trkpt>
      <trkpt lat="40.7780470" lon="-3.5286050">
        <ele>657.0</ele>
        <time>2020-09-29T08:46:09Z</time>
      </trkpt>
      <trkpt lat="40.7781020" lon="-3.5286450">
        <ele>657.0</ele>
        <time>2020-09-29T08:46:10Z</time>
      </trkpt>
      <trkpt lat="40.7781020" lon="-3.5286450">
        <ele>657.0</ele>
        <time>2020-09-29T08:46:11Z</time>
      </trkpt>
      <trkpt lat="40.7782130" lon="-3.5287170">
        <ele>657.0</ele>
        <time>2020-09-29T08:46:12Z</time>
      </trkpt>
      <trkpt lat="40.7782700" lon="-3.5287530">
        <ele>657.0</ele>
        <time>2020-09-29T08:46:13Z</time>
      </trkpt>
      <trkpt lat="40.7782700" lon="-3.5287530">
        <ele>657.0</ele>
        <time>2020-09-29T08:46:14Z</time>
      </trkpt>
      <trkpt lat="40.7783830" lon="-3.5288220">
        <ele>658.0</ele>
        <time>2020-09-29T08:46:15Z</time>
      </trkpt>
      <trkpt lat="40.7784400" lon="-3.5288550">
        <ele>658.0</ele>
        <time>2020-09-29T08:46:16Z</time>
      </trkpt>
      <trkpt lat="40.7784400" lon="-3.5288550">
        <ele>659.0</ele>
        <time>2020-09-29T08:46:17Z</time>
      </trkpt>
      <trkpt lat="40.7785530" lon="-3.5289180">
        <ele>659.0</ele>
        <time>2020-09-29T08:46:18Z</time>
      </trkpt>
      <trkpt lat="40.7785530" lon="-3.5289180">
        <ele>659.0</ele>
        <time>2020-09-29T08:46:19Z</time>
      </trkpt>
      <trkpt lat="40.7786680" lon="-3.5289780">
        <ele>659.0</ele>
        <time>2020-09-29T08:46:20Z</time>
      </trkpt>
      <trkpt lat="40.7787250" lon="-3.5290080">
        <ele>659.0</ele>
        <time>2020-09-29T08:46:21Z</time>
      </trkpt>
      <trkpt lat="40.7787250" lon="-3.5290080">
        <ele>659.0</ele>
        <time>2020-09-29T08:46:22Z</time>
      </trkpt>
      <trkpt lat="40.7788420" lon="-3.5290630">
        <ele>659.0</ele>
        <time>2020-09-29T08:46:23Z</time>
      </trkpt>
      <trkpt lat="40.7789020" lon="-3.5290880">
        <ele>659.0</ele>
        <time>2020-09-29T08:46:24Z</time>
      </trkpt>
      <trkpt lat="40.7789020" lon="-3.5290880">
        <ele>659.0</ele>
        <time>2020-09-29T08:46:25Z</time>
      </trkpt>
      <trkpt lat="40.7790220" lon="-3.5291380">
        <ele>659.0</ele>
        <time>2020-09-29T08:46:26Z</time>
      </trkpt>
      <trkpt lat="40.7790220" lon="-3.5291380">
        <ele>660.0</ele>
        <time>2020-09-29T08:46:27Z</time>
      </trkpt>
      <trkpt lat="40.7791400" lon="-3.5291850">
        <ele>660.0</ele>
        <time>2020-09-29T08:46:28Z</time>
      </trkpt>
      <trkpt lat="40.7791400" lon="-3.5291850">
        <ele>660.0</ele>
        <time>2020-09-29T08:46:29Z</time>
      </trkpt>
      <trkpt lat="40.7792580" lon="-3.5292280">
        <ele>660.0</ele>
        <time>2020-09-29T08:46:30Z</time>
      </trkpt>
      <trkpt lat="40.7792580" lon="-3.5292280">
        <ele>660.0</ele>
        <time>2020-09-29T08:46:31Z</time>
      </trkpt>
      <trkpt lat="40.7793750" lon="-3.5292750">
        <ele>660.0</ele>
        <time>2020-09-29T08:46:32Z</time>
      </trkpt>
      <trkpt lat="40.7793750" lon="-3.5292750">
        <ele>660.0</ele>
        <time>2020-09-29T08:46:33Z</time>
      </trkpt>
      <trkpt lat="40.7794930" lon="-3.5293170">
        <ele>661.0</ele>
        <time>2020-09-29T08:46:34Z</time>
      </trkpt>
      <trkpt lat="40.7794930" lon="-3.5293170">
        <ele>661.0</ele>
        <time>2020-09-29T08:46:35Z</time>
      </trkpt>
      <trkpt lat="40.7796120" lon="-3.5293570">
        <ele>661.0</ele>
        <time>2020-09-29T08:46:36Z</time>
      </trkpt>
      <trkpt lat="40.7796120" lon="-3.5293570">
        <ele>661.0</ele>
        <time>2020-09-29T08:46:37Z</time>
      </trkpt>
      <trkpt lat="40.7797280" lon="-3.5293980">
        <ele>661.0</ele>
        <time>2020-09-29T08:46:38Z</time>
      </trkpt>
      <trkpt lat="40.7797280" lon="-3.5293980">
        <ele>661.0</ele>
        <time>2020-09-29T08:46:39Z</time>
      </trkpt>
      <trkpt lat="40.7798450" lon="-3.5294450">
        <ele>661.0</ele>
        <time>2020-09-29T08:46:40Z</time>
      </trkpt>
      <trkpt lat="40.7798450" lon="-3.5294450">
        <ele>661.0</ele>
        <time>2020-09-29T08:46:41Z</time>
      </trkpt>
      <trkpt lat="40.7799600" lon="-3.5294870">
        <ele>661.0</ele>
        <time>2020-09-29T08:46:42Z</time>
      </trkpt>
      <trkpt lat="40.7800180" lon="-3.5295070">
        <ele>661.0</ele>
        <time>2020-09-29T08:46:43Z</time>
      </trkpt>
      <trkpt lat="40.7800180" lon="-3.5295070">
        <ele>661.0</ele>
        <time>2020-09-29T08:46:44Z</time>
      </trkpt>
      <trkpt lat="40.7801330" lon="-3.5295450">
        <ele>661.0</ele>
        <time>2020-09-29T08:46:45Z</time>
      </trkpt>
      <trkpt lat="40.7801330" lon="-3.5295450">
        <ele>662.0</ele>
        <time>2020-09-29T08:46:46Z</time>
      </trkpt>
      <trkpt lat="40.7802450" lon="-3.5295800">
        <ele>662.0</ele>
        <time>2020-09-29T08:46:47Z</time>
      </trkpt>
      <trkpt lat="40.7802450" lon="-3.5295800">
        <ele>662.0</ele>
        <time>2020-09-29T08:46:48Z</time>
      </trkpt>
      <trkpt lat="40.7803570" lon="-3.5296180">
        <ele>662.0</ele>
        <time>2020-09-29T08:46:49Z</time>
      </trkpt>
      <trkpt lat="40.7803570" lon="-3.5296180">
        <ele>662.0</ele>
        <time>2020-09-29T08:46:50Z</time>
      </trkpt>
      <trkpt lat="40.7804680" lon="-3.5296570">
        <ele>662.0</ele>
        <time>2020-09-29T08:46:51Z</time>
      </trkpt>
      <trkpt lat="40.7804680" lon="-3.5296570">
        <ele>662.0</ele>
        <time>2020-09-29T08:46:52Z</time>
      </trkpt>
      <trkpt lat="40.7805750" lon="-3.5296950">
        <ele>662.0</ele>
        <time>2020-09-29T08:46:53Z</time>
      </trkpt>
      <trkpt lat="40.7806280" lon="-3.5297150">
        <ele>662.0</ele>
        <time>2020-09-29T08:46:54Z</time>
      </trkpt>
      <trkpt lat="40.7806820" lon="-3.5297330">
        <ele>663.0</ele>
        <time>2020-09-29T08:46:55Z</time>
      </trkpt>
      <trkpt lat="40.7806820" lon="-3.5297330">
        <ele>663.0</ele>
        <time>2020-09-29T08:46:56Z</time>
      </trkpt>
      <trkpt lat="40.7807880" lon="-3.5297700">
        <ele>663.0</ele>
        <time>2020-09-29T08:46:57Z</time>
      </trkpt>
      <trkpt lat="40.7807880" lon="-3.5297700">
        <ele>663.0</ele>
        <time>2020-09-29T08:46:58Z</time>
      </trkpt>
      <trkpt lat="40.7808900" lon="-3.5298080">
        <ele>663.0</ele>
        <time>2020-09-29T08:46:59Z</time>
      </trkpt>
      <trkpt lat="40.7809420" lon="-3.5298280">
        <ele>663.0</ele>
        <time>2020-09-29T08:47:00Z</time>
      </trkpt>
      <trkpt lat="40.7809420" lon="-3.5298280">
        <ele>664.0</ele>
        <time>2020-09-29T08:47:01Z</time>
      </trkpt>
      <trkpt lat="40.7810430" lon="-3.5298670">
        <ele>664.0</ele>
        <time>2020-09-29T08:47:02Z</time>
      </trkpt>
      <trkpt lat="40.7810950" lon="-3.5298850">
        <ele>664.0</ele>
        <time>2020-09-29T08:47:03Z</time>
      </trkpt>
      <trkpt lat="40.7810950" lon="-3.5298850">
        <ele>664.0</ele>
        <time>2020-09-29T08:47:04Z</time>
      </trkpt>
      <trkpt lat="40.7812020" lon="-3.5299220">
        <ele>664.0</ele>
        <time>2020-09-29T08:47:05Z</time>
      </trkpt>
      <trkpt lat="40.7812020" lon="-3.5299220">
        <ele>664.0</ele>
        <time>2020-09-29T08:47:06Z</time>
      </trkpt>
      <trkpt lat="40.7813050" lon="-3.5299550">
        <ele>664.0</ele>
        <time>2020-09-29T08:47:07Z</time>
      </trkpt>
      <trkpt lat="40.7813050" lon="-3.5299550">
        <ele>664.0</ele>
        <time>2020-09-29T08:47:08Z</time>
      </trkpt>
      <trkpt lat="40.7814120" lon="-3.5299880">
        <ele>664.0</ele>
        <time>2020-09-29T08:47:09Z</time>
      </trkpt>
      <trkpt lat="40.7814600" lon="-3.5300100">
        <ele>664.0</ele>
        <time>2020-09-29T08:47:10Z</time>
      </trkpt>
      <trkpt lat="40.7815100" lon="-3.5300320">
        <ele>664.0</ele>
        <time>2020-09-29T08:47:11Z</time>
      </trkpt>
      <trkpt lat="40.7815100" lon="-3.5300320">
        <ele>664.0</ele>
        <time>2020-09-29T08:47:12Z</time>
      </trkpt>
      <trkpt lat="40.7816020" lon="-3.5300670">
        <ele>664.0</ele>
        <time>2020-09-29T08:47:13Z</time>
      </trkpt>
      <trkpt lat="40.7816020" lon="-3.5300670">
        <ele>664.0</ele>
        <time>2020-09-29T08:47:14Z</time>
      </trkpt>
      <trkpt lat="40.7816900" lon="-3.5300970">
        <ele>664.0</ele>
        <time>2020-09-29T08:47:15Z</time>
      </trkpt>
      <trkpt lat="40.7817280" lon="-3.5301080">
        <ele>664.0</ele>
        <time>2020-09-29T08:47:16Z</time>
      </trkpt>
      <trkpt lat="40.7817280" lon="-3.5301080">
        <ele>664.0</ele>
        <time>2020-09-29T08:47:17Z</time>
      </trkpt>
      <trkpt lat="40.7817950" lon="-3.5301330">
        <ele>664.0</ele>
        <time>2020-09-29T08:47:18Z</time>
      </trkpt>
      <trkpt lat="40.7818150" lon="-3.5301450">
        <ele>664.0</ele>
        <time>2020-09-29T08:47:19Z</time>
      </trkpt>
      <trkpt lat="40.7818150" lon="-3.5301450">
        <ele>664.0</ele>
        <time>2020-09-29T08:47:20Z</time>
      </trkpt>
      <trkpt lat="40.7818330" lon="-3.5301570">
        <ele>664.0</ele>
        <time>2020-09-29T08:47:21Z</time>
      </trkpt>
      <trkpt lat="40.7818330" lon="-3.5301570">
        <ele>664.0</ele>
        <time>2020-09-29T08:47:22Z</time>
      </trkpt>
      <trkpt lat="40.7818350" lon="-3.5301580">
        <ele>664.0</ele>
        <time>2020-09-29T08:47:54Z</time>
      </trkpt>
      <trkpt lat="40.7818350" lon="-3.5301580">
        <ele>664.0</ele>
        <time>2020-09-29T08:47:55Z</time>
      </trkpt>
      <trkpt lat="40.7819420" lon="-3.5302000">
        <ele>664.0</ele>
        <time>2020-09-29T08:47:56Z</time>
      </trkpt>
      <trkpt lat="40.7819420" lon="-3.5302000">
        <ele>664.0</ele>
        <time>2020-09-29T08:47:57Z</time>
      </trkpt>
      <trkpt lat="40.7820320" lon="-3.5302150">
        <ele>664.0</ele>
        <time>2020-09-29T08:47:58Z</time>
      </trkpt>
      <trkpt lat="40.7820830" lon="-3.5302270">
        <ele>664.0</ele>
        <time>2020-09-29T08:47:59Z</time>
      </trkpt>
      <trkpt lat="40.7820830" lon="-3.5302270">
        <ele>665.0</ele>
        <time>2020-09-29T08:48:00Z</time>
      </trkpt>
      <trkpt lat="40.7821950" lon="-3.5302580">
        <ele>665.0</ele>
        <time>2020-09-29T08:48:01Z</time>
      </trkpt>
      <trkpt lat="40.7821950" lon="-3.5302580">
        <ele>665.0</ele>
        <time>2020-09-29T08:48:02Z</time>
      </trkpt>
      <trkpt lat="40.7823150" lon="-3.5302970">
        <ele>665.0</ele>
        <time>2020-09-29T08:48:03Z</time>
      </trkpt>
      <trkpt lat="40.7823150" lon="-3.5302970">
        <ele>665.0</ele>
        <time>2020-09-29T08:48:04Z</time>
      </trkpt>
      <trkpt lat="40.7824350" lon="-3.5303400">
        <ele>665.0</ele>
        <time>2020-09-29T08:48:05Z</time>
      </trkpt>
      <trkpt lat="40.7824350" lon="-3.5303400">
        <ele>665.0</ele>
        <time>2020-09-29T08:48:06Z</time>
      </trkpt>
      <trkpt lat="40.7825600" lon="-3.5303800">
        <ele>665.0</ele>
        <time>2020-09-29T08:48:07Z</time>
      </trkpt>
      <trkpt lat="40.7826220" lon="-3.5304020">
        <ele>666.0</ele>
        <time>2020-09-29T08:48:08Z</time>
      </trkpt>
      <trkpt lat="40.7826220" lon="-3.5304020">
        <ele>666.0</ele>
        <time>2020-09-29T08:48:09Z</time>
      </trkpt>
      <trkpt lat="40.7827480" lon="-3.5304470">
        <ele>666.0</ele>
        <time>2020-09-29T08:48:10Z</time>
      </trkpt>
      <trkpt lat="40.7827480" lon="-3.5304470">
        <ele>666.0</ele>
        <time>2020-09-29T08:48:11Z</time>
      </trkpt>
      <trkpt lat="40.7828720" lon="-3.5304880">
        <ele>666.0</ele>
        <time>2020-09-29T08:48:12Z</time>
      </trkpt>
      <trkpt lat="40.7829330" lon="-3.5305100">
        <ele>666.0</ele>
        <time>2020-09-29T08:48:13Z</time>
      </trkpt>
      <trkpt lat="40.7829330" lon="-3.5305100">
        <ele>666.0</ele>
        <time>2020-09-29T08:48:14Z</time>
      </trkpt>
      <trkpt lat="40.7830570" lon="-3.5305520">
        <ele>666.0</ele>
        <time>2020-09-29T08:48:15Z</time>
      </trkpt>
      <trkpt lat="40.7830570" lon="-3.5305520">
        <ele>666.0</ele>
        <time>2020-09-29T08:48:16Z</time>
      </trkpt>
      <trkpt lat="40.7831820" lon="-3.5305930">
        <ele>666.0</ele>
        <time>2020-09-29T08:48:17Z</time>
      </trkpt>
      <trkpt lat="40.7831820" lon="-3.5305930">
        <ele>666.0</ele>
        <time>2020-09-29T08:48:18Z</time>
      </trkpt>
      <trkpt lat="40.7833050" lon="-3.5306350">
        <ele>666.0</ele>
        <time>2020-09-29T08:48:19Z</time>
      </trkpt>
      <trkpt lat="40.7833050" lon="-3.5306350">
        <ele>666.0</ele>
        <time>2020-09-29T08:48:20Z</time>
      </trkpt>
      <trkpt lat="40.7834280" lon="-3.5306780">
        <ele>666.0</ele>
        <time>2020-09-29T08:48:21Z</time>
      </trkpt>
      <trkpt lat="40.7834280" lon="-3.5306780">
        <ele>666.0</ele>
        <time>2020-09-29T08:48:22Z</time>
      </trkpt>
      <trkpt lat="40.7835520" lon="-3.5307230">
        <ele>666.0</ele>
        <time>2020-09-29T08:48:23Z</time>
      </trkpt>
      <trkpt lat="40.7835520" lon="-3.5307230">
        <ele>666.0</ele>
        <time>2020-09-29T08:48:24Z</time>
      </trkpt>
      <trkpt lat="40.7836780" lon="-3.5307670">
        <ele>666.0</ele>
        <time>2020-09-29T08:48:25Z</time>
      </trkpt>
      <trkpt lat="40.7837400" lon="-3.5307880">
        <ele>667.0</ele>
        <time>2020-09-29T08:48:26Z</time>
      </trkpt>
      <trkpt lat="40.7837400" lon="-3.5307880">
        <ele>667.0</ele>
        <time>2020-09-29T08:48:27Z</time>
      </trkpt>
      <trkpt lat="40.7838650" lon="-3.5308320">
        <ele>667.0</ele>
        <time>2020-09-29T08:48:28Z</time>
      </trkpt>
      <trkpt lat="40.7838650" lon="-3.5308320">
        <ele>667.0</ele>
        <time>2020-09-29T08:48:29Z</time>
      </trkpt>
      <trkpt lat="40.7839900" lon="-3.5308770">
        <ele>667.0</ele>
        <time>2020-09-29T08:48:30Z</time>
      </trkpt>
      <trkpt lat="40.7839900" lon="-3.5308770">
        <ele>667.0</ele>
        <time>2020-09-29T08:48:31Z</time>
      </trkpt>
      <trkpt lat="40.7841150" lon="-3.5309220">
        <ele>667.0</ele>
        <time>2020-09-29T08:48:32Z</time>
      </trkpt>
      <trkpt lat="40.7841150" lon="-3.5309220">
        <ele>667.0</ele>
        <time>2020-09-29T08:48:33Z</time>
      </trkpt>
      <trkpt lat="40.7842420" lon="-3.5309650">
        <ele>667.0</ele>
        <time>2020-09-29T08:48:34Z</time>
      </trkpt>
      <trkpt lat="40.7842420" lon="-3.5309650">
        <ele>667.0</ele>
        <time>2020-09-29T08:48:35Z</time>
      </trkpt>
      <trkpt lat="40.7843700" lon="-3.5310100">
        <ele>667.0</ele>
        <time>2020-09-29T08:48:36Z</time>
      </trkpt>
      <trkpt lat="40.7843700" lon="-3.5310100">
        <ele>667.0</ele>
        <time>2020-09-29T08:48:37Z</time>
      </trkpt>
      <trkpt lat="40.7844970" lon="-3.5310530">
        <ele>667.0</ele>
        <time>2020-09-29T08:48:38Z</time>
      </trkpt>
      <trkpt lat="40.7844970" lon="-3.5310530">
        <ele>667.0</ele>
        <time>2020-09-29T08:48:39Z</time>
      </trkpt>
      <trkpt lat="40.7846230" lon="-3.5310950">
        <ele>667.0</ele>
        <time>2020-09-29T08:48:40Z</time>
      </trkpt>
      <trkpt lat="40.7846230" lon="-3.5310950">
        <ele>667.0</ele>
        <time>2020-09-29T08:48:41Z</time>
      </trkpt>
      <trkpt lat="40.7847470" lon="-3.5311400">
        <ele>667.0</ele>
        <time>2020-09-29T08:48:42Z</time>
      </trkpt>
      <trkpt lat="40.7847470" lon="-3.5311400">
        <ele>667.0</ele>
        <time>2020-09-29T08:48:43Z</time>
      </trkpt>
      <trkpt lat="40.7848680" lon="-3.5311870">
        <ele>667.0</ele>
        <time>2020-09-29T08:48:44Z</time>
      </trkpt>
      <trkpt lat="40.7849280" lon="-3.5312100">
        <ele>667.0</ele>
        <time>2020-09-29T08:48:45Z</time>
      </trkpt>
      <trkpt lat="40.7849280" lon="-3.5312100">
        <ele>667.0</ele>
        <time>2020-09-29T08:48:46Z</time>
      </trkpt>
      <trkpt lat="40.7850520" lon="-3.5312520">
        <ele>667.0</ele>
        <time>2020-09-29T08:48:47Z</time>
      </trkpt>
      <trkpt lat="40.7851130" lon="-3.5312730">
        <ele>668.0</ele>
        <time>2020-09-29T08:48:48Z</time>
      </trkpt>
      <trkpt lat="40.7851130" lon="-3.5312730">
        <ele>668.0</ele>
        <time>2020-09-29T08:48:49Z</time>
      </trkpt>
      <trkpt lat="40.7852380" lon="-3.5313170">
        <ele>668.0</ele>
        <time>2020-09-29T08:48:50Z</time>
      </trkpt>
      <trkpt lat="40.7853000" lon="-3.5313370">
        <ele>668.0</ele>
        <time>2020-09-29T08:48:51Z</time>
      </trkpt>
      <trkpt lat="40.7853000" lon="-3.5313370">
        <ele>668.0</ele>
        <time>2020-09-29T08:48:52Z</time>
      </trkpt>
      <trkpt lat="40.7854230" lon="-3.5313820">
        <ele>668.0</ele>
        <time>2020-09-29T08:48:53Z</time>
      </trkpt>
      <trkpt lat="40.7854230" lon="-3.5313820">
        <ele>668.0</ele>
        <time>2020-09-29T08:48:54Z</time>
      </trkpt>
      <trkpt lat="40.7855470" lon="-3.5314270">
        <ele>668.0</ele>
        <time>2020-09-29T08:48:55Z</time>
      </trkpt>
      <trkpt lat="40.7855470" lon="-3.5314270">
        <ele>668.0</ele>
        <time>2020-09-29T08:48:56Z</time>
      </trkpt>
      <trkpt lat="40.7856720" lon="-3.5314700">
        <ele>668.0</ele>
        <time>2020-09-29T08:48:57Z</time>
      </trkpt>
      <trkpt lat="40.7857330" lon="-3.5314930">
        <ele>669.0</ele>
        <time>2020-09-29T08:48:58Z</time>
      </trkpt>
      <trkpt lat="40.7857330" lon="-3.5314930">
        <ele>669.0</ele>
        <time>2020-09-29T08:48:59Z</time>
      </trkpt>
      <trkpt lat="40.7858570" lon="-3.5315370">
        <ele>669.0</ele>
        <time>2020-09-29T08:49:00Z</time>
      </trkpt>
      <trkpt lat="40.7859170" lon="-3.5315580">
        <ele>669.0</ele>
        <time>2020-09-29T08:49:01Z</time>
      </trkpt>
      <trkpt lat="40.7859780" lon="-3.5315800">
        <ele>669.0</ele>
        <time>2020-09-29T08:49:02Z</time>
      </trkpt>
      <trkpt lat="40.7859780" lon="-3.5315800">
        <ele>669.0</ele>
        <time>2020-09-29T08:49:03Z</time>
      </trkpt>
      <trkpt lat="40.7861050" lon="-3.5316230">
        <ele>670.0</ele>
        <time>2020-09-29T08:49:04Z</time>
      </trkpt>
      <trkpt lat="40.7861700" lon="-3.5316450">
        <ele>670.0</ele>
        <time>2020-09-29T08:49:05Z</time>
      </trkpt>
      <trkpt lat="40.7861700" lon="-3.5316450">
        <ele>670.0</ele>
        <time>2020-09-29T08:49:06Z</time>
      </trkpt>
      <trkpt lat="40.7862980" lon="-3.5316880">
        <ele>670.0</ele>
        <time>2020-09-29T08:49:07Z</time>
      </trkpt>
      <trkpt lat="40.7862980" lon="-3.5316880">
        <ele>670.0</ele>
        <time>2020-09-29T08:49:08Z</time>
      </trkpt>
      <trkpt lat="40.7864250" lon="-3.5317320">
        <ele>670.0</ele>
        <time>2020-09-29T08:49:09Z</time>
      </trkpt>
      <trkpt lat="40.7864250" lon="-3.5317320">
        <ele>670.0</ele>
        <time>2020-09-29T08:49:10Z</time>
      </trkpt>
      <trkpt lat="40.7865520" lon="-3.5317770">
        <ele>670.0</ele>
        <time>2020-09-29T08:49:11Z</time>
      </trkpt>
      <trkpt lat="40.7866130" lon="-3.5317980">
        <ele>670.0</ele>
        <time>2020-09-29T08:49:12Z</time>
      </trkpt>
      <trkpt lat="40.7866130" lon="-3.5317980">
        <ele>670.0</ele>
        <time>2020-09-29T08:49:13Z</time>
      </trkpt>
      <trkpt lat="40.7867380" lon="-3.5318430">
        <ele>670.0</ele>
        <time>2020-09-29T08:49:14Z</time>
      </trkpt>
      <trkpt lat="40.7867380" lon="-3.5318430">
        <ele>670.0</ele>
        <time>2020-09-29T08:49:15Z</time>
      </trkpt>
      <trkpt lat="40.7868670" lon="-3.5318880">
        <ele>670.0</ele>
        <time>2020-09-29T08:49:16Z</time>
      </trkpt>
      <trkpt lat="40.7869280" lon="-3.5319130">
        <ele>670.0</ele>
        <time>2020-09-29T08:49:17Z</time>
      </trkpt>
      <trkpt lat="40.7869280" lon="-3.5319130">
        <ele>670.0</ele>
        <time>2020-09-29T08:49:18Z</time>
      </trkpt>
      <trkpt lat="40.7870500" lon="-3.5319570">
        <ele>670.0</ele>
        <time>2020-09-29T08:49:19Z</time>
      </trkpt>
      <trkpt lat="40.7870500" lon="-3.5319570">
        <ele>670.0</ele>
        <time>2020-09-29T08:49:20Z</time>
      </trkpt>
      <trkpt lat="40.7871730" lon="-3.5319980">
        <ele>670.0</ele>
        <time>2020-09-29T08:49:21Z</time>
      </trkpt>
      <trkpt lat="40.7871730" lon="-3.5319980">
        <ele>670.0</ele>
        <time>2020-09-29T08:49:22Z</time>
      </trkpt>
      <trkpt lat="40.7872930" lon="-3.5320420">
        <ele>671.0</ele>
        <time>2020-09-29T08:49:23Z</time>
      </trkpt>
      <trkpt lat="40.7873530" lon="-3.5320630">
        <ele>671.0</ele>
        <time>2020-09-29T08:49:24Z</time>
      </trkpt>
      <trkpt lat="40.7873530" lon="-3.5320630">
        <ele>671.0</ele>
        <time>2020-09-29T08:49:25Z</time>
      </trkpt>
      <trkpt lat="40.7874720" lon="-3.5321000">
        <ele>671.0</ele>
        <time>2020-09-29T08:49:26Z</time>
      </trkpt>
      <trkpt lat="40.7874720" lon="-3.5321000">
        <ele>671.0</ele>
        <time>2020-09-29T08:49:27Z</time>
      </trkpt>
      <trkpt lat="40.7875900" lon="-3.5321430">
        <ele>671.0</ele>
        <time>2020-09-29T08:49:28Z</time>
      </trkpt>
      <trkpt lat="40.7875900" lon="-3.5321430">
        <ele>671.0</ele>
        <time>2020-09-29T08:49:29Z</time>
      </trkpt>
      <trkpt lat="40.7877080" lon="-3.5321850">
        <ele>671.0</ele>
        <time>2020-09-29T08:49:30Z</time>
      </trkpt>
      <trkpt lat="40.7877080" lon="-3.5321850">
        <ele>671.0</ele>
        <time>2020-09-29T08:49:31Z</time>
      </trkpt>
      <trkpt lat="40.7878230" lon="-3.5322280">
        <ele>671.0</ele>
        <time>2020-09-29T08:49:32Z</time>
      </trkpt>
      <trkpt lat="40.7878230" lon="-3.5322280">
        <ele>671.0</ele>
        <time>2020-09-29T08:49:33Z</time>
      </trkpt>
      <trkpt lat="40.7879470" lon="-3.5322730">
        <ele>671.0</ele>
        <time>2020-09-29T08:49:34Z</time>
      </trkpt>
      <trkpt lat="40.7880070" lon="-3.5322950">
        <ele>671.0</ele>
        <time>2020-09-29T08:49:35Z</time>
      </trkpt>
      <trkpt lat="40.7880070" lon="-3.5322950">
        <ele>671.0</ele>
        <time>2020-09-29T08:49:36Z</time>
      </trkpt>
      <trkpt lat="40.7881300" lon="-3.5323330">
        <ele>671.0</ele>
        <time>2020-09-29T08:49:37Z</time>
      </trkpt>
      <trkpt lat="40.7881300" lon="-3.5323330">
        <ele>671.0</ele>
        <time>2020-09-29T08:49:38Z</time>
      </trkpt>
      <trkpt lat="40.7882550" lon="-3.5323800">
        <ele>671.0</ele>
        <time>2020-09-29T08:49:39Z</time>
      </trkpt>
      <trkpt lat="40.7882550" lon="-3.5323800">
        <ele>671.0</ele>
        <time>2020-09-29T08:49:40Z</time>
      </trkpt>
      <trkpt lat="40.7883830" lon="-3.5324270">
        <ele>672.0</ele>
        <time>2020-09-29T08:49:41Z</time>
      </trkpt>
      <trkpt lat="40.7883830" lon="-3.5324270">
        <ele>672.0</ele>
        <time>2020-09-29T08:49:42Z</time>
      </trkpt>
      <trkpt lat="40.7885130" lon="-3.5324730">
        <ele>672.0</ele>
        <time>2020-09-29T08:49:43Z</time>
      </trkpt>
      <trkpt lat="40.7885130" lon="-3.5324730">
        <ele>672.0</ele>
        <time>2020-09-29T08:49:44Z</time>
      </trkpt>
      <trkpt lat="40.7886420" lon="-3.5325320">
        <ele>672.0</ele>
        <time>2020-09-29T08:49:45Z</time>
      </trkpt>
      <trkpt lat="40.7887020" lon="-3.5325600">
        <ele>672.0</ele>
        <time>2020-09-29T08:49:46Z</time>
      </trkpt>
      <trkpt lat="40.7887020" lon="-3.5325600">
        <ele>672.0</ele>
        <time>2020-09-29T08:49:47Z</time>
      </trkpt>
      <trkpt lat="40.7888230" lon="-3.5326270">
        <ele>672.0</ele>
        <time>2020-09-29T08:49:48Z</time>
      </trkpt>
      <trkpt lat="40.7888850" lon="-3.5326600">
        <ele>672.0</ele>
        <time>2020-09-29T08:49:49Z</time>
      </trkpt>
      <trkpt lat="40.7889450" lon="-3.5326970">
        <ele>672.0</ele>
        <time>2020-09-29T08:49:50Z</time>
      </trkpt>
      <trkpt lat="40.7890050" lon="-3.5327330">
        <ele>672.0</ele>
        <time>2020-09-29T08:49:51Z</time>
      </trkpt>
      <trkpt lat="40.7890050" lon="-3.5327330">
        <ele>672.0</ele>
        <time>2020-09-29T08:49:52Z</time>
      </trkpt>
      <trkpt lat="40.7891200" lon="-3.5328120">
        <ele>672.0</ele>
        <time>2020-09-29T08:49:53Z</time>
      </trkpt>
      <trkpt lat="40.7891770" lon="-3.5328520">
        <ele>672.0</ele>
        <time>2020-09-29T08:49:54Z</time>
      </trkpt>
      <trkpt lat="40.7891770" lon="-3.5328520">
        <ele>672.0</ele>
        <time>2020-09-29T08:49:55Z</time>
      </trkpt>
      <trkpt lat="40.7892950" lon="-3.5329370">
        <ele>672.0</ele>
        <time>2020-09-29T08:49:56Z</time>
      </trkpt>
      <trkpt lat="40.7893520" lon="-3.5329800">
        <ele>672.0</ele>
        <time>2020-09-29T08:49:57Z</time>
      </trkpt>
      <trkpt lat="40.7893520" lon="-3.5329800">
        <ele>672.0</ele>
        <time>2020-09-29T08:49:58Z</time>
      </trkpt>
      <trkpt lat="40.7894700" lon="-3.5330650">
        <ele>672.0</ele>
        <time>2020-09-29T08:49:59Z</time>
      </trkpt>
      <trkpt lat="40.7894700" lon="-3.5330650">
        <ele>672.0</ele>
        <time>2020-09-29T08:50:00Z</time>
      </trkpt>
      <trkpt lat="40.7895900" lon="-3.5331470">
        <ele>672.0</ele>
        <time>2020-09-29T08:50:01Z</time>
      </trkpt>
      <trkpt lat="40.7896530" lon="-3.5331850">
        <ele>672.0</ele>
        <time>2020-09-29T08:50:02Z</time>
      </trkpt>
      <trkpt lat="40.7896530" lon="-3.5331850">
        <ele>672.0</ele>
        <time>2020-09-29T08:50:03Z</time>
      </trkpt>
      <trkpt lat="40.7897780" lon="-3.5332620">
        <ele>672.0</ele>
        <time>2020-09-29T08:50:04Z</time>
      </trkpt>
      <trkpt lat="40.7898430" lon="-3.5332970">
        <ele>672.0</ele>
        <time>2020-09-29T08:50:05Z</time>
      </trkpt>
      <trkpt lat="40.7898430" lon="-3.5332970">
        <ele>672.0</ele>
        <time>2020-09-29T08:50:06Z</time>
      </trkpt>
      <trkpt lat="40.7899730" lon="-3.5333600">
        <ele>672.0</ele>
        <time>2020-09-29T08:50:07Z</time>
      </trkpt>
      <trkpt lat="40.7899730" lon="-3.5333600">
        <ele>672.0</ele>
        <time>2020-09-29T08:50:08Z</time>
      </trkpt>
      <trkpt lat="40.7901030" lon="-3.5334180">
        <ele>672.0</ele>
        <time>2020-09-29T08:50:09Z</time>
      </trkpt>
      <trkpt lat="40.7901030" lon="-3.5334180">
        <ele>672.0</ele>
        <time>2020-09-29T08:50:10Z</time>
      </trkpt>
      <trkpt lat="40.7902350" lon="-3.5334680">
        <ele>672.0</ele>
        <time>2020-09-29T08:50:11Z</time>
      </trkpt>
      <trkpt lat="40.7902350" lon="-3.5334680">
        <ele>672.0</ele>
        <time>2020-09-29T08:50:12Z</time>
      </trkpt>
      <trkpt lat="40.7903720" lon="-3.5335180">
        <ele>672.0</ele>
        <time>2020-09-29T08:50:13Z</time>
      </trkpt>
      <trkpt lat="40.7903720" lon="-3.5335180">
        <ele>672.0</ele>
        <time>2020-09-29T08:50:14Z</time>
      </trkpt>
      <trkpt lat="40.7905080" lon="-3.5335650">
        <ele>672.0</ele>
        <time>2020-09-29T08:50:15Z</time>
      </trkpt>
      <trkpt lat="40.7905080" lon="-3.5335650">
        <ele>672.0</ele>
        <time>2020-09-29T08:50:16Z</time>
      </trkpt>
      <trkpt lat="40.7906420" lon="-3.5336100">
        <ele>672.0</ele>
        <time>2020-09-29T08:50:17Z</time>
      </trkpt>
      <trkpt lat="40.7906420" lon="-3.5336100">
        <ele>672.0</ele>
        <time>2020-09-29T08:50:18Z</time>
      </trkpt>
      <trkpt lat="40.7907770" lon="-3.5336530">
        <ele>672.0</ele>
        <time>2020-09-29T08:50:19Z</time>
      </trkpt>
      <trkpt lat="40.7908400" lon="-3.5336770">
        <ele>672.0</ele>
        <time>2020-09-29T08:50:20Z</time>
      </trkpt>
      <trkpt lat="40.7908400" lon="-3.5336770">
        <ele>672.0</ele>
        <time>2020-09-29T08:50:21Z</time>
      </trkpt>
      <trkpt lat="40.7909700" lon="-3.5337200">
        <ele>672.0</ele>
        <time>2020-09-29T08:50:22Z</time>
      </trkpt>
      <trkpt lat="40.7910350" lon="-3.5337430">
        <ele>672.0</ele>
        <time>2020-09-29T08:50:23Z</time>
      </trkpt>
      <trkpt lat="40.7910350" lon="-3.5337430">
        <ele>672.0</ele>
        <time>2020-09-29T08:50:24Z</time>
      </trkpt>
      <trkpt lat="40.7911670" lon="-3.5337870">
        <ele>672.0</ele>
        <time>2020-09-29T08:50:25Z</time>
      </trkpt>
      <trkpt lat="40.7912280" lon="-3.5338120">
        <ele>672.0</ele>
        <time>2020-09-29T08:50:26Z</time>
      </trkpt>
      <trkpt lat="40.7912280" lon="-3.5338120">
        <ele>672.0</ele>
        <time>2020-09-29T08:50:27Z</time>
      </trkpt>
      <trkpt lat="40.7913570" lon="-3.5338630">
        <ele>672.0</ele>
        <time>2020-09-29T08:50:28Z</time>
      </trkpt>
      <trkpt lat="40.7914200" lon="-3.5338850">
        <ele>672.0</ele>
        <time>2020-09-29T08:50:29Z</time>
      </trkpt>
      <trkpt lat="40.7914200" lon="-3.5338850">
        <ele>672.0</ele>
        <time>2020-09-29T08:50:30Z</time>
      </trkpt>
      <trkpt lat="40.7915530" lon="-3.5339280">
        <ele>672.0</ele>
        <time>2020-09-29T08:50:31Z</time>
      </trkpt>
      <trkpt lat="40.7916180" lon="-3.5339480">
        <ele>672.0</ele>
        <time>2020-09-29T08:50:32Z</time>
      </trkpt>
      <trkpt lat="40.7916180" lon="-3.5339480">
        <ele>673.0</ele>
        <time>2020-09-29T08:50:33Z</time>
      </trkpt>
      <trkpt lat="40.7917530" lon="-3.5339900">
        <ele>673.0</ele>
        <time>2020-09-29T08:50:34Z</time>
      </trkpt>
      <trkpt lat="40.7918200" lon="-3.5340120">
        <ele>673.0</ele>
        <time>2020-09-29T08:50:35Z</time>
      </trkpt>
      <trkpt lat="40.7918850" lon="-3.5340330">
        <ele>673.0</ele>
        <time>2020-09-29T08:50:36Z</time>
      </trkpt>
      <trkpt lat="40.7918850" lon="-3.5340330">
        <ele>673.0</ele>
        <time>2020-09-29T08:50:37Z</time>
      </trkpt>
      <trkpt lat="40.7920130" lon="-3.5340750">
        <ele>673.0</ele>
        <time>2020-09-29T08:50:38Z</time>
      </trkpt>
      <trkpt lat="40.7920130" lon="-3.5340750">
        <ele>673.0</ele>
        <time>2020-09-29T08:50:39Z</time>
      </trkpt>
      <trkpt lat="40.7921430" lon="-3.5341150">
        <ele>673.0</ele>
        <time>2020-09-29T08:50:40Z</time>
      </trkpt>
      <trkpt lat="40.7922070" lon="-3.5341350">
        <ele>673.0</ele>
        <time>2020-09-29T08:50:41Z</time>
      </trkpt>
      <trkpt lat="40.7922070" lon="-3.5341350">
        <ele>673.0</ele>
        <time>2020-09-29T08:50:42Z</time>
      </trkpt>
      <trkpt lat="40.7923370" lon="-3.5341780">
        <ele>673.0</ele>
        <time>2020-09-29T08:50:43Z</time>
      </trkpt>
      <trkpt lat="40.7923370" lon="-3.5341780">
        <ele>673.0</ele>
        <time>2020-09-29T08:50:44Z</time>
      </trkpt>
      <trkpt lat="40.7924670" lon="-3.5342220">
        <ele>673.0</ele>
        <time>2020-09-29T08:50:45Z</time>
      </trkpt>
      <trkpt lat="40.7924670" lon="-3.5342220">
        <ele>673.0</ele>
        <time>2020-09-29T08:50:46Z</time>
      </trkpt>
      <trkpt lat="40.7925930" lon="-3.5342630">
        <ele>673.0</ele>
        <time>2020-09-29T08:50:47Z</time>
      </trkpt>
      <trkpt lat="40.7925930" lon="-3.5342630">
        <ele>674.0</ele>
        <time>2020-09-29T08:50:48Z</time>
      </trkpt>
      <trkpt lat="40.7927230" lon="-3.5343050">
        <ele>674.0</ele>
        <time>2020-09-29T08:50:49Z</time>
      </trkpt>
      <trkpt lat="40.7927880" lon="-3.5343250">
        <ele>674.0</ele>
        <time>2020-09-29T08:50:50Z</time>
      </trkpt>
      <trkpt lat="40.7927880" lon="-3.5343250">
        <ele>674.0</ele>
        <time>2020-09-29T08:50:51Z</time>
      </trkpt>
      <trkpt lat="40.7929180" lon="-3.5343680">
        <ele>674.0</ele>
        <time>2020-09-29T08:50:52Z</time>
      </trkpt>
      <trkpt lat="40.7929180" lon="-3.5343680">
        <ele>674.0</ele>
        <time>2020-09-29T08:50:53Z</time>
      </trkpt>
      <trkpt lat="40.7930470" lon="-3.5344100">
        <ele>674.0</ele>
        <time>2020-09-29T08:50:54Z</time>
      </trkpt>
      <trkpt lat="40.7931120" lon="-3.5344320">
        <ele>674.0</ele>
        <time>2020-09-29T08:50:55Z</time>
      </trkpt>
      <trkpt lat="40.7931120" lon="-3.5344320">
        <ele>674.0</ele>
        <time>2020-09-29T08:50:56Z</time>
      </trkpt>
      <trkpt lat="40.7932380" lon="-3.5344750">
        <ele>674.0</ele>
        <time>2020-09-29T08:50:57Z</time>
      </trkpt>
      <trkpt lat="40.7933030" lon="-3.5344970">
        <ele>675.0</ele>
        <time>2020-09-29T08:50:58Z</time>
      </trkpt>
      <trkpt lat="40.7933030" lon="-3.5344970">
        <ele>675.0</ele>
        <time>2020-09-29T08:50:59Z</time>
      </trkpt>
      <trkpt lat="40.7934350" lon="-3.5345380">
        <ele>675.0</ele>
        <time>2020-09-29T08:51:00Z</time>
      </trkpt>
      <trkpt lat="40.7935020" lon="-3.5345620">
        <ele>675.0</ele>
        <time>2020-09-29T08:51:01Z</time>
      </trkpt>
      <trkpt lat="40.7935020" lon="-3.5345620">
        <ele>675.0</ele>
        <time>2020-09-29T08:51:02Z</time>
      </trkpt>
      <trkpt lat="40.7936330" lon="-3.5346070">
        <ele>675.0</ele>
        <time>2020-09-29T08:51:03Z</time>
      </trkpt>
      <trkpt lat="40.7936330" lon="-3.5346070">
        <ele>675.0</ele>
        <time>2020-09-29T08:51:04Z</time>
      </trkpt>
      <trkpt lat="40.7937630" lon="-3.5346500">
        <ele>675.0</ele>
        <time>2020-09-29T08:51:05Z</time>
      </trkpt>
      <trkpt lat="40.7938300" lon="-3.5346730">
        <ele>675.0</ele>
        <time>2020-09-29T08:51:06Z</time>
      </trkpt>
      <trkpt lat="40.7938300" lon="-3.5346730">
        <ele>675.0</ele>
        <time>2020-09-29T08:51:07Z</time>
      </trkpt>
      <trkpt lat="40.7939620" lon="-3.5347170">
        <ele>675.0</ele>
        <time>2020-09-29T08:51:08Z</time>
      </trkpt>
      <trkpt lat="40.7939620" lon="-3.5347170">
        <ele>676.0</ele>
        <time>2020-09-29T08:51:09Z</time>
      </trkpt>
      <trkpt lat="40.7940900" lon="-3.5347630">
        <ele>676.0</ele>
        <time>2020-09-29T08:51:10Z</time>
      </trkpt>
      <trkpt lat="40.7941530" lon="-3.5347850">
        <ele>676.0</ele>
        <time>2020-09-29T08:51:11Z</time>
      </trkpt>
      <trkpt lat="40.7942180" lon="-3.5348070">
        <ele>676.0</ele>
        <time>2020-09-29T08:51:12Z</time>
      </trkpt>
      <trkpt lat="40.7942180" lon="-3.5348070">
        <ele>676.0</ele>
        <time>2020-09-29T08:51:13Z</time>
      </trkpt>
      <trkpt lat="40.7943500" lon="-3.5348430">
        <ele>676.0</ele>
        <time>2020-09-29T08:51:14Z</time>
      </trkpt>
      <trkpt lat="40.7943500" lon="-3.5348430">
        <ele>676.0</ele>
        <time>2020-09-29T08:51:15Z</time>
      </trkpt>
      <trkpt lat="40.7944800" lon="-3.5348820">
        <ele>676.0</ele>
        <time>2020-09-29T08:51:16Z</time>
      </trkpt>
      <trkpt lat="40.7945450" lon="-3.5349020">
        <ele>676.0</ele>
        <time>2020-09-29T08:51:17Z</time>
      </trkpt>
      <trkpt lat="40.7945450" lon="-3.5349020">
        <ele>676.0</ele>
        <time>2020-09-29T08:51:18Z</time>
      </trkpt>
      <trkpt lat="40.7946730" lon="-3.5349430">
        <ele>676.0</ele>
        <time>2020-09-29T08:51:19Z</time>
      </trkpt>
      <trkpt lat="40.7947400" lon="-3.5349650">
        <ele>676.0</ele>
        <time>2020-09-29T08:51:20Z</time>
      </trkpt>
      <trkpt lat="40.7947400" lon="-3.5349650">
        <ele>676.0</ele>
        <time>2020-09-29T08:51:21Z</time>
      </trkpt>
      <trkpt lat="40.7948720" lon="-3.5350080">
        <ele>676.0</ele>
        <time>2020-09-29T08:51:22Z</time>
      </trkpt>
      <trkpt lat="40.7948720" lon="-3.5350080">
        <ele>676.0</ele>
        <time>2020-09-29T08:51:23Z</time>
      </trkpt>
      <trkpt lat="40.7950050" lon="-3.5350500">
        <ele>676.0</ele>
        <time>2020-09-29T08:51:24Z</time>
      </trkpt>
      <trkpt lat="40.7950050" lon="-3.5350500">
        <ele>676.0</ele>
        <time>2020-09-29T08:51:25Z</time>
      </trkpt>
      <trkpt lat="40.7951370" lon="-3.5350920">
        <ele>676.0</ele>
        <time>2020-09-29T08:51:26Z</time>
      </trkpt>
      <trkpt lat="40.7951370" lon="-3.5350920">
        <ele>676.0</ele>
        <time>2020-09-29T08:51:27Z</time>
      </trkpt>
      <trkpt lat="40.7952670" lon="-3.5351350">
        <ele>676.0</ele>
        <time>2020-09-29T08:51:28Z</time>
      </trkpt>
      <trkpt lat="40.7953300" lon="-3.5351570">
        <ele>676.0</ele>
        <time>2020-09-29T08:51:29Z</time>
      </trkpt>
      <trkpt lat="40.7953300" lon="-3.5351570">
        <ele>676.0</ele>
        <time>2020-09-29T08:51:30Z</time>
      </trkpt>
      <trkpt lat="40.7954570" lon="-3.5351970">
        <ele>677.0</ele>
        <time>2020-09-29T08:51:31Z</time>
      </trkpt>
      <trkpt lat="40.7954570" lon="-3.5351970">
        <ele>677.0</ele>
        <time>2020-09-29T08:51:32Z</time>
      </trkpt>
      <trkpt lat="40.7955780" lon="-3.5352370">
        <ele>677.0</ele>
        <time>2020-09-29T08:51:33Z</time>
      </trkpt>
      <trkpt lat="40.7955780" lon="-3.5352370">
        <ele>677.0</ele>
        <time>2020-09-29T08:51:34Z</time>
      </trkpt>
      <trkpt lat="40.7956930" lon="-3.5352680">
        <ele>677.0</ele>
        <time>2020-09-29T08:51:35Z</time>
      </trkpt>
      <trkpt lat="40.7956930" lon="-3.5352680">
        <ele>677.0</ele>
        <time>2020-09-29T08:51:36Z</time>
      </trkpt>
      <trkpt lat="40.7957850" lon="-3.5352950">
        <ele>677.0</ele>
        <time>2020-09-29T08:51:37Z</time>
      </trkpt>
      <trkpt lat="40.7957850" lon="-3.5352950">
        <ele>677.0</ele>
        <time>2020-09-29T08:51:38Z</time>
      </trkpt>
      <trkpt lat="40.7958180" lon="-3.5353020">
        <ele>676.0</ele>
        <time>2020-09-29T08:51:39Z</time>
      </trkpt>
      <trkpt lat="40.7958170" lon="-3.5353030">
        <ele>676.0</ele>
        <time>2020-09-29T08:51:40Z</time>
      </trkpt>
      <trkpt lat="40.7958170" lon="-3.5353030">
        <ele>676.0</ele>
        <time>2020-09-29T08:51:41Z</time>
      </trkpt>
      <trkpt lat="40.7958180" lon="-3.5353050">
        <ele>676.0</ele>
        <time>2020-09-29T08:51:42Z</time>
      </trkpt>
      <trkpt lat="40.7958180" lon="-3.5353050">
        <ele>676.0</ele>
        <time>2020-09-29T08:52:23Z</time>
      </trkpt>
      <trkpt lat="40.7958500" lon="-3.5353120">
        <ele>676.0</ele>
        <time>2020-09-29T08:52:24Z</time>
      </trkpt>
      <trkpt lat="40.7958630" lon="-3.5353180">
        <ele>676.0</ele>
        <time>2020-09-29T08:52:25Z</time>
      </trkpt>
      <trkpt lat="40.7958630" lon="-3.5353180">
        <ele>676.0</ele>
        <time>2020-09-29T08:52:26Z</time>
      </trkpt>
      <trkpt lat="40.7958980" lon="-3.5353270">
        <ele>676.0</ele>
        <time>2020-09-29T08:52:27Z</time>
      </trkpt>
      <trkpt lat="40.7958980" lon="-3.5353270">
        <ele>676.0</ele>
        <time>2020-09-29T08:52:28Z</time>
      </trkpt>
      <trkpt lat="40.7959550" lon="-3.5353480">
        <ele>676.0</ele>
        <time>2020-09-29T08:52:29Z</time>
      </trkpt>
      <trkpt lat="40.7959550" lon="-3.5353480">
        <ele>676.0</ele>
        <time>2020-09-29T08:52:30Z</time>
      </trkpt>
      <trkpt lat="40.7960330" lon="-3.5353730">
        <ele>676.0</ele>
        <time>2020-09-29T08:52:31Z</time>
      </trkpt>
      <trkpt lat="40.7960330" lon="-3.5353730">
        <ele>676.0</ele>
        <time>2020-09-29T08:52:32Z</time>
      </trkpt>
      <trkpt lat="40.7961270" lon="-3.5354050">
        <ele>676.0</ele>
        <time>2020-09-29T08:52:33Z</time>
      </trkpt>
      <trkpt lat="40.7961750" lon="-3.5354230">
        <ele>676.0</ele>
        <time>2020-09-29T08:52:34Z</time>
      </trkpt>
      <trkpt lat="40.7961750" lon="-3.5354230">
        <ele>676.0</ele>
        <time>2020-09-29T08:52:35Z</time>
      </trkpt>
      <trkpt lat="40.7962770" lon="-3.5354550">
        <ele>676.0</ele>
        <time>2020-09-29T08:52:36Z</time>
      </trkpt>
      <trkpt lat="40.7962770" lon="-3.5354550">
        <ele>676.0</ele>
        <time>2020-09-29T08:52:37Z</time>
      </trkpt>
      <trkpt lat="40.7963830" lon="-3.5354900">
        <ele>676.0</ele>
        <time>2020-09-29T08:52:38Z</time>
      </trkpt>
      <trkpt lat="40.7964400" lon="-3.5355100">
        <ele>676.0</ele>
        <time>2020-09-29T08:52:39Z</time>
      </trkpt>
      <trkpt lat="40.7964400" lon="-3.5355100">
        <ele>676.0</ele>
        <time>2020-09-29T08:52:40Z</time>
      </trkpt>
      <trkpt lat="40.7965550" lon="-3.5355530">
        <ele>676.0</ele>
        <time>2020-09-29T08:52:41Z</time>
      </trkpt>
      <trkpt lat="40.7965550" lon="-3.5355530">
        <ele>676.0</ele>
        <time>2020-09-29T08:52:42Z</time>
      </trkpt>
      <trkpt lat="40.7966700" lon="-3.5355920">
        <ele>676.0</ele>
        <time>2020-09-29T08:52:43Z</time>
      </trkpt>
      <trkpt lat="40.7966700" lon="-3.5355920">
        <ele>676.0</ele>
        <time>2020-09-29T08:52:44Z</time>
      </trkpt>
      <trkpt lat="40.7967900" lon="-3.5356320">
        <ele>676.0</ele>
        <time>2020-09-29T08:52:45Z</time>
      </trkpt>
      <trkpt lat="40.7967900" lon="-3.5356320">
        <ele>676.0</ele>
        <time>2020-09-29T08:52:46Z</time>
      </trkpt>
      <trkpt lat="40.7969080" lon="-3.5356680">
        <ele>676.0</ele>
        <time>2020-09-29T08:52:47Z</time>
      </trkpt>
      <trkpt lat="40.7969080" lon="-3.5356680">
        <ele>676.0</ele>
        <time>2020-09-29T08:52:48Z</time>
      </trkpt>
      <trkpt lat="40.7970300" lon="-3.5357080">
        <ele>676.0</ele>
        <time>2020-09-29T08:52:49Z</time>
      </trkpt>
      <trkpt lat="40.7970900" lon="-3.5357270">
        <ele>677.0</ele>
        <time>2020-09-29T08:52:50Z</time>
      </trkpt>
      <trkpt lat="40.7970900" lon="-3.5357270">
        <ele>677.0</ele>
        <time>2020-09-29T08:52:51Z</time>
      </trkpt>
      <trkpt lat="40.7972120" lon="-3.5357700">
        <ele>677.0</ele>
        <time>2020-09-29T08:52:52Z</time>
      </trkpt>
      <trkpt lat="40.7972730" lon="-3.5357880">
        <ele>677.0</ele>
        <time>2020-09-29T08:52:53Z</time>
      </trkpt>
      <trkpt lat="40.7972730" lon="-3.5357880">
        <ele>677.0</ele>
        <time>2020-09-29T08:52:54Z</time>
      </trkpt>
      <trkpt lat="40.7974000" lon="-3.5358300">
        <ele>677.0</ele>
        <time>2020-09-29T08:52:55Z</time>
      </trkpt>
      <trkpt lat="40.7974000" lon="-3.5358300">
        <ele>677.0</ele>
        <time>2020-09-29T08:52:56Z</time>
      </trkpt>
      <trkpt lat="40.7975270" lon="-3.5358720">
        <ele>677.0</ele>
        <time>2020-09-29T08:52:57Z</time>
      </trkpt>
      <trkpt lat="40.7975270" lon="-3.5358720">
        <ele>677.0</ele>
        <time>2020-09-29T08:52:58Z</time>
      </trkpt>
      <trkpt lat="40.7976570" lon="-3.5359130">
        <ele>677.0</ele>
        <time>2020-09-29T08:52:59Z</time>
      </trkpt>
      <trkpt lat="40.7977230" lon="-3.5359300">
        <ele>677.0</ele>
        <time>2020-09-29T08:53:00Z</time>
      </trkpt>
      <trkpt lat="40.7977230" lon="-3.5359300">
        <ele>677.0</ele>
        <time>2020-09-29T08:53:01Z</time>
      </trkpt>
      <trkpt lat="40.7978530" lon="-3.5359650">
        <ele>677.0</ele>
        <time>2020-09-29T08:53:02Z</time>
      </trkpt>
      <trkpt lat="40.7979170" lon="-3.5359850">
        <ele>677.0</ele>
        <time>2020-09-29T08:53:03Z</time>
      </trkpt>
      <trkpt lat="40.7979170" lon="-3.5359850">
        <ele>677.0</ele>
        <time>2020-09-29T08:53:04Z</time>
      </trkpt>
      <trkpt lat="40.7980400" lon="-3.5360270">
        <ele>677.0</ele>
        <time>2020-09-29T08:53:05Z</time>
      </trkpt>
      <trkpt lat="40.7980400" lon="-3.5360270">
        <ele>677.0</ele>
        <time>2020-09-29T08:53:06Z</time>
      </trkpt>
      <trkpt lat="40.7981650" lon="-3.5360670">
        <ele>677.0</ele>
        <time>2020-09-29T08:53:07Z</time>
      </trkpt>
      <trkpt lat="40.7981650" lon="-3.5360670">
        <ele>677.0</ele>
        <time>2020-09-29T08:53:08Z</time>
      </trkpt>
      <trkpt lat="40.7982900" lon="-3.5361080">
        <ele>677.0</ele>
        <time>2020-09-29T08:53:09Z</time>
      </trkpt>
      <trkpt lat="40.7983530" lon="-3.5361300">
        <ele>677.0</ele>
        <time>2020-09-29T08:53:10Z</time>
      </trkpt>
      <trkpt lat="40.7983530" lon="-3.5361300">
        <ele>677.0</ele>
        <time>2020-09-29T08:53:11Z</time>
      </trkpt>
      <trkpt lat="40.7984770" lon="-3.5361700">
        <ele>677.0</ele>
        <time>2020-09-29T08:53:12Z</time>
      </trkpt>
      <trkpt lat="40.7985400" lon="-3.5361880">
        <ele>677.0</ele>
        <time>2020-09-29T08:53:13Z</time>
      </trkpt>
      <trkpt lat="40.7985400" lon="-3.5361880">
        <ele>677.0</ele>
        <time>2020-09-29T08:53:14Z</time>
      </trkpt>
      <trkpt lat="40.7986620" lon="-3.5362270">
        <ele>677.0</ele>
        <time>2020-09-29T08:53:15Z</time>
      </trkpt>
      <trkpt lat="40.7986620" lon="-3.5362270">
        <ele>677.0</ele>
        <time>2020-09-29T08:53:16Z</time>
      </trkpt>
      <trkpt lat="40.7987850" lon="-3.5362700">
        <ele>677.0</ele>
        <time>2020-09-29T08:53:17Z</time>
      </trkpt>
      <trkpt lat="40.7988450" lon="-3.5362900">
        <ele>677.0</ele>
        <time>2020-09-29T08:53:18Z</time>
      </trkpt>
      <trkpt lat="40.7989070" lon="-3.5363100">
        <ele>677.0</ele>
        <time>2020-09-29T08:53:19Z</time>
      </trkpt>
      <trkpt lat="40.7989070" lon="-3.5363100">
        <ele>677.0</ele>
        <time>2020-09-29T08:53:20Z</time>
      </trkpt>
      <trkpt lat="40.7990330" lon="-3.5363480">
        <ele>677.0</ele>
        <time>2020-09-29T08:53:21Z</time>
      </trkpt>
      <trkpt lat="40.7990950" lon="-3.5363680">
        <ele>677.0</ele>
        <time>2020-09-29T08:53:22Z</time>
      </trkpt>
      <trkpt lat="40.7990950" lon="-3.5363680">
        <ele>677.0</ele>
        <time>2020-09-29T08:53:23Z</time>
      </trkpt>
      <trkpt lat="40.7992180" lon="-3.5364080">
        <ele>677.0</ele>
        <time>2020-09-29T08:53:24Z</time>
      </trkpt>
      <trkpt lat="40.7992180" lon="-3.5364080">
        <ele>677.0</ele>
        <time>2020-09-29T08:53:25Z</time>
      </trkpt>
      <trkpt lat="40.7993400" lon="-3.5364470">
        <ele>677.0</ele>
        <time>2020-09-29T08:53:26Z</time>
      </trkpt>
      <trkpt lat="40.7993400" lon="-3.5364470">
        <ele>677.0</ele>
        <time>2020-09-29T08:53:27Z</time>
      </trkpt>
      <trkpt lat="40.7994630" lon="-3.5364850">
        <ele>678.0</ele>
        <time>2020-09-29T08:53:28Z</time>
      </trkpt>
      <trkpt lat="40.7995250" lon="-3.5365050">
        <ele>678.0</ele>
        <time>2020-09-29T08:53:29Z</time>
      </trkpt>
      <trkpt lat="40.7995250" lon="-3.5365050">
        <ele>678.0</ele>
        <time>2020-09-29T08:53:30Z</time>
      </trkpt>
      <trkpt lat="40.7996420" lon="-3.5365450">
        <ele>678.0</ele>
        <time>2020-09-29T08:53:31Z</time>
      </trkpt>
      <trkpt lat="40.7996420" lon="-3.5365450">
        <ele>678.0</ele>
        <time>2020-09-29T08:53:32Z</time>
      </trkpt>
      <trkpt lat="40.7997620" lon="-3.5365830">
        <ele>678.0</ele>
        <time>2020-09-29T08:53:33Z</time>
      </trkpt>
      <trkpt lat="40.7997620" lon="-3.5365830">
        <ele>678.0</ele>
        <time>2020-09-29T08:53:34Z</time>
      </trkpt>
      <trkpt lat="40.7998870" lon="-3.5366220">
        <ele>678.0</ele>
        <time>2020-09-29T08:53:35Z</time>
      </trkpt>
      <trkpt lat="40.7998870" lon="-3.5366220">
        <ele>678.0</ele>
        <time>2020-09-29T08:53:36Z</time>
      </trkpt>
      <trkpt lat="40.8000100" lon="-3.5366650">
        <ele>678.0</ele>
        <time>2020-09-29T08:53:37Z</time>
      </trkpt>
      <trkpt lat="40.8000100" lon="-3.5366650">
        <ele>678.0</ele>
        <time>2020-09-29T08:53:38Z</time>
      </trkpt>
      <trkpt lat="40.8001320" lon="-3.5367080">
        <ele>678.0</ele>
        <time>2020-09-29T08:53:39Z</time>
      </trkpt>
      <trkpt lat="40.8001320" lon="-3.5367080">
        <ele>678.0</ele>
        <time>2020-09-29T08:53:40Z</time>
      </trkpt>
      <trkpt lat="40.8002570" lon="-3.5367530">
        <ele>678.0</ele>
        <time>2020-09-29T08:53:41Z</time>
      </trkpt>
      <trkpt lat="40.8002570" lon="-3.5367530">
        <ele>679.0</ele>
        <time>2020-09-29T08:53:42Z</time>
      </trkpt>
      <trkpt lat="40.8003830" lon="-3.5367970">
        <ele>679.0</ele>
        <time>2020-09-29T08:53:43Z</time>
      </trkpt>
      <trkpt lat="40.8004470" lon="-3.5368180">
        <ele>679.0</ele>
        <time>2020-09-29T08:53:44Z</time>
      </trkpt>
      <trkpt lat="40.8004470" lon="-3.5368180">
        <ele>679.0</ele>
        <time>2020-09-29T08:53:45Z</time>
      </trkpt>
      <trkpt lat="40.8005750" lon="-3.5368600">
        <ele>679.0</ele>
        <time>2020-09-29T08:53:46Z</time>
      </trkpt>
      <trkpt lat="40.8006400" lon="-3.5368800">
        <ele>679.0</ele>
        <time>2020-09-29T08:53:47Z</time>
      </trkpt>
      <trkpt lat="40.8006400" lon="-3.5368800">
        <ele>679.0</ele>
        <time>2020-09-29T08:53:48Z</time>
      </trkpt>
      <trkpt lat="40.8007680" lon="-3.5369200">
        <ele>679.0</ele>
        <time>2020-09-29T08:53:49Z</time>
      </trkpt>
      <trkpt lat="40.8007680" lon="-3.5369200">
        <ele>679.0</ele>
        <time>2020-09-29T08:53:50Z</time>
      </trkpt>
      <trkpt lat="40.8008950" lon="-3.5369620">
        <ele>679.0</ele>
        <time>2020-09-29T08:53:51Z</time>
      </trkpt>
      <trkpt lat="40.8008950" lon="-3.5369620">
        <ele>679.0</ele>
        <time>2020-09-29T08:53:52Z</time>
      </trkpt>
      <trkpt lat="40.8010220" lon="-3.5370030">
        <ele>679.0</ele>
        <time>2020-09-29T08:53:53Z</time>
      </trkpt>
      <trkpt lat="40.8010830" lon="-3.5370230">
        <ele>679.0</ele>
        <time>2020-09-29T08:53:54Z</time>
      </trkpt>
      <trkpt lat="40.8010830" lon="-3.5370230">
        <ele>679.0</ele>
        <time>2020-09-29T08:53:55Z</time>
      </trkpt>
      <trkpt lat="40.8012080" lon="-3.5370650">
        <ele>679.0</ele>
        <time>2020-09-29T08:53:56Z</time>
      </trkpt>
      <trkpt lat="40.8012080" lon="-3.5370650">
        <ele>679.0</ele>
        <time>2020-09-29T08:53:57Z</time>
      </trkpt>
      <trkpt lat="40.8013320" lon="-3.5371030">
        <ele>679.0</ele>
        <time>2020-09-29T08:53:58Z</time>
      </trkpt>
      <trkpt lat="40.8013930" lon="-3.5371230">
        <ele>679.0</ele>
        <time>2020-09-29T08:53:59Z</time>
      </trkpt>
      <trkpt lat="40.8013930" lon="-3.5371230">
        <ele>679.0</ele>
        <time>2020-09-29T08:54:00Z</time>
      </trkpt>
      <trkpt lat="40.8015150" lon="-3.5371630">
        <ele>679.0</ele>
        <time>2020-09-29T08:54:01Z</time>
      </trkpt>
      <trkpt lat="40.8015150" lon="-3.5371630">
        <ele>679.0</ele>
        <time>2020-09-29T08:54:02Z</time>
      </trkpt>
      <trkpt lat="40.8016330" lon="-3.5372050">
        <ele>679.0</ele>
        <time>2020-09-29T08:54:03Z</time>
      </trkpt>
      <trkpt lat="40.8016330" lon="-3.5372050">
        <ele>680.0</ele>
        <time>2020-09-29T08:54:04Z</time>
      </trkpt>
      <trkpt lat="40.8017600" lon="-3.5372430">
        <ele>680.0</ele>
        <time>2020-09-29T08:54:05Z</time>
      </trkpt>
      <trkpt lat="40.8017600" lon="-3.5372430">
        <ele>680.0</ele>
        <time>2020-09-29T08:54:06Z</time>
      </trkpt>
      <trkpt lat="40.8018870" lon="-3.5372850">
        <ele>680.0</ele>
        <time>2020-09-29T08:54:07Z</time>
      </trkpt>
      <trkpt lat="40.8018870" lon="-3.5372850">
        <ele>680.0</ele>
        <time>2020-09-29T08:54:08Z</time>
      </trkpt>
      <trkpt lat="40.8020130" lon="-3.5373280">
        <ele>680.0</ele>
        <time>2020-09-29T08:54:09Z</time>
      </trkpt>
      <trkpt lat="40.8020130" lon="-3.5373280">
        <ele>680.0</ele>
        <time>2020-09-29T08:54:10Z</time>
      </trkpt>
      <trkpt lat="40.8021380" lon="-3.5373780">
        <ele>680.0</ele>
        <time>2020-09-29T08:54:11Z</time>
      </trkpt>
      <trkpt lat="40.8021380" lon="-3.5373780">
        <ele>680.0</ele>
        <time>2020-09-29T08:54:12Z</time>
      </trkpt>
      <trkpt lat="40.8022630" lon="-3.5374220">
        <ele>680.0</ele>
        <time>2020-09-29T08:54:13Z</time>
      </trkpt>
      <trkpt lat="40.8023250" lon="-3.5374430">
        <ele>680.0</ele>
        <time>2020-09-29T08:54:14Z</time>
      </trkpt>
      <trkpt lat="40.8023250" lon="-3.5374430">
        <ele>680.0</ele>
        <time>2020-09-29T08:54:15Z</time>
      </trkpt>
      <trkpt lat="40.8024480" lon="-3.5374850">
        <ele>680.0</ele>
        <time>2020-09-29T08:54:16Z</time>
      </trkpt>
      <trkpt lat="40.8024480" lon="-3.5374850">
        <ele>680.0</ele>
        <time>2020-09-29T08:54:17Z</time>
      </trkpt>
      <trkpt lat="40.8025750" lon="-3.5375220">
        <ele>680.0</ele>
        <time>2020-09-29T08:54:18Z</time>
      </trkpt>
      <trkpt lat="40.8026380" lon="-3.5375420">
        <ele>680.0</ele>
        <time>2020-09-29T08:54:19Z</time>
      </trkpt>
      <trkpt lat="40.8026380" lon="-3.5375420">
        <ele>680.0</ele>
        <time>2020-09-29T08:54:20Z</time>
      </trkpt>
      <trkpt lat="40.8027630" lon="-3.5375820">
        <ele>680.0</ele>
        <time>2020-09-29T08:54:21Z</time>
      </trkpt>
      <trkpt lat="40.8028270" lon="-3.5376020">
        <ele>680.0</ele>
        <time>2020-09-29T08:54:22Z</time>
      </trkpt>
      <trkpt lat="40.8028270" lon="-3.5376020">
        <ele>680.0</ele>
        <time>2020-09-29T08:54:23Z</time>
      </trkpt>
      <trkpt lat="40.8029520" lon="-3.5376420">
        <ele>680.0</ele>
        <time>2020-09-29T08:54:24Z</time>
      </trkpt>
      <trkpt lat="40.8029520" lon="-3.5376420">
        <ele>680.0</ele>
        <time>2020-09-29T08:54:25Z</time>
      </trkpt>
      <trkpt lat="40.8030750" lon="-3.5376820">
        <ele>680.0</ele>
        <time>2020-09-29T08:54:26Z</time>
      </trkpt>
      <trkpt lat="40.8030750" lon="-3.5376820">
        <ele>680.0</ele>
        <time>2020-09-29T08:54:27Z</time>
      </trkpt>
      <trkpt lat="40.8031980" lon="-3.5377200">
        <ele>680.0</ele>
        <time>2020-09-29T08:54:28Z</time>
      </trkpt>
      <trkpt lat="40.8031980" lon="-3.5377200">
        <ele>680.0</ele>
        <time>2020-09-29T08:54:29Z</time>
      </trkpt>
      <trkpt lat="40.8033220" lon="-3.5377620">
        <ele>680.0</ele>
        <time>2020-09-29T08:54:30Z</time>
      </trkpt>
      <trkpt lat="40.8033220" lon="-3.5377620">
        <ele>680.0</ele>
        <time>2020-09-29T08:54:31Z</time>
      </trkpt>
      <trkpt lat="40.8034470" lon="-3.5378050">
        <ele>680.0</ele>
        <time>2020-09-29T08:54:32Z</time>
      </trkpt>
      <trkpt lat="40.8035080" lon="-3.5378250">
        <ele>681.0</ele>
        <time>2020-09-29T08:54:33Z</time>
      </trkpt>
      <trkpt lat="40.8035080" lon="-3.5378250">
        <ele>681.0</ele>
        <time>2020-09-29T08:54:34Z</time>
      </trkpt>
      <trkpt lat="40.8036330" lon="-3.5378670">
        <ele>681.0</ele>
        <time>2020-09-29T08:54:35Z</time>
      </trkpt>
      <trkpt lat="40.8036330" lon="-3.5378670">
        <ele>681.0</ele>
        <time>2020-09-29T08:54:36Z</time>
      </trkpt>
      <trkpt lat="40.8037530" lon="-3.5379080">
        <ele>681.0</ele>
        <time>2020-09-29T08:54:37Z</time>
      </trkpt>
      <trkpt lat="40.8038150" lon="-3.5379280">
        <ele>681.0</ele>
        <time>2020-09-29T08:54:38Z</time>
      </trkpt>
      <trkpt lat="40.8038150" lon="-3.5379280">
        <ele>681.0</ele>
        <time>2020-09-29T08:54:39Z</time>
      </trkpt>
      <trkpt lat="40.8039370" lon="-3.5379670">
        <ele>681.0</ele>
        <time>2020-09-29T08:54:40Z</time>
      </trkpt>
      <trkpt lat="40.8039950" lon="-3.5379870">
        <ele>681.0</ele>
        <time>2020-09-29T08:54:41Z</time>
      </trkpt>
      <trkpt lat="40.8039950" lon="-3.5379870">
        <ele>681.0</ele>
        <time>2020-09-29T08:54:42Z</time>
      </trkpt>
      <trkpt lat="40.8041130" lon="-3.5380220">
        <ele>681.0</ele>
        <time>2020-09-29T08:54:43Z</time>
      </trkpt>
      <trkpt lat="40.8041130" lon="-3.5380220">
        <ele>681.0</ele>
        <time>2020-09-29T08:54:44Z</time>
      </trkpt>
      <trkpt lat="40.8042320" lon="-3.5380580">
        <ele>681.0</ele>
        <time>2020-09-29T08:54:45Z</time>
      </trkpt>
      <trkpt lat="40.8042920" lon="-3.5380780">
        <ele>681.0</ele>
        <time>2020-09-29T08:54:46Z</time>
      </trkpt>
      <trkpt lat="40.8042920" lon="-3.5380780">
        <ele>681.0</ele>
        <time>2020-09-29T08:54:47Z</time>
      </trkpt>
      <trkpt lat="40.8044080" lon="-3.5381170">
        <ele>681.0</ele>
        <time>2020-09-29T08:54:48Z</time>
      </trkpt>
      <trkpt lat="40.8044680" lon="-3.5381350">
        <ele>681.0</ele>
        <time>2020-09-29T08:54:49Z</time>
      </trkpt>
      <trkpt lat="40.8044680" lon="-3.5381350">
        <ele>681.0</ele>
        <time>2020-09-29T08:54:50Z</time>
      </trkpt>
      <trkpt lat="40.8045850" lon="-3.5381750">
        <ele>682.0</ele>
        <time>2020-09-29T08:54:51Z</time>
      </trkpt>
      <trkpt lat="40.8045850" lon="-3.5381750">
        <ele>682.0</ele>
        <time>2020-09-29T08:54:52Z</time>
      </trkpt>
      <trkpt lat="40.8047000" lon="-3.5382130">
        <ele>682.0</ele>
        <time>2020-09-29T08:54:53Z</time>
      </trkpt>
      <trkpt lat="40.8047580" lon="-3.5382320">
        <ele>682.0</ele>
        <time>2020-09-29T08:54:54Z</time>
      </trkpt>
      <trkpt lat="40.8047580" lon="-3.5382320">
        <ele>682.0</ele>
        <time>2020-09-29T08:54:55Z</time>
      </trkpt>
      <trkpt lat="40.8048730" lon="-3.5382670">
        <ele>682.0</ele>
        <time>2020-09-29T08:54:56Z</time>
      </trkpt>
      <trkpt lat="40.8048730" lon="-3.5382670">
        <ele>682.0</ele>
        <time>2020-09-29T08:54:57Z</time>
      </trkpt>
      <trkpt lat="40.8049870" lon="-3.5383050">
        <ele>682.0</ele>
        <time>2020-09-29T08:54:58Z</time>
      </trkpt>
      <trkpt lat="40.8049870" lon="-3.5383050">
        <ele>682.0</ele>
        <time>2020-09-29T08:54:59Z</time>
      </trkpt>
      <trkpt lat="40.8051030" lon="-3.5383420">
        <ele>682.0</ele>
        <time>2020-09-29T08:55:00Z</time>
      </trkpt>
      <trkpt lat="40.8051030" lon="-3.5383420">
        <ele>683.0</ele>
        <time>2020-09-29T08:55:01Z</time>
      </trkpt>
      <trkpt lat="40.8052180" lon="-3.5383770">
        <ele>683.0</ele>
        <time>2020-09-29T08:55:02Z</time>
      </trkpt>
      <trkpt lat="40.8052770" lon="-3.5383950">
        <ele>683.0</ele>
        <time>2020-09-29T08:55:03Z</time>
      </trkpt>
      <trkpt lat="40.8052770" lon="-3.5383950">
        <ele>683.0</ele>
        <time>2020-09-29T08:55:04Z</time>
      </trkpt>
      <trkpt lat="40.8053920" lon="-3.5384330">
        <ele>683.0</ele>
        <time>2020-09-29T08:55:05Z</time>
      </trkpt>
      <trkpt lat="40.8053920" lon="-3.5384330">
        <ele>683.0</ele>
        <time>2020-09-29T08:55:06Z</time>
      </trkpt>
      <trkpt lat="40.8055050" lon="-3.5384730">
        <ele>683.0</ele>
        <time>2020-09-29T08:55:07Z</time>
      </trkpt>
      <trkpt lat="40.8055050" lon="-3.5384730">
        <ele>683.0</ele>
        <time>2020-09-29T08:55:08Z</time>
      </trkpt>
      <trkpt lat="40.8056200" lon="-3.5385100">
        <ele>683.0</ele>
        <time>2020-09-29T08:55:09Z</time>
      </trkpt>
      <trkpt lat="40.8056200" lon="-3.5385100">
        <ele>683.0</ele>
        <time>2020-09-29T08:55:10Z</time>
      </trkpt>
      <trkpt lat="40.8057350" lon="-3.5385480">
        <ele>683.0</ele>
        <time>2020-09-29T08:55:11Z</time>
      </trkpt>
      <trkpt lat="40.8057350" lon="-3.5385480">
        <ele>683.0</ele>
        <time>2020-09-29T08:55:12Z</time>
      </trkpt>
      <trkpt lat="40.8058530" lon="-3.5385880">
        <ele>683.0</ele>
        <time>2020-09-29T08:55:13Z</time>
      </trkpt>
      <trkpt lat="40.8058530" lon="-3.5385880">
        <ele>683.0</ele>
        <time>2020-09-29T08:55:14Z</time>
      </trkpt>
      <trkpt lat="40.8059700" lon="-3.5386270">
        <ele>683.0</ele>
        <time>2020-09-29T08:55:15Z</time>
      </trkpt>
      <trkpt lat="40.8060300" lon="-3.5386470">
        <ele>683.0</ele>
        <time>2020-09-29T08:55:16Z</time>
      </trkpt>
      <trkpt lat="40.8060300" lon="-3.5386470">
        <ele>683.0</ele>
        <time>2020-09-29T08:55:17Z</time>
      </trkpt>
      <trkpt lat="40.8061470" lon="-3.5386830">
        <ele>683.0</ele>
        <time>2020-09-29T08:55:18Z</time>
      </trkpt>
      <trkpt lat="40.8062070" lon="-3.5387020">
        <ele>684.0</ele>
        <time>2020-09-29T08:55:19Z</time>
      </trkpt>
      <trkpt lat="40.8062070" lon="-3.5387020">
        <ele>684.0</ele>
        <time>2020-09-29T08:55:20Z</time>
      </trkpt>
      <trkpt lat="40.8063220" lon="-3.5387400">
        <ele>684.0</ele>
        <time>2020-09-29T08:55:21Z</time>
      </trkpt>
      <trkpt lat="40.8063220" lon="-3.5387400">
        <ele>684.0</ele>
        <time>2020-09-29T08:55:22Z</time>
      </trkpt>
      <trkpt lat="40.8064380" lon="-3.5387770">
        <ele>684.0</ele>
        <time>2020-09-29T08:55:23Z</time>
      </trkpt>
      <trkpt lat="40.8064380" lon="-3.5387770">
        <ele>684.0</ele>
        <time>2020-09-29T08:55:24Z</time>
      </trkpt>
      <trkpt lat="40.8065530" lon="-3.5388170">
        <ele>684.0</ele>
        <time>2020-09-29T08:55:25Z</time>
      </trkpt>
      <trkpt lat="40.8066100" lon="-3.5388370">
        <ele>684.0</ele>
        <time>2020-09-29T08:55:26Z</time>
      </trkpt>
      <trkpt lat="40.8066100" lon="-3.5388370">
        <ele>684.0</ele>
        <time>2020-09-29T08:55:27Z</time>
      </trkpt>
      <trkpt lat="40.8067250" lon="-3.5388730">
        <ele>684.0</ele>
        <time>2020-09-29T08:55:28Z</time>
      </trkpt>
      <trkpt lat="40.8067250" lon="-3.5388730">
        <ele>684.0</ele>
        <time>2020-09-29T08:55:29Z</time>
      </trkpt>
      <trkpt lat="40.8068420" lon="-3.5389030">
        <ele>684.0</ele>
        <time>2020-09-29T08:55:30Z</time>
      </trkpt>
      <trkpt lat="40.8068420" lon="-3.5389030">
        <ele>684.0</ele>
        <time>2020-09-29T08:55:31Z</time>
      </trkpt>
      <trkpt lat="40.8069550" lon="-3.5389430">
        <ele>684.0</ele>
        <time>2020-09-29T08:55:32Z</time>
      </trkpt>
      <trkpt lat="40.8070130" lon="-3.5389630">
        <ele>684.0</ele>
        <time>2020-09-29T08:55:33Z</time>
      </trkpt>
      <trkpt lat="40.8070130" lon="-3.5389630">
        <ele>684.0</ele>
        <time>2020-09-29T08:55:34Z</time>
      </trkpt>
      <trkpt lat="40.8071280" lon="-3.5390000">
        <ele>684.0</ele>
        <time>2020-09-29T08:55:35Z</time>
      </trkpt>
      <trkpt lat="40.8071280" lon="-3.5390000">
        <ele>684.0</ele>
        <time>2020-09-29T08:55:36Z</time>
      </trkpt>
      <trkpt lat="40.8072430" lon="-3.5390380">
        <ele>684.0</ele>
        <time>2020-09-29T08:55:37Z</time>
      </trkpt>
      <trkpt lat="40.8072430" lon="-3.5390380">
        <ele>684.0</ele>
        <time>2020-09-29T08:55:38Z</time>
      </trkpt>
      <trkpt lat="40.8073580" lon="-3.5390770">
        <ele>684.0</ele>
        <time>2020-09-29T08:55:39Z</time>
      </trkpt>
      <trkpt lat="40.8074170" lon="-3.5390950">
        <ele>684.0</ele>
        <time>2020-09-29T08:55:40Z</time>
      </trkpt>
      <trkpt lat="40.8074170" lon="-3.5390950">
        <ele>684.0</ele>
        <time>2020-09-29T08:55:41Z</time>
      </trkpt>
      <trkpt lat="40.8075320" lon="-3.5391330">
        <ele>684.0</ele>
        <time>2020-09-29T08:55:42Z</time>
      </trkpt>
      <trkpt lat="40.8075900" lon="-3.5391530">
        <ele>684.0</ele>
        <time>2020-09-29T08:55:43Z</time>
      </trkpt>
      <trkpt lat="40.8075900" lon="-3.5391530">
        <ele>684.0</ele>
        <time>2020-09-29T08:55:44Z</time>
      </trkpt>
      <trkpt lat="40.8077020" lon="-3.5392020">
        <ele>684.0</ele>
        <time>2020-09-29T08:55:45Z</time>
      </trkpt>
      <trkpt lat="40.8077020" lon="-3.5392020">
        <ele>684.0</ele>
        <time>2020-09-29T08:55:46Z</time>
      </trkpt>
      <trkpt lat="40.8078170" lon="-3.5392420">
        <ele>684.0</ele>
        <time>2020-09-29T08:55:47Z</time>
      </trkpt>
      <trkpt lat="40.8078170" lon="-3.5392420">
        <ele>684.0</ele>
        <time>2020-09-29T08:55:48Z</time>
      </trkpt>
      <trkpt lat="40.8079330" lon="-3.5392780">
        <ele>685.0</ele>
        <time>2020-09-29T08:55:49Z</time>
      </trkpt>
      <trkpt lat="40.8079330" lon="-3.5392780">
        <ele>685.0</ele>
        <time>2020-09-29T08:55:50Z</time>
      </trkpt>
      <trkpt lat="40.8080520" lon="-3.5393180">
        <ele>685.0</ele>
        <time>2020-09-29T08:55:51Z</time>
      </trkpt>
      <trkpt lat="40.8080520" lon="-3.5393180">
        <ele>685.0</ele>
        <time>2020-09-29T08:55:52Z</time>
      </trkpt>
      <trkpt lat="40.8081680" lon="-3.5393570">
        <ele>685.0</ele>
        <time>2020-09-29T08:55:53Z</time>
      </trkpt>
      <trkpt lat="40.8081680" lon="-3.5393570">
        <ele>685.0</ele>
        <time>2020-09-29T08:55:54Z</time>
      </trkpt>
      <trkpt lat="40.8082870" lon="-3.5393970">
        <ele>685.0</ele>
        <time>2020-09-29T08:55:55Z</time>
      </trkpt>
      <trkpt lat="40.8082870" lon="-3.5393970">
        <ele>685.0</ele>
        <time>2020-09-29T08:55:56Z</time>
      </trkpt>
      <trkpt lat="40.8084020" lon="-3.5394350">
        <ele>685.0</ele>
        <time>2020-09-29T08:55:57Z</time>
      </trkpt>
      <trkpt lat="40.8084600" lon="-3.5394550">
        <ele>685.0</ele>
        <time>2020-09-29T08:55:58Z</time>
      </trkpt>
      <trkpt lat="40.8084600" lon="-3.5394550">
        <ele>685.0</ele>
        <time>2020-09-29T08:55:59Z</time>
      </trkpt>
      <trkpt lat="40.8085750" lon="-3.5394880">
        <ele>685.0</ele>
        <time>2020-09-29T08:56:00Z</time>
      </trkpt>
      <trkpt lat="40.8085750" lon="-3.5394880">
        <ele>685.0</ele>
        <time>2020-09-29T08:56:01Z</time>
      </trkpt>
      <trkpt lat="40.8086900" lon="-3.5395200">
        <ele>685.0</ele>
        <time>2020-09-29T08:56:02Z</time>
      </trkpt>
      <trkpt lat="40.8087480" lon="-3.5395350">
        <ele>686.0</ele>
        <time>2020-09-29T08:56:03Z</time>
      </trkpt>
      <trkpt lat="40.8088070" lon="-3.5395500">
        <ele>686.0</ele>
        <time>2020-09-29T08:56:04Z</time>
      </trkpt>
      <trkpt lat="40.8088070" lon="-3.5395500">
        <ele>686.0</ele>
        <time>2020-09-29T08:56:05Z</time>
      </trkpt>
      <trkpt lat="40.8089250" lon="-3.5395800">
        <ele>686.0</ele>
        <time>2020-09-29T08:56:06Z</time>
      </trkpt>
      <trkpt lat="40.8089830" lon="-3.5395920">
        <ele>686.0</ele>
        <time>2020-09-29T08:56:07Z</time>
      </trkpt>
      <trkpt lat="40.8089830" lon="-3.5395920">
        <ele>686.0</ele>
        <time>2020-09-29T08:56:08Z</time>
      </trkpt>
      <trkpt lat="40.8091030" lon="-3.5396080">
        <ele>686.0</ele>
        <time>2020-09-29T08:56:09Z</time>
      </trkpt>
      <trkpt lat="40.8091030" lon="-3.5396080">
        <ele>686.0</ele>
        <time>2020-09-29T08:56:10Z</time>
      </trkpt>
      <trkpt lat="40.8092230" lon="-3.5396230">
        <ele>686.0</ele>
        <time>2020-09-29T08:56:11Z</time>
      </trkpt>
      <trkpt lat="40.8092230" lon="-3.5396230">
        <ele>686.0</ele>
        <time>2020-09-29T08:56:12Z</time>
      </trkpt>
      <trkpt lat="40.8093450" lon="-3.5396270">
        <ele>686.0</ele>
        <time>2020-09-29T08:56:13Z</time>
      </trkpt>
      <trkpt lat="40.8093450" lon="-3.5396270">
        <ele>686.0</ele>
        <time>2020-09-29T08:56:14Z</time>
      </trkpt>
      <trkpt lat="40.8094730" lon="-3.5396230">
        <ele>686.0</ele>
        <time>2020-09-29T08:56:15Z</time>
      </trkpt>
      <trkpt lat="40.8095370" lon="-3.5396220">
        <ele>686.0</ele>
        <time>2020-09-29T08:56:16Z</time>
      </trkpt>
      <trkpt lat="40.8095370" lon="-3.5396220">
        <ele>686.0</ele>
        <time>2020-09-29T08:56:17Z</time>
      </trkpt>
      <trkpt lat="40.8096670" lon="-3.5396080">
        <ele>686.0</ele>
        <time>2020-09-29T08:56:18Z</time>
      </trkpt>
      <trkpt lat="40.8097320" lon="-3.5396000">
        <ele>686.0</ele>
        <time>2020-09-29T08:56:19Z</time>
      </trkpt>
      <trkpt lat="40.8097320" lon="-3.5396000">
        <ele>686.0</ele>
        <time>2020-09-29T08:56:20Z</time>
      </trkpt>
      <trkpt lat="40.8098620" lon="-3.5395800">
        <ele>686.0</ele>
        <time>2020-09-29T08:56:21Z</time>
      </trkpt>
      <trkpt lat="40.8098620" lon="-3.5395800">
        <ele>686.0</ele>
        <time>2020-09-29T08:56:22Z</time>
      </trkpt>
      <trkpt lat="40.8099900" lon="-3.5395530">
        <ele>686.0</ele>
        <time>2020-09-29T08:56:23Z</time>
      </trkpt>
      <trkpt lat="40.8099900" lon="-3.5395530">
        <ele>686.0</ele>
        <time>2020-09-29T08:56:24Z</time>
      </trkpt>
      <trkpt lat="40.8101170" lon="-3.5395230">
        <ele>686.0</ele>
        <time>2020-09-29T08:56:25Z</time>
      </trkpt>
      <trkpt lat="40.8101170" lon="-3.5395230">
        <ele>686.0</ele>
        <time>2020-09-29T08:56:26Z</time>
      </trkpt>
      <trkpt lat="40.8102430" lon="-3.5394870">
        <ele>686.0</ele>
        <time>2020-09-29T08:56:27Z</time>
      </trkpt>
      <trkpt lat="40.8103070" lon="-3.5394680">
        <ele>686.0</ele>
        <time>2020-09-29T08:56:28Z</time>
      </trkpt>
      <trkpt lat="40.8103700" lon="-3.5394520">
        <ele>686.0</ele>
        <time>2020-09-29T08:56:29Z</time>
      </trkpt>
      <trkpt lat="40.8103700" lon="-3.5394520">
        <ele>686.0</ele>
        <time>2020-09-29T08:56:30Z</time>
      </trkpt>
      <trkpt lat="40.8104950" lon="-3.5394220">
        <ele>686.0</ele>
        <time>2020-09-29T08:56:31Z</time>
      </trkpt>
      <trkpt lat="40.8105580" lon="-3.5394050">
        <ele>686.0</ele>
        <time>2020-09-29T08:56:32Z</time>
      </trkpt>
      <trkpt lat="40.8105580" lon="-3.5394050">
        <ele>686.0</ele>
        <time>2020-09-29T08:56:33Z</time>
      </trkpt>
      <trkpt lat="40.8106830" lon="-3.5393750">
        <ele>686.0</ele>
        <time>2020-09-29T08:56:34Z</time>
      </trkpt>
      <trkpt lat="40.8106830" lon="-3.5393750">
        <ele>686.0</ele>
        <time>2020-09-29T08:56:35Z</time>
      </trkpt>
      <trkpt lat="40.8108080" lon="-3.5393430">
        <ele>686.0</ele>
        <time>2020-09-29T08:56:36Z</time>
      </trkpt>
      <trkpt lat="40.8108080" lon="-3.5393430">
        <ele>686.0</ele>
        <time>2020-09-29T08:56:37Z</time>
      </trkpt>
      <trkpt lat="40.8109330" lon="-3.5393080">
        <ele>686.0</ele>
        <time>2020-09-29T08:56:38Z</time>
      </trkpt>
      <trkpt lat="40.8109330" lon="-3.5393080">
        <ele>686.0</ele>
        <time>2020-09-29T08:56:39Z</time>
      </trkpt>
      <trkpt lat="40.8110580" lon="-3.5392780">
        <ele>686.0</ele>
        <time>2020-09-29T08:56:40Z</time>
      </trkpt>
      <trkpt lat="40.8111220" lon="-3.5392620">
        <ele>686.0</ele>
        <time>2020-09-29T08:56:41Z</time>
      </trkpt>
      <trkpt lat="40.8111220" lon="-3.5392620">
        <ele>686.0</ele>
        <time>2020-09-29T08:56:42Z</time>
      </trkpt>
      <trkpt lat="40.8112470" lon="-3.5392300">
        <ele>686.0</ele>
        <time>2020-09-29T08:56:43Z</time>
      </trkpt>
      <trkpt lat="40.8112470" lon="-3.5392300">
        <ele>686.0</ele>
        <time>2020-09-29T08:56:44Z</time>
      </trkpt>
      <trkpt lat="40.8113700" lon="-3.5391980">
        <ele>686.0</ele>
        <time>2020-09-29T08:56:45Z</time>
      </trkpt>
      <trkpt lat="40.8113700" lon="-3.5391980">
        <ele>686.0</ele>
        <time>2020-09-29T08:56:46Z</time>
      </trkpt>
      <trkpt lat="40.8114950" lon="-3.5391700">
        <ele>686.0</ele>
        <time>2020-09-29T08:56:47Z</time>
      </trkpt>
      <trkpt lat="40.8115550" lon="-3.5391550">
        <ele>686.0</ele>
        <time>2020-09-29T08:56:48Z</time>
      </trkpt>
      <trkpt lat="40.8116170" lon="-3.5391380">
        <ele>686.0</ele>
        <time>2020-09-29T08:56:49Z</time>
      </trkpt>
      <trkpt lat="40.8116170" lon="-3.5391380">
        <ele>686.0</ele>
        <time>2020-09-29T08:56:50Z</time>
      </trkpt>
      <trkpt lat="40.8117400" lon="-3.5391050">
        <ele>686.0</ele>
        <time>2020-09-29T08:56:51Z</time>
      </trkpt>
      <trkpt lat="40.8117400" lon="-3.5391050">
        <ele>686.0</ele>
        <time>2020-09-29T08:56:52Z</time>
      </trkpt>
      <trkpt lat="40.8118600" lon="-3.5390700">
        <ele>686.0</ele>
        <time>2020-09-29T08:56:53Z</time>
      </trkpt>
      <trkpt lat="40.8119220" lon="-3.5390530">
        <ele>686.0</ele>
        <time>2020-09-29T08:56:54Z</time>
      </trkpt>
      <trkpt lat="40.8119870" lon="-3.5390380">
        <ele>686.0</ele>
        <time>2020-09-29T08:56:55Z</time>
      </trkpt>
      <trkpt lat="40.8119870" lon="-3.5390380">
        <ele>686.0</ele>
        <time>2020-09-29T08:56:56Z</time>
      </trkpt>
      <trkpt lat="40.8121100" lon="-3.5390080">
        <ele>686.0</ele>
        <time>2020-09-29T08:56:57Z</time>
      </trkpt>
      <trkpt lat="40.8121100" lon="-3.5390080">
        <ele>686.0</ele>
        <time>2020-09-29T08:56:58Z</time>
      </trkpt>
      <trkpt lat="40.8122350" lon="-3.5389750">
        <ele>686.0</ele>
        <time>2020-09-29T08:56:59Z</time>
      </trkpt>
      <trkpt lat="40.8122970" lon="-3.5389600">
        <ele>686.0</ele>
        <time>2020-09-29T08:57:00Z</time>
      </trkpt>
      <trkpt lat="40.8123600" lon="-3.5389450">
        <ele>686.0</ele>
        <time>2020-09-29T08:57:01Z</time>
      </trkpt>
      <trkpt lat="40.8123600" lon="-3.5389450">
        <ele>686.0</ele>
        <time>2020-09-29T08:57:02Z</time>
      </trkpt>
      <trkpt lat="40.8124830" lon="-3.5389120">
        <ele>686.0</ele>
        <time>2020-09-29T08:57:03Z</time>
      </trkpt>
      <trkpt lat="40.8125450" lon="-3.5388970">
        <ele>686.0</ele>
        <time>2020-09-29T08:57:04Z</time>
      </trkpt>
      <trkpt lat="40.8125450" lon="-3.5388970">
        <ele>686.0</ele>
        <time>2020-09-29T08:57:05Z</time>
      </trkpt>
      <trkpt lat="40.8126650" lon="-3.5388650">
        <ele>686.0</ele>
        <time>2020-09-29T08:57:06Z</time>
      </trkpt>
      <trkpt lat="40.8126650" lon="-3.5388650">
        <ele>686.0</ele>
        <time>2020-09-29T08:57:07Z</time>
      </trkpt>
      <trkpt lat="40.8127800" lon="-3.5388330">
        <ele>686.0</ele>
        <time>2020-09-29T08:57:08Z</time>
      </trkpt>
      <trkpt lat="40.8127800" lon="-3.5388330">
        <ele>686.0</ele>
        <time>2020-09-29T08:57:09Z</time>
      </trkpt>
      <trkpt lat="40.8128950" lon="-3.5388050">
        <ele>686.0</ele>
        <time>2020-09-29T08:57:10Z</time>
      </trkpt>
      <trkpt lat="40.8128950" lon="-3.5388050">
        <ele>686.0</ele>
        <time>2020-09-29T08:57:11Z</time>
      </trkpt>
      <trkpt lat="40.8130070" lon="-3.5387770">
        <ele>686.0</ele>
        <time>2020-09-29T08:57:12Z</time>
      </trkpt>
      <trkpt lat="40.8130620" lon="-3.5387630">
        <ele>687.0</ele>
        <time>2020-09-29T08:57:13Z</time>
      </trkpt>
      <trkpt lat="40.8130620" lon="-3.5387630">
        <ele>687.0</ele>
        <time>2020-09-29T08:57:14Z</time>
      </trkpt>
      <trkpt lat="40.8131730" lon="-3.5387330">
        <ele>687.0</ele>
        <time>2020-09-29T08:57:15Z</time>
      </trkpt>
      <trkpt lat="40.8131730" lon="-3.5387330">
        <ele>687.0</ele>
        <time>2020-09-29T08:57:16Z</time>
      </trkpt>
      <trkpt lat="40.8132850" lon="-3.5387070">
        <ele>687.0</ele>
        <time>2020-09-29T08:57:17Z</time>
      </trkpt>
      <trkpt lat="40.8133380" lon="-3.5386920">
        <ele>687.0</ele>
        <time>2020-09-29T08:57:18Z</time>
      </trkpt>
      <trkpt lat="40.8133380" lon="-3.5386920">
        <ele>687.0</ele>
        <time>2020-09-29T08:57:19Z</time>
      </trkpt>
      <trkpt lat="40.8134480" lon="-3.5386630">
        <ele>687.0</ele>
        <time>2020-09-29T08:57:20Z</time>
      </trkpt>
      <trkpt lat="40.8134480" lon="-3.5386630">
        <ele>687.0</ele>
        <time>2020-09-29T08:57:21Z</time>
      </trkpt>
      <trkpt lat="40.8135530" lon="-3.5386320">
        <ele>687.0</ele>
        <time>2020-09-29T08:57:22Z</time>
      </trkpt>
      <trkpt lat="40.8135530" lon="-3.5386320">
        <ele>687.0</ele>
        <time>2020-09-29T08:57:23Z</time>
      </trkpt>
      <trkpt lat="40.8136620" lon="-3.5386030">
        <ele>688.0</ele>
        <time>2020-09-29T08:57:24Z</time>
      </trkpt>
      <trkpt lat="40.8137180" lon="-3.5385880">
        <ele>688.0</ele>
        <time>2020-09-29T08:57:25Z</time>
      </trkpt>
      <trkpt lat="40.8137180" lon="-3.5385880">
        <ele>688.0</ele>
        <time>2020-09-29T08:57:26Z</time>
      </trkpt>
      <trkpt lat="40.8138270" lon="-3.5385620">
        <ele>688.0</ele>
        <time>2020-09-29T08:57:27Z</time>
      </trkpt>
      <trkpt lat="40.8138270" lon="-3.5385620">
        <ele>688.0</ele>
        <time>2020-09-29T08:57:28Z</time>
      </trkpt>
      <trkpt lat="40.8139320" lon="-3.5385380">
        <ele>688.0</ele>
        <time>2020-09-29T08:57:29Z</time>
      </trkpt>
      <trkpt lat="40.8139320" lon="-3.5385380">
        <ele>688.0</ele>
        <time>2020-09-29T08:57:30Z</time>
      </trkpt>
      <trkpt lat="40.8140380" lon="-3.5385130">
        <ele>688.0</ele>
        <time>2020-09-29T08:57:31Z</time>
      </trkpt>
      <trkpt lat="40.8140380" lon="-3.5385130">
        <ele>688.0</ele>
        <time>2020-09-29T08:57:32Z</time>
      </trkpt>
      <trkpt lat="40.8141430" lon="-3.5384880">
        <ele>688.0</ele>
        <time>2020-09-29T08:57:33Z</time>
      </trkpt>
      <trkpt lat="40.8141430" lon="-3.5384880">
        <ele>688.0</ele>
        <time>2020-09-29T08:57:34Z</time>
      </trkpt>
      <trkpt lat="40.8142380" lon="-3.5384600">
        <ele>688.0</ele>
        <time>2020-09-29T08:57:35Z</time>
      </trkpt>
      <trkpt lat="40.8142830" lon="-3.5384480">
        <ele>689.0</ele>
        <time>2020-09-29T08:57:36Z</time>
      </trkpt>
      <trkpt lat="40.8142830" lon="-3.5384480">
        <ele>689.0</ele>
        <time>2020-09-29T08:57:37Z</time>
      </trkpt>
      <trkpt lat="40.8143780" lon="-3.5384300">
        <ele>689.0</ele>
        <time>2020-09-29T08:57:38Z</time>
      </trkpt>
      <trkpt lat="40.8143780" lon="-3.5384300">
        <ele>689.0</ele>
        <time>2020-09-29T08:57:39Z</time>
      </trkpt>
      <trkpt lat="40.8144720" lon="-3.5384150">
        <ele>690.0</ele>
        <time>2020-09-29T08:57:40Z</time>
      </trkpt>
      <trkpt lat="40.8144720" lon="-3.5384150">
        <ele>690.0</ele>
        <time>2020-09-29T08:57:41Z</time>
      </trkpt>
      <trkpt lat="40.8145550" lon="-3.5383900">
        <ele>690.0</ele>
        <time>2020-09-29T08:57:42Z</time>
      </trkpt>
      <trkpt lat="40.8145550" lon="-3.5383900">
        <ele>691.0</ele>
        <time>2020-09-29T08:57:43Z</time>
      </trkpt>
      <trkpt lat="40.8146370" lon="-3.5383670">
        <ele>691.0</ele>
        <time>2020-09-29T08:57:44Z</time>
      </trkpt>
      <trkpt lat="40.8146820" lon="-3.5383570">
        <ele>691.0</ele>
        <time>2020-09-29T08:57:45Z</time>
      </trkpt>
      <trkpt lat="40.8146820" lon="-3.5383570">
        <ele>691.0</ele>
        <time>2020-09-29T08:57:46Z</time>
      </trkpt>
      <trkpt lat="40.8147700" lon="-3.5383350">
        <ele>692.0</ele>
        <time>2020-09-29T08:57:47Z</time>
      </trkpt>
      <trkpt lat="40.8147700" lon="-3.5383350">
        <ele>692.0</ele>
        <time>2020-09-29T08:57:48Z</time>
      </trkpt>
      <trkpt lat="40.8148530" lon="-3.5383150">
        <ele>692.0</ele>
        <time>2020-09-29T08:57:49Z</time>
      </trkpt>
      <trkpt lat="40.8148530" lon="-3.5383150">
        <ele>693.0</ele>
        <time>2020-09-29T08:57:50Z</time>
      </trkpt>
      <trkpt lat="40.8149400" lon="-3.5382900">
        <ele>693.0</ele>
        <time>2020-09-29T08:57:51Z</time>
      </trkpt>
      <trkpt lat="40.8149400" lon="-3.5382900">
        <ele>694.0</ele>
        <time>2020-09-29T08:57:52Z</time>
      </trkpt>
      <trkpt lat="40.8150230" lon="-3.5382720">
        <ele>694.0</ele>
        <time>2020-09-29T08:57:53Z</time>
      </trkpt>
      <trkpt lat="40.8150630" lon="-3.5382580">
        <ele>694.0</ele>
        <time>2020-09-29T08:57:54Z</time>
      </trkpt>
      <trkpt lat="40.8150630" lon="-3.5382580">
        <ele>694.0</ele>
        <time>2020-09-29T08:57:55Z</time>
      </trkpt>
      <trkpt lat="40.8151480" lon="-3.5382400">
        <ele>695.0</ele>
        <time>2020-09-29T08:57:56Z</time>
      </trkpt>
      <trkpt lat="40.8151900" lon="-3.5382320">
        <ele>695.0</ele>
        <time>2020-09-29T08:57:57Z</time>
      </trkpt>
      <trkpt lat="40.8151900" lon="-3.5382320">
        <ele>695.0</ele>
        <time>2020-09-29T08:57:58Z</time>
      </trkpt>
      <trkpt lat="40.8152820" lon="-3.5382080">
        <ele>695.0</ele>
        <time>2020-09-29T08:57:59Z</time>
      </trkpt>
      <trkpt lat="40.8153250" lon="-3.5381950">
        <ele>696.0</ele>
        <time>2020-09-29T08:58:00Z</time>
      </trkpt>
      <trkpt lat="40.8153250" lon="-3.5381950">
        <ele>696.0</ele>
        <time>2020-09-29T08:58:01Z</time>
      </trkpt>
      <trkpt lat="40.8154150" lon="-3.5381700">
        <ele>696.0</ele>
        <time>2020-09-29T08:58:02Z</time>
      </trkpt>
      <trkpt lat="40.8154620" lon="-3.5381570">
        <ele>696.0</ele>
        <time>2020-09-29T08:58:03Z</time>
      </trkpt>
      <trkpt lat="40.8154620" lon="-3.5381570">
        <ele>696.0</ele>
        <time>2020-09-29T08:58:04Z</time>
      </trkpt>
      <trkpt lat="40.8155600" lon="-3.5381270">
        <ele>696.0</ele>
        <time>2020-09-29T08:58:05Z</time>
      </trkpt>
      <trkpt lat="40.8155600" lon="-3.5381270">
        <ele>696.0</ele>
        <time>2020-09-29T08:58:06Z</time>
      </trkpt>
      <trkpt lat="40.8156520" lon="-3.5380930">
        <ele>696.0</ele>
        <time>2020-09-29T08:58:07Z</time>
      </trkpt>
      <trkpt lat="40.8156520" lon="-3.5380930">
        <ele>697.0</ele>
        <time>2020-09-29T08:58:08Z</time>
      </trkpt>
      <trkpt lat="40.8157450" lon="-3.5380720">
        <ele>697.0</ele>
        <time>2020-09-29T08:58:09Z</time>
      </trkpt>
      <trkpt lat="40.8157900" lon="-3.5380600">
        <ele>697.0</ele>
        <time>2020-09-29T08:58:10Z</time>
      </trkpt>
      <trkpt lat="40.8157900" lon="-3.5380600">
        <ele>697.0</ele>
        <time>2020-09-29T08:58:11Z</time>
      </trkpt>
      <trkpt lat="40.8158820" lon="-3.5380380">
        <ele>698.0</ele>
        <time>2020-09-29T08:58:12Z</time>
      </trkpt>
      <trkpt lat="40.8159300" lon="-3.5380250">
        <ele>698.0</ele>
        <time>2020-09-29T08:58:13Z</time>
      </trkpt>
      <trkpt lat="40.8159300" lon="-3.5380250">
        <ele>698.0</ele>
        <time>2020-09-29T08:58:14Z</time>
      </trkpt>
      <trkpt lat="40.8160250" lon="-3.5379970">
        <ele>698.0</ele>
        <time>2020-09-29T08:58:15Z</time>
      </trkpt>
      <trkpt lat="40.8160720" lon="-3.5379870">
        <ele>698.0</ele>
        <time>2020-09-29T08:58:16Z</time>
      </trkpt>
      <trkpt lat="40.8161180" lon="-3.5379750">
        <ele>698.0</ele>
        <time>2020-09-29T08:58:17Z</time>
      </trkpt>
      <trkpt lat="40.8161180" lon="-3.5379750">
        <ele>699.0</ele>
        <time>2020-09-29T08:58:18Z</time>
      </trkpt>
      <trkpt lat="40.8162130" lon="-3.5379550">
        <ele>699.0</ele>
        <time>2020-09-29T08:58:19Z</time>
      </trkpt>
      <trkpt lat="40.8162130" lon="-3.5379550">
        <ele>699.0</ele>
        <time>2020-09-29T08:58:20Z</time>
      </trkpt>
      <trkpt lat="40.8163080" lon="-3.5379350">
        <ele>699.0</ele>
        <time>2020-09-29T08:58:21Z</time>
      </trkpt>
      <trkpt lat="40.8163580" lon="-3.5379200">
        <ele>699.0</ele>
        <time>2020-09-29T08:58:22Z</time>
      </trkpt>
      <trkpt lat="40.8163580" lon="-3.5379200">
        <ele>699.0</ele>
        <time>2020-09-29T08:58:23Z</time>
      </trkpt>
      <trkpt lat="40.8164570" lon="-3.5378930">
        <ele>699.0</ele>
        <time>2020-09-29T08:58:24Z</time>
      </trkpt>
      <trkpt lat="40.8165070" lon="-3.5378820">
        <ele>699.0</ele>
        <time>2020-09-29T08:58:25Z</time>
      </trkpt>
      <trkpt lat="40.8165550" lon="-3.5378700">
        <ele>699.0</ele>
        <time>2020-09-29T08:58:26Z</time>
      </trkpt>
      <trkpt lat="40.8165550" lon="-3.5378700">
        <ele>699.0</ele>
        <time>2020-09-29T08:58:27Z</time>
      </trkpt>
      <trkpt lat="40.8166550" lon="-3.5378480">
        <ele>699.0</ele>
        <time>2020-09-29T08:58:28Z</time>
      </trkpt>
      <trkpt lat="40.8167070" lon="-3.5378370">
        <ele>699.0</ele>
        <time>2020-09-29T08:58:29Z</time>
      </trkpt>
      <trkpt lat="40.8167070" lon="-3.5378370">
        <ele>699.0</ele>
        <time>2020-09-29T08:58:30Z</time>
      </trkpt>
      <trkpt lat="40.8167980" lon="-3.5378170">
        <ele>699.0</ele>
        <time>2020-09-29T08:58:31Z</time>
      </trkpt>
      <trkpt lat="40.8167980" lon="-3.5378170">
        <ele>699.0</ele>
        <time>2020-09-29T08:58:32Z</time>
      </trkpt>
      <trkpt lat="40.8168980" lon="-3.5377980">
        <ele>699.0</ele>
        <time>2020-09-29T08:58:33Z</time>
      </trkpt>
      <trkpt lat="40.8168980" lon="-3.5377980">
        <ele>699.0</ele>
        <time>2020-09-29T08:58:34Z</time>
      </trkpt>
      <trkpt lat="40.8169970" lon="-3.5377770">
        <ele>700.0</ele>
        <time>2020-09-29T08:58:35Z</time>
      </trkpt>
      <trkpt lat="40.8169970" lon="-3.5377770">
        <ele>700.0</ele>
        <time>2020-09-29T08:58:36Z</time>
      </trkpt>
      <trkpt lat="40.8170970" lon="-3.5377530">
        <ele>700.0</ele>
        <time>2020-09-29T08:58:37Z</time>
      </trkpt>
      <trkpt lat="40.8170970" lon="-3.5377530">
        <ele>700.0</ele>
        <time>2020-09-29T08:58:38Z</time>
      </trkpt>
      <trkpt lat="40.8171970" lon="-3.5377300">
        <ele>700.0</ele>
        <time>2020-09-29T08:58:39Z</time>
      </trkpt>
      <trkpt lat="40.8172470" lon="-3.5377170">
        <ele>700.0</ele>
        <time>2020-09-29T08:58:40Z</time>
      </trkpt>
      <trkpt lat="40.8172470" lon="-3.5377170">
        <ele>701.0</ele>
        <time>2020-09-29T08:58:41Z</time>
      </trkpt>
      <trkpt lat="40.8173480" lon="-3.5376920">
        <ele>701.0</ele>
        <time>2020-09-29T08:58:42Z</time>
      </trkpt>
      <trkpt lat="40.8173480" lon="-3.5376920">
        <ele>701.0</ele>
        <time>2020-09-29T08:58:43Z</time>
      </trkpt>
      <trkpt lat="40.8174500" lon="-3.5376650">
        <ele>701.0</ele>
        <time>2020-09-29T08:58:44Z</time>
      </trkpt>
      <trkpt lat="40.8175020" lon="-3.5376520">
        <ele>701.0</ele>
        <time>2020-09-29T08:58:45Z</time>
      </trkpt>
      <trkpt lat="40.8175020" lon="-3.5376520">
        <ele>701.0</ele>
        <time>2020-09-29T08:58:46Z</time>
      </trkpt>
      <trkpt lat="40.8176050" lon="-3.5376220">
        <ele>701.0</ele>
        <time>2020-09-29T08:58:47Z</time>
      </trkpt>
      <trkpt lat="40.8176050" lon="-3.5376220">
        <ele>701.0</ele>
        <time>2020-09-29T08:58:48Z</time>
      </trkpt>
      <trkpt lat="40.8177080" lon="-3.5375930">
        <ele>701.0</ele>
        <time>2020-09-29T08:58:49Z</time>
      </trkpt>
      <trkpt lat="40.8177080" lon="-3.5375930">
        <ele>701.0</ele>
        <time>2020-09-29T08:58:50Z</time>
      </trkpt>
      <trkpt lat="40.8178130" lon="-3.5375680">
        <ele>701.0</ele>
        <time>2020-09-29T08:58:51Z</time>
      </trkpt>
      <trkpt lat="40.8178650" lon="-3.5375530">
        <ele>701.0</ele>
        <time>2020-09-29T08:58:52Z</time>
      </trkpt>
      <trkpt lat="40.8178650" lon="-3.5375530">
        <ele>701.0</ele>
        <time>2020-09-29T08:58:53Z</time>
      </trkpt>
      <trkpt lat="40.8179680" lon="-3.5375270">
        <ele>702.0</ele>
        <time>2020-09-29T08:58:54Z</time>
      </trkpt>
      <trkpt lat="40.8179680" lon="-3.5375270">
        <ele>702.0</ele>
        <time>2020-09-29T08:58:55Z</time>
      </trkpt>
      <trkpt lat="40.8180720" lon="-3.5374980">
        <ele>702.0</ele>
        <time>2020-09-29T08:58:56Z</time>
      </trkpt>
      <trkpt lat="40.8180720" lon="-3.5374980">
        <ele>702.0</ele>
        <time>2020-09-29T08:58:57Z</time>
      </trkpt>
      <trkpt lat="40.8181750" lon="-3.5374720">
        <ele>702.0</ele>
        <time>2020-09-29T08:58:58Z</time>
      </trkpt>
      <trkpt lat="40.8181750" lon="-3.5374720">
        <ele>702.0</ele>
        <time>2020-09-29T08:58:59Z</time>
      </trkpt>
      <trkpt lat="40.8182800" lon="-3.5374500">
        <ele>702.0</ele>
        <time>2020-09-29T08:59:00Z</time>
      </trkpt>
      <trkpt lat="40.8182800" lon="-3.5374500">
        <ele>702.0</ele>
        <time>2020-09-29T08:59:01Z</time>
      </trkpt>
      <trkpt lat="40.8183830" lon="-3.5374220">
        <ele>702.0</ele>
        <time>2020-09-29T08:59:02Z</time>
      </trkpt>
      <trkpt lat="40.8183830" lon="-3.5374220">
        <ele>702.0</ele>
        <time>2020-09-29T08:59:03Z</time>
      </trkpt>
      <trkpt lat="40.8184880" lon="-3.5373920">
        <ele>702.0</ele>
        <time>2020-09-29T08:59:04Z</time>
      </trkpt>
      <trkpt lat="40.8185400" lon="-3.5373770">
        <ele>703.0</ele>
        <time>2020-09-29T08:59:05Z</time>
      </trkpt>
      <trkpt lat="40.8185400" lon="-3.5373770">
        <ele>703.0</ele>
        <time>2020-09-29T08:59:06Z</time>
      </trkpt>
      <trkpt lat="40.8186470" lon="-3.5373500">
        <ele>703.0</ele>
        <time>2020-09-29T08:59:07Z</time>
      </trkpt>
      <trkpt lat="40.8186470" lon="-3.5373500">
        <ele>703.0</ele>
        <time>2020-09-29T08:59:08Z</time>
      </trkpt>
      <trkpt lat="40.8187520" lon="-3.5373230">
        <ele>703.0</ele>
        <time>2020-09-29T08:59:09Z</time>
      </trkpt>
      <trkpt lat="40.8187520" lon="-3.5373230">
        <ele>703.0</ele>
        <time>2020-09-29T08:59:10Z</time>
      </trkpt>
      <trkpt lat="40.8188570" lon="-3.5372950">
        <ele>703.0</ele>
        <time>2020-09-29T08:59:11Z</time>
      </trkpt>
      <trkpt lat="40.8188570" lon="-3.5372950">
        <ele>703.0</ele>
        <time>2020-09-29T08:59:12Z</time>
      </trkpt>
      <trkpt lat="40.8189620" lon="-3.5372680">
        <ele>703.0</ele>
        <time>2020-09-29T08:59:13Z</time>
      </trkpt>
      <trkpt lat="40.8189620" lon="-3.5372680">
        <ele>703.0</ele>
        <time>2020-09-29T08:59:14Z</time>
      </trkpt>
      <trkpt lat="40.8190670" lon="-3.5372400">
        <ele>704.0</ele>
        <time>2020-09-29T08:59:15Z</time>
      </trkpt>
      <trkpt lat="40.8191200" lon="-3.5372280">
        <ele>704.0</ele>
        <time>2020-09-29T08:59:16Z</time>
      </trkpt>
      <trkpt lat="40.8191200" lon="-3.5372280">
        <ele>704.0</ele>
        <time>2020-09-29T08:59:17Z</time>
      </trkpt>
      <trkpt lat="40.8192270" lon="-3.5372050">
        <ele>704.0</ele>
        <time>2020-09-29T08:59:18Z</time>
      </trkpt>
      <trkpt lat="40.8192800" lon="-3.5371920">
        <ele>704.0</ele>
        <time>2020-09-29T08:59:19Z</time>
      </trkpt>
      <trkpt lat="40.8192800" lon="-3.5371920">
        <ele>704.0</ele>
        <time>2020-09-29T08:59:20Z</time>
      </trkpt>
      <trkpt lat="40.8193850" lon="-3.5371650">
        <ele>704.0</ele>
        <time>2020-09-29T08:59:21Z</time>
      </trkpt>
      <trkpt lat="40.8194380" lon="-3.5371520">
        <ele>704.0</ele>
        <time>2020-09-29T08:59:22Z</time>
      </trkpt>
      <trkpt lat="40.8194380" lon="-3.5371520">
        <ele>704.0</ele>
        <time>2020-09-29T08:59:23Z</time>
      </trkpt>
      <trkpt lat="40.8195430" lon="-3.5371230">
        <ele>704.0</ele>
        <time>2020-09-29T08:59:24Z</time>
      </trkpt>
      <trkpt lat="40.8195430" lon="-3.5371230">
        <ele>704.0</ele>
        <time>2020-09-29T08:59:25Z</time>
      </trkpt>
      <trkpt lat="40.8196500" lon="-3.5370930">
        <ele>704.0</ele>
        <time>2020-09-29T08:59:26Z</time>
      </trkpt>
      <trkpt lat="40.8196500" lon="-3.5370930">
        <ele>704.0</ele>
        <time>2020-09-29T08:59:27Z</time>
      </trkpt>
      <trkpt lat="40.8197550" lon="-3.5370630">
        <ele>704.0</ele>
        <time>2020-09-29T08:59:28Z</time>
      </trkpt>
      <trkpt lat="40.8197550" lon="-3.5370630">
        <ele>704.0</ele>
        <time>2020-09-29T08:59:29Z</time>
      </trkpt>
      <trkpt lat="40.8198620" lon="-3.5370370">
        <ele>704.0</ele>
        <time>2020-09-29T08:59:30Z</time>
      </trkpt>
      <trkpt lat="40.8199130" lon="-3.5370230">
        <ele>704.0</ele>
        <time>2020-09-29T08:59:31Z</time>
      </trkpt>
      <trkpt lat="40.8199130" lon="-3.5370230">
        <ele>704.0</ele>
        <time>2020-09-29T08:59:32Z</time>
      </trkpt>
      <trkpt lat="40.8200170" lon="-3.5370000">
        <ele>704.0</ele>
        <time>2020-09-29T08:59:33Z</time>
      </trkpt>
      <trkpt lat="40.8200650" lon="-3.5369870">
        <ele>705.0</ele>
        <time>2020-09-29T08:59:34Z</time>
      </trkpt>
      <trkpt lat="40.8200650" lon="-3.5369870">
        <ele>705.0</ele>
        <time>2020-09-29T08:59:35Z</time>
      </trkpt>
      <trkpt lat="40.8201700" lon="-3.5369580">
        <ele>705.0</ele>
        <time>2020-09-29T08:59:36Z</time>
      </trkpt>
      <trkpt lat="40.8202230" lon="-3.5369420">
        <ele>705.0</ele>
        <time>2020-09-29T08:59:37Z</time>
      </trkpt>
      <trkpt lat="40.8202230" lon="-3.5369420">
        <ele>705.0</ele>
        <time>2020-09-29T08:59:38Z</time>
      </trkpt>
      <trkpt lat="40.8203330" lon="-3.5369020">
        <ele>705.0</ele>
        <time>2020-09-29T08:59:39Z</time>
      </trkpt>
      <trkpt lat="40.8203920" lon="-3.5368780">
        <ele>705.0</ele>
        <time>2020-09-29T08:59:40Z</time>
      </trkpt>
      <trkpt lat="40.8203920" lon="-3.5368780">
        <ele>705.0</ele>
        <time>2020-09-29T08:59:41Z</time>
      </trkpt>
      <trkpt lat="40.8205100" lon="-3.5368130">
        <ele>705.0</ele>
        <time>2020-09-29T08:59:42Z</time>
      </trkpt>
      <trkpt lat="40.8205680" lon="-3.5367750">
        <ele>705.0</ele>
        <time>2020-09-29T08:59:43Z</time>
      </trkpt>
      <trkpt lat="40.8205680" lon="-3.5367750">
        <ele>705.0</ele>
        <time>2020-09-29T08:59:44Z</time>
      </trkpt>
      <trkpt lat="40.8206880" lon="-3.5366970">
        <ele>704.0</ele>
        <time>2020-09-29T08:59:45Z</time>
      </trkpt>
      <trkpt lat="40.8206880" lon="-3.5366970">
        <ele>704.0</ele>
        <time>2020-09-29T08:59:46Z</time>
      </trkpt>
      <trkpt lat="40.8208050" lon="-3.5366100">
        <ele>704.0</ele>
        <time>2020-09-29T08:59:47Z</time>
      </trkpt>
      <trkpt lat="40.8208630" lon="-3.5365650">
        <ele>704.0</ele>
        <time>2020-09-29T08:59:48Z</time>
      </trkpt>
      <trkpt lat="40.8208630" lon="-3.5365650">
        <ele>704.0</ele>
        <time>2020-09-29T08:59:49Z</time>
      </trkpt>
      <trkpt lat="40.8209780" lon="-3.5364770">
        <ele>704.0</ele>
        <time>2020-09-29T08:59:50Z</time>
      </trkpt>
      <trkpt lat="40.8209780" lon="-3.5364770">
        <ele>703.0</ele>
        <time>2020-09-29T08:59:51Z</time>
      </trkpt>
      <trkpt lat="40.8210950" lon="-3.5363900">
        <ele>703.0</ele>
        <time>2020-09-29T08:59:52Z</time>
      </trkpt>
      <trkpt lat="40.8211520" lon="-3.5363470">
        <ele>703.0</ele>
        <time>2020-09-29T08:59:53Z</time>
      </trkpt>
      <trkpt lat="40.8211520" lon="-3.5363470">
        <ele>703.0</ele>
        <time>2020-09-29T08:59:54Z</time>
      </trkpt>
      <trkpt lat="40.8212650" lon="-3.5362650">
        <ele>703.0</ele>
        <time>2020-09-29T08:59:55Z</time>
      </trkpt>
      <trkpt lat="40.8212650" lon="-3.5362650">
        <ele>703.0</ele>
        <time>2020-09-29T08:59:56Z</time>
      </trkpt>
      <trkpt lat="40.8213800" lon="-3.5361820">
        <ele>703.0</ele>
        <time>2020-09-29T08:59:57Z</time>
      </trkpt>
      <trkpt lat="40.8213800" lon="-3.5361820">
        <ele>703.0</ele>
        <time>2020-09-29T08:59:58Z</time>
      </trkpt>
      <trkpt lat="40.8214970" lon="-3.5361020">
        <ele>703.0</ele>
        <time>2020-09-29T08:59:59Z</time>
      </trkpt>
      <trkpt lat="40.8214970" lon="-3.5361020">
        <ele>703.0</ele>
        <time>2020-09-29T09:00:00Z</time>
      </trkpt>
      <trkpt lat="40.8216150" lon="-3.5360330">
        <ele>703.0</ele>
        <time>2020-09-29T09:00:01Z</time>
      </trkpt>
      <trkpt lat="40.8216150" lon="-3.5360330">
        <ele>703.0</ele>
        <time>2020-09-29T09:00:02Z</time>
      </trkpt>
      <trkpt lat="40.8217380" lon="-3.5359750">
        <ele>703.0</ele>
        <time>2020-09-29T09:00:03Z</time>
      </trkpt>
      <trkpt lat="40.8217380" lon="-3.5359750">
        <ele>703.0</ele>
        <time>2020-09-29T09:00:04Z</time>
      </trkpt>
      <trkpt lat="40.8218600" lon="-3.5359170">
        <ele>703.0</ele>
        <time>2020-09-29T09:00:05Z</time>
      </trkpt>
      <trkpt lat="40.8218600" lon="-3.5359170">
        <ele>703.0</ele>
        <time>2020-09-29T09:00:06Z</time>
      </trkpt>
      <trkpt lat="40.8219800" lon="-3.5358600">
        <ele>703.0</ele>
        <time>2020-09-29T09:00:07Z</time>
      </trkpt>
      <trkpt lat="40.8219800" lon="-3.5358600">
        <ele>703.0</ele>
        <time>2020-09-29T09:00:08Z</time>
      </trkpt>
      <trkpt lat="40.8220970" lon="-3.5358080">
        <ele>703.0</ele>
        <time>2020-09-29T09:00:09Z</time>
      </trkpt>
      <trkpt lat="40.8220970" lon="-3.5358080">
        <ele>703.0</ele>
        <time>2020-09-29T09:00:10Z</time>
      </trkpt>
      <trkpt lat="40.8222100" lon="-3.5357550">
        <ele>703.0</ele>
        <time>2020-09-29T09:00:11Z</time>
      </trkpt>
      <trkpt lat="40.8222100" lon="-3.5357550">
        <ele>703.0</ele>
        <time>2020-09-29T09:00:12Z</time>
      </trkpt>
      <trkpt lat="40.8223220" lon="-3.5356950">
        <ele>703.0</ele>
        <time>2020-09-29T09:00:13Z</time>
      </trkpt>
      <trkpt lat="40.8223220" lon="-3.5356950">
        <ele>703.0</ele>
        <time>2020-09-29T09:00:14Z</time>
      </trkpt>
      <trkpt lat="40.8224320" lon="-3.5356400">
        <ele>703.0</ele>
        <time>2020-09-29T09:00:15Z</time>
      </trkpt>
      <trkpt lat="40.8224320" lon="-3.5356400">
        <ele>703.0</ele>
        <time>2020-09-29T09:00:16Z</time>
      </trkpt>
      <trkpt lat="40.8225430" lon="-3.5355820">
        <ele>703.0</ele>
        <time>2020-09-29T09:00:17Z</time>
      </trkpt>
      <trkpt lat="40.8225430" lon="-3.5355820">
        <ele>703.0</ele>
        <time>2020-09-29T09:00:18Z</time>
      </trkpt>
      <trkpt lat="40.8226550" lon="-3.5355250">
        <ele>703.0</ele>
        <time>2020-09-29T09:00:19Z</time>
      </trkpt>
      <trkpt lat="40.8227120" lon="-3.5354950">
        <ele>703.0</ele>
        <time>2020-09-29T09:00:20Z</time>
      </trkpt>
      <trkpt lat="40.8227120" lon="-3.5354950">
        <ele>703.0</ele>
        <time>2020-09-29T09:00:21Z</time>
      </trkpt>
      <trkpt lat="40.8228220" lon="-3.5354370">
        <ele>703.0</ele>
        <time>2020-09-29T09:00:22Z</time>
      </trkpt>
      <trkpt lat="40.8228730" lon="-3.5354080">
        <ele>703.0</ele>
        <time>2020-09-29T09:00:23Z</time>
      </trkpt>
      <trkpt lat="40.8228730" lon="-3.5354080">
        <ele>703.0</ele>
        <time>2020-09-29T09:00:24Z</time>
      </trkpt>
      <trkpt lat="40.8229680" lon="-3.5353530">
        <ele>703.0</ele>
        <time>2020-09-29T09:00:25Z</time>
      </trkpt>
      <trkpt lat="40.8229680" lon="-3.5353530">
        <ele>703.0</ele>
        <time>2020-09-29T09:00:26Z</time>
      </trkpt>
      <trkpt lat="40.8230700" lon="-3.5353100">
        <ele>703.0</ele>
        <time>2020-09-29T09:00:27Z</time>
      </trkpt>
      <trkpt lat="40.8231220" lon="-3.5352870">
        <ele>703.0</ele>
        <time>2020-09-29T09:00:28Z</time>
      </trkpt>
      <trkpt lat="40.8231220" lon="-3.5352870">
        <ele>703.0</ele>
        <time>2020-09-29T09:00:29Z</time>
      </trkpt>
      <trkpt lat="40.8232280" lon="-3.5352600">
        <ele>703.0</ele>
        <time>2020-09-29T09:00:30Z</time>
      </trkpt>
      <trkpt lat="40.8232830" lon="-3.5352570">
        <ele>703.0</ele>
        <time>2020-09-29T09:00:31Z</time>
      </trkpt>
      <trkpt lat="40.8232830" lon="-3.5352570">
        <ele>703.0</ele>
        <time>2020-09-29T09:00:32Z</time>
      </trkpt>
      <trkpt lat="40.8233900" lon="-3.5352570">
        <ele>703.0</ele>
        <time>2020-09-29T09:00:33Z</time>
      </trkpt>
      <trkpt lat="40.8233900" lon="-3.5352570">
        <ele>703.0</ele>
        <time>2020-09-29T09:00:34Z</time>
      </trkpt>
      <trkpt lat="40.8235000" lon="-3.5352530">
        <ele>703.0</ele>
        <time>2020-09-29T09:00:35Z</time>
      </trkpt>
      <trkpt lat="40.8235580" lon="-3.5352450">
        <ele>703.0</ele>
        <time>2020-09-29T09:00:36Z</time>
      </trkpt>
      <trkpt lat="40.8235580" lon="-3.5352450">
        <ele>704.0</ele>
        <time>2020-09-29T09:00:37Z</time>
      </trkpt>
      <trkpt lat="40.8236730" lon="-3.5351850">
        <ele>704.0</ele>
        <time>2020-09-29T09:00:38Z</time>
      </trkpt>
      <trkpt lat="40.8236730" lon="-3.5351850">
        <ele>704.0</ele>
        <time>2020-09-29T09:00:39Z</time>
      </trkpt>
      <trkpt lat="40.8237750" lon="-3.5351030">
        <ele>704.0</ele>
        <time>2020-09-29T09:00:40Z</time>
      </trkpt>
      <trkpt lat="40.8237750" lon="-3.5351030">
        <ele>704.0</ele>
        <time>2020-09-29T09:00:41Z</time>
      </trkpt>
      <trkpt lat="40.8238650" lon="-3.5350120">
        <ele>704.0</ele>
        <time>2020-09-29T09:00:42Z</time>
      </trkpt>
      <trkpt lat="40.8239070" lon="-3.5349650">
        <ele>704.0</ele>
        <time>2020-09-29T09:00:43Z</time>
      </trkpt>
      <trkpt lat="40.8239070" lon="-3.5349650">
        <ele>704.0</ele>
        <time>2020-09-29T09:00:44Z</time>
      </trkpt>
      <trkpt lat="40.8239880" lon="-3.5348650">
        <ele>704.0</ele>
        <time>2020-09-29T09:00:45Z</time>
      </trkpt>
      <trkpt lat="40.8240280" lon="-3.5348150">
        <ele>704.0</ele>
        <time>2020-09-29T09:00:46Z</time>
      </trkpt>
      <trkpt lat="40.8240280" lon="-3.5348150">
        <ele>705.0</ele>
        <time>2020-09-29T09:00:47Z</time>
      </trkpt>
      <trkpt lat="40.8241030" lon="-3.5347100">
        <ele>705.0</ele>
        <time>2020-09-29T09:00:48Z</time>
      </trkpt>
      <trkpt lat="40.8241420" lon="-3.5346580">
        <ele>705.0</ele>
        <time>2020-09-29T09:00:49Z</time>
      </trkpt>
      <trkpt lat="40.8241420" lon="-3.5346580">
        <ele>705.0</ele>
        <time>2020-09-29T09:00:50Z</time>
      </trkpt>
      <trkpt lat="40.8242130" lon="-3.5345600">
        <ele>705.0</ele>
        <time>2020-09-29T09:00:51Z</time>
      </trkpt>
      <trkpt lat="40.8242130" lon="-3.5345600">
        <ele>705.0</ele>
        <time>2020-09-29T09:00:52Z</time>
      </trkpt>
      <trkpt lat="40.8242920" lon="-3.5344670">
        <ele>705.0</ele>
        <time>2020-09-29T09:00:53Z</time>
      </trkpt>
      <trkpt lat="40.8242920" lon="-3.5344670">
        <ele>705.0</ele>
        <time>2020-09-29T09:00:54Z</time>
      </trkpt>
      <trkpt lat="40.8243720" lon="-3.5343750">
        <ele>705.0</ele>
        <time>2020-09-29T09:00:55Z</time>
      </trkpt>
      <trkpt lat="40.8243720" lon="-3.5343750">
        <ele>705.0</ele>
        <time>2020-09-29T09:00:56Z</time>
      </trkpt>
      <trkpt lat="40.8244530" lon="-3.5342900">
        <ele>705.0</ele>
        <time>2020-09-29T09:00:57Z</time>
      </trkpt>
      <trkpt lat="40.8244530" lon="-3.5342900">
        <ele>705.0</ele>
        <time>2020-09-29T09:00:58Z</time>
      </trkpt>
      <trkpt lat="40.8245430" lon="-3.5342130">
        <ele>705.0</ele>
        <time>2020-09-29T09:00:59Z</time>
      </trkpt>
      <trkpt lat="40.8245430" lon="-3.5342130">
        <ele>706.0</ele>
        <time>2020-09-29T09:01:00Z</time>
      </trkpt>
      <trkpt lat="40.8246370" lon="-3.5341470">
        <ele>706.0</ele>
        <time>2020-09-29T09:01:01Z</time>
      </trkpt>
      <trkpt lat="40.8246370" lon="-3.5341470">
        <ele>706.0</ele>
        <time>2020-09-29T09:01:02Z</time>
      </trkpt>
      <trkpt lat="40.8247250" lon="-3.5340870">
        <ele>706.0</ele>
        <time>2020-09-29T09:01:03Z</time>
      </trkpt>
      <trkpt lat="40.8247250" lon="-3.5340870">
        <ele>706.0</ele>
        <time>2020-09-29T09:01:04Z</time>
      </trkpt>
      <trkpt lat="40.8248180" lon="-3.5340230">
        <ele>706.0</ele>
        <time>2020-09-29T09:01:05Z</time>
      </trkpt>
      <trkpt lat="40.8248180" lon="-3.5340230">
        <ele>706.0</ele>
        <time>2020-09-29T09:01:06Z</time>
      </trkpt>
      <trkpt lat="40.8249130" lon="-3.5339680">
        <ele>706.0</ele>
        <time>2020-09-29T09:01:07Z</time>
      </trkpt>
      <trkpt lat="40.8249130" lon="-3.5339680">
        <ele>707.0</ele>
        <time>2020-09-29T09:01:08Z</time>
      </trkpt>
      <trkpt lat="40.8250070" lon="-3.5339150">
        <ele>707.0</ele>
        <time>2020-09-29T09:01:09Z</time>
      </trkpt>
      <trkpt lat="40.8250070" lon="-3.5339150">
        <ele>707.0</ele>
        <time>2020-09-29T09:01:10Z</time>
      </trkpt>
      <trkpt lat="40.8251000" lon="-3.5338580">
        <ele>707.0</ele>
        <time>2020-09-29T09:01:11Z</time>
      </trkpt>
      <trkpt lat="40.8251000" lon="-3.5338580">
        <ele>707.0</ele>
        <time>2020-09-29T09:01:12Z</time>
      </trkpt>
      <trkpt lat="40.8251950" lon="-3.5338270">
        <ele>707.0</ele>
        <time>2020-09-29T09:01:13Z</time>
      </trkpt>
      <trkpt lat="40.8251950" lon="-3.5338270">
        <ele>707.0</ele>
        <time>2020-09-29T09:01:14Z</time>
      </trkpt>
      <trkpt lat="40.8252950" lon="-3.5338100">
        <ele>707.0</ele>
        <time>2020-09-29T09:01:15Z</time>
      </trkpt>
      <trkpt lat="40.8252950" lon="-3.5338100">
        <ele>707.0</ele>
        <time>2020-09-29T09:01:16Z</time>
      </trkpt>
      <trkpt lat="40.8253950" lon="-3.5337980">
        <ele>707.0</ele>
        <time>2020-09-29T09:01:17Z</time>
      </trkpt>
      <trkpt lat="40.8254420" lon="-3.5337970">
        <ele>707.0</ele>
        <time>2020-09-29T09:01:18Z</time>
      </trkpt>
      <trkpt lat="40.8254900" lon="-3.5338020">
        <ele>707.0</ele>
        <time>2020-09-29T09:01:19Z</time>
      </trkpt>
      <trkpt lat="40.8254900" lon="-3.5338020">
        <ele>707.0</ele>
        <time>2020-09-29T09:01:20Z</time>
      </trkpt>
      <trkpt lat="40.8255850" lon="-3.5338270">
        <ele>707.0</ele>
        <time>2020-09-29T09:01:21Z</time>
      </trkpt>
      <trkpt lat="40.8255850" lon="-3.5338270">
        <ele>707.0</ele>
        <time>2020-09-29T09:01:22Z</time>
      </trkpt>
      <trkpt lat="40.8256820" lon="-3.5338630">
        <ele>707.0</ele>
        <time>2020-09-29T09:01:23Z</time>
      </trkpt>
      <trkpt lat="40.8256820" lon="-3.5338630">
        <ele>707.0</ele>
        <time>2020-09-29T09:01:24Z</time>
      </trkpt>
      <trkpt lat="40.8257770" lon="-3.5339080">
        <ele>708.0</ele>
        <time>2020-09-29T09:01:25Z</time>
      </trkpt>
      <trkpt lat="40.8257770" lon="-3.5339080">
        <ele>708.0</ele>
        <time>2020-09-29T09:01:26Z</time>
      </trkpt>
      <trkpt lat="40.8258730" lon="-3.5339520">
        <ele>708.0</ele>
        <time>2020-09-29T09:01:27Z</time>
      </trkpt>
      <trkpt lat="40.8259200" lon="-3.5339730">
        <ele>708.0</ele>
        <time>2020-09-29T09:01:28Z</time>
      </trkpt>
      <trkpt lat="40.8259200" lon="-3.5339730">
        <ele>708.0</ele>
        <time>2020-09-29T09:01:29Z</time>
      </trkpt>
      <trkpt lat="40.8260150" lon="-3.5340080">
        <ele>708.0</ele>
        <time>2020-09-29T09:01:30Z</time>
      </trkpt>
      <trkpt lat="40.8260620" lon="-3.5340280">
        <ele>708.0</ele>
        <time>2020-09-29T09:01:31Z</time>
      </trkpt>
      <trkpt lat="40.8260620" lon="-3.5340280">
        <ele>708.0</ele>
        <time>2020-09-29T09:01:32Z</time>
      </trkpt>
      <trkpt lat="40.8261520" lon="-3.5340880">
        <ele>708.0</ele>
        <time>2020-09-29T09:01:33Z</time>
      </trkpt>
      <trkpt lat="40.8261520" lon="-3.5340880">
        <ele>708.0</ele>
        <time>2020-09-29T09:01:34Z</time>
      </trkpt>
      <trkpt lat="40.8262350" lon="-3.5341580">
        <ele>708.0</ele>
        <time>2020-09-29T09:01:35Z</time>
      </trkpt>
      <trkpt lat="40.8262350" lon="-3.5341580">
        <ele>708.0</ele>
        <time>2020-09-29T09:01:36Z</time>
      </trkpt>
      <trkpt lat="40.8263130" lon="-3.5342320">
        <ele>708.0</ele>
        <time>2020-09-29T09:01:37Z</time>
      </trkpt>
      <trkpt lat="40.8263130" lon="-3.5342320">
        <ele>708.0</ele>
        <time>2020-09-29T09:01:38Z</time>
      </trkpt>
      <trkpt lat="40.8263850" lon="-3.5342980">
        <ele>708.0</ele>
        <time>2020-09-29T09:01:39Z</time>
      </trkpt>
      <trkpt lat="40.8263850" lon="-3.5342980">
        <ele>708.0</ele>
        <time>2020-09-29T09:01:40Z</time>
      </trkpt>
      <trkpt lat="40.8264620" lon="-3.5343450">
        <ele>708.0</ele>
        <time>2020-09-29T09:01:41Z</time>
      </trkpt>
      <trkpt lat="40.8264620" lon="-3.5343450">
        <ele>708.0</ele>
        <time>2020-09-29T09:01:42Z</time>
      </trkpt>
      <trkpt lat="40.8265400" lon="-3.5343880">
        <ele>708.0</ele>
        <time>2020-09-29T09:01:43Z</time>
      </trkpt>
      <trkpt lat="40.8265400" lon="-3.5343880">
        <ele>709.0</ele>
        <time>2020-09-29T09:01:44Z</time>
      </trkpt>
      <trkpt lat="40.8266150" lon="-3.5344400">
        <ele>709.0</ele>
        <time>2020-09-29T09:01:45Z</time>
      </trkpt>
      <trkpt lat="40.8266150" lon="-3.5344400">
        <ele>709.0</ele>
        <time>2020-09-29T09:01:46Z</time>
      </trkpt>
      <trkpt lat="40.8266900" lon="-3.5344920">
        <ele>709.0</ele>
        <time>2020-09-29T09:01:47Z</time>
      </trkpt>
      <trkpt lat="40.8267280" lon="-3.5345180">
        <ele>709.0</ele>
        <time>2020-09-29T09:01:48Z</time>
      </trkpt>
      <trkpt lat="40.8267650" lon="-3.5345470">
        <ele>709.0</ele>
        <time>2020-09-29T09:01:49Z</time>
      </trkpt>
      <trkpt lat="40.8267650" lon="-3.5345470">
        <ele>710.0</ele>
        <time>2020-09-29T09:01:50Z</time>
      </trkpt>
      <trkpt lat="40.8268380" lon="-3.5345930">
        <ele>710.0</ele>
        <time>2020-09-29T09:01:51Z</time>
      </trkpt>
      <trkpt lat="40.8268720" lon="-3.5346020">
        <ele>710.0</ele>
        <time>2020-09-29T09:01:52Z</time>
      </trkpt>
      <trkpt lat="40.8268720" lon="-3.5346020">
        <ele>710.0</ele>
        <time>2020-09-29T09:01:53Z</time>
      </trkpt>
      <trkpt lat="40.8269350" lon="-3.5345880">
        <ele>711.0</ele>
        <time>2020-09-29T09:01:54Z</time>
      </trkpt>
      <trkpt lat="40.8269700" lon="-3.5345820">
        <ele>711.0</ele>
        <time>2020-09-29T09:01:55Z</time>
      </trkpt>
      <trkpt lat="40.8269700" lon="-3.5345820">
        <ele>711.0</ele>
        <time>2020-09-29T09:01:56Z</time>
      </trkpt>
      <trkpt lat="40.8270570" lon="-3.5345630">
        <ele>711.0</ele>
        <time>2020-09-29T09:01:57Z</time>
      </trkpt>
      <trkpt lat="40.8270570" lon="-3.5345630">
        <ele>711.0</ele>
        <time>2020-09-29T09:01:58Z</time>
      </trkpt>
      <trkpt lat="40.8271500" lon="-3.5345480">
        <ele>711.0</ele>
        <time>2020-09-29T09:01:59Z</time>
      </trkpt>
      <trkpt lat="40.8271920" lon="-3.5345450">
        <ele>711.0</ele>
        <time>2020-09-29T09:02:00Z</time>
      </trkpt>
      <trkpt lat="40.8271920" lon="-3.5345450">
        <ele>711.0</ele>
        <time>2020-09-29T09:02:01Z</time>
      </trkpt>
      <trkpt lat="40.8272620" lon="-3.5345500">
        <ele>711.0</ele>
        <time>2020-09-29T09:02:02Z</time>
      </trkpt>
      <trkpt lat="40.8272620" lon="-3.5345500">
        <ele>711.0</ele>
        <time>2020-09-29T09:02:03Z</time>
      </trkpt>
      <trkpt lat="40.8272950" lon="-3.5345170">
        <ele>711.0</ele>
        <time>2020-09-29T09:02:04Z</time>
      </trkpt>
      <trkpt lat="40.8272950" lon="-3.5345170">
        <ele>711.0</ele>
        <time>2020-09-29T09:02:05Z</time>
      </trkpt>
      <trkpt lat="40.8273580" lon="-3.5344470">
        <ele>711.0</ele>
        <time>2020-09-29T09:02:06Z</time>
      </trkpt>
      <trkpt lat="40.8273920" lon="-3.5344100">
        <ele>711.0</ele>
        <time>2020-09-29T09:02:07Z</time>
      </trkpt>
      <trkpt lat="40.8273920" lon="-3.5344100">
        <ele>711.0</ele>
        <time>2020-09-29T09:02:08Z</time>
      </trkpt>
      <trkpt lat="40.8274480" lon="-3.5343520">
        <ele>711.0</ele>
        <time>2020-09-29T09:02:09Z</time>
      </trkpt>
      <trkpt lat="40.8274480" lon="-3.5343520">
        <ele>711.0</ele>
        <time>2020-09-29T09:02:10Z</time>
      </trkpt>
      <trkpt lat="40.8274830" lon="-3.5343100">
        <ele>711.0</ele>
        <time>2020-09-29T09:02:11Z</time>
      </trkpt>
      <trkpt lat="40.8274830" lon="-3.5343100">
        <ele>712.0</ele>
        <time>2020-09-29T09:02:12Z</time>
      </trkpt>
      <trkpt lat="40.8274950" lon="-3.5342980">
        <ele>712.0</ele>
        <time>2020-09-29T09:02:13Z</time>
      </trkpt>
      <trkpt lat="40.8274950" lon="-3.5342980">
        <ele>712.0</ele>
        <time>2020-09-29T09:02:14Z</time>
      </trkpt>
      <trkpt lat="40.8275020" lon="-3.5343030">
        <ele>712.0</ele>
        <time>2020-09-29T09:02:26Z</time>
      </trkpt>
      <trkpt lat="40.8275020" lon="-3.5343030">
        <ele>712.0</ele>
        <time>2020-09-29T09:02:27Z</time>
      </trkpt>
      <trkpt lat="40.8275650" lon="-3.5343750">
        <ele>712.0</ele>
        <time>2020-09-29T09:46:16Z</time>
      </trkpt>
      <trkpt lat="40.8275650" lon="-3.5343750">
        <ele>712.0</ele>
        <time>2020-09-29T09:46:17Z</time>
      </trkpt>
      <trkpt lat="40.8275530" lon="-3.5344200">
        <ele>712.0</ele>
        <time>2020-09-29T09:46:18Z</time>
      </trkpt>
      <trkpt lat="40.8275530" lon="-3.5344200">
        <ele>711.0</ele>
        <time>2020-09-29T09:46:19Z</time>
      </trkpt>
      <trkpt lat="40.8275270" lon="-3.5344870">
        <ele>710.0</ele>
        <time>2020-09-29T09:46:20Z</time>
      </trkpt>
      <trkpt lat="40.8275180" lon="-3.5345400">
        <ele>710.0</ele>
        <time>2020-09-29T09:46:21Z</time>
      </trkpt>
      <trkpt lat="40.8275180" lon="-3.5345400">
        <ele>710.0</ele>
        <time>2020-09-29T09:46:22Z</time>
      </trkpt>
      <trkpt lat="40.8275050" lon="-3.5346480">
        <ele>710.0</ele>
        <time>2020-09-29T09:46:23Z</time>
      </trkpt>
      <trkpt lat="40.8274980" lon="-3.5347020">
        <ele>710.0</ele>
        <time>2020-09-29T09:46:24Z</time>
      </trkpt>
      <trkpt lat="40.8274970" lon="-3.5347530">
        <ele>710.0</ele>
        <time>2020-09-29T09:46:25Z</time>
      </trkpt>
      <trkpt lat="40.8274970" lon="-3.5347530">
        <ele>710.0</ele>
        <time>2020-09-29T09:46:26Z</time>
      </trkpt>
      <trkpt lat="40.8275070" lon="-3.5348530">
        <ele>710.0</ele>
        <time>2020-09-29T09:46:27Z</time>
      </trkpt>
      <trkpt lat="40.8275070" lon="-3.5348530">
        <ele>710.0</ele>
        <time>2020-09-29T09:46:28Z</time>
      </trkpt>
      <trkpt lat="40.8275250" lon="-3.5349500">
        <ele>710.0</ele>
        <time>2020-09-29T09:46:29Z</time>
      </trkpt>
      <trkpt lat="40.8275250" lon="-3.5349500">
        <ele>710.0</ele>
        <time>2020-09-29T09:46:30Z</time>
      </trkpt>
      <trkpt lat="40.8275320" lon="-3.5350620">
        <ele>710.0</ele>
        <time>2020-09-29T09:46:31Z</time>
      </trkpt>
      <trkpt lat="40.8275320" lon="-3.5350620">
        <ele>710.0</ele>
        <time>2020-09-29T09:46:32Z</time>
      </trkpt>
      <trkpt lat="40.8275250" lon="-3.5351820">
        <ele>710.0</ele>
        <time>2020-09-29T09:46:33Z</time>
      </trkpt>
      <trkpt lat="40.8275130" lon="-3.5352430">
        <ele>710.0</ele>
        <time>2020-09-29T09:46:34Z</time>
      </trkpt>
      <trkpt lat="40.8275130" lon="-3.5352430">
        <ele>710.0</ele>
        <time>2020-09-29T09:46:35Z</time>
      </trkpt>
      <trkpt lat="40.8274780" lon="-3.5353600">
        <ele>710.0</ele>
        <time>2020-09-29T09:46:36Z</time>
      </trkpt>
      <trkpt lat="40.8274780" lon="-3.5353600">
        <ele>710.0</ele>
        <time>2020-09-29T09:46:37Z</time>
      </trkpt>
      <trkpt lat="40.8274330" lon="-3.5354680">
        <ele>710.0</ele>
        <time>2020-09-29T09:46:38Z</time>
      </trkpt>
      <trkpt lat="40.8274330" lon="-3.5354680">
        <ele>710.0</ele>
        <time>2020-09-29T09:46:39Z</time>
      </trkpt>
      <trkpt lat="40.8273880" lon="-3.5355750">
        <ele>710.0</ele>
        <time>2020-09-29T09:46:40Z</time>
      </trkpt>
      <trkpt lat="40.8273880" lon="-3.5355750">
        <ele>710.0</ele>
        <time>2020-09-29T09:46:41Z</time>
      </trkpt>
      <trkpt lat="40.8273300" lon="-3.5356800">
        <ele>710.0</ele>
        <time>2020-09-29T09:46:42Z</time>
      </trkpt>
      <trkpt lat="40.8273300" lon="-3.5356800">
        <ele>711.0</ele>
        <time>2020-09-29T09:46:43Z</time>
      </trkpt>
      <trkpt lat="40.8272750" lon="-3.5357800">
        <ele>711.0</ele>
        <time>2020-09-29T09:46:44Z</time>
      </trkpt>
      <trkpt lat="40.8272750" lon="-3.5357800">
        <ele>711.0</ele>
        <time>2020-09-29T09:46:45Z</time>
      </trkpt>
      <trkpt lat="40.8272400" lon="-3.5358950">
        <ele>711.0</ele>
        <time>2020-09-29T09:46:46Z</time>
      </trkpt>
      <trkpt lat="40.8272120" lon="-3.5359470">
        <ele>712.0</ele>
        <time>2020-09-29T09:46:47Z</time>
      </trkpt>
      <trkpt lat="40.8272120" lon="-3.5359470">
        <ele>712.0</ele>
        <time>2020-09-29T09:46:48Z</time>
      </trkpt>
      <trkpt lat="40.8271700" lon="-3.5360570">
        <ele>712.0</ele>
        <time>2020-09-29T09:46:49Z</time>
      </trkpt>
      <trkpt lat="40.8271700" lon="-3.5360570">
        <ele>712.0</ele>
        <time>2020-09-29T09:46:50Z</time>
      </trkpt>
      <trkpt lat="40.8271330" lon="-3.5361530">
        <ele>713.0</ele>
        <time>2020-09-29T09:46:51Z</time>
      </trkpt>
      <trkpt lat="40.8271330" lon="-3.5361530">
        <ele>713.0</ele>
        <time>2020-09-29T09:46:52Z</time>
      </trkpt>
      <trkpt lat="40.8270880" lon="-3.5362530">
        <ele>714.0</ele>
        <time>2020-09-29T09:46:53Z</time>
      </trkpt>
      <trkpt lat="40.8270620" lon="-3.5363080">
        <ele>714.0</ele>
        <time>2020-09-29T09:46:54Z</time>
      </trkpt>
      <trkpt lat="40.8270620" lon="-3.5363080">
        <ele>714.0</ele>
        <time>2020-09-29T09:46:55Z</time>
      </trkpt>
      <trkpt lat="40.8270050" lon="-3.5364100">
        <ele>714.0</ele>
        <time>2020-09-29T09:46:56Z</time>
      </trkpt>
      <trkpt lat="40.8270050" lon="-3.5364100">
        <ele>715.0</ele>
        <time>2020-09-29T09:46:57Z</time>
      </trkpt>
      <trkpt lat="40.8269480" lon="-3.5365080">
        <ele>715.0</ele>
        <time>2020-09-29T09:46:58Z</time>
      </trkpt>
      <trkpt lat="40.8269150" lon="-3.5365580">
        <ele>715.0</ele>
        <time>2020-09-29T09:46:59Z</time>
      </trkpt>
      <trkpt lat="40.8269150" lon="-3.5365580">
        <ele>715.0</ele>
        <time>2020-09-29T09:47:00Z</time>
      </trkpt>
      <trkpt lat="40.8268550" lon="-3.5366550">
        <ele>716.0</ele>
        <time>2020-09-29T09:47:01Z</time>
      </trkpt>
      <trkpt lat="40.8268280" lon="-3.5367050">
        <ele>716.0</ele>
        <time>2020-09-29T09:47:02Z</time>
      </trkpt>
      <trkpt lat="40.8268280" lon="-3.5367050">
        <ele>716.0</ele>
        <time>2020-09-29T09:47:03Z</time>
      </trkpt>
      <trkpt lat="40.8267880" lon="-3.5368180">
        <ele>716.0</ele>
        <time>2020-09-29T09:47:04Z</time>
      </trkpt>
      <trkpt lat="40.8267880" lon="-3.5368180">
        <ele>716.0</ele>
        <time>2020-09-29T09:47:05Z</time>
      </trkpt>
      <trkpt lat="40.8267550" lon="-3.5369420">
        <ele>716.0</ele>
        <time>2020-09-29T09:47:06Z</time>
      </trkpt>
      <trkpt lat="40.8267550" lon="-3.5369420">
        <ele>717.0</ele>
        <time>2020-09-29T09:47:07Z</time>
      </trkpt>
      <trkpt lat="40.8267130" lon="-3.5370580">
        <ele>717.0</ele>
        <time>2020-09-29T09:47:08Z</time>
      </trkpt>
      <trkpt lat="40.8267130" lon="-3.5370580">
        <ele>717.0</ele>
        <time>2020-09-29T09:47:09Z</time>
      </trkpt>
      <trkpt lat="40.8266770" lon="-3.5371750">
        <ele>717.0</ele>
        <time>2020-09-29T09:47:10Z</time>
      </trkpt>
      <trkpt lat="40.8266770" lon="-3.5371750">
        <ele>717.0</ele>
        <time>2020-09-29T09:47:11Z</time>
      </trkpt>
      <trkpt lat="40.8266380" lon="-3.5372930">
        <ele>717.0</ele>
        <time>2020-09-29T09:47:12Z</time>
      </trkpt>
      <trkpt lat="40.8266220" lon="-3.5373530">
        <ele>717.0</ele>
        <time>2020-09-29T09:47:13Z</time>
      </trkpt>
      <trkpt lat="40.8266220" lon="-3.5373530">
        <ele>717.0</ele>
        <time>2020-09-29T09:47:14Z</time>
      </trkpt>
      <trkpt lat="40.8265950" lon="-3.5374750">
        <ele>717.0</ele>
        <time>2020-09-29T09:47:15Z</time>
      </trkpt>
      <trkpt lat="40.8265950" lon="-3.5374750">
        <ele>717.0</ele>
        <time>2020-09-29T09:47:16Z</time>
      </trkpt>
      <trkpt lat="40.8265700" lon="-3.5376020">
        <ele>718.0</ele>
        <time>2020-09-29T09:47:17Z</time>
      </trkpt>
      <trkpt lat="40.8265700" lon="-3.5376020">
        <ele>718.0</ele>
        <time>2020-09-29T09:47:18Z</time>
      </trkpt>
      <trkpt lat="40.8265620" lon="-3.5377300">
        <ele>718.0</ele>
        <time>2020-09-29T09:47:19Z</time>
      </trkpt>
      <trkpt lat="40.8265620" lon="-3.5377300">
        <ele>718.0</ele>
        <time>2020-09-29T09:47:20Z</time>
      </trkpt>
      <trkpt lat="40.8265500" lon="-3.5378620">
        <ele>718.0</ele>
        <time>2020-09-29T09:47:21Z</time>
      </trkpt>
      <trkpt lat="40.8265500" lon="-3.5378620">
        <ele>718.0</ele>
        <time>2020-09-29T09:47:22Z</time>
      </trkpt>
      <trkpt lat="40.8265480" lon="-3.5379850">
        <ele>718.0</ele>
        <time>2020-09-29T09:47:23Z</time>
      </trkpt>
      <trkpt lat="40.8265480" lon="-3.5379850">
        <ele>718.0</ele>
        <time>2020-09-29T09:47:24Z</time>
      </trkpt>
      <trkpt lat="40.8265520" lon="-3.5381070">
        <ele>718.0</ele>
        <time>2020-09-29T09:47:25Z</time>
      </trkpt>
      <trkpt lat="40.8265520" lon="-3.5381070">
        <ele>718.0</ele>
        <time>2020-09-29T09:47:26Z</time>
      </trkpt>
      <trkpt lat="40.8265720" lon="-3.5382250">
        <ele>719.0</ele>
        <time>2020-09-29T09:47:27Z</time>
      </trkpt>
      <trkpt lat="40.8265720" lon="-3.5382250">
        <ele>719.0</ele>
        <time>2020-09-29T09:47:28Z</time>
      </trkpt>
      <trkpt lat="40.8266180" lon="-3.5383270">
        <ele>719.0</ele>
        <time>2020-09-29T09:47:29Z</time>
      </trkpt>
      <trkpt lat="40.8266180" lon="-3.5383270">
        <ele>719.0</ele>
        <time>2020-09-29T09:47:30Z</time>
      </trkpt>
      <trkpt lat="40.8266180" lon="-3.5383270">
        <ele>719.0</ele>
        <time>2020-09-29T09:47:31Z</time>
      </trkpt>
      <trkpt lat="40.8266650" lon="-3.5384300">
        <ele>719.0</ele>
        <time>2020-09-29T09:47:32Z</time>
      </trkpt>
      <trkpt lat="40.8267200" lon="-3.5385230">
        <ele>719.0</ele>
        <time>2020-09-29T09:47:33Z</time>
      </trkpt>
      <trkpt lat="40.8267200" lon="-3.5385230">
        <ele>720.0</ele>
        <time>2020-09-29T09:47:34Z</time>
      </trkpt>
      <trkpt lat="40.8267770" lon="-3.5385930">
        <ele>720.0</ele>
        <time>2020-09-29T09:47:35Z</time>
      </trkpt>
      <trkpt lat="40.8267770" lon="-3.5385930">
        <ele>720.0</ele>
        <time>2020-09-29T09:47:36Z</time>
      </trkpt>
      <trkpt lat="40.8268400" lon="-3.5386580">
        <ele>721.0</ele>
        <time>2020-09-29T09:47:37Z</time>
      </trkpt>
      <trkpt lat="40.8268400" lon="-3.5386580">
        <ele>721.0</ele>
        <time>2020-09-29T09:47:38Z</time>
      </trkpt>
      <trkpt lat="40.8269050" lon="-3.5387280">
        <ele>721.0</ele>
        <time>2020-09-29T09:47:39Z</time>
      </trkpt>
      <trkpt lat="40.8269050" lon="-3.5387280">
        <ele>721.0</ele>
        <time>2020-09-29T09:47:40Z</time>
      </trkpt>
      <trkpt lat="40.8269700" lon="-3.5388100">
        <ele>721.0</ele>
        <time>2020-09-29T09:47:41Z</time>
      </trkpt>
      <trkpt lat="40.8269700" lon="-3.5388100">
        <ele>721.0</ele>
        <time>2020-09-29T09:47:42Z</time>
      </trkpt>
      <trkpt lat="40.8270430" lon="-3.5388870">
        <ele>722.0</ele>
        <time>2020-09-29T09:47:43Z</time>
      </trkpt>
      <trkpt lat="40.8270430" lon="-3.5388870">
        <ele>722.0</ele>
        <time>2020-09-29T09:47:44Z</time>
      </trkpt>
      <trkpt lat="40.8271150" lon="-3.5389600">
        <ele>722.0</ele>
        <time>2020-09-29T09:47:45Z</time>
      </trkpt>
      <trkpt lat="40.8271150" lon="-3.5389600">
        <ele>722.0</ele>
        <time>2020-09-29T09:47:46Z</time>
      </trkpt>
      <trkpt lat="40.8271830" lon="-3.5390400">
        <ele>722.0</ele>
        <time>2020-09-29T09:47:47Z</time>
      </trkpt>
      <trkpt lat="40.8271830" lon="-3.5390400">
        <ele>722.0</ele>
        <time>2020-09-29T09:47:48Z</time>
      </trkpt>
      <trkpt lat="40.8272500" lon="-3.5391100">
        <ele>723.0</ele>
        <time>2020-09-29T09:47:49Z</time>
      </trkpt>
      <trkpt lat="40.8272500" lon="-3.5391100">
        <ele>723.0</ele>
        <time>2020-09-29T09:47:50Z</time>
      </trkpt>
      <trkpt lat="40.8273220" lon="-3.5391850">
        <ele>723.0</ele>
        <time>2020-09-29T09:47:51Z</time>
      </trkpt>
      <trkpt lat="40.8273220" lon="-3.5391850">
        <ele>723.0</ele>
        <time>2020-09-29T09:47:52Z</time>
      </trkpt>
      <trkpt lat="40.8273820" lon="-3.5392500">
        <ele>723.0</ele>
        <time>2020-09-29T09:47:53Z</time>
      </trkpt>
      <trkpt lat="40.8273820" lon="-3.5392500">
        <ele>723.0</ele>
        <time>2020-09-29T09:47:54Z</time>
      </trkpt>
      <trkpt lat="40.8273820" lon="-3.5392500">
        <ele>724.0</ele>
        <time>2020-09-29T09:47:55Z</time>
      </trkpt>
      <trkpt lat="40.8274450" lon="-3.5393220">
        <ele>724.0</ele>
        <time>2020-09-29T09:47:56Z</time>
      </trkpt>
      <trkpt lat="40.8275150" lon="-3.5393880">
        <ele>724.0</ele>
        <time>2020-09-29T09:47:57Z</time>
      </trkpt>
      <trkpt lat="40.8275580" lon="-3.5394570">
        <ele>724.0</ele>
        <time>2020-09-29T09:47:58Z</time>
      </trkpt>
      <trkpt lat="40.8275580" lon="-3.5394570">
        <ele>724.0</ele>
        <time>2020-09-29T09:47:59Z</time>
      </trkpt>
      <trkpt lat="40.8276380" lon="-3.5395480">
        <ele>724.0</ele>
        <time>2020-09-29T09:48:00Z</time>
      </trkpt>
      <trkpt lat="40.8276770" lon="-3.5395750">
        <ele>725.0</ele>
        <time>2020-09-29T09:48:01Z</time>
      </trkpt>
      <trkpt lat="40.8276770" lon="-3.5395750">
        <ele>725.0</ele>
        <time>2020-09-29T09:48:02Z</time>
      </trkpt>
      <trkpt lat="40.8277580" lon="-3.5396200">
        <ele>725.0</ele>
        <time>2020-09-29T09:48:03Z</time>
      </trkpt>
      <trkpt lat="40.8277930" lon="-3.5396520">
        <ele>725.0</ele>
        <time>2020-09-29T09:48:04Z</time>
      </trkpt>
      <trkpt lat="40.8277930" lon="-3.5396520">
        <ele>725.0</ele>
        <time>2020-09-29T09:48:05Z</time>
      </trkpt>
      <trkpt lat="40.8278700" lon="-3.5397120">
        <ele>725.0</ele>
        <time>2020-09-29T09:48:06Z</time>
      </trkpt>
      <trkpt lat="40.8279070" lon="-3.5397420">
        <ele>725.0</ele>
        <time>2020-09-29T09:48:07Z</time>
      </trkpt>
      <trkpt lat="40.8279070" lon="-3.5397420">
        <ele>725.0</ele>
        <time>2020-09-29T09:48:08Z</time>
      </trkpt>
      <trkpt lat="40.8279770" lon="-3.5398080">
        <ele>726.0</ele>
        <time>2020-09-29T09:48:09Z</time>
      </trkpt>
      <trkpt lat="40.8279770" lon="-3.5398080">
        <ele>726.0</ele>
        <time>2020-09-29T09:48:10Z</time>
      </trkpt>
      <trkpt lat="40.8280400" lon="-3.5398850">
        <ele>726.0</ele>
        <time>2020-09-29T09:48:11Z</time>
      </trkpt>
      <trkpt lat="40.8280720" lon="-3.5399200">
        <ele>726.0</ele>
        <time>2020-09-29T09:48:12Z</time>
      </trkpt>
      <trkpt lat="40.8280720" lon="-3.5399200">
        <ele>727.0</ele>
        <time>2020-09-29T09:48:13Z</time>
      </trkpt>
      <trkpt lat="40.8281330" lon="-3.5399880">
        <ele>727.0</ele>
        <time>2020-09-29T09:48:14Z</time>
      </trkpt>
      <trkpt lat="40.8281330" lon="-3.5399880">
        <ele>727.0</ele>
        <time>2020-09-29T09:48:15Z</time>
      </trkpt>
      <trkpt lat="40.8281930" lon="-3.5400650">
        <ele>727.0</ele>
        <time>2020-09-29T09:48:16Z</time>
      </trkpt>
      <trkpt lat="40.8281930" lon="-3.5400650">
        <ele>727.0</ele>
        <time>2020-09-29T09:48:17Z</time>
      </trkpt>
      <trkpt lat="40.8282550" lon="-3.5401450">
        <ele>727.0</ele>
        <time>2020-09-29T09:48:18Z</time>
      </trkpt>
      <trkpt lat="40.8282900" lon="-3.5401820">
        <ele>728.0</ele>
        <time>2020-09-29T09:48:19Z</time>
      </trkpt>
      <trkpt lat="40.8282900" lon="-3.5401820">
        <ele>728.0</ele>
        <time>2020-09-29T09:48:20Z</time>
      </trkpt>
      <trkpt lat="40.8283530" lon="-3.5402550">
        <ele>728.0</ele>
        <time>2020-09-29T09:48:21Z</time>
      </trkpt>
      <trkpt lat="40.8283850" lon="-3.5402880">
        <ele>728.0</ele>
        <time>2020-09-29T09:48:22Z</time>
      </trkpt>
      <trkpt lat="40.8283850" lon="-3.5402880">
        <ele>728.0</ele>
        <time>2020-09-29T09:48:23Z</time>
      </trkpt>
      <trkpt lat="40.8284470" lon="-3.5403550">
        <ele>729.0</ele>
        <time>2020-09-29T09:48:24Z</time>
      </trkpt>
      <trkpt lat="40.8284470" lon="-3.5403550">
        <ele>729.0</ele>
        <time>2020-09-29T09:48:25Z</time>
      </trkpt>
      <trkpt lat="40.8285050" lon="-3.5404250">
        <ele>730.0</ele>
        <time>2020-09-29T09:48:26Z</time>
      </trkpt>
      <trkpt lat="40.8285050" lon="-3.5404250">
        <ele>730.0</ele>
        <time>2020-09-29T09:48:27Z</time>
      </trkpt>
      <trkpt lat="40.8285650" lon="-3.5404950">
        <ele>730.0</ele>
        <time>2020-09-29T09:48:28Z</time>
      </trkpt>
      <trkpt lat="40.8286000" lon="-3.5405300">
        <ele>730.0</ele>
        <time>2020-09-29T09:48:29Z</time>
      </trkpt>
      <trkpt lat="40.8286000" lon="-3.5405300">
        <ele>731.0</ele>
        <time>2020-09-29T09:48:30Z</time>
      </trkpt>
      <trkpt lat="40.8286580" lon="-3.5406100">
        <ele>731.0</ele>
        <time>2020-09-29T09:48:31Z</time>
      </trkpt>
      <trkpt lat="40.8286580" lon="-3.5406100">
        <ele>731.0</ele>
        <time>2020-09-29T09:48:32Z</time>
      </trkpt>
      <trkpt lat="40.8287130" lon="-3.5406920">
        <ele>731.0</ele>
        <time>2020-09-29T09:48:33Z</time>
      </trkpt>
      <trkpt lat="40.8287130" lon="-3.5406920">
        <ele>732.0</ele>
        <time>2020-09-29T09:48:34Z</time>
      </trkpt>
      <trkpt lat="40.8287680" lon="-3.5407750">
        <ele>732.0</ele>
        <time>2020-09-29T09:48:35Z</time>
      </trkpt>
      <trkpt lat="40.8287950" lon="-3.5408170">
        <ele>732.0</ele>
        <time>2020-09-29T09:48:36Z</time>
      </trkpt>
      <trkpt lat="40.8288220" lon="-3.5408580">
        <ele>732.0</ele>
        <time>2020-09-29T09:48:37Z</time>
      </trkpt>
      <trkpt lat="40.8288220" lon="-3.5408580">
        <ele>733.0</ele>
        <time>2020-09-29T09:48:38Z</time>
      </trkpt>
      <trkpt lat="40.8288720" lon="-3.5409420">
        <ele>733.0</ele>
        <time>2020-09-29T09:48:39Z</time>
      </trkpt>
      <trkpt lat="40.8288720" lon="-3.5409420">
        <ele>733.0</ele>
        <time>2020-09-29T09:48:40Z</time>
      </trkpt>
      <trkpt lat="40.8289230" lon="-3.5410180">
        <ele>733.0</ele>
        <time>2020-09-29T09:48:41Z</time>
      </trkpt>
      <trkpt lat="40.8289480" lon="-3.5410550">
        <ele>734.0</ele>
        <time>2020-09-29T09:48:42Z</time>
      </trkpt>
      <trkpt lat="40.8289730" lon="-3.5410920">
        <ele>734.0</ele>
        <time>2020-09-29T09:48:43Z</time>
      </trkpt>
      <trkpt lat="40.8289730" lon="-3.5410920">
        <ele>734.0</ele>
        <time>2020-09-29T09:48:44Z</time>
      </trkpt>
      <trkpt lat="40.8290220" lon="-3.5411700">
        <ele>735.0</ele>
        <time>2020-09-29T09:48:45Z</time>
      </trkpt>
      <trkpt lat="40.8290220" lon="-3.5411700">
        <ele>735.0</ele>
        <time>2020-09-29T09:48:46Z</time>
      </trkpt>
      <trkpt lat="40.8290730" lon="-3.5412420">
        <ele>735.0</ele>
        <time>2020-09-29T09:48:47Z</time>
      </trkpt>
      <trkpt lat="40.8291030" lon="-3.5412730">
        <ele>735.0</ele>
        <time>2020-09-29T09:48:48Z</time>
      </trkpt>
      <trkpt lat="40.8291030" lon="-3.5412730">
        <ele>736.0</ele>
        <time>2020-09-29T09:48:49Z</time>
      </trkpt>
      <trkpt lat="40.8291630" lon="-3.5413420">
        <ele>736.0</ele>
        <time>2020-09-29T09:48:50Z</time>
      </trkpt>
      <trkpt lat="40.8291630" lon="-3.5413420">
        <ele>736.0</ele>
        <time>2020-09-29T09:48:51Z</time>
      </trkpt>
      <trkpt lat="40.8292250" lon="-3.5414030">
        <ele>736.0</ele>
        <time>2020-09-29T09:48:52Z</time>
      </trkpt>
      <trkpt lat="40.8292250" lon="-3.5414030">
        <ele>736.0</ele>
        <time>2020-09-29T09:48:53Z</time>
      </trkpt>
      <trkpt lat="40.8292930" lon="-3.5414600">
        <ele>737.0</ele>
        <time>2020-09-29T09:48:54Z</time>
      </trkpt>
      <trkpt lat="40.8292930" lon="-3.5414600">
        <ele>737.0</ele>
        <time>2020-09-29T09:48:55Z</time>
      </trkpt>
      <trkpt lat="40.8293650" lon="-3.5415120">
        <ele>737.0</ele>
        <time>2020-09-29T09:48:56Z</time>
      </trkpt>
      <trkpt lat="40.8293650" lon="-3.5415120">
        <ele>737.0</ele>
        <time>2020-09-29T09:48:57Z</time>
      </trkpt>
      <trkpt lat="40.8294380" lon="-3.5415580">
        <ele>738.0</ele>
        <time>2020-09-29T09:48:58Z</time>
      </trkpt>
      <trkpt lat="40.8294380" lon="-3.5415580">
        <ele>738.0</ele>
        <time>2020-09-29T09:48:59Z</time>
      </trkpt>
      <trkpt lat="40.8295130" lon="-3.5416000">
        <ele>738.0</ele>
        <time>2020-09-29T09:49:00Z</time>
      </trkpt>
      <trkpt lat="40.8295530" lon="-3.5416150">
        <ele>738.0</ele>
        <time>2020-09-29T09:49:01Z</time>
      </trkpt>
      <trkpt lat="40.8295530" lon="-3.5416150">
        <ele>738.0</ele>
        <time>2020-09-29T09:49:02Z</time>
      </trkpt>
      <trkpt lat="40.8296300" lon="-3.5416420">
        <ele>738.0</ele>
        <time>2020-09-29T09:49:03Z</time>
      </trkpt>
      <trkpt lat="40.8296300" lon="-3.5416420">
        <ele>738.0</ele>
        <time>2020-09-29T09:49:04Z</time>
      </trkpt>
      <trkpt lat="40.8297070" lon="-3.5416700">
        <ele>738.0</ele>
        <time>2020-09-29T09:49:05Z</time>
      </trkpt>
      <trkpt lat="40.8297470" lon="-3.5416820">
        <ele>738.0</ele>
        <time>2020-09-29T09:49:06Z</time>
      </trkpt>
      <trkpt lat="40.8297470" lon="-3.5416820">
        <ele>739.0</ele>
        <time>2020-09-29T09:49:07Z</time>
      </trkpt>
      <trkpt lat="40.8298270" lon="-3.5417000">
        <ele>739.0</ele>
        <time>2020-09-29T09:49:08Z</time>
      </trkpt>
      <trkpt lat="40.8298270" lon="-3.5417000">
        <ele>739.0</ele>
        <time>2020-09-29T09:49:09Z</time>
      </trkpt>
      <trkpt lat="40.8299100" lon="-3.5417130">
        <ele>739.0</ele>
        <time>2020-09-29T09:49:10Z</time>
      </trkpt>
      <trkpt lat="40.8299100" lon="-3.5417130">
        <ele>739.0</ele>
        <time>2020-09-29T09:49:11Z</time>
      </trkpt>
      <trkpt lat="40.8299930" lon="-3.5417320">
        <ele>739.0</ele>
        <time>2020-09-29T09:49:12Z</time>
      </trkpt>
      <trkpt lat="40.8299930" lon="-3.5417320">
        <ele>740.0</ele>
        <time>2020-09-29T09:49:13Z</time>
      </trkpt>
      <trkpt lat="40.8300770" lon="-3.5417500">
        <ele>740.0</ele>
        <time>2020-09-29T09:49:14Z</time>
      </trkpt>
      <trkpt lat="40.8301200" lon="-3.5417580">
        <ele>740.0</ele>
        <time>2020-09-29T09:49:15Z</time>
      </trkpt>
      <trkpt lat="40.8301200" lon="-3.5417580">
        <ele>740.0</ele>
        <time>2020-09-29T09:49:16Z</time>
      </trkpt>
      <trkpt lat="40.8302050" lon="-3.5417770">
        <ele>741.0</ele>
        <time>2020-09-29T09:49:17Z</time>
      </trkpt>
      <trkpt lat="40.8302480" lon="-3.5417850">
        <ele>741.0</ele>
        <time>2020-09-29T09:49:18Z</time>
      </trkpt>
      <trkpt lat="40.8302920" lon="-3.5417930">
        <ele>741.0</ele>
        <time>2020-09-29T09:49:19Z</time>
      </trkpt>
      <trkpt lat="40.8302920" lon="-3.5417930">
        <ele>741.0</ele>
        <time>2020-09-29T09:49:20Z</time>
      </trkpt>
      <trkpt lat="40.8303780" lon="-3.5418020">
        <ele>742.0</ele>
        <time>2020-09-29T09:49:21Z</time>
      </trkpt>
      <trkpt lat="40.8303780" lon="-3.5418020">
        <ele>742.0</ele>
        <time>2020-09-29T09:49:22Z</time>
      </trkpt>
      <trkpt lat="40.8304200" lon="-3.5418080">
        <ele>742.0</ele>
        <time>2020-09-29T09:49:23Z</time>
      </trkpt>
      <trkpt lat="40.8305070" lon="-3.5418300">
        <ele>742.0</ele>
        <time>2020-09-29T09:49:24Z</time>
      </trkpt>
      <trkpt lat="40.8305500" lon="-3.5418380">
        <ele>742.0</ele>
        <time>2020-09-29T09:49:25Z</time>
      </trkpt>
      <trkpt lat="40.8305500" lon="-3.5418380">
        <ele>742.0</ele>
        <time>2020-09-29T09:49:26Z</time>
      </trkpt>
      <trkpt lat="40.8306370" lon="-3.5418530">
        <ele>743.0</ele>
        <time>2020-09-29T09:49:27Z</time>
      </trkpt>
      <trkpt lat="40.8306370" lon="-3.5418530">
        <ele>743.0</ele>
        <time>2020-09-29T09:49:28Z</time>
      </trkpt>
      <trkpt lat="40.8307200" lon="-3.5418770">
        <ele>743.0</ele>
        <time>2020-09-29T09:49:29Z</time>
      </trkpt>
      <trkpt lat="40.8307200" lon="-3.5418770">
        <ele>743.0</ele>
        <time>2020-09-29T09:49:30Z</time>
      </trkpt>
      <trkpt lat="40.8308070" lon="-3.5418830">
        <ele>744.0</ele>
        <time>2020-09-29T09:49:31Z</time>
      </trkpt>
      <trkpt lat="40.8308070" lon="-3.5418830">
        <ele>744.0</ele>
        <time>2020-09-29T09:49:32Z</time>
      </trkpt>
      <trkpt lat="40.8308980" lon="-3.5418900">
        <ele>744.0</ele>
        <time>2020-09-29T09:49:33Z</time>
      </trkpt>
      <trkpt lat="40.8309430" lon="-3.5418970">
        <ele>744.0</ele>
        <time>2020-09-29T09:49:34Z</time>
      </trkpt>
      <trkpt lat="40.8309850" lon="-3.5419050">
        <ele>744.0</ele>
        <time>2020-09-29T09:49:35Z</time>
      </trkpt>
      <trkpt lat="40.8309850" lon="-3.5419050">
        <ele>744.0</ele>
        <time>2020-09-29T09:49:36Z</time>
      </trkpt>
      <trkpt lat="40.8310730" lon="-3.5419230">
        <ele>744.0</ele>
        <time>2020-09-29T09:49:37Z</time>
      </trkpt>
      <trkpt lat="40.8310730" lon="-3.5419230">
        <ele>744.0</ele>
        <time>2020-09-29T09:49:38Z</time>
      </trkpt>
      <trkpt lat="40.8311530" lon="-3.5419450">
        <ele>745.0</ele>
        <time>2020-09-29T09:49:39Z</time>
      </trkpt>
      <trkpt lat="40.8311530" lon="-3.5419450">
        <ele>745.0</ele>
        <time>2020-09-29T09:49:40Z</time>
      </trkpt>
      <trkpt lat="40.8312350" lon="-3.5419630">
        <ele>745.0</ele>
        <time>2020-09-29T09:49:41Z</time>
      </trkpt>
      <trkpt lat="40.8312350" lon="-3.5419630">
        <ele>745.0</ele>
        <time>2020-09-29T09:49:42Z</time>
      </trkpt>
      <trkpt lat="40.8313170" lon="-3.5419880">
        <ele>746.0</ele>
        <time>2020-09-29T09:49:43Z</time>
      </trkpt>
      <trkpt lat="40.8313170" lon="-3.5419880">
        <ele>746.0</ele>
        <time>2020-09-29T09:49:44Z</time>
      </trkpt>
      <trkpt lat="40.8313980" lon="-3.5420270">
        <ele>746.0</ele>
        <time>2020-09-29T09:49:45Z</time>
      </trkpt>
      <trkpt lat="40.8313980" lon="-3.5420270">
        <ele>746.0</ele>
        <time>2020-09-29T09:49:46Z</time>
      </trkpt>
      <trkpt lat="40.8314800" lon="-3.5420720">
        <ele>746.0</ele>
        <time>2020-09-29T09:49:47Z</time>
      </trkpt>
      <trkpt lat="40.8314800" lon="-3.5420720">
        <ele>746.0</ele>
        <time>2020-09-29T09:49:48Z</time>
      </trkpt>
      <trkpt lat="40.8315630" lon="-3.5421150">
        <ele>747.0</ele>
        <time>2020-09-29T09:49:49Z</time>
      </trkpt>
      <trkpt lat="40.8315630" lon="-3.5421150">
        <ele>747.0</ele>
        <time>2020-09-29T09:49:50Z</time>
      </trkpt>
      <trkpt lat="40.8316430" lon="-3.5421650">
        <ele>747.0</ele>
        <time>2020-09-29T09:49:51Z</time>
      </trkpt>
      <trkpt lat="40.8316430" lon="-3.5421650">
        <ele>747.0</ele>
        <time>2020-09-29T09:49:52Z</time>
      </trkpt>
      <trkpt lat="40.8317230" lon="-3.5422080">
        <ele>747.0</ele>
        <time>2020-09-29T09:49:53Z</time>
      </trkpt>
      <trkpt lat="40.8317230" lon="-3.5422080">
        <ele>748.0</ele>
        <time>2020-09-29T09:49:54Z</time>
      </trkpt>
      <trkpt lat="40.8318070" lon="-3.5422480">
        <ele>748.0</ele>
        <time>2020-09-29T09:49:55Z</time>
      </trkpt>
      <trkpt lat="40.8318480" lon="-3.5422650">
        <ele>748.0</ele>
        <time>2020-09-29T09:49:56Z</time>
      </trkpt>
      <trkpt lat="40.8318920" lon="-3.5422800">
        <ele>748.0</ele>
        <time>2020-09-29T09:49:57Z</time>
      </trkpt>
      <trkpt lat="40.8318920" lon="-3.5422800">
        <ele>748.0</ele>
        <time>2020-09-29T09:49:58Z</time>
      </trkpt>
      <trkpt lat="40.8319770" lon="-3.5423020">
        <ele>748.0</ele>
        <time>2020-09-29T09:49:59Z</time>
      </trkpt>
      <trkpt lat="40.8319770" lon="-3.5423020">
        <ele>749.0</ele>
        <time>2020-09-29T09:50:00Z</time>
      </trkpt>
      <trkpt lat="40.8320620" lon="-3.5422970">
        <ele>749.0</ele>
        <time>2020-09-29T09:50:01Z</time>
      </trkpt>
      <trkpt lat="40.8320620" lon="-3.5422970">
        <ele>749.0</ele>
        <time>2020-09-29T09:50:02Z</time>
      </trkpt>
      <trkpt lat="40.8321350" lon="-3.5422400">
        <ele>749.0</ele>
        <time>2020-09-29T09:50:03Z</time>
      </trkpt>
      <trkpt lat="40.8321350" lon="-3.5422400">
        <ele>750.0</ele>
        <time>2020-09-29T09:50:04Z</time>
      </trkpt>
      <trkpt lat="40.8322030" lon="-3.5421770">
        <ele>750.0</ele>
        <time>2020-09-29T09:50:05Z</time>
      </trkpt>
      <trkpt lat="40.8322030" lon="-3.5421770">
        <ele>750.0</ele>
        <time>2020-09-29T09:50:06Z</time>
      </trkpt>
      <trkpt lat="40.8322670" lon="-3.5421050">
        <ele>750.0</ele>
        <time>2020-09-29T09:50:07Z</time>
      </trkpt>
      <trkpt lat="40.8322670" lon="-3.5421050">
        <ele>751.0</ele>
        <time>2020-09-29T09:50:08Z</time>
      </trkpt>
      <trkpt lat="40.8323230" lon="-3.5420320">
        <ele>751.0</ele>
        <time>2020-09-29T09:50:09Z</time>
      </trkpt>
      <trkpt lat="40.8323450" lon="-3.5419900">
        <ele>751.0</ele>
        <time>2020-09-29T09:50:10Z</time>
      </trkpt>
      <trkpt lat="40.8323680" lon="-3.5419520">
        <ele>751.0</ele>
        <time>2020-09-29T09:50:11Z</time>
      </trkpt>
      <trkpt lat="40.8323680" lon="-3.5419520">
        <ele>752.0</ele>
        <time>2020-09-29T09:50:12Z</time>
      </trkpt>
      <trkpt lat="40.8324220" lon="-3.5418750">
        <ele>752.0</ele>
        <time>2020-09-29T09:50:13Z</time>
      </trkpt>
      <trkpt lat="40.8324220" lon="-3.5418750">
        <ele>752.0</ele>
        <time>2020-09-29T09:50:14Z</time>
      </trkpt>
      <trkpt lat="40.8324770" lon="-3.5418070">
        <ele>752.0</ele>
        <time>2020-09-29T09:50:15Z</time>
      </trkpt>
      <trkpt lat="40.8324770" lon="-3.5418070">
        <ele>753.0</ele>
        <time>2020-09-29T09:50:16Z</time>
      </trkpt>
      <trkpt lat="40.8325350" lon="-3.5417420">
        <ele>753.0</ele>
        <time>2020-09-29T09:50:17Z</time>
      </trkpt>
      <trkpt lat="40.8325350" lon="-3.5417420">
        <ele>754.0</ele>
        <time>2020-09-29T09:50:18Z</time>
      </trkpt>
      <trkpt lat="40.8325980" lon="-3.5416870">
        <ele>754.0</ele>
        <time>2020-09-29T09:50:19Z</time>
      </trkpt>
      <trkpt lat="40.8325980" lon="-3.5416870">
        <ele>754.0</ele>
        <time>2020-09-29T09:50:20Z</time>
      </trkpt>
      <trkpt lat="40.8326720" lon="-3.5416500">
        <ele>754.0</ele>
        <time>2020-09-29T09:50:21Z</time>
      </trkpt>
      <trkpt lat="40.8326720" lon="-3.5416500">
        <ele>755.0</ele>
        <time>2020-09-29T09:50:22Z</time>
      </trkpt>
      <trkpt lat="40.8327520" lon="-3.5416300">
        <ele>755.0</ele>
        <time>2020-09-29T09:50:23Z</time>
      </trkpt>
      <trkpt lat="40.8327920" lon="-3.5416270">
        <ele>755.0</ele>
        <time>2020-09-29T09:50:24Z</time>
      </trkpt>
      <trkpt lat="40.8327920" lon="-3.5416270">
        <ele>756.0</ele>
        <time>2020-09-29T09:50:25Z</time>
      </trkpt>
      <trkpt lat="40.8328730" lon="-3.5416230">
        <ele>756.0</ele>
        <time>2020-09-29T09:50:26Z</time>
      </trkpt>
      <trkpt lat="40.8328730" lon="-3.5416230">
        <ele>756.0</ele>
        <time>2020-09-29T09:50:27Z</time>
      </trkpt>
      <trkpt lat="40.8329150" lon="-3.5416280">
        <ele>756.0</ele>
        <time>2020-09-29T09:50:28Z</time>
      </trkpt>
      <trkpt lat="40.8330020" lon="-3.5416400">
        <ele>757.0</ele>
        <time>2020-09-29T09:50:29Z</time>
      </trkpt>
      <trkpt lat="40.8330020" lon="-3.5416400">
        <ele>757.0</ele>
        <time>2020-09-29T09:50:30Z</time>
      </trkpt>
      <trkpt lat="40.8330870" lon="-3.5416630">
        <ele>757.0</ele>
        <time>2020-09-29T09:50:31Z</time>
      </trkpt>
      <trkpt lat="40.8330870" lon="-3.5416630">
        <ele>757.0</ele>
        <time>2020-09-29T09:50:32Z</time>
      </trkpt>
      <trkpt lat="40.8331700" lon="-3.5416870">
        <ele>759.0</ele>
        <time>2020-09-29T09:50:33Z</time>
      </trkpt>
      <trkpt lat="40.8331700" lon="-3.5416870">
        <ele>759.0</ele>
        <time>2020-09-29T09:50:34Z</time>
      </trkpt>
      <trkpt lat="40.8332480" lon="-3.5417100">
        <ele>759.0</ele>
        <time>2020-09-29T09:50:35Z</time>
      </trkpt>
      <trkpt lat="40.8332480" lon="-3.5417100">
        <ele>759.0</ele>
        <time>2020-09-29T09:50:36Z</time>
      </trkpt>
      <trkpt lat="40.8333180" lon="-3.5417300">
        <ele>760.0</ele>
        <time>2020-09-29T09:50:37Z</time>
      </trkpt>
      <trkpt lat="40.8333180" lon="-3.5417300">
        <ele>760.0</ele>
        <time>2020-09-29T09:50:38Z</time>
      </trkpt>
      <trkpt lat="40.8333950" lon="-3.5417500">
        <ele>760.0</ele>
        <time>2020-09-29T09:50:39Z</time>
      </trkpt>
      <trkpt lat="40.8334270" lon="-3.5417630">
        <ele>760.0</ele>
        <time>2020-09-29T09:50:40Z</time>
      </trkpt>
      <trkpt lat="40.8334270" lon="-3.5417630">
        <ele>761.0</ele>
        <time>2020-09-29T09:50:41Z</time>
      </trkpt>
      <trkpt lat="40.8334970" lon="-3.5417880">
        <ele>761.0</ele>
        <time>2020-09-29T09:50:42Z</time>
      </trkpt>
      <trkpt lat="40.8335330" lon="-3.5417970">
        <ele>761.0</ele>
        <time>2020-09-29T09:50:43Z</time>
      </trkpt>
      <trkpt lat="40.8335330" lon="-3.5417970">
        <ele>761.0</ele>
        <time>2020-09-29T09:50:44Z</time>
      </trkpt>
      <trkpt lat="40.8336070" lon="-3.5418220">
        <ele>762.0</ele>
        <time>2020-09-29T09:50:45Z</time>
      </trkpt>
      <trkpt lat="40.8336070" lon="-3.5418220">
        <ele>762.0</ele>
        <time>2020-09-29T09:50:46Z</time>
      </trkpt>
      <trkpt lat="40.8336770" lon="-3.5418520">
        <ele>762.0</ele>
        <time>2020-09-29T09:50:47Z</time>
      </trkpt>
      <trkpt lat="40.8336770" lon="-3.5418520">
        <ele>762.0</ele>
        <time>2020-09-29T09:50:48Z</time>
      </trkpt>
      <trkpt lat="40.8337470" lon="-3.5418830">
        <ele>763.0</ele>
        <time>2020-09-29T09:50:49Z</time>
      </trkpt>
      <trkpt lat="40.8337470" lon="-3.5418830">
        <ele>763.0</ele>
        <time>2020-09-29T09:50:50Z</time>
      </trkpt>
      <trkpt lat="40.8338180" lon="-3.5419150">
        <ele>763.0</ele>
        <time>2020-09-29T09:50:51Z</time>
      </trkpt>
      <trkpt lat="40.8338180" lon="-3.5419150">
        <ele>763.0</ele>
        <time>2020-09-29T09:50:52Z</time>
      </trkpt>
      <trkpt lat="40.8338900" lon="-3.5419420">
        <ele>764.0</ele>
        <time>2020-09-29T09:50:53Z</time>
      </trkpt>
      <trkpt lat="40.8338900" lon="-3.5419420">
        <ele>764.0</ele>
        <time>2020-09-29T09:50:54Z</time>
      </trkpt>
      <trkpt lat="40.8339650" lon="-3.5419650">
        <ele>764.0</ele>
        <time>2020-09-29T09:50:55Z</time>
      </trkpt>
      <trkpt lat="40.8339650" lon="-3.5419650">
        <ele>764.0</ele>
        <time>2020-09-29T09:50:56Z</time>
      </trkpt>
      <trkpt lat="40.8340400" lon="-3.5419730">
        <ele>765.0</ele>
        <time>2020-09-29T09:50:57Z</time>
      </trkpt>
      <trkpt lat="40.8340780" lon="-3.5419750">
        <ele>765.0</ele>
        <time>2020-09-29T09:50:58Z</time>
      </trkpt>
      <trkpt lat="40.8340780" lon="-3.5419750">
        <ele>765.0</ele>
        <time>2020-09-29T09:50:59Z</time>
      </trkpt>
      <trkpt lat="40.8341530" lon="-3.5419670">
        <ele>765.0</ele>
        <time>2020-09-29T09:51:00Z</time>
      </trkpt>
      <trkpt lat="40.8341530" lon="-3.5419670">
        <ele>765.0</ele>
        <time>2020-09-29T09:51:01Z</time>
      </trkpt>
      <trkpt lat="40.8342250" lon="-3.5419450">
        <ele>766.0</ele>
        <time>2020-09-29T09:51:02Z</time>
      </trkpt>
      <trkpt lat="40.8342250" lon="-3.5419450">
        <ele>766.0</ele>
        <time>2020-09-29T09:51:03Z</time>
      </trkpt>
      <trkpt lat="40.8342930" lon="-3.5419050">
        <ele>766.0</ele>
        <time>2020-09-29T09:51:04Z</time>
      </trkpt>
      <trkpt lat="40.8343270" lon="-3.5418820">
        <ele>766.0</ele>
        <time>2020-09-29T09:51:05Z</time>
      </trkpt>
      <trkpt lat="40.8343270" lon="-3.5418820">
        <ele>767.0</ele>
        <time>2020-09-29T09:51:06Z</time>
      </trkpt>
      <trkpt lat="40.8343880" lon="-3.5418280">
        <ele>767.0</ele>
        <time>2020-09-29T09:51:07Z</time>
      </trkpt>
      <trkpt lat="40.8343880" lon="-3.5418280">
        <ele>767.0</ele>
        <time>2020-09-29T09:51:08Z</time>
      </trkpt>
      <trkpt lat="40.8344450" lon="-3.5417670">
        <ele>767.0</ele>
        <time>2020-09-29T09:51:09Z</time>
      </trkpt>
      <trkpt lat="40.8344720" lon="-3.5417330">
        <ele>768.0</ele>
        <time>2020-09-29T09:51:10Z</time>
      </trkpt>
      <trkpt lat="40.8344720" lon="-3.5417330">
        <ele>768.0</ele>
        <time>2020-09-29T09:51:11Z</time>
      </trkpt>
      <trkpt lat="40.8345270" lon="-3.5416680">
        <ele>768.0</ele>
        <time>2020-09-29T09:51:12Z</time>
      </trkpt>
      <trkpt lat="40.8345530" lon="-3.5416350">
        <ele>768.0</ele>
        <time>2020-09-29T09:51:13Z</time>
      </trkpt>
      <trkpt lat="40.8345530" lon="-3.5416350">
        <ele>769.0</ele>
        <time>2020-09-29T09:51:14Z</time>
      </trkpt>
      <trkpt lat="40.8346030" lon="-3.5415630">
        <ele>769.0</ele>
        <time>2020-09-29T09:51:15Z</time>
      </trkpt>
      <trkpt lat="40.8346280" lon="-3.5415270">
        <ele>769.0</ele>
        <time>2020-09-29T09:51:16Z</time>
      </trkpt>
      <trkpt lat="40.8346280" lon="-3.5415270">
        <ele>769.0</ele>
        <time>2020-09-29T09:51:17Z</time>
      </trkpt>
      <trkpt lat="40.8346820" lon="-3.5414550">
        <ele>770.0</ele>
        <time>2020-09-29T09:51:18Z</time>
      </trkpt>
      <trkpt lat="40.8347080" lon="-3.5414200">
        <ele>770.0</ele>
        <time>2020-09-29T09:51:19Z</time>
      </trkpt>
      <trkpt lat="40.8347080" lon="-3.5414200">
        <ele>770.0</ele>
        <time>2020-09-29T09:51:20Z</time>
      </trkpt>
      <trkpt lat="40.8347080" lon="-3.5414200">
        <ele>770.0</ele>
        <time>2020-09-29T09:51:21Z</time>
      </trkpt>
      <trkpt lat="40.8347600" lon="-3.5413470">
        <ele>771.0</ele>
        <time>2020-09-29T09:51:22Z</time>
      </trkpt>
      <trkpt lat="40.8348120" lon="-3.5412770">
        <ele>771.0</ele>
        <time>2020-09-29T09:51:23Z</time>
      </trkpt>
      <trkpt lat="40.8348120" lon="-3.5412770">
        <ele>771.0</ele>
        <time>2020-09-29T09:51:24Z</time>
      </trkpt>
      <trkpt lat="40.8348670" lon="-3.5412130">
        <ele>771.0</ele>
        <time>2020-09-29T09:51:25Z</time>
      </trkpt>
      <trkpt lat="40.8348670" lon="-3.5412130">
        <ele>772.0</ele>
        <time>2020-09-29T09:51:26Z</time>
      </trkpt>
      <trkpt lat="40.8349200" lon="-3.5411500">
        <ele>772.0</ele>
        <time>2020-09-29T09:51:27Z</time>
      </trkpt>
      <trkpt lat="40.8349200" lon="-3.5411500">
        <ele>772.0</ele>
        <time>2020-09-29T09:51:28Z</time>
      </trkpt>
      <trkpt lat="40.8349770" lon="-3.5410870">
        <ele>772.0</ele>
        <time>2020-09-29T09:51:29Z</time>
      </trkpt>
      <trkpt lat="40.8349770" lon="-3.5410870">
        <ele>773.0</ele>
        <time>2020-09-29T09:51:30Z</time>
      </trkpt>
      <trkpt lat="40.8350400" lon="-3.5410330">
        <ele>773.0</ele>
        <time>2020-09-29T09:51:31Z</time>
      </trkpt>
      <trkpt lat="40.8350400" lon="-3.5410330">
        <ele>773.0</ele>
        <time>2020-09-29T09:51:32Z</time>
      </trkpt>
      <trkpt lat="40.8351100" lon="-3.5409970">
        <ele>774.0</ele>
        <time>2020-09-29T09:51:33Z</time>
      </trkpt>
      <trkpt lat="40.8351100" lon="-3.5409970">
        <ele>774.0</ele>
        <time>2020-09-29T09:51:34Z</time>
      </trkpt>
      <trkpt lat="40.8351870" lon="-3.5409870">
        <ele>774.0</ele>
        <time>2020-09-29T09:51:35Z</time>
      </trkpt>
      <trkpt lat="40.8351870" lon="-3.5409870">
        <ele>774.0</ele>
        <time>2020-09-29T09:51:36Z</time>
      </trkpt>
      <trkpt lat="40.8352650" lon="-3.5410130">
        <ele>774.0</ele>
        <time>2020-09-29T09:51:37Z</time>
      </trkpt>
      <trkpt lat="40.8353020" lon="-3.5410350">
        <ele>774.0</ele>
        <time>2020-09-29T09:51:38Z</time>
      </trkpt>
      <trkpt lat="40.8353020" lon="-3.5410350">
        <ele>775.0</ele>
        <time>2020-09-29T09:51:39Z</time>
      </trkpt>
      <trkpt lat="40.8353730" lon="-3.5410870">
        <ele>775.0</ele>
        <time>2020-09-29T09:51:40Z</time>
      </trkpt>
      <trkpt lat="40.8354070" lon="-3.5411130">
        <ele>775.0</ele>
        <time>2020-09-29T09:51:41Z</time>
      </trkpt>
      <trkpt lat="40.8354400" lon="-3.5411450">
        <ele>775.0</ele>
        <time>2020-09-29T09:51:42Z</time>
      </trkpt>
      <trkpt lat="40.8354400" lon="-3.5411450">
        <ele>775.0</ele>
        <time>2020-09-29T09:51:43Z</time>
      </trkpt>
      <trkpt lat="40.8355020" lon="-3.5412120">
        <ele>775.0</ele>
        <time>2020-09-29T09:51:44Z</time>
      </trkpt>
      <trkpt lat="40.8355020" lon="-3.5412120">
        <ele>776.0</ele>
        <time>2020-09-29T09:51:45Z</time>
      </trkpt>
      <trkpt lat="40.8355650" lon="-3.5412800">
        <ele>776.0</ele>
        <time>2020-09-29T09:51:46Z</time>
      </trkpt>
      <trkpt lat="40.8355650" lon="-3.5412800">
        <ele>776.0</ele>
        <time>2020-09-29T09:51:47Z</time>
      </trkpt>
      <trkpt lat="40.8356300" lon="-3.5413470">
        <ele>776.0</ele>
        <time>2020-09-29T09:51:48Z</time>
      </trkpt>
      <trkpt lat="40.8356300" lon="-3.5413470">
        <ele>776.0</ele>
        <time>2020-09-29T09:51:49Z</time>
      </trkpt>
      <trkpt lat="40.8357000" lon="-3.5414050">
        <ele>776.0</ele>
        <time>2020-09-29T09:51:50Z</time>
      </trkpt>
      <trkpt lat="40.8357000" lon="-3.5414050">
        <ele>777.0</ele>
        <time>2020-09-29T09:51:51Z</time>
      </trkpt>
      <trkpt lat="40.8357780" lon="-3.5414470">
        <ele>777.0</ele>
        <time>2020-09-29T09:51:52Z</time>
      </trkpt>
      <trkpt lat="40.8358180" lon="-3.5414600">
        <ele>777.0</ele>
        <time>2020-09-29T09:51:53Z</time>
      </trkpt>
      <trkpt lat="40.8358600" lon="-3.5414600">
        <ele>777.0</ele>
        <time>2020-09-29T09:51:54Z</time>
      </trkpt>
      <trkpt lat="40.8359020" lon="-3.5414500">
        <ele>777.0</ele>
        <time>2020-09-29T09:51:55Z</time>
      </trkpt>
      <trkpt lat="40.8359020" lon="-3.5414500">
        <ele>777.0</ele>
        <time>2020-09-29T09:51:56Z</time>
      </trkpt>
      <trkpt lat="40.8359700" lon="-3.5413950">
        <ele>778.0</ele>
        <time>2020-09-29T09:51:57Z</time>
      </trkpt>
      <trkpt lat="40.8359700" lon="-3.5413950">
        <ele>778.0</ele>
        <time>2020-09-29T09:51:58Z</time>
      </trkpt>
      <trkpt lat="40.8360200" lon="-3.5413070">
        <ele>778.0</ele>
        <time>2020-09-29T09:51:59Z</time>
      </trkpt>
      <trkpt lat="40.8360350" lon="-3.5412570">
        <ele>778.0</ele>
        <time>2020-09-29T09:52:00Z</time>
      </trkpt>
      <trkpt lat="40.8360430" lon="-3.5412070">
        <ele>779.0</ele>
        <time>2020-09-29T09:52:01Z</time>
      </trkpt>
      <trkpt lat="40.8360430" lon="-3.5412070">
        <ele>779.0</ele>
        <time>2020-09-29T09:52:02Z</time>
      </trkpt>
      <trkpt lat="40.8360450" lon="-3.5411050">
        <ele>779.0</ele>
        <time>2020-09-29T09:52:03Z</time>
      </trkpt>
      <trkpt lat="40.8360400" lon="-3.5410570">
        <ele>779.0</ele>
        <time>2020-09-29T09:52:04Z</time>
      </trkpt>
      <trkpt lat="40.8360400" lon="-3.5410570">
        <ele>780.0</ele>
        <time>2020-09-29T09:52:05Z</time>
      </trkpt>
      <trkpt lat="40.8360270" lon="-3.5409570">
        <ele>780.0</ele>
        <time>2020-09-29T09:52:06Z</time>
      </trkpt>
      <trkpt lat="40.8360200" lon="-3.5409050">
        <ele>780.0</ele>
        <time>2020-09-29T09:52:07Z</time>
      </trkpt>
      <trkpt lat="40.8360200" lon="-3.5409050">
        <ele>781.0</ele>
        <time>2020-09-29T09:52:08Z</time>
      </trkpt>
      <trkpt lat="40.8360200" lon="-3.5409050">
        <ele>781.0</ele>
        <time>2020-09-29T09:52:09Z</time>
      </trkpt>
      <trkpt lat="40.8360020" lon="-3.5408020">
        <ele>781.0</ele>
        <time>2020-09-29T09:52:10Z</time>
      </trkpt>
      <trkpt lat="40.8359870" lon="-3.5407000">
        <ele>781.0</ele>
        <time>2020-09-29T09:52:11Z</time>
      </trkpt>
      <trkpt lat="40.8359870" lon="-3.5407000">
        <ele>782.0</ele>
        <time>2020-09-29T09:52:12Z</time>
      </trkpt>
      <trkpt lat="40.8359730" lon="-3.5406030">
        <ele>782.0</ele>
        <time>2020-09-29T09:52:13Z</time>
      </trkpt>
      <trkpt lat="40.8359730" lon="-3.5406030">
        <ele>782.0</ele>
        <time>2020-09-29T09:52:14Z</time>
      </trkpt>
      <trkpt lat="40.8359600" lon="-3.5405050">
        <ele>782.0</ele>
        <time>2020-09-29T09:52:15Z</time>
      </trkpt>
      <trkpt lat="40.8359600" lon="-3.5405050">
        <ele>783.0</ele>
        <time>2020-09-29T09:52:16Z</time>
      </trkpt>
      <trkpt lat="40.8359570" lon="-3.5404030">
        <ele>783.0</ele>
        <time>2020-09-29T09:52:17Z</time>
      </trkpt>
      <trkpt lat="40.8359620" lon="-3.5403530">
        <ele>783.0</ele>
        <time>2020-09-29T09:52:18Z</time>
      </trkpt>
      <trkpt lat="40.8359720" lon="-3.5403070">
        <ele>783.0</ele>
        <time>2020-09-29T09:52:19Z</time>
      </trkpt>
      <trkpt lat="40.8359720" lon="-3.5403070">
        <ele>784.0</ele>
        <time>2020-09-29T09:52:20Z</time>
      </trkpt>
      <trkpt lat="40.8360050" lon="-3.5402230">
        <ele>784.0</ele>
        <time>2020-09-29T09:52:21Z</time>
      </trkpt>
      <trkpt lat="40.8360050" lon="-3.5402230">
        <ele>784.0</ele>
        <time>2020-09-29T09:52:22Z</time>
      </trkpt>
      <trkpt lat="40.8360580" lon="-3.5401580">
        <ele>784.0</ele>
        <time>2020-09-29T09:52:23Z</time>
      </trkpt>
      <trkpt lat="40.8360580" lon="-3.5401580">
        <ele>785.0</ele>
        <time>2020-09-29T09:52:24Z</time>
      </trkpt>
      <trkpt lat="40.8361250" lon="-3.5401080">
        <ele>785.0</ele>
        <time>2020-09-29T09:52:25Z</time>
      </trkpt>
      <trkpt lat="40.8361250" lon="-3.5401080">
        <ele>785.0</ele>
        <time>2020-09-29T09:52:26Z</time>
      </trkpt>
      <trkpt lat="40.8361980" lon="-3.5400850">
        <ele>785.0</ele>
        <time>2020-09-29T09:52:27Z</time>
      </trkpt>
      <trkpt lat="40.8361980" lon="-3.5400850">
        <ele>785.0</ele>
        <time>2020-09-29T09:52:28Z</time>
      </trkpt>
      <trkpt lat="40.8362700" lon="-3.5400970">
        <ele>786.0</ele>
        <time>2020-09-29T09:52:29Z</time>
      </trkpt>
      <trkpt lat="40.8363020" lon="-3.5401080">
        <ele>786.0</ele>
        <time>2020-09-29T09:52:30Z</time>
      </trkpt>
      <trkpt lat="40.8363020" lon="-3.5401080">
        <ele>786.0</ele>
        <time>2020-09-29T09:52:31Z</time>
      </trkpt>
      <trkpt lat="40.8363670" lon="-3.5401330">
        <ele>786.0</ele>
        <time>2020-09-29T09:52:32Z</time>
      </trkpt>
      <trkpt lat="40.8363670" lon="-3.5401330">
        <ele>787.0</ele>
        <time>2020-09-29T09:52:33Z</time>
      </trkpt>
      <trkpt lat="40.8364330" lon="-3.5401630">
        <ele>787.0</ele>
        <time>2020-09-29T09:52:34Z</time>
      </trkpt>
      <trkpt lat="40.8364330" lon="-3.5401630">
        <ele>787.0</ele>
        <time>2020-09-29T09:52:35Z</time>
      </trkpt>
      <trkpt lat="40.8365020" lon="-3.5401950">
        <ele>787.0</ele>
        <time>2020-09-29T09:52:36Z</time>
      </trkpt>
      <trkpt lat="40.8365020" lon="-3.5401950">
        <ele>788.0</ele>
        <time>2020-09-29T09:52:37Z</time>
      </trkpt>
      <trkpt lat="40.8365650" lon="-3.5402380">
        <ele>788.0</ele>
        <time>2020-09-29T09:52:38Z</time>
      </trkpt>
      <trkpt lat="40.8365650" lon="-3.5402380">
        <ele>789.0</ele>
        <time>2020-09-29T09:52:39Z</time>
      </trkpt>
      <trkpt lat="40.8366250" lon="-3.5402820">
        <ele>789.0</ele>
        <time>2020-09-29T09:52:40Z</time>
      </trkpt>
      <trkpt lat="40.8366250" lon="-3.5402820">
        <ele>789.0</ele>
        <time>2020-09-29T09:52:41Z</time>
      </trkpt>
      <trkpt lat="40.8366820" lon="-3.5403370">
        <ele>790.0</ele>
        <time>2020-09-29T09:52:42Z</time>
      </trkpt>
      <trkpt lat="40.8367080" lon="-3.5403680">
        <ele>790.0</ele>
        <time>2020-09-29T09:52:43Z</time>
      </trkpt>
      <trkpt lat="40.8367080" lon="-3.5403680">
        <ele>790.0</ele>
        <time>2020-09-29T09:52:44Z</time>
      </trkpt>
      <trkpt lat="40.8367580" lon="-3.5404400">
        <ele>792.0</ele>
        <time>2020-09-29T09:52:45Z</time>
      </trkpt>
      <trkpt lat="40.8367580" lon="-3.5404400">
        <ele>792.0</ele>
        <time>2020-09-29T09:52:46Z</time>
      </trkpt>
      <trkpt lat="40.8367980" lon="-3.5405230">
        <ele>792.0</ele>
        <time>2020-09-29T09:52:47Z</time>
      </trkpt>
      <trkpt lat="40.8367980" lon="-3.5405230">
        <ele>792.0</ele>
        <time>2020-09-29T09:52:48Z</time>
      </trkpt>
      <trkpt lat="40.8368280" lon="-3.5406130">
        <ele>793.0</ele>
        <time>2020-09-29T09:52:49Z</time>
      </trkpt>
      <trkpt lat="40.8368280" lon="-3.5406130">
        <ele>793.0</ele>
        <time>2020-09-29T09:52:50Z</time>
      </trkpt>
      <trkpt lat="40.8368370" lon="-3.5407050">
        <ele>793.0</ele>
        <time>2020-09-29T09:52:51Z</time>
      </trkpt>
      <trkpt lat="40.8368370" lon="-3.5407050">
        <ele>793.0</ele>
        <time>2020-09-29T09:52:52Z</time>
      </trkpt>
      <trkpt lat="40.8368400" lon="-3.5407970">
        <ele>794.0</ele>
        <time>2020-09-29T09:52:53Z</time>
      </trkpt>
      <trkpt lat="40.8368400" lon="-3.5407970">
        <ele>794.0</ele>
        <time>2020-09-29T09:52:54Z</time>
      </trkpt>
      <trkpt lat="40.8368420" lon="-3.5408920">
        <ele>794.0</ele>
        <time>2020-09-29T09:52:55Z</time>
      </trkpt>
      <trkpt lat="40.8368420" lon="-3.5408920">
        <ele>794.0</ele>
        <time>2020-09-29T09:52:56Z</time>
      </trkpt>
      <trkpt lat="40.8368400" lon="-3.5409870">
        <ele>795.0</ele>
        <time>2020-09-29T09:52:57Z</time>
      </trkpt>
      <trkpt lat="40.8368400" lon="-3.5409870">
        <ele>795.0</ele>
        <time>2020-09-29T09:52:58Z</time>
      </trkpt>
      <trkpt lat="40.8368400" lon="-3.5409870">
        <ele>796.0</ele>
        <time>2020-09-29T09:52:59Z</time>
      </trkpt>
      <trkpt lat="40.8368330" lon="-3.5410830">
        <ele>796.0</ele>
        <time>2020-09-29T09:53:00Z</time>
      </trkpt>
      <trkpt lat="40.8368330" lon="-3.5410830">
        <ele>796.0</ele>
        <time>2020-09-29T09:53:01Z</time>
      </trkpt>
      <trkpt lat="40.8368280" lon="-3.5411750">
        <ele>796.0</ele>
        <time>2020-09-29T09:53:02Z</time>
      </trkpt>
      <trkpt lat="40.8368220" lon="-3.5412630">
        <ele>796.0</ele>
        <time>2020-09-29T09:53:03Z</time>
      </trkpt>
      <trkpt lat="40.8368180" lon="-3.5413070">
        <ele>797.0</ele>
        <time>2020-09-29T09:53:04Z</time>
      </trkpt>
      <trkpt lat="40.8368180" lon="-3.5413070">
        <ele>797.0</ele>
        <time>2020-09-29T09:53:05Z</time>
      </trkpt>
      <trkpt lat="40.8368130" lon="-3.5413930">
        <ele>797.0</ele>
        <time>2020-09-29T09:53:06Z</time>
      </trkpt>
      <trkpt lat="40.8368130" lon="-3.5413930">
        <ele>797.0</ele>
        <time>2020-09-29T09:53:07Z</time>
      </trkpt>
      <trkpt lat="40.8368080" lon="-3.5414720">
        <ele>798.0</ele>
        <time>2020-09-29T09:53:08Z</time>
      </trkpt>
      <trkpt lat="40.8368070" lon="-3.5415080">
        <ele>798.0</ele>
        <time>2020-09-29T09:53:09Z</time>
      </trkpt>
      <trkpt lat="40.8368070" lon="-3.5415080">
        <ele>799.0</ele>
        <time>2020-09-29T09:53:10Z</time>
      </trkpt>
      <trkpt lat="40.8368050" lon="-3.5415880">
        <ele>799.0</ele>
        <time>2020-09-29T09:53:11Z</time>
      </trkpt>
      <trkpt lat="40.8368050" lon="-3.5416280">
        <ele>799.0</ele>
        <time>2020-09-29T09:53:12Z</time>
      </trkpt>
      <trkpt lat="40.8368050" lon="-3.5416670">
        <ele>799.0</ele>
        <time>2020-09-29T09:53:13Z</time>
      </trkpt>
      <trkpt lat="40.8368050" lon="-3.5416670">
        <ele>800.0</ele>
        <time>2020-09-29T09:53:14Z</time>
      </trkpt>
      <trkpt lat="40.8368050" lon="-3.5417450">
        <ele>800.0</ele>
        <time>2020-09-29T09:53:15Z</time>
      </trkpt>
      <trkpt lat="40.8368050" lon="-3.5417450">
        <ele>800.0</ele>
        <time>2020-09-29T09:53:16Z</time>
      </trkpt>
      <trkpt lat="40.8367980" lon="-3.5418220">
        <ele>800.0</ele>
        <time>2020-09-29T09:53:17Z</time>
      </trkpt>
      <trkpt lat="40.8367970" lon="-3.5418600">
        <ele>800.0</ele>
        <time>2020-09-29T09:53:18Z</time>
      </trkpt>
      <trkpt lat="40.8367970" lon="-3.5418600">
        <ele>800.0</ele>
        <time>2020-09-29T09:53:19Z</time>
      </trkpt>
      <trkpt lat="40.8367930" lon="-3.5419370">
        <ele>800.0</ele>
        <time>2020-09-29T09:53:20Z</time>
      </trkpt>
      <trkpt lat="40.8367930" lon="-3.5419370">
        <ele>801.0</ele>
        <time>2020-09-29T09:53:21Z</time>
      </trkpt>
      <trkpt lat="40.8367900" lon="-3.5420130">
        <ele>801.0</ele>
        <time>2020-09-29T09:53:22Z</time>
      </trkpt>
      <trkpt lat="40.8367900" lon="-3.5420130">
        <ele>801.0</ele>
        <time>2020-09-29T09:53:23Z</time>
      </trkpt>
      <trkpt lat="40.8367850" lon="-3.5420930">
        <ele>801.0</ele>
        <time>2020-09-29T09:53:24Z</time>
      </trkpt>
      <trkpt lat="40.8367820" lon="-3.5421330">
        <ele>802.0</ele>
        <time>2020-09-29T09:53:25Z</time>
      </trkpt>
      <trkpt lat="40.8367820" lon="-3.5421330">
        <ele>802.0</ele>
        <time>2020-09-29T09:53:26Z</time>
      </trkpt>
      <trkpt lat="40.8367820" lon="-3.5422120">
        <ele>802.0</ele>
        <time>2020-09-29T09:53:27Z</time>
      </trkpt>
      <trkpt lat="40.8367800" lon="-3.5422530">
        <ele>802.0</ele>
        <time>2020-09-29T09:53:28Z</time>
      </trkpt>
      <trkpt lat="40.8367800" lon="-3.5422530">
        <ele>803.0</ele>
        <time>2020-09-29T09:53:29Z</time>
      </trkpt>
      <trkpt lat="40.8367750" lon="-3.5423330">
        <ele>803.0</ele>
        <time>2020-09-29T09:53:30Z</time>
      </trkpt>
      <trkpt lat="40.8367700" lon="-3.5423720">
        <ele>803.0</ele>
        <time>2020-09-29T09:53:31Z</time>
      </trkpt>
      <trkpt lat="40.8367700" lon="-3.5423720">
        <ele>803.0</ele>
        <time>2020-09-29T09:53:32Z</time>
      </trkpt>
      <trkpt lat="40.8367630" lon="-3.5424480">
        <ele>804.0</ele>
        <time>2020-09-29T09:53:33Z</time>
      </trkpt>
      <trkpt lat="40.8367630" lon="-3.5424480">
        <ele>804.0</ele>
        <time>2020-09-29T09:53:34Z</time>
      </trkpt>
      <trkpt lat="40.8367620" lon="-3.5425270">
        <ele>804.0</ele>
        <time>2020-09-29T09:53:35Z</time>
      </trkpt>
      <trkpt lat="40.8367600" lon="-3.5425670">
        <ele>804.0</ele>
        <time>2020-09-29T09:53:36Z</time>
      </trkpt>
      <trkpt lat="40.8367630" lon="-3.5426070">
        <ele>805.0</ele>
        <time>2020-09-29T09:53:37Z</time>
      </trkpt>
      <trkpt lat="40.8367630" lon="-3.5426070">
        <ele>805.0</ele>
        <time>2020-09-29T09:53:38Z</time>
      </trkpt>
      <trkpt lat="40.8367650" lon="-3.5426870">
        <ele>805.0</ele>
        <time>2020-09-29T09:53:39Z</time>
      </trkpt>
      <trkpt lat="40.8367630" lon="-3.5427270">
        <ele>805.0</ele>
        <time>2020-09-29T09:53:40Z</time>
      </trkpt>
      <trkpt lat="40.8367630" lon="-3.5427270">
        <ele>806.0</ele>
        <time>2020-09-29T09:53:41Z</time>
      </trkpt>
      <trkpt lat="40.8367530" lon="-3.5428070">
        <ele>806.0</ele>
        <time>2020-09-29T09:53:42Z</time>
      </trkpt>
      <trkpt lat="40.8367480" lon="-3.5428470">
        <ele>806.0</ele>
        <time>2020-09-29T09:53:43Z</time>
      </trkpt>
      <trkpt lat="40.8367430" lon="-3.5428870">
        <ele>806.0</ele>
        <time>2020-09-29T09:53:44Z</time>
      </trkpt>
      <trkpt lat="40.8367430" lon="-3.5428870">
        <ele>807.0</ele>
        <time>2020-09-29T09:53:45Z</time>
      </trkpt>
      <trkpt lat="40.8367270" lon="-3.5429680">
        <ele>807.0</ele>
        <time>2020-09-29T09:53:46Z</time>
      </trkpt>
      <trkpt lat="40.8367270" lon="-3.5429680">
        <ele>807.0</ele>
        <time>2020-09-29T09:53:47Z</time>
      </trkpt>
      <trkpt lat="40.8367070" lon="-3.5430480">
        <ele>807.0</ele>
        <time>2020-09-29T09:53:48Z</time>
      </trkpt>
      <trkpt lat="40.8367070" lon="-3.5430480">
        <ele>808.0</ele>
        <time>2020-09-29T09:53:49Z</time>
      </trkpt>
      <trkpt lat="40.8367070" lon="-3.5430480">
        <ele>808.0</ele>
        <time>2020-09-29T09:53:50Z</time>
      </trkpt>
      <trkpt lat="40.8366800" lon="-3.5431270">
        <ele>808.0</ele>
        <time>2020-09-29T09:53:51Z</time>
      </trkpt>
      <trkpt lat="40.8366480" lon="-3.5432030">
        <ele>808.0</ele>
        <time>2020-09-29T09:53:52Z</time>
      </trkpt>
      <trkpt lat="40.8366480" lon="-3.5432030">
        <ele>808.0</ele>
        <time>2020-09-29T09:53:53Z</time>
      </trkpt>
      <trkpt lat="40.8366120" lon="-3.5432800">
        <ele>809.0</ele>
        <time>2020-09-29T09:53:54Z</time>
      </trkpt>
      <trkpt lat="40.8365930" lon="-3.5433180">
        <ele>809.0</ele>
        <time>2020-09-29T09:53:55Z</time>
      </trkpt>
      <trkpt lat="40.8365930" lon="-3.5433180">
        <ele>809.0</ele>
        <time>2020-09-29T09:53:56Z</time>
      </trkpt>
      <trkpt lat="40.8365570" lon="-3.5433930">
        <ele>809.0</ele>
        <time>2020-09-29T09:53:57Z</time>
      </trkpt>
      <trkpt lat="40.8365380" lon="-3.5434320">
        <ele>810.0</ele>
        <time>2020-09-29T09:53:58Z</time>
      </trkpt>
      <trkpt lat="40.8365380" lon="-3.5434320">
        <ele>810.0</ele>
        <time>2020-09-29T09:53:59Z</time>
      </trkpt>
      <trkpt lat="40.8365030" lon="-3.5435100">
        <ele>810.0</ele>
        <time>2020-09-29T09:54:00Z</time>
      </trkpt>
      <trkpt lat="40.8364880" lon="-3.5435520">
        <ele>810.0</ele>
        <time>2020-09-29T09:54:01Z</time>
      </trkpt>
      <trkpt lat="40.8364880" lon="-3.5435520">
        <ele>810.0</ele>
        <time>2020-09-29T09:54:02Z</time>
      </trkpt>
      <trkpt lat="40.8364600" lon="-3.5436350">
        <ele>810.0</ele>
        <time>2020-09-29T09:54:03Z</time>
      </trkpt>
      <trkpt lat="40.8364600" lon="-3.5436350">
        <ele>810.0</ele>
        <time>2020-09-29T09:54:04Z</time>
      </trkpt>
      <trkpt lat="40.8364400" lon="-3.5437230">
        <ele>811.0</ele>
        <time>2020-09-29T09:54:05Z</time>
      </trkpt>
      <trkpt lat="40.8364400" lon="-3.5437230">
        <ele>811.0</ele>
        <time>2020-09-29T09:54:06Z</time>
      </trkpt>
      <trkpt lat="40.8364200" lon="-3.5438120">
        <ele>811.0</ele>
        <time>2020-09-29T09:54:07Z</time>
      </trkpt>
      <trkpt lat="40.8364200" lon="-3.5438120">
        <ele>811.0</ele>
        <time>2020-09-29T09:54:08Z</time>
      </trkpt>
      <trkpt lat="40.8363980" lon="-3.5438970">
        <ele>811.0</ele>
        <time>2020-09-29T09:54:09Z</time>
      </trkpt>
      <trkpt lat="40.8363980" lon="-3.5438970">
        <ele>811.0</ele>
        <time>2020-09-29T09:54:10Z</time>
      </trkpt>
      <trkpt lat="40.8363750" lon="-3.5439820">
        <ele>811.0</ele>
        <time>2020-09-29T09:54:11Z</time>
      </trkpt>
      <trkpt lat="40.8363750" lon="-3.5439820">
        <ele>811.0</ele>
        <time>2020-09-29T09:54:12Z</time>
      </trkpt>
      <trkpt lat="40.8363550" lon="-3.5440700">
        <ele>811.0</ele>
        <time>2020-09-29T09:54:13Z</time>
      </trkpt>
      <trkpt lat="40.8363550" lon="-3.5440700">
        <ele>811.0</ele>
        <time>2020-09-29T09:54:14Z</time>
      </trkpt>
      <trkpt lat="40.8363330" lon="-3.5441620">
        <ele>811.0</ele>
        <time>2020-09-29T09:54:15Z</time>
      </trkpt>
      <trkpt lat="40.8363230" lon="-3.5442070">
        <ele>811.0</ele>
        <time>2020-09-29T09:54:16Z</time>
      </trkpt>
      <trkpt lat="40.8363230" lon="-3.5442070">
        <ele>812.0</ele>
        <time>2020-09-29T09:54:17Z</time>
      </trkpt>
      <trkpt lat="40.8363030" lon="-3.5442970">
        <ele>812.0</ele>
        <time>2020-09-29T09:54:18Z</time>
      </trkpt>
      <trkpt lat="40.8362930" lon="-3.5443430">
        <ele>812.0</ele>
        <time>2020-09-29T09:54:19Z</time>
      </trkpt>
      <trkpt lat="40.8362930" lon="-3.5443430">
        <ele>812.0</ele>
        <time>2020-09-29T09:54:20Z</time>
      </trkpt>
      <trkpt lat="40.8362700" lon="-3.5444420">
        <ele>812.0</ele>
        <time>2020-09-29T09:54:21Z</time>
      </trkpt>
      <trkpt lat="40.8362700" lon="-3.5444420">
        <ele>812.0</ele>
        <time>2020-09-29T09:54:22Z</time>
      </trkpt>
      <trkpt lat="40.8362500" lon="-3.5445430">
        <ele>813.0</ele>
        <time>2020-09-29T09:54:23Z</time>
      </trkpt>
      <trkpt lat="40.8362500" lon="-3.5445430">
        <ele>813.0</ele>
        <time>2020-09-29T09:54:24Z</time>
      </trkpt>
      <trkpt lat="40.8362270" lon="-3.5446430">
        <ele>813.0</ele>
        <time>2020-09-29T09:54:25Z</time>
      </trkpt>
      <trkpt lat="40.8362270" lon="-3.5446430">
        <ele>813.0</ele>
        <time>2020-09-29T09:54:26Z</time>
      </trkpt>
      <trkpt lat="40.8362030" lon="-3.5447450">
        <ele>813.0</ele>
        <time>2020-09-29T09:54:27Z</time>
      </trkpt>
      <trkpt lat="40.8362030" lon="-3.5447450">
        <ele>814.0</ele>
        <time>2020-09-29T09:54:28Z</time>
      </trkpt>
      <trkpt lat="40.8361780" lon="-3.5448470">
        <ele>814.0</ele>
        <time>2020-09-29T09:54:29Z</time>
      </trkpt>
      <trkpt lat="40.8361670" lon="-3.5448980">
        <ele>814.0</ele>
        <time>2020-09-29T09:54:30Z</time>
      </trkpt>
      <trkpt lat="40.8361670" lon="-3.5448980">
        <ele>814.0</ele>
        <time>2020-09-29T09:54:31Z</time>
      </trkpt>
      <trkpt lat="40.8361670" lon="-3.5448980">
        <ele>814.0</ele>
        <time>2020-09-29T09:54:32Z</time>
      </trkpt>
      <trkpt lat="40.8361420" lon="-3.5450000">
        <ele>814.0</ele>
        <time>2020-09-29T09:54:33Z</time>
      </trkpt>
      <trkpt lat="40.8361170" lon="-3.5451000">
        <ele>815.0</ele>
        <time>2020-09-29T09:54:34Z</time>
      </trkpt>
      <trkpt lat="40.8361030" lon="-3.5451520">
        <ele>815.0</ele>
        <time>2020-09-29T09:54:35Z</time>
      </trkpt>
      <trkpt lat="40.8361030" lon="-3.5451520">
        <ele>815.0</ele>
        <time>2020-09-29T09:54:36Z</time>
      </trkpt>
      <trkpt lat="40.8360820" lon="-3.5452570">
        <ele>815.0</ele>
        <time>2020-09-29T09:54:37Z</time>
      </trkpt>
      <trkpt lat="40.8360820" lon="-3.5452570">
        <ele>815.0</ele>
        <time>2020-09-29T09:54:38Z</time>
      </trkpt>
      <trkpt lat="40.8360570" lon="-3.5453620">
        <ele>815.0</ele>
        <time>2020-09-29T09:54:39Z</time>
      </trkpt>
      <trkpt lat="40.8360450" lon="-3.5454150">
        <ele>815.0</ele>
        <time>2020-09-29T09:54:40Z</time>
      </trkpt>
      <trkpt lat="40.8360450" lon="-3.5454150">
        <ele>816.0</ele>
        <time>2020-09-29T09:54:41Z</time>
      </trkpt>
      <trkpt lat="40.8360200" lon="-3.5455200">
        <ele>816.0</ele>
        <time>2020-09-29T09:54:42Z</time>
      </trkpt>
      <trkpt lat="40.8360080" lon="-3.5455730">
        <ele>816.0</ele>
        <time>2020-09-29T09:54:43Z</time>
      </trkpt>
      <trkpt lat="40.8360080" lon="-3.5455730">
        <ele>816.0</ele>
        <time>2020-09-29T09:54:44Z</time>
      </trkpt>
      <trkpt lat="40.8359830" lon="-3.5456780">
        <ele>816.0</ele>
        <time>2020-09-29T09:54:45Z</time>
      </trkpt>
      <trkpt lat="40.8359720" lon="-3.5457330">
        <ele>816.0</ele>
        <time>2020-09-29T09:54:46Z</time>
      </trkpt>
      <trkpt lat="40.8359720" lon="-3.5457330">
        <ele>816.0</ele>
        <time>2020-09-29T09:54:47Z</time>
      </trkpt>
      <trkpt lat="40.8359480" lon="-3.5458420">
        <ele>816.0</ele>
        <time>2020-09-29T09:54:48Z</time>
      </trkpt>
      <trkpt lat="40.8359370" lon="-3.5458950">
        <ele>817.0</ele>
        <time>2020-09-29T09:54:49Z</time>
      </trkpt>
      <trkpt lat="40.8359370" lon="-3.5458950">
        <ele>817.0</ele>
        <time>2020-09-29T09:54:50Z</time>
      </trkpt>
      <trkpt lat="40.8359120" lon="-3.5460030">
        <ele>817.0</ele>
        <time>2020-09-29T09:54:51Z</time>
      </trkpt>
      <trkpt lat="40.8359000" lon="-3.5460570">
        <ele>817.0</ele>
        <time>2020-09-29T09:54:52Z</time>
      </trkpt>
      <trkpt lat="40.8358900" lon="-3.5461120">
        <ele>818.0</ele>
        <time>2020-09-29T09:54:53Z</time>
      </trkpt>
      <trkpt lat="40.8358900" lon="-3.5461120">
        <ele>818.0</ele>
        <time>2020-09-29T09:54:54Z</time>
      </trkpt>
      <trkpt lat="40.8358670" lon="-3.5462220">
        <ele>818.0</ele>
        <time>2020-09-29T09:54:55Z</time>
      </trkpt>
      <trkpt lat="40.8358670" lon="-3.5462220">
        <ele>818.0</ele>
        <time>2020-09-29T09:54:56Z</time>
      </trkpt>
      <trkpt lat="40.8358400" lon="-3.5463300">
        <ele>818.0</ele>
        <time>2020-09-29T09:54:57Z</time>
      </trkpt>
      <trkpt lat="40.8358270" lon="-3.5463850">
        <ele>818.0</ele>
        <time>2020-09-29T09:54:58Z</time>
      </trkpt>
      <trkpt lat="40.8358270" lon="-3.5463850">
        <ele>819.0</ele>
        <time>2020-09-29T09:54:59Z</time>
      </trkpt>
      <trkpt lat="40.8358080" lon="-3.5464920">
        <ele>819.0</ele>
        <time>2020-09-29T09:55:00Z</time>
      </trkpt>
      <trkpt lat="40.8358080" lon="-3.5464920">
        <ele>819.0</ele>
        <time>2020-09-29T09:55:01Z</time>
      </trkpt>
      <trkpt lat="40.8357880" lon="-3.5466030">
        <ele>819.0</ele>
        <time>2020-09-29T09:55:02Z</time>
      </trkpt>
      <trkpt lat="40.8357880" lon="-3.5466030">
        <ele>819.0</ele>
        <time>2020-09-29T09:55:03Z</time>
      </trkpt>
      <trkpt lat="40.8357680" lon="-3.5467120">
        <ele>820.0</ele>
        <time>2020-09-29T09:55:04Z</time>
      </trkpt>
      <trkpt lat="40.8357680" lon="-3.5467120">
        <ele>820.0</ele>
        <time>2020-09-29T09:55:05Z</time>
      </trkpt>
      <trkpt lat="40.8357480" lon="-3.5468230">
        <ele>820.0</ele>
        <time>2020-09-29T09:55:06Z</time>
      </trkpt>
      <trkpt lat="40.8357370" lon="-3.5468800">
        <ele>820.0</ele>
        <time>2020-09-29T09:55:07Z</time>
      </trkpt>
      <trkpt lat="40.8357370" lon="-3.5468800">
        <ele>820.0</ele>
        <time>2020-09-29T09:55:08Z</time>
      </trkpt>
      <trkpt lat="40.8357170" lon="-3.5469900">
        <ele>821.0</ele>
        <time>2020-09-29T09:55:09Z</time>
      </trkpt>
      <trkpt lat="40.8357080" lon="-3.5470450">
        <ele>821.0</ele>
        <time>2020-09-29T09:55:10Z</time>
      </trkpt>
      <trkpt lat="40.8357080" lon="-3.5470450">
        <ele>821.0</ele>
        <time>2020-09-29T09:55:11Z</time>
      </trkpt>
      <trkpt lat="40.8356870" lon="-3.5471570">
        <ele>821.0</ele>
        <time>2020-09-29T09:55:12Z</time>
      </trkpt>
      <trkpt lat="40.8356870" lon="-3.5471570">
        <ele>821.0</ele>
        <time>2020-09-29T09:55:13Z</time>
      </trkpt>
      <trkpt lat="40.8356630" lon="-3.5472680">
        <ele>821.0</ele>
        <time>2020-09-29T09:55:14Z</time>
      </trkpt>
      <trkpt lat="40.8356630" lon="-3.5472680">
        <ele>821.0</ele>
        <time>2020-09-29T09:55:15Z</time>
      </trkpt>
      <trkpt lat="40.8356470" lon="-3.5473830">
        <ele>821.0</ele>
        <time>2020-09-29T09:55:16Z</time>
      </trkpt>
      <trkpt lat="40.8356470" lon="-3.5473830">
        <ele>821.0</ele>
        <time>2020-09-29T09:55:17Z</time>
      </trkpt>
      <trkpt lat="40.8356330" lon="-3.5474980">
        <ele>821.0</ele>
        <time>2020-09-29T09:55:18Z</time>
      </trkpt>
      <trkpt lat="40.8356330" lon="-3.5474980">
        <ele>821.0</ele>
        <time>2020-09-29T09:55:19Z</time>
      </trkpt>
      <trkpt lat="40.8356250" lon="-3.5476120">
        <ele>821.0</ele>
        <time>2020-09-29T09:55:20Z</time>
      </trkpt>
      <trkpt lat="40.8356200" lon="-3.5476670">
        <ele>822.0</ele>
        <time>2020-09-29T09:55:21Z</time>
      </trkpt>
      <trkpt lat="40.8356200" lon="-3.5476670">
        <ele>822.0</ele>
        <time>2020-09-29T09:55:22Z</time>
      </trkpt>
      <trkpt lat="40.8356170" lon="-3.5477750">
        <ele>822.0</ele>
        <time>2020-09-29T09:55:23Z</time>
      </trkpt>
      <trkpt lat="40.8356170" lon="-3.5477750">
        <ele>822.0</ele>
        <time>2020-09-29T09:55:24Z</time>
      </trkpt>
      <trkpt lat="40.8356170" lon="-3.5478870">
        <ele>823.0</ele>
        <time>2020-09-29T09:55:25Z</time>
      </trkpt>
      <trkpt lat="40.8356170" lon="-3.5478870">
        <ele>823.0</ele>
        <time>2020-09-29T09:55:26Z</time>
      </trkpt>
      <trkpt lat="40.8356130" lon="-3.5479970">
        <ele>823.0</ele>
        <time>2020-09-29T09:55:27Z</time>
      </trkpt>
      <trkpt lat="40.8356130" lon="-3.5479970">
        <ele>823.0</ele>
        <time>2020-09-29T09:55:28Z</time>
      </trkpt>
      <trkpt lat="40.8356020" lon="-3.5481050">
        <ele>824.0</ele>
        <time>2020-09-29T09:55:29Z</time>
      </trkpt>
      <trkpt lat="40.8356020" lon="-3.5481050">
        <ele>824.0</ele>
        <time>2020-09-29T09:55:30Z</time>
      </trkpt>
      <trkpt lat="40.8355750" lon="-3.5482100">
        <ele>824.0</ele>
        <time>2020-09-29T09:55:31Z</time>
      </trkpt>
      <trkpt lat="40.8355750" lon="-3.5482100">
        <ele>824.0</ele>
        <time>2020-09-29T09:55:32Z</time>
      </trkpt>
      <trkpt lat="40.8355350" lon="-3.5483080">
        <ele>825.0</ele>
        <time>2020-09-29T09:55:33Z</time>
      </trkpt>
      <trkpt lat="40.8355350" lon="-3.5483080">
        <ele>825.0</ele>
        <time>2020-09-29T09:55:34Z</time>
      </trkpt>
      <trkpt lat="40.8354880" lon="-3.5484050">
        <ele>825.0</ele>
        <time>2020-09-29T09:55:35Z</time>
      </trkpt>
      <trkpt lat="40.8354650" lon="-3.5484530">
        <ele>825.0</ele>
        <time>2020-09-29T09:55:36Z</time>
      </trkpt>
      <trkpt lat="40.8354650" lon="-3.5484530">
        <ele>825.0</ele>
        <time>2020-09-29T09:55:37Z</time>
      </trkpt>
      <trkpt lat="40.8354130" lon="-3.5485480">
        <ele>825.0</ele>
        <time>2020-09-29T09:55:38Z</time>
      </trkpt>
      <trkpt lat="40.8354130" lon="-3.5485480">
        <ele>825.0</ele>
        <time>2020-09-29T09:55:39Z</time>
      </trkpt>
      <trkpt lat="40.8353600" lon="-3.5486470">
        <ele>826.0</ele>
        <time>2020-09-29T09:55:40Z</time>
      </trkpt>
      <trkpt lat="40.8353600" lon="-3.5486470">
        <ele>826.0</ele>
        <time>2020-09-29T09:55:41Z</time>
      </trkpt>
      <trkpt lat="40.8353130" lon="-3.5487550">
        <ele>826.0</ele>
        <time>2020-09-29T09:55:42Z</time>
      </trkpt>
      <trkpt lat="40.8352950" lon="-3.5488130">
        <ele>826.0</ele>
        <time>2020-09-29T09:55:43Z</time>
      </trkpt>
      <trkpt lat="40.8352950" lon="-3.5488130">
        <ele>826.0</ele>
        <time>2020-09-29T09:55:44Z</time>
      </trkpt>
      <trkpt lat="40.8352650" lon="-3.5489320">
        <ele>826.0</ele>
        <time>2020-09-29T09:55:45Z</time>
      </trkpt>
      <trkpt lat="40.8352530" lon="-3.5489920">
        <ele>826.0</ele>
        <time>2020-09-29T09:55:46Z</time>
      </trkpt>
      <trkpt lat="40.8352530" lon="-3.5489920">
        <ele>826.0</ele>
        <time>2020-09-29T09:55:47Z</time>
      </trkpt>
      <trkpt lat="40.8352330" lon="-3.5491130">
        <ele>826.0</ele>
        <time>2020-09-29T09:55:48Z</time>
      </trkpt>
      <trkpt lat="40.8352330" lon="-3.5491130">
        <ele>827.0</ele>
        <time>2020-09-29T09:55:49Z</time>
      </trkpt>
      <trkpt lat="40.8352200" lon="-3.5492350">
        <ele>827.0</ele>
        <time>2020-09-29T09:55:50Z</time>
      </trkpt>
      <trkpt lat="40.8352130" lon="-3.5492950">
        <ele>827.0</ele>
        <time>2020-09-29T09:55:51Z</time>
      </trkpt>
      <trkpt lat="40.8352130" lon="-3.5492950">
        <ele>827.0</ele>
        <time>2020-09-29T09:55:52Z</time>
      </trkpt>
      <trkpt lat="40.8352020" lon="-3.5494170">
        <ele>828.0</ele>
        <time>2020-09-29T09:55:53Z</time>
      </trkpt>
      <trkpt lat="40.8351930" lon="-3.5494770">
        <ele>828.0</ele>
        <time>2020-09-29T09:55:54Z</time>
      </trkpt>
      <trkpt lat="40.8351930" lon="-3.5494770">
        <ele>828.0</ele>
        <time>2020-09-29T09:55:55Z</time>
      </trkpt>
      <trkpt lat="40.8351800" lon="-3.5496000">
        <ele>828.0</ele>
        <time>2020-09-29T09:55:56Z</time>
      </trkpt>
      <trkpt lat="40.8351800" lon="-3.5496000">
        <ele>828.0</ele>
        <time>2020-09-29T09:55:57Z</time>
      </trkpt>
      <trkpt lat="40.8351800" lon="-3.5496000">
        <ele>828.0</ele>
        <time>2020-09-29T09:55:58Z</time>
      </trkpt>
      <trkpt lat="40.8351670" lon="-3.5497280">
        <ele>828.0</ele>
        <time>2020-09-29T09:55:59Z</time>
      </trkpt>
      <trkpt lat="40.8351580" lon="-3.5498570">
        <ele>828.0</ele>
        <time>2020-09-29T09:56:00Z</time>
      </trkpt>
      <trkpt lat="40.8351520" lon="-3.5499180">
        <ele>829.0</ele>
        <time>2020-09-29T09:56:01Z</time>
      </trkpt>
      <trkpt lat="40.8351520" lon="-3.5499180">
        <ele>829.0</ele>
        <time>2020-09-29T09:56:02Z</time>
      </trkpt>
      <trkpt lat="40.8351400" lon="-3.5500430">
        <ele>829.0</ele>
        <time>2020-09-29T09:56:03Z</time>
      </trkpt>
      <trkpt lat="40.8351350" lon="-3.5501050">
        <ele>829.0</ele>
        <time>2020-09-29T09:56:04Z</time>
      </trkpt>
      <trkpt lat="40.8351350" lon="-3.5501050">
        <ele>829.0</ele>
        <time>2020-09-29T09:56:05Z</time>
      </trkpt>
      <trkpt lat="40.8351250" lon="-3.5502300">
        <ele>829.0</ele>
        <time>2020-09-29T09:56:06Z</time>
      </trkpt>
      <trkpt lat="40.8351180" lon="-3.5502920">
        <ele>830.0</ele>
        <time>2020-09-29T09:56:07Z</time>
      </trkpt>
      <trkpt lat="40.8351180" lon="-3.5502920">
        <ele>830.0</ele>
        <time>2020-09-29T09:56:08Z</time>
      </trkpt>
      <trkpt lat="40.8351050" lon="-3.5504150">
        <ele>830.0</ele>
        <time>2020-09-29T09:56:09Z</time>
      </trkpt>
      <trkpt lat="40.8351050" lon="-3.5504150">
        <ele>830.0</ele>
        <time>2020-09-29T09:56:10Z</time>
      </trkpt>
      <trkpt lat="40.8350950" lon="-3.5505400">
        <ele>830.0</ele>
        <time>2020-09-29T09:56:11Z</time>
      </trkpt>
      <trkpt lat="40.8350950" lon="-3.5505400">
        <ele>830.0</ele>
        <time>2020-09-29T09:56:12Z</time>
      </trkpt>
      <trkpt lat="40.8350820" lon="-3.5506650">
        <ele>831.0</ele>
        <time>2020-09-29T09:56:13Z</time>
      </trkpt>
      <trkpt lat="40.8350820" lon="-3.5506650">
        <ele>831.0</ele>
        <time>2020-09-29T09:56:14Z</time>
      </trkpt>
      <trkpt lat="40.8350730" lon="-3.5507850">
        <ele>831.0</ele>
        <time>2020-09-29T09:56:15Z</time>
      </trkpt>
      <trkpt lat="40.8350730" lon="-3.5507850">
        <ele>831.0</ele>
        <time>2020-09-29T09:56:16Z</time>
      </trkpt>
      <trkpt lat="40.8350630" lon="-3.5509130">
        <ele>831.0</ele>
        <time>2020-09-29T09:56:17Z</time>
      </trkpt>
      <trkpt lat="40.8350630" lon="-3.5509130">
        <ele>832.0</ele>
        <time>2020-09-29T09:56:18Z</time>
      </trkpt>
      <trkpt lat="40.8350570" lon="-3.5510430">
        <ele>832.0</ele>
        <time>2020-09-29T09:56:19Z</time>
      </trkpt>
      <trkpt lat="40.8350570" lon="-3.5510430">
        <ele>832.0</ele>
        <time>2020-09-29T09:56:20Z</time>
      </trkpt>
      <trkpt lat="40.8350520" lon="-3.5511720">
        <ele>833.0</ele>
        <time>2020-09-29T09:56:21Z</time>
      </trkpt>
      <trkpt lat="40.8350520" lon="-3.5511720">
        <ele>833.0</ele>
        <time>2020-09-29T09:56:22Z</time>
      </trkpt>
      <trkpt lat="40.8350530" lon="-3.5512980">
        <ele>833.0</ele>
        <time>2020-09-29T09:56:23Z</time>
      </trkpt>
      <trkpt lat="40.8350530" lon="-3.5512980">
        <ele>833.0</ele>
        <time>2020-09-29T09:56:24Z</time>
      </trkpt>
      <trkpt lat="40.8350570" lon="-3.5514270">
        <ele>834.0</ele>
        <time>2020-09-29T09:56:25Z</time>
      </trkpt>
      <trkpt lat="40.8350570" lon="-3.5514270">
        <ele>834.0</ele>
        <time>2020-09-29T09:56:26Z</time>
      </trkpt>
      <trkpt lat="40.8350630" lon="-3.5515530">
        <ele>834.0</ele>
        <time>2020-09-29T09:56:27Z</time>
      </trkpt>
      <trkpt lat="40.8350680" lon="-3.5516170">
        <ele>834.0</ele>
        <time>2020-09-29T09:56:28Z</time>
      </trkpt>
      <trkpt lat="40.8350680" lon="-3.5516170">
        <ele>834.0</ele>
        <time>2020-09-29T09:56:29Z</time>
      </trkpt>
      <trkpt lat="40.8350700" lon="-3.5517400">
        <ele>834.0</ele>
        <time>2020-09-29T09:56:30Z</time>
      </trkpt>
      <trkpt lat="40.8350700" lon="-3.5517400">
        <ele>834.0</ele>
        <time>2020-09-29T09:56:31Z</time>
      </trkpt>
      <trkpt lat="40.8350720" lon="-3.5518680">
        <ele>834.0</ele>
        <time>2020-09-29T09:56:32Z</time>
      </trkpt>
      <trkpt lat="40.8350720" lon="-3.5518680">
        <ele>835.0</ele>
        <time>2020-09-29T09:56:33Z</time>
      </trkpt>
      <trkpt lat="40.8350680" lon="-3.5519950">
        <ele>835.0</ele>
        <time>2020-09-29T09:56:34Z</time>
      </trkpt>
      <trkpt lat="40.8350680" lon="-3.5519950">
        <ele>835.0</ele>
        <time>2020-09-29T09:56:35Z</time>
      </trkpt>
      <trkpt lat="40.8350580" lon="-3.5521230">
        <ele>835.0</ele>
        <time>2020-09-29T09:56:36Z</time>
      </trkpt>
      <trkpt lat="40.8350530" lon="-3.5521880">
        <ele>835.0</ele>
        <time>2020-09-29T09:56:37Z</time>
      </trkpt>
      <trkpt lat="40.8350530" lon="-3.5521880">
        <ele>835.0</ele>
        <time>2020-09-29T09:56:38Z</time>
      </trkpt>
      <trkpt lat="40.8350320" lon="-3.5523170">
        <ele>835.0</ele>
        <time>2020-09-29T09:56:39Z</time>
      </trkpt>
      <trkpt lat="40.8350320" lon="-3.5523170">
        <ele>835.0</ele>
        <time>2020-09-29T09:56:40Z</time>
      </trkpt>
      <trkpt lat="40.8349880" lon="-3.5524350">
        <ele>835.0</ele>
        <time>2020-09-29T09:56:41Z</time>
      </trkpt>
      <trkpt lat="40.8349880" lon="-3.5524350">
        <ele>835.0</ele>
        <time>2020-09-29T09:56:42Z</time>
      </trkpt>
      <trkpt lat="40.8349330" lon="-3.5525400">
        <ele>835.0</ele>
        <time>2020-09-29T09:56:43Z</time>
      </trkpt>
      <trkpt lat="40.8349330" lon="-3.5525400">
        <ele>835.0</ele>
        <time>2020-09-29T09:56:44Z</time>
      </trkpt>
      <trkpt lat="40.8348680" lon="-3.5526350">
        <ele>835.0</ele>
        <time>2020-09-29T09:56:45Z</time>
      </trkpt>
      <trkpt lat="40.8348680" lon="-3.5526350">
        <ele>835.0</ele>
        <time>2020-09-29T09:56:46Z</time>
      </trkpt>
      <trkpt lat="40.8347980" lon="-3.5527330">
        <ele>836.0</ele>
        <time>2020-09-29T09:56:47Z</time>
      </trkpt>
      <trkpt lat="40.8347630" lon="-3.5527820">
        <ele>836.0</ele>
        <time>2020-09-29T09:56:48Z</time>
      </trkpt>
      <trkpt lat="40.8347630" lon="-3.5527820">
        <ele>836.0</ele>
        <time>2020-09-29T09:56:49Z</time>
      </trkpt>
      <trkpt lat="40.8347020" lon="-3.5528820">
        <ele>836.0</ele>
        <time>2020-09-29T09:56:50Z</time>
      </trkpt>
      <trkpt lat="40.8347020" lon="-3.5528820">
        <ele>836.0</ele>
        <time>2020-09-29T09:56:51Z</time>
      </trkpt>
      <trkpt lat="40.8346530" lon="-3.5530000">
        <ele>836.0</ele>
        <time>2020-09-29T09:56:52Z</time>
      </trkpt>
      <trkpt lat="40.8346350" lon="-3.5530620">
        <ele>836.0</ele>
        <time>2020-09-29T09:56:53Z</time>
      </trkpt>
      <trkpt lat="40.8346350" lon="-3.5530620">
        <ele>836.0</ele>
        <time>2020-09-29T09:56:54Z</time>
      </trkpt>
      <trkpt lat="40.8346000" lon="-3.5531850">
        <ele>837.0</ele>
        <time>2020-09-29T09:56:55Z</time>
      </trkpt>
      <trkpt lat="40.8346000" lon="-3.5531850">
        <ele>837.0</ele>
        <time>2020-09-29T09:56:56Z</time>
      </trkpt>
      <trkpt lat="40.8346000" lon="-3.5531850">
        <ele>837.0</ele>
        <time>2020-09-29T09:56:57Z</time>
      </trkpt>
      <trkpt lat="40.8345870" lon="-3.5533150">
        <ele>837.0</ele>
        <time>2020-09-29T09:56:58Z</time>
      </trkpt>
      <trkpt lat="40.8346000" lon="-3.5534470">
        <ele>838.0</ele>
        <time>2020-09-29T09:56:59Z</time>
      </trkpt>
      <trkpt lat="40.8346000" lon="-3.5534470">
        <ele>838.0</ele>
        <time>2020-09-29T09:57:00Z</time>
      </trkpt>
      <trkpt lat="40.8346370" lon="-3.5535700">
        <ele>838.0</ele>
        <time>2020-09-29T09:57:01Z</time>
      </trkpt>
      <trkpt lat="40.8346370" lon="-3.5535700">
        <ele>838.0</ele>
        <time>2020-09-29T09:57:02Z</time>
      </trkpt>
      <trkpt lat="40.8347000" lon="-3.5536680">
        <ele>838.0</ele>
        <time>2020-09-29T09:57:03Z</time>
      </trkpt>
      <trkpt lat="40.8347430" lon="-3.5537030">
        <ele>838.0</ele>
        <time>2020-09-29T09:57:04Z</time>
      </trkpt>
      <trkpt lat="40.8347430" lon="-3.5537030">
        <ele>839.0</ele>
        <time>2020-09-29T09:57:05Z</time>
      </trkpt>
      <trkpt lat="40.8348350" lon="-3.5537570">
        <ele>839.0</ele>
        <time>2020-09-29T09:57:06Z</time>
      </trkpt>
      <trkpt lat="40.8348820" lon="-3.5537770">
        <ele>839.0</ele>
        <time>2020-09-29T09:57:07Z</time>
      </trkpt>
      <trkpt lat="40.8348820" lon="-3.5537770">
        <ele>839.0</ele>
        <time>2020-09-29T09:57:08Z</time>
      </trkpt>
      <trkpt lat="40.8349780" lon="-3.5538130">
        <ele>839.0</ele>
        <time>2020-09-29T09:57:09Z</time>
      </trkpt>
      <trkpt lat="40.8349780" lon="-3.5538130">
        <ele>839.0</ele>
        <time>2020-09-29T09:57:10Z</time>
      </trkpt>
      <trkpt lat="40.8350730" lon="-3.5538420">
        <ele>839.0</ele>
        <time>2020-09-29T09:57:11Z</time>
      </trkpt>
      <trkpt lat="40.8350730" lon="-3.5538420">
        <ele>839.0</ele>
        <time>2020-09-29T09:57:12Z</time>
      </trkpt>
      <trkpt lat="40.8351720" lon="-3.5538670">
        <ele>840.0</ele>
        <time>2020-09-29T09:57:13Z</time>
      </trkpt>
      <trkpt lat="40.8351720" lon="-3.5538670">
        <ele>840.0</ele>
        <time>2020-09-29T09:57:14Z</time>
      </trkpt>
      <trkpt lat="40.8352680" lon="-3.5538980">
        <ele>840.0</ele>
        <time>2020-09-29T09:57:15Z</time>
      </trkpt>
      <trkpt lat="40.8352680" lon="-3.5538980">
        <ele>840.0</ele>
        <time>2020-09-29T09:57:16Z</time>
      </trkpt>
      <trkpt lat="40.8352680" lon="-3.5538980">
        <ele>840.0</ele>
        <time>2020-09-29T09:57:17Z</time>
      </trkpt>
      <trkpt lat="40.8353570" lon="-3.5539580">
        <ele>840.0</ele>
        <time>2020-09-29T09:57:18Z</time>
      </trkpt>
      <trkpt lat="40.8354300" lon="-3.5540480">
        <ele>841.0</ele>
        <time>2020-09-29T09:57:19Z</time>
      </trkpt>
      <trkpt lat="40.8354300" lon="-3.5540480">
        <ele>841.0</ele>
        <time>2020-09-29T09:57:20Z</time>
      </trkpt>
      <trkpt lat="40.8354920" lon="-3.5541530">
        <ele>841.0</ele>
        <time>2020-09-29T09:57:21Z</time>
      </trkpt>
      <trkpt lat="40.8354920" lon="-3.5541530">
        <ele>841.0</ele>
        <time>2020-09-29T09:57:22Z</time>
      </trkpt>
      <trkpt lat="40.8355430" lon="-3.5542670">
        <ele>842.0</ele>
        <time>2020-09-29T09:57:23Z</time>
      </trkpt>
      <trkpt lat="40.8355630" lon="-3.5543250">
        <ele>842.0</ele>
        <time>2020-09-29T09:57:24Z</time>
      </trkpt>
      <trkpt lat="40.8355630" lon="-3.5543250">
        <ele>842.0</ele>
        <time>2020-09-29T09:57:25Z</time>
      </trkpt>
      <trkpt lat="40.8355970" lon="-3.5544470">
        <ele>843.0</ele>
        <time>2020-09-29T09:57:26Z</time>
      </trkpt>
      <trkpt lat="40.8356120" lon="-3.5545080">
        <ele>843.0</ele>
        <time>2020-09-29T09:57:27Z</time>
      </trkpt>
      <trkpt lat="40.8356200" lon="-3.5545720">
        <ele>843.0</ele>
        <time>2020-09-29T09:57:28Z</time>
      </trkpt>
      <trkpt lat="40.8356200" lon="-3.5545720">
        <ele>843.0</ele>
        <time>2020-09-29T09:57:29Z</time>
      </trkpt>
      <trkpt lat="40.8356330" lon="-3.5547000">
        <ele>844.0</ele>
        <time>2020-09-29T09:57:30Z</time>
      </trkpt>
      <trkpt lat="40.8356330" lon="-3.5547000">
        <ele>844.0</ele>
        <time>2020-09-29T09:57:31Z</time>
      </trkpt>
      <trkpt lat="40.8356430" lon="-3.5548270">
        <ele>844.0</ele>
        <time>2020-09-29T09:57:32Z</time>
      </trkpt>
      <trkpt lat="40.8356430" lon="-3.5548270">
        <ele>844.0</ele>
        <time>2020-09-29T09:57:33Z</time>
      </trkpt>
      <trkpt lat="40.8356470" lon="-3.5549570">
        <ele>844.0</ele>
        <time>2020-09-29T09:57:34Z</time>
      </trkpt>
      <trkpt lat="40.8356470" lon="-3.5549570">
        <ele>844.0</ele>
        <time>2020-09-29T09:57:35Z</time>
      </trkpt>
      <trkpt lat="40.8356470" lon="-3.5550220">
        <ele>844.0</ele>
        <time>2020-09-29T09:57:36Z</time>
      </trkpt>
      <trkpt lat="40.8356500" lon="-3.5551520">
        <ele>844.0</ele>
        <time>2020-09-29T09:57:37Z</time>
      </trkpt>
      <trkpt lat="40.8356500" lon="-3.5551520">
        <ele>845.0</ele>
        <time>2020-09-29T09:57:38Z</time>
      </trkpt>
      <trkpt lat="40.8356570" lon="-3.5552780">
        <ele>845.0</ele>
        <time>2020-09-29T09:57:39Z</time>
      </trkpt>
      <trkpt lat="40.8356570" lon="-3.5552780">
        <ele>845.0</ele>
        <time>2020-09-29T09:57:40Z</time>
      </trkpt>
      <trkpt lat="40.8356630" lon="-3.5554050">
        <ele>845.0</ele>
        <time>2020-09-29T09:57:41Z</time>
      </trkpt>
      <trkpt lat="40.8356680" lon="-3.5554700">
        <ele>845.0</ele>
        <time>2020-09-29T09:57:42Z</time>
      </trkpt>
      <trkpt lat="40.8356680" lon="-3.5554700">
        <ele>845.0</ele>
        <time>2020-09-29T09:57:43Z</time>
      </trkpt>
      <trkpt lat="40.8356880" lon="-3.5555980">
        <ele>845.0</ele>
        <time>2020-09-29T09:57:44Z</time>
      </trkpt>
      <trkpt lat="40.8356880" lon="-3.5555980">
        <ele>846.0</ele>
        <time>2020-09-29T09:57:45Z</time>
      </trkpt>
      <trkpt lat="40.8357150" lon="-3.5557220">
        <ele>846.0</ele>
        <time>2020-09-29T09:57:46Z</time>
      </trkpt>
      <trkpt lat="40.8357370" lon="-3.5557800">
        <ele>846.0</ele>
        <time>2020-09-29T09:57:47Z</time>
      </trkpt>
      <trkpt lat="40.8357370" lon="-3.5557800">
        <ele>846.0</ele>
        <time>2020-09-29T09:57:48Z</time>
      </trkpt>
      <trkpt lat="40.8358020" lon="-3.5558830">
        <ele>847.0</ele>
        <time>2020-09-29T09:57:49Z</time>
      </trkpt>
      <trkpt lat="40.8358020" lon="-3.5558830">
        <ele>847.0</ele>
        <time>2020-09-29T09:57:50Z</time>
      </trkpt>
      <trkpt lat="40.8358800" lon="-3.5559650">
        <ele>847.0</ele>
        <time>2020-09-29T09:57:51Z</time>
      </trkpt>
      <trkpt lat="40.8358800" lon="-3.5559650">
        <ele>847.0</ele>
        <time>2020-09-29T09:57:52Z</time>
      </trkpt>
      <trkpt lat="40.8358800" lon="-3.5559650">
        <ele>848.0</ele>
        <time>2020-09-29T09:57:53Z</time>
      </trkpt>
      <trkpt lat="40.8359600" lon="-3.5560420">
        <ele>848.0</ele>
        <time>2020-09-29T09:57:54Z</time>
      </trkpt>
      <trkpt lat="40.8360450" lon="-3.5561150">
        <ele>848.0</ele>
        <time>2020-09-29T09:57:55Z</time>
      </trkpt>
      <trkpt lat="40.8360450" lon="-3.5561150">
        <ele>848.0</ele>
        <time>2020-09-29T09:57:56Z</time>
      </trkpt>
      <trkpt lat="40.8361300" lon="-3.5561920">
        <ele>849.0</ele>
        <time>2020-09-29T09:57:57Z</time>
      </trkpt>
      <trkpt lat="40.8361300" lon="-3.5561920">
        <ele>849.0</ele>
        <time>2020-09-29T09:57:58Z</time>
      </trkpt>
      <trkpt lat="40.8361980" lon="-3.5562830">
        <ele>849.0</ele>
        <time>2020-09-29T09:57:59Z</time>
      </trkpt>
      <trkpt lat="40.8362250" lon="-3.5563380">
        <ele>849.0</ele>
        <time>2020-09-29T09:58:00Z</time>
      </trkpt>
      <trkpt lat="40.8362250" lon="-3.5563380">
        <ele>849.0</ele>
        <time>2020-09-29T09:58:01Z</time>
      </trkpt>
      <trkpt lat="40.8362580" lon="-3.5564580">
        <ele>850.0</ele>
        <time>2020-09-29T09:58:02Z</time>
      </trkpt>
      <trkpt lat="40.8362580" lon="-3.5564580">
        <ele>850.0</ele>
        <time>2020-09-29T09:58:03Z</time>
      </trkpt>
      <trkpt lat="40.8362530" lon="-3.5565900">
        <ele>850.0</ele>
        <time>2020-09-29T09:58:04Z</time>
      </trkpt>
      <trkpt lat="40.8362530" lon="-3.5565900">
        <ele>850.0</ele>
        <time>2020-09-29T09:58:05Z</time>
      </trkpt>
      <trkpt lat="40.8362070" lon="-3.5567070">
        <ele>851.0</ele>
        <time>2020-09-29T09:58:06Z</time>
      </trkpt>
      <trkpt lat="40.8361720" lon="-3.5567570">
        <ele>851.0</ele>
        <time>2020-09-29T09:58:07Z</time>
      </trkpt>
      <trkpt lat="40.8361720" lon="-3.5567570">
        <ele>851.0</ele>
        <time>2020-09-29T09:58:08Z</time>
      </trkpt>
      <trkpt lat="40.8360880" lon="-3.5568320">
        <ele>851.0</ele>
        <time>2020-09-29T09:58:09Z</time>
      </trkpt>
      <trkpt lat="40.8360880" lon="-3.5568320">
        <ele>851.0</ele>
        <time>2020-09-29T09:58:10Z</time>
      </trkpt>
      <trkpt lat="40.8360020" lon="-3.5568970">
        <ele>852.0</ele>
        <time>2020-09-29T09:58:11Z</time>
      </trkpt>
      <trkpt lat="40.8360020" lon="-3.5568970">
        <ele>852.0</ele>
        <time>2020-09-29T09:58:12Z</time>
      </trkpt>
      <trkpt lat="40.8359150" lon="-3.5569520">
        <ele>852.0</ele>
        <time>2020-09-29T09:58:13Z</time>
      </trkpt>
      <trkpt lat="40.8359150" lon="-3.5569520">
        <ele>852.0</ele>
        <time>2020-09-29T09:58:14Z</time>
      </trkpt>
      <trkpt lat="40.8358400" lon="-3.5570300">
        <ele>853.0</ele>
        <time>2020-09-29T09:58:15Z</time>
      </trkpt>
      <trkpt lat="40.8358400" lon="-3.5570300">
        <ele>853.0</ele>
        <time>2020-09-29T09:58:16Z</time>
      </trkpt>
      <trkpt lat="40.8357830" lon="-3.5571370">
        <ele>853.0</ele>
        <time>2020-09-29T09:58:17Z</time>
      </trkpt>
      <trkpt lat="40.8357600" lon="-3.5571930">
        <ele>853.0</ele>
        <time>2020-09-29T09:58:18Z</time>
      </trkpt>
      <trkpt lat="40.8357600" lon="-3.5571930">
        <ele>853.0</ele>
        <time>2020-09-29T09:58:19Z</time>
      </trkpt>
      <trkpt lat="40.8357180" lon="-3.5573130">
        <ele>853.0</ele>
        <time>2020-09-29T09:58:20Z</time>
      </trkpt>
      <trkpt lat="40.8357180" lon="-3.5573130">
        <ele>854.0</ele>
        <time>2020-09-29T09:58:21Z</time>
      </trkpt>
      <trkpt lat="40.8357180" lon="-3.5573130">
        <ele>854.0</ele>
        <time>2020-09-29T09:58:22Z</time>
      </trkpt>
      <trkpt lat="40.8356870" lon="-3.5574330">
        <ele>854.0</ele>
        <time>2020-09-29T09:58:23Z</time>
      </trkpt>
      <trkpt lat="40.8356680" lon="-3.5575580">
        <ele>854.0</ele>
        <time>2020-09-29T09:58:24Z</time>
      </trkpt>
      <trkpt lat="40.8356680" lon="-3.5575580">
        <ele>854.0</ele>
        <time>2020-09-29T09:58:25Z</time>
      </trkpt>
      <trkpt lat="40.8356620" lon="-3.5576930">
        <ele>854.0</ele>
        <time>2020-09-29T09:58:26Z</time>
      </trkpt>
      <trkpt lat="40.8356620" lon="-3.5577670">
        <ele>854.0</ele>
        <time>2020-09-29T09:58:27Z</time>
      </trkpt>
      <trkpt lat="40.8356620" lon="-3.5577670">
        <ele>854.0</ele>
        <time>2020-09-29T09:58:28Z</time>
      </trkpt>
      <trkpt lat="40.8356670" lon="-3.5579030">
        <ele>854.0</ele>
        <time>2020-09-29T09:58:29Z</time>
      </trkpt>
      <trkpt lat="40.8356670" lon="-3.5579030">
        <ele>854.0</ele>
        <time>2020-09-29T09:58:30Z</time>
      </trkpt>
      <trkpt lat="40.8356770" lon="-3.5580350">
        <ele>855.0</ele>
        <time>2020-09-29T09:58:31Z</time>
      </trkpt>
      <trkpt lat="40.8356830" lon="-3.5581000">
        <ele>855.0</ele>
        <time>2020-09-29T09:58:32Z</time>
      </trkpt>
      <trkpt lat="40.8356900" lon="-3.5581620">
        <ele>855.0</ele>
        <time>2020-09-29T09:58:33Z</time>
      </trkpt>
      <trkpt lat="40.8356900" lon="-3.5581620">
        <ele>855.0</ele>
        <time>2020-09-29T09:58:34Z</time>
      </trkpt>
      <trkpt lat="40.8357070" lon="-3.5582870">
        <ele>856.0</ele>
        <time>2020-09-29T09:58:35Z</time>
      </trkpt>
      <trkpt lat="40.8357070" lon="-3.5582870">
        <ele>856.0</ele>
        <time>2020-09-29T09:58:36Z</time>
      </trkpt>
      <trkpt lat="40.8357220" lon="-3.5584100">
        <ele>856.0</ele>
        <time>2020-09-29T09:58:37Z</time>
      </trkpt>
      <trkpt lat="40.8357220" lon="-3.5584100">
        <ele>856.0</ele>
        <time>2020-09-29T09:58:38Z</time>
      </trkpt>
      <trkpt lat="40.8357370" lon="-3.5585300">
        <ele>856.0</ele>
        <time>2020-09-29T09:58:39Z</time>
      </trkpt>
      <trkpt lat="40.8357430" lon="-3.5585920">
        <ele>857.0</ele>
        <time>2020-09-29T09:58:40Z</time>
      </trkpt>
      <trkpt lat="40.8357500" lon="-3.5586520">
        <ele>857.0</ele>
        <time>2020-09-29T09:58:41Z</time>
      </trkpt>
      <trkpt lat="40.8357500" lon="-3.5586520">
        <ele>857.0</ele>
        <time>2020-09-29T09:58:42Z</time>
      </trkpt>
      <trkpt lat="40.8357670" lon="-3.5587730">
        <ele>857.0</ele>
        <time>2020-09-29T09:58:43Z</time>
      </trkpt>
      <trkpt lat="40.8357670" lon="-3.5587730">
        <ele>857.0</ele>
        <time>2020-09-29T09:58:44Z</time>
      </trkpt>
      <trkpt lat="40.8357670" lon="-3.5587730">
        <ele>857.0</ele>
        <time>2020-09-29T09:58:45Z</time>
      </trkpt>
      <trkpt lat="40.8357820" lon="-3.5588970">
        <ele>858.0</ele>
        <time>2020-09-29T09:58:46Z</time>
      </trkpt>
      <trkpt lat="40.8357970" lon="-3.5590220">
        <ele>858.0</ele>
        <time>2020-09-29T09:58:47Z</time>
      </trkpt>
      <trkpt lat="40.8357970" lon="-3.5590220">
        <ele>858.0</ele>
        <time>2020-09-29T09:58:48Z</time>
      </trkpt>
      <trkpt lat="40.8358120" lon="-3.5591480">
        <ele>858.0</ele>
        <time>2020-09-29T09:58:49Z</time>
      </trkpt>
      <trkpt lat="40.8358120" lon="-3.5591480">
        <ele>858.0</ele>
        <time>2020-09-29T09:58:50Z</time>
      </trkpt>
      <trkpt lat="40.8358280" lon="-3.5592750">
        <ele>858.0</ele>
        <time>2020-09-29T09:58:51Z</time>
      </trkpt>
      <trkpt lat="40.8358370" lon="-3.5593380">
        <ele>858.0</ele>
        <time>2020-09-29T09:58:52Z</time>
      </trkpt>
      <trkpt lat="40.8358450" lon="-3.5594030">
        <ele>858.0</ele>
        <time>2020-09-29T09:58:53Z</time>
      </trkpt>
      <trkpt lat="40.8358450" lon="-3.5594030">
        <ele>858.0</ele>
        <time>2020-09-29T09:58:54Z</time>
      </trkpt>
      <trkpt lat="40.8358600" lon="-3.5595320">
        <ele>858.0</ele>
        <time>2020-09-29T09:58:55Z</time>
      </trkpt>
      <trkpt lat="40.8358600" lon="-3.5595320">
        <ele>859.0</ele>
        <time>2020-09-29T09:58:56Z</time>
      </trkpt>
      <trkpt lat="40.8358770" lon="-3.5596570">
        <ele>859.0</ele>
        <time>2020-09-29T09:58:57Z</time>
      </trkpt>
      <trkpt lat="40.8358770" lon="-3.5596570">
        <ele>859.0</ele>
        <time>2020-09-29T09:58:58Z</time>
      </trkpt>
      <trkpt lat="40.8358900" lon="-3.5597800">
        <ele>859.0</ele>
        <time>2020-09-29T09:58:59Z</time>
      </trkpt>
      <trkpt lat="40.8358900" lon="-3.5597800">
        <ele>860.0</ele>
        <time>2020-09-29T09:59:00Z</time>
      </trkpt>
      <trkpt lat="40.8359070" lon="-3.5599000">
        <ele>860.0</ele>
        <time>2020-09-29T09:59:01Z</time>
      </trkpt>
      <trkpt lat="40.8359070" lon="-3.5599000">
        <ele>860.0</ele>
        <time>2020-09-29T09:59:02Z</time>
      </trkpt>
      <trkpt lat="40.8359230" lon="-3.5600170">
        <ele>860.0</ele>
        <time>2020-09-29T09:59:03Z</time>
      </trkpt>
      <trkpt lat="40.8359320" lon="-3.5600750">
        <ele>861.0</ele>
        <time>2020-09-29T09:59:04Z</time>
      </trkpt>
      <trkpt lat="40.8359320" lon="-3.5600750">
        <ele>861.0</ele>
        <time>2020-09-29T09:59:05Z</time>
      </trkpt>
      <trkpt lat="40.8359420" lon="-3.5601870">
        <ele>861.0</ele>
        <time>2020-09-29T09:59:06Z</time>
      </trkpt>
      <trkpt lat="40.8359420" lon="-3.5601870">
        <ele>861.0</ele>
        <time>2020-09-29T09:59:07Z</time>
      </trkpt>
      <trkpt lat="40.8359500" lon="-3.5602420">
        <ele>862.0</ele>
        <time>2020-09-29T09:59:08Z</time>
      </trkpt>
      <trkpt lat="40.8359700" lon="-3.5603500">
        <ele>862.0</ele>
        <time>2020-09-29T09:59:09Z</time>
      </trkpt>
      <trkpt lat="40.8359700" lon="-3.5603500">
        <ele>862.0</ele>
        <time>2020-09-29T09:59:10Z</time>
      </trkpt>
      <trkpt lat="40.8359900" lon="-3.5604580">
        <ele>863.0</ele>
        <time>2020-09-29T09:59:11Z</time>
      </trkpt>
      <trkpt lat="40.8360020" lon="-3.5605120">
        <ele>863.0</ele>
        <time>2020-09-29T09:59:12Z</time>
      </trkpt>
      <trkpt lat="40.8360020" lon="-3.5605120">
        <ele>863.0</ele>
        <time>2020-09-29T09:59:13Z</time>
      </trkpt>
      <trkpt lat="40.8360280" lon="-3.5606170">
        <ele>863.0</ele>
        <time>2020-09-29T09:59:14Z</time>
      </trkpt>
      <trkpt lat="40.8360280" lon="-3.5606170">
        <ele>864.0</ele>
        <time>2020-09-29T09:59:15Z</time>
      </trkpt>
      <trkpt lat="40.8360620" lon="-3.5607200">
        <ele>864.0</ele>
        <time>2020-09-29T09:59:16Z</time>
      </trkpt>
      <trkpt lat="40.8360800" lon="-3.5607700">
        <ele>864.0</ele>
        <time>2020-09-29T09:59:17Z</time>
      </trkpt>
      <trkpt lat="40.8360800" lon="-3.5607700">
        <ele>864.0</ele>
        <time>2020-09-29T09:59:18Z</time>
      </trkpt>
      <trkpt lat="40.8361180" lon="-3.5608670">
        <ele>865.0</ele>
        <time>2020-09-29T09:59:19Z</time>
      </trkpt>
      <trkpt lat="40.8361180" lon="-3.5608670">
        <ele>865.0</ele>
        <time>2020-09-29T09:59:20Z</time>
      </trkpt>
      <trkpt lat="40.8361630" lon="-3.5609620">
        <ele>865.0</ele>
        <time>2020-09-29T09:59:21Z</time>
      </trkpt>
      <trkpt lat="40.8361630" lon="-3.5609620">
        <ele>865.0</ele>
        <time>2020-09-29T09:59:22Z</time>
      </trkpt>
      <trkpt lat="40.8362080" lon="-3.5610530">
        <ele>866.0</ele>
        <time>2020-09-29T09:59:23Z</time>
      </trkpt>
      <trkpt lat="40.8362080" lon="-3.5610530">
        <ele>866.0</ele>
        <time>2020-09-29T09:59:24Z</time>
      </trkpt>
      <trkpt lat="40.8362520" lon="-3.5611420">
        <ele>867.0</ele>
        <time>2020-09-29T09:59:25Z</time>
      </trkpt>
      <trkpt lat="40.8362520" lon="-3.5611420">
        <ele>867.0</ele>
        <time>2020-09-29T09:59:26Z</time>
      </trkpt>
      <trkpt lat="40.8363000" lon="-3.5612270">
        <ele>867.0</ele>
        <time>2020-09-29T09:59:27Z</time>
      </trkpt>
      <trkpt lat="40.8363220" lon="-3.5612700">
        <ele>867.0</ele>
        <time>2020-09-29T09:59:28Z</time>
      </trkpt>
      <trkpt lat="40.8363220" lon="-3.5612700">
        <ele>868.0</ele>
        <time>2020-09-29T09:59:29Z</time>
      </trkpt>
      <trkpt lat="40.8363220" lon="-3.5612700">
        <ele>868.0</ele>
        <time>2020-09-29T09:59:30Z</time>
      </trkpt>
      <trkpt lat="40.8363700" lon="-3.5613570">
        <ele>868.0</ele>
        <time>2020-09-29T09:59:31Z</time>
      </trkpt>
      <trkpt lat="40.8364170" lon="-3.5614420">
        <ele>868.0</ele>
        <time>2020-09-29T09:59:32Z</time>
      </trkpt>
      <trkpt lat="40.8364400" lon="-3.5614850">
        <ele>868.0</ele>
        <time>2020-09-29T09:59:33Z</time>
      </trkpt>
      <trkpt lat="40.8364630" lon="-3.5615270">
        <ele>870.0</ele>
        <time>2020-09-29T09:59:34Z</time>
      </trkpt>
      <trkpt lat="40.8364630" lon="-3.5615270">
        <ele>870.0</ele>
        <time>2020-09-29T09:59:35Z</time>
      </trkpt>
      <trkpt lat="40.8365130" lon="-3.5616100">
        <ele>870.0</ele>
        <time>2020-09-29T09:59:36Z</time>
      </trkpt>
      <trkpt lat="40.8365380" lon="-3.5616520">
        <ele>870.0</ele>
        <time>2020-09-29T09:59:37Z</time>
      </trkpt>
      <trkpt lat="40.8365380" lon="-3.5616520">
        <ele>871.0</ele>
        <time>2020-09-29T09:59:38Z</time>
      </trkpt>
      <trkpt lat="40.8365870" lon="-3.5617370">
        <ele>871.0</ele>
        <time>2020-09-29T09:59:39Z</time>
      </trkpt>
      <trkpt lat="40.8365870" lon="-3.5617370">
        <ele>872.0</ele>
        <time>2020-09-29T09:59:40Z</time>
      </trkpt>
      <trkpt lat="40.8366370" lon="-3.5618170">
        <ele>872.0</ele>
        <time>2020-09-29T09:59:41Z</time>
      </trkpt>
      <trkpt lat="40.8366630" lon="-3.5618530">
        <ele>872.0</ele>
        <time>2020-09-29T09:59:42Z</time>
      </trkpt>
      <trkpt lat="40.8366630" lon="-3.5618530">
        <ele>873.0</ele>
        <time>2020-09-29T09:59:43Z</time>
      </trkpt>
      <trkpt lat="40.8367200" lon="-3.5619270">
        <ele>873.0</ele>
        <time>2020-09-29T09:59:44Z</time>
      </trkpt>
      <trkpt lat="40.8367200" lon="-3.5619270">
        <ele>873.0</ele>
        <time>2020-09-29T09:59:45Z</time>
      </trkpt>
      <trkpt lat="40.8367830" lon="-3.5619920">
        <ele>873.0</ele>
        <time>2020-09-29T09:59:46Z</time>
      </trkpt>
      <trkpt lat="40.8367830" lon="-3.5619920">
        <ele>873.0</ele>
        <time>2020-09-29T09:59:47Z</time>
      </trkpt>
      <trkpt lat="40.8368570" lon="-3.5620400">
        <ele>875.0</ele>
        <time>2020-09-29T09:59:48Z</time>
      </trkpt>
      <trkpt lat="40.8368930" lon="-3.5620580">
        <ele>875.0</ele>
        <time>2020-09-29T09:59:49Z</time>
      </trkpt>
      <trkpt lat="40.8369320" lon="-3.5620750">
        <ele>875.0</ele>
        <time>2020-09-29T09:59:50Z</time>
      </trkpt>
      <trkpt lat="40.8369320" lon="-3.5620750">
        <ele>875.0</ele>
        <time>2020-09-29T09:59:51Z</time>
      </trkpt>
      <trkpt lat="40.8370100" lon="-3.5620970">
        <ele>876.0</ele>
        <time>2020-09-29T09:59:52Z</time>
      </trkpt>
      <trkpt lat="40.8370480" lon="-3.5621020">
        <ele>876.0</ele>
        <time>2020-09-29T09:59:53Z</time>
      </trkpt>
      <trkpt lat="40.8370480" lon="-3.5621020">
        <ele>876.0</ele>
        <time>2020-09-29T09:59:54Z</time>
      </trkpt>
      <trkpt lat="40.8371280" lon="-3.5620930">
        <ele>876.0</ele>
        <time>2020-09-29T09:59:55Z</time>
      </trkpt>
      <trkpt lat="40.8371280" lon="-3.5620930">
        <ele>877.0</ele>
        <time>2020-09-29T09:59:56Z</time>
      </trkpt>
      <trkpt lat="40.8372080" lon="-3.5620730">
        <ele>877.0</ele>
        <time>2020-09-29T09:59:57Z</time>
      </trkpt>
      <trkpt lat="40.8372080" lon="-3.5620730">
        <ele>877.0</ele>
        <time>2020-09-29T09:59:58Z</time>
      </trkpt>
      <trkpt lat="40.8372850" lon="-3.5620430">
        <ele>877.0</ele>
        <time>2020-09-29T09:59:59Z</time>
      </trkpt>
      <trkpt lat="40.8373230" lon="-3.5620250">
        <ele>878.0</ele>
        <time>2020-09-29T10:00:00Z</time>
      </trkpt>
      <trkpt lat="40.8373230" lon="-3.5620250">
        <ele>878.0</ele>
        <time>2020-09-29T10:00:01Z</time>
      </trkpt>
      <trkpt lat="40.8374000" lon="-3.5619850">
        <ele>878.0</ele>
        <time>2020-09-29T10:00:02Z</time>
      </trkpt>
      <trkpt lat="40.8374000" lon="-3.5619850">
        <ele>878.0</ele>
        <time>2020-09-29T10:00:03Z</time>
      </trkpt>
      <trkpt lat="40.8374780" lon="-3.5619430">
        <ele>879.0</ele>
        <time>2020-09-29T10:00:04Z</time>
      </trkpt>
      <trkpt lat="40.8374780" lon="-3.5619430">
        <ele>879.0</ele>
        <time>2020-09-29T10:00:05Z</time>
      </trkpt>
      <trkpt lat="40.8375580" lon="-3.5619070">
        <ele>879.0</ele>
        <time>2020-09-29T10:00:06Z</time>
      </trkpt>
      <trkpt lat="40.8375580" lon="-3.5619070">
        <ele>879.0</ele>
        <time>2020-09-29T10:00:07Z</time>
      </trkpt>
      <trkpt lat="40.8376370" lon="-3.5618680">
        <ele>879.0</ele>
        <time>2020-09-29T10:00:08Z</time>
      </trkpt>
      <trkpt lat="40.8376370" lon="-3.5618680">
        <ele>879.0</ele>
        <time>2020-09-29T10:00:09Z</time>
      </trkpt>
      <trkpt lat="40.8377170" lon="-3.5618330">
        <ele>880.0</ele>
        <time>2020-09-29T10:00:10Z</time>
      </trkpt>
      <trkpt lat="40.8377170" lon="-3.5618330">
        <ele>880.0</ele>
        <time>2020-09-29T10:00:11Z</time>
      </trkpt>
      <trkpt lat="40.8377950" lon="-3.5618050">
        <ele>880.0</ele>
        <time>2020-09-29T10:00:12Z</time>
      </trkpt>
      <trkpt lat="40.8378370" lon="-3.5617930">
        <ele>880.0</ele>
        <time>2020-09-29T10:00:13Z</time>
      </trkpt>
      <trkpt lat="40.8378370" lon="-3.5617930">
        <ele>881.0</ele>
        <time>2020-09-29T10:00:14Z</time>
      </trkpt>
      <trkpt lat="40.8379180" lon="-3.5617780">
        <ele>881.0</ele>
        <time>2020-09-29T10:00:15Z</time>
      </trkpt>
      <trkpt lat="40.8379180" lon="-3.5617780">
        <ele>881.0</ele>
        <time>2020-09-29T10:00:16Z</time>
      </trkpt>
      <trkpt lat="40.8380000" lon="-3.5617750">
        <ele>881.0</ele>
        <time>2020-09-29T10:00:17Z</time>
      </trkpt>
      <trkpt lat="40.8380420" lon="-3.5617770">
        <ele>882.0</ele>
        <time>2020-09-29T10:00:18Z</time>
      </trkpt>
      <trkpt lat="40.8380830" lon="-3.5617800">
        <ele>882.0</ele>
        <time>2020-09-29T10:00:19Z</time>
      </trkpt>
      <trkpt lat="40.8380830" lon="-3.5617800">
        <ele>882.0</ele>
        <time>2020-09-29T10:00:20Z</time>
      </trkpt>
      <trkpt lat="40.8381630" lon="-3.5618030">
        <ele>882.0</ele>
        <time>2020-09-29T10:00:21Z</time>
      </trkpt>
      <trkpt lat="40.8381630" lon="-3.5618030">
        <ele>883.0</ele>
        <time>2020-09-29T10:00:22Z</time>
      </trkpt>
      <trkpt lat="40.8382400" lon="-3.5618520">
        <ele>883.0</ele>
        <time>2020-09-29T10:00:23Z</time>
      </trkpt>
      <trkpt lat="40.8382770" lon="-3.5618830">
        <ele>883.0</ele>
        <time>2020-09-29T10:00:24Z</time>
      </trkpt>
      <trkpt lat="40.8383100" lon="-3.5619180">
        <ele>884.0</ele>
        <time>2020-09-29T10:00:25Z</time>
      </trkpt>
      <trkpt lat="40.8383100" lon="-3.5619180">
        <ele>884.0</ele>
        <time>2020-09-29T10:00:26Z</time>
      </trkpt>
      <trkpt lat="40.8383730" lon="-3.5619950">
        <ele>884.0</ele>
        <time>2020-09-29T10:00:27Z</time>
      </trkpt>
      <trkpt lat="40.8383730" lon="-3.5619950">
        <ele>884.0</ele>
        <time>2020-09-29T10:00:28Z</time>
      </trkpt>
      <trkpt lat="40.8384250" lon="-3.5620800">
        <ele>884.0</ele>
        <time>2020-09-29T10:00:29Z</time>
      </trkpt>
      <trkpt lat="40.8384250" lon="-3.5620800">
        <ele>884.0</ele>
        <time>2020-09-29T10:00:30Z</time>
      </trkpt>
      <trkpt lat="40.8384680" lon="-3.5621770">
        <ele>884.0</ele>
        <time>2020-09-29T10:00:31Z</time>
      </trkpt>
      <trkpt lat="40.8384900" lon="-3.5622250">
        <ele>884.0</ele>
        <time>2020-09-29T10:00:32Z</time>
      </trkpt>
      <trkpt lat="40.8384900" lon="-3.5622250">
        <ele>884.0</ele>
        <time>2020-09-29T10:00:33Z</time>
      </trkpt>
      <trkpt lat="40.8385320" lon="-3.5623270">
        <ele>884.0</ele>
        <time>2020-09-29T10:00:34Z</time>
      </trkpt>
      <trkpt lat="40.8385320" lon="-3.5623270">
        <ele>886.0</ele>
        <time>2020-09-29T10:00:35Z</time>
      </trkpt>
      <trkpt lat="40.8385680" lon="-3.5624350">
        <ele>886.0</ele>
        <time>2020-09-29T10:00:36Z</time>
      </trkpt>
      <trkpt lat="40.8385870" lon="-3.5624900">
        <ele>886.0</ele>
        <time>2020-09-29T10:00:37Z</time>
      </trkpt>
      <trkpt lat="40.8385870" lon="-3.5624900">
        <ele>886.0</ele>
        <time>2020-09-29T10:00:38Z</time>
      </trkpt>
      <trkpt lat="40.8386220" lon="-3.5626030">
        <ele>886.0</ele>
        <time>2020-09-29T10:00:39Z</time>
      </trkpt>
      <trkpt lat="40.8386380" lon="-3.5626600">
        <ele>886.0</ele>
        <time>2020-09-29T10:00:40Z</time>
      </trkpt>
      <trkpt lat="40.8386380" lon="-3.5626600">
        <ele>886.0</ele>
        <time>2020-09-29T10:00:41Z</time>
      </trkpt>
      <trkpt lat="40.8386380" lon="-3.5626600">
        <ele>886.0</ele>
        <time>2020-09-29T10:00:42Z</time>
      </trkpt>
      <trkpt lat="40.8386730" lon="-3.5627770">
        <ele>886.0</ele>
        <time>2020-09-29T10:00:43Z</time>
      </trkpt>
      <trkpt lat="40.8387080" lon="-3.5628920">
        <ele>886.0</ele>
        <time>2020-09-29T10:00:44Z</time>
      </trkpt>
      <trkpt lat="40.8387250" lon="-3.5629500">
        <ele>886.0</ele>
        <time>2020-09-29T10:00:45Z</time>
      </trkpt>
      <trkpt lat="40.8387250" lon="-3.5629500">
        <ele>886.0</ele>
        <time>2020-09-29T10:00:46Z</time>
      </trkpt>
      <trkpt lat="40.8387580" lon="-3.5630670">
        <ele>886.0</ele>
        <time>2020-09-29T10:00:47Z</time>
      </trkpt>
      <trkpt lat="40.8387580" lon="-3.5630670">
        <ele>886.0</ele>
        <time>2020-09-29T10:00:48Z</time>
      </trkpt>
      <trkpt lat="40.8387930" lon="-3.5631880">
        <ele>886.0</ele>
        <time>2020-09-29T10:00:49Z</time>
      </trkpt>
      <trkpt lat="40.8387930" lon="-3.5631880">
        <ele>886.0</ele>
        <time>2020-09-29T10:00:50Z</time>
      </trkpt>
      <trkpt lat="40.8388300" lon="-3.5633080">
        <ele>886.0</ele>
        <time>2020-09-29T10:00:51Z</time>
      </trkpt>
      <trkpt lat="40.8388300" lon="-3.5633080">
        <ele>887.0</ele>
        <time>2020-09-29T10:00:52Z</time>
      </trkpt>
      <trkpt lat="40.8388670" lon="-3.5634280">
        <ele>887.0</ele>
        <time>2020-09-29T10:00:53Z</time>
      </trkpt>
      <trkpt lat="40.8388670" lon="-3.5634280">
        <ele>887.0</ele>
        <time>2020-09-29T10:00:54Z</time>
      </trkpt>
      <trkpt lat="40.8389050" lon="-3.5635470">
        <ele>887.0</ele>
        <time>2020-09-29T10:00:55Z</time>
      </trkpt>
      <trkpt lat="40.8389050" lon="-3.5635470">
        <ele>888.0</ele>
        <time>2020-09-29T10:00:56Z</time>
      </trkpt>
      <trkpt lat="40.8389680" lon="-3.5636520">
        <ele>888.0</ele>
        <time>2020-09-29T10:00:57Z</time>
      </trkpt>
      <trkpt lat="40.8390100" lon="-3.5636900">
        <ele>888.0</ele>
        <time>2020-09-29T10:00:58Z</time>
      </trkpt>
      <trkpt lat="40.8390100" lon="-3.5636900">
        <ele>888.0</ele>
        <time>2020-09-29T10:00:59Z</time>
      </trkpt>
      <trkpt lat="40.8391080" lon="-3.5637100">
        <ele>888.0</ele>
        <time>2020-09-29T10:01:00Z</time>
      </trkpt>
      <trkpt lat="40.8391080" lon="-3.5637100">
        <ele>888.0</ele>
        <time>2020-09-29T10:01:01Z</time>
      </trkpt>
      <trkpt lat="40.8392100" lon="-3.5636380">
        <ele>888.0</ele>
        <time>2020-09-29T10:01:02Z</time>
      </trkpt>
      <trkpt lat="40.8392100" lon="-3.5636380">
        <ele>888.0</ele>
        <time>2020-09-29T10:01:03Z</time>
      </trkpt>
      <trkpt lat="40.8392870" lon="-3.5635030">
        <ele>888.0</ele>
        <time>2020-09-29T10:01:04Z</time>
      </trkpt>
      <trkpt lat="40.8392870" lon="-3.5635030">
        <ele>888.0</ele>
        <time>2020-09-29T10:01:05Z</time>
      </trkpt>
      <trkpt lat="40.8393480" lon="-3.5633400">
        <ele>888.0</ele>
        <time>2020-09-29T10:01:06Z</time>
      </trkpt>
      <trkpt lat="40.8393480" lon="-3.5633400">
        <ele>888.0</ele>
        <time>2020-09-29T10:01:07Z</time>
      </trkpt>
      <trkpt lat="40.8393970" lon="-3.5631550">
        <ele>888.0</ele>
        <time>2020-09-29T10:01:08Z</time>
      </trkpt>
      <trkpt lat="40.8393970" lon="-3.5631550">
        <ele>887.0</ele>
        <time>2020-09-29T10:01:09Z</time>
      </trkpt>
      <trkpt lat="40.8394400" lon="-3.5629530">
        <ele>887.0</ele>
        <time>2020-09-29T10:01:10Z</time>
      </trkpt>
      <trkpt lat="40.8394600" lon="-3.5628470">
        <ele>887.0</ele>
        <time>2020-09-29T10:01:11Z</time>
      </trkpt>
      <trkpt lat="40.8394600" lon="-3.5628470">
        <ele>887.0</ele>
        <time>2020-09-29T10:01:12Z</time>
      </trkpt>
      <trkpt lat="40.8394980" lon="-3.5626220">
        <ele>886.0</ele>
        <time>2020-09-29T10:01:13Z</time>
      </trkpt>
      <trkpt lat="40.8394980" lon="-3.5626220">
        <ele>886.0</ele>
        <time>2020-09-29T10:01:14Z</time>
      </trkpt>
      <trkpt lat="40.8395350" lon="-3.5623870">
        <ele>885.0</ele>
        <time>2020-09-29T10:01:15Z</time>
      </trkpt>
      <trkpt lat="40.8395350" lon="-3.5623870">
        <ele>885.0</ele>
        <time>2020-09-29T10:01:16Z</time>
      </trkpt>
      <trkpt lat="40.8395680" lon="-3.5621520">
        <ele>884.0</ele>
        <time>2020-09-29T10:01:17Z</time>
      </trkpt>
      <trkpt lat="40.8395680" lon="-3.5621520">
        <ele>884.0</ele>
        <time>2020-09-29T10:01:18Z</time>
      </trkpt>
      <trkpt lat="40.8395980" lon="-3.5619220">
        <ele>884.0</ele>
        <time>2020-09-29T10:01:19Z</time>
      </trkpt>
      <trkpt lat="40.8395980" lon="-3.5619220">
        <ele>884.0</ele>
        <time>2020-09-29T10:01:20Z</time>
      </trkpt>
      <trkpt lat="40.8396220" lon="-3.5617000">
        <ele>884.0</ele>
        <time>2020-09-29T10:01:21Z</time>
      </trkpt>
      <trkpt lat="40.8396220" lon="-3.5617000">
        <ele>884.0</ele>
        <time>2020-09-29T10:01:22Z</time>
      </trkpt>
      <trkpt lat="40.8396530" lon="-3.5614850">
        <ele>883.0</ele>
        <time>2020-09-29T10:01:23Z</time>
      </trkpt>
      <trkpt lat="40.8396530" lon="-3.5614850">
        <ele>883.0</ele>
        <time>2020-09-29T10:01:24Z</time>
      </trkpt>
      <trkpt lat="40.8396880" lon="-3.5612750">
        <ele>883.0</ele>
        <time>2020-09-29T10:01:25Z</time>
      </trkpt>
      <trkpt lat="40.8396880" lon="-3.5612750">
        <ele>883.0</ele>
        <time>2020-09-29T10:01:26Z</time>
      </trkpt>
      <trkpt lat="40.8397280" lon="-3.5610650">
        <ele>883.0</ele>
        <time>2020-09-29T10:01:27Z</time>
      </trkpt>
      <trkpt lat="40.8397500" lon="-3.5609580">
        <ele>883.0</ele>
        <time>2020-09-29T10:01:28Z</time>
      </trkpt>
      <trkpt lat="40.8397500" lon="-3.5609580">
        <ele>882.0</ele>
        <time>2020-09-29T10:01:29Z</time>
      </trkpt>
      <trkpt lat="40.8397980" lon="-3.5607430">
        <ele>882.0</ele>
        <time>2020-09-29T10:01:30Z</time>
      </trkpt>
      <trkpt lat="40.8397980" lon="-3.5607430">
        <ele>882.0</ele>
        <time>2020-09-29T10:01:31Z</time>
      </trkpt>
      <trkpt lat="40.8398720" lon="-3.5605330">
        <ele>882.0</ele>
        <time>2020-09-29T10:01:32Z</time>
      </trkpt>
      <trkpt lat="40.8398720" lon="-3.5605330">
        <ele>881.0</ele>
        <time>2020-09-29T10:01:33Z</time>
      </trkpt>
      <trkpt lat="40.8400070" lon="-3.5603830">
        <ele>881.0</ele>
        <time>2020-09-29T10:01:34Z</time>
      </trkpt>
      <trkpt lat="40.8400070" lon="-3.5603830">
        <ele>881.0</ele>
        <time>2020-09-29T10:01:35Z</time>
      </trkpt>
      <trkpt lat="40.8401780" lon="-3.5603580">
        <ele>881.0</ele>
        <time>2020-09-29T10:01:36Z</time>
      </trkpt>
      <trkpt lat="40.8401780" lon="-3.5603580">
        <ele>881.0</ele>
        <time>2020-09-29T10:01:37Z</time>
      </trkpt>
      <trkpt lat="40.8403300" lon="-3.5604570">
        <ele>881.0</ele>
        <time>2020-09-29T10:01:38Z</time>
      </trkpt>
      <trkpt lat="40.8403300" lon="-3.5604570">
        <ele>881.0</ele>
        <time>2020-09-29T10:01:39Z</time>
      </trkpt>
      <trkpt lat="40.8404430" lon="-3.5606030">
        <ele>881.0</ele>
        <time>2020-09-29T10:01:40Z</time>
      </trkpt>
      <trkpt lat="40.8404430" lon="-3.5606030">
        <ele>881.0</ele>
        <time>2020-09-29T10:01:41Z</time>
      </trkpt>
      <trkpt lat="40.8405200" lon="-3.5607670">
        <ele>881.0</ele>
        <time>2020-09-29T10:01:42Z</time>
      </trkpt>
      <trkpt lat="40.8405200" lon="-3.5607670">
        <ele>881.0</ele>
        <time>2020-09-29T10:01:43Z</time>
      </trkpt>
      <trkpt lat="40.8405550" lon="-3.5608480">
        <ele>881.0</ele>
        <time>2020-09-29T10:01:44Z</time>
      </trkpt>
      <trkpt lat="40.8406170" lon="-3.5610030">
        <ele>881.0</ele>
        <time>2020-09-29T10:01:45Z</time>
      </trkpt>
      <trkpt lat="40.8406170" lon="-3.5610030">
        <ele>881.0</ele>
        <time>2020-09-29T10:01:46Z</time>
      </trkpt>
      <trkpt lat="40.8406880" lon="-3.5611420">
        <ele>881.0</ele>
        <time>2020-09-29T10:01:47Z</time>
      </trkpt>
      <trkpt lat="40.8406880" lon="-3.5611420">
        <ele>881.0</ele>
        <time>2020-09-29T10:01:48Z</time>
      </trkpt>
      <trkpt lat="40.8407700" lon="-3.5612720">
        <ele>881.0</ele>
        <time>2020-09-29T10:01:49Z</time>
      </trkpt>
      <trkpt lat="40.8407700" lon="-3.5612720">
        <ele>881.0</ele>
        <time>2020-09-29T10:01:50Z</time>
      </trkpt>
      <trkpt lat="40.8408730" lon="-3.5613750">
        <ele>882.0</ele>
        <time>2020-09-29T10:01:51Z</time>
      </trkpt>
      <trkpt lat="40.8408730" lon="-3.5613750">
        <ele>882.0</ele>
        <time>2020-09-29T10:01:52Z</time>
      </trkpt>
      <trkpt lat="40.8409970" lon="-3.5614320">
        <ele>882.0</ele>
        <time>2020-09-29T10:01:53Z</time>
      </trkpt>
      <trkpt lat="40.8409970" lon="-3.5614320">
        <ele>882.0</ele>
        <time>2020-09-29T10:01:54Z</time>
      </trkpt>
      <trkpt lat="40.8411380" lon="-3.5614320">
        <ele>882.0</ele>
        <time>2020-09-29T10:01:55Z</time>
      </trkpt>
      <trkpt lat="40.8411380" lon="-3.5614320">
        <ele>883.0</ele>
        <time>2020-09-29T10:01:56Z</time>
      </trkpt>
      <trkpt lat="40.8412720" lon="-3.5613630">
        <ele>883.0</ele>
        <time>2020-09-29T10:01:57Z</time>
      </trkpt>
      <trkpt lat="40.8412720" lon="-3.5613630">
        <ele>883.0</ele>
        <time>2020-09-29T10:01:58Z</time>
      </trkpt>
      <trkpt lat="40.8413950" lon="-3.5612620">
        <ele>883.0</ele>
        <time>2020-09-29T10:01:59Z</time>
      </trkpt>
      <trkpt lat="40.8413950" lon="-3.5612620">
        <ele>883.0</ele>
        <time>2020-09-29T10:02:00Z</time>
      </trkpt>
      <trkpt lat="40.8415070" lon="-3.5611330">
        <ele>883.0</ele>
        <time>2020-09-29T10:02:01Z</time>
      </trkpt>
      <trkpt lat="40.8415070" lon="-3.5611330">
        <ele>883.0</ele>
        <time>2020-09-29T10:02:02Z</time>
      </trkpt>
      <trkpt lat="40.8416100" lon="-3.5609980">
        <ele>883.0</ele>
        <time>2020-09-29T10:02:03Z</time>
      </trkpt>
      <trkpt lat="40.8416600" lon="-3.5609320">
        <ele>884.0</ele>
        <time>2020-09-29T10:02:04Z</time>
      </trkpt>
      <trkpt lat="40.8416600" lon="-3.5609320">
        <ele>884.0</ele>
        <time>2020-09-29T10:02:05Z</time>
      </trkpt>
      <trkpt lat="40.8417570" lon="-3.5607920">
        <ele>884.0</ele>
        <time>2020-09-29T10:02:06Z</time>
      </trkpt>
      <trkpt lat="40.8417570" lon="-3.5607920">
        <ele>884.0</ele>
        <time>2020-09-29T10:02:07Z</time>
      </trkpt>
      <trkpt lat="40.8418550" lon="-3.5606530">
        <ele>884.0</ele>
        <time>2020-09-29T10:02:08Z</time>
      </trkpt>
      <trkpt lat="40.8419070" lon="-3.5605870">
        <ele>884.0</ele>
        <time>2020-09-29T10:02:09Z</time>
      </trkpt>
      <trkpt lat="40.8419070" lon="-3.5605870">
        <ele>884.0</ele>
        <time>2020-09-29T10:02:10Z</time>
      </trkpt>
      <trkpt lat="40.8419600" lon="-3.5605230">
        <ele>884.0</ele>
        <time>2020-09-29T10:02:11Z</time>
      </trkpt>
      <trkpt lat="40.8420770" lon="-3.5604220">
        <ele>884.0</ele>
        <time>2020-09-29T10:02:12Z</time>
      </trkpt>
      <trkpt lat="40.8420770" lon="-3.5604220">
        <ele>884.0</ele>
        <time>2020-09-29T10:02:13Z</time>
      </trkpt>
      <trkpt lat="40.8422020" lon="-3.5603520">
        <ele>884.0</ele>
        <time>2020-09-29T10:02:14Z</time>
      </trkpt>
      <trkpt lat="40.8422650" lon="-3.5603270">
        <ele>884.0</ele>
        <time>2020-09-29T10:02:15Z</time>
      </trkpt>
      <trkpt lat="40.8422650" lon="-3.5603270">
        <ele>884.0</ele>
        <time>2020-09-29T10:02:16Z</time>
      </trkpt>
      <trkpt lat="40.8423900" lon="-3.5602870">
        <ele>885.0</ele>
        <time>2020-09-29T10:02:17Z</time>
      </trkpt>
      <trkpt lat="40.8423900" lon="-3.5602870">
        <ele>885.0</ele>
        <time>2020-09-29T10:02:18Z</time>
      </trkpt>
      <trkpt lat="40.8425100" lon="-3.5602550">
        <ele>885.0</ele>
        <time>2020-09-29T10:02:19Z</time>
      </trkpt>
      <trkpt lat="40.8425100" lon="-3.5602550">
        <ele>885.0</ele>
        <time>2020-09-29T10:02:20Z</time>
      </trkpt>
      <trkpt lat="40.8426330" lon="-3.5602320">
        <ele>885.0</ele>
        <time>2020-09-29T10:02:21Z</time>
      </trkpt>
      <trkpt lat="40.8426330" lon="-3.5602320">
        <ele>885.0</ele>
        <time>2020-09-29T10:02:22Z</time>
      </trkpt>
      <trkpt lat="40.8427550" lon="-3.5602130">
        <ele>885.0</ele>
        <time>2020-09-29T10:02:23Z</time>
      </trkpt>
      <trkpt lat="40.8427550" lon="-3.5602130">
        <ele>885.0</ele>
        <time>2020-09-29T10:02:24Z</time>
      </trkpt>
      <trkpt lat="40.8428720" lon="-3.5601920">
        <ele>885.0</ele>
        <time>2020-09-29T10:02:25Z</time>
      </trkpt>
      <trkpt lat="40.8428720" lon="-3.5601920">
        <ele>885.0</ele>
        <time>2020-09-29T10:02:26Z</time>
      </trkpt>
      <trkpt lat="40.8428720" lon="-3.5601920">
        <ele>885.0</ele>
        <time>2020-09-29T10:02:27Z</time>
      </trkpt>
      <trkpt lat="40.8429830" lon="-3.5601700">
        <ele>885.0</ele>
        <time>2020-09-29T10:02:28Z</time>
      </trkpt>
      <trkpt lat="40.8430930" lon="-3.5601420">
        <ele>886.0</ele>
        <time>2020-09-29T10:02:29Z</time>
      </trkpt>
      <trkpt lat="40.8430930" lon="-3.5601420">
        <ele>886.0</ele>
        <time>2020-09-29T10:02:30Z</time>
      </trkpt>
      <trkpt lat="40.8432020" lon="-3.5600920">
        <ele>886.0</ele>
        <time>2020-09-29T10:02:31Z</time>
      </trkpt>
      <trkpt lat="40.8432020" lon="-3.5600920">
        <ele>886.0</ele>
        <time>2020-09-29T10:02:32Z</time>
      </trkpt>
      <trkpt lat="40.8433020" lon="-3.5600200">
        <ele>886.0</ele>
        <time>2020-09-29T10:02:33Z</time>
      </trkpt>
      <trkpt lat="40.8433020" lon="-3.5600200">
        <ele>886.0</ele>
        <time>2020-09-29T10:02:34Z</time>
      </trkpt>
      <trkpt lat="40.8433880" lon="-3.5599220">
        <ele>886.0</ele>
        <time>2020-09-29T10:02:35Z</time>
      </trkpt>
      <trkpt lat="40.8433880" lon="-3.5599220">
        <ele>886.0</ele>
        <time>2020-09-29T10:02:36Z</time>
      </trkpt>
      <trkpt lat="40.8434570" lon="-3.5598120">
        <ele>887.0</ele>
        <time>2020-09-29T10:02:37Z</time>
      </trkpt>
      <trkpt lat="40.8434570" lon="-3.5598120">
        <ele>887.0</ele>
        <time>2020-09-29T10:02:38Z</time>
      </trkpt>
      <trkpt lat="40.8435170" lon="-3.5596950">
        <ele>887.0</ele>
        <time>2020-09-29T10:02:39Z</time>
      </trkpt>
      <trkpt lat="40.8435430" lon="-3.5596350">
        <ele>887.0</ele>
        <time>2020-09-29T10:02:40Z</time>
      </trkpt>
      <trkpt lat="40.8435430" lon="-3.5596350">
        <ele>888.0</ele>
        <time>2020-09-29T10:02:41Z</time>
      </trkpt>
      <trkpt lat="40.8435950" lon="-3.5595170">
        <ele>888.0</ele>
        <time>2020-09-29T10:02:42Z</time>
      </trkpt>
      <trkpt lat="40.8435950" lon="-3.5595170">
        <ele>888.0</ele>
        <time>2020-09-29T10:02:43Z</time>
      </trkpt>
      <trkpt lat="40.8436470" lon="-3.5593950">
        <ele>888.0</ele>
        <time>2020-09-29T10:02:44Z</time>
      </trkpt>
      <trkpt lat="40.8436720" lon="-3.5593320">
        <ele>889.0</ele>
        <time>2020-09-29T10:02:45Z</time>
      </trkpt>
      <trkpt lat="40.8436720" lon="-3.5593320">
        <ele>889.0</ele>
        <time>2020-09-29T10:02:46Z</time>
      </trkpt>
      <trkpt lat="40.8437220" lon="-3.5592030">
        <ele>889.0</ele>
        <time>2020-09-29T10:02:47Z</time>
      </trkpt>
      <trkpt lat="40.8437220" lon="-3.5592030">
        <ele>890.0</ele>
        <time>2020-09-29T10:02:48Z</time>
      </trkpt>
      <trkpt lat="40.8437700" lon="-3.5590750">
        <ele>890.0</ele>
        <time>2020-09-29T10:02:49Z</time>
      </trkpt>
      <trkpt lat="40.8437700" lon="-3.5590750">
        <ele>890.0</ele>
        <time>2020-09-29T10:02:50Z</time>
      </trkpt>
      <trkpt lat="40.8437700" lon="-3.5590750">
        <ele>890.0</ele>
        <time>2020-09-29T10:02:51Z</time>
      </trkpt>
      <trkpt lat="40.8438220" lon="-3.5589520">
        <ele>891.0</ele>
        <time>2020-09-29T10:02:52Z</time>
      </trkpt>
      <trkpt lat="40.8438720" lon="-3.5588320">
        <ele>891.0</ele>
        <time>2020-09-29T10:02:53Z</time>
      </trkpt>
      <trkpt lat="40.8438720" lon="-3.5588320">
        <ele>891.0</ele>
        <time>2020-09-29T10:02:54Z</time>
      </trkpt>
      <trkpt lat="40.8439200" lon="-3.5587150">
        <ele>891.0</ele>
        <time>2020-09-29T10:02:55Z</time>
      </trkpt>
      <trkpt lat="40.8439200" lon="-3.5587150">
        <ele>891.0</ele>
        <time>2020-09-29T10:02:56Z</time>
      </trkpt>
      <trkpt lat="40.8439680" lon="-3.5585920">
        <ele>891.0</ele>
        <time>2020-09-29T10:02:57Z</time>
      </trkpt>
      <trkpt lat="40.8439680" lon="-3.5585920">
        <ele>892.0</ele>
        <time>2020-09-29T10:02:58Z</time>
      </trkpt>
      <trkpt lat="40.8440180" lon="-3.5584680">
        <ele>892.0</ele>
        <time>2020-09-29T10:02:59Z</time>
      </trkpt>
      <trkpt lat="40.8440180" lon="-3.5584680">
        <ele>892.0</ele>
        <time>2020-09-29T10:03:00Z</time>
      </trkpt>
      <trkpt lat="40.8440750" lon="-3.5583530">
        <ele>892.0</ele>
        <time>2020-09-29T10:03:01Z</time>
      </trkpt>
      <trkpt lat="40.8440750" lon="-3.5583530">
        <ele>892.0</ele>
        <time>2020-09-29T10:03:02Z</time>
      </trkpt>
      <trkpt lat="40.8441350" lon="-3.5582380">
        <ele>892.0</ele>
        <time>2020-09-29T10:03:03Z</time>
      </trkpt>
      <trkpt lat="40.8441350" lon="-3.5582380">
        <ele>892.0</ele>
        <time>2020-09-29T10:03:04Z</time>
      </trkpt>
      <trkpt lat="40.8441980" lon="-3.5581270">
        <ele>892.0</ele>
        <time>2020-09-29T10:03:05Z</time>
      </trkpt>
      <trkpt lat="40.8442320" lon="-3.5580720">
        <ele>893.0</ele>
        <time>2020-09-29T10:03:06Z</time>
      </trkpt>
      <trkpt lat="40.8442630" lon="-3.5580170">
        <ele>893.0</ele>
        <time>2020-09-29T10:03:07Z</time>
      </trkpt>
      <trkpt lat="40.8442630" lon="-3.5580170">
        <ele>893.0</ele>
        <time>2020-09-29T10:03:08Z</time>
      </trkpt>
      <trkpt lat="40.8443320" lon="-3.5579100">
        <ele>893.0</ele>
        <time>2020-09-29T10:03:09Z</time>
      </trkpt>
      <trkpt lat="40.8443650" lon="-3.5578570">
        <ele>893.0</ele>
        <time>2020-09-29T10:03:10Z</time>
      </trkpt>
      <trkpt lat="40.8443970" lon="-3.5578000">
        <ele>893.0</ele>
        <time>2020-09-29T10:03:11Z</time>
      </trkpt>
      <trkpt lat="40.8443970" lon="-3.5578000">
        <ele>894.0</ele>
        <time>2020-09-29T10:03:12Z</time>
      </trkpt>
      <trkpt lat="40.8444580" lon="-3.5576920">
        <ele>894.0</ele>
        <time>2020-09-29T10:03:13Z</time>
      </trkpt>
      <trkpt lat="40.8444580" lon="-3.5576920">
        <ele>894.0</ele>
        <time>2020-09-29T10:03:14Z</time>
      </trkpt>
      <trkpt lat="40.8445220" lon="-3.5575800">
        <ele>894.0</ele>
        <time>2020-09-29T10:03:15Z</time>
      </trkpt>
      <trkpt lat="40.8445220" lon="-3.5575800">
        <ele>895.0</ele>
        <time>2020-09-29T10:03:16Z</time>
      </trkpt>
      <trkpt lat="40.8445850" lon="-3.5574670">
        <ele>895.0</ele>
        <time>2020-09-29T10:03:17Z</time>
      </trkpt>
      <trkpt lat="40.8445850" lon="-3.5574670">
        <ele>895.0</ele>
        <time>2020-09-29T10:03:18Z</time>
      </trkpt>
      <trkpt lat="40.8445850" lon="-3.5574670">
        <ele>895.0</ele>
        <time>2020-09-29T10:03:19Z</time>
      </trkpt>
      <trkpt lat="40.8446500" lon="-3.5573520">
        <ele>896.0</ele>
        <time>2020-09-29T10:03:20Z</time>
      </trkpt>
      <trkpt lat="40.8447130" lon="-3.5572330">
        <ele>896.0</ele>
        <time>2020-09-29T10:03:21Z</time>
      </trkpt>
      <trkpt lat="40.8447130" lon="-3.5572330">
        <ele>896.0</ele>
        <time>2020-09-29T10:03:22Z</time>
      </trkpt>
      <trkpt lat="40.8447730" lon="-3.5571130">
        <ele>896.0</ele>
        <time>2020-09-29T10:03:23Z</time>
      </trkpt>
      <trkpt lat="40.8447730" lon="-3.5571130">
        <ele>896.0</ele>
        <time>2020-09-29T10:03:24Z</time>
      </trkpt>
      <trkpt lat="40.8448370" lon="-3.5569950">
        <ele>897.0</ele>
        <time>2020-09-29T10:03:25Z</time>
      </trkpt>
      <trkpt lat="40.8448370" lon="-3.5569950">
        <ele>897.0</ele>
        <time>2020-09-29T10:03:26Z</time>
      </trkpt>
      <trkpt lat="40.8449030" lon="-3.5568730">
        <ele>897.0</ele>
        <time>2020-09-29T10:03:27Z</time>
      </trkpt>
      <trkpt lat="40.8449030" lon="-3.5568730">
        <ele>897.0</ele>
        <time>2020-09-29T10:03:28Z</time>
      </trkpt>
      <trkpt lat="40.8449630" lon="-3.5567430">
        <ele>897.0</ele>
        <time>2020-09-29T10:03:29Z</time>
      </trkpt>
      <trkpt lat="40.8449630" lon="-3.5567430">
        <ele>897.0</ele>
        <time>2020-09-29T10:03:30Z</time>
      </trkpt>
      <trkpt lat="40.8450220" lon="-3.5566080">
        <ele>897.0</ele>
        <time>2020-09-29T10:03:31Z</time>
      </trkpt>
      <trkpt lat="40.8450220" lon="-3.5566080">
        <ele>898.0</ele>
        <time>2020-09-29T10:03:32Z</time>
      </trkpt>
      <trkpt lat="40.8450750" lon="-3.5564670">
        <ele>898.0</ele>
        <time>2020-09-29T10:03:33Z</time>
      </trkpt>
      <trkpt lat="40.8450750" lon="-3.5564670">
        <ele>898.0</ele>
        <time>2020-09-29T10:03:34Z</time>
      </trkpt>
      <trkpt lat="40.8451280" lon="-3.5563250">
        <ele>898.0</ele>
        <time>2020-09-29T10:03:35Z</time>
      </trkpt>
      <trkpt lat="40.8451280" lon="-3.5563250">
        <ele>898.0</ele>
        <time>2020-09-29T10:03:36Z</time>
      </trkpt>
      <trkpt lat="40.8451820" lon="-3.5561850">
        <ele>898.0</ele>
        <time>2020-09-29T10:03:37Z</time>
      </trkpt>
      <trkpt lat="40.8451820" lon="-3.5561850">
        <ele>898.0</ele>
        <time>2020-09-29T10:03:38Z</time>
      </trkpt>
      <trkpt lat="40.8452330" lon="-3.5560470">
        <ele>898.0</ele>
        <time>2020-09-29T10:03:39Z</time>
      </trkpt>
      <trkpt lat="40.8452580" lon="-3.5559800">
        <ele>898.0</ele>
        <time>2020-09-29T10:03:40Z</time>
      </trkpt>
      <trkpt lat="40.8452580" lon="-3.5559800">
        <ele>899.0</ele>
        <time>2020-09-29T10:03:41Z</time>
      </trkpt>
      <trkpt lat="40.8453170" lon="-3.5558500">
        <ele>899.0</ele>
        <time>2020-09-29T10:03:42Z</time>
      </trkpt>
      <trkpt lat="40.8453500" lon="-3.5557850">
        <ele>899.0</ele>
        <time>2020-09-29T10:03:43Z</time>
      </trkpt>
      <trkpt lat="40.8453850" lon="-3.5557230">
        <ele>899.0</ele>
        <time>2020-09-29T10:03:44Z</time>
      </trkpt>
      <trkpt lat="40.8453850" lon="-3.5557230">
        <ele>899.0</ele>
        <time>2020-09-29T10:03:45Z</time>
      </trkpt>
      <trkpt lat="40.8454670" lon="-3.5556150">
        <ele>899.0</ele>
        <time>2020-09-29T10:03:46Z</time>
      </trkpt>
      <trkpt lat="40.8454670" lon="-3.5556150">
        <ele>899.0</ele>
        <time>2020-09-29T10:03:47Z</time>
      </trkpt>
      <trkpt lat="40.8455550" lon="-3.5555130">
        <ele>899.0</ele>
        <time>2020-09-29T10:03:48Z</time>
      </trkpt>
      <trkpt lat="40.8455550" lon="-3.5555130">
        <ele>899.0</ele>
        <time>2020-09-29T10:03:49Z</time>
      </trkpt>
      <trkpt lat="40.8456520" lon="-3.5554200">
        <ele>900.0</ele>
        <time>2020-09-29T10:03:50Z</time>
      </trkpt>
      <trkpt lat="40.8456520" lon="-3.5554200">
        <ele>900.0</ele>
        <time>2020-09-29T10:03:51Z</time>
      </trkpt>
      <trkpt lat="40.8457550" lon="-3.5553500">
        <ele>900.0</ele>
        <time>2020-09-29T10:03:52Z</time>
      </trkpt>
      <trkpt lat="40.8457550" lon="-3.5553500">
        <ele>900.0</ele>
        <time>2020-09-29T10:03:53Z</time>
      </trkpt>
      <trkpt lat="40.8458650" lon="-3.5553170">
        <ele>901.0</ele>
        <time>2020-09-29T10:03:54Z</time>
      </trkpt>
      <trkpt lat="40.8458650" lon="-3.5553170">
        <ele>901.0</ele>
        <time>2020-09-29T10:03:55Z</time>
      </trkpt>
      <trkpt lat="40.8459830" lon="-3.5553470">
        <ele>901.0</ele>
        <time>2020-09-29T10:03:56Z</time>
      </trkpt>
      <trkpt lat="40.8459830" lon="-3.5553470">
        <ele>901.0</ele>
        <time>2020-09-29T10:03:57Z</time>
      </trkpt>
      <trkpt lat="40.8460870" lon="-3.5554150">
        <ele>902.0</ele>
        <time>2020-09-29T10:03:58Z</time>
      </trkpt>
      <trkpt lat="40.8460870" lon="-3.5554150">
        <ele>902.0</ele>
        <time>2020-09-29T10:03:59Z</time>
      </trkpt>
      <trkpt lat="40.8461770" lon="-3.5555020">
        <ele>902.0</ele>
        <time>2020-09-29T10:04:00Z</time>
      </trkpt>
      <trkpt lat="40.8462200" lon="-3.5555450">
        <ele>903.0</ele>
        <time>2020-09-29T10:04:01Z</time>
      </trkpt>
      <trkpt lat="40.8462200" lon="-3.5555450">
        <ele>903.0</ele>
        <time>2020-09-29T10:04:02Z</time>
      </trkpt>
      <trkpt lat="40.8463020" lon="-3.5556300">
        <ele>903.0</ele>
        <time>2020-09-29T10:04:03Z</time>
      </trkpt>
      <trkpt lat="40.8463020" lon="-3.5556300">
        <ele>903.0</ele>
        <time>2020-09-29T10:04:04Z</time>
      </trkpt>
      <trkpt lat="40.8463950" lon="-3.5556800">
        <ele>903.0</ele>
        <time>2020-09-29T10:04:05Z</time>
      </trkpt>
      <trkpt lat="40.8463950" lon="-3.5556800">
        <ele>903.0</ele>
        <time>2020-09-29T10:04:06Z</time>
      </trkpt>
      <trkpt lat="40.8464980" lon="-3.5556900">
        <ele>903.0</ele>
        <time>2020-09-29T10:04:07Z</time>
      </trkpt>
      <trkpt lat="40.8464980" lon="-3.5556900">
        <ele>903.0</ele>
        <time>2020-09-29T10:04:08Z</time>
      </trkpt>
      <trkpt lat="40.8465970" lon="-3.5556730">
        <ele>904.0</ele>
        <time>2020-09-29T10:04:09Z</time>
      </trkpt>
      <trkpt lat="40.8465970" lon="-3.5556730">
        <ele>904.0</ele>
        <time>2020-09-29T10:04:10Z</time>
      </trkpt>
      <trkpt lat="40.8465970" lon="-3.5556730">
        <ele>905.0</ele>
        <time>2020-09-29T10:04:11Z</time>
      </trkpt>
      <trkpt lat="40.8466880" lon="-3.5556280">
        <ele>905.0</ele>
        <time>2020-09-29T10:04:12Z</time>
      </trkpt>
      <trkpt lat="40.8467720" lon="-3.5555650">
        <ele>905.0</ele>
        <time>2020-09-29T10:04:13Z</time>
      </trkpt>
      <trkpt lat="40.8467720" lon="-3.5555650">
        <ele>905.0</ele>
        <time>2020-09-29T10:04:14Z</time>
      </trkpt>
      <trkpt lat="40.8468580" lon="-3.5555050">
        <ele>906.0</ele>
        <time>2020-09-29T10:04:15Z</time>
      </trkpt>
      <trkpt lat="40.8468580" lon="-3.5555050">
        <ele>906.0</ele>
        <time>2020-09-29T10:04:16Z</time>
      </trkpt>
      <trkpt lat="40.8469480" lon="-3.5554570">
        <ele>907.0</ele>
        <time>2020-09-29T10:04:17Z</time>
      </trkpt>
      <trkpt lat="40.8469480" lon="-3.5554570">
        <ele>907.0</ele>
        <time>2020-09-29T10:04:18Z</time>
      </trkpt>
      <trkpt lat="40.8469480" lon="-3.5554570">
        <ele>907.0</ele>
        <time>2020-09-29T10:04:19Z</time>
      </trkpt>
      <trkpt lat="40.8470900" lon="-3.5553980">
        <ele>907.0</ele>
        <time>2020-09-29T10:04:20Z</time>
      </trkpt>
      <trkpt lat="40.8470900" lon="-3.5553980">
        <ele>908.0</ele>
        <time>2020-09-29T10:04:21Z</time>
      </trkpt>
      <trkpt lat="40.8471880" lon="-3.5553670">
        <ele>908.0</ele>
        <time>2020-09-29T10:04:22Z</time>
      </trkpt>
      <trkpt lat="40.8472370" lon="-3.5553500">
        <ele>908.0</ele>
        <time>2020-09-29T10:04:23Z</time>
      </trkpt>
      <trkpt lat="40.8472370" lon="-3.5553500">
        <ele>908.0</ele>
        <time>2020-09-29T10:04:24Z</time>
      </trkpt>
      <trkpt lat="40.8473350" lon="-3.5553080">
        <ele>908.0</ele>
        <time>2020-09-29T10:04:25Z</time>
      </trkpt>
      <trkpt lat="40.8473350" lon="-3.5553080">
        <ele>908.0</ele>
        <time>2020-09-29T10:04:26Z</time>
      </trkpt>
      <trkpt lat="40.8474280" lon="-3.5552620">
        <ele>908.0</ele>
        <time>2020-09-29T10:04:27Z</time>
      </trkpt>
      <trkpt lat="40.8474280" lon="-3.5552620">
        <ele>908.0</ele>
        <time>2020-09-29T10:04:28Z</time>
      </trkpt>
      <trkpt lat="40.8475220" lon="-3.5552100">
        <ele>908.0</ele>
        <time>2020-09-29T10:04:29Z</time>
      </trkpt>
      <trkpt lat="40.8475670" lon="-3.5551780">
        <ele>908.0</ele>
        <time>2020-09-29T10:04:30Z</time>
      </trkpt>
      <trkpt lat="40.8475670" lon="-3.5551780">
        <ele>908.0</ele>
        <time>2020-09-29T10:04:31Z</time>
      </trkpt>
      <trkpt lat="40.8476550" lon="-3.5551030">
        <ele>909.0</ele>
        <time>2020-09-29T10:04:32Z</time>
      </trkpt>
      <trkpt lat="40.8476550" lon="-3.5551030">
        <ele>909.0</ele>
        <time>2020-09-29T10:04:33Z</time>
      </trkpt>
      <trkpt lat="40.8477380" lon="-3.5550170">
        <ele>909.0</ele>
        <time>2020-09-29T10:04:34Z</time>
      </trkpt>
      <trkpt lat="40.8477770" lon="-3.5549720">
        <ele>909.0</ele>
        <time>2020-09-29T10:04:35Z</time>
      </trkpt>
      <trkpt lat="40.8477770" lon="-3.5549720">
        <ele>909.0</ele>
        <time>2020-09-29T10:04:36Z</time>
      </trkpt>
      <trkpt lat="40.8478500" lon="-3.5548720">
        <ele>909.0</ele>
        <time>2020-09-29T10:04:37Z</time>
      </trkpt>
      <trkpt lat="40.8478500" lon="-3.5548720">
        <ele>909.0</ele>
        <time>2020-09-29T10:04:38Z</time>
      </trkpt>
      <trkpt lat="40.8479220" lon="-3.5547670">
        <ele>909.0</ele>
        <time>2020-09-29T10:04:39Z</time>
      </trkpt>
      <trkpt lat="40.8479220" lon="-3.5547670">
        <ele>909.0</ele>
        <time>2020-09-29T10:04:40Z</time>
      </trkpt>
      <trkpt lat="40.8479920" lon="-3.5546570">
        <ele>909.0</ele>
        <time>2020-09-29T10:04:41Z</time>
      </trkpt>
      <trkpt lat="40.8479920" lon="-3.5546570">
        <ele>909.0</ele>
        <time>2020-09-29T10:04:42Z</time>
      </trkpt>
      <trkpt lat="40.8480570" lon="-3.5545370">
        <ele>909.0</ele>
        <time>2020-09-29T10:04:43Z</time>
      </trkpt>
      <trkpt lat="40.8480570" lon="-3.5545370">
        <ele>909.0</ele>
        <time>2020-09-29T10:04:44Z</time>
      </trkpt>
      <trkpt lat="40.8481220" lon="-3.5544050">
        <ele>909.0</ele>
        <time>2020-09-29T10:04:45Z</time>
      </trkpt>
      <trkpt lat="40.8481220" lon="-3.5544050">
        <ele>909.0</ele>
        <time>2020-09-29T10:04:46Z</time>
      </trkpt>
      <trkpt lat="40.8481820" lon="-3.5542650">
        <ele>910.0</ele>
        <time>2020-09-29T10:04:47Z</time>
      </trkpt>
      <trkpt lat="40.8481820" lon="-3.5542650">
        <ele>910.0</ele>
        <time>2020-09-29T10:04:48Z</time>
      </trkpt>
      <trkpt lat="40.8482420" lon="-3.5541200">
        <ele>910.0</ele>
        <time>2020-09-29T10:04:49Z</time>
      </trkpt>
      <trkpt lat="40.8482420" lon="-3.5541200">
        <ele>910.0</ele>
        <time>2020-09-29T10:04:50Z</time>
      </trkpt>
      <trkpt lat="40.8482980" lon="-3.5539730">
        <ele>910.0</ele>
        <time>2020-09-29T10:04:51Z</time>
      </trkpt>
      <trkpt lat="40.8483270" lon="-3.5538980">
        <ele>910.0</ele>
        <time>2020-09-29T10:04:52Z</time>
      </trkpt>
      <trkpt lat="40.8483270" lon="-3.5538980">
        <ele>910.0</ele>
        <time>2020-09-29T10:04:53Z</time>
      </trkpt>
      <trkpt lat="40.8483800" lon="-3.5537500">
        <ele>910.0</ele>
        <time>2020-09-29T10:04:54Z</time>
      </trkpt>
      <trkpt lat="40.8484070" lon="-3.5536750">
        <ele>910.0</ele>
        <time>2020-09-29T10:04:55Z</time>
      </trkpt>
      <trkpt lat="40.8484070" lon="-3.5536750">
        <ele>910.0</ele>
        <time>2020-09-29T10:04:56Z</time>
      </trkpt>
      <trkpt lat="40.8484620" lon="-3.5535270">
        <ele>910.0</ele>
        <time>2020-09-29T10:04:57Z</time>
      </trkpt>
      <trkpt lat="40.8484620" lon="-3.5535270">
        <ele>910.0</ele>
        <time>2020-09-29T10:04:58Z</time>
      </trkpt>
      <trkpt lat="40.8485250" lon="-3.5533870">
        <ele>910.0</ele>
        <time>2020-09-29T10:04:59Z</time>
      </trkpt>
      <trkpt lat="40.8485250" lon="-3.5533870">
        <ele>910.0</ele>
        <time>2020-09-29T10:05:00Z</time>
      </trkpt>
      <trkpt lat="40.8486020" lon="-3.5532580">
        <ele>910.0</ele>
        <time>2020-09-29T10:05:01Z</time>
      </trkpt>
      <trkpt lat="40.8486020" lon="-3.5532580">
        <ele>910.0</ele>
        <time>2020-09-29T10:05:02Z</time>
      </trkpt>
      <trkpt lat="40.8486950" lon="-3.5531450">
        <ele>910.0</ele>
        <time>2020-09-29T10:05:03Z</time>
      </trkpt>
      <trkpt lat="40.8487500" lon="-3.5530970">
        <ele>910.0</ele>
        <time>2020-09-29T10:05:04Z</time>
      </trkpt>
      <trkpt lat="40.8487500" lon="-3.5530970">
        <ele>910.0</ele>
        <time>2020-09-29T10:05:05Z</time>
      </trkpt>
      <trkpt lat="40.8488720" lon="-3.5530200">
        <ele>910.0</ele>
        <time>2020-09-29T10:05:06Z</time>
      </trkpt>
      <trkpt lat="40.8489400" lon="-3.5529900">
        <ele>910.0</ele>
        <time>2020-09-29T10:05:07Z</time>
      </trkpt>
      <trkpt lat="40.8489400" lon="-3.5529900">
        <ele>910.0</ele>
        <time>2020-09-29T10:05:08Z</time>
      </trkpt>
      <trkpt lat="40.8490820" lon="-3.5529280">
        <ele>910.0</ele>
        <time>2020-09-29T10:05:09Z</time>
      </trkpt>
      <trkpt lat="40.8490820" lon="-3.5529280">
        <ele>910.0</ele>
        <time>2020-09-29T10:05:10Z</time>
      </trkpt>
      <trkpt lat="40.8492320" lon="-3.5528670">
        <ele>910.0</ele>
        <time>2020-09-29T10:05:11Z</time>
      </trkpt>
      <trkpt lat="40.8492320" lon="-3.5528670">
        <ele>910.0</ele>
        <time>2020-09-29T10:05:12Z</time>
      </trkpt>
      <trkpt lat="40.8493850" lon="-3.5528050">
        <ele>909.0</ele>
        <time>2020-09-29T10:05:13Z</time>
      </trkpt>
      <trkpt lat="40.8493850" lon="-3.5528050">
        <ele>909.0</ele>
        <time>2020-09-29T10:05:14Z</time>
      </trkpt>
      <trkpt lat="40.8495430" lon="-3.5527400">
        <ele>909.0</ele>
        <time>2020-09-29T10:05:15Z</time>
      </trkpt>
      <trkpt lat="40.8496230" lon="-3.5527070">
        <ele>908.0</ele>
        <time>2020-09-29T10:05:16Z</time>
      </trkpt>
      <trkpt lat="40.8496230" lon="-3.5527070">
        <ele>908.0</ele>
        <time>2020-09-29T10:05:17Z</time>
      </trkpt>
      <trkpt lat="40.8497750" lon="-3.5526280">
        <ele>908.0</ele>
        <time>2020-09-29T10:05:18Z</time>
      </trkpt>
      <trkpt lat="40.8497750" lon="-3.5526280">
        <ele>908.0</ele>
        <time>2020-09-29T10:05:19Z</time>
      </trkpt>
      <trkpt lat="40.8499220" lon="-3.5525420">
        <ele>908.0</ele>
        <time>2020-09-29T10:05:20Z</time>
      </trkpt>
      <trkpt lat="40.8499920" lon="-3.5524920">
        <ele>908.0</ele>
        <time>2020-09-29T10:05:21Z</time>
      </trkpt>
      <trkpt lat="40.8500580" lon="-3.5524400">
        <ele>908.0</ele>
        <time>2020-09-29T10:05:22Z</time>
      </trkpt>
      <trkpt lat="40.8500580" lon="-3.5524400">
        <ele>908.0</ele>
        <time>2020-09-29T10:05:23Z</time>
      </trkpt>
      <trkpt lat="40.8501730" lon="-3.5523320">
        <ele>908.0</ele>
        <time>2020-09-29T10:05:24Z</time>
      </trkpt>
      <trkpt lat="40.8501730" lon="-3.5523320">
        <ele>908.0</ele>
        <time>2020-09-29T10:05:25Z</time>
      </trkpt>
      <trkpt lat="40.8502620" lon="-3.5522150">
        <ele>909.0</ele>
        <time>2020-09-29T10:05:26Z</time>
      </trkpt>
      <trkpt lat="40.8502620" lon="-3.5522150">
        <ele>909.0</ele>
        <time>2020-09-29T10:05:27Z</time>
      </trkpt>
      <trkpt lat="40.8503250" lon="-3.5520970">
        <ele>909.0</ele>
        <time>2020-09-29T10:05:28Z</time>
      </trkpt>
      <trkpt lat="40.8503520" lon="-3.5520350">
        <ele>909.0</ele>
        <time>2020-09-29T10:05:29Z</time>
      </trkpt>
      <trkpt lat="40.8503520" lon="-3.5520350">
        <ele>910.0</ele>
        <time>2020-09-29T10:05:30Z</time>
      </trkpt>
      <trkpt lat="40.8504030" lon="-3.5519200">
        <ele>910.0</ele>
        <time>2020-09-29T10:05:31Z</time>
      </trkpt>
      <trkpt lat="40.8504030" lon="-3.5519200">
        <ele>911.0</ele>
        <time>2020-09-29T10:05:32Z</time>
      </trkpt>
      <trkpt lat="40.8504520" lon="-3.5518150">
        <ele>911.0</ele>
        <time>2020-09-29T10:05:33Z</time>
      </trkpt>
      <trkpt lat="40.8504770" lon="-3.5517650">
        <ele>911.0</ele>
        <time>2020-09-29T10:05:34Z</time>
      </trkpt>
      <trkpt lat="40.8504770" lon="-3.5517650">
        <ele>911.0</ele>
        <time>2020-09-29T10:05:35Z</time>
      </trkpt>
      <trkpt lat="40.8505180" lon="-3.5516650">
        <ele>911.0</ele>
        <time>2020-09-29T10:05:36Z</time>
      </trkpt>
      <trkpt lat="40.8505350" lon="-3.5516120">
        <ele>913.0</ele>
        <time>2020-09-29T10:05:37Z</time>
      </trkpt>
      <trkpt lat="40.8505350" lon="-3.5516120">
        <ele>913.0</ele>
        <time>2020-09-29T10:05:38Z</time>
      </trkpt>
      <trkpt lat="40.8505800" lon="-3.5515120">
        <ele>913.0</ele>
        <time>2020-09-29T10:05:39Z</time>
      </trkpt>
      <trkpt lat="40.8505800" lon="-3.5515120">
        <ele>913.0</ele>
        <time>2020-09-29T10:05:40Z</time>
      </trkpt>
      <trkpt lat="40.8506250" lon="-3.5514080">
        <ele>914.0</ele>
        <time>2020-09-29T10:05:41Z</time>
      </trkpt>
      <trkpt lat="40.8506250" lon="-3.5514080">
        <ele>914.0</ele>
        <time>2020-09-29T10:05:42Z</time>
      </trkpt>
      <trkpt lat="40.8506620" lon="-3.5513020">
        <ele>914.0</ele>
        <time>2020-09-29T10:05:43Z</time>
      </trkpt>
      <trkpt lat="40.8506620" lon="-3.5513020">
        <ele>914.0</ele>
        <time>2020-09-29T10:05:44Z</time>
      </trkpt>
      <trkpt lat="40.8506950" lon="-3.5511920">
        <ele>915.0</ele>
        <time>2020-09-29T10:05:45Z</time>
      </trkpt>
      <trkpt lat="40.8506950" lon="-3.5511920">
        <ele>915.0</ele>
        <time>2020-09-29T10:05:46Z</time>
      </trkpt>
      <trkpt lat="40.8507230" lon="-3.5510770">
        <ele>915.0</ele>
        <time>2020-09-29T10:05:47Z</time>
      </trkpt>
      <trkpt lat="40.8507350" lon="-3.5510170">
        <ele>916.0</ele>
        <time>2020-09-29T10:05:48Z</time>
      </trkpt>
      <trkpt lat="40.8507500" lon="-3.5509570">
        <ele>916.0</ele>
        <time>2020-09-29T10:05:49Z</time>
      </trkpt>
      <trkpt lat="40.8507500" lon="-3.5509570">
        <ele>916.0</ele>
        <time>2020-09-29T10:05:50Z</time>
      </trkpt>
      <trkpt lat="40.8507780" lon="-3.5508330">
        <ele>916.0</ele>
        <time>2020-09-29T10:05:51Z</time>
      </trkpt>
      <trkpt lat="40.8507780" lon="-3.5508330">
        <ele>917.0</ele>
        <time>2020-09-29T10:05:52Z</time>
      </trkpt>
      <trkpt lat="40.8508050" lon="-3.5507070">
        <ele>917.0</ele>
        <time>2020-09-29T10:05:53Z</time>
      </trkpt>
      <trkpt lat="40.8508050" lon="-3.5507070">
        <ele>917.0</ele>
        <time>2020-09-29T10:05:54Z</time>
      </trkpt>
      <trkpt lat="40.8508330" lon="-3.5505770">
        <ele>917.0</ele>
        <time>2020-09-29T10:05:55Z</time>
      </trkpt>
      <trkpt lat="40.8508330" lon="-3.5505770">
        <ele>917.0</ele>
        <time>2020-09-29T10:05:56Z</time>
      </trkpt>
      <trkpt lat="40.8508650" lon="-3.5504430">
        <ele>917.0</ele>
        <time>2020-09-29T10:05:57Z</time>
      </trkpt>
      <trkpt lat="40.8508650" lon="-3.5504430">
        <ele>917.0</ele>
        <time>2020-09-29T10:05:58Z</time>
      </trkpt>
      <trkpt lat="40.8508970" lon="-3.5503080">
        <ele>917.0</ele>
        <time>2020-09-29T10:05:59Z</time>
      </trkpt>
      <trkpt lat="40.8508970" lon="-3.5503080">
        <ele>917.0</ele>
        <time>2020-09-29T10:06:00Z</time>
      </trkpt>
      <trkpt lat="40.8509350" lon="-3.5501730">
        <ele>917.0</ele>
        <time>2020-09-29T10:06:01Z</time>
      </trkpt>
      <trkpt lat="40.8509350" lon="-3.5501730">
        <ele>917.0</ele>
        <time>2020-09-29T10:06:02Z</time>
      </trkpt>
      <trkpt lat="40.8509750" lon="-3.5500370">
        <ele>917.0</ele>
        <time>2020-09-29T10:06:03Z</time>
      </trkpt>
      <trkpt lat="40.8509750" lon="-3.5500370">
        <ele>917.0</ele>
        <time>2020-09-29T10:06:04Z</time>
      </trkpt>
      <trkpt lat="40.8510300" lon="-3.5499070">
        <ele>917.0</ele>
        <time>2020-09-29T10:06:05Z</time>
      </trkpt>
      <trkpt lat="40.8510300" lon="-3.5499070">
        <ele>917.0</ele>
        <time>2020-09-29T10:06:06Z</time>
      </trkpt>
      <trkpt lat="40.8510950" lon="-3.5497800">
        <ele>917.0</ele>
        <time>2020-09-29T10:06:07Z</time>
      </trkpt>
      <trkpt lat="40.8510950" lon="-3.5497800">
        <ele>917.0</ele>
        <time>2020-09-29T10:06:08Z</time>
      </trkpt>
      <trkpt lat="40.8511700" lon="-3.5496580">
        <ele>917.0</ele>
        <time>2020-09-29T10:06:09Z</time>
      </trkpt>
      <trkpt lat="40.8511700" lon="-3.5496580">
        <ele>918.0</ele>
        <time>2020-09-29T10:06:10Z</time>
      </trkpt>
      <trkpt lat="40.8512530" lon="-3.5495470">
        <ele>918.0</ele>
        <time>2020-09-29T10:06:11Z</time>
      </trkpt>
      <trkpt lat="40.8512530" lon="-3.5495470">
        <ele>918.0</ele>
        <time>2020-09-29T10:06:12Z</time>
      </trkpt>
      <trkpt lat="40.8513430" lon="-3.5494420">
        <ele>918.0</ele>
        <time>2020-09-29T10:06:13Z</time>
      </trkpt>
      <trkpt lat="40.8513430" lon="-3.5494420">
        <ele>918.0</ele>
        <time>2020-09-29T10:06:14Z</time>
      </trkpt>
      <trkpt lat="40.8514420" lon="-3.5493500">
        <ele>918.0</ele>
        <time>2020-09-29T10:06:15Z</time>
      </trkpt>
      <trkpt lat="40.8514420" lon="-3.5493500">
        <ele>918.0</ele>
        <time>2020-09-29T10:06:16Z</time>
      </trkpt>
      <trkpt lat="40.8515430" lon="-3.5492630">
        <ele>918.0</ele>
        <time>2020-09-29T10:06:17Z</time>
      </trkpt>
      <trkpt lat="40.8515950" lon="-3.5492230">
        <ele>918.0</ele>
        <time>2020-09-29T10:06:18Z</time>
      </trkpt>
      <trkpt lat="40.8516480" lon="-3.5491830">
        <ele>918.0</ele>
        <time>2020-09-29T10:06:19Z</time>
      </trkpt>
      <trkpt lat="40.8516480" lon="-3.5491830">
        <ele>918.0</ele>
        <time>2020-09-29T10:06:20Z</time>
      </trkpt>
      <trkpt lat="40.8517550" lon="-3.5491080">
        <ele>918.0</ele>
        <time>2020-09-29T10:06:21Z</time>
      </trkpt>
      <trkpt lat="40.8518080" lon="-3.5490700">
        <ele>918.0</ele>
        <time>2020-09-29T10:06:22Z</time>
      </trkpt>
      <trkpt lat="40.8518620" lon="-3.5490320">
        <ele>918.0</ele>
        <time>2020-09-29T10:06:23Z</time>
      </trkpt>
      <trkpt lat="40.8518620" lon="-3.5490320">
        <ele>918.0</ele>
        <time>2020-09-29T10:06:24Z</time>
      </trkpt>
      <trkpt lat="40.8519670" lon="-3.5489520">
        <ele>918.0</ele>
        <time>2020-09-29T10:06:25Z</time>
      </trkpt>
      <trkpt lat="40.8520220" lon="-3.5489100">
        <ele>918.0</ele>
        <time>2020-09-29T10:06:26Z</time>
      </trkpt>
      <trkpt lat="40.8520220" lon="-3.5489100">
        <ele>918.0</ele>
        <time>2020-09-29T10:06:27Z</time>
      </trkpt>
      <trkpt lat="40.8521300" lon="-3.5488370">
        <ele>918.0</ele>
        <time>2020-09-29T10:06:28Z</time>
      </trkpt>
      <trkpt lat="40.8521300" lon="-3.5488370">
        <ele>918.0</ele>
        <time>2020-09-29T10:06:29Z</time>
      </trkpt>
      <trkpt lat="40.8522430" lon="-3.5487720">
        <ele>918.0</ele>
        <time>2020-09-29T10:06:30Z</time>
      </trkpt>
      <trkpt lat="40.8522430" lon="-3.5487720">
        <ele>918.0</ele>
        <time>2020-09-29T10:06:31Z</time>
      </trkpt>
      <trkpt lat="40.8523570" lon="-3.5487120">
        <ele>918.0</ele>
        <time>2020-09-29T10:06:32Z</time>
      </trkpt>
      <trkpt lat="40.8523570" lon="-3.5487120">
        <ele>918.0</ele>
        <time>2020-09-29T10:06:33Z</time>
      </trkpt>
      <trkpt lat="40.8524700" lon="-3.5486580">
        <ele>918.0</ele>
        <time>2020-09-29T10:06:34Z</time>
      </trkpt>
      <trkpt lat="40.8524700" lon="-3.5486580">
        <ele>918.0</ele>
        <time>2020-09-29T10:06:35Z</time>
      </trkpt>
      <trkpt lat="40.8525820" lon="-3.5486000">
        <ele>918.0</ele>
        <time>2020-09-29T10:06:36Z</time>
      </trkpt>
      <trkpt lat="40.8525820" lon="-3.5486000">
        <ele>918.0</ele>
        <time>2020-09-29T10:06:37Z</time>
      </trkpt>
      <trkpt lat="40.8526950" lon="-3.5485480">
        <ele>918.0</ele>
        <time>2020-09-29T10:06:38Z</time>
      </trkpt>
      <trkpt lat="40.8526950" lon="-3.5485480">
        <ele>918.0</ele>
        <time>2020-09-29T10:06:39Z</time>
      </trkpt>
      <trkpt lat="40.8528030" lon="-3.5484980">
        <ele>918.0</ele>
        <time>2020-09-29T10:06:40Z</time>
      </trkpt>
      <trkpt lat="40.8528030" lon="-3.5484980">
        <ele>919.0</ele>
        <time>2020-09-29T10:06:41Z</time>
      </trkpt>
      <trkpt lat="40.8529100" lon="-3.5484450">
        <ele>919.0</ele>
        <time>2020-09-29T10:06:42Z</time>
      </trkpt>
      <trkpt lat="40.8529630" lon="-3.5484170">
        <ele>919.0</ele>
        <time>2020-09-29T10:06:43Z</time>
      </trkpt>
      <trkpt lat="40.8530170" lon="-3.5483900">
        <ele>919.0</ele>
        <time>2020-09-29T10:06:44Z</time>
      </trkpt>
      <trkpt lat="40.8530170" lon="-3.5483900">
        <ele>921.0</ele>
        <time>2020-09-29T10:06:45Z</time>
      </trkpt>
      <trkpt lat="40.8531200" lon="-3.5483280">
        <ele>921.0</ele>
        <time>2020-09-29T10:06:46Z</time>
      </trkpt>
      <trkpt lat="40.8531200" lon="-3.5483280">
        <ele>921.0</ele>
        <time>2020-09-29T10:06:47Z</time>
      </trkpt>
      <trkpt lat="40.8532230" lon="-3.5482600">
        <ele>921.0</ele>
        <time>2020-09-29T10:06:48Z</time>
      </trkpt>
      <trkpt lat="40.8532750" lon="-3.5482220">
        <ele>922.0</ele>
        <time>2020-09-29T10:06:49Z</time>
      </trkpt>
      <trkpt lat="40.8532750" lon="-3.5482220">
        <ele>922.0</ele>
        <time>2020-09-29T10:06:50Z</time>
      </trkpt>
      <trkpt lat="40.8533750" lon="-3.5481350">
        <ele>922.0</ele>
        <time>2020-09-29T10:06:51Z</time>
      </trkpt>
      <trkpt lat="40.8534250" lon="-3.5480850">
        <ele>922.0</ele>
        <time>2020-09-29T10:06:52Z</time>
      </trkpt>
      <trkpt lat="40.8534250" lon="-3.5480850">
        <ele>922.0</ele>
        <time>2020-09-29T10:06:53Z</time>
      </trkpt>
      <trkpt lat="40.8535270" lon="-3.5479780">
        <ele>922.0</ele>
        <time>2020-09-29T10:06:54Z</time>
      </trkpt>
      <trkpt lat="40.8535770" lon="-3.5479180">
        <ele>922.0</ele>
        <time>2020-09-29T10:06:55Z</time>
      </trkpt>
      <trkpt lat="40.8535770" lon="-3.5479180">
        <ele>922.0</ele>
        <time>2020-09-29T10:06:56Z</time>
      </trkpt>
      <trkpt lat="40.8536780" lon="-3.5477880">
        <ele>922.0</ele>
        <time>2020-09-29T10:06:57Z</time>
      </trkpt>
      <trkpt lat="40.8536780" lon="-3.5477880">
        <ele>922.0</ele>
        <time>2020-09-29T10:06:58Z</time>
      </trkpt>
      <trkpt lat="40.8537370" lon="-3.5477230">
        <ele>922.0</ele>
        <time>2020-09-29T10:06:59Z</time>
      </trkpt>
      <trkpt lat="40.8538570" lon="-3.5475880">
        <ele>922.0</ele>
        <time>2020-09-29T10:07:00Z</time>
      </trkpt>
      <trkpt lat="40.8538570" lon="-3.5475880">
        <ele>920.0</ele>
        <time>2020-09-29T10:07:01Z</time>
      </trkpt>
      <trkpt lat="40.8539950" lon="-3.5474680">
        <ele>920.0</ele>
        <time>2020-09-29T10:07:02Z</time>
      </trkpt>
      <trkpt lat="40.8539950" lon="-3.5474680">
        <ele>919.0</ele>
        <time>2020-09-29T10:07:03Z</time>
      </trkpt>
      <trkpt lat="40.8541500" lon="-3.5473600">
        <ele>919.0</ele>
        <time>2020-09-29T10:07:04Z</time>
      </trkpt>
      <trkpt lat="40.8542300" lon="-3.5473100">
        <ele>919.0</ele>
        <time>2020-09-29T10:07:05Z</time>
      </trkpt>
      <trkpt lat="40.8542300" lon="-3.5473100">
        <ele>919.0</ele>
        <time>2020-09-29T10:07:06Z</time>
      </trkpt>
      <trkpt lat="40.8543970" lon="-3.5472130">
        <ele>918.0</ele>
        <time>2020-09-29T10:07:07Z</time>
      </trkpt>
      <trkpt lat="40.8543970" lon="-3.5472130">
        <ele>918.0</ele>
        <time>2020-09-29T10:07:08Z</time>
      </trkpt>
      <trkpt lat="40.8545650" lon="-3.5471170">
        <ele>917.0</ele>
        <time>2020-09-29T10:07:09Z</time>
      </trkpt>
      <trkpt lat="40.8545650" lon="-3.5471170">
        <ele>917.0</ele>
        <time>2020-09-29T10:07:10Z</time>
      </trkpt>
      <trkpt lat="40.8547320" lon="-3.5470130">
        <ele>916.0</ele>
        <time>2020-09-29T10:07:11Z</time>
      </trkpt>
      <trkpt lat="40.8547320" lon="-3.5470130">
        <ele>916.0</ele>
        <time>2020-09-29T10:07:12Z</time>
      </trkpt>
      <trkpt lat="40.8548950" lon="-3.5468920">
        <ele>916.0</ele>
        <time>2020-09-29T10:07:13Z</time>
      </trkpt>
      <trkpt lat="40.8548950" lon="-3.5468920">
        <ele>916.0</ele>
        <time>2020-09-29T10:07:14Z</time>
      </trkpt>
      <trkpt lat="40.8550570" lon="-3.5467630">
        <ele>916.0</ele>
        <time>2020-09-29T10:07:15Z</time>
      </trkpt>
      <trkpt lat="40.8550570" lon="-3.5467630">
        <ele>916.0</ele>
        <time>2020-09-29T10:07:16Z</time>
      </trkpt>
      <trkpt lat="40.8552180" lon="-3.5466300">
        <ele>914.0</ele>
        <time>2020-09-29T10:07:17Z</time>
      </trkpt>
      <trkpt lat="40.8552180" lon="-3.5466300">
        <ele>914.0</ele>
        <time>2020-09-29T10:07:18Z</time>
      </trkpt>
      <trkpt lat="40.8553830" lon="-3.5464900">
        <ele>913.0</ele>
        <time>2020-09-29T10:07:19Z</time>
      </trkpt>
      <trkpt lat="40.8553830" lon="-3.5464900">
        <ele>913.0</ele>
        <time>2020-09-29T10:07:20Z</time>
      </trkpt>
      <trkpt lat="40.8555520" lon="-3.5463470">
        <ele>912.0</ele>
        <time>2020-09-29T10:07:21Z</time>
      </trkpt>
      <trkpt lat="40.8555520" lon="-3.5463470">
        <ele>912.0</ele>
        <time>2020-09-29T10:07:22Z</time>
      </trkpt>
      <trkpt lat="40.8557250" lon="-3.5461970">
        <ele>911.0</ele>
        <time>2020-09-29T10:07:23Z</time>
      </trkpt>
      <trkpt lat="40.8557250" lon="-3.5461970">
        <ele>911.0</ele>
        <time>2020-09-29T10:07:24Z</time>
      </trkpt>
      <trkpt lat="40.8558120" lon="-3.5461250">
        <ele>910.0</ele>
        <time>2020-09-29T10:07:25Z</time>
      </trkpt>
      <trkpt lat="40.8559850" lon="-3.5459820">
        <ele>910.0</ele>
        <time>2020-09-29T10:07:26Z</time>
      </trkpt>
      <trkpt lat="40.8560680" lon="-3.5459050">
        <ele>910.0</ele>
        <time>2020-09-29T10:07:27Z</time>
      </trkpt>
      <trkpt lat="40.8561520" lon="-3.5458300">
        <ele>910.0</ele>
        <time>2020-09-29T10:07:28Z</time>
      </trkpt>
      <trkpt lat="40.8561520" lon="-3.5458300">
        <ele>909.0</ele>
        <time>2020-09-29T10:07:29Z</time>
      </trkpt>
      <trkpt lat="40.8563170" lon="-3.5456830">
        <ele>909.0</ele>
        <time>2020-09-29T10:07:30Z</time>
      </trkpt>
      <trkpt lat="40.8563170" lon="-3.5456830">
        <ele>909.0</ele>
        <time>2020-09-29T10:07:31Z</time>
      </trkpt>
      <trkpt lat="40.8564770" lon="-3.5455380">
        <ele>909.0</ele>
        <time>2020-09-29T10:07:32Z</time>
      </trkpt>
      <trkpt lat="40.8564770" lon="-3.5455380">
        <ele>908.0</ele>
        <time>2020-09-29T10:07:33Z</time>
      </trkpt>
      <trkpt lat="40.8566270" lon="-3.5454000">
        <ele>908.0</ele>
        <time>2020-09-29T10:07:34Z</time>
      </trkpt>
      <trkpt lat="40.8566970" lon="-3.5453270">
        <ele>908.0</ele>
        <time>2020-09-29T10:07:35Z</time>
      </trkpt>
      <trkpt lat="40.8566970" lon="-3.5453270">
        <ele>908.0</ele>
        <time>2020-09-29T10:07:36Z</time>
      </trkpt>
      <trkpt lat="40.8568320" lon="-3.5451850">
        <ele>908.0</ele>
        <time>2020-09-29T10:07:37Z</time>
      </trkpt>
      <trkpt lat="40.8568320" lon="-3.5451850">
        <ele>908.0</ele>
        <time>2020-09-29T10:07:38Z</time>
      </trkpt>
      <trkpt lat="40.8569580" lon="-3.5450550">
        <ele>908.0</ele>
        <time>2020-09-29T10:07:39Z</time>
      </trkpt>
      <trkpt lat="40.8569580" lon="-3.5450550">
        <ele>908.0</ele>
        <time>2020-09-29T10:07:40Z</time>
      </trkpt>
      <trkpt lat="40.8570820" lon="-3.5449350">
        <ele>908.0</ele>
        <time>2020-09-29T10:07:41Z</time>
      </trkpt>
      <trkpt lat="40.8571400" lon="-3.5448800">
        <ele>908.0</ele>
        <time>2020-09-29T10:07:42Z</time>
      </trkpt>
      <trkpt lat="40.8571950" lon="-3.5448270">
        <ele>908.0</ele>
        <time>2020-09-29T10:07:43Z</time>
      </trkpt>
      <trkpt lat="40.8571950" lon="-3.5448270">
        <ele>908.0</ele>
        <time>2020-09-29T10:07:44Z</time>
      </trkpt>
      <trkpt lat="40.8573050" lon="-3.5447370">
        <ele>908.0</ele>
        <time>2020-09-29T10:07:45Z</time>
      </trkpt>
      <trkpt lat="40.8573050" lon="-3.5447370">
        <ele>908.0</ele>
        <time>2020-09-29T10:07:46Z</time>
      </trkpt>
      <trkpt lat="40.8574100" lon="-3.5446550">
        <ele>908.0</ele>
        <time>2020-09-29T10:07:47Z</time>
      </trkpt>
      <trkpt lat="40.8574600" lon="-3.5446220">
        <ele>909.0</ele>
        <time>2020-09-29T10:07:48Z</time>
      </trkpt>
      <trkpt lat="40.8574600" lon="-3.5446220">
        <ele>909.0</ele>
        <time>2020-09-29T10:07:49Z</time>
      </trkpt>
      <trkpt lat="40.8575580" lon="-3.5445670">
        <ele>909.0</ele>
        <time>2020-09-29T10:07:50Z</time>
      </trkpt>
      <trkpt lat="40.8576070" lon="-3.5445380">
        <ele>909.0</ele>
        <time>2020-09-29T10:07:51Z</time>
      </trkpt>
      <trkpt lat="40.8576070" lon="-3.5445380">
        <ele>910.0</ele>
        <time>2020-09-29T10:07:52Z</time>
      </trkpt>
      <trkpt lat="40.8577030" lon="-3.5444830">
        <ele>910.0</ele>
        <time>2020-09-29T10:07:53Z</time>
      </trkpt>
      <trkpt lat="40.8577030" lon="-3.5444830">
        <ele>910.0</ele>
        <time>2020-09-29T10:07:54Z</time>
      </trkpt>
      <trkpt lat="40.8577030" lon="-3.5444830">
        <ele>910.0</ele>
        <time>2020-09-29T10:07:55Z</time>
      </trkpt>
      <trkpt lat="40.8577950" lon="-3.5444500">
        <ele>911.0</ele>
        <time>2020-09-29T10:07:56Z</time>
      </trkpt>
      <trkpt lat="40.8578830" lon="-3.5444220">
        <ele>911.0</ele>
        <time>2020-09-29T10:07:57Z</time>
      </trkpt>
      <trkpt lat="40.8579230" lon="-3.5444070">
        <ele>912.0</ele>
        <time>2020-09-29T10:07:58Z</time>
      </trkpt>
      <trkpt lat="40.8579630" lon="-3.5443950">
        <ele>912.0</ele>
        <time>2020-09-29T10:07:59Z</time>
      </trkpt>
      <trkpt lat="40.8579630" lon="-3.5443950">
        <ele>913.0</ele>
        <time>2020-09-29T10:08:00Z</time>
      </trkpt>
      <trkpt lat="40.8580380" lon="-3.5443750">
        <ele>913.0</ele>
        <time>2020-09-29T10:08:01Z</time>
      </trkpt>
      <trkpt lat="40.8580770" lon="-3.5443670">
        <ele>914.0</ele>
        <time>2020-09-29T10:08:02Z</time>
      </trkpt>
      <trkpt lat="40.8580770" lon="-3.5443670">
        <ele>914.0</ele>
        <time>2020-09-29T10:08:03Z</time>
      </trkpt>
      <trkpt lat="40.8581520" lon="-3.5443570">
        <ele>915.0</ele>
        <time>2020-09-29T10:08:04Z</time>
      </trkpt>
      <trkpt lat="40.8581520" lon="-3.5443570">
        <ele>915.0</ele>
        <time>2020-09-29T10:08:05Z</time>
      </trkpt>
      <trkpt lat="40.8582230" lon="-3.5443550">
        <ele>915.0</ele>
        <time>2020-09-29T10:08:06Z</time>
      </trkpt>
      <trkpt lat="40.8582230" lon="-3.5443550">
        <ele>915.0</ele>
        <time>2020-09-29T10:08:07Z</time>
      </trkpt>
      <trkpt lat="40.8582870" lon="-3.5443550">
        <ele>915.0</ele>
        <time>2020-09-29T10:08:08Z</time>
      </trkpt>
      <trkpt lat="40.8583200" lon="-3.5443550">
        <ele>915.0</ele>
        <time>2020-09-29T10:08:09Z</time>
      </trkpt>
      <trkpt lat="40.8583200" lon="-3.5443550">
        <ele>917.0</ele>
        <time>2020-09-29T10:08:10Z</time>
      </trkpt>
      <trkpt lat="40.8583820" lon="-3.5443570">
        <ele>917.0</ele>
        <time>2020-09-29T10:08:11Z</time>
      </trkpt>
      <trkpt lat="40.8584120" lon="-3.5443580">
        <ele>917.0</ele>
        <time>2020-09-29T10:08:12Z</time>
      </trkpt>
      <trkpt lat="40.8584430" lon="-3.5443570">
        <ele>917.0</ele>
        <time>2020-09-29T10:08:13Z</time>
      </trkpt>
      <trkpt lat="40.8584730" lon="-3.5443580">
        <ele>917.0</ele>
        <time>2020-09-29T10:08:14Z</time>
      </trkpt>
      <trkpt lat="40.8584730" lon="-3.5443580">
        <ele>918.0</ele>
        <time>2020-09-29T10:08:15Z</time>
      </trkpt>
      <trkpt lat="40.8585330" lon="-3.5443750">
        <ele>918.0</ele>
        <time>2020-09-29T10:08:16Z</time>
      </trkpt>
      <trkpt lat="40.8585330" lon="-3.5443750">
        <ele>918.0</ele>
        <time>2020-09-29T10:08:17Z</time>
      </trkpt>
      <trkpt lat="40.8585950" lon="-3.5443970">
        <ele>918.0</ele>
        <time>2020-09-29T10:08:18Z</time>
      </trkpt>
      <trkpt lat="40.8586230" lon="-3.5444050">
        <ele>919.0</ele>
        <time>2020-09-29T10:08:19Z</time>
      </trkpt>
      <trkpt lat="40.8586230" lon="-3.5444050">
        <ele>919.0</ele>
        <time>2020-09-29T10:08:20Z</time>
      </trkpt>
      <trkpt lat="40.8586230" lon="-3.5444050">
        <ele>919.0</ele>
        <time>2020-09-29T10:08:21Z</time>
      </trkpt>
      <trkpt lat="40.8586830" lon="-3.5444220">
        <ele>919.0</ele>
        <time>2020-09-29T10:08:22Z</time>
      </trkpt>
      <trkpt lat="40.8587430" lon="-3.5444380">
        <ele>920.0</ele>
        <time>2020-09-29T10:08:23Z</time>
      </trkpt>
      <trkpt lat="40.8587430" lon="-3.5444380">
        <ele>920.0</ele>
        <time>2020-09-29T10:08:24Z</time>
      </trkpt>
      <trkpt lat="40.8588020" lon="-3.5444600">
        <ele>921.0</ele>
        <time>2020-09-29T10:08:25Z</time>
      </trkpt>
      <trkpt lat="40.8588020" lon="-3.5444600">
        <ele>921.0</ele>
        <time>2020-09-29T10:08:26Z</time>
      </trkpt>
      <trkpt lat="40.8588620" lon="-3.5444830">
        <ele>921.0</ele>
        <time>2020-09-29T10:08:27Z</time>
      </trkpt>
      <trkpt lat="40.8588620" lon="-3.5444830">
        <ele>921.0</ele>
        <time>2020-09-29T10:08:28Z</time>
      </trkpt>
      <trkpt lat="40.8589220" lon="-3.5445080">
        <ele>922.0</ele>
        <time>2020-09-29T10:08:29Z</time>
      </trkpt>
      <trkpt lat="40.8589220" lon="-3.5445080">
        <ele>922.0</ele>
        <time>2020-09-29T10:08:30Z</time>
      </trkpt>
      <trkpt lat="40.8589220" lon="-3.5445080">
        <ele>922.0</ele>
        <time>2020-09-29T10:08:31Z</time>
      </trkpt>
      <trkpt lat="40.8589800" lon="-3.5445370">
        <ele>922.0</ele>
        <time>2020-09-29T10:08:32Z</time>
      </trkpt>
      <trkpt lat="40.8590350" lon="-3.5445700">
        <ele>924.0</ele>
        <time>2020-09-29T10:08:33Z</time>
      </trkpt>
      <trkpt lat="40.8590350" lon="-3.5445700">
        <ele>924.0</ele>
        <time>2020-09-29T10:08:34Z</time>
      </trkpt>
      <trkpt lat="40.8590880" lon="-3.5446050">
        <ele>924.0</ele>
        <time>2020-09-29T10:08:35Z</time>
      </trkpt>
      <trkpt lat="40.8591170" lon="-3.5446170">
        <ele>924.0</ele>
        <time>2020-09-29T10:08:36Z</time>
      </trkpt>
      <trkpt lat="40.8591470" lon="-3.5446300">
        <ele>924.0</ele>
        <time>2020-09-29T10:08:37Z</time>
      </trkpt>
      <trkpt lat="40.8591470" lon="-3.5446300">
        <ele>924.0</ele>
        <time>2020-09-29T10:08:38Z</time>
      </trkpt>
      <trkpt lat="40.8592030" lon="-3.5446600">
        <ele>924.0</ele>
        <time>2020-09-29T10:08:39Z</time>
      </trkpt>
      <trkpt lat="40.8592320" lon="-3.5446750">
        <ele>924.0</ele>
        <time>2020-09-29T10:08:40Z</time>
      </trkpt>
      <trkpt lat="40.8592600" lon="-3.5446900">
        <ele>926.0</ele>
        <time>2020-09-29T10:08:41Z</time>
      </trkpt>
      <trkpt lat="40.8592600" lon="-3.5446900">
        <ele>926.0</ele>
        <time>2020-09-29T10:08:42Z</time>
      </trkpt>
      <trkpt lat="40.8593200" lon="-3.5447280">
        <ele>926.0</ele>
        <time>2020-09-29T10:08:43Z</time>
      </trkpt>
      <trkpt lat="40.8593480" lon="-3.5447480">
        <ele>926.0</ele>
        <time>2020-09-29T10:08:44Z</time>
      </trkpt>
      <trkpt lat="40.8593780" lon="-3.5447670">
        <ele>927.0</ele>
        <time>2020-09-29T10:08:45Z</time>
      </trkpt>
      <trkpt lat="40.8593780" lon="-3.5447670">
        <ele>927.0</ele>
        <time>2020-09-29T10:08:46Z</time>
      </trkpt>
      <trkpt lat="40.8594370" lon="-3.5448030">
        <ele>927.0</ele>
        <time>2020-09-29T10:08:47Z</time>
      </trkpt>
      <trkpt lat="40.8594650" lon="-3.5448220">
        <ele>927.0</ele>
        <time>2020-09-29T10:08:48Z</time>
      </trkpt>
      <trkpt lat="40.8594930" lon="-3.5448420">
        <ele>928.0</ele>
        <time>2020-09-29T10:08:49Z</time>
      </trkpt>
      <trkpt lat="40.8594930" lon="-3.5448420">
        <ele>928.0</ele>
        <time>2020-09-29T10:08:50Z</time>
      </trkpt>
      <trkpt lat="40.8595500" lon="-3.5448820">
        <ele>928.0</ele>
        <time>2020-09-29T10:08:51Z</time>
      </trkpt>
      <trkpt lat="40.8595500" lon="-3.5448820">
        <ele>929.0</ele>
        <time>2020-09-29T10:08:52Z</time>
      </trkpt>
      <trkpt lat="40.8596070" lon="-3.5449180">
        <ele>929.0</ele>
        <time>2020-09-29T10:08:53Z</time>
      </trkpt>
      <trkpt lat="40.8596070" lon="-3.5449180">
        <ele>929.0</ele>
        <time>2020-09-29T10:08:54Z</time>
      </trkpt>
      <trkpt lat="40.8596670" lon="-3.5449530">
        <ele>929.0</ele>
        <time>2020-09-29T10:08:55Z</time>
      </trkpt>
      <trkpt lat="40.8596950" lon="-3.5449680">
        <ele>930.0</ele>
        <time>2020-09-29T10:08:56Z</time>
      </trkpt>
      <trkpt lat="40.8596950" lon="-3.5449680">
        <ele>930.0</ele>
        <time>2020-09-29T10:08:57Z</time>
      </trkpt>
      <trkpt lat="40.8597550" lon="-3.5449970">
        <ele>930.0</ele>
        <time>2020-09-29T10:08:58Z</time>
      </trkpt>
      <trkpt lat="40.8597850" lon="-3.5450100">
        <ele>930.0</ele>
        <time>2020-09-29T10:08:59Z</time>
      </trkpt>
      <trkpt lat="40.8597850" lon="-3.5450100">
        <ele>931.0</ele>
        <time>2020-09-29T10:09:00Z</time>
      </trkpt>
      <trkpt lat="40.8598470" lon="-3.5450380">
        <ele>931.0</ele>
        <time>2020-09-29T10:09:01Z</time>
      </trkpt>
      <trkpt lat="40.8598470" lon="-3.5450380">
        <ele>931.0</ele>
        <time>2020-09-29T10:09:02Z</time>
      </trkpt>
      <trkpt lat="40.8599080" lon="-3.5450580">
        <ele>931.0</ele>
        <time>2020-09-29T10:09:03Z</time>
      </trkpt>
      <trkpt lat="40.8599080" lon="-3.5450580">
        <ele>932.0</ele>
        <time>2020-09-29T10:09:04Z</time>
      </trkpt>
      <trkpt lat="40.8599750" lon="-3.5450750">
        <ele>932.0</ele>
        <time>2020-09-29T10:09:05Z</time>
      </trkpt>
      <trkpt lat="40.8600100" lon="-3.5450850">
        <ele>932.0</ele>
        <time>2020-09-29T10:09:06Z</time>
      </trkpt>
      <trkpt lat="40.8600100" lon="-3.5450850">
        <ele>932.0</ele>
        <time>2020-09-29T10:09:07Z</time>
      </trkpt>
      <trkpt lat="40.8600800" lon="-3.5451020">
        <ele>932.0</ele>
        <time>2020-09-29T10:09:08Z</time>
      </trkpt>
      <trkpt lat="40.8600800" lon="-3.5451020">
        <ele>932.0</ele>
        <time>2020-09-29T10:09:09Z</time>
      </trkpt>
      <trkpt lat="40.8601530" lon="-3.5451150">
        <ele>933.0</ele>
        <time>2020-09-29T10:09:10Z</time>
      </trkpt>
      <trkpt lat="40.8601530" lon="-3.5451150">
        <ele>933.0</ele>
        <time>2020-09-29T10:09:11Z</time>
      </trkpt>
      <trkpt lat="40.8602280" lon="-3.5451250">
        <ele>933.0</ele>
        <time>2020-09-29T10:09:12Z</time>
      </trkpt>
      <trkpt lat="40.8602680" lon="-3.5451330">
        <ele>933.0</ele>
        <time>2020-09-29T10:09:13Z</time>
      </trkpt>
      <trkpt lat="40.8602680" lon="-3.5451330">
        <ele>933.0</ele>
        <time>2020-09-29T10:09:14Z</time>
      </trkpt>
      <trkpt lat="40.8603480" lon="-3.5451450">
        <ele>933.0</ele>
        <time>2020-09-29T10:09:15Z</time>
      </trkpt>
      <trkpt lat="40.8603480" lon="-3.5451450">
        <ele>933.0</ele>
        <time>2020-09-29T10:09:16Z</time>
      </trkpt>
      <trkpt lat="40.8604320" lon="-3.5451550">
        <ele>933.0</ele>
        <time>2020-09-29T10:09:17Z</time>
      </trkpt>
      <trkpt lat="40.8604720" lon="-3.5451600">
        <ele>934.0</ele>
        <time>2020-09-29T10:09:18Z</time>
      </trkpt>
      <trkpt lat="40.8605150" lon="-3.5451630">
        <ele>934.0</ele>
        <time>2020-09-29T10:09:19Z</time>
      </trkpt>
      <trkpt lat="40.8605150" lon="-3.5451630">
        <ele>934.0</ele>
        <time>2020-09-29T10:09:20Z</time>
      </trkpt>
      <trkpt lat="40.8606050" lon="-3.5451580">
        <ele>934.0</ele>
        <time>2020-09-29T10:09:21Z</time>
      </trkpt>
      <trkpt lat="40.8606050" lon="-3.5451580">
        <ele>934.0</ele>
        <time>2020-09-29T10:09:22Z</time>
      </trkpt>
      <trkpt lat="40.8607000" lon="-3.5451380">
        <ele>934.0</ele>
        <time>2020-09-29T10:09:23Z</time>
      </trkpt>
      <trkpt lat="40.8607000" lon="-3.5451380">
        <ele>934.0</ele>
        <time>2020-09-29T10:09:24Z</time>
      </trkpt>
      <trkpt lat="40.8607980" lon="-3.5450950">
        <ele>934.0</ele>
        <time>2020-09-29T10:09:25Z</time>
      </trkpt>
      <trkpt lat="40.8607980" lon="-3.5450950">
        <ele>934.0</ele>
        <time>2020-09-29T10:09:26Z</time>
      </trkpt>
      <trkpt lat="40.8608920" lon="-3.5450320">
        <ele>934.0</ele>
        <time>2020-09-29T10:09:27Z</time>
      </trkpt>
      <trkpt lat="40.8608920" lon="-3.5450320">
        <ele>934.0</ele>
        <time>2020-09-29T10:09:28Z</time>
      </trkpt>
      <trkpt lat="40.8609800" lon="-3.5449520">
        <ele>934.0</ele>
        <time>2020-09-29T10:09:29Z</time>
      </trkpt>
      <trkpt lat="40.8609800" lon="-3.5449520">
        <ele>934.0</ele>
        <time>2020-09-29T10:09:30Z</time>
      </trkpt>
      <trkpt lat="40.8610700" lon="-3.5448670">
        <ele>934.0</ele>
        <time>2020-09-29T10:09:31Z</time>
      </trkpt>
      <trkpt lat="40.8610700" lon="-3.5448670">
        <ele>934.0</ele>
        <time>2020-09-29T10:09:32Z</time>
      </trkpt>
      <trkpt lat="40.8611700" lon="-3.5447830">
        <ele>934.0</ele>
        <time>2020-09-29T10:09:33Z</time>
      </trkpt>
      <trkpt lat="40.8611700" lon="-3.5447830">
        <ele>934.0</ele>
        <time>2020-09-29T10:09:34Z</time>
      </trkpt>
      <trkpt lat="40.8612850" lon="-3.5447250">
        <ele>934.0</ele>
        <time>2020-09-29T10:09:35Z</time>
      </trkpt>
      <trkpt lat="40.8613470" lon="-3.5447070">
        <ele>934.0</ele>
        <time>2020-09-29T10:09:36Z</time>
      </trkpt>
      <trkpt lat="40.8614120" lon="-3.5446970">
        <ele>934.0</ele>
        <time>2020-09-29T10:09:37Z</time>
      </trkpt>
      <trkpt lat="40.8614120" lon="-3.5446970">
        <ele>934.0</ele>
        <time>2020-09-29T10:09:38Z</time>
      </trkpt>
      <trkpt lat="40.8615380" lon="-3.5446900">
        <ele>934.0</ele>
        <time>2020-09-29T10:09:39Z</time>
      </trkpt>
      <trkpt lat="40.8615380" lon="-3.5446900">
        <ele>934.0</ele>
        <time>2020-09-29T10:09:40Z</time>
      </trkpt>
      <trkpt lat="40.8616600" lon="-3.5446870">
        <ele>934.0</ele>
        <time>2020-09-29T10:09:41Z</time>
      </trkpt>
      <trkpt lat="40.8616600" lon="-3.5446870">
        <ele>934.0</ele>
        <time>2020-09-29T10:09:42Z</time>
      </trkpt>
      <trkpt lat="40.8617820" lon="-3.5446800">
        <ele>934.0</ele>
        <time>2020-09-29T10:09:43Z</time>
      </trkpt>
      <trkpt lat="40.8617820" lon="-3.5446800">
        <ele>934.0</ele>
        <time>2020-09-29T10:09:44Z</time>
      </trkpt>
      <trkpt lat="40.8617820" lon="-3.5446800">
        <ele>934.0</ele>
        <time>2020-09-29T10:09:45Z</time>
      </trkpt>
      <trkpt lat="40.8619000" lon="-3.5446730">
        <ele>935.0</ele>
        <time>2020-09-29T10:09:46Z</time>
      </trkpt>
      <trkpt lat="40.8620170" lon="-3.5446550">
        <ele>935.0</ele>
        <time>2020-09-29T10:09:47Z</time>
      </trkpt>
      <trkpt lat="40.8620730" lon="-3.5446330">
        <ele>935.0</ele>
        <time>2020-09-29T10:09:48Z</time>
      </trkpt>
      <trkpt lat="40.8620730" lon="-3.5446330">
        <ele>935.0</ele>
        <time>2020-09-29T10:09:49Z</time>
      </trkpt>
      <trkpt lat="40.8621820" lon="-3.5445680">
        <ele>935.0</ele>
        <time>2020-09-29T10:09:50Z</time>
      </trkpt>
      <trkpt lat="40.8621820" lon="-3.5445680">
        <ele>935.0</ele>
        <time>2020-09-29T10:09:51Z</time>
      </trkpt>
      <trkpt lat="40.8622870" lon="-3.5444920">
        <ele>935.0</ele>
        <time>2020-09-29T10:09:52Z</time>
      </trkpt>
      <trkpt lat="40.8623370" lon="-3.5444520">
        <ele>935.0</ele>
        <time>2020-09-29T10:09:53Z</time>
      </trkpt>
      <trkpt lat="40.8623370" lon="-3.5444520">
        <ele>935.0</ele>
        <time>2020-09-29T10:09:54Z</time>
      </trkpt>
      <trkpt lat="40.8624420" lon="-3.5443680">
        <ele>935.0</ele>
        <time>2020-09-29T10:09:55Z</time>
      </trkpt>
      <trkpt lat="40.8624980" lon="-3.5443320">
        <ele>935.0</ele>
        <time>2020-09-29T10:09:56Z</time>
      </trkpt>
      <trkpt lat="40.8624980" lon="-3.5443320">
        <ele>935.0</ele>
        <time>2020-09-29T10:09:57Z</time>
      </trkpt>
      <trkpt lat="40.8626220" lon="-3.5442900">
        <ele>935.0</ele>
        <time>2020-09-29T10:09:58Z</time>
      </trkpt>
      <trkpt lat="40.8626220" lon="-3.5442900">
        <ele>935.0</ele>
        <time>2020-09-29T10:09:59Z</time>
      </trkpt>
      <trkpt lat="40.8627500" lon="-3.5442700">
        <ele>935.0</ele>
        <time>2020-09-29T10:10:00Z</time>
      </trkpt>
      <trkpt lat="40.8628150" lon="-3.5442630">
        <ele>935.0</ele>
        <time>2020-09-29T10:10:01Z</time>
      </trkpt>
      <trkpt lat="40.8628150" lon="-3.5442630">
        <ele>935.0</ele>
        <time>2020-09-29T10:10:02Z</time>
      </trkpt>
      <trkpt lat="40.8629450" lon="-3.5442520">
        <ele>935.0</ele>
        <time>2020-09-29T10:10:03Z</time>
      </trkpt>
      <trkpt lat="40.8629450" lon="-3.5442520">
        <ele>935.0</ele>
        <time>2020-09-29T10:10:04Z</time>
      </trkpt>
      <trkpt lat="40.8630720" lon="-3.5442470">
        <ele>936.0</ele>
        <time>2020-09-29T10:10:05Z</time>
      </trkpt>
      <trkpt lat="40.8630720" lon="-3.5442470">
        <ele>936.0</ele>
        <time>2020-09-29T10:10:06Z</time>
      </trkpt>
      <trkpt lat="40.8631950" lon="-3.5442630">
        <ele>936.0</ele>
        <time>2020-09-29T10:10:07Z</time>
      </trkpt>
      <trkpt lat="40.8631950" lon="-3.5442630">
        <ele>936.0</ele>
        <time>2020-09-29T10:10:08Z</time>
      </trkpt>
      <trkpt lat="40.8633070" lon="-3.5443200">
        <ele>936.0</ele>
        <time>2020-09-29T10:10:09Z</time>
      </trkpt>
      <trkpt lat="40.8633570" lon="-3.5443620">
        <ele>936.0</ele>
        <time>2020-09-29T10:10:10Z</time>
      </trkpt>
      <trkpt lat="40.8633570" lon="-3.5443620">
        <ele>937.0</ele>
        <time>2020-09-29T10:10:11Z</time>
      </trkpt>
      <trkpt lat="40.8634420" lon="-3.5444680">
        <ele>937.0</ele>
        <time>2020-09-29T10:10:12Z</time>
      </trkpt>
      <trkpt lat="40.8634780" lon="-3.5445300">
        <ele>937.0</ele>
        <time>2020-09-29T10:10:13Z</time>
      </trkpt>
      <trkpt lat="40.8634780" lon="-3.5445300">
        <ele>937.0</ele>
        <time>2020-09-29T10:10:14Z</time>
      </trkpt>
      <trkpt lat="40.8635420" lon="-3.5446600">
        <ele>937.0</ele>
        <time>2020-09-29T10:10:15Z</time>
      </trkpt>
      <trkpt lat="40.8635700" lon="-3.5447320">
        <ele>937.0</ele>
        <time>2020-09-29T10:10:16Z</time>
      </trkpt>
      <trkpt lat="40.8635700" lon="-3.5447320">
        <ele>938.0</ele>
        <time>2020-09-29T10:10:17Z</time>
      </trkpt>
      <trkpt lat="40.8636220" lon="-3.5448730">
        <ele>938.0</ele>
        <time>2020-09-29T10:10:18Z</time>
      </trkpt>
      <trkpt lat="40.8636500" lon="-3.5449430">
        <ele>938.0</ele>
        <time>2020-09-29T10:10:19Z</time>
      </trkpt>
      <trkpt lat="40.8636500" lon="-3.5449430">
        <ele>938.0</ele>
        <time>2020-09-29T10:10:20Z</time>
      </trkpt>
      <trkpt lat="40.8637130" lon="-3.5450730">
        <ele>938.0</ele>
        <time>2020-09-29T10:10:21Z</time>
      </trkpt>
      <trkpt lat="40.8637130" lon="-3.5450730">
        <ele>938.0</ele>
        <time>2020-09-29T10:10:22Z</time>
      </trkpt>
      <trkpt lat="40.8637980" lon="-3.5451880">
        <ele>938.0</ele>
        <time>2020-09-29T10:10:23Z</time>
      </trkpt>
      <trkpt lat="40.8637980" lon="-3.5451880">
        <ele>938.0</ele>
        <time>2020-09-29T10:10:24Z</time>
      </trkpt>
      <trkpt lat="40.8638930" lon="-3.5452900">
        <ele>938.0</ele>
        <time>2020-09-29T10:10:25Z</time>
      </trkpt>
      <trkpt lat="40.8638930" lon="-3.5452900">
        <ele>938.0</ele>
        <time>2020-09-29T10:10:26Z</time>
      </trkpt>
      <trkpt lat="40.8639970" lon="-3.5453800">
        <ele>938.0</ele>
        <time>2020-09-29T10:10:27Z</time>
      </trkpt>
      <trkpt lat="40.8639970" lon="-3.5453800">
        <ele>938.0</ele>
        <time>2020-09-29T10:10:28Z</time>
      </trkpt>
      <trkpt lat="40.8641080" lon="-3.5454580">
        <ele>938.0</ele>
        <time>2020-09-29T10:10:29Z</time>
      </trkpt>
      <trkpt lat="40.8641700" lon="-3.5454870">
        <ele>938.0</ele>
        <time>2020-09-29T10:10:30Z</time>
      </trkpt>
      <trkpt lat="40.8641700" lon="-3.5454870">
        <ele>938.0</ele>
        <time>2020-09-29T10:10:31Z</time>
      </trkpt>
      <trkpt lat="40.8642980" lon="-3.5455200">
        <ele>938.0</ele>
        <time>2020-09-29T10:10:32Z</time>
      </trkpt>
      <trkpt lat="40.8642980" lon="-3.5455200">
        <ele>938.0</ele>
        <time>2020-09-29T10:10:33Z</time>
      </trkpt>
      <trkpt lat="40.8644330" lon="-3.5455320">
        <ele>938.0</ele>
        <time>2020-09-29T10:10:34Z</time>
      </trkpt>
      <trkpt lat="40.8645020" lon="-3.5455280">
        <ele>938.0</ele>
        <time>2020-09-29T10:10:35Z</time>
      </trkpt>
      <trkpt lat="40.8645020" lon="-3.5455280">
        <ele>938.0</ele>
        <time>2020-09-29T10:10:36Z</time>
      </trkpt>
      <trkpt lat="40.8646380" lon="-3.5455000">
        <ele>938.0</ele>
        <time>2020-09-29T10:10:37Z</time>
      </trkpt>
      <trkpt lat="40.8646380" lon="-3.5455000">
        <ele>938.0</ele>
        <time>2020-09-29T10:10:38Z</time>
      </trkpt>
      <trkpt lat="40.8647050" lon="-3.5454800">
        <ele>938.0</ele>
        <time>2020-09-29T10:10:39Z</time>
      </trkpt>
      <trkpt lat="40.8648380" lon="-3.5454370">
        <ele>938.0</ele>
        <time>2020-09-29T10:10:40Z</time>
      </trkpt>
      <trkpt lat="40.8648380" lon="-3.5454370">
        <ele>938.0</ele>
        <time>2020-09-29T10:10:41Z</time>
      </trkpt>
      <trkpt lat="40.8649720" lon="-3.5453850">
        <ele>938.0</ele>
        <time>2020-09-29T10:10:42Z</time>
      </trkpt>
      <trkpt lat="40.8650380" lon="-3.5453620">
        <ele>938.0</ele>
        <time>2020-09-29T10:10:43Z</time>
      </trkpt>
      <trkpt lat="40.8650380" lon="-3.5453620">
        <ele>938.0</ele>
        <time>2020-09-29T10:10:44Z</time>
      </trkpt>
      <trkpt lat="40.8651750" lon="-3.5453100">
        <ele>938.0</ele>
        <time>2020-09-29T10:10:45Z</time>
      </trkpt>
      <trkpt lat="40.8652450" lon="-3.5452820">
        <ele>938.0</ele>
        <time>2020-09-29T10:10:46Z</time>
      </trkpt>
      <trkpt lat="40.8652450" lon="-3.5452820">
        <ele>938.0</ele>
        <time>2020-09-29T10:10:47Z</time>
      </trkpt>
      <trkpt lat="40.8653820" lon="-3.5452320">
        <ele>937.0</ele>
        <time>2020-09-29T10:10:48Z</time>
      </trkpt>
      <trkpt lat="40.8653820" lon="-3.5452320">
        <ele>937.0</ele>
        <time>2020-09-29T10:10:49Z</time>
      </trkpt>
      <trkpt lat="40.8655200" lon="-3.5451880">
        <ele>937.0</ele>
        <time>2020-09-29T10:10:50Z</time>
      </trkpt>
      <trkpt lat="40.8655200" lon="-3.5451880">
        <ele>937.0</ele>
        <time>2020-09-29T10:10:51Z</time>
      </trkpt>
      <trkpt lat="40.8656600" lon="-3.5451530">
        <ele>937.0</ele>
        <time>2020-09-29T10:10:52Z</time>
      </trkpt>
      <trkpt lat="40.8657320" lon="-3.5451380">
        <ele>937.0</ele>
        <time>2020-09-29T10:10:53Z</time>
      </trkpt>
      <trkpt lat="40.8657320" lon="-3.5451380">
        <ele>937.0</ele>
        <time>2020-09-29T10:10:54Z</time>
      </trkpt>
      <trkpt lat="40.8658820" lon="-3.5451100">
        <ele>937.0</ele>
        <time>2020-09-29T10:10:55Z</time>
      </trkpt>
      <trkpt lat="40.8658820" lon="-3.5451100">
        <ele>936.0</ele>
        <time>2020-09-29T10:10:56Z</time>
      </trkpt>
      <trkpt lat="40.8660350" lon="-3.5450870">
        <ele>936.0</ele>
        <time>2020-09-29T10:10:57Z</time>
      </trkpt>
      <trkpt lat="40.8660350" lon="-3.5450870">
        <ele>936.0</ele>
        <time>2020-09-29T10:10:58Z</time>
      </trkpt>
      <trkpt lat="40.8661930" lon="-3.5450720">
        <ele>936.0</ele>
        <time>2020-09-29T10:10:59Z</time>
      </trkpt>
      <trkpt lat="40.8661930" lon="-3.5450720">
        <ele>935.0</ele>
        <time>2020-09-29T10:11:00Z</time>
      </trkpt>
      <trkpt lat="40.8663580" lon="-3.5450670">
        <ele>935.0</ele>
        <time>2020-09-29T10:11:01Z</time>
      </trkpt>
      <trkpt lat="40.8663580" lon="-3.5450670">
        <ele>934.0</ele>
        <time>2020-09-29T10:11:02Z</time>
      </trkpt>
      <trkpt lat="40.8665280" lon="-3.5450730">
        <ele>934.0</ele>
        <time>2020-09-29T10:11:03Z</time>
      </trkpt>
      <trkpt lat="40.8665280" lon="-3.5450730">
        <ele>933.0</ele>
        <time>2020-09-29T10:11:04Z</time>
      </trkpt>
      <trkpt lat="40.8667030" lon="-3.5450900">
        <ele>933.0</ele>
        <time>2020-09-29T10:11:05Z</time>
      </trkpt>
      <trkpt lat="40.8667030" lon="-3.5450900">
        <ele>932.0</ele>
        <time>2020-09-29T10:11:06Z</time>
      </trkpt>
      <trkpt lat="40.8668820" lon="-3.5451130">
        <ele>932.0</ele>
        <time>2020-09-29T10:11:07Z</time>
      </trkpt>
      <trkpt lat="40.8668820" lon="-3.5451130">
        <ele>932.0</ele>
        <time>2020-09-29T10:11:08Z</time>
      </trkpt>
      <trkpt lat="40.8670650" lon="-3.5451420">
        <ele>932.0</ele>
        <time>2020-09-29T10:11:09Z</time>
      </trkpt>
      <trkpt lat="40.8671600" lon="-3.5451600">
        <ele>931.0</ele>
        <time>2020-09-29T10:11:10Z</time>
      </trkpt>
      <trkpt lat="40.8671600" lon="-3.5451600">
        <ele>931.0</ele>
        <time>2020-09-29T10:11:11Z</time>
      </trkpt>
      <trkpt lat="40.8673520" lon="-3.5451920">
        <ele>930.0</ele>
        <time>2020-09-29T10:11:12Z</time>
      </trkpt>
      <trkpt lat="40.8674500" lon="-3.5452070">
        <ele>930.0</ele>
        <time>2020-09-29T10:11:13Z</time>
      </trkpt>
      <trkpt lat="40.8674500" lon="-3.5452070">
        <ele>929.0</ele>
        <time>2020-09-29T10:11:14Z</time>
      </trkpt>
      <trkpt lat="40.8676500" lon="-3.5452230">
        <ele>929.0</ele>
        <time>2020-09-29T10:11:15Z</time>
      </trkpt>
      <trkpt lat="40.8677530" lon="-3.5452170">
        <ele>928.0</ele>
        <time>2020-09-29T10:11:16Z</time>
      </trkpt>
      <trkpt lat="40.8677530" lon="-3.5452170">
        <ele>928.0</ele>
        <time>2020-09-29T10:11:17Z</time>
      </trkpt>
      <trkpt lat="40.8678550" lon="-3.5451970">
        <ele>928.0</ele>
        <time>2020-09-29T10:11:18Z</time>
      </trkpt>
      <trkpt lat="40.8680630" lon="-3.5451380">
        <ele>926.0</ele>
        <time>2020-09-29T10:11:19Z</time>
      </trkpt>
      <trkpt lat="40.8680630" lon="-3.5451380">
        <ele>926.0</ele>
        <time>2020-09-29T10:11:20Z</time>
      </trkpt>
      <trkpt lat="40.8682820" lon="-3.5450770">
        <ele>926.0</ele>
        <time>2020-09-29T10:11:21Z</time>
      </trkpt>
      <trkpt lat="40.8682820" lon="-3.5450770">
        <ele>926.0</ele>
        <time>2020-09-29T10:11:22Z</time>
      </trkpt>
      <trkpt lat="40.8685120" lon="-3.5450420">
        <ele>925.0</ele>
        <time>2020-09-29T10:11:23Z</time>
      </trkpt>
      <trkpt lat="40.8685120" lon="-3.5450420">
        <ele>925.0</ele>
        <time>2020-09-29T10:11:24Z</time>
      </trkpt>
      <trkpt lat="40.8687500" lon="-3.5450680">
        <ele>923.0</ele>
        <time>2020-09-29T10:11:25Z</time>
      </trkpt>
      <trkpt lat="40.8687500" lon="-3.5450680">
        <ele>923.0</ele>
        <time>2020-09-29T10:11:26Z</time>
      </trkpt>
      <trkpt lat="40.8689830" lon="-3.5451550">
        <ele>922.0</ele>
        <time>2020-09-29T10:11:27Z</time>
      </trkpt>
      <trkpt lat="40.8689830" lon="-3.5451550">
        <ele>922.0</ele>
        <time>2020-09-29T10:11:28Z</time>
      </trkpt>
      <trkpt lat="40.8692100" lon="-3.5452620">
        <ele>921.0</ele>
        <time>2020-09-29T10:11:29Z</time>
      </trkpt>
      <trkpt lat="40.8692100" lon="-3.5452620">
        <ele>921.0</ele>
        <time>2020-09-29T10:11:30Z</time>
      </trkpt>
      <trkpt lat="40.8694320" lon="-3.5453680">
        <ele>919.0</ele>
        <time>2020-09-29T10:11:31Z</time>
      </trkpt>
      <trkpt lat="40.8694320" lon="-3.5453680">
        <ele>919.0</ele>
        <time>2020-09-29T10:11:32Z</time>
      </trkpt>
      <trkpt lat="40.8696430" lon="-3.5454930">
        <ele>918.0</ele>
        <time>2020-09-29T10:11:33Z</time>
      </trkpt>
      <trkpt lat="40.8697450" lon="-3.5455600">
        <ele>918.0</ele>
        <time>2020-09-29T10:11:34Z</time>
      </trkpt>
      <trkpt lat="40.8697450" lon="-3.5455600">
        <ele>918.0</ele>
        <time>2020-09-29T10:11:35Z</time>
      </trkpt>
      <trkpt lat="40.8699420" lon="-3.5456980">
        <ele>918.0</ele>
        <time>2020-09-29T10:11:36Z</time>
      </trkpt>
      <trkpt lat="40.8700350" lon="-3.5457750">
        <ele>917.0</ele>
        <time>2020-09-29T10:11:37Z</time>
      </trkpt>
      <trkpt lat="40.8700350" lon="-3.5457750">
        <ele>917.0</ele>
        <time>2020-09-29T10:11:38Z</time>
      </trkpt>
      <trkpt lat="40.8702000" lon="-3.5459430">
        <ele>917.0</ele>
        <time>2020-09-29T10:11:39Z</time>
      </trkpt>
      <trkpt lat="40.8702000" lon="-3.5459430">
        <ele>917.0</ele>
        <time>2020-09-29T10:11:40Z</time>
      </trkpt>
      <trkpt lat="40.8703430" lon="-3.5461280">
        <ele>916.0</ele>
        <time>2020-09-29T10:11:41Z</time>
      </trkpt>
      <trkpt lat="40.8703430" lon="-3.5461280">
        <ele>916.0</ele>
        <time>2020-09-29T10:11:42Z</time>
      </trkpt>
      <trkpt lat="40.8704750" lon="-3.5463180">
        <ele>916.0</ele>
        <time>2020-09-29T10:11:43Z</time>
      </trkpt>
      <trkpt lat="40.8704750" lon="-3.5463180">
        <ele>916.0</ele>
        <time>2020-09-29T10:11:44Z</time>
      </trkpt>
      <trkpt lat="40.8705970" lon="-3.5465080">
        <ele>915.0</ele>
        <time>2020-09-29T10:11:45Z</time>
      </trkpt>
      <trkpt lat="40.8705970" lon="-3.5465080">
        <ele>915.0</ele>
        <time>2020-09-29T10:11:46Z</time>
      </trkpt>
      <trkpt lat="40.8707100" lon="-3.5466980">
        <ele>915.0</ele>
        <time>2020-09-29T10:11:47Z</time>
      </trkpt>
      <trkpt lat="40.8707100" lon="-3.5466980">
        <ele>915.0</ele>
        <time>2020-09-29T10:11:48Z</time>
      </trkpt>
      <trkpt lat="40.8708180" lon="-3.5468920">
        <ele>915.0</ele>
        <time>2020-09-29T10:11:49Z</time>
      </trkpt>
      <trkpt lat="40.8708180" lon="-3.5468920">
        <ele>915.0</ele>
        <time>2020-09-29T10:11:50Z</time>
      </trkpt>
      <trkpt lat="40.8709250" lon="-3.5470780">
        <ele>914.0</ele>
        <time>2020-09-29T10:11:51Z</time>
      </trkpt>
      <trkpt lat="40.8709250" lon="-3.5470780">
        <ele>914.0</ele>
        <time>2020-09-29T10:11:52Z</time>
      </trkpt>
      <trkpt lat="40.8710280" lon="-3.5472600">
        <ele>914.0</ele>
        <time>2020-09-29T10:11:53Z</time>
      </trkpt>
      <trkpt lat="40.8710280" lon="-3.5472600">
        <ele>914.0</ele>
        <time>2020-09-29T10:11:54Z</time>
      </trkpt>
      <trkpt lat="40.8711280" lon="-3.5474370">
        <ele>914.0</ele>
        <time>2020-09-29T10:11:55Z</time>
      </trkpt>
      <trkpt lat="40.8711280" lon="-3.5474370">
        <ele>914.0</ele>
        <time>2020-09-29T10:11:56Z</time>
      </trkpt>
      <trkpt lat="40.8712250" lon="-3.5476100">
        <ele>914.0</ele>
        <time>2020-09-29T10:11:57Z</time>
      </trkpt>
      <trkpt lat="40.8712250" lon="-3.5476100">
        <ele>914.0</ele>
        <time>2020-09-29T10:11:58Z</time>
      </trkpt>
      <trkpt lat="40.8713200" lon="-3.5477800">
        <ele>914.0</ele>
        <time>2020-09-29T10:11:59Z</time>
      </trkpt>
      <trkpt lat="40.8713200" lon="-3.5477800">
        <ele>914.0</ele>
        <time>2020-09-29T10:12:00Z</time>
      </trkpt>
      <trkpt lat="40.8714100" lon="-3.5479450">
        <ele>914.0</ele>
        <time>2020-09-29T10:12:01Z</time>
      </trkpt>
      <trkpt lat="40.8714100" lon="-3.5479450">
        <ele>914.0</ele>
        <time>2020-09-29T10:12:02Z</time>
      </trkpt>
      <trkpt lat="40.8715020" lon="-3.5481100">
        <ele>914.0</ele>
        <time>2020-09-29T10:12:03Z</time>
      </trkpt>
      <trkpt lat="40.8715020" lon="-3.5481100">
        <ele>914.0</ele>
        <time>2020-09-29T10:12:04Z</time>
      </trkpt>
      <trkpt lat="40.8715930" lon="-3.5482700">
        <ele>914.0</ele>
        <time>2020-09-29T10:12:05Z</time>
      </trkpt>
      <trkpt lat="40.8715930" lon="-3.5482700">
        <ele>914.0</ele>
        <time>2020-09-29T10:12:06Z</time>
      </trkpt>
      <trkpt lat="40.8715930" lon="-3.5482700">
        <ele>914.0</ele>
        <time>2020-09-29T10:12:07Z</time>
      </trkpt>
      <trkpt lat="40.8716800" lon="-3.5484300">
        <ele>914.0</ele>
        <time>2020-09-29T10:12:08Z</time>
      </trkpt>
      <trkpt lat="40.8717670" lon="-3.5485850">
        <ele>914.0</ele>
        <time>2020-09-29T10:12:09Z</time>
      </trkpt>
      <trkpt lat="40.8717670" lon="-3.5485850">
        <ele>914.0</ele>
        <time>2020-09-29T10:12:10Z</time>
      </trkpt>
      <trkpt lat="40.8718530" lon="-3.5487350">
        <ele>914.0</ele>
        <time>2020-09-29T10:12:11Z</time>
      </trkpt>
      <trkpt lat="40.8718530" lon="-3.5487350">
        <ele>914.0</ele>
        <time>2020-09-29T10:12:12Z</time>
      </trkpt>
      <trkpt lat="40.8719320" lon="-3.5488820">
        <ele>914.0</ele>
        <time>2020-09-29T10:12:13Z</time>
      </trkpt>
      <trkpt lat="40.8719320" lon="-3.5488820">
        <ele>915.0</ele>
        <time>2020-09-29T10:12:14Z</time>
      </trkpt>
      <trkpt lat="40.8720080" lon="-3.5490180">
        <ele>915.0</ele>
        <time>2020-09-29T10:12:15Z</time>
      </trkpt>
      <trkpt lat="40.8720080" lon="-3.5490180">
        <ele>915.0</ele>
        <time>2020-09-29T10:12:16Z</time>
      </trkpt>
      <trkpt lat="40.8720850" lon="-3.5491520">
        <ele>915.0</ele>
        <time>2020-09-29T10:12:17Z</time>
      </trkpt>
      <trkpt lat="40.8720850" lon="-3.5491520">
        <ele>915.0</ele>
        <time>2020-09-29T10:12:18Z</time>
      </trkpt>
      <trkpt lat="40.8721580" lon="-3.5492820">
        <ele>915.0</ele>
        <time>2020-09-29T10:12:19Z</time>
      </trkpt>
      <trkpt lat="40.8721580" lon="-3.5492820">
        <ele>915.0</ele>
        <time>2020-09-29T10:12:20Z</time>
      </trkpt>
      <trkpt lat="40.8722270" lon="-3.5494070">
        <ele>915.0</ele>
        <time>2020-09-29T10:12:21Z</time>
      </trkpt>
      <trkpt lat="40.8722270" lon="-3.5494070">
        <ele>915.0</ele>
        <time>2020-09-29T10:12:22Z</time>
      </trkpt>
      <trkpt lat="40.8722950" lon="-3.5495150">
        <ele>915.0</ele>
        <time>2020-09-29T10:12:23Z</time>
      </trkpt>
      <trkpt lat="40.8722950" lon="-3.5495150">
        <ele>916.0</ele>
        <time>2020-09-29T10:12:24Z</time>
      </trkpt>
      <trkpt lat="40.8723650" lon="-3.5496180">
        <ele>916.0</ele>
        <time>2020-09-29T10:12:25Z</time>
      </trkpt>
      <trkpt lat="40.8723650" lon="-3.5496180">
        <ele>916.0</ele>
        <time>2020-09-29T10:12:26Z</time>
      </trkpt>
      <trkpt lat="40.8724350" lon="-3.5497130">
        <ele>916.0</ele>
        <time>2020-09-29T10:12:27Z</time>
      </trkpt>
      <trkpt lat="40.8724670" lon="-3.5497630">
        <ele>918.0</ele>
        <time>2020-09-29T10:12:28Z</time>
      </trkpt>
      <trkpt lat="40.8724670" lon="-3.5497630">
        <ele>918.0</ele>
        <time>2020-09-29T10:12:29Z</time>
      </trkpt>
      <trkpt lat="40.8725320" lon="-3.5498570">
        <ele>918.0</ele>
        <time>2020-09-29T10:12:30Z</time>
      </trkpt>
      <trkpt lat="40.8725320" lon="-3.5498570">
        <ele>919.0</ele>
        <time>2020-09-29T10:12:31Z</time>
      </trkpt>
      <trkpt lat="40.8726120" lon="-3.5499370">
        <ele>919.0</ele>
        <time>2020-09-29T10:12:32Z</time>
      </trkpt>
      <trkpt lat="40.8726120" lon="-3.5499370">
        <ele>919.0</ele>
        <time>2020-09-29T10:12:33Z</time>
      </trkpt>
      <trkpt lat="40.8726120" lon="-3.5499370">
        <ele>919.0</ele>
        <time>2020-09-29T10:12:34Z</time>
      </trkpt>
      <trkpt lat="40.8726980" lon="-3.5500080">
        <ele>920.0</ele>
        <time>2020-09-29T10:12:35Z</time>
      </trkpt>
      <trkpt lat="40.8727800" lon="-3.5500780">
        <ele>921.0</ele>
        <time>2020-09-29T10:12:36Z</time>
      </trkpt>
      <trkpt lat="40.8727800" lon="-3.5500780">
        <ele>921.0</ele>
        <time>2020-09-29T10:12:37Z</time>
      </trkpt>
      <trkpt lat="40.8728620" lon="-3.5501400">
        <ele>921.0</ele>
        <time>2020-09-29T10:12:38Z</time>
      </trkpt>
      <trkpt lat="40.8728620" lon="-3.5501400">
        <ele>921.0</ele>
        <time>2020-09-29T10:12:39Z</time>
      </trkpt>
      <trkpt lat="40.8729430" lon="-3.5501930">
        <ele>922.0</ele>
        <time>2020-09-29T10:12:40Z</time>
      </trkpt>
      <trkpt lat="40.8729430" lon="-3.5501930">
        <ele>922.0</ele>
        <time>2020-09-29T10:12:41Z</time>
      </trkpt>
      <trkpt lat="40.8730250" lon="-3.5502380">
        <ele>922.0</ele>
        <time>2020-09-29T10:12:42Z</time>
      </trkpt>
      <trkpt lat="40.8730630" lon="-3.5502580">
        <ele>922.0</ele>
        <time>2020-09-29T10:12:43Z</time>
      </trkpt>
      <trkpt lat="40.8730630" lon="-3.5502580">
        <ele>923.0</ele>
        <time>2020-09-29T10:12:44Z</time>
      </trkpt>
      <trkpt lat="40.8731420" lon="-3.5502930">
        <ele>923.0</ele>
        <time>2020-09-29T10:12:45Z</time>
      </trkpt>
      <trkpt lat="40.8731420" lon="-3.5502930">
        <ele>923.0</ele>
        <time>2020-09-29T10:12:46Z</time>
      </trkpt>
      <trkpt lat="40.8732200" lon="-3.5503250">
        <ele>923.0</ele>
        <time>2020-09-29T10:12:47Z</time>
      </trkpt>
      <trkpt lat="40.8732200" lon="-3.5503250">
        <ele>924.0</ele>
        <time>2020-09-29T10:12:48Z</time>
      </trkpt>
      <trkpt lat="40.8733000" lon="-3.5503500">
        <ele>924.0</ele>
        <time>2020-09-29T10:12:49Z</time>
      </trkpt>
      <trkpt lat="40.8733000" lon="-3.5503500">
        <ele>924.0</ele>
        <time>2020-09-29T10:12:50Z</time>
      </trkpt>
      <trkpt lat="40.8733800" lon="-3.5503600">
        <ele>924.0</ele>
        <time>2020-09-29T10:12:51Z</time>
      </trkpt>
      <trkpt lat="40.8734220" lon="-3.5503600">
        <ele>925.0</ele>
        <time>2020-09-29T10:12:52Z</time>
      </trkpt>
      <trkpt lat="40.8734220" lon="-3.5503600">
        <ele>925.0</ele>
        <time>2020-09-29T10:12:53Z</time>
      </trkpt>
      <trkpt lat="40.8735020" lon="-3.5503580">
        <ele>925.0</ele>
        <time>2020-09-29T10:12:54Z</time>
      </trkpt>
      <trkpt lat="40.8735400" lon="-3.5503620">
        <ele>925.0</ele>
        <time>2020-09-29T10:12:55Z</time>
      </trkpt>
      <trkpt lat="40.8735400" lon="-3.5503620">
        <ele>926.0</ele>
        <time>2020-09-29T10:12:56Z</time>
      </trkpt>
      <trkpt lat="40.8736150" lon="-3.5503630">
        <ele>926.0</ele>
        <time>2020-09-29T10:12:57Z</time>
      </trkpt>
      <trkpt lat="40.8736150" lon="-3.5503630">
        <ele>926.0</ele>
        <time>2020-09-29T10:12:58Z</time>
      </trkpt>
      <trkpt lat="40.8736900" lon="-3.5503670">
        <ele>926.0</ele>
        <time>2020-09-29T10:12:59Z</time>
      </trkpt>
      <trkpt lat="40.8737270" lon="-3.5503670">
        <ele>927.0</ele>
        <time>2020-09-29T10:13:00Z</time>
      </trkpt>
      <trkpt lat="40.8737270" lon="-3.5503670">
        <ele>927.0</ele>
        <time>2020-09-29T10:13:01Z</time>
      </trkpt>
      <trkpt lat="40.8738020" lon="-3.5503720">
        <ele>927.0</ele>
        <time>2020-09-29T10:13:02Z</time>
      </trkpt>
      <trkpt lat="40.8738020" lon="-3.5503720">
        <ele>927.0</ele>
        <time>2020-09-29T10:13:03Z</time>
      </trkpt>
      <trkpt lat="40.8738730" lon="-3.5503750">
        <ele>928.0</ele>
        <time>2020-09-29T10:13:04Z</time>
      </trkpt>
      <trkpt lat="40.8738730" lon="-3.5503750">
        <ele>928.0</ele>
        <time>2020-09-29T10:13:05Z</time>
      </trkpt>
      <trkpt lat="40.8739400" lon="-3.5503770">
        <ele>928.0</ele>
        <time>2020-09-29T10:13:06Z</time>
      </trkpt>
      <trkpt lat="40.8739730" lon="-3.5503770">
        <ele>928.0</ele>
        <time>2020-09-29T10:13:07Z</time>
      </trkpt>
      <trkpt lat="40.8739730" lon="-3.5503770">
        <ele>929.0</ele>
        <time>2020-09-29T10:13:08Z</time>
      </trkpt>
      <trkpt lat="40.8740400" lon="-3.5503820">
        <ele>929.0</ele>
        <time>2020-09-29T10:13:09Z</time>
      </trkpt>
      <trkpt lat="40.8740730" lon="-3.5503830">
        <ele>929.0</ele>
        <time>2020-09-29T10:13:10Z</time>
      </trkpt>
      <trkpt lat="40.8740730" lon="-3.5503830">
        <ele>930.0</ele>
        <time>2020-09-29T10:13:11Z</time>
      </trkpt>
      <trkpt lat="40.8741420" lon="-3.5503920">
        <ele>930.0</ele>
        <time>2020-09-29T10:13:12Z</time>
      </trkpt>
      <trkpt lat="40.8741750" lon="-3.5503950">
        <ele>930.0</ele>
        <time>2020-09-29T10:13:13Z</time>
      </trkpt>
      <trkpt lat="40.8741750" lon="-3.5503950">
        <ele>930.0</ele>
        <time>2020-09-29T10:13:14Z</time>
      </trkpt>
      <trkpt lat="40.8742420" lon="-3.5503950">
        <ele>930.0</ele>
        <time>2020-09-29T10:13:15Z</time>
      </trkpt>
      <trkpt lat="40.8742730" lon="-3.5503970">
        <ele>930.0</ele>
        <time>2020-09-29T10:13:16Z</time>
      </trkpt>
      <trkpt lat="40.8742730" lon="-3.5503970">
        <ele>931.0</ele>
        <time>2020-09-29T10:13:17Z</time>
      </trkpt>
      <trkpt lat="40.8743380" lon="-3.5504070">
        <ele>931.0</ele>
        <time>2020-09-29T10:13:18Z</time>
      </trkpt>
      <trkpt lat="40.8743720" lon="-3.5504130">
        <ele>931.0</ele>
        <time>2020-09-29T10:13:19Z</time>
      </trkpt>
      <trkpt lat="40.8743720" lon="-3.5504130">
        <ele>931.0</ele>
        <time>2020-09-29T10:13:20Z</time>
      </trkpt>
      <trkpt lat="40.8744370" lon="-3.5504250">
        <ele>931.0</ele>
        <time>2020-09-29T10:13:21Z</time>
      </trkpt>
      <trkpt lat="40.8744700" lon="-3.5504330">
        <ele>931.0</ele>
        <time>2020-09-29T10:13:22Z</time>
      </trkpt>
      <trkpt lat="40.8744700" lon="-3.5504330">
        <ele>932.0</ele>
        <time>2020-09-29T10:13:23Z</time>
      </trkpt>
      <trkpt lat="40.8745330" lon="-3.5504530">
        <ele>932.0</ele>
        <time>2020-09-29T10:13:24Z</time>
      </trkpt>
      <trkpt lat="40.8745630" lon="-3.5504650">
        <ele>932.0</ele>
        <time>2020-09-29T10:13:25Z</time>
      </trkpt>
      <trkpt lat="40.8745950" lon="-3.5504800">
        <ele>932.0</ele>
        <time>2020-09-29T10:13:26Z</time>
      </trkpt>
      <trkpt lat="40.8745950" lon="-3.5504800">
        <ele>932.0</ele>
        <time>2020-09-29T10:13:27Z</time>
      </trkpt>
      <trkpt lat="40.8746550" lon="-3.5505150">
        <ele>932.0</ele>
        <time>2020-09-29T10:13:28Z</time>
      </trkpt>
      <trkpt lat="40.8746550" lon="-3.5505150">
        <ele>933.0</ele>
        <time>2020-09-29T10:13:29Z</time>
      </trkpt>
      <trkpt lat="40.8747150" lon="-3.5505470">
        <ele>933.0</ele>
        <time>2020-09-29T10:13:30Z</time>
      </trkpt>
      <trkpt lat="40.8747150" lon="-3.5505470">
        <ele>933.0</ele>
        <time>2020-09-29T10:13:31Z</time>
      </trkpt>
      <trkpt lat="40.8747730" lon="-3.5505850">
        <ele>933.0</ele>
        <time>2020-09-29T10:13:32Z</time>
      </trkpt>
      <trkpt lat="40.8747730" lon="-3.5505850">
        <ele>933.0</ele>
        <time>2020-09-29T10:13:33Z</time>
      </trkpt>
      <trkpt lat="40.8748280" lon="-3.5506300">
        <ele>933.0</ele>
        <time>2020-09-29T10:13:34Z</time>
      </trkpt>
      <trkpt lat="40.8748550" lon="-3.5506550">
        <ele>934.0</ele>
        <time>2020-09-29T10:13:35Z</time>
      </trkpt>
      <trkpt lat="40.8748550" lon="-3.5506550">
        <ele>934.0</ele>
        <time>2020-09-29T10:13:36Z</time>
      </trkpt>
      <trkpt lat="40.8749070" lon="-3.5507070">
        <ele>934.0</ele>
        <time>2020-09-29T10:13:37Z</time>
      </trkpt>
      <trkpt lat="40.8749070" lon="-3.5507070">
        <ele>934.0</ele>
        <time>2020-09-29T10:13:38Z</time>
      </trkpt>
      <trkpt lat="40.8749570" lon="-3.5507650">
        <ele>935.0</ele>
        <time>2020-09-29T10:13:39Z</time>
      </trkpt>
      <trkpt lat="40.8749570" lon="-3.5507650">
        <ele>935.0</ele>
        <time>2020-09-29T10:13:40Z</time>
      </trkpt>
      <trkpt lat="40.8750020" lon="-3.5508300">
        <ele>935.0</ele>
        <time>2020-09-29T10:13:41Z</time>
      </trkpt>
      <trkpt lat="40.8750020" lon="-3.5508300">
        <ele>935.0</ele>
        <time>2020-09-29T10:13:42Z</time>
      </trkpt>
      <trkpt lat="40.8750420" lon="-3.5509030">
        <ele>935.0</ele>
        <time>2020-09-29T10:13:43Z</time>
      </trkpt>
      <trkpt lat="40.8750420" lon="-3.5509030">
        <ele>937.0</ele>
        <time>2020-09-29T10:13:44Z</time>
      </trkpt>
      <trkpt lat="40.8750770" lon="-3.5509800">
        <ele>937.0</ele>
        <time>2020-09-29T10:13:45Z</time>
      </trkpt>
      <trkpt lat="40.8750770" lon="-3.5509800">
        <ele>937.0</ele>
        <time>2020-09-29T10:13:46Z</time>
      </trkpt>
      <trkpt lat="40.8751070" lon="-3.5510600">
        <ele>937.0</ele>
        <time>2020-09-29T10:13:47Z</time>
      </trkpt>
      <trkpt lat="40.8751070" lon="-3.5510600">
        <ele>937.0</ele>
        <time>2020-09-29T10:13:48Z</time>
      </trkpt>
      <trkpt lat="40.8751330" lon="-3.5511400">
        <ele>937.0</ele>
        <time>2020-09-29T10:13:49Z</time>
      </trkpt>
      <trkpt lat="40.8751330" lon="-3.5511400">
        <ele>937.0</ele>
        <time>2020-09-29T10:13:50Z</time>
      </trkpt>
      <trkpt lat="40.8751570" lon="-3.5512230">
        <ele>937.0</ele>
        <time>2020-09-29T10:13:51Z</time>
      </trkpt>
      <trkpt lat="40.8751570" lon="-3.5512230">
        <ele>937.0</ele>
        <time>2020-09-29T10:13:52Z</time>
      </trkpt>
      <trkpt lat="40.8751780" lon="-3.5513100">
        <ele>937.0</ele>
        <time>2020-09-29T10:13:53Z</time>
      </trkpt>
      <trkpt lat="40.8751780" lon="-3.5513100">
        <ele>938.0</ele>
        <time>2020-09-29T10:13:54Z</time>
      </trkpt>
      <trkpt lat="40.8751970" lon="-3.5513970">
        <ele>938.0</ele>
        <time>2020-09-29T10:13:55Z</time>
      </trkpt>
      <trkpt lat="40.8752070" lon="-3.5514400">
        <ele>938.0</ele>
        <time>2020-09-29T10:13:56Z</time>
      </trkpt>
      <trkpt lat="40.8752070" lon="-3.5514400">
        <ele>938.0</ele>
        <time>2020-09-29T10:13:57Z</time>
      </trkpt>
      <trkpt lat="40.8752230" lon="-3.5515280">
        <ele>938.0</ele>
        <time>2020-09-29T10:13:58Z</time>
      </trkpt>
      <trkpt lat="40.8752230" lon="-3.5515280">
        <ele>938.0</ele>
        <time>2020-09-29T10:13:59Z</time>
      </trkpt>
      <trkpt lat="40.8752350" lon="-3.5516130">
        <ele>939.0</ele>
        <time>2020-09-29T10:14:00Z</time>
      </trkpt>
      <trkpt lat="40.8752350" lon="-3.5516130">
        <ele>939.0</ele>
        <time>2020-09-29T10:14:01Z</time>
      </trkpt>
      <trkpt lat="40.8752450" lon="-3.5517020">
        <ele>939.0</ele>
        <time>2020-09-29T10:14:02Z</time>
      </trkpt>
      <trkpt lat="40.8752450" lon="-3.5517020">
        <ele>939.0</ele>
        <time>2020-09-29T10:14:03Z</time>
      </trkpt>
      <trkpt lat="40.8752600" lon="-3.5517870">
        <ele>939.0</ele>
        <time>2020-09-29T10:14:04Z</time>
      </trkpt>
      <trkpt lat="40.8752600" lon="-3.5517870">
        <ele>939.0</ele>
        <time>2020-09-29T10:14:05Z</time>
      </trkpt>
      <trkpt lat="40.8752650" lon="-3.5518280">
        <ele>940.0</ele>
        <time>2020-09-29T10:14:06Z</time>
      </trkpt>
      <trkpt lat="40.8752780" lon="-3.5519150">
        <ele>940.0</ele>
        <time>2020-09-29T10:14:07Z</time>
      </trkpt>
      <trkpt lat="40.8752780" lon="-3.5519150">
        <ele>940.0</ele>
        <time>2020-09-29T10:14:08Z</time>
      </trkpt>
      <trkpt lat="40.8752920" lon="-3.5520030">
        <ele>940.0</ele>
        <time>2020-09-29T10:14:09Z</time>
      </trkpt>
      <trkpt lat="40.8752920" lon="-3.5520030">
        <ele>940.0</ele>
        <time>2020-09-29T10:14:10Z</time>
      </trkpt>
      <trkpt lat="40.8753080" lon="-3.5520920">
        <ele>940.0</ele>
        <time>2020-09-29T10:14:11Z</time>
      </trkpt>
      <trkpt lat="40.8753080" lon="-3.5520920">
        <ele>941.0</ele>
        <time>2020-09-29T10:14:12Z</time>
      </trkpt>
      <trkpt lat="40.8753280" lon="-3.5521750">
        <ele>941.0</ele>
        <time>2020-09-29T10:14:13Z</time>
      </trkpt>
      <trkpt lat="40.8753280" lon="-3.5521750">
        <ele>941.0</ele>
        <time>2020-09-29T10:14:14Z</time>
      </trkpt>
      <trkpt lat="40.8753520" lon="-3.5522570">
        <ele>941.0</ele>
        <time>2020-09-29T10:14:15Z</time>
      </trkpt>
      <trkpt lat="40.8753520" lon="-3.5522570">
        <ele>942.0</ele>
        <time>2020-09-29T10:14:16Z</time>
      </trkpt>
      <trkpt lat="40.8753720" lon="-3.5523420">
        <ele>942.0</ele>
        <time>2020-09-29T10:14:17Z</time>
      </trkpt>
      <trkpt lat="40.8753720" lon="-3.5523420">
        <ele>942.0</ele>
        <time>2020-09-29T10:14:18Z</time>
      </trkpt>
      <trkpt lat="40.8753950" lon="-3.5524250">
        <ele>942.0</ele>
        <time>2020-09-29T10:14:19Z</time>
      </trkpt>
      <trkpt lat="40.8753950" lon="-3.5524250">
        <ele>942.0</ele>
        <time>2020-09-29T10:14:20Z</time>
      </trkpt>
      <trkpt lat="40.8754200" lon="-3.5525120">
        <ele>943.0</ele>
        <time>2020-09-29T10:14:21Z</time>
      </trkpt>
      <trkpt lat="40.8754200" lon="-3.5525120">
        <ele>943.0</ele>
        <time>2020-09-29T10:14:22Z</time>
      </trkpt>
      <trkpt lat="40.8754450" lon="-3.5525970">
        <ele>943.0</ele>
        <time>2020-09-29T10:14:23Z</time>
      </trkpt>
      <trkpt lat="40.8754600" lon="-3.5526380">
        <ele>943.0</ele>
        <time>2020-09-29T10:14:24Z</time>
      </trkpt>
      <trkpt lat="40.8754600" lon="-3.5526380">
        <ele>943.0</ele>
        <time>2020-09-29T10:14:25Z</time>
      </trkpt>
      <trkpt lat="40.8754920" lon="-3.5527230">
        <ele>943.0</ele>
        <time>2020-09-29T10:14:26Z</time>
      </trkpt>
      <trkpt lat="40.8754920" lon="-3.5527230">
        <ele>943.0</ele>
        <time>2020-09-29T10:14:27Z</time>
      </trkpt>
      <trkpt lat="40.8755230" lon="-3.5528080">
        <ele>944.0</ele>
        <time>2020-09-29T10:14:28Z</time>
      </trkpt>
      <trkpt lat="40.8755230" lon="-3.5528080">
        <ele>944.0</ele>
        <time>2020-09-29T10:14:29Z</time>
      </trkpt>
      <trkpt lat="40.8755570" lon="-3.5528950">
        <ele>944.0</ele>
        <time>2020-09-29T10:14:30Z</time>
      </trkpt>
      <trkpt lat="40.8755570" lon="-3.5528950">
        <ele>944.0</ele>
        <time>2020-09-29T10:14:31Z</time>
      </trkpt>
      <trkpt lat="40.8755930" lon="-3.5529800">
        <ele>944.0</ele>
        <time>2020-09-29T10:14:32Z</time>
      </trkpt>
      <trkpt lat="40.8755930" lon="-3.5529800">
        <ele>944.0</ele>
        <time>2020-09-29T10:14:33Z</time>
      </trkpt>
      <trkpt lat="40.8756120" lon="-3.5530230">
        <ele>944.0</ele>
        <time>2020-09-29T10:14:34Z</time>
      </trkpt>
      <trkpt lat="40.8756480" lon="-3.5531080">
        <ele>944.0</ele>
        <time>2020-09-29T10:14:35Z</time>
      </trkpt>
      <trkpt lat="40.8756680" lon="-3.5531520">
        <ele>944.0</ele>
        <time>2020-09-29T10:14:36Z</time>
      </trkpt>
      <trkpt lat="40.8756900" lon="-3.5531920">
        <ele>944.0</ele>
        <time>2020-09-29T10:14:37Z</time>
      </trkpt>
      <trkpt lat="40.8756900" lon="-3.5531920">
        <ele>945.0</ele>
        <time>2020-09-29T10:14:38Z</time>
      </trkpt>
      <trkpt lat="40.8757380" lon="-3.5532730">
        <ele>945.0</ele>
        <time>2020-09-29T10:14:39Z</time>
      </trkpt>
      <trkpt lat="40.8757650" lon="-3.5533150">
        <ele>945.0</ele>
        <time>2020-09-29T10:14:40Z</time>
      </trkpt>
      <trkpt lat="40.8757650" lon="-3.5533150">
        <ele>945.0</ele>
        <time>2020-09-29T10:14:41Z</time>
      </trkpt>
      <trkpt lat="40.8758150" lon="-3.5533980">
        <ele>945.0</ele>
        <time>2020-09-29T10:14:42Z</time>
      </trkpt>
      <trkpt lat="40.8758400" lon="-3.5534380">
        <ele>945.0</ele>
        <time>2020-09-29T10:14:43Z</time>
      </trkpt>
      <trkpt lat="40.8758400" lon="-3.5534380">
        <ele>946.0</ele>
        <time>2020-09-29T10:14:44Z</time>
      </trkpt>
      <trkpt lat="40.8758950" lon="-3.5535180">
        <ele>946.0</ele>
        <time>2020-09-29T10:14:45Z</time>
      </trkpt>
      <trkpt lat="40.8758950" lon="-3.5535180">
        <ele>946.0</ele>
        <time>2020-09-29T10:14:46Z</time>
      </trkpt>
      <trkpt lat="40.8759520" lon="-3.5535970">
        <ele>946.0</ele>
        <time>2020-09-29T10:14:47Z</time>
      </trkpt>
      <trkpt lat="40.8759520" lon="-3.5535970">
        <ele>946.0</ele>
        <time>2020-09-29T10:14:48Z</time>
      </trkpt>
      <trkpt lat="40.8760120" lon="-3.5536780">
        <ele>946.0</ele>
        <time>2020-09-29T10:14:49Z</time>
      </trkpt>
      <trkpt lat="40.8760120" lon="-3.5536780">
        <ele>947.0</ele>
        <time>2020-09-29T10:14:50Z</time>
      </trkpt>
      <trkpt lat="40.8760800" lon="-3.5537550">
        <ele>947.0</ele>
        <time>2020-09-29T10:14:51Z</time>
      </trkpt>
      <trkpt lat="40.8760800" lon="-3.5537550">
        <ele>947.0</ele>
        <time>2020-09-29T10:14:52Z</time>
      </trkpt>
      <trkpt lat="40.8761530" lon="-3.5538330">
        <ele>947.0</ele>
        <time>2020-09-29T10:14:53Z</time>
      </trkpt>
      <trkpt lat="40.8761530" lon="-3.5538330">
        <ele>947.0</ele>
        <time>2020-09-29T10:14:54Z</time>
      </trkpt>
      <trkpt lat="40.8762320" lon="-3.5539080">
        <ele>947.0</ele>
        <time>2020-09-29T10:14:55Z</time>
      </trkpt>
      <trkpt lat="40.8762320" lon="-3.5539080">
        <ele>947.0</ele>
        <time>2020-09-29T10:14:56Z</time>
      </trkpt>
      <trkpt lat="40.8762750" lon="-3.5539450">
        <ele>947.0</ele>
        <time>2020-09-29T10:14:57Z</time>
      </trkpt>
      <trkpt lat="40.8763600" lon="-3.5540200">
        <ele>947.0</ele>
        <time>2020-09-29T10:14:58Z</time>
      </trkpt>
      <trkpt lat="40.8763600" lon="-3.5540200">
        <ele>947.0</ele>
        <time>2020-09-29T10:14:59Z</time>
      </trkpt>
      <trkpt lat="40.8764520" lon="-3.5540870">
        <ele>947.0</ele>
        <time>2020-09-29T10:15:00Z</time>
      </trkpt>
      <trkpt lat="40.8764520" lon="-3.5540870">
        <ele>947.0</ele>
        <time>2020-09-29T10:15:01Z</time>
      </trkpt>
      <trkpt lat="40.8765520" lon="-3.5541450">
        <ele>947.0</ele>
        <time>2020-09-29T10:15:02Z</time>
      </trkpt>
      <trkpt lat="40.8766050" lon="-3.5541730">
        <ele>947.0</ele>
        <time>2020-09-29T10:15:03Z</time>
      </trkpt>
      <trkpt lat="40.8766050" lon="-3.5541730">
        <ele>947.0</ele>
        <time>2020-09-29T10:15:04Z</time>
      </trkpt>
      <trkpt lat="40.8767100" lon="-3.5542470">
        <ele>947.0</ele>
        <time>2020-09-29T10:15:05Z</time>
      </trkpt>
      <trkpt lat="40.8767100" lon="-3.5542470">
        <ele>947.0</ele>
        <time>2020-09-29T10:15:06Z</time>
      </trkpt>
      <trkpt lat="40.8767100" lon="-3.5542470">
        <ele>947.0</ele>
        <time>2020-09-29T10:15:07Z</time>
      </trkpt>
      <trkpt lat="40.8768230" lon="-3.5543100">
        <ele>947.0</ele>
        <time>2020-09-29T10:15:08Z</time>
      </trkpt>
      <trkpt lat="40.8769420" lon="-3.5543770">
        <ele>947.0</ele>
        <time>2020-09-29T10:15:09Z</time>
      </trkpt>
      <trkpt lat="40.8770050" lon="-3.5544150">
        <ele>947.0</ele>
        <time>2020-09-29T10:15:10Z</time>
      </trkpt>
      <trkpt lat="40.8770680" lon="-3.5544530">
        <ele>947.0</ele>
        <time>2020-09-29T10:15:11Z</time>
      </trkpt>
      <trkpt lat="40.8770680" lon="-3.5544530">
        <ele>947.0</ele>
        <time>2020-09-29T10:15:12Z</time>
      </trkpt>
      <trkpt lat="40.8772000" lon="-3.5545200">
        <ele>946.0</ele>
        <time>2020-09-29T10:15:13Z</time>
      </trkpt>
      <trkpt lat="40.8772000" lon="-3.5545200">
        <ele>946.0</ele>
        <time>2020-09-29T10:15:14Z</time>
      </trkpt>
      <trkpt lat="40.8773370" lon="-3.5545920">
        <ele>946.0</ele>
        <time>2020-09-29T10:15:15Z</time>
      </trkpt>
      <trkpt lat="40.8773370" lon="-3.5545920">
        <ele>946.0</ele>
        <time>2020-09-29T10:15:16Z</time>
      </trkpt>
      <trkpt lat="40.8774850" lon="-3.5546680">
        <ele>946.0</ele>
        <time>2020-09-29T10:15:17Z</time>
      </trkpt>
      <trkpt lat="40.8774850" lon="-3.5546680">
        <ele>946.0</ele>
        <time>2020-09-29T10:15:18Z</time>
      </trkpt>
      <trkpt lat="40.8776430" lon="-3.5547350">
        <ele>946.0</ele>
        <time>2020-09-29T10:15:19Z</time>
      </trkpt>
      <trkpt lat="40.8776430" lon="-3.5547350">
        <ele>946.0</ele>
        <time>2020-09-29T10:15:20Z</time>
      </trkpt>
      <trkpt lat="40.8778150" lon="-3.5547730">
        <ele>946.0</ele>
        <time>2020-09-29T10:15:21Z</time>
      </trkpt>
      <trkpt lat="40.8778150" lon="-3.5547730">
        <ele>946.0</ele>
        <time>2020-09-29T10:15:22Z</time>
      </trkpt>
      <trkpt lat="40.8779880" lon="-3.5548080">
        <ele>944.0</ele>
        <time>2020-09-29T10:15:23Z</time>
      </trkpt>
      <trkpt lat="40.8779880" lon="-3.5548080">
        <ele>944.0</ele>
        <time>2020-09-29T10:15:24Z</time>
      </trkpt>
      <trkpt lat="40.8781700" lon="-3.5548270">
        <ele>943.0</ele>
        <time>2020-09-29T10:15:25Z</time>
      </trkpt>
      <trkpt lat="40.8782600" lon="-3.5548280">
        <ele>943.0</ele>
        <time>2020-09-29T10:15:26Z</time>
      </trkpt>
      <trkpt lat="40.8782600" lon="-3.5548280">
        <ele>943.0</ele>
        <time>2020-09-29T10:15:27Z</time>
      </trkpt>
      <trkpt lat="40.8784400" lon="-3.5548280">
        <ele>943.0</ele>
        <time>2020-09-29T10:15:28Z</time>
      </trkpt>
      <trkpt lat="40.8784400" lon="-3.5548280">
        <ele>943.0</ele>
        <time>2020-09-29T10:15:29Z</time>
      </trkpt>
      <trkpt lat="40.8786220" lon="-3.5548330">
        <ele>942.0</ele>
        <time>2020-09-29T10:15:30Z</time>
      </trkpt>
      <trkpt lat="40.8786220" lon="-3.5548330">
        <ele>942.0</ele>
        <time>2020-09-29T10:15:31Z</time>
      </trkpt>
      <trkpt lat="40.8788070" lon="-3.5548380">
        <ele>941.0</ele>
        <time>2020-09-29T10:15:32Z</time>
      </trkpt>
      <trkpt lat="40.8789020" lon="-3.5548370">
        <ele>941.0</ele>
        <time>2020-09-29T10:15:33Z</time>
      </trkpt>
      <trkpt lat="40.8789020" lon="-3.5548370">
        <ele>941.0</ele>
        <time>2020-09-29T10:15:34Z</time>
      </trkpt>
      <trkpt lat="40.8790870" lon="-3.5548400">
        <ele>941.0</ele>
        <time>2020-09-29T10:15:35Z</time>
      </trkpt>
      <trkpt lat="40.8791780" lon="-3.5548420">
        <ele>940.0</ele>
        <time>2020-09-29T10:15:36Z</time>
      </trkpt>
      <trkpt lat="40.8792700" lon="-3.5548450">
        <ele>940.0</ele>
        <time>2020-09-29T10:15:37Z</time>
      </trkpt>
      <trkpt lat="40.8792700" lon="-3.5548450">
        <ele>940.0</ele>
        <time>2020-09-29T10:15:38Z</time>
      </trkpt>
      <trkpt lat="40.8794520" lon="-3.5548470">
        <ele>940.0</ele>
        <time>2020-09-29T10:15:39Z</time>
      </trkpt>
      <trkpt lat="40.8794520" lon="-3.5548470">
        <ele>940.0</ele>
        <time>2020-09-29T10:15:40Z</time>
      </trkpt>
      <trkpt lat="40.8796350" lon="-3.5548450">
        <ele>939.0</ele>
        <time>2020-09-29T10:15:41Z</time>
      </trkpt>
      <trkpt lat="40.8796350" lon="-3.5548450">
        <ele>939.0</ele>
        <time>2020-09-29T10:15:42Z</time>
      </trkpt>
      <trkpt lat="40.8798200" lon="-3.5548480">
        <ele>939.0</ele>
        <time>2020-09-29T10:15:43Z</time>
      </trkpt>
      <trkpt lat="40.8798200" lon="-3.5548480">
        <ele>939.0</ele>
        <time>2020-09-29T10:15:44Z</time>
      </trkpt>
      <trkpt lat="40.8800050" lon="-3.5548550">
        <ele>938.0</ele>
        <time>2020-09-29T10:15:45Z</time>
      </trkpt>
      <trkpt lat="40.8800050" lon="-3.5548550">
        <ele>938.0</ele>
        <time>2020-09-29T10:15:46Z</time>
      </trkpt>
      <trkpt lat="40.8801880" lon="-3.5548550">
        <ele>938.0</ele>
        <time>2020-09-29T10:15:47Z</time>
      </trkpt>
      <trkpt lat="40.8801880" lon="-3.5548550">
        <ele>938.0</ele>
        <time>2020-09-29T10:15:48Z</time>
      </trkpt>
      <trkpt lat="40.8803720" lon="-3.5548580">
        <ele>937.0</ele>
        <time>2020-09-29T10:15:49Z</time>
      </trkpt>
      <trkpt lat="40.8803720" lon="-3.5548580">
        <ele>937.0</ele>
        <time>2020-09-29T10:15:50Z</time>
      </trkpt>
      <trkpt lat="40.8805580" lon="-3.5548630">
        <ele>937.0</ele>
        <time>2020-09-29T10:15:51Z</time>
      </trkpt>
      <trkpt lat="40.8805580" lon="-3.5548630">
        <ele>937.0</ele>
        <time>2020-09-29T10:15:52Z</time>
      </trkpt>
      <trkpt lat="40.8807400" lon="-3.5548700">
        <ele>937.0</ele>
        <time>2020-09-29T10:15:53Z</time>
      </trkpt>
      <trkpt lat="40.8807400" lon="-3.5548700">
        <ele>937.0</ele>
        <time>2020-09-29T10:15:54Z</time>
      </trkpt>
      <trkpt lat="40.8809230" lon="-3.5548730">
        <ele>937.0</ele>
        <time>2020-09-29T10:15:55Z</time>
      </trkpt>
      <trkpt lat="40.8809230" lon="-3.5548730">
        <ele>937.0</ele>
        <time>2020-09-29T10:15:56Z</time>
      </trkpt>
      <trkpt lat="40.8810980" lon="-3.5548730">
        <ele>937.0</ele>
        <time>2020-09-29T10:15:57Z</time>
      </trkpt>
      <trkpt lat="40.8810980" lon="-3.5548730">
        <ele>937.0</ele>
        <time>2020-09-29T10:15:58Z</time>
      </trkpt>
      <trkpt lat="40.8812730" lon="-3.5548770">
        <ele>937.0</ele>
        <time>2020-09-29T10:15:59Z</time>
      </trkpt>
      <trkpt lat="40.8813600" lon="-3.5548780">
        <ele>937.0</ele>
        <time>2020-09-29T10:16:00Z</time>
      </trkpt>
      <trkpt lat="40.8813600" lon="-3.5548780">
        <ele>936.0</ele>
        <time>2020-09-29T10:16:01Z</time>
      </trkpt>
      <trkpt lat="40.8815300" lon="-3.5548850">
        <ele>936.0</ele>
        <time>2020-09-29T10:16:02Z</time>
      </trkpt>
      <trkpt lat="40.8815300" lon="-3.5548850">
        <ele>936.0</ele>
        <time>2020-09-29T10:16:03Z</time>
      </trkpt>
      <trkpt lat="40.8816970" lon="-3.5548950">
        <ele>936.0</ele>
        <time>2020-09-29T10:16:04Z</time>
      </trkpt>
      <trkpt lat="40.8817780" lon="-3.5549000">
        <ele>936.0</ele>
        <time>2020-09-29T10:16:05Z</time>
      </trkpt>
      <trkpt lat="40.8817780" lon="-3.5549000">
        <ele>936.0</ele>
        <time>2020-09-29T10:16:06Z</time>
      </trkpt>
      <trkpt lat="40.8819420" lon="-3.5549130">
        <ele>935.0</ele>
        <time>2020-09-29T10:16:07Z</time>
      </trkpt>
      <trkpt lat="40.8819420" lon="-3.5549130">
        <ele>935.0</ele>
        <time>2020-09-29T10:16:08Z</time>
      </trkpt>
      <trkpt lat="40.8821030" lon="-3.5549450">
        <ele>935.0</ele>
        <time>2020-09-29T10:16:09Z</time>
      </trkpt>
      <trkpt lat="40.8821030" lon="-3.5549450">
        <ele>935.0</ele>
        <time>2020-09-29T10:16:10Z</time>
      </trkpt>
      <trkpt lat="40.8822580" lon="-3.5550050">
        <ele>935.0</ele>
        <time>2020-09-29T10:16:11Z</time>
      </trkpt>
      <trkpt lat="40.8822580" lon="-3.5550050">
        <ele>935.0</ele>
        <time>2020-09-29T10:16:12Z</time>
      </trkpt>
      <trkpt lat="40.8824070" lon="-3.5550870">
        <ele>935.0</ele>
        <time>2020-09-29T10:16:13Z</time>
      </trkpt>
      <trkpt lat="40.8824070" lon="-3.5550870">
        <ele>934.0</ele>
        <time>2020-09-29T10:16:14Z</time>
      </trkpt>
      <trkpt lat="40.8825500" lon="-3.5551850">
        <ele>934.0</ele>
        <time>2020-09-29T10:16:15Z</time>
      </trkpt>
      <trkpt lat="40.8826220" lon="-3.5552370">
        <ele>934.0</ele>
        <time>2020-09-29T10:16:16Z</time>
      </trkpt>
      <trkpt lat="40.8826220" lon="-3.5552370">
        <ele>934.0</ele>
        <time>2020-09-29T10:16:17Z</time>
      </trkpt>
      <trkpt lat="40.8827630" lon="-3.5553500">
        <ele>934.0</ele>
        <time>2020-09-29T10:16:18Z</time>
      </trkpt>
      <trkpt lat="40.8828300" lon="-3.5554030">
        <ele>934.0</ele>
        <time>2020-09-29T10:16:19Z</time>
      </trkpt>
      <trkpt lat="40.8828300" lon="-3.5554030">
        <ele>933.0</ele>
        <time>2020-09-29T10:16:20Z</time>
      </trkpt>
      <trkpt lat="40.8829680" lon="-3.5555200">
        <ele>933.0</ele>
        <time>2020-09-29T10:16:21Z</time>
      </trkpt>
      <trkpt lat="40.8829680" lon="-3.5555200">
        <ele>933.0</ele>
        <time>2020-09-29T10:16:22Z</time>
      </trkpt>
      <trkpt lat="40.8831150" lon="-3.5556230">
        <ele>933.0</ele>
        <time>2020-09-29T10:16:23Z</time>
      </trkpt>
      <trkpt lat="40.8831150" lon="-3.5556230">
        <ele>933.0</ele>
        <time>2020-09-29T10:16:24Z</time>
      </trkpt>
      <trkpt lat="40.8832750" lon="-3.5557020">
        <ele>933.0</ele>
        <time>2020-09-29T10:16:25Z</time>
      </trkpt>
      <trkpt lat="40.8832750" lon="-3.5557020">
        <ele>932.0</ele>
        <time>2020-09-29T10:16:26Z</time>
      </trkpt>
      <trkpt lat="40.8834430" lon="-3.5557700">
        <ele>932.0</ele>
        <time>2020-09-29T10:16:27Z</time>
      </trkpt>
      <trkpt lat="40.8834430" lon="-3.5557700">
        <ele>932.0</ele>
        <time>2020-09-29T10:16:28Z</time>
      </trkpt>
      <trkpt lat="40.8836180" lon="-3.5558320">
        <ele>932.0</ele>
        <time>2020-09-29T10:16:29Z</time>
      </trkpt>
      <trkpt lat="40.8836180" lon="-3.5558320">
        <ele>930.0</ele>
        <time>2020-09-29T10:16:30Z</time>
      </trkpt>
      <trkpt lat="40.8836180" lon="-3.5558320">
        <ele>930.0</ele>
        <time>2020-09-29T10:16:31Z</time>
      </trkpt>
      <trkpt lat="40.8838000" lon="-3.5558870">
        <ele>929.0</ele>
        <time>2020-09-29T10:16:32Z</time>
      </trkpt>
      <trkpt lat="40.8839880" lon="-3.5559450">
        <ele>929.0</ele>
        <time>2020-09-29T10:16:33Z</time>
      </trkpt>
      <trkpt lat="40.8840830" lon="-3.5559780">
        <ele>928.0</ele>
        <time>2020-09-29T10:16:34Z</time>
      </trkpt>
      <trkpt lat="40.8840830" lon="-3.5559780">
        <ele>928.0</ele>
        <time>2020-09-29T10:16:35Z</time>
      </trkpt>
      <trkpt lat="40.8842780" lon="-3.5560420">
        <ele>928.0</ele>
        <time>2020-09-29T10:16:36Z</time>
      </trkpt>
      <trkpt lat="40.8843770" lon="-3.5560750">
        <ele>927.0</ele>
        <time>2020-09-29T10:16:37Z</time>
      </trkpt>
      <trkpt lat="40.8844780" lon="-3.5561100">
        <ele>927.0</ele>
        <time>2020-09-29T10:16:38Z</time>
      </trkpt>
      <trkpt lat="40.8844780" lon="-3.5561100">
        <ele>925.0</ele>
        <time>2020-09-29T10:16:39Z</time>
      </trkpt>
      <trkpt lat="40.8846800" lon="-3.5561950">
        <ele>925.0</ele>
        <time>2020-09-29T10:16:40Z</time>
      </trkpt>
      <trkpt lat="40.8847780" lon="-3.5562450">
        <ele>924.0</ele>
        <time>2020-09-29T10:16:41Z</time>
      </trkpt>
      <trkpt lat="40.8847780" lon="-3.5562450">
        <ele>924.0</ele>
        <time>2020-09-29T10:16:42Z</time>
      </trkpt>
      <trkpt lat="40.8849670" lon="-3.5563700">
        <ele>923.0</ele>
        <time>2020-09-29T10:16:43Z</time>
      </trkpt>
      <trkpt lat="40.8849670" lon="-3.5563700">
        <ele>923.0</ele>
        <time>2020-09-29T10:16:44Z</time>
      </trkpt>
      <trkpt lat="40.8851370" lon="-3.5565330">
        <ele>922.0</ele>
        <time>2020-09-29T10:16:45Z</time>
      </trkpt>
      <trkpt lat="40.8852200" lon="-3.5566220">
        <ele>922.0</ele>
        <time>2020-09-29T10:16:46Z</time>
      </trkpt>
      <trkpt lat="40.8852200" lon="-3.5566220">
        <ele>921.0</ele>
        <time>2020-09-29T10:16:47Z</time>
      </trkpt>
      <trkpt lat="40.8853770" lon="-3.5568050">
        <ele>921.0</ele>
        <time>2020-09-29T10:16:48Z</time>
      </trkpt>
      <trkpt lat="40.8853770" lon="-3.5568050">
        <ele>920.0</ele>
        <time>2020-09-29T10:16:49Z</time>
      </trkpt>
      <trkpt lat="40.8855220" lon="-3.5569970">
        <ele>920.0</ele>
        <time>2020-09-29T10:16:50Z</time>
      </trkpt>
      <trkpt lat="40.8855220" lon="-3.5569970">
        <ele>920.0</ele>
        <time>2020-09-29T10:16:51Z</time>
      </trkpt>
      <trkpt lat="40.8856500" lon="-3.5572070">
        <ele>919.0</ele>
        <time>2020-09-29T10:16:52Z</time>
      </trkpt>
      <trkpt lat="40.8857180" lon="-3.5573070">
        <ele>919.0</ele>
        <time>2020-09-29T10:16:53Z</time>
      </trkpt>
      <trkpt lat="40.8857180" lon="-3.5573070">
        <ele>918.0</ele>
        <time>2020-09-29T10:16:54Z</time>
      </trkpt>
      <trkpt lat="40.8858520" lon="-3.5574980">
        <ele>918.0</ele>
        <time>2020-09-29T10:16:55Z</time>
      </trkpt>
      <trkpt lat="40.8858520" lon="-3.5574980">
        <ele>918.0</ele>
        <time>2020-09-29T10:16:56Z</time>
      </trkpt>
      <trkpt lat="40.8859870" lon="-3.5576770">
        <ele>918.0</ele>
        <time>2020-09-29T10:16:57Z</time>
      </trkpt>
      <trkpt lat="40.8860500" lon="-3.5577700">
        <ele>917.0</ele>
        <time>2020-09-29T10:16:58Z</time>
      </trkpt>
      <trkpt lat="40.8860500" lon="-3.5577700">
        <ele>917.0</ele>
        <time>2020-09-29T10:16:59Z</time>
      </trkpt>
      <trkpt lat="40.8861720" lon="-3.5579520">
        <ele>917.0</ele>
        <time>2020-09-29T10:17:00Z</time>
      </trkpt>
      <trkpt lat="40.8862300" lon="-3.5580420">
        <ele>917.0</ele>
        <time>2020-09-29T10:17:01Z</time>
      </trkpt>
      <trkpt lat="40.8862300" lon="-3.5580420">
        <ele>916.0</ele>
        <time>2020-09-29T10:17:02Z</time>
      </trkpt>
      <trkpt lat="40.8863470" lon="-3.5582100">
        <ele>916.0</ele>
        <time>2020-09-29T10:17:03Z</time>
      </trkpt>
      <trkpt lat="40.8864030" lon="-3.5582920">
        <ele>916.0</ele>
        <time>2020-09-29T10:17:04Z</time>
      </trkpt>
      <trkpt lat="40.8864580" lon="-3.5583700">
        <ele>916.0</ele>
        <time>2020-09-29T10:17:05Z</time>
      </trkpt>
      <trkpt lat="40.8864580" lon="-3.5583700">
        <ele>916.0</ele>
        <time>2020-09-29T10:17:06Z</time>
      </trkpt>
      <trkpt lat="40.8865600" lon="-3.5585270">
        <ele>916.0</ele>
        <time>2020-09-29T10:17:07Z</time>
      </trkpt>
      <trkpt lat="40.8865600" lon="-3.5585270">
        <ele>915.0</ele>
        <time>2020-09-29T10:17:08Z</time>
      </trkpt>
      <trkpt lat="40.8866600" lon="-3.5586750">
        <ele>915.0</ele>
        <time>2020-09-29T10:17:09Z</time>
      </trkpt>
      <trkpt lat="40.8866600" lon="-3.5586750">
        <ele>915.0</ele>
        <time>2020-09-29T10:17:10Z</time>
      </trkpt>
      <trkpt lat="40.8867570" lon="-3.5588250">
        <ele>915.0</ele>
        <time>2020-09-29T10:17:11Z</time>
      </trkpt>
      <trkpt lat="40.8867570" lon="-3.5588250">
        <ele>915.0</ele>
        <time>2020-09-29T10:17:12Z</time>
      </trkpt>
      <trkpt lat="40.8868550" lon="-3.5589680">
        <ele>915.0</ele>
        <time>2020-09-29T10:17:13Z</time>
      </trkpt>
      <trkpt lat="40.8868550" lon="-3.5589680">
        <ele>915.0</ele>
        <time>2020-09-29T10:17:14Z</time>
      </trkpt>
      <trkpt lat="40.8868550" lon="-3.5589680">
        <ele>915.0</ele>
        <time>2020-09-29T10:17:15Z</time>
      </trkpt>
      <trkpt lat="40.8869380" lon="-3.5591030">
        <ele>915.0</ele>
        <time>2020-09-29T10:17:16Z</time>
      </trkpt>
      <trkpt lat="40.8870100" lon="-3.5592450">
        <ele>915.0</ele>
        <time>2020-09-29T10:17:17Z</time>
      </trkpt>
      <trkpt lat="40.8870430" lon="-3.5593170">
        <ele>915.0</ele>
        <time>2020-09-29T10:17:18Z</time>
      </trkpt>
      <trkpt lat="40.8870750" lon="-3.5593880">
        <ele>915.0</ele>
        <time>2020-09-29T10:17:19Z</time>
      </trkpt>
      <trkpt lat="40.8870750" lon="-3.5593880">
        <ele>915.0</ele>
        <time>2020-09-29T10:17:20Z</time>
      </trkpt>
      <trkpt lat="40.8871400" lon="-3.5595230">
        <ele>915.0</ele>
        <time>2020-09-29T10:17:21Z</time>
      </trkpt>
      <trkpt lat="40.8871400" lon="-3.5595230">
        <ele>915.0</ele>
        <time>2020-09-29T10:17:22Z</time>
      </trkpt>
      <trkpt lat="40.8872000" lon="-3.5596570">
        <ele>915.0</ele>
        <time>2020-09-29T10:17:23Z</time>
      </trkpt>
      <trkpt lat="40.8872000" lon="-3.5596570">
        <ele>915.0</ele>
        <time>2020-09-29T10:17:24Z</time>
      </trkpt>
      <trkpt lat="40.8872400" lon="-3.5597900">
        <ele>915.0</ele>
        <time>2020-09-29T10:17:25Z</time>
      </trkpt>
      <trkpt lat="40.8872400" lon="-3.5597900">
        <ele>915.0</ele>
        <time>2020-09-29T10:17:26Z</time>
      </trkpt>
      <trkpt lat="40.8872930" lon="-3.5598980">
        <ele>915.0</ele>
        <time>2020-09-29T10:17:27Z</time>
      </trkpt>
      <trkpt lat="40.8873220" lon="-3.5599520">
        <ele>915.0</ele>
        <time>2020-09-29T10:17:28Z</time>
      </trkpt>
      <trkpt lat="40.8873220" lon="-3.5599520">
        <ele>916.0</ele>
        <time>2020-09-29T10:17:29Z</time>
      </trkpt>
      <trkpt lat="40.8873720" lon="-3.5600720">
        <ele>916.0</ele>
        <time>2020-09-29T10:17:30Z</time>
      </trkpt>
      <trkpt lat="40.8873950" lon="-3.5601300">
        <ele>916.0</ele>
        <time>2020-09-29T10:17:31Z</time>
      </trkpt>
      <trkpt lat="40.8873950" lon="-3.5601300">
        <ele>916.0</ele>
        <time>2020-09-29T10:17:32Z</time>
      </trkpt>
      <trkpt lat="40.8874420" lon="-3.5602470">
        <ele>916.0</ele>
        <time>2020-09-29T10:17:33Z</time>
      </trkpt>
      <trkpt lat="40.8874420" lon="-3.5602470">
        <ele>916.0</ele>
        <time>2020-09-29T10:17:34Z</time>
      </trkpt>
      <trkpt lat="40.8874900" lon="-3.5603680">
        <ele>916.0</ele>
        <time>2020-09-29T10:17:35Z</time>
      </trkpt>
      <trkpt lat="40.8874900" lon="-3.5603680">
        <ele>916.0</ele>
        <time>2020-09-29T10:17:36Z</time>
      </trkpt>
      <trkpt lat="40.8875450" lon="-3.5604800">
        <ele>917.0</ele>
        <time>2020-09-29T10:17:37Z</time>
      </trkpt>
      <trkpt lat="40.8875450" lon="-3.5604800">
        <ele>917.0</ele>
        <time>2020-09-29T10:17:38Z</time>
      </trkpt>
      <trkpt lat="40.8876070" lon="-3.5605900">
        <ele>917.0</ele>
        <time>2020-09-29T10:17:39Z</time>
      </trkpt>
      <trkpt lat="40.8876380" lon="-3.5606450">
        <ele>917.0</ele>
        <time>2020-09-29T10:17:40Z</time>
      </trkpt>
      <trkpt lat="40.8876380" lon="-3.5606450">
        <ele>917.0</ele>
        <time>2020-09-29T10:17:41Z</time>
      </trkpt>
      <trkpt lat="40.8877070" lon="-3.5607450">
        <ele>917.0</ele>
        <time>2020-09-29T10:17:42Z</time>
      </trkpt>
      <trkpt lat="40.8877420" lon="-3.5607920">
        <ele>917.0</ele>
        <time>2020-09-29T10:17:43Z</time>
      </trkpt>
      <trkpt lat="40.8877420" lon="-3.5607920">
        <ele>917.0</ele>
        <time>2020-09-29T10:17:44Z</time>
      </trkpt>
      <trkpt lat="40.8878150" lon="-3.5608830">
        <ele>917.0</ele>
        <time>2020-09-29T10:17:45Z</time>
      </trkpt>
      <trkpt lat="40.8878520" lon="-3.5609280">
        <ele>917.0</ele>
        <time>2020-09-29T10:17:46Z</time>
      </trkpt>
      <trkpt lat="40.8878520" lon="-3.5609280">
        <ele>918.0</ele>
        <time>2020-09-29T10:17:47Z</time>
      </trkpt>
      <trkpt lat="40.8879250" lon="-3.5609980">
        <ele>918.0</ele>
        <time>2020-09-29T10:17:48Z</time>
      </trkpt>
      <trkpt lat="40.8879250" lon="-3.5609980">
        <ele>918.0</ele>
        <time>2020-09-29T10:17:49Z</time>
      </trkpt>
      <trkpt lat="40.8879970" lon="-3.5610670">
        <ele>918.0</ele>
        <time>2020-09-29T10:17:50Z</time>
      </trkpt>
      <trkpt lat="40.8879970" lon="-3.5610670">
        <ele>918.0</ele>
        <time>2020-09-29T10:17:51Z</time>
      </trkpt>
      <trkpt lat="40.8880650" lon="-3.5611380">
        <ele>918.0</ele>
        <time>2020-09-29T10:17:52Z</time>
      </trkpt>
      <trkpt lat="40.8880980" lon="-3.5611770">
        <ele>919.0</ele>
        <time>2020-09-29T10:17:53Z</time>
      </trkpt>
      <trkpt lat="40.8880980" lon="-3.5611770">
        <ele>919.0</ele>
        <time>2020-09-29T10:17:54Z</time>
      </trkpt>
      <trkpt lat="40.8881780" lon="-3.5612100">
        <ele>919.0</ele>
        <time>2020-09-29T10:17:55Z</time>
      </trkpt>
      <trkpt lat="40.8881780" lon="-3.5612100">
        <ele>919.0</ele>
        <time>2020-09-29T10:17:56Z</time>
      </trkpt>
      <trkpt lat="40.8882380" lon="-3.5611470">
        <ele>919.0</ele>
        <time>2020-09-29T10:17:57Z</time>
      </trkpt>
      <trkpt lat="40.8882680" lon="-3.5611020">
        <ele>919.0</ele>
        <time>2020-09-29T10:17:58Z</time>
      </trkpt>
      <trkpt lat="40.8882680" lon="-3.5611020">
        <ele>920.0</ele>
        <time>2020-09-29T10:17:59Z</time>
      </trkpt>
      <trkpt lat="40.8883350" lon="-3.5610050">
        <ele>920.0</ele>
        <time>2020-09-29T10:18:00Z</time>
      </trkpt>
      <trkpt lat="40.8883350" lon="-3.5610050">
        <ele>920.0</ele>
        <time>2020-09-29T10:18:01Z</time>
      </trkpt>
      <trkpt lat="40.8884150" lon="-3.5609080">
        <ele>920.0</ele>
        <time>2020-09-29T10:18:02Z</time>
      </trkpt>
      <trkpt lat="40.8884570" lon="-3.5608580">
        <ele>920.0</ele>
        <time>2020-09-29T10:18:03Z</time>
      </trkpt>
      <trkpt lat="40.8884970" lon="-3.5608050">
        <ele>920.0</ele>
        <time>2020-09-29T10:18:04Z</time>
      </trkpt>
      <trkpt lat="40.8885380" lon="-3.5607480">
        <ele>920.0</ele>
        <time>2020-09-29T10:18:05Z</time>
      </trkpt>
      <trkpt lat="40.8885380" lon="-3.5607480">
        <ele>920.0</ele>
        <time>2020-09-29T10:18:06Z</time>
      </trkpt>
      <trkpt lat="40.8886020" lon="-3.5606120">
        <ele>920.0</ele>
        <time>2020-09-29T10:18:07Z</time>
      </trkpt>
      <trkpt lat="40.8886380" lon="-3.5605430">
        <ele>920.0</ele>
        <time>2020-09-29T10:18:08Z</time>
      </trkpt>
      <trkpt lat="40.8886380" lon="-3.5605430">
        <ele>920.0</ele>
        <time>2020-09-29T10:18:09Z</time>
      </trkpt>
      <trkpt lat="40.8886900" lon="-3.5603950">
        <ele>920.0</ele>
        <time>2020-09-29T10:18:10Z</time>
      </trkpt>
      <trkpt lat="40.8886900" lon="-3.5603950">
        <ele>920.0</ele>
        <time>2020-09-29T10:18:11Z</time>
      </trkpt>
      <trkpt lat="40.8887450" lon="-3.5602580">
        <ele>920.0</ele>
        <time>2020-09-29T10:18:12Z</time>
      </trkpt>
      <trkpt lat="40.8887800" lon="-3.5601950">
        <ele>920.0</ele>
        <time>2020-09-29T10:18:13Z</time>
      </trkpt>
      <trkpt lat="40.8887800" lon="-3.5601950">
        <ele>920.0</ele>
        <time>2020-09-29T10:18:14Z</time>
      </trkpt>
      <trkpt lat="40.8888670" lon="-3.5600900">
        <ele>920.0</ele>
        <time>2020-09-29T10:18:15Z</time>
      </trkpt>
      <trkpt lat="40.8888670" lon="-3.5600900">
        <ele>920.0</ele>
        <time>2020-09-29T10:18:16Z</time>
      </trkpt>
      <trkpt lat="40.8889680" lon="-3.5600180">
        <ele>920.0</ele>
        <time>2020-09-29T10:18:17Z</time>
      </trkpt>
      <trkpt lat="40.8890180" lon="-3.5599880">
        <ele>920.0</ele>
        <time>2020-09-29T10:18:18Z</time>
      </trkpt>
      <trkpt lat="40.8890720" lon="-3.5599580">
        <ele>920.0</ele>
        <time>2020-09-29T10:18:19Z</time>
      </trkpt>
      <trkpt lat="40.8890720" lon="-3.5599580">
        <ele>920.0</ele>
        <time>2020-09-29T10:18:20Z</time>
      </trkpt>
      <trkpt lat="40.8891800" lon="-3.5598970">
        <ele>920.0</ele>
        <time>2020-09-29T10:18:21Z</time>
      </trkpt>
      <trkpt lat="40.8891800" lon="-3.5598970">
        <ele>920.0</ele>
        <time>2020-09-29T10:18:22Z</time>
      </trkpt>
      <trkpt lat="40.8892900" lon="-3.5598370">
        <ele>920.0</ele>
        <time>2020-09-29T10:18:23Z</time>
      </trkpt>
      <trkpt lat="40.8892900" lon="-3.5598370">
        <ele>920.0</ele>
        <time>2020-09-29T10:18:24Z</time>
      </trkpt>
      <trkpt lat="40.8893950" lon="-3.5597720">
        <ele>920.0</ele>
        <time>2020-09-29T10:18:25Z</time>
      </trkpt>
      <trkpt lat="40.8893950" lon="-3.5597720">
        <ele>920.0</ele>
        <time>2020-09-29T10:18:26Z</time>
      </trkpt>
      <trkpt lat="40.8895000" lon="-3.5597050">
        <ele>920.0</ele>
        <time>2020-09-29T10:18:27Z</time>
      </trkpt>
      <trkpt lat="40.8895000" lon="-3.5597050">
        <ele>920.0</ele>
        <time>2020-09-29T10:18:28Z</time>
      </trkpt>
      <trkpt lat="40.8895970" lon="-3.5596330">
        <ele>920.0</ele>
        <time>2020-09-29T10:18:29Z</time>
      </trkpt>
      <trkpt lat="40.8896450" lon="-3.5595950">
        <ele>920.0</ele>
        <time>2020-09-29T10:18:30Z</time>
      </trkpt>
      <trkpt lat="40.8896880" lon="-3.5595570">
        <ele>920.0</ele>
        <time>2020-09-29T10:18:31Z</time>
      </trkpt>
      <trkpt lat="40.8896880" lon="-3.5595570">
        <ele>920.0</ele>
        <time>2020-09-29T10:18:32Z</time>
      </trkpt>
      <trkpt lat="40.8897720" lon="-3.5594800">
        <ele>921.0</ele>
        <time>2020-09-29T10:18:33Z</time>
      </trkpt>
      <trkpt lat="40.8897720" lon="-3.5594800">
        <ele>921.0</ele>
        <time>2020-09-29T10:18:34Z</time>
      </trkpt>
      <trkpt lat="40.8898450" lon="-3.5594050">
        <ele>921.0</ele>
        <time>2020-09-29T10:18:35Z</time>
      </trkpt>
      <trkpt lat="40.8898450" lon="-3.5594050">
        <ele>921.0</ele>
        <time>2020-09-29T10:18:36Z</time>
      </trkpt>
      <trkpt lat="40.8899130" lon="-3.5593330">
        <ele>922.0</ele>
        <time>2020-09-29T10:18:37Z</time>
      </trkpt>
      <trkpt lat="40.8899130" lon="-3.5593330">
        <ele>922.0</ele>
        <time>2020-09-29T10:18:38Z</time>
      </trkpt>
      <trkpt lat="40.8899870" lon="-3.5592630">
        <ele>922.0</ele>
        <time>2020-09-29T10:18:39Z</time>
      </trkpt>
      <trkpt lat="40.8900200" lon="-3.5592270">
        <ele>922.0</ele>
        <time>2020-09-29T10:18:40Z</time>
      </trkpt>
      <trkpt lat="40.8900520" lon="-3.5591770">
        <ele>923.0</ele>
        <time>2020-09-29T10:18:41Z</time>
      </trkpt>
      <trkpt lat="40.8900520" lon="-3.5591770">
        <ele>923.0</ele>
        <time>2020-09-29T10:18:42Z</time>
      </trkpt>
      <trkpt lat="40.8901070" lon="-3.5590530">
        <ele>923.0</ele>
        <time>2020-09-29T10:18:43Z</time>
      </trkpt>
      <trkpt lat="40.8901300" lon="-3.5589830">
        <ele>923.0</ele>
        <time>2020-09-29T10:18:44Z</time>
      </trkpt>
      <trkpt lat="40.8901300" lon="-3.5589830">
        <ele>923.0</ele>
        <time>2020-09-29T10:18:45Z</time>
      </trkpt>
      <trkpt lat="40.8901650" lon="-3.5588400">
        <ele>923.0</ele>
        <time>2020-09-29T10:18:46Z</time>
      </trkpt>
      <trkpt lat="40.8901650" lon="-3.5588400">
        <ele>923.0</ele>
        <time>2020-09-29T10:18:47Z</time>
      </trkpt>
      <trkpt lat="40.8902030" lon="-3.5587000">
        <ele>923.0</ele>
        <time>2020-09-29T10:18:48Z</time>
      </trkpt>
      <trkpt lat="40.8902250" lon="-3.5586350">
        <ele>923.0</ele>
        <time>2020-09-29T10:18:49Z</time>
      </trkpt>
      <trkpt lat="40.8902250" lon="-3.5586350">
        <ele>923.0</ele>
        <time>2020-09-29T10:18:50Z</time>
      </trkpt>
      <trkpt lat="40.8902680" lon="-3.5585070">
        <ele>923.0</ele>
        <time>2020-09-29T10:18:51Z</time>
      </trkpt>
      <trkpt lat="40.8903000" lon="-3.5584470">
        <ele>923.0</ele>
        <time>2020-09-29T10:18:52Z</time>
      </trkpt>
      <trkpt lat="40.8903000" lon="-3.5584470">
        <ele>923.0</ele>
        <time>2020-09-29T10:18:53Z</time>
      </trkpt>
      <trkpt lat="40.8903770" lon="-3.5583470">
        <ele>923.0</ele>
        <time>2020-09-29T10:18:54Z</time>
      </trkpt>
      <trkpt lat="40.8904200" lon="-3.5583100">
        <ele>923.0</ele>
        <time>2020-09-29T10:18:55Z</time>
      </trkpt>
      <trkpt lat="40.8904200" lon="-3.5583100">
        <ele>923.0</ele>
        <time>2020-09-29T10:18:56Z</time>
      </trkpt>
      <trkpt lat="40.8905220" lon="-3.5582470">
        <ele>923.0</ele>
        <time>2020-09-29T10:18:57Z</time>
      </trkpt>
      <trkpt lat="40.8905220" lon="-3.5582470">
        <ele>923.0</ele>
        <time>2020-09-29T10:18:58Z</time>
      </trkpt>
      <trkpt lat="40.8906350" lon="-3.5582080">
        <ele>923.0</ele>
        <time>2020-09-29T10:18:59Z</time>
      </trkpt>
      <trkpt lat="40.8906950" lon="-3.5581970">
        <ele>923.0</ele>
        <time>2020-09-29T10:19:00Z</time>
      </trkpt>
      <trkpt lat="40.8906950" lon="-3.5581970">
        <ele>923.0</ele>
        <time>2020-09-29T10:19:01Z</time>
      </trkpt>
      <trkpt lat="40.8908330" lon="-3.5581900">
        <ele>923.0</ele>
        <time>2020-09-29T10:19:02Z</time>
      </trkpt>
      <trkpt lat="40.8909070" lon="-3.5581920">
        <ele>923.0</ele>
        <time>2020-09-29T10:19:03Z</time>
      </trkpt>
      <trkpt lat="40.8909870" lon="-3.5581950">
        <ele>923.0</ele>
        <time>2020-09-29T10:19:04Z</time>
      </trkpt>
      <trkpt lat="40.8909870" lon="-3.5581950">
        <ele>923.0</ele>
        <time>2020-09-29T10:19:05Z</time>
      </trkpt>
      <trkpt lat="40.8911600" lon="-3.5582180">
        <ele>922.0</ele>
        <time>2020-09-29T10:19:06Z</time>
      </trkpt>
      <trkpt lat="40.8911600" lon="-3.5582180">
        <ele>922.0</ele>
        <time>2020-09-29T10:19:07Z</time>
      </trkpt>
      <trkpt lat="40.8911600" lon="-3.5582180">
        <ele>921.0</ele>
        <time>2020-09-29T10:19:08Z</time>
      </trkpt>
      <trkpt lat="40.8913530" lon="-3.5582400">
        <ele>921.0</ele>
        <time>2020-09-29T10:19:09Z</time>
      </trkpt>
      <trkpt lat="40.8915600" lon="-3.5582630">
        <ele>920.0</ele>
        <time>2020-09-29T10:19:10Z</time>
      </trkpt>
      <trkpt lat="40.8915600" lon="-3.5582630">
        <ele>920.0</ele>
        <time>2020-09-29T10:19:11Z</time>
      </trkpt>
      <trkpt lat="40.8917800" lon="-3.5582820">
        <ele>918.0</ele>
        <time>2020-09-29T10:19:12Z</time>
      </trkpt>
      <trkpt lat="40.8918920" lon="-3.5582930">
        <ele>918.0</ele>
        <time>2020-09-29T10:19:13Z</time>
      </trkpt>
      <trkpt lat="40.8918920" lon="-3.5582930">
        <ele>917.0</ele>
        <time>2020-09-29T10:19:14Z</time>
      </trkpt>
      <trkpt lat="40.8921170" lon="-3.5582620">
        <ele>917.0</ele>
        <time>2020-09-29T10:19:15Z</time>
      </trkpt>
      <trkpt lat="40.8921170" lon="-3.5582620">
        <ele>915.0</ele>
        <time>2020-09-29T10:19:16Z</time>
      </trkpt>
      <trkpt lat="40.8923130" lon="-3.5581280">
        <ele>915.0</ele>
        <time>2020-09-29T10:19:17Z</time>
      </trkpt>
      <trkpt lat="40.8923130" lon="-3.5581280">
        <ele>914.0</ele>
        <time>2020-09-29T10:19:18Z</time>
      </trkpt>
      <trkpt lat="40.8924970" lon="-3.5579500">
        <ele>913.0</ele>
        <time>2020-09-29T10:19:19Z</time>
      </trkpt>
      <trkpt lat="40.8924970" lon="-3.5579500">
        <ele>913.0</ele>
        <time>2020-09-29T10:19:20Z</time>
      </trkpt>
      <trkpt lat="40.8926820" lon="-3.5577600">
        <ele>911.0</ele>
        <time>2020-09-29T10:19:21Z</time>
      </trkpt>
      <trkpt lat="40.8926820" lon="-3.5577600">
        <ele>911.0</ele>
        <time>2020-09-29T10:19:22Z</time>
      </trkpt>
      <trkpt lat="40.8928670" lon="-3.5575680">
        <ele>910.0</ele>
        <time>2020-09-29T10:19:23Z</time>
      </trkpt>
      <trkpt lat="40.8928670" lon="-3.5575680">
        <ele>910.0</ele>
        <time>2020-09-29T10:19:24Z</time>
      </trkpt>
      <trkpt lat="40.8930500" lon="-3.5573800">
        <ele>909.0</ele>
        <time>2020-09-29T10:19:25Z</time>
      </trkpt>
      <trkpt lat="40.8930500" lon="-3.5573800">
        <ele>909.0</ele>
        <time>2020-09-29T10:19:26Z</time>
      </trkpt>
      <trkpt lat="40.8932270" lon="-3.5571970">
        <ele>908.0</ele>
        <time>2020-09-29T10:19:27Z</time>
      </trkpt>
      <trkpt lat="40.8932270" lon="-3.5571970">
        <ele>908.0</ele>
        <time>2020-09-29T10:19:28Z</time>
      </trkpt>
      <trkpt lat="40.8933930" lon="-3.5570150">
        <ele>906.0</ele>
        <time>2020-09-29T10:19:29Z</time>
      </trkpt>
      <trkpt lat="40.8933930" lon="-3.5570150">
        <ele>906.0</ele>
        <time>2020-09-29T10:19:30Z</time>
      </trkpt>
      <trkpt lat="40.8935570" lon="-3.5568420">
        <ele>906.0</ele>
        <time>2020-09-29T10:19:31Z</time>
      </trkpt>
      <trkpt lat="40.8935570" lon="-3.5568420">
        <ele>906.0</ele>
        <time>2020-09-29T10:19:32Z</time>
      </trkpt>
      <trkpt lat="40.8937220" lon="-3.5566670">
        <ele>905.0</ele>
        <time>2020-09-29T10:19:33Z</time>
      </trkpt>
      <trkpt lat="40.8937220" lon="-3.5566670">
        <ele>905.0</ele>
        <time>2020-09-29T10:19:34Z</time>
      </trkpt>
      <trkpt lat="40.8939020" lon="-3.5565000">
        <ele>904.0</ele>
        <time>2020-09-29T10:19:35Z</time>
      </trkpt>
      <trkpt lat="40.8939020" lon="-3.5565000">
        <ele>904.0</ele>
        <time>2020-09-29T10:19:36Z</time>
      </trkpt>
      <trkpt lat="40.8940930" lon="-3.5563480">
        <ele>903.0</ele>
        <time>2020-09-29T10:19:37Z</time>
      </trkpt>
      <trkpt lat="40.8940930" lon="-3.5563480">
        <ele>903.0</ele>
        <time>2020-09-29T10:19:38Z</time>
      </trkpt>
      <trkpt lat="40.8942850" lon="-3.5562200">
        <ele>901.0</ele>
        <time>2020-09-29T10:19:39Z</time>
      </trkpt>
      <trkpt lat="40.8942850" lon="-3.5562200">
        <ele>901.0</ele>
        <time>2020-09-29T10:19:40Z</time>
      </trkpt>
      <trkpt lat="40.8944700" lon="-3.5561000">
        <ele>901.0</ele>
        <time>2020-09-29T10:19:41Z</time>
      </trkpt>
      <trkpt lat="40.8944700" lon="-3.5561000">
        <ele>901.0</ele>
        <time>2020-09-29T10:19:42Z</time>
      </trkpt>
      <trkpt lat="40.8946500" lon="-3.5559820">
        <ele>901.0</ele>
        <time>2020-09-29T10:19:43Z</time>
      </trkpt>
      <trkpt lat="40.8946500" lon="-3.5559820">
        <ele>901.0</ele>
        <time>2020-09-29T10:19:44Z</time>
      </trkpt>
      <trkpt lat="40.8948280" lon="-3.5558670">
        <ele>901.0</ele>
        <time>2020-09-29T10:19:45Z</time>
      </trkpt>
      <trkpt lat="40.8948280" lon="-3.5558670">
        <ele>901.0</ele>
        <time>2020-09-29T10:19:46Z</time>
      </trkpt>
      <trkpt lat="40.8950000" lon="-3.5557570">
        <ele>900.0</ele>
        <time>2020-09-29T10:19:47Z</time>
      </trkpt>
      <trkpt lat="40.8950000" lon="-3.5557570">
        <ele>900.0</ele>
        <time>2020-09-29T10:19:48Z</time>
      </trkpt>
      <trkpt lat="40.8951720" lon="-3.5556450">
        <ele>900.0</ele>
        <time>2020-09-29T10:19:49Z</time>
      </trkpt>
      <trkpt lat="40.8951720" lon="-3.5556450">
        <ele>900.0</ele>
        <time>2020-09-29T10:19:50Z</time>
      </trkpt>
      <trkpt lat="40.8953430" lon="-3.5555350">
        <ele>899.0</ele>
        <time>2020-09-29T10:19:51Z</time>
      </trkpt>
      <trkpt lat="40.8954270" lon="-3.5554820">
        <ele>899.0</ele>
        <time>2020-09-29T10:19:52Z</time>
      </trkpt>
      <trkpt lat="40.8954270" lon="-3.5554820">
        <ele>899.0</ele>
        <time>2020-09-29T10:19:53Z</time>
      </trkpt>
      <trkpt lat="40.8955920" lon="-3.5553720">
        <ele>899.0</ele>
        <time>2020-09-29T10:19:54Z</time>
      </trkpt>
      <trkpt lat="40.8956720" lon="-3.5553180">
        <ele>899.0</ele>
        <time>2020-09-29T10:19:55Z</time>
      </trkpt>
      <trkpt lat="40.8956720" lon="-3.5553180">
        <ele>899.0</ele>
        <time>2020-09-29T10:19:56Z</time>
      </trkpt>
      <trkpt lat="40.8958230" lon="-3.5551980">
        <ele>899.0</ele>
        <time>2020-09-29T10:19:57Z</time>
      </trkpt>
      <trkpt lat="40.8958230" lon="-3.5551980">
        <ele>899.0</ele>
        <time>2020-09-29T10:19:58Z</time>
      </trkpt>
      <trkpt lat="40.8959600" lon="-3.5550570">
        <ele>898.0</ele>
        <time>2020-09-29T10:19:59Z</time>
      </trkpt>
      <trkpt lat="40.8960250" lon="-3.5549770">
        <ele>898.0</ele>
        <time>2020-09-29T10:20:00Z</time>
      </trkpt>
      <trkpt lat="40.8960820" lon="-3.5548920">
        <ele>898.0</ele>
        <time>2020-09-29T10:20:01Z</time>
      </trkpt>
      <trkpt lat="40.8960820" lon="-3.5548920">
        <ele>898.0</ele>
        <time>2020-09-29T10:20:02Z</time>
      </trkpt>
      <trkpt lat="40.8961750" lon="-3.5547030">
        <ele>898.0</ele>
        <time>2020-09-29T10:20:03Z</time>
      </trkpt>
      <trkpt lat="40.8962120" lon="-3.5546030">
        <ele>898.0</ele>
        <time>2020-09-29T10:20:04Z</time>
      </trkpt>
      <trkpt lat="40.8962120" lon="-3.5546030">
        <ele>898.0</ele>
        <time>2020-09-29T10:20:05Z</time>
      </trkpt>
      <trkpt lat="40.8962780" lon="-3.5544050">
        <ele>898.0</ele>
        <time>2020-09-29T10:20:06Z</time>
      </trkpt>
      <trkpt lat="40.8962780" lon="-3.5544050">
        <ele>898.0</ele>
        <time>2020-09-29T10:20:07Z</time>
      </trkpt>
      <trkpt lat="40.8962780" lon="-3.5544050">
        <ele>898.0</ele>
        <time>2020-09-29T10:20:08Z</time>
      </trkpt>
      <trkpt lat="40.8963400" lon="-3.5542150">
        <ele>898.0</ele>
        <time>2020-09-29T10:20:09Z</time>
      </trkpt>
      <trkpt lat="40.8963970" lon="-3.5540350">
        <ele>898.0</ele>
        <time>2020-09-29T10:20:10Z</time>
      </trkpt>
      <trkpt lat="40.8964230" lon="-3.5539500">
        <ele>898.0</ele>
        <time>2020-09-29T10:20:11Z</time>
      </trkpt>
      <trkpt lat="40.8964230" lon="-3.5539500">
        <ele>898.0</ele>
        <time>2020-09-29T10:20:12Z</time>
      </trkpt>
      <trkpt lat="40.8964770" lon="-3.5537830">
        <ele>898.0</ele>
        <time>2020-09-29T10:20:13Z</time>
      </trkpt>
      <trkpt lat="40.8964770" lon="-3.5537830">
        <ele>898.0</ele>
        <time>2020-09-29T10:20:14Z</time>
      </trkpt>
      <trkpt lat="40.8965270" lon="-3.5536230">
        <ele>898.0</ele>
        <time>2020-09-29T10:20:15Z</time>
      </trkpt>
      <trkpt lat="40.8965550" lon="-3.5535500">
        <ele>898.0</ele>
        <time>2020-09-29T10:20:16Z</time>
      </trkpt>
      <trkpt lat="40.8965550" lon="-3.5535500">
        <ele>898.0</ele>
        <time>2020-09-29T10:20:17Z</time>
      </trkpt>
      <trkpt lat="40.8966220" lon="-3.5534180">
        <ele>898.0</ele>
        <time>2020-09-29T10:20:18Z</time>
      </trkpt>
      <trkpt lat="40.8966550" lon="-3.5533530">
        <ele>898.0</ele>
        <time>2020-09-29T10:20:19Z</time>
      </trkpt>
      <trkpt lat="40.8966950" lon="-3.5532920">
        <ele>898.0</ele>
        <time>2020-09-29T10:20:20Z</time>
      </trkpt>
      <trkpt lat="40.8966950" lon="-3.5532920">
        <ele>898.0</ele>
        <time>2020-09-29T10:20:21Z</time>
      </trkpt>
      <trkpt lat="40.8966950" lon="-3.5532920">
        <ele>898.0</ele>
        <time>2020-09-29T10:20:22Z</time>
      </trkpt>
      <trkpt lat="40.8968300" lon="-3.5531400">
        <ele>899.0</ele>
        <time>2020-09-29T10:20:23Z</time>
      </trkpt>
      <trkpt lat="40.8968300" lon="-3.5531400">
        <ele>899.0</ele>
        <time>2020-09-29T10:20:24Z</time>
      </trkpt>
      <trkpt lat="40.8969220" lon="-3.5530450">
        <ele>899.0</ele>
        <time>2020-09-29T10:20:25Z</time>
      </trkpt>
      <trkpt lat="40.8969220" lon="-3.5530450">
        <ele>899.0</ele>
        <time>2020-09-29T10:20:26Z</time>
      </trkpt>
      <trkpt lat="40.8970180" lon="-3.5529720">
        <ele>899.0</ele>
        <time>2020-09-29T10:20:27Z</time>
      </trkpt>
      <trkpt lat="40.8970180" lon="-3.5529720">
        <ele>899.0</ele>
        <time>2020-09-29T10:20:28Z</time>
      </trkpt>
      <trkpt lat="40.8971200" lon="-3.5529150">
        <ele>900.0</ele>
        <time>2020-09-29T10:20:29Z</time>
      </trkpt>
      <trkpt lat="40.8971200" lon="-3.5529150">
        <ele>900.0</ele>
        <time>2020-09-29T10:20:30Z</time>
      </trkpt>
      <trkpt lat="40.8972220" lon="-3.5528620">
        <ele>900.0</ele>
        <time>2020-09-29T10:20:31Z</time>
      </trkpt>
      <trkpt lat="40.8972220" lon="-3.5528620">
        <ele>900.0</ele>
        <time>2020-09-29T10:20:32Z</time>
      </trkpt>
      <trkpt lat="40.8973230" lon="-3.5528180">
        <ele>900.0</ele>
        <time>2020-09-29T10:20:33Z</time>
      </trkpt>
      <trkpt lat="40.8973230" lon="-3.5528180">
        <ele>900.0</ele>
        <time>2020-09-29T10:20:34Z</time>
      </trkpt>
      <trkpt lat="40.8974330" lon="-3.5528050">
        <ele>901.0</ele>
        <time>2020-09-29T10:20:35Z</time>
      </trkpt>
      <trkpt lat="40.8974880" lon="-3.5528080">
        <ele>901.0</ele>
        <time>2020-09-29T10:20:36Z</time>
      </trkpt>
      <trkpt lat="40.8974880" lon="-3.5528080">
        <ele>901.0</ele>
        <time>2020-09-29T10:20:37Z</time>
      </trkpt>
      <trkpt lat="40.8976000" lon="-3.5528200">
        <ele>901.0</ele>
        <time>2020-09-29T10:20:38Z</time>
      </trkpt>
      <trkpt lat="40.8976000" lon="-3.5528200">
        <ele>902.0</ele>
        <time>2020-09-29T10:20:39Z</time>
      </trkpt>
      <trkpt lat="40.8977070" lon="-3.5528380">
        <ele>902.0</ele>
        <time>2020-09-29T10:20:40Z</time>
      </trkpt>
      <trkpt lat="40.8977670" lon="-3.5528530">
        <ele>902.0</ele>
        <time>2020-09-29T10:20:41Z</time>
      </trkpt>
      <trkpt lat="40.8977670" lon="-3.5528530">
        <ele>902.0</ele>
        <time>2020-09-29T10:20:42Z</time>
      </trkpt>
      <trkpt lat="40.8978680" lon="-3.5528920">
        <ele>903.0</ele>
        <time>2020-09-29T10:20:43Z</time>
      </trkpt>
      <trkpt lat="40.8978680" lon="-3.5528920">
        <ele>903.0</ele>
        <time>2020-09-29T10:20:44Z</time>
      </trkpt>
      <trkpt lat="40.8979670" lon="-3.5529430">
        <ele>903.0</ele>
        <time>2020-09-29T10:20:45Z</time>
      </trkpt>
      <trkpt lat="40.8980150" lon="-3.5529720">
        <ele>903.0</ele>
        <time>2020-09-29T10:20:46Z</time>
      </trkpt>
      <trkpt lat="40.8980150" lon="-3.5529720">
        <ele>903.0</ele>
        <time>2020-09-29T10:20:47Z</time>
      </trkpt>
      <trkpt lat="40.8981080" lon="-3.5530370">
        <ele>904.0</ele>
        <time>2020-09-29T10:20:48Z</time>
      </trkpt>
      <trkpt lat="40.8981550" lon="-3.5530720">
        <ele>904.0</ele>
        <time>2020-09-29T10:20:49Z</time>
      </trkpt>
      <trkpt lat="40.8981550" lon="-3.5530720">
        <ele>904.0</ele>
        <time>2020-09-29T10:20:50Z</time>
      </trkpt>
      <trkpt lat="40.8982370" lon="-3.5531450">
        <ele>904.0</ele>
        <time>2020-09-29T10:20:51Z</time>
      </trkpt>
      <trkpt lat="40.8982370" lon="-3.5531450">
        <ele>905.0</ele>
        <time>2020-09-29T10:20:52Z</time>
      </trkpt>
      <trkpt lat="40.8983180" lon="-3.5532320">
        <ele>905.0</ele>
        <time>2020-09-29T10:20:53Z</time>
      </trkpt>
      <trkpt lat="40.8983180" lon="-3.5532320">
        <ele>905.0</ele>
        <time>2020-09-29T10:20:54Z</time>
      </trkpt>
      <trkpt lat="40.8983970" lon="-3.5533300">
        <ele>905.0</ele>
        <time>2020-09-29T10:20:55Z</time>
      </trkpt>
      <trkpt lat="40.8983970" lon="-3.5533300">
        <ele>905.0</ele>
        <time>2020-09-29T10:20:56Z</time>
      </trkpt>
      <trkpt lat="40.8984650" lon="-3.5534400">
        <ele>906.0</ele>
        <time>2020-09-29T10:20:57Z</time>
      </trkpt>
      <trkpt lat="40.8984650" lon="-3.5534400">
        <ele>906.0</ele>
        <time>2020-09-29T10:20:58Z</time>
      </trkpt>
      <trkpt lat="40.8985320" lon="-3.5535550">
        <ele>906.0</ele>
        <time>2020-09-29T10:20:59Z</time>
      </trkpt>
      <trkpt lat="40.8985320" lon="-3.5535550">
        <ele>906.0</ele>
        <time>2020-09-29T10:21:00Z</time>
      </trkpt>
      <trkpt lat="40.8985900" lon="-3.5536770">
        <ele>906.0</ele>
        <time>2020-09-29T10:21:01Z</time>
      </trkpt>
      <trkpt lat="40.8985900" lon="-3.5536770">
        <ele>906.0</ele>
        <time>2020-09-29T10:21:02Z</time>
      </trkpt>
      <trkpt lat="40.8986520" lon="-3.5538080">
        <ele>906.0</ele>
        <time>2020-09-29T10:21:03Z</time>
      </trkpt>
      <trkpt lat="40.8986820" lon="-3.5538730">
        <ele>906.0</ele>
        <time>2020-09-29T10:21:04Z</time>
      </trkpt>
      <trkpt lat="40.8986820" lon="-3.5538730">
        <ele>906.0</ele>
        <time>2020-09-29T10:21:05Z</time>
      </trkpt>
      <trkpt lat="40.8987450" lon="-3.5540030">
        <ele>906.0</ele>
        <time>2020-09-29T10:21:06Z</time>
      </trkpt>
      <trkpt lat="40.8987770" lon="-3.5540670">
        <ele>907.0</ele>
        <time>2020-09-29T10:21:07Z</time>
      </trkpt>
      <trkpt lat="40.8987770" lon="-3.5540670">
        <ele>907.0</ele>
        <time>2020-09-29T10:21:08Z</time>
      </trkpt>
      <trkpt lat="40.8988420" lon="-3.5541950">
        <ele>907.0</ele>
        <time>2020-09-29T10:21:09Z</time>
      </trkpt>
      <trkpt lat="40.8988420" lon="-3.5541950">
        <ele>907.0</ele>
        <time>2020-09-29T10:21:10Z</time>
      </trkpt>
      <trkpt lat="40.8989050" lon="-3.5543280">
        <ele>907.0</ele>
        <time>2020-09-29T10:21:11Z</time>
      </trkpt>
      <trkpt lat="40.8989050" lon="-3.5543280">
        <ele>907.0</ele>
        <time>2020-09-29T10:21:12Z</time>
      </trkpt>
      <trkpt lat="40.8989730" lon="-3.5544600">
        <ele>907.0</ele>
        <time>2020-09-29T10:21:13Z</time>
      </trkpt>
      <trkpt lat="40.8989730" lon="-3.5544600">
        <ele>907.0</ele>
        <time>2020-09-29T10:21:14Z</time>
      </trkpt>
      <trkpt lat="40.8990470" lon="-3.5545980">
        <ele>907.0</ele>
        <time>2020-09-29T10:21:15Z</time>
      </trkpt>
      <trkpt lat="40.8990800" lon="-3.5546720">
        <ele>907.0</ele>
        <time>2020-09-29T10:21:16Z</time>
      </trkpt>
      <trkpt lat="40.8990800" lon="-3.5546720">
        <ele>907.0</ele>
        <time>2020-09-29T10:21:17Z</time>
      </trkpt>
      <trkpt lat="40.8991480" lon="-3.5548250">
        <ele>907.0</ele>
        <time>2020-09-29T10:21:18Z</time>
      </trkpt>
      <trkpt lat="40.8991850" lon="-3.5549050">
        <ele>907.0</ele>
        <time>2020-09-29T10:21:19Z</time>
      </trkpt>
      <trkpt lat="40.8991850" lon="-3.5549050">
        <ele>907.0</ele>
        <time>2020-09-29T10:21:20Z</time>
      </trkpt>
      <trkpt lat="40.8992600" lon="-3.5550730">
        <ele>907.0</ele>
        <time>2020-09-29T10:21:21Z</time>
      </trkpt>
      <trkpt lat="40.8992970" lon="-3.5551600">
        <ele>906.0</ele>
        <time>2020-09-29T10:21:22Z</time>
      </trkpt>
      <trkpt lat="40.8992970" lon="-3.5551600">
        <ele>906.0</ele>
        <time>2020-09-29T10:21:23Z</time>
      </trkpt>
      <trkpt lat="40.8993750" lon="-3.5553400">
        <ele>906.0</ele>
        <time>2020-09-29T10:21:24Z</time>
      </trkpt>
      <trkpt lat="40.8994150" lon="-3.5554330">
        <ele>906.0</ele>
        <time>2020-09-29T10:21:25Z</time>
      </trkpt>
      <trkpt lat="40.8994530" lon="-3.5555280">
        <ele>905.0</ele>
        <time>2020-09-29T10:21:26Z</time>
      </trkpt>
      <trkpt lat="40.8994530" lon="-3.5555280">
        <ele>905.0</ele>
        <time>2020-09-29T10:21:27Z</time>
      </trkpt>
      <trkpt lat="40.8995320" lon="-3.5557230">
        <ele>905.0</ele>
        <time>2020-09-29T10:21:28Z</time>
      </trkpt>
      <trkpt lat="40.8995700" lon="-3.5558230">
        <ele>905.0</ele>
        <time>2020-09-29T10:21:29Z</time>
      </trkpt>
      <trkpt lat="40.8995700" lon="-3.5558230">
        <ele>904.0</ele>
        <time>2020-09-29T10:21:30Z</time>
      </trkpt>
      <trkpt lat="40.8995700" lon="-3.5558230">
        <ele>904.0</ele>
        <time>2020-09-29T10:21:31Z</time>
      </trkpt>
      <trkpt lat="40.8996500" lon="-3.5560250">
        <ele>904.0</ele>
        <time>2020-09-29T10:21:32Z</time>
      </trkpt>
      <trkpt lat="40.8997320" lon="-3.5562330">
        <ele>904.0</ele>
        <time>2020-09-29T10:21:33Z</time>
      </trkpt>
      <trkpt lat="40.8997320" lon="-3.5562330">
        <ele>904.0</ele>
        <time>2020-09-29T10:21:34Z</time>
      </trkpt>
      <trkpt lat="40.8998130" lon="-3.5564430">
        <ele>903.0</ele>
        <time>2020-09-29T10:21:35Z</time>
      </trkpt>
      <trkpt lat="40.8998570" lon="-3.5565470">
        <ele>903.0</ele>
        <time>2020-09-29T10:21:36Z</time>
      </trkpt>
      <trkpt lat="40.8998570" lon="-3.5565470">
        <ele>902.0</ele>
        <time>2020-09-29T10:21:37Z</time>
      </trkpt>
      <trkpt lat="40.8999380" lon="-3.5567550">
        <ele>902.0</ele>
        <time>2020-09-29T10:21:38Z</time>
      </trkpt>
      <trkpt lat="40.8999380" lon="-3.5567550">
        <ele>902.0</ele>
        <time>2020-09-29T10:21:39Z</time>
      </trkpt>
      <trkpt lat="40.9000230" lon="-3.5569600">
        <ele>902.0</ele>
        <time>2020-09-29T10:21:40Z</time>
      </trkpt>
      <trkpt lat="40.9000680" lon="-3.5570600">
        <ele>902.0</ele>
        <time>2020-09-29T10:21:41Z</time>
      </trkpt>
      <trkpt lat="40.9000680" lon="-3.5570600">
        <ele>901.0</ele>
        <time>2020-09-29T10:21:42Z</time>
      </trkpt>
      <trkpt lat="40.9001650" lon="-3.5572550">
        <ele>901.0</ele>
        <time>2020-09-29T10:21:43Z</time>
      </trkpt>
      <trkpt lat="40.9001650" lon="-3.5572550">
        <ele>901.0</ele>
        <time>2020-09-29T10:21:44Z</time>
      </trkpt>
      <trkpt lat="40.9002720" lon="-3.5574430">
        <ele>901.0</ele>
        <time>2020-09-29T10:21:45Z</time>
      </trkpt>
      <trkpt lat="40.9002720" lon="-3.5574430">
        <ele>900.0</ele>
        <time>2020-09-29T10:21:46Z</time>
      </trkpt>
      <trkpt lat="40.9003780" lon="-3.5576300">
        <ele>900.0</ele>
        <time>2020-09-29T10:21:47Z</time>
      </trkpt>
      <trkpt lat="40.9003780" lon="-3.5576300">
        <ele>900.0</ele>
        <time>2020-09-29T10:21:48Z</time>
      </trkpt>
      <trkpt lat="40.9004850" lon="-3.5578150">
        <ele>900.0</ele>
        <time>2020-09-29T10:21:49Z</time>
      </trkpt>
      <trkpt lat="40.9004850" lon="-3.5578150">
        <ele>900.0</ele>
        <time>2020-09-29T10:21:50Z</time>
      </trkpt>
      <trkpt lat="40.9005930" lon="-3.5579980">
        <ele>900.0</ele>
        <time>2020-09-29T10:21:51Z</time>
      </trkpt>
      <trkpt lat="40.9005930" lon="-3.5579980">
        <ele>899.0</ele>
        <time>2020-09-29T10:21:52Z</time>
      </trkpt>
      <trkpt lat="40.9007020" lon="-3.5581820">
        <ele>899.0</ele>
        <time>2020-09-29T10:21:53Z</time>
      </trkpt>
      <trkpt lat="40.9007020" lon="-3.5581820">
        <ele>899.0</ele>
        <time>2020-09-29T10:21:54Z</time>
      </trkpt>
      <trkpt lat="40.9008100" lon="-3.5583670">
        <ele>899.0</ele>
        <time>2020-09-29T10:21:55Z</time>
      </trkpt>
      <trkpt lat="40.9008100" lon="-3.5583670">
        <ele>899.0</ele>
        <time>2020-09-29T10:21:56Z</time>
      </trkpt>
      <trkpt lat="40.9009180" lon="-3.5585520">
        <ele>898.0</ele>
        <time>2020-09-29T10:21:57Z</time>
      </trkpt>
      <trkpt lat="40.9009730" lon="-3.5586430">
        <ele>898.0</ele>
        <time>2020-09-29T10:21:58Z</time>
      </trkpt>
      <trkpt lat="40.9010280" lon="-3.5587350">
        <ele>898.0</ele>
        <time>2020-09-29T10:21:59Z</time>
      </trkpt>
      <trkpt lat="40.9010280" lon="-3.5587350">
        <ele>898.0</ele>
        <time>2020-09-29T10:22:00Z</time>
      </trkpt>
      <trkpt lat="40.9010280" lon="-3.5587350">
        <ele>898.0</ele>
        <time>2020-09-29T10:22:01Z</time>
      </trkpt>
      <trkpt lat="40.9011370" lon="-3.5589200">
        <ele>898.0</ele>
        <time>2020-09-29T10:22:02Z</time>
      </trkpt>
      <trkpt lat="40.9012420" lon="-3.5591030">
        <ele>897.0</ele>
        <time>2020-09-29T10:22:03Z</time>
      </trkpt>
      <trkpt lat="40.9012420" lon="-3.5591030">
        <ele>897.0</ele>
        <time>2020-09-29T10:22:04Z</time>
      </trkpt>
      <trkpt lat="40.9013480" lon="-3.5592830">
        <ele>897.0</ele>
        <time>2020-09-29T10:22:05Z</time>
      </trkpt>
      <trkpt lat="40.9014020" lon="-3.5593720">
        <ele>897.0</ele>
        <time>2020-09-29T10:22:06Z</time>
      </trkpt>
      <trkpt lat="40.9014020" lon="-3.5593720">
        <ele>897.0</ele>
        <time>2020-09-29T10:22:07Z</time>
      </trkpt>
      <trkpt lat="40.9015080" lon="-3.5595550">
        <ele>897.0</ele>
        <time>2020-09-29T10:22:08Z</time>
      </trkpt>
      <trkpt lat="40.9015080" lon="-3.5595550">
        <ele>896.0</ele>
        <time>2020-09-29T10:22:09Z</time>
      </trkpt>
      <trkpt lat="40.9016220" lon="-3.5597380">
        <ele>896.0</ele>
        <time>2020-09-29T10:22:10Z</time>
      </trkpt>
      <trkpt lat="40.9016850" lon="-3.5598230">
        <ele>896.0</ele>
        <time>2020-09-29T10:22:11Z</time>
      </trkpt>
      <trkpt lat="40.9016850" lon="-3.5598230">
        <ele>896.0</ele>
        <time>2020-09-29T10:22:12Z</time>
      </trkpt>
      <trkpt lat="40.9018180" lon="-3.5599850">
        <ele>895.0</ele>
        <time>2020-09-29T10:22:13Z</time>
      </trkpt>
      <trkpt lat="40.9018180" lon="-3.5599850">
        <ele>895.0</ele>
        <time>2020-09-29T10:22:14Z</time>
      </trkpt>
      <trkpt lat="40.9019700" lon="-3.5601200">
        <ele>895.0</ele>
        <time>2020-09-29T10:22:15Z</time>
      </trkpt>
      <trkpt lat="40.9019700" lon="-3.5601200">
        <ele>895.0</ele>
        <time>2020-09-29T10:22:16Z</time>
      </trkpt>
      <trkpt lat="40.9021400" lon="-3.5602250">
        <ele>894.0</ele>
        <time>2020-09-29T10:22:17Z</time>
      </trkpt>
      <trkpt lat="40.9021400" lon="-3.5602250">
        <ele>894.0</ele>
        <time>2020-09-29T10:22:18Z</time>
      </trkpt>
      <trkpt lat="40.9023180" lon="-3.5603120">
        <ele>893.0</ele>
        <time>2020-09-29T10:22:19Z</time>
      </trkpt>
      <trkpt lat="40.9023180" lon="-3.5603120">
        <ele>893.0</ele>
        <time>2020-09-29T10:22:20Z</time>
      </trkpt>
      <trkpt lat="40.9023180" lon="-3.5603120">
        <ele>893.0</ele>
        <time>2020-09-29T10:22:21Z</time>
      </trkpt>
      <trkpt lat="40.9025870" lon="-3.5604280">
        <ele>893.0</ele>
        <time>2020-09-29T10:22:22Z</time>
      </trkpt>
      <trkpt lat="40.9025870" lon="-3.5604280">
        <ele>892.0</ele>
        <time>2020-09-29T10:22:23Z</time>
      </trkpt>
      <trkpt lat="40.9027720" lon="-3.5605030">
        <ele>892.0</ele>
        <time>2020-09-29T10:22:24Z</time>
      </trkpt>
      <trkpt lat="40.9028630" lon="-3.5605400">
        <ele>892.0</ele>
        <time>2020-09-29T10:22:25Z</time>
      </trkpt>
      <trkpt lat="40.9028630" lon="-3.5605400">
        <ele>890.0</ele>
        <time>2020-09-29T10:22:26Z</time>
      </trkpt>
      <trkpt lat="40.9030520" lon="-3.5606170">
        <ele>890.0</ele>
        <time>2020-09-29T10:22:27Z</time>
      </trkpt>
      <trkpt lat="40.9031450" lon="-3.5606530">
        <ele>890.0</ele>
        <time>2020-09-29T10:22:28Z</time>
      </trkpt>
      <trkpt lat="40.9031450" lon="-3.5606530">
        <ele>890.0</ele>
        <time>2020-09-29T10:22:29Z</time>
      </trkpt>
      <trkpt lat="40.9033330" lon="-3.5607300">
        <ele>890.0</ele>
        <time>2020-09-29T10:22:30Z</time>
      </trkpt>
      <trkpt lat="40.9034280" lon="-3.5607630">
        <ele>890.0</ele>
        <time>2020-09-29T10:22:31Z</time>
      </trkpt>
      <trkpt lat="40.9034280" lon="-3.5607630">
        <ele>890.0</ele>
        <time>2020-09-29T10:22:32Z</time>
      </trkpt>
      <trkpt lat="40.9036130" lon="-3.5608420">
        <ele>890.0</ele>
        <time>2020-09-29T10:22:33Z</time>
      </trkpt>
      <trkpt lat="40.9036130" lon="-3.5608420">
        <ele>889.0</ele>
        <time>2020-09-29T10:22:34Z</time>
      </trkpt>
      <trkpt lat="40.9037970" lon="-3.5609170">
        <ele>889.0</ele>
        <time>2020-09-29T10:22:35Z</time>
      </trkpt>
      <trkpt lat="40.9037970" lon="-3.5609170">
        <ele>889.0</ele>
        <time>2020-09-29T10:22:36Z</time>
      </trkpt>
      <trkpt lat="40.9039800" lon="-3.5609750">
        <ele>889.0</ele>
        <time>2020-09-29T10:22:37Z</time>
      </trkpt>
      <trkpt lat="40.9039800" lon="-3.5609750">
        <ele>887.0</ele>
        <time>2020-09-29T10:22:38Z</time>
      </trkpt>
      <trkpt lat="40.9041680" lon="-3.5610070">
        <ele>887.0</ele>
        <time>2020-09-29T10:22:39Z</time>
      </trkpt>
      <trkpt lat="40.9042620" lon="-3.5610130">
        <ele>887.0</ele>
        <time>2020-09-29T10:22:40Z</time>
      </trkpt>
      <trkpt lat="40.9042620" lon="-3.5610130">
        <ele>887.0</ele>
        <time>2020-09-29T10:22:41Z</time>
      </trkpt>
      <trkpt lat="40.9044480" lon="-3.5610120">
        <ele>887.0</ele>
        <time>2020-09-29T10:22:42Z</time>
      </trkpt>
      <trkpt lat="40.9044480" lon="-3.5610120">
        <ele>887.0</ele>
        <time>2020-09-29T10:22:43Z</time>
      </trkpt>
      <trkpt lat="40.9045400" lon="-3.5610000">
        <ele>887.0</ele>
        <time>2020-09-29T10:22:44Z</time>
      </trkpt>
      <trkpt lat="40.9047230" lon="-3.5609620">
        <ele>887.0</ele>
        <time>2020-09-29T10:22:45Z</time>
      </trkpt>
      <trkpt lat="40.9047230" lon="-3.5609620">
        <ele>887.0</ele>
        <time>2020-09-29T10:22:46Z</time>
      </trkpt>
      <trkpt lat="40.9048970" lon="-3.5609100">
        <ele>887.0</ele>
        <time>2020-09-29T10:22:47Z</time>
      </trkpt>
      <trkpt lat="40.9048970" lon="-3.5609100">
        <ele>886.0</ele>
        <time>2020-09-29T10:22:48Z</time>
      </trkpt>
      <trkpt lat="40.9050720" lon="-3.5608520">
        <ele>886.0</ele>
        <time>2020-09-29T10:22:49Z</time>
      </trkpt>
      <trkpt lat="40.9050720" lon="-3.5608520">
        <ele>886.0</ele>
        <time>2020-09-29T10:22:50Z</time>
      </trkpt>
      <trkpt lat="40.9052430" lon="-3.5607880">
        <ele>886.0</ele>
        <time>2020-09-29T10:22:51Z</time>
      </trkpt>
      <trkpt lat="40.9052430" lon="-3.5607880">
        <ele>886.0</ele>
        <time>2020-09-29T10:22:52Z</time>
      </trkpt>
      <trkpt lat="40.9052430" lon="-3.5607880">
        <ele>886.0</ele>
        <time>2020-09-29T10:22:53Z</time>
      </trkpt>
      <trkpt lat="40.9054900" lon="-3.5607020">
        <ele>886.0</ele>
        <time>2020-09-29T10:22:54Z</time>
      </trkpt>
      <trkpt lat="40.9054900" lon="-3.5607020">
        <ele>886.0</ele>
        <time>2020-09-29T10:22:55Z</time>
      </trkpt>
      <trkpt lat="40.9056470" lon="-3.5606470">
        <ele>886.0</ele>
        <time>2020-09-29T10:22:56Z</time>
      </trkpt>
      <trkpt lat="40.9056470" lon="-3.5606470">
        <ele>886.0</ele>
        <time>2020-09-29T10:22:57Z</time>
      </trkpt>
      <trkpt lat="40.9057950" lon="-3.5605930">
        <ele>886.0</ele>
        <time>2020-09-29T10:22:58Z</time>
      </trkpt>
      <trkpt lat="40.9057950" lon="-3.5605930">
        <ele>886.0</ele>
        <time>2020-09-29T10:22:59Z</time>
      </trkpt>
      <trkpt lat="40.9059370" lon="-3.5605400">
        <ele>886.0</ele>
        <time>2020-09-29T10:23:00Z</time>
      </trkpt>
      <trkpt lat="40.9060030" lon="-3.5605150">
        <ele>886.0</ele>
        <time>2020-09-29T10:23:01Z</time>
      </trkpt>
      <trkpt lat="40.9060030" lon="-3.5605150">
        <ele>886.0</ele>
        <time>2020-09-29T10:23:02Z</time>
      </trkpt>
      <trkpt lat="40.9061350" lon="-3.5604680">
        <ele>886.0</ele>
        <time>2020-09-29T10:23:03Z</time>
      </trkpt>
      <trkpt lat="40.9061970" lon="-3.5604480">
        <ele>886.0</ele>
        <time>2020-09-29T10:23:04Z</time>
      </trkpt>
      <trkpt lat="40.9061970" lon="-3.5604480">
        <ele>887.0</ele>
        <time>2020-09-29T10:23:05Z</time>
      </trkpt>
      <trkpt lat="40.9063180" lon="-3.5604080">
        <ele>887.0</ele>
        <time>2020-09-29T10:23:06Z</time>
      </trkpt>
      <trkpt lat="40.9063750" lon="-3.5603850">
        <ele>887.0</ele>
        <time>2020-09-29T10:23:07Z</time>
      </trkpt>
      <trkpt lat="40.9063750" lon="-3.5603850">
        <ele>887.0</ele>
        <time>2020-09-29T10:23:08Z</time>
      </trkpt>
      <trkpt lat="40.9064880" lon="-3.5603420">
        <ele>887.0</ele>
        <time>2020-09-29T10:23:09Z</time>
      </trkpt>
      <trkpt lat="40.9065450" lon="-3.5603230">
        <ele>887.0</ele>
        <time>2020-09-29T10:23:10Z</time>
      </trkpt>
      <trkpt lat="40.9065450" lon="-3.5603230">
        <ele>888.0</ele>
        <time>2020-09-29T10:23:11Z</time>
      </trkpt>
      <trkpt lat="40.9066520" lon="-3.5602880">
        <ele>888.0</ele>
        <time>2020-09-29T10:23:12Z</time>
      </trkpt>
      <trkpt lat="40.9067030" lon="-3.5602730">
        <ele>888.0</ele>
        <time>2020-09-29T10:23:13Z</time>
      </trkpt>
      <trkpt lat="40.9067030" lon="-3.5602730">
        <ele>888.0</ele>
        <time>2020-09-29T10:23:14Z</time>
      </trkpt>
      <trkpt lat="40.9068050" lon="-3.5602480">
        <ele>889.0</ele>
        <time>2020-09-29T10:23:15Z</time>
      </trkpt>
      <trkpt lat="40.9068550" lon="-3.5602400">
        <ele>889.0</ele>
        <time>2020-09-29T10:23:16Z</time>
      </trkpt>
      <trkpt lat="40.9069070" lon="-3.5602330">
        <ele>889.0</ele>
        <time>2020-09-29T10:23:17Z</time>
      </trkpt>
      <trkpt lat="40.9069070" lon="-3.5602330">
        <ele>889.0</ele>
        <time>2020-09-29T10:23:18Z</time>
      </trkpt>
      <trkpt lat="40.9070100" lon="-3.5602320">
        <ele>889.0</ele>
        <time>2020-09-29T10:23:19Z</time>
      </trkpt>
      <trkpt lat="40.9070100" lon="-3.5602320">
        <ele>890.0</ele>
        <time>2020-09-29T10:23:20Z</time>
      </trkpt>
      <trkpt lat="40.9071150" lon="-3.5602420">
        <ele>890.0</ele>
        <time>2020-09-29T10:23:21Z</time>
      </trkpt>
      <trkpt lat="40.9071150" lon="-3.5602420">
        <ele>890.0</ele>
        <time>2020-09-29T10:23:22Z</time>
      </trkpt>
      <trkpt lat="40.9072230" lon="-3.5602630">
        <ele>890.0</ele>
        <time>2020-09-29T10:23:23Z</time>
      </trkpt>
      <trkpt lat="40.9072230" lon="-3.5602630">
        <ele>890.0</ele>
        <time>2020-09-29T10:23:24Z</time>
      </trkpt>
      <trkpt lat="40.9073280" lon="-3.5603030">
        <ele>890.0</ele>
        <time>2020-09-29T10:23:25Z</time>
      </trkpt>
      <trkpt lat="40.9073800" lon="-3.5603280">
        <ele>890.0</ele>
        <time>2020-09-29T10:23:26Z</time>
      </trkpt>
      <trkpt lat="40.9073800" lon="-3.5603280">
        <ele>890.0</ele>
        <time>2020-09-29T10:23:27Z</time>
      </trkpt>
      <trkpt lat="40.9074820" lon="-3.5603900">
        <ele>890.0</ele>
        <time>2020-09-29T10:23:28Z</time>
      </trkpt>
      <trkpt lat="40.9074820" lon="-3.5603900">
        <ele>890.0</ele>
        <time>2020-09-29T10:23:29Z</time>
      </trkpt>
      <trkpt lat="40.9075870" lon="-3.5604630">
        <ele>890.0</ele>
        <time>2020-09-29T10:23:30Z</time>
      </trkpt>
      <trkpt lat="40.9076420" lon="-3.5605020">
        <ele>890.0</ele>
        <time>2020-09-29T10:23:31Z</time>
      </trkpt>
      <trkpt lat="40.9076420" lon="-3.5605020">
        <ele>890.0</ele>
        <time>2020-09-29T10:23:32Z</time>
      </trkpt>
      <trkpt lat="40.9077550" lon="-3.5605830">
        <ele>890.0</ele>
        <time>2020-09-29T10:23:33Z</time>
      </trkpt>
      <trkpt lat="40.9077550" lon="-3.5605830">
        <ele>890.0</ele>
        <time>2020-09-29T10:23:34Z</time>
      </trkpt>
      <trkpt lat="40.9078730" lon="-3.5606720">
        <ele>890.0</ele>
        <time>2020-09-29T10:23:35Z</time>
      </trkpt>
      <trkpt lat="40.9078730" lon="-3.5606720">
        <ele>890.0</ele>
        <time>2020-09-29T10:23:36Z</time>
      </trkpt>
      <trkpt lat="40.9079930" lon="-3.5607670">
        <ele>890.0</ele>
        <time>2020-09-29T10:23:37Z</time>
      </trkpt>
      <trkpt lat="40.9079930" lon="-3.5607670">
        <ele>890.0</ele>
        <time>2020-09-29T10:23:38Z</time>
      </trkpt>
      <trkpt lat="40.9081170" lon="-3.5608630">
        <ele>890.0</ele>
        <time>2020-09-29T10:23:39Z</time>
      </trkpt>
      <trkpt lat="40.9081170" lon="-3.5608630">
        <ele>889.0</ele>
        <time>2020-09-29T10:23:40Z</time>
      </trkpt>
      <trkpt lat="40.9082470" lon="-3.5609580">
        <ele>889.0</ele>
        <time>2020-09-29T10:23:41Z</time>
      </trkpt>
      <trkpt lat="40.9083120" lon="-3.5610080">
        <ele>889.0</ele>
        <time>2020-09-29T10:23:42Z</time>
      </trkpt>
      <trkpt lat="40.9083120" lon="-3.5610080">
        <ele>889.0</ele>
        <time>2020-09-29T10:23:43Z</time>
      </trkpt>
      <trkpt lat="40.9084430" lon="-3.5611020">
        <ele>889.0</ele>
        <time>2020-09-29T10:23:44Z</time>
      </trkpt>
      <trkpt lat="40.9084430" lon="-3.5611020">
        <ele>889.0</ele>
        <time>2020-09-29T10:23:45Z</time>
      </trkpt>
      <trkpt lat="40.9085820" lon="-3.5611950">
        <ele>889.0</ele>
        <time>2020-09-29T10:23:46Z</time>
      </trkpt>
      <trkpt lat="40.9086520" lon="-3.5612400">
        <ele>888.0</ele>
        <time>2020-09-29T10:23:47Z</time>
      </trkpt>
      <trkpt lat="40.9087270" lon="-3.5612770">
        <ele>888.0</ele>
        <time>2020-09-29T10:23:48Z</time>
      </trkpt>
      <trkpt lat="40.9087270" lon="-3.5612770">
        <ele>888.0</ele>
        <time>2020-09-29T10:23:49Z</time>
      </trkpt>
      <trkpt lat="40.9088820" lon="-3.5613420">
        <ele>888.0</ele>
        <time>2020-09-29T10:23:50Z</time>
      </trkpt>
      <trkpt lat="40.9088820" lon="-3.5613420">
        <ele>887.0</ele>
        <time>2020-09-29T10:23:51Z</time>
      </trkpt>
      <trkpt lat="40.9090480" lon="-3.5613950">
        <ele>887.0</ele>
        <time>2020-09-29T10:23:52Z</time>
      </trkpt>
      <trkpt lat="40.9091330" lon="-3.5614200">
        <ele>887.0</ele>
        <time>2020-09-29T10:23:53Z</time>
      </trkpt>
      <trkpt lat="40.9091330" lon="-3.5614200">
        <ele>887.0</ele>
        <time>2020-09-29T10:23:54Z</time>
      </trkpt>
      <trkpt lat="40.9093100" lon="-3.5614770">
        <ele>885.0</ele>
        <time>2020-09-29T10:23:55Z</time>
      </trkpt>
      <trkpt lat="40.9093100" lon="-3.5614770">
        <ele>885.0</ele>
        <time>2020-09-29T10:23:56Z</time>
      </trkpt>
      <trkpt lat="40.9094880" lon="-3.5615420">
        <ele>885.0</ele>
        <time>2020-09-29T10:23:57Z</time>
      </trkpt>
      <trkpt lat="40.9094880" lon="-3.5615420">
        <ele>885.0</ele>
        <time>2020-09-29T10:23:58Z</time>
      </trkpt>
      <trkpt lat="40.9096730" lon="-3.5616050">
        <ele>884.0</ele>
        <time>2020-09-29T10:23:59Z</time>
      </trkpt>
      <trkpt lat="40.9096730" lon="-3.5616050">
        <ele>884.0</ele>
        <time>2020-09-29T10:24:00Z</time>
      </trkpt>
      <trkpt lat="40.9098630" lon="-3.5616550">
        <ele>884.0</ele>
        <time>2020-09-29T10:24:01Z</time>
      </trkpt>
      <trkpt lat="40.9098630" lon="-3.5616550">
        <ele>884.0</ele>
        <time>2020-09-29T10:24:02Z</time>
      </trkpt>
      <trkpt lat="40.9100620" lon="-3.5616970">
        <ele>883.0</ele>
        <time>2020-09-29T10:24:03Z</time>
      </trkpt>
      <trkpt lat="40.9101580" lon="-3.5617170">
        <ele>883.0</ele>
        <time>2020-09-29T10:24:04Z</time>
      </trkpt>
      <trkpt lat="40.9101580" lon="-3.5617170">
        <ele>882.0</ele>
        <time>2020-09-29T10:24:05Z</time>
      </trkpt>
      <trkpt lat="40.9103570" lon="-3.5617370">
        <ele>882.0</ele>
        <time>2020-09-29T10:24:06Z</time>
      </trkpt>
      <trkpt lat="40.9103570" lon="-3.5617370">
        <ele>882.0</ele>
        <time>2020-09-29T10:24:07Z</time>
      </trkpt>
      <trkpt lat="40.9105520" lon="-3.5617520">
        <ele>882.0</ele>
        <time>2020-09-29T10:24:08Z</time>
      </trkpt>
      <trkpt lat="40.9105520" lon="-3.5617520">
        <ele>881.0</ele>
        <time>2020-09-29T10:24:09Z</time>
      </trkpt>
      <trkpt lat="40.9107400" lon="-3.5617450">
        <ele>881.0</ele>
        <time>2020-09-29T10:24:10Z</time>
      </trkpt>
      <trkpt lat="40.9108320" lon="-3.5617370">
        <ele>880.0</ele>
        <time>2020-09-29T10:24:11Z</time>
      </trkpt>
      <trkpt lat="40.9108320" lon="-3.5617370">
        <ele>880.0</ele>
        <time>2020-09-29T10:24:12Z</time>
      </trkpt>
      <trkpt lat="40.9110050" lon="-3.5617170">
        <ele>880.0</ele>
        <time>2020-09-29T10:24:13Z</time>
      </trkpt>
      <trkpt lat="40.9110050" lon="-3.5617170">
        <ele>880.0</ele>
        <time>2020-09-29T10:24:14Z</time>
      </trkpt>
      <trkpt lat="40.9111680" lon="-3.5616900">
        <ele>880.0</ele>
        <time>2020-09-29T10:24:15Z</time>
      </trkpt>
      <trkpt lat="40.9111680" lon="-3.5616900">
        <ele>880.0</ele>
        <time>2020-09-29T10:24:16Z</time>
      </trkpt>
      <trkpt lat="40.9113220" lon="-3.5616580">
        <ele>880.0</ele>
        <time>2020-09-29T10:24:17Z</time>
      </trkpt>
      <trkpt lat="40.9113930" lon="-3.5616420">
        <ele>880.0</ele>
        <time>2020-09-29T10:24:18Z</time>
      </trkpt>
      <trkpt lat="40.9114600" lon="-3.5616220">
        <ele>880.0</ele>
        <time>2020-09-29T10:24:19Z</time>
      </trkpt>
      <trkpt lat="40.9114600" lon="-3.5616220">
        <ele>880.0</ele>
        <time>2020-09-29T10:24:20Z</time>
      </trkpt>
      <trkpt lat="40.9115800" lon="-3.5615800">
        <ele>880.0</ele>
        <time>2020-09-29T10:24:21Z</time>
      </trkpt>
      <trkpt lat="40.9116370" lon="-3.5615570">
        <ele>880.0</ele>
        <time>2020-09-29T10:24:22Z</time>
      </trkpt>
      <trkpt lat="40.9116370" lon="-3.5615570">
        <ele>880.0</ele>
        <time>2020-09-29T10:24:23Z</time>
      </trkpt>
      <trkpt lat="40.9117470" lon="-3.5615100">
        <ele>881.0</ele>
        <time>2020-09-29T10:24:24Z</time>
      </trkpt>
      <trkpt lat="40.9118020" lon="-3.5614880">
        <ele>881.0</ele>
        <time>2020-09-29T10:24:25Z</time>
      </trkpt>
      <trkpt lat="40.9118020" lon="-3.5614880">
        <ele>881.0</ele>
        <time>2020-09-29T10:24:26Z</time>
      </trkpt>
      <trkpt lat="40.9119030" lon="-3.5614450">
        <ele>881.0</ele>
        <time>2020-09-29T10:24:27Z</time>
      </trkpt>
      <trkpt lat="40.9119030" lon="-3.5614450">
        <ele>883.0</ele>
        <time>2020-09-29T10:24:28Z</time>
      </trkpt>
      <trkpt lat="40.9120000" lon="-3.5614030">
        <ele>883.0</ele>
        <time>2020-09-29T10:24:29Z</time>
      </trkpt>
      <trkpt lat="40.9120000" lon="-3.5614030">
        <ele>883.0</ele>
        <time>2020-09-29T10:24:30Z</time>
      </trkpt>
      <trkpt lat="40.9120920" lon="-3.5613670">
        <ele>883.0</ele>
        <time>2020-09-29T10:24:31Z</time>
      </trkpt>
      <trkpt lat="40.9120920" lon="-3.5613670">
        <ele>883.0</ele>
        <time>2020-09-29T10:24:32Z</time>
      </trkpt>
      <trkpt lat="40.9121750" lon="-3.5613330">
        <ele>883.0</ele>
        <time>2020-09-29T10:24:33Z</time>
      </trkpt>
      <trkpt lat="40.9121750" lon="-3.5613330">
        <ele>885.0</ele>
        <time>2020-09-29T10:24:34Z</time>
      </trkpt>
      <trkpt lat="40.9122570" lon="-3.5613050">
        <ele>885.0</ele>
        <time>2020-09-29T10:24:35Z</time>
      </trkpt>
      <trkpt lat="40.9122970" lon="-3.5612900">
        <ele>885.0</ele>
        <time>2020-09-29T10:24:36Z</time>
      </trkpt>
      <trkpt lat="40.9122970" lon="-3.5612900">
        <ele>885.0</ele>
        <time>2020-09-29T10:24:37Z</time>
      </trkpt>
      <trkpt lat="40.9123770" lon="-3.5612600">
        <ele>886.0</ele>
        <time>2020-09-29T10:24:38Z</time>
      </trkpt>
      <trkpt lat="40.9123770" lon="-3.5612600">
        <ele>886.0</ele>
        <time>2020-09-29T10:24:39Z</time>
      </trkpt>
      <trkpt lat="40.9124530" lon="-3.5612270">
        <ele>886.0</ele>
        <time>2020-09-29T10:24:40Z</time>
      </trkpt>
      <trkpt lat="40.9124920" lon="-3.5612100">
        <ele>886.0</ele>
        <time>2020-09-29T10:24:41Z</time>
      </trkpt>
      <trkpt lat="40.9124920" lon="-3.5612100">
        <ele>886.0</ele>
        <time>2020-09-29T10:24:42Z</time>
      </trkpt>
      <trkpt lat="40.9125680" lon="-3.5611820">
        <ele>886.0</ele>
        <time>2020-09-29T10:24:43Z</time>
      </trkpt>
      <trkpt lat="40.9126080" lon="-3.5611680">
        <ele>887.0</ele>
        <time>2020-09-29T10:24:44Z</time>
      </trkpt>
      <trkpt lat="40.9126080" lon="-3.5611680">
        <ele>887.0</ele>
        <time>2020-09-29T10:24:45Z</time>
      </trkpt>
      <trkpt lat="40.9126780" lon="-3.5611380">
        <ele>887.0</ele>
        <time>2020-09-29T10:24:46Z</time>
      </trkpt>
      <trkpt lat="40.9126780" lon="-3.5611380">
        <ele>887.0</ele>
        <time>2020-09-29T10:24:47Z</time>
      </trkpt>
      <trkpt lat="40.9127450" lon="-3.5611080">
        <ele>888.0</ele>
        <time>2020-09-29T10:24:48Z</time>
      </trkpt>
      <trkpt lat="40.9127780" lon="-3.5610970">
        <ele>888.0</ele>
        <time>2020-09-29T10:24:49Z</time>
      </trkpt>
      <trkpt lat="40.9127780" lon="-3.5610970">
        <ele>888.0</ele>
        <time>2020-09-29T10:24:50Z</time>
      </trkpt>
      <trkpt lat="40.9128450" lon="-3.5610720">
        <ele>888.0</ele>
        <time>2020-09-29T10:24:51Z</time>
      </trkpt>
      <trkpt lat="40.9128450" lon="-3.5610720">
        <ele>889.0</ele>
        <time>2020-09-29T10:24:52Z</time>
      </trkpt>
      <trkpt lat="40.9129150" lon="-3.5610400">
        <ele>889.0</ele>
        <time>2020-09-29T10:24:53Z</time>
      </trkpt>
      <trkpt lat="40.9129150" lon="-3.5610400">
        <ele>889.0</ele>
        <time>2020-09-29T10:24:54Z</time>
      </trkpt>
      <trkpt lat="40.9129830" lon="-3.5610120">
        <ele>890.0</ele>
        <time>2020-09-29T10:24:55Z</time>
      </trkpt>
      <trkpt lat="40.9129830" lon="-3.5610120">
        <ele>890.0</ele>
        <time>2020-09-29T10:24:56Z</time>
      </trkpt>
      <trkpt lat="40.9130520" lon="-3.5609830">
        <ele>890.0</ele>
        <time>2020-09-29T10:24:57Z</time>
      </trkpt>
      <trkpt lat="40.9130520" lon="-3.5609830">
        <ele>890.0</ele>
        <time>2020-09-29T10:24:58Z</time>
      </trkpt>
      <trkpt lat="40.9131200" lon="-3.5609570">
        <ele>891.0</ele>
        <time>2020-09-29T10:24:59Z</time>
      </trkpt>
      <trkpt lat="40.9131200" lon="-3.5609570">
        <ele>891.0</ele>
        <time>2020-09-29T10:25:00Z</time>
      </trkpt>
      <trkpt lat="40.9131920" lon="-3.5609250">
        <ele>891.0</ele>
        <time>2020-09-29T10:25:01Z</time>
      </trkpt>
      <trkpt lat="40.9132280" lon="-3.5609100">
        <ele>891.0</ele>
        <time>2020-09-29T10:25:02Z</time>
      </trkpt>
      <trkpt lat="40.9132280" lon="-3.5609100">
        <ele>892.0</ele>
        <time>2020-09-29T10:25:03Z</time>
      </trkpt>
      <trkpt lat="40.9132930" lon="-3.5608820">
        <ele>892.0</ele>
        <time>2020-09-29T10:25:04Z</time>
      </trkpt>
      <trkpt lat="40.9132930" lon="-3.5608820">
        <ele>892.0</ele>
        <time>2020-09-29T10:25:05Z</time>
      </trkpt>
      <trkpt lat="40.9133580" lon="-3.5608530">
        <ele>892.0</ele>
        <time>2020-09-29T10:25:06Z</time>
      </trkpt>
      <trkpt lat="40.9133580" lon="-3.5608530">
        <ele>893.0</ele>
        <time>2020-09-29T10:25:07Z</time>
      </trkpt>
      <trkpt lat="40.9134270" lon="-3.5608230">
        <ele>893.0</ele>
        <time>2020-09-29T10:25:08Z</time>
      </trkpt>
      <trkpt lat="40.9134270" lon="-3.5608230">
        <ele>893.0</ele>
        <time>2020-09-29T10:25:09Z</time>
      </trkpt>
      <trkpt lat="40.9134950" lon="-3.5607970">
        <ele>893.0</ele>
        <time>2020-09-29T10:25:10Z</time>
      </trkpt>
      <trkpt lat="40.9134950" lon="-3.5607970">
        <ele>894.0</ele>
        <time>2020-09-29T10:25:11Z</time>
      </trkpt>
      <trkpt lat="40.9135630" lon="-3.5607650">
        <ele>894.0</ele>
        <time>2020-09-29T10:25:12Z</time>
      </trkpt>
      <trkpt lat="40.9135950" lon="-3.5607470">
        <ele>895.0</ele>
        <time>2020-09-29T10:25:13Z</time>
      </trkpt>
      <trkpt lat="40.9135950" lon="-3.5607470">
        <ele>895.0</ele>
        <time>2020-09-29T10:25:14Z</time>
      </trkpt>
      <trkpt lat="40.9136620" lon="-3.5607150">
        <ele>895.0</ele>
        <time>2020-09-29T10:25:15Z</time>
      </trkpt>
      <trkpt lat="40.9136620" lon="-3.5607150">
        <ele>895.0</ele>
        <time>2020-09-29T10:25:16Z</time>
      </trkpt>
      <trkpt lat="40.9137280" lon="-3.5606870">
        <ele>896.0</ele>
        <time>2020-09-29T10:25:17Z</time>
      </trkpt>
      <trkpt lat="40.9137620" lon="-3.5606720">
        <ele>896.0</ele>
        <time>2020-09-29T10:25:18Z</time>
      </trkpt>
      <trkpt lat="40.9137620" lon="-3.5606720">
        <ele>896.0</ele>
        <time>2020-09-29T10:25:19Z</time>
      </trkpt>
      <trkpt lat="40.9138320" lon="-3.5606400">
        <ele>896.0</ele>
        <time>2020-09-29T10:25:20Z</time>
      </trkpt>
      <trkpt lat="40.9138320" lon="-3.5606400">
        <ele>896.0</ele>
        <time>2020-09-29T10:25:21Z</time>
      </trkpt>
      <trkpt lat="40.9138980" lon="-3.5606130">
        <ele>896.0</ele>
        <time>2020-09-29T10:25:22Z</time>
      </trkpt>
      <trkpt lat="40.9138980" lon="-3.5606130">
        <ele>897.0</ele>
        <time>2020-09-29T10:25:23Z</time>
      </trkpt>
      <trkpt lat="40.9139630" lon="-3.5605830">
        <ele>897.0</ele>
        <time>2020-09-29T10:25:24Z</time>
      </trkpt>
      <trkpt lat="40.9139970" lon="-3.5605680">
        <ele>897.0</ele>
        <time>2020-09-29T10:25:25Z</time>
      </trkpt>
      <trkpt lat="40.9139970" lon="-3.5605680">
        <ele>897.0</ele>
        <time>2020-09-29T10:25:26Z</time>
      </trkpt>
      <trkpt lat="40.9140620" lon="-3.5605380">
        <ele>898.0</ele>
        <time>2020-09-29T10:25:27Z</time>
      </trkpt>
      <trkpt lat="40.9140620" lon="-3.5605380">
        <ele>898.0</ele>
        <time>2020-09-29T10:25:28Z</time>
      </trkpt>
      <trkpt lat="40.9141280" lon="-3.5605100">
        <ele>898.0</ele>
        <time>2020-09-29T10:25:29Z</time>
      </trkpt>
      <trkpt lat="40.9141600" lon="-3.5604930">
        <ele>898.0</ele>
        <time>2020-09-29T10:25:30Z</time>
      </trkpt>
      <trkpt lat="40.9141920" lon="-3.5604800">
        <ele>899.0</ele>
        <time>2020-09-29T10:25:31Z</time>
      </trkpt>
      <trkpt lat="40.9141920" lon="-3.5604800">
        <ele>899.0</ele>
        <time>2020-09-29T10:25:32Z</time>
      </trkpt>
      <trkpt lat="40.9142570" lon="-3.5604570">
        <ele>899.0</ele>
        <time>2020-09-29T10:25:33Z</time>
      </trkpt>
      <trkpt lat="40.9142900" lon="-3.5604430">
        <ele>899.0</ele>
        <time>2020-09-29T10:25:34Z</time>
      </trkpt>
      <trkpt lat="40.9142900" lon="-3.5604430">
        <ele>899.0</ele>
        <time>2020-09-29T10:25:35Z</time>
      </trkpt>
      <trkpt lat="40.9143550" lon="-3.5604100">
        <ele>899.0</ele>
        <time>2020-09-29T10:25:36Z</time>
      </trkpt>
      <trkpt lat="40.9143550" lon="-3.5604100">
        <ele>899.0</ele>
        <time>2020-09-29T10:25:37Z</time>
      </trkpt>
      <trkpt lat="40.9144170" lon="-3.5603800">
        <ele>899.0</ele>
        <time>2020-09-29T10:25:38Z</time>
      </trkpt>
      <trkpt lat="40.9144170" lon="-3.5603800">
        <ele>899.0</ele>
        <time>2020-09-29T10:25:39Z</time>
      </trkpt>
      <trkpt lat="40.9144470" lon="-3.5603670">
        <ele>901.0</ele>
        <time>2020-09-29T10:25:40Z</time>
      </trkpt>
      <trkpt lat="40.9145120" lon="-3.5603430">
        <ele>901.0</ele>
        <time>2020-09-29T10:25:41Z</time>
      </trkpt>
      <trkpt lat="40.9145420" lon="-3.5603280">
        <ele>901.0</ele>
        <time>2020-09-29T10:25:42Z</time>
      </trkpt>
      <trkpt lat="40.9145700" lon="-3.5603130">
        <ele>901.0</ele>
        <time>2020-09-29T10:25:43Z</time>
      </trkpt>
      <trkpt lat="40.9145700" lon="-3.5603130">
        <ele>902.0</ele>
        <time>2020-09-29T10:25:44Z</time>
      </trkpt>
      <trkpt lat="40.9146280" lon="-3.5602820">
        <ele>902.0</ele>
        <time>2020-09-29T10:25:45Z</time>
      </trkpt>
      <trkpt lat="40.9146570" lon="-3.5602620">
        <ele>902.0</ele>
        <time>2020-09-29T10:25:46Z</time>
      </trkpt>
      <trkpt lat="40.9146570" lon="-3.5602620">
        <ele>902.0</ele>
        <time>2020-09-29T10:25:47Z</time>
      </trkpt>
      <trkpt lat="40.9147150" lon="-3.5602280">
        <ele>903.0</ele>
        <time>2020-09-29T10:25:48Z</time>
      </trkpt>
      <trkpt lat="40.9147470" lon="-3.5602180">
        <ele>903.0</ele>
        <time>2020-09-29T10:25:49Z</time>
      </trkpt>
      <trkpt lat="40.9147470" lon="-3.5602180">
        <ele>903.0</ele>
        <time>2020-09-29T10:25:50Z</time>
      </trkpt>
      <trkpt lat="40.9148100" lon="-3.5602000">
        <ele>903.0</ele>
        <time>2020-09-29T10:25:51Z</time>
      </trkpt>
      <trkpt lat="40.9148420" lon="-3.5601850">
        <ele>903.0</ele>
        <time>2020-09-29T10:25:52Z</time>
      </trkpt>
      <trkpt lat="40.9148420" lon="-3.5601850">
        <ele>903.0</ele>
        <time>2020-09-29T10:25:53Z</time>
      </trkpt>
      <trkpt lat="40.9149020" lon="-3.5601550">
        <ele>905.0</ele>
        <time>2020-09-29T10:25:54Z</time>
      </trkpt>
      <trkpt lat="40.9149020" lon="-3.5601550">
        <ele>905.0</ele>
        <time>2020-09-29T10:25:55Z</time>
      </trkpt>
      <trkpt lat="40.9149630" lon="-3.5601270">
        <ele>905.0</ele>
        <time>2020-09-29T10:25:56Z</time>
      </trkpt>
      <trkpt lat="40.9149630" lon="-3.5601270">
        <ele>905.0</ele>
        <time>2020-09-29T10:25:57Z</time>
      </trkpt>
      <trkpt lat="40.9150270" lon="-3.5601000">
        <ele>906.0</ele>
        <time>2020-09-29T10:25:58Z</time>
      </trkpt>
      <trkpt lat="40.9150270" lon="-3.5601000">
        <ele>906.0</ele>
        <time>2020-09-29T10:25:59Z</time>
      </trkpt>
      <trkpt lat="40.9150920" lon="-3.5600670">
        <ele>906.0</ele>
        <time>2020-09-29T10:26:00Z</time>
      </trkpt>
      <trkpt lat="40.9150920" lon="-3.5600670">
        <ele>906.0</ele>
        <time>2020-09-29T10:26:01Z</time>
      </trkpt>
      <trkpt lat="40.9151550" lon="-3.5600330">
        <ele>906.0</ele>
        <time>2020-09-29T10:26:02Z</time>
      </trkpt>
      <trkpt lat="40.9151870" lon="-3.5600170">
        <ele>906.0</ele>
        <time>2020-09-29T10:26:03Z</time>
      </trkpt>
      <trkpt lat="40.9152200" lon="-3.5600020">
        <ele>906.0</ele>
        <time>2020-09-29T10:26:04Z</time>
      </trkpt>
      <trkpt lat="40.9152200" lon="-3.5600020">
        <ele>906.0</ele>
        <time>2020-09-29T10:26:05Z</time>
      </trkpt>
      <trkpt lat="40.9152830" lon="-3.5599730">
        <ele>907.0</ele>
        <time>2020-09-29T10:26:06Z</time>
      </trkpt>
      <trkpt lat="40.9153150" lon="-3.5599580">
        <ele>907.0</ele>
        <time>2020-09-29T10:26:07Z</time>
      </trkpt>
      <trkpt lat="40.9153470" lon="-3.5599450">
        <ele>907.0</ele>
        <time>2020-09-29T10:26:08Z</time>
      </trkpt>
      <trkpt lat="40.9153470" lon="-3.5599450">
        <ele>908.0</ele>
        <time>2020-09-29T10:26:09Z</time>
      </trkpt>
      <trkpt lat="40.9154120" lon="-3.5599180">
        <ele>908.0</ele>
        <time>2020-09-29T10:26:10Z</time>
      </trkpt>
      <trkpt lat="40.9154120" lon="-3.5599180">
        <ele>909.0</ele>
        <time>2020-09-29T10:26:11Z</time>
      </trkpt>
      <trkpt lat="40.9154770" lon="-3.5598920">
        <ele>909.0</ele>
        <time>2020-09-29T10:26:12Z</time>
      </trkpt>
      <trkpt lat="40.9155080" lon="-3.5598750">
        <ele>909.0</ele>
        <time>2020-09-29T10:26:13Z</time>
      </trkpt>
      <trkpt lat="40.9155080" lon="-3.5598750">
        <ele>909.0</ele>
        <time>2020-09-29T10:26:14Z</time>
      </trkpt>
      <trkpt lat="40.9155720" lon="-3.5598420">
        <ele>910.0</ele>
        <time>2020-09-29T10:26:15Z</time>
      </trkpt>
      <trkpt lat="40.9155720" lon="-3.5598420">
        <ele>910.0</ele>
        <time>2020-09-29T10:26:16Z</time>
      </trkpt>
      <trkpt lat="40.9156350" lon="-3.5598170">
        <ele>910.0</ele>
        <time>2020-09-29T10:26:17Z</time>
      </trkpt>
      <trkpt lat="40.9156350" lon="-3.5598170">
        <ele>910.0</ele>
        <time>2020-09-29T10:26:18Z</time>
      </trkpt>
      <trkpt lat="40.9157000" lon="-3.5597880">
        <ele>911.0</ele>
        <time>2020-09-29T10:26:19Z</time>
      </trkpt>
      <trkpt lat="40.9157000" lon="-3.5597880">
        <ele>911.0</ele>
        <time>2020-09-29T10:26:20Z</time>
      </trkpt>
      <trkpt lat="40.9157630" lon="-3.5597580">
        <ele>911.0</ele>
        <time>2020-09-29T10:26:21Z</time>
      </trkpt>
      <trkpt lat="40.9157950" lon="-3.5597470">
        <ele>911.0</ele>
        <time>2020-09-29T10:26:22Z</time>
      </trkpt>
      <trkpt lat="40.9158270" lon="-3.5597330">
        <ele>911.0</ele>
        <time>2020-09-29T10:26:23Z</time>
      </trkpt>
      <trkpt lat="40.9158270" lon="-3.5597330">
        <ele>911.0</ele>
        <time>2020-09-29T10:26:24Z</time>
      </trkpt>
      <trkpt lat="40.9158920" lon="-3.5597050">
        <ele>912.0</ele>
        <time>2020-09-29T10:26:25Z</time>
      </trkpt>
      <trkpt lat="40.9158920" lon="-3.5597050">
        <ele>912.0</ele>
        <time>2020-09-29T10:26:26Z</time>
      </trkpt>
      <trkpt lat="40.9159580" lon="-3.5596770">
        <ele>912.0</ele>
        <time>2020-09-29T10:26:27Z</time>
      </trkpt>
      <trkpt lat="40.9159580" lon="-3.5596770">
        <ele>912.0</ele>
        <time>2020-09-29T10:26:28Z</time>
      </trkpt>
      <trkpt lat="40.9160270" lon="-3.5596480">
        <ele>912.0</ele>
        <time>2020-09-29T10:26:29Z</time>
      </trkpt>
      <trkpt lat="40.9160620" lon="-3.5596380">
        <ele>912.0</ele>
        <time>2020-09-29T10:26:30Z</time>
      </trkpt>
      <trkpt lat="40.9160950" lon="-3.5596270">
        <ele>912.0</ele>
        <time>2020-09-29T10:26:31Z</time>
      </trkpt>
      <trkpt lat="40.9160950" lon="-3.5596270">
        <ele>912.0</ele>
        <time>2020-09-29T10:26:32Z</time>
      </trkpt>
      <trkpt lat="40.9161600" lon="-3.5596070">
        <ele>912.0</ele>
        <time>2020-09-29T10:26:33Z</time>
      </trkpt>
      <trkpt lat="40.9161600" lon="-3.5596070">
        <ele>912.0</ele>
        <time>2020-09-29T10:26:34Z</time>
      </trkpt>
      <trkpt lat="40.9162280" lon="-3.5595820">
        <ele>912.0</ele>
        <time>2020-09-29T10:26:35Z</time>
      </trkpt>
      <trkpt lat="40.9162280" lon="-3.5595820">
        <ele>912.0</ele>
        <time>2020-09-29T10:26:36Z</time>
      </trkpt>
      <trkpt lat="40.9162980" lon="-3.5595600">
        <ele>913.0</ele>
        <time>2020-09-29T10:26:37Z</time>
      </trkpt>
      <trkpt lat="40.9163330" lon="-3.5595480">
        <ele>913.0</ele>
        <time>2020-09-29T10:26:38Z</time>
      </trkpt>
      <trkpt lat="40.9163330" lon="-3.5595480">
        <ele>913.0</ele>
        <time>2020-09-29T10:26:39Z</time>
      </trkpt>
      <trkpt lat="40.9163330" lon="-3.5595480">
        <ele>913.0</ele>
        <time>2020-09-29T10:26:40Z</time>
      </trkpt>
      <trkpt lat="40.9164020" lon="-3.5595280">
        <ele>913.0</ele>
        <time>2020-09-29T10:26:41Z</time>
      </trkpt>
      <trkpt lat="40.9164720" lon="-3.5595070">
        <ele>913.0</ele>
        <time>2020-09-29T10:26:42Z</time>
      </trkpt>
      <trkpt lat="40.9165070" lon="-3.5594970">
        <ele>913.0</ele>
        <time>2020-09-29T10:26:43Z</time>
      </trkpt>
      <trkpt lat="40.9165070" lon="-3.5594970">
        <ele>913.0</ele>
        <time>2020-09-29T10:26:44Z</time>
      </trkpt>
      <trkpt lat="40.9165750" lon="-3.5594700">
        <ele>913.0</ele>
        <time>2020-09-29T10:26:45Z</time>
      </trkpt>
      <trkpt lat="40.9165750" lon="-3.5594700">
        <ele>913.0</ele>
        <time>2020-09-29T10:26:46Z</time>
      </trkpt>
      <trkpt lat="40.9166470" lon="-3.5594420">
        <ele>913.0</ele>
        <time>2020-09-29T10:26:47Z</time>
      </trkpt>
      <trkpt lat="40.9166820" lon="-3.5594280">
        <ele>914.0</ele>
        <time>2020-09-29T10:26:48Z</time>
      </trkpt>
      <trkpt lat="40.9167180" lon="-3.5594170">
        <ele>914.0</ele>
        <time>2020-09-29T10:26:49Z</time>
      </trkpt>
      <trkpt lat="40.9167180" lon="-3.5594170">
        <ele>914.0</ele>
        <time>2020-09-29T10:26:50Z</time>
      </trkpt>
      <trkpt lat="40.9167930" lon="-3.5593950">
        <ele>914.0</ele>
        <time>2020-09-29T10:26:51Z</time>
      </trkpt>
      <trkpt lat="40.9167930" lon="-3.5593950">
        <ele>914.0</ele>
        <time>2020-09-29T10:26:52Z</time>
      </trkpt>
      <trkpt lat="40.9168680" lon="-3.5593750">
        <ele>914.0</ele>
        <time>2020-09-29T10:26:53Z</time>
      </trkpt>
      <trkpt lat="40.9168680" lon="-3.5593750">
        <ele>914.0</ele>
        <time>2020-09-29T10:26:54Z</time>
      </trkpt>
      <trkpt lat="40.9169450" lon="-3.5593470">
        <ele>914.0</ele>
        <time>2020-09-29T10:26:55Z</time>
      </trkpt>
      <trkpt lat="40.9169450" lon="-3.5593470">
        <ele>914.0</ele>
        <time>2020-09-29T10:26:56Z</time>
      </trkpt>
      <trkpt lat="40.9170200" lon="-3.5593200">
        <ele>914.0</ele>
        <time>2020-09-29T10:26:57Z</time>
      </trkpt>
      <trkpt lat="40.9170200" lon="-3.5593200">
        <ele>915.0</ele>
        <time>2020-09-29T10:26:58Z</time>
      </trkpt>
      <trkpt lat="40.9170970" lon="-3.5593030">
        <ele>915.0</ele>
        <time>2020-09-29T10:26:59Z</time>
      </trkpt>
      <trkpt lat="40.9170970" lon="-3.5593030">
        <ele>915.0</ele>
        <time>2020-09-29T10:27:00Z</time>
      </trkpt>
      <trkpt lat="40.9171700" lon="-3.5592880">
        <ele>915.0</ele>
        <time>2020-09-29T10:27:01Z</time>
      </trkpt>
      <trkpt lat="40.9171700" lon="-3.5592880">
        <ele>915.0</ele>
        <time>2020-09-29T10:27:02Z</time>
      </trkpt>
      <trkpt lat="40.9172450" lon="-3.5592680">
        <ele>915.0</ele>
        <time>2020-09-29T10:27:03Z</time>
      </trkpt>
      <trkpt lat="40.9172450" lon="-3.5592680">
        <ele>916.0</ele>
        <time>2020-09-29T10:27:04Z</time>
      </trkpt>
      <trkpt lat="40.9173220" lon="-3.5592500">
        <ele>916.0</ele>
        <time>2020-09-29T10:27:05Z</time>
      </trkpt>
      <trkpt lat="40.9173220" lon="-3.5592500">
        <ele>916.0</ele>
        <time>2020-09-29T10:27:06Z</time>
      </trkpt>
      <trkpt lat="40.9173970" lon="-3.5592380">
        <ele>916.0</ele>
        <time>2020-09-29T10:27:07Z</time>
      </trkpt>
      <trkpt lat="40.9173970" lon="-3.5592380">
        <ele>916.0</ele>
        <time>2020-09-29T10:27:08Z</time>
      </trkpt>
      <trkpt lat="40.9174730" lon="-3.5592350">
        <ele>916.0</ele>
        <time>2020-09-29T10:27:09Z</time>
      </trkpt>
      <trkpt lat="40.9174730" lon="-3.5592350">
        <ele>916.0</ele>
        <time>2020-09-29T10:27:10Z</time>
      </trkpt>
      <trkpt lat="40.9175530" lon="-3.5592320">
        <ele>917.0</ele>
        <time>2020-09-29T10:27:11Z</time>
      </trkpt>
      <trkpt lat="40.9175930" lon="-3.5592300">
        <ele>917.0</ele>
        <time>2020-09-29T10:27:12Z</time>
      </trkpt>
      <trkpt lat="40.9176320" lon="-3.5592280">
        <ele>917.0</ele>
        <time>2020-09-29T10:27:13Z</time>
      </trkpt>
      <trkpt lat="40.9176320" lon="-3.5592280">
        <ele>917.0</ele>
        <time>2020-09-29T10:27:14Z</time>
      </trkpt>
      <trkpt lat="40.9177130" lon="-3.5592270">
        <ele>917.0</ele>
        <time>2020-09-29T10:27:15Z</time>
      </trkpt>
      <trkpt lat="40.9177570" lon="-3.5592270">
        <ele>917.0</ele>
        <time>2020-09-29T10:27:16Z</time>
      </trkpt>
      <trkpt lat="40.9178020" lon="-3.5592250">
        <ele>917.0</ele>
        <time>2020-09-29T10:27:17Z</time>
      </trkpt>
      <trkpt lat="40.9178020" lon="-3.5592250">
        <ele>917.0</ele>
        <time>2020-09-29T10:27:18Z</time>
      </trkpt>
      <trkpt lat="40.9178950" lon="-3.5592330">
        <ele>917.0</ele>
        <time>2020-09-29T10:27:19Z</time>
      </trkpt>
      <trkpt lat="40.9178950" lon="-3.5592330">
        <ele>917.0</ele>
        <time>2020-09-29T10:27:20Z</time>
      </trkpt>
      <trkpt lat="40.9178950" lon="-3.5592330">
        <ele>917.0</ele>
        <time>2020-09-29T10:27:21Z</time>
      </trkpt>
      <trkpt lat="40.9180380" lon="-3.5592600">
        <ele>917.0</ele>
        <time>2020-09-29T10:27:22Z</time>
      </trkpt>
      <trkpt lat="40.9180380" lon="-3.5592600">
        <ele>917.0</ele>
        <time>2020-09-29T10:27:23Z</time>
      </trkpt>
      <trkpt lat="40.9181350" lon="-3.5592780">
        <ele>917.0</ele>
        <time>2020-09-29T10:27:24Z</time>
      </trkpt>
      <trkpt lat="40.9181870" lon="-3.5592950">
        <ele>917.0</ele>
        <time>2020-09-29T10:27:25Z</time>
      </trkpt>
      <trkpt lat="40.9181870" lon="-3.5592950">
        <ele>917.0</ele>
        <time>2020-09-29T10:27:26Z</time>
      </trkpt>
      <trkpt lat="40.9182900" lon="-3.5593270">
        <ele>917.0</ele>
        <time>2020-09-29T10:27:27Z</time>
      </trkpt>
      <trkpt lat="40.9183470" lon="-3.5593370">
        <ele>917.0</ele>
        <time>2020-09-29T10:27:28Z</time>
      </trkpt>
      <trkpt lat="40.9183470" lon="-3.5593370">
        <ele>917.0</ele>
        <time>2020-09-29T10:27:29Z</time>
      </trkpt>
      <trkpt lat="40.9184600" lon="-3.5593630">
        <ele>917.0</ele>
        <time>2020-09-29T10:27:30Z</time>
      </trkpt>
      <trkpt lat="40.9185180" lon="-3.5593780">
        <ele>917.0</ele>
        <time>2020-09-29T10:27:31Z</time>
      </trkpt>
      <trkpt lat="40.9185180" lon="-3.5593780">
        <ele>917.0</ele>
        <time>2020-09-29T10:27:32Z</time>
      </trkpt>
      <trkpt lat="40.9186350" lon="-3.5594070">
        <ele>917.0</ele>
        <time>2020-09-29T10:27:33Z</time>
      </trkpt>
      <trkpt lat="40.9186930" lon="-3.5594220">
        <ele>917.0</ele>
        <time>2020-09-29T10:27:34Z</time>
      </trkpt>
      <trkpt lat="40.9186930" lon="-3.5594220">
        <ele>917.0</ele>
        <time>2020-09-29T10:27:35Z</time>
      </trkpt>
      <trkpt lat="40.9188150" lon="-3.5594500">
        <ele>917.0</ele>
        <time>2020-09-29T10:27:36Z</time>
      </trkpt>
      <trkpt lat="40.9188770" lon="-3.5594650">
        <ele>917.0</ele>
        <time>2020-09-29T10:27:37Z</time>
      </trkpt>
      <trkpt lat="40.9188770" lon="-3.5594650">
        <ele>917.0</ele>
        <time>2020-09-29T10:27:38Z</time>
      </trkpt>
      <trkpt lat="40.9189980" lon="-3.5594930">
        <ele>917.0</ele>
        <time>2020-09-29T10:27:39Z</time>
      </trkpt>
      <trkpt lat="40.9189980" lon="-3.5594930">
        <ele>917.0</ele>
        <time>2020-09-29T10:27:40Z</time>
      </trkpt>
      <trkpt lat="40.9191200" lon="-3.5595200">
        <ele>917.0</ele>
        <time>2020-09-29T10:27:41Z</time>
      </trkpt>
      <trkpt lat="40.9191200" lon="-3.5595200">
        <ele>917.0</ele>
        <time>2020-09-29T10:27:42Z</time>
      </trkpt>
      <trkpt lat="40.9192380" lon="-3.5595520">
        <ele>917.0</ele>
        <time>2020-09-29T10:27:43Z</time>
      </trkpt>
      <trkpt lat="40.9192380" lon="-3.5595520">
        <ele>917.0</ele>
        <time>2020-09-29T10:27:44Z</time>
      </trkpt>
      <trkpt lat="40.9193620" lon="-3.5595800">
        <ele>917.0</ele>
        <time>2020-09-29T10:27:45Z</time>
      </trkpt>
      <trkpt lat="40.9193620" lon="-3.5595800">
        <ele>917.0</ele>
        <time>2020-09-29T10:27:46Z</time>
      </trkpt>
      <trkpt lat="40.9194850" lon="-3.5596050">
        <ele>917.0</ele>
        <time>2020-09-29T10:27:47Z</time>
      </trkpt>
      <trkpt lat="40.9195470" lon="-3.5596180">
        <ele>917.0</ele>
        <time>2020-09-29T10:27:48Z</time>
      </trkpt>
      <trkpt lat="40.9196080" lon="-3.5596350">
        <ele>917.0</ele>
        <time>2020-09-29T10:27:49Z</time>
      </trkpt>
      <trkpt lat="40.9196080" lon="-3.5596350">
        <ele>916.0</ele>
        <time>2020-09-29T10:27:50Z</time>
      </trkpt>
      <trkpt lat="40.9197320" lon="-3.5596670">
        <ele>916.0</ele>
        <time>2020-09-29T10:27:51Z</time>
      </trkpt>
      <trkpt lat="40.9197320" lon="-3.5596670">
        <ele>916.0</ele>
        <time>2020-09-29T10:27:52Z</time>
      </trkpt>
      <trkpt lat="40.9198550" lon="-3.5596870">
        <ele>916.0</ele>
        <time>2020-09-29T10:27:53Z</time>
      </trkpt>
      <trkpt lat="40.9198550" lon="-3.5596870">
        <ele>916.0</ele>
        <time>2020-09-29T10:27:54Z</time>
      </trkpt>
      <trkpt lat="40.9199770" lon="-3.5597170">
        <ele>916.0</ele>
        <time>2020-09-29T10:27:55Z</time>
      </trkpt>
      <trkpt lat="40.9199770" lon="-3.5597170">
        <ele>916.0</ele>
        <time>2020-09-29T10:27:56Z</time>
      </trkpt>
      <trkpt lat="40.9201020" lon="-3.5597480">
        <ele>916.0</ele>
        <time>2020-09-29T10:27:57Z</time>
      </trkpt>
      <trkpt lat="40.9201020" lon="-3.5597480">
        <ele>916.0</ele>
        <time>2020-09-29T10:27:58Z</time>
      </trkpt>
      <trkpt lat="40.9201020" lon="-3.5597480">
        <ele>916.0</ele>
        <time>2020-09-29T10:27:59Z</time>
      </trkpt>
      <trkpt lat="40.9202870" lon="-3.5598050">
        <ele>916.0</ele>
        <time>2020-09-29T10:28:00Z</time>
      </trkpt>
      <trkpt lat="40.9202870" lon="-3.5598050">
        <ele>916.0</ele>
        <time>2020-09-29T10:28:01Z</time>
      </trkpt>
      <trkpt lat="40.9204120" lon="-3.5598450">
        <ele>916.0</ele>
        <time>2020-09-29T10:28:02Z</time>
      </trkpt>
      <trkpt lat="40.9204700" lon="-3.5598650">
        <ele>916.0</ele>
        <time>2020-09-29T10:28:03Z</time>
      </trkpt>
      <trkpt lat="40.9204700" lon="-3.5598650">
        <ele>916.0</ele>
        <time>2020-09-29T10:28:04Z</time>
      </trkpt>
      <trkpt lat="40.9205850" lon="-3.5599130">
        <ele>916.0</ele>
        <time>2020-09-29T10:28:05Z</time>
      </trkpt>
      <trkpt lat="40.9206450" lon="-3.5599370">
        <ele>916.0</ele>
        <time>2020-09-29T10:28:06Z</time>
      </trkpt>
      <trkpt lat="40.9206450" lon="-3.5599370">
        <ele>916.0</ele>
        <time>2020-09-29T10:28:07Z</time>
      </trkpt>
      <trkpt lat="40.9207670" lon="-3.5599870">
        <ele>916.0</ele>
        <time>2020-09-29T10:28:08Z</time>
      </trkpt>
      <trkpt lat="40.9208270" lon="-3.5600100">
        <ele>916.0</ele>
        <time>2020-09-29T10:28:09Z</time>
      </trkpt>
      <trkpt lat="40.9208270" lon="-3.5600100">
        <ele>916.0</ele>
        <time>2020-09-29T10:28:10Z</time>
      </trkpt>
      <trkpt lat="40.9209480" lon="-3.5600520">
        <ele>916.0</ele>
        <time>2020-09-29T10:28:11Z</time>
      </trkpt>
      <trkpt lat="40.9209480" lon="-3.5600520">
        <ele>916.0</ele>
        <time>2020-09-29T10:28:12Z</time>
      </trkpt>
      <trkpt lat="40.9210670" lon="-3.5600980">
        <ele>916.0</ele>
        <time>2020-09-29T10:28:13Z</time>
      </trkpt>
      <trkpt lat="40.9210670" lon="-3.5600980">
        <ele>916.0</ele>
        <time>2020-09-29T10:28:14Z</time>
      </trkpt>
      <trkpt lat="40.9211900" lon="-3.5601470">
        <ele>916.0</ele>
        <time>2020-09-29T10:28:15Z</time>
      </trkpt>
      <trkpt lat="40.9212500" lon="-3.5601720">
        <ele>916.0</ele>
        <time>2020-09-29T10:28:16Z</time>
      </trkpt>
      <trkpt lat="40.9212500" lon="-3.5601720">
        <ele>916.0</ele>
        <time>2020-09-29T10:28:17Z</time>
      </trkpt>
      <trkpt lat="40.9213680" lon="-3.5602180">
        <ele>916.0</ele>
        <time>2020-09-29T10:28:18Z</time>
      </trkpt>
      <trkpt lat="40.9213680" lon="-3.5602180">
        <ele>916.0</ele>
        <time>2020-09-29T10:28:19Z</time>
      </trkpt>
      <trkpt lat="40.9214830" lon="-3.5602730">
        <ele>916.0</ele>
        <time>2020-09-29T10:28:20Z</time>
      </trkpt>
      <trkpt lat="40.9214830" lon="-3.5602730">
        <ele>916.0</ele>
        <time>2020-09-29T10:28:21Z</time>
      </trkpt>
      <trkpt lat="40.9216020" lon="-3.5603250">
        <ele>916.0</ele>
        <time>2020-09-29T10:28:22Z</time>
      </trkpt>
      <trkpt lat="40.9216580" lon="-3.5603520">
        <ele>916.0</ele>
        <time>2020-09-29T10:28:23Z</time>
      </trkpt>
      <trkpt lat="40.9216580" lon="-3.5603520">
        <ele>916.0</ele>
        <time>2020-09-29T10:28:24Z</time>
      </trkpt>
      <trkpt lat="40.9217750" lon="-3.5604000">
        <ele>916.0</ele>
        <time>2020-09-29T10:28:25Z</time>
      </trkpt>
      <trkpt lat="40.9217750" lon="-3.5604000">
        <ele>916.0</ele>
        <time>2020-09-29T10:28:26Z</time>
      </trkpt>
      <trkpt lat="40.9218920" lon="-3.5604470">
        <ele>916.0</ele>
        <time>2020-09-29T10:28:27Z</time>
      </trkpt>
      <trkpt lat="40.9219480" lon="-3.5604680">
        <ele>916.0</ele>
        <time>2020-09-29T10:28:28Z</time>
      </trkpt>
      <trkpt lat="40.9219480" lon="-3.5604680">
        <ele>916.0</ele>
        <time>2020-09-29T10:28:29Z</time>
      </trkpt>
      <trkpt lat="40.9220620" lon="-3.5605130">
        <ele>916.0</ele>
        <time>2020-09-29T10:28:30Z</time>
      </trkpt>
      <trkpt lat="40.9220620" lon="-3.5605130">
        <ele>916.0</ele>
        <time>2020-09-29T10:28:31Z</time>
      </trkpt>
      <trkpt lat="40.9221750" lon="-3.5605620">
        <ele>916.0</ele>
        <time>2020-09-29T10:28:32Z</time>
      </trkpt>
      <trkpt lat="40.9221750" lon="-3.5605620">
        <ele>916.0</ele>
        <time>2020-09-29T10:28:33Z</time>
      </trkpt>
      <trkpt lat="40.9222870" lon="-3.5606070">
        <ele>916.0</ele>
        <time>2020-09-29T10:28:34Z</time>
      </trkpt>
      <trkpt lat="40.9223420" lon="-3.5606300">
        <ele>916.0</ele>
        <time>2020-09-29T10:28:35Z</time>
      </trkpt>
      <trkpt lat="40.9223420" lon="-3.5606300">
        <ele>916.0</ele>
        <time>2020-09-29T10:28:36Z</time>
      </trkpt>
      <trkpt lat="40.9224520" lon="-3.5606720">
        <ele>916.0</ele>
        <time>2020-09-29T10:28:37Z</time>
      </trkpt>
      <trkpt lat="40.9225050" lon="-3.5606930">
        <ele>916.0</ele>
        <time>2020-09-29T10:28:38Z</time>
      </trkpt>
      <trkpt lat="40.9225050" lon="-3.5606930">
        <ele>916.0</ele>
        <time>2020-09-29T10:28:39Z</time>
      </trkpt>
      <trkpt lat="40.9226180" lon="-3.5607350">
        <ele>916.0</ele>
        <time>2020-09-29T10:28:40Z</time>
      </trkpt>
      <trkpt lat="40.9226730" lon="-3.5607570">
        <ele>916.0</ele>
        <time>2020-09-29T10:28:41Z</time>
      </trkpt>
      <trkpt lat="40.9226730" lon="-3.5607570">
        <ele>916.0</ele>
        <time>2020-09-29T10:28:42Z</time>
      </trkpt>
      <trkpt lat="40.9227830" lon="-3.5607980">
        <ele>917.0</ele>
        <time>2020-09-29T10:28:43Z</time>
      </trkpt>
      <trkpt lat="40.9227830" lon="-3.5607980">
        <ele>917.0</ele>
        <time>2020-09-29T10:28:44Z</time>
      </trkpt>
      <trkpt lat="40.9228950" lon="-3.5608400">
        <ele>917.0</ele>
        <time>2020-09-29T10:28:45Z</time>
      </trkpt>
      <trkpt lat="40.9228950" lon="-3.5608400">
        <ele>917.0</ele>
        <time>2020-09-29T10:28:46Z</time>
      </trkpt>
      <trkpt lat="40.9230020" lon="-3.5608900">
        <ele>917.0</ele>
        <time>2020-09-29T10:28:47Z</time>
      </trkpt>
      <trkpt lat="40.9230020" lon="-3.5608900">
        <ele>917.0</ele>
        <time>2020-09-29T10:28:48Z</time>
      </trkpt>
      <trkpt lat="40.9231130" lon="-3.5609420">
        <ele>917.0</ele>
        <time>2020-09-29T10:28:49Z</time>
      </trkpt>
      <trkpt lat="40.9231130" lon="-3.5609420">
        <ele>917.0</ele>
        <time>2020-09-29T10:28:50Z</time>
      </trkpt>
      <trkpt lat="40.9232300" lon="-3.5609900">
        <ele>917.0</ele>
        <time>2020-09-29T10:28:51Z</time>
      </trkpt>
      <trkpt lat="40.9232300" lon="-3.5609900">
        <ele>917.0</ele>
        <time>2020-09-29T10:28:52Z</time>
      </trkpt>
      <trkpt lat="40.9233470" lon="-3.5610420">
        <ele>917.0</ele>
        <time>2020-09-29T10:28:53Z</time>
      </trkpt>
      <trkpt lat="40.9234070" lon="-3.5610670">
        <ele>917.0</ele>
        <time>2020-09-29T10:28:54Z</time>
      </trkpt>
      <trkpt lat="40.9234670" lon="-3.5610920">
        <ele>917.0</ele>
        <time>2020-09-29T10:28:55Z</time>
      </trkpt>
      <trkpt lat="40.9234670" lon="-3.5610920">
        <ele>917.0</ele>
        <time>2020-09-29T10:28:56Z</time>
      </trkpt>
      <trkpt lat="40.9235880" lon="-3.5611370">
        <ele>917.0</ele>
        <time>2020-09-29T10:28:57Z</time>
      </trkpt>
      <trkpt lat="40.9235880" lon="-3.5611370">
        <ele>917.0</ele>
        <time>2020-09-29T10:28:58Z</time>
      </trkpt>
      <trkpt lat="40.9237130" lon="-3.5611870">
        <ele>917.0</ele>
        <time>2020-09-29T10:28:59Z</time>
      </trkpt>
      <trkpt lat="40.9237130" lon="-3.5611870">
        <ele>917.0</ele>
        <time>2020-09-29T10:29:00Z</time>
      </trkpt>
      <trkpt lat="40.9238370" lon="-3.5612530">
        <ele>917.0</ele>
        <time>2020-09-29T10:29:01Z</time>
      </trkpt>
      <trkpt lat="40.9238370" lon="-3.5612530">
        <ele>917.0</ele>
        <time>2020-09-29T10:29:02Z</time>
      </trkpt>
      <trkpt lat="40.9239630" lon="-3.5613250">
        <ele>917.0</ele>
        <time>2020-09-29T10:29:03Z</time>
      </trkpt>
      <trkpt lat="40.9240250" lon="-3.5613680">
        <ele>917.0</ele>
        <time>2020-09-29T10:29:04Z</time>
      </trkpt>
      <trkpt lat="40.9240250" lon="-3.5613680">
        <ele>917.0</ele>
        <time>2020-09-29T10:29:05Z</time>
      </trkpt>
      <trkpt lat="40.9241450" lon="-3.5614680">
        <ele>917.0</ele>
        <time>2020-09-29T10:29:06Z</time>
      </trkpt>
      <trkpt lat="40.9241450" lon="-3.5614680">
        <ele>917.0</ele>
        <time>2020-09-29T10:29:07Z</time>
      </trkpt>
      <trkpt lat="40.9242620" lon="-3.5615720">
        <ele>917.0</ele>
        <time>2020-09-29T10:29:08Z</time>
      </trkpt>
      <trkpt lat="40.9242620" lon="-3.5615720">
        <ele>917.0</ele>
        <time>2020-09-29T10:29:09Z</time>
      </trkpt>
      <trkpt lat="40.9243750" lon="-3.5616830">
        <ele>917.0</ele>
        <time>2020-09-29T10:29:10Z</time>
      </trkpt>
      <trkpt lat="40.9243750" lon="-3.5616830">
        <ele>916.0</ele>
        <time>2020-09-29T10:29:11Z</time>
      </trkpt>
      <trkpt lat="40.9244880" lon="-3.5617950">
        <ele>916.0</ele>
        <time>2020-09-29T10:29:12Z</time>
      </trkpt>
      <trkpt lat="40.9245450" lon="-3.5618500">
        <ele>916.0</ele>
        <time>2020-09-29T10:29:13Z</time>
      </trkpt>
      <trkpt lat="40.9245450" lon="-3.5618500">
        <ele>916.0</ele>
        <time>2020-09-29T10:29:14Z</time>
      </trkpt>
      <trkpt lat="40.9246530" lon="-3.5619630">
        <ele>916.0</ele>
        <time>2020-09-29T10:29:15Z</time>
      </trkpt>
      <trkpt lat="40.9246530" lon="-3.5619630">
        <ele>916.0</ele>
        <time>2020-09-29T10:29:16Z</time>
      </trkpt>
      <trkpt lat="40.9247650" lon="-3.5620770">
        <ele>916.0</ele>
        <time>2020-09-29T10:29:17Z</time>
      </trkpt>
      <trkpt lat="40.9247650" lon="-3.5620770">
        <ele>916.0</ele>
        <time>2020-09-29T10:29:18Z</time>
      </trkpt>
      <trkpt lat="40.9247650" lon="-3.5620770">
        <ele>916.0</ele>
        <time>2020-09-29T10:29:19Z</time>
      </trkpt>
      <trkpt lat="40.9248750" lon="-3.5621930">
        <ele>916.0</ele>
        <time>2020-09-29T10:29:20Z</time>
      </trkpt>
      <trkpt lat="40.9249880" lon="-3.5623070">
        <ele>916.0</ele>
        <time>2020-09-29T10:29:21Z</time>
      </trkpt>
      <trkpt lat="40.9249880" lon="-3.5623070">
        <ele>916.0</ele>
        <time>2020-09-29T10:29:22Z</time>
      </trkpt>
      <trkpt lat="40.9250980" lon="-3.5624180">
        <ele>916.0</ele>
        <time>2020-09-29T10:29:23Z</time>
      </trkpt>
      <trkpt lat="40.9250980" lon="-3.5624180">
        <ele>916.0</ele>
        <time>2020-09-29T10:29:24Z</time>
      </trkpt>
      <trkpt lat="40.9252050" lon="-3.5625330">
        <ele>915.0</ele>
        <time>2020-09-29T10:29:25Z</time>
      </trkpt>
      <trkpt lat="40.9252050" lon="-3.5625330">
        <ele>915.0</ele>
        <time>2020-09-29T10:29:26Z</time>
      </trkpt>
      <trkpt lat="40.9253180" lon="-3.5626450">
        <ele>915.0</ele>
        <time>2020-09-29T10:29:27Z</time>
      </trkpt>
      <trkpt lat="40.9253180" lon="-3.5626450">
        <ele>915.0</ele>
        <time>2020-09-29T10:29:28Z</time>
      </trkpt>
      <trkpt lat="40.9254330" lon="-3.5627520">
        <ele>915.0</ele>
        <time>2020-09-29T10:29:29Z</time>
      </trkpt>
      <trkpt lat="40.9254330" lon="-3.5627520">
        <ele>915.0</ele>
        <time>2020-09-29T10:29:30Z</time>
      </trkpt>
      <trkpt lat="40.9255470" lon="-3.5628620">
        <ele>915.0</ele>
        <time>2020-09-29T10:29:31Z</time>
      </trkpt>
      <trkpt lat="40.9255470" lon="-3.5628620">
        <ele>915.0</ele>
        <time>2020-09-29T10:29:32Z</time>
      </trkpt>
      <trkpt lat="40.9256620" lon="-3.5629700">
        <ele>915.0</ele>
        <time>2020-09-29T10:29:33Z</time>
      </trkpt>
      <trkpt lat="40.9256620" lon="-3.5629700">
        <ele>915.0</ele>
        <time>2020-09-29T10:29:34Z</time>
      </trkpt>
      <trkpt lat="40.9257750" lon="-3.5630830">
        <ele>915.0</ele>
        <time>2020-09-29T10:29:35Z</time>
      </trkpt>
      <trkpt lat="40.9258300" lon="-3.5631420">
        <ele>915.0</ele>
        <time>2020-09-29T10:29:36Z</time>
      </trkpt>
      <trkpt lat="40.9258300" lon="-3.5631420">
        <ele>915.0</ele>
        <time>2020-09-29T10:29:37Z</time>
      </trkpt>
      <trkpt lat="40.9259420" lon="-3.5632580">
        <ele>914.0</ele>
        <time>2020-09-29T10:29:38Z</time>
      </trkpt>
      <trkpt lat="40.9259980" lon="-3.5633130">
        <ele>914.0</ele>
        <time>2020-09-29T10:29:39Z</time>
      </trkpt>
      <trkpt lat="40.9259980" lon="-3.5633130">
        <ele>914.0</ele>
        <time>2020-09-29T10:29:40Z</time>
      </trkpt>
      <trkpt lat="40.9261120" lon="-3.5634250">
        <ele>914.0</ele>
        <time>2020-09-29T10:29:41Z</time>
      </trkpt>
      <trkpt lat="40.9261680" lon="-3.5634800">
        <ele>914.0</ele>
        <time>2020-09-29T10:29:42Z</time>
      </trkpt>
      <trkpt lat="40.9261680" lon="-3.5634800">
        <ele>914.0</ele>
        <time>2020-09-29T10:29:43Z</time>
      </trkpt>
      <trkpt lat="40.9262820" lon="-3.5635900">
        <ele>914.0</ele>
        <time>2020-09-29T10:29:44Z</time>
      </trkpt>
      <trkpt lat="40.9263380" lon="-3.5636430">
        <ele>914.0</ele>
        <time>2020-09-29T10:29:45Z</time>
      </trkpt>
      <trkpt lat="40.9263380" lon="-3.5636430">
        <ele>914.0</ele>
        <time>2020-09-29T10:29:46Z</time>
      </trkpt>
      <trkpt lat="40.9264530" lon="-3.5637500">
        <ele>914.0</ele>
        <time>2020-09-29T10:29:47Z</time>
      </trkpt>
      <trkpt lat="40.9264530" lon="-3.5637500">
        <ele>914.0</ele>
        <time>2020-09-29T10:29:48Z</time>
      </trkpt>
      <trkpt lat="40.9265680" lon="-3.5638570">
        <ele>914.0</ele>
        <time>2020-09-29T10:29:49Z</time>
      </trkpt>
      <trkpt lat="40.9265680" lon="-3.5638570">
        <ele>914.0</ele>
        <time>2020-09-29T10:29:50Z</time>
      </trkpt>
      <trkpt lat="40.9266830" lon="-3.5639670">
        <ele>914.0</ele>
        <time>2020-09-29T10:29:51Z</time>
      </trkpt>
      <trkpt lat="40.9266830" lon="-3.5639670">
        <ele>914.0</ele>
        <time>2020-09-29T10:29:52Z</time>
      </trkpt>
      <trkpt lat="40.9268000" lon="-3.5640770">
        <ele>914.0</ele>
        <time>2020-09-29T10:29:53Z</time>
      </trkpt>
      <trkpt lat="40.9268570" lon="-3.5641320">
        <ele>914.0</ele>
        <time>2020-09-29T10:29:54Z</time>
      </trkpt>
      <trkpt lat="40.9269150" lon="-3.5641850">
        <ele>914.0</ele>
        <time>2020-09-29T10:29:55Z</time>
      </trkpt>
      <trkpt lat="40.9269150" lon="-3.5641850">
        <ele>914.0</ele>
        <time>2020-09-29T10:29:56Z</time>
      </trkpt>
      <trkpt lat="40.9270250" lon="-3.5642820">
        <ele>914.0</ele>
        <time>2020-09-29T10:29:57Z</time>
      </trkpt>
      <trkpt lat="40.9270780" lon="-3.5643370">
        <ele>914.0</ele>
        <time>2020-09-29T10:29:58Z</time>
      </trkpt>
      <trkpt lat="40.9270780" lon="-3.5643370">
        <ele>914.0</ele>
        <time>2020-09-29T10:29:59Z</time>
      </trkpt>
      <trkpt lat="40.9271920" lon="-3.5644380">
        <ele>914.0</ele>
        <time>2020-09-29T10:30:00Z</time>
      </trkpt>
      <trkpt lat="40.9272480" lon="-3.5644920">
        <ele>914.0</ele>
        <time>2020-09-29T10:30:01Z</time>
      </trkpt>
      <trkpt lat="40.9272480" lon="-3.5644920">
        <ele>914.0</ele>
        <time>2020-09-29T10:30:02Z</time>
      </trkpt>
      <trkpt lat="40.9273650" lon="-3.5646000">
        <ele>914.0</ele>
        <time>2020-09-29T10:30:03Z</time>
      </trkpt>
      <trkpt lat="40.9273650" lon="-3.5646000">
        <ele>914.0</ele>
        <time>2020-09-29T10:30:04Z</time>
      </trkpt>
      <trkpt lat="40.9274780" lon="-3.5647050">
        <ele>913.0</ele>
        <time>2020-09-29T10:30:05Z</time>
      </trkpt>
      <trkpt lat="40.9274780" lon="-3.5647050">
        <ele>913.0</ele>
        <time>2020-09-29T10:30:06Z</time>
      </trkpt>
      <trkpt lat="40.9275900" lon="-3.5648170">
        <ele>913.0</ele>
        <time>2020-09-29T10:30:07Z</time>
      </trkpt>
      <trkpt lat="40.9275900" lon="-3.5648170">
        <ele>913.0</ele>
        <time>2020-09-29T10:30:08Z</time>
      </trkpt>
      <trkpt lat="40.9277070" lon="-3.5649230">
        <ele>913.0</ele>
        <time>2020-09-29T10:30:09Z</time>
      </trkpt>
      <trkpt lat="40.9277070" lon="-3.5649230">
        <ele>913.0</ele>
        <time>2020-09-29T10:30:10Z</time>
      </trkpt>
      <trkpt lat="40.9278180" lon="-3.5650300">
        <ele>913.0</ele>
        <time>2020-09-29T10:30:11Z</time>
      </trkpt>
      <trkpt lat="40.9278180" lon="-3.5650300">
        <ele>913.0</ele>
        <time>2020-09-29T10:30:12Z</time>
      </trkpt>
      <trkpt lat="40.9279320" lon="-3.5651370">
        <ele>913.0</ele>
        <time>2020-09-29T10:30:13Z</time>
      </trkpt>
      <trkpt lat="40.9279920" lon="-3.5651880">
        <ele>913.0</ele>
        <time>2020-09-29T10:30:14Z</time>
      </trkpt>
      <trkpt lat="40.9279920" lon="-3.5651880">
        <ele>913.0</ele>
        <time>2020-09-29T10:30:15Z</time>
      </trkpt>
      <trkpt lat="40.9281050" lon="-3.5652950">
        <ele>913.0</ele>
        <time>2020-09-29T10:30:16Z</time>
      </trkpt>
      <trkpt lat="40.9281620" lon="-3.5653500">
        <ele>913.0</ele>
        <time>2020-09-29T10:30:17Z</time>
      </trkpt>
      <trkpt lat="40.9281620" lon="-3.5653500">
        <ele>913.0</ele>
        <time>2020-09-29T10:30:18Z</time>
      </trkpt>
      <trkpt lat="40.9282750" lon="-3.5654530">
        <ele>913.0</ele>
        <time>2020-09-29T10:30:19Z</time>
      </trkpt>
      <trkpt lat="40.9282750" lon="-3.5654530">
        <ele>913.0</ele>
        <time>2020-09-29T10:30:20Z</time>
      </trkpt>
      <trkpt lat="40.9283870" lon="-3.5655570">
        <ele>913.0</ele>
        <time>2020-09-29T10:30:21Z</time>
      </trkpt>
      <trkpt lat="40.9284420" lon="-3.5656080">
        <ele>913.0</ele>
        <time>2020-09-29T10:30:22Z</time>
      </trkpt>
      <trkpt lat="40.9284420" lon="-3.5656080">
        <ele>913.0</ele>
        <time>2020-09-29T10:30:23Z</time>
      </trkpt>
      <trkpt lat="40.9285520" lon="-3.5657180">
        <ele>913.0</ele>
        <time>2020-09-29T10:30:24Z</time>
      </trkpt>
      <trkpt lat="40.9286080" lon="-3.5657720">
        <ele>913.0</ele>
        <time>2020-09-29T10:30:25Z</time>
      </trkpt>
      <trkpt lat="40.9286080" lon="-3.5657720">
        <ele>912.0</ele>
        <time>2020-09-29T10:30:26Z</time>
      </trkpt>
      <trkpt lat="40.9287250" lon="-3.5658750">
        <ele>912.0</ele>
        <time>2020-09-29T10:30:27Z</time>
      </trkpt>
      <trkpt lat="40.9287820" lon="-3.5659300">
        <ele>912.0</ele>
        <time>2020-09-29T10:30:28Z</time>
      </trkpt>
      <trkpt lat="40.9287820" lon="-3.5659300">
        <ele>912.0</ele>
        <time>2020-09-29T10:30:29Z</time>
      </trkpt>
      <trkpt lat="40.9289000" lon="-3.5660400">
        <ele>912.0</ele>
        <time>2020-09-29T10:30:30Z</time>
      </trkpt>
      <trkpt lat="40.9289580" lon="-3.5660930">
        <ele>912.0</ele>
        <time>2020-09-29T10:30:31Z</time>
      </trkpt>
      <trkpt lat="40.9289580" lon="-3.5660930">
        <ele>912.0</ele>
        <time>2020-09-29T10:30:32Z</time>
      </trkpt>
      <trkpt lat="40.9290730" lon="-3.5661980">
        <ele>912.0</ele>
        <time>2020-09-29T10:30:33Z</time>
      </trkpt>
      <trkpt lat="40.9290730" lon="-3.5661980">
        <ele>912.0</ele>
        <time>2020-09-29T10:30:34Z</time>
      </trkpt>
      <trkpt lat="40.9291880" lon="-3.5663030">
        <ele>912.0</ele>
        <time>2020-09-29T10:30:35Z</time>
      </trkpt>
      <trkpt lat="40.9291880" lon="-3.5663030">
        <ele>912.0</ele>
        <time>2020-09-29T10:30:36Z</time>
      </trkpt>
      <trkpt lat="40.9293050" lon="-3.5664100">
        <ele>912.0</ele>
        <time>2020-09-29T10:30:37Z</time>
      </trkpt>
      <trkpt lat="40.9293630" lon="-3.5664630">
        <ele>912.0</ele>
        <time>2020-09-29T10:30:38Z</time>
      </trkpt>
      <trkpt lat="40.9293630" lon="-3.5664630">
        <ele>912.0</ele>
        <time>2020-09-29T10:30:39Z</time>
      </trkpt>
      <trkpt lat="40.9294800" lon="-3.5665700">
        <ele>912.0</ele>
        <time>2020-09-29T10:30:40Z</time>
      </trkpt>
      <trkpt lat="40.9294800" lon="-3.5665700">
        <ele>912.0</ele>
        <time>2020-09-29T10:30:41Z</time>
      </trkpt>
      <trkpt lat="40.9295980" lon="-3.5666780">
        <ele>912.0</ele>
        <time>2020-09-29T10:30:42Z</time>
      </trkpt>
      <trkpt lat="40.9296570" lon="-3.5667350">
        <ele>912.0</ele>
        <time>2020-09-29T10:30:43Z</time>
      </trkpt>
      <trkpt lat="40.9296570" lon="-3.5667350">
        <ele>912.0</ele>
        <time>2020-09-29T10:30:44Z</time>
      </trkpt>
      <trkpt lat="40.9297720" lon="-3.5668420">
        <ele>912.0</ele>
        <time>2020-09-29T10:30:45Z</time>
      </trkpt>
      <trkpt lat="40.9298300" lon="-3.5668950">
        <ele>912.0</ele>
        <time>2020-09-29T10:30:46Z</time>
      </trkpt>
      <trkpt lat="40.9298300" lon="-3.5668950">
        <ele>912.0</ele>
        <time>2020-09-29T10:30:47Z</time>
      </trkpt>
      <trkpt lat="40.9299430" lon="-3.5670000">
        <ele>912.0</ele>
        <time>2020-09-29T10:30:48Z</time>
      </trkpt>
      <trkpt lat="40.9300000" lon="-3.5670500">
        <ele>912.0</ele>
        <time>2020-09-29T10:30:49Z</time>
      </trkpt>
      <trkpt lat="40.9300000" lon="-3.5670500">
        <ele>912.0</ele>
        <time>2020-09-29T10:30:50Z</time>
      </trkpt>
      <trkpt lat="40.9301120" lon="-3.5671530">
        <ele>912.0</ele>
        <time>2020-09-29T10:30:51Z</time>
      </trkpt>
      <trkpt lat="40.9301120" lon="-3.5671530">
        <ele>912.0</ele>
        <time>2020-09-29T10:30:52Z</time>
      </trkpt>
      <trkpt lat="40.9302230" lon="-3.5672550">
        <ele>912.0</ele>
        <time>2020-09-29T10:30:53Z</time>
      </trkpt>
      <trkpt lat="40.9302230" lon="-3.5672550">
        <ele>912.0</ele>
        <time>2020-09-29T10:30:54Z</time>
      </trkpt>
      <trkpt lat="40.9303350" lon="-3.5673580">
        <ele>912.0</ele>
        <time>2020-09-29T10:30:55Z</time>
      </trkpt>
      <trkpt lat="40.9303350" lon="-3.5673580">
        <ele>912.0</ele>
        <time>2020-09-29T10:30:56Z</time>
      </trkpt>
      <trkpt lat="40.9304430" lon="-3.5674600">
        <ele>912.0</ele>
        <time>2020-09-29T10:30:57Z</time>
      </trkpt>
      <trkpt lat="40.9304430" lon="-3.5674600">
        <ele>912.0</ele>
        <time>2020-09-29T10:30:58Z</time>
      </trkpt>
      <trkpt lat="40.9305520" lon="-3.5675580">
        <ele>912.0</ele>
        <time>2020-09-29T10:30:59Z</time>
      </trkpt>
      <trkpt lat="40.9305520" lon="-3.5675580">
        <ele>912.0</ele>
        <time>2020-09-29T10:31:00Z</time>
      </trkpt>
      <trkpt lat="40.9306600" lon="-3.5676570">
        <ele>912.0</ele>
        <time>2020-09-29T10:31:01Z</time>
      </trkpt>
      <trkpt lat="40.9306600" lon="-3.5676570">
        <ele>912.0</ele>
        <time>2020-09-29T10:31:02Z</time>
      </trkpt>
      <trkpt lat="40.9307650" lon="-3.5677570">
        <ele>912.0</ele>
        <time>2020-09-29T10:31:03Z</time>
      </trkpt>
      <trkpt lat="40.9308180" lon="-3.5678050">
        <ele>912.0</ele>
        <time>2020-09-29T10:31:04Z</time>
      </trkpt>
      <trkpt lat="40.9308580" lon="-3.5678420">
        <ele>912.0</ele>
        <time>2020-09-29T10:31:05Z</time>
      </trkpt>
      <trkpt lat="40.9308980" lon="-3.5678800">
        <ele>912.0</ele>
        <time>2020-09-29T10:31:06Z</time>
      </trkpt>
      <trkpt lat="40.9309770" lon="-3.5679550">
        <ele>912.0</ele>
        <time>2020-09-29T10:31:07Z</time>
      </trkpt>
      <trkpt lat="40.9310300" lon="-3.5680030">
        <ele>912.0</ele>
        <time>2020-09-29T10:31:08Z</time>
      </trkpt>
      <trkpt lat="40.9310300" lon="-3.5680030">
        <ele>912.0</ele>
        <time>2020-09-29T10:31:09Z</time>
      </trkpt>
      <trkpt lat="40.9311330" lon="-3.5681020">
        <ele>912.0</ele>
        <time>2020-09-29T10:31:10Z</time>
      </trkpt>
      <trkpt lat="40.9311330" lon="-3.5681020">
        <ele>912.0</ele>
        <time>2020-09-29T10:31:11Z</time>
      </trkpt>
      <trkpt lat="40.9312420" lon="-3.5682030">
        <ele>912.0</ele>
        <time>2020-09-29T10:31:12Z</time>
      </trkpt>
      <trkpt lat="40.9312950" lon="-3.5682520">
        <ele>912.0</ele>
        <time>2020-09-29T10:31:13Z</time>
      </trkpt>
      <trkpt lat="40.9312950" lon="-3.5682520">
        <ele>912.0</ele>
        <time>2020-09-29T10:31:14Z</time>
      </trkpt>
      <trkpt lat="40.9314050" lon="-3.5683530">
        <ele>912.0</ele>
        <time>2020-09-29T10:31:15Z</time>
      </trkpt>
      <trkpt lat="40.9314050" lon="-3.5683530">
        <ele>912.0</ele>
        <time>2020-09-29T10:31:16Z</time>
      </trkpt>
      <trkpt lat="40.9315150" lon="-3.5684520">
        <ele>912.0</ele>
        <time>2020-09-29T10:31:17Z</time>
      </trkpt>
      <trkpt lat="40.9315150" lon="-3.5684520">
        <ele>912.0</ele>
        <time>2020-09-29T10:31:18Z</time>
      </trkpt>
      <trkpt lat="40.9316220" lon="-3.5685520">
        <ele>912.0</ele>
        <time>2020-09-29T10:31:19Z</time>
      </trkpt>
      <trkpt lat="40.9316220" lon="-3.5685520">
        <ele>912.0</ele>
        <time>2020-09-29T10:31:20Z</time>
      </trkpt>
      <trkpt lat="40.9317320" lon="-3.5686500">
        <ele>912.0</ele>
        <time>2020-09-29T10:31:21Z</time>
      </trkpt>
      <trkpt lat="40.9317320" lon="-3.5686500">
        <ele>912.0</ele>
        <time>2020-09-29T10:31:22Z</time>
      </trkpt>
      <trkpt lat="40.9318450" lon="-3.5687430">
        <ele>912.0</ele>
        <time>2020-09-29T10:31:23Z</time>
      </trkpt>
      <trkpt lat="40.9318450" lon="-3.5687430">
        <ele>912.0</ele>
        <time>2020-09-29T10:31:24Z</time>
      </trkpt>
      <trkpt lat="40.9319620" lon="-3.5688320">
        <ele>912.0</ele>
        <time>2020-09-29T10:31:25Z</time>
      </trkpt>
      <trkpt lat="40.9320220" lon="-3.5688730">
        <ele>912.0</ele>
        <time>2020-09-29T10:31:26Z</time>
      </trkpt>
      <trkpt lat="40.9320220" lon="-3.5688730">
        <ele>912.0</ele>
        <time>2020-09-29T10:31:27Z</time>
      </trkpt>
      <trkpt lat="40.9321450" lon="-3.5689570">
        <ele>912.0</ele>
        <time>2020-09-29T10:31:28Z</time>
      </trkpt>
      <trkpt lat="40.9321450" lon="-3.5689570">
        <ele>912.0</ele>
        <time>2020-09-29T10:31:29Z</time>
      </trkpt>
      <trkpt lat="40.9322700" lon="-3.5690320">
        <ele>912.0</ele>
        <time>2020-09-29T10:31:30Z</time>
      </trkpt>
      <trkpt lat="40.9323350" lon="-3.5690680">
        <ele>912.0</ele>
        <time>2020-09-29T10:31:31Z</time>
      </trkpt>
      <trkpt lat="40.9323350" lon="-3.5690680">
        <ele>912.0</ele>
        <time>2020-09-29T10:31:32Z</time>
      </trkpt>
      <trkpt lat="40.9324630" lon="-3.5691470">
        <ele>912.0</ele>
        <time>2020-09-29T10:31:33Z</time>
      </trkpt>
      <trkpt lat="40.9324630" lon="-3.5691470">
        <ele>912.0</ele>
        <time>2020-09-29T10:31:34Z</time>
      </trkpt>
      <trkpt lat="40.9325930" lon="-3.5692280">
        <ele>912.0</ele>
        <time>2020-09-29T10:31:35Z</time>
      </trkpt>
      <trkpt lat="40.9325930" lon="-3.5692280">
        <ele>911.0</ele>
        <time>2020-09-29T10:31:36Z</time>
      </trkpt>
      <trkpt lat="40.9327230" lon="-3.5693100">
        <ele>911.0</ele>
        <time>2020-09-29T10:31:37Z</time>
      </trkpt>
      <trkpt lat="40.9327230" lon="-3.5693100">
        <ele>911.0</ele>
        <time>2020-09-29T10:31:38Z</time>
      </trkpt>
      <trkpt lat="40.9328550" lon="-3.5693880">
        <ele>911.0</ele>
        <time>2020-09-29T10:31:39Z</time>
      </trkpt>
      <trkpt lat="40.9328550" lon="-3.5693880">
        <ele>911.0</ele>
        <time>2020-09-29T10:31:40Z</time>
      </trkpt>
      <trkpt lat="40.9329880" lon="-3.5694700">
        <ele>910.0</ele>
        <time>2020-09-29T10:31:41Z</time>
      </trkpt>
      <trkpt lat="40.9329880" lon="-3.5694700">
        <ele>910.0</ele>
        <time>2020-09-29T10:31:42Z</time>
      </trkpt>
      <trkpt lat="40.9331220" lon="-3.5695520">
        <ele>910.0</ele>
        <time>2020-09-29T10:31:43Z</time>
      </trkpt>
      <trkpt lat="40.9331220" lon="-3.5695520">
        <ele>910.0</ele>
        <time>2020-09-29T10:31:44Z</time>
      </trkpt>
      <trkpt lat="40.9332600" lon="-3.5696350">
        <ele>910.0</ele>
        <time>2020-09-29T10:31:45Z</time>
      </trkpt>
      <trkpt lat="40.9332600" lon="-3.5696350">
        <ele>910.0</ele>
        <time>2020-09-29T10:31:46Z</time>
      </trkpt>
      <trkpt lat="40.9334020" lon="-3.5697220">
        <ele>909.0</ele>
        <time>2020-09-29T10:31:47Z</time>
      </trkpt>
      <trkpt lat="40.9334020" lon="-3.5697220">
        <ele>909.0</ele>
        <time>2020-09-29T10:31:48Z</time>
      </trkpt>
      <trkpt lat="40.9335420" lon="-3.5698000">
        <ele>909.0</ele>
        <time>2020-09-29T10:31:49Z</time>
      </trkpt>
      <trkpt lat="40.9335420" lon="-3.5698000">
        <ele>909.0</ele>
        <time>2020-09-29T10:31:50Z</time>
      </trkpt>
      <trkpt lat="40.9336750" lon="-3.5698870">
        <ele>909.0</ele>
        <time>2020-09-29T10:31:51Z</time>
      </trkpt>
      <trkpt lat="40.9337450" lon="-3.5699320">
        <ele>909.0</ele>
        <time>2020-09-29T10:31:52Z</time>
      </trkpt>
      <trkpt lat="40.9338150" lon="-3.5699720">
        <ele>908.0</ele>
        <time>2020-09-29T10:31:53Z</time>
      </trkpt>
      <trkpt lat="40.9338150" lon="-3.5699720">
        <ele>908.0</ele>
        <time>2020-09-29T10:31:54Z</time>
      </trkpt>
      <trkpt lat="40.9339520" lon="-3.5700520">
        <ele>908.0</ele>
        <time>2020-09-29T10:31:55Z</time>
      </trkpt>
      <trkpt lat="40.9339520" lon="-3.5700520">
        <ele>908.0</ele>
        <time>2020-09-29T10:31:56Z</time>
      </trkpt>
      <trkpt lat="40.9340830" lon="-3.5701330">
        <ele>908.0</ele>
        <time>2020-09-29T10:31:57Z</time>
      </trkpt>
      <trkpt lat="40.9340830" lon="-3.5701330">
        <ele>908.0</ele>
        <time>2020-09-29T10:31:58Z</time>
      </trkpt>
      <trkpt lat="40.9342170" lon="-3.5702100">
        <ele>908.0</ele>
        <time>2020-09-29T10:31:59Z</time>
      </trkpt>
      <trkpt lat="40.9342830" lon="-3.5702480">
        <ele>908.0</ele>
        <time>2020-09-29T10:32:00Z</time>
      </trkpt>
      <trkpt lat="40.9343500" lon="-3.5702850">
        <ele>908.0</ele>
        <time>2020-09-29T10:32:01Z</time>
      </trkpt>
      <trkpt lat="40.9343500" lon="-3.5702850">
        <ele>908.0</ele>
        <time>2020-09-29T10:32:02Z</time>
      </trkpt>
      <trkpt lat="40.9344780" lon="-3.5703570">
        <ele>908.0</ele>
        <time>2020-09-29T10:32:03Z</time>
      </trkpt>
      <trkpt lat="40.9344780" lon="-3.5703570">
        <ele>908.0</ele>
        <time>2020-09-29T10:32:04Z</time>
      </trkpt>
      <trkpt lat="40.9346000" lon="-3.5704330">
        <ele>908.0</ele>
        <time>2020-09-29T10:32:05Z</time>
      </trkpt>
      <trkpt lat="40.9346000" lon="-3.5704330">
        <ele>908.0</ele>
        <time>2020-09-29T10:32:06Z</time>
      </trkpt>
      <trkpt lat="40.9347130" lon="-3.5705000">
        <ele>908.0</ele>
        <time>2020-09-29T10:32:07Z</time>
      </trkpt>
      <trkpt lat="40.9347130" lon="-3.5705000">
        <ele>908.0</ele>
        <time>2020-09-29T10:32:08Z</time>
      </trkpt>
      <trkpt lat="40.9348150" lon="-3.5705600">
        <ele>909.0</ele>
        <time>2020-09-29T10:32:09Z</time>
      </trkpt>
      <trkpt lat="40.9348150" lon="-3.5705600">
        <ele>909.0</ele>
        <time>2020-09-29T10:32:10Z</time>
      </trkpt>
      <trkpt lat="40.9349030" lon="-3.5706180">
        <ele>909.0</ele>
        <time>2020-09-29T10:32:11Z</time>
      </trkpt>
      <trkpt lat="40.9349030" lon="-3.5706180">
        <ele>909.0</ele>
        <time>2020-09-29T10:32:12Z</time>
      </trkpt>
      <trkpt lat="40.9349900" lon="-3.5706680">
        <ele>910.0</ele>
        <time>2020-09-29T10:32:13Z</time>
      </trkpt>
      <trkpt lat="40.9349900" lon="-3.5706680">
        <ele>910.0</ele>
        <time>2020-09-29T10:32:14Z</time>
      </trkpt>
      <trkpt lat="40.9350770" lon="-3.5707220">
        <ele>910.0</ele>
        <time>2020-09-29T10:32:15Z</time>
      </trkpt>
      <trkpt lat="40.9351200" lon="-3.5707450">
        <ele>911.0</ele>
        <time>2020-09-29T10:32:16Z</time>
      </trkpt>
      <trkpt lat="40.9351620" lon="-3.5707700">
        <ele>911.0</ele>
        <time>2020-09-29T10:32:17Z</time>
      </trkpt>
      <trkpt lat="40.9351620" lon="-3.5707700">
        <ele>911.0</ele>
        <time>2020-09-29T10:32:18Z</time>
      </trkpt>
      <trkpt lat="40.9352470" lon="-3.5708230">
        <ele>911.0</ele>
        <time>2020-09-29T10:32:19Z</time>
      </trkpt>
      <trkpt lat="40.9352470" lon="-3.5708230">
        <ele>912.0</ele>
        <time>2020-09-29T10:32:20Z</time>
      </trkpt>
      <trkpt lat="40.9353250" lon="-3.5708720">
        <ele>912.0</ele>
        <time>2020-09-29T10:32:21Z</time>
      </trkpt>
      <trkpt lat="40.9353250" lon="-3.5708720">
        <ele>913.0</ele>
        <time>2020-09-29T10:32:22Z</time>
      </trkpt>
      <trkpt lat="40.9354070" lon="-3.5709200">
        <ele>913.0</ele>
        <time>2020-09-29T10:32:23Z</time>
      </trkpt>
      <trkpt lat="40.9354070" lon="-3.5709200">
        <ele>914.0</ele>
        <time>2020-09-29T10:32:24Z</time>
      </trkpt>
      <trkpt lat="40.9354850" lon="-3.5709630">
        <ele>914.0</ele>
        <time>2020-09-29T10:32:25Z</time>
      </trkpt>
      <trkpt lat="40.9354850" lon="-3.5709630">
        <ele>915.0</ele>
        <time>2020-09-29T10:32:26Z</time>
      </trkpt>
      <trkpt lat="40.9355580" lon="-3.5710030">
        <ele>915.0</ele>
        <time>2020-09-29T10:32:27Z</time>
      </trkpt>
      <trkpt lat="40.9355580" lon="-3.5710030">
        <ele>915.0</ele>
        <time>2020-09-29T10:32:28Z</time>
      </trkpt>
      <trkpt lat="40.9355580" lon="-3.5710030">
        <ele>915.0</ele>
        <time>2020-09-29T10:32:29Z</time>
      </trkpt>
      <trkpt lat="40.9356280" lon="-3.5710420">
        <ele>916.0</ele>
        <time>2020-09-29T10:32:30Z</time>
      </trkpt>
      <trkpt lat="40.9356930" lon="-3.5710880">
        <ele>916.0</ele>
        <time>2020-09-29T10:32:31Z</time>
      </trkpt>
      <trkpt lat="40.9356930" lon="-3.5710880">
        <ele>916.0</ele>
        <time>2020-09-29T10:32:32Z</time>
      </trkpt>
      <trkpt lat="40.9357600" lon="-3.5711320">
        <ele>916.0</ele>
        <time>2020-09-29T10:32:33Z</time>
      </trkpt>
      <trkpt lat="40.9357930" lon="-3.5711500">
        <ele>917.0</ele>
        <time>2020-09-29T10:32:34Z</time>
      </trkpt>
      <trkpt lat="40.9357930" lon="-3.5711500">
        <ele>917.0</ele>
        <time>2020-09-29T10:32:35Z</time>
      </trkpt>
      <trkpt lat="40.9358620" lon="-3.5711900">
        <ele>917.0</ele>
        <time>2020-09-29T10:32:36Z</time>
      </trkpt>
      <trkpt lat="40.9358970" lon="-3.5712100">
        <ele>917.0</ele>
        <time>2020-09-29T10:32:37Z</time>
      </trkpt>
      <trkpt lat="40.9358970" lon="-3.5712100">
        <ele>917.0</ele>
        <time>2020-09-29T10:32:38Z</time>
      </trkpt>
      <trkpt lat="40.9359680" lon="-3.5712470">
        <ele>919.0</ele>
        <time>2020-09-29T10:32:39Z</time>
      </trkpt>
      <trkpt lat="40.9359680" lon="-3.5712470">
        <ele>919.0</ele>
        <time>2020-09-29T10:32:40Z</time>
      </trkpt>
      <trkpt lat="40.9360330" lon="-3.5712820">
        <ele>919.0</ele>
        <time>2020-09-29T10:32:41Z</time>
      </trkpt>
      <trkpt lat="40.9360330" lon="-3.5712820">
        <ele>919.0</ele>
        <time>2020-09-29T10:32:42Z</time>
      </trkpt>
      <trkpt lat="40.9361000" lon="-3.5713180">
        <ele>920.0</ele>
        <time>2020-09-29T10:32:43Z</time>
      </trkpt>
      <trkpt lat="40.9361000" lon="-3.5713180">
        <ele>920.0</ele>
        <time>2020-09-29T10:32:44Z</time>
      </trkpt>
      <trkpt lat="40.9361700" lon="-3.5713500">
        <ele>920.0</ele>
        <time>2020-09-29T10:32:45Z</time>
      </trkpt>
      <trkpt lat="40.9361700" lon="-3.5713500">
        <ele>920.0</ele>
        <time>2020-09-29T10:32:46Z</time>
      </trkpt>
      <trkpt lat="40.9362400" lon="-3.5713800">
        <ele>921.0</ele>
        <time>2020-09-29T10:32:47Z</time>
      </trkpt>
      <trkpt lat="40.9362400" lon="-3.5713800">
        <ele>921.0</ele>
        <time>2020-09-29T10:32:48Z</time>
      </trkpt>
      <trkpt lat="40.9363100" lon="-3.5714100">
        <ele>922.0</ele>
        <time>2020-09-29T10:32:49Z</time>
      </trkpt>
      <trkpt lat="40.9363100" lon="-3.5714100">
        <ele>922.0</ele>
        <time>2020-09-29T10:32:50Z</time>
      </trkpt>
      <trkpt lat="40.9363780" lon="-3.5714280">
        <ele>922.0</ele>
        <time>2020-09-29T10:32:51Z</time>
      </trkpt>
      <trkpt lat="40.9363780" lon="-3.5714280">
        <ele>922.0</ele>
        <time>2020-09-29T10:32:52Z</time>
      </trkpt>
      <trkpt lat="40.9364470" lon="-3.5714530">
        <ele>922.0</ele>
        <time>2020-09-29T10:32:53Z</time>
      </trkpt>
      <trkpt lat="40.9364470" lon="-3.5714530">
        <ele>923.0</ele>
        <time>2020-09-29T10:32:54Z</time>
      </trkpt>
      <trkpt lat="40.9365170" lon="-3.5714720">
        <ele>923.0</ele>
        <time>2020-09-29T10:32:55Z</time>
      </trkpt>
      <trkpt lat="40.9365520" lon="-3.5714770">
        <ele>923.0</ele>
        <time>2020-09-29T10:32:56Z</time>
      </trkpt>
      <trkpt lat="40.9365520" lon="-3.5714770">
        <ele>923.0</ele>
        <time>2020-09-29T10:32:57Z</time>
      </trkpt>
      <trkpt lat="40.9366180" lon="-3.5714950">
        <ele>924.0</ele>
        <time>2020-09-29T10:32:58Z</time>
      </trkpt>
      <trkpt lat="40.9366550" lon="-3.5715000">
        <ele>924.0</ele>
        <time>2020-09-29T10:32:59Z</time>
      </trkpt>
      <trkpt lat="40.9366550" lon="-3.5715000">
        <ele>924.0</ele>
        <time>2020-09-29T10:33:00Z</time>
      </trkpt>
      <trkpt lat="40.9367250" lon="-3.5715070">
        <ele>924.0</ele>
        <time>2020-09-29T10:33:01Z</time>
      </trkpt>
      <trkpt lat="40.9367250" lon="-3.5715070">
        <ele>924.0</ele>
        <time>2020-09-29T10:33:02Z</time>
      </trkpt>
      <trkpt lat="40.9367970" lon="-3.5715130">
        <ele>924.0</ele>
        <time>2020-09-29T10:33:03Z</time>
      </trkpt>
      <trkpt lat="40.9368330" lon="-3.5715130">
        <ele>925.0</ele>
        <time>2020-09-29T10:33:04Z</time>
      </trkpt>
      <trkpt lat="40.9368330" lon="-3.5715130">
        <ele>925.0</ele>
        <time>2020-09-29T10:33:05Z</time>
      </trkpt>
      <trkpt lat="40.9369050" lon="-3.5715130">
        <ele>925.0</ele>
        <time>2020-09-29T10:33:06Z</time>
      </trkpt>
      <trkpt lat="40.9369420" lon="-3.5715130">
        <ele>925.0</ele>
        <time>2020-09-29T10:33:07Z</time>
      </trkpt>
      <trkpt lat="40.9369780" lon="-3.5715100">
        <ele>926.0</ele>
        <time>2020-09-29T10:33:08Z</time>
      </trkpt>
      <trkpt lat="40.9369780" lon="-3.5715100">
        <ele>926.0</ele>
        <time>2020-09-29T10:33:09Z</time>
      </trkpt>
      <trkpt lat="40.9370550" lon="-3.5715050">
        <ele>926.0</ele>
        <time>2020-09-29T10:33:10Z</time>
      </trkpt>
      <trkpt lat="40.9370920" lon="-3.5715030">
        <ele>926.0</ele>
        <time>2020-09-29T10:33:11Z</time>
      </trkpt>
      <trkpt lat="40.9370920" lon="-3.5715030">
        <ele>927.0</ele>
        <time>2020-09-29T10:33:12Z</time>
      </trkpt>
      <trkpt lat="40.9371650" lon="-3.5714900">
        <ele>927.0</ele>
        <time>2020-09-29T10:33:13Z</time>
      </trkpt>
      <trkpt lat="40.9371650" lon="-3.5714900">
        <ele>927.0</ele>
        <time>2020-09-29T10:33:14Z</time>
      </trkpt>
      <trkpt lat="40.9372400" lon="-3.5714750">
        <ele>927.0</ele>
        <time>2020-09-29T10:33:15Z</time>
      </trkpt>
      <trkpt lat="40.9372400" lon="-3.5714750">
        <ele>928.0</ele>
        <time>2020-09-29T10:33:16Z</time>
      </trkpt>
      <trkpt lat="40.9373130" lon="-3.5714550">
        <ele>928.0</ele>
        <time>2020-09-29T10:33:17Z</time>
      </trkpt>
      <trkpt lat="40.9373520" lon="-3.5714470">
        <ele>928.0</ele>
        <time>2020-09-29T10:33:18Z</time>
      </trkpt>
      <trkpt lat="40.9373520" lon="-3.5714470">
        <ele>928.0</ele>
        <time>2020-09-29T10:33:19Z</time>
      </trkpt>
      <trkpt lat="40.9374270" lon="-3.5714380">
        <ele>929.0</ele>
        <time>2020-09-29T10:33:20Z</time>
      </trkpt>
      <trkpt lat="40.9374270" lon="-3.5714380">
        <ele>929.0</ele>
        <time>2020-09-29T10:33:21Z</time>
      </trkpt>
      <trkpt lat="40.9374980" lon="-3.5714100">
        <ele>929.0</ele>
        <time>2020-09-29T10:33:22Z</time>
      </trkpt>
      <trkpt lat="40.9374980" lon="-3.5714100">
        <ele>929.0</ele>
        <time>2020-09-29T10:33:23Z</time>
      </trkpt>
      <trkpt lat="40.9375670" lon="-3.5713700">
        <ele>930.0</ele>
        <time>2020-09-29T10:33:24Z</time>
      </trkpt>
      <trkpt lat="40.9376020" lon="-3.5713500">
        <ele>930.0</ele>
        <time>2020-09-29T10:33:25Z</time>
      </trkpt>
      <trkpt lat="40.9376020" lon="-3.5713500">
        <ele>930.0</ele>
        <time>2020-09-29T10:33:26Z</time>
      </trkpt>
      <trkpt lat="40.9376730" lon="-3.5713170">
        <ele>930.0</ele>
        <time>2020-09-29T10:33:27Z</time>
      </trkpt>
      <trkpt lat="40.9377070" lon="-3.5712970">
        <ele>930.0</ele>
        <time>2020-09-29T10:33:28Z</time>
      </trkpt>
      <trkpt lat="40.9377070" lon="-3.5712970">
        <ele>930.0</ele>
        <time>2020-09-29T10:33:29Z</time>
      </trkpt>
      <trkpt lat="40.9377730" lon="-3.5712520">
        <ele>930.0</ele>
        <time>2020-09-29T10:33:30Z</time>
      </trkpt>
      <trkpt lat="40.9378050" lon="-3.5712300">
        <ele>930.0</ele>
        <time>2020-09-29T10:33:31Z</time>
      </trkpt>
      <trkpt lat="40.9378050" lon="-3.5712300">
        <ele>930.0</ele>
        <time>2020-09-29T10:33:32Z</time>
      </trkpt>
      <trkpt lat="40.9378630" lon="-3.5711900">
        <ele>931.0</ele>
        <time>2020-09-29T10:33:33Z</time>
      </trkpt>
      <trkpt lat="40.9378630" lon="-3.5711900">
        <ele>931.0</ele>
        <time>2020-09-29T10:33:34Z</time>
      </trkpt>
      <trkpt lat="40.9379280" lon="-3.5711480">
        <ele>931.0</ele>
        <time>2020-09-29T10:33:35Z</time>
      </trkpt>
      <trkpt lat="40.9379600" lon="-3.5711270">
        <ele>931.0</ele>
        <time>2020-09-29T10:33:36Z</time>
      </trkpt>
      <trkpt lat="40.9379600" lon="-3.5711270">
        <ele>931.0</ele>
        <time>2020-09-29T10:33:37Z</time>
      </trkpt>
      <trkpt lat="40.9380230" lon="-3.5710820">
        <ele>931.0</ele>
        <time>2020-09-29T10:33:38Z</time>
      </trkpt>
      <trkpt lat="40.9380230" lon="-3.5710820">
        <ele>932.0</ele>
        <time>2020-09-29T10:33:39Z</time>
      </trkpt>
      <trkpt lat="40.9380230" lon="-3.5710820">
        <ele>932.0</ele>
        <time>2020-09-29T10:33:40Z</time>
      </trkpt>
      <trkpt lat="40.9380850" lon="-3.5710300">
        <ele>932.0</ele>
        <time>2020-09-29T10:33:41Z</time>
      </trkpt>
      <trkpt lat="40.9381450" lon="-3.5709720">
        <ele>932.0</ele>
        <time>2020-09-29T10:33:42Z</time>
      </trkpt>
      <trkpt lat="40.9381770" lon="-3.5709470">
        <ele>933.0</ele>
        <time>2020-09-29T10:33:43Z</time>
      </trkpt>
      <trkpt lat="40.9381770" lon="-3.5709470">
        <ele>933.0</ele>
        <time>2020-09-29T10:33:44Z</time>
      </trkpt>
      <trkpt lat="40.9382370" lon="-3.5708900">
        <ele>933.0</ele>
        <time>2020-09-29T10:33:45Z</time>
      </trkpt>
      <trkpt lat="40.9382370" lon="-3.5708900">
        <ele>933.0</ele>
        <time>2020-09-29T10:33:46Z</time>
      </trkpt>
      <trkpt lat="40.9382980" lon="-3.5708320">
        <ele>934.0</ele>
        <time>2020-09-29T10:33:47Z</time>
      </trkpt>
      <trkpt lat="40.9382980" lon="-3.5708320">
        <ele>934.0</ele>
        <time>2020-09-29T10:33:48Z</time>
      </trkpt>
      <trkpt lat="40.9383580" lon="-3.5707750">
        <ele>934.0</ele>
        <time>2020-09-29T10:33:49Z</time>
      </trkpt>
      <trkpt lat="40.9383580" lon="-3.5707750">
        <ele>934.0</ele>
        <time>2020-09-29T10:33:50Z</time>
      </trkpt>
      <trkpt lat="40.9384180" lon="-3.5707150">
        <ele>934.0</ele>
        <time>2020-09-29T10:33:51Z</time>
      </trkpt>
      <trkpt lat="40.9384180" lon="-3.5707150">
        <ele>934.0</ele>
        <time>2020-09-29T10:33:52Z</time>
      </trkpt>
      <trkpt lat="40.9384770" lon="-3.5706480">
        <ele>935.0</ele>
        <time>2020-09-29T10:33:53Z</time>
      </trkpt>
      <trkpt lat="40.9384770" lon="-3.5706480">
        <ele>935.0</ele>
        <time>2020-09-29T10:33:54Z</time>
      </trkpt>
      <trkpt lat="40.9385370" lon="-3.5705850">
        <ele>935.0</ele>
        <time>2020-09-29T10:33:55Z</time>
      </trkpt>
      <trkpt lat="40.9385670" lon="-3.5705520">
        <ele>935.0</ele>
        <time>2020-09-29T10:33:56Z</time>
      </trkpt>
      <trkpt lat="40.9385670" lon="-3.5705520">
        <ele>935.0</ele>
        <time>2020-09-29T10:33:57Z</time>
      </trkpt>
      <trkpt lat="40.9386270" lon="-3.5704880">
        <ele>936.0</ele>
        <time>2020-09-29T10:33:58Z</time>
      </trkpt>
      <trkpt lat="40.9386270" lon="-3.5704880">
        <ele>936.0</ele>
        <time>2020-09-29T10:33:59Z</time>
      </trkpt>
      <trkpt lat="40.9386850" lon="-3.5704280">
        <ele>936.0</ele>
        <time>2020-09-29T10:34:00Z</time>
      </trkpt>
      <trkpt lat="40.9387170" lon="-3.5703980">
        <ele>936.0</ele>
        <time>2020-09-29T10:34:01Z</time>
      </trkpt>
      <trkpt lat="40.9387170" lon="-3.5703980">
        <ele>937.0</ele>
        <time>2020-09-29T10:34:02Z</time>
      </trkpt>
      <trkpt lat="40.9387750" lon="-3.5703370">
        <ele>937.0</ele>
        <time>2020-09-29T10:34:03Z</time>
      </trkpt>
      <trkpt lat="40.9388030" lon="-3.5703050">
        <ele>937.0</ele>
        <time>2020-09-29T10:34:04Z</time>
      </trkpt>
      <trkpt lat="40.9388030" lon="-3.5703050">
        <ele>937.0</ele>
        <time>2020-09-29T10:34:05Z</time>
      </trkpt>
      <trkpt lat="40.9388620" lon="-3.5702430">
        <ele>938.0</ele>
        <time>2020-09-29T10:34:06Z</time>
      </trkpt>
      <trkpt lat="40.9388900" lon="-3.5702120">
        <ele>938.0</ele>
        <time>2020-09-29T10:34:07Z</time>
      </trkpt>
      <trkpt lat="40.9389200" lon="-3.5701800">
        <ele>938.0</ele>
        <time>2020-09-29T10:34:08Z</time>
      </trkpt>
      <trkpt lat="40.9389200" lon="-3.5701800">
        <ele>938.0</ele>
        <time>2020-09-29T10:34:09Z</time>
      </trkpt>
      <trkpt lat="40.9389750" lon="-3.5701150">
        <ele>938.0</ele>
        <time>2020-09-29T10:34:10Z</time>
      </trkpt>
      <trkpt lat="40.9389750" lon="-3.5701150">
        <ele>938.0</ele>
        <time>2020-09-29T10:34:11Z</time>
      </trkpt>
      <trkpt lat="40.9390370" lon="-3.5700520">
        <ele>938.0</ele>
        <time>2020-09-29T10:34:12Z</time>
      </trkpt>
      <trkpt lat="40.9390680" lon="-3.5700230">
        <ele>940.0</ele>
        <time>2020-09-29T10:34:13Z</time>
      </trkpt>
      <trkpt lat="40.9390680" lon="-3.5700230">
        <ele>940.0</ele>
        <time>2020-09-29T10:34:14Z</time>
      </trkpt>
      <trkpt lat="40.9391320" lon="-3.5699650">
        <ele>940.0</ele>
        <time>2020-09-29T10:34:15Z</time>
      </trkpt>
      <trkpt lat="40.9391320" lon="-3.5699650">
        <ele>940.0</ele>
        <time>2020-09-29T10:34:16Z</time>
      </trkpt>
      <trkpt lat="40.9391900" lon="-3.5699030">
        <ele>940.0</ele>
        <time>2020-09-29T10:34:17Z</time>
      </trkpt>
      <trkpt lat="40.9391900" lon="-3.5699030">
        <ele>940.0</ele>
        <time>2020-09-29T10:34:18Z</time>
      </trkpt>
      <trkpt lat="40.9392520" lon="-3.5698400">
        <ele>941.0</ele>
        <time>2020-09-29T10:34:19Z</time>
      </trkpt>
      <trkpt lat="40.9392520" lon="-3.5698400">
        <ele>941.0</ele>
        <time>2020-09-29T10:34:20Z</time>
      </trkpt>
      <trkpt lat="40.9393120" lon="-3.5697770">
        <ele>941.0</ele>
        <time>2020-09-29T10:34:21Z</time>
      </trkpt>
      <trkpt lat="40.9393120" lon="-3.5697770">
        <ele>941.0</ele>
        <time>2020-09-29T10:34:22Z</time>
      </trkpt>
      <trkpt lat="40.9393720" lon="-3.5697150">
        <ele>941.0</ele>
        <time>2020-09-29T10:34:23Z</time>
      </trkpt>
      <trkpt lat="40.9393720" lon="-3.5697150">
        <ele>941.0</ele>
        <time>2020-09-29T10:34:24Z</time>
      </trkpt>
      <trkpt lat="40.9394350" lon="-3.5696550">
        <ele>941.0</ele>
        <time>2020-09-29T10:34:25Z</time>
      </trkpt>
      <trkpt lat="40.9394350" lon="-3.5696550">
        <ele>941.0</ele>
        <time>2020-09-29T10:34:26Z</time>
      </trkpt>
      <trkpt lat="40.9395020" lon="-3.5695980">
        <ele>941.0</ele>
        <time>2020-09-29T10:34:27Z</time>
      </trkpt>
      <trkpt lat="40.9395370" lon="-3.5695700">
        <ele>941.0</ele>
        <time>2020-09-29T10:34:28Z</time>
      </trkpt>
      <trkpt lat="40.9395370" lon="-3.5695700">
        <ele>942.0</ele>
        <time>2020-09-29T10:34:29Z</time>
      </trkpt>
      <trkpt lat="40.9396100" lon="-3.5695180">
        <ele>942.0</ele>
        <time>2020-09-29T10:34:30Z</time>
      </trkpt>
      <trkpt lat="40.9396470" lon="-3.5694930">
        <ele>942.0</ele>
        <time>2020-09-29T10:34:31Z</time>
      </trkpt>
      <trkpt lat="40.9396470" lon="-3.5694930">
        <ele>942.0</ele>
        <time>2020-09-29T10:34:32Z</time>
      </trkpt>
      <trkpt lat="40.9397200" lon="-3.5694480">
        <ele>942.0</ele>
        <time>2020-09-29T10:34:33Z</time>
      </trkpt>
      <trkpt lat="40.9397200" lon="-3.5694480">
        <ele>942.0</ele>
        <time>2020-09-29T10:34:34Z</time>
      </trkpt>
      <trkpt lat="40.9398020" lon="-3.5694150">
        <ele>942.0</ele>
        <time>2020-09-29T10:34:35Z</time>
      </trkpt>
      <trkpt lat="40.9398020" lon="-3.5694150">
        <ele>942.0</ele>
        <time>2020-09-29T10:34:36Z</time>
      </trkpt>
      <trkpt lat="40.9398830" lon="-3.5693870">
        <ele>942.0</ele>
        <time>2020-09-29T10:34:37Z</time>
      </trkpt>
      <trkpt lat="40.9398830" lon="-3.5693870">
        <ele>942.0</ele>
        <time>2020-09-29T10:34:38Z</time>
      </trkpt>
      <trkpt lat="40.9399730" lon="-3.5693620">
        <ele>942.0</ele>
        <time>2020-09-29T10:34:39Z</time>
      </trkpt>
      <trkpt lat="40.9400200" lon="-3.5693570">
        <ele>942.0</ele>
        <time>2020-09-29T10:34:40Z</time>
      </trkpt>
      <trkpt lat="40.9400200" lon="-3.5693570">
        <ele>942.0</ele>
        <time>2020-09-29T10:34:41Z</time>
      </trkpt>
      <trkpt lat="40.9401170" lon="-3.5693480">
        <ele>942.0</ele>
        <time>2020-09-29T10:34:42Z</time>
      </trkpt>
      <trkpt lat="40.9401170" lon="-3.5693480">
        <ele>942.0</ele>
        <time>2020-09-29T10:34:43Z</time>
      </trkpt>
      <trkpt lat="40.9401670" lon="-3.5693470">
        <ele>942.0</ele>
        <time>2020-09-29T10:34:44Z</time>
      </trkpt>
      <trkpt lat="40.9402750" lon="-3.5693520">
        <ele>942.0</ele>
        <time>2020-09-29T10:34:45Z</time>
      </trkpt>
      <trkpt lat="40.9403320" lon="-3.5693500">
        <ele>942.0</ele>
        <time>2020-09-29T10:34:46Z</time>
      </trkpt>
      <trkpt lat="40.9403930" lon="-3.5693480">
        <ele>942.0</ele>
        <time>2020-09-29T10:34:47Z</time>
      </trkpt>
      <trkpt lat="40.9403930" lon="-3.5693480">
        <ele>942.0</ele>
        <time>2020-09-29T10:34:48Z</time>
      </trkpt>
      <trkpt lat="40.9405250" lon="-3.5693600">
        <ele>942.0</ele>
        <time>2020-09-29T10:34:49Z</time>
      </trkpt>
      <trkpt lat="40.9405250" lon="-3.5693600">
        <ele>942.0</ele>
        <time>2020-09-29T10:34:50Z</time>
      </trkpt>
      <trkpt lat="40.9406580" lon="-3.5693650">
        <ele>942.0</ele>
        <time>2020-09-29T10:34:51Z</time>
      </trkpt>
      <trkpt lat="40.9407270" lon="-3.5693680">
        <ele>942.0</ele>
        <time>2020-09-29T10:34:52Z</time>
      </trkpt>
      <trkpt lat="40.9407270" lon="-3.5693680">
        <ele>942.0</ele>
        <time>2020-09-29T10:34:53Z</time>
      </trkpt>
      <trkpt lat="40.9408670" lon="-3.5693770">
        <ele>942.0</ele>
        <time>2020-09-29T10:34:54Z</time>
      </trkpt>
      <trkpt lat="40.9409380" lon="-3.5693820">
        <ele>942.0</ele>
        <time>2020-09-29T10:34:55Z</time>
      </trkpt>
      <trkpt lat="40.9409380" lon="-3.5693820">
        <ele>941.0</ele>
        <time>2020-09-29T10:34:56Z</time>
      </trkpt>
      <trkpt lat="40.9410850" lon="-3.5693920">
        <ele>941.0</ele>
        <time>2020-09-29T10:34:57Z</time>
      </trkpt>
      <trkpt lat="40.9410850" lon="-3.5693920">
        <ele>941.0</ele>
        <time>2020-09-29T10:34:58Z</time>
      </trkpt>
      <trkpt lat="40.9412370" lon="-3.5694050">
        <ele>941.0</ele>
        <time>2020-09-29T10:34:59Z</time>
      </trkpt>
      <trkpt lat="40.9412370" lon="-3.5694050">
        <ele>940.0</ele>
        <time>2020-09-29T10:35:00Z</time>
      </trkpt>
      <trkpt lat="40.9413920" lon="-3.5694170">
        <ele>940.0</ele>
        <time>2020-09-29T10:35:01Z</time>
      </trkpt>
      <trkpt lat="40.9413920" lon="-3.5694170">
        <ele>940.0</ele>
        <time>2020-09-29T10:35:02Z</time>
      </trkpt>
      <trkpt lat="40.9415500" lon="-3.5694280">
        <ele>940.0</ele>
        <time>2020-09-29T10:35:03Z</time>
      </trkpt>
      <trkpt lat="40.9415500" lon="-3.5694280">
        <ele>940.0</ele>
        <time>2020-09-29T10:35:04Z</time>
      </trkpt>
      <trkpt lat="40.9417080" lon="-3.5694350">
        <ele>940.0</ele>
        <time>2020-09-29T10:35:05Z</time>
      </trkpt>
      <trkpt lat="40.9417080" lon="-3.5694350">
        <ele>940.0</ele>
        <time>2020-09-29T10:35:06Z</time>
      </trkpt>
      <trkpt lat="40.9418700" lon="-3.5694300">
        <ele>940.0</ele>
        <time>2020-09-29T10:35:07Z</time>
      </trkpt>
      <trkpt lat="40.9418700" lon="-3.5694300">
        <ele>940.0</ele>
        <time>2020-09-29T10:35:08Z</time>
      </trkpt>
      <trkpt lat="40.9420300" lon="-3.5694030">
        <ele>940.0</ele>
        <time>2020-09-29T10:35:09Z</time>
      </trkpt>
      <trkpt lat="40.9421080" lon="-3.5693830">
        <ele>940.0</ele>
        <time>2020-09-29T10:35:10Z</time>
      </trkpt>
      <trkpt lat="40.9421080" lon="-3.5693830">
        <ele>940.0</ele>
        <time>2020-09-29T10:35:11Z</time>
      </trkpt>
      <trkpt lat="40.9422630" lon="-3.5693220">
        <ele>940.0</ele>
        <time>2020-09-29T10:35:12Z</time>
      </trkpt>
      <trkpt lat="40.9422630" lon="-3.5693220">
        <ele>940.0</ele>
        <time>2020-09-29T10:35:13Z</time>
      </trkpt>
      <trkpt lat="40.9424080" lon="-3.5692330">
        <ele>940.0</ele>
        <time>2020-09-29T10:35:14Z</time>
      </trkpt>
      <trkpt lat="40.9424080" lon="-3.5692330">
        <ele>940.0</ele>
        <time>2020-09-29T10:35:15Z</time>
      </trkpt>
      <trkpt lat="40.9425480" lon="-3.5691280">
        <ele>940.0</ele>
        <time>2020-09-29T10:35:16Z</time>
      </trkpt>
      <trkpt lat="40.9425480" lon="-3.5691280">
        <ele>940.0</ele>
        <time>2020-09-29T10:35:17Z</time>
      </trkpt>
      <trkpt lat="40.9426870" lon="-3.5690250">
        <ele>940.0</ele>
        <time>2020-09-29T10:35:18Z</time>
      </trkpt>
      <trkpt lat="40.9427530" lon="-3.5689730">
        <ele>939.0</ele>
        <time>2020-09-29T10:35:19Z</time>
      </trkpt>
      <trkpt lat="40.9427530" lon="-3.5689730">
        <ele>939.0</ele>
        <time>2020-09-29T10:35:20Z</time>
      </trkpt>
      <trkpt lat="40.9428880" lon="-3.5688680">
        <ele>939.0</ele>
        <time>2020-09-29T10:35:21Z</time>
      </trkpt>
      <trkpt lat="40.9429550" lon="-3.5688180">
        <ele>939.0</ele>
        <time>2020-09-29T10:35:22Z</time>
      </trkpt>
      <trkpt lat="40.9429550" lon="-3.5688180">
        <ele>939.0</ele>
        <time>2020-09-29T10:35:23Z</time>
      </trkpt>
      <trkpt lat="40.9429550" lon="-3.5688180">
        <ele>939.0</ele>
        <time>2020-09-29T10:35:24Z</time>
      </trkpt>
      <trkpt lat="40.9431550" lon="-3.5686680">
        <ele>939.0</ele>
        <time>2020-09-29T10:35:25Z</time>
      </trkpt>
      <trkpt lat="40.9431550" lon="-3.5686680">
        <ele>939.0</ele>
        <time>2020-09-29T10:35:26Z</time>
      </trkpt>
      <trkpt lat="40.9432900" lon="-3.5685680">
        <ele>939.0</ele>
        <time>2020-09-29T10:35:27Z</time>
      </trkpt>
      <trkpt lat="40.9432900" lon="-3.5685680">
        <ele>939.0</ele>
        <time>2020-09-29T10:35:28Z</time>
      </trkpt>
      <trkpt lat="40.9434270" lon="-3.5684670">
        <ele>939.0</ele>
        <time>2020-09-29T10:35:29Z</time>
      </trkpt>
      <trkpt lat="40.9434270" lon="-3.5684670">
        <ele>939.0</ele>
        <time>2020-09-29T10:35:30Z</time>
      </trkpt>
      <trkpt lat="40.9435670" lon="-3.5683630">
        <ele>939.0</ele>
        <time>2020-09-29T10:35:31Z</time>
      </trkpt>
      <trkpt lat="40.9435670" lon="-3.5683630">
        <ele>939.0</ele>
        <time>2020-09-29T10:35:32Z</time>
      </trkpt>
      <trkpt lat="40.9437070" lon="-3.5682600">
        <ele>939.0</ele>
        <time>2020-09-29T10:35:33Z</time>
      </trkpt>
      <trkpt lat="40.9437070" lon="-3.5682600">
        <ele>939.0</ele>
        <time>2020-09-29T10:35:34Z</time>
      </trkpt>
      <trkpt lat="40.9438480" lon="-3.5681550">
        <ele>939.0</ele>
        <time>2020-09-29T10:35:35Z</time>
      </trkpt>
      <trkpt lat="40.9438480" lon="-3.5681550">
        <ele>938.0</ele>
        <time>2020-09-29T10:35:36Z</time>
      </trkpt>
      <trkpt lat="40.9439900" lon="-3.5680480">
        <ele>938.0</ele>
        <time>2020-09-29T10:35:37Z</time>
      </trkpt>
      <trkpt lat="40.9439900" lon="-3.5680480">
        <ele>938.0</ele>
        <time>2020-09-29T10:35:38Z</time>
      </trkpt>
      <trkpt lat="40.9441330" lon="-3.5679430">
        <ele>938.0</ele>
        <time>2020-09-29T10:35:39Z</time>
      </trkpt>
      <trkpt lat="40.9441330" lon="-3.5679430">
        <ele>937.0</ele>
        <time>2020-09-29T10:35:40Z</time>
      </trkpt>
      <trkpt lat="40.9442770" lon="-3.5678370">
        <ele>937.0</ele>
        <time>2020-09-29T10:35:41Z</time>
      </trkpt>
      <trkpt lat="40.9443500" lon="-3.5677830">
        <ele>937.0</ele>
        <time>2020-09-29T10:35:42Z</time>
      </trkpt>
      <trkpt lat="40.9443500" lon="-3.5677830">
        <ele>937.0</ele>
        <time>2020-09-29T10:35:43Z</time>
      </trkpt>
      <trkpt lat="40.9444950" lon="-3.5676750">
        <ele>937.0</ele>
        <time>2020-09-29T10:35:44Z</time>
      </trkpt>
      <trkpt lat="40.9444950" lon="-3.5676750">
        <ele>937.0</ele>
        <time>2020-09-29T10:35:45Z</time>
      </trkpt>
      <trkpt lat="40.9446400" lon="-3.5675670">
        <ele>936.0</ele>
        <time>2020-09-29T10:35:46Z</time>
      </trkpt>
      <trkpt lat="40.9446400" lon="-3.5675670">
        <ele>936.0</ele>
        <time>2020-09-29T10:35:47Z</time>
      </trkpt>
      <trkpt lat="40.9447870" lon="-3.5674600">
        <ele>936.0</ele>
        <time>2020-09-29T10:35:48Z</time>
      </trkpt>
      <trkpt lat="40.9448600" lon="-3.5674030">
        <ele>936.0</ele>
        <time>2020-09-29T10:35:49Z</time>
      </trkpt>
      <trkpt lat="40.9448600" lon="-3.5674030">
        <ele>936.0</ele>
        <time>2020-09-29T10:35:50Z</time>
      </trkpt>
      <trkpt lat="40.9450070" lon="-3.5672950">
        <ele>936.0</ele>
        <time>2020-09-29T10:35:51Z</time>
      </trkpt>
      <trkpt lat="40.9450070" lon="-3.5672950">
        <ele>935.0</ele>
        <time>2020-09-29T10:35:52Z</time>
      </trkpt>
      <trkpt lat="40.9451580" lon="-3.5671920">
        <ele>935.0</ele>
        <time>2020-09-29T10:35:53Z</time>
      </trkpt>
      <trkpt lat="40.9451580" lon="-3.5671920">
        <ele>935.0</ele>
        <time>2020-09-29T10:35:54Z</time>
      </trkpt>
      <trkpt lat="40.9453150" lon="-3.5671000">
        <ele>935.0</ele>
        <time>2020-09-29T10:35:55Z</time>
      </trkpt>
      <trkpt lat="40.9453150" lon="-3.5671000">
        <ele>935.0</ele>
        <time>2020-09-29T10:35:56Z</time>
      </trkpt>
      <trkpt lat="40.9454820" lon="-3.5670350">
        <ele>935.0</ele>
        <time>2020-09-29T10:35:57Z</time>
      </trkpt>
      <trkpt lat="40.9455680" lon="-3.5670170">
        <ele>934.0</ele>
        <time>2020-09-29T10:35:58Z</time>
      </trkpt>
      <trkpt lat="40.9455680" lon="-3.5670170">
        <ele>934.0</ele>
        <time>2020-09-29T10:35:59Z</time>
      </trkpt>
      <trkpt lat="40.9457470" lon="-3.5669880">
        <ele>934.0</ele>
        <time>2020-09-29T10:36:00Z</time>
      </trkpt>
      <trkpt lat="40.9458380" lon="-3.5669820">
        <ele>933.0</ele>
        <time>2020-09-29T10:36:01Z</time>
      </trkpt>
      <trkpt lat="40.9458380" lon="-3.5669820">
        <ele>933.0</ele>
        <time>2020-09-29T10:36:02Z</time>
      </trkpt>
      <trkpt lat="40.9460230" lon="-3.5669700">
        <ele>933.0</ele>
        <time>2020-09-29T10:36:03Z</time>
      </trkpt>
      <trkpt lat="40.9460230" lon="-3.5669700">
        <ele>933.0</ele>
        <time>2020-09-29T10:36:04Z</time>
      </trkpt>
      <trkpt lat="40.9461170" lon="-3.5669630">
        <ele>933.0</ele>
        <time>2020-09-29T10:36:05Z</time>
      </trkpt>
      <trkpt lat="40.9463050" lon="-3.5669600">
        <ele>933.0</ele>
        <time>2020-09-29T10:36:06Z</time>
      </trkpt>
      <trkpt lat="40.9463980" lon="-3.5669580">
        <ele>931.0</ele>
        <time>2020-09-29T10:36:07Z</time>
      </trkpt>
      <trkpt lat="40.9463980" lon="-3.5669580">
        <ele>931.0</ele>
        <time>2020-09-29T10:36:08Z</time>
      </trkpt>
      <trkpt lat="40.9465870" lon="-3.5669570">
        <ele>931.0</ele>
        <time>2020-09-29T10:36:09Z</time>
      </trkpt>
      <trkpt lat="40.9465870" lon="-3.5669570">
        <ele>930.0</ele>
        <time>2020-09-29T10:36:10Z</time>
      </trkpt>
      <trkpt lat="40.9467750" lon="-3.5669420">
        <ele>930.0</ele>
        <time>2020-09-29T10:36:11Z</time>
      </trkpt>
      <trkpt lat="40.9467750" lon="-3.5669420">
        <ele>930.0</ele>
        <time>2020-09-29T10:36:12Z</time>
      </trkpt>
      <trkpt lat="40.9469420" lon="-3.5668650">
        <ele>930.0</ele>
        <time>2020-09-29T10:36:13Z</time>
      </trkpt>
      <trkpt lat="40.9469420" lon="-3.5668650">
        <ele>930.0</ele>
        <time>2020-09-29T10:36:14Z</time>
      </trkpt>
      <trkpt lat="40.9470880" lon="-3.5667320">
        <ele>929.0</ele>
        <time>2020-09-29T10:36:15Z</time>
      </trkpt>
      <trkpt lat="40.9470880" lon="-3.5667320">
        <ele>929.0</ele>
        <time>2020-09-29T10:36:16Z</time>
      </trkpt>
      <trkpt lat="40.9472000" lon="-3.5665550">
        <ele>929.0</ele>
        <time>2020-09-29T10:36:17Z</time>
      </trkpt>
      <trkpt lat="40.9472380" lon="-3.5664550">
        <ele>929.0</ele>
        <time>2020-09-29T10:36:18Z</time>
      </trkpt>
      <trkpt lat="40.9472380" lon="-3.5664550">
        <ele>928.0</ele>
        <time>2020-09-29T10:36:19Z</time>
      </trkpt>
      <trkpt lat="40.9473000" lon="-3.5662550">
        <ele>928.0</ele>
        <time>2020-09-29T10:36:20Z</time>
      </trkpt>
      <trkpt lat="40.9473000" lon="-3.5662550">
        <ele>928.0</ele>
        <time>2020-09-29T10:36:21Z</time>
      </trkpt>
      <trkpt lat="40.9473520" lon="-3.5662160">
        <ele>928.0</ele>
        <time>2020-09-29T10:36:22Z</time>
      </trkpt>
      <trkpt lat="40.9474030" lon="-3.5661770">
        <ele>927.0</ele>
        <time>2020-09-29T10:36:23Z</time>
      </trkpt>
      <trkpt lat="40.9475050" lon="-3.5660980">
        <ele>927.0</ele>
        <time>2020-09-29T10:36:24Z</time>
      </trkpt>
      <trkpt lat="40.9475370" lon="-3.5661400">
        <ele>927.0</ele>
        <time>2020-09-29T10:36:25Z</time>
      </trkpt>
      <trkpt lat="40.9475370" lon="-3.5661400">
        <ele>927.0</ele>
        <time>2020-09-29T10:36:26Z</time>
      </trkpt>
      <trkpt lat="40.9475570" lon="-3.5662550">
        <ele>927.0</ele>
        <time>2020-09-29T10:36:27Z</time>
      </trkpt>
      <trkpt lat="40.9475530" lon="-3.5663200">
        <ele>927.0</ele>
        <time>2020-09-29T10:36:28Z</time>
      </trkpt>
      <trkpt lat="40.9475530" lon="-3.5663200">
        <ele>927.0</ele>
        <time>2020-09-29T10:36:29Z</time>
      </trkpt>
      <trkpt lat="40.9475550" lon="-3.5664470">
        <ele>927.0</ele>
        <time>2020-09-29T10:36:30Z</time>
      </trkpt>
      <trkpt lat="40.9475570" lon="-3.5665120">
        <ele>927.0</ele>
        <time>2020-09-29T10:36:31Z</time>
      </trkpt>
      <trkpt lat="40.9475570" lon="-3.5665120">
        <ele>927.0</ele>
        <time>2020-09-29T10:36:32Z</time>
      </trkpt>
      <trkpt lat="40.9475570" lon="-3.5666380">
        <ele>928.0</ele>
        <time>2020-09-29T10:36:33Z</time>
      </trkpt>
      <trkpt lat="40.9475580" lon="-3.5666980">
        <ele>928.0</ele>
        <time>2020-09-29T10:36:34Z</time>
      </trkpt>
      <trkpt lat="40.9475580" lon="-3.5666980">
        <ele>928.0</ele>
        <time>2020-09-29T10:36:35Z</time>
      </trkpt>
      <trkpt lat="40.9475650" lon="-3.5668150">
        <ele>928.0</ele>
        <time>2020-09-29T10:36:36Z</time>
      </trkpt>
      <trkpt lat="40.9475680" lon="-3.5668700">
        <ele>928.0</ele>
        <time>2020-09-29T10:36:37Z</time>
      </trkpt>
      <trkpt lat="40.9475680" lon="-3.5668700">
        <ele>929.0</ele>
        <time>2020-09-29T10:36:38Z</time>
      </trkpt>
      <trkpt lat="40.9475770" lon="-3.5669870">
        <ele>929.0</ele>
        <time>2020-09-29T10:36:39Z</time>
      </trkpt>
      <trkpt lat="40.9475820" lon="-3.5670470">
        <ele>929.0</ele>
        <time>2020-09-29T10:36:40Z</time>
      </trkpt>
      <trkpt lat="40.9475870" lon="-3.5671020">
        <ele>929.0</ele>
        <time>2020-09-29T10:36:41Z</time>
      </trkpt>
      <trkpt lat="40.9475870" lon="-3.5671020">
        <ele>930.0</ele>
        <time>2020-09-29T10:36:42Z</time>
      </trkpt>
      <trkpt lat="40.9475950" lon="-3.5672200">
        <ele>930.0</ele>
        <time>2020-09-29T10:36:43Z</time>
      </trkpt>
      <trkpt lat="40.9475950" lon="-3.5672200">
        <ele>930.0</ele>
        <time>2020-09-29T10:36:44Z</time>
      </trkpt>
      <trkpt lat="40.9476120" lon="-3.5673280">
        <ele>930.0</ele>
        <time>2020-09-29T10:36:45Z</time>
      </trkpt>
      <trkpt lat="40.9476120" lon="-3.5673280">
        <ele>931.0</ele>
        <time>2020-09-29T10:36:46Z</time>
      </trkpt>
      <trkpt lat="40.9476450" lon="-3.5674280">
        <ele>931.0</ele>
        <time>2020-09-29T10:36:47Z</time>
      </trkpt>
      <trkpt lat="40.9476450" lon="-3.5674280">
        <ele>931.0</ele>
        <time>2020-09-29T10:36:48Z</time>
      </trkpt>
      <trkpt lat="40.9476850" lon="-3.5675170">
        <ele>931.0</ele>
        <time>2020-09-29T10:36:49Z</time>
      </trkpt>
      <trkpt lat="40.9476850" lon="-3.5675170">
        <ele>932.0</ele>
        <time>2020-09-29T10:36:50Z</time>
      </trkpt>
      <trkpt lat="40.9477270" lon="-3.5675820">
        <ele>932.0</ele>
        <time>2020-09-29T10:36:51Z</time>
      </trkpt>
      <trkpt lat="40.9477270" lon="-3.5675820">
        <ele>932.0</ele>
        <time>2020-09-29T10:36:52Z</time>
      </trkpt>
      <trkpt lat="40.9477720" lon="-3.5676400">
        <ele>932.0</ele>
        <time>2020-09-29T10:36:53Z</time>
      </trkpt>
      <trkpt lat="40.9477950" lon="-3.5676680">
        <ele>933.0</ele>
        <time>2020-09-29T10:36:54Z</time>
      </trkpt>
      <trkpt lat="40.9477950" lon="-3.5676680">
        <ele>933.0</ele>
        <time>2020-09-29T10:36:55Z</time>
      </trkpt>
      <trkpt lat="40.9478420" lon="-3.5677180">
        <ele>933.0</ele>
        <time>2020-09-29T10:36:56Z</time>
      </trkpt>
      <trkpt lat="40.9478730" lon="-3.5677380">
        <ele>933.0</ele>
        <time>2020-09-29T10:36:57Z</time>
      </trkpt>
      <trkpt lat="40.9478730" lon="-3.5677380">
        <ele>934.0</ele>
        <time>2020-09-29T10:36:58Z</time>
      </trkpt>
      <trkpt lat="40.9479320" lon="-3.5678030">
        <ele>934.0</ele>
        <time>2020-09-29T10:36:59Z</time>
      </trkpt>
      <trkpt lat="40.9479320" lon="-3.5678030">
        <ele>934.0</ele>
        <time>2020-09-29T10:37:00Z</time>
      </trkpt>
      <trkpt lat="40.9479770" lon="-3.5678700">
        <ele>934.0</ele>
        <time>2020-09-29T10:37:01Z</time>
      </trkpt>
      <trkpt lat="40.9479770" lon="-3.5678700">
        <ele>935.0</ele>
        <time>2020-09-29T10:37:02Z</time>
      </trkpt>
      <trkpt lat="40.9480220" lon="-3.5679350">
        <ele>935.0</ele>
        <time>2020-09-29T10:37:03Z</time>
      </trkpt>
      <trkpt lat="40.9480220" lon="-3.5679350">
        <ele>935.0</ele>
        <time>2020-09-29T10:37:04Z</time>
      </trkpt>
      <trkpt lat="40.9480720" lon="-3.5679920">
        <ele>935.0</ele>
        <time>2020-09-29T10:37:05Z</time>
      </trkpt>
      <trkpt lat="40.9480720" lon="-3.5679920">
        <ele>936.0</ele>
        <time>2020-09-29T10:37:06Z</time>
      </trkpt>
      <trkpt lat="40.9481230" lon="-3.5680500">
        <ele>936.0</ele>
        <time>2020-09-29T10:37:07Z</time>
      </trkpt>
      <trkpt lat="40.9481500" lon="-3.5680800">
        <ele>936.0</ele>
        <time>2020-09-29T10:37:08Z</time>
      </trkpt>
      <trkpt lat="40.9481500" lon="-3.5680800">
        <ele>936.0</ele>
        <time>2020-09-29T10:37:09Z</time>
      </trkpt>
      <trkpt lat="40.9482050" lon="-3.5681450">
        <ele>936.0</ele>
        <time>2020-09-29T10:37:10Z</time>
      </trkpt>
      <trkpt lat="40.9482320" lon="-3.5681770">
        <ele>936.0</ele>
        <time>2020-09-29T10:37:11Z</time>
      </trkpt>
      <trkpt lat="40.9482320" lon="-3.5681770">
        <ele>936.0</ele>
        <time>2020-09-29T10:37:12Z</time>
      </trkpt>
      <trkpt lat="40.9482870" lon="-3.5682430">
        <ele>937.0</ele>
        <time>2020-09-29T10:37:13Z</time>
      </trkpt>
      <trkpt lat="40.9483150" lon="-3.5682800">
        <ele>937.0</ele>
        <time>2020-09-29T10:37:14Z</time>
      </trkpt>
      <trkpt lat="40.9483150" lon="-3.5682800">
        <ele>937.0</ele>
        <time>2020-09-29T10:37:15Z</time>
      </trkpt>
      <trkpt lat="40.9483730" lon="-3.5683480">
        <ele>937.0</ele>
        <time>2020-09-29T10:37:16Z</time>
      </trkpt>
      <trkpt lat="40.9483730" lon="-3.5683480">
        <ele>937.0</ele>
        <time>2020-09-29T10:37:17Z</time>
      </trkpt>
      <trkpt lat="40.9484300" lon="-3.5684150">
        <ele>937.0</ele>
        <time>2020-09-29T10:37:18Z</time>
      </trkpt>
      <trkpt lat="40.9484620" lon="-3.5684470">
        <ele>937.0</ele>
        <time>2020-09-29T10:37:19Z</time>
      </trkpt>
      <trkpt lat="40.9484620" lon="-3.5684470">
        <ele>937.0</ele>
        <time>2020-09-29T10:37:20Z</time>
      </trkpt>
      <trkpt lat="40.9485220" lon="-3.5685120">
        <ele>937.0</ele>
        <time>2020-09-29T10:37:21Z</time>
      </trkpt>
      <trkpt lat="40.9485520" lon="-3.5685450">
        <ele>937.0</ele>
        <time>2020-09-29T10:37:22Z</time>
      </trkpt>
      <trkpt lat="40.9485520" lon="-3.5685450">
        <ele>937.0</ele>
        <time>2020-09-29T10:37:23Z</time>
      </trkpt>
      <trkpt lat="40.9486100" lon="-3.5686150">
        <ele>938.0</ele>
        <time>2020-09-29T10:37:24Z</time>
      </trkpt>
      <trkpt lat="40.9486400" lon="-3.5686500">
        <ele>938.0</ele>
        <time>2020-09-29T10:37:25Z</time>
      </trkpt>
      <trkpt lat="40.9486400" lon="-3.5686500">
        <ele>938.0</ele>
        <time>2020-09-29T10:37:26Z</time>
      </trkpt>
      <trkpt lat="40.9486980" lon="-3.5687220">
        <ele>938.0</ele>
        <time>2020-09-29T10:37:27Z</time>
      </trkpt>
      <trkpt lat="40.9486980" lon="-3.5687220">
        <ele>938.0</ele>
        <time>2020-09-29T10:37:28Z</time>
      </trkpt>
      <trkpt lat="40.9487620" lon="-3.5687950">
        <ele>938.0</ele>
        <time>2020-09-29T10:37:29Z</time>
      </trkpt>
      <trkpt lat="40.9487620" lon="-3.5687950">
        <ele>939.0</ele>
        <time>2020-09-29T10:37:30Z</time>
      </trkpt>
      <trkpt lat="40.9488150" lon="-3.5688680">
        <ele>939.0</ele>
        <time>2020-09-29T10:37:31Z</time>
      </trkpt>
      <trkpt lat="40.9488150" lon="-3.5688680">
        <ele>939.0</ele>
        <time>2020-09-29T10:37:32Z</time>
      </trkpt>
      <trkpt lat="40.9488570" lon="-3.5689530">
        <ele>939.0</ele>
        <time>2020-09-29T10:37:33Z</time>
      </trkpt>
      <trkpt lat="40.9488570" lon="-3.5689530">
        <ele>940.0</ele>
        <time>2020-09-29T10:37:34Z</time>
      </trkpt>
      <trkpt lat="40.9488980" lon="-3.5690280">
        <ele>940.0</ele>
        <time>2020-09-29T10:37:35Z</time>
      </trkpt>
      <trkpt lat="40.9489180" lon="-3.5690650">
        <ele>941.0</ele>
        <time>2020-09-29T10:37:36Z</time>
      </trkpt>
      <trkpt lat="40.9489180" lon="-3.5690650">
        <ele>941.0</ele>
        <time>2020-09-29T10:37:37Z</time>
      </trkpt>
      <trkpt lat="40.9489450" lon="-3.5691350">
        <ele>942.0</ele>
        <time>2020-09-29T10:37:38Z</time>
      </trkpt>
      <trkpt lat="40.9489450" lon="-3.5691350">
        <ele>942.0</ele>
        <time>2020-09-29T10:37:39Z</time>
      </trkpt>
      <trkpt lat="40.9489680" lon="-3.5692170">
        <ele>943.0</ele>
        <time>2020-09-29T10:37:40Z</time>
      </trkpt>
      <trkpt lat="40.9489830" lon="-3.5692530">
        <ele>943.0</ele>
        <time>2020-09-29T10:37:41Z</time>
      </trkpt>
      <trkpt lat="40.9489830" lon="-3.5692530">
        <ele>943.0</ele>
        <time>2020-09-29T10:37:42Z</time>
      </trkpt>
      <trkpt lat="40.9490170" lon="-3.5693350">
        <ele>943.0</ele>
        <time>2020-09-29T10:37:43Z</time>
      </trkpt>
      <trkpt lat="40.9490170" lon="-3.5693350">
        <ele>943.0</ele>
        <time>2020-09-29T10:37:44Z</time>
      </trkpt>
      <trkpt lat="40.9490480" lon="-3.5694220">
        <ele>943.0</ele>
        <time>2020-09-29T10:37:45Z</time>
      </trkpt>
      <trkpt lat="40.9490650" lon="-3.5694650">
        <ele>943.0</ele>
        <time>2020-09-29T10:37:46Z</time>
      </trkpt>
      <trkpt lat="40.9490650" lon="-3.5694650">
        <ele>943.0</ele>
        <time>2020-09-29T10:37:47Z</time>
      </trkpt>
      <trkpt lat="40.9491030" lon="-3.5695600">
        <ele>943.0</ele>
        <time>2020-09-29T10:37:48Z</time>
      </trkpt>
      <trkpt lat="40.9491030" lon="-3.5695600">
        <ele>943.0</ele>
        <time>2020-09-29T10:37:49Z</time>
      </trkpt>
      <trkpt lat="40.9491450" lon="-3.5696580">
        <ele>943.0</ele>
        <time>2020-09-29T10:37:50Z</time>
      </trkpt>
      <trkpt lat="40.9491450" lon="-3.5696580">
        <ele>943.0</ele>
        <time>2020-09-29T10:37:51Z</time>
      </trkpt>
      <trkpt lat="40.9491930" lon="-3.5697550">
        <ele>943.0</ele>
        <time>2020-09-29T10:37:52Z</time>
      </trkpt>
      <trkpt lat="40.9491930" lon="-3.5697550">
        <ele>943.0</ele>
        <time>2020-09-29T10:37:53Z</time>
      </trkpt>
      <trkpt lat="40.9492420" lon="-3.5698430">
        <ele>943.0</ele>
        <time>2020-09-29T10:37:54Z</time>
      </trkpt>
      <trkpt lat="40.9492420" lon="-3.5698430">
        <ele>943.0</ele>
        <time>2020-09-29T10:37:55Z</time>
      </trkpt>
      <trkpt lat="40.9492930" lon="-3.5699180">
        <ele>943.0</ele>
        <time>2020-09-29T10:37:56Z</time>
      </trkpt>
      <trkpt lat="40.9492930" lon="-3.5699180">
        <ele>944.0</ele>
        <time>2020-09-29T10:37:57Z</time>
      </trkpt>
      <trkpt lat="40.9493480" lon="-3.5699880">
        <ele>944.0</ele>
        <time>2020-09-29T10:37:58Z</time>
      </trkpt>
      <trkpt lat="40.9493480" lon="-3.5699880">
        <ele>944.0</ele>
        <time>2020-09-29T10:37:59Z</time>
      </trkpt>
      <trkpt lat="40.9494050" lon="-3.5700530">
        <ele>944.0</ele>
        <time>2020-09-29T10:38:00Z</time>
      </trkpt>
      <trkpt lat="40.9494350" lon="-3.5700880">
        <ele>944.0</ele>
        <time>2020-09-29T10:38:01Z</time>
      </trkpt>
      <trkpt lat="40.9494680" lon="-3.5701230">
        <ele>944.0</ele>
        <time>2020-09-29T10:38:02Z</time>
      </trkpt>
      <trkpt lat="40.9494680" lon="-3.5701230">
        <ele>945.0</ele>
        <time>2020-09-29T10:38:03Z</time>
      </trkpt>
      <trkpt lat="40.9495380" lon="-3.5701930">
        <ele>945.0</ele>
        <time>2020-09-29T10:38:04Z</time>
      </trkpt>
      <trkpt lat="40.9495720" lon="-3.5702300">
        <ele>945.0</ele>
        <time>2020-09-29T10:38:05Z</time>
      </trkpt>
      <trkpt lat="40.9495720" lon="-3.5702300">
        <ele>945.0</ele>
        <time>2020-09-29T10:38:06Z</time>
      </trkpt>
      <trkpt lat="40.9496500" lon="-3.5702950">
        <ele>945.0</ele>
        <time>2020-09-29T10:38:07Z</time>
      </trkpt>
      <trkpt lat="40.9496500" lon="-3.5702950">
        <ele>945.0</ele>
        <time>2020-09-29T10:38:08Z</time>
      </trkpt>
      <trkpt lat="40.9497300" lon="-3.5703570">
        <ele>946.0</ele>
        <time>2020-09-29T10:38:09Z</time>
      </trkpt>
      <trkpt lat="40.9497720" lon="-3.5703870">
        <ele>946.0</ele>
        <time>2020-09-29T10:38:10Z</time>
      </trkpt>
      <trkpt lat="40.9498130" lon="-3.5704180">
        <ele>946.0</ele>
        <time>2020-09-29T10:38:11Z</time>
      </trkpt>
      <trkpt lat="40.9498130" lon="-3.5704180">
        <ele>946.0</ele>
        <time>2020-09-29T10:38:12Z</time>
      </trkpt>
      <trkpt lat="40.9499000" lon="-3.5704800">
        <ele>946.0</ele>
        <time>2020-09-29T10:38:13Z</time>
      </trkpt>
      <trkpt lat="40.9499000" lon="-3.5704800">
        <ele>946.0</ele>
        <time>2020-09-29T10:38:14Z</time>
      </trkpt>
      <trkpt lat="40.9499920" lon="-3.5705450">
        <ele>946.0</ele>
        <time>2020-09-29T10:38:15Z</time>
      </trkpt>
      <trkpt lat="40.9500370" lon="-3.5705730">
        <ele>946.0</ele>
        <time>2020-09-29T10:38:16Z</time>
      </trkpt>
      <trkpt lat="40.9500370" lon="-3.5705730">
        <ele>947.0</ele>
        <time>2020-09-29T10:38:17Z</time>
      </trkpt>
      <trkpt lat="40.9501300" lon="-3.5706300">
        <ele>947.0</ele>
        <time>2020-09-29T10:38:18Z</time>
      </trkpt>
      <trkpt lat="40.9501770" lon="-3.5706600">
        <ele>947.0</ele>
        <time>2020-09-29T10:38:19Z</time>
      </trkpt>
      <trkpt lat="40.9501770" lon="-3.5706600">
        <ele>947.0</ele>
        <time>2020-09-29T10:38:20Z</time>
      </trkpt>
      <trkpt lat="40.9502700" lon="-3.5707230">
        <ele>947.0</ele>
        <time>2020-09-29T10:38:21Z</time>
      </trkpt>
      <trkpt lat="40.9503200" lon="-3.5707550">
        <ele>947.0</ele>
        <time>2020-09-29T10:38:22Z</time>
      </trkpt>
      <trkpt lat="40.9503200" lon="-3.5707550">
        <ele>947.0</ele>
        <time>2020-09-29T10:38:23Z</time>
      </trkpt>
      <trkpt lat="40.9503200" lon="-3.5707550">
        <ele>947.0</ele>
        <time>2020-09-29T10:38:24Z</time>
      </trkpt>
      <trkpt lat="40.9504720" lon="-3.5708370">
        <ele>947.0</ele>
        <time>2020-09-29T10:38:25Z</time>
      </trkpt>
      <trkpt lat="40.9504720" lon="-3.5708370">
        <ele>947.0</ele>
        <time>2020-09-29T10:38:26Z</time>
      </trkpt>
      <trkpt lat="40.9505770" lon="-3.5708700">
        <ele>947.0</ele>
        <time>2020-09-29T10:38:27Z</time>
      </trkpt>
      <trkpt lat="40.9506300" lon="-3.5708870">
        <ele>947.0</ele>
        <time>2020-09-29T10:38:28Z</time>
      </trkpt>
      <trkpt lat="40.9506300" lon="-3.5708870">
        <ele>947.0</ele>
        <time>2020-09-29T10:38:29Z</time>
      </trkpt>
      <trkpt lat="40.9507350" lon="-3.5709300">
        <ele>947.0</ele>
        <time>2020-09-29T10:38:30Z</time>
      </trkpt>
      <trkpt lat="40.9507880" lon="-3.5709470">
        <ele>947.0</ele>
        <time>2020-09-29T10:38:31Z</time>
      </trkpt>
      <trkpt lat="40.9507880" lon="-3.5709470">
        <ele>947.0</ele>
        <time>2020-09-29T10:38:32Z</time>
      </trkpt>
      <trkpt lat="40.9508950" lon="-3.5709780">
        <ele>947.0</ele>
        <time>2020-09-29T10:38:33Z</time>
      </trkpt>
      <trkpt lat="40.9509500" lon="-3.5709930">
        <ele>947.0</ele>
        <time>2020-09-29T10:38:34Z</time>
      </trkpt>
      <trkpt lat="40.9510080" lon="-3.5710100">
        <ele>947.0</ele>
        <time>2020-09-29T10:38:35Z</time>
      </trkpt>
      <trkpt lat="40.9510080" lon="-3.5710100">
        <ele>947.0</ele>
        <time>2020-09-29T10:38:36Z</time>
      </trkpt>
      <trkpt lat="40.9511180" lon="-3.5710530">
        <ele>947.0</ele>
        <time>2020-09-29T10:38:37Z</time>
      </trkpt>
      <trkpt lat="40.9511180" lon="-3.5710530">
        <ele>947.0</ele>
        <time>2020-09-29T10:38:38Z</time>
      </trkpt>
      <trkpt lat="40.9512250" lon="-3.5711020">
        <ele>947.0</ele>
        <time>2020-09-29T10:38:39Z</time>
      </trkpt>
      <trkpt lat="40.9512780" lon="-3.5711300">
        <ele>947.0</ele>
        <time>2020-09-29T10:38:40Z</time>
      </trkpt>
      <trkpt lat="40.9512780" lon="-3.5711300">
        <ele>947.0</ele>
        <time>2020-09-29T10:38:41Z</time>
      </trkpt>
      <trkpt lat="40.9513820" lon="-3.5712020">
        <ele>948.0</ele>
        <time>2020-09-29T10:38:42Z</time>
      </trkpt>
      <trkpt lat="40.9514270" lon="-3.5712500">
        <ele>948.0</ele>
        <time>2020-09-29T10:38:43Z</time>
      </trkpt>
      <trkpt lat="40.9514270" lon="-3.5712500">
        <ele>948.0</ele>
        <time>2020-09-29T10:38:44Z</time>
      </trkpt>
      <trkpt lat="40.9515130" lon="-3.5713550">
        <ele>948.0</ele>
        <time>2020-09-29T10:38:45Z</time>
      </trkpt>
      <trkpt lat="40.9515530" lon="-3.5714120">
        <ele>948.0</ele>
        <time>2020-09-29T10:38:46Z</time>
      </trkpt>
      <trkpt lat="40.9515530" lon="-3.5714120">
        <ele>948.0</ele>
        <time>2020-09-29T10:38:47Z</time>
      </trkpt>
      <trkpt lat="40.9516420" lon="-3.5715200">
        <ele>948.0</ele>
        <time>2020-09-29T10:38:48Z</time>
      </trkpt>
      <trkpt lat="40.9516850" lon="-3.5715730">
        <ele>948.0</ele>
        <time>2020-09-29T10:38:49Z</time>
      </trkpt>
      <trkpt lat="40.9516850" lon="-3.5715730">
        <ele>948.0</ele>
        <time>2020-09-29T10:38:50Z</time>
      </trkpt>
      <trkpt lat="40.9517770" lon="-3.5716680">
        <ele>948.0</ele>
        <time>2020-09-29T10:38:51Z</time>
      </trkpt>
      <trkpt lat="40.9517770" lon="-3.5716680">
        <ele>948.0</ele>
        <time>2020-09-29T10:38:52Z</time>
      </trkpt>
      <trkpt lat="40.9518730" lon="-3.5717500">
        <ele>948.0</ele>
        <time>2020-09-29T10:38:53Z</time>
      </trkpt>
      <trkpt lat="40.9518730" lon="-3.5717500">
        <ele>948.0</ele>
        <time>2020-09-29T10:38:54Z</time>
      </trkpt>
      <trkpt lat="40.9519780" lon="-3.5718220">
        <ele>948.0</ele>
        <time>2020-09-29T10:38:55Z</time>
      </trkpt>
      <trkpt lat="40.9519780" lon="-3.5718220">
        <ele>948.0</ele>
        <time>2020-09-29T10:38:56Z</time>
      </trkpt>
      <trkpt lat="40.9520820" lon="-3.5718930">
        <ele>948.0</ele>
        <time>2020-09-29T10:38:57Z</time>
      </trkpt>
      <trkpt lat="40.9520820" lon="-3.5718930">
        <ele>948.0</ele>
        <time>2020-09-29T10:38:58Z</time>
      </trkpt>
      <trkpt lat="40.9521880" lon="-3.5719620">
        <ele>949.0</ele>
        <time>2020-09-29T10:38:59Z</time>
      </trkpt>
      <trkpt lat="40.9521880" lon="-3.5719620">
        <ele>949.0</ele>
        <time>2020-09-29T10:39:00Z</time>
      </trkpt>
      <trkpt lat="40.9522870" lon="-3.5720300">
        <ele>949.0</ele>
        <time>2020-09-29T10:39:01Z</time>
      </trkpt>
      <trkpt lat="40.9522870" lon="-3.5720300">
        <ele>949.0</ele>
        <time>2020-09-29T10:39:02Z</time>
      </trkpt>
      <trkpt lat="40.9523800" lon="-3.5721070">
        <ele>949.0</ele>
        <time>2020-09-29T10:39:03Z</time>
      </trkpt>
      <trkpt lat="40.9524300" lon="-3.5721470">
        <ele>950.0</ele>
        <time>2020-09-29T10:39:04Z</time>
      </trkpt>
      <trkpt lat="40.9524800" lon="-3.5721870">
        <ele>950.0</ele>
        <time>2020-09-29T10:39:05Z</time>
      </trkpt>
      <trkpt lat="40.9524800" lon="-3.5721870">
        <ele>950.0</ele>
        <time>2020-09-29T10:39:06Z</time>
      </trkpt>
      <trkpt lat="40.9525800" lon="-3.5722630">
        <ele>950.0</ele>
        <time>2020-09-29T10:39:07Z</time>
      </trkpt>
      <trkpt lat="40.9525800" lon="-3.5722630">
        <ele>951.0</ele>
        <time>2020-09-29T10:39:08Z</time>
      </trkpt>
      <trkpt lat="40.9526800" lon="-3.5723450">
        <ele>951.0</ele>
        <time>2020-09-29T10:39:09Z</time>
      </trkpt>
      <trkpt lat="40.9526800" lon="-3.5723450">
        <ele>951.0</ele>
        <time>2020-09-29T10:39:10Z</time>
      </trkpt>
      <trkpt lat="40.9527820" lon="-3.5724350">
        <ele>951.0</ele>
        <time>2020-09-29T10:39:11Z</time>
      </trkpt>
      <trkpt lat="40.9527820" lon="-3.5724350">
        <ele>951.0</ele>
        <time>2020-09-29T10:39:12Z</time>
      </trkpt>
      <trkpt lat="40.9528780" lon="-3.5725370">
        <ele>951.0</ele>
        <time>2020-09-29T10:39:13Z</time>
      </trkpt>
      <trkpt lat="40.9528780" lon="-3.5725370">
        <ele>951.0</ele>
        <time>2020-09-29T10:39:14Z</time>
      </trkpt>
      <trkpt lat="40.9529750" lon="-3.5726430">
        <ele>951.0</ele>
        <time>2020-09-29T10:39:15Z</time>
      </trkpt>
      <trkpt lat="40.9530250" lon="-3.5726980">
        <ele>951.0</ele>
        <time>2020-09-29T10:39:16Z</time>
      </trkpt>
      <trkpt lat="40.9530250" lon="-3.5726980">
        <ele>951.0</ele>
        <time>2020-09-29T10:39:17Z</time>
      </trkpt>
      <trkpt lat="40.9531170" lon="-3.5728050">
        <ele>951.0</ele>
        <time>2020-09-29T10:39:18Z</time>
      </trkpt>
      <trkpt lat="40.9531670" lon="-3.5728530">
        <ele>951.0</ele>
        <time>2020-09-29T10:39:19Z</time>
      </trkpt>
      <trkpt lat="40.9531670" lon="-3.5728530">
        <ele>951.0</ele>
        <time>2020-09-29T10:39:20Z</time>
      </trkpt>
      <trkpt lat="40.9532570" lon="-3.5729500">
        <ele>952.0</ele>
        <time>2020-09-29T10:39:21Z</time>
      </trkpt>
      <trkpt lat="40.9532570" lon="-3.5729500">
        <ele>952.0</ele>
        <time>2020-09-29T10:39:22Z</time>
      </trkpt>
      <trkpt lat="40.9533520" lon="-3.5730480">
        <ele>952.0</ele>
        <time>2020-09-29T10:39:23Z</time>
      </trkpt>
      <trkpt lat="40.9534000" lon="-3.5730930">
        <ele>952.0</ele>
        <time>2020-09-29T10:39:24Z</time>
      </trkpt>
      <trkpt lat="40.9534500" lon="-3.5731370">
        <ele>952.0</ele>
        <time>2020-09-29T10:39:25Z</time>
      </trkpt>
      <trkpt lat="40.9534500" lon="-3.5731370">
        <ele>952.0</ele>
        <time>2020-09-29T10:39:26Z</time>
      </trkpt>
      <trkpt lat="40.9535500" lon="-3.5732150">
        <ele>952.0</ele>
        <time>2020-09-29T10:39:27Z</time>
      </trkpt>
      <trkpt lat="40.9535500" lon="-3.5732150">
        <ele>952.0</ele>
        <time>2020-09-29T10:39:28Z</time>
      </trkpt>
      <trkpt lat="40.9536600" lon="-3.5732670">
        <ele>953.0</ele>
        <time>2020-09-29T10:39:29Z</time>
      </trkpt>
      <trkpt lat="40.9536600" lon="-3.5732670">
        <ele>953.0</ele>
        <time>2020-09-29T10:39:30Z</time>
      </trkpt>
      <trkpt lat="40.9537720" lon="-3.5733130">
        <ele>953.0</ele>
        <time>2020-09-29T10:39:31Z</time>
      </trkpt>
      <trkpt lat="40.9537720" lon="-3.5733130">
        <ele>953.0</ele>
        <time>2020-09-29T10:39:32Z</time>
      </trkpt>
      <trkpt lat="40.9538700" lon="-3.5733700">
        <ele>953.0</ele>
        <time>2020-09-29T10:39:33Z</time>
      </trkpt>
      <trkpt lat="40.9538700" lon="-3.5733700">
        <ele>953.0</ele>
        <time>2020-09-29T10:39:34Z</time>
      </trkpt>
      <trkpt lat="40.9539650" lon="-3.5734230">
        <ele>954.0</ele>
        <time>2020-09-29T10:39:35Z</time>
      </trkpt>
      <trkpt lat="40.9539650" lon="-3.5734230">
        <ele>954.0</ele>
        <time>2020-09-29T10:39:36Z</time>
      </trkpt>
      <trkpt lat="40.9540500" lon="-3.5734850">
        <ele>954.0</ele>
        <time>2020-09-29T10:39:37Z</time>
      </trkpt>
      <trkpt lat="40.9540500" lon="-3.5734850">
        <ele>954.0</ele>
        <time>2020-09-29T10:39:38Z</time>
      </trkpt>
      <trkpt lat="40.9541200" lon="-3.5735520">
        <ele>954.0</ele>
        <time>2020-09-29T10:39:39Z</time>
      </trkpt>
      <trkpt lat="40.9541200" lon="-3.5735520">
        <ele>954.0</ele>
        <time>2020-09-29T10:39:40Z</time>
      </trkpt>
      <trkpt lat="40.9541880" lon="-3.5736130">
        <ele>955.0</ele>
        <time>2020-09-29T10:39:41Z</time>
      </trkpt>
      <trkpt lat="40.9541880" lon="-3.5736130">
        <ele>956.0</ele>
        <time>2020-09-29T10:39:42Z</time>
      </trkpt>
      <trkpt lat="40.9542480" lon="-3.5736730">
        <ele>956.0</ele>
        <time>2020-09-29T10:39:43Z</time>
      </trkpt>
      <trkpt lat="40.9542480" lon="-3.5736730">
        <ele>957.0</ele>
        <time>2020-09-29T10:39:44Z</time>
      </trkpt>
      <trkpt lat="40.9543000" lon="-3.5737300">
        <ele>957.0</ele>
        <time>2020-09-29T10:39:45Z</time>
      </trkpt>
      <trkpt lat="40.9543230" lon="-3.5737580">
        <ele>957.0</ele>
        <time>2020-09-29T10:39:46Z</time>
      </trkpt>
      <trkpt lat="40.9543230" lon="-3.5737580">
        <ele>957.0</ele>
        <time>2020-09-29T10:39:47Z</time>
      </trkpt>
      <trkpt lat="40.9543720" lon="-3.5738120">
        <ele>958.0</ele>
        <time>2020-09-29T10:39:48Z</time>
      </trkpt>
      <trkpt lat="40.9543970" lon="-3.5738400">
        <ele>958.0</ele>
        <time>2020-09-29T10:39:49Z</time>
      </trkpt>
      <trkpt lat="40.9543970" lon="-3.5738400">
        <ele>958.0</ele>
        <time>2020-09-29T10:39:50Z</time>
      </trkpt>
      <trkpt lat="40.9544470" lon="-3.5738970">
        <ele>958.0</ele>
        <time>2020-09-29T10:39:51Z</time>
      </trkpt>
      <trkpt lat="40.9544470" lon="-3.5738970">
        <ele>959.0</ele>
        <time>2020-09-29T10:39:52Z</time>
      </trkpt>
      <trkpt lat="40.9545020" lon="-3.5739500">
        <ele>959.0</ele>
        <time>2020-09-29T10:39:53Z</time>
      </trkpt>
      <trkpt lat="40.9545270" lon="-3.5739770">
        <ele>959.0</ele>
        <time>2020-09-29T10:39:54Z</time>
      </trkpt>
      <trkpt lat="40.9545270" lon="-3.5739770">
        <ele>959.0</ele>
        <time>2020-09-29T10:39:55Z</time>
      </trkpt>
      <trkpt lat="40.9545750" lon="-3.5740320">
        <ele>960.0</ele>
        <time>2020-09-29T10:39:56Z</time>
      </trkpt>
      <trkpt lat="40.9545750" lon="-3.5740320">
        <ele>960.0</ele>
        <time>2020-09-29T10:39:57Z</time>
      </trkpt>
      <trkpt lat="40.9546250" lon="-3.5740900">
        <ele>960.0</ele>
        <time>2020-09-29T10:39:58Z</time>
      </trkpt>
      <trkpt lat="40.9546250" lon="-3.5740900">
        <ele>960.0</ele>
        <time>2020-09-29T10:39:59Z</time>
      </trkpt>
      <trkpt lat="40.9546780" lon="-3.5741450">
        <ele>960.0</ele>
        <time>2020-09-29T10:40:00Z</time>
      </trkpt>
      <trkpt lat="40.9547030" lon="-3.5741720">
        <ele>960.0</ele>
        <time>2020-09-29T10:40:01Z</time>
      </trkpt>
      <trkpt lat="40.9547030" lon="-3.5741720">
        <ele>960.0</ele>
        <time>2020-09-29T10:40:02Z</time>
      </trkpt>
      <trkpt lat="40.9547480" lon="-3.5742270">
        <ele>960.0</ele>
        <time>2020-09-29T10:40:03Z</time>
      </trkpt>
      <trkpt lat="40.9547720" lon="-3.5742520">
        <ele>962.0</ele>
        <time>2020-09-29T10:40:04Z</time>
      </trkpt>
      <trkpt lat="40.9547720" lon="-3.5742520">
        <ele>962.0</ele>
        <time>2020-09-29T10:40:05Z</time>
      </trkpt>
      <trkpt lat="40.9548220" lon="-3.5742950">
        <ele>962.0</ele>
        <time>2020-09-29T10:40:06Z</time>
      </trkpt>
      <trkpt lat="40.9548470" lon="-3.5743170">
        <ele>962.0</ele>
        <time>2020-09-29T10:40:07Z</time>
      </trkpt>
      <trkpt lat="40.9548470" lon="-3.5743170">
        <ele>963.0</ele>
        <time>2020-09-29T10:40:08Z</time>
      </trkpt>
      <trkpt lat="40.9548920" lon="-3.5743700">
        <ele>963.0</ele>
        <time>2020-09-29T10:40:09Z</time>
      </trkpt>
      <trkpt lat="40.9548920" lon="-3.5743700">
        <ele>963.0</ele>
        <time>2020-09-29T10:40:10Z</time>
      </trkpt>
      <trkpt lat="40.9549320" lon="-3.5744250">
        <ele>963.0</ele>
        <time>2020-09-29T10:40:11Z</time>
      </trkpt>
      <trkpt lat="40.9549320" lon="-3.5744250">
        <ele>963.0</ele>
        <time>2020-09-29T10:40:12Z</time>
      </trkpt>
      <trkpt lat="40.9549770" lon="-3.5744730">
        <ele>963.0</ele>
        <time>2020-09-29T10:40:13Z</time>
      </trkpt>
      <trkpt lat="40.9549770" lon="-3.5744730">
        <ele>963.0</ele>
        <time>2020-09-29T10:40:14Z</time>
      </trkpt>
      <trkpt lat="40.9550170" lon="-3.5745320">
        <ele>963.0</ele>
        <time>2020-09-29T10:40:15Z</time>
      </trkpt>
      <trkpt lat="40.9550170" lon="-3.5745320">
        <ele>965.0</ele>
        <time>2020-09-29T10:40:16Z</time>
      </trkpt>
      <trkpt lat="40.9550500" lon="-3.5746000">
        <ele>965.0</ele>
        <time>2020-09-29T10:40:17Z</time>
      </trkpt>
      <trkpt lat="40.9550500" lon="-3.5746000">
        <ele>965.0</ele>
        <time>2020-09-29T10:40:18Z</time>
      </trkpt>
      <trkpt lat="40.9550770" lon="-3.5746730">
        <ele>965.0</ele>
        <time>2020-09-29T10:40:19Z</time>
      </trkpt>
      <trkpt lat="40.9550770" lon="-3.5746730">
        <ele>965.0</ele>
        <time>2020-09-29T10:40:20Z</time>
      </trkpt>
      <trkpt lat="40.9550880" lon="-3.5747570">
        <ele>965.0</ele>
        <time>2020-09-29T10:40:21Z</time>
      </trkpt>
      <trkpt lat="40.9550880" lon="-3.5747570">
        <ele>965.0</ele>
        <time>2020-09-29T10:40:22Z</time>
      </trkpt>
      <trkpt lat="40.9550800" lon="-3.5748430">
        <ele>966.0</ele>
        <time>2020-09-29T10:40:23Z</time>
      </trkpt>
      <trkpt lat="40.9550800" lon="-3.5748430">
        <ele>966.0</ele>
        <time>2020-09-29T10:40:24Z</time>
      </trkpt>
      <trkpt lat="40.9550650" lon="-3.5749320">
        <ele>966.0</ele>
        <time>2020-09-29T10:40:25Z</time>
      </trkpt>
      <trkpt lat="40.9550650" lon="-3.5749320">
        <ele>966.0</ele>
        <time>2020-09-29T10:40:26Z</time>
      </trkpt>
      <trkpt lat="40.9550520" lon="-3.5750150">
        <ele>967.0</ele>
        <time>2020-09-29T10:40:27Z</time>
      </trkpt>
      <trkpt lat="40.9550520" lon="-3.5750150">
        <ele>967.0</ele>
        <time>2020-09-29T10:40:28Z</time>
      </trkpt>
      <trkpt lat="40.9550320" lon="-3.5751030">
        <ele>967.0</ele>
        <time>2020-09-29T10:40:29Z</time>
      </trkpt>
      <trkpt lat="40.9550250" lon="-3.5751500">
        <ele>967.0</ele>
        <time>2020-09-29T10:40:30Z</time>
      </trkpt>
      <trkpt lat="40.9550250" lon="-3.5751500">
        <ele>967.0</ele>
        <time>2020-09-29T10:40:31Z</time>
      </trkpt>
      <trkpt lat="40.9550100" lon="-3.5752400">
        <ele>967.0</ele>
        <time>2020-09-29T10:40:32Z</time>
      </trkpt>
      <trkpt lat="40.9550100" lon="-3.5752400">
        <ele>968.0</ele>
        <time>2020-09-29T10:40:33Z</time>
      </trkpt>
      <trkpt lat="40.9549930" lon="-3.5753400">
        <ele>968.0</ele>
        <time>2020-09-29T10:40:34Z</time>
      </trkpt>
      <trkpt lat="40.9549930" lon="-3.5753400">
        <ele>968.0</ele>
        <time>2020-09-29T10:40:35Z</time>
      </trkpt>
      <trkpt lat="40.9549780" lon="-3.5754430">
        <ele>968.0</ele>
        <time>2020-09-29T10:40:36Z</time>
      </trkpt>
      <trkpt lat="40.9549720" lon="-3.5755000">
        <ele>968.0</ele>
        <time>2020-09-29T10:40:37Z</time>
      </trkpt>
      <trkpt lat="40.9549720" lon="-3.5755000">
        <ele>968.0</ele>
        <time>2020-09-29T10:40:38Z</time>
      </trkpt>
      <trkpt lat="40.9549580" lon="-3.5756100">
        <ele>968.0</ele>
        <time>2020-09-29T10:40:39Z</time>
      </trkpt>
      <trkpt lat="40.9549580" lon="-3.5756100">
        <ele>968.0</ele>
        <time>2020-09-29T10:40:40Z</time>
      </trkpt>
      <trkpt lat="40.9549470" lon="-3.5757280">
        <ele>969.0</ele>
        <time>2020-09-29T10:40:41Z</time>
      </trkpt>
      <trkpt lat="40.9549470" lon="-3.5757280">
        <ele>969.0</ele>
        <time>2020-09-29T10:40:42Z</time>
      </trkpt>
      <trkpt lat="40.9549400" lon="-3.5758570">
        <ele>969.0</ele>
        <time>2020-09-29T10:40:43Z</time>
      </trkpt>
      <trkpt lat="40.9549400" lon="-3.5758570">
        <ele>969.0</ele>
        <time>2020-09-29T10:40:44Z</time>
      </trkpt>
      <trkpt lat="40.9549520" lon="-3.5759950">
        <ele>969.0</ele>
        <time>2020-09-29T10:40:45Z</time>
      </trkpt>
      <trkpt lat="40.9549520" lon="-3.5759950">
        <ele>969.0</ele>
        <time>2020-09-29T10:40:46Z</time>
      </trkpt>
      <trkpt lat="40.9549880" lon="-3.5761450">
        <ele>969.0</ele>
        <time>2020-09-29T10:40:47Z</time>
      </trkpt>
      <trkpt lat="40.9550150" lon="-3.5762180">
        <ele>969.0</ele>
        <time>2020-09-29T10:40:48Z</time>
      </trkpt>
      <trkpt lat="40.9550420" lon="-3.5762920">
        <ele>969.0</ele>
        <time>2020-09-29T10:40:49Z</time>
      </trkpt>
      <trkpt lat="40.9550420" lon="-3.5762920">
        <ele>969.0</ele>
        <time>2020-09-29T10:40:50Z</time>
      </trkpt>
      <trkpt lat="40.9551070" lon="-3.5764320">
        <ele>968.0</ele>
        <time>2020-09-29T10:40:51Z</time>
      </trkpt>
      <trkpt lat="40.9551070" lon="-3.5764320">
        <ele>968.0</ele>
        <time>2020-09-29T10:40:52Z</time>
      </trkpt>
      <trkpt lat="40.9551400" lon="-3.5764980">
        <ele>968.0</ele>
        <time>2020-09-29T10:40:53Z</time>
      </trkpt>
      <trkpt lat="40.9552170" lon="-3.5766230">
        <ele>968.0</ele>
        <time>2020-09-29T10:40:54Z</time>
      </trkpt>
      <trkpt lat="40.9552580" lon="-3.5766880">
        <ele>968.0</ele>
        <time>2020-09-29T10:40:55Z</time>
      </trkpt>
      <trkpt lat="40.9552580" lon="-3.5766880">
        <ele>968.0</ele>
        <time>2020-09-29T10:40:56Z</time>
      </trkpt>
      <trkpt lat="40.9553480" lon="-3.5768150">
        <ele>968.0</ele>
        <time>2020-09-29T10:40:57Z</time>
      </trkpt>
      <trkpt lat="40.9553480" lon="-3.5768150">
        <ele>968.0</ele>
        <time>2020-09-29T10:40:58Z</time>
      </trkpt>
      <trkpt lat="40.9554520" lon="-3.5769330">
        <ele>968.0</ele>
        <time>2020-09-29T10:40:59Z</time>
      </trkpt>
      <trkpt lat="40.9555030" lon="-3.5769880">
        <ele>968.0</ele>
        <time>2020-09-29T10:41:00Z</time>
      </trkpt>
      <trkpt lat="40.9555570" lon="-3.5770350">
        <ele>968.0</ele>
        <time>2020-09-29T10:41:01Z</time>
      </trkpt>
      <trkpt lat="40.9555570" lon="-3.5770350">
        <ele>967.0</ele>
        <time>2020-09-29T10:41:02Z</time>
      </trkpt>
      <trkpt lat="40.9556820" lon="-3.5770980">
        <ele>967.0</ele>
        <time>2020-09-29T10:41:03Z</time>
      </trkpt>
      <trkpt lat="40.9557450" lon="-3.5771150">
        <ele>967.0</ele>
        <time>2020-09-29T10:41:04Z</time>
      </trkpt>
      <trkpt lat="40.9557450" lon="-3.5771150">
        <ele>967.0</ele>
        <time>2020-09-29T10:41:05Z</time>
      </trkpt>
      <trkpt lat="40.9558680" lon="-3.5771350">
        <ele>967.0</ele>
        <time>2020-09-29T10:41:06Z</time>
      </trkpt>
      <trkpt lat="40.9558680" lon="-3.5771350">
        <ele>967.0</ele>
        <time>2020-09-29T10:41:07Z</time>
      </trkpt>
      <trkpt lat="40.9559800" lon="-3.5771500">
        <ele>968.0</ele>
        <time>2020-09-29T10:41:08Z</time>
      </trkpt>
      <trkpt lat="40.9559800" lon="-3.5771500">
        <ele>968.0</ele>
        <time>2020-09-29T10:41:09Z</time>
      </trkpt>
      <trkpt lat="40.9559800" lon="-3.5771500">
        <ele>968.0</ele>
        <time>2020-09-29T10:41:10Z</time>
      </trkpt>
      <trkpt lat="40.9560780" lon="-3.5771980">
        <ele>968.0</ele>
        <time>2020-09-29T10:41:11Z</time>
      </trkpt>
      <trkpt lat="40.9561770" lon="-3.5772420">
        <ele>970.0</ele>
        <time>2020-09-29T10:41:12Z</time>
      </trkpt>
      <trkpt lat="40.9562250" lon="-3.5772630">
        <ele>970.0</ele>
        <time>2020-09-29T10:41:13Z</time>
      </trkpt>
      <trkpt lat="40.9562250" lon="-3.5772630">
        <ele>970.0</ele>
        <time>2020-09-29T10:41:14Z</time>
      </trkpt>
      <trkpt lat="40.9563250" lon="-3.5773130">
        <ele>970.0</ele>
        <time>2020-09-29T10:41:15Z</time>
      </trkpt>
      <trkpt lat="40.9563250" lon="-3.5773130">
        <ele>971.0</ele>
        <time>2020-09-29T10:41:16Z</time>
      </trkpt>
      <trkpt lat="40.9564150" lon="-3.5773700">
        <ele>971.0</ele>
        <time>2020-09-29T10:41:17Z</time>
      </trkpt>
      <trkpt lat="40.9564150" lon="-3.5773700">
        <ele>971.0</ele>
        <time>2020-09-29T10:41:18Z</time>
      </trkpt>
      <trkpt lat="40.9565070" lon="-3.5774170">
        <ele>971.0</ele>
        <time>2020-09-29T10:41:19Z</time>
      </trkpt>
      <trkpt lat="40.9565070" lon="-3.5774170">
        <ele>972.0</ele>
        <time>2020-09-29T10:41:20Z</time>
      </trkpt>
      <trkpt lat="40.9565070" lon="-3.5774170">
        <ele>972.0</ele>
        <time>2020-09-29T10:41:21Z</time>
      </trkpt>
      <trkpt lat="40.9565970" lon="-3.5774600">
        <ele>972.0</ele>
        <time>2020-09-29T10:41:22Z</time>
      </trkpt>
      <trkpt lat="40.9566830" lon="-3.5775100">
        <ele>972.0</ele>
        <time>2020-09-29T10:41:23Z</time>
      </trkpt>
      <trkpt lat="40.9567250" lon="-3.5775330">
        <ele>972.0</ele>
        <time>2020-09-29T10:41:24Z</time>
      </trkpt>
      <trkpt lat="40.9567700" lon="-3.5775580">
        <ele>973.0</ele>
        <time>2020-09-29T10:41:25Z</time>
      </trkpt>
      <trkpt lat="40.9567700" lon="-3.5775580">
        <ele>973.0</ele>
        <time>2020-09-29T10:41:26Z</time>
      </trkpt>
      <trkpt lat="40.9568680" lon="-3.5776050">
        <ele>973.0</ele>
        <time>2020-09-29T10:41:27Z</time>
      </trkpt>
      <trkpt lat="40.9568680" lon="-3.5776050">
        <ele>973.0</ele>
        <time>2020-09-29T10:41:28Z</time>
      </trkpt>
      <trkpt lat="40.9569700" lon="-3.5776470">
        <ele>974.0</ele>
        <time>2020-09-29T10:41:29Z</time>
      </trkpt>
      <trkpt lat="40.9569700" lon="-3.5776470">
        <ele>974.0</ele>
        <time>2020-09-29T10:41:30Z</time>
      </trkpt>
      <trkpt lat="40.9570680" lon="-3.5776920">
        <ele>974.0</ele>
        <time>2020-09-29T10:41:31Z</time>
      </trkpt>
      <trkpt lat="40.9570680" lon="-3.5776920">
        <ele>975.0</ele>
        <time>2020-09-29T10:41:32Z</time>
      </trkpt>
      <trkpt lat="40.9571680" lon="-3.5777400">
        <ele>975.0</ele>
        <time>2020-09-29T10:41:33Z</time>
      </trkpt>
      <trkpt lat="40.9572200" lon="-3.5777670">
        <ele>975.0</ele>
        <time>2020-09-29T10:41:34Z</time>
      </trkpt>
      <trkpt lat="40.9572200" lon="-3.5777670">
        <ele>975.0</ele>
        <time>2020-09-29T10:41:35Z</time>
      </trkpt>
      <trkpt lat="40.9573200" lon="-3.5778150">
        <ele>975.0</ele>
        <time>2020-09-29T10:41:36Z</time>
      </trkpt>
      <trkpt lat="40.9573200" lon="-3.5778150">
        <ele>975.0</ele>
        <time>2020-09-29T10:41:37Z</time>
      </trkpt>
      <trkpt lat="40.9574200" lon="-3.5778630">
        <ele>975.0</ele>
        <time>2020-09-29T10:41:38Z</time>
      </trkpt>
      <trkpt lat="40.9574200" lon="-3.5778630">
        <ele>975.0</ele>
        <time>2020-09-29T10:41:39Z</time>
      </trkpt>
      <trkpt lat="40.9575220" lon="-3.5779150">
        <ele>975.0</ele>
        <time>2020-09-29T10:41:40Z</time>
      </trkpt>
      <trkpt lat="40.9575220" lon="-3.5779150">
        <ele>975.0</ele>
        <time>2020-09-29T10:41:41Z</time>
      </trkpt>
      <trkpt lat="40.9576280" lon="-3.5779730">
        <ele>975.0</ele>
        <time>2020-09-29T10:41:42Z</time>
      </trkpt>
      <trkpt lat="40.9576820" lon="-3.5780020">
        <ele>976.0</ele>
        <time>2020-09-29T10:41:43Z</time>
      </trkpt>
      <trkpt lat="40.9576820" lon="-3.5780020">
        <ele>976.0</ele>
        <time>2020-09-29T10:41:44Z</time>
      </trkpt>
      <trkpt lat="40.9577870" lon="-3.5780670">
        <ele>976.0</ele>
        <time>2020-09-29T10:41:45Z</time>
      </trkpt>
      <trkpt lat="40.9577870" lon="-3.5780670">
        <ele>976.0</ele>
        <time>2020-09-29T10:41:46Z</time>
      </trkpt>
      <trkpt lat="40.9578880" lon="-3.5781400">
        <ele>976.0</ele>
        <time>2020-09-29T10:41:47Z</time>
      </trkpt>
      <trkpt lat="40.9578880" lon="-3.5781400">
        <ele>976.0</ele>
        <time>2020-09-29T10:41:48Z</time>
      </trkpt>
      <trkpt lat="40.9579870" lon="-3.5782200">
        <ele>976.0</ele>
        <time>2020-09-29T10:41:49Z</time>
      </trkpt>
      <trkpt lat="40.9580350" lon="-3.5782620">
        <ele>976.0</ele>
        <time>2020-09-29T10:41:50Z</time>
      </trkpt>
      <trkpt lat="40.9580350" lon="-3.5782620">
        <ele>976.0</ele>
        <time>2020-09-29T10:41:51Z</time>
      </trkpt>
      <trkpt lat="40.9581320" lon="-3.5783400">
        <ele>976.0</ele>
        <time>2020-09-29T10:41:52Z</time>
      </trkpt>
      <trkpt lat="40.9581320" lon="-3.5783400">
        <ele>976.0</ele>
        <time>2020-09-29T10:41:53Z</time>
      </trkpt>
      <trkpt lat="40.9582250" lon="-3.5784270">
        <ele>976.0</ele>
        <time>2020-09-29T10:41:54Z</time>
      </trkpt>
      <trkpt lat="40.9582700" lon="-3.5784730">
        <ele>976.0</ele>
        <time>2020-09-29T10:41:55Z</time>
      </trkpt>
      <trkpt lat="40.9582700" lon="-3.5784730">
        <ele>976.0</ele>
        <time>2020-09-29T10:41:56Z</time>
      </trkpt>
      <trkpt lat="40.9583600" lon="-3.5785680">
        <ele>976.0</ele>
        <time>2020-09-29T10:41:57Z</time>
      </trkpt>
      <trkpt lat="40.9584070" lon="-3.5786150">
        <ele>976.0</ele>
        <time>2020-09-29T10:41:58Z</time>
      </trkpt>
      <trkpt lat="40.9584070" lon="-3.5786150">
        <ele>976.0</ele>
        <time>2020-09-29T10:41:59Z</time>
      </trkpt>
      <trkpt lat="40.9584970" lon="-3.5787080">
        <ele>976.0</ele>
        <time>2020-09-29T10:42:00Z</time>
      </trkpt>
      <trkpt lat="40.9585420" lon="-3.5787570">
        <ele>976.0</ele>
        <time>2020-09-29T10:42:01Z</time>
      </trkpt>
      <trkpt lat="40.9585420" lon="-3.5787570">
        <ele>976.0</ele>
        <time>2020-09-29T10:42:02Z</time>
      </trkpt>
      <trkpt lat="40.9586300" lon="-3.5788550">
        <ele>976.0</ele>
        <time>2020-09-29T10:42:03Z</time>
      </trkpt>
      <trkpt lat="40.9586300" lon="-3.5788550">
        <ele>976.0</ele>
        <time>2020-09-29T10:42:04Z</time>
      </trkpt>
      <trkpt lat="40.9587170" lon="-3.5789530">
        <ele>976.0</ele>
        <time>2020-09-29T10:42:05Z</time>
      </trkpt>
      <trkpt lat="40.9587570" lon="-3.5790020">
        <ele>976.0</ele>
        <time>2020-09-29T10:42:06Z</time>
      </trkpt>
      <trkpt lat="40.9587930" lon="-3.5790520">
        <ele>976.0</ele>
        <time>2020-09-29T10:42:07Z</time>
      </trkpt>
      <trkpt lat="40.9587930" lon="-3.5790520">
        <ele>976.0</ele>
        <time>2020-09-29T10:42:08Z</time>
      </trkpt>
      <trkpt lat="40.9588670" lon="-3.5791450">
        <ele>977.0</ele>
        <time>2020-09-29T10:42:09Z</time>
      </trkpt>
      <trkpt lat="40.9588670" lon="-3.5791450">
        <ele>977.0</ele>
        <time>2020-09-29T10:42:10Z</time>
      </trkpt>
      <trkpt lat="40.9589380" lon="-3.5792320">
        <ele>977.0</ele>
        <time>2020-09-29T10:42:11Z</time>
      </trkpt>
      <trkpt lat="40.9589380" lon="-3.5792320">
        <ele>977.0</ele>
        <time>2020-09-29T10:42:12Z</time>
      </trkpt>
      <trkpt lat="40.9590070" lon="-3.5793130">
        <ele>977.0</ele>
        <time>2020-09-29T10:42:13Z</time>
      </trkpt>
      <trkpt lat="40.9590070" lon="-3.5793130">
        <ele>977.0</ele>
        <time>2020-09-29T10:42:14Z</time>
      </trkpt>
      <trkpt lat="40.9590780" lon="-3.5793900">
        <ele>978.0</ele>
        <time>2020-09-29T10:42:15Z</time>
      </trkpt>
      <trkpt lat="40.9590780" lon="-3.5793900">
        <ele>978.0</ele>
        <time>2020-09-29T10:42:16Z</time>
      </trkpt>
      <trkpt lat="40.9591550" lon="-3.5794680">
        <ele>978.0</ele>
        <time>2020-09-29T10:42:17Z</time>
      </trkpt>
      <trkpt lat="40.9591550" lon="-3.5794680">
        <ele>978.0</ele>
        <time>2020-09-29T10:42:18Z</time>
      </trkpt>
      <trkpt lat="40.9592370" lon="-3.5795450">
        <ele>978.0</ele>
        <time>2020-09-29T10:42:19Z</time>
      </trkpt>
      <trkpt lat="40.9592370" lon="-3.5795450">
        <ele>978.0</ele>
        <time>2020-09-29T10:42:20Z</time>
      </trkpt>
      <trkpt lat="40.9592370" lon="-3.5795450">
        <ele>978.0</ele>
        <time>2020-09-29T10:42:21Z</time>
      </trkpt>
      <trkpt lat="40.9593680" lon="-3.5796530">
        <ele>978.0</ele>
        <time>2020-09-29T10:42:22Z</time>
      </trkpt>
      <trkpt lat="40.9593680" lon="-3.5796530">
        <ele>978.0</ele>
        <time>2020-09-29T10:42:23Z</time>
      </trkpt>
      <trkpt lat="40.9594520" lon="-3.5797220">
        <ele>978.0</ele>
        <time>2020-09-29T10:42:24Z</time>
      </trkpt>
      <trkpt lat="40.9594930" lon="-3.5797530">
        <ele>978.0</ele>
        <time>2020-09-29T10:42:25Z</time>
      </trkpt>
      <trkpt lat="40.9594930" lon="-3.5797530">
        <ele>978.0</ele>
        <time>2020-09-29T10:42:26Z</time>
      </trkpt>
      <trkpt lat="40.9595780" lon="-3.5798100">
        <ele>978.0</ele>
        <time>2020-09-29T10:42:27Z</time>
      </trkpt>
      <trkpt lat="40.9596180" lon="-3.5798380">
        <ele>978.0</ele>
        <time>2020-09-29T10:42:28Z</time>
      </trkpt>
      <trkpt lat="40.9596180" lon="-3.5798380">
        <ele>979.0</ele>
        <time>2020-09-29T10:42:29Z</time>
      </trkpt>
      <trkpt lat="40.9597020" lon="-3.5798930">
        <ele>979.0</ele>
        <time>2020-09-29T10:42:30Z</time>
      </trkpt>
      <trkpt lat="40.9597430" lon="-3.5799250">
        <ele>979.0</ele>
        <time>2020-09-29T10:42:31Z</time>
      </trkpt>
      <trkpt lat="40.9597430" lon="-3.5799250">
        <ele>979.0</ele>
        <time>2020-09-29T10:42:32Z</time>
      </trkpt>
      <trkpt lat="40.9598300" lon="-3.5799920">
        <ele>979.0</ele>
        <time>2020-09-29T10:42:33Z</time>
      </trkpt>
      <trkpt lat="40.9598300" lon="-3.5799920">
        <ele>979.0</ele>
        <time>2020-09-29T10:42:34Z</time>
      </trkpt>
      <trkpt lat="40.9599120" lon="-3.5800650">
        <ele>979.0</ele>
        <time>2020-09-29T10:42:35Z</time>
      </trkpt>
      <trkpt lat="40.9599120" lon="-3.5800650">
        <ele>979.0</ele>
        <time>2020-09-29T10:42:36Z</time>
      </trkpt>
      <trkpt lat="40.9600000" lon="-3.5801380">
        <ele>979.0</ele>
        <time>2020-09-29T10:42:37Z</time>
      </trkpt>
      <trkpt lat="40.9600000" lon="-3.5801380">
        <ele>979.0</ele>
        <time>2020-09-29T10:42:38Z</time>
      </trkpt>
      <trkpt lat="40.9600930" lon="-3.5802120">
        <ele>979.0</ele>
        <time>2020-09-29T10:42:39Z</time>
      </trkpt>
      <trkpt lat="40.9600930" lon="-3.5802120">
        <ele>979.0</ele>
        <time>2020-09-29T10:42:40Z</time>
      </trkpt>
      <trkpt lat="40.9601880" lon="-3.5802920">
        <ele>979.0</ele>
        <time>2020-09-29T10:42:41Z</time>
      </trkpt>
      <trkpt lat="40.9602370" lon="-3.5803300">
        <ele>979.0</ele>
        <time>2020-09-29T10:42:42Z</time>
      </trkpt>
      <trkpt lat="40.9602370" lon="-3.5803300">
        <ele>979.0</ele>
        <time>2020-09-29T10:42:43Z</time>
      </trkpt>
      <trkpt lat="40.9603350" lon="-3.5804070">
        <ele>979.0</ele>
        <time>2020-09-29T10:42:44Z</time>
      </trkpt>
      <trkpt lat="40.9603350" lon="-3.5804070">
        <ele>979.0</ele>
        <time>2020-09-29T10:42:45Z</time>
      </trkpt>
      <trkpt lat="40.9604320" lon="-3.5804830">
        <ele>980.0</ele>
        <time>2020-09-29T10:42:46Z</time>
      </trkpt>
      <trkpt lat="40.9604820" lon="-3.5805200">
        <ele>980.0</ele>
        <time>2020-09-29T10:42:47Z</time>
      </trkpt>
      <trkpt lat="40.9604820" lon="-3.5805200">
        <ele>980.0</ele>
        <time>2020-09-29T10:42:48Z</time>
      </trkpt>
      <trkpt lat="40.9605780" lon="-3.5805970">
        <ele>980.0</ele>
        <time>2020-09-29T10:42:49Z</time>
      </trkpt>
      <trkpt lat="40.9605780" lon="-3.5805970">
        <ele>980.0</ele>
        <time>2020-09-29T10:42:50Z</time>
      </trkpt>
      <trkpt lat="40.9606750" lon="-3.5806770">
        <ele>980.0</ele>
        <time>2020-09-29T10:42:51Z</time>
      </trkpt>
      <trkpt lat="40.9606750" lon="-3.5806770">
        <ele>980.0</ele>
        <time>2020-09-29T10:42:52Z</time>
      </trkpt>
      <trkpt lat="40.9607730" lon="-3.5807620">
        <ele>980.0</ele>
        <time>2020-09-29T10:42:53Z</time>
      </trkpt>
      <trkpt lat="40.9607730" lon="-3.5807620">
        <ele>980.0</ele>
        <time>2020-09-29T10:42:54Z</time>
      </trkpt>
      <trkpt lat="40.9608830" lon="-3.5808480">
        <ele>980.0</ele>
        <time>2020-09-29T10:42:55Z</time>
      </trkpt>
      <trkpt lat="40.9608830" lon="-3.5808480">
        <ele>980.0</ele>
        <time>2020-09-29T10:42:56Z</time>
      </trkpt>
      <trkpt lat="40.9610170" lon="-3.5809250">
        <ele>980.0</ele>
        <time>2020-09-29T10:42:57Z</time>
      </trkpt>
      <trkpt lat="40.9610920" lon="-3.5809570">
        <ele>980.0</ele>
        <time>2020-09-29T10:42:58Z</time>
      </trkpt>
      <trkpt lat="40.9610920" lon="-3.5809570">
        <ele>979.0</ele>
        <time>2020-09-29T10:42:59Z</time>
      </trkpt>
      <trkpt lat="40.9612520" lon="-3.5810150">
        <ele>979.0</ele>
        <time>2020-09-29T10:43:00Z</time>
      </trkpt>
      <trkpt lat="40.9612520" lon="-3.5810150">
        <ele>978.0</ele>
        <time>2020-09-29T10:43:01Z</time>
      </trkpt>
      <trkpt lat="40.9614280" lon="-3.5810650">
        <ele>978.0</ele>
        <time>2020-09-29T10:43:02Z</time>
      </trkpt>
      <trkpt lat="40.9614280" lon="-3.5810650">
        <ele>978.0</ele>
        <time>2020-09-29T10:43:03Z</time>
      </trkpt>
      <trkpt lat="40.9616070" lon="-3.5811220">
        <ele>978.0</ele>
        <time>2020-09-29T10:43:04Z</time>
      </trkpt>
      <trkpt lat="40.9616930" lon="-3.5811450">
        <ele>977.0</ele>
        <time>2020-09-29T10:43:05Z</time>
      </trkpt>
      <trkpt lat="40.9616930" lon="-3.5811450">
        <ele>977.0</ele>
        <time>2020-09-29T10:43:06Z</time>
      </trkpt>
      <trkpt lat="40.9618650" lon="-3.5811870">
        <ele>977.0</ele>
        <time>2020-09-29T10:43:07Z</time>
      </trkpt>
      <trkpt lat="40.9618650" lon="-3.5811870">
        <ele>977.0</ele>
        <time>2020-09-29T10:43:08Z</time>
      </trkpt>
      <trkpt lat="40.9620200" lon="-3.5812200">
        <ele>976.0</ele>
        <time>2020-09-29T10:43:09Z</time>
      </trkpt>
      <trkpt lat="40.9620200" lon="-3.5812200">
        <ele>976.0</ele>
        <time>2020-09-29T10:43:10Z</time>
      </trkpt>
      <trkpt lat="40.9620200" lon="-3.5812200">
        <ele>976.0</ele>
        <time>2020-09-29T10:43:11Z</time>
      </trkpt>
      <trkpt lat="40.9621520" lon="-3.5812420">
        <ele>976.0</ele>
        <time>2020-09-29T10:43:12Z</time>
      </trkpt>
      <trkpt lat="40.9622650" lon="-3.5812630">
        <ele>976.0</ele>
        <time>2020-09-29T10:43:13Z</time>
      </trkpt>
      <trkpt lat="40.9622650" lon="-3.5812630">
        <ele>976.0</ele>
        <time>2020-09-29T10:43:14Z</time>
      </trkpt>
      <trkpt lat="40.9623720" lon="-3.5812970">
        <ele>976.0</ele>
        <time>2020-09-29T10:43:15Z</time>
      </trkpt>
      <trkpt lat="40.9623720" lon="-3.5812970">
        <ele>977.0</ele>
        <time>2020-09-29T10:43:16Z</time>
      </trkpt>
      <trkpt lat="40.9624670" lon="-3.5813350">
        <ele>977.0</ele>
        <time>2020-09-29T10:43:17Z</time>
      </trkpt>
      <trkpt lat="40.9625150" lon="-3.5813600">
        <ele>977.0</ele>
        <time>2020-09-29T10:43:18Z</time>
      </trkpt>
      <trkpt lat="40.9625150" lon="-3.5813600">
        <ele>977.0</ele>
        <time>2020-09-29T10:43:19Z</time>
      </trkpt>
      <trkpt lat="40.9626030" lon="-3.5814220">
        <ele>978.0</ele>
        <time>2020-09-29T10:43:20Z</time>
      </trkpt>
      <trkpt lat="40.9626030" lon="-3.5814220">
        <ele>978.0</ele>
        <time>2020-09-29T10:43:21Z</time>
      </trkpt>
      <trkpt lat="40.9626820" lon="-3.5814880">
        <ele>979.0</ele>
        <time>2020-09-29T10:43:22Z</time>
      </trkpt>
      <trkpt lat="40.9626820" lon="-3.5814880">
        <ele>979.0</ele>
        <time>2020-09-29T10:43:23Z</time>
      </trkpt>
      <trkpt lat="40.9627500" lon="-3.5815630">
        <ele>979.0</ele>
        <time>2020-09-29T10:43:24Z</time>
      </trkpt>
      <trkpt lat="40.9627820" lon="-3.5816000">
        <ele>980.0</ele>
        <time>2020-09-29T10:43:25Z</time>
      </trkpt>
      <trkpt lat="40.9627820" lon="-3.5816000">
        <ele>980.0</ele>
        <time>2020-09-29T10:43:26Z</time>
      </trkpt>
      <trkpt lat="40.9628400" lon="-3.5816770">
        <ele>980.0</ele>
        <time>2020-09-29T10:43:27Z</time>
      </trkpt>
      <trkpt lat="40.9628670" lon="-3.5817170">
        <ele>980.0</ele>
        <time>2020-09-29T10:43:28Z</time>
      </trkpt>
      <trkpt lat="40.9628670" lon="-3.5817170">
        <ele>981.0</ele>
        <time>2020-09-29T10:43:29Z</time>
      </trkpt>
      <trkpt lat="40.9629200" lon="-3.5817980">
        <ele>981.0</ele>
        <time>2020-09-29T10:43:30Z</time>
      </trkpt>
      <trkpt lat="40.9629500" lon="-3.5818350">
        <ele>981.0</ele>
        <time>2020-09-29T10:43:31Z</time>
      </trkpt>
      <trkpt lat="40.9629500" lon="-3.5818350">
        <ele>981.0</ele>
        <time>2020-09-29T10:43:32Z</time>
      </trkpt>
      <trkpt lat="40.9630050" lon="-3.5819150">
        <ele>981.0</ele>
        <time>2020-09-29T10:43:33Z</time>
      </trkpt>
      <trkpt lat="40.9630050" lon="-3.5819150">
        <ele>981.0</ele>
        <time>2020-09-29T10:43:34Z</time>
      </trkpt>
      <trkpt lat="40.9630600" lon="-3.5819970">
        <ele>982.0</ele>
        <time>2020-09-29T10:43:35Z</time>
      </trkpt>
      <trkpt lat="40.9630600" lon="-3.5819970">
        <ele>982.0</ele>
        <time>2020-09-29T10:43:36Z</time>
      </trkpt>
      <trkpt lat="40.9631170" lon="-3.5820770">
        <ele>982.0</ele>
        <time>2020-09-29T10:43:37Z</time>
      </trkpt>
      <trkpt lat="40.9631170" lon="-3.5820770">
        <ele>982.0</ele>
        <time>2020-09-29T10:43:38Z</time>
      </trkpt>
      <trkpt lat="40.9631770" lon="-3.5821620">
        <ele>983.0</ele>
        <time>2020-09-29T10:43:39Z</time>
      </trkpt>
      <trkpt lat="40.9631770" lon="-3.5821620">
        <ele>983.0</ele>
        <time>2020-09-29T10:43:40Z</time>
      </trkpt>
      <trkpt lat="40.9632320" lon="-3.5822450">
        <ele>983.0</ele>
        <time>2020-09-29T10:43:41Z</time>
      </trkpt>
      <trkpt lat="40.9632320" lon="-3.5822450">
        <ele>983.0</ele>
        <time>2020-09-29T10:43:42Z</time>
      </trkpt>
      <trkpt lat="40.9632930" lon="-3.5823250">
        <ele>983.0</ele>
        <time>2020-09-29T10:43:43Z</time>
      </trkpt>
      <trkpt lat="40.9632930" lon="-3.5823250">
        <ele>983.0</ele>
        <time>2020-09-29T10:43:44Z</time>
      </trkpt>
      <trkpt lat="40.9633450" lon="-3.5824080">
        <ele>983.0</ele>
        <time>2020-09-29T10:43:45Z</time>
      </trkpt>
      <trkpt lat="40.9633450" lon="-3.5824080">
        <ele>984.0</ele>
        <time>2020-09-29T10:43:46Z</time>
      </trkpt>
      <trkpt lat="40.9634020" lon="-3.5824830">
        <ele>984.0</ele>
        <time>2020-09-29T10:43:47Z</time>
      </trkpt>
      <trkpt lat="40.9634300" lon="-3.5825220">
        <ele>984.0</ele>
        <time>2020-09-29T10:43:48Z</time>
      </trkpt>
      <trkpt lat="40.9634630" lon="-3.5825550">
        <ele>984.0</ele>
        <time>2020-09-29T10:43:49Z</time>
      </trkpt>
      <trkpt lat="40.9634630" lon="-3.5825550">
        <ele>984.0</ele>
        <time>2020-09-29T10:43:50Z</time>
      </trkpt>
      <trkpt lat="40.9635270" lon="-3.5826250">
        <ele>985.0</ele>
        <time>2020-09-29T10:43:51Z</time>
      </trkpt>
      <trkpt lat="40.9635270" lon="-3.5826250">
        <ele>985.0</ele>
        <time>2020-09-29T10:43:52Z</time>
      </trkpt>
      <trkpt lat="40.9635900" lon="-3.5826950">
        <ele>985.0</ele>
        <time>2020-09-29T10:43:53Z</time>
      </trkpt>
      <trkpt lat="40.9635900" lon="-3.5826950">
        <ele>985.0</ele>
        <time>2020-09-29T10:43:54Z</time>
      </trkpt>
      <trkpt lat="40.9636580" lon="-3.5827630">
        <ele>986.0</ele>
        <time>2020-09-29T10:43:55Z</time>
      </trkpt>
      <trkpt lat="40.9636580" lon="-3.5827630">
        <ele>986.0</ele>
        <time>2020-09-29T10:43:56Z</time>
      </trkpt>
      <trkpt lat="40.9637250" lon="-3.5828320">
        <ele>986.0</ele>
        <time>2020-09-29T10:43:57Z</time>
      </trkpt>
      <trkpt lat="40.9637600" lon="-3.5828650">
        <ele>986.0</ele>
        <time>2020-09-29T10:43:58Z</time>
      </trkpt>
      <trkpt lat="40.9637600" lon="-3.5828650">
        <ele>987.0</ele>
        <time>2020-09-29T10:43:59Z</time>
      </trkpt>
      <trkpt lat="40.9638300" lon="-3.5829270">
        <ele>987.0</ele>
        <time>2020-09-29T10:44:00Z</time>
      </trkpt>
      <trkpt lat="40.9638670" lon="-3.5829550">
        <ele>987.0</ele>
        <time>2020-09-29T10:44:01Z</time>
      </trkpt>
      <trkpt lat="40.9638670" lon="-3.5829550">
        <ele>988.0</ele>
        <time>2020-09-29T10:44:02Z</time>
      </trkpt>
      <trkpt lat="40.9639400" lon="-3.5830150">
        <ele>988.0</ele>
        <time>2020-09-29T10:44:03Z</time>
      </trkpt>
      <trkpt lat="40.9639770" lon="-3.5830430">
        <ele>988.0</ele>
        <time>2020-09-29T10:44:04Z</time>
      </trkpt>
      <trkpt lat="40.9639770" lon="-3.5830430">
        <ele>988.0</ele>
        <time>2020-09-29T10:44:05Z</time>
      </trkpt>
      <trkpt lat="40.9640550" lon="-3.5830920">
        <ele>988.0</ele>
        <time>2020-09-29T10:44:06Z</time>
      </trkpt>
      <trkpt lat="40.9640950" lon="-3.5831170">
        <ele>989.0</ele>
        <time>2020-09-29T10:44:07Z</time>
      </trkpt>
      <trkpt lat="40.9640950" lon="-3.5831170">
        <ele>989.0</ele>
        <time>2020-09-29T10:44:08Z</time>
      </trkpt>
      <trkpt lat="40.9641730" lon="-3.5831670">
        <ele>989.0</ele>
        <time>2020-09-29T10:44:09Z</time>
      </trkpt>
      <trkpt lat="40.9641730" lon="-3.5831670">
        <ele>989.0</ele>
        <time>2020-09-29T10:44:10Z</time>
      </trkpt>
      <trkpt lat="40.9642570" lon="-3.5832050">
        <ele>990.0</ele>
        <time>2020-09-29T10:44:11Z</time>
      </trkpt>
      <trkpt lat="40.9642570" lon="-3.5832050">
        <ele>990.0</ele>
        <time>2020-09-29T10:44:12Z</time>
      </trkpt>
      <trkpt lat="40.9643350" lon="-3.5832530">
        <ele>990.0</ele>
        <time>2020-09-29T10:44:13Z</time>
      </trkpt>
      <trkpt lat="40.9643350" lon="-3.5832530">
        <ele>990.0</ele>
        <time>2020-09-29T10:44:14Z</time>
      </trkpt>
      <trkpt lat="40.9644080" lon="-3.5833280">
        <ele>990.0</ele>
        <time>2020-09-29T10:44:15Z</time>
      </trkpt>
      <trkpt lat="40.9644080" lon="-3.5833280">
        <ele>990.0</ele>
        <time>2020-09-29T10:44:16Z</time>
      </trkpt>
      <trkpt lat="40.9644320" lon="-3.5834500">
        <ele>990.0</ele>
        <time>2020-09-29T10:44:17Z</time>
      </trkpt>
      <trkpt lat="40.9644320" lon="-3.5834500">
        <ele>990.0</ele>
        <time>2020-09-29T10:44:18Z</time>
      </trkpt>
      <trkpt lat="40.9644650" lon="-3.5835530">
        <ele>990.0</ele>
        <time>2020-09-29T10:44:19Z</time>
      </trkpt>
      <trkpt lat="40.9644650" lon="-3.5835530">
        <ele>990.0</ele>
        <time>2020-09-29T10:44:20Z</time>
      </trkpt>
      <trkpt lat="40.9644970" lon="-3.5836580">
        <ele>990.0</ele>
        <time>2020-09-29T10:44:21Z</time>
      </trkpt>
      <trkpt lat="40.9645130" lon="-3.5837100">
        <ele>990.0</ele>
        <time>2020-09-29T10:44:22Z</time>
      </trkpt>
      <trkpt lat="40.9645130" lon="-3.5837100">
        <ele>990.0</ele>
        <time>2020-09-29T10:44:23Z</time>
      </trkpt>
      <trkpt lat="40.9645580" lon="-3.5838070">
        <ele>991.0</ele>
        <time>2020-09-29T10:44:24Z</time>
      </trkpt>
      <trkpt lat="40.9645820" lon="-3.5838530">
        <ele>991.0</ele>
        <time>2020-09-29T10:44:25Z</time>
      </trkpt>
      <trkpt lat="40.9645820" lon="-3.5838530">
        <ele>991.0</ele>
        <time>2020-09-29T10:44:26Z</time>
      </trkpt>
      <trkpt lat="40.9646300" lon="-3.5839450">
        <ele>991.0</ele>
        <time>2020-09-29T10:44:27Z</time>
      </trkpt>
      <trkpt lat="40.9646530" lon="-3.5839920">
        <ele>991.0</ele>
        <time>2020-09-29T10:44:28Z</time>
      </trkpt>
      <trkpt lat="40.9646530" lon="-3.5839920">
        <ele>991.0</ele>
        <time>2020-09-29T10:44:29Z</time>
      </trkpt>
      <trkpt lat="40.9647000" lon="-3.5840830">
        <ele>992.0</ele>
        <time>2020-09-29T10:44:30Z</time>
      </trkpt>
      <trkpt lat="40.9647220" lon="-3.5841270">
        <ele>992.0</ele>
        <time>2020-09-29T10:44:31Z</time>
      </trkpt>
      <trkpt lat="40.9647220" lon="-3.5841270">
        <ele>992.0</ele>
        <time>2020-09-29T10:44:32Z</time>
      </trkpt>
      <trkpt lat="40.9647670" lon="-3.5842120">
        <ele>992.0</ele>
        <time>2020-09-29T10:44:33Z</time>
      </trkpt>
      <trkpt lat="40.9647670" lon="-3.5842120">
        <ele>993.0</ele>
        <time>2020-09-29T10:44:34Z</time>
      </trkpt>
      <trkpt lat="40.9648100" lon="-3.5843020">
        <ele>993.0</ele>
        <time>2020-09-29T10:44:35Z</time>
      </trkpt>
      <trkpt lat="40.9648100" lon="-3.5843020">
        <ele>993.0</ele>
        <time>2020-09-29T10:44:36Z</time>
      </trkpt>
      <trkpt lat="40.9648530" lon="-3.5843950">
        <ele>993.0</ele>
        <time>2020-09-29T10:44:37Z</time>
      </trkpt>
      <trkpt lat="40.9648530" lon="-3.5843950">
        <ele>995.0</ele>
        <time>2020-09-29T10:44:38Z</time>
      </trkpt>
      <trkpt lat="40.9649020" lon="-3.5844870">
        <ele>995.0</ele>
        <time>2020-09-29T10:44:39Z</time>
      </trkpt>
      <trkpt lat="40.9649270" lon="-3.5845300">
        <ele>995.0</ele>
        <time>2020-09-29T10:44:40Z</time>
      </trkpt>
      <trkpt lat="40.9649270" lon="-3.5845300">
        <ele>996.0</ele>
        <time>2020-09-29T10:44:41Z</time>
      </trkpt>
      <trkpt lat="40.9649800" lon="-3.5846130">
        <ele>996.0</ele>
        <time>2020-09-29T10:44:42Z</time>
      </trkpt>
      <trkpt lat="40.9650080" lon="-3.5846530">
        <ele>996.0</ele>
        <time>2020-09-29T10:44:43Z</time>
      </trkpt>
      <trkpt lat="40.9650080" lon="-3.5846530">
        <ele>996.0</ele>
        <time>2020-09-29T10:44:44Z</time>
      </trkpt>
      <trkpt lat="40.9650800" lon="-3.5847120">
        <ele>997.0</ele>
        <time>2020-09-29T10:44:45Z</time>
      </trkpt>
      <trkpt lat="40.9651150" lon="-3.5847420">
        <ele>997.0</ele>
        <time>2020-09-29T10:44:46Z</time>
      </trkpt>
      <trkpt lat="40.9651150" lon="-3.5847420">
        <ele>997.0</ele>
        <time>2020-09-29T10:44:47Z</time>
      </trkpt>
      <trkpt lat="40.9651880" lon="-3.5848020">
        <ele>997.0</ele>
        <time>2020-09-29T10:44:48Z</time>
      </trkpt>
      <trkpt lat="40.9652230" lon="-3.5848400">
        <ele>998.0</ele>
        <time>2020-09-29T10:44:49Z</time>
      </trkpt>
      <trkpt lat="40.9652230" lon="-3.5848400">
        <ele>998.0</ele>
        <time>2020-09-29T10:44:50Z</time>
      </trkpt>
      <trkpt lat="40.9652870" lon="-3.5849280">
        <ele>998.0</ele>
        <time>2020-09-29T10:44:51Z</time>
      </trkpt>
      <trkpt lat="40.9653180" lon="-3.5849770">
        <ele>998.0</ele>
        <time>2020-09-29T10:44:52Z</time>
      </trkpt>
      <trkpt lat="40.9653180" lon="-3.5849770">
        <ele>998.0</ele>
        <time>2020-09-29T10:44:53Z</time>
      </trkpt>
      <trkpt lat="40.9653620" lon="-3.5850820">
        <ele>998.0</ele>
        <time>2020-09-29T10:44:54Z</time>
      </trkpt>
      <trkpt lat="40.9653820" lon="-3.5851370">
        <ele>999.0</ele>
        <time>2020-09-29T10:44:55Z</time>
      </trkpt>
      <trkpt lat="40.9653820" lon="-3.5851370">
        <ele>999.0</ele>
        <time>2020-09-29T10:44:56Z</time>
      </trkpt>
      <trkpt lat="40.9654120" lon="-3.5852520">
        <ele>999.0</ele>
        <time>2020-09-29T10:44:57Z</time>
      </trkpt>
      <trkpt lat="40.9654120" lon="-3.5852520">
        <ele>999.0</ele>
        <time>2020-09-29T10:44:58Z</time>
      </trkpt>
      <trkpt lat="40.9654450" lon="-3.5853650">
        <ele>999.0</ele>
        <time>2020-09-29T10:44:59Z</time>
      </trkpt>
      <trkpt lat="40.9654620" lon="-3.5854220">
        <ele>999.0</ele>
        <time>2020-09-29T10:45:00Z</time>
      </trkpt>
      <trkpt lat="40.9654620" lon="-3.5854220">
        <ele>999.0</ele>
        <time>2020-09-29T10:45:01Z</time>
      </trkpt>
      <trkpt lat="40.9654980" lon="-3.5855320">
        <ele>999.0</ele>
        <time>2020-09-29T10:45:02Z</time>
      </trkpt>
      <trkpt lat="40.9655170" lon="-3.5855900">
        <ele>1000.0</ele>
        <time>2020-09-29T10:45:03Z</time>
      </trkpt>
      <trkpt lat="40.9655170" lon="-3.5855900">
        <ele>1000.0</ele>
        <time>2020-09-29T10:45:04Z</time>
      </trkpt>
      <trkpt lat="40.9655500" lon="-3.5857070">
        <ele>1000.0</ele>
        <time>2020-09-29T10:45:05Z</time>
      </trkpt>
      <trkpt lat="40.9655500" lon="-3.5857070">
        <ele>1000.0</ele>
        <time>2020-09-29T10:45:06Z</time>
      </trkpt>
      <trkpt lat="40.9655500" lon="-3.5857070">
        <ele>1000.0</ele>
        <time>2020-09-29T10:45:07Z</time>
      </trkpt>
      <trkpt lat="40.9655820" lon="-3.5858280">
        <ele>1000.0</ele>
        <time>2020-09-29T10:45:08Z</time>
      </trkpt>
      <trkpt lat="40.9656130" lon="-3.5859500">
        <ele>1001.0</ele>
        <time>2020-09-29T10:45:09Z</time>
      </trkpt>
      <trkpt lat="40.9656130" lon="-3.5859500">
        <ele>1001.0</ele>
        <time>2020-09-29T10:45:10Z</time>
      </trkpt>
      <trkpt lat="40.9656520" lon="-3.5860680">
        <ele>1001.0</ele>
        <time>2020-09-29T10:45:11Z</time>
      </trkpt>
      <trkpt lat="40.9656520" lon="-3.5860680">
        <ele>1001.0</ele>
        <time>2020-09-29T10:45:12Z</time>
      </trkpt>
      <trkpt lat="40.9656870" lon="-3.5861880">
        <ele>1001.0</ele>
        <time>2020-09-29T10:45:13Z</time>
      </trkpt>
      <trkpt lat="40.9656870" lon="-3.5861880">
        <ele>1001.0</ele>
        <time>2020-09-29T10:45:14Z</time>
      </trkpt>
      <trkpt lat="40.9657180" lon="-3.5863120">
        <ele>1001.0</ele>
        <time>2020-09-29T10:45:15Z</time>
      </trkpt>
      <trkpt lat="40.9657180" lon="-3.5863120">
        <ele>1001.0</ele>
        <time>2020-09-29T10:45:16Z</time>
      </trkpt>
      <trkpt lat="40.9657620" lon="-3.5864230">
        <ele>1001.0</ele>
        <time>2020-09-29T10:45:17Z</time>
      </trkpt>
      <trkpt lat="40.9657820" lon="-3.5864820">
        <ele>1001.0</ele>
        <time>2020-09-29T10:45:18Z</time>
      </trkpt>
      <trkpt lat="40.9658030" lon="-3.5865400">
        <ele>1001.0</ele>
        <time>2020-09-29T10:45:19Z</time>
      </trkpt>
      <trkpt lat="40.9658030" lon="-3.5865400">
        <ele>1002.0</ele>
        <time>2020-09-29T10:45:20Z</time>
      </trkpt>
      <trkpt lat="40.9658420" lon="-3.5866580">
        <ele>1002.0</ele>
        <time>2020-09-29T10:45:21Z</time>
      </trkpt>
      <trkpt lat="40.9658580" lon="-3.5867200">
        <ele>1002.0</ele>
        <time>2020-09-29T10:45:22Z</time>
      </trkpt>
      <trkpt lat="40.9658580" lon="-3.5867200">
        <ele>1002.0</ele>
        <time>2020-09-29T10:45:23Z</time>
      </trkpt>
      <trkpt lat="40.9658980" lon="-3.5868430">
        <ele>1002.0</ele>
        <time>2020-09-29T10:45:24Z</time>
      </trkpt>
      <trkpt lat="40.9659180" lon="-3.5869070">
        <ele>1002.0</ele>
        <time>2020-09-29T10:45:25Z</time>
      </trkpt>
      <trkpt lat="40.9659180" lon="-3.5869070">
        <ele>1002.0</ele>
        <time>2020-09-29T10:45:26Z</time>
      </trkpt>
      <trkpt lat="40.9659620" lon="-3.5870300">
        <ele>1003.0</ele>
        <time>2020-09-29T10:45:27Z</time>
      </trkpt>
      <trkpt lat="40.9659620" lon="-3.5870300">
        <ele>1003.0</ele>
        <time>2020-09-29T10:45:28Z</time>
      </trkpt>
      <trkpt lat="40.9660050" lon="-3.5871520">
        <ele>1003.0</ele>
        <time>2020-09-29T10:45:29Z</time>
      </trkpt>
      <trkpt lat="40.9660050" lon="-3.5871520">
        <ele>1003.0</ele>
        <time>2020-09-29T10:45:30Z</time>
      </trkpt>
      <trkpt lat="40.9660430" lon="-3.5872780">
        <ele>1003.0</ele>
        <time>2020-09-29T10:45:31Z</time>
      </trkpt>
      <trkpt lat="40.9660430" lon="-3.5872780">
        <ele>1003.0</ele>
        <time>2020-09-29T10:45:32Z</time>
      </trkpt>
      <trkpt lat="40.9661020" lon="-3.5874000">
        <ele>1004.0</ele>
        <time>2020-09-29T10:45:33Z</time>
      </trkpt>
      <trkpt lat="40.9661320" lon="-3.5874580">
        <ele>1004.0</ele>
        <time>2020-09-29T10:45:34Z</time>
      </trkpt>
      <trkpt lat="40.9661320" lon="-3.5874580">
        <ele>1004.0</ele>
        <time>2020-09-29T10:45:35Z</time>
      </trkpt>
      <trkpt lat="40.9661930" lon="-3.5875750">
        <ele>1004.0</ele>
        <time>2020-09-29T10:45:36Z</time>
      </trkpt>
      <trkpt lat="40.9662250" lon="-3.5876330">
        <ele>1004.0</ele>
        <time>2020-09-29T10:45:37Z</time>
      </trkpt>
      <trkpt lat="40.9662250" lon="-3.5876330">
        <ele>1004.0</ele>
        <time>2020-09-29T10:45:38Z</time>
      </trkpt>
      <trkpt lat="40.9662880" lon="-3.5877500">
        <ele>1004.0</ele>
        <time>2020-09-29T10:45:39Z</time>
      </trkpt>
      <trkpt lat="40.9662880" lon="-3.5877500">
        <ele>1004.0</ele>
        <time>2020-09-29T10:45:40Z</time>
      </trkpt>
      <trkpt lat="40.9663550" lon="-3.5878680">
        <ele>1004.0</ele>
        <time>2020-09-29T10:45:41Z</time>
      </trkpt>
      <trkpt lat="40.9663880" lon="-3.5879270">
        <ele>1004.0</ele>
        <time>2020-09-29T10:45:42Z</time>
      </trkpt>
      <trkpt lat="40.9664230" lon="-3.5879830">
        <ele>1004.0</ele>
        <time>2020-09-29T10:45:43Z</time>
      </trkpt>
      <trkpt lat="40.9664230" lon="-3.5879830">
        <ele>1004.0</ele>
        <time>2020-09-29T10:45:44Z</time>
      </trkpt>
      <trkpt lat="40.9664930" lon="-3.5881000">
        <ele>1004.0</ele>
        <time>2020-09-29T10:45:45Z</time>
      </trkpt>
      <trkpt lat="40.9664930" lon="-3.5881000">
        <ele>1004.0</ele>
        <time>2020-09-29T10:45:46Z</time>
      </trkpt>
      <trkpt lat="40.9665680" lon="-3.5882070">
        <ele>1004.0</ele>
        <time>2020-09-29T10:45:47Z</time>
      </trkpt>
      <trkpt lat="40.9665680" lon="-3.5882070">
        <ele>1004.0</ele>
        <time>2020-09-29T10:45:48Z</time>
      </trkpt>
      <trkpt lat="40.9666480" lon="-3.5883130">
        <ele>1004.0</ele>
        <time>2020-09-29T10:45:49Z</time>
      </trkpt>
      <trkpt lat="40.9666480" lon="-3.5883130">
        <ele>1004.0</ele>
        <time>2020-09-29T10:45:50Z</time>
      </trkpt>
      <trkpt lat="40.9667230" lon="-3.5884180">
        <ele>1004.0</ele>
        <time>2020-09-29T10:45:51Z</time>
      </trkpt>
      <trkpt lat="40.9667230" lon="-3.5884180">
        <ele>1004.0</ele>
        <time>2020-09-29T10:45:52Z</time>
      </trkpt>
      <trkpt lat="40.9668050" lon="-3.5885120">
        <ele>1004.0</ele>
        <time>2020-09-29T10:45:53Z</time>
      </trkpt>
      <trkpt lat="40.9668050" lon="-3.5885120">
        <ele>1004.0</ele>
        <time>2020-09-29T10:45:54Z</time>
      </trkpt>
      <trkpt lat="40.9669080" lon="-3.5885730">
        <ele>1004.0</ele>
        <time>2020-09-29T10:45:55Z</time>
      </trkpt>
      <trkpt lat="40.9669080" lon="-3.5885730">
        <ele>1004.0</ele>
        <time>2020-09-29T10:45:56Z</time>
      </trkpt>
      <trkpt lat="40.9670170" lon="-3.5885930">
        <ele>1004.0</ele>
        <time>2020-09-29T10:45:57Z</time>
      </trkpt>
      <trkpt lat="40.9670720" lon="-3.5885900">
        <ele>1004.0</ele>
        <time>2020-09-29T10:45:58Z</time>
      </trkpt>
      <trkpt lat="40.9670720" lon="-3.5885900">
        <ele>1004.0</ele>
        <time>2020-09-29T10:45:59Z</time>
      </trkpt>
      <trkpt lat="40.9671780" lon="-3.5885850">
        <ele>1004.0</ele>
        <time>2020-09-29T10:46:00Z</time>
      </trkpt>
      <trkpt lat="40.9672300" lon="-3.5885880">
        <ele>1004.0</ele>
        <time>2020-09-29T10:46:01Z</time>
      </trkpt>
      <trkpt lat="40.9672300" lon="-3.5885880">
        <ele>1004.0</ele>
        <time>2020-09-29T10:46:02Z</time>
      </trkpt>
      <trkpt lat="40.9673330" lon="-3.5886000">
        <ele>1004.0</ele>
        <time>2020-09-29T10:46:03Z</time>
      </trkpt>
      <trkpt lat="40.9673870" lon="-3.5886030">
        <ele>1004.0</ele>
        <time>2020-09-29T10:46:04Z</time>
      </trkpt>
      <trkpt lat="40.9673870" lon="-3.5886030">
        <ele>1004.0</ele>
        <time>2020-09-29T10:46:05Z</time>
      </trkpt>
      <trkpt lat="40.9674900" lon="-3.5886000">
        <ele>1004.0</ele>
        <time>2020-09-29T10:46:06Z</time>
      </trkpt>
      <trkpt lat="40.9674900" lon="-3.5886000">
        <ele>1004.0</ele>
        <time>2020-09-29T10:46:07Z</time>
      </trkpt>
      <trkpt lat="40.9675920" lon="-3.5885880">
        <ele>1004.0</ele>
        <time>2020-09-29T10:46:08Z</time>
      </trkpt>
      <trkpt lat="40.9675920" lon="-3.5885880">
        <ele>1004.0</ele>
        <time>2020-09-29T10:46:09Z</time>
      </trkpt>
      <trkpt lat="40.9677000" lon="-3.5885630">
        <ele>1004.0</ele>
        <time>2020-09-29T10:46:10Z</time>
      </trkpt>
      <trkpt lat="40.9677000" lon="-3.5885630">
        <ele>1004.0</ele>
        <time>2020-09-29T10:46:11Z</time>
      </trkpt>
      <trkpt lat="40.9678050" lon="-3.5885270">
        <ele>1004.0</ele>
        <time>2020-09-29T10:46:12Z</time>
      </trkpt>
      <trkpt lat="40.9678550" lon="-3.5885050">
        <ele>1004.0</ele>
        <time>2020-09-29T10:46:13Z</time>
      </trkpt>
      <trkpt lat="40.9678550" lon="-3.5885050">
        <ele>1004.0</ele>
        <time>2020-09-29T10:46:14Z</time>
      </trkpt>
      <trkpt lat="40.9679550" lon="-3.5884500">
        <ele>1004.0</ele>
        <time>2020-09-29T10:46:15Z</time>
      </trkpt>
      <trkpt lat="40.9679550" lon="-3.5884500">
        <ele>1004.0</ele>
        <time>2020-09-29T10:46:16Z</time>
      </trkpt>
      <trkpt lat="40.9680480" lon="-3.5883800">
        <ele>1004.0</ele>
        <time>2020-09-29T10:46:17Z</time>
      </trkpt>
      <trkpt lat="40.9680480" lon="-3.5883800">
        <ele>1004.0</ele>
        <time>2020-09-29T10:46:18Z</time>
      </trkpt>
      <trkpt lat="40.9681280" lon="-3.5882950">
        <ele>1004.0</ele>
        <time>2020-09-29T10:46:19Z</time>
      </trkpt>
      <trkpt lat="40.9681280" lon="-3.5882950">
        <ele>1004.0</ele>
        <time>2020-09-29T10:46:20Z</time>
      </trkpt>
      <trkpt lat="40.9682130" lon="-3.5881980">
        <ele>1004.0</ele>
        <time>2020-09-29T10:46:21Z</time>
      </trkpt>
      <trkpt lat="40.9682130" lon="-3.5881980">
        <ele>1004.0</ele>
        <time>2020-09-29T10:46:22Z</time>
      </trkpt>
      <trkpt lat="40.9682130" lon="-3.5881980">
        <ele>1004.0</ele>
        <time>2020-09-29T10:46:23Z</time>
      </trkpt>
      <trkpt lat="40.9682950" lon="-3.5881100">
        <ele>1004.0</ele>
        <time>2020-09-29T10:46:24Z</time>
      </trkpt>
      <trkpt lat="40.9683730" lon="-3.5880270">
        <ele>1005.0</ele>
        <time>2020-09-29T10:46:25Z</time>
      </trkpt>
      <trkpt lat="40.9683730" lon="-3.5880270">
        <ele>1005.0</ele>
        <time>2020-09-29T10:46:26Z</time>
      </trkpt>
      <trkpt lat="40.9684520" lon="-3.5879550">
        <ele>1005.0</ele>
        <time>2020-09-29T10:46:27Z</time>
      </trkpt>
      <trkpt lat="40.9684920" lon="-3.5879220">
        <ele>1005.0</ele>
        <time>2020-09-29T10:46:28Z</time>
      </trkpt>
      <trkpt lat="40.9684920" lon="-3.5879220">
        <ele>1006.0</ele>
        <time>2020-09-29T10:46:29Z</time>
      </trkpt>
      <trkpt lat="40.9685670" lon="-3.5878630">
        <ele>1006.0</ele>
        <time>2020-09-29T10:46:30Z</time>
      </trkpt>
      <trkpt lat="40.9686070" lon="-3.5878330">
        <ele>1006.0</ele>
        <time>2020-09-29T10:46:31Z</time>
      </trkpt>
      <trkpt lat="40.9686070" lon="-3.5878330">
        <ele>1007.0</ele>
        <time>2020-09-29T10:46:32Z</time>
      </trkpt>
      <trkpt lat="40.9686900" lon="-3.5877830">
        <ele>1007.0</ele>
        <time>2020-09-29T10:46:33Z</time>
      </trkpt>
      <trkpt lat="40.9686900" lon="-3.5877830">
        <ele>1008.0</ele>
        <time>2020-09-29T10:46:34Z</time>
      </trkpt>
      <trkpt lat="40.9687750" lon="-3.5877430">
        <ele>1008.0</ele>
        <time>2020-09-29T10:46:35Z</time>
      </trkpt>
      <trkpt lat="40.9687750" lon="-3.5877430">
        <ele>1008.0</ele>
        <time>2020-09-29T10:46:36Z</time>
      </trkpt>
      <trkpt lat="40.9688630" lon="-3.5877070">
        <ele>1008.0</ele>
        <time>2020-09-29T10:46:37Z</time>
      </trkpt>
      <trkpt lat="40.9688630" lon="-3.5877070">
        <ele>1009.0</ele>
        <time>2020-09-29T10:46:38Z</time>
      </trkpt>
      <trkpt lat="40.9689520" lon="-3.5876780">
        <ele>1009.0</ele>
        <time>2020-09-29T10:46:39Z</time>
      </trkpt>
      <trkpt lat="40.9689950" lon="-3.5876600">
        <ele>1009.0</ele>
        <time>2020-09-29T10:46:40Z</time>
      </trkpt>
      <trkpt lat="40.9689950" lon="-3.5876600">
        <ele>1009.0</ele>
        <time>2020-09-29T10:46:41Z</time>
      </trkpt>
      <trkpt lat="40.9690820" lon="-3.5876230">
        <ele>1010.0</ele>
        <time>2020-09-29T10:46:42Z</time>
      </trkpt>
      <trkpt lat="40.9691230" lon="-3.5876070">
        <ele>1010.0</ele>
        <time>2020-09-29T10:46:43Z</time>
      </trkpt>
      <trkpt lat="40.9691230" lon="-3.5876070">
        <ele>1010.0</ele>
        <time>2020-09-29T10:46:44Z</time>
      </trkpt>
      <trkpt lat="40.9692070" lon="-3.5875720">
        <ele>1010.0</ele>
        <time>2020-09-29T10:46:45Z</time>
      </trkpt>
      <trkpt lat="40.9692480" lon="-3.5875530">
        <ele>1011.0</ele>
        <time>2020-09-29T10:46:46Z</time>
      </trkpt>
      <trkpt lat="40.9692480" lon="-3.5875530">
        <ele>1011.0</ele>
        <time>2020-09-29T10:46:47Z</time>
      </trkpt>
      <trkpt lat="40.9693280" lon="-3.5875180">
        <ele>1011.0</ele>
        <time>2020-09-29T10:46:48Z</time>
      </trkpt>
      <trkpt lat="40.9693680" lon="-3.5875000">
        <ele>1011.0</ele>
        <time>2020-09-29T10:46:49Z</time>
      </trkpt>
      <trkpt lat="40.9693680" lon="-3.5875000">
        <ele>1012.0</ele>
        <time>2020-09-29T10:46:50Z</time>
      </trkpt>
      <trkpt lat="40.9694480" lon="-3.5874630">
        <ele>1012.0</ele>
        <time>2020-09-29T10:46:51Z</time>
      </trkpt>
      <trkpt lat="40.9694480" lon="-3.5874630">
        <ele>1012.0</ele>
        <time>2020-09-29T10:46:52Z</time>
      </trkpt>
      <trkpt lat="40.9694480" lon="-3.5874630">
        <ele>1012.0</ele>
        <time>2020-09-29T10:46:53Z</time>
      </trkpt>
      <trkpt lat="40.9695270" lon="-3.5874270">
        <ele>1013.0</ele>
        <time>2020-09-29T10:46:54Z</time>
      </trkpt>
      <trkpt lat="40.9696050" lon="-3.5873870">
        <ele>1013.0</ele>
        <time>2020-09-29T10:46:55Z</time>
      </trkpt>
      <trkpt lat="40.9696050" lon="-3.5873870">
        <ele>1013.0</ele>
        <time>2020-09-29T10:46:56Z</time>
      </trkpt>
      <trkpt lat="40.9696800" lon="-3.5873370">
        <ele>1013.0</ele>
        <time>2020-09-29T10:46:57Z</time>
      </trkpt>
      <trkpt lat="40.9697170" lon="-3.5873070">
        <ele>1013.0</ele>
        <time>2020-09-29T10:46:58Z</time>
      </trkpt>
      <trkpt lat="40.9697170" lon="-3.5873070">
        <ele>1013.0</ele>
        <time>2020-09-29T10:46:59Z</time>
      </trkpt>
      <trkpt lat="40.9697850" lon="-3.5872330">
        <ele>1014.0</ele>
        <time>2020-09-29T10:47:00Z</time>
      </trkpt>
      <trkpt lat="40.9698150" lon="-3.5871930">
        <ele>1014.0</ele>
        <time>2020-09-29T10:47:01Z</time>
      </trkpt>
      <trkpt lat="40.9698150" lon="-3.5871930">
        <ele>1014.0</ele>
        <time>2020-09-29T10:47:02Z</time>
      </trkpt>
      <trkpt lat="40.9698670" lon="-3.5871020">
        <ele>1014.0</ele>
        <time>2020-09-29T10:47:03Z</time>
      </trkpt>
      <trkpt lat="40.9698880" lon="-3.5870530">
        <ele>1014.0</ele>
        <time>2020-09-29T10:47:04Z</time>
      </trkpt>
      <trkpt lat="40.9699080" lon="-3.5870050">
        <ele>1014.0</ele>
        <time>2020-09-29T10:47:05Z</time>
      </trkpt>
      <trkpt lat="40.9699080" lon="-3.5870050">
        <ele>1014.0</ele>
        <time>2020-09-29T10:47:06Z</time>
      </trkpt>
      <trkpt lat="40.9699580" lon="-3.5869150">
        <ele>1014.0</ele>
        <time>2020-09-29T10:47:07Z</time>
      </trkpt>
      <trkpt lat="40.9699580" lon="-3.5869150">
        <ele>1014.0</ele>
        <time>2020-09-29T10:47:08Z</time>
      </trkpt>
      <trkpt lat="40.9700130" lon="-3.5868330">
        <ele>1014.0</ele>
        <time>2020-09-29T10:47:09Z</time>
      </trkpt>
      <trkpt lat="40.9700430" lon="-3.5867950">
        <ele>1014.0</ele>
        <time>2020-09-29T10:47:10Z</time>
      </trkpt>
      <trkpt lat="40.9700430" lon="-3.5867950">
        <ele>1014.0</ele>
        <time>2020-09-29T10:47:11Z</time>
      </trkpt>
      <trkpt lat="40.9701100" lon="-3.5867250">
        <ele>1014.0</ele>
        <time>2020-09-29T10:47:12Z</time>
      </trkpt>
      <trkpt lat="40.9701100" lon="-3.5867250">
        <ele>1014.0</ele>
        <time>2020-09-29T10:47:13Z</time>
      </trkpt>
      <trkpt lat="40.9701850" lon="-3.5866650">
        <ele>1014.0</ele>
        <time>2020-09-29T10:47:14Z</time>
      </trkpt>
      <trkpt lat="40.9702280" lon="-3.5866420">
        <ele>1014.0</ele>
        <time>2020-09-29T10:47:15Z</time>
      </trkpt>
      <trkpt lat="40.9702280" lon="-3.5866420">
        <ele>1014.0</ele>
        <time>2020-09-29T10:47:16Z</time>
      </trkpt>
      <trkpt lat="40.9703300" lon="-3.5866170">
        <ele>1014.0</ele>
        <time>2020-09-29T10:47:17Z</time>
      </trkpt>
      <trkpt lat="40.9703300" lon="-3.5866170">
        <ele>1014.0</ele>
        <time>2020-09-29T10:47:18Z</time>
      </trkpt>
      <trkpt lat="40.9704430" lon="-3.5866050">
        <ele>1013.0</ele>
        <time>2020-09-29T10:47:19Z</time>
      </trkpt>
      <trkpt lat="40.9704430" lon="-3.5866050">
        <ele>1013.0</ele>
        <time>2020-09-29T10:47:20Z</time>
      </trkpt>
      <trkpt lat="40.9705680" lon="-3.5866020">
        <ele>1013.0</ele>
        <time>2020-09-29T10:47:21Z</time>
      </trkpt>
      <trkpt lat="40.9705680" lon="-3.5866020">
        <ele>1013.0</ele>
        <time>2020-09-29T10:47:22Z</time>
      </trkpt>
      <trkpt lat="40.9707030" lon="-3.5866170">
        <ele>1012.0</ele>
        <time>2020-09-29T10:47:23Z</time>
      </trkpt>
      <trkpt lat="40.9707030" lon="-3.5866170">
        <ele>1012.0</ele>
        <time>2020-09-29T10:47:24Z</time>
      </trkpt>
      <trkpt lat="40.9708430" lon="-3.5866580">
        <ele>1012.0</ele>
        <time>2020-09-29T10:47:25Z</time>
      </trkpt>
      <trkpt lat="40.9708430" lon="-3.5866580">
        <ele>1012.0</ele>
        <time>2020-09-29T10:47:26Z</time>
      </trkpt>
      <trkpt lat="40.9709880" lon="-3.5867180">
        <ele>1011.0</ele>
        <time>2020-09-29T10:47:27Z</time>
      </trkpt>
      <trkpt lat="40.9710630" lon="-3.5867500">
        <ele>1011.0</ele>
        <time>2020-09-29T10:47:28Z</time>
      </trkpt>
      <trkpt lat="40.9710630" lon="-3.5867500">
        <ele>1011.0</ele>
        <time>2020-09-29T10:47:29Z</time>
      </trkpt>
      <trkpt lat="40.9712170" lon="-3.5868220">
        <ele>1011.0</ele>
        <time>2020-09-29T10:47:30Z</time>
      </trkpt>
      <trkpt lat="40.9712970" lon="-3.5868600">
        <ele>1010.0</ele>
        <time>2020-09-29T10:47:31Z</time>
      </trkpt>
      <trkpt lat="40.9712970" lon="-3.5868600">
        <ele>1010.0</ele>
        <time>2020-09-29T10:47:32Z</time>
      </trkpt>
      <trkpt lat="40.9714650" lon="-3.5869350">
        <ele>1009.0</ele>
        <time>2020-09-29T10:47:33Z</time>
      </trkpt>
      <trkpt lat="40.9715500" lon="-3.5869730">
        <ele>1009.0</ele>
        <time>2020-09-29T10:47:34Z</time>
      </trkpt>
      <trkpt lat="40.9715500" lon="-3.5869730">
        <ele>1008.0</ele>
        <time>2020-09-29T10:47:35Z</time>
      </trkpt>
      <trkpt lat="40.9717250" lon="-3.5870650">
        <ele>1008.0</ele>
        <time>2020-09-29T10:47:36Z</time>
      </trkpt>
      <trkpt lat="40.9718120" lon="-3.5871130">
        <ele>1008.0</ele>
        <time>2020-09-29T10:47:37Z</time>
      </trkpt>
      <trkpt lat="40.9718120" lon="-3.5871130">
        <ele>1008.0</ele>
        <time>2020-09-29T10:47:38Z</time>
      </trkpt>
      <trkpt lat="40.9719870" lon="-3.5872000">
        <ele>1008.0</ele>
        <time>2020-09-29T10:47:39Z</time>
      </trkpt>
      <trkpt lat="40.9719870" lon="-3.5872000">
        <ele>1008.0</ele>
        <time>2020-09-29T10:47:40Z</time>
      </trkpt>
      <trkpt lat="40.9721720" lon="-3.5872520">
        <ele>1006.0</ele>
        <time>2020-09-29T10:47:41Z</time>
      </trkpt>
      <trkpt lat="40.9722670" lon="-3.5872530">
        <ele>1006.0</ele>
        <time>2020-09-29T10:47:42Z</time>
      </trkpt>
      <trkpt lat="40.9722670" lon="-3.5872530">
        <ele>1006.0</ele>
        <time>2020-09-29T10:47:43Z</time>
      </trkpt>
      <trkpt lat="40.9724570" lon="-3.5872400">
        <ele>1006.0</ele>
        <time>2020-09-29T10:47:44Z</time>
      </trkpt>
      <trkpt lat="40.9724570" lon="-3.5872400">
        <ele>1005.0</ele>
        <time>2020-09-29T10:47:45Z</time>
      </trkpt>
      <trkpt lat="40.9726400" lon="-3.5872300">
        <ele>1005.0</ele>
        <time>2020-09-29T10:47:46Z</time>
      </trkpt>
      <trkpt lat="40.9726400" lon="-3.5872300">
        <ele>1005.0</ele>
        <time>2020-09-29T10:47:47Z</time>
      </trkpt>
      <trkpt lat="40.9728200" lon="-3.5872170">
        <ele>1005.0</ele>
        <time>2020-09-29T10:47:48Z</time>
      </trkpt>
      <trkpt lat="40.9728200" lon="-3.5872170">
        <ele>1005.0</ele>
        <time>2020-09-29T10:47:49Z</time>
      </trkpt>
      <trkpt lat="40.9729980" lon="-3.5872120">
        <ele>1005.0</ele>
        <time>2020-09-29T10:47:50Z</time>
      </trkpt>
      <trkpt lat="40.9730830" lon="-3.5872270">
        <ele>1005.0</ele>
        <time>2020-09-29T10:47:51Z</time>
      </trkpt>
      <trkpt lat="40.9730830" lon="-3.5872270">
        <ele>1004.0</ele>
        <time>2020-09-29T10:47:52Z</time>
      </trkpt>
      <trkpt lat="40.9732520" lon="-3.5872900">
        <ele>1004.0</ele>
        <time>2020-09-29T10:47:53Z</time>
      </trkpt>
      <trkpt lat="40.9732520" lon="-3.5872900">
        <ele>1003.0</ele>
        <time>2020-09-29T10:47:54Z</time>
      </trkpt>
      <trkpt lat="40.9734170" lon="-3.5873970">
        <ele>1003.0</ele>
        <time>2020-09-29T10:47:55Z</time>
      </trkpt>
      <trkpt lat="40.9734170" lon="-3.5873970">
        <ele>1002.0</ele>
        <time>2020-09-29T10:47:56Z</time>
      </trkpt>
      <trkpt lat="40.9735920" lon="-3.5875080">
        <ele>1002.0</ele>
        <time>2020-09-29T10:47:57Z</time>
      </trkpt>
      <trkpt lat="40.9736880" lon="-3.5875500">
        <ele>1001.0</ele>
        <time>2020-09-29T10:47:58Z</time>
      </trkpt>
      <trkpt lat="40.9736880" lon="-3.5875500">
        <ele>1001.0</ele>
        <time>2020-09-29T10:47:59Z</time>
      </trkpt>
      <trkpt lat="40.9738950" lon="-3.5875930">
        <ele>1000.0</ele>
        <time>2020-09-29T10:48:00Z</time>
      </trkpt>
      <trkpt lat="40.9738950" lon="-3.5875930">
        <ele>1000.0</ele>
        <time>2020-09-29T10:48:01Z</time>
      </trkpt>
      <trkpt lat="40.9741170" lon="-3.5875720">
        <ele>1000.0</ele>
        <time>2020-09-29T10:48:02Z</time>
      </trkpt>
      <trkpt lat="40.9742270" lon="-3.5875420">
        <ele>999.0</ele>
        <time>2020-09-29T10:48:03Z</time>
      </trkpt>
      <trkpt lat="40.9743350" lon="-3.5875020">
        <ele>999.0</ele>
        <time>2020-09-29T10:48:04Z</time>
      </trkpt>
      <trkpt lat="40.9743350" lon="-3.5875020">
        <ele>997.0</ele>
        <time>2020-09-29T10:48:05Z</time>
      </trkpt>
      <trkpt lat="40.9745570" lon="-3.5874120">
        <ele>997.0</ele>
        <time>2020-09-29T10:48:06Z</time>
      </trkpt>
      <trkpt lat="40.9746680" lon="-3.5873700">
        <ele>996.0</ele>
        <time>2020-09-29T10:48:07Z</time>
      </trkpt>
      <trkpt lat="40.9746680" lon="-3.5873700">
        <ele>996.0</ele>
        <time>2020-09-29T10:48:08Z</time>
      </trkpt>
      <trkpt lat="40.9746680" lon="-3.5873700">
        <ele>994.0</ele>
        <time>2020-09-29T10:48:09Z</time>
      </trkpt>
      <trkpt lat="40.9748950" lon="-3.5873230">
        <ele>994.0</ele>
        <time>2020-09-29T10:48:10Z</time>
      </trkpt>
      <trkpt lat="40.9751200" lon="-3.5873220">
        <ele>993.0</ele>
        <time>2020-09-29T10:48:11Z</time>
      </trkpt>
      <trkpt lat="40.9751200" lon="-3.5873220">
        <ele>993.0</ele>
        <time>2020-09-29T10:48:12Z</time>
      </trkpt>
      <trkpt lat="40.9753400" lon="-3.5873520">
        <ele>991.0</ele>
        <time>2020-09-29T10:48:13Z</time>
      </trkpt>
      <trkpt lat="40.9753400" lon="-3.5873520">
        <ele>991.0</ele>
        <time>2020-09-29T10:48:14Z</time>
      </trkpt>
      <trkpt lat="40.9755520" lon="-3.5873430">
        <ele>990.0</ele>
        <time>2020-09-29T10:48:15Z</time>
      </trkpt>
      <trkpt lat="40.9755520" lon="-3.5873430">
        <ele>990.0</ele>
        <time>2020-09-29T10:48:16Z</time>
      </trkpt>
      <trkpt lat="40.9757380" lon="-3.5872470">
        <ele>990.0</ele>
        <time>2020-09-29T10:48:17Z</time>
      </trkpt>
      <trkpt lat="40.9758130" lon="-3.5871670">
        <ele>990.0</ele>
        <time>2020-09-29T10:48:18Z</time>
      </trkpt>
      <trkpt lat="40.9758780" lon="-3.5870750">
        <ele>989.0</ele>
        <time>2020-09-29T10:48:19Z</time>
      </trkpt>
      <trkpt lat="40.9758780" lon="-3.5870750">
        <ele>989.0</ele>
        <time>2020-09-29T10:48:20Z</time>
      </trkpt>
      <trkpt lat="40.9759820" lon="-3.5868780">
        <ele>989.0</ele>
        <time>2020-09-29T10:48:21Z</time>
      </trkpt>
      <trkpt lat="40.9760300" lon="-3.5867720">
        <ele>988.0</ele>
        <time>2020-09-29T10:48:22Z</time>
      </trkpt>
      <trkpt lat="40.9760300" lon="-3.5867720">
        <ele>988.0</ele>
        <time>2020-09-29T10:48:23Z</time>
      </trkpt>
      <trkpt lat="40.9761330" lon="-3.5865550">
        <ele>988.0</ele>
        <time>2020-09-29T10:48:24Z</time>
      </trkpt>
      <trkpt lat="40.9761950" lon="-3.5864480">
        <ele>988.0</ele>
        <time>2020-09-29T10:48:25Z</time>
      </trkpt>
      <trkpt lat="40.9761950" lon="-3.5864480">
        <ele>986.0</ele>
        <time>2020-09-29T10:48:26Z</time>
      </trkpt>
      <trkpt lat="40.9763500" lon="-3.5862550">
        <ele>986.0</ele>
        <time>2020-09-29T10:48:27Z</time>
      </trkpt>
      <trkpt lat="40.9763500" lon="-3.5862550">
        <ele>985.0</ele>
        <time>2020-09-29T10:48:28Z</time>
      </trkpt>
      <trkpt lat="40.9763500" lon="-3.5862550">
        <ele>985.0</ele>
        <time>2020-09-29T10:48:29Z</time>
      </trkpt>
      <trkpt lat="40.9765530" lon="-3.5861280">
        <ele>984.0</ele>
        <time>2020-09-29T10:48:30Z</time>
      </trkpt>
      <trkpt lat="40.9767630" lon="-3.5860500">
        <ele>984.0</ele>
        <time>2020-09-29T10:48:31Z</time>
      </trkpt>
      <trkpt lat="40.9767630" lon="-3.5860500">
        <ele>983.0</ele>
        <time>2020-09-29T10:48:32Z</time>
      </trkpt>
      <trkpt lat="40.9769550" lon="-3.5859470">
        <ele>983.0</ele>
        <time>2020-09-29T10:48:33Z</time>
      </trkpt>
      <trkpt lat="40.9769550" lon="-3.5859470">
        <ele>982.0</ele>
        <time>2020-09-29T10:48:34Z</time>
      </trkpt>
      <trkpt lat="40.9771250" lon="-3.5857970">
        <ele>982.0</ele>
        <time>2020-09-29T10:48:35Z</time>
      </trkpt>
      <trkpt lat="40.9771880" lon="-3.5856970">
        <ele>982.0</ele>
        <time>2020-09-29T10:48:36Z</time>
      </trkpt>
      <trkpt lat="40.9772350" lon="-3.5855830">
        <ele>982.0</ele>
        <time>2020-09-29T10:48:37Z</time>
      </trkpt>
      <trkpt lat="40.9772350" lon="-3.5855830">
        <ele>981.0</ele>
        <time>2020-09-29T10:48:38Z</time>
      </trkpt>
      <trkpt lat="40.9772970" lon="-3.5853480">
        <ele>981.0</ele>
        <time>2020-09-29T10:48:39Z</time>
      </trkpt>
      <trkpt lat="40.9773200" lon="-3.5852380">
        <ele>981.0</ele>
        <time>2020-09-29T10:48:40Z</time>
      </trkpt>
      <trkpt lat="40.9773480" lon="-3.5851320">
        <ele>981.0</ele>
        <time>2020-09-29T10:48:41Z</time>
      </trkpt>
      <trkpt lat="40.9773480" lon="-3.5851320">
        <ele>981.0</ele>
        <time>2020-09-29T10:48:42Z</time>
      </trkpt>
      <trkpt lat="40.9774280" lon="-3.5849470">
        <ele>981.0</ele>
        <time>2020-09-29T10:48:43Z</time>
      </trkpt>
      <trkpt lat="40.9774280" lon="-3.5849470">
        <ele>981.0</ele>
        <time>2020-09-29T10:48:44Z</time>
      </trkpt>
      <trkpt lat="40.9775250" lon="-3.5847850">
        <ele>981.0</ele>
        <time>2020-09-29T10:48:45Z</time>
      </trkpt>
      <trkpt lat="40.9775250" lon="-3.5847850">
        <ele>981.0</ele>
        <time>2020-09-29T10:48:46Z</time>
      </trkpt>
      <trkpt lat="40.9776100" lon="-3.5846200">
        <ele>981.0</ele>
        <time>2020-09-29T10:48:47Z</time>
      </trkpt>
      <trkpt lat="40.9776430" lon="-3.5845330">
        <ele>981.0</ele>
        <time>2020-09-29T10:48:48Z</time>
      </trkpt>
      <trkpt lat="40.9776680" lon="-3.5844450">
        <ele>981.0</ele>
        <time>2020-09-29T10:48:49Z</time>
      </trkpt>
      <trkpt lat="40.9776680" lon="-3.5844450">
        <ele>982.0</ele>
        <time>2020-09-29T10:48:50Z</time>
      </trkpt>
      <trkpt lat="40.9777020" lon="-3.5842620">
        <ele>982.0</ele>
        <time>2020-09-29T10:48:51Z</time>
      </trkpt>
      <trkpt lat="40.9777020" lon="-3.5842620">
        <ele>982.0</ele>
        <time>2020-09-29T10:48:52Z</time>
      </trkpt>
      <trkpt lat="40.9776970" lon="-3.5840700">
        <ele>982.0</ele>
        <time>2020-09-29T10:48:53Z</time>
      </trkpt>
      <trkpt lat="40.9776830" lon="-3.5839780">
        <ele>982.0</ele>
        <time>2020-09-29T10:48:54Z</time>
      </trkpt>
      <trkpt lat="40.9776680" lon="-3.5838870">
        <ele>982.0</ele>
        <time>2020-09-29T10:48:55Z</time>
      </trkpt>
      <trkpt lat="40.9776680" lon="-3.5838870">
        <ele>982.0</ele>
        <time>2020-09-29T10:48:56Z</time>
      </trkpt>
      <trkpt lat="40.9776380" lon="-3.5837000">
        <ele>982.0</ele>
        <time>2020-09-29T10:48:57Z</time>
      </trkpt>
      <trkpt lat="40.9776200" lon="-3.5836030">
        <ele>982.0</ele>
        <time>2020-09-29T10:48:58Z</time>
      </trkpt>
      <trkpt lat="40.9776030" lon="-3.5835030">
        <ele>982.0</ele>
        <time>2020-09-29T10:48:59Z</time>
      </trkpt>
      <trkpt lat="40.9776030" lon="-3.5835030">
        <ele>982.0</ele>
        <time>2020-09-29T10:49:00Z</time>
      </trkpt>
      <trkpt lat="40.9775800" lon="-3.5832980">
        <ele>982.0</ele>
        <time>2020-09-29T10:49:01Z</time>
      </trkpt>
      <trkpt lat="40.9775680" lon="-3.5831950">
        <ele>982.0</ele>
        <time>2020-09-29T10:49:02Z</time>
      </trkpt>
      <trkpt lat="40.9775680" lon="-3.5831950">
        <ele>982.0</ele>
        <time>2020-09-29T10:49:03Z</time>
      </trkpt>
      <trkpt lat="40.9775480" lon="-3.5829850">
        <ele>982.0</ele>
        <time>2020-09-29T10:49:04Z</time>
      </trkpt>
      <trkpt lat="40.9775480" lon="-3.5829850">
        <ele>982.0</ele>
        <time>2020-09-29T10:49:05Z</time>
      </trkpt>
      <trkpt lat="40.9775350" lon="-3.5827720">
        <ele>982.0</ele>
        <time>2020-09-29T10:49:06Z</time>
      </trkpt>
      <trkpt lat="40.9775370" lon="-3.5826620">
        <ele>981.0</ele>
        <time>2020-09-29T10:49:07Z</time>
      </trkpt>
      <trkpt lat="40.9775520" lon="-3.5825550">
        <ele>981.0</ele>
        <time>2020-09-29T10:49:08Z</time>
      </trkpt>
      <trkpt lat="40.9775520" lon="-3.5825550">
        <ele>981.0</ele>
        <time>2020-09-29T10:49:09Z</time>
      </trkpt>
      <trkpt lat="40.9776300" lon="-3.5823500">
        <ele>981.0</ele>
        <time>2020-09-29T10:49:10Z</time>
      </trkpt>
      <trkpt lat="40.9776300" lon="-3.5823500">
        <ele>980.0</ele>
        <time>2020-09-29T10:49:11Z</time>
      </trkpt>
      <trkpt lat="40.9777480" lon="-3.5821620">
        <ele>980.0</ele>
        <time>2020-09-29T10:49:12Z</time>
      </trkpt>
      <trkpt lat="40.9777480" lon="-3.5821620">
        <ele>980.0</ele>
        <time>2020-09-29T10:49:13Z</time>
      </trkpt>
      <trkpt lat="40.9778850" lon="-3.5819850">
        <ele>980.0</ele>
        <time>2020-09-29T10:49:14Z</time>
      </trkpt>
      <trkpt lat="40.9779550" lon="-3.5818950">
        <ele>978.0</ele>
        <time>2020-09-29T10:49:15Z</time>
      </trkpt>
      <trkpt lat="40.9779550" lon="-3.5818950">
        <ele>978.0</ele>
        <time>2020-09-29T10:49:16Z</time>
      </trkpt>
      <trkpt lat="40.9780950" lon="-3.5817100">
        <ele>978.0</ele>
        <time>2020-09-29T10:49:17Z</time>
      </trkpt>
      <trkpt lat="40.9780950" lon="-3.5817100">
        <ele>978.0</ele>
        <time>2020-09-29T10:49:18Z</time>
      </trkpt>
      <trkpt lat="40.9782320" lon="-3.5815180">
        <ele>977.0</ele>
        <time>2020-09-29T10:49:19Z</time>
      </trkpt>
      <trkpt lat="40.9783000" lon="-3.5814220">
        <ele>977.0</ele>
        <time>2020-09-29T10:49:20Z</time>
      </trkpt>
      <trkpt lat="40.9783000" lon="-3.5814220">
        <ele>976.0</ele>
        <time>2020-09-29T10:49:21Z</time>
      </trkpt>
      <trkpt lat="40.9784370" lon="-3.5812330">
        <ele>976.0</ele>
        <time>2020-09-29T10:49:22Z</time>
      </trkpt>
      <trkpt lat="40.9784370" lon="-3.5812330">
        <ele>975.0</ele>
        <time>2020-09-29T10:49:23Z</time>
      </trkpt>
      <trkpt lat="40.9785750" lon="-3.5810580">
        <ele>975.0</ele>
        <time>2020-09-29T10:49:24Z</time>
      </trkpt>
      <trkpt lat="40.9786450" lon="-3.5809700">
        <ele>975.0</ele>
        <time>2020-09-29T10:49:25Z</time>
      </trkpt>
      <trkpt lat="40.9786450" lon="-3.5809700">
        <ele>975.0</ele>
        <time>2020-09-29T10:49:26Z</time>
      </trkpt>
      <trkpt lat="40.9787650" lon="-3.5807750">
        <ele>974.0</ele>
        <time>2020-09-29T10:49:27Z</time>
      </trkpt>
      <trkpt lat="40.9788080" lon="-3.5806680">
        <ele>974.0</ele>
        <time>2020-09-29T10:49:28Z</time>
      </trkpt>
      <trkpt lat="40.9788080" lon="-3.5806680">
        <ele>974.0</ele>
        <time>2020-09-29T10:49:29Z</time>
      </trkpt>
      <trkpt lat="40.9788800" lon="-3.5804550">
        <ele>974.0</ele>
        <time>2020-09-29T10:49:30Z</time>
      </trkpt>
      <trkpt lat="40.9789120" lon="-3.5803570">
        <ele>974.0</ele>
        <time>2020-09-29T10:49:31Z</time>
      </trkpt>
      <trkpt lat="40.9789120" lon="-3.5803570">
        <ele>974.0</ele>
        <time>2020-09-29T10:49:32Z</time>
      </trkpt>
      <trkpt lat="40.9789780" lon="-3.5801750">
        <ele>974.0</ele>
        <time>2020-09-29T10:49:33Z</time>
      </trkpt>
      <trkpt lat="40.9789780" lon="-3.5801750">
        <ele>974.0</ele>
        <time>2020-09-29T10:49:34Z</time>
      </trkpt>
      <trkpt lat="40.9790550" lon="-3.5800230">
        <ele>974.0</ele>
        <time>2020-09-29T10:49:35Z</time>
      </trkpt>
      <trkpt lat="40.9790980" lon="-3.5799570">
        <ele>974.0</ele>
        <time>2020-09-29T10:49:36Z</time>
      </trkpt>
      <trkpt lat="40.9791470" lon="-3.5799000">
        <ele>974.0</ele>
        <time>2020-09-29T10:49:37Z</time>
      </trkpt>
      <trkpt lat="40.9791470" lon="-3.5799000">
        <ele>975.0</ele>
        <time>2020-09-29T10:49:38Z</time>
      </trkpt>
      <trkpt lat="40.9792430" lon="-3.5798030">
        <ele>975.0</ele>
        <time>2020-09-29T10:49:39Z</time>
      </trkpt>
      <trkpt lat="40.9792950" lon="-3.5797600">
        <ele>975.0</ele>
        <time>2020-09-29T10:49:40Z</time>
      </trkpt>
      <trkpt lat="40.9792950" lon="-3.5797600">
        <ele>975.0</ele>
        <time>2020-09-29T10:49:41Z</time>
      </trkpt>
      <trkpt lat="40.9793880" lon="-3.5796750">
        <ele>975.0</ele>
        <time>2020-09-29T10:49:42Z</time>
      </trkpt>
      <trkpt lat="40.9794370" lon="-3.5796370">
        <ele>975.0</ele>
        <time>2020-09-29T10:49:43Z</time>
      </trkpt>
      <trkpt lat="40.9794370" lon="-3.5796370">
        <ele>975.0</ele>
        <time>2020-09-29T10:49:44Z</time>
      </trkpt>
      <trkpt lat="40.9795350" lon="-3.5795570">
        <ele>975.0</ele>
        <time>2020-09-29T10:49:45Z</time>
      </trkpt>
      <trkpt lat="40.9795870" lon="-3.5795220">
        <ele>975.0</ele>
        <time>2020-09-29T10:49:46Z</time>
      </trkpt>
      <trkpt lat="40.9796330" lon="-3.5794870">
        <ele>975.0</ele>
        <time>2020-09-29T10:49:47Z</time>
      </trkpt>
      <trkpt lat="40.9796330" lon="-3.5794870">
        <ele>976.0</ele>
        <time>2020-09-29T10:49:48Z</time>
      </trkpt>
      <trkpt lat="40.9797250" lon="-3.5794050">
        <ele>976.0</ele>
        <time>2020-09-29T10:49:49Z</time>
      </trkpt>
      <trkpt lat="40.9797250" lon="-3.5794050">
        <ele>976.0</ele>
        <time>2020-09-29T10:49:50Z</time>
      </trkpt>
      <trkpt lat="40.9798150" lon="-3.5793150">
        <ele>976.0</ele>
        <time>2020-09-29T10:49:51Z</time>
      </trkpt>
      <trkpt lat="40.9798600" lon="-3.5792700">
        <ele>977.0</ele>
        <time>2020-09-29T10:49:52Z</time>
      </trkpt>
      <trkpt lat="40.9798600" lon="-3.5792700">
        <ele>977.0</ele>
        <time>2020-09-29T10:49:53Z</time>
      </trkpt>
      <trkpt lat="40.9799500" lon="-3.5791750">
        <ele>977.0</ele>
        <time>2020-09-29T10:49:54Z</time>
      </trkpt>
      <trkpt lat="40.9799970" lon="-3.5791280">
        <ele>977.0</ele>
        <time>2020-09-29T10:49:55Z</time>
      </trkpt>
      <trkpt lat="40.9800470" lon="-3.5790850">
        <ele>977.0</ele>
        <time>2020-09-29T10:49:56Z</time>
      </trkpt>
      <trkpt lat="40.9800470" lon="-3.5790850">
        <ele>977.0</ele>
        <time>2020-09-29T10:49:57Z</time>
      </trkpt>
      <trkpt lat="40.9801500" lon="-3.5790100">
        <ele>977.0</ele>
        <time>2020-09-29T10:49:58Z</time>
      </trkpt>
      <trkpt lat="40.9802030" lon="-3.5789750">
        <ele>977.0</ele>
        <time>2020-09-29T10:49:59Z</time>
      </trkpt>
      <trkpt lat="40.9802030" lon="-3.5789750">
        <ele>977.0</ele>
        <time>2020-09-29T10:50:00Z</time>
      </trkpt>
      <trkpt lat="40.9803100" lon="-3.5789080">
        <ele>977.0</ele>
        <time>2020-09-29T10:50:01Z</time>
      </trkpt>
      <trkpt lat="40.9803100" lon="-3.5789080">
        <ele>977.0</ele>
        <time>2020-09-29T10:50:02Z</time>
      </trkpt>
      <trkpt lat="40.9804220" lon="-3.5788330">
        <ele>977.0</ele>
        <time>2020-09-29T10:50:03Z</time>
      </trkpt>
      <trkpt lat="40.9804220" lon="-3.5788330">
        <ele>977.0</ele>
        <time>2020-09-29T10:50:04Z</time>
      </trkpt>
      <trkpt lat="40.9805380" lon="-3.5787330">
        <ele>977.0</ele>
        <time>2020-09-29T10:50:05Z</time>
      </trkpt>
      <trkpt lat="40.9805980" lon="-3.5786770">
        <ele>977.0</ele>
        <time>2020-09-29T10:50:06Z</time>
      </trkpt>
      <trkpt lat="40.9805980" lon="-3.5786770">
        <ele>977.0</ele>
        <time>2020-09-29T10:50:07Z</time>
      </trkpt>
      <trkpt lat="40.9807180" lon="-3.5785500">
        <ele>977.0</ele>
        <time>2020-09-29T10:50:08Z</time>
      </trkpt>
      <trkpt lat="40.9807180" lon="-3.5785500">
        <ele>977.0</ele>
        <time>2020-09-29T10:50:09Z</time>
      </trkpt>
      <trkpt lat="40.9808420" lon="-3.5784000">
        <ele>976.0</ele>
        <time>2020-09-29T10:50:10Z</time>
      </trkpt>
      <trkpt lat="40.9808420" lon="-3.5784000">
        <ele>976.0</ele>
        <time>2020-09-29T10:50:11Z</time>
      </trkpt>
      <trkpt lat="40.9809680" lon="-3.5782470">
        <ele>975.0</ele>
        <time>2020-09-29T10:50:12Z</time>
      </trkpt>
      <trkpt lat="40.9809680" lon="-3.5782470">
        <ele>975.0</ele>
        <time>2020-09-29T10:50:13Z</time>
      </trkpt>
      <trkpt lat="40.9811030" lon="-3.5781000">
        <ele>975.0</ele>
        <time>2020-09-29T10:50:14Z</time>
      </trkpt>
      <trkpt lat="40.9811730" lon="-3.5780350">
        <ele>975.0</ele>
        <time>2020-09-29T10:50:15Z</time>
      </trkpt>
      <trkpt lat="40.9811730" lon="-3.5780350">
        <ele>975.0</ele>
        <time>2020-09-29T10:50:16Z</time>
      </trkpt>
      <trkpt lat="40.9813170" lon="-3.5779200">
        <ele>975.0</ele>
        <time>2020-09-29T10:50:17Z</time>
      </trkpt>
      <trkpt lat="40.9813170" lon="-3.5779200">
        <ele>974.0</ele>
        <time>2020-09-29T10:50:18Z</time>
      </trkpt>
      <trkpt lat="40.9814580" lon="-3.5778120">
        <ele>974.0</ele>
        <time>2020-09-29T10:50:19Z</time>
      </trkpt>
      <trkpt lat="40.9814580" lon="-3.5778120">
        <ele>974.0</ele>
        <time>2020-09-29T10:50:20Z</time>
      </trkpt>
      <trkpt lat="40.9815850" lon="-3.5777070">
        <ele>974.0</ele>
        <time>2020-09-29T10:50:21Z</time>
      </trkpt>
      <trkpt lat="40.9816470" lon="-3.5776580">
        <ele>974.0</ele>
        <time>2020-09-29T10:50:22Z</time>
      </trkpt>
      <trkpt lat="40.9816470" lon="-3.5776580">
        <ele>974.0</ele>
        <time>2020-09-29T10:50:23Z</time>
      </trkpt>
      <trkpt lat="40.9817680" lon="-3.5775680">
        <ele>974.0</ele>
        <time>2020-09-29T10:50:24Z</time>
      </trkpt>
      <trkpt lat="40.9817680" lon="-3.5775680">
        <ele>974.0</ele>
        <time>2020-09-29T10:50:25Z</time>
      </trkpt>
      <trkpt lat="40.9818830" lon="-3.5774850">
        <ele>976.0</ele>
        <time>2020-09-29T10:50:26Z</time>
      </trkpt>
      <trkpt lat="40.9818830" lon="-3.5774850">
        <ele>976.0</ele>
        <time>2020-09-29T10:50:27Z</time>
      </trkpt>
      <trkpt lat="40.9820030" lon="-3.5774080">
        <ele>976.0</ele>
        <time>2020-09-29T10:50:28Z</time>
      </trkpt>
      <trkpt lat="40.9820030" lon="-3.5774080">
        <ele>976.0</ele>
        <time>2020-09-29T10:50:29Z</time>
      </trkpt>
      <trkpt lat="40.9821280" lon="-3.5773580">
        <ele>976.0</ele>
        <time>2020-09-29T10:50:30Z</time>
      </trkpt>
      <trkpt lat="40.9821930" lon="-3.5773480">
        <ele>976.0</ele>
        <time>2020-09-29T10:50:31Z</time>
      </trkpt>
      <trkpt lat="40.9821930" lon="-3.5773480">
        <ele>976.0</ele>
        <time>2020-09-29T10:50:32Z</time>
      </trkpt>
      <trkpt lat="40.9823280" lon="-3.5773580">
        <ele>976.0</ele>
        <time>2020-09-29T10:50:33Z</time>
      </trkpt>
      <trkpt lat="40.9823280" lon="-3.5773580">
        <ele>976.0</ele>
        <time>2020-09-29T10:50:34Z</time>
      </trkpt>
      <trkpt lat="40.9824730" lon="-3.5773800">
        <ele>976.0</ele>
        <time>2020-09-29T10:50:35Z</time>
      </trkpt>
      <trkpt lat="40.9824730" lon="-3.5773800">
        <ele>976.0</ele>
        <time>2020-09-29T10:50:36Z</time>
      </trkpt>
      <trkpt lat="40.9824730" lon="-3.5773800">
        <ele>976.0</ele>
        <time>2020-09-29T10:50:37Z</time>
      </trkpt>
      <trkpt lat="40.9826280" lon="-3.5773820">
        <ele>975.0</ele>
        <time>2020-09-29T10:50:38Z</time>
      </trkpt>
      <trkpt lat="40.9827880" lon="-3.5773570">
        <ele>975.0</ele>
        <time>2020-09-29T10:50:39Z</time>
      </trkpt>
      <trkpt lat="40.9828700" lon="-3.5773450">
        <ele>975.0</ele>
        <time>2020-09-29T10:50:40Z</time>
      </trkpt>
      <trkpt lat="40.9828700" lon="-3.5773450">
        <ele>975.0</ele>
        <time>2020-09-29T10:50:41Z</time>
      </trkpt>
      <trkpt lat="40.9830280" lon="-3.5773230">
        <ele>974.0</ele>
        <time>2020-09-29T10:50:42Z</time>
      </trkpt>
      <trkpt lat="40.9831080" lon="-3.5773080">
        <ele>974.0</ele>
        <time>2020-09-29T10:50:43Z</time>
      </trkpt>
      <trkpt lat="40.9831080" lon="-3.5773080">
        <ele>974.0</ele>
        <time>2020-09-29T10:50:44Z</time>
      </trkpt>
      <trkpt lat="40.9832570" lon="-3.5772520">
        <ele>974.0</ele>
        <time>2020-09-29T10:50:45Z</time>
      </trkpt>
      <trkpt lat="40.9832570" lon="-3.5772520">
        <ele>974.0</ele>
        <time>2020-09-29T10:50:46Z</time>
      </trkpt>
      <trkpt lat="40.9833900" lon="-3.5771520">
        <ele>974.0</ele>
        <time>2020-09-29T10:50:47Z</time>
      </trkpt>
      <trkpt lat="40.9834480" lon="-3.5770850">
        <ele>974.0</ele>
        <time>2020-09-29T10:50:48Z</time>
      </trkpt>
      <trkpt lat="40.9834480" lon="-3.5770850">
        <ele>974.0</ele>
        <time>2020-09-29T10:50:49Z</time>
      </trkpt>
      <trkpt lat="40.9835650" lon="-3.5769420">
        <ele>974.0</ele>
        <time>2020-09-29T10:50:50Z</time>
      </trkpt>
      <trkpt lat="40.9835650" lon="-3.5769420">
        <ele>973.0</ele>
        <time>2020-09-29T10:50:51Z</time>
      </trkpt>
      <trkpt lat="40.9837000" lon="-3.5768230">
        <ele>973.0</ele>
        <time>2020-09-29T10:50:52Z</time>
      </trkpt>
      <trkpt lat="40.9837000" lon="-3.5768230">
        <ele>973.0</ele>
        <time>2020-09-29T10:50:53Z</time>
      </trkpt>
      <trkpt lat="40.9838650" lon="-3.5767870">
        <ele>973.0</ele>
        <time>2020-09-29T10:50:54Z</time>
      </trkpt>
      <trkpt lat="40.9839520" lon="-3.5768020">
        <ele>972.0</ele>
        <time>2020-09-29T10:50:55Z</time>
      </trkpt>
      <trkpt lat="40.9839520" lon="-3.5768020">
        <ele>972.0</ele>
        <time>2020-09-29T10:50:56Z</time>
      </trkpt>
      <trkpt lat="40.9841250" lon="-3.5768770">
        <ele>972.0</ele>
        <time>2020-09-29T10:50:57Z</time>
      </trkpt>
      <trkpt lat="40.9842120" lon="-3.5769230">
        <ele>972.0</ele>
        <time>2020-09-29T10:50:58Z</time>
      </trkpt>
      <trkpt lat="40.9843050" lon="-3.5769670">
        <ele>972.0</ele>
        <time>2020-09-29T10:50:59Z</time>
      </trkpt>
      <trkpt lat="40.9844050" lon="-3.5769970">
        <ele>971.0</ele>
        <time>2020-09-29T10:51:00Z</time>
      </trkpt>
      <trkpt lat="40.9844050" lon="-3.5769970">
        <ele>971.0</ele>
        <time>2020-09-29T10:51:01Z</time>
      </trkpt>
      <trkpt lat="40.9846130" lon="-3.5769550">
        <ele>969.0</ele>
        <time>2020-09-29T10:51:02Z</time>
      </trkpt>
      <trkpt lat="40.9847080" lon="-3.5768800">
        <ele>969.0</ele>
        <time>2020-09-29T10:51:03Z</time>
      </trkpt>
      <trkpt lat="40.9847080" lon="-3.5768800">
        <ele>969.0</ele>
        <time>2020-09-29T10:51:04Z</time>
      </trkpt>
      <trkpt lat="40.9848820" lon="-3.5766900">
        <ele>969.0</ele>
        <time>2020-09-29T10:51:05Z</time>
      </trkpt>
      <trkpt lat="40.9848820" lon="-3.5766900">
        <ele>967.0</ele>
        <time>2020-09-29T10:51:06Z</time>
      </trkpt>
      <trkpt lat="40.9850570" lon="-3.5765300">
        <ele>967.0</ele>
        <time>2020-09-29T10:51:07Z</time>
      </trkpt>
      <trkpt lat="40.9851480" lon="-3.5764670">
        <ele>967.0</ele>
        <time>2020-09-29T10:51:08Z</time>
      </trkpt>
      <trkpt lat="40.9851480" lon="-3.5764670">
        <ele>967.0</ele>
        <time>2020-09-29T10:51:09Z</time>
      </trkpt>
      <trkpt lat="40.9853330" lon="-3.5763770">
        <ele>967.0</ele>
        <time>2020-09-29T10:51:10Z</time>
      </trkpt>
      <trkpt lat="40.9853330" lon="-3.5763770">
        <ele>967.0</ele>
        <time>2020-09-29T10:51:11Z</time>
      </trkpt>
      <trkpt lat="40.9855180" lon="-3.5763200">
        <ele>966.0</ele>
        <time>2020-09-29T10:51:12Z</time>
      </trkpt>
      <trkpt lat="40.9855180" lon="-3.5763200">
        <ele>966.0</ele>
        <time>2020-09-29T10:51:13Z</time>
      </trkpt>
      <trkpt lat="40.9857050" lon="-3.5762470">
        <ele>966.0</ele>
        <time>2020-09-29T10:51:14Z</time>
      </trkpt>
      <trkpt lat="40.9857980" lon="-3.5762000">
        <ele>966.0</ele>
        <time>2020-09-29T10:51:15Z</time>
      </trkpt>
      <trkpt lat="40.9858930" lon="-3.5761520">
        <ele>964.0</ele>
        <time>2020-09-29T10:51:16Z</time>
      </trkpt>
      <trkpt lat="40.9858930" lon="-3.5761520">
        <ele>964.0</ele>
        <time>2020-09-29T10:51:17Z</time>
      </trkpt>
      <trkpt lat="40.9860820" lon="-3.5760430">
        <ele>964.0</ele>
        <time>2020-09-29T10:51:18Z</time>
      </trkpt>
      <trkpt lat="40.9861730" lon="-3.5759880">
        <ele>964.0</ele>
        <time>2020-09-29T10:51:19Z</time>
      </trkpt>
      <trkpt lat="40.9861730" lon="-3.5759880">
        <ele>963.0</ele>
        <time>2020-09-29T10:51:20Z</time>
      </trkpt>
      <trkpt lat="40.9863550" lon="-3.5758730">
        <ele>963.0</ele>
        <time>2020-09-29T10:51:21Z</time>
      </trkpt>
      <trkpt lat="40.9863550" lon="-3.5758730">
        <ele>962.0</ele>
        <time>2020-09-29T10:51:22Z</time>
      </trkpt>
      <trkpt lat="40.9865380" lon="-3.5757670">
        <ele>962.0</ele>
        <time>2020-09-29T10:51:23Z</time>
      </trkpt>
      <trkpt lat="40.9865380" lon="-3.5757670">
        <ele>961.0</ele>
        <time>2020-09-29T10:51:24Z</time>
      </trkpt>
      <trkpt lat="40.9867270" lon="-3.5756770">
        <ele>961.0</ele>
        <time>2020-09-29T10:51:25Z</time>
      </trkpt>
      <trkpt lat="40.9867270" lon="-3.5756770">
        <ele>961.0</ele>
        <time>2020-09-29T10:51:26Z</time>
      </trkpt>
      <trkpt lat="40.9869200" lon="-3.5756280">
        <ele>960.0</ele>
        <time>2020-09-29T10:51:27Z</time>
      </trkpt>
      <trkpt lat="40.9869200" lon="-3.5756280">
        <ele>960.0</ele>
        <time>2020-09-29T10:51:28Z</time>
      </trkpt>
      <trkpt lat="40.9871170" lon="-3.5755980">
        <ele>960.0</ele>
        <time>2020-09-29T10:51:29Z</time>
      </trkpt>
      <trkpt lat="40.9871170" lon="-3.5755980">
        <ele>960.0</ele>
        <time>2020-09-29T10:51:30Z</time>
      </trkpt>
      <trkpt lat="40.9873130" lon="-3.5755470">
        <ele>959.0</ele>
        <time>2020-09-29T10:51:31Z</time>
      </trkpt>
      <trkpt lat="40.9873130" lon="-3.5755470">
        <ele>959.0</ele>
        <time>2020-09-29T10:51:32Z</time>
      </trkpt>
      <trkpt lat="40.9875070" lon="-3.5754650">
        <ele>959.0</ele>
        <time>2020-09-29T10:51:33Z</time>
      </trkpt>
      <trkpt lat="40.9875070" lon="-3.5754650">
        <ele>959.0</ele>
        <time>2020-09-29T10:51:34Z</time>
      </trkpt>
      <trkpt lat="40.9877030" lon="-3.5753570">
        <ele>958.0</ele>
        <time>2020-09-29T10:51:35Z</time>
      </trkpt>
      <trkpt lat="40.9877030" lon="-3.5753570">
        <ele>958.0</ele>
        <time>2020-09-29T10:51:36Z</time>
      </trkpt>
      <trkpt lat="40.9879100" lon="-3.5752400">
        <ele>957.0</ele>
        <time>2020-09-29T10:51:37Z</time>
      </trkpt>
      <trkpt lat="40.9879100" lon="-3.5752400">
        <ele>957.0</ele>
        <time>2020-09-29T10:51:38Z</time>
      </trkpt>
      <trkpt lat="40.9881170" lon="-3.5751150">
        <ele>956.0</ele>
        <time>2020-09-29T10:51:39Z</time>
      </trkpt>
      <trkpt lat="40.9881170" lon="-3.5751150">
        <ele>956.0</ele>
        <time>2020-09-29T10:51:40Z</time>
      </trkpt>
      <trkpt lat="40.9883220" lon="-3.5749680">
        <ele>955.0</ele>
        <time>2020-09-29T10:51:41Z</time>
      </trkpt>
      <trkpt lat="40.9884230" lon="-3.5748920">
        <ele>955.0</ele>
        <time>2020-09-29T10:51:42Z</time>
      </trkpt>
      <trkpt lat="40.9885230" lon="-3.5748130">
        <ele>953.0</ele>
        <time>2020-09-29T10:51:43Z</time>
      </trkpt>
      <trkpt lat="40.9885230" lon="-3.5748130">
        <ele>953.0</ele>
        <time>2020-09-29T10:51:44Z</time>
      </trkpt>
      <trkpt lat="40.9887200" lon="-3.5746530">
        <ele>952.0</ele>
        <time>2020-09-29T10:51:45Z</time>
      </trkpt>
      <trkpt lat="40.9888150" lon="-3.5745730">
        <ele>952.0</ele>
        <time>2020-09-29T10:51:46Z</time>
      </trkpt>
      <trkpt lat="40.9888150" lon="-3.5745730">
        <ele>951.0</ele>
        <time>2020-09-29T10:51:47Z</time>
      </trkpt>
      <trkpt lat="40.9890080" lon="-3.5744070">
        <ele>951.0</ele>
        <time>2020-09-29T10:51:48Z</time>
      </trkpt>
      <trkpt lat="40.9891080" lon="-3.5743230">
        <ele>950.0</ele>
        <time>2020-09-29T10:51:49Z</time>
      </trkpt>
      <trkpt lat="40.9891080" lon="-3.5743230">
        <ele>950.0</ele>
        <time>2020-09-29T10:51:50Z</time>
      </trkpt>
      <trkpt lat="40.9893080" lon="-3.5741580">
        <ele>949.0</ele>
        <time>2020-09-29T10:51:51Z</time>
      </trkpt>
      <trkpt lat="40.9894070" lon="-3.5740770">
        <ele>949.0</ele>
        <time>2020-09-29T10:51:52Z</time>
      </trkpt>
      <trkpt lat="40.9894070" lon="-3.5740770">
        <ele>948.0</ele>
        <time>2020-09-29T10:51:53Z</time>
      </trkpt>
      <trkpt lat="40.9896050" lon="-3.5739150">
        <ele>948.0</ele>
        <time>2020-09-29T10:51:54Z</time>
      </trkpt>
      <trkpt lat="40.9896980" lon="-3.5738300">
        <ele>947.0</ele>
        <time>2020-09-29T10:51:55Z</time>
      </trkpt>
      <trkpt lat="40.9896980" lon="-3.5738300">
        <ele>947.0</ele>
        <time>2020-09-29T10:51:56Z</time>
      </trkpt>
      <trkpt lat="40.9898680" lon="-3.5736500">
        <ele>946.0</ele>
        <time>2020-09-29T10:51:57Z</time>
      </trkpt>
      <trkpt lat="40.9899470" lon="-3.5735550">
        <ele>946.0</ele>
        <time>2020-09-29T10:51:58Z</time>
      </trkpt>
      <trkpt lat="40.9899470" lon="-3.5735550">
        <ele>946.0</ele>
        <time>2020-09-29T10:51:59Z</time>
      </trkpt>
      <trkpt lat="40.9900800" lon="-3.5733670">
        <ele>946.0</ele>
        <time>2020-09-29T10:52:00Z</time>
      </trkpt>
      <trkpt lat="40.9901330" lon="-3.5732680">
        <ele>945.0</ele>
        <time>2020-09-29T10:52:01Z</time>
      </trkpt>
      <trkpt lat="40.9901330" lon="-3.5732680">
        <ele>945.0</ele>
        <time>2020-09-29T10:52:02Z</time>
      </trkpt>
      <trkpt lat="40.9902380" lon="-3.5730780">
        <ele>945.0</ele>
        <time>2020-09-29T10:52:03Z</time>
      </trkpt>
      <trkpt lat="40.9902850" lon="-3.5729830">
        <ele>945.0</ele>
        <time>2020-09-29T10:52:04Z</time>
      </trkpt>
      <trkpt lat="40.9903270" lon="-3.5728900">
        <ele>945.0</ele>
        <time>2020-09-29T10:52:05Z</time>
      </trkpt>
      <trkpt lat="40.9903270" lon="-3.5728900">
        <ele>945.0</ele>
        <time>2020-09-29T10:52:06Z</time>
      </trkpt>
      <trkpt lat="40.9903680" lon="-3.5726920">
        <ele>945.0</ele>
        <time>2020-09-29T10:52:07Z</time>
      </trkpt>
      <trkpt lat="40.9903680" lon="-3.5726920">
        <ele>945.0</ele>
        <time>2020-09-29T10:52:08Z</time>
      </trkpt>
      <trkpt lat="40.9903900" lon="-3.5725000">
        <ele>945.0</ele>
        <time>2020-09-29T10:52:09Z</time>
      </trkpt>
      <trkpt lat="40.9904000" lon="-3.5724070">
        <ele>945.0</ele>
        <time>2020-09-29T10:52:10Z</time>
      </trkpt>
      <trkpt lat="40.9904180" lon="-3.5723170">
        <ele>945.0</ele>
        <time>2020-09-29T10:52:11Z</time>
      </trkpt>
      <trkpt lat="40.9904180" lon="-3.5723170">
        <ele>945.0</ele>
        <time>2020-09-29T10:52:12Z</time>
      </trkpt>
      <trkpt lat="40.9904950" lon="-3.5721600">
        <ele>945.0</ele>
        <time>2020-09-29T10:52:13Z</time>
      </trkpt>
      <trkpt lat="40.9904950" lon="-3.5721600">
        <ele>944.0</ele>
        <time>2020-09-29T10:52:14Z</time>
      </trkpt>
      <trkpt lat="40.9906050" lon="-3.5720500">
        <ele>944.0</ele>
        <time>2020-09-29T10:52:15Z</time>
      </trkpt>
      <trkpt lat="40.9906050" lon="-3.5720500">
        <ele>944.0</ele>
        <time>2020-09-29T10:52:16Z</time>
      </trkpt>
      <trkpt lat="40.9907370" lon="-3.5719720">
        <ele>944.0</ele>
        <time>2020-09-29T10:52:17Z</time>
      </trkpt>
      <trkpt lat="40.9908050" lon="-3.5719350">
        <ele>944.0</ele>
        <time>2020-09-29T10:52:18Z</time>
      </trkpt>
      <trkpt lat="40.9908700" lon="-3.5718980">
        <ele>944.0</ele>
        <time>2020-09-29T10:52:19Z</time>
      </trkpt>
      <trkpt lat="40.9908700" lon="-3.5718980">
        <ele>943.0</ele>
        <time>2020-09-29T10:52:20Z</time>
      </trkpt>
      <trkpt lat="40.9910020" lon="-3.5718150">
        <ele>943.0</ele>
        <time>2020-09-29T10:52:21Z</time>
      </trkpt>
      <trkpt lat="40.9910680" lon="-3.5717780">
        <ele>943.0</ele>
        <time>2020-09-29T10:52:22Z</time>
      </trkpt>
      <trkpt lat="40.9910680" lon="-3.5717780">
        <ele>943.0</ele>
        <time>2020-09-29T10:52:23Z</time>
      </trkpt>
      <trkpt lat="40.9912020" lon="-3.5717080">
        <ele>943.0</ele>
        <time>2020-09-29T10:52:24Z</time>
      </trkpt>
      <trkpt lat="40.9912680" lon="-3.5716750">
        <ele>943.0</ele>
        <time>2020-09-29T10:52:25Z</time>
      </trkpt>
      <trkpt lat="40.9912680" lon="-3.5716750">
        <ele>942.0</ele>
        <time>2020-09-29T10:52:26Z</time>
      </trkpt>
      <trkpt lat="40.9914050" lon="-3.5716130">
        <ele>942.0</ele>
        <time>2020-09-29T10:52:27Z</time>
      </trkpt>
      <trkpt lat="40.9914700" lon="-3.5715820">
        <ele>942.0</ele>
        <time>2020-09-29T10:52:28Z</time>
      </trkpt>
      <trkpt lat="40.9914700" lon="-3.5715820">
        <ele>942.0</ele>
        <time>2020-09-29T10:52:29Z</time>
      </trkpt>
      <trkpt lat="40.9915880" lon="-3.5715130">
        <ele>941.0</ele>
        <time>2020-09-29T10:52:30Z</time>
      </trkpt>
      <trkpt lat="40.9916430" lon="-3.5714750">
        <ele>941.0</ele>
        <time>2020-09-29T10:52:31Z</time>
      </trkpt>
      <trkpt lat="40.9916430" lon="-3.5714750">
        <ele>941.0</ele>
        <time>2020-09-29T10:52:32Z</time>
      </trkpt>
      <trkpt lat="40.9917370" lon="-3.5714370">
        <ele>941.0</ele>
        <time>2020-09-29T10:52:33Z</time>
      </trkpt>
      <trkpt lat="40.9917370" lon="-3.5714370">
        <ele>941.0</ele>
        <time>2020-09-29T10:52:34Z</time>
      </trkpt>
      <trkpt lat="40.9917780" lon="-3.5714150">
        <ele>941.0</ele>
        <time>2020-09-29T10:52:35Z</time>
      </trkpt>
      <trkpt lat="40.9917930" lon="-3.5714120">
        <ele>941.0</ele>
        <time>2020-09-29T10:52:36Z</time>
      </trkpt>
      <trkpt lat="40.9918080" lon="-3.5714130">
        <ele>941.0</ele>
        <time>2020-09-29T10:52:37Z</time>
      </trkpt>
      <trkpt lat="40.9918080" lon="-3.5714130">
        <ele>941.0</ele>
        <time>2020-09-29T10:52:38Z</time>
      </trkpt>
      <trkpt lat="40.9918530" lon="-3.5714200">
        <ele>941.0</ele>
        <time>2020-09-29T10:52:39Z</time>
      </trkpt>
      <trkpt lat="40.9918530" lon="-3.5714200">
        <ele>941.0</ele>
        <time>2020-09-29T10:52:40Z</time>
      </trkpt>
      <trkpt lat="40.9919280" lon="-3.5714380">
        <ele>941.0</ele>
        <time>2020-09-29T10:52:41Z</time>
      </trkpt>
      <trkpt lat="40.9919280" lon="-3.5714380">
        <ele>941.0</ele>
        <time>2020-09-29T10:52:42Z</time>
      </trkpt>
      <trkpt lat="40.9920150" lon="-3.5714600">
        <ele>941.0</ele>
        <time>2020-09-29T10:52:43Z</time>
      </trkpt>
      <trkpt lat="40.9920150" lon="-3.5714600">
        <ele>941.0</ele>
        <time>2020-09-29T10:52:44Z</time>
      </trkpt>
      <trkpt lat="40.9921000" lon="-3.5714850">
        <ele>941.0</ele>
        <time>2020-09-29T10:52:45Z</time>
      </trkpt>
      <trkpt lat="40.9921400" lon="-3.5715020">
        <ele>941.0</ele>
        <time>2020-09-29T10:52:46Z</time>
      </trkpt>
      <trkpt lat="40.9921400" lon="-3.5715020">
        <ele>941.0</ele>
        <time>2020-09-29T10:52:47Z</time>
      </trkpt>
      <trkpt lat="40.9922250" lon="-3.5715250">
        <ele>941.0</ele>
        <time>2020-09-29T10:52:48Z</time>
      </trkpt>
      <trkpt lat="40.9922680" lon="-3.5715370">
        <ele>941.0</ele>
        <time>2020-09-29T10:52:49Z</time>
      </trkpt>
      <trkpt lat="40.9922680" lon="-3.5715370">
        <ele>941.0</ele>
        <time>2020-09-29T10:52:50Z</time>
      </trkpt>
      <trkpt lat="40.9923620" lon="-3.5715530">
        <ele>941.0</ele>
        <time>2020-09-29T10:52:51Z</time>
      </trkpt>
      <trkpt lat="40.9923620" lon="-3.5715530">
        <ele>941.0</ele>
        <time>2020-09-29T10:52:52Z</time>
      </trkpt>
      <trkpt lat="40.9924100" lon="-3.5715570">
        <ele>941.0</ele>
        <time>2020-09-29T10:52:53Z</time>
      </trkpt>
      <trkpt lat="40.9925000" lon="-3.5715680">
        <ele>941.0</ele>
        <time>2020-09-29T10:52:54Z</time>
      </trkpt>
      <trkpt lat="40.9925000" lon="-3.5715680">
        <ele>941.0</ele>
        <time>2020-09-29T10:52:55Z</time>
      </trkpt>
      <trkpt lat="40.9925950" lon="-3.5715650">
        <ele>941.0</ele>
        <time>2020-09-29T10:52:56Z</time>
      </trkpt>
      <trkpt lat="40.9925950" lon="-3.5715650">
        <ele>941.0</ele>
        <time>2020-09-29T10:52:57Z</time>
      </trkpt>
      <trkpt lat="40.9926920" lon="-3.5715520">
        <ele>941.0</ele>
        <time>2020-09-29T10:52:58Z</time>
      </trkpt>
      <trkpt lat="40.9926920" lon="-3.5715520">
        <ele>941.0</ele>
        <time>2020-09-29T10:52:59Z</time>
      </trkpt>
      <trkpt lat="40.9927920" lon="-3.5715330">
        <ele>941.0</ele>
        <time>2020-09-29T10:53:00Z</time>
      </trkpt>
      <trkpt lat="40.9928420" lon="-3.5715220">
        <ele>941.0</ele>
        <time>2020-09-29T10:53:01Z</time>
      </trkpt>
      <trkpt lat="40.9928420" lon="-3.5715220">
        <ele>941.0</ele>
        <time>2020-09-29T10:53:02Z</time>
      </trkpt>
      <trkpt lat="40.9929450" lon="-3.5714930">
        <ele>941.0</ele>
        <time>2020-09-29T10:53:03Z</time>
      </trkpt>
      <trkpt lat="40.9929950" lon="-3.5714770">
        <ele>941.0</ele>
        <time>2020-09-29T10:53:04Z</time>
      </trkpt>
      <trkpt lat="40.9929950" lon="-3.5714770">
        <ele>941.0</ele>
        <time>2020-09-29T10:53:05Z</time>
      </trkpt>
      <trkpt lat="40.9930900" lon="-3.5714350">
        <ele>941.0</ele>
        <time>2020-09-29T10:53:06Z</time>
      </trkpt>
      <trkpt lat="40.9931380" lon="-3.5714120">
        <ele>941.0</ele>
        <time>2020-09-29T10:53:07Z</time>
      </trkpt>
      <trkpt lat="40.9931380" lon="-3.5714120">
        <ele>941.0</ele>
        <time>2020-09-29T10:53:08Z</time>
      </trkpt>
      <trkpt lat="40.9932370" lon="-3.5713580">
        <ele>941.0</ele>
        <time>2020-09-29T10:53:09Z</time>
      </trkpt>
      <trkpt lat="40.9932870" lon="-3.5713300">
        <ele>941.0</ele>
        <time>2020-09-29T10:53:10Z</time>
      </trkpt>
      <trkpt lat="40.9932870" lon="-3.5713300">
        <ele>941.0</ele>
        <time>2020-09-29T10:53:11Z</time>
      </trkpt>
      <trkpt lat="40.9933850" lon="-3.5712670">
        <ele>941.0</ele>
        <time>2020-09-29T10:53:12Z</time>
      </trkpt>
      <trkpt lat="40.9934300" lon="-3.5712370">
        <ele>941.0</ele>
        <time>2020-09-29T10:53:13Z</time>
      </trkpt>
      <trkpt lat="40.9934300" lon="-3.5712370">
        <ele>941.0</ele>
        <time>2020-09-29T10:53:14Z</time>
      </trkpt>
      <trkpt lat="40.9935150" lon="-3.5711730">
        <ele>941.0</ele>
        <time>2020-09-29T10:53:15Z</time>
      </trkpt>
      <trkpt lat="40.9935150" lon="-3.5711730">
        <ele>941.0</ele>
        <time>2020-09-29T10:53:16Z</time>
      </trkpt>
      <trkpt lat="40.9935950" lon="-3.5710980">
        <ele>941.0</ele>
        <time>2020-09-29T10:53:17Z</time>
      </trkpt>
      <trkpt lat="40.9935950" lon="-3.5710980">
        <ele>941.0</ele>
        <time>2020-09-29T10:53:18Z</time>
      </trkpt>
      <trkpt lat="40.9936720" lon="-3.5710130">
        <ele>941.0</ele>
        <time>2020-09-29T10:53:19Z</time>
      </trkpt>
      <trkpt lat="40.9936720" lon="-3.5710130">
        <ele>941.0</ele>
        <time>2020-09-29T10:53:20Z</time>
      </trkpt>
      <trkpt lat="40.9937450" lon="-3.5709330">
        <ele>941.0</ele>
        <time>2020-09-29T10:53:21Z</time>
      </trkpt>
      <trkpt lat="40.9937450" lon="-3.5709330">
        <ele>941.0</ele>
        <time>2020-09-29T10:53:22Z</time>
      </trkpt>
      <trkpt lat="40.9938080" lon="-3.5708420">
        <ele>941.0</ele>
        <time>2020-09-29T10:53:23Z</time>
      </trkpt>
      <trkpt lat="40.9938080" lon="-3.5708420">
        <ele>941.0</ele>
        <time>2020-09-29T10:53:24Z</time>
      </trkpt>
      <trkpt lat="40.9938670" lon="-3.5707400">
        <ele>941.0</ele>
        <time>2020-09-29T10:53:25Z</time>
      </trkpt>
      <trkpt lat="40.9938670" lon="-3.5707400">
        <ele>941.0</ele>
        <time>2020-09-29T10:53:26Z</time>
      </trkpt>
      <trkpt lat="40.9939150" lon="-3.5706330">
        <ele>941.0</ele>
        <time>2020-09-29T10:53:27Z</time>
      </trkpt>
      <trkpt lat="40.9939150" lon="-3.5706330">
        <ele>941.0</ele>
        <time>2020-09-29T10:53:28Z</time>
      </trkpt>
      <trkpt lat="40.9939480" lon="-3.5705220">
        <ele>941.0</ele>
        <time>2020-09-29T10:53:29Z</time>
      </trkpt>
      <trkpt lat="40.9939480" lon="-3.5705220">
        <ele>941.0</ele>
        <time>2020-09-29T10:53:30Z</time>
      </trkpt>
      <trkpt lat="40.9939730" lon="-3.5704130">
        <ele>941.0</ele>
        <time>2020-09-29T10:53:31Z</time>
      </trkpt>
      <trkpt lat="40.9939730" lon="-3.5704130">
        <ele>941.0</ele>
        <time>2020-09-29T10:53:32Z</time>
      </trkpt>
      <trkpt lat="40.9940250" lon="-3.5703420">
        <ele>941.0</ele>
        <time>2020-09-29T10:53:33Z</time>
      </trkpt>
      <trkpt lat="40.9940250" lon="-3.5703420">
        <ele>941.0</ele>
        <time>2020-09-29T10:53:34Z</time>
      </trkpt>
      <trkpt lat="40.9940950" lon="-3.5703270">
        <ele>941.0</ele>
        <time>2020-09-29T10:53:35Z</time>
      </trkpt>
      <trkpt lat="40.9941370" lon="-3.5703350">
        <ele>941.0</ele>
        <time>2020-09-29T10:53:36Z</time>
      </trkpt>
      <trkpt lat="40.9941780" lon="-3.5703470">
        <ele>941.0</ele>
        <time>2020-09-29T10:53:37Z</time>
      </trkpt>
      <trkpt lat="40.9941780" lon="-3.5703470">
        <ele>941.0</ele>
        <time>2020-09-29T10:53:38Z</time>
      </trkpt>
      <trkpt lat="40.9942670" lon="-3.5703670">
        <ele>941.0</ele>
        <time>2020-09-29T10:53:39Z</time>
      </trkpt>
      <trkpt lat="40.9943100" lon="-3.5703730">
        <ele>941.0</ele>
        <time>2020-09-29T10:53:40Z</time>
      </trkpt>
      <trkpt lat="40.9943100" lon="-3.5703730">
        <ele>941.0</ele>
        <time>2020-09-29T10:53:41Z</time>
      </trkpt>
      <trkpt lat="40.9943770" lon="-3.5703770">
        <ele>941.0</ele>
        <time>2020-09-29T10:53:42Z</time>
      </trkpt>
      <trkpt lat="40.9944070" lon="-3.5703800">
        <ele>941.0</ele>
        <time>2020-09-29T10:53:43Z</time>
      </trkpt>
      <trkpt lat="40.9944070" lon="-3.5703800">
        <ele>942.0</ele>
        <time>2020-09-29T10:53:44Z</time>
      </trkpt>
      <trkpt lat="40.9944620" lon="-3.5703730">
        <ele>942.0</ele>
        <time>2020-09-29T10:53:45Z</time>
      </trkpt>
      <trkpt lat="40.9944870" lon="-3.5703630">
        <ele>943.0</ele>
        <time>2020-09-29T10:53:46Z</time>
      </trkpt>
      <trkpt lat="40.9945100" lon="-3.5703500">
        <ele>943.0</ele>
        <time>2020-09-29T10:53:47Z</time>
      </trkpt>
      <trkpt lat="40.9945100" lon="-3.5703500">
        <ele>943.0</ele>
        <time>2020-09-29T10:53:48Z</time>
      </trkpt>
      <trkpt lat="40.9945630" lon="-3.5703200">
        <ele>943.0</ele>
        <time>2020-09-29T10:53:49Z</time>
      </trkpt>
      <trkpt lat="40.9945900" lon="-3.5703030">
        <ele>944.0</ele>
        <time>2020-09-29T10:53:50Z</time>
      </trkpt>
      <trkpt lat="40.9945900" lon="-3.5703030">
        <ele>944.0</ele>
        <time>2020-09-29T10:53:51Z</time>
      </trkpt>
      <trkpt lat="40.9946430" lon="-3.5702630">
        <ele>944.0</ele>
        <time>2020-09-29T10:53:52Z</time>
      </trkpt>
      <trkpt lat="40.9946430" lon="-3.5702630">
        <ele>945.0</ele>
        <time>2020-09-29T10:53:53Z</time>
      </trkpt>
      <trkpt lat="40.9946980" lon="-3.5702180">
        <ele>945.0</ele>
        <time>2020-09-29T10:53:54Z</time>
      </trkpt>
      <trkpt lat="40.9946980" lon="-3.5702180">
        <ele>946.0</ele>
        <time>2020-09-29T10:53:55Z</time>
      </trkpt>
      <trkpt lat="40.9947600" lon="-3.5701730">
        <ele>946.0</ele>
        <time>2020-09-29T10:53:56Z</time>
      </trkpt>
      <trkpt lat="40.9947930" lon="-3.5701520">
        <ele>946.0</ele>
        <time>2020-09-29T10:53:57Z</time>
      </trkpt>
      <trkpt lat="40.9947930" lon="-3.5701520">
        <ele>946.0</ele>
        <time>2020-09-29T10:53:58Z</time>
      </trkpt>
      <trkpt lat="40.9948620" lon="-3.5701050">
        <ele>946.0</ele>
        <time>2020-09-29T10:53:59Z</time>
      </trkpt>
      <trkpt lat="40.9948620" lon="-3.5701050">
        <ele>946.0</ele>
        <time>2020-09-29T10:54:00Z</time>
      </trkpt>
      <trkpt lat="40.9949300" lon="-3.5700530">
        <ele>946.0</ele>
        <time>2020-09-29T10:54:01Z</time>
      </trkpt>
      <trkpt lat="40.9949300" lon="-3.5700530">
        <ele>946.0</ele>
        <time>2020-09-29T10:54:02Z</time>
      </trkpt>
      <trkpt lat="40.9950070" lon="-3.5700050">
        <ele>946.0</ele>
        <time>2020-09-29T10:54:03Z</time>
      </trkpt>
      <trkpt lat="40.9950070" lon="-3.5700050">
        <ele>946.0</ele>
        <time>2020-09-29T10:54:04Z</time>
      </trkpt>
      <trkpt lat="40.9950820" lon="-3.5699570">
        <ele>946.0</ele>
        <time>2020-09-29T10:54:05Z</time>
      </trkpt>
      <trkpt lat="40.9950820" lon="-3.5699570">
        <ele>946.0</ele>
        <time>2020-09-29T10:54:06Z</time>
      </trkpt>
      <trkpt lat="40.9951520" lon="-3.5699030">
        <ele>946.0</ele>
        <time>2020-09-29T10:54:07Z</time>
      </trkpt>
      <trkpt lat="40.9951880" lon="-3.5698750">
        <ele>946.0</ele>
        <time>2020-09-29T10:54:08Z</time>
      </trkpt>
      <trkpt lat="40.9951880" lon="-3.5698750">
        <ele>946.0</ele>
        <time>2020-09-29T10:54:09Z</time>
      </trkpt>
      <trkpt lat="40.9952600" lon="-3.5698200">
        <ele>946.0</ele>
        <time>2020-09-29T10:54:10Z</time>
      </trkpt>
      <trkpt lat="40.9952600" lon="-3.5698200">
        <ele>946.0</ele>
        <time>2020-09-29T10:54:11Z</time>
      </trkpt>
      <trkpt lat="40.9953320" lon="-3.5697680">
        <ele>946.0</ele>
        <time>2020-09-29T10:54:12Z</time>
      </trkpt>
      <trkpt lat="40.9953680" lon="-3.5697450">
        <ele>947.0</ele>
        <time>2020-09-29T10:54:13Z</time>
      </trkpt>
      <trkpt lat="40.9953680" lon="-3.5697450">
        <ele>947.0</ele>
        <time>2020-09-29T10:54:14Z</time>
      </trkpt>
      <trkpt lat="40.9954400" lon="-3.5696970">
        <ele>947.0</ele>
        <time>2020-09-29T10:54:15Z</time>
      </trkpt>
      <trkpt lat="40.9954400" lon="-3.5696970">
        <ele>947.0</ele>
        <time>2020-09-29T10:54:16Z</time>
      </trkpt>
      <trkpt lat="40.9955100" lon="-3.5696430">
        <ele>947.0</ele>
        <time>2020-09-29T10:54:17Z</time>
      </trkpt>
      <trkpt lat="40.9955100" lon="-3.5696430">
        <ele>947.0</ele>
        <time>2020-09-29T10:54:18Z</time>
      </trkpt>
      <trkpt lat="40.9955780" lon="-3.5695930">
        <ele>949.0</ele>
        <time>2020-09-29T10:54:19Z</time>
      </trkpt>
      <trkpt lat="40.9955780" lon="-3.5695930">
        <ele>949.0</ele>
        <time>2020-09-29T10:54:20Z</time>
      </trkpt>
      <trkpt lat="40.9956470" lon="-3.5695380">
        <ele>949.0</ele>
        <time>2020-09-29T10:54:21Z</time>
      </trkpt>
      <trkpt lat="40.9956470" lon="-3.5695380">
        <ele>949.0</ele>
        <time>2020-09-29T10:54:22Z</time>
      </trkpt>
      <trkpt lat="40.9957170" lon="-3.5694850">
        <ele>949.0</ele>
        <time>2020-09-29T10:54:23Z</time>
      </trkpt>
      <trkpt lat="40.9957520" lon="-3.5694600">
        <ele>949.0</ele>
        <time>2020-09-29T10:54:24Z</time>
      </trkpt>
      <trkpt lat="40.9957870" lon="-3.5694330">
        <ele>949.0</ele>
        <time>2020-09-29T10:54:25Z</time>
      </trkpt>
      <trkpt lat="40.9957870" lon="-3.5694330">
        <ele>949.0</ele>
        <time>2020-09-29T10:54:26Z</time>
      </trkpt>
      <trkpt lat="40.9958580" lon="-3.5693880">
        <ele>951.0</ele>
        <time>2020-09-29T10:54:27Z</time>
      </trkpt>
      <trkpt lat="40.9958970" lon="-3.5693680">
        <ele>951.0</ele>
        <time>2020-09-29T10:54:28Z</time>
      </trkpt>
      <trkpt lat="40.9959330" lon="-3.5693520">
        <ele>951.0</ele>
        <time>2020-09-29T10:54:29Z</time>
      </trkpt>
      <trkpt lat="40.9959330" lon="-3.5693520">
        <ele>952.0</ele>
        <time>2020-09-29T10:54:30Z</time>
      </trkpt>
      <trkpt lat="40.9960100" lon="-3.5693250">
        <ele>952.0</ele>
        <time>2020-09-29T10:54:31Z</time>
      </trkpt>
      <trkpt lat="40.9960100" lon="-3.5693250">
        <ele>952.0</ele>
        <time>2020-09-29T10:54:32Z</time>
      </trkpt>
      <trkpt lat="40.9960870" lon="-3.5693080">
        <ele>952.0</ele>
        <time>2020-09-29T10:54:33Z</time>
      </trkpt>
      <trkpt lat="40.9960870" lon="-3.5693080">
        <ele>953.0</ele>
        <time>2020-09-29T10:54:34Z</time>
      </trkpt>
      <trkpt lat="40.9961580" lon="-3.5692900">
        <ele>953.0</ele>
        <time>2020-09-29T10:54:35Z</time>
      </trkpt>
      <trkpt lat="40.9961580" lon="-3.5692900">
        <ele>954.0</ele>
        <time>2020-09-29T10:54:36Z</time>
      </trkpt>
      <trkpt lat="40.9962280" lon="-3.5692730">
        <ele>954.0</ele>
        <time>2020-09-29T10:54:37Z</time>
      </trkpt>
      <trkpt lat="40.9962280" lon="-3.5692730">
        <ele>954.0</ele>
        <time>2020-09-29T10:54:38Z</time>
      </trkpt>
      <trkpt lat="40.9962920" lon="-3.5692600">
        <ele>954.0</ele>
        <time>2020-09-29T10:54:39Z</time>
      </trkpt>
      <trkpt lat="40.9962920" lon="-3.5692600">
        <ele>955.0</ele>
        <time>2020-09-29T10:54:40Z</time>
      </trkpt>
      <trkpt lat="40.9963570" lon="-3.5692520">
        <ele>955.0</ele>
        <time>2020-09-29T10:54:41Z</time>
      </trkpt>
      <trkpt lat="40.9963570" lon="-3.5692520">
        <ele>955.0</ele>
        <time>2020-09-29T10:54:42Z</time>
      </trkpt>
      <trkpt lat="40.9964200" lon="-3.5692450">
        <ele>955.0</ele>
        <time>2020-09-29T10:54:43Z</time>
      </trkpt>
      <trkpt lat="40.9964200" lon="-3.5692450">
        <ele>956.0</ele>
        <time>2020-09-29T10:54:44Z</time>
      </trkpt>
      <trkpt lat="40.9964830" lon="-3.5692350">
        <ele>956.0</ele>
        <time>2020-09-29T10:54:45Z</time>
      </trkpt>
      <trkpt lat="40.9964830" lon="-3.5692350">
        <ele>956.0</ele>
        <time>2020-09-29T10:54:46Z</time>
      </trkpt>
      <trkpt lat="40.9965480" lon="-3.5692230">
        <ele>956.0</ele>
        <time>2020-09-29T10:54:47Z</time>
      </trkpt>
      <trkpt lat="40.9965480" lon="-3.5692230">
        <ele>956.0</ele>
        <time>2020-09-29T10:54:48Z</time>
      </trkpt>
      <trkpt lat="40.9966120" lon="-3.5692170">
        <ele>956.0</ele>
        <time>2020-09-29T10:54:49Z</time>
      </trkpt>
      <trkpt lat="40.9966120" lon="-3.5692170">
        <ele>957.0</ele>
        <time>2020-09-29T10:54:50Z</time>
      </trkpt>
      <trkpt lat="40.9966750" lon="-3.5692100">
        <ele>957.0</ele>
        <time>2020-09-29T10:54:51Z</time>
      </trkpt>
      <trkpt lat="40.9966750" lon="-3.5692100">
        <ele>957.0</ele>
        <time>2020-09-29T10:54:52Z</time>
      </trkpt>
      <trkpt lat="40.9967370" lon="-3.5692020">
        <ele>957.0</ele>
        <time>2020-09-29T10:54:53Z</time>
      </trkpt>
      <trkpt lat="40.9967370" lon="-3.5692020">
        <ele>958.0</ele>
        <time>2020-09-29T10:54:54Z</time>
      </trkpt>
      <trkpt lat="40.9967970" lon="-3.5691930">
        <ele>958.0</ele>
        <time>2020-09-29T10:54:55Z</time>
      </trkpt>
      <trkpt lat="40.9967970" lon="-3.5691930">
        <ele>958.0</ele>
        <time>2020-09-29T10:54:56Z</time>
      </trkpt>
      <trkpt lat="40.9968570" lon="-3.5691800">
        <ele>958.0</ele>
        <time>2020-09-29T10:54:57Z</time>
      </trkpt>
      <trkpt lat="40.9968870" lon="-3.5691730">
        <ele>958.0</ele>
        <time>2020-09-29T10:54:58Z</time>
      </trkpt>
      <trkpt lat="40.9968870" lon="-3.5691730">
        <ele>958.0</ele>
        <time>2020-09-29T10:54:59Z</time>
      </trkpt>
      <trkpt lat="40.9969480" lon="-3.5691680">
        <ele>958.0</ele>
        <time>2020-09-29T10:55:00Z</time>
      </trkpt>
      <trkpt lat="40.9969800" lon="-3.5691650">
        <ele>959.0</ele>
        <time>2020-09-29T10:55:01Z</time>
      </trkpt>
      <trkpt lat="40.9969800" lon="-3.5691650">
        <ele>959.0</ele>
        <time>2020-09-29T10:55:02Z</time>
      </trkpt>
      <trkpt lat="40.9970420" lon="-3.5691530">
        <ele>959.0</ele>
        <time>2020-09-29T10:55:03Z</time>
      </trkpt>
      <trkpt lat="40.9970720" lon="-3.5691450">
        <ele>959.0</ele>
        <time>2020-09-29T10:55:04Z</time>
      </trkpt>
      <trkpt lat="40.9970720" lon="-3.5691450">
        <ele>960.0</ele>
        <time>2020-09-29T10:55:05Z</time>
      </trkpt>
      <trkpt lat="40.9971330" lon="-3.5691380">
        <ele>960.0</ele>
        <time>2020-09-29T10:55:06Z</time>
      </trkpt>
      <trkpt lat="40.9971650" lon="-3.5691370">
        <ele>960.0</ele>
        <time>2020-09-29T10:55:07Z</time>
      </trkpt>
      <trkpt lat="40.9971650" lon="-3.5691370">
        <ele>960.0</ele>
        <time>2020-09-29T10:55:08Z</time>
      </trkpt>
      <trkpt lat="40.9972270" lon="-3.5691370">
        <ele>960.0</ele>
        <time>2020-09-29T10:55:09Z</time>
      </trkpt>
      <trkpt lat="40.9972270" lon="-3.5691370">
        <ele>961.0</ele>
        <time>2020-09-29T10:55:10Z</time>
      </trkpt>
      <trkpt lat="40.9972900" lon="-3.5691300">
        <ele>961.0</ele>
        <time>2020-09-29T10:55:11Z</time>
      </trkpt>
      <trkpt lat="40.9972900" lon="-3.5691300">
        <ele>961.0</ele>
        <time>2020-09-29T10:55:12Z</time>
      </trkpt>
      <trkpt lat="40.9973530" lon="-3.5691200">
        <ele>961.0</ele>
        <time>2020-09-29T10:55:13Z</time>
      </trkpt>
      <trkpt lat="40.9973530" lon="-3.5691200">
        <ele>962.0</ele>
        <time>2020-09-29T10:55:14Z</time>
      </trkpt>
      <trkpt lat="40.9974170" lon="-3.5691130">
        <ele>962.0</ele>
        <time>2020-09-29T10:55:15Z</time>
      </trkpt>
      <trkpt lat="40.9974170" lon="-3.5691130">
        <ele>962.0</ele>
        <time>2020-09-29T10:55:16Z</time>
      </trkpt>
      <trkpt lat="40.9974170" lon="-3.5691130">
        <ele>962.0</ele>
        <time>2020-09-29T10:55:17Z</time>
      </trkpt>
      <trkpt lat="40.9974800" lon="-3.5691080">
        <ele>963.0</ele>
        <time>2020-09-29T10:55:18Z</time>
      </trkpt>
      <trkpt lat="40.9975430" lon="-3.5691020">
        <ele>963.0</ele>
        <time>2020-09-29T10:55:19Z</time>
      </trkpt>
      <trkpt lat="40.9975430" lon="-3.5691020">
        <ele>963.0</ele>
        <time>2020-09-29T10:55:20Z</time>
      </trkpt>
      <trkpt lat="40.9976070" lon="-3.5690970">
        <ele>963.0</ele>
        <time>2020-09-29T10:55:21Z</time>
      </trkpt>
      <trkpt lat="40.9976380" lon="-3.5690930">
        <ele>963.0</ele>
        <time>2020-09-29T10:55:22Z</time>
      </trkpt>
      <trkpt lat="40.9976700" lon="-3.5690880">
        <ele>963.0</ele>
        <time>2020-09-29T10:55:23Z</time>
      </trkpt>
      <trkpt lat="40.9976700" lon="-3.5690880">
        <ele>963.0</ele>
        <time>2020-09-29T10:55:24Z</time>
      </trkpt>
      <trkpt lat="40.9977320" lon="-3.5690830">
        <ele>963.0</ele>
        <time>2020-09-29T10:55:25Z</time>
      </trkpt>
      <trkpt lat="40.9977320" lon="-3.5690830">
        <ele>964.0</ele>
        <time>2020-09-29T10:55:26Z</time>
      </trkpt>
      <trkpt lat="40.9977950" lon="-3.5690770">
        <ele>964.0</ele>
        <time>2020-09-29T10:55:27Z</time>
      </trkpt>
      <trkpt lat="40.9978270" lon="-3.5690730">
        <ele>965.0</ele>
        <time>2020-09-29T10:55:28Z</time>
      </trkpt>
      <trkpt lat="40.9978270" lon="-3.5690730">
        <ele>965.0</ele>
        <time>2020-09-29T10:55:29Z</time>
      </trkpt>
      <trkpt lat="40.9978920" lon="-3.5690650">
        <ele>965.0</ele>
        <time>2020-09-29T10:55:30Z</time>
      </trkpt>
      <trkpt lat="40.9979250" lon="-3.5690630">
        <ele>965.0</ele>
        <time>2020-09-29T10:55:31Z</time>
      </trkpt>
      <trkpt lat="40.9979250" lon="-3.5690630">
        <ele>965.0</ele>
        <time>2020-09-29T10:55:32Z</time>
      </trkpt>
      <trkpt lat="40.9979920" lon="-3.5690620">
        <ele>965.0</ele>
        <time>2020-09-29T10:55:33Z</time>
      </trkpt>
      <trkpt lat="40.9979920" lon="-3.5690620">
        <ele>966.0</ele>
        <time>2020-09-29T10:55:34Z</time>
      </trkpt>
      <trkpt lat="40.9980570" lon="-3.5690600">
        <ele>966.0</ele>
        <time>2020-09-29T10:55:35Z</time>
      </trkpt>
      <trkpt lat="40.9980570" lon="-3.5690600">
        <ele>966.0</ele>
        <time>2020-09-29T10:55:36Z</time>
      </trkpt>
      <trkpt lat="40.9981200" lon="-3.5690500">
        <ele>966.0</ele>
        <time>2020-09-29T10:55:37Z</time>
      </trkpt>
      <trkpt lat="40.9981200" lon="-3.5690500">
        <ele>967.0</ele>
        <time>2020-09-29T10:55:38Z</time>
      </trkpt>
      <trkpt lat="40.9981870" lon="-3.5690380">
        <ele>967.0</ele>
        <time>2020-09-29T10:55:39Z</time>
      </trkpt>
      <trkpt lat="40.9982200" lon="-3.5690350">
        <ele>967.0</ele>
        <time>2020-09-29T10:55:40Z</time>
      </trkpt>
      <trkpt lat="40.9982520" lon="-3.5690350">
        <ele>967.0</ele>
        <time>2020-09-29T10:55:41Z</time>
      </trkpt>
      <trkpt lat="40.9982520" lon="-3.5690350">
        <ele>967.0</ele>
        <time>2020-09-29T10:55:42Z</time>
      </trkpt>
      <trkpt lat="40.9983180" lon="-3.5690280">
        <ele>967.0</ele>
        <time>2020-09-29T10:55:43Z</time>
      </trkpt>
      <trkpt lat="40.9983180" lon="-3.5690280">
        <ele>968.0</ele>
        <time>2020-09-29T10:55:44Z</time>
      </trkpt>
      <trkpt lat="40.9983870" lon="-3.5690250">
        <ele>968.0</ele>
        <time>2020-09-29T10:55:45Z</time>
      </trkpt>
      <trkpt lat="40.9984200" lon="-3.5690220">
        <ele>968.0</ele>
        <time>2020-09-29T10:55:46Z</time>
      </trkpt>
      <trkpt lat="40.9984200" lon="-3.5690220">
        <ele>969.0</ele>
        <time>2020-09-29T10:55:47Z</time>
      </trkpt>
      <trkpt lat="40.9984870" lon="-3.5690180">
        <ele>969.0</ele>
        <time>2020-09-29T10:55:48Z</time>
      </trkpt>
      <trkpt lat="40.9985180" lon="-3.5690180">
        <ele>969.0</ele>
        <time>2020-09-29T10:55:49Z</time>
      </trkpt>
      <trkpt lat="40.9985180" lon="-3.5690180">
        <ele>969.0</ele>
        <time>2020-09-29T10:55:50Z</time>
      </trkpt>
      <trkpt lat="40.9985820" lon="-3.5690130">
        <ele>970.0</ele>
        <time>2020-09-29T10:55:51Z</time>
      </trkpt>
      <trkpt lat="40.9985820" lon="-3.5690130">
        <ele>970.0</ele>
        <time>2020-09-29T10:55:52Z</time>
      </trkpt>
      <trkpt lat="40.9986450" lon="-3.5690130">
        <ele>970.0</ele>
        <time>2020-09-29T10:55:53Z</time>
      </trkpt>
      <trkpt lat="40.9986450" lon="-3.5690130">
        <ele>970.0</ele>
        <time>2020-09-29T10:55:54Z</time>
      </trkpt>
      <trkpt lat="40.9987100" lon="-3.5690220">
        <ele>971.0</ele>
        <time>2020-09-29T10:55:55Z</time>
      </trkpt>
      <trkpt lat="40.9987100" lon="-3.5690220">
        <ele>971.0</ele>
        <time>2020-09-29T10:55:56Z</time>
      </trkpt>
      <trkpt lat="40.9987750" lon="-3.5690330">
        <ele>971.0</ele>
        <time>2020-09-29T10:55:57Z</time>
      </trkpt>
      <trkpt lat="40.9987750" lon="-3.5690330">
        <ele>971.0</ele>
        <time>2020-09-29T10:55:58Z</time>
      </trkpt>
      <trkpt lat="40.9988400" lon="-3.5690520">
        <ele>971.0</ele>
        <time>2020-09-29T10:55:59Z</time>
      </trkpt>
      <trkpt lat="40.9988720" lon="-3.5690630">
        <ele>971.0</ele>
        <time>2020-09-29T10:56:00Z</time>
      </trkpt>
      <trkpt lat="40.9988720" lon="-3.5690630">
        <ele>972.0</ele>
        <time>2020-09-29T10:56:01Z</time>
      </trkpt>
      <trkpt lat="40.9989370" lon="-3.5690870">
        <ele>972.0</ele>
        <time>2020-09-29T10:56:02Z</time>
      </trkpt>
      <trkpt lat="40.9989670" lon="-3.5690980">
        <ele>972.0</ele>
        <time>2020-09-29T10:56:03Z</time>
      </trkpt>
      <trkpt lat="40.9989980" lon="-3.5691120">
        <ele>972.0</ele>
        <time>2020-09-29T10:56:04Z</time>
      </trkpt>
      <trkpt lat="40.9989980" lon="-3.5691120">
        <ele>972.0</ele>
        <time>2020-09-29T10:56:05Z</time>
      </trkpt>
      <trkpt lat="40.9990620" lon="-3.5691450">
        <ele>972.0</ele>
        <time>2020-09-29T10:56:06Z</time>
      </trkpt>
      <trkpt lat="40.9990930" lon="-3.5691600">
        <ele>972.0</ele>
        <time>2020-09-29T10:56:07Z</time>
      </trkpt>
      <trkpt lat="40.9990930" lon="-3.5691600">
        <ele>972.0</ele>
        <time>2020-09-29T10:56:08Z</time>
      </trkpt>
      <trkpt lat="40.9991580" lon="-3.5691900">
        <ele>972.0</ele>
        <time>2020-09-29T10:56:09Z</time>
      </trkpt>
      <trkpt lat="40.9991920" lon="-3.5692070">
        <ele>972.0</ele>
        <time>2020-09-29T10:56:10Z</time>
      </trkpt>
      <trkpt lat="40.9991920" lon="-3.5692070">
        <ele>972.0</ele>
        <time>2020-09-29T10:56:11Z</time>
      </trkpt>
      <trkpt lat="40.9992600" lon="-3.5692430">
        <ele>972.0</ele>
        <time>2020-09-29T10:56:12Z</time>
      </trkpt>
      <trkpt lat="40.9992950" lon="-3.5692620">
        <ele>972.0</ele>
        <time>2020-09-29T10:56:13Z</time>
      </trkpt>
      <trkpt lat="40.9992950" lon="-3.5692620">
        <ele>972.0</ele>
        <time>2020-09-29T10:56:14Z</time>
      </trkpt>
      <trkpt lat="40.9993650" lon="-3.5693020">
        <ele>973.0</ele>
        <time>2020-09-29T10:56:15Z</time>
      </trkpt>
      <trkpt lat="40.9994020" lon="-3.5693180">
        <ele>973.0</ele>
        <time>2020-09-29T10:56:16Z</time>
      </trkpt>
      <trkpt lat="40.9994020" lon="-3.5693180">
        <ele>973.0</ele>
        <time>2020-09-29T10:56:17Z</time>
      </trkpt>
      <trkpt lat="40.9994700" lon="-3.5693530">
        <ele>973.0</ele>
        <time>2020-09-29T10:56:18Z</time>
      </trkpt>
      <trkpt lat="40.9994700" lon="-3.5693530">
        <ele>973.0</ele>
        <time>2020-09-29T10:56:19Z</time>
      </trkpt>
      <trkpt lat="40.9994700" lon="-3.5693530">
        <ele>973.0</ele>
        <time>2020-09-29T10:56:20Z</time>
      </trkpt>
      <trkpt lat="40.9995400" lon="-3.5693850">
        <ele>974.0</ele>
        <time>2020-09-29T10:56:21Z</time>
      </trkpt>
      <trkpt lat="40.9996080" lon="-3.5694130">
        <ele>974.0</ele>
        <time>2020-09-29T10:56:22Z</time>
      </trkpt>
      <trkpt lat="40.9996430" lon="-3.5694280">
        <ele>974.0</ele>
        <time>2020-09-29T10:56:23Z</time>
      </trkpt>
      <trkpt lat="40.9996430" lon="-3.5694280">
        <ele>974.0</ele>
        <time>2020-09-29T10:56:24Z</time>
      </trkpt>
      <trkpt lat="40.9997150" lon="-3.5694600">
        <ele>974.0</ele>
        <time>2020-09-29T10:56:25Z</time>
      </trkpt>
      <trkpt lat="40.9997150" lon="-3.5694600">
        <ele>974.0</ele>
        <time>2020-09-29T10:56:26Z</time>
      </trkpt>
      <trkpt lat="40.9997870" lon="-3.5694980">
        <ele>975.0</ele>
        <time>2020-09-29T10:56:27Z</time>
      </trkpt>
      <trkpt lat="40.9997870" lon="-3.5694980">
        <ele>975.0</ele>
        <time>2020-09-29T10:56:28Z</time>
      </trkpt>
      <trkpt lat="40.9998580" lon="-3.5695280">
        <ele>975.0</ele>
        <time>2020-09-29T10:56:29Z</time>
      </trkpt>
      <trkpt lat="40.9998580" lon="-3.5695280">
        <ele>975.0</ele>
        <time>2020-09-29T10:56:30Z</time>
      </trkpt>
      <trkpt lat="40.9999330" lon="-3.5695600">
        <ele>975.0</ele>
        <time>2020-09-29T10:56:31Z</time>
      </trkpt>
      <trkpt lat="40.9999330" lon="-3.5695600">
        <ele>975.0</ele>
        <time>2020-09-29T10:56:32Z</time>
      </trkpt>
      <trkpt lat="41.0000030" lon="-3.5695950">
        <ele>975.0</ele>
        <time>2020-09-29T10:56:33Z</time>
      </trkpt>
      <trkpt lat="41.0000030" lon="-3.5695950">
        <ele>976.0</ele>
        <time>2020-09-29T10:56:34Z</time>
      </trkpt>
      <trkpt lat="41.0000730" lon="-3.5696330">
        <ele>976.0</ele>
        <time>2020-09-29T10:56:35Z</time>
      </trkpt>
      <trkpt lat="41.0001080" lon="-3.5696500">
        <ele>976.0</ele>
        <time>2020-09-29T10:56:36Z</time>
      </trkpt>
      <trkpt lat="41.0001080" lon="-3.5696500">
        <ele>976.0</ele>
        <time>2020-09-29T10:56:37Z</time>
      </trkpt>
      <trkpt lat="41.0001750" lon="-3.5696880">
        <ele>976.0</ele>
        <time>2020-09-29T10:56:38Z</time>
      </trkpt>
      <trkpt lat="41.0001750" lon="-3.5696880">
        <ele>976.0</ele>
        <time>2020-09-29T10:56:39Z</time>
      </trkpt>
      <trkpt lat="41.0002430" lon="-3.5697270">
        <ele>977.0</ele>
        <time>2020-09-29T10:56:40Z</time>
      </trkpt>
      <trkpt lat="41.0002780" lon="-3.5697430">
        <ele>977.0</ele>
        <time>2020-09-29T10:56:41Z</time>
      </trkpt>
      <trkpt lat="41.0002780" lon="-3.5697430">
        <ele>977.0</ele>
        <time>2020-09-29T10:56:42Z</time>
      </trkpt>
      <trkpt lat="41.0003470" lon="-3.5697750">
        <ele>977.0</ele>
        <time>2020-09-29T10:56:43Z</time>
      </trkpt>
      <trkpt lat="41.0003470" lon="-3.5697750">
        <ele>977.0</ele>
        <time>2020-09-29T10:56:44Z</time>
      </trkpt>
      <trkpt lat="41.0004130" lon="-3.5698030">
        <ele>977.0</ele>
        <time>2020-09-29T10:56:45Z</time>
      </trkpt>
      <trkpt lat="41.0004130" lon="-3.5698030">
        <ele>977.0</ele>
        <time>2020-09-29T10:56:46Z</time>
      </trkpt>
      <trkpt lat="41.0004750" lon="-3.5698350">
        <ele>977.0</ele>
        <time>2020-09-29T10:56:47Z</time>
      </trkpt>
      <trkpt lat="41.0004750" lon="-3.5698350">
        <ele>978.0</ele>
        <time>2020-09-29T10:56:48Z</time>
      </trkpt>
      <trkpt lat="41.0005350" lon="-3.5698650">
        <ele>978.0</ele>
        <time>2020-09-29T10:56:49Z</time>
      </trkpt>
      <trkpt lat="41.0005350" lon="-3.5698650">
        <ele>978.0</ele>
        <time>2020-09-29T10:56:50Z</time>
      </trkpt>
      <trkpt lat="41.0005930" lon="-3.5698950">
        <ele>978.0</ele>
        <time>2020-09-29T10:56:51Z</time>
      </trkpt>
      <trkpt lat="41.0005930" lon="-3.5698950">
        <ele>979.0</ele>
        <time>2020-09-29T10:56:52Z</time>
      </trkpt>
      <trkpt lat="41.0006530" lon="-3.5699200">
        <ele>979.0</ele>
        <time>2020-09-29T10:56:53Z</time>
      </trkpt>
      <trkpt lat="41.0006530" lon="-3.5699200">
        <ele>980.0</ele>
        <time>2020-09-29T10:56:54Z</time>
      </trkpt>
      <trkpt lat="41.0007130" lon="-3.5699480">
        <ele>980.0</ele>
        <time>2020-09-29T10:56:55Z</time>
      </trkpt>
      <trkpt lat="41.0007130" lon="-3.5699480">
        <ele>980.0</ele>
        <time>2020-09-29T10:56:56Z</time>
      </trkpt>
      <trkpt lat="41.0007680" lon="-3.5699780">
        <ele>980.0</ele>
        <time>2020-09-29T10:56:57Z</time>
      </trkpt>
      <trkpt lat="41.0007680" lon="-3.5699780">
        <ele>981.0</ele>
        <time>2020-09-29T10:56:58Z</time>
      </trkpt>
      <trkpt lat="41.0008200" lon="-3.5700020">
        <ele>981.0</ele>
        <time>2020-09-29T10:56:59Z</time>
      </trkpt>
      <trkpt lat="41.0008200" lon="-3.5700020">
        <ele>982.0</ele>
        <time>2020-09-29T10:57:00Z</time>
      </trkpt>
      <trkpt lat="41.0008750" lon="-3.5700220">
        <ele>982.0</ele>
        <time>2020-09-29T10:57:01Z</time>
      </trkpt>
      <trkpt lat="41.0008750" lon="-3.5700220">
        <ele>982.0</ele>
        <time>2020-09-29T10:57:02Z</time>
      </trkpt>
      <trkpt lat="41.0009320" lon="-3.5700300">
        <ele>982.0</ele>
        <time>2020-09-29T10:57:03Z</time>
      </trkpt>
      <trkpt lat="41.0009600" lon="-3.5700280">
        <ele>983.0</ele>
        <time>2020-09-29T10:57:04Z</time>
      </trkpt>
      <trkpt lat="41.0009600" lon="-3.5700280">
        <ele>983.0</ele>
        <time>2020-09-29T10:57:05Z</time>
      </trkpt>
      <trkpt lat="41.0010120" lon="-3.5700150">
        <ele>983.0</ele>
        <time>2020-09-29T10:57:06Z</time>
      </trkpt>
      <trkpt lat="41.0010370" lon="-3.5700030">
        <ele>983.0</ele>
        <time>2020-09-29T10:57:07Z</time>
      </trkpt>
      <trkpt lat="41.0010370" lon="-3.5700030">
        <ele>984.0</ele>
        <time>2020-09-29T10:57:08Z</time>
      </trkpt>
      <trkpt lat="41.0010870" lon="-3.5699800">
        <ele>984.0</ele>
        <time>2020-09-29T10:57:09Z</time>
      </trkpt>
      <trkpt lat="41.0011120" lon="-3.5699680">
        <ele>985.0</ele>
        <time>2020-09-29T10:57:10Z</time>
      </trkpt>
      <trkpt lat="41.0011120" lon="-3.5699680">
        <ele>985.0</ele>
        <time>2020-09-29T10:57:11Z</time>
      </trkpt>
      <trkpt lat="41.0011580" lon="-3.5699370">
        <ele>986.0</ele>
        <time>2020-09-29T10:57:12Z</time>
      </trkpt>
      <trkpt lat="41.0011820" lon="-3.5699180">
        <ele>986.0</ele>
        <time>2020-09-29T10:57:13Z</time>
      </trkpt>
      <trkpt lat="41.0011820" lon="-3.5699180">
        <ele>986.0</ele>
        <time>2020-09-29T10:57:14Z</time>
      </trkpt>
      <trkpt lat="41.0012250" lon="-3.5698780">
        <ele>986.0</ele>
        <time>2020-09-29T10:57:15Z</time>
      </trkpt>
      <trkpt lat="41.0012250" lon="-3.5698780">
        <ele>987.0</ele>
        <time>2020-09-29T10:57:16Z</time>
      </trkpt>
      <trkpt lat="41.0012670" lon="-3.5698370">
        <ele>987.0</ele>
        <time>2020-09-29T10:57:17Z</time>
      </trkpt>
      <trkpt lat="41.0012900" lon="-3.5698180">
        <ele>987.0</ele>
        <time>2020-09-29T10:57:18Z</time>
      </trkpt>
      <trkpt lat="41.0013130" lon="-3.5698020">
        <ele>987.0</ele>
        <time>2020-09-29T10:57:19Z</time>
      </trkpt>
      <trkpt lat="41.0013130" lon="-3.5698020">
        <ele>988.0</ele>
        <time>2020-09-29T10:57:20Z</time>
      </trkpt>
      <trkpt lat="41.0013600" lon="-3.5697670">
        <ele>988.0</ele>
        <time>2020-09-29T10:57:21Z</time>
      </trkpt>
      <trkpt lat="41.0013800" lon="-3.5697480">
        <ele>989.0</ele>
        <time>2020-09-29T10:57:22Z</time>
      </trkpt>
      <trkpt lat="41.0013800" lon="-3.5697480">
        <ele>989.0</ele>
        <time>2020-09-29T10:57:23Z</time>
      </trkpt>
      <trkpt lat="41.0014180" lon="-3.5697070">
        <ele>990.0</ele>
        <time>2020-09-29T10:57:24Z</time>
      </trkpt>
      <trkpt lat="41.0014180" lon="-3.5697070">
        <ele>990.0</ele>
        <time>2020-09-29T10:57:25Z</time>
      </trkpt>
      <trkpt lat="41.0014600" lon="-3.5696650">
        <ele>990.0</ele>
        <time>2020-09-29T10:57:26Z</time>
      </trkpt>
      <trkpt lat="41.0014800" lon="-3.5696430">
        <ele>990.0</ele>
        <time>2020-09-29T10:57:27Z</time>
      </trkpt>
      <trkpt lat="41.0014800" lon="-3.5696430">
        <ele>991.0</ele>
        <time>2020-09-29T10:57:28Z</time>
      </trkpt>
      <trkpt lat="41.0015220" lon="-3.5695980">
        <ele>991.0</ele>
        <time>2020-09-29T10:57:29Z</time>
      </trkpt>
      <trkpt lat="41.0015220" lon="-3.5695980">
        <ele>992.0</ele>
        <time>2020-09-29T10:57:30Z</time>
      </trkpt>
      <trkpt lat="41.0015600" lon="-3.5695530">
        <ele>992.0</ele>
        <time>2020-09-29T10:57:31Z</time>
      </trkpt>
      <trkpt lat="41.0015600" lon="-3.5695530">
        <ele>992.0</ele>
        <time>2020-09-29T10:57:32Z</time>
      </trkpt>
      <trkpt lat="41.0015950" lon="-3.5695020">
        <ele>992.0</ele>
        <time>2020-09-29T10:57:33Z</time>
      </trkpt>
      <trkpt lat="41.0016130" lon="-3.5694730">
        <ele>993.0</ele>
        <time>2020-09-29T10:57:34Z</time>
      </trkpt>
      <trkpt lat="41.0016130" lon="-3.5694730">
        <ele>993.0</ele>
        <time>2020-09-29T10:57:35Z</time>
      </trkpt>
      <trkpt lat="41.0016480" lon="-3.5694170">
        <ele>993.0</ele>
        <time>2020-09-29T10:57:36Z</time>
      </trkpt>
      <trkpt lat="41.0016480" lon="-3.5694170">
        <ele>994.0</ele>
        <time>2020-09-29T10:57:37Z</time>
      </trkpt>
      <trkpt lat="41.0016870" lon="-3.5693600">
        <ele>994.0</ele>
        <time>2020-09-29T10:57:38Z</time>
      </trkpt>
      <trkpt lat="41.0016870" lon="-3.5693600">
        <ele>995.0</ele>
        <time>2020-09-29T10:57:39Z</time>
      </trkpt>
      <trkpt lat="41.0017200" lon="-3.5692980">
        <ele>995.0</ele>
        <time>2020-09-29T10:57:40Z</time>
      </trkpt>
      <trkpt lat="41.0017200" lon="-3.5692980">
        <ele>995.0</ele>
        <time>2020-09-29T10:57:41Z</time>
      </trkpt>
      <trkpt lat="41.0017200" lon="-3.5692980">
        <ele>995.0</ele>
        <time>2020-09-29T10:57:42Z</time>
      </trkpt>
      <trkpt lat="41.0017500" lon="-3.5692370">
        <ele>996.0</ele>
        <time>2020-09-29T10:57:43Z</time>
      </trkpt>
      <trkpt lat="41.0017830" lon="-3.5691770">
        <ele>996.0</ele>
        <time>2020-09-29T10:57:44Z</time>
      </trkpt>
      <trkpt lat="41.0018000" lon="-3.5691480">
        <ele>996.0</ele>
        <time>2020-09-29T10:57:45Z</time>
      </trkpt>
      <trkpt lat="41.0018000" lon="-3.5691480">
        <ele>996.0</ele>
        <time>2020-09-29T10:57:46Z</time>
      </trkpt>
      <trkpt lat="41.0018370" lon="-3.5690900">
        <ele>997.0</ele>
        <time>2020-09-29T10:57:47Z</time>
      </trkpt>
      <trkpt lat="41.0018370" lon="-3.5690900">
        <ele>997.0</ele>
        <time>2020-09-29T10:57:48Z</time>
      </trkpt>
      <trkpt lat="41.0018720" lon="-3.5690330">
        <ele>997.0</ele>
        <time>2020-09-29T10:57:49Z</time>
      </trkpt>
      <trkpt lat="41.0018920" lon="-3.5690050">
        <ele>997.0</ele>
        <time>2020-09-29T10:57:50Z</time>
      </trkpt>
      <trkpt lat="41.0018920" lon="-3.5690050">
        <ele>998.0</ele>
        <time>2020-09-29T10:57:51Z</time>
      </trkpt>
      <trkpt lat="41.0019280" lon="-3.5689470">
        <ele>998.0</ele>
        <time>2020-09-29T10:57:52Z</time>
      </trkpt>
      <trkpt lat="41.0019280" lon="-3.5689470">
        <ele>998.0</ele>
        <time>2020-09-29T10:57:53Z</time>
      </trkpt>
      <trkpt lat="41.0019680" lon="-3.5688900">
        <ele>998.0</ele>
        <time>2020-09-29T10:57:54Z</time>
      </trkpt>
      <trkpt lat="41.0019680" lon="-3.5688900">
        <ele>998.0</ele>
        <time>2020-09-29T10:57:55Z</time>
      </trkpt>
      <trkpt lat="41.0020100" lon="-3.5688330">
        <ele>998.0</ele>
        <time>2020-09-29T10:57:56Z</time>
      </trkpt>
      <trkpt lat="41.0020100" lon="-3.5688330">
        <ele>998.0</ele>
        <time>2020-09-29T10:57:57Z</time>
      </trkpt>
      <trkpt lat="41.0020520" lon="-3.5687720">
        <ele>998.0</ele>
        <time>2020-09-29T10:57:58Z</time>
      </trkpt>
      <trkpt lat="41.0020720" lon="-3.5687400">
        <ele>998.0</ele>
        <time>2020-09-29T10:57:59Z</time>
      </trkpt>
      <trkpt lat="41.0020720" lon="-3.5687400">
        <ele>998.0</ele>
        <time>2020-09-29T10:58:00Z</time>
      </trkpt>
      <trkpt lat="41.0021180" lon="-3.5686830">
        <ele>998.0</ele>
        <time>2020-09-29T10:58:01Z</time>
      </trkpt>
      <trkpt lat="41.0021430" lon="-3.5686580">
        <ele>998.0</ele>
        <time>2020-09-29T10:58:02Z</time>
      </trkpt>
      <trkpt lat="41.0021430" lon="-3.5686580">
        <ele>998.0</ele>
        <time>2020-09-29T10:58:03Z</time>
      </trkpt>
      <trkpt lat="41.0021930" lon="-3.5686070">
        <ele>998.0</ele>
        <time>2020-09-29T10:58:04Z</time>
      </trkpt>
      <trkpt lat="41.0021930" lon="-3.5686070">
        <ele>998.0</ele>
        <time>2020-09-29T10:58:05Z</time>
      </trkpt>
      <trkpt lat="41.0022400" lon="-3.5685470">
        <ele>998.0</ele>
        <time>2020-09-29T10:58:06Z</time>
      </trkpt>
      <trkpt lat="41.0022400" lon="-3.5685470">
        <ele>999.0</ele>
        <time>2020-09-29T10:58:07Z</time>
      </trkpt>
      <trkpt lat="41.0022920" lon="-3.5684920">
        <ele>999.0</ele>
        <time>2020-09-29T10:58:08Z</time>
      </trkpt>
      <trkpt lat="41.0023180" lon="-3.5684680">
        <ele>999.0</ele>
        <time>2020-09-29T10:58:09Z</time>
      </trkpt>
      <trkpt lat="41.0023180" lon="-3.5684680">
        <ele>999.0</ele>
        <time>2020-09-29T10:58:10Z</time>
      </trkpt>
      <trkpt lat="41.0023700" lon="-3.5684180">
        <ele>1000.0</ele>
        <time>2020-09-29T10:58:11Z</time>
      </trkpt>
      <trkpt lat="41.0023930" lon="-3.5683920">
        <ele>1000.0</ele>
        <time>2020-09-29T10:58:12Z</time>
      </trkpt>
      <trkpt lat="41.0024170" lon="-3.5683650">
        <ele>1000.0</ele>
        <time>2020-09-29T10:58:13Z</time>
      </trkpt>
      <trkpt lat="41.0024170" lon="-3.5683650">
        <ele>1000.0</ele>
        <time>2020-09-29T10:58:14Z</time>
      </trkpt>
      <trkpt lat="41.0024170" lon="-3.5683650">
        <ele>1000.0</ele>
        <time>2020-09-29T10:58:15Z</time>
      </trkpt>
      <trkpt lat="41.0024680" lon="-3.5683150">
        <ele>1001.0</ele>
        <time>2020-09-29T10:58:16Z</time>
      </trkpt>
      <trkpt lat="41.0025230" lon="-3.5682720">
        <ele>1001.0</ele>
        <time>2020-09-29T10:58:17Z</time>
      </trkpt>
      <trkpt lat="41.0025480" lon="-3.5682500">
        <ele>1001.0</ele>
        <time>2020-09-29T10:58:18Z</time>
      </trkpt>
      <trkpt lat="41.0025480" lon="-3.5682500">
        <ele>1001.0</ele>
        <time>2020-09-29T10:58:19Z</time>
      </trkpt>
      <trkpt lat="41.0026000" lon="-3.5682020">
        <ele>1002.0</ele>
        <time>2020-09-29T10:58:20Z</time>
      </trkpt>
      <trkpt lat="41.0026000" lon="-3.5682020">
        <ele>1002.0</ele>
        <time>2020-09-29T10:58:21Z</time>
      </trkpt>
      <trkpt lat="41.0026530" lon="-3.5681520">
        <ele>1002.0</ele>
        <time>2020-09-29T10:58:22Z</time>
      </trkpt>
      <trkpt lat="41.0026530" lon="-3.5681520">
        <ele>1002.0</ele>
        <time>2020-09-29T10:58:23Z</time>
      </trkpt>
      <trkpt lat="41.0027070" lon="-3.5681030">
        <ele>1003.0</ele>
        <time>2020-09-29T10:58:24Z</time>
      </trkpt>
      <trkpt lat="41.0027320" lon="-3.5680780">
        <ele>1003.0</ele>
        <time>2020-09-29T10:58:25Z</time>
      </trkpt>
      <trkpt lat="41.0027320" lon="-3.5680780">
        <ele>1003.0</ele>
        <time>2020-09-29T10:58:26Z</time>
      </trkpt>
      <trkpt lat="41.0027880" lon="-3.5680320">
        <ele>1003.0</ele>
        <time>2020-09-29T10:58:27Z</time>
      </trkpt>
      <trkpt lat="41.0028170" lon="-3.5680080">
        <ele>1003.0</ele>
        <time>2020-09-29T10:58:28Z</time>
      </trkpt>
      <trkpt lat="41.0028170" lon="-3.5680080">
        <ele>1003.0</ele>
        <time>2020-09-29T10:58:29Z</time>
      </trkpt>
      <trkpt lat="41.0028720" lon="-3.5679670">
        <ele>1003.0</ele>
        <time>2020-09-29T10:58:30Z</time>
      </trkpt>
      <trkpt lat="41.0029000" lon="-3.5679450">
        <ele>1003.0</ele>
        <time>2020-09-29T10:58:31Z</time>
      </trkpt>
      <trkpt lat="41.0029000" lon="-3.5679450">
        <ele>1003.0</ele>
        <time>2020-09-29T10:58:32Z</time>
      </trkpt>
      <trkpt lat="41.0029530" lon="-3.5678980">
        <ele>1003.0</ele>
        <time>2020-09-29T10:58:33Z</time>
      </trkpt>
      <trkpt lat="41.0029530" lon="-3.5678980">
        <ele>1003.0</ele>
        <time>2020-09-29T10:58:34Z</time>
      </trkpt>
      <trkpt lat="41.0030100" lon="-3.5678520">
        <ele>1004.0</ele>
        <time>2020-09-29T10:58:35Z</time>
      </trkpt>
      <trkpt lat="41.0030100" lon="-3.5678520">
        <ele>1004.0</ele>
        <time>2020-09-29T10:58:36Z</time>
      </trkpt>
      <trkpt lat="41.0030680" lon="-3.5678020">
        <ele>1004.0</ele>
        <time>2020-09-29T10:58:37Z</time>
      </trkpt>
      <trkpt lat="41.0031020" lon="-3.5677770">
        <ele>1004.0</ele>
        <time>2020-09-29T10:58:38Z</time>
      </trkpt>
      <trkpt lat="41.0031020" lon="-3.5677770">
        <ele>1004.0</ele>
        <time>2020-09-29T10:58:39Z</time>
      </trkpt>
      <trkpt lat="41.0031680" lon="-3.5677230">
        <ele>1004.0</ele>
        <time>2020-09-29T10:58:40Z</time>
      </trkpt>
      <trkpt lat="41.0031680" lon="-3.5677230">
        <ele>1005.0</ele>
        <time>2020-09-29T10:58:41Z</time>
      </trkpt>
      <trkpt lat="41.0032420" lon="-3.5676650">
        <ele>1005.0</ele>
        <time>2020-09-29T10:58:42Z</time>
      </trkpt>
      <trkpt lat="41.0032770" lon="-3.5676370">
        <ele>1005.0</ele>
        <time>2020-09-29T10:58:43Z</time>
      </trkpt>
      <trkpt lat="41.0033120" lon="-3.5676100">
        <ele>1005.0</ele>
        <time>2020-09-29T10:58:44Z</time>
      </trkpt>
      <trkpt lat="41.0033120" lon="-3.5676100">
        <ele>1005.0</ele>
        <time>2020-09-29T10:58:45Z</time>
      </trkpt>
      <trkpt lat="41.0033830" lon="-3.5675500">
        <ele>1005.0</ele>
        <time>2020-09-29T10:58:46Z</time>
      </trkpt>
      <trkpt lat="41.0033830" lon="-3.5675500">
        <ele>1005.0</ele>
        <time>2020-09-29T10:58:47Z</time>
      </trkpt>
      <trkpt lat="41.0034620" lon="-3.5674830">
        <ele>1005.0</ele>
        <time>2020-09-29T10:58:48Z</time>
      </trkpt>
      <trkpt lat="41.0035020" lon="-3.5674430">
        <ele>1005.0</ele>
        <time>2020-09-29T10:58:49Z</time>
      </trkpt>
      <trkpt lat="41.0035020" lon="-3.5674430">
        <ele>1005.0</ele>
        <time>2020-09-29T10:58:50Z</time>
      </trkpt>
      <trkpt lat="41.0035870" lon="-3.5673650">
        <ele>1005.0</ele>
        <time>2020-09-29T10:58:51Z</time>
      </trkpt>
      <trkpt lat="41.0035870" lon="-3.5673650">
        <ele>1005.0</ele>
        <time>2020-09-29T10:58:52Z</time>
      </trkpt>
      <trkpt lat="41.0036750" lon="-3.5672770">
        <ele>1005.0</ele>
        <time>2020-09-29T10:58:53Z</time>
      </trkpt>
      <trkpt lat="41.0036750" lon="-3.5672770">
        <ele>1005.0</ele>
        <time>2020-09-29T10:58:54Z</time>
      </trkpt>
      <trkpt lat="41.0037680" lon="-3.5671820">
        <ele>1005.0</ele>
        <time>2020-09-29T10:58:55Z</time>
      </trkpt>
      <trkpt lat="41.0037680" lon="-3.5671820">
        <ele>1005.0</ele>
        <time>2020-09-29T10:58:56Z</time>
      </trkpt>
      <trkpt lat="41.0038620" lon="-3.5670920">
        <ele>1005.0</ele>
        <time>2020-09-29T10:58:57Z</time>
      </trkpt>
      <trkpt lat="41.0038620" lon="-3.5670920">
        <ele>1005.0</ele>
        <time>2020-09-29T10:58:58Z</time>
      </trkpt>
      <trkpt lat="41.0039550" lon="-3.5670020">
        <ele>1005.0</ele>
        <time>2020-09-29T10:58:59Z</time>
      </trkpt>
      <trkpt lat="41.0039550" lon="-3.5670020">
        <ele>1005.0</ele>
        <time>2020-09-29T10:59:00Z</time>
      </trkpt>
      <trkpt lat="41.0040550" lon="-3.5669130">
        <ele>1005.0</ele>
        <time>2020-09-29T10:59:01Z</time>
      </trkpt>
      <trkpt lat="41.0040550" lon="-3.5669130">
        <ele>1005.0</ele>
        <time>2020-09-29T10:59:02Z</time>
      </trkpt>
      <trkpt lat="41.0041600" lon="-3.5668250">
        <ele>1005.0</ele>
        <time>2020-09-29T10:59:03Z</time>
      </trkpt>
      <trkpt lat="41.0042130" lon="-3.5667770">
        <ele>1005.0</ele>
        <time>2020-09-29T10:59:04Z</time>
      </trkpt>
      <trkpt lat="41.0042130" lon="-3.5667770">
        <ele>1005.0</ele>
        <time>2020-09-29T10:59:05Z</time>
      </trkpt>
      <trkpt lat="41.0043330" lon="-3.5666770">
        <ele>1005.0</ele>
        <time>2020-09-29T10:59:06Z</time>
      </trkpt>
      <trkpt lat="41.0044020" lon="-3.5666220">
        <ele>1005.0</ele>
        <time>2020-09-29T10:59:07Z</time>
      </trkpt>
      <trkpt lat="41.0044020" lon="-3.5666220">
        <ele>1004.0</ele>
        <time>2020-09-29T10:59:08Z</time>
      </trkpt>
      <trkpt lat="41.0045570" lon="-3.5665000">
        <ele>1004.0</ele>
        <time>2020-09-29T10:59:09Z</time>
      </trkpt>
      <trkpt lat="41.0046400" lon="-3.5664280">
        <ele>1003.0</ele>
        <time>2020-09-29T10:59:10Z</time>
      </trkpt>
      <trkpt lat="41.0046400" lon="-3.5664280">
        <ele>1003.0</ele>
        <time>2020-09-29T10:59:11Z</time>
      </trkpt>
      <trkpt lat="41.0048200" lon="-3.5662820">
        <ele>1001.0</ele>
        <time>2020-09-29T10:59:12Z</time>
      </trkpt>
      <trkpt lat="41.0048200" lon="-3.5662820">
        <ele>1001.0</ele>
        <time>2020-09-29T10:59:13Z</time>
      </trkpt>
      <trkpt lat="41.0050220" lon="-3.5661630">
        <ele>1000.0</ele>
        <time>2020-09-29T10:59:14Z</time>
      </trkpt>
      <trkpt lat="41.0050220" lon="-3.5661630">
        <ele>1000.0</ele>
        <time>2020-09-29T10:59:15Z</time>
      </trkpt>
      <trkpt lat="41.0052400" lon="-3.5661050">
        <ele>999.0</ele>
        <time>2020-09-29T10:59:16Z</time>
      </trkpt>
      <trkpt lat="41.0052400" lon="-3.5661050">
        <ele>999.0</ele>
        <time>2020-09-29T10:59:17Z</time>
      </trkpt>
      <trkpt lat="41.0054680" lon="-3.5661050">
        <ele>998.0</ele>
        <time>2020-09-29T10:59:18Z</time>
      </trkpt>
      <trkpt lat="41.0055830" lon="-3.5661200">
        <ele>998.0</ele>
        <time>2020-09-29T10:59:19Z</time>
      </trkpt>
      <trkpt lat="41.0055830" lon="-3.5661200">
        <ele>997.0</ele>
        <time>2020-09-29T10:59:20Z</time>
      </trkpt>
      <trkpt lat="41.0058200" lon="-3.5661580">
        <ele>997.0</ele>
        <time>2020-09-29T10:59:21Z</time>
      </trkpt>
      <trkpt lat="41.0058200" lon="-3.5661580">
        <ele>995.0</ele>
        <time>2020-09-29T10:59:22Z</time>
      </trkpt>
      <trkpt lat="41.0060670" lon="-3.5661780">
        <ele>995.0</ele>
        <time>2020-09-29T10:59:23Z</time>
      </trkpt>
      <trkpt lat="41.0060670" lon="-3.5661780">
        <ele>994.0</ele>
        <time>2020-09-29T10:59:24Z</time>
      </trkpt>
      <trkpt lat="41.0063030" lon="-3.5661580">
        <ele>994.0</ele>
        <time>2020-09-29T10:59:25Z</time>
      </trkpt>
      <trkpt lat="41.0063030" lon="-3.5661580">
        <ele>993.0</ele>
        <time>2020-09-29T10:59:26Z</time>
      </trkpt>
      <trkpt lat="41.0065270" lon="-3.5661330">
        <ele>993.0</ele>
        <time>2020-09-29T10:59:27Z</time>
      </trkpt>
      <trkpt lat="41.0066370" lon="-3.5661220">
        <ele>992.0</ele>
        <time>2020-09-29T10:59:28Z</time>
      </trkpt>
      <trkpt lat="41.0066370" lon="-3.5661220">
        <ele>992.0</ele>
        <time>2020-09-29T10:59:29Z</time>
      </trkpt>
      <trkpt lat="41.0068380" lon="-3.5660870">
        <ele>992.0</ele>
        <time>2020-09-29T10:59:30Z</time>
      </trkpt>
      <trkpt lat="41.0069320" lon="-3.5660530">
        <ele>992.0</ele>
        <time>2020-09-29T10:59:31Z</time>
      </trkpt>
      <trkpt lat="41.0069320" lon="-3.5660530">
        <ele>991.0</ele>
        <time>2020-09-29T10:59:32Z</time>
      </trkpt>
      <trkpt lat="41.0071030" lon="-3.5659530">
        <ele>991.0</ele>
        <time>2020-09-29T10:59:33Z</time>
      </trkpt>
      <trkpt lat="41.0071030" lon="-3.5659530">
        <ele>991.0</ele>
        <time>2020-09-29T10:59:34Z</time>
      </trkpt>
      <trkpt lat="41.0072620" lon="-3.5658130">
        <ele>991.0</ele>
        <time>2020-09-29T10:59:35Z</time>
      </trkpt>
      <trkpt lat="41.0072620" lon="-3.5658130">
        <ele>991.0</ele>
        <time>2020-09-29T10:59:36Z</time>
      </trkpt>
      <trkpt lat="41.0074030" lon="-3.5656450">
        <ele>990.0</ele>
        <time>2020-09-29T10:59:37Z</time>
      </trkpt>
      <trkpt lat="41.0074030" lon="-3.5656450">
        <ele>990.0</ele>
        <time>2020-09-29T10:59:38Z</time>
      </trkpt>
      <trkpt lat="41.0075370" lon="-3.5654700">
        <ele>990.0</ele>
        <time>2020-09-29T10:59:39Z</time>
      </trkpt>
      <trkpt lat="41.0075370" lon="-3.5654700">
        <ele>990.0</ele>
        <time>2020-09-29T10:59:40Z</time>
      </trkpt>
      <trkpt lat="41.0076550" lon="-3.5652870">
        <ele>990.0</ele>
        <time>2020-09-29T10:59:41Z</time>
      </trkpt>
      <trkpt lat="41.0076550" lon="-3.5652870">
        <ele>990.0</ele>
        <time>2020-09-29T10:59:42Z</time>
      </trkpt>
      <trkpt lat="41.0077700" lon="-3.5651070">
        <ele>989.0</ele>
        <time>2020-09-29T10:59:43Z</time>
      </trkpt>
      <trkpt lat="41.0077700" lon="-3.5651070">
        <ele>989.0</ele>
        <time>2020-09-29T10:59:44Z</time>
      </trkpt>
      <trkpt lat="41.0078920" lon="-3.5649480">
        <ele>989.0</ele>
        <time>2020-09-29T10:59:45Z</time>
      </trkpt>
      <trkpt lat="41.0079580" lon="-3.5648780">
        <ele>989.0</ele>
        <time>2020-09-29T10:59:46Z</time>
      </trkpt>
      <trkpt lat="41.0079580" lon="-3.5648780">
        <ele>988.0</ele>
        <time>2020-09-29T10:59:47Z</time>
      </trkpt>
      <trkpt lat="41.0081170" lon="-3.5647830">
        <ele>988.0</ele>
        <time>2020-09-29T10:59:48Z</time>
      </trkpt>
      <trkpt lat="41.0081170" lon="-3.5647830">
        <ele>988.0</ele>
        <time>2020-09-29T10:59:49Z</time>
      </trkpt>
      <trkpt lat="41.0083080" lon="-3.5647420">
        <ele>988.0</ele>
        <time>2020-09-29T10:59:50Z</time>
      </trkpt>
      <trkpt lat="41.0083080" lon="-3.5647420">
        <ele>987.0</ele>
        <time>2020-09-29T10:59:51Z</time>
      </trkpt>
      <trkpt lat="41.0085100" lon="-3.5646830">
        <ele>987.0</ele>
        <time>2020-09-29T10:59:52Z</time>
      </trkpt>
      <trkpt lat="41.0086080" lon="-3.5646380">
        <ele>985.0</ele>
        <time>2020-09-29T10:59:53Z</time>
      </trkpt>
      <trkpt lat="41.0086080" lon="-3.5646380">
        <ele>985.0</ele>
        <time>2020-09-29T10:59:54Z</time>
      </trkpt>
      <trkpt lat="41.0087880" lon="-3.5645350">
        <ele>985.0</ele>
        <time>2020-09-29T10:59:55Z</time>
      </trkpt>
      <trkpt lat="41.0087880" lon="-3.5645350">
        <ele>985.0</ele>
        <time>2020-09-29T10:59:56Z</time>
      </trkpt>
      <trkpt lat="41.0089580" lon="-3.5644300">
        <ele>985.0</ele>
        <time>2020-09-29T10:59:57Z</time>
      </trkpt>
      <trkpt lat="41.0090400" lon="-3.5643770">
        <ele>985.0</ele>
        <time>2020-09-29T10:59:58Z</time>
      </trkpt>
      <trkpt lat="41.0090400" lon="-3.5643770">
        <ele>985.0</ele>
        <time>2020-09-29T10:59:59Z</time>
      </trkpt>
      <trkpt lat="41.0091980" lon="-3.5642800">
        <ele>985.0</ele>
        <time>2020-09-29T11:00:00Z</time>
      </trkpt>
      <trkpt lat="41.0091980" lon="-3.5642800">
        <ele>984.0</ele>
        <time>2020-09-29T11:00:01Z</time>
      </trkpt>
      <trkpt lat="41.0093580" lon="-3.5641880">
        <ele>984.0</ele>
        <time>2020-09-29T11:00:02Z</time>
      </trkpt>
      <trkpt lat="41.0093580" lon="-3.5641880">
        <ele>984.0</ele>
        <time>2020-09-29T11:00:03Z</time>
      </trkpt>
      <trkpt lat="41.0095150" lon="-3.5641000">
        <ele>984.0</ele>
        <time>2020-09-29T11:00:04Z</time>
      </trkpt>
      <trkpt lat="41.0095150" lon="-3.5641000">
        <ele>984.0</ele>
        <time>2020-09-29T11:00:05Z</time>
      </trkpt>
      <trkpt lat="41.0096730" lon="-3.5640150">
        <ele>984.0</ele>
        <time>2020-09-29T11:00:06Z</time>
      </trkpt>
      <trkpt lat="41.0096730" lon="-3.5640150">
        <ele>984.0</ele>
        <time>2020-09-29T11:00:07Z</time>
      </trkpt>
      <trkpt lat="41.0098330" lon="-3.5639320">
        <ele>984.0</ele>
        <time>2020-09-29T11:00:08Z</time>
      </trkpt>
      <trkpt lat="41.0098330" lon="-3.5639320">
        <ele>984.0</ele>
        <time>2020-09-29T11:00:09Z</time>
      </trkpt>
      <trkpt lat="41.0099900" lon="-3.5638530">
        <ele>983.0</ele>
        <time>2020-09-29T11:00:10Z</time>
      </trkpt>
      <trkpt lat="41.0100620" lon="-3.5638000">
        <ele>983.0</ele>
        <time>2020-09-29T11:00:11Z</time>
      </trkpt>
      <trkpt lat="41.0100620" lon="-3.5638000">
        <ele>983.0</ele>
        <time>2020-09-29T11:00:12Z</time>
      </trkpt>
      <trkpt lat="41.0101700" lon="-3.5636450">
        <ele>983.0</ele>
        <time>2020-09-29T11:00:13Z</time>
      </trkpt>
      <trkpt lat="41.0101700" lon="-3.5636450">
        <ele>983.0</ele>
        <time>2020-09-29T11:00:14Z</time>
      </trkpt>
      <trkpt lat="41.0102100" lon="-3.5634550">
        <ele>983.0</ele>
        <time>2020-09-29T11:00:15Z</time>
      </trkpt>
      <trkpt lat="41.0102100" lon="-3.5634550">
        <ele>983.0</ele>
        <time>2020-09-29T11:00:16Z</time>
      </trkpt>
      <trkpt lat="41.0102070" lon="-3.5632700">
        <ele>983.0</ele>
        <time>2020-09-29T11:00:17Z</time>
      </trkpt>
      <trkpt lat="41.0102070" lon="-3.5632700">
        <ele>983.0</ele>
        <time>2020-09-29T11:00:18Z</time>
      </trkpt>
      <trkpt lat="41.0101900" lon="-3.5631120">
        <ele>983.0</ele>
        <time>2020-09-29T11:00:19Z</time>
      </trkpt>
      <trkpt lat="41.0101900" lon="-3.5631120">
        <ele>983.0</ele>
        <time>2020-09-29T11:00:20Z</time>
      </trkpt>
      <trkpt lat="41.0101770" lon="-3.5629720">
        <ele>983.0</ele>
        <time>2020-09-29T11:00:21Z</time>
      </trkpt>
      <trkpt lat="41.0101700" lon="-3.5629080">
        <ele>983.0</ele>
        <time>2020-09-29T11:00:22Z</time>
      </trkpt>
      <trkpt lat="41.0101700" lon="-3.5629080">
        <ele>984.0</ele>
        <time>2020-09-29T11:00:23Z</time>
      </trkpt>
      <trkpt lat="41.0101600" lon="-3.5627880">
        <ele>984.0</ele>
        <time>2020-09-29T11:00:24Z</time>
      </trkpt>
      <trkpt lat="41.0101470" lon="-3.5627320">
        <ele>984.0</ele>
        <time>2020-09-29T11:00:25Z</time>
      </trkpt>
      <trkpt lat="41.0101470" lon="-3.5627320">
        <ele>984.0</ele>
        <time>2020-09-29T11:00:26Z</time>
      </trkpt>
      <trkpt lat="41.0101180" lon="-3.5626270">
        <ele>985.0</ele>
        <time>2020-09-29T11:00:27Z</time>
      </trkpt>
      <trkpt lat="41.0101030" lon="-3.5625830">
        <ele>985.0</ele>
        <time>2020-09-29T11:00:28Z</time>
      </trkpt>
      <trkpt lat="41.0101030" lon="-3.5625830">
        <ele>985.0</ele>
        <time>2020-09-29T11:00:29Z</time>
      </trkpt>
      <trkpt lat="41.0100770" lon="-3.5625170">
        <ele>985.0</ele>
        <time>2020-09-29T11:00:30Z</time>
      </trkpt>
      <trkpt lat="41.0100650" lon="-3.5624950">
        <ele>985.0</ele>
        <time>2020-09-29T11:00:31Z</time>
      </trkpt>
      <trkpt lat="41.0100650" lon="-3.5624950">
        <ele>985.0</ele>
        <time>2020-09-29T11:00:32Z</time>
      </trkpt>
      <trkpt lat="41.0100450" lon="-3.5624600">
        <ele>985.0</ele>
        <time>2020-09-29T11:00:33Z</time>
      </trkpt>
      <trkpt lat="41.0100450" lon="-3.5624600">
        <ele>985.0</ele>
        <time>2020-09-29T11:00:34Z</time>
      </trkpt>
      <trkpt lat="41.0100420" lon="-3.5623970">
        <ele>985.0</ele>
        <time>2020-09-29T11:00:35Z</time>
      </trkpt>
      <trkpt lat="41.0100420" lon="-3.5623970">
        <ele>985.0</ele>
        <time>2020-09-29T11:00:36Z</time>
      </trkpt>
      <trkpt lat="41.0100930" lon="-3.5623500">
        <ele>985.0</ele>
        <time>2020-09-29T11:00:37Z</time>
      </trkpt>
      <trkpt lat="41.0101220" lon="-3.5623330">
        <ele>985.0</ele>
        <time>2020-09-29T11:00:38Z</time>
      </trkpt>
      <trkpt lat="41.0101220" lon="-3.5623330">
        <ele>985.0</ele>
        <time>2020-09-29T11:00:39Z</time>
      </trkpt>
      <trkpt lat="41.0101830" lon="-3.5623000">
        <ele>985.0</ele>
        <time>2020-09-29T11:00:40Z</time>
      </trkpt>
      <trkpt lat="41.0101830" lon="-3.5623000">
        <ele>985.0</ele>
        <time>2020-09-29T11:00:41Z</time>
      </trkpt>
      <trkpt lat="41.0102480" lon="-3.5622680">
        <ele>985.0</ele>
        <time>2020-09-29T11:00:42Z</time>
      </trkpt>
      <trkpt lat="41.0102800" lon="-3.5622520">
        <ele>986.0</ele>
        <time>2020-09-29T11:00:43Z</time>
      </trkpt>
      <trkpt lat="41.0102800" lon="-3.5622520">
        <ele>986.0</ele>
        <time>2020-09-29T11:00:44Z</time>
      </trkpt>
      <trkpt lat="41.0103350" lon="-3.5622130">
        <ele>986.0</ele>
        <time>2020-09-29T11:00:45Z</time>
      </trkpt>
      <trkpt lat="41.0103350" lon="-3.5622130">
        <ele>987.0</ele>
        <time>2020-09-29T11:00:46Z</time>
      </trkpt>
      <trkpt lat="41.0103870" lon="-3.5621700">
        <ele>987.0</ele>
        <time>2020-09-29T11:00:47Z</time>
      </trkpt>
      <trkpt lat="41.0104130" lon="-3.5621530">
        <ele>987.0</ele>
        <time>2020-09-29T11:00:48Z</time>
      </trkpt>
      <trkpt lat="41.0104130" lon="-3.5621530">
        <ele>987.0</ele>
        <time>2020-09-29T11:00:49Z</time>
      </trkpt>
      <trkpt lat="41.0104680" lon="-3.5621230">
        <ele>988.0</ele>
        <time>2020-09-29T11:00:50Z</time>
      </trkpt>
      <trkpt lat="41.0104680" lon="-3.5621230">
        <ele>988.0</ele>
        <time>2020-09-29T11:00:51Z</time>
      </trkpt>
      <trkpt lat="41.0104680" lon="-3.5621230">
        <ele>988.0</ele>
        <time>2020-09-29T11:00:52Z</time>
      </trkpt>
      <trkpt lat="41.0105520" lon="-3.5620750">
        <ele>988.0</ele>
        <time>2020-09-29T11:00:53Z</time>
      </trkpt>
      <trkpt lat="41.0105520" lon="-3.5620750">
        <ele>988.0</ele>
        <time>2020-09-29T11:00:54Z</time>
      </trkpt>
      <trkpt lat="41.0106080" lon="-3.5620470">
        <ele>988.0</ele>
        <time>2020-09-29T11:00:55Z</time>
      </trkpt>
      <trkpt lat="41.0106080" lon="-3.5620470">
        <ele>988.0</ele>
        <time>2020-09-29T11:00:56Z</time>
      </trkpt>
      <trkpt lat="41.0106600" lon="-3.5620120">
        <ele>988.0</ele>
        <time>2020-09-29T11:00:57Z</time>
      </trkpt>
      <trkpt lat="41.0106600" lon="-3.5620120">
        <ele>990.0</ele>
        <time>2020-09-29T11:00:58Z</time>
      </trkpt>
      <trkpt lat="41.0107130" lon="-3.5619770">
        <ele>990.0</ele>
        <time>2020-09-29T11:00:59Z</time>
      </trkpt>
      <trkpt lat="41.0107420" lon="-3.5619620">
        <ele>990.0</ele>
        <time>2020-09-29T11:01:00Z</time>
      </trkpt>
      <trkpt lat="41.0107420" lon="-3.5619620">
        <ele>990.0</ele>
        <time>2020-09-29T11:01:01Z</time>
      </trkpt>
      <trkpt lat="41.0107980" lon="-3.5619350">
        <ele>991.0</ele>
        <time>2020-09-29T11:01:02Z</time>
      </trkpt>
      <trkpt lat="41.0107980" lon="-3.5619350">
        <ele>991.0</ele>
        <time>2020-09-29T11:01:03Z</time>
      </trkpt>
      <trkpt lat="41.0108570" lon="-3.5619030">
        <ele>991.0</ele>
        <time>2020-09-29T11:01:04Z</time>
      </trkpt>
      <trkpt lat="41.0108570" lon="-3.5619030">
        <ele>991.0</ele>
        <time>2020-09-29T11:01:05Z</time>
      </trkpt>
      <trkpt lat="41.0109130" lon="-3.5618620">
        <ele>991.0</ele>
        <time>2020-09-29T11:01:06Z</time>
      </trkpt>
      <trkpt lat="41.0109130" lon="-3.5618620">
        <ele>991.0</ele>
        <time>2020-09-29T11:01:07Z</time>
      </trkpt>
      <trkpt lat="41.0109700" lon="-3.5618200">
        <ele>992.0</ele>
        <time>2020-09-29T11:01:08Z</time>
      </trkpt>
      <trkpt lat="41.0109700" lon="-3.5618200">
        <ele>992.0</ele>
        <time>2020-09-29T11:01:09Z</time>
      </trkpt>
      <trkpt lat="41.0110280" lon="-3.5617830">
        <ele>992.0</ele>
        <time>2020-09-29T11:01:10Z</time>
      </trkpt>
      <trkpt lat="41.0110280" lon="-3.5617830">
        <ele>992.0</ele>
        <time>2020-09-29T11:01:11Z</time>
      </trkpt>
      <trkpt lat="41.0110880" lon="-3.5617470">
        <ele>993.0</ele>
        <time>2020-09-29T11:01:12Z</time>
      </trkpt>
      <trkpt lat="41.0111180" lon="-3.5617300">
        <ele>993.0</ele>
        <time>2020-09-29T11:01:13Z</time>
      </trkpt>
      <trkpt lat="41.0111180" lon="-3.5617300">
        <ele>993.0</ele>
        <time>2020-09-29T11:01:14Z</time>
      </trkpt>
      <trkpt lat="41.0111780" lon="-3.5616950">
        <ele>993.0</ele>
        <time>2020-09-29T11:01:15Z</time>
      </trkpt>
      <trkpt lat="41.0111780" lon="-3.5616950">
        <ele>993.0</ele>
        <time>2020-09-29T11:01:16Z</time>
      </trkpt>
      <trkpt lat="41.0112420" lon="-3.5616600">
        <ele>994.0</ele>
        <time>2020-09-29T11:01:17Z</time>
      </trkpt>
      <trkpt lat="41.0112420" lon="-3.5616600">
        <ele>994.0</ele>
        <time>2020-09-29T11:01:18Z</time>
      </trkpt>
      <trkpt lat="41.0113020" lon="-3.5616250">
        <ele>994.0</ele>
        <time>2020-09-29T11:01:19Z</time>
      </trkpt>
      <trkpt lat="41.0113020" lon="-3.5616250">
        <ele>994.0</ele>
        <time>2020-09-29T11:01:20Z</time>
      </trkpt>
      <trkpt lat="41.0113620" lon="-3.5615830">
        <ele>994.0</ele>
        <time>2020-09-29T11:01:21Z</time>
      </trkpt>
      <trkpt lat="41.0113920" lon="-3.5615630">
        <ele>994.0</ele>
        <time>2020-09-29T11:01:22Z</time>
      </trkpt>
      <trkpt lat="41.0113920" lon="-3.5615630">
        <ele>994.0</ele>
        <time>2020-09-29T11:01:23Z</time>
      </trkpt>
      <trkpt lat="41.0114570" lon="-3.5615270">
        <ele>994.0</ele>
        <time>2020-09-29T11:01:24Z</time>
      </trkpt>
      <trkpt lat="41.0114570" lon="-3.5615270">
        <ele>995.0</ele>
        <time>2020-09-29T11:01:25Z</time>
      </trkpt>
      <trkpt lat="41.0115230" lon="-3.5614930">
        <ele>995.0</ele>
        <time>2020-09-29T11:01:26Z</time>
      </trkpt>
      <trkpt lat="41.0115570" lon="-3.5614770">
        <ele>995.0</ele>
        <time>2020-09-29T11:01:27Z</time>
      </trkpt>
      <trkpt lat="41.0115570" lon="-3.5614770">
        <ele>995.0</ele>
        <time>2020-09-29T11:01:28Z</time>
      </trkpt>
      <trkpt lat="41.0116230" lon="-3.5614400">
        <ele>995.0</ele>
        <time>2020-09-29T11:01:29Z</time>
      </trkpt>
      <trkpt lat="41.0116230" lon="-3.5614400">
        <ele>995.0</ele>
        <time>2020-09-29T11:01:30Z</time>
      </trkpt>
      <trkpt lat="41.0116870" lon="-3.5613980">
        <ele>996.0</ele>
        <time>2020-09-29T11:01:31Z</time>
      </trkpt>
      <trkpt lat="41.0116870" lon="-3.5613980">
        <ele>996.0</ele>
        <time>2020-09-29T11:01:32Z</time>
      </trkpt>
      <trkpt lat="41.0117500" lon="-3.5613500">
        <ele>996.0</ele>
        <time>2020-09-29T11:01:33Z</time>
      </trkpt>
      <trkpt lat="41.0117500" lon="-3.5613500">
        <ele>996.0</ele>
        <time>2020-09-29T11:01:34Z</time>
      </trkpt>
      <trkpt lat="41.0118150" lon="-3.5613030">
        <ele>996.0</ele>
        <time>2020-09-29T11:01:35Z</time>
      </trkpt>
      <trkpt lat="41.0118470" lon="-3.5612800">
        <ele>996.0</ele>
        <time>2020-09-29T11:01:36Z</time>
      </trkpt>
      <trkpt lat="41.0118470" lon="-3.5612800">
        <ele>997.0</ele>
        <time>2020-09-29T11:01:37Z</time>
      </trkpt>
      <trkpt lat="41.0119120" lon="-3.5612380">
        <ele>997.0</ele>
        <time>2020-09-29T11:01:38Z</time>
      </trkpt>
      <trkpt lat="41.0119120" lon="-3.5612380">
        <ele>997.0</ele>
        <time>2020-09-29T11:01:39Z</time>
      </trkpt>
      <trkpt lat="41.0119800" lon="-3.5612000">
        <ele>997.0</ele>
        <time>2020-09-29T11:01:40Z</time>
      </trkpt>
      <trkpt lat="41.0120130" lon="-3.5611820">
        <ele>997.0</ele>
        <time>2020-09-29T11:01:41Z</time>
      </trkpt>
      <trkpt lat="41.0120470" lon="-3.5611630">
        <ele>997.0</ele>
        <time>2020-09-29T11:01:42Z</time>
      </trkpt>
      <trkpt lat="41.0120470" lon="-3.5611630">
        <ele>998.0</ele>
        <time>2020-09-29T11:01:43Z</time>
      </trkpt>
      <trkpt lat="41.0121150" lon="-3.5611250">
        <ele>998.0</ele>
        <time>2020-09-29T11:01:44Z</time>
      </trkpt>
      <trkpt lat="41.0121150" lon="-3.5611250">
        <ele>998.0</ele>
        <time>2020-09-29T11:01:45Z</time>
      </trkpt>
      <trkpt lat="41.0121820" lon="-3.5610830">
        <ele>998.0</ele>
        <time>2020-09-29T11:01:46Z</time>
      </trkpt>
      <trkpt lat="41.0121820" lon="-3.5610830">
        <ele>998.0</ele>
        <time>2020-09-29T11:01:47Z</time>
      </trkpt>
      <trkpt lat="41.0122480" lon="-3.5610420">
        <ele>998.0</ele>
        <time>2020-09-29T11:01:48Z</time>
      </trkpt>
      <trkpt lat="41.0122480" lon="-3.5610420">
        <ele>998.0</ele>
        <time>2020-09-29T11:01:49Z</time>
      </trkpt>
      <trkpt lat="41.0123130" lon="-3.5609950">
        <ele>999.0</ele>
        <time>2020-09-29T11:01:50Z</time>
      </trkpt>
      <trkpt lat="41.0123130" lon="-3.5609950">
        <ele>999.0</ele>
        <time>2020-09-29T11:01:51Z</time>
      </trkpt>
      <trkpt lat="41.0123820" lon="-3.5609570">
        <ele>999.0</ele>
        <time>2020-09-29T11:01:52Z</time>
      </trkpt>
      <trkpt lat="41.0123820" lon="-3.5609570">
        <ele>999.0</ele>
        <time>2020-09-29T11:01:53Z</time>
      </trkpt>
      <trkpt lat="41.0124500" lon="-3.5609180">
        <ele>999.0</ele>
        <time>2020-09-29T11:01:54Z</time>
      </trkpt>
      <trkpt lat="41.0124830" lon="-3.5608970">
        <ele>999.0</ele>
        <time>2020-09-29T11:01:55Z</time>
      </trkpt>
      <trkpt lat="41.0124830" lon="-3.5608970">
        <ele>999.0</ele>
        <time>2020-09-29T11:01:56Z</time>
      </trkpt>
      <trkpt lat="41.0125500" lon="-3.5608520">
        <ele>999.0</ele>
        <time>2020-09-29T11:01:57Z</time>
      </trkpt>
      <trkpt lat="41.0125830" lon="-3.5608330">
        <ele>999.0</ele>
        <time>2020-09-29T11:01:58Z</time>
      </trkpt>
      <trkpt lat="41.0125830" lon="-3.5608330">
        <ele>999.0</ele>
        <time>2020-09-29T11:01:59Z</time>
      </trkpt>
      <trkpt lat="41.0126470" lon="-3.5607920">
        <ele>1000.0</ele>
        <time>2020-09-29T11:02:00Z</time>
      </trkpt>
      <trkpt lat="41.0126800" lon="-3.5607680">
        <ele>1000.0</ele>
        <time>2020-09-29T11:02:01Z</time>
      </trkpt>
      <trkpt lat="41.0126800" lon="-3.5607680">
        <ele>1000.0</ele>
        <time>2020-09-29T11:02:02Z</time>
      </trkpt>
      <trkpt lat="41.0127470" lon="-3.5607300">
        <ele>1000.0</ele>
        <time>2020-09-29T11:02:03Z</time>
      </trkpt>
      <trkpt lat="41.0127470" lon="-3.5607300">
        <ele>1001.0</ele>
        <time>2020-09-29T11:02:04Z</time>
      </trkpt>
      <trkpt lat="41.0128120" lon="-3.5606920">
        <ele>1001.0</ele>
        <time>2020-09-29T11:02:05Z</time>
      </trkpt>
      <trkpt lat="41.0128450" lon="-3.5606720">
        <ele>1001.0</ele>
        <time>2020-09-29T11:02:06Z</time>
      </trkpt>
      <trkpt lat="41.0128450" lon="-3.5606720">
        <ele>1001.0</ele>
        <time>2020-09-29T11:02:07Z</time>
      </trkpt>
      <trkpt lat="41.0129100" lon="-3.5606320">
        <ele>1002.0</ele>
        <time>2020-09-29T11:02:08Z</time>
      </trkpt>
      <trkpt lat="41.0129100" lon="-3.5606320">
        <ele>1002.0</ele>
        <time>2020-09-29T11:02:09Z</time>
      </trkpt>
      <trkpt lat="41.0129730" lon="-3.5605880">
        <ele>1002.0</ele>
        <time>2020-09-29T11:02:10Z</time>
      </trkpt>
      <trkpt lat="41.0129730" lon="-3.5605880">
        <ele>1002.0</ele>
        <time>2020-09-29T11:02:11Z</time>
      </trkpt>
      <trkpt lat="41.0130380" lon="-3.5605450">
        <ele>1003.0</ele>
        <time>2020-09-29T11:02:12Z</time>
      </trkpt>
      <trkpt lat="41.0130380" lon="-3.5605450">
        <ele>1003.0</ele>
        <time>2020-09-29T11:02:13Z</time>
      </trkpt>
      <trkpt lat="41.0131020" lon="-3.5605000">
        <ele>1003.0</ele>
        <time>2020-09-29T11:02:14Z</time>
      </trkpt>
      <trkpt lat="41.0131020" lon="-3.5605000">
        <ele>1003.0</ele>
        <time>2020-09-29T11:02:15Z</time>
      </trkpt>
      <trkpt lat="41.0131680" lon="-3.5604570">
        <ele>1004.0</ele>
        <time>2020-09-29T11:02:16Z</time>
      </trkpt>
      <trkpt lat="41.0132020" lon="-3.5604380">
        <ele>1004.0</ele>
        <time>2020-09-29T11:02:17Z</time>
      </trkpt>
      <trkpt lat="41.0132020" lon="-3.5604380">
        <ele>1004.0</ele>
        <time>2020-09-29T11:02:18Z</time>
      </trkpt>
      <trkpt lat="41.0132680" lon="-3.5603970">
        <ele>1004.0</ele>
        <time>2020-09-29T11:02:19Z</time>
      </trkpt>
      <trkpt lat="41.0132680" lon="-3.5603970">
        <ele>1005.0</ele>
        <time>2020-09-29T11:02:20Z</time>
      </trkpt>
      <trkpt lat="41.0133330" lon="-3.5603530">
        <ele>1005.0</ele>
        <time>2020-09-29T11:02:21Z</time>
      </trkpt>
      <trkpt lat="41.0133670" lon="-3.5603350">
        <ele>1005.0</ele>
        <time>2020-09-29T11:02:22Z</time>
      </trkpt>
      <trkpt lat="41.0133670" lon="-3.5603350">
        <ele>1005.0</ele>
        <time>2020-09-29T11:02:23Z</time>
      </trkpt>
      <trkpt lat="41.0134350" lon="-3.5603000">
        <ele>1006.0</ele>
        <time>2020-09-29T11:02:24Z</time>
      </trkpt>
      <trkpt lat="41.0134350" lon="-3.5603000">
        <ele>1006.0</ele>
        <time>2020-09-29T11:02:25Z</time>
      </trkpt>
      <trkpt lat="41.0135000" lon="-3.5602580">
        <ele>1006.0</ele>
        <time>2020-09-29T11:02:26Z</time>
      </trkpt>
      <trkpt lat="41.0135000" lon="-3.5602580">
        <ele>1006.0</ele>
        <time>2020-09-29T11:02:27Z</time>
      </trkpt>
      <trkpt lat="41.0135670" lon="-3.5602180">
        <ele>1007.0</ele>
        <time>2020-09-29T11:02:28Z</time>
      </trkpt>
      <trkpt lat="41.0135670" lon="-3.5602180">
        <ele>1007.0</ele>
        <time>2020-09-29T11:02:29Z</time>
      </trkpt>
      <trkpt lat="41.0136320" lon="-3.5601870">
        <ele>1007.0</ele>
        <time>2020-09-29T11:02:30Z</time>
      </trkpt>
      <trkpt lat="41.0136630" lon="-3.5601670">
        <ele>1008.0</ele>
        <time>2020-09-29T11:02:31Z</time>
      </trkpt>
      <trkpt lat="41.0136630" lon="-3.5601670">
        <ele>1008.0</ele>
        <time>2020-09-29T11:02:32Z</time>
      </trkpt>
      <trkpt lat="41.0137220" lon="-3.5601230">
        <ele>1008.0</ele>
        <time>2020-09-29T11:02:33Z</time>
      </trkpt>
      <trkpt lat="41.0137220" lon="-3.5601230">
        <ele>1008.0</ele>
        <time>2020-09-29T11:02:34Z</time>
      </trkpt>
      <trkpt lat="41.0137770" lon="-3.5600820">
        <ele>1008.0</ele>
        <time>2020-09-29T11:02:35Z</time>
      </trkpt>
      <trkpt lat="41.0137770" lon="-3.5600820">
        <ele>1008.0</ele>
        <time>2020-09-29T11:02:36Z</time>
      </trkpt>
      <trkpt lat="41.0138350" lon="-3.5600480">
        <ele>1008.0</ele>
        <time>2020-09-29T11:02:37Z</time>
      </trkpt>
      <trkpt lat="41.0138630" lon="-3.5600330">
        <ele>1008.0</ele>
        <time>2020-09-29T11:02:38Z</time>
      </trkpt>
      <trkpt lat="41.0138630" lon="-3.5600330">
        <ele>1009.0</ele>
        <time>2020-09-29T11:02:39Z</time>
      </trkpt>
      <trkpt lat="41.0139200" lon="-3.5599970">
        <ele>1009.0</ele>
        <time>2020-09-29T11:02:40Z</time>
      </trkpt>
      <trkpt lat="41.0139200" lon="-3.5599970">
        <ele>1009.0</ele>
        <time>2020-09-29T11:02:41Z</time>
      </trkpt>
      <trkpt lat="41.0139750" lon="-3.5599580">
        <ele>1009.0</ele>
        <time>2020-09-29T11:02:42Z</time>
      </trkpt>
      <trkpt lat="41.0140030" lon="-3.5599400">
        <ele>1010.0</ele>
        <time>2020-09-29T11:02:43Z</time>
      </trkpt>
      <trkpt lat="41.0140030" lon="-3.5599400">
        <ele>1010.0</ele>
        <time>2020-09-29T11:02:44Z</time>
      </trkpt>
      <trkpt lat="41.0140620" lon="-3.5599030">
        <ele>1010.0</ele>
        <time>2020-09-29T11:02:45Z</time>
      </trkpt>
      <trkpt lat="41.0140920" lon="-3.5598850">
        <ele>1010.0</ele>
        <time>2020-09-29T11:02:46Z</time>
      </trkpt>
      <trkpt lat="41.0140920" lon="-3.5598850">
        <ele>1011.0</ele>
        <time>2020-09-29T11:02:47Z</time>
      </trkpt>
      <trkpt lat="41.0141520" lon="-3.5598500">
        <ele>1011.0</ele>
        <time>2020-09-29T11:02:48Z</time>
      </trkpt>
      <trkpt lat="41.0141520" lon="-3.5598500">
        <ele>1011.0</ele>
        <time>2020-09-29T11:02:49Z</time>
      </trkpt>
      <trkpt lat="41.0142150" lon="-3.5598120">
        <ele>1011.0</ele>
        <time>2020-09-29T11:02:50Z</time>
      </trkpt>
      <trkpt lat="41.0142430" lon="-3.5597900">
        <ele>1012.0</ele>
        <time>2020-09-29T11:02:51Z</time>
      </trkpt>
      <trkpt lat="41.0142430" lon="-3.5597900">
        <ele>1012.0</ele>
        <time>2020-09-29T11:02:52Z</time>
      </trkpt>
      <trkpt lat="41.0143030" lon="-3.5597500">
        <ele>1012.0</ele>
        <time>2020-09-29T11:02:53Z</time>
      </trkpt>
      <trkpt lat="41.0143330" lon="-3.5597330">
        <ele>1012.0</ele>
        <time>2020-09-29T11:02:54Z</time>
      </trkpt>
      <trkpt lat="41.0143330" lon="-3.5597330">
        <ele>1013.0</ele>
        <time>2020-09-29T11:02:55Z</time>
      </trkpt>
      <trkpt lat="41.0143920" lon="-3.5597020">
        <ele>1013.0</ele>
        <time>2020-09-29T11:02:56Z</time>
      </trkpt>
      <trkpt lat="41.0143920" lon="-3.5597020">
        <ele>1013.0</ele>
        <time>2020-09-29T11:02:57Z</time>
      </trkpt>
      <trkpt lat="41.0144500" lon="-3.5596650">
        <ele>1013.0</ele>
        <time>2020-09-29T11:02:58Z</time>
      </trkpt>
      <trkpt lat="41.0144500" lon="-3.5596650">
        <ele>1014.0</ele>
        <time>2020-09-29T11:02:59Z</time>
      </trkpt>
      <trkpt lat="41.0145080" lon="-3.5596330">
        <ele>1014.0</ele>
        <time>2020-09-29T11:03:00Z</time>
      </trkpt>
      <trkpt lat="41.0145350" lon="-3.5596170">
        <ele>1014.0</ele>
        <time>2020-09-29T11:03:01Z</time>
      </trkpt>
      <trkpt lat="41.0145350" lon="-3.5596170">
        <ele>1014.0</ele>
        <time>2020-09-29T11:03:02Z</time>
      </trkpt>
      <trkpt lat="41.0145880" lon="-3.5595800">
        <ele>1015.0</ele>
        <time>2020-09-29T11:03:03Z</time>
      </trkpt>
      <trkpt lat="41.0146130" lon="-3.5595630">
        <ele>1015.0</ele>
        <time>2020-09-29T11:03:04Z</time>
      </trkpt>
      <trkpt lat="41.0146130" lon="-3.5595630">
        <ele>1015.0</ele>
        <time>2020-09-29T11:03:05Z</time>
      </trkpt>
      <trkpt lat="41.0146670" lon="-3.5595380">
        <ele>1016.0</ele>
        <time>2020-09-29T11:03:06Z</time>
      </trkpt>
      <trkpt lat="41.0146670" lon="-3.5595380">
        <ele>1016.0</ele>
        <time>2020-09-29T11:03:07Z</time>
      </trkpt>
      <trkpt lat="41.0147200" lon="-3.5595080">
        <ele>1016.0</ele>
        <time>2020-09-29T11:03:08Z</time>
      </trkpt>
      <trkpt lat="41.0147200" lon="-3.5595080">
        <ele>1016.0</ele>
        <time>2020-09-29T11:03:09Z</time>
      </trkpt>
      <trkpt lat="41.0147200" lon="-3.5595080">
        <ele>1016.0</ele>
        <time>2020-09-29T11:03:10Z</time>
      </trkpt>
      <trkpt lat="41.0147700" lon="-3.5594720">
        <ele>1017.0</ele>
        <time>2020-09-29T11:03:11Z</time>
      </trkpt>
      <trkpt lat="41.0148180" lon="-3.5594420">
        <ele>1017.0</ele>
        <time>2020-09-29T11:03:12Z</time>
      </trkpt>
      <trkpt lat="41.0148430" lon="-3.5594270">
        <ele>1017.0</ele>
        <time>2020-09-29T11:03:13Z</time>
      </trkpt>
      <trkpt lat="41.0148430" lon="-3.5594270">
        <ele>1018.0</ele>
        <time>2020-09-29T11:03:14Z</time>
      </trkpt>
      <trkpt lat="41.0148920" lon="-3.5593920">
        <ele>1018.0</ele>
        <time>2020-09-29T11:03:15Z</time>
      </trkpt>
      <trkpt lat="41.0149170" lon="-3.5593780">
        <ele>1018.0</ele>
        <time>2020-09-29T11:03:16Z</time>
      </trkpt>
      <trkpt lat="41.0149170" lon="-3.5593780">
        <ele>1018.0</ele>
        <time>2020-09-29T11:03:17Z</time>
      </trkpt>
      <trkpt lat="41.0149700" lon="-3.5593470">
        <ele>1019.0</ele>
        <time>2020-09-29T11:03:18Z</time>
      </trkpt>
      <trkpt lat="41.0149950" lon="-3.5593300">
        <ele>1019.0</ele>
        <time>2020-09-29T11:03:19Z</time>
      </trkpt>
      <trkpt lat="41.0149950" lon="-3.5593300">
        <ele>1019.0</ele>
        <time>2020-09-29T11:03:20Z</time>
      </trkpt>
      <trkpt lat="41.0150470" lon="-3.5592980">
        <ele>1019.0</ele>
        <time>2020-09-29T11:03:21Z</time>
      </trkpt>
      <trkpt lat="41.0150720" lon="-3.5592800">
        <ele>1020.0</ele>
        <time>2020-09-29T11:03:22Z</time>
      </trkpt>
      <trkpt lat="41.0150720" lon="-3.5592800">
        <ele>1020.0</ele>
        <time>2020-09-29T11:03:23Z</time>
      </trkpt>
      <trkpt lat="41.0151220" lon="-3.5592450">
        <ele>1020.0</ele>
        <time>2020-09-29T11:03:24Z</time>
      </trkpt>
      <trkpt lat="41.0151220" lon="-3.5592450">
        <ele>1020.0</ele>
        <time>2020-09-29T11:03:25Z</time>
      </trkpt>
      <trkpt lat="41.0151730" lon="-3.5592170">
        <ele>1021.0</ele>
        <time>2020-09-29T11:03:26Z</time>
      </trkpt>
      <trkpt lat="41.0151730" lon="-3.5592170">
        <ele>1021.0</ele>
        <time>2020-09-29T11:03:27Z</time>
      </trkpt>
      <trkpt lat="41.0152220" lon="-3.5591800">
        <ele>1021.0</ele>
        <time>2020-09-29T11:03:28Z</time>
      </trkpt>
      <trkpt lat="41.0152470" lon="-3.5591650">
        <ele>1021.0</ele>
        <time>2020-09-29T11:03:29Z</time>
      </trkpt>
      <trkpt lat="41.0152470" lon="-3.5591650">
        <ele>1021.0</ele>
        <time>2020-09-29T11:03:30Z</time>
      </trkpt>
      <trkpt lat="41.0153000" lon="-3.5591330">
        <ele>1021.0</ele>
        <time>2020-09-29T11:03:31Z</time>
      </trkpt>
      <trkpt lat="41.0153250" lon="-3.5591170">
        <ele>1021.0</ele>
        <time>2020-09-29T11:03:32Z</time>
      </trkpt>
      <trkpt lat="41.0153250" lon="-3.5591170">
        <ele>1021.0</ele>
        <time>2020-09-29T11:03:33Z</time>
      </trkpt>
      <trkpt lat="41.0153770" lon="-3.5590870">
        <ele>1023.0</ele>
        <time>2020-09-29T11:03:34Z</time>
      </trkpt>
      <trkpt lat="41.0154020" lon="-3.5590680">
        <ele>1023.0</ele>
        <time>2020-09-29T11:03:35Z</time>
      </trkpt>
      <trkpt lat="41.0154020" lon="-3.5590680">
        <ele>1023.0</ele>
        <time>2020-09-29T11:03:36Z</time>
      </trkpt>
      <trkpt lat="41.0154550" lon="-3.5590400">
        <ele>1023.0</ele>
        <time>2020-09-29T11:03:37Z</time>
      </trkpt>
      <trkpt lat="41.0154550" lon="-3.5590400">
        <ele>1023.0</ele>
        <time>2020-09-29T11:03:38Z</time>
      </trkpt>
      <trkpt lat="41.0155100" lon="-3.5590170">
        <ele>1023.0</ele>
        <time>2020-09-29T11:03:39Z</time>
      </trkpt>
      <trkpt lat="41.0155380" lon="-3.5590020">
        <ele>1024.0</ele>
        <time>2020-09-29T11:03:40Z</time>
      </trkpt>
      <trkpt lat="41.0155380" lon="-3.5590020">
        <ele>1024.0</ele>
        <time>2020-09-29T11:03:41Z</time>
      </trkpt>
      <trkpt lat="41.0155880" lon="-3.5589650">
        <ele>1024.0</ele>
        <time>2020-09-29T11:03:42Z</time>
      </trkpt>
      <trkpt lat="41.0155880" lon="-3.5589650">
        <ele>1024.0</ele>
        <time>2020-09-29T11:03:43Z</time>
      </trkpt>
      <trkpt lat="41.0156400" lon="-3.5589280">
        <ele>1024.0</ele>
        <time>2020-09-29T11:03:44Z</time>
      </trkpt>
      <trkpt lat="41.0156400" lon="-3.5589280">
        <ele>1024.0</ele>
        <time>2020-09-29T11:03:45Z</time>
      </trkpt>
      <trkpt lat="41.0156920" lon="-3.5588970">
        <ele>1024.0</ele>
        <time>2020-09-29T11:03:46Z</time>
      </trkpt>
      <trkpt lat="41.0156920" lon="-3.5588970">
        <ele>1025.0</ele>
        <time>2020-09-29T11:03:47Z</time>
      </trkpt>
      <trkpt lat="41.0157470" lon="-3.5588680">
        <ele>1025.0</ele>
        <time>2020-09-29T11:03:48Z</time>
      </trkpt>
      <trkpt lat="41.0157470" lon="-3.5588680">
        <ele>1025.0</ele>
        <time>2020-09-29T11:03:49Z</time>
      </trkpt>
      <trkpt lat="41.0158020" lon="-3.5588380">
        <ele>1025.0</ele>
        <time>2020-09-29T11:03:50Z</time>
      </trkpt>
      <trkpt lat="41.0158020" lon="-3.5588380">
        <ele>1026.0</ele>
        <time>2020-09-29T11:03:51Z</time>
      </trkpt>
      <trkpt lat="41.0158530" lon="-3.5588130">
        <ele>1026.0</ele>
        <time>2020-09-29T11:03:52Z</time>
      </trkpt>
      <trkpt lat="41.0158780" lon="-3.5587970">
        <ele>1026.0</ele>
        <time>2020-09-29T11:03:53Z</time>
      </trkpt>
      <trkpt lat="41.0158780" lon="-3.5587970">
        <ele>1026.0</ele>
        <time>2020-09-29T11:03:54Z</time>
      </trkpt>
      <trkpt lat="41.0159270" lon="-3.5587550">
        <ele>1027.0</ele>
        <time>2020-09-29T11:03:55Z</time>
      </trkpt>
      <trkpt lat="41.0159270" lon="-3.5587550">
        <ele>1027.0</ele>
        <time>2020-09-29T11:03:56Z</time>
      </trkpt>
      <trkpt lat="41.0159750" lon="-3.5587130">
        <ele>1027.0</ele>
        <time>2020-09-29T11:03:57Z</time>
      </trkpt>
      <trkpt lat="41.0160020" lon="-3.5586970">
        <ele>1027.0</ele>
        <time>2020-09-29T11:03:58Z</time>
      </trkpt>
      <trkpt lat="41.0160020" lon="-3.5586970">
        <ele>1028.0</ele>
        <time>2020-09-29T11:03:59Z</time>
      </trkpt>
      <trkpt lat="41.0160570" lon="-3.5586620">
        <ele>1028.0</ele>
        <time>2020-09-29T11:04:00Z</time>
      </trkpt>
      <trkpt lat="41.0160570" lon="-3.5586620">
        <ele>1028.0</ele>
        <time>2020-09-29T11:04:01Z</time>
      </trkpt>
      <trkpt lat="41.0161120" lon="-3.5586270">
        <ele>1028.0</ele>
        <time>2020-09-29T11:04:02Z</time>
      </trkpt>
      <trkpt lat="41.0161120" lon="-3.5586270">
        <ele>1029.0</ele>
        <time>2020-09-29T11:04:03Z</time>
      </trkpt>
      <trkpt lat="41.0161650" lon="-3.5585920">
        <ele>1029.0</ele>
        <time>2020-09-29T11:04:04Z</time>
      </trkpt>
      <trkpt lat="41.0161650" lon="-3.5585920">
        <ele>1029.0</ele>
        <time>2020-09-29T11:04:05Z</time>
      </trkpt>
      <trkpt lat="41.0162170" lon="-3.5585550">
        <ele>1029.0</ele>
        <time>2020-09-29T11:04:06Z</time>
      </trkpt>
      <trkpt lat="41.0162170" lon="-3.5585550">
        <ele>1030.0</ele>
        <time>2020-09-29T11:04:07Z</time>
      </trkpt>
      <trkpt lat="41.0162700" lon="-3.5585220">
        <ele>1030.0</ele>
        <time>2020-09-29T11:04:08Z</time>
      </trkpt>
      <trkpt lat="41.0162700" lon="-3.5585220">
        <ele>1030.0</ele>
        <time>2020-09-29T11:04:09Z</time>
      </trkpt>
      <trkpt lat="41.0163230" lon="-3.5584870">
        <ele>1030.0</ele>
        <time>2020-09-29T11:04:10Z</time>
      </trkpt>
      <trkpt lat="41.0163230" lon="-3.5584870">
        <ele>1031.0</ele>
        <time>2020-09-29T11:04:11Z</time>
      </trkpt>
      <trkpt lat="41.0163770" lon="-3.5584530">
        <ele>1031.0</ele>
        <time>2020-09-29T11:04:12Z</time>
      </trkpt>
      <trkpt lat="41.0164030" lon="-3.5584380">
        <ele>1031.0</ele>
        <time>2020-09-29T11:04:13Z</time>
      </trkpt>
      <trkpt lat="41.0164030" lon="-3.5584380">
        <ele>1031.0</ele>
        <time>2020-09-29T11:04:14Z</time>
      </trkpt>
      <trkpt lat="41.0164580" lon="-3.5584030">
        <ele>1032.0</ele>
        <time>2020-09-29T11:04:15Z</time>
      </trkpt>
      <trkpt lat="41.0164580" lon="-3.5584030">
        <ele>1032.0</ele>
        <time>2020-09-29T11:04:16Z</time>
      </trkpt>
      <trkpt lat="41.0165130" lon="-3.5583700">
        <ele>1032.0</ele>
        <time>2020-09-29T11:04:17Z</time>
      </trkpt>
      <trkpt lat="41.0165400" lon="-3.5583550">
        <ele>1033.0</ele>
        <time>2020-09-29T11:04:18Z</time>
      </trkpt>
      <trkpt lat="41.0165650" lon="-3.5583380">
        <ele>1033.0</ele>
        <time>2020-09-29T11:04:19Z</time>
      </trkpt>
      <trkpt lat="41.0165650" lon="-3.5583380">
        <ele>1033.0</ele>
        <time>2020-09-29T11:04:20Z</time>
      </trkpt>
      <trkpt lat="41.0166180" lon="-3.5583020">
        <ele>1033.0</ele>
        <time>2020-09-29T11:04:21Z</time>
      </trkpt>
      <trkpt lat="41.0166430" lon="-3.5582850">
        <ele>1034.0</ele>
        <time>2020-09-29T11:04:22Z</time>
      </trkpt>
      <trkpt lat="41.0166700" lon="-3.5582680">
        <ele>1034.0</ele>
        <time>2020-09-29T11:04:23Z</time>
      </trkpt>
      <trkpt lat="41.0166700" lon="-3.5582680">
        <ele>1034.0</ele>
        <time>2020-09-29T11:04:24Z</time>
      </trkpt>
      <trkpt lat="41.0167270" lon="-3.5582400">
        <ele>1034.0</ele>
        <time>2020-09-29T11:04:25Z</time>
      </trkpt>
      <trkpt lat="41.0167270" lon="-3.5582400">
        <ele>1034.0</ele>
        <time>2020-09-29T11:04:26Z</time>
      </trkpt>
      <trkpt lat="41.0167830" lon="-3.5582120">
        <ele>1035.0</ele>
        <time>2020-09-29T11:04:27Z</time>
      </trkpt>
      <trkpt lat="41.0167830" lon="-3.5582120">
        <ele>1035.0</ele>
        <time>2020-09-29T11:04:28Z</time>
      </trkpt>
      <trkpt lat="41.0168400" lon="-3.5581800">
        <ele>1035.0</ele>
        <time>2020-09-29T11:04:29Z</time>
      </trkpt>
      <trkpt lat="41.0168400" lon="-3.5581800">
        <ele>1035.0</ele>
        <time>2020-09-29T11:04:30Z</time>
      </trkpt>
      <trkpt lat="41.0169000" lon="-3.5581580">
        <ele>1035.0</ele>
        <time>2020-09-29T11:04:31Z</time>
      </trkpt>
      <trkpt lat="41.0169000" lon="-3.5581580">
        <ele>1035.0</ele>
        <time>2020-09-29T11:04:32Z</time>
      </trkpt>
      <trkpt lat="41.0169630" lon="-3.5581350">
        <ele>1036.0</ele>
        <time>2020-09-29T11:04:33Z</time>
      </trkpt>
      <trkpt lat="41.0169630" lon="-3.5581350">
        <ele>1036.0</ele>
        <time>2020-09-29T11:04:34Z</time>
      </trkpt>
      <trkpt lat="41.0170270" lon="-3.5581120">
        <ele>1036.0</ele>
        <time>2020-09-29T11:04:35Z</time>
      </trkpt>
      <trkpt lat="41.0170580" lon="-3.5581000">
        <ele>1036.0</ele>
        <time>2020-09-29T11:04:36Z</time>
      </trkpt>
      <trkpt lat="41.0170580" lon="-3.5581000">
        <ele>1036.0</ele>
        <time>2020-09-29T11:04:37Z</time>
      </trkpt>
      <trkpt lat="41.0171250" lon="-3.5580780">
        <ele>1036.0</ele>
        <time>2020-09-29T11:04:38Z</time>
      </trkpt>
      <trkpt lat="41.0171580" lon="-3.5580670">
        <ele>1036.0</ele>
        <time>2020-09-29T11:04:39Z</time>
      </trkpt>
      <trkpt lat="41.0171580" lon="-3.5580670">
        <ele>1036.0</ele>
        <time>2020-09-29T11:04:40Z</time>
      </trkpt>
      <trkpt lat="41.0172230" lon="-3.5580450">
        <ele>1037.0</ele>
        <time>2020-09-29T11:04:41Z</time>
      </trkpt>
      <trkpt lat="41.0172230" lon="-3.5580450">
        <ele>1037.0</ele>
        <time>2020-09-29T11:04:42Z</time>
      </trkpt>
      <trkpt lat="41.0172920" lon="-3.5580230">
        <ele>1037.0</ele>
        <time>2020-09-29T11:04:43Z</time>
      </trkpt>
      <trkpt lat="41.0172920" lon="-3.5580230">
        <ele>1037.0</ele>
        <time>2020-09-29T11:04:44Z</time>
      </trkpt>
      <trkpt lat="41.0173580" lon="-3.5580000">
        <ele>1037.0</ele>
        <time>2020-09-29T11:04:45Z</time>
      </trkpt>
      <trkpt lat="41.0173580" lon="-3.5580000">
        <ele>1037.0</ele>
        <time>2020-09-29T11:04:46Z</time>
      </trkpt>
      <trkpt lat="41.0174270" lon="-3.5579770">
        <ele>1037.0</ele>
        <time>2020-09-29T11:04:47Z</time>
      </trkpt>
      <trkpt lat="41.0174270" lon="-3.5579770">
        <ele>1037.0</ele>
        <time>2020-09-29T11:04:48Z</time>
      </trkpt>
      <trkpt lat="41.0174970" lon="-3.5579530">
        <ele>1037.0</ele>
        <time>2020-09-29T11:04:49Z</time>
      </trkpt>
      <trkpt lat="41.0174970" lon="-3.5579530">
        <ele>1037.0</ele>
        <time>2020-09-29T11:04:50Z</time>
      </trkpt>
      <trkpt lat="41.0175650" lon="-3.5579280">
        <ele>1037.0</ele>
        <time>2020-09-29T11:04:51Z</time>
      </trkpt>
      <trkpt lat="41.0176000" lon="-3.5579170">
        <ele>1037.0</ele>
        <time>2020-09-29T11:04:52Z</time>
      </trkpt>
      <trkpt lat="41.0176350" lon="-3.5579050">
        <ele>1037.0</ele>
        <time>2020-09-29T11:04:53Z</time>
      </trkpt>
      <trkpt lat="41.0176700" lon="-3.5578930">
        <ele>1037.0</ele>
        <time>2020-09-29T11:04:54Z</time>
      </trkpt>
      <trkpt lat="41.0177030" lon="-3.5578830">
        <ele>1037.0</ele>
        <time>2020-09-29T11:04:55Z</time>
      </trkpt>
      <trkpt lat="41.0177030" lon="-3.5578830">
        <ele>1038.0</ele>
        <time>2020-09-29T11:04:56Z</time>
      </trkpt>
      <trkpt lat="41.0177700" lon="-3.5578600">
        <ele>1038.0</ele>
        <time>2020-09-29T11:04:57Z</time>
      </trkpt>
      <trkpt lat="41.0177700" lon="-3.5578600">
        <ele>1038.0</ele>
        <time>2020-09-29T11:04:58Z</time>
      </trkpt>
      <trkpt lat="41.0178370" lon="-3.5578380">
        <ele>1038.0</ele>
        <time>2020-09-29T11:04:59Z</time>
      </trkpt>
      <trkpt lat="41.0178370" lon="-3.5578380">
        <ele>1038.0</ele>
        <time>2020-09-29T11:05:00Z</time>
      </trkpt>
      <trkpt lat="41.0179050" lon="-3.5578150">
        <ele>1038.0</ele>
        <time>2020-09-29T11:05:01Z</time>
      </trkpt>
      <trkpt lat="41.0179380" lon="-3.5578050">
        <ele>1039.0</ele>
        <time>2020-09-29T11:05:02Z</time>
      </trkpt>
      <trkpt lat="41.0179380" lon="-3.5578050">
        <ele>1039.0</ele>
        <time>2020-09-29T11:05:03Z</time>
      </trkpt>
      <trkpt lat="41.0180080" lon="-3.5577780">
        <ele>1039.0</ele>
        <time>2020-09-29T11:05:04Z</time>
      </trkpt>
      <trkpt lat="41.0180080" lon="-3.5577780">
        <ele>1039.0</ele>
        <time>2020-09-29T11:05:05Z</time>
      </trkpt>
      <trkpt lat="41.0180770" lon="-3.5577550">
        <ele>1039.0</ele>
        <time>2020-09-29T11:05:06Z</time>
      </trkpt>
      <trkpt lat="41.0181120" lon="-3.5577470">
        <ele>1039.0</ele>
        <time>2020-09-29T11:05:07Z</time>
      </trkpt>
      <trkpt lat="41.0181120" lon="-3.5577470">
        <ele>1040.0</ele>
        <time>2020-09-29T11:05:08Z</time>
      </trkpt>
      <trkpt lat="41.0181780" lon="-3.5577270">
        <ele>1040.0</ele>
        <time>2020-09-29T11:05:09Z</time>
      </trkpt>
      <trkpt lat="41.0182130" lon="-3.5577170">
        <ele>1040.0</ele>
        <time>2020-09-29T11:05:10Z</time>
      </trkpt>
      <trkpt lat="41.0182130" lon="-3.5577170">
        <ele>1040.0</ele>
        <time>2020-09-29T11:05:11Z</time>
      </trkpt>
      <trkpt lat="41.0182830" lon="-3.5576930">
        <ele>1040.0</ele>
        <time>2020-09-29T11:05:12Z</time>
      </trkpt>
      <trkpt lat="41.0183200" lon="-3.5576780">
        <ele>1040.0</ele>
        <time>2020-09-29T11:05:13Z</time>
      </trkpt>
      <trkpt lat="41.0183200" lon="-3.5576780">
        <ele>1040.0</ele>
        <time>2020-09-29T11:05:14Z</time>
      </trkpt>
      <trkpt lat="41.0183930" lon="-3.5576520">
        <ele>1040.0</ele>
        <time>2020-09-29T11:05:15Z</time>
      </trkpt>
      <trkpt lat="41.0183930" lon="-3.5576520">
        <ele>1041.0</ele>
        <time>2020-09-29T11:05:16Z</time>
      </trkpt>
      <trkpt lat="41.0184670" lon="-3.5576270">
        <ele>1041.0</ele>
        <time>2020-09-29T11:05:17Z</time>
      </trkpt>
      <trkpt lat="41.0184670" lon="-3.5576270">
        <ele>1041.0</ele>
        <time>2020-09-29T11:05:18Z</time>
      </trkpt>
      <trkpt lat="41.0185400" lon="-3.5576020">
        <ele>1041.0</ele>
        <time>2020-09-29T11:05:19Z</time>
      </trkpt>
      <trkpt lat="41.0185400" lon="-3.5576020">
        <ele>1041.0</ele>
        <time>2020-09-29T11:05:20Z</time>
      </trkpt>
      <trkpt lat="41.0186120" lon="-3.5575750">
        <ele>1041.0</ele>
        <time>2020-09-29T11:05:21Z</time>
      </trkpt>
      <trkpt lat="41.0186480" lon="-3.5575630">
        <ele>1042.0</ele>
        <time>2020-09-29T11:05:22Z</time>
      </trkpt>
      <trkpt lat="41.0186480" lon="-3.5575630">
        <ele>1042.0</ele>
        <time>2020-09-29T11:05:23Z</time>
      </trkpt>
      <trkpt lat="41.0187180" lon="-3.5575420">
        <ele>1042.0</ele>
        <time>2020-09-29T11:05:24Z</time>
      </trkpt>
      <trkpt lat="41.0187550" lon="-3.5575370">
        <ele>1042.0</ele>
        <time>2020-09-29T11:05:25Z</time>
      </trkpt>
      <trkpt lat="41.0187550" lon="-3.5575370">
        <ele>1042.0</ele>
        <time>2020-09-29T11:05:26Z</time>
      </trkpt>
      <trkpt lat="41.0188250" lon="-3.5575130">
        <ele>1042.0</ele>
        <time>2020-09-29T11:05:27Z</time>
      </trkpt>
      <trkpt lat="41.0188580" lon="-3.5574980">
        <ele>1042.0</ele>
        <time>2020-09-29T11:05:28Z</time>
      </trkpt>
      <trkpt lat="41.0188580" lon="-3.5574980">
        <ele>1042.0</ele>
        <time>2020-09-29T11:05:29Z</time>
      </trkpt>
      <trkpt lat="41.0189280" lon="-3.5574750">
        <ele>1042.0</ele>
        <time>2020-09-29T11:05:30Z</time>
      </trkpt>
      <trkpt lat="41.0189280" lon="-3.5574750">
        <ele>1042.0</ele>
        <time>2020-09-29T11:05:31Z</time>
      </trkpt>
      <trkpt lat="41.0189950" lon="-3.5574530">
        <ele>1044.0</ele>
        <time>2020-09-29T11:05:32Z</time>
      </trkpt>
      <trkpt lat="41.0190270" lon="-3.5574450">
        <ele>1044.0</ele>
        <time>2020-09-29T11:05:33Z</time>
      </trkpt>
      <trkpt lat="41.0190270" lon="-3.5574450">
        <ele>1044.0</ele>
        <time>2020-09-29T11:05:34Z</time>
      </trkpt>
      <trkpt lat="41.0190950" lon="-3.5574230">
        <ele>1044.0</ele>
        <time>2020-09-29T11:05:35Z</time>
      </trkpt>
      <trkpt lat="41.0191330" lon="-3.5574100">
        <ele>1044.0</ele>
        <time>2020-09-29T11:05:36Z</time>
      </trkpt>
      <trkpt lat="41.0191330" lon="-3.5574100">
        <ele>1044.0</ele>
        <time>2020-09-29T11:05:37Z</time>
      </trkpt>
      <trkpt lat="41.0192070" lon="-3.5573830">
        <ele>1045.0</ele>
        <time>2020-09-29T11:05:38Z</time>
      </trkpt>
      <trkpt lat="41.0192070" lon="-3.5573830">
        <ele>1045.0</ele>
        <time>2020-09-29T11:05:39Z</time>
      </trkpt>
      <trkpt lat="41.0192780" lon="-3.5573580">
        <ele>1045.0</ele>
        <time>2020-09-29T11:05:40Z</time>
      </trkpt>
      <trkpt lat="41.0192780" lon="-3.5573580">
        <ele>1045.0</ele>
        <time>2020-09-29T11:05:41Z</time>
      </trkpt>
      <trkpt lat="41.0193470" lon="-3.5573320">
        <ele>1045.0</ele>
        <time>2020-09-29T11:05:42Z</time>
      </trkpt>
      <trkpt lat="41.0193830" lon="-3.5573200">
        <ele>1045.0</ele>
        <time>2020-09-29T11:05:43Z</time>
      </trkpt>
      <trkpt lat="41.0193830" lon="-3.5573200">
        <ele>1045.0</ele>
        <time>2020-09-29T11:05:44Z</time>
      </trkpt>
      <trkpt lat="41.0194550" lon="-3.5572970">
        <ele>1045.0</ele>
        <time>2020-09-29T11:05:45Z</time>
      </trkpt>
      <trkpt lat="41.0194550" lon="-3.5572970">
        <ele>1045.0</ele>
        <time>2020-09-29T11:05:46Z</time>
      </trkpt>
      <trkpt lat="41.0195270" lon="-3.5572720">
        <ele>1045.0</ele>
        <time>2020-09-29T11:05:47Z</time>
      </trkpt>
      <trkpt lat="41.0195620" lon="-3.5572620">
        <ele>1046.0</ele>
        <time>2020-09-29T11:05:48Z</time>
      </trkpt>
      <trkpt lat="41.0195970" lon="-3.5572500">
        <ele>1046.0</ele>
        <time>2020-09-29T11:05:49Z</time>
      </trkpt>
      <trkpt lat="41.0195970" lon="-3.5572500">
        <ele>1046.0</ele>
        <time>2020-09-29T11:05:50Z</time>
      </trkpt>
      <trkpt lat="41.0196700" lon="-3.5572320">
        <ele>1046.0</ele>
        <time>2020-09-29T11:05:51Z</time>
      </trkpt>
      <trkpt lat="41.0197030" lon="-3.5572200">
        <ele>1046.0</ele>
        <time>2020-09-29T11:05:52Z</time>
      </trkpt>
      <trkpt lat="41.0197030" lon="-3.5572200">
        <ele>1046.0</ele>
        <time>2020-09-29T11:05:53Z</time>
      </trkpt>
      <trkpt lat="41.0197720" lon="-3.5571980">
        <ele>1047.0</ele>
        <time>2020-09-29T11:05:54Z</time>
      </trkpt>
      <trkpt lat="41.0198070" lon="-3.5571880">
        <ele>1047.0</ele>
        <time>2020-09-29T11:05:55Z</time>
      </trkpt>
      <trkpt lat="41.0198070" lon="-3.5571880">
        <ele>1047.0</ele>
        <time>2020-09-29T11:05:56Z</time>
      </trkpt>
      <trkpt lat="41.0198730" lon="-3.5571620">
        <ele>1047.0</ele>
        <time>2020-09-29T11:05:57Z</time>
      </trkpt>
      <trkpt lat="41.0199080" lon="-3.5571450">
        <ele>1047.0</ele>
        <time>2020-09-29T11:05:58Z</time>
      </trkpt>
      <trkpt lat="41.0199420" lon="-3.5571350">
        <ele>1048.0</ele>
        <time>2020-09-29T11:05:59Z</time>
      </trkpt>
      <trkpt lat="41.0199420" lon="-3.5571350">
        <ele>1048.0</ele>
        <time>2020-09-29T11:06:00Z</time>
      </trkpt>
      <trkpt lat="41.0200150" lon="-3.5571130">
        <ele>1048.0</ele>
        <time>2020-09-29T11:06:01Z</time>
      </trkpt>
      <trkpt lat="41.0200150" lon="-3.5571130">
        <ele>1048.0</ele>
        <time>2020-09-29T11:06:02Z</time>
      </trkpt>
      <trkpt lat="41.0200920" lon="-3.5570880">
        <ele>1049.0</ele>
        <time>2020-09-29T11:06:03Z</time>
      </trkpt>
      <trkpt lat="41.0200920" lon="-3.5570880">
        <ele>1049.0</ele>
        <time>2020-09-29T11:06:04Z</time>
      </trkpt>
      <trkpt lat="41.0201630" lon="-3.5570650">
        <ele>1050.0</ele>
        <time>2020-09-29T11:06:05Z</time>
      </trkpt>
      <trkpt lat="41.0201630" lon="-3.5570650">
        <ele>1050.0</ele>
        <time>2020-09-29T11:06:06Z</time>
      </trkpt>
      <trkpt lat="41.0202370" lon="-3.5570380">
        <ele>1050.0</ele>
        <time>2020-09-29T11:06:07Z</time>
      </trkpt>
      <trkpt lat="41.0202720" lon="-3.5570270">
        <ele>1051.0</ele>
        <time>2020-09-29T11:06:08Z</time>
      </trkpt>
      <trkpt lat="41.0202720" lon="-3.5570270">
        <ele>1051.0</ele>
        <time>2020-09-29T11:06:09Z</time>
      </trkpt>
      <trkpt lat="41.0203420" lon="-3.5570050">
        <ele>1051.0</ele>
        <time>2020-09-29T11:06:10Z</time>
      </trkpt>
      <trkpt lat="41.0203420" lon="-3.5570050">
        <ele>1051.0</ele>
        <time>2020-09-29T11:06:11Z</time>
      </trkpt>
      <trkpt lat="41.0204100" lon="-3.5569870">
        <ele>1052.0</ele>
        <time>2020-09-29T11:06:12Z</time>
      </trkpt>
      <trkpt lat="41.0204430" lon="-3.5569730">
        <ele>1052.0</ele>
        <time>2020-09-29T11:06:13Z</time>
      </trkpt>
      <trkpt lat="41.0204430" lon="-3.5569730">
        <ele>1052.0</ele>
        <time>2020-09-29T11:06:14Z</time>
      </trkpt>
      <trkpt lat="41.0205070" lon="-3.5569450">
        <ele>1052.0</ele>
        <time>2020-09-29T11:06:15Z</time>
      </trkpt>
      <trkpt lat="41.0205070" lon="-3.5569450">
        <ele>1053.0</ele>
        <time>2020-09-29T11:06:16Z</time>
      </trkpt>
      <trkpt lat="41.0205750" lon="-3.5569230">
        <ele>1053.0</ele>
        <time>2020-09-29T11:06:17Z</time>
      </trkpt>
      <trkpt lat="41.0205750" lon="-3.5569230">
        <ele>1053.0</ele>
        <time>2020-09-29T11:06:18Z</time>
      </trkpt>
      <trkpt lat="41.0206430" lon="-3.5568980">
        <ele>1053.0</ele>
        <time>2020-09-29T11:06:19Z</time>
      </trkpt>
      <trkpt lat="41.0206430" lon="-3.5568980">
        <ele>1053.0</ele>
        <time>2020-09-29T11:06:20Z</time>
      </trkpt>
      <trkpt lat="41.0207150" lon="-3.5568700">
        <ele>1053.0</ele>
        <time>2020-09-29T11:06:21Z</time>
      </trkpt>
      <trkpt lat="41.0207150" lon="-3.5568700">
        <ele>1054.0</ele>
        <time>2020-09-29T11:06:22Z</time>
      </trkpt>
      <trkpt lat="41.0207900" lon="-3.5568450">
        <ele>1054.0</ele>
        <time>2020-09-29T11:06:23Z</time>
      </trkpt>
      <trkpt lat="41.0208280" lon="-3.5568350">
        <ele>1054.0</ele>
        <time>2020-09-29T11:06:24Z</time>
      </trkpt>
      <trkpt lat="41.0208280" lon="-3.5568350">
        <ele>1054.0</ele>
        <time>2020-09-29T11:06:25Z</time>
      </trkpt>
      <trkpt lat="41.0209020" lon="-3.5568070">
        <ele>1054.0</ele>
        <time>2020-09-29T11:06:26Z</time>
      </trkpt>
      <trkpt lat="41.0209400" lon="-3.5567900">
        <ele>1054.0</ele>
        <time>2020-09-29T11:06:27Z</time>
      </trkpt>
      <trkpt lat="41.0209400" lon="-3.5567900">
        <ele>1054.0</ele>
        <time>2020-09-29T11:06:28Z</time>
      </trkpt>
      <trkpt lat="41.0210130" lon="-3.5567470">
        <ele>1054.0</ele>
        <time>2020-09-29T11:06:29Z</time>
      </trkpt>
      <trkpt lat="41.0210130" lon="-3.5567470">
        <ele>1054.0</ele>
        <time>2020-09-29T11:06:30Z</time>
      </trkpt>
      <trkpt lat="41.0210830" lon="-3.5566930">
        <ele>1054.0</ele>
        <time>2020-09-29T11:06:31Z</time>
      </trkpt>
      <trkpt lat="41.0210830" lon="-3.5566930">
        <ele>1054.0</ele>
        <time>2020-09-29T11:06:32Z</time>
      </trkpt>
      <trkpt lat="41.0211520" lon="-3.5566350">
        <ele>1054.0</ele>
        <time>2020-09-29T11:06:33Z</time>
      </trkpt>
      <trkpt lat="41.0211520" lon="-3.5566350">
        <ele>1055.0</ele>
        <time>2020-09-29T11:06:34Z</time>
      </trkpt>
      <trkpt lat="41.0212170" lon="-3.5565700">
        <ele>1055.0</ele>
        <time>2020-09-29T11:06:35Z</time>
      </trkpt>
      <trkpt lat="41.0212480" lon="-3.5565330">
        <ele>1055.0</ele>
        <time>2020-09-29T11:06:36Z</time>
      </trkpt>
      <trkpt lat="41.0212480" lon="-3.5565330">
        <ele>1055.0</ele>
        <time>2020-09-29T11:06:37Z</time>
      </trkpt>
      <trkpt lat="41.0213120" lon="-3.5564620">
        <ele>1055.0</ele>
        <time>2020-09-29T11:06:38Z</time>
      </trkpt>
      <trkpt lat="41.0213120" lon="-3.5564620">
        <ele>1055.0</ele>
        <time>2020-09-29T11:06:39Z</time>
      </trkpt>
      <trkpt lat="41.0213750" lon="-3.5563900">
        <ele>1056.0</ele>
        <time>2020-09-29T11:06:40Z</time>
      </trkpt>
      <trkpt lat="41.0213750" lon="-3.5563900">
        <ele>1056.0</ele>
        <time>2020-09-29T11:06:41Z</time>
      </trkpt>
      <trkpt lat="41.0213750" lon="-3.5563900">
        <ele>1056.0</ele>
        <time>2020-09-29T11:06:42Z</time>
      </trkpt>
      <trkpt lat="41.0214330" lon="-3.5563170">
        <ele>1056.0</ele>
        <time>2020-09-29T11:06:43Z</time>
      </trkpt>
      <trkpt lat="41.0214880" lon="-3.5562420">
        <ele>1057.0</ele>
        <time>2020-09-29T11:06:44Z</time>
      </trkpt>
      <trkpt lat="41.0214880" lon="-3.5562420">
        <ele>1057.0</ele>
        <time>2020-09-29T11:06:45Z</time>
      </trkpt>
      <trkpt lat="41.0215470" lon="-3.5561630">
        <ele>1057.0</ele>
        <time>2020-09-29T11:06:46Z</time>
      </trkpt>
      <trkpt lat="41.0215770" lon="-3.5561280">
        <ele>1057.0</ele>
        <time>2020-09-29T11:06:47Z</time>
      </trkpt>
      <trkpt lat="41.0215770" lon="-3.5561280">
        <ele>1057.0</ele>
        <time>2020-09-29T11:06:48Z</time>
      </trkpt>
      <trkpt lat="41.0216350" lon="-3.5560580">
        <ele>1057.0</ele>
        <time>2020-09-29T11:06:49Z</time>
      </trkpt>
      <trkpt lat="41.0216350" lon="-3.5560580">
        <ele>1058.0</ele>
        <time>2020-09-29T11:06:50Z</time>
      </trkpt>
      <trkpt lat="41.0216950" lon="-3.5559830">
        <ele>1058.0</ele>
        <time>2020-09-29T11:06:51Z</time>
      </trkpt>
      <trkpt lat="41.0216950" lon="-3.5559830">
        <ele>1058.0</ele>
        <time>2020-09-29T11:06:52Z</time>
      </trkpt>
      <trkpt lat="41.0217580" lon="-3.5559080">
        <ele>1058.0</ele>
        <time>2020-09-29T11:06:53Z</time>
      </trkpt>
      <trkpt lat="41.0217580" lon="-3.5559080">
        <ele>1058.0</ele>
        <time>2020-09-29T11:06:54Z</time>
      </trkpt>
      <trkpt lat="41.0218220" lon="-3.5558280">
        <ele>1058.0</ele>
        <time>2020-09-29T11:06:55Z</time>
      </trkpt>
      <trkpt lat="41.0218220" lon="-3.5558280">
        <ele>1059.0</ele>
        <time>2020-09-29T11:06:56Z</time>
      </trkpt>
      <trkpt lat="41.0218880" lon="-3.5557500">
        <ele>1059.0</ele>
        <time>2020-09-29T11:06:57Z</time>
      </trkpt>
      <trkpt lat="41.0219200" lon="-3.5557120">
        <ele>1059.0</ele>
        <time>2020-09-29T11:06:58Z</time>
      </trkpt>
      <trkpt lat="41.0219520" lon="-3.5556750">
        <ele>1059.0</ele>
        <time>2020-09-29T11:06:59Z</time>
      </trkpt>
      <trkpt lat="41.0219520" lon="-3.5556750">
        <ele>1059.0</ele>
        <time>2020-09-29T11:07:00Z</time>
      </trkpt>
      <trkpt lat="41.0220170" lon="-3.5556000">
        <ele>1059.0</ele>
        <time>2020-09-29T11:07:01Z</time>
      </trkpt>
      <trkpt lat="41.0220170" lon="-3.5556000">
        <ele>1059.0</ele>
        <time>2020-09-29T11:07:02Z</time>
      </trkpt>
      <trkpt lat="41.0220780" lon="-3.5555200">
        <ele>1059.0</ele>
        <time>2020-09-29T11:07:03Z</time>
      </trkpt>
      <trkpt lat="41.0221130" lon="-3.5554800">
        <ele>1059.0</ele>
        <time>2020-09-29T11:07:04Z</time>
      </trkpt>
      <trkpt lat="41.0221130" lon="-3.5554800">
        <ele>1059.0</ele>
        <time>2020-09-29T11:07:05Z</time>
      </trkpt>
      <trkpt lat="41.0221850" lon="-3.5553970">
        <ele>1059.0</ele>
        <time>2020-09-29T11:07:06Z</time>
      </trkpt>
      <trkpt lat="41.0221850" lon="-3.5553970">
        <ele>1059.0</ele>
        <time>2020-09-29T11:07:07Z</time>
      </trkpt>
      <trkpt lat="41.0222570" lon="-3.5553050">
        <ele>1059.0</ele>
        <time>2020-09-29T11:07:08Z</time>
      </trkpt>
      <trkpt lat="41.0222930" lon="-3.5552550">
        <ele>1059.0</ele>
        <time>2020-09-29T11:07:09Z</time>
      </trkpt>
      <trkpt lat="41.0222930" lon="-3.5552550">
        <ele>1059.0</ele>
        <time>2020-09-29T11:07:10Z</time>
      </trkpt>
      <trkpt lat="41.0223720" lon="-3.5551600">
        <ele>1059.0</ele>
        <time>2020-09-29T11:07:11Z</time>
      </trkpt>
      <trkpt lat="41.0223720" lon="-3.5551600">
        <ele>1059.0</ele>
        <time>2020-09-29T11:07:12Z</time>
      </trkpt>
      <trkpt lat="41.0224120" lon="-3.5551120">
        <ele>1059.0</ele>
        <time>2020-09-29T11:07:13Z</time>
      </trkpt>
      <trkpt lat="41.0224900" lon="-3.5550120">
        <ele>1059.0</ele>
        <time>2020-09-29T11:07:14Z</time>
      </trkpt>
      <trkpt lat="41.0225330" lon="-3.5549600">
        <ele>1059.0</ele>
        <time>2020-09-29T11:07:15Z</time>
      </trkpt>
      <trkpt lat="41.0225330" lon="-3.5549600">
        <ele>1059.0</ele>
        <time>2020-09-29T11:07:16Z</time>
      </trkpt>
      <trkpt lat="41.0226230" lon="-3.5548530">
        <ele>1059.0</ele>
        <time>2020-09-29T11:07:17Z</time>
      </trkpt>
      <trkpt lat="41.0226230" lon="-3.5548530">
        <ele>1059.0</ele>
        <time>2020-09-29T11:07:18Z</time>
      </trkpt>
      <trkpt lat="41.0227130" lon="-3.5547370">
        <ele>1059.0</ele>
        <time>2020-09-29T11:07:19Z</time>
      </trkpt>
      <trkpt lat="41.0227130" lon="-3.5547370">
        <ele>1059.0</ele>
        <time>2020-09-29T11:07:20Z</time>
      </trkpt>
      <trkpt lat="41.0228080" lon="-3.5546150">
        <ele>1059.0</ele>
        <time>2020-09-29T11:07:21Z</time>
      </trkpt>
      <trkpt lat="41.0228080" lon="-3.5546150">
        <ele>1059.0</ele>
        <time>2020-09-29T11:07:22Z</time>
      </trkpt>
      <trkpt lat="41.0229050" lon="-3.5544900">
        <ele>1059.0</ele>
        <time>2020-09-29T11:07:23Z</time>
      </trkpt>
      <trkpt lat="41.0229570" lon="-3.5544270">
        <ele>1059.0</ele>
        <time>2020-09-29T11:07:24Z</time>
      </trkpt>
      <trkpt lat="41.0230080" lon="-3.5543650">
        <ele>1059.0</ele>
        <time>2020-09-29T11:07:25Z</time>
      </trkpt>
      <trkpt lat="41.0230080" lon="-3.5543650">
        <ele>1059.0</ele>
        <time>2020-09-29T11:07:26Z</time>
      </trkpt>
      <trkpt lat="41.0231130" lon="-3.5542400">
        <ele>1059.0</ele>
        <time>2020-09-29T11:07:27Z</time>
      </trkpt>
      <trkpt lat="41.0231630" lon="-3.5541750">
        <ele>1059.0</ele>
        <time>2020-09-29T11:07:28Z</time>
      </trkpt>
      <trkpt lat="41.0231630" lon="-3.5541750">
        <ele>1059.0</ele>
        <time>2020-09-29T11:07:29Z</time>
      </trkpt>
      <trkpt lat="41.0232650" lon="-3.5540450">
        <ele>1059.0</ele>
        <time>2020-09-29T11:07:30Z</time>
      </trkpt>
      <trkpt lat="41.0233170" lon="-3.5539820">
        <ele>1059.0</ele>
        <time>2020-09-29T11:07:31Z</time>
      </trkpt>
      <trkpt lat="41.0233170" lon="-3.5539820">
        <ele>1059.0</ele>
        <time>2020-09-29T11:07:32Z</time>
      </trkpt>
      <trkpt lat="41.0234200" lon="-3.5538600">
        <ele>1059.0</ele>
        <time>2020-09-29T11:07:33Z</time>
      </trkpt>
      <trkpt lat="41.0234720" lon="-3.5538000">
        <ele>1059.0</ele>
        <time>2020-09-29T11:07:34Z</time>
      </trkpt>
      <trkpt lat="41.0234720" lon="-3.5538000">
        <ele>1059.0</ele>
        <time>2020-09-29T11:07:35Z</time>
      </trkpt>
      <trkpt lat="41.0235750" lon="-3.5536830">
        <ele>1059.0</ele>
        <time>2020-09-29T11:07:36Z</time>
      </trkpt>
      <trkpt lat="41.0235750" lon="-3.5536830">
        <ele>1059.0</ele>
        <time>2020-09-29T11:07:37Z</time>
      </trkpt>
      <trkpt lat="41.0236770" lon="-3.5535730">
        <ele>1059.0</ele>
        <time>2020-09-29T11:07:38Z</time>
      </trkpt>
      <trkpt lat="41.0236770" lon="-3.5535730">
        <ele>1059.0</ele>
        <time>2020-09-29T11:07:39Z</time>
      </trkpt>
      <trkpt lat="41.0237750" lon="-3.5534730">
        <ele>1059.0</ele>
        <time>2020-09-29T11:07:40Z</time>
      </trkpt>
      <trkpt lat="41.0238250" lon="-3.5534270">
        <ele>1059.0</ele>
        <time>2020-09-29T11:07:41Z</time>
      </trkpt>
      <trkpt lat="41.0238250" lon="-3.5534270">
        <ele>1059.0</ele>
        <time>2020-09-29T11:07:42Z</time>
      </trkpt>
      <trkpt lat="41.0239250" lon="-3.5533470">
        <ele>1059.0</ele>
        <time>2020-09-29T11:07:43Z</time>
      </trkpt>
      <trkpt lat="41.0239780" lon="-3.5533100">
        <ele>1059.0</ele>
        <time>2020-09-29T11:07:44Z</time>
      </trkpt>
      <trkpt lat="41.0240300" lon="-3.5532750">
        <ele>1059.0</ele>
        <time>2020-09-29T11:07:45Z</time>
      </trkpt>
      <trkpt lat="41.0240300" lon="-3.5532750">
        <ele>1059.0</ele>
        <time>2020-09-29T11:07:46Z</time>
      </trkpt>
      <trkpt lat="41.0241280" lon="-3.5532070">
        <ele>1059.0</ele>
        <time>2020-09-29T11:07:47Z</time>
      </trkpt>
      <trkpt lat="41.0241780" lon="-3.5531720">
        <ele>1059.0</ele>
        <time>2020-09-29T11:07:48Z</time>
      </trkpt>
      <trkpt lat="41.0241780" lon="-3.5531720">
        <ele>1059.0</ele>
        <time>2020-09-29T11:07:49Z</time>
      </trkpt>
      <trkpt lat="41.0242800" lon="-3.5531130">
        <ele>1060.0</ele>
        <time>2020-09-29T11:07:50Z</time>
      </trkpt>
      <trkpt lat="41.0242800" lon="-3.5531130">
        <ele>1060.0</ele>
        <time>2020-09-29T11:07:51Z</time>
      </trkpt>
      <trkpt lat="41.0243800" lon="-3.5530530">
        <ele>1060.0</ele>
        <time>2020-09-29T11:07:52Z</time>
      </trkpt>
      <trkpt lat="41.0243800" lon="-3.5530530">
        <ele>1060.0</ele>
        <time>2020-09-29T11:07:53Z</time>
      </trkpt>
      <trkpt lat="41.0244800" lon="-3.5529880">
        <ele>1061.0</ele>
        <time>2020-09-29T11:07:54Z</time>
      </trkpt>
      <trkpt lat="41.0244800" lon="-3.5529880">
        <ele>1061.0</ele>
        <time>2020-09-29T11:07:55Z</time>
      </trkpt>
      <trkpt lat="41.0245820" lon="-3.5529220">
        <ele>1061.0</ele>
        <time>2020-09-29T11:07:56Z</time>
      </trkpt>
      <trkpt lat="41.0246330" lon="-3.5528870">
        <ele>1061.0</ele>
        <time>2020-09-29T11:07:57Z</time>
      </trkpt>
      <trkpt lat="41.0246330" lon="-3.5528870">
        <ele>1061.0</ele>
        <time>2020-09-29T11:07:58Z</time>
      </trkpt>
      <trkpt lat="41.0247320" lon="-3.5528250">
        <ele>1061.0</ele>
        <time>2020-09-29T11:07:59Z</time>
      </trkpt>
      <trkpt lat="41.0247320" lon="-3.5528250">
        <ele>1062.0</ele>
        <time>2020-09-29T11:08:00Z</time>
      </trkpt>
      <trkpt lat="41.0248300" lon="-3.5527550">
        <ele>1062.0</ele>
        <time>2020-09-29T11:08:01Z</time>
      </trkpt>
      <trkpt lat="41.0248300" lon="-3.5527550">
        <ele>1062.0</ele>
        <time>2020-09-29T11:08:02Z</time>
      </trkpt>
      <trkpt lat="41.0249230" lon="-3.5526820">
        <ele>1062.0</ele>
        <time>2020-09-29T11:08:03Z</time>
      </trkpt>
      <trkpt lat="41.0249230" lon="-3.5526820">
        <ele>1062.0</ele>
        <time>2020-09-29T11:08:04Z</time>
      </trkpt>
      <trkpt lat="41.0250080" lon="-3.5525920">
        <ele>1063.0</ele>
        <time>2020-09-29T11:08:05Z</time>
      </trkpt>
      <trkpt lat="41.0250080" lon="-3.5525920">
        <ele>1063.0</ele>
        <time>2020-09-29T11:08:06Z</time>
      </trkpt>
      <trkpt lat="41.0250880" lon="-3.5524870">
        <ele>1063.0</ele>
        <time>2020-09-29T11:08:07Z</time>
      </trkpt>
      <trkpt lat="41.0250880" lon="-3.5524870">
        <ele>1063.0</ele>
        <time>2020-09-29T11:08:08Z</time>
      </trkpt>
      <trkpt lat="41.0251730" lon="-3.5523780">
        <ele>1063.0</ele>
        <time>2020-09-29T11:08:09Z</time>
      </trkpt>
      <trkpt lat="41.0252130" lon="-3.5523230">
        <ele>1063.0</ele>
        <time>2020-09-29T11:08:10Z</time>
      </trkpt>
      <trkpt lat="41.0252530" lon="-3.5522670">
        <ele>1063.0</ele>
        <time>2020-09-29T11:08:11Z</time>
      </trkpt>
      <trkpt lat="41.0252530" lon="-3.5522670">
        <ele>1063.0</ele>
        <time>2020-09-29T11:08:12Z</time>
      </trkpt>
      <trkpt lat="41.0253370" lon="-3.5521520">
        <ele>1063.0</ele>
        <time>2020-09-29T11:08:13Z</time>
      </trkpt>
      <trkpt lat="41.0253370" lon="-3.5521520">
        <ele>1063.0</ele>
        <time>2020-09-29T11:08:14Z</time>
      </trkpt>
      <trkpt lat="41.0254180" lon="-3.5520350">
        <ele>1063.0</ele>
        <time>2020-09-29T11:08:15Z</time>
      </trkpt>
      <trkpt lat="41.0254180" lon="-3.5520350">
        <ele>1063.0</ele>
        <time>2020-09-29T11:08:16Z</time>
      </trkpt>
      <trkpt lat="41.0254180" lon="-3.5520350">
        <ele>1063.0</ele>
        <time>2020-09-29T11:08:17Z</time>
      </trkpt>
      <trkpt lat="41.0255020" lon="-3.5519150">
        <ele>1063.0</ele>
        <time>2020-09-29T11:08:18Z</time>
      </trkpt>
      <trkpt lat="41.0255830" lon="-3.5517950">
        <ele>1063.0</ele>
        <time>2020-09-29T11:08:19Z</time>
      </trkpt>
      <trkpt lat="41.0256230" lon="-3.5517400">
        <ele>1063.0</ele>
        <time>2020-09-29T11:08:20Z</time>
      </trkpt>
      <trkpt lat="41.0256230" lon="-3.5517400">
        <ele>1063.0</ele>
        <time>2020-09-29T11:08:21Z</time>
      </trkpt>
      <trkpt lat="41.0257070" lon="-3.5516230">
        <ele>1063.0</ele>
        <time>2020-09-29T11:08:22Z</time>
      </trkpt>
      <trkpt lat="41.0257070" lon="-3.5516230">
        <ele>1063.0</ele>
        <time>2020-09-29T11:08:23Z</time>
      </trkpt>
      <trkpt lat="41.0257880" lon="-3.5515070">
        <ele>1063.0</ele>
        <time>2020-09-29T11:08:24Z</time>
      </trkpt>
      <trkpt lat="41.0257880" lon="-3.5515070">
        <ele>1063.0</ele>
        <time>2020-09-29T11:08:25Z</time>
      </trkpt>
      <trkpt lat="41.0258680" lon="-3.5513880">
        <ele>1063.0</ele>
        <time>2020-09-29T11:08:26Z</time>
      </trkpt>
      <trkpt lat="41.0258680" lon="-3.5513880">
        <ele>1063.0</ele>
        <time>2020-09-29T11:08:27Z</time>
      </trkpt>
      <trkpt lat="41.0259470" lon="-3.5512670">
        <ele>1063.0</ele>
        <time>2020-09-29T11:08:28Z</time>
      </trkpt>
      <trkpt lat="41.0259470" lon="-3.5512670">
        <ele>1064.0</ele>
        <time>2020-09-29T11:08:29Z</time>
      </trkpt>
      <trkpt lat="41.0260250" lon="-3.5511500">
        <ele>1064.0</ele>
        <time>2020-09-29T11:08:30Z</time>
      </trkpt>
      <trkpt lat="41.0260670" lon="-3.5510970">
        <ele>1064.0</ele>
        <time>2020-09-29T11:08:31Z</time>
      </trkpt>
      <trkpt lat="41.0260670" lon="-3.5510970">
        <ele>1064.0</ele>
        <time>2020-09-29T11:08:32Z</time>
      </trkpt>
      <trkpt lat="41.0261570" lon="-3.5510100">
        <ele>1065.0</ele>
        <time>2020-09-29T11:08:33Z</time>
      </trkpt>
      <trkpt lat="41.0262070" lon="-3.5509750">
        <ele>1065.0</ele>
        <time>2020-09-29T11:08:34Z</time>
      </trkpt>
      <trkpt lat="41.0262070" lon="-3.5509750">
        <ele>1065.0</ele>
        <time>2020-09-29T11:08:35Z</time>
      </trkpt>
      <trkpt lat="41.0263130" lon="-3.5509120">
        <ele>1065.0</ele>
        <time>2020-09-29T11:08:36Z</time>
      </trkpt>
      <trkpt lat="41.0263680" lon="-3.5508850">
        <ele>1065.0</ele>
        <time>2020-09-29T11:08:37Z</time>
      </trkpt>
      <trkpt lat="41.0263680" lon="-3.5508850">
        <ele>1065.0</ele>
        <time>2020-09-29T11:08:38Z</time>
      </trkpt>
      <trkpt lat="41.0264830" lon="-3.5508380">
        <ele>1065.0</ele>
        <time>2020-09-29T11:08:39Z</time>
      </trkpt>
      <trkpt lat="41.0265420" lon="-3.5508170">
        <ele>1065.0</ele>
        <time>2020-09-29T11:08:40Z</time>
      </trkpt>
      <trkpt lat="41.0266000" lon="-3.5507930">
        <ele>1066.0</ele>
        <time>2020-09-29T11:08:41Z</time>
      </trkpt>
      <trkpt lat="41.0266000" lon="-3.5507930">
        <ele>1066.0</ele>
        <time>2020-09-29T11:08:42Z</time>
      </trkpt>
      <trkpt lat="41.0267120" lon="-3.5507550">
        <ele>1066.0</ele>
        <time>2020-09-29T11:08:43Z</time>
      </trkpt>
      <trkpt lat="41.0267650" lon="-3.5507370">
        <ele>1066.0</ele>
        <time>2020-09-29T11:08:44Z</time>
      </trkpt>
      <trkpt lat="41.0267650" lon="-3.5507370">
        <ele>1066.0</ele>
        <time>2020-09-29T11:08:45Z</time>
      </trkpt>
      <trkpt lat="41.0268770" lon="-3.5507000">
        <ele>1067.0</ele>
        <time>2020-09-29T11:08:46Z</time>
      </trkpt>
      <trkpt lat="41.0269330" lon="-3.5506830">
        <ele>1067.0</ele>
        <time>2020-09-29T11:08:47Z</time>
      </trkpt>
      <trkpt lat="41.0269330" lon="-3.5506830">
        <ele>1067.0</ele>
        <time>2020-09-29T11:08:48Z</time>
      </trkpt>
      <trkpt lat="41.0269330" lon="-3.5506830">
        <ele>1067.0</ele>
        <time>2020-09-29T11:08:49Z</time>
      </trkpt>
      <trkpt lat="41.0270480" lon="-3.5506470">
        <ele>1067.0</ele>
        <time>2020-09-29T11:08:50Z</time>
      </trkpt>
      <trkpt lat="41.0271620" lon="-3.5506100">
        <ele>1067.0</ele>
        <time>2020-09-29T11:08:51Z</time>
      </trkpt>
      <trkpt lat="41.0272170" lon="-3.5505900">
        <ele>1067.0</ele>
        <time>2020-09-29T11:08:52Z</time>
      </trkpt>
      <trkpt lat="41.0272170" lon="-3.5505900">
        <ele>1067.0</ele>
        <time>2020-09-29T11:08:53Z</time>
      </trkpt>
      <trkpt lat="41.0273270" lon="-3.5505500">
        <ele>1068.0</ele>
        <time>2020-09-29T11:08:54Z</time>
      </trkpt>
      <trkpt lat="41.0273820" lon="-3.5505320">
        <ele>1068.0</ele>
        <time>2020-09-29T11:08:55Z</time>
      </trkpt>
      <trkpt lat="41.0273820" lon="-3.5505320">
        <ele>1068.0</ele>
        <time>2020-09-29T11:08:56Z</time>
      </trkpt>
      <trkpt lat="41.0274920" lon="-3.5504880">
        <ele>1068.0</ele>
        <time>2020-09-29T11:08:57Z</time>
      </trkpt>
      <trkpt lat="41.0275450" lon="-3.5504700">
        <ele>1068.0</ele>
        <time>2020-09-29T11:08:58Z</time>
      </trkpt>
      <trkpt lat="41.0275980" lon="-3.5504520">
        <ele>1068.0</ele>
        <time>2020-09-29T11:08:59Z</time>
      </trkpt>
      <trkpt lat="41.0275980" lon="-3.5504520">
        <ele>1069.0</ele>
        <time>2020-09-29T11:09:00Z</time>
      </trkpt>
      <trkpt lat="41.0277020" lon="-3.5504200">
        <ele>1069.0</ele>
        <time>2020-09-29T11:09:01Z</time>
      </trkpt>
      <trkpt lat="41.0277020" lon="-3.5504200">
        <ele>1069.0</ele>
        <time>2020-09-29T11:09:02Z</time>
      </trkpt>
      <trkpt lat="41.0278080" lon="-3.5503800">
        <ele>1069.0</ele>
        <time>2020-09-29T11:09:03Z</time>
      </trkpt>
      <trkpt lat="41.0278600" lon="-3.5503620">
        <ele>1069.0</ele>
        <time>2020-09-29T11:09:04Z</time>
      </trkpt>
      <trkpt lat="41.0278600" lon="-3.5503620">
        <ele>1069.0</ele>
        <time>2020-09-29T11:09:05Z</time>
      </trkpt>
      <trkpt lat="41.0279680" lon="-3.5503300">
        <ele>1070.0</ele>
        <time>2020-09-29T11:09:06Z</time>
      </trkpt>
      <trkpt lat="41.0280220" lon="-3.5503080">
        <ele>1070.0</ele>
        <time>2020-09-29T11:09:07Z</time>
      </trkpt>
      <trkpt lat="41.0280220" lon="-3.5503080">
        <ele>1070.0</ele>
        <time>2020-09-29T11:09:08Z</time>
      </trkpt>
      <trkpt lat="41.0281330" lon="-3.5502680">
        <ele>1070.0</ele>
        <time>2020-09-29T11:09:09Z</time>
      </trkpt>
      <trkpt lat="41.0281920" lon="-3.5502470">
        <ele>1069.0</ele>
        <time>2020-09-29T11:09:10Z</time>
      </trkpt>
      <trkpt lat="41.0281920" lon="-3.5502470">
        <ele>1067.0</ele>
        <time>2020-09-29T11:09:11Z</time>
      </trkpt>
      <trkpt lat="41.0283080" lon="-3.5502080">
        <ele>1067.0</ele>
        <time>2020-09-29T11:09:12Z</time>
      </trkpt>
      <trkpt lat="41.0283670" lon="-3.5501880">
        <ele>1067.0</ele>
        <time>2020-09-29T11:09:13Z</time>
      </trkpt>
      <trkpt lat="41.0283670" lon="-3.5501880">
        <ele>1069.0</ele>
        <time>2020-09-29T11:09:14Z</time>
      </trkpt>
      <trkpt lat="41.0284850" lon="-3.5501450">
        <ele>1070.0</ele>
        <time>2020-09-29T11:09:15Z</time>
      </trkpt>
      <trkpt lat="41.0284850" lon="-3.5501450">
        <ele>1070.0</ele>
        <time>2020-09-29T11:09:16Z</time>
      </trkpt>
      <trkpt lat="41.0286070" lon="-3.5501000">
        <ele>1070.0</ele>
        <time>2020-09-29T11:09:17Z</time>
      </trkpt>
      <trkpt lat="41.0286070" lon="-3.5501000">
        <ele>1070.0</ele>
        <time>2020-09-29T11:09:18Z</time>
      </trkpt>
      <trkpt lat="41.0287330" lon="-3.5500530">
        <ele>1070.0</ele>
        <time>2020-09-29T11:09:19Z</time>
      </trkpt>
      <trkpt lat="41.0287970" lon="-3.5500320">
        <ele>1070.0</ele>
        <time>2020-09-29T11:09:20Z</time>
      </trkpt>
      <trkpt lat="41.0287970" lon="-3.5500320">
        <ele>1070.0</ele>
        <time>2020-09-29T11:09:21Z</time>
      </trkpt>
      <trkpt lat="41.0289180" lon="-3.5499920">
        <ele>1070.0</ele>
        <time>2020-09-29T11:09:22Z</time>
      </trkpt>
      <trkpt lat="41.0289180" lon="-3.5499920">
        <ele>1070.0</ele>
        <time>2020-09-29T11:09:23Z</time>
      </trkpt>
      <trkpt lat="41.0290420" lon="-3.5499500">
        <ele>1070.0</ele>
        <time>2020-09-29T11:09:24Z</time>
      </trkpt>
      <trkpt lat="41.0291020" lon="-3.5499270">
        <ele>1070.0</ele>
        <time>2020-09-29T11:09:25Z</time>
      </trkpt>
      <trkpt lat="41.0291020" lon="-3.5499270">
        <ele>1070.0</ele>
        <time>2020-09-29T11:09:26Z</time>
      </trkpt>
      <trkpt lat="41.0292200" lon="-3.5498770">
        <ele>1070.0</ele>
        <time>2020-09-29T11:09:27Z</time>
      </trkpt>
      <trkpt lat="41.0292200" lon="-3.5498770">
        <ele>1070.0</ele>
        <time>2020-09-29T11:09:28Z</time>
      </trkpt>
      <trkpt lat="41.0293350" lon="-3.5498180">
        <ele>1070.0</ele>
        <time>2020-09-29T11:09:29Z</time>
      </trkpt>
      <trkpt lat="41.0293350" lon="-3.5498180">
        <ele>1070.0</ele>
        <time>2020-09-29T11:09:30Z</time>
      </trkpt>
      <trkpt lat="41.0294470" lon="-3.5497670">
        <ele>1071.0</ele>
        <time>2020-09-29T11:09:31Z</time>
      </trkpt>
      <trkpt lat="41.0294470" lon="-3.5497670">
        <ele>1071.0</ele>
        <time>2020-09-29T11:09:32Z</time>
      </trkpt>
      <trkpt lat="41.0295550" lon="-3.5497150">
        <ele>1071.0</ele>
        <time>2020-09-29T11:09:33Z</time>
      </trkpt>
      <trkpt lat="41.0295550" lon="-3.5497150">
        <ele>1071.0</ele>
        <time>2020-09-29T11:09:34Z</time>
      </trkpt>
      <trkpt lat="41.0296670" lon="-3.5496500">
        <ele>1072.0</ele>
        <time>2020-09-29T11:09:35Z</time>
      </trkpt>
      <trkpt lat="41.0297180" lon="-3.5496200">
        <ele>1072.0</ele>
        <time>2020-09-29T11:09:36Z</time>
      </trkpt>
      <trkpt lat="41.0297180" lon="-3.5496200">
        <ele>1072.0</ele>
        <time>2020-09-29T11:09:37Z</time>
      </trkpt>
      <trkpt lat="41.0298220" lon="-3.5495520">
        <ele>1072.0</ele>
        <time>2020-09-29T11:09:38Z</time>
      </trkpt>
      <trkpt lat="41.0298720" lon="-3.5495120">
        <ele>1072.0</ele>
        <time>2020-09-29T11:09:39Z</time>
      </trkpt>
      <trkpt lat="41.0298720" lon="-3.5495120">
        <ele>1072.0</ele>
        <time>2020-09-29T11:09:40Z</time>
      </trkpt>
      <trkpt lat="41.0299670" lon="-3.5494270">
        <ele>1072.0</ele>
        <time>2020-09-29T11:09:41Z</time>
      </trkpt>
      <trkpt lat="41.0300130" lon="-3.5493750">
        <ele>1072.0</ele>
        <time>2020-09-29T11:09:42Z</time>
      </trkpt>
      <trkpt lat="41.0300130" lon="-3.5493750">
        <ele>1072.0</ele>
        <time>2020-09-29T11:09:43Z</time>
      </trkpt>
      <trkpt lat="41.0301020" lon="-3.5492750">
        <ele>1072.0</ele>
        <time>2020-09-29T11:09:44Z</time>
      </trkpt>
      <trkpt lat="41.0301430" lon="-3.5492250">
        <ele>1072.0</ele>
        <time>2020-09-29T11:09:45Z</time>
      </trkpt>
      <trkpt lat="41.0301430" lon="-3.5492250">
        <ele>1073.0</ele>
        <time>2020-09-29T11:09:46Z</time>
      </trkpt>
      <trkpt lat="41.0302250" lon="-3.5491220">
        <ele>1073.0</ele>
        <time>2020-09-29T11:09:47Z</time>
      </trkpt>
      <trkpt lat="41.0302650" lon="-3.5490730">
        <ele>1073.0</ele>
        <time>2020-09-29T11:09:48Z</time>
      </trkpt>
      <trkpt lat="41.0303050" lon="-3.5490280">
        <ele>1073.0</ele>
        <time>2020-09-29T11:09:49Z</time>
      </trkpt>
      <trkpt lat="41.0303050" lon="-3.5490280">
        <ele>1073.0</ele>
        <time>2020-09-29T11:09:50Z</time>
      </trkpt>
      <trkpt lat="41.0303870" lon="-3.5489320">
        <ele>1073.0</ele>
        <time>2020-09-29T11:09:51Z</time>
      </trkpt>
      <trkpt lat="41.0304270" lon="-3.5488830">
        <ele>1073.0</ele>
        <time>2020-09-29T11:09:52Z</time>
      </trkpt>
      <trkpt lat="41.0304720" lon="-3.5488330">
        <ele>1074.0</ele>
        <time>2020-09-29T11:09:53Z</time>
      </trkpt>
      <trkpt lat="41.0304720" lon="-3.5488330">
        <ele>1074.0</ele>
        <time>2020-09-29T11:09:54Z</time>
      </trkpt>
      <trkpt lat="41.0305620" lon="-3.5487430">
        <ele>1074.0</ele>
        <time>2020-09-29T11:09:55Z</time>
      </trkpt>
      <trkpt lat="41.0306070" lon="-3.5487050">
        <ele>1075.0</ele>
        <time>2020-09-29T11:09:56Z</time>
      </trkpt>
      <trkpt lat="41.0306070" lon="-3.5487050">
        <ele>1075.0</ele>
        <time>2020-09-29T11:09:57Z</time>
      </trkpt>
      <trkpt lat="41.0307100" lon="-3.5486600">
        <ele>1075.0</ele>
        <time>2020-09-29T11:09:58Z</time>
      </trkpt>
      <trkpt lat="41.0307620" lon="-3.5486480">
        <ele>1075.0</ele>
        <time>2020-09-29T11:09:59Z</time>
      </trkpt>
      <trkpt lat="41.0307620" lon="-3.5486480">
        <ele>1075.0</ele>
        <time>2020-09-29T11:10:00Z</time>
      </trkpt>
      <trkpt lat="41.0308680" lon="-3.5486370">
        <ele>1075.0</ele>
        <time>2020-09-29T11:10:01Z</time>
      </trkpt>
      <trkpt lat="41.0308680" lon="-3.5486370">
        <ele>1075.0</ele>
        <time>2020-09-29T11:10:02Z</time>
      </trkpt>
      <trkpt lat="41.0309950" lon="-3.5486370">
        <ele>1075.0</ele>
        <time>2020-09-29T11:10:03Z</time>
      </trkpt>
      <trkpt lat="41.0309950" lon="-3.5486370">
        <ele>1075.0</ele>
        <time>2020-09-29T11:10:04Z</time>
      </trkpt>
      <trkpt lat="41.0309950" lon="-3.5486370">
        <ele>1075.0</ele>
        <time>2020-09-29T11:10:05Z</time>
      </trkpt>
      <trkpt lat="41.0311400" lon="-3.5486200">
        <ele>1075.0</ele>
        <time>2020-09-29T11:10:06Z</time>
      </trkpt>
      <trkpt lat="41.0312930" lon="-3.5485930">
        <ele>1075.0</ele>
        <time>2020-09-29T11:10:07Z</time>
      </trkpt>
      <trkpt lat="41.0313680" lon="-3.5485600">
        <ele>1074.0</ele>
        <time>2020-09-29T11:10:08Z</time>
      </trkpt>
      <trkpt lat="41.0313680" lon="-3.5485600">
        <ele>1074.0</ele>
        <time>2020-09-29T11:10:09Z</time>
      </trkpt>
      <trkpt lat="41.0315220" lon="-3.5484430">
        <ele>1073.0</ele>
        <time>2020-09-29T11:10:10Z</time>
      </trkpt>
      <trkpt lat="41.0315220" lon="-3.5484430">
        <ele>1073.0</ele>
        <time>2020-09-29T11:10:11Z</time>
      </trkpt>
      <trkpt lat="41.0316800" lon="-3.5483030">
        <ele>1072.0</ele>
        <time>2020-09-29T11:10:12Z</time>
      </trkpt>
      <trkpt lat="41.0317630" lon="-3.5482330">
        <ele>1072.0</ele>
        <time>2020-09-29T11:10:13Z</time>
      </trkpt>
      <trkpt lat="41.0317630" lon="-3.5482330">
        <ele>1070.0</ele>
        <time>2020-09-29T11:10:14Z</time>
      </trkpt>
      <trkpt lat="41.0319430" lon="-3.5481050">
        <ele>1070.0</ele>
        <time>2020-09-29T11:10:15Z</time>
      </trkpt>
      <trkpt lat="41.0319430" lon="-3.5481050">
        <ele>1069.0</ele>
        <time>2020-09-29T11:10:16Z</time>
      </trkpt>
      <trkpt lat="41.0321420" lon="-3.5480100">
        <ele>1069.0</ele>
        <time>2020-09-29T11:10:17Z</time>
      </trkpt>
      <trkpt lat="41.0321420" lon="-3.5480100">
        <ele>1068.0</ele>
        <time>2020-09-29T11:10:18Z</time>
      </trkpt>
      <trkpt lat="41.0322470" lon="-3.5479780">
        <ele>1068.0</ele>
        <time>2020-09-29T11:10:19Z</time>
      </trkpt>
      <trkpt lat="41.0324630" lon="-3.5479100">
        <ele>1067.0</ele>
        <time>2020-09-29T11:10:20Z</time>
      </trkpt>
      <trkpt lat="41.0324630" lon="-3.5479100">
        <ele>1067.0</ele>
        <time>2020-09-29T11:10:21Z</time>
      </trkpt>
      <trkpt lat="41.0326730" lon="-3.5478180">
        <ele>1065.0</ele>
        <time>2020-09-29T11:10:22Z</time>
      </trkpt>
      <trkpt lat="41.0326730" lon="-3.5478180">
        <ele>1064.0</ele>
        <time>2020-09-29T11:10:23Z</time>
      </trkpt>
      <trkpt lat="41.0328570" lon="-3.5476280">
        <ele>1064.0</ele>
        <time>2020-09-29T11:10:24Z</time>
      </trkpt>
      <trkpt lat="41.0329370" lon="-3.5475070">
        <ele>1063.0</ele>
        <time>2020-09-29T11:10:25Z</time>
      </trkpt>
      <trkpt lat="41.0329370" lon="-3.5475070">
        <ele>1063.0</ele>
        <time>2020-09-29T11:10:26Z</time>
      </trkpt>
      <trkpt lat="41.0330820" lon="-3.5472380">
        <ele>1061.0</ele>
        <time>2020-09-29T11:10:27Z</time>
      </trkpt>
      <trkpt lat="41.0331330" lon="-3.5470830">
        <ele>1061.0</ele>
        <time>2020-09-29T11:10:28Z</time>
      </trkpt>
      <trkpt lat="41.0331330" lon="-3.5470830">
        <ele>1060.0</ele>
        <time>2020-09-29T11:10:29Z</time>
      </trkpt>
      <trkpt lat="41.0331880" lon="-3.5467500">
        <ele>1060.0</ele>
        <time>2020-09-29T11:10:30Z</time>
      </trkpt>
      <trkpt lat="41.0331880" lon="-3.5467500">
        <ele>1058.0</ele>
        <time>2020-09-29T11:10:31Z</time>
      </trkpt>
      <trkpt lat="41.0332320" lon="-3.5464100">
        <ele>1058.0</ele>
        <time>2020-09-29T11:10:32Z</time>
      </trkpt>
      <trkpt lat="41.0332550" lon="-3.5462420">
        <ele>1056.0</ele>
        <time>2020-09-29T11:10:33Z</time>
      </trkpt>
      <trkpt lat="41.0332550" lon="-3.5462420">
        <ele>1056.0</ele>
        <time>2020-09-29T11:10:34Z</time>
      </trkpt>
      <trkpt lat="41.0333020" lon="-3.5459020">
        <ele>1054.0</ele>
        <time>2020-09-29T11:10:35Z</time>
      </trkpt>
      <trkpt lat="41.0333020" lon="-3.5459020">
        <ele>1054.0</ele>
        <time>2020-09-29T11:10:36Z</time>
      </trkpt>
      <trkpt lat="41.0333230" lon="-3.5455780">
        <ele>1053.0</ele>
        <time>2020-09-29T11:10:37Z</time>
      </trkpt>
      <trkpt lat="41.0333230" lon="-3.5455780">
        <ele>1053.0</ele>
        <time>2020-09-29T11:10:38Z</time>
      </trkpt>
      <trkpt lat="41.0332570" lon="-3.5453020">
        <ele>1051.0</ele>
        <time>2020-09-29T11:10:39Z</time>
      </trkpt>
      <trkpt lat="41.0332570" lon="-3.5453020">
        <ele>1051.0</ele>
        <time>2020-09-29T11:10:40Z</time>
      </trkpt>
      <trkpt lat="41.0331970" lon="-3.5450380">
        <ele>1050.0</ele>
        <time>2020-09-29T11:10:41Z</time>
      </trkpt>
      <trkpt lat="41.0331970" lon="-3.5450380">
        <ele>1050.0</ele>
        <time>2020-09-29T11:10:42Z</time>
      </trkpt>
      <trkpt lat="41.0332330" lon="-3.5447780">
        <ele>1048.0</ele>
        <time>2020-09-29T11:10:43Z</time>
      </trkpt>
      <trkpt lat="41.0332330" lon="-3.5447780">
        <ele>1048.0</ele>
        <time>2020-09-29T11:10:44Z</time>
      </trkpt>
      <trkpt lat="41.0333830" lon="-3.5446430">
        <ele>1047.0</ele>
        <time>2020-09-29T11:10:45Z</time>
      </trkpt>
      <trkpt lat="41.0333830" lon="-3.5446430">
        <ele>1047.0</ele>
        <time>2020-09-29T11:10:46Z</time>
      </trkpt>
      <trkpt lat="41.0335550" lon="-3.5446280">
        <ele>1047.0</ele>
        <time>2020-09-29T11:10:47Z</time>
      </trkpt>
      <trkpt lat="41.0335550" lon="-3.5446280">
        <ele>1047.0</ele>
        <time>2020-09-29T11:10:48Z</time>
      </trkpt>
      <trkpt lat="41.0337130" lon="-3.5446470">
        <ele>1047.0</ele>
        <time>2020-09-29T11:10:49Z</time>
      </trkpt>
      <trkpt lat="41.0337130" lon="-3.5446470">
        <ele>1047.0</ele>
        <time>2020-09-29T11:10:50Z</time>
      </trkpt>
      <trkpt lat="41.0338720" lon="-3.5446570">
        <ele>1046.0</ele>
        <time>2020-09-29T11:10:51Z</time>
      </trkpt>
      <trkpt lat="41.0339500" lon="-3.5446580">
        <ele>1046.0</ele>
        <time>2020-09-29T11:10:52Z</time>
      </trkpt>
      <trkpt lat="41.0339500" lon="-3.5446580">
        <ele>1046.0</ele>
        <time>2020-09-29T11:10:53Z</time>
      </trkpt>
      <trkpt lat="41.0339500" lon="-3.5446580">
        <ele>1046.0</ele>
        <time>2020-09-29T11:10:54Z</time>
      </trkpt>
      <trkpt lat="41.0341830" lon="-3.5446480">
        <ele>1046.0</ele>
        <time>2020-09-29T11:10:55Z</time>
      </trkpt>
      <trkpt lat="41.0342600" lon="-3.5446280">
        <ele>1046.0</ele>
        <time>2020-09-29T11:10:56Z</time>
      </trkpt>
      <trkpt lat="41.0342600" lon="-3.5446280">
        <ele>1046.0</ele>
        <time>2020-09-29T11:10:57Z</time>
      </trkpt>
      <trkpt lat="41.0343920" lon="-3.5445200">
        <ele>1046.0</ele>
        <time>2020-09-29T11:10:58Z</time>
      </trkpt>
      <trkpt lat="41.0343920" lon="-3.5445200">
        <ele>1045.0</ele>
        <time>2020-09-29T11:10:59Z</time>
      </trkpt>
      <trkpt lat="41.0344900" lon="-3.5443230">
        <ele>1045.0</ele>
        <time>2020-09-29T11:11:00Z</time>
      </trkpt>
      <trkpt lat="41.0345330" lon="-3.5442170">
        <ele>1044.0</ele>
        <time>2020-09-29T11:11:01Z</time>
      </trkpt>
      <trkpt lat="41.0345330" lon="-3.5442170">
        <ele>1043.0</ele>
        <time>2020-09-29T11:11:02Z</time>
      </trkpt>
      <trkpt lat="41.0346120" lon="-3.5439930">
        <ele>1043.0</ele>
        <time>2020-09-29T11:11:03Z</time>
      </trkpt>
      <trkpt lat="41.0346120" lon="-3.5439930">
        <ele>1043.0</ele>
        <time>2020-09-29T11:11:04Z</time>
      </trkpt>
      <trkpt lat="41.0346850" lon="-3.5437700">
        <ele>1043.0</ele>
        <time>2020-09-29T11:11:05Z</time>
      </trkpt>
      <trkpt lat="41.0346850" lon="-3.5437700">
        <ele>1042.0</ele>
        <time>2020-09-29T11:11:06Z</time>
      </trkpt>
      <trkpt lat="41.0347730" lon="-3.5435580">
        <ele>1042.0</ele>
        <time>2020-09-29T11:11:07Z</time>
      </trkpt>
      <trkpt lat="41.0347730" lon="-3.5435580">
        <ele>1042.0</ele>
        <time>2020-09-29T11:11:08Z</time>
      </trkpt>
      <trkpt lat="41.0349070" lon="-3.5433930">
        <ele>1042.0</ele>
        <time>2020-09-29T11:11:09Z</time>
      </trkpt>
      <trkpt lat="41.0349070" lon="-3.5433930">
        <ele>1042.0</ele>
        <time>2020-09-29T11:11:10Z</time>
      </trkpt>
      <trkpt lat="41.0350950" lon="-3.5433450">
        <ele>1042.0</ele>
        <time>2020-09-29T11:11:11Z</time>
      </trkpt>
      <trkpt lat="41.0351800" lon="-3.5433780">
        <ele>1042.0</ele>
        <time>2020-09-29T11:11:12Z</time>
      </trkpt>
      <trkpt lat="41.0351800" lon="-3.5433780">
        <ele>1042.0</ele>
        <time>2020-09-29T11:11:13Z</time>
      </trkpt>
      <trkpt lat="41.0353070" lon="-3.5435130">
        <ele>1042.0</ele>
        <time>2020-09-29T11:11:14Z</time>
      </trkpt>
      <trkpt lat="41.0353380" lon="-3.5436020">
        <ele>1042.0</ele>
        <time>2020-09-29T11:11:15Z</time>
      </trkpt>
      <trkpt lat="41.0353380" lon="-3.5436020">
        <ele>1042.0</ele>
        <time>2020-09-29T11:11:16Z</time>
      </trkpt>
      <trkpt lat="41.0353670" lon="-3.5437770">
        <ele>1042.0</ele>
        <time>2020-09-29T11:11:17Z</time>
      </trkpt>
      <trkpt lat="41.0353670" lon="-3.5437770">
        <ele>1042.0</ele>
        <time>2020-09-29T11:11:18Z</time>
      </trkpt>
      <trkpt lat="41.0353530" lon="-3.5439280">
        <ele>1042.0</ele>
        <time>2020-09-29T11:11:19Z</time>
      </trkpt>
      <trkpt lat="41.0353530" lon="-3.5439280">
        <ele>1043.0</ele>
        <time>2020-09-29T11:11:20Z</time>
      </trkpt>
      <trkpt lat="41.0353180" lon="-3.5440570">
        <ele>1043.0</ele>
        <time>2020-09-29T11:11:21Z</time>
      </trkpt>
      <trkpt lat="41.0352970" lon="-3.5441150">
        <ele>1043.0</ele>
        <time>2020-09-29T11:11:22Z</time>
      </trkpt>
      <trkpt lat="41.0352970" lon="-3.5441150">
        <ele>1043.0</ele>
        <time>2020-09-29T11:11:23Z</time>
      </trkpt>
      <trkpt lat="41.0352700" lon="-3.5442320">
        <ele>1043.0</ele>
        <time>2020-09-29T11:11:24Z</time>
      </trkpt>
      <trkpt lat="41.0352630" lon="-3.5442880">
        <ele>1043.0</ele>
        <time>2020-09-29T11:11:25Z</time>
      </trkpt>
      <trkpt lat="41.0352630" lon="-3.5442880">
        <ele>1045.0</ele>
        <time>2020-09-29T11:11:26Z</time>
      </trkpt>
      <trkpt lat="41.0352630" lon="-3.5444030">
        <ele>1045.0</ele>
        <time>2020-09-29T11:11:27Z</time>
      </trkpt>
      <trkpt lat="41.0352630" lon="-3.5444030">
        <ele>1045.0</ele>
        <time>2020-09-29T11:11:28Z</time>
      </trkpt>
      <trkpt lat="41.0352800" lon="-3.5445170">
        <ele>1045.0</ele>
        <time>2020-09-29T11:11:29Z</time>
      </trkpt>
      <trkpt lat="41.0352800" lon="-3.5445170">
        <ele>1045.0</ele>
        <time>2020-09-29T11:11:30Z</time>
      </trkpt>
      <trkpt lat="41.0353030" lon="-3.5446270">
        <ele>1045.0</ele>
        <time>2020-09-29T11:11:31Z</time>
      </trkpt>
      <trkpt lat="41.0353170" lon="-3.5446770">
        <ele>1045.0</ele>
        <time>2020-09-29T11:11:32Z</time>
      </trkpt>
      <trkpt lat="41.0353170" lon="-3.5446770">
        <ele>1045.0</ele>
        <time>2020-09-29T11:11:33Z</time>
      </trkpt>
      <trkpt lat="41.0353470" lon="-3.5447700">
        <ele>1046.0</ele>
        <time>2020-09-29T11:11:34Z</time>
      </trkpt>
      <trkpt lat="41.0353470" lon="-3.5447700">
        <ele>1046.0</ele>
        <time>2020-09-29T11:11:35Z</time>
      </trkpt>
      <trkpt lat="41.0353930" lon="-3.5448300">
        <ele>1046.0</ele>
        <time>2020-09-29T11:11:36Z</time>
      </trkpt>
      <trkpt lat="41.0354200" lon="-3.5448470">
        <ele>1046.0</ele>
        <time>2020-09-29T11:11:37Z</time>
      </trkpt>
      <trkpt lat="41.0354200" lon="-3.5448470">
        <ele>1047.0</ele>
        <time>2020-09-29T11:11:38Z</time>
      </trkpt>
      <trkpt lat="41.0354700" lon="-3.5448620">
        <ele>1047.0</ele>
        <time>2020-09-29T11:11:39Z</time>
      </trkpt>
      <trkpt lat="41.0354700" lon="-3.5448620">
        <ele>1048.0</ele>
        <time>2020-09-29T11:11:40Z</time>
      </trkpt>
      <trkpt lat="41.0355120" lon="-3.5448430">
        <ele>1048.0</ele>
        <time>2020-09-29T11:11:41Z</time>
      </trkpt>
      <trkpt lat="41.0355120" lon="-3.5448430">
        <ele>1049.0</ele>
        <time>2020-09-29T11:11:42Z</time>
      </trkpt>
      <trkpt lat="41.0355420" lon="-3.5447930">
        <ele>1049.0</ele>
        <time>2020-09-29T11:11:43Z</time>
      </trkpt>
      <trkpt lat="41.0355630" lon="-3.5447670">
        <ele>1050.0</ele>
        <time>2020-09-29T11:11:44Z</time>
      </trkpt>
      <trkpt lat="41.0355630" lon="-3.5447670">
        <ele>1050.0</ele>
        <time>2020-09-29T11:11:45Z</time>
      </trkpt>
      <trkpt lat="41.0356030" lon="-3.5447120">
        <ele>1050.0</ele>
        <time>2020-09-29T11:11:46Z</time>
      </trkpt>
      <trkpt lat="41.0356030" lon="-3.5447120">
        <ele>1051.0</ele>
        <time>2020-09-29T11:11:47Z</time>
      </trkpt>
      <trkpt lat="41.0356370" lon="-3.5446520">
        <ele>1051.0</ele>
        <time>2020-09-29T11:11:48Z</time>
      </trkpt>
      <trkpt lat="41.0356550" lon="-3.5446220">
        <ele>1052.0</ele>
        <time>2020-09-29T11:11:49Z</time>
      </trkpt>
      <trkpt lat="41.0356550" lon="-3.5446220">
        <ele>1052.0</ele>
        <time>2020-09-29T11:11:50Z</time>
      </trkpt>
      <trkpt lat="41.0356880" lon="-3.5445650">
        <ele>1052.0</ele>
        <time>2020-09-29T11:11:51Z</time>
      </trkpt>
      <trkpt lat="41.0356880" lon="-3.5445650">
        <ele>1052.0</ele>
        <time>2020-09-29T11:11:52Z</time>
      </trkpt>
      <trkpt lat="41.0357230" lon="-3.5445080">
        <ele>1053.0</ele>
        <time>2020-09-29T11:11:53Z</time>
      </trkpt>
      <trkpt lat="41.0357230" lon="-3.5445080">
        <ele>1053.0</ele>
        <time>2020-09-29T11:11:54Z</time>
      </trkpt>
      <trkpt lat="41.0357530" lon="-3.5444470">
        <ele>1053.0</ele>
        <time>2020-09-29T11:11:55Z</time>
      </trkpt>
      <trkpt lat="41.0357530" lon="-3.5444470">
        <ele>1053.0</ele>
        <time>2020-09-29T11:11:56Z</time>
      </trkpt>
      <trkpt lat="41.0357530" lon="-3.5444470">
        <ele>1054.0</ele>
        <time>2020-09-29T11:11:57Z</time>
      </trkpt>
      <trkpt lat="41.0357820" lon="-3.5443820">
        <ele>1054.0</ele>
        <time>2020-09-29T11:11:58Z</time>
      </trkpt>
      <trkpt lat="41.0358100" lon="-3.5443200">
        <ele>1054.0</ele>
        <time>2020-09-29T11:11:59Z</time>
      </trkpt>
      <trkpt lat="41.0358100" lon="-3.5443200">
        <ele>1054.0</ele>
        <time>2020-09-29T11:12:00Z</time>
      </trkpt>
      <trkpt lat="41.0358420" lon="-3.5442650">
        <ele>1055.0</ele>
        <time>2020-09-29T11:12:01Z</time>
      </trkpt>
      <trkpt lat="41.0358420" lon="-3.5442650">
        <ele>1055.0</ele>
        <time>2020-09-29T11:12:02Z</time>
      </trkpt>
      <trkpt lat="41.0358730" lon="-3.5442050">
        <ele>1055.0</ele>
        <time>2020-09-29T11:12:03Z</time>
      </trkpt>
      <trkpt lat="41.0358870" lon="-3.5441750">
        <ele>1055.0</ele>
        <time>2020-09-29T11:12:04Z</time>
      </trkpt>
      <trkpt lat="41.0358870" lon="-3.5441750">
        <ele>1055.0</ele>
        <time>2020-09-29T11:12:05Z</time>
      </trkpt>
      <trkpt lat="41.0359170" lon="-3.5441130">
        <ele>1055.0</ele>
        <time>2020-09-29T11:12:06Z</time>
      </trkpt>
      <trkpt lat="41.0359300" lon="-3.5440820">
        <ele>1055.0</ele>
        <time>2020-09-29T11:12:07Z</time>
      </trkpt>
      <trkpt lat="41.0359300" lon="-3.5440820">
        <ele>1055.0</ele>
        <time>2020-09-29T11:12:08Z</time>
      </trkpt>
      <trkpt lat="41.0359600" lon="-3.5440180">
        <ele>1056.0</ele>
        <time>2020-09-29T11:12:09Z</time>
      </trkpt>
      <trkpt lat="41.0359600" lon="-3.5440180">
        <ele>1056.0</ele>
        <time>2020-09-29T11:12:10Z</time>
      </trkpt>
      <trkpt lat="41.0359880" lon="-3.5439500">
        <ele>1056.0</ele>
        <time>2020-09-29T11:12:11Z</time>
      </trkpt>
      <trkpt lat="41.0359880" lon="-3.5439500">
        <ele>1056.0</ele>
        <time>2020-09-29T11:12:12Z</time>
      </trkpt>
      <trkpt lat="41.0360150" lon="-3.5438800">
        <ele>1056.0</ele>
        <time>2020-09-29T11:12:13Z</time>
      </trkpt>
      <trkpt lat="41.0360150" lon="-3.5438800">
        <ele>1056.0</ele>
        <time>2020-09-29T11:12:14Z</time>
      </trkpt>
      <trkpt lat="41.0360420" lon="-3.5438120">
        <ele>1056.0</ele>
        <time>2020-09-29T11:12:15Z</time>
      </trkpt>
      <trkpt lat="41.0360420" lon="-3.5438120">
        <ele>1056.0</ele>
        <time>2020-09-29T11:12:16Z</time>
      </trkpt>
      <trkpt lat="41.0360600" lon="-3.5437380">
        <ele>1056.0</ele>
        <time>2020-09-29T11:12:17Z</time>
      </trkpt>
      <trkpt lat="41.0360600" lon="-3.5437380">
        <ele>1057.0</ele>
        <time>2020-09-29T11:12:18Z</time>
      </trkpt>
      <trkpt lat="41.0360800" lon="-3.5436670">
        <ele>1057.0</ele>
        <time>2020-09-29T11:12:19Z</time>
      </trkpt>
      <trkpt lat="41.0360800" lon="-3.5436670">
        <ele>1057.0</ele>
        <time>2020-09-29T11:12:20Z</time>
      </trkpt>
      <trkpt lat="41.0360930" lon="-3.5435900">
        <ele>1057.0</ele>
        <time>2020-09-29T11:12:21Z</time>
      </trkpt>
      <trkpt lat="41.0360930" lon="-3.5435900">
        <ele>1058.0</ele>
        <time>2020-09-29T11:12:22Z</time>
      </trkpt>
      <trkpt lat="41.0361050" lon="-3.5435120">
        <ele>1058.0</ele>
        <time>2020-09-29T11:12:23Z</time>
      </trkpt>
      <trkpt lat="41.0361050" lon="-3.5435120">
        <ele>1058.0</ele>
        <time>2020-09-29T11:12:24Z</time>
      </trkpt>
      <trkpt lat="41.0361080" lon="-3.5434350">
        <ele>1058.0</ele>
        <time>2020-09-29T11:12:25Z</time>
      </trkpt>
      <trkpt lat="41.0361080" lon="-3.5434350">
        <ele>1059.0</ele>
        <time>2020-09-29T11:12:26Z</time>
      </trkpt>
      <trkpt lat="41.0361080" lon="-3.5433550">
        <ele>1059.0</ele>
        <time>2020-09-29T11:12:27Z</time>
      </trkpt>
      <trkpt lat="41.0361080" lon="-3.5433550">
        <ele>1059.0</ele>
        <time>2020-09-29T11:12:28Z</time>
      </trkpt>
      <trkpt lat="41.0361070" lon="-3.5432750">
        <ele>1059.0</ele>
        <time>2020-09-29T11:12:29Z</time>
      </trkpt>
      <trkpt lat="41.0361070" lon="-3.5432750">
        <ele>1060.0</ele>
        <time>2020-09-29T11:12:30Z</time>
      </trkpt>
      <trkpt lat="41.0361050" lon="-3.5431980">
        <ele>1060.0</ele>
        <time>2020-09-29T11:12:31Z</time>
      </trkpt>
      <trkpt lat="41.0361050" lon="-3.5431600">
        <ele>1060.0</ele>
        <time>2020-09-29T11:12:32Z</time>
      </trkpt>
      <trkpt lat="41.0361050" lon="-3.5431600">
        <ele>1060.0</ele>
        <time>2020-09-29T11:12:33Z</time>
      </trkpt>
      <trkpt lat="41.0361100" lon="-3.5430800">
        <ele>1062.0</ele>
        <time>2020-09-29T11:12:34Z</time>
      </trkpt>
      <trkpt lat="41.0361100" lon="-3.5430800">
        <ele>1062.0</ele>
        <time>2020-09-29T11:12:35Z</time>
      </trkpt>
      <trkpt lat="41.0361200" lon="-3.5430050">
        <ele>1063.0</ele>
        <time>2020-09-29T11:12:36Z</time>
      </trkpt>
      <trkpt lat="41.0361200" lon="-3.5430050">
        <ele>1063.0</ele>
        <time>2020-09-29T11:12:37Z</time>
      </trkpt>
      <trkpt lat="41.0361370" lon="-3.5429320">
        <ele>1063.0</ele>
        <time>2020-09-29T11:12:38Z</time>
      </trkpt>
      <trkpt lat="41.0361370" lon="-3.5429320">
        <ele>1063.0</ele>
        <time>2020-09-29T11:12:39Z</time>
      </trkpt>
      <trkpt lat="41.0361600" lon="-3.5428600">
        <ele>1064.0</ele>
        <time>2020-09-29T11:12:40Z</time>
      </trkpt>
      <trkpt lat="41.0361700" lon="-3.5428250">
        <ele>1064.0</ele>
        <time>2020-09-29T11:12:41Z</time>
      </trkpt>
      <trkpt lat="41.0361700" lon="-3.5428250">
        <ele>1064.0</ele>
        <time>2020-09-29T11:12:42Z</time>
      </trkpt>
      <trkpt lat="41.0361950" lon="-3.5427550">
        <ele>1064.0</ele>
        <time>2020-09-29T11:12:43Z</time>
      </trkpt>
      <trkpt lat="41.0361950" lon="-3.5427550">
        <ele>1064.0</ele>
        <time>2020-09-29T11:12:44Z</time>
      </trkpt>
      <trkpt lat="41.0362230" lon="-3.5426880">
        <ele>1065.0</ele>
        <time>2020-09-29T11:12:45Z</time>
      </trkpt>
      <trkpt lat="41.0362380" lon="-3.5426550">
        <ele>1065.0</ele>
        <time>2020-09-29T11:12:46Z</time>
      </trkpt>
      <trkpt lat="41.0362380" lon="-3.5426550">
        <ele>1065.0</ele>
        <time>2020-09-29T11:12:47Z</time>
      </trkpt>
      <trkpt lat="41.0362680" lon="-3.5425880">
        <ele>1065.0</ele>
        <time>2020-09-29T11:12:48Z</time>
      </trkpt>
      <trkpt lat="41.0362680" lon="-3.5425880">
        <ele>1066.0</ele>
        <time>2020-09-29T11:12:49Z</time>
      </trkpt>
      <trkpt lat="41.0362950" lon="-3.5425220">
        <ele>1066.0</ele>
        <time>2020-09-29T11:12:50Z</time>
      </trkpt>
      <trkpt lat="41.0363080" lon="-3.5424880">
        <ele>1066.0</ele>
        <time>2020-09-29T11:12:51Z</time>
      </trkpt>
      <trkpt lat="41.0363080" lon="-3.5424880">
        <ele>1066.0</ele>
        <time>2020-09-29T11:12:52Z</time>
      </trkpt>
      <trkpt lat="41.0363380" lon="-3.5424250">
        <ele>1066.0</ele>
        <time>2020-09-29T11:12:53Z</time>
      </trkpt>
      <trkpt lat="41.0363380" lon="-3.5424250">
        <ele>1066.0</ele>
        <time>2020-09-29T11:12:54Z</time>
      </trkpt>
      <trkpt lat="41.0363730" lon="-3.5423850">
        <ele>1066.0</ele>
        <time>2020-09-29T11:12:55Z</time>
      </trkpt>
      <trkpt lat="41.0363870" lon="-3.5424000">
        <ele>1066.0</ele>
        <time>2020-09-29T11:12:56Z</time>
      </trkpt>
      <trkpt lat="41.0363870" lon="-3.5424000">
        <ele>1067.0</ele>
        <time>2020-09-29T11:12:57Z</time>
      </trkpt>
      <trkpt lat="41.0363680" lon="-3.5424500">
        <ele>1067.0</ele>
        <time>2020-09-29T11:12:58Z</time>
      </trkpt>
      <trkpt lat="41.0363520" lon="-3.5424780">
        <ele>1067.0</ele>
        <time>2020-09-29T11:12:59Z</time>
      </trkpt>
      <trkpt lat="41.0363520" lon="-3.5424780">
        <ele>1067.0</ele>
        <time>2020-09-29T11:13:00Z</time>
      </trkpt>
      <trkpt lat="41.0363320" lon="-3.5425450">
        <ele>1067.0</ele>
        <time>2020-09-29T11:13:01Z</time>
      </trkpt>
      <trkpt lat="41.0363320" lon="-3.5425450">
        <ele>1067.0</ele>
        <time>2020-09-29T11:13:02Z</time>
      </trkpt>
      <trkpt lat="41.0362820" lon="-3.5425580">
        <ele>1067.0</ele>
        <time>2020-09-29T11:13:03Z</time>
      </trkpt>
      <trkpt lat="41.0362820" lon="-3.5425580">
        <ele>1067.0</ele>
        <time>2020-09-29T11:13:04Z</time>
      </trkpt>
      <trkpt lat="41.0362770" lon="-3.5425200">
        <ele>1067.0</ele>
        <time>2020-09-29T11:13:05Z</time>
      </trkpt>
      <trkpt lat="41.0362770" lon="-3.5425200">
        <ele>1067.0</ele>
        <time>2020-09-29T11:13:06Z</time>
      </trkpt>
      <trkpt lat="41.0362830" lon="-3.5424970">
        <ele>1067.0</ele>
        <time>2020-09-29T11:13:07Z</time>
      </trkpt>
      <trkpt lat="41.0362870" lon="-3.5424870">
        <ele>1067.0</ele>
        <time>2020-09-29T11:13:08Z</time>
      </trkpt>
      <trkpt lat="41.0362870" lon="-3.5424870">
        <ele>1067.0</ele>
        <time>2020-09-29T11:13:09Z</time>
      </trkpt>
      <trkpt lat="41.0362870" lon="-3.5424780">
        <ele>1067.0</ele>
        <time>2020-09-29T11:13:10Z</time>
      </trkpt>
      <trkpt lat="41.0362850" lon="-3.5424780">
        <ele>1067.0</ele>
        <time>2020-09-29T11:13:11Z</time>
      </trkpt>
      <trkpt lat="41.0362850" lon="-3.5424780">
        <ele>1067.0</ele>
        <time>2020-09-29T11:14:01Z</time>
      </trkpt>
      <trkpt lat="41.0362850" lon="-3.5424780">
        <ele>1067.0</ele>
        <time>2020-09-29T11:14:02Z</time>
      </trkpt>
      <trkpt lat="41.0363070" lon="-3.5424180">
        <ele>1067.0</ele>
        <time>2020-09-29T11:14:03Z</time>
      </trkpt>
      <trkpt lat="41.0363070" lon="-3.5424180">
        <ele>1067.0</ele>
        <time>2020-09-29T11:14:04Z</time>
      </trkpt>
      <trkpt lat="41.0363180" lon="-3.5423980">
        <ele>1067.0</ele>
        <time>2020-09-29T11:14:05Z</time>
      </trkpt>
      <trkpt lat="41.0363180" lon="-3.5423980">
        <ele>1067.0</ele>
        <time>2020-09-29T11:14:06Z</time>
      </trkpt>
      <trkpt lat="41.0363220" lon="-3.5423820">
        <ele>1067.0</ele>
        <time>2020-09-29T11:14:07Z</time>
      </trkpt>
      <trkpt lat="41.0363220" lon="-3.5423820">
        <ele>1067.0</ele>
        <time>2020-09-29T11:14:08Z</time>
      </trkpt>
      <trkpt lat="41.0363230" lon="-3.5423730">
        <ele>1067.0</ele>
        <time>2020-09-29T11:17:15Z</time>
      </trkpt>
      <trkpt lat="41.0363230" lon="-3.5423730">
        <ele>1067.0</ele>
        <time>2020-09-29T11:17:16Z</time>
      </trkpt>
      <trkpt lat="41.0364050" lon="-3.5422500">
        <ele>1067.0</ele>
        <time>2020-09-29T11:17:17Z</time>
      </trkpt>
      <trkpt lat="41.0364050" lon="-3.5422500">
        <ele>1067.0</ele>
        <time>2020-09-29T11:17:18Z</time>
      </trkpt>
      <trkpt lat="41.0364330" lon="-3.5421800">
        <ele>1067.0</ele>
        <time>2020-09-29T11:17:19Z</time>
      </trkpt>
      <trkpt lat="41.0364330" lon="-3.5421800">
        <ele>1067.0</ele>
        <time>2020-09-29T11:17:20Z</time>
      </trkpt>
      <trkpt lat="41.0364720" lon="-3.5421020">
        <ele>1068.0</ele>
        <time>2020-09-29T11:17:21Z</time>
      </trkpt>
      <trkpt lat="41.0364930" lon="-3.5420630">
        <ele>1068.0</ele>
        <time>2020-09-29T11:17:22Z</time>
      </trkpt>
      <trkpt lat="41.0364930" lon="-3.5420630">
        <ele>1068.0</ele>
        <time>2020-09-29T11:17:23Z</time>
      </trkpt>
      <trkpt lat="41.0365330" lon="-3.5419880">
        <ele>1068.0</ele>
        <time>2020-09-29T11:17:24Z</time>
      </trkpt>
      <trkpt lat="41.0365330" lon="-3.5419880">
        <ele>1068.0</ele>
        <time>2020-09-29T11:17:25Z</time>
      </trkpt>
      <trkpt lat="41.0365680" lon="-3.5419120">
        <ele>1068.0</ele>
        <time>2020-09-29T11:17:26Z</time>
      </trkpt>
      <trkpt lat="41.0365870" lon="-3.5418730">
        <ele>1069.0</ele>
        <time>2020-09-29T11:17:27Z</time>
      </trkpt>
      <trkpt lat="41.0365870" lon="-3.5418730">
        <ele>1069.0</ele>
        <time>2020-09-29T11:17:28Z</time>
      </trkpt>
      <trkpt lat="41.0366230" lon="-3.5417950">
        <ele>1069.0</ele>
        <time>2020-09-29T11:17:29Z</time>
      </trkpt>
      <trkpt lat="41.0366230" lon="-3.5417950">
        <ele>1069.0</ele>
        <time>2020-09-29T11:17:30Z</time>
      </trkpt>
      <trkpt lat="41.0366580" lon="-3.5417180">
        <ele>1069.0</ele>
        <time>2020-09-29T11:17:31Z</time>
      </trkpt>
      <trkpt lat="41.0366580" lon="-3.5417180">
        <ele>1069.0</ele>
        <time>2020-09-29T11:17:32Z</time>
      </trkpt>
      <trkpt lat="41.0366930" lon="-3.5416400">
        <ele>1069.0</ele>
        <time>2020-09-29T11:17:33Z</time>
      </trkpt>
      <trkpt lat="41.0366930" lon="-3.5416400">
        <ele>1070.0</ele>
        <time>2020-09-29T11:17:34Z</time>
      </trkpt>
      <trkpt lat="41.0367300" lon="-3.5415700">
        <ele>1070.0</ele>
        <time>2020-09-29T11:17:35Z</time>
      </trkpt>
      <trkpt lat="41.0367480" lon="-3.5415350">
        <ele>1070.0</ele>
        <time>2020-09-29T11:17:36Z</time>
      </trkpt>
      <trkpt lat="41.0367480" lon="-3.5415350">
        <ele>1070.0</ele>
        <time>2020-09-29T11:17:37Z</time>
      </trkpt>
      <trkpt lat="41.0367830" lon="-3.5414600">
        <ele>1070.0</ele>
        <time>2020-09-29T11:17:38Z</time>
      </trkpt>
      <trkpt lat="41.0367830" lon="-3.5414600">
        <ele>1070.0</ele>
        <time>2020-09-29T11:17:39Z</time>
      </trkpt>
      <trkpt lat="41.0368180" lon="-3.5413870">
        <ele>1071.0</ele>
        <time>2020-09-29T11:17:40Z</time>
      </trkpt>
      <trkpt lat="41.0368370" lon="-3.5413480">
        <ele>1071.0</ele>
        <time>2020-09-29T11:17:41Z</time>
      </trkpt>
      <trkpt lat="41.0368370" lon="-3.5413480">
        <ele>1071.0</ele>
        <time>2020-09-29T11:17:42Z</time>
      </trkpt>
      <trkpt lat="41.0368700" lon="-3.5412730">
        <ele>1071.0</ele>
        <time>2020-09-29T11:17:43Z</time>
      </trkpt>
      <trkpt lat="41.0368700" lon="-3.5412730">
        <ele>1071.0</ele>
        <time>2020-09-29T11:17:44Z</time>
      </trkpt>
      <trkpt lat="41.0369100" lon="-3.5412080">
        <ele>1071.0</ele>
        <time>2020-09-29T11:17:45Z</time>
      </trkpt>
      <trkpt lat="41.0369100" lon="-3.5412080">
        <ele>1072.0</ele>
        <time>2020-09-29T11:17:46Z</time>
      </trkpt>
      <trkpt lat="41.0369530" lon="-3.5411500">
        <ele>1072.0</ele>
        <time>2020-09-29T11:17:47Z</time>
      </trkpt>
      <trkpt lat="41.0369530" lon="-3.5411500">
        <ele>1072.0</ele>
        <time>2020-09-29T11:17:48Z</time>
      </trkpt>
      <trkpt lat="41.0370020" lon="-3.5410970">
        <ele>1072.0</ele>
        <time>2020-09-29T11:17:49Z</time>
      </trkpt>
      <trkpt lat="41.0370020" lon="-3.5410970">
        <ele>1072.0</ele>
        <time>2020-09-29T11:17:50Z</time>
      </trkpt>
      <trkpt lat="41.0370550" lon="-3.5410450">
        <ele>1072.0</ele>
        <time>2020-09-29T11:17:51Z</time>
      </trkpt>
      <trkpt lat="41.0370550" lon="-3.5410450">
        <ele>1073.0</ele>
        <time>2020-09-29T11:17:52Z</time>
      </trkpt>
      <trkpt lat="41.0371050" lon="-3.5409930">
        <ele>1073.0</ele>
        <time>2020-09-29T11:17:53Z</time>
      </trkpt>
      <trkpt lat="41.0371320" lon="-3.5409680">
        <ele>1073.0</ele>
        <time>2020-09-29T11:17:54Z</time>
      </trkpt>
      <trkpt lat="41.0371320" lon="-3.5409680">
        <ele>1073.0</ele>
        <time>2020-09-29T11:17:55Z</time>
      </trkpt>
      <trkpt lat="41.0371900" lon="-3.5409280">
        <ele>1073.0</ele>
        <time>2020-09-29T11:17:56Z</time>
      </trkpt>
      <trkpt lat="41.0371900" lon="-3.5409280">
        <ele>1073.0</ele>
        <time>2020-09-29T11:17:57Z</time>
      </trkpt>
      <trkpt lat="41.0372520" lon="-3.5408900">
        <ele>1073.0</ele>
        <time>2020-09-29T11:17:58Z</time>
      </trkpt>
      <trkpt lat="41.0372520" lon="-3.5408900">
        <ele>1073.0</ele>
        <time>2020-09-29T11:17:59Z</time>
      </trkpt>
      <trkpt lat="41.0373100" lon="-3.5408470">
        <ele>1073.0</ele>
        <time>2020-09-29T11:18:00Z</time>
      </trkpt>
      <trkpt lat="41.0373400" lon="-3.5408270">
        <ele>1073.0</ele>
        <time>2020-09-29T11:18:01Z</time>
      </trkpt>
      <trkpt lat="41.0373400" lon="-3.5408270">
        <ele>1074.0</ele>
        <time>2020-09-29T11:18:02Z</time>
      </trkpt>
      <trkpt lat="41.0374000" lon="-3.5407880">
        <ele>1074.0</ele>
        <time>2020-09-29T11:18:03Z</time>
      </trkpt>
      <trkpt lat="41.0374000" lon="-3.5407880">
        <ele>1074.0</ele>
        <time>2020-09-29T11:18:04Z</time>
      </trkpt>
      <trkpt lat="41.0374620" lon="-3.5407580">
        <ele>1074.0</ele>
        <time>2020-09-29T11:18:05Z</time>
      </trkpt>
      <trkpt lat="41.0374620" lon="-3.5407580">
        <ele>1075.0</ele>
        <time>2020-09-29T11:18:06Z</time>
      </trkpt>
      <trkpt lat="41.0375220" lon="-3.5407300">
        <ele>1075.0</ele>
        <time>2020-09-29T11:18:07Z</time>
      </trkpt>
      <trkpt lat="41.0375220" lon="-3.5407300">
        <ele>1075.0</ele>
        <time>2020-09-29T11:18:08Z</time>
      </trkpt>
      <trkpt lat="41.0375820" lon="-3.5407000">
        <ele>1075.0</ele>
        <time>2020-09-29T11:18:09Z</time>
      </trkpt>
      <trkpt lat="41.0375820" lon="-3.5407000">
        <ele>1076.0</ele>
        <time>2020-09-29T11:18:10Z</time>
      </trkpt>
      <trkpt lat="41.0376400" lon="-3.5406750">
        <ele>1076.0</ele>
        <time>2020-09-29T11:18:11Z</time>
      </trkpt>
      <trkpt lat="41.0376400" lon="-3.5406750">
        <ele>1076.0</ele>
        <time>2020-09-29T11:18:12Z</time>
      </trkpt>
      <trkpt lat="41.0377000" lon="-3.5406470">
        <ele>1076.0</ele>
        <time>2020-09-29T11:18:13Z</time>
      </trkpt>
      <trkpt lat="41.0377000" lon="-3.5406470">
        <ele>1077.0</ele>
        <time>2020-09-29T11:18:14Z</time>
      </trkpt>
      <trkpt lat="41.0377650" lon="-3.5406250">
        <ele>1077.0</ele>
        <time>2020-09-29T11:18:15Z</time>
      </trkpt>
      <trkpt lat="41.0377650" lon="-3.5406250">
        <ele>1077.0</ele>
        <time>2020-09-29T11:18:16Z</time>
      </trkpt>
      <trkpt lat="41.0378280" lon="-3.5406050">
        <ele>1077.0</ele>
        <time>2020-09-29T11:18:17Z</time>
      </trkpt>
      <trkpt lat="41.0378280" lon="-3.5406050">
        <ele>1078.0</ele>
        <time>2020-09-29T11:18:18Z</time>
      </trkpt>
      <trkpt lat="41.0378880" lon="-3.5405830">
        <ele>1078.0</ele>
        <time>2020-09-29T11:18:19Z</time>
      </trkpt>
      <trkpt lat="41.0378880" lon="-3.5405830">
        <ele>1078.0</ele>
        <time>2020-09-29T11:18:20Z</time>
      </trkpt>
      <trkpt lat="41.0379520" lon="-3.5405620">
        <ele>1078.0</ele>
        <time>2020-09-29T11:18:21Z</time>
      </trkpt>
      <trkpt lat="41.0379520" lon="-3.5405620">
        <ele>1079.0</ele>
        <time>2020-09-29T11:18:22Z</time>
      </trkpt>
      <trkpt lat="41.0380200" lon="-3.5405530">
        <ele>1079.0</ele>
        <time>2020-09-29T11:18:23Z</time>
      </trkpt>
      <trkpt lat="41.0380200" lon="-3.5405530">
        <ele>1079.0</ele>
        <time>2020-09-29T11:18:24Z</time>
      </trkpt>
      <trkpt lat="41.0380850" lon="-3.5405470">
        <ele>1079.0</ele>
        <time>2020-09-29T11:18:25Z</time>
      </trkpt>
      <trkpt lat="41.0380850" lon="-3.5405470">
        <ele>1081.0</ele>
        <time>2020-09-29T11:18:26Z</time>
      </trkpt>
      <trkpt lat="41.0381520" lon="-3.5405370">
        <ele>1081.0</ele>
        <time>2020-09-29T11:18:27Z</time>
      </trkpt>
      <trkpt lat="41.0381520" lon="-3.5405370">
        <ele>1081.0</ele>
        <time>2020-09-29T11:18:28Z</time>
      </trkpt>
      <trkpt lat="41.0382180" lon="-3.5405330">
        <ele>1081.0</ele>
        <time>2020-09-29T11:18:29Z</time>
      </trkpt>
      <trkpt lat="41.0382480" lon="-3.5405330">
        <ele>1082.0</ele>
        <time>2020-09-29T11:18:30Z</time>
      </trkpt>
      <trkpt lat="41.0382800" lon="-3.5405320">
        <ele>1082.0</ele>
        <time>2020-09-29T11:18:31Z</time>
      </trkpt>
      <trkpt lat="41.0382800" lon="-3.5405320">
        <ele>1082.0</ele>
        <time>2020-09-29T11:18:32Z</time>
      </trkpt>
      <trkpt lat="41.0383420" lon="-3.5405300">
        <ele>1082.0</ele>
        <time>2020-09-29T11:18:33Z</time>
      </trkpt>
      <trkpt lat="41.0383420" lon="-3.5405300">
        <ele>1083.0</ele>
        <time>2020-09-29T11:18:34Z</time>
      </trkpt>
      <trkpt lat="41.0384050" lon="-3.5405280">
        <ele>1083.0</ele>
        <time>2020-09-29T11:18:35Z</time>
      </trkpt>
      <trkpt lat="41.0384050" lon="-3.5405280">
        <ele>1083.0</ele>
        <time>2020-09-29T11:18:36Z</time>
      </trkpt>
      <trkpt lat="41.0384720" lon="-3.5405220">
        <ele>1083.0</ele>
        <time>2020-09-29T11:18:37Z</time>
      </trkpt>
      <trkpt lat="41.0384720" lon="-3.5405220">
        <ele>1084.0</ele>
        <time>2020-09-29T11:18:38Z</time>
      </trkpt>
      <trkpt lat="41.0385370" lon="-3.5405150">
        <ele>1084.0</ele>
        <time>2020-09-29T11:18:39Z</time>
      </trkpt>
      <trkpt lat="41.0385720" lon="-3.5405120">
        <ele>1084.0</ele>
        <time>2020-09-29T11:18:40Z</time>
      </trkpt>
      <trkpt lat="41.0386050" lon="-3.5405080">
        <ele>1084.0</ele>
        <time>2020-09-29T11:18:41Z</time>
      </trkpt>
      <trkpt lat="41.0386050" lon="-3.5405080">
        <ele>1084.0</ele>
        <time>2020-09-29T11:18:42Z</time>
      </trkpt>
      <trkpt lat="41.0386730" lon="-3.5405080">
        <ele>1085.0</ele>
        <time>2020-09-29T11:18:43Z</time>
      </trkpt>
      <trkpt lat="41.0386730" lon="-3.5405080">
        <ele>1085.0</ele>
        <time>2020-09-29T11:18:44Z</time>
      </trkpt>
      <trkpt lat="41.0387450" lon="-3.5405000">
        <ele>1085.0</ele>
        <time>2020-09-29T11:18:45Z</time>
      </trkpt>
      <trkpt lat="41.0387450" lon="-3.5405000">
        <ele>1085.0</ele>
        <time>2020-09-29T11:18:46Z</time>
      </trkpt>
      <trkpt lat="41.0388170" lon="-3.5404970">
        <ele>1086.0</ele>
        <time>2020-09-29T11:18:47Z</time>
      </trkpt>
      <trkpt lat="41.0388170" lon="-3.5404970">
        <ele>1086.0</ele>
        <time>2020-09-29T11:18:48Z</time>
      </trkpt>
      <trkpt lat="41.0388920" lon="-3.5404950">
        <ele>1086.0</ele>
        <time>2020-09-29T11:18:49Z</time>
      </trkpt>
      <trkpt lat="41.0388920" lon="-3.5404950">
        <ele>1086.0</ele>
        <time>2020-09-29T11:18:50Z</time>
      </trkpt>
      <trkpt lat="41.0389550" lon="-3.5404980">
        <ele>1086.0</ele>
        <time>2020-09-29T11:18:51Z</time>
      </trkpt>
      <trkpt lat="41.0389550" lon="-3.5404980">
        <ele>1086.0</ele>
        <time>2020-09-29T11:18:52Z</time>
      </trkpt>
      <trkpt lat="41.0390220" lon="-3.5404980">
        <ele>1086.0</ele>
        <time>2020-09-29T11:18:53Z</time>
      </trkpt>
      <trkpt lat="41.0390220" lon="-3.5404980">
        <ele>1086.0</ele>
        <time>2020-09-29T11:18:54Z</time>
      </trkpt>
      <trkpt lat="41.0390830" lon="-3.5405030">
        <ele>1086.0</ele>
        <time>2020-09-29T11:18:55Z</time>
      </trkpt>
      <trkpt lat="41.0391170" lon="-3.5405070">
        <ele>1086.0</ele>
        <time>2020-09-29T11:18:56Z</time>
      </trkpt>
      <trkpt lat="41.0391500" lon="-3.5405080">
        <ele>1088.0</ele>
        <time>2020-09-29T11:18:57Z</time>
      </trkpt>
      <trkpt lat="41.0391500" lon="-3.5405080">
        <ele>1088.0</ele>
        <time>2020-09-29T11:18:58Z</time>
      </trkpt>
      <trkpt lat="41.0392130" lon="-3.5404980">
        <ele>1088.0</ele>
        <time>2020-09-29T11:18:59Z</time>
      </trkpt>
      <trkpt lat="41.0392450" lon="-3.5404950">
        <ele>1088.0</ele>
        <time>2020-09-29T11:19:00Z</time>
      </trkpt>
      <trkpt lat="41.0392450" lon="-3.5404950">
        <ele>1088.0</ele>
        <time>2020-09-29T11:19:01Z</time>
      </trkpt>
      <trkpt lat="41.0393120" lon="-3.5404870">
        <ele>1088.0</ele>
        <time>2020-09-29T11:19:02Z</time>
      </trkpt>
      <trkpt lat="41.0393430" lon="-3.5404830">
        <ele>1089.0</ele>
        <time>2020-09-29T11:19:03Z</time>
      </trkpt>
      <trkpt lat="41.0393430" lon="-3.5404830">
        <ele>1089.0</ele>
        <time>2020-09-29T11:19:04Z</time>
      </trkpt>
      <trkpt lat="41.0394080" lon="-3.5404830">
        <ele>1090.0</ele>
        <time>2020-09-29T11:19:05Z</time>
      </trkpt>
      <trkpt lat="41.0394080" lon="-3.5404830">
        <ele>1090.0</ele>
        <time>2020-09-29T11:19:06Z</time>
      </trkpt>
      <trkpt lat="41.0394720" lon="-3.5404780">
        <ele>1090.0</ele>
        <time>2020-09-29T11:19:07Z</time>
      </trkpt>
      <trkpt lat="41.0394720" lon="-3.5404780">
        <ele>1090.0</ele>
        <time>2020-09-29T11:19:08Z</time>
      </trkpt>
      <trkpt lat="41.0395350" lon="-3.5404700">
        <ele>1091.0</ele>
        <time>2020-09-29T11:19:09Z</time>
      </trkpt>
      <trkpt lat="41.0395350" lon="-3.5404700">
        <ele>1091.0</ele>
        <time>2020-09-29T11:19:10Z</time>
      </trkpt>
      <trkpt lat="41.0396000" lon="-3.5404650">
        <ele>1091.0</ele>
        <time>2020-09-29T11:19:11Z</time>
      </trkpt>
      <trkpt lat="41.0396000" lon="-3.5404650">
        <ele>1092.0</ele>
        <time>2020-09-29T11:19:12Z</time>
      </trkpt>
      <trkpt lat="41.0396650" lon="-3.5404580">
        <ele>1092.0</ele>
        <time>2020-09-29T11:19:13Z</time>
      </trkpt>
      <trkpt lat="41.0396650" lon="-3.5404580">
        <ele>1092.0</ele>
        <time>2020-09-29T11:19:14Z</time>
      </trkpt>
      <trkpt lat="41.0397280" lon="-3.5404650">
        <ele>1092.0</ele>
        <time>2020-09-29T11:19:15Z</time>
      </trkpt>
      <trkpt lat="41.0397570" lon="-3.5404630">
        <ele>1093.0</ele>
        <time>2020-09-29T11:19:16Z</time>
      </trkpt>
      <trkpt lat="41.0397570" lon="-3.5404630">
        <ele>1093.0</ele>
        <time>2020-09-29T11:19:17Z</time>
      </trkpt>
      <trkpt lat="41.0398170" lon="-3.5404520">
        <ele>1093.0</ele>
        <time>2020-09-29T11:19:18Z</time>
      </trkpt>
      <trkpt lat="41.0398470" lon="-3.5404480">
        <ele>1093.0</ele>
        <time>2020-09-29T11:19:19Z</time>
      </trkpt>
      <trkpt lat="41.0398470" lon="-3.5404480">
        <ele>1094.0</ele>
        <time>2020-09-29T11:19:20Z</time>
      </trkpt>
      <trkpt lat="41.0399070" lon="-3.5404400">
        <ele>1094.0</ele>
        <time>2020-09-29T11:19:21Z</time>
      </trkpt>
      <trkpt lat="41.0399070" lon="-3.5404400">
        <ele>1094.0</ele>
        <time>2020-09-29T11:19:22Z</time>
      </trkpt>
      <trkpt lat="41.0399720" lon="-3.5404370">
        <ele>1094.0</ele>
        <time>2020-09-29T11:19:23Z</time>
      </trkpt>
      <trkpt lat="41.0399720" lon="-3.5404370">
        <ele>1095.0</ele>
        <time>2020-09-29T11:19:24Z</time>
      </trkpt>
      <trkpt lat="41.0400370" lon="-3.5404350">
        <ele>1095.0</ele>
        <time>2020-09-29T11:19:25Z</time>
      </trkpt>
      <trkpt lat="41.0400670" lon="-3.5404330">
        <ele>1095.0</ele>
        <time>2020-09-29T11:19:26Z</time>
      </trkpt>
      <trkpt lat="41.0400970" lon="-3.5404320">
        <ele>1095.0</ele>
        <time>2020-09-29T11:19:27Z</time>
      </trkpt>
      <trkpt lat="41.0400970" lon="-3.5404320">
        <ele>1095.0</ele>
        <time>2020-09-29T11:19:28Z</time>
      </trkpt>
      <trkpt lat="41.0401580" lon="-3.5404300">
        <ele>1095.0</ele>
        <time>2020-09-29T11:19:29Z</time>
      </trkpt>
      <trkpt lat="41.0401580" lon="-3.5404300">
        <ele>1095.0</ele>
        <time>2020-09-29T11:19:30Z</time>
      </trkpt>
      <trkpt lat="41.0402220" lon="-3.5404220">
        <ele>1095.0</ele>
        <time>2020-09-29T11:19:31Z</time>
      </trkpt>
      <trkpt lat="41.0402220" lon="-3.5404220">
        <ele>1096.0</ele>
        <time>2020-09-29T11:19:32Z</time>
      </trkpt>
      <trkpt lat="41.0402900" lon="-3.5404180">
        <ele>1096.0</ele>
        <time>2020-09-29T11:19:33Z</time>
      </trkpt>
      <trkpt lat="41.0402900" lon="-3.5404180">
        <ele>1096.0</ele>
        <time>2020-09-29T11:19:34Z</time>
      </trkpt>
      <trkpt lat="41.0403600" lon="-3.5404130">
        <ele>1096.0</ele>
        <time>2020-09-29T11:19:35Z</time>
      </trkpt>
      <trkpt lat="41.0403600" lon="-3.5404130">
        <ele>1097.0</ele>
        <time>2020-09-29T11:19:36Z</time>
      </trkpt>
      <trkpt lat="41.0404230" lon="-3.5404130">
        <ele>1097.0</ele>
        <time>2020-09-29T11:19:37Z</time>
      </trkpt>
      <trkpt lat="41.0404230" lon="-3.5404130">
        <ele>1097.0</ele>
        <time>2020-09-29T11:19:38Z</time>
      </trkpt>
      <trkpt lat="41.0404900" lon="-3.5404100">
        <ele>1097.0</ele>
        <time>2020-09-29T11:19:39Z</time>
      </trkpt>
      <trkpt lat="41.0404900" lon="-3.5404100">
        <ele>1097.0</ele>
        <time>2020-09-29T11:19:40Z</time>
      </trkpt>
      <trkpt lat="41.0405580" lon="-3.5404170">
        <ele>1097.0</ele>
        <time>2020-09-29T11:19:41Z</time>
      </trkpt>
      <trkpt lat="41.0405580" lon="-3.5404170">
        <ele>1098.0</ele>
        <time>2020-09-29T11:19:42Z</time>
      </trkpt>
      <trkpt lat="41.0406280" lon="-3.5404200">
        <ele>1098.0</ele>
        <time>2020-09-29T11:19:43Z</time>
      </trkpt>
      <trkpt lat="41.0406280" lon="-3.5404200">
        <ele>1098.0</ele>
        <time>2020-09-29T11:19:44Z</time>
      </trkpt>
      <trkpt lat="41.0407000" lon="-3.5404300">
        <ele>1098.0</ele>
        <time>2020-09-29T11:19:45Z</time>
      </trkpt>
      <trkpt lat="41.0407380" lon="-3.5404350">
        <ele>1098.0</ele>
        <time>2020-09-29T11:19:46Z</time>
      </trkpt>
      <trkpt lat="41.0407380" lon="-3.5404350">
        <ele>1099.0</ele>
        <time>2020-09-29T11:19:47Z</time>
      </trkpt>
      <trkpt lat="41.0408080" lon="-3.5404420">
        <ele>1099.0</ele>
        <time>2020-09-29T11:19:48Z</time>
      </trkpt>
      <trkpt lat="41.0408080" lon="-3.5404420">
        <ele>1099.0</ele>
        <time>2020-09-29T11:19:49Z</time>
      </trkpt>
      <trkpt lat="41.0408780" lon="-3.5404600">
        <ele>1099.0</ele>
        <time>2020-09-29T11:19:50Z</time>
      </trkpt>
      <trkpt lat="41.0409120" lon="-3.5404750">
        <ele>1099.0</ele>
        <time>2020-09-29T11:19:51Z</time>
      </trkpt>
      <trkpt lat="41.0409120" lon="-3.5404750">
        <ele>1099.0</ele>
        <time>2020-09-29T11:19:52Z</time>
      </trkpt>
      <trkpt lat="41.0409830" lon="-3.5404980">
        <ele>1099.0</ele>
        <time>2020-09-29T11:19:53Z</time>
      </trkpt>
      <trkpt lat="41.0409830" lon="-3.5404980">
        <ele>1099.0</ele>
        <time>2020-09-29T11:19:54Z</time>
      </trkpt>
      <trkpt lat="41.0410570" lon="-3.5405150">
        <ele>1099.0</ele>
        <time>2020-09-29T11:19:55Z</time>
      </trkpt>
      <trkpt lat="41.0410570" lon="-3.5405150">
        <ele>1099.0</ele>
        <time>2020-09-29T11:19:56Z</time>
      </trkpt>
      <trkpt lat="41.0411280" lon="-3.5405330">
        <ele>1099.0</ele>
        <time>2020-09-29T11:19:57Z</time>
      </trkpt>
      <trkpt lat="41.0411620" lon="-3.5405380">
        <ele>1099.0</ele>
        <time>2020-09-29T11:19:58Z</time>
      </trkpt>
      <trkpt lat="41.0411620" lon="-3.5405380">
        <ele>1099.0</ele>
        <time>2020-09-29T11:19:59Z</time>
      </trkpt>
      <trkpt lat="41.0412300" lon="-3.5405570">
        <ele>1099.0</ele>
        <time>2020-09-29T11:20:00Z</time>
      </trkpt>
      <trkpt lat="41.0412650" lon="-3.5405680">
        <ele>1099.0</ele>
        <time>2020-09-29T11:20:01Z</time>
      </trkpt>
      <trkpt lat="41.0412650" lon="-3.5405680">
        <ele>1099.0</ele>
        <time>2020-09-29T11:20:02Z</time>
      </trkpt>
      <trkpt lat="41.0413400" lon="-3.5405830">
        <ele>1099.0</ele>
        <time>2020-09-29T11:20:03Z</time>
      </trkpt>
      <trkpt lat="41.0413780" lon="-3.5405900">
        <ele>1099.0</ele>
        <time>2020-09-29T11:20:04Z</time>
      </trkpt>
      <trkpt lat="41.0413780" lon="-3.5405900">
        <ele>1099.0</ele>
        <time>2020-09-29T11:20:05Z</time>
      </trkpt>
      <trkpt lat="41.0414570" lon="-3.5406120">
        <ele>1099.0</ele>
        <time>2020-09-29T11:20:06Z</time>
      </trkpt>
      <trkpt lat="41.0414950" lon="-3.5406220">
        <ele>1099.0</ele>
        <time>2020-09-29T11:20:07Z</time>
      </trkpt>
      <trkpt lat="41.0414950" lon="-3.5406220">
        <ele>1099.0</ele>
        <time>2020-09-29T11:20:08Z</time>
      </trkpt>
      <trkpt lat="41.0415750" lon="-3.5406450">
        <ele>1099.0</ele>
        <time>2020-09-29T11:20:09Z</time>
      </trkpt>
      <trkpt lat="41.0415750" lon="-3.5406450">
        <ele>1099.0</ele>
        <time>2020-09-29T11:20:10Z</time>
      </trkpt>
      <trkpt lat="41.0416620" lon="-3.5406700">
        <ele>1099.0</ele>
        <time>2020-09-29T11:20:11Z</time>
      </trkpt>
      <trkpt lat="41.0416620" lon="-3.5406700">
        <ele>1099.0</ele>
        <time>2020-09-29T11:20:12Z</time>
      </trkpt>
      <trkpt lat="41.0417550" lon="-3.5406920">
        <ele>1099.0</ele>
        <time>2020-09-29T11:20:13Z</time>
      </trkpt>
      <trkpt lat="41.0417550" lon="-3.5406920">
        <ele>1099.0</ele>
        <time>2020-09-29T11:20:14Z</time>
      </trkpt>
      <trkpt lat="41.0418500" lon="-3.5407150">
        <ele>1099.0</ele>
        <time>2020-09-29T11:20:15Z</time>
      </trkpt>
      <trkpt lat="41.0418980" lon="-3.5407270">
        <ele>1099.0</ele>
        <time>2020-09-29T11:20:16Z</time>
      </trkpt>
      <trkpt lat="41.0418980" lon="-3.5407270">
        <ele>1099.0</ele>
        <time>2020-09-29T11:20:17Z</time>
      </trkpt>
      <trkpt lat="41.0419950" lon="-3.5407530">
        <ele>1099.0</ele>
        <time>2020-09-29T11:20:18Z</time>
      </trkpt>
      <trkpt lat="41.0419950" lon="-3.5407530">
        <ele>1099.0</ele>
        <time>2020-09-29T11:20:19Z</time>
      </trkpt>
      <trkpt lat="41.0420950" lon="-3.5407730">
        <ele>1099.0</ele>
        <time>2020-09-29T11:20:20Z</time>
      </trkpt>
      <trkpt lat="41.0420950" lon="-3.5407730">
        <ele>1099.0</ele>
        <time>2020-09-29T11:20:21Z</time>
      </trkpt>
      <trkpt lat="41.0422020" lon="-3.5407850">
        <ele>1099.0</ele>
        <time>2020-09-29T11:20:22Z</time>
      </trkpt>
      <trkpt lat="41.0422580" lon="-3.5407870">
        <ele>1099.0</ele>
        <time>2020-09-29T11:20:23Z</time>
      </trkpt>
      <trkpt lat="41.0422580" lon="-3.5407870">
        <ele>1099.0</ele>
        <time>2020-09-29T11:20:24Z</time>
      </trkpt>
      <trkpt lat="41.0423730" lon="-3.5407800">
        <ele>1099.0</ele>
        <time>2020-09-29T11:20:25Z</time>
      </trkpt>
      <trkpt lat="41.0423730" lon="-3.5407800">
        <ele>1099.0</ele>
        <time>2020-09-29T11:20:26Z</time>
      </trkpt>
      <trkpt lat="41.0424900" lon="-3.5407730">
        <ele>1099.0</ele>
        <time>2020-09-29T11:20:27Z</time>
      </trkpt>
      <trkpt lat="41.0424900" lon="-3.5407730">
        <ele>1099.0</ele>
        <time>2020-09-29T11:20:28Z</time>
      </trkpt>
      <trkpt lat="41.0426070" lon="-3.5407600">
        <ele>1099.0</ele>
        <time>2020-09-29T11:20:29Z</time>
      </trkpt>
      <trkpt lat="41.0426670" lon="-3.5407520">
        <ele>1099.0</ele>
        <time>2020-09-29T11:20:30Z</time>
      </trkpt>
      <trkpt lat="41.0426670" lon="-3.5407520">
        <ele>1099.0</ele>
        <time>2020-09-29T11:20:31Z</time>
      </trkpt>
      <trkpt lat="41.0427880" lon="-3.5407370">
        <ele>1099.0</ele>
        <time>2020-09-29T11:20:32Z</time>
      </trkpt>
      <trkpt lat="41.0428480" lon="-3.5407250">
        <ele>1099.0</ele>
        <time>2020-09-29T11:20:33Z</time>
      </trkpt>
      <trkpt lat="41.0428480" lon="-3.5407250">
        <ele>1099.0</ele>
        <time>2020-09-29T11:20:34Z</time>
      </trkpt>
      <trkpt lat="41.0429720" lon="-3.5407020">
        <ele>1099.0</ele>
        <time>2020-09-29T11:20:35Z</time>
      </trkpt>
      <trkpt lat="41.0429720" lon="-3.5407020">
        <ele>1099.0</ele>
        <time>2020-09-29T11:20:36Z</time>
      </trkpt>
      <trkpt lat="41.0430920" lon="-3.5406720">
        <ele>1099.0</ele>
        <time>2020-09-29T11:20:37Z</time>
      </trkpt>
      <trkpt lat="41.0430920" lon="-3.5406720">
        <ele>1099.0</ele>
        <time>2020-09-29T11:20:38Z</time>
      </trkpt>
      <trkpt lat="41.0431880" lon="-3.5406420">
        <ele>1098.0</ele>
        <time>2020-09-29T11:20:39Z</time>
      </trkpt>
      <trkpt lat="41.0431880" lon="-3.5406420">
        <ele>1098.0</ele>
        <time>2020-09-29T11:20:40Z</time>
      </trkpt>
      <trkpt lat="41.0432030" lon="-3.5406020">
        <ele>1098.0</ele>
        <time>2020-09-29T11:20:41Z</time>
      </trkpt>
      <trkpt lat="41.0431950" lon="-3.5405900">
        <ele>1098.0</ele>
        <time>2020-09-29T11:20:42Z</time>
      </trkpt>
      <trkpt lat="41.0431820" lon="-3.5405870">
        <ele>1098.0</ele>
        <time>2020-09-29T11:20:43Z</time>
      </trkpt>
      <trkpt lat="41.0431820" lon="-3.5405870">
        <ele>1098.0</ele>
        <time>2020-09-29T11:20:44Z</time>
      </trkpt>
      <trkpt lat="41.0431480" lon="-3.5405880">
        <ele>1098.0</ele>
        <time>2020-09-29T11:20:45Z</time>
      </trkpt>
      <trkpt lat="41.0431480" lon="-3.5405880">
        <ele>1098.0</ele>
        <time>2020-09-29T11:20:46Z</time>
      </trkpt>
      <trkpt lat="41.0431200" lon="-3.5405850">
        <ele>1098.0</ele>
        <time>2020-09-29T11:20:47Z</time>
      </trkpt>
      <trkpt lat="41.0431200" lon="-3.5405850">
        <ele>1098.0</ele>
        <time>2020-09-29T11:20:48Z</time>
      </trkpt>
      <trkpt lat="41.0431100" lon="-3.5405820">
        <ele>1098.0</ele>
        <time>2020-09-29T11:20:49Z</time>
      </trkpt>
      <trkpt lat="41.0431100" lon="-3.5405800">
        <ele>1098.0</ele>
        <time>2020-09-29T11:20:50Z</time>
      </trkpt>
      <trkpt lat="41.0431080" lon="-3.5405800">
        <ele>1098.0</ele>
        <time>2020-09-29T11:21:00Z</time>
      </trkpt>
      <trkpt lat="41.0430920" lon="-3.5405500">
        <ele>1098.0</ele>
        <time>2020-09-29T11:21:01Z</time>
      </trkpt>
      <trkpt lat="41.0430920" lon="-3.5405500">
        <ele>1098.0</ele>
        <time>2020-09-29T11:21:02Z</time>
      </trkpt>
      <trkpt lat="41.0430920" lon="-3.5405480">
        <ele>1098.0</ele>
        <time>2020-09-29T11:21:36Z</time>
      </trkpt>
      <trkpt lat="41.0430920" lon="-3.5405480">
        <ele>1098.0</ele>
        <time>2020-09-29T11:21:37Z</time>
      </trkpt>
      <trkpt lat="41.0430970" lon="-3.5405700">
        <ele>1098.0</ele>
        <time>2020-09-29T11:21:38Z</time>
      </trkpt>
      <trkpt lat="41.0431000" lon="-3.5405730">
        <ele>1098.0</ele>
        <time>2020-09-29T11:21:39Z</time>
      </trkpt>
      <trkpt lat="41.0431000" lon="-3.5405730">
        <ele>1098.0</ele>
        <time>2020-09-29T11:21:40Z</time>
      </trkpt>
      <trkpt lat="41.0431030" lon="-3.5405720">
        <ele>1098.0</ele>
        <time>2020-09-29T11:21:41Z</time>
      </trkpt>
      <trkpt lat="41.0431600" lon="-3.5406080">
        <ele>1098.0</ele>
        <time>2020-09-29T11:21:47Z</time>
      </trkpt>
      <trkpt lat="41.0431600" lon="-3.5406080">
        <ele>1098.0</ele>
        <time>2020-09-29T11:21:48Z</time>
      </trkpt>
      <trkpt lat="41.0432130" lon="-3.5406120">
        <ele>1098.0</ele>
        <time>2020-09-29T11:21:49Z</time>
      </trkpt>
      <trkpt lat="41.0432130" lon="-3.5406120">
        <ele>1098.0</ele>
        <time>2020-09-29T11:21:50Z</time>
      </trkpt>
      <trkpt lat="41.0432770" lon="-3.5405920">
        <ele>1097.0</ele>
        <time>2020-09-29T11:21:51Z</time>
      </trkpt>
      <trkpt lat="41.0432770" lon="-3.5405920">
        <ele>1097.0</ele>
        <time>2020-09-29T11:21:52Z</time>
      </trkpt>
      <trkpt lat="41.0433520" lon="-3.5405420">
        <ele>1097.0</ele>
        <time>2020-09-29T11:21:53Z</time>
      </trkpt>
      <trkpt lat="41.0433850" lon="-3.5405000">
        <ele>1097.0</ele>
        <time>2020-09-29T11:21:54Z</time>
      </trkpt>
      <trkpt lat="41.0434150" lon="-3.5404570">
        <ele>1097.0</ele>
        <time>2020-09-29T11:21:55Z</time>
      </trkpt>
      <trkpt lat="41.0434150" lon="-3.5404570">
        <ele>1097.0</ele>
        <time>2020-09-29T11:21:56Z</time>
      </trkpt>
      <trkpt lat="41.0434680" lon="-3.5403570">
        <ele>1097.0</ele>
        <time>2020-09-29T11:21:57Z</time>
      </trkpt>
      <trkpt lat="41.0434680" lon="-3.5403570">
        <ele>1098.0</ele>
        <time>2020-09-29T11:21:58Z</time>
      </trkpt>
      <trkpt lat="41.0435180" lon="-3.5402480">
        <ele>1098.0</ele>
        <time>2020-09-29T11:21:59Z</time>
      </trkpt>
      <trkpt lat="41.0435180" lon="-3.5402480">
        <ele>1098.0</ele>
        <time>2020-09-29T11:22:00Z</time>
      </trkpt>
      <trkpt lat="41.0435750" lon="-3.5401280">
        <ele>1098.0</ele>
        <time>2020-09-29T11:22:01Z</time>
      </trkpt>
      <trkpt lat="41.0435750" lon="-3.5401280">
        <ele>1098.0</ele>
        <time>2020-09-29T11:22:02Z</time>
      </trkpt>
      <trkpt lat="41.0436300" lon="-3.5400080">
        <ele>1099.0</ele>
        <time>2020-09-29T11:22:03Z</time>
      </trkpt>
      <trkpt lat="41.0436300" lon="-3.5400080">
        <ele>1099.0</ele>
        <time>2020-09-29T11:22:04Z</time>
      </trkpt>
      <trkpt lat="41.0436880" lon="-3.5398930">
        <ele>1099.0</ele>
        <time>2020-09-29T11:22:05Z</time>
      </trkpt>
      <trkpt lat="41.0436880" lon="-3.5398930">
        <ele>1099.0</ele>
        <time>2020-09-29T11:22:06Z</time>
      </trkpt>
      <trkpt lat="41.0437470" lon="-3.5397830">
        <ele>1099.0</ele>
        <time>2020-09-29T11:22:07Z</time>
      </trkpt>
      <trkpt lat="41.0437470" lon="-3.5397830">
        <ele>1099.0</ele>
        <time>2020-09-29T11:22:08Z</time>
      </trkpt>
      <trkpt lat="41.0438100" lon="-3.5396800">
        <ele>1099.0</ele>
        <time>2020-09-29T11:22:09Z</time>
      </trkpt>
      <trkpt lat="41.0438400" lon="-3.5396300">
        <ele>1099.0</ele>
        <time>2020-09-29T11:22:10Z</time>
      </trkpt>
      <trkpt lat="41.0438400" lon="-3.5396300">
        <ele>1099.0</ele>
        <time>2020-09-29T11:22:11Z</time>
      </trkpt>
      <trkpt lat="41.0438930" lon="-3.5395270">
        <ele>1100.0</ele>
        <time>2020-09-29T11:22:12Z</time>
      </trkpt>
      <trkpt lat="41.0438930" lon="-3.5395270">
        <ele>1100.0</ele>
        <time>2020-09-29T11:22:13Z</time>
      </trkpt>
      <trkpt lat="41.0439320" lon="-3.5394200">
        <ele>1100.0</ele>
        <time>2020-09-29T11:22:14Z</time>
      </trkpt>
      <trkpt lat="41.0439450" lon="-3.5393680">
        <ele>1100.0</ele>
        <time>2020-09-29T11:22:15Z</time>
      </trkpt>
      <trkpt lat="41.0439550" lon="-3.5393180">
        <ele>1101.0</ele>
        <time>2020-09-29T11:22:16Z</time>
      </trkpt>
      <trkpt lat="41.0439550" lon="-3.5393180">
        <ele>1101.0</ele>
        <time>2020-09-29T11:22:17Z</time>
      </trkpt>
      <trkpt lat="41.0439680" lon="-3.5392170">
        <ele>1101.0</ele>
        <time>2020-09-29T11:22:18Z</time>
      </trkpt>
      <trkpt lat="41.0439730" lon="-3.5391650">
        <ele>1101.0</ele>
        <time>2020-09-29T11:22:19Z</time>
      </trkpt>
      <trkpt lat="41.0439730" lon="-3.5391650">
        <ele>1102.0</ele>
        <time>2020-09-29T11:22:20Z</time>
      </trkpt>
      <trkpt lat="41.0439800" lon="-3.5390600">
        <ele>1102.0</ele>
        <time>2020-09-29T11:22:21Z</time>
      </trkpt>
      <trkpt lat="41.0439800" lon="-3.5390600">
        <ele>1102.0</ele>
        <time>2020-09-29T11:22:22Z</time>
      </trkpt>
      <trkpt lat="41.0439870" lon="-3.5389520">
        <ele>1102.0</ele>
        <time>2020-09-29T11:22:23Z</time>
      </trkpt>
      <trkpt lat="41.0439870" lon="-3.5389520">
        <ele>1102.0</ele>
        <time>2020-09-29T11:22:24Z</time>
      </trkpt>
      <trkpt lat="41.0439970" lon="-3.5388420">
        <ele>1102.0</ele>
        <time>2020-09-29T11:22:25Z</time>
      </trkpt>
      <trkpt lat="41.0439970" lon="-3.5388420">
        <ele>1102.0</ele>
        <time>2020-09-29T11:22:26Z</time>
      </trkpt>
      <trkpt lat="41.0440030" lon="-3.5387330">
        <ele>1102.0</ele>
        <time>2020-09-29T11:22:27Z</time>
      </trkpt>
      <trkpt lat="41.0440030" lon="-3.5386780">
        <ele>1103.0</ele>
        <time>2020-09-29T11:22:28Z</time>
      </trkpt>
      <trkpt lat="41.0440030" lon="-3.5386780">
        <ele>1103.0</ele>
        <time>2020-09-29T11:22:29Z</time>
      </trkpt>
      <trkpt lat="41.0439980" lon="-3.5385680">
        <ele>1103.0</ele>
        <time>2020-09-29T11:22:30Z</time>
      </trkpt>
      <trkpt lat="41.0439970" lon="-3.5385120">
        <ele>1103.0</ele>
        <time>2020-09-29T11:22:31Z</time>
      </trkpt>
      <trkpt lat="41.0439970" lon="-3.5385120">
        <ele>1103.0</ele>
        <time>2020-09-29T11:22:32Z</time>
      </trkpt>
      <trkpt lat="41.0439920" lon="-3.5383970">
        <ele>1104.0</ele>
        <time>2020-09-29T11:22:33Z</time>
      </trkpt>
      <trkpt lat="41.0439920" lon="-3.5383970">
        <ele>1104.0</ele>
        <time>2020-09-29T11:22:34Z</time>
      </trkpt>
      <trkpt lat="41.0439900" lon="-3.5382750">
        <ele>1104.0</ele>
        <time>2020-09-29T11:22:35Z</time>
      </trkpt>
      <trkpt lat="41.0439900" lon="-3.5382750">
        <ele>1104.0</ele>
        <time>2020-09-29T11:22:36Z</time>
      </trkpt>
      <trkpt lat="41.0439880" lon="-3.5381500">
        <ele>1104.0</ele>
        <time>2020-09-29T11:22:37Z</time>
      </trkpt>
      <trkpt lat="41.0439880" lon="-3.5381500">
        <ele>1104.0</ele>
        <time>2020-09-29T11:22:38Z</time>
      </trkpt>
      <trkpt lat="41.0439900" lon="-3.5380250">
        <ele>1104.0</ele>
        <time>2020-09-29T11:22:39Z</time>
      </trkpt>
      <trkpt lat="41.0439900" lon="-3.5380250">
        <ele>1104.0</ele>
        <time>2020-09-29T11:22:40Z</time>
      </trkpt>
      <trkpt lat="41.0439900" lon="-3.5379020">
        <ele>1104.0</ele>
        <time>2020-09-29T11:22:41Z</time>
      </trkpt>
      <trkpt lat="41.0439900" lon="-3.5379020">
        <ele>1104.0</ele>
        <time>2020-09-29T11:22:42Z</time>
      </trkpt>
      <trkpt lat="41.0439900" lon="-3.5377730">
        <ele>1104.0</ele>
        <time>2020-09-29T11:22:43Z</time>
      </trkpt>
      <trkpt lat="41.0439900" lon="-3.5377730">
        <ele>1104.0</ele>
        <time>2020-09-29T11:22:44Z</time>
      </trkpt>
      <trkpt lat="41.0439950" lon="-3.5376480">
        <ele>1104.0</ele>
        <time>2020-09-29T11:22:45Z</time>
      </trkpt>
      <trkpt lat="41.0439950" lon="-3.5376480">
        <ele>1104.0</ele>
        <time>2020-09-29T11:22:46Z</time>
      </trkpt>
      <trkpt lat="41.0439970" lon="-3.5375220">
        <ele>1104.0</ele>
        <time>2020-09-29T11:22:47Z</time>
      </trkpt>
      <trkpt lat="41.0439970" lon="-3.5375220">
        <ele>1104.0</ele>
        <time>2020-09-29T11:22:48Z</time>
      </trkpt>
      <trkpt lat="41.0439980" lon="-3.5373930">
        <ele>1104.0</ele>
        <time>2020-09-29T11:22:49Z</time>
      </trkpt>
      <trkpt lat="41.0439980" lon="-3.5373930">
        <ele>1104.0</ele>
        <time>2020-09-29T11:22:50Z</time>
      </trkpt>
      <trkpt lat="41.0439950" lon="-3.5372650">
        <ele>1104.0</ele>
        <time>2020-09-29T11:22:51Z</time>
      </trkpt>
      <trkpt lat="41.0439950" lon="-3.5372650">
        <ele>1104.0</ele>
        <time>2020-09-29T11:22:52Z</time>
      </trkpt>
      <trkpt lat="41.0439950" lon="-3.5371370">
        <ele>1104.0</ele>
        <time>2020-09-29T11:22:53Z</time>
      </trkpt>
      <trkpt lat="41.0439950" lon="-3.5371370">
        <ele>1104.0</ele>
        <time>2020-09-29T11:22:54Z</time>
      </trkpt>
      <trkpt lat="41.0439980" lon="-3.5370100">
        <ele>1104.0</ele>
        <time>2020-09-29T11:22:55Z</time>
      </trkpt>
      <trkpt lat="41.0439980" lon="-3.5370100">
        <ele>1104.0</ele>
        <time>2020-09-29T11:22:56Z</time>
      </trkpt>
      <trkpt lat="41.0440030" lon="-3.5368800">
        <ele>1105.0</ele>
        <time>2020-09-29T11:22:57Z</time>
      </trkpt>
      <trkpt lat="41.0440030" lon="-3.5368800">
        <ele>1105.0</ele>
        <time>2020-09-29T11:22:58Z</time>
      </trkpt>
      <trkpt lat="41.0440180" lon="-3.5367520">
        <ele>1105.0</ele>
        <time>2020-09-29T11:22:59Z</time>
      </trkpt>
      <trkpt lat="41.0440200" lon="-3.5366870">
        <ele>1105.0</ele>
        <time>2020-09-29T11:23:00Z</time>
      </trkpt>
      <trkpt lat="41.0440280" lon="-3.5366230">
        <ele>1105.0</ele>
        <time>2020-09-29T11:23:01Z</time>
      </trkpt>
      <trkpt lat="41.0440280" lon="-3.5366230">
        <ele>1105.0</ele>
        <time>2020-09-29T11:23:02Z</time>
      </trkpt>
      <trkpt lat="41.0440450" lon="-3.5364970">
        <ele>1105.0</ele>
        <time>2020-09-29T11:23:03Z</time>
      </trkpt>
      <trkpt lat="41.0440450" lon="-3.5364970">
        <ele>1105.0</ele>
        <time>2020-09-29T11:23:04Z</time>
      </trkpt>
      <trkpt lat="41.0440600" lon="-3.5363700">
        <ele>1105.0</ele>
        <time>2020-09-29T11:23:05Z</time>
      </trkpt>
      <trkpt lat="41.0440600" lon="-3.5363700">
        <ele>1105.0</ele>
        <time>2020-09-29T11:23:06Z</time>
      </trkpt>
      <trkpt lat="41.0440820" lon="-3.5362430">
        <ele>1105.0</ele>
        <time>2020-09-29T11:23:07Z</time>
      </trkpt>
      <trkpt lat="41.0440820" lon="-3.5362430">
        <ele>1105.0</ele>
        <time>2020-09-29T11:23:08Z</time>
      </trkpt>
      <trkpt lat="41.0441020" lon="-3.5361180">
        <ele>1105.0</ele>
        <time>2020-09-29T11:23:09Z</time>
      </trkpt>
      <trkpt lat="41.0441020" lon="-3.5361180">
        <ele>1105.0</ele>
        <time>2020-09-29T11:23:10Z</time>
      </trkpt>
      <trkpt lat="41.0441250" lon="-3.5359920">
        <ele>1105.0</ele>
        <time>2020-09-29T11:23:11Z</time>
      </trkpt>
      <trkpt lat="41.0441250" lon="-3.5359920">
        <ele>1105.0</ele>
        <time>2020-09-29T11:23:12Z</time>
      </trkpt>
      <trkpt lat="41.0441500" lon="-3.5358580">
        <ele>1105.0</ele>
        <time>2020-09-29T11:23:13Z</time>
      </trkpt>
      <trkpt lat="41.0441500" lon="-3.5358580">
        <ele>1106.0</ele>
        <time>2020-09-29T11:23:14Z</time>
      </trkpt>
      <trkpt lat="41.0441870" lon="-3.5357250">
        <ele>1106.0</ele>
        <time>2020-09-29T11:23:15Z</time>
      </trkpt>
      <trkpt lat="41.0442080" lon="-3.5356570">
        <ele>1106.0</ele>
        <time>2020-09-29T11:23:16Z</time>
      </trkpt>
      <trkpt lat="41.0442080" lon="-3.5356570">
        <ele>1106.0</ele>
        <time>2020-09-29T11:23:17Z</time>
      </trkpt>
      <trkpt lat="41.0442500" lon="-3.5355170">
        <ele>1106.0</ele>
        <time>2020-09-29T11:23:18Z</time>
      </trkpt>
      <trkpt lat="41.0442730" lon="-3.5354450">
        <ele>1106.0</ele>
        <time>2020-09-29T11:23:19Z</time>
      </trkpt>
      <trkpt lat="41.0442730" lon="-3.5354450">
        <ele>1106.0</ele>
        <time>2020-09-29T11:23:20Z</time>
      </trkpt>
      <trkpt lat="41.0443220" lon="-3.5353000">
        <ele>1106.0</ele>
        <time>2020-09-29T11:23:21Z</time>
      </trkpt>
      <trkpt lat="41.0443470" lon="-3.5352280">
        <ele>1106.0</ele>
        <time>2020-09-29T11:23:22Z</time>
      </trkpt>
      <trkpt lat="41.0443470" lon="-3.5352280">
        <ele>1106.0</ele>
        <time>2020-09-29T11:23:23Z</time>
      </trkpt>
      <trkpt lat="41.0443920" lon="-3.5350820">
        <ele>1106.0</ele>
        <time>2020-09-29T11:23:24Z</time>
      </trkpt>
      <trkpt lat="41.0444130" lon="-3.5350080">
        <ele>1106.0</ele>
        <time>2020-09-29T11:23:25Z</time>
      </trkpt>
      <trkpt lat="41.0444130" lon="-3.5350080">
        <ele>1106.0</ele>
        <time>2020-09-29T11:23:26Z</time>
      </trkpt>
      <trkpt lat="41.0444530" lon="-3.5348570">
        <ele>1106.0</ele>
        <time>2020-09-29T11:23:27Z</time>
      </trkpt>
      <trkpt lat="41.0444730" lon="-3.5347820">
        <ele>1106.0</ele>
        <time>2020-09-29T11:23:28Z</time>
      </trkpt>
      <trkpt lat="41.0444730" lon="-3.5347820">
        <ele>1106.0</ele>
        <time>2020-09-29T11:23:29Z</time>
      </trkpt>
      <trkpt lat="41.0445070" lon="-3.5346320">
        <ele>1106.0</ele>
        <time>2020-09-29T11:23:30Z</time>
      </trkpt>
      <trkpt lat="41.0445070" lon="-3.5346320">
        <ele>1106.0</ele>
        <time>2020-09-29T11:23:31Z</time>
      </trkpt>
      <trkpt lat="41.0445350" lon="-3.5344770">
        <ele>1106.0</ele>
        <time>2020-09-29T11:23:32Z</time>
      </trkpt>
      <trkpt lat="41.0445350" lon="-3.5344770">
        <ele>1106.0</ele>
        <time>2020-09-29T11:23:33Z</time>
      </trkpt>
      <trkpt lat="41.0445620" lon="-3.5343270">
        <ele>1106.0</ele>
        <time>2020-09-29T11:23:34Z</time>
      </trkpt>
      <trkpt lat="41.0445770" lon="-3.5342520">
        <ele>1106.0</ele>
        <time>2020-09-29T11:23:35Z</time>
      </trkpt>
      <trkpt lat="41.0445770" lon="-3.5342520">
        <ele>1106.0</ele>
        <time>2020-09-29T11:23:36Z</time>
      </trkpt>
      <trkpt lat="41.0446120" lon="-3.5341070">
        <ele>1106.0</ele>
        <time>2020-09-29T11:23:37Z</time>
      </trkpt>
      <trkpt lat="41.0446120" lon="-3.5341070">
        <ele>1106.0</ele>
        <time>2020-09-29T11:23:38Z</time>
      </trkpt>
      <trkpt lat="41.0446380" lon="-3.5339580">
        <ele>1106.0</ele>
        <time>2020-09-29T11:23:39Z</time>
      </trkpt>
      <trkpt lat="41.0446380" lon="-3.5339580">
        <ele>1106.0</ele>
        <time>2020-09-29T11:23:40Z</time>
      </trkpt>
      <trkpt lat="41.0446630" lon="-3.5338150">
        <ele>1106.0</ele>
        <time>2020-09-29T11:23:41Z</time>
      </trkpt>
      <trkpt lat="41.0446630" lon="-3.5338150">
        <ele>1106.0</ele>
        <time>2020-09-29T11:23:42Z</time>
      </trkpt>
      <trkpt lat="41.0446880" lon="-3.5336730">
        <ele>1106.0</ele>
        <time>2020-09-29T11:23:43Z</time>
      </trkpt>
      <trkpt lat="41.0446880" lon="-3.5336730">
        <ele>1106.0</ele>
        <time>2020-09-29T11:23:44Z</time>
      </trkpt>
      <trkpt lat="41.0447150" lon="-3.5335330">
        <ele>1106.0</ele>
        <time>2020-09-29T11:23:45Z</time>
      </trkpt>
      <trkpt lat="41.0447250" lon="-3.5334630">
        <ele>1106.0</ele>
        <time>2020-09-29T11:23:46Z</time>
      </trkpt>
      <trkpt lat="41.0447250" lon="-3.5334630">
        <ele>1106.0</ele>
        <time>2020-09-29T11:23:47Z</time>
      </trkpt>
      <trkpt lat="41.0447430" lon="-3.5333270">
        <ele>1106.0</ele>
        <time>2020-09-29T11:23:48Z</time>
      </trkpt>
      <trkpt lat="41.0447430" lon="-3.5333270">
        <ele>1107.0</ele>
        <time>2020-09-29T11:23:49Z</time>
      </trkpt>
      <trkpt lat="41.0447630" lon="-3.5331950">
        <ele>1107.0</ele>
        <time>2020-09-29T11:23:50Z</time>
      </trkpt>
      <trkpt lat="41.0447700" lon="-3.5331320">
        <ele>1107.0</ele>
        <time>2020-09-29T11:23:51Z</time>
      </trkpt>
      <trkpt lat="41.0447700" lon="-3.5331320">
        <ele>1107.0</ele>
        <time>2020-09-29T11:23:52Z</time>
      </trkpt>
      <trkpt lat="41.0447900" lon="-3.5330070">
        <ele>1108.0</ele>
        <time>2020-09-29T11:23:53Z</time>
      </trkpt>
      <trkpt lat="41.0447900" lon="-3.5330070">
        <ele>1108.0</ele>
        <time>2020-09-29T11:23:54Z</time>
      </trkpt>
      <trkpt lat="41.0448050" lon="-3.5328900">
        <ele>1108.0</ele>
        <time>2020-09-29T11:23:55Z</time>
      </trkpt>
      <trkpt lat="41.0448050" lon="-3.5328900">
        <ele>1108.0</ele>
        <time>2020-09-29T11:23:56Z</time>
      </trkpt>
      <trkpt lat="41.0448220" lon="-3.5327820">
        <ele>1108.0</ele>
        <time>2020-09-29T11:23:57Z</time>
      </trkpt>
      <trkpt lat="41.0448220" lon="-3.5327820">
        <ele>1108.0</ele>
        <time>2020-09-29T11:23:58Z</time>
      </trkpt>
      <trkpt lat="41.0448400" lon="-3.5326800">
        <ele>1109.0</ele>
        <time>2020-09-29T11:23:59Z</time>
      </trkpt>
      <trkpt lat="41.0448470" lon="-3.5326320">
        <ele>1109.0</ele>
        <time>2020-09-29T11:24:00Z</time>
      </trkpt>
      <trkpt lat="41.0448470" lon="-3.5326320">
        <ele>1109.0</ele>
        <time>2020-09-29T11:24:01Z</time>
      </trkpt>
      <trkpt lat="41.0448580" lon="-3.5325350">
        <ele>1109.0</ele>
        <time>2020-09-29T11:24:02Z</time>
      </trkpt>
      <trkpt lat="41.0448630" lon="-3.5324880">
        <ele>1110.0</ele>
        <time>2020-09-29T11:24:03Z</time>
      </trkpt>
      <trkpt lat="41.0448630" lon="-3.5324880">
        <ele>1110.0</ele>
        <time>2020-09-29T11:24:04Z</time>
      </trkpt>
      <trkpt lat="41.0448770" lon="-3.5324020">
        <ele>1110.0</ele>
        <time>2020-09-29T11:24:05Z</time>
      </trkpt>
      <trkpt lat="41.0448770" lon="-3.5324020">
        <ele>1110.0</ele>
        <time>2020-09-29T11:24:06Z</time>
      </trkpt>
      <trkpt lat="41.0448830" lon="-3.5323200">
        <ele>1111.0</ele>
        <time>2020-09-29T11:24:07Z</time>
      </trkpt>
      <trkpt lat="41.0448830" lon="-3.5323200">
        <ele>1111.0</ele>
        <time>2020-09-29T11:24:08Z</time>
      </trkpt>
      <trkpt lat="41.0448930" lon="-3.5322350">
        <ele>1111.0</ele>
        <time>2020-09-29T11:24:09Z</time>
      </trkpt>
      <trkpt lat="41.0448930" lon="-3.5322350">
        <ele>1111.0</ele>
        <time>2020-09-29T11:24:10Z</time>
      </trkpt>
      <trkpt lat="41.0449020" lon="-3.5321530">
        <ele>1112.0</ele>
        <time>2020-09-29T11:24:11Z</time>
      </trkpt>
      <trkpt lat="41.0449100" lon="-3.5321100">
        <ele>1112.0</ele>
        <time>2020-09-29T11:24:12Z</time>
      </trkpt>
      <trkpt lat="41.0449150" lon="-3.5320680">
        <ele>1112.0</ele>
        <time>2020-09-29T11:24:13Z</time>
      </trkpt>
      <trkpt lat="41.0449150" lon="-3.5320680">
        <ele>1112.0</ele>
        <time>2020-09-29T11:24:14Z</time>
      </trkpt>
      <trkpt lat="41.0449250" lon="-3.5319830">
        <ele>1113.0</ele>
        <time>2020-09-29T11:24:15Z</time>
      </trkpt>
      <trkpt lat="41.0449280" lon="-3.5319400">
        <ele>1113.0</ele>
        <time>2020-09-29T11:24:16Z</time>
      </trkpt>
      <trkpt lat="41.0449280" lon="-3.5319400">
        <ele>1113.0</ele>
        <time>2020-09-29T11:24:17Z</time>
      </trkpt>
      <trkpt lat="41.0449400" lon="-3.5318550">
        <ele>1113.0</ele>
        <time>2020-09-29T11:24:18Z</time>
      </trkpt>
      <trkpt lat="41.0449400" lon="-3.5318550">
        <ele>1113.0</ele>
        <time>2020-09-29T11:24:19Z</time>
      </trkpt>
      <trkpt lat="41.0449480" lon="-3.5317770">
        <ele>1114.0</ele>
        <time>2020-09-29T11:24:20Z</time>
      </trkpt>
      <trkpt lat="41.0449480" lon="-3.5317770">
        <ele>1114.0</ele>
        <time>2020-09-29T11:24:21Z</time>
      </trkpt>
      <trkpt lat="41.0449570" lon="-3.5316980">
        <ele>1114.0</ele>
        <time>2020-09-29T11:24:22Z</time>
      </trkpt>
      <trkpt lat="41.0449570" lon="-3.5316980">
        <ele>1115.0</ele>
        <time>2020-09-29T11:24:23Z</time>
      </trkpt>
      <trkpt lat="41.0449630" lon="-3.5316200">
        <ele>1115.0</ele>
        <time>2020-09-29T11:24:24Z</time>
      </trkpt>
      <trkpt lat="41.0449650" lon="-3.5315780">
        <ele>1115.0</ele>
        <time>2020-09-29T11:24:25Z</time>
      </trkpt>
      <trkpt lat="41.0449650" lon="-3.5315780">
        <ele>1115.0</ele>
        <time>2020-09-29T11:24:26Z</time>
      </trkpt>
      <trkpt lat="41.0449650" lon="-3.5314970">
        <ele>1117.0</ele>
        <time>2020-09-29T11:24:27Z</time>
      </trkpt>
      <trkpt lat="41.0449650" lon="-3.5314970">
        <ele>1117.0</ele>
        <time>2020-09-29T11:24:28Z</time>
      </trkpt>
      <trkpt lat="41.0449680" lon="-3.5314170">
        <ele>1117.0</ele>
        <time>2020-09-29T11:24:29Z</time>
      </trkpt>
      <trkpt lat="41.0449680" lon="-3.5314170">
        <ele>1117.0</ele>
        <time>2020-09-29T11:24:30Z</time>
      </trkpt>
      <trkpt lat="41.0449680" lon="-3.5314170">
        <ele>1117.0</ele>
        <time>2020-09-29T11:24:31Z</time>
      </trkpt>
      <trkpt lat="41.0449630" lon="-3.5313400">
        <ele>1117.0</ele>
        <time>2020-09-29T11:24:32Z</time>
      </trkpt>
      <trkpt lat="41.0449480" lon="-3.5312650">
        <ele>1118.0</ele>
        <time>2020-09-29T11:24:33Z</time>
      </trkpt>
      <trkpt lat="41.0449430" lon="-3.5312270">
        <ele>1118.0</ele>
        <time>2020-09-29T11:24:34Z</time>
      </trkpt>
      <trkpt lat="41.0449370" lon="-3.5311870">
        <ele>1118.0</ele>
        <time>2020-09-29T11:24:35Z</time>
      </trkpt>
      <trkpt lat="41.0449370" lon="-3.5311870">
        <ele>1118.0</ele>
        <time>2020-09-29T11:24:36Z</time>
      </trkpt>
      <trkpt lat="41.0449380" lon="-3.5311170">
        <ele>1118.0</ele>
        <time>2020-09-29T11:24:37Z</time>
      </trkpt>
      <trkpt lat="41.0449380" lon="-3.5311170">
        <ele>1118.0</ele>
        <time>2020-09-29T11:24:38Z</time>
      </trkpt>
      <trkpt lat="41.0449350" lon="-3.5310480">
        <ele>1118.0</ele>
        <time>2020-09-29T11:24:39Z</time>
      </trkpt>
      <trkpt lat="41.0449350" lon="-3.5310480">
        <ele>1118.0</ele>
        <time>2020-09-29T11:24:40Z</time>
      </trkpt>
      <trkpt lat="41.0449400" lon="-3.5309820">
        <ele>1118.0</ele>
        <time>2020-09-29T11:24:41Z</time>
      </trkpt>
      <trkpt lat="41.0449430" lon="-3.5309480">
        <ele>1118.0</ele>
        <time>2020-09-29T11:24:42Z</time>
      </trkpt>
      <trkpt lat="41.0449430" lon="-3.5309170">
        <ele>1119.0</ele>
        <time>2020-09-29T11:24:43Z</time>
      </trkpt>
      <trkpt lat="41.0449430" lon="-3.5309170">
        <ele>1119.0</ele>
        <time>2020-09-29T11:24:44Z</time>
      </trkpt>
      <trkpt lat="41.0449450" lon="-3.5308480">
        <ele>1119.0</ele>
        <time>2020-09-29T11:24:45Z</time>
      </trkpt>
      <trkpt lat="41.0449450" lon="-3.5308480">
        <ele>1119.0</ele>
        <time>2020-09-29T11:24:46Z</time>
      </trkpt>
      <trkpt lat="41.0449420" lon="-3.5307770">
        <ele>1120.0</ele>
        <time>2020-09-29T11:24:47Z</time>
      </trkpt>
      <trkpt lat="41.0449420" lon="-3.5307770">
        <ele>1120.0</ele>
        <time>2020-09-29T11:24:48Z</time>
      </trkpt>
      <trkpt lat="41.0449350" lon="-3.5307030">
        <ele>1120.0</ele>
        <time>2020-09-29T11:24:49Z</time>
      </trkpt>
      <trkpt lat="41.0449350" lon="-3.5307030">
        <ele>1120.0</ele>
        <time>2020-09-29T11:24:50Z</time>
      </trkpt>
      <trkpt lat="41.0449270" lon="-3.5306350">
        <ele>1121.0</ele>
        <time>2020-09-29T11:24:51Z</time>
      </trkpt>
      <trkpt lat="41.0449100" lon="-3.5306150">
        <ele>1121.0</ele>
        <time>2020-09-29T11:24:52Z</time>
      </trkpt>
      <trkpt lat="41.0449100" lon="-3.5306150">
        <ele>1121.0</ele>
        <time>2020-09-29T11:24:53Z</time>
      </trkpt>
      <trkpt lat="41.0448770" lon="-3.5306100">
        <ele>1121.0</ele>
        <time>2020-09-29T11:24:54Z</time>
      </trkpt>
      <trkpt lat="41.0448700" lon="-3.5306180">
        <ele>1121.0</ele>
        <time>2020-09-29T11:24:55Z</time>
      </trkpt>
      <trkpt lat="41.0448700" lon="-3.5306180">
        <ele>1121.0</ele>
        <time>2020-09-29T11:24:56Z</time>
      </trkpt>
      <trkpt lat="41.0448780" lon="-3.5306370">
        <ele>1121.0</ele>
        <time>2020-09-29T11:24:57Z</time>
      </trkpt>
      <trkpt lat="41.0448780" lon="-3.5306370">
        <ele>1121.0</ele>
        <time>2020-09-29T11:24:58Z</time>
      </trkpt>
      <trkpt lat="41.0449050" lon="-3.5306370">
        <ele>1121.0</ele>
        <time>2020-09-29T11:24:59Z</time>
      </trkpt>
      <trkpt lat="41.0449050" lon="-3.5306370">
        <ele>1121.0</ele>
        <time>2020-09-29T11:25:00Z</time>
      </trkpt>
      <trkpt lat="41.0449300" lon="-3.5306020">
        <ele>1121.0</ele>
        <time>2020-09-29T11:25:01Z</time>
      </trkpt>
      <trkpt lat="41.0449300" lon="-3.5306020">
        <ele>1121.0</ele>
        <time>2020-09-29T11:25:02Z</time>
      </trkpt>
      <trkpt lat="41.0449380" lon="-3.5305300">
        <ele>1121.0</ele>
        <time>2020-09-29T11:25:03Z</time>
      </trkpt>
      <trkpt lat="41.0449380" lon="-3.5305300">
        <ele>1121.0</ele>
        <time>2020-09-29T11:25:04Z</time>
      </trkpt>
      <trkpt lat="41.0449350" lon="-3.5304550">
        <ele>1121.0</ele>
        <time>2020-09-29T11:25:05Z</time>
      </trkpt>
      <trkpt lat="41.0449350" lon="-3.5304170">
        <ele>1122.0</ele>
        <time>2020-09-29T11:25:06Z</time>
      </trkpt>
      <trkpt lat="41.0449350" lon="-3.5304170">
        <ele>1122.0</ele>
        <time>2020-09-29T11:25:07Z</time>
      </trkpt>
      <trkpt lat="41.0449380" lon="-3.5303380">
        <ele>1122.0</ele>
        <time>2020-09-29T11:25:08Z</time>
      </trkpt>
      <trkpt lat="41.0449380" lon="-3.5303380">
        <ele>1122.0</ele>
        <time>2020-09-29T11:25:09Z</time>
      </trkpt>
      <trkpt lat="41.0449380" lon="-3.5302600">
        <ele>1122.0</ele>
        <time>2020-09-29T11:25:10Z</time>
      </trkpt>
      <trkpt lat="41.0449350" lon="-3.5302180">
        <ele>1122.0</ele>
        <time>2020-09-29T11:25:11Z</time>
      </trkpt>
      <trkpt lat="41.0449350" lon="-3.5302180">
        <ele>1122.0</ele>
        <time>2020-09-29T11:25:12Z</time>
      </trkpt>
      <trkpt lat="41.0449400" lon="-3.5301400">
        <ele>1122.0</ele>
        <time>2020-09-29T11:25:13Z</time>
      </trkpt>
      <trkpt lat="41.0449400" lon="-3.5301400">
        <ele>1122.0</ele>
        <time>2020-09-29T11:25:14Z</time>
      </trkpt>
      <trkpt lat="41.0449500" lon="-3.5300620">
        <ele>1122.0</ele>
        <time>2020-09-29T11:25:15Z</time>
      </trkpt>
      <trkpt lat="41.0449500" lon="-3.5300620">
        <ele>1122.0</ele>
        <time>2020-09-29T11:25:16Z</time>
      </trkpt>
      <trkpt lat="41.0449620" lon="-3.5299870">
        <ele>1122.0</ele>
        <time>2020-09-29T11:25:17Z</time>
      </trkpt>
      <trkpt lat="41.0449620" lon="-3.5299870">
        <ele>1123.0</ele>
        <time>2020-09-29T11:25:18Z</time>
      </trkpt>
      <trkpt lat="41.0449730" lon="-3.5299120">
        <ele>1123.0</ele>
        <time>2020-09-29T11:25:19Z</time>
      </trkpt>
      <trkpt lat="41.0449730" lon="-3.5299120">
        <ele>1123.0</ele>
        <time>2020-09-29T11:25:20Z</time>
      </trkpt>
      <trkpt lat="41.0449870" lon="-3.5298380">
        <ele>1123.0</ele>
        <time>2020-09-29T11:25:21Z</time>
      </trkpt>
      <trkpt lat="41.0449920" lon="-3.5298020">
        <ele>1124.0</ele>
        <time>2020-09-29T11:25:22Z</time>
      </trkpt>
      <trkpt lat="41.0449920" lon="-3.5298020">
        <ele>1124.0</ele>
        <time>2020-09-29T11:25:23Z</time>
      </trkpt>
      <trkpt lat="41.0450080" lon="-3.5297280">
        <ele>1124.0</ele>
        <time>2020-09-29T11:25:24Z</time>
      </trkpt>
      <trkpt lat="41.0450170" lon="-3.5296920">
        <ele>1124.0</ele>
        <time>2020-09-29T11:25:25Z</time>
      </trkpt>
      <trkpt lat="41.0450170" lon="-3.5296920">
        <ele>1125.0</ele>
        <time>2020-09-29T11:25:26Z</time>
      </trkpt>
      <trkpt lat="41.0450270" lon="-3.5296170">
        <ele>1125.0</ele>
        <time>2020-09-29T11:25:27Z</time>
      </trkpt>
      <trkpt lat="41.0450270" lon="-3.5296170">
        <ele>1125.0</ele>
        <time>2020-09-29T11:25:28Z</time>
      </trkpt>
      <trkpt lat="41.0450320" lon="-3.5295400">
        <ele>1125.0</ele>
        <time>2020-09-29T11:25:29Z</time>
      </trkpt>
      <trkpt lat="41.0450320" lon="-3.5295400">
        <ele>1125.0</ele>
        <time>2020-09-29T11:25:30Z</time>
      </trkpt>
      <trkpt lat="41.0450380" lon="-3.5294620">
        <ele>1125.0</ele>
        <time>2020-09-29T11:25:31Z</time>
      </trkpt>
      <trkpt lat="41.0450380" lon="-3.5294620">
        <ele>1125.0</ele>
        <time>2020-09-29T11:25:32Z</time>
      </trkpt>
      <trkpt lat="41.0450480" lon="-3.5293870">
        <ele>1125.0</ele>
        <time>2020-09-29T11:25:33Z</time>
      </trkpt>
      <trkpt lat="41.0450480" lon="-3.5293870">
        <ele>1127.0</ele>
        <time>2020-09-29T11:25:34Z</time>
      </trkpt>
      <trkpt lat="41.0450600" lon="-3.5293100">
        <ele>1127.0</ele>
        <time>2020-09-29T11:25:35Z</time>
      </trkpt>
      <trkpt lat="41.0450600" lon="-3.5293100">
        <ele>1127.0</ele>
        <time>2020-09-29T11:25:36Z</time>
      </trkpt>
      <trkpt lat="41.0450680" lon="-3.5292330">
        <ele>1127.0</ele>
        <time>2020-09-29T11:25:37Z</time>
      </trkpt>
      <trkpt lat="41.0450680" lon="-3.5292330">
        <ele>1127.0</ele>
        <time>2020-09-29T11:25:38Z</time>
      </trkpt>
      <trkpt lat="41.0450780" lon="-3.5291570">
        <ele>1127.0</ele>
        <time>2020-09-29T11:25:39Z</time>
      </trkpt>
      <trkpt lat="41.0450780" lon="-3.5291570">
        <ele>1127.0</ele>
        <time>2020-09-29T11:25:40Z</time>
      </trkpt>
      <trkpt lat="41.0450900" lon="-3.5290820">
        <ele>1127.0</ele>
        <time>2020-09-29T11:25:41Z</time>
      </trkpt>
      <trkpt lat="41.0450900" lon="-3.5290820">
        <ele>1128.0</ele>
        <time>2020-09-29T11:25:42Z</time>
      </trkpt>
      <trkpt lat="41.0451050" lon="-3.5290080">
        <ele>1128.0</ele>
        <time>2020-09-29T11:25:43Z</time>
      </trkpt>
      <trkpt lat="41.0451050" lon="-3.5290080">
        <ele>1128.0</ele>
        <time>2020-09-29T11:25:44Z</time>
      </trkpt>
      <trkpt lat="41.0451170" lon="-3.5289380">
        <ele>1128.0</ele>
        <time>2020-09-29T11:25:45Z</time>
      </trkpt>
      <trkpt lat="41.0451170" lon="-3.5289380">
        <ele>1129.0</ele>
        <time>2020-09-29T11:25:46Z</time>
      </trkpt>
      <trkpt lat="41.0451300" lon="-3.5288670">
        <ele>1129.0</ele>
        <time>2020-09-29T11:25:47Z</time>
      </trkpt>
      <trkpt lat="41.0451300" lon="-3.5288670">
        <ele>1129.0</ele>
        <time>2020-09-29T11:25:48Z</time>
      </trkpt>
      <trkpt lat="41.0451480" lon="-3.5287980">
        <ele>1129.0</ele>
        <time>2020-09-29T11:25:49Z</time>
      </trkpt>
      <trkpt lat="41.0451480" lon="-3.5287980">
        <ele>1129.0</ele>
        <time>2020-09-29T11:25:50Z</time>
      </trkpt>
      <trkpt lat="41.0451770" lon="-3.5287320">
        <ele>1130.0</ele>
        <time>2020-09-29T11:25:51Z</time>
      </trkpt>
      <trkpt lat="41.0451770" lon="-3.5287320">
        <ele>1130.0</ele>
        <time>2020-09-29T11:25:52Z</time>
      </trkpt>
      <trkpt lat="41.0452030" lon="-3.5286650">
        <ele>1130.0</ele>
        <time>2020-09-29T11:25:53Z</time>
      </trkpt>
      <trkpt lat="41.0452180" lon="-3.5286320">
        <ele>1130.0</ele>
        <time>2020-09-29T11:25:54Z</time>
      </trkpt>
      <trkpt lat="41.0452180" lon="-3.5286320">
        <ele>1131.0</ele>
        <time>2020-09-29T11:25:55Z</time>
      </trkpt>
      <trkpt lat="41.0452500" lon="-3.5285700">
        <ele>1131.0</ele>
        <time>2020-09-29T11:25:56Z</time>
      </trkpt>
      <trkpt lat="41.0452500" lon="-3.5285700">
        <ele>1131.0</ele>
        <time>2020-09-29T11:25:57Z</time>
      </trkpt>
      <trkpt lat="41.0452900" lon="-3.5285120">
        <ele>1131.0</ele>
        <time>2020-09-29T11:25:58Z</time>
      </trkpt>
      <trkpt lat="41.0453100" lon="-3.5284830">
        <ele>1131.0</ele>
        <time>2020-09-29T11:25:59Z</time>
      </trkpt>
      <trkpt lat="41.0453100" lon="-3.5284830">
        <ele>1131.0</ele>
        <time>2020-09-29T11:26:00Z</time>
      </trkpt>
      <trkpt lat="41.0453550" lon="-3.5284280">
        <ele>1132.0</ele>
        <time>2020-09-29T11:26:01Z</time>
      </trkpt>
      <trkpt lat="41.0453550" lon="-3.5284280">
        <ele>1132.0</ele>
        <time>2020-09-29T11:26:02Z</time>
      </trkpt>
      <trkpt lat="41.0454020" lon="-3.5283750">
        <ele>1132.0</ele>
        <time>2020-09-29T11:26:03Z</time>
      </trkpt>
      <trkpt lat="41.0454020" lon="-3.5283750">
        <ele>1132.0</ele>
        <time>2020-09-29T11:26:04Z</time>
      </trkpt>
      <trkpt lat="41.0454550" lon="-3.5283320">
        <ele>1132.0</ele>
        <time>2020-09-29T11:26:05Z</time>
      </trkpt>
      <trkpt lat="41.0454550" lon="-3.5283320">
        <ele>1132.0</ele>
        <time>2020-09-29T11:26:06Z</time>
      </trkpt>
      <trkpt lat="41.0455070" lon="-3.5282850">
        <ele>1132.0</ele>
        <time>2020-09-29T11:26:07Z</time>
      </trkpt>
      <trkpt lat="41.0455070" lon="-3.5282850">
        <ele>1132.0</ele>
        <time>2020-09-29T11:26:08Z</time>
      </trkpt>
      <trkpt lat="41.0455580" lon="-3.5282320">
        <ele>1133.0</ele>
        <time>2020-09-29T11:26:09Z</time>
      </trkpt>
      <trkpt lat="41.0455580" lon="-3.5282320">
        <ele>1133.0</ele>
        <time>2020-09-29T11:26:10Z</time>
      </trkpt>
      <trkpt lat="41.0456070" lon="-3.5281750">
        <ele>1133.0</ele>
        <time>2020-09-29T11:26:11Z</time>
      </trkpt>
      <trkpt lat="41.0456350" lon="-3.5281500">
        <ele>1133.0</ele>
        <time>2020-09-29T11:26:12Z</time>
      </trkpt>
      <trkpt lat="41.0456350" lon="-3.5281500">
        <ele>1133.0</ele>
        <time>2020-09-29T11:26:13Z</time>
      </trkpt>
      <trkpt lat="41.0456900" lon="-3.5280970">
        <ele>1134.0</ele>
        <time>2020-09-29T11:26:14Z</time>
      </trkpt>
      <trkpt lat="41.0457170" lon="-3.5280650">
        <ele>1134.0</ele>
        <time>2020-09-29T11:26:15Z</time>
      </trkpt>
      <trkpt lat="41.0457170" lon="-3.5280650">
        <ele>1134.0</ele>
        <time>2020-09-29T11:26:16Z</time>
      </trkpt>
      <trkpt lat="41.0457720" lon="-3.5280080">
        <ele>1134.0</ele>
        <time>2020-09-29T11:26:17Z</time>
      </trkpt>
      <trkpt lat="41.0457720" lon="-3.5280080">
        <ele>1134.0</ele>
        <time>2020-09-29T11:26:18Z</time>
      </trkpt>
      <trkpt lat="41.0458270" lon="-3.5279550">
        <ele>1134.0</ele>
        <time>2020-09-29T11:26:19Z</time>
      </trkpt>
      <trkpt lat="41.0458270" lon="-3.5279550">
        <ele>1134.0</ele>
        <time>2020-09-29T11:26:20Z</time>
      </trkpt>
      <trkpt lat="41.0458800" lon="-3.5279020">
        <ele>1134.0</ele>
        <time>2020-09-29T11:26:21Z</time>
      </trkpt>
      <trkpt lat="41.0458800" lon="-3.5279020">
        <ele>1134.0</ele>
        <time>2020-09-29T11:26:22Z</time>
      </trkpt>
      <trkpt lat="41.0459350" lon="-3.5278500">
        <ele>1135.0</ele>
        <time>2020-09-29T11:26:23Z</time>
      </trkpt>
      <trkpt lat="41.0459650" lon="-3.5278250">
        <ele>1135.0</ele>
        <time>2020-09-29T11:26:24Z</time>
      </trkpt>
      <trkpt lat="41.0459650" lon="-3.5278250">
        <ele>1133.0</ele>
        <time>2020-09-29T11:26:25Z</time>
      </trkpt>
      <trkpt lat="41.0460250" lon="-3.5277730">
        <ele>1133.0</ele>
        <time>2020-09-29T11:26:26Z</time>
      </trkpt>
      <trkpt lat="41.0460250" lon="-3.5277730">
        <ele>1135.0</ele>
        <time>2020-09-29T11:26:27Z</time>
      </trkpt>
      <trkpt lat="41.0460850" lon="-3.5277180">
        <ele>1135.0</ele>
        <time>2020-09-29T11:26:28Z</time>
      </trkpt>
      <trkpt lat="41.0460850" lon="-3.5277180">
        <ele>1135.0</ele>
        <time>2020-09-29T11:26:29Z</time>
      </trkpt>
      <trkpt lat="41.0461480" lon="-3.5276630">
        <ele>1135.0</ele>
        <time>2020-09-29T11:26:30Z</time>
      </trkpt>
      <trkpt lat="41.0461820" lon="-3.5276380">
        <ele>1136.0</ele>
        <time>2020-09-29T11:26:31Z</time>
      </trkpt>
      <trkpt lat="41.0461820" lon="-3.5276380">
        <ele>1136.0</ele>
        <time>2020-09-29T11:26:32Z</time>
      </trkpt>
      <trkpt lat="41.0462470" lon="-3.5275720">
        <ele>1136.0</ele>
        <time>2020-09-29T11:26:33Z</time>
      </trkpt>
      <trkpt lat="41.0462470" lon="-3.5275720">
        <ele>1136.0</ele>
        <time>2020-09-29T11:26:34Z</time>
      </trkpt>
      <trkpt lat="41.0463150" lon="-3.5275080">
        <ele>1137.0</ele>
        <time>2020-09-29T11:26:35Z</time>
      </trkpt>
      <trkpt lat="41.0463150" lon="-3.5275080">
        <ele>1137.0</ele>
        <time>2020-09-29T11:26:36Z</time>
      </trkpt>
      <trkpt lat="41.0463880" lon="-3.5274480">
        <ele>1137.0</ele>
        <time>2020-09-29T11:26:37Z</time>
      </trkpt>
      <trkpt lat="41.0463880" lon="-3.5274480">
        <ele>1137.0</ele>
        <time>2020-09-29T11:26:38Z</time>
      </trkpt>
      <trkpt lat="41.0464630" lon="-3.5273900">
        <ele>1138.0</ele>
        <time>2020-09-29T11:26:39Z</time>
      </trkpt>
      <trkpt lat="41.0465000" lon="-3.5273600">
        <ele>1138.0</ele>
        <time>2020-09-29T11:26:40Z</time>
      </trkpt>
      <trkpt lat="41.0465000" lon="-3.5273600">
        <ele>1138.0</ele>
        <time>2020-09-29T11:26:41Z</time>
      </trkpt>
      <trkpt lat="41.0465730" lon="-3.5273030">
        <ele>1138.0</ele>
        <time>2020-09-29T11:26:42Z</time>
      </trkpt>
      <trkpt lat="41.0466080" lon="-3.5272680">
        <ele>1138.0</ele>
        <time>2020-09-29T11:26:43Z</time>
      </trkpt>
      <trkpt lat="41.0466080" lon="-3.5272680">
        <ele>1138.0</ele>
        <time>2020-09-29T11:26:44Z</time>
      </trkpt>
      <trkpt lat="41.0466820" lon="-3.5272100">
        <ele>1138.0</ele>
        <time>2020-09-29T11:26:45Z</time>
      </trkpt>
      <trkpt lat="41.0466820" lon="-3.5272100">
        <ele>1139.0</ele>
        <time>2020-09-29T11:26:46Z</time>
      </trkpt>
      <trkpt lat="41.0467570" lon="-3.5271520">
        <ele>1139.0</ele>
        <time>2020-09-29T11:26:47Z</time>
      </trkpt>
      <trkpt lat="41.0467970" lon="-3.5271200">
        <ele>1139.0</ele>
        <time>2020-09-29T11:26:48Z</time>
      </trkpt>
      <trkpt lat="41.0468370" lon="-3.5270880">
        <ele>1139.0</ele>
        <time>2020-09-29T11:26:49Z</time>
      </trkpt>
      <trkpt lat="41.0468370" lon="-3.5270880">
        <ele>1139.0</ele>
        <time>2020-09-29T11:26:50Z</time>
      </trkpt>
      <trkpt lat="41.0469130" lon="-3.5270250">
        <ele>1139.0</ele>
        <time>2020-09-29T11:26:51Z</time>
      </trkpt>
      <trkpt lat="41.0469130" lon="-3.5270250">
        <ele>1139.0</ele>
        <time>2020-09-29T11:26:52Z</time>
      </trkpt>
      <trkpt lat="41.0469880" lon="-3.5269600">
        <ele>1139.0</ele>
        <time>2020-09-29T11:26:53Z</time>
      </trkpt>
      <trkpt lat="41.0470270" lon="-3.5269250">
        <ele>1139.0</ele>
        <time>2020-09-29T11:26:54Z</time>
      </trkpt>
      <trkpt lat="41.0470650" lon="-3.5268900">
        <ele>1139.0</ele>
        <time>2020-09-29T11:26:55Z</time>
      </trkpt>
      <trkpt lat="41.0470650" lon="-3.5268900">
        <ele>1139.0</ele>
        <time>2020-09-29T11:26:56Z</time>
      </trkpt>
      <trkpt lat="41.0471430" lon="-3.5268250">
        <ele>1139.0</ele>
        <time>2020-09-29T11:26:57Z</time>
      </trkpt>
      <trkpt lat="41.0471430" lon="-3.5268250">
        <ele>1139.0</ele>
        <time>2020-09-29T11:26:58Z</time>
      </trkpt>
      <trkpt lat="41.0472220" lon="-3.5267600">
        <ele>1139.0</ele>
        <time>2020-09-29T11:26:59Z</time>
      </trkpt>
      <trkpt lat="41.0472620" lon="-3.5267280">
        <ele>1139.0</ele>
        <time>2020-09-29T11:27:00Z</time>
      </trkpt>
      <trkpt lat="41.0472620" lon="-3.5267280">
        <ele>1139.0</ele>
        <time>2020-09-29T11:27:01Z</time>
      </trkpt>
      <trkpt lat="41.0473370" lon="-3.5266680">
        <ele>1139.0</ele>
        <time>2020-09-29T11:27:02Z</time>
      </trkpt>
      <trkpt lat="41.0473370" lon="-3.5266680">
        <ele>1139.0</ele>
        <time>2020-09-29T11:27:03Z</time>
      </trkpt>
      <trkpt lat="41.0474130" lon="-3.5265980">
        <ele>1139.0</ele>
        <time>2020-09-29T11:27:04Z</time>
      </trkpt>
      <trkpt lat="41.0474550" lon="-3.5265630">
        <ele>1139.0</ele>
        <time>2020-09-29T11:27:05Z</time>
      </trkpt>
      <trkpt lat="41.0474550" lon="-3.5265630">
        <ele>1139.0</ele>
        <time>2020-09-29T11:27:06Z</time>
      </trkpt>
      <trkpt lat="41.0475370" lon="-3.5264930">
        <ele>1139.0</ele>
        <time>2020-09-29T11:27:07Z</time>
      </trkpt>
      <trkpt lat="41.0475370" lon="-3.5264930">
        <ele>1139.0</ele>
        <time>2020-09-29T11:27:08Z</time>
      </trkpt>
      <trkpt lat="41.0476200" lon="-3.5264220">
        <ele>1139.0</ele>
        <time>2020-09-29T11:27:09Z</time>
      </trkpt>
      <trkpt lat="41.0476200" lon="-3.5264220">
        <ele>1140.0</ele>
        <time>2020-09-29T11:27:10Z</time>
      </trkpt>
      <trkpt lat="41.0477050" lon="-3.5263520">
        <ele>1140.0</ele>
        <time>2020-09-29T11:27:11Z</time>
      </trkpt>
      <trkpt lat="41.0477470" lon="-3.5263170">
        <ele>1140.0</ele>
        <time>2020-09-29T11:27:12Z</time>
      </trkpt>
      <trkpt lat="41.0477470" lon="-3.5263170">
        <ele>1140.0</ele>
        <time>2020-09-29T11:27:13Z</time>
      </trkpt>
      <trkpt lat="41.0478330" lon="-3.5262470">
        <ele>1140.0</ele>
        <time>2020-09-29T11:27:14Z</time>
      </trkpt>
      <trkpt lat="41.0478330" lon="-3.5262470">
        <ele>1140.0</ele>
        <time>2020-09-29T11:27:15Z</time>
      </trkpt>
      <trkpt lat="41.0479170" lon="-3.5261770">
        <ele>1140.0</ele>
        <time>2020-09-29T11:27:16Z</time>
      </trkpt>
      <trkpt lat="41.0479570" lon="-3.5261420">
        <ele>1140.0</ele>
        <time>2020-09-29T11:27:17Z</time>
      </trkpt>
      <trkpt lat="41.0479570" lon="-3.5261420">
        <ele>1140.0</ele>
        <time>2020-09-29T11:27:18Z</time>
      </trkpt>
      <trkpt lat="41.0480380" lon="-3.5260670">
        <ele>1140.0</ele>
        <time>2020-09-29T11:27:19Z</time>
      </trkpt>
      <trkpt lat="41.0480380" lon="-3.5260670">
        <ele>1141.0</ele>
        <time>2020-09-29T11:27:20Z</time>
      </trkpt>
      <trkpt lat="41.0481180" lon="-3.5259830">
        <ele>1141.0</ele>
        <time>2020-09-29T11:27:21Z</time>
      </trkpt>
      <trkpt lat="41.0481600" lon="-3.5259380">
        <ele>1141.0</ele>
        <time>2020-09-29T11:27:22Z</time>
      </trkpt>
      <trkpt lat="41.0481970" lon="-3.5258870">
        <ele>1141.0</ele>
        <time>2020-09-29T11:27:23Z</time>
      </trkpt>
      <trkpt lat="41.0481970" lon="-3.5258870">
        <ele>1141.0</ele>
        <time>2020-09-29T11:27:24Z</time>
      </trkpt>
      <trkpt lat="41.0482600" lon="-3.5257750">
        <ele>1141.0</ele>
        <time>2020-09-29T11:27:25Z</time>
      </trkpt>
      <trkpt lat="41.0482600" lon="-3.5257750">
        <ele>1141.0</ele>
        <time>2020-09-29T11:27:26Z</time>
      </trkpt>
      <trkpt lat="41.0483050" lon="-3.5256530">
        <ele>1141.0</ele>
        <time>2020-09-29T11:27:27Z</time>
      </trkpt>
      <trkpt lat="41.0483050" lon="-3.5256530">
        <ele>1141.0</ele>
        <time>2020-09-29T11:27:28Z</time>
      </trkpt>
      <trkpt lat="41.0483230" lon="-3.5255180">
        <ele>1142.0</ele>
        <time>2020-09-29T11:27:29Z</time>
      </trkpt>
      <trkpt lat="41.0483230" lon="-3.5255180">
        <ele>1142.0</ele>
        <time>2020-09-29T11:27:30Z</time>
      </trkpt>
      <trkpt lat="41.0483250" lon="-3.5253850">
        <ele>1142.0</ele>
        <time>2020-09-29T11:27:31Z</time>
      </trkpt>
      <trkpt lat="41.0483250" lon="-3.5253850">
        <ele>1142.0</ele>
        <time>2020-09-29T11:27:32Z</time>
      </trkpt>
      <trkpt lat="41.0483320" lon="-3.5252550">
        <ele>1142.0</ele>
        <time>2020-09-29T11:27:33Z</time>
      </trkpt>
      <trkpt lat="41.0483380" lon="-3.5251900">
        <ele>1142.0</ele>
        <time>2020-09-29T11:27:34Z</time>
      </trkpt>
      <trkpt lat="41.0483450" lon="-3.5251250">
        <ele>1142.0</ele>
        <time>2020-09-29T11:27:35Z</time>
      </trkpt>
      <trkpt lat="41.0483450" lon="-3.5251250">
        <ele>1142.0</ele>
        <time>2020-09-29T11:27:36Z</time>
      </trkpt>
      <trkpt lat="41.0483630" lon="-3.5250000">
        <ele>1142.0</ele>
        <time>2020-09-29T11:27:37Z</time>
      </trkpt>
      <trkpt lat="41.0483630" lon="-3.5250000">
        <ele>1142.0</ele>
        <time>2020-09-29T11:27:38Z</time>
      </trkpt>
      <trkpt lat="41.0483820" lon="-3.5248750">
        <ele>1142.0</ele>
        <time>2020-09-29T11:27:39Z</time>
      </trkpt>
      <trkpt lat="41.0483820" lon="-3.5248750">
        <ele>1142.0</ele>
        <time>2020-09-29T11:27:40Z</time>
      </trkpt>
      <trkpt lat="41.0483980" lon="-3.5247500">
        <ele>1142.0</ele>
        <time>2020-09-29T11:27:41Z</time>
      </trkpt>
      <trkpt lat="41.0483980" lon="-3.5247500">
        <ele>1142.0</ele>
        <time>2020-09-29T11:27:42Z</time>
      </trkpt>
      <trkpt lat="41.0484270" lon="-3.5246300">
        <ele>1143.0</ele>
        <time>2020-09-29T11:27:43Z</time>
      </trkpt>
      <trkpt lat="41.0484400" lon="-3.5245700">
        <ele>1143.0</ele>
        <time>2020-09-29T11:27:44Z</time>
      </trkpt>
      <trkpt lat="41.0484400" lon="-3.5245700">
        <ele>1143.0</ele>
        <time>2020-09-29T11:27:45Z</time>
      </trkpt>
      <trkpt lat="41.0484670" lon="-3.5244500">
        <ele>1143.0</ele>
        <time>2020-09-29T11:27:46Z</time>
      </trkpt>
      <trkpt lat="41.0484670" lon="-3.5244500">
        <ele>1143.0</ele>
        <time>2020-09-29T11:27:47Z</time>
      </trkpt>
      <trkpt lat="41.0485000" lon="-3.5243330">
        <ele>1143.0</ele>
        <time>2020-09-29T11:27:48Z</time>
      </trkpt>
      <trkpt lat="41.0485200" lon="-3.5242780">
        <ele>1143.0</ele>
        <time>2020-09-29T11:27:49Z</time>
      </trkpt>
      <trkpt lat="41.0485200" lon="-3.5242780">
        <ele>1144.0</ele>
        <time>2020-09-29T11:27:50Z</time>
      </trkpt>
      <trkpt lat="41.0485600" lon="-3.5241700">
        <ele>1144.0</ele>
        <time>2020-09-29T11:27:51Z</time>
      </trkpt>
      <trkpt lat="41.0485600" lon="-3.5241700">
        <ele>1144.0</ele>
        <time>2020-09-29T11:27:52Z</time>
      </trkpt>
      <trkpt lat="41.0485980" lon="-3.5240630">
        <ele>1144.0</ele>
        <time>2020-09-29T11:27:53Z</time>
      </trkpt>
      <trkpt lat="41.0486180" lon="-3.5240120">
        <ele>1145.0</ele>
        <time>2020-09-29T11:27:54Z</time>
      </trkpt>
      <trkpt lat="41.0486400" lon="-3.5239580">
        <ele>1145.0</ele>
        <time>2020-09-29T11:27:55Z</time>
      </trkpt>
      <trkpt lat="41.0486400" lon="-3.5239580">
        <ele>1145.0</ele>
        <time>2020-09-29T11:27:56Z</time>
      </trkpt>
      <trkpt lat="41.0486780" lon="-3.5238480">
        <ele>1145.0</ele>
        <time>2020-09-29T11:27:57Z</time>
      </trkpt>
      <trkpt lat="41.0486780" lon="-3.5238480">
        <ele>1146.0</ele>
        <time>2020-09-29T11:27:58Z</time>
      </trkpt>
      <trkpt lat="41.0487230" lon="-3.5237370">
        <ele>1146.0</ele>
        <time>2020-09-29T11:27:59Z</time>
      </trkpt>
      <trkpt lat="41.0487230" lon="-3.5237370">
        <ele>1146.0</ele>
        <time>2020-09-29T11:28:00Z</time>
      </trkpt>
      <trkpt lat="41.0487680" lon="-3.5236280">
        <ele>1146.0</ele>
        <time>2020-09-29T11:28:01Z</time>
      </trkpt>
      <trkpt lat="41.0487680" lon="-3.5236280">
        <ele>1146.0</ele>
        <time>2020-09-29T11:28:02Z</time>
      </trkpt>
      <trkpt lat="41.0488180" lon="-3.5235150">
        <ele>1147.0</ele>
        <time>2020-09-29T11:28:03Z</time>
      </trkpt>
      <trkpt lat="41.0488420" lon="-3.5234620">
        <ele>1147.0</ele>
        <time>2020-09-29T11:28:04Z</time>
      </trkpt>
      <trkpt lat="41.0488420" lon="-3.5234620">
        <ele>1147.0</ele>
        <time>2020-09-29T11:28:05Z</time>
      </trkpt>
      <trkpt lat="41.0488900" lon="-3.5233570">
        <ele>1147.0</ele>
        <time>2020-09-29T11:28:06Z</time>
      </trkpt>
      <trkpt lat="41.0488900" lon="-3.5233570">
        <ele>1147.0</ele>
        <time>2020-09-29T11:28:07Z</time>
      </trkpt>
      <trkpt lat="41.0489330" lon="-3.5232480">
        <ele>1147.0</ele>
        <time>2020-09-29T11:28:08Z</time>
      </trkpt>
      <trkpt lat="41.0489330" lon="-3.5232480">
        <ele>1148.0</ele>
        <time>2020-09-29T11:28:09Z</time>
      </trkpt>
      <trkpt lat="41.0489770" lon="-3.5231420">
        <ele>1148.0</ele>
        <time>2020-09-29T11:28:10Z</time>
      </trkpt>
      <trkpt lat="41.0489770" lon="-3.5231420">
        <ele>1148.0</ele>
        <time>2020-09-29T11:28:11Z</time>
      </trkpt>
      <trkpt lat="41.0490200" lon="-3.5230320">
        <ele>1148.0</ele>
        <time>2020-09-29T11:28:12Z</time>
      </trkpt>
      <trkpt lat="41.0490420" lon="-3.5229770">
        <ele>1148.0</ele>
        <time>2020-09-29T11:28:13Z</time>
      </trkpt>
      <trkpt lat="41.0490420" lon="-3.5229770">
        <ele>1148.0</ele>
        <time>2020-09-29T11:28:14Z</time>
      </trkpt>
      <trkpt lat="41.0490850" lon="-3.5228650">
        <ele>1149.0</ele>
        <time>2020-09-29T11:28:15Z</time>
      </trkpt>
      <trkpt lat="41.0490850" lon="-3.5228650">
        <ele>1149.0</ele>
        <time>2020-09-29T11:28:16Z</time>
      </trkpt>
      <trkpt lat="41.0491300" lon="-3.5227570">
        <ele>1149.0</ele>
        <time>2020-09-29T11:28:17Z</time>
      </trkpt>
      <trkpt lat="41.0491520" lon="-3.5227020">
        <ele>1149.0</ele>
        <time>2020-09-29T11:28:18Z</time>
      </trkpt>
      <trkpt lat="41.0491720" lon="-3.5226450">
        <ele>1149.0</ele>
        <time>2020-09-29T11:28:19Z</time>
      </trkpt>
      <trkpt lat="41.0491720" lon="-3.5226450">
        <ele>1149.0</ele>
        <time>2020-09-29T11:28:20Z</time>
      </trkpt>
      <trkpt lat="41.0492130" lon="-3.5225320">
        <ele>1150.0</ele>
        <time>2020-09-29T11:28:21Z</time>
      </trkpt>
      <trkpt lat="41.0492130" lon="-3.5225320">
        <ele>1150.0</ele>
        <time>2020-09-29T11:28:22Z</time>
      </trkpt>
      <trkpt lat="41.0492570" lon="-3.5224150">
        <ele>1150.0</ele>
        <time>2020-09-29T11:28:23Z</time>
      </trkpt>
      <trkpt lat="41.0492570" lon="-3.5224150">
        <ele>1150.0</ele>
        <time>2020-09-29T11:28:24Z</time>
      </trkpt>
      <trkpt lat="41.0493030" lon="-3.5222980">
        <ele>1150.0</ele>
        <time>2020-09-29T11:28:25Z</time>
      </trkpt>
      <trkpt lat="41.0493030" lon="-3.5222980">
        <ele>1150.0</ele>
        <time>2020-09-29T11:28:26Z</time>
      </trkpt>
      <trkpt lat="41.0493480" lon="-3.5221730">
        <ele>1150.0</ele>
        <time>2020-09-29T11:28:27Z</time>
      </trkpt>
      <trkpt lat="41.0493480" lon="-3.5221730">
        <ele>1150.0</ele>
        <time>2020-09-29T11:28:28Z</time>
      </trkpt>
      <trkpt lat="41.0493970" lon="-3.5220470">
        <ele>1150.0</ele>
        <time>2020-09-29T11:28:29Z</time>
      </trkpt>
      <trkpt lat="41.0493970" lon="-3.5220470">
        <ele>1150.0</ele>
        <time>2020-09-29T11:28:30Z</time>
      </trkpt>
      <trkpt lat="41.0494430" lon="-3.5219170">
        <ele>1150.0</ele>
        <time>2020-09-29T11:28:31Z</time>
      </trkpt>
      <trkpt lat="41.0494430" lon="-3.5219170">
        <ele>1150.0</ele>
        <time>2020-09-29T11:28:32Z</time>
      </trkpt>
      <trkpt lat="41.0494930" lon="-3.5217830">
        <ele>1150.0</ele>
        <time>2020-09-29T11:28:33Z</time>
      </trkpt>
      <trkpt lat="41.0494930" lon="-3.5217830">
        <ele>1150.0</ele>
        <time>2020-09-29T11:28:34Z</time>
      </trkpt>
      <trkpt lat="41.0495430" lon="-3.5216470">
        <ele>1150.0</ele>
        <time>2020-09-29T11:28:35Z</time>
      </trkpt>
      <trkpt lat="41.0495700" lon="-3.5215770">
        <ele>1150.0</ele>
        <time>2020-09-29T11:28:36Z</time>
      </trkpt>
      <trkpt lat="41.0495700" lon="-3.5215770">
        <ele>1150.0</ele>
        <time>2020-09-29T11:28:37Z</time>
      </trkpt>
      <trkpt lat="41.0496220" lon="-3.5214350">
        <ele>1150.0</ele>
        <time>2020-09-29T11:28:38Z</time>
      </trkpt>
      <trkpt lat="41.0496220" lon="-3.5214350">
        <ele>1150.0</ele>
        <time>2020-09-29T11:28:39Z</time>
      </trkpt>
      <trkpt lat="41.0496750" lon="-3.5212920">
        <ele>1150.0</ele>
        <time>2020-09-29T11:28:40Z</time>
      </trkpt>
      <trkpt lat="41.0496750" lon="-3.5212920">
        <ele>1150.0</ele>
        <time>2020-09-29T11:28:41Z</time>
      </trkpt>
      <trkpt lat="41.0497300" lon="-3.5211480">
        <ele>1150.0</ele>
        <time>2020-09-29T11:28:42Z</time>
      </trkpt>
      <trkpt lat="41.0497600" lon="-3.5210750">
        <ele>1150.0</ele>
        <time>2020-09-29T11:28:43Z</time>
      </trkpt>
      <trkpt lat="41.0497600" lon="-3.5210750">
        <ele>1150.0</ele>
        <time>2020-09-29T11:28:44Z</time>
      </trkpt>
      <trkpt lat="41.0498150" lon="-3.5209320">
        <ele>1150.0</ele>
        <time>2020-09-29T11:28:45Z</time>
      </trkpt>
      <trkpt lat="41.0498430" lon="-3.5208580">
        <ele>1150.0</ele>
        <time>2020-09-29T11:28:46Z</time>
      </trkpt>
      <trkpt lat="41.0498430" lon="-3.5208580">
        <ele>1150.0</ele>
        <time>2020-09-29T11:28:47Z</time>
      </trkpt>
      <trkpt lat="41.0498980" lon="-3.5207130">
        <ele>1150.0</ele>
        <time>2020-09-29T11:28:48Z</time>
      </trkpt>
      <trkpt lat="41.0499270" lon="-3.5206420">
        <ele>1150.0</ele>
        <time>2020-09-29T11:28:49Z</time>
      </trkpt>
      <trkpt lat="41.0499270" lon="-3.5206420">
        <ele>1150.0</ele>
        <time>2020-09-29T11:28:50Z</time>
      </trkpt>
      <trkpt lat="41.0499820" lon="-3.5204980">
        <ele>1150.0</ele>
        <time>2020-09-29T11:28:51Z</time>
      </trkpt>
      <trkpt lat="41.0499820" lon="-3.5204980">
        <ele>1150.0</ele>
        <time>2020-09-29T11:28:52Z</time>
      </trkpt>
      <trkpt lat="41.0500350" lon="-3.5203550">
        <ele>1150.0</ele>
        <time>2020-09-29T11:28:53Z</time>
      </trkpt>
      <trkpt lat="41.0500620" lon="-3.5202830">
        <ele>1150.0</ele>
        <time>2020-09-29T11:28:54Z</time>
      </trkpt>
      <trkpt lat="41.0500870" lon="-3.5202100">
        <ele>1150.0</ele>
        <time>2020-09-29T11:28:55Z</time>
      </trkpt>
      <trkpt lat="41.0500870" lon="-3.5202100">
        <ele>1150.0</ele>
        <time>2020-09-29T11:28:56Z</time>
      </trkpt>
      <trkpt lat="41.0501370" lon="-3.5200650">
        <ele>1150.0</ele>
        <time>2020-09-29T11:28:57Z</time>
      </trkpt>
      <trkpt lat="41.0501370" lon="-3.5200650">
        <ele>1150.0</ele>
        <time>2020-09-29T11:28:58Z</time>
      </trkpt>
      <trkpt lat="41.0501850" lon="-3.5199270">
        <ele>1150.0</ele>
        <time>2020-09-29T11:28:59Z</time>
      </trkpt>
      <trkpt lat="41.0502050" lon="-3.5198630">
        <ele>1150.0</ele>
        <time>2020-09-29T11:29:00Z</time>
      </trkpt>
      <trkpt lat="41.0502050" lon="-3.5198630">
        <ele>1150.0</ele>
        <time>2020-09-29T11:29:01Z</time>
      </trkpt>
      <trkpt lat="41.0502500" lon="-3.5197330">
        <ele>1150.0</ele>
        <time>2020-09-29T11:29:02Z</time>
      </trkpt>
      <trkpt lat="41.0502700" lon="-3.5196730">
        <ele>1150.0</ele>
        <time>2020-09-29T11:29:03Z</time>
      </trkpt>
      <trkpt lat="41.0502700" lon="-3.5196730">
        <ele>1150.0</ele>
        <time>2020-09-29T11:29:04Z</time>
      </trkpt>
      <trkpt lat="41.0503130" lon="-3.5195570">
        <ele>1151.0</ele>
        <time>2020-09-29T11:29:05Z</time>
      </trkpt>
      <trkpt lat="41.0503370" lon="-3.5195000">
        <ele>1151.0</ele>
        <time>2020-09-29T11:29:06Z</time>
      </trkpt>
      <trkpt lat="41.0503370" lon="-3.5195000">
        <ele>1151.0</ele>
        <time>2020-09-29T11:29:07Z</time>
      </trkpt>
      <trkpt lat="41.0503780" lon="-3.5193850">
        <ele>1151.0</ele>
        <time>2020-09-29T11:29:08Z</time>
      </trkpt>
      <trkpt lat="41.0503780" lon="-3.5193850">
        <ele>1151.0</ele>
        <time>2020-09-29T11:29:09Z</time>
      </trkpt>
      <trkpt lat="41.0504200" lon="-3.5192750">
        <ele>1151.0</ele>
        <time>2020-09-29T11:29:10Z</time>
      </trkpt>
      <trkpt lat="41.0504400" lon="-3.5192200">
        <ele>1151.0</ele>
        <time>2020-09-29T11:29:11Z</time>
      </trkpt>
      <trkpt lat="41.0504600" lon="-3.5191650">
        <ele>1152.0</ele>
        <time>2020-09-29T11:29:12Z</time>
      </trkpt>
      <trkpt lat="41.0504800" lon="-3.5191120">
        <ele>1152.0</ele>
        <time>2020-09-29T11:29:13Z</time>
      </trkpt>
      <trkpt lat="41.0504800" lon="-3.5191120">
        <ele>1152.0</ele>
        <time>2020-09-29T11:29:14Z</time>
      </trkpt>
      <trkpt lat="41.0505230" lon="-3.5190120">
        <ele>1152.0</ele>
        <time>2020-09-29T11:29:15Z</time>
      </trkpt>
      <trkpt lat="41.0505230" lon="-3.5190120">
        <ele>1152.0</ele>
        <time>2020-09-29T11:29:16Z</time>
      </trkpt>
      <trkpt lat="41.0505620" lon="-3.5189070">
        <ele>1152.0</ele>
        <time>2020-09-29T11:29:17Z</time>
      </trkpt>
      <trkpt lat="41.0505620" lon="-3.5189070">
        <ele>1153.0</ele>
        <time>2020-09-29T11:29:18Z</time>
      </trkpt>
      <trkpt lat="41.0505970" lon="-3.5188030">
        <ele>1153.0</ele>
        <time>2020-09-29T11:29:19Z</time>
      </trkpt>
      <trkpt lat="41.0505970" lon="-3.5188030">
        <ele>1153.0</ele>
        <time>2020-09-29T11:29:20Z</time>
      </trkpt>
      <trkpt lat="41.0506270" lon="-3.5187000">
        <ele>1153.0</ele>
        <time>2020-09-29T11:29:21Z</time>
      </trkpt>
      <trkpt lat="41.0506400" lon="-3.5186470">
        <ele>1154.0</ele>
        <time>2020-09-29T11:29:22Z</time>
      </trkpt>
      <trkpt lat="41.0506400" lon="-3.5186470">
        <ele>1154.0</ele>
        <time>2020-09-29T11:29:23Z</time>
      </trkpt>
      <trkpt lat="41.0506550" lon="-3.5185450">
        <ele>1154.0</ele>
        <time>2020-09-29T11:29:24Z</time>
      </trkpt>
      <trkpt lat="41.0506550" lon="-3.5185450">
        <ele>1154.0</ele>
        <time>2020-09-29T11:29:25Z</time>
      </trkpt>
      <trkpt lat="41.0506600" lon="-3.5184530">
        <ele>1155.0</ele>
        <time>2020-09-29T11:29:26Z</time>
      </trkpt>
      <trkpt lat="41.0506580" lon="-3.5184100">
        <ele>1155.0</ele>
        <time>2020-09-29T11:29:27Z</time>
      </trkpt>
      <trkpt lat="41.0506580" lon="-3.5184100">
        <ele>1155.0</ele>
        <time>2020-09-29T11:29:28Z</time>
      </trkpt>
      <trkpt lat="41.0506580" lon="-3.5183230">
        <ele>1155.0</ele>
        <time>2020-09-29T11:29:29Z</time>
      </trkpt>
      <trkpt lat="41.0506580" lon="-3.5183230">
        <ele>1156.0</ele>
        <time>2020-09-29T11:29:30Z</time>
      </trkpt>
      <trkpt lat="41.0506580" lon="-3.5183230">
        <ele>1156.0</ele>
        <time>2020-09-29T11:29:31Z</time>
      </trkpt>
      <trkpt lat="41.0506570" lon="-3.5182370">
        <ele>1156.0</ele>
        <time>2020-09-29T11:29:32Z</time>
      </trkpt>
      <trkpt lat="41.0506520" lon="-3.5181500">
        <ele>1156.0</ele>
        <time>2020-09-29T11:29:33Z</time>
      </trkpt>
      <trkpt lat="41.0506520" lon="-3.5181500">
        <ele>1156.0</ele>
        <time>2020-09-29T11:29:34Z</time>
      </trkpt>
      <trkpt lat="41.0506480" lon="-3.5180650">
        <ele>1156.0</ele>
        <time>2020-09-29T11:29:35Z</time>
      </trkpt>
      <trkpt lat="41.0506480" lon="-3.5180650">
        <ele>1157.0</ele>
        <time>2020-09-29T11:29:36Z</time>
      </trkpt>
      <trkpt lat="41.0506450" lon="-3.5179820">
        <ele>1157.0</ele>
        <time>2020-09-29T11:29:37Z</time>
      </trkpt>
      <trkpt lat="41.0506420" lon="-3.5179420">
        <ele>1157.0</ele>
        <time>2020-09-29T11:29:38Z</time>
      </trkpt>
      <trkpt lat="41.0506420" lon="-3.5179420">
        <ele>1157.0</ele>
        <time>2020-09-29T11:29:39Z</time>
      </trkpt>
      <trkpt lat="41.0506380" lon="-3.5178620">
        <ele>1158.0</ele>
        <time>2020-09-29T11:29:40Z</time>
      </trkpt>
      <trkpt lat="41.0506380" lon="-3.5178620">
        <ele>1158.0</ele>
        <time>2020-09-29T11:29:41Z</time>
      </trkpt>
      <trkpt lat="41.0506370" lon="-3.5177830">
        <ele>1158.0</ele>
        <time>2020-09-29T11:29:42Z</time>
      </trkpt>
      <trkpt lat="41.0506370" lon="-3.5177830">
        <ele>1158.0</ele>
        <time>2020-09-29T11:29:43Z</time>
      </trkpt>
      <trkpt lat="41.0506350" lon="-3.5177020">
        <ele>1158.0</ele>
        <time>2020-09-29T11:29:44Z</time>
      </trkpt>
      <trkpt lat="41.0506330" lon="-3.5176620">
        <ele>1158.0</ele>
        <time>2020-09-29T11:29:45Z</time>
      </trkpt>
      <trkpt lat="41.0506330" lon="-3.5176620">
        <ele>1159.0</ele>
        <time>2020-09-29T11:29:46Z</time>
      </trkpt>
      <trkpt lat="41.0506320" lon="-3.5175820">
        <ele>1159.0</ele>
        <time>2020-09-29T11:29:47Z</time>
      </trkpt>
      <trkpt lat="41.0506300" lon="-3.5175420">
        <ele>1159.0</ele>
        <time>2020-09-29T11:29:48Z</time>
      </trkpt>
      <trkpt lat="41.0506270" lon="-3.5175030">
        <ele>1160.0</ele>
        <time>2020-09-29T11:29:49Z</time>
      </trkpt>
      <trkpt lat="41.0506220" lon="-3.5174650">
        <ele>1160.0</ele>
        <time>2020-09-29T11:29:50Z</time>
      </trkpt>
      <trkpt lat="41.0506220" lon="-3.5174650">
        <ele>1160.0</ele>
        <time>2020-09-29T11:29:51Z</time>
      </trkpt>
      <trkpt lat="41.0506180" lon="-3.5173870">
        <ele>1160.0</ele>
        <time>2020-09-29T11:29:52Z</time>
      </trkpt>
      <trkpt lat="41.0506180" lon="-3.5173870">
        <ele>1161.0</ele>
        <time>2020-09-29T11:29:53Z</time>
      </trkpt>
      <trkpt lat="41.0506170" lon="-3.5173080">
        <ele>1161.0</ele>
        <time>2020-09-29T11:29:54Z</time>
      </trkpt>
      <trkpt lat="41.0506170" lon="-3.5173080">
        <ele>1161.0</ele>
        <time>2020-09-29T11:29:55Z</time>
      </trkpt>
      <trkpt lat="41.0506150" lon="-3.5172270">
        <ele>1161.0</ele>
        <time>2020-09-29T11:29:56Z</time>
      </trkpt>
      <trkpt lat="41.0506150" lon="-3.5172270">
        <ele>1161.0</ele>
        <time>2020-09-29T11:29:57Z</time>
      </trkpt>
      <trkpt lat="41.0506130" lon="-3.5171470">
        <ele>1161.0</ele>
        <time>2020-09-29T11:29:58Z</time>
      </trkpt>
      <trkpt lat="41.0506100" lon="-3.5171080">
        <ele>1162.0</ele>
        <time>2020-09-29T11:29:59Z</time>
      </trkpt>
      <trkpt lat="41.0506100" lon="-3.5170700">
        <ele>1162.0</ele>
        <time>2020-09-29T11:30:00Z</time>
      </trkpt>
      <trkpt lat="41.0506100" lon="-3.5170320">
        <ele>1162.0</ele>
        <time>2020-09-29T11:30:01Z</time>
      </trkpt>
      <trkpt lat="41.0506100" lon="-3.5170320">
        <ele>1162.0</ele>
        <time>2020-09-29T11:30:02Z</time>
      </trkpt>
      <trkpt lat="41.0506100" lon="-3.5169520">
        <ele>1162.0</ele>
        <time>2020-09-29T11:30:03Z</time>
      </trkpt>
      <trkpt lat="41.0506100" lon="-3.5169520">
        <ele>1162.0</ele>
        <time>2020-09-29T11:30:04Z</time>
      </trkpt>
      <trkpt lat="41.0506050" lon="-3.5168720">
        <ele>1163.0</ele>
        <time>2020-09-29T11:30:05Z</time>
      </trkpt>
      <trkpt lat="41.0506050" lon="-3.5168720">
        <ele>1163.0</ele>
        <time>2020-09-29T11:30:06Z</time>
      </trkpt>
      <trkpt lat="41.0506020" lon="-3.5167920">
        <ele>1163.0</ele>
        <time>2020-09-29T11:30:07Z</time>
      </trkpt>
      <trkpt lat="41.0506020" lon="-3.5167520">
        <ele>1163.0</ele>
        <time>2020-09-29T11:30:08Z</time>
      </trkpt>
      <trkpt lat="41.0506020" lon="-3.5167520">
        <ele>1163.0</ele>
        <time>2020-09-29T11:30:09Z</time>
      </trkpt>
      <trkpt lat="41.0505970" lon="-3.5166730">
        <ele>1163.0</ele>
        <time>2020-09-29T11:30:10Z</time>
      </trkpt>
      <trkpt lat="41.0505970" lon="-3.5166730">
        <ele>1164.0</ele>
        <time>2020-09-29T11:30:11Z</time>
      </trkpt>
      <trkpt lat="41.0505930" lon="-3.5165930">
        <ele>1164.0</ele>
        <time>2020-09-29T11:30:12Z</time>
      </trkpt>
      <trkpt lat="41.0505930" lon="-3.5165930">
        <ele>1164.0</ele>
        <time>2020-09-29T11:30:13Z</time>
      </trkpt>
      <trkpt lat="41.0505900" lon="-3.5165120">
        <ele>1164.0</ele>
        <time>2020-09-29T11:30:14Z</time>
      </trkpt>
      <trkpt lat="41.0505900" lon="-3.5165120">
        <ele>1164.0</ele>
        <time>2020-09-29T11:30:15Z</time>
      </trkpt>
      <trkpt lat="41.0505850" lon="-3.5164280">
        <ele>1164.0</ele>
        <time>2020-09-29T11:30:16Z</time>
      </trkpt>
      <trkpt lat="41.0505850" lon="-3.5164280">
        <ele>1164.0</ele>
        <time>2020-09-29T11:30:17Z</time>
      </trkpt>
      <trkpt lat="41.0505820" lon="-3.5163470">
        <ele>1165.0</ele>
        <time>2020-09-29T11:30:18Z</time>
      </trkpt>
      <trkpt lat="41.0505800" lon="-3.5163030">
        <ele>1165.0</ele>
        <time>2020-09-29T11:30:19Z</time>
      </trkpt>
      <trkpt lat="41.0505800" lon="-3.5163030">
        <ele>1165.0</ele>
        <time>2020-09-29T11:30:20Z</time>
      </trkpt>
      <trkpt lat="41.0505770" lon="-3.5162200">
        <ele>1165.0</ele>
        <time>2020-09-29T11:30:21Z</time>
      </trkpt>
      <trkpt lat="41.0505750" lon="-3.5161800">
        <ele>1166.0</ele>
        <time>2020-09-29T11:30:22Z</time>
      </trkpt>
      <trkpt lat="41.0505750" lon="-3.5161800">
        <ele>1166.0</ele>
        <time>2020-09-29T11:30:23Z</time>
      </trkpt>
      <trkpt lat="41.0505730" lon="-3.5161020">
        <ele>1166.0</ele>
        <time>2020-09-29T11:30:24Z</time>
      </trkpt>
      <trkpt lat="41.0505720" lon="-3.5160620">
        <ele>1167.0</ele>
        <time>2020-09-29T11:30:25Z</time>
      </trkpt>
      <trkpt lat="41.0505720" lon="-3.5160620">
        <ele>1167.0</ele>
        <time>2020-09-29T11:30:26Z</time>
      </trkpt>
      <trkpt lat="41.0505650" lon="-3.5159780">
        <ele>1167.0</ele>
        <time>2020-09-29T11:30:27Z</time>
      </trkpt>
      <trkpt lat="41.0505620" lon="-3.5159380">
        <ele>1167.0</ele>
        <time>2020-09-29T11:30:28Z</time>
      </trkpt>
      <trkpt lat="41.0505620" lon="-3.5159380">
        <ele>1168.0</ele>
        <time>2020-09-29T11:30:29Z</time>
      </trkpt>
      <trkpt lat="41.0505630" lon="-3.5158570">
        <ele>1168.0</ele>
        <time>2020-09-29T11:30:30Z</time>
      </trkpt>
      <trkpt lat="41.0505630" lon="-3.5158170">
        <ele>1168.0</ele>
        <time>2020-09-29T11:30:31Z</time>
      </trkpt>
      <trkpt lat="41.0505630" lon="-3.5158170">
        <ele>1168.0</ele>
        <time>2020-09-29T11:30:32Z</time>
      </trkpt>
      <trkpt lat="41.0505580" lon="-3.5157330">
        <ele>1169.0</ele>
        <time>2020-09-29T11:30:33Z</time>
      </trkpt>
      <trkpt lat="41.0505580" lon="-3.5157330">
        <ele>1169.0</ele>
        <time>2020-09-29T11:30:34Z</time>
      </trkpt>
      <trkpt lat="41.0505620" lon="-3.5156530">
        <ele>1169.0</ele>
        <time>2020-09-29T11:30:35Z</time>
      </trkpt>
      <trkpt lat="41.0505620" lon="-3.5156530">
        <ele>1169.0</ele>
        <time>2020-09-29T11:30:36Z</time>
      </trkpt>
      <trkpt lat="41.0505650" lon="-3.5155750">
        <ele>1170.0</ele>
        <time>2020-09-29T11:30:37Z</time>
      </trkpt>
      <trkpt lat="41.0505650" lon="-3.5155750">
        <ele>1170.0</ele>
        <time>2020-09-29T11:30:38Z</time>
      </trkpt>
      <trkpt lat="41.0505670" lon="-3.5154970">
        <ele>1170.0</ele>
        <time>2020-09-29T11:30:39Z</time>
      </trkpt>
      <trkpt lat="41.0505670" lon="-3.5154970">
        <ele>1170.0</ele>
        <time>2020-09-29T11:30:40Z</time>
      </trkpt>
      <trkpt lat="41.0505620" lon="-3.5154170">
        <ele>1170.0</ele>
        <time>2020-09-29T11:30:41Z</time>
      </trkpt>
      <trkpt lat="41.0505620" lon="-3.5154170">
        <ele>1171.0</ele>
        <time>2020-09-29T11:30:42Z</time>
      </trkpt>
      <trkpt lat="41.0505530" lon="-3.5153380">
        <ele>1171.0</ele>
        <time>2020-09-29T11:30:43Z</time>
      </trkpt>
      <trkpt lat="41.0505530" lon="-3.5153380">
        <ele>1171.0</ele>
        <time>2020-09-29T11:30:44Z</time>
      </trkpt>
      <trkpt lat="41.0505500" lon="-3.5152570">
        <ele>1171.0</ele>
        <time>2020-09-29T11:30:45Z</time>
      </trkpt>
      <trkpt lat="41.0505500" lon="-3.5152570">
        <ele>1172.0</ele>
        <time>2020-09-29T11:30:46Z</time>
      </trkpt>
      <trkpt lat="41.0505530" lon="-3.5151750">
        <ele>1172.0</ele>
        <time>2020-09-29T11:30:47Z</time>
      </trkpt>
      <trkpt lat="41.0505530" lon="-3.5151330">
        <ele>1172.0</ele>
        <time>2020-09-29T11:30:48Z</time>
      </trkpt>
      <trkpt lat="41.0505520" lon="-3.5150950">
        <ele>1172.0</ele>
        <time>2020-09-29T11:30:49Z</time>
      </trkpt>
      <trkpt lat="41.0505520" lon="-3.5150950">
        <ele>1174.0</ele>
        <time>2020-09-29T11:30:50Z</time>
      </trkpt>
      <trkpt lat="41.0505470" lon="-3.5150100">
        <ele>1174.0</ele>
        <time>2020-09-29T11:30:51Z</time>
      </trkpt>
      <trkpt lat="41.0505470" lon="-3.5150100">
        <ele>1174.0</ele>
        <time>2020-09-29T11:30:52Z</time>
      </trkpt>
      <trkpt lat="41.0505500" lon="-3.5149250">
        <ele>1174.0</ele>
        <time>2020-09-29T11:30:53Z</time>
      </trkpt>
      <trkpt lat="41.0505550" lon="-3.5148830">
        <ele>1174.0</ele>
        <time>2020-09-29T11:30:54Z</time>
      </trkpt>
      <trkpt lat="41.0505550" lon="-3.5148830">
        <ele>1174.0</ele>
        <time>2020-09-29T11:30:55Z</time>
      </trkpt>
      <trkpt lat="41.0505550" lon="-3.5147980">
        <ele>1174.0</ele>
        <time>2020-09-29T11:30:56Z</time>
      </trkpt>
      <trkpt lat="41.0505550" lon="-3.5147980">
        <ele>1174.0</ele>
        <time>2020-09-29T11:30:57Z</time>
      </trkpt>
      <trkpt lat="41.0505580" lon="-3.5147030">
        <ele>1174.0</ele>
        <time>2020-09-29T11:30:58Z</time>
      </trkpt>
      <trkpt lat="41.0505580" lon="-3.5147030">
        <ele>1175.0</ele>
        <time>2020-09-29T11:30:59Z</time>
      </trkpt>
      <trkpt lat="41.0505650" lon="-3.5146120">
        <ele>1175.0</ele>
        <time>2020-09-29T11:31:00Z</time>
      </trkpt>
      <trkpt lat="41.0505700" lon="-3.5145630">
        <ele>1175.0</ele>
        <time>2020-09-29T11:31:01Z</time>
      </trkpt>
      <trkpt lat="41.0505780" lon="-3.5145150">
        <ele>1175.0</ele>
        <time>2020-09-29T11:31:02Z</time>
      </trkpt>
      <trkpt lat="41.0505780" lon="-3.5145150">
        <ele>1175.0</ele>
        <time>2020-09-29T11:31:03Z</time>
      </trkpt>
      <trkpt lat="41.0505900" lon="-3.5144200">
        <ele>1176.0</ele>
        <time>2020-09-29T11:31:04Z</time>
      </trkpt>
      <trkpt lat="41.0505900" lon="-3.5144200">
        <ele>1176.0</ele>
        <time>2020-09-29T11:31:05Z</time>
      </trkpt>
      <trkpt lat="41.0505950" lon="-3.5143280">
        <ele>1176.0</ele>
        <time>2020-09-29T11:31:06Z</time>
      </trkpt>
      <trkpt lat="41.0506000" lon="-3.5142830">
        <ele>1176.0</ele>
        <time>2020-09-29T11:31:07Z</time>
      </trkpt>
      <trkpt lat="41.0506000" lon="-3.5142830">
        <ele>1176.0</ele>
        <time>2020-09-29T11:31:08Z</time>
      </trkpt>
      <trkpt lat="41.0506070" lon="-3.5141900">
        <ele>1176.0</ele>
        <time>2020-09-29T11:31:09Z</time>
      </trkpt>
      <trkpt lat="41.0506120" lon="-3.5141400">
        <ele>1177.0</ele>
        <time>2020-09-29T11:31:10Z</time>
      </trkpt>
      <trkpt lat="41.0506120" lon="-3.5141400">
        <ele>1177.0</ele>
        <time>2020-09-29T11:31:11Z</time>
      </trkpt>
      <trkpt lat="41.0506270" lon="-3.5140420">
        <ele>1177.0</ele>
        <time>2020-09-29T11:31:12Z</time>
      </trkpt>
      <trkpt lat="41.0506330" lon="-3.5139930">
        <ele>1177.0</ele>
        <time>2020-09-29T11:31:13Z</time>
      </trkpt>
      <trkpt lat="41.0506330" lon="-3.5139930">
        <ele>1177.0</ele>
        <time>2020-09-29T11:31:14Z</time>
      </trkpt>
      <trkpt lat="41.0506450" lon="-3.5138970">
        <ele>1177.0</ele>
        <time>2020-09-29T11:31:15Z</time>
      </trkpt>
      <trkpt lat="41.0506530" lon="-3.5138480">
        <ele>1177.0</ele>
        <time>2020-09-29T11:31:16Z</time>
      </trkpt>
      <trkpt lat="41.0506530" lon="-3.5138480">
        <ele>1177.0</ele>
        <time>2020-09-29T11:31:17Z</time>
      </trkpt>
      <trkpt lat="41.0506670" lon="-3.5137530">
        <ele>1177.0</ele>
        <time>2020-09-29T11:31:18Z</time>
      </trkpt>
      <trkpt lat="41.0506730" lon="-3.5137070">
        <ele>1177.0</ele>
        <time>2020-09-29T11:31:19Z</time>
      </trkpt>
      <trkpt lat="41.0506730" lon="-3.5137070">
        <ele>1178.0</ele>
        <time>2020-09-29T11:31:20Z</time>
      </trkpt>
      <trkpt lat="41.0506850" lon="-3.5136150">
        <ele>1178.0</ele>
        <time>2020-09-29T11:31:21Z</time>
      </trkpt>
      <trkpt lat="41.0506850" lon="-3.5136150">
        <ele>1178.0</ele>
        <time>2020-09-29T11:31:22Z</time>
      </trkpt>
      <trkpt lat="41.0507000" lon="-3.5135250">
        <ele>1178.0</ele>
        <time>2020-09-29T11:31:23Z</time>
      </trkpt>
      <trkpt lat="41.0507000" lon="-3.5135250">
        <ele>1178.0</ele>
        <time>2020-09-29T11:31:24Z</time>
      </trkpt>
      <trkpt lat="41.0507180" lon="-3.5134370">
        <ele>1178.0</ele>
        <time>2020-09-29T11:31:25Z</time>
      </trkpt>
      <trkpt lat="41.0507180" lon="-3.5134370">
        <ele>1178.0</ele>
        <time>2020-09-29T11:31:26Z</time>
      </trkpt>
      <trkpt lat="41.0507320" lon="-3.5133500">
        <ele>1178.0</ele>
        <time>2020-09-29T11:31:27Z</time>
      </trkpt>
      <trkpt lat="41.0507380" lon="-3.5133070">
        <ele>1178.0</ele>
        <time>2020-09-29T11:31:28Z</time>
      </trkpt>
      <trkpt lat="41.0507380" lon="-3.5133070">
        <ele>1178.0</ele>
        <time>2020-09-29T11:31:29Z</time>
      </trkpt>
      <trkpt lat="41.0507480" lon="-3.5132180">
        <ele>1178.0</ele>
        <time>2020-09-29T11:31:30Z</time>
      </trkpt>
      <trkpt lat="41.0507480" lon="-3.5132180">
        <ele>1178.0</ele>
        <time>2020-09-29T11:31:31Z</time>
      </trkpt>
      <trkpt lat="41.0507630" lon="-3.5131280">
        <ele>1179.0</ele>
        <time>2020-09-29T11:31:32Z</time>
      </trkpt>
      <trkpt lat="41.0507730" lon="-3.5130830">
        <ele>1179.0</ele>
        <time>2020-09-29T11:31:33Z</time>
      </trkpt>
      <trkpt lat="41.0507730" lon="-3.5130830">
        <ele>1179.0</ele>
        <time>2020-09-29T11:31:34Z</time>
      </trkpt>
      <trkpt lat="41.0507880" lon="-3.5129930">
        <ele>1179.0</ele>
        <time>2020-09-29T11:31:35Z</time>
      </trkpt>
      <trkpt lat="41.0507970" lon="-3.5129470">
        <ele>1179.0</ele>
        <time>2020-09-29T11:31:36Z</time>
      </trkpt>
      <trkpt lat="41.0507970" lon="-3.5129470">
        <ele>1179.0</ele>
        <time>2020-09-29T11:31:37Z</time>
      </trkpt>
      <trkpt lat="41.0508100" lon="-3.5128550">
        <ele>1179.0</ele>
        <time>2020-09-29T11:31:38Z</time>
      </trkpt>
      <trkpt lat="41.0508100" lon="-3.5128550">
        <ele>1179.0</ele>
        <time>2020-09-29T11:31:39Z</time>
      </trkpt>
      <trkpt lat="41.0508250" lon="-3.5127630">
        <ele>1179.0</ele>
        <time>2020-09-29T11:31:40Z</time>
      </trkpt>
      <trkpt lat="41.0508250" lon="-3.5127630">
        <ele>1179.0</ele>
        <time>2020-09-29T11:31:41Z</time>
      </trkpt>
      <trkpt lat="41.0508420" lon="-3.5126720">
        <ele>1179.0</ele>
        <time>2020-09-29T11:31:42Z</time>
      </trkpt>
      <trkpt lat="41.0508480" lon="-3.5126280">
        <ele>1179.0</ele>
        <time>2020-09-29T11:31:43Z</time>
      </trkpt>
      <trkpt lat="41.0508480" lon="-3.5126280">
        <ele>1180.0</ele>
        <time>2020-09-29T11:31:44Z</time>
      </trkpt>
      <trkpt lat="41.0508600" lon="-3.5125450">
        <ele>1180.0</ele>
        <time>2020-09-29T11:31:45Z</time>
      </trkpt>
      <trkpt lat="41.0508680" lon="-3.5125020">
        <ele>1180.0</ele>
        <time>2020-09-29T11:31:46Z</time>
      </trkpt>
      <trkpt lat="41.0508680" lon="-3.5125020">
        <ele>1180.0</ele>
        <time>2020-09-29T11:31:47Z</time>
      </trkpt>
      <trkpt lat="41.0508830" lon="-3.5124170">
        <ele>1180.0</ele>
        <time>2020-09-29T11:31:48Z</time>
      </trkpt>
      <trkpt lat="41.0508830" lon="-3.5124170">
        <ele>1180.0</ele>
        <time>2020-09-29T11:31:49Z</time>
      </trkpt>
      <trkpt lat="41.0508970" lon="-3.5123280">
        <ele>1180.0</ele>
        <time>2020-09-29T11:31:50Z</time>
      </trkpt>
      <trkpt lat="41.0509030" lon="-3.5122850">
        <ele>1180.0</ele>
        <time>2020-09-29T11:31:51Z</time>
      </trkpt>
      <trkpt lat="41.0509030" lon="-3.5122850">
        <ele>1180.0</ele>
        <time>2020-09-29T11:31:52Z</time>
      </trkpt>
      <trkpt lat="41.0509180" lon="-3.5121930">
        <ele>1180.0</ele>
        <time>2020-09-29T11:31:53Z</time>
      </trkpt>
      <trkpt lat="41.0509180" lon="-3.5121930">
        <ele>1180.0</ele>
        <time>2020-09-29T11:31:54Z</time>
      </trkpt>
      <trkpt lat="41.0509300" lon="-3.5121050">
        <ele>1180.0</ele>
        <time>2020-09-29T11:31:55Z</time>
      </trkpt>
      <trkpt lat="41.0509300" lon="-3.5121050">
        <ele>1180.0</ele>
        <time>2020-09-29T11:31:56Z</time>
      </trkpt>
      <trkpt lat="41.0509400" lon="-3.5120270">
        <ele>1180.0</ele>
        <time>2020-09-29T11:31:57Z</time>
      </trkpt>
      <trkpt lat="41.0509400" lon="-3.5120270">
        <ele>1181.0</ele>
        <time>2020-09-29T11:31:58Z</time>
      </trkpt>
      <trkpt lat="41.0509570" lon="-3.5119570">
        <ele>1181.0</ele>
        <time>2020-09-29T11:31:59Z</time>
      </trkpt>
      <trkpt lat="41.0509570" lon="-3.5119570">
        <ele>1181.0</ele>
        <time>2020-09-29T11:32:00Z</time>
      </trkpt>
      <trkpt lat="41.0509700" lon="-3.5118800">
        <ele>1181.0</ele>
        <time>2020-09-29T11:32:01Z</time>
      </trkpt>
      <trkpt lat="41.0509700" lon="-3.5118800">
        <ele>1181.0</ele>
        <time>2020-09-29T11:32:02Z</time>
      </trkpt>
      <trkpt lat="41.0509820" lon="-3.5118020">
        <ele>1181.0</ele>
        <time>2020-09-29T11:32:03Z</time>
      </trkpt>
      <trkpt lat="41.0509880" lon="-3.5117630">
        <ele>1181.0</ele>
        <time>2020-09-29T11:32:04Z</time>
      </trkpt>
      <trkpt lat="41.0509880" lon="-3.5117630">
        <ele>1181.0</ele>
        <time>2020-09-29T11:32:05Z</time>
      </trkpt>
      <trkpt lat="41.0510000" lon="-3.5116850">
        <ele>1182.0</ele>
        <time>2020-09-29T11:32:06Z</time>
      </trkpt>
      <trkpt lat="41.0510030" lon="-3.5116430">
        <ele>1182.0</ele>
        <time>2020-09-29T11:32:07Z</time>
      </trkpt>
      <trkpt lat="41.0510030" lon="-3.5116430">
        <ele>1182.0</ele>
        <time>2020-09-29T11:32:08Z</time>
      </trkpt>
      <trkpt lat="41.0510150" lon="-3.5115580">
        <ele>1182.0</ele>
        <time>2020-09-29T11:32:09Z</time>
      </trkpt>
      <trkpt lat="41.0510150" lon="-3.5115580">
        <ele>1182.0</ele>
        <time>2020-09-29T11:32:10Z</time>
      </trkpt>
      <trkpt lat="41.0510300" lon="-3.5114730">
        <ele>1182.0</ele>
        <time>2020-09-29T11:32:11Z</time>
      </trkpt>
      <trkpt lat="41.0510300" lon="-3.5114730">
        <ele>1182.0</ele>
        <time>2020-09-29T11:32:12Z</time>
      </trkpt>
      <trkpt lat="41.0510430" lon="-3.5113870">
        <ele>1182.0</ele>
        <time>2020-09-29T11:32:13Z</time>
      </trkpt>
      <trkpt lat="41.0510430" lon="-3.5113870">
        <ele>1182.0</ele>
        <time>2020-09-29T11:32:14Z</time>
      </trkpt>
      <trkpt lat="41.0510530" lon="-3.5113030">
        <ele>1182.0</ele>
        <time>2020-09-29T11:32:15Z</time>
      </trkpt>
      <trkpt lat="41.0510620" lon="-3.5112630">
        <ele>1182.0</ele>
        <time>2020-09-29T11:32:16Z</time>
      </trkpt>
      <trkpt lat="41.0510620" lon="-3.5112630">
        <ele>1182.0</ele>
        <time>2020-09-29T11:32:17Z</time>
      </trkpt>
      <trkpt lat="41.0510770" lon="-3.5111830">
        <ele>1182.0</ele>
        <time>2020-09-29T11:32:18Z</time>
      </trkpt>
      <trkpt lat="41.0510830" lon="-3.5111450">
        <ele>1182.0</ele>
        <time>2020-09-29T11:32:19Z</time>
      </trkpt>
      <trkpt lat="41.0510830" lon="-3.5111450">
        <ele>1182.0</ele>
        <time>2020-09-29T11:32:20Z</time>
      </trkpt>
      <trkpt lat="41.0510980" lon="-3.5110700">
        <ele>1182.0</ele>
        <time>2020-09-29T11:32:21Z</time>
      </trkpt>
      <trkpt lat="41.0510980" lon="-3.5110700">
        <ele>1182.0</ele>
        <time>2020-09-29T11:32:22Z</time>
      </trkpt>
      <trkpt lat="41.0511100" lon="-3.5109950">
        <ele>1183.0</ele>
        <time>2020-09-29T11:32:23Z</time>
      </trkpt>
      <trkpt lat="41.0511100" lon="-3.5109950">
        <ele>1183.0</ele>
        <time>2020-09-29T11:32:24Z</time>
      </trkpt>
      <trkpt lat="41.0511230" lon="-3.5109230">
        <ele>1183.0</ele>
        <time>2020-09-29T11:32:25Z</time>
      </trkpt>
      <trkpt lat="41.0511230" lon="-3.5109230">
        <ele>1183.0</ele>
        <time>2020-09-29T11:32:26Z</time>
      </trkpt>
      <trkpt lat="41.0511370" lon="-3.5108480">
        <ele>1183.0</ele>
        <time>2020-09-29T11:32:27Z</time>
      </trkpt>
      <trkpt lat="41.0511370" lon="-3.5108480">
        <ele>1183.0</ele>
        <time>2020-09-29T11:32:28Z</time>
      </trkpt>
      <trkpt lat="41.0511500" lon="-3.5107730">
        <ele>1183.0</ele>
        <time>2020-09-29T11:32:29Z</time>
      </trkpt>
      <trkpt lat="41.0511500" lon="-3.5107730">
        <ele>1183.0</ele>
        <time>2020-09-29T11:32:30Z</time>
      </trkpt>
      <trkpt lat="41.0511600" lon="-3.5106980">
        <ele>1183.0</ele>
        <time>2020-09-29T11:32:31Z</time>
      </trkpt>
      <trkpt lat="41.0511600" lon="-3.5106980">
        <ele>1183.0</ele>
        <time>2020-09-29T11:32:32Z</time>
      </trkpt>
      <trkpt lat="41.0511680" lon="-3.5106280">
        <ele>1184.0</ele>
        <time>2020-09-29T11:32:33Z</time>
      </trkpt>
      <trkpt lat="41.0511680" lon="-3.5106280">
        <ele>1184.0</ele>
        <time>2020-09-29T11:32:34Z</time>
      </trkpt>
      <trkpt lat="41.0511820" lon="-3.5105570">
        <ele>1184.0</ele>
        <time>2020-09-29T11:32:35Z</time>
      </trkpt>
      <trkpt lat="41.0511820" lon="-3.5105570">
        <ele>1184.0</ele>
        <time>2020-09-29T11:32:36Z</time>
      </trkpt>
      <trkpt lat="41.0511930" lon="-3.5104850">
        <ele>1185.0</ele>
        <time>2020-09-29T11:32:37Z</time>
      </trkpt>
      <trkpt lat="41.0511930" lon="-3.5104850">
        <ele>1185.0</ele>
        <time>2020-09-29T11:32:38Z</time>
      </trkpt>
      <trkpt lat="41.0512080" lon="-3.5104130">
        <ele>1185.0</ele>
        <time>2020-09-29T11:32:39Z</time>
      </trkpt>
      <trkpt lat="41.0512080" lon="-3.5104130">
        <ele>1185.0</ele>
        <time>2020-09-29T11:32:40Z</time>
      </trkpt>
      <trkpt lat="41.0512200" lon="-3.5103370">
        <ele>1186.0</ele>
        <time>2020-09-29T11:32:41Z</time>
      </trkpt>
      <trkpt lat="41.0512200" lon="-3.5103370">
        <ele>1186.0</ele>
        <time>2020-09-29T11:32:42Z</time>
      </trkpt>
      <trkpt lat="41.0512300" lon="-3.5102600">
        <ele>1186.0</ele>
        <time>2020-09-29T11:32:43Z</time>
      </trkpt>
      <trkpt lat="41.0512300" lon="-3.5102600">
        <ele>1186.0</ele>
        <time>2020-09-29T11:32:44Z</time>
      </trkpt>
      <trkpt lat="41.0512400" lon="-3.5101850">
        <ele>1186.0</ele>
        <time>2020-09-29T11:32:45Z</time>
      </trkpt>
      <trkpt lat="41.0512400" lon="-3.5101850">
        <ele>1186.0</ele>
        <time>2020-09-29T11:32:46Z</time>
      </trkpt>
      <trkpt lat="41.0512530" lon="-3.5101120">
        <ele>1186.0</ele>
        <time>2020-09-29T11:32:47Z</time>
      </trkpt>
      <trkpt lat="41.0512530" lon="-3.5101120">
        <ele>1186.0</ele>
        <time>2020-09-29T11:32:48Z</time>
      </trkpt>
      <trkpt lat="41.0512580" lon="-3.5100450">
        <ele>1186.0</ele>
        <time>2020-09-29T11:32:49Z</time>
      </trkpt>
      <trkpt lat="41.0512580" lon="-3.5100450">
        <ele>1186.0</ele>
        <time>2020-09-29T11:32:50Z</time>
      </trkpt>
      <trkpt lat="41.0512630" lon="-3.5099770">
        <ele>1188.0</ele>
        <time>2020-09-29T11:32:51Z</time>
      </trkpt>
      <trkpt lat="41.0512700" lon="-3.5099420">
        <ele>1188.0</ele>
        <time>2020-09-29T11:32:52Z</time>
      </trkpt>
      <trkpt lat="41.0512700" lon="-3.5099420">
        <ele>1188.0</ele>
        <time>2020-09-29T11:32:53Z</time>
      </trkpt>
      <trkpt lat="41.0512820" lon="-3.5098730">
        <ele>1188.0</ele>
        <time>2020-09-29T11:32:54Z</time>
      </trkpt>
      <trkpt lat="41.0512880" lon="-3.5098400">
        <ele>1188.0</ele>
        <time>2020-09-29T11:32:55Z</time>
      </trkpt>
      <trkpt lat="41.0512880" lon="-3.5098400">
        <ele>1189.0</ele>
        <time>2020-09-29T11:32:56Z</time>
      </trkpt>
      <trkpt lat="41.0513000" lon="-3.5097770">
        <ele>1189.0</ele>
        <time>2020-09-29T11:32:57Z</time>
      </trkpt>
      <trkpt lat="41.0513000" lon="-3.5097770">
        <ele>1189.0</ele>
        <time>2020-09-29T11:32:58Z</time>
      </trkpt>
      <trkpt lat="41.0513100" lon="-3.5097100">
        <ele>1189.0</ele>
        <time>2020-09-29T11:32:59Z</time>
      </trkpt>
      <trkpt lat="41.0513100" lon="-3.5097100">
        <ele>1190.0</ele>
        <time>2020-09-29T11:33:00Z</time>
      </trkpt>
      <trkpt lat="41.0513180" lon="-3.5096430">
        <ele>1190.0</ele>
        <time>2020-09-29T11:33:01Z</time>
      </trkpt>
      <trkpt lat="41.0513180" lon="-3.5096430">
        <ele>1190.0</ele>
        <time>2020-09-29T11:33:02Z</time>
      </trkpt>
      <trkpt lat="41.0513330" lon="-3.5095730">
        <ele>1190.0</ele>
        <time>2020-09-29T11:33:03Z</time>
      </trkpt>
      <trkpt lat="41.0513400" lon="-3.5095380">
        <ele>1191.0</ele>
        <time>2020-09-29T11:33:04Z</time>
      </trkpt>
      <trkpt lat="41.0513400" lon="-3.5095380">
        <ele>1191.0</ele>
        <time>2020-09-29T11:33:05Z</time>
      </trkpt>
      <trkpt lat="41.0513500" lon="-3.5094680">
        <ele>1191.0</ele>
        <time>2020-09-29T11:33:06Z</time>
      </trkpt>
      <trkpt lat="41.0513500" lon="-3.5094680">
        <ele>1191.0</ele>
        <time>2020-09-29T11:33:07Z</time>
      </trkpt>
      <trkpt lat="41.0513630" lon="-3.5094020">
        <ele>1191.0</ele>
        <time>2020-09-29T11:33:08Z</time>
      </trkpt>
      <trkpt lat="41.0513630" lon="-3.5094020">
        <ele>1191.0</ele>
        <time>2020-09-29T11:33:09Z</time>
      </trkpt>
      <trkpt lat="41.0513720" lon="-3.5093430">
        <ele>1191.0</ele>
        <time>2020-09-29T11:33:10Z</time>
      </trkpt>
      <trkpt lat="41.0513770" lon="-3.5093130">
        <ele>1191.0</ele>
        <time>2020-09-29T11:33:11Z</time>
      </trkpt>
      <trkpt lat="41.0513770" lon="-3.5093130">
        <ele>1191.0</ele>
        <time>2020-09-29T11:33:12Z</time>
      </trkpt>
      <trkpt lat="41.0513880" lon="-3.5092550">
        <ele>1193.0</ele>
        <time>2020-09-29T11:33:13Z</time>
      </trkpt>
      <trkpt lat="41.0513880" lon="-3.5092550">
        <ele>1193.0</ele>
        <time>2020-09-29T11:33:14Z</time>
      </trkpt>
      <trkpt lat="41.0513930" lon="-3.5091920">
        <ele>1193.0</ele>
        <time>2020-09-29T11:33:15Z</time>
      </trkpt>
      <trkpt lat="41.0513930" lon="-3.5091920">
        <ele>1193.0</ele>
        <time>2020-09-29T11:33:16Z</time>
      </trkpt>
      <trkpt lat="41.0514000" lon="-3.5091230">
        <ele>1193.0</ele>
        <time>2020-09-29T11:33:17Z</time>
      </trkpt>
      <trkpt lat="41.0514050" lon="-3.5090900">
        <ele>1193.0</ele>
        <time>2020-09-29T11:33:18Z</time>
      </trkpt>
      <trkpt lat="41.0514130" lon="-3.5090550">
        <ele>1193.0</ele>
        <time>2020-09-29T11:33:19Z</time>
      </trkpt>
      <trkpt lat="41.0514130" lon="-3.5090550">
        <ele>1193.0</ele>
        <time>2020-09-29T11:33:20Z</time>
      </trkpt>
      <trkpt lat="41.0514270" lon="-3.5089880">
        <ele>1193.0</ele>
        <time>2020-09-29T11:33:21Z</time>
      </trkpt>
      <trkpt lat="41.0514270" lon="-3.5089880">
        <ele>1193.0</ele>
        <time>2020-09-29T11:33:22Z</time>
      </trkpt>
      <trkpt lat="41.0514370" lon="-3.5089200">
        <ele>1194.0</ele>
        <time>2020-09-29T11:33:23Z</time>
      </trkpt>
      <trkpt lat="41.0514420" lon="-3.5088870">
        <ele>1194.0</ele>
        <time>2020-09-29T11:33:24Z</time>
      </trkpt>
      <trkpt lat="41.0514480" lon="-3.5088530">
        <ele>1194.0</ele>
        <time>2020-09-29T11:33:25Z</time>
      </trkpt>
      <trkpt lat="41.0514480" lon="-3.5088530">
        <ele>1194.0</ele>
        <time>2020-09-29T11:33:26Z</time>
      </trkpt>
      <trkpt lat="41.0514580" lon="-3.5087900">
        <ele>1195.0</ele>
        <time>2020-09-29T11:33:27Z</time>
      </trkpt>
      <trkpt lat="41.0514580" lon="-3.5087900">
        <ele>1195.0</ele>
        <time>2020-09-29T11:33:28Z</time>
      </trkpt>
      <trkpt lat="41.0514650" lon="-3.5087280">
        <ele>1195.0</ele>
        <time>2020-09-29T11:33:29Z</time>
      </trkpt>
      <trkpt lat="41.0514650" lon="-3.5087280">
        <ele>1195.0</ele>
        <time>2020-09-29T11:33:30Z</time>
      </trkpt>
      <trkpt lat="41.0514820" lon="-3.5086600">
        <ele>1196.0</ele>
        <time>2020-09-29T11:33:31Z</time>
      </trkpt>
      <trkpt lat="41.0514820" lon="-3.5086600">
        <ele>1196.0</ele>
        <time>2020-09-29T11:33:32Z</time>
      </trkpt>
      <trkpt lat="41.0514950" lon="-3.5085970">
        <ele>1196.0</ele>
        <time>2020-09-29T11:33:33Z</time>
      </trkpt>
      <trkpt lat="41.0514950" lon="-3.5085970">
        <ele>1196.0</ele>
        <time>2020-09-29T11:33:34Z</time>
      </trkpt>
      <trkpt lat="41.0515050" lon="-3.5085330">
        <ele>1196.0</ele>
        <time>2020-09-29T11:33:35Z</time>
      </trkpt>
      <trkpt lat="41.0515050" lon="-3.5085330">
        <ele>1196.0</ele>
        <time>2020-09-29T11:33:36Z</time>
      </trkpt>
      <trkpt lat="41.0515120" lon="-3.5084700">
        <ele>1197.0</ele>
        <time>2020-09-29T11:33:37Z</time>
      </trkpt>
      <trkpt lat="41.0515170" lon="-3.5084370">
        <ele>1197.0</ele>
        <time>2020-09-29T11:33:38Z</time>
      </trkpt>
      <trkpt lat="41.0515170" lon="-3.5084370">
        <ele>1197.0</ele>
        <time>2020-09-29T11:33:39Z</time>
      </trkpt>
      <trkpt lat="41.0515230" lon="-3.5083730">
        <ele>1197.0</ele>
        <time>2020-09-29T11:33:40Z</time>
      </trkpt>
      <trkpt lat="41.0515230" lon="-3.5083730">
        <ele>1198.0</ele>
        <time>2020-09-29T11:33:41Z</time>
      </trkpt>
      <trkpt lat="41.0515300" lon="-3.5083100">
        <ele>1198.0</ele>
        <time>2020-09-29T11:33:42Z</time>
      </trkpt>
      <trkpt lat="41.0515350" lon="-3.5082780">
        <ele>1198.0</ele>
        <time>2020-09-29T11:33:43Z</time>
      </trkpt>
      <trkpt lat="41.0515420" lon="-3.5082470">
        <ele>1198.0</ele>
        <time>2020-09-29T11:33:44Z</time>
      </trkpt>
      <trkpt lat="41.0515420" lon="-3.5082470">
        <ele>1198.0</ele>
        <time>2020-09-29T11:33:45Z</time>
      </trkpt>
      <trkpt lat="41.0515520" lon="-3.5081870">
        <ele>1198.0</ele>
        <time>2020-09-29T11:33:46Z</time>
      </trkpt>
      <trkpt lat="41.0515570" lon="-3.5081530">
        <ele>1199.0</ele>
        <time>2020-09-29T11:33:47Z</time>
      </trkpt>
      <trkpt lat="41.0515570" lon="-3.5081530">
        <ele>1199.0</ele>
        <time>2020-09-29T11:33:48Z</time>
      </trkpt>
      <trkpt lat="41.0515630" lon="-3.5080880">
        <ele>1199.0</ele>
        <time>2020-09-29T11:33:49Z</time>
      </trkpt>
      <trkpt lat="41.0515630" lon="-3.5080880">
        <ele>1199.0</ele>
        <time>2020-09-29T11:33:50Z</time>
      </trkpt>
      <trkpt lat="41.0515770" lon="-3.5080270">
        <ele>1199.0</ele>
        <time>2020-09-29T11:33:51Z</time>
      </trkpt>
      <trkpt lat="41.0515770" lon="-3.5080270">
        <ele>1199.0</ele>
        <time>2020-09-29T11:33:52Z</time>
      </trkpt>
      <trkpt lat="41.0515870" lon="-3.5079620">
        <ele>1199.0</ele>
        <time>2020-09-29T11:33:53Z</time>
      </trkpt>
      <trkpt lat="41.0515870" lon="-3.5079620">
        <ele>1199.0</ele>
        <time>2020-09-29T11:33:54Z</time>
      </trkpt>
      <trkpt lat="41.0515950" lon="-3.5078880">
        <ele>1200.0</ele>
        <time>2020-09-29T11:33:55Z</time>
      </trkpt>
      <trkpt lat="41.0515950" lon="-3.5078880">
        <ele>1200.0</ele>
        <time>2020-09-29T11:33:56Z</time>
      </trkpt>
      <trkpt lat="41.0516020" lon="-3.5078220">
        <ele>1200.0</ele>
        <time>2020-09-29T11:33:57Z</time>
      </trkpt>
      <trkpt lat="41.0516020" lon="-3.5078220">
        <ele>1200.0</ele>
        <time>2020-09-29T11:33:58Z</time>
      </trkpt>
      <trkpt lat="41.0516120" lon="-3.5077570">
        <ele>1201.0</ele>
        <time>2020-09-29T11:33:59Z</time>
      </trkpt>
      <trkpt lat="41.0516120" lon="-3.5077570">
        <ele>1201.0</ele>
        <time>2020-09-29T11:34:00Z</time>
      </trkpt>
      <trkpt lat="41.0516180" lon="-3.5076900">
        <ele>1201.0</ele>
        <time>2020-09-29T11:34:01Z</time>
      </trkpt>
      <trkpt lat="41.0516180" lon="-3.5076900">
        <ele>1201.0</ele>
        <time>2020-09-29T11:34:02Z</time>
      </trkpt>
      <trkpt lat="41.0516270" lon="-3.5076270">
        <ele>1201.0</ele>
        <time>2020-09-29T11:34:03Z</time>
      </trkpt>
      <trkpt lat="41.0516270" lon="-3.5076270">
        <ele>1201.0</ele>
        <time>2020-09-29T11:34:04Z</time>
      </trkpt>
      <trkpt lat="41.0516420" lon="-3.5075630">
        <ele>1202.0</ele>
        <time>2020-09-29T11:34:05Z</time>
      </trkpt>
      <trkpt lat="41.0516420" lon="-3.5075630">
        <ele>1202.0</ele>
        <time>2020-09-29T11:34:06Z</time>
      </trkpt>
      <trkpt lat="41.0516520" lon="-3.5074970">
        <ele>1202.0</ele>
        <time>2020-09-29T11:34:07Z</time>
      </trkpt>
      <trkpt lat="41.0516550" lon="-3.5074650">
        <ele>1202.0</ele>
        <time>2020-09-29T11:34:08Z</time>
      </trkpt>
      <trkpt lat="41.0516550" lon="-3.5074650">
        <ele>1202.0</ele>
        <time>2020-09-29T11:34:09Z</time>
      </trkpt>
      <trkpt lat="41.0516650" lon="-3.5073980">
        <ele>1202.0</ele>
        <time>2020-09-29T11:34:10Z</time>
      </trkpt>
      <trkpt lat="41.0516680" lon="-3.5073650">
        <ele>1203.0</ele>
        <time>2020-09-29T11:34:11Z</time>
      </trkpt>
      <trkpt lat="41.0516680" lon="-3.5073650">
        <ele>1203.0</ele>
        <time>2020-09-29T11:34:12Z</time>
      </trkpt>
      <trkpt lat="41.0516820" lon="-3.5073030">
        <ele>1203.0</ele>
        <time>2020-09-29T11:34:13Z</time>
      </trkpt>
      <trkpt lat="41.0516880" lon="-3.5072720">
        <ele>1203.0</ele>
        <time>2020-09-29T11:34:14Z</time>
      </trkpt>
      <trkpt lat="41.0516880" lon="-3.5072720">
        <ele>1203.0</ele>
        <time>2020-09-29T11:34:15Z</time>
      </trkpt>
      <trkpt lat="41.0517000" lon="-3.5072080">
        <ele>1203.0</ele>
        <time>2020-09-29T11:34:16Z</time>
      </trkpt>
      <trkpt lat="41.0517000" lon="-3.5072080">
        <ele>1204.0</ele>
        <time>2020-09-29T11:34:17Z</time>
      </trkpt>
      <trkpt lat="41.0517120" lon="-3.5071430">
        <ele>1204.0</ele>
        <time>2020-09-29T11:34:18Z</time>
      </trkpt>
      <trkpt lat="41.0517170" lon="-3.5071100">
        <ele>1204.0</ele>
        <time>2020-09-29T11:34:19Z</time>
      </trkpt>
      <trkpt lat="41.0517170" lon="-3.5071100">
        <ele>1204.0</ele>
        <time>2020-09-29T11:34:20Z</time>
      </trkpt>
      <trkpt lat="41.0517300" lon="-3.5070450">
        <ele>1204.0</ele>
        <time>2020-09-29T11:34:21Z</time>
      </trkpt>
      <trkpt lat="41.0517300" lon="-3.5070450">
        <ele>1204.0</ele>
        <time>2020-09-29T11:34:22Z</time>
      </trkpt>
      <trkpt lat="41.0517400" lon="-3.5069780">
        <ele>1204.0</ele>
        <time>2020-09-29T11:34:23Z</time>
      </trkpt>
      <trkpt lat="41.0517450" lon="-3.5069450">
        <ele>1204.0</ele>
        <time>2020-09-29T11:34:24Z</time>
      </trkpt>
      <trkpt lat="41.0517450" lon="-3.5069450">
        <ele>1204.0</ele>
        <time>2020-09-29T11:34:25Z</time>
      </trkpt>
      <trkpt lat="41.0517530" lon="-3.5068800">
        <ele>1204.0</ele>
        <time>2020-09-29T11:34:26Z</time>
      </trkpt>
      <trkpt lat="41.0517530" lon="-3.5068800">
        <ele>1205.0</ele>
        <time>2020-09-29T11:34:27Z</time>
      </trkpt>
      <trkpt lat="41.0517600" lon="-3.5068130">
        <ele>1205.0</ele>
        <time>2020-09-29T11:34:28Z</time>
      </trkpt>
      <trkpt lat="41.0517600" lon="-3.5068130">
        <ele>1205.0</ele>
        <time>2020-09-29T11:34:29Z</time>
      </trkpt>
      <trkpt lat="41.0517620" lon="-3.5067480">
        <ele>1205.0</ele>
        <time>2020-09-29T11:34:30Z</time>
      </trkpt>
      <trkpt lat="41.0517650" lon="-3.5067150">
        <ele>1205.0</ele>
        <time>2020-09-29T11:34:31Z</time>
      </trkpt>
      <trkpt lat="41.0517650" lon="-3.5067150">
        <ele>1206.0</ele>
        <time>2020-09-29T11:34:32Z</time>
      </trkpt>
      <trkpt lat="41.0517720" lon="-3.5066530">
        <ele>1206.0</ele>
        <time>2020-09-29T11:34:33Z</time>
      </trkpt>
      <trkpt lat="41.0517720" lon="-3.5066530">
        <ele>1206.0</ele>
        <time>2020-09-29T11:34:34Z</time>
      </trkpt>
      <trkpt lat="41.0517750" lon="-3.5065870">
        <ele>1206.0</ele>
        <time>2020-09-29T11:34:35Z</time>
      </trkpt>
      <trkpt lat="41.0517750" lon="-3.5065870">
        <ele>1206.0</ele>
        <time>2020-09-29T11:34:36Z</time>
      </trkpt>
      <trkpt lat="41.0517750" lon="-3.5065180">
        <ele>1206.0</ele>
        <time>2020-09-29T11:34:37Z</time>
      </trkpt>
      <trkpt lat="41.0517720" lon="-3.5064850">
        <ele>1207.0</ele>
        <time>2020-09-29T11:34:38Z</time>
      </trkpt>
      <trkpt lat="41.0517720" lon="-3.5064850">
        <ele>1207.0</ele>
        <time>2020-09-29T11:34:39Z</time>
      </trkpt>
      <trkpt lat="41.0517680" lon="-3.5064170">
        <ele>1207.0</ele>
        <time>2020-09-29T11:34:40Z</time>
      </trkpt>
      <trkpt lat="41.0517680" lon="-3.5064170">
        <ele>1207.0</ele>
        <time>2020-09-29T11:34:41Z</time>
      </trkpt>
      <trkpt lat="41.0517620" lon="-3.5063470">
        <ele>1208.0</ele>
        <time>2020-09-29T11:34:42Z</time>
      </trkpt>
      <trkpt lat="41.0517550" lon="-3.5063130">
        <ele>1208.0</ele>
        <time>2020-09-29T11:34:43Z</time>
      </trkpt>
      <trkpt lat="41.0517550" lon="-3.5063130">
        <ele>1208.0</ele>
        <time>2020-09-29T11:34:44Z</time>
      </trkpt>
      <trkpt lat="41.0517400" lon="-3.5062500">
        <ele>1208.0</ele>
        <time>2020-09-29T11:34:45Z</time>
      </trkpt>
      <trkpt lat="41.0517330" lon="-3.5062200">
        <ele>1208.0</ele>
        <time>2020-09-29T11:34:46Z</time>
      </trkpt>
      <trkpt lat="41.0517330" lon="-3.5062200">
        <ele>1208.0</ele>
        <time>2020-09-29T11:34:47Z</time>
      </trkpt>
      <trkpt lat="41.0517100" lon="-3.5061570">
        <ele>1209.0</ele>
        <time>2020-09-29T11:34:48Z</time>
      </trkpt>
      <trkpt lat="41.0516980" lon="-3.5061250">
        <ele>1209.0</ele>
        <time>2020-09-29T11:34:49Z</time>
      </trkpt>
      <trkpt lat="41.0516980" lon="-3.5061250">
        <ele>1209.0</ele>
        <time>2020-09-29T11:34:50Z</time>
      </trkpt>
      <trkpt lat="41.0516680" lon="-3.5060650">
        <ele>1209.0</ele>
        <time>2020-09-29T11:34:51Z</time>
      </trkpt>
      <trkpt lat="41.0516680" lon="-3.5060650">
        <ele>1209.0</ele>
        <time>2020-09-29T11:34:52Z</time>
      </trkpt>
      <trkpt lat="41.0516400" lon="-3.5060100">
        <ele>1210.0</ele>
        <time>2020-09-29T11:34:53Z</time>
      </trkpt>
      <trkpt lat="41.0516400" lon="-3.5060100">
        <ele>1210.0</ele>
        <time>2020-09-29T11:34:54Z</time>
      </trkpt>
      <trkpt lat="41.0516050" lon="-3.5059500">
        <ele>1210.0</ele>
        <time>2020-09-29T11:34:55Z</time>
      </trkpt>
      <trkpt lat="41.0516050" lon="-3.5059500">
        <ele>1210.0</ele>
        <time>2020-09-29T11:34:56Z</time>
      </trkpt>
      <trkpt lat="41.0515670" lon="-3.5058980">
        <ele>1210.0</ele>
        <time>2020-09-29T11:34:57Z</time>
      </trkpt>
      <trkpt lat="41.0515670" lon="-3.5058980">
        <ele>1210.0</ele>
        <time>2020-09-29T11:34:58Z</time>
      </trkpt>
      <trkpt lat="41.0515330" lon="-3.5058420">
        <ele>1211.0</ele>
        <time>2020-09-29T11:34:59Z</time>
      </trkpt>
      <trkpt lat="41.0515150" lon="-3.5058150">
        <ele>1211.0</ele>
        <time>2020-09-29T11:35:00Z</time>
      </trkpt>
      <trkpt lat="41.0515150" lon="-3.5058150">
        <ele>1211.0</ele>
        <time>2020-09-29T11:35:01Z</time>
      </trkpt>
      <trkpt lat="41.0514800" lon="-3.5057600">
        <ele>1211.0</ele>
        <time>2020-09-29T11:35:02Z</time>
      </trkpt>
      <trkpt lat="41.0514800" lon="-3.5057600">
        <ele>1211.0</ele>
        <time>2020-09-29T11:35:03Z</time>
      </trkpt>
      <trkpt lat="41.0514480" lon="-3.5057050">
        <ele>1211.0</ele>
        <time>2020-09-29T11:35:04Z</time>
      </trkpt>
      <trkpt lat="41.0514280" lon="-3.5056770">
        <ele>1211.0</ele>
        <time>2020-09-29T11:35:05Z</time>
      </trkpt>
      <trkpt lat="41.0514280" lon="-3.5056770">
        <ele>1211.0</ele>
        <time>2020-09-29T11:35:06Z</time>
      </trkpt>
      <trkpt lat="41.0513920" lon="-3.5056230">
        <ele>1211.0</ele>
        <time>2020-09-29T11:35:07Z</time>
      </trkpt>
      <trkpt lat="41.0513920" lon="-3.5056230">
        <ele>1212.0</ele>
        <time>2020-09-29T11:35:08Z</time>
      </trkpt>
      <trkpt lat="41.0513570" lon="-3.5055720">
        <ele>1212.0</ele>
        <time>2020-09-29T11:35:09Z</time>
      </trkpt>
      <trkpt lat="41.0513400" lon="-3.5055470">
        <ele>1212.0</ele>
        <time>2020-09-29T11:35:10Z</time>
      </trkpt>
      <trkpt lat="41.0513220" lon="-3.5055200">
        <ele>1212.0</ele>
        <time>2020-09-29T11:35:11Z</time>
      </trkpt>
      <trkpt lat="41.0513220" lon="-3.5055200">
        <ele>1213.0</ele>
        <time>2020-09-29T11:35:12Z</time>
      </trkpt>
      <trkpt lat="41.0512850" lon="-3.5054670">
        <ele>1213.0</ele>
        <time>2020-09-29T11:35:13Z</time>
      </trkpt>
      <trkpt lat="41.0512850" lon="-3.5054670">
        <ele>1213.0</ele>
        <time>2020-09-29T11:35:14Z</time>
      </trkpt>
      <trkpt lat="41.0512500" lon="-3.5054130">
        <ele>1213.0</ele>
        <time>2020-09-29T11:35:15Z</time>
      </trkpt>
      <trkpt lat="41.0512330" lon="-3.5053850">
        <ele>1213.0</ele>
        <time>2020-09-29T11:35:16Z</time>
      </trkpt>
      <trkpt lat="41.0512330" lon="-3.5053850">
        <ele>1214.0</ele>
        <time>2020-09-29T11:35:17Z</time>
      </trkpt>
      <trkpt lat="41.0511950" lon="-3.5053300">
        <ele>1214.0</ele>
        <time>2020-09-29T11:35:18Z</time>
      </trkpt>
      <trkpt lat="41.0511750" lon="-3.5053020">
        <ele>1214.0</ele>
        <time>2020-09-29T11:35:19Z</time>
      </trkpt>
      <trkpt lat="41.0511750" lon="-3.5053020">
        <ele>1215.0</ele>
        <time>2020-09-29T11:35:20Z</time>
      </trkpt>
      <trkpt lat="41.0511370" lon="-3.5052430">
        <ele>1215.0</ele>
        <time>2020-09-29T11:35:21Z</time>
      </trkpt>
      <trkpt lat="41.0511370" lon="-3.5052430">
        <ele>1215.0</ele>
        <time>2020-09-29T11:35:22Z</time>
      </trkpt>
      <trkpt lat="41.0511020" lon="-3.5051900">
        <ele>1215.0</ele>
        <time>2020-09-29T11:35:23Z</time>
      </trkpt>
      <trkpt lat="41.0511020" lon="-3.5051900">
        <ele>1216.0</ele>
        <time>2020-09-29T11:35:24Z</time>
      </trkpt>
      <trkpt lat="41.0510650" lon="-3.5051370">
        <ele>1216.0</ele>
        <time>2020-09-29T11:35:25Z</time>
      </trkpt>
      <trkpt lat="41.0510650" lon="-3.5051370">
        <ele>1216.0</ele>
        <time>2020-09-29T11:35:26Z</time>
      </trkpt>
      <trkpt lat="41.0510280" lon="-3.5050830">
        <ele>1216.0</ele>
        <time>2020-09-29T11:35:27Z</time>
      </trkpt>
      <trkpt lat="41.0510280" lon="-3.5050830">
        <ele>1216.0</ele>
        <time>2020-09-29T11:35:28Z</time>
      </trkpt>
      <trkpt lat="41.0509900" lon="-3.5050330">
        <ele>1216.0</ele>
        <time>2020-09-29T11:35:29Z</time>
      </trkpt>
      <trkpt lat="41.0509900" lon="-3.5050330">
        <ele>1217.0</ele>
        <time>2020-09-29T11:35:30Z</time>
      </trkpt>
      <trkpt lat="41.0509550" lon="-3.5049830">
        <ele>1217.0</ele>
        <time>2020-09-29T11:35:31Z</time>
      </trkpt>
      <trkpt lat="41.0509550" lon="-3.5049830">
        <ele>1217.0</ele>
        <time>2020-09-29T11:35:32Z</time>
      </trkpt>
      <trkpt lat="41.0509200" lon="-3.5049280">
        <ele>1217.0</ele>
        <time>2020-09-29T11:35:33Z</time>
      </trkpt>
      <trkpt lat="41.0509200" lon="-3.5049280">
        <ele>1217.0</ele>
        <time>2020-09-29T11:35:34Z</time>
      </trkpt>
      <trkpt lat="41.0508850" lon="-3.5048750">
        <ele>1217.0</ele>
        <time>2020-09-29T11:35:35Z</time>
      </trkpt>
      <trkpt lat="41.0508850" lon="-3.5048750">
        <ele>1218.0</ele>
        <time>2020-09-29T11:35:36Z</time>
      </trkpt>
      <trkpt lat="41.0508530" lon="-3.5048120">
        <ele>1218.0</ele>
        <time>2020-09-29T11:35:37Z</time>
      </trkpt>
      <trkpt lat="41.0508530" lon="-3.5048120">
        <ele>1218.0</ele>
        <time>2020-09-29T11:35:38Z</time>
      </trkpt>
      <trkpt lat="41.0508170" lon="-3.5047580">
        <ele>1218.0</ele>
        <time>2020-09-29T11:35:39Z</time>
      </trkpt>
      <trkpt lat="41.0508170" lon="-3.5047580">
        <ele>1218.0</ele>
        <time>2020-09-29T11:35:40Z</time>
      </trkpt>
      <trkpt lat="41.0507770" lon="-3.5047050">
        <ele>1218.0</ele>
        <time>2020-09-29T11:35:41Z</time>
      </trkpt>
      <trkpt lat="41.0507770" lon="-3.5047050">
        <ele>1219.0</ele>
        <time>2020-09-29T11:35:42Z</time>
      </trkpt>
      <trkpt lat="41.0507370" lon="-3.5046530">
        <ele>1219.0</ele>
        <time>2020-09-29T11:35:43Z</time>
      </trkpt>
      <trkpt lat="41.0507370" lon="-3.5046530">
        <ele>1219.0</ele>
        <time>2020-09-29T11:35:44Z</time>
      </trkpt>
      <trkpt lat="41.0506980" lon="-3.5045980">
        <ele>1219.0</ele>
        <time>2020-09-29T11:35:45Z</time>
      </trkpt>
      <trkpt lat="41.0506800" lon="-3.5045700">
        <ele>1220.0</ele>
        <time>2020-09-29T11:35:46Z</time>
      </trkpt>
      <trkpt lat="41.0506800" lon="-3.5045700">
        <ele>1220.0</ele>
        <time>2020-09-29T11:35:47Z</time>
      </trkpt>
      <trkpt lat="41.0506430" lon="-3.5045120">
        <ele>1220.0</ele>
        <time>2020-09-29T11:35:48Z</time>
      </trkpt>
      <trkpt lat="41.0506220" lon="-3.5044830">
        <ele>1220.0</ele>
        <time>2020-09-29T11:35:49Z</time>
      </trkpt>
      <trkpt lat="41.0506220" lon="-3.5044830">
        <ele>1220.0</ele>
        <time>2020-09-29T11:35:50Z</time>
      </trkpt>
      <trkpt lat="41.0505850" lon="-3.5044230">
        <ele>1220.0</ele>
        <time>2020-09-29T11:35:51Z</time>
      </trkpt>
      <trkpt lat="41.0505850" lon="-3.5044230">
        <ele>1220.0</ele>
        <time>2020-09-29T11:35:52Z</time>
      </trkpt>
      <trkpt lat="41.0505520" lon="-3.5043700">
        <ele>1220.0</ele>
        <time>2020-09-29T11:35:53Z</time>
      </trkpt>
      <trkpt lat="41.0505520" lon="-3.5043700">
        <ele>1220.0</ele>
        <time>2020-09-29T11:35:54Z</time>
      </trkpt>
      <trkpt lat="41.0505180" lon="-3.5043170">
        <ele>1221.0</ele>
        <time>2020-09-29T11:35:55Z</time>
      </trkpt>
      <trkpt lat="41.0505180" lon="-3.5043170">
        <ele>1221.0</ele>
        <time>2020-09-29T11:35:56Z</time>
      </trkpt>
      <trkpt lat="41.0504880" lon="-3.5042620">
        <ele>1221.0</ele>
        <time>2020-09-29T11:35:57Z</time>
      </trkpt>
      <trkpt lat="41.0504880" lon="-3.5042620">
        <ele>1221.0</ele>
        <time>2020-09-29T11:35:58Z</time>
      </trkpt>
      <trkpt lat="41.0504570" lon="-3.5042070">
        <ele>1221.0</ele>
        <time>2020-09-29T11:35:59Z</time>
      </trkpt>
      <trkpt lat="41.0504570" lon="-3.5042070">
        <ele>1221.0</ele>
        <time>2020-09-29T11:36:00Z</time>
      </trkpt>
      <trkpt lat="41.0504250" lon="-3.5041500">
        <ele>1221.0</ele>
        <time>2020-09-29T11:36:01Z</time>
      </trkpt>
      <trkpt lat="41.0504250" lon="-3.5041500">
        <ele>1222.0</ele>
        <time>2020-09-29T11:36:02Z</time>
      </trkpt>
      <trkpt lat="41.0503930" lon="-3.5040930">
        <ele>1222.0</ele>
        <time>2020-09-29T11:36:03Z</time>
      </trkpt>
      <trkpt lat="41.0503830" lon="-3.5040620">
        <ele>1222.0</ele>
        <time>2020-09-29T11:36:04Z</time>
      </trkpt>
      <trkpt lat="41.0503830" lon="-3.5040620">
        <ele>1222.0</ele>
        <time>2020-09-29T11:36:05Z</time>
      </trkpt>
      <trkpt lat="41.0503600" lon="-3.5040000">
        <ele>1223.0</ele>
        <time>2020-09-29T11:36:06Z</time>
      </trkpt>
      <trkpt lat="41.0503600" lon="-3.5040000">
        <ele>1223.0</ele>
        <time>2020-09-29T11:36:07Z</time>
      </trkpt>
      <trkpt lat="41.0503370" lon="-3.5039370">
        <ele>1223.0</ele>
        <time>2020-09-29T11:36:08Z</time>
      </trkpt>
      <trkpt lat="41.0503280" lon="-3.5039020">
        <ele>1223.0</ele>
        <time>2020-09-29T11:36:09Z</time>
      </trkpt>
      <trkpt lat="41.0503280" lon="-3.5039020">
        <ele>1224.0</ele>
        <time>2020-09-29T11:36:10Z</time>
      </trkpt>
      <trkpt lat="41.0503170" lon="-3.5038320">
        <ele>1224.0</ele>
        <time>2020-09-29T11:36:11Z</time>
      </trkpt>
      <trkpt lat="41.0503170" lon="-3.5038320">
        <ele>1224.0</ele>
        <time>2020-09-29T11:36:12Z</time>
      </trkpt>
      <trkpt lat="41.0503070" lon="-3.5037620">
        <ele>1224.0</ele>
        <time>2020-09-29T11:36:13Z</time>
      </trkpt>
      <trkpt lat="41.0503070" lon="-3.5037620">
        <ele>1225.0</ele>
        <time>2020-09-29T11:36:14Z</time>
      </trkpt>
      <trkpt lat="41.0502950" lon="-3.5036970">
        <ele>1225.0</ele>
        <time>2020-09-29T11:36:15Z</time>
      </trkpt>
      <trkpt lat="41.0502900" lon="-3.5036620">
        <ele>1225.0</ele>
        <time>2020-09-29T11:36:16Z</time>
      </trkpt>
      <trkpt lat="41.0502900" lon="-3.5036620">
        <ele>1225.0</ele>
        <time>2020-09-29T11:36:17Z</time>
      </trkpt>
      <trkpt lat="41.0502820" lon="-3.5035950">
        <ele>1225.0</ele>
        <time>2020-09-29T11:36:18Z</time>
      </trkpt>
      <trkpt lat="41.0502750" lon="-3.5035600">
        <ele>1226.0</ele>
        <time>2020-09-29T11:36:19Z</time>
      </trkpt>
      <trkpt lat="41.0502750" lon="-3.5035600">
        <ele>1226.0</ele>
        <time>2020-09-29T11:36:20Z</time>
      </trkpt>
      <trkpt lat="41.0502630" lon="-3.5034930">
        <ele>1226.0</ele>
        <time>2020-09-29T11:36:21Z</time>
      </trkpt>
      <trkpt lat="41.0502580" lon="-3.5034600">
        <ele>1226.0</ele>
        <time>2020-09-29T11:36:22Z</time>
      </trkpt>
      <trkpt lat="41.0502580" lon="-3.5034600">
        <ele>1227.0</ele>
        <time>2020-09-29T11:36:23Z</time>
      </trkpt>
      <trkpt lat="41.0502450" lon="-3.5033930">
        <ele>1227.0</ele>
        <time>2020-09-29T11:36:24Z</time>
      </trkpt>
      <trkpt lat="41.0502380" lon="-3.5033600">
        <ele>1227.0</ele>
        <time>2020-09-29T11:36:25Z</time>
      </trkpt>
      <trkpt lat="41.0502380" lon="-3.5033600">
        <ele>1227.0</ele>
        <time>2020-09-29T11:36:26Z</time>
      </trkpt>
      <trkpt lat="41.0502270" lon="-3.5032950">
        <ele>1227.0</ele>
        <time>2020-09-29T11:36:27Z</time>
      </trkpt>
      <trkpt lat="41.0502270" lon="-3.5032950">
        <ele>1227.0</ele>
        <time>2020-09-29T11:36:28Z</time>
      </trkpt>
      <trkpt lat="41.0502180" lon="-3.5032270">
        <ele>1227.0</ele>
        <time>2020-09-29T11:36:29Z</time>
      </trkpt>
      <trkpt lat="41.0502130" lon="-3.5031920">
        <ele>1229.0</ele>
        <time>2020-09-29T11:36:30Z</time>
      </trkpt>
      <trkpt lat="41.0502130" lon="-3.5031920">
        <ele>1229.0</ele>
        <time>2020-09-29T11:36:31Z</time>
      </trkpt>
      <trkpt lat="41.0502050" lon="-3.5031250">
        <ele>1229.0</ele>
        <time>2020-09-29T11:36:32Z</time>
      </trkpt>
      <trkpt lat="41.0502050" lon="-3.5031250">
        <ele>1229.0</ele>
        <time>2020-09-29T11:36:33Z</time>
      </trkpt>
      <trkpt lat="41.0501930" lon="-3.5030620">
        <ele>1229.0</ele>
        <time>2020-09-29T11:36:34Z</time>
      </trkpt>
      <trkpt lat="41.0501930" lon="-3.5030620">
        <ele>1229.0</ele>
        <time>2020-09-29T11:36:35Z</time>
      </trkpt>
      <trkpt lat="41.0501680" lon="-3.5030000">
        <ele>1229.0</ele>
        <time>2020-09-29T11:36:36Z</time>
      </trkpt>
      <trkpt lat="41.0501680" lon="-3.5030000">
        <ele>1230.0</ele>
        <time>2020-09-29T11:36:37Z</time>
      </trkpt>
      <trkpt lat="41.0501500" lon="-3.5029320">
        <ele>1230.0</ele>
        <time>2020-09-29T11:36:38Z</time>
      </trkpt>
      <trkpt lat="41.0501500" lon="-3.5029320">
        <ele>1230.0</ele>
        <time>2020-09-29T11:36:39Z</time>
      </trkpt>
      <trkpt lat="41.0501350" lon="-3.5028650">
        <ele>1230.0</ele>
        <time>2020-09-29T11:36:40Z</time>
      </trkpt>
      <trkpt lat="41.0501350" lon="-3.5028650">
        <ele>1231.0</ele>
        <time>2020-09-29T11:36:41Z</time>
      </trkpt>
      <trkpt lat="41.0501250" lon="-3.5027980">
        <ele>1231.0</ele>
        <time>2020-09-29T11:36:42Z</time>
      </trkpt>
      <trkpt lat="41.0501180" lon="-3.5027630">
        <ele>1231.0</ele>
        <time>2020-09-29T11:36:43Z</time>
      </trkpt>
      <trkpt lat="41.0501180" lon="-3.5027630">
        <ele>1231.0</ele>
        <time>2020-09-29T11:36:44Z</time>
      </trkpt>
      <trkpt lat="41.0500980" lon="-3.5026970">
        <ele>1232.0</ele>
        <time>2020-09-29T11:36:45Z</time>
      </trkpt>
      <trkpt lat="41.0500900" lon="-3.5026620">
        <ele>1232.0</ele>
        <time>2020-09-29T11:36:46Z</time>
      </trkpt>
      <trkpt lat="41.0500900" lon="-3.5026620">
        <ele>1232.0</ele>
        <time>2020-09-29T11:36:47Z</time>
      </trkpt>
      <trkpt lat="41.0500730" lon="-3.5025930">
        <ele>1232.0</ele>
        <time>2020-09-29T11:36:48Z</time>
      </trkpt>
      <trkpt lat="41.0500730" lon="-3.5025930">
        <ele>1232.0</ele>
        <time>2020-09-29T11:36:49Z</time>
      </trkpt>
      <trkpt lat="41.0500570" lon="-3.5025270">
        <ele>1232.0</ele>
        <time>2020-09-29T11:36:50Z</time>
      </trkpt>
      <trkpt lat="41.0500570" lon="-3.5025270">
        <ele>1233.0</ele>
        <time>2020-09-29T11:36:51Z</time>
      </trkpt>
      <trkpt lat="41.0500480" lon="-3.5024620">
        <ele>1233.0</ele>
        <time>2020-09-29T11:36:52Z</time>
      </trkpt>
      <trkpt lat="41.0500480" lon="-3.5024620">
        <ele>1233.0</ele>
        <time>2020-09-29T11:36:53Z</time>
      </trkpt>
      <trkpt lat="41.0500330" lon="-3.5023970">
        <ele>1233.0</ele>
        <time>2020-09-29T11:36:54Z</time>
      </trkpt>
      <trkpt lat="41.0500330" lon="-3.5023970">
        <ele>1234.0</ele>
        <time>2020-09-29T11:36:55Z</time>
      </trkpt>
      <trkpt lat="41.0500180" lon="-3.5023330">
        <ele>1234.0</ele>
        <time>2020-09-29T11:36:56Z</time>
      </trkpt>
      <trkpt lat="41.0500180" lon="-3.5023330">
        <ele>1235.0</ele>
        <time>2020-09-29T11:36:57Z</time>
      </trkpt>
      <trkpt lat="41.0500050" lon="-3.5022720">
        <ele>1235.0</ele>
        <time>2020-09-29T11:36:58Z</time>
      </trkpt>
      <trkpt lat="41.0499980" lon="-3.5022400">
        <ele>1235.0</ele>
        <time>2020-09-29T11:36:59Z</time>
      </trkpt>
      <trkpt lat="41.0499980" lon="-3.5022400">
        <ele>1235.0</ele>
        <time>2020-09-29T11:37:00Z</time>
      </trkpt>
      <trkpt lat="41.0499880" lon="-3.5021770">
        <ele>1236.0</ele>
        <time>2020-09-29T11:37:01Z</time>
      </trkpt>
      <trkpt lat="41.0499880" lon="-3.5021770">
        <ele>1236.0</ele>
        <time>2020-09-29T11:37:02Z</time>
      </trkpt>
      <trkpt lat="41.0499780" lon="-3.5021100">
        <ele>1236.0</ele>
        <time>2020-09-29T11:37:03Z</time>
      </trkpt>
      <trkpt lat="41.0499720" lon="-3.5020770">
        <ele>1236.0</ele>
        <time>2020-09-29T11:37:04Z</time>
      </trkpt>
      <trkpt lat="41.0499720" lon="-3.5020770">
        <ele>1237.0</ele>
        <time>2020-09-29T11:37:05Z</time>
      </trkpt>
      <trkpt lat="41.0499520" lon="-3.5020130">
        <ele>1237.0</ele>
        <time>2020-09-29T11:37:06Z</time>
      </trkpt>
      <trkpt lat="41.0499520" lon="-3.5020130">
        <ele>1237.0</ele>
        <time>2020-09-29T11:37:07Z</time>
      </trkpt>
      <trkpt lat="41.0499380" lon="-3.5019430">
        <ele>1237.0</ele>
        <time>2020-09-29T11:37:08Z</time>
      </trkpt>
      <trkpt lat="41.0499380" lon="-3.5019430">
        <ele>1238.0</ele>
        <time>2020-09-29T11:37:09Z</time>
      </trkpt>
      <trkpt lat="41.0499330" lon="-3.5018670">
        <ele>1238.0</ele>
        <time>2020-09-29T11:37:10Z</time>
      </trkpt>
      <trkpt lat="41.0499330" lon="-3.5018670">
        <ele>1238.0</ele>
        <time>2020-09-29T11:37:11Z</time>
      </trkpt>
      <trkpt lat="41.0499320" lon="-3.5017920">
        <ele>1239.0</ele>
        <time>2020-09-29T11:37:12Z</time>
      </trkpt>
      <trkpt lat="41.0499280" lon="-3.5017550">
        <ele>1239.0</ele>
        <time>2020-09-29T11:37:13Z</time>
      </trkpt>
      <trkpt lat="41.0499280" lon="-3.5017550">
        <ele>1239.0</ele>
        <time>2020-09-29T11:37:14Z</time>
      </trkpt>
      <trkpt lat="41.0499280" lon="-3.5016830">
        <ele>1239.0</ele>
        <time>2020-09-29T11:37:15Z</time>
      </trkpt>
      <trkpt lat="41.0499280" lon="-3.5016830">
        <ele>1240.0</ele>
        <time>2020-09-29T11:37:16Z</time>
      </trkpt>
      <trkpt lat="41.0499330" lon="-3.5016100">
        <ele>1240.0</ele>
        <time>2020-09-29T11:37:17Z</time>
      </trkpt>
      <trkpt lat="41.0499370" lon="-3.5015730">
        <ele>1240.0</ele>
        <time>2020-09-29T11:37:18Z</time>
      </trkpt>
      <trkpt lat="41.0499370" lon="-3.5015730">
        <ele>1240.0</ele>
        <time>2020-09-29T11:37:19Z</time>
      </trkpt>
      <trkpt lat="41.0499520" lon="-3.5015030">
        <ele>1241.0</ele>
        <time>2020-09-29T11:37:20Z</time>
      </trkpt>
      <trkpt lat="41.0499520" lon="-3.5015030">
        <ele>1241.0</ele>
        <time>2020-09-29T11:37:21Z</time>
      </trkpt>
      <trkpt lat="41.0499630" lon="-3.5014350">
        <ele>1241.0</ele>
        <time>2020-09-29T11:37:22Z</time>
      </trkpt>
      <trkpt lat="41.0499670" lon="-3.5014020">
        <ele>1241.0</ele>
        <time>2020-09-29T11:37:23Z</time>
      </trkpt>
      <trkpt lat="41.0499680" lon="-3.5013670">
        <ele>1242.0</ele>
        <time>2020-09-29T11:37:24Z</time>
      </trkpt>
      <trkpt lat="41.0499680" lon="-3.5013670">
        <ele>1242.0</ele>
        <time>2020-09-29T11:37:25Z</time>
      </trkpt>
      <trkpt lat="41.0499780" lon="-3.5013000">
        <ele>1242.0</ele>
        <time>2020-09-29T11:37:26Z</time>
      </trkpt>
      <trkpt lat="41.0499780" lon="-3.5013000">
        <ele>1242.0</ele>
        <time>2020-09-29T11:37:27Z</time>
      </trkpt>
      <trkpt lat="41.0499870" lon="-3.5012320">
        <ele>1242.0</ele>
        <time>2020-09-29T11:37:28Z</time>
      </trkpt>
      <trkpt lat="41.0499900" lon="-3.5011980">
        <ele>1242.0</ele>
        <time>2020-09-29T11:37:29Z</time>
      </trkpt>
      <trkpt lat="41.0499900" lon="-3.5011980">
        <ele>1243.0</ele>
        <time>2020-09-29T11:37:30Z</time>
      </trkpt>
      <trkpt lat="41.0499970" lon="-3.5011270">
        <ele>1243.0</ele>
        <time>2020-09-29T11:37:31Z</time>
      </trkpt>
      <trkpt lat="41.0499970" lon="-3.5011270">
        <ele>1243.0</ele>
        <time>2020-09-29T11:37:32Z</time>
      </trkpt>
      <trkpt lat="41.0500070" lon="-3.5010580">
        <ele>1243.0</ele>
        <time>2020-09-29T11:37:33Z</time>
      </trkpt>
      <trkpt lat="41.0500100" lon="-3.5010270">
        <ele>1243.0</ele>
        <time>2020-09-29T11:37:34Z</time>
      </trkpt>
      <trkpt lat="41.0500100" lon="-3.5010270">
        <ele>1243.0</ele>
        <time>2020-09-29T11:37:35Z</time>
      </trkpt>
      <trkpt lat="41.0500180" lon="-3.5009580">
        <ele>1244.0</ele>
        <time>2020-09-29T11:37:36Z</time>
      </trkpt>
      <trkpt lat="41.0500180" lon="-3.5009580">
        <ele>1244.0</ele>
        <time>2020-09-29T11:37:37Z</time>
      </trkpt>
      <trkpt lat="41.0500270" lon="-3.5008880">
        <ele>1244.0</ele>
        <time>2020-09-29T11:37:38Z</time>
      </trkpt>
      <trkpt lat="41.0500270" lon="-3.5008880">
        <ele>1244.0</ele>
        <time>2020-09-29T11:37:39Z</time>
      </trkpt>
      <trkpt lat="41.0500320" lon="-3.5008150">
        <ele>1245.0</ele>
        <time>2020-09-29T11:37:40Z</time>
      </trkpt>
      <trkpt lat="41.0500320" lon="-3.5008150">
        <ele>1245.0</ele>
        <time>2020-09-29T11:37:41Z</time>
      </trkpt>
      <trkpt lat="41.0500370" lon="-3.5007380">
        <ele>1245.0</ele>
        <time>2020-09-29T11:37:42Z</time>
      </trkpt>
      <trkpt lat="41.0500370" lon="-3.5007380">
        <ele>1245.0</ele>
        <time>2020-09-29T11:37:43Z</time>
      </trkpt>
      <trkpt lat="41.0500500" lon="-3.5006620">
        <ele>1245.0</ele>
        <time>2020-09-29T11:37:44Z</time>
      </trkpt>
      <trkpt lat="41.0500570" lon="-3.5006270">
        <ele>1245.0</ele>
        <time>2020-09-29T11:37:45Z</time>
      </trkpt>
      <trkpt lat="41.0500570" lon="-3.5006270">
        <ele>1245.0</ele>
        <time>2020-09-29T11:37:46Z</time>
      </trkpt>
      <trkpt lat="41.0500600" lon="-3.5005550">
        <ele>1245.0</ele>
        <time>2020-09-29T11:37:47Z</time>
      </trkpt>
      <trkpt lat="41.0500600" lon="-3.5005550">
        <ele>1247.0</ele>
        <time>2020-09-29T11:37:48Z</time>
      </trkpt>
      <trkpt lat="41.0500630" lon="-3.5004830">
        <ele>1247.0</ele>
        <time>2020-09-29T11:37:49Z</time>
      </trkpt>
      <trkpt lat="41.0500630" lon="-3.5004830">
        <ele>1247.0</ele>
        <time>2020-09-29T11:37:50Z</time>
      </trkpt>
      <trkpt lat="41.0500720" lon="-3.5004130">
        <ele>1247.0</ele>
        <time>2020-09-29T11:37:51Z</time>
      </trkpt>
      <trkpt lat="41.0500750" lon="-3.5003770">
        <ele>1247.0</ele>
        <time>2020-09-29T11:37:52Z</time>
      </trkpt>
      <trkpt lat="41.0500750" lon="-3.5003770">
        <ele>1247.0</ele>
        <time>2020-09-29T11:37:53Z</time>
      </trkpt>
      <trkpt lat="41.0500800" lon="-3.5003050">
        <ele>1248.0</ele>
        <time>2020-09-29T11:37:54Z</time>
      </trkpt>
      <trkpt lat="41.0500850" lon="-3.5002680">
        <ele>1248.0</ele>
        <time>2020-09-29T11:37:55Z</time>
      </trkpt>
      <trkpt lat="41.0500850" lon="-3.5002680">
        <ele>1248.0</ele>
        <time>2020-09-29T11:37:56Z</time>
      </trkpt>
      <trkpt lat="41.0500900" lon="-3.5001980">
        <ele>1248.0</ele>
        <time>2020-09-29T11:37:57Z</time>
      </trkpt>
      <trkpt lat="41.0500900" lon="-3.5001980">
        <ele>1248.0</ele>
        <time>2020-09-29T11:37:58Z</time>
      </trkpt>
      <trkpt lat="41.0500980" lon="-3.5001280">
        <ele>1248.0</ele>
        <time>2020-09-29T11:37:59Z</time>
      </trkpt>
      <trkpt lat="41.0500980" lon="-3.5001280">
        <ele>1248.0</ele>
        <time>2020-09-29T11:38:00Z</time>
      </trkpt>
      <trkpt lat="41.0501030" lon="-3.5000570">
        <ele>1248.0</ele>
        <time>2020-09-29T11:38:01Z</time>
      </trkpt>
      <trkpt lat="41.0501030" lon="-3.5000570">
        <ele>1248.0</ele>
        <time>2020-09-29T11:38:02Z</time>
      </trkpt>
      <trkpt lat="41.0501050" lon="-3.4999830">
        <ele>1250.0</ele>
        <time>2020-09-29T11:38:03Z</time>
      </trkpt>
      <trkpt lat="41.0501050" lon="-3.4999830">
        <ele>1250.0</ele>
        <time>2020-09-29T11:38:04Z</time>
      </trkpt>
      <trkpt lat="41.0501050" lon="-3.4999080">
        <ele>1250.0</ele>
        <time>2020-09-29T11:38:05Z</time>
      </trkpt>
      <trkpt lat="41.0501050" lon="-3.4999080">
        <ele>1250.0</ele>
        <time>2020-09-29T11:38:06Z</time>
      </trkpt>
      <trkpt lat="41.0501050" lon="-3.4998320">
        <ele>1251.0</ele>
        <time>2020-09-29T11:38:07Z</time>
      </trkpt>
      <trkpt lat="41.0501080" lon="-3.4997950">
        <ele>1251.0</ele>
        <time>2020-09-29T11:38:08Z</time>
      </trkpt>
      <trkpt lat="41.0501080" lon="-3.4997950">
        <ele>1251.0</ele>
        <time>2020-09-29T11:38:09Z</time>
      </trkpt>
      <trkpt lat="41.0501130" lon="-3.4997130">
        <ele>1251.0</ele>
        <time>2020-09-29T11:38:10Z</time>
      </trkpt>
      <trkpt lat="41.0501150" lon="-3.4996680">
        <ele>1251.0</ele>
        <time>2020-09-29T11:38:11Z</time>
      </trkpt>
      <trkpt lat="41.0501130" lon="-3.4996230">
        <ele>1251.0</ele>
        <time>2020-09-29T11:38:12Z</time>
      </trkpt>
      <trkpt lat="41.0501130" lon="-3.4995800">
        <ele>1252.0</ele>
        <time>2020-09-29T11:38:13Z</time>
      </trkpt>
      <trkpt lat="41.0501130" lon="-3.4995800">
        <ele>1252.0</ele>
        <time>2020-09-29T11:38:14Z</time>
      </trkpt>
      <trkpt lat="41.0501070" lon="-3.4994920">
        <ele>1252.0</ele>
        <time>2020-09-29T11:38:15Z</time>
      </trkpt>
      <trkpt lat="41.0501050" lon="-3.4994480">
        <ele>1252.0</ele>
        <time>2020-09-29T11:38:16Z</time>
      </trkpt>
      <trkpt lat="41.0501030" lon="-3.4994050">
        <ele>1252.0</ele>
        <time>2020-09-29T11:38:17Z</time>
      </trkpt>
      <trkpt lat="41.0501030" lon="-3.4994050">
        <ele>1252.0</ele>
        <time>2020-09-29T11:38:18Z</time>
      </trkpt>
      <trkpt lat="41.0501000" lon="-3.4993200">
        <ele>1253.0</ele>
        <time>2020-09-29T11:38:19Z</time>
      </trkpt>
      <trkpt lat="41.0501000" lon="-3.4993200">
        <ele>1253.0</ele>
        <time>2020-09-29T11:38:20Z</time>
      </trkpt>
      <trkpt lat="41.0500970" lon="-3.4992330">
        <ele>1253.0</ele>
        <time>2020-09-29T11:38:21Z</time>
      </trkpt>
      <trkpt lat="41.0500970" lon="-3.4992330">
        <ele>1253.0</ele>
        <time>2020-09-29T11:38:22Z</time>
      </trkpt>
      <trkpt lat="41.0500950" lon="-3.4991470">
        <ele>1253.0</ele>
        <time>2020-09-29T11:38:23Z</time>
      </trkpt>
      <trkpt lat="41.0500930" lon="-3.4991020">
        <ele>1253.0</ele>
        <time>2020-09-29T11:38:24Z</time>
      </trkpt>
      <trkpt lat="41.0500930" lon="-3.4991020">
        <ele>1253.0</ele>
        <time>2020-09-29T11:38:25Z</time>
      </trkpt>
      <trkpt lat="41.0500870" lon="-3.4990100">
        <ele>1253.0</ele>
        <time>2020-09-29T11:38:26Z</time>
      </trkpt>
      <trkpt lat="41.0500870" lon="-3.4990100">
        <ele>1253.0</ele>
        <time>2020-09-29T11:38:27Z</time>
      </trkpt>
      <trkpt lat="41.0500800" lon="-3.4989080">
        <ele>1253.0</ele>
        <time>2020-09-29T11:38:28Z</time>
      </trkpt>
      <trkpt lat="41.0500800" lon="-3.4989080">
        <ele>1253.0</ele>
        <time>2020-09-29T11:38:29Z</time>
      </trkpt>
      <trkpt lat="41.0500750" lon="-3.4988000">
        <ele>1253.0</ele>
        <time>2020-09-29T11:38:30Z</time>
      </trkpt>
      <trkpt lat="41.0500750" lon="-3.4988000">
        <ele>1253.0</ele>
        <time>2020-09-29T11:38:31Z</time>
      </trkpt>
      <trkpt lat="41.0500670" lon="-3.4986880">
        <ele>1253.0</ele>
        <time>2020-09-29T11:38:32Z</time>
      </trkpt>
      <trkpt lat="41.0500670" lon="-3.4986880">
        <ele>1253.0</ele>
        <time>2020-09-29T11:38:33Z</time>
      </trkpt>
      <trkpt lat="41.0500530" lon="-3.4985730">
        <ele>1253.0</ele>
        <time>2020-09-29T11:38:34Z</time>
      </trkpt>
      <trkpt lat="41.0500480" lon="-3.4985200">
        <ele>1253.0</ele>
        <time>2020-09-29T11:38:35Z</time>
      </trkpt>
      <trkpt lat="41.0500480" lon="-3.4985200">
        <ele>1253.0</ele>
        <time>2020-09-29T11:38:36Z</time>
      </trkpt>
      <trkpt lat="41.0500370" lon="-3.4984120">
        <ele>1253.0</ele>
        <time>2020-09-29T11:38:37Z</time>
      </trkpt>
      <trkpt lat="41.0500370" lon="-3.4984120">
        <ele>1253.0</ele>
        <time>2020-09-29T11:38:38Z</time>
      </trkpt>
      <trkpt lat="41.0500270" lon="-3.4983080">
        <ele>1253.0</ele>
        <time>2020-09-29T11:38:39Z</time>
      </trkpt>
      <trkpt lat="41.0500220" lon="-3.4982550">
        <ele>1253.0</ele>
        <time>2020-09-29T11:38:40Z</time>
      </trkpt>
      <trkpt lat="41.0500220" lon="-3.4982550">
        <ele>1253.0</ele>
        <time>2020-09-29T11:38:41Z</time>
      </trkpt>
      <trkpt lat="41.0500020" lon="-3.4981420">
        <ele>1253.0</ele>
        <time>2020-09-29T11:38:42Z</time>
      </trkpt>
      <trkpt lat="41.0499970" lon="-3.4980880">
        <ele>1253.0</ele>
        <time>2020-09-29T11:38:43Z</time>
      </trkpt>
      <trkpt lat="41.0499900" lon="-3.4980320">
        <ele>1253.0</ele>
        <time>2020-09-29T11:38:44Z</time>
      </trkpt>
      <trkpt lat="41.0499900" lon="-3.4980320">
        <ele>1253.0</ele>
        <time>2020-09-29T11:38:45Z</time>
      </trkpt>
      <trkpt lat="41.0499780" lon="-3.4979220">
        <ele>1254.0</ele>
        <time>2020-09-29T11:38:46Z</time>
      </trkpt>
      <trkpt lat="41.0499780" lon="-3.4979220">
        <ele>1254.0</ele>
        <time>2020-09-29T11:38:47Z</time>
      </trkpt>
      <trkpt lat="41.0499750" lon="-3.4978180">
        <ele>1254.0</ele>
        <time>2020-09-29T11:38:48Z</time>
      </trkpt>
      <trkpt lat="41.0499670" lon="-3.4977630">
        <ele>1254.0</ele>
        <time>2020-09-29T11:38:49Z</time>
      </trkpt>
      <trkpt lat="41.0499670" lon="-3.4977630">
        <ele>1254.0</ele>
        <time>2020-09-29T11:38:50Z</time>
      </trkpt>
      <trkpt lat="41.0499450" lon="-3.4976530">
        <ele>1254.0</ele>
        <time>2020-09-29T11:38:51Z</time>
      </trkpt>
      <trkpt lat="41.0499350" lon="-3.4975970">
        <ele>1254.0</ele>
        <time>2020-09-29T11:38:52Z</time>
      </trkpt>
      <trkpt lat="41.0499350" lon="-3.4975970">
        <ele>1254.0</ele>
        <time>2020-09-29T11:38:53Z</time>
      </trkpt>
      <trkpt lat="41.0499120" lon="-3.4974870">
        <ele>1254.0</ele>
        <time>2020-09-29T11:38:54Z</time>
      </trkpt>
      <trkpt lat="41.0498970" lon="-3.4974330">
        <ele>1254.0</ele>
        <time>2020-09-29T11:38:55Z</time>
      </trkpt>
      <trkpt lat="41.0498970" lon="-3.4974330">
        <ele>1255.0</ele>
        <time>2020-09-29T11:38:56Z</time>
      </trkpt>
      <trkpt lat="41.0498670" lon="-3.4973230">
        <ele>1255.0</ele>
        <time>2020-09-29T11:38:57Z</time>
      </trkpt>
      <trkpt lat="41.0498520" lon="-3.4972700">
        <ele>1255.0</ele>
        <time>2020-09-29T11:38:58Z</time>
      </trkpt>
      <trkpt lat="41.0498520" lon="-3.4972700">
        <ele>1255.0</ele>
        <time>2020-09-29T11:38:59Z</time>
      </trkpt>
      <trkpt lat="41.0498220" lon="-3.4971670">
        <ele>1255.0</ele>
        <time>2020-09-29T11:39:00Z</time>
      </trkpt>
      <trkpt lat="41.0498220" lon="-3.4971670">
        <ele>1255.0</ele>
        <time>2020-09-29T11:39:01Z</time>
      </trkpt>
      <trkpt lat="41.0497950" lon="-3.4970630">
        <ele>1255.0</ele>
        <time>2020-09-29T11:39:02Z</time>
      </trkpt>
      <trkpt lat="41.0497950" lon="-3.4970630">
        <ele>1255.0</ele>
        <time>2020-09-29T11:39:03Z</time>
      </trkpt>
      <trkpt lat="41.0497700" lon="-3.4969650">
        <ele>1255.0</ele>
        <time>2020-09-29T11:39:04Z</time>
      </trkpt>
      <trkpt lat="41.0497700" lon="-3.4969650">
        <ele>1256.0</ele>
        <time>2020-09-29T11:39:05Z</time>
      </trkpt>
      <trkpt lat="41.0497420" lon="-3.4968700">
        <ele>1256.0</ele>
        <time>2020-09-29T11:39:06Z</time>
      </trkpt>
      <trkpt lat="41.0497250" lon="-3.4968250">
        <ele>1256.0</ele>
        <time>2020-09-29T11:39:07Z</time>
      </trkpt>
      <trkpt lat="41.0497250" lon="-3.4968250">
        <ele>1256.0</ele>
        <time>2020-09-29T11:39:08Z</time>
      </trkpt>
      <trkpt lat="41.0496970" lon="-3.4967320">
        <ele>1257.0</ele>
        <time>2020-09-29T11:39:09Z</time>
      </trkpt>
      <trkpt lat="41.0496970" lon="-3.4967320">
        <ele>1257.0</ele>
        <time>2020-09-29T11:39:10Z</time>
      </trkpt>
      <trkpt lat="41.0496600" lon="-3.4966200">
        <ele>1257.0</ele>
        <time>2020-09-29T11:39:11Z</time>
      </trkpt>
      <trkpt lat="41.0496470" lon="-3.4965770">
        <ele>1257.0</ele>
        <time>2020-09-29T11:39:12Z</time>
      </trkpt>
      <trkpt lat="41.0496370" lon="-3.4965330">
        <ele>1257.0</ele>
        <time>2020-09-29T11:39:13Z</time>
      </trkpt>
      <trkpt lat="41.0496370" lon="-3.4965330">
        <ele>1257.0</ele>
        <time>2020-09-29T11:39:14Z</time>
      </trkpt>
      <trkpt lat="41.0496100" lon="-3.4964470">
        <ele>1257.0</ele>
        <time>2020-09-29T11:39:15Z</time>
      </trkpt>
      <trkpt lat="41.0495970" lon="-3.4964050">
        <ele>1258.0</ele>
        <time>2020-09-29T11:39:16Z</time>
      </trkpt>
      <trkpt lat="41.0495970" lon="-3.4964050">
        <ele>1258.0</ele>
        <time>2020-09-29T11:39:17Z</time>
      </trkpt>
      <trkpt lat="41.0495630" lon="-3.4963250">
        <ele>1258.0</ele>
        <time>2020-09-29T11:39:18Z</time>
      </trkpt>
      <trkpt lat="41.0495630" lon="-3.4963250">
        <ele>1258.0</ele>
        <time>2020-09-29T11:39:19Z</time>
      </trkpt>
      <trkpt lat="41.0495350" lon="-3.4962520">
        <ele>1259.0</ele>
        <time>2020-09-29T11:39:20Z</time>
      </trkpt>
      <trkpt lat="41.0495350" lon="-3.4962520">
        <ele>1259.0</ele>
        <time>2020-09-29T11:39:21Z</time>
      </trkpt>
      <trkpt lat="41.0495020" lon="-3.4961720">
        <ele>1259.0</ele>
        <time>2020-09-29T11:39:22Z</time>
      </trkpt>
      <trkpt lat="41.0494850" lon="-3.4961320">
        <ele>1259.0</ele>
        <time>2020-09-29T11:39:23Z</time>
      </trkpt>
      <trkpt lat="41.0494850" lon="-3.4961320">
        <ele>1259.0</ele>
        <time>2020-09-29T11:39:24Z</time>
      </trkpt>
      <trkpt lat="41.0494550" lon="-3.4960550">
        <ele>1259.0</ele>
        <time>2020-09-29T11:39:25Z</time>
      </trkpt>
      <trkpt lat="41.0494380" lon="-3.4960170">
        <ele>1259.0</ele>
        <time>2020-09-29T11:39:26Z</time>
      </trkpt>
      <trkpt lat="41.0494380" lon="-3.4960170">
        <ele>1259.0</ele>
        <time>2020-09-29T11:39:27Z</time>
      </trkpt>
      <trkpt lat="41.0494000" lon="-3.4959430">
        <ele>1260.0</ele>
        <time>2020-09-29T11:39:28Z</time>
      </trkpt>
      <trkpt lat="41.0494000" lon="-3.4959430">
        <ele>1260.0</ele>
        <time>2020-09-29T11:39:29Z</time>
      </trkpt>
      <trkpt lat="41.0493650" lon="-3.4958700">
        <ele>1260.0</ele>
        <time>2020-09-29T11:39:30Z</time>
      </trkpt>
      <trkpt lat="41.0493470" lon="-3.4958350">
        <ele>1260.0</ele>
        <time>2020-09-29T11:39:31Z</time>
      </trkpt>
      <trkpt lat="41.0493470" lon="-3.4958350">
        <ele>1261.0</ele>
        <time>2020-09-29T11:39:32Z</time>
      </trkpt>
      <trkpt lat="41.0493100" lon="-3.4957620">
        <ele>1261.0</ele>
        <time>2020-09-29T11:39:33Z</time>
      </trkpt>
      <trkpt lat="41.0492900" lon="-3.4957280">
        <ele>1261.0</ele>
        <time>2020-09-29T11:39:34Z</time>
      </trkpt>
      <trkpt lat="41.0492900" lon="-3.4957280">
        <ele>1262.0</ele>
        <time>2020-09-29T11:39:35Z</time>
      </trkpt>
      <trkpt lat="41.0492480" lon="-3.4956600">
        <ele>1262.0</ele>
        <time>2020-09-29T11:39:36Z</time>
      </trkpt>
      <trkpt lat="41.0492280" lon="-3.4956270">
        <ele>1262.0</ele>
        <time>2020-09-29T11:39:37Z</time>
      </trkpt>
      <trkpt lat="41.0492280" lon="-3.4956270">
        <ele>1262.0</ele>
        <time>2020-09-29T11:39:38Z</time>
      </trkpt>
      <trkpt lat="41.0491900" lon="-3.4955580">
        <ele>1262.0</ele>
        <time>2020-09-29T11:39:39Z</time>
      </trkpt>
      <trkpt lat="41.0491720" lon="-3.4955250">
        <ele>1262.0</ele>
        <time>2020-09-29T11:39:40Z</time>
      </trkpt>
      <trkpt lat="41.0491550" lon="-3.4954900">
        <ele>1262.0</ele>
        <time>2020-09-29T11:39:41Z</time>
      </trkpt>
      <trkpt lat="41.0491550" lon="-3.4954900">
        <ele>1262.0</ele>
        <time>2020-09-29T11:39:42Z</time>
      </trkpt>
      <trkpt lat="41.0491230" lon="-3.4954180">
        <ele>1263.0</ele>
        <time>2020-09-29T11:39:43Z</time>
      </trkpt>
      <trkpt lat="41.0491070" lon="-3.4953870">
        <ele>1263.0</ele>
        <time>2020-09-29T11:39:44Z</time>
      </trkpt>
      <trkpt lat="41.0491070" lon="-3.4953870">
        <ele>1263.0</ele>
        <time>2020-09-29T11:39:45Z</time>
      </trkpt>
      <trkpt lat="41.0490720" lon="-3.4953200">
        <ele>1263.0</ele>
        <time>2020-09-29T11:39:46Z</time>
      </trkpt>
      <trkpt lat="41.0490570" lon="-3.4952830">
        <ele>1263.0</ele>
        <time>2020-09-29T11:39:47Z</time>
      </trkpt>
      <trkpt lat="41.0490570" lon="-3.4952830">
        <ele>1263.0</ele>
        <time>2020-09-29T11:39:48Z</time>
      </trkpt>
      <trkpt lat="41.0490320" lon="-3.4952080">
        <ele>1264.0</ele>
        <time>2020-09-29T11:39:49Z</time>
      </trkpt>
      <trkpt lat="41.0490320" lon="-3.4952080">
        <ele>1264.0</ele>
        <time>2020-09-29T11:39:50Z</time>
      </trkpt>
      <trkpt lat="41.0490050" lon="-3.4951370">
        <ele>1264.0</ele>
        <time>2020-09-29T11:39:51Z</time>
      </trkpt>
      <trkpt lat="41.0489930" lon="-3.4951030">
        <ele>1264.0</ele>
        <time>2020-09-29T11:39:52Z</time>
      </trkpt>
      <trkpt lat="41.0489930" lon="-3.4951030">
        <ele>1264.0</ele>
        <time>2020-09-29T11:39:53Z</time>
      </trkpt>
      <trkpt lat="41.0489720" lon="-3.4950280">
        <ele>1264.0</ele>
        <time>2020-09-29T11:39:54Z</time>
      </trkpt>
      <trkpt lat="41.0489620" lon="-3.4949900">
        <ele>1265.0</ele>
        <time>2020-09-29T11:39:55Z</time>
      </trkpt>
      <trkpt lat="41.0489620" lon="-3.4949900">
        <ele>1265.0</ele>
        <time>2020-09-29T11:39:56Z</time>
      </trkpt>
      <trkpt lat="41.0489400" lon="-3.4949120">
        <ele>1265.0</ele>
        <time>2020-09-29T11:39:57Z</time>
      </trkpt>
      <trkpt lat="41.0489400" lon="-3.4949120">
        <ele>1265.0</ele>
        <time>2020-09-29T11:39:58Z</time>
      </trkpt>
      <trkpt lat="41.0489270" lon="-3.4948330">
        <ele>1265.0</ele>
        <time>2020-09-29T11:39:59Z</time>
      </trkpt>
      <trkpt lat="41.0489270" lon="-3.4948330">
        <ele>1265.0</ele>
        <time>2020-09-29T11:40:00Z</time>
      </trkpt>
      <trkpt lat="41.0489180" lon="-3.4947550">
        <ele>1265.0</ele>
        <time>2020-09-29T11:40:01Z</time>
      </trkpt>
      <trkpt lat="41.0489180" lon="-3.4947550">
        <ele>1265.0</ele>
        <time>2020-09-29T11:40:02Z</time>
      </trkpt>
      <trkpt lat="41.0489020" lon="-3.4946820">
        <ele>1265.0</ele>
        <time>2020-09-29T11:40:03Z</time>
      </trkpt>
      <trkpt lat="41.0489020" lon="-3.4946820">
        <ele>1265.0</ele>
        <time>2020-09-29T11:40:04Z</time>
      </trkpt>
      <trkpt lat="41.0488870" lon="-3.4946100">
        <ele>1266.0</ele>
        <time>2020-09-29T11:40:05Z</time>
      </trkpt>
      <trkpt lat="41.0488800" lon="-3.4945750">
        <ele>1266.0</ele>
        <time>2020-09-29T11:40:06Z</time>
      </trkpt>
      <trkpt lat="41.0488800" lon="-3.4945750">
        <ele>1266.0</ele>
        <time>2020-09-29T11:40:07Z</time>
      </trkpt>
      <trkpt lat="41.0488630" lon="-3.4945020">
        <ele>1266.0</ele>
        <time>2020-09-29T11:40:08Z</time>
      </trkpt>
      <trkpt lat="41.0488630" lon="-3.4945020">
        <ele>1267.0</ele>
        <time>2020-09-29T11:40:09Z</time>
      </trkpt>
      <trkpt lat="41.0488450" lon="-3.4944270">
        <ele>1267.0</ele>
        <time>2020-09-29T11:40:10Z</time>
      </trkpt>
      <trkpt lat="41.0488450" lon="-3.4944270">
        <ele>1267.0</ele>
        <time>2020-09-29T11:40:11Z</time>
      </trkpt>
      <trkpt lat="41.0488300" lon="-3.4943450">
        <ele>1268.0</ele>
        <time>2020-09-29T11:40:12Z</time>
      </trkpt>
      <trkpt lat="41.0488230" lon="-3.4943050">
        <ele>1268.0</ele>
        <time>2020-09-29T11:40:13Z</time>
      </trkpt>
      <trkpt lat="41.0488230" lon="-3.4943050">
        <ele>1268.0</ele>
        <time>2020-09-29T11:40:14Z</time>
      </trkpt>
      <trkpt lat="41.0488100" lon="-3.4942280">
        <ele>1268.0</ele>
        <time>2020-09-29T11:40:15Z</time>
      </trkpt>
      <trkpt lat="41.0488050" lon="-3.4941880">
        <ele>1268.0</ele>
        <time>2020-09-29T11:40:16Z</time>
      </trkpt>
      <trkpt lat="41.0488050" lon="-3.4941880">
        <ele>1268.0</ele>
        <time>2020-09-29T11:40:17Z</time>
      </trkpt>
      <trkpt lat="41.0487970" lon="-3.4941100">
        <ele>1268.0</ele>
        <time>2020-09-29T11:40:18Z</time>
      </trkpt>
      <trkpt lat="41.0487920" lon="-3.4940700">
        <ele>1268.0</ele>
        <time>2020-09-29T11:40:19Z</time>
      </trkpt>
      <trkpt lat="41.0487920" lon="-3.4940700">
        <ele>1269.0</ele>
        <time>2020-09-29T11:40:20Z</time>
      </trkpt>
      <trkpt lat="41.0487870" lon="-3.4939900">
        <ele>1269.0</ele>
        <time>2020-09-29T11:40:21Z</time>
      </trkpt>
      <trkpt lat="41.0487870" lon="-3.4939900">
        <ele>1269.0</ele>
        <time>2020-09-29T11:40:22Z</time>
      </trkpt>
      <trkpt lat="41.0487850" lon="-3.4939080">
        <ele>1269.0</ele>
        <time>2020-09-29T11:40:23Z</time>
      </trkpt>
      <trkpt lat="41.0487850" lon="-3.4938680">
        <ele>1270.0</ele>
        <time>2020-09-29T11:40:24Z</time>
      </trkpt>
      <trkpt lat="41.0487850" lon="-3.4938680">
        <ele>1270.0</ele>
        <time>2020-09-29T11:40:25Z</time>
      </trkpt>
      <trkpt lat="41.0487800" lon="-3.4937880">
        <ele>1270.0</ele>
        <time>2020-09-29T11:40:26Z</time>
      </trkpt>
      <trkpt lat="41.0487780" lon="-3.4937480">
        <ele>1270.0</ele>
        <time>2020-09-29T11:40:27Z</time>
      </trkpt>
      <trkpt lat="41.0487780" lon="-3.4937480">
        <ele>1271.0</ele>
        <time>2020-09-29T11:40:28Z</time>
      </trkpt>
      <trkpt lat="41.0487720" lon="-3.4936680">
        <ele>1271.0</ele>
        <time>2020-09-29T11:40:29Z</time>
      </trkpt>
      <trkpt lat="41.0487680" lon="-3.4936270">
        <ele>1271.0</ele>
        <time>2020-09-29T11:40:30Z</time>
      </trkpt>
      <trkpt lat="41.0487680" lon="-3.4936270">
        <ele>1271.0</ele>
        <time>2020-09-29T11:40:31Z</time>
      </trkpt>
      <trkpt lat="41.0487650" lon="-3.4935450">
        <ele>1272.0</ele>
        <time>2020-09-29T11:40:32Z</time>
      </trkpt>
      <trkpt lat="41.0487650" lon="-3.4935450">
        <ele>1272.0</ele>
        <time>2020-09-29T11:40:33Z</time>
      </trkpt>
      <trkpt lat="41.0487600" lon="-3.4934650">
        <ele>1273.0</ele>
        <time>2020-09-29T11:40:34Z</time>
      </trkpt>
      <trkpt lat="41.0487600" lon="-3.4934650">
        <ele>1273.0</ele>
        <time>2020-09-29T11:40:35Z</time>
      </trkpt>
      <trkpt lat="41.0487550" lon="-3.4933900">
        <ele>1273.0</ele>
        <time>2020-09-29T11:40:36Z</time>
      </trkpt>
      <trkpt lat="41.0487550" lon="-3.4933900">
        <ele>1273.0</ele>
        <time>2020-09-29T11:40:37Z</time>
      </trkpt>
      <trkpt lat="41.0487500" lon="-3.4933130">
        <ele>1274.0</ele>
        <time>2020-09-29T11:40:38Z</time>
      </trkpt>
      <trkpt lat="41.0487500" lon="-3.4933130">
        <ele>1274.0</ele>
        <time>2020-09-29T11:40:39Z</time>
      </trkpt>
      <trkpt lat="41.0487380" lon="-3.4932330">
        <ele>1274.0</ele>
        <time>2020-09-29T11:40:40Z</time>
      </trkpt>
      <trkpt lat="41.0487380" lon="-3.4932330">
        <ele>1274.0</ele>
        <time>2020-09-29T11:40:41Z</time>
      </trkpt>
      <trkpt lat="41.0487230" lon="-3.4931570">
        <ele>1275.0</ele>
        <time>2020-09-29T11:40:42Z</time>
      </trkpt>
      <trkpt lat="41.0487130" lon="-3.4931180">
        <ele>1275.0</ele>
        <time>2020-09-29T11:40:43Z</time>
      </trkpt>
      <trkpt lat="41.0487130" lon="-3.4931180">
        <ele>1275.0</ele>
        <time>2020-09-29T11:40:44Z</time>
      </trkpt>
      <trkpt lat="41.0486950" lon="-3.4930450">
        <ele>1275.0</ele>
        <time>2020-09-29T11:40:45Z</time>
      </trkpt>
      <trkpt lat="41.0486870" lon="-3.4930080">
        <ele>1276.0</ele>
        <time>2020-09-29T11:40:46Z</time>
      </trkpt>
      <trkpt lat="41.0486870" lon="-3.4930080">
        <ele>1276.0</ele>
        <time>2020-09-29T11:40:47Z</time>
      </trkpt>
      <trkpt lat="41.0486720" lon="-3.4929320">
        <ele>1276.0</ele>
        <time>2020-09-29T11:40:48Z</time>
      </trkpt>
      <trkpt lat="41.0486620" lon="-3.4928930">
        <ele>1276.0</ele>
        <time>2020-09-29T11:40:49Z</time>
      </trkpt>
      <trkpt lat="41.0486620" lon="-3.4928930">
        <ele>1276.0</ele>
        <time>2020-09-29T11:40:50Z</time>
      </trkpt>
      <trkpt lat="41.0486370" lon="-3.4928270">
        <ele>1276.0</ele>
        <time>2020-09-29T11:40:51Z</time>
      </trkpt>
      <trkpt lat="41.0486370" lon="-3.4928270">
        <ele>1276.0</ele>
        <time>2020-09-29T11:40:52Z</time>
      </trkpt>
      <trkpt lat="41.0486070" lon="-3.4927520">
        <ele>1276.0</ele>
        <time>2020-09-29T11:40:53Z</time>
      </trkpt>
      <trkpt lat="41.0486070" lon="-3.4927520">
        <ele>1276.0</ele>
        <time>2020-09-29T11:40:54Z</time>
      </trkpt>
      <trkpt lat="41.0485750" lon="-3.4926620">
        <ele>1277.0</ele>
        <time>2020-09-29T11:40:55Z</time>
      </trkpt>
      <trkpt lat="41.0485750" lon="-3.4926620">
        <ele>1277.0</ele>
        <time>2020-09-29T11:40:56Z</time>
      </trkpt>
      <trkpt lat="41.0485600" lon="-3.4925700">
        <ele>1277.0</ele>
        <time>2020-09-29T11:40:57Z</time>
      </trkpt>
      <trkpt lat="41.0485600" lon="-3.4925700">
        <ele>1277.0</ele>
        <time>2020-09-29T11:40:58Z</time>
      </trkpt>
      <trkpt lat="41.0485650" lon="-3.4924800">
        <ele>1277.0</ele>
        <time>2020-09-29T11:40:59Z</time>
      </trkpt>
      <trkpt lat="41.0485650" lon="-3.4924800">
        <ele>1277.0</ele>
        <time>2020-09-29T11:41:00Z</time>
      </trkpt>
      <trkpt lat="41.0485720" lon="-3.4923930">
        <ele>1277.0</ele>
        <time>2020-09-29T11:41:01Z</time>
      </trkpt>
      <trkpt lat="41.0485720" lon="-3.4923930">
        <ele>1277.0</ele>
        <time>2020-09-29T11:41:02Z</time>
      </trkpt>
      <trkpt lat="41.0485880" lon="-3.4923100">
        <ele>1278.0</ele>
        <time>2020-09-29T11:41:03Z</time>
      </trkpt>
      <trkpt lat="41.0485970" lon="-3.4922720">
        <ele>1278.0</ele>
        <time>2020-09-29T11:41:04Z</time>
      </trkpt>
      <trkpt lat="41.0485970" lon="-3.4922720">
        <ele>1278.0</ele>
        <time>2020-09-29T11:41:05Z</time>
      </trkpt>
      <trkpt lat="41.0486170" lon="-3.4922000">
        <ele>1278.0</ele>
        <time>2020-09-29T11:41:06Z</time>
      </trkpt>
      <trkpt lat="41.0486270" lon="-3.4921650">
        <ele>1279.0</ele>
        <time>2020-09-29T11:41:07Z</time>
      </trkpt>
      <trkpt lat="41.0486270" lon="-3.4921650">
        <ele>1279.0</ele>
        <time>2020-09-29T11:41:08Z</time>
      </trkpt>
      <trkpt lat="41.0486550" lon="-3.4920950">
        <ele>1279.0</ele>
        <time>2020-09-29T11:41:09Z</time>
      </trkpt>
      <trkpt lat="41.0486730" lon="-3.4920620">
        <ele>1279.0</ele>
        <time>2020-09-29T11:41:10Z</time>
      </trkpt>
      <trkpt lat="41.0486730" lon="-3.4920620">
        <ele>1280.0</ele>
        <time>2020-09-29T11:41:11Z</time>
      </trkpt>
      <trkpt lat="41.0487020" lon="-3.4919930">
        <ele>1280.0</ele>
        <time>2020-09-29T11:41:12Z</time>
      </trkpt>
      <trkpt lat="41.0487130" lon="-3.4919550">
        <ele>1280.0</ele>
        <time>2020-09-29T11:41:13Z</time>
      </trkpt>
      <trkpt lat="41.0487130" lon="-3.4919550">
        <ele>1280.0</ele>
        <time>2020-09-29T11:41:14Z</time>
      </trkpt>
      <trkpt lat="41.0487370" lon="-3.4918800">
        <ele>1280.0</ele>
        <time>2020-09-29T11:41:15Z</time>
      </trkpt>
      <trkpt lat="41.0487370" lon="-3.4918800">
        <ele>1280.0</ele>
        <time>2020-09-29T11:41:16Z</time>
      </trkpt>
      <trkpt lat="41.0487530" lon="-3.4918020">
        <ele>1281.0</ele>
        <time>2020-09-29T11:41:17Z</time>
      </trkpt>
      <trkpt lat="41.0487530" lon="-3.4918020">
        <ele>1281.0</ele>
        <time>2020-09-29T11:41:18Z</time>
      </trkpt>
      <trkpt lat="41.0487630" lon="-3.4917270">
        <ele>1281.0</ele>
        <time>2020-09-29T11:41:19Z</time>
      </trkpt>
      <trkpt lat="41.0487630" lon="-3.4917270">
        <ele>1281.0</ele>
        <time>2020-09-29T11:41:20Z</time>
      </trkpt>
      <trkpt lat="41.0487720" lon="-3.4916480">
        <ele>1281.0</ele>
        <time>2020-09-29T11:41:21Z</time>
      </trkpt>
      <trkpt lat="41.0487780" lon="-3.4916080">
        <ele>1281.0</ele>
        <time>2020-09-29T11:41:22Z</time>
      </trkpt>
      <trkpt lat="41.0487780" lon="-3.4916080">
        <ele>1281.0</ele>
        <time>2020-09-29T11:41:23Z</time>
      </trkpt>
      <trkpt lat="41.0487880" lon="-3.4915280">
        <ele>1281.0</ele>
        <time>2020-09-29T11:41:24Z</time>
      </trkpt>
      <trkpt lat="41.0487950" lon="-3.4914880">
        <ele>1282.0</ele>
        <time>2020-09-29T11:41:25Z</time>
      </trkpt>
      <trkpt lat="41.0487950" lon="-3.4914880">
        <ele>1282.0</ele>
        <time>2020-09-29T11:41:26Z</time>
      </trkpt>
      <trkpt lat="41.0488000" lon="-3.4914120">
        <ele>1282.0</ele>
        <time>2020-09-29T11:41:27Z</time>
      </trkpt>
      <trkpt lat="41.0488000" lon="-3.4914120">
        <ele>1282.0</ele>
        <time>2020-09-29T11:41:28Z</time>
      </trkpt>
      <trkpt lat="41.0488050" lon="-3.4913380">
        <ele>1282.0</ele>
        <time>2020-09-29T11:41:29Z</time>
      </trkpt>
      <trkpt lat="41.0488050" lon="-3.4913380">
        <ele>1282.0</ele>
        <time>2020-09-29T11:41:30Z</time>
      </trkpt>
      <trkpt lat="41.0488150" lon="-3.4912600">
        <ele>1282.0</ele>
        <time>2020-09-29T11:41:31Z</time>
      </trkpt>
      <trkpt lat="41.0488150" lon="-3.4912600">
        <ele>1282.0</ele>
        <time>2020-09-29T11:41:32Z</time>
      </trkpt>
      <trkpt lat="41.0488270" lon="-3.4911880">
        <ele>1282.0</ele>
        <time>2020-09-29T11:41:33Z</time>
      </trkpt>
      <trkpt lat="41.0488270" lon="-3.4911880">
        <ele>1282.0</ele>
        <time>2020-09-29T11:41:34Z</time>
      </trkpt>
      <trkpt lat="41.0488300" lon="-3.4911130">
        <ele>1282.0</ele>
        <time>2020-09-29T11:41:35Z</time>
      </trkpt>
      <trkpt lat="41.0488300" lon="-3.4911130">
        <ele>1282.0</ele>
        <time>2020-09-29T11:41:36Z</time>
      </trkpt>
      <trkpt lat="41.0488350" lon="-3.4910350">
        <ele>1282.0</ele>
        <time>2020-09-29T11:41:37Z</time>
      </trkpt>
      <trkpt lat="41.0488370" lon="-3.4909950">
        <ele>1283.0</ele>
        <time>2020-09-29T11:41:38Z</time>
      </trkpt>
      <trkpt lat="41.0488370" lon="-3.4909950">
        <ele>1283.0</ele>
        <time>2020-09-29T11:41:39Z</time>
      </trkpt>
      <trkpt lat="41.0488370" lon="-3.4909220">
        <ele>1283.0</ele>
        <time>2020-09-29T11:41:40Z</time>
      </trkpt>
      <trkpt lat="41.0488370" lon="-3.4909220">
        <ele>1283.0</ele>
        <time>2020-09-29T11:41:41Z</time>
      </trkpt>
      <trkpt lat="41.0488330" lon="-3.4908450">
        <ele>1283.0</ele>
        <time>2020-09-29T11:41:42Z</time>
      </trkpt>
      <trkpt lat="41.0488330" lon="-3.4908080">
        <ele>1284.0</ele>
        <time>2020-09-29T11:41:43Z</time>
      </trkpt>
      <trkpt lat="41.0488330" lon="-3.4908080">
        <ele>1284.0</ele>
        <time>2020-09-29T11:41:44Z</time>
      </trkpt>
      <trkpt lat="41.0488250" lon="-3.4907350">
        <ele>1284.0</ele>
        <time>2020-09-29T11:41:45Z</time>
      </trkpt>
      <trkpt lat="41.0488200" lon="-3.4906980">
        <ele>1284.0</ele>
        <time>2020-09-29T11:41:46Z</time>
      </trkpt>
      <trkpt lat="41.0488120" lon="-3.4906600">
        <ele>1285.0</ele>
        <time>2020-09-29T11:41:47Z</time>
      </trkpt>
      <trkpt lat="41.0488120" lon="-3.4906600">
        <ele>1285.0</ele>
        <time>2020-09-29T11:41:48Z</time>
      </trkpt>
      <trkpt lat="41.0487850" lon="-3.4905930">
        <ele>1285.0</ele>
        <time>2020-09-29T11:41:49Z</time>
      </trkpt>
      <trkpt lat="41.0487850" lon="-3.4905930">
        <ele>1285.0</ele>
        <time>2020-09-29T11:41:50Z</time>
      </trkpt>
      <trkpt lat="41.0487420" lon="-3.4905370">
        <ele>1286.0</ele>
        <time>2020-09-29T11:41:51Z</time>
      </trkpt>
      <trkpt lat="41.0487420" lon="-3.4905370">
        <ele>1286.0</ele>
        <time>2020-09-29T11:41:52Z</time>
      </trkpt>
      <trkpt lat="41.0486900" lon="-3.4904970">
        <ele>1286.0</ele>
        <time>2020-09-29T11:41:53Z</time>
      </trkpt>
      <trkpt lat="41.0486900" lon="-3.4904970">
        <ele>1286.0</ele>
        <time>2020-09-29T11:41:54Z</time>
      </trkpt>
      <trkpt lat="41.0486250" lon="-3.4904730">
        <ele>1286.0</ele>
        <time>2020-09-29T11:41:55Z</time>
      </trkpt>
      <trkpt lat="41.0486250" lon="-3.4904730">
        <ele>1286.0</ele>
        <time>2020-09-29T11:41:56Z</time>
      </trkpt>
      <trkpt lat="41.0485620" lon="-3.4904720">
        <ele>1287.0</ele>
        <time>2020-09-29T11:41:57Z</time>
      </trkpt>
      <trkpt lat="41.0485620" lon="-3.4904720">
        <ele>1287.0</ele>
        <time>2020-09-29T11:41:58Z</time>
      </trkpt>
      <trkpt lat="41.0484980" lon="-3.4904800">
        <ele>1287.0</ele>
        <time>2020-09-29T11:41:59Z</time>
      </trkpt>
      <trkpt lat="41.0484650" lon="-3.4904820">
        <ele>1287.0</ele>
        <time>2020-09-29T11:42:00Z</time>
      </trkpt>
      <trkpt lat="41.0484650" lon="-3.4904820">
        <ele>1288.0</ele>
        <time>2020-09-29T11:42:01Z</time>
      </trkpt>
      <trkpt lat="41.0484000" lon="-3.4905020">
        <ele>1288.0</ele>
        <time>2020-09-29T11:42:02Z</time>
      </trkpt>
      <trkpt lat="41.0484000" lon="-3.4905020">
        <ele>1288.0</ele>
        <time>2020-09-29T11:42:03Z</time>
      </trkpt>
      <trkpt lat="41.0483380" lon="-3.4905320">
        <ele>1289.0</ele>
        <time>2020-09-29T11:42:04Z</time>
      </trkpt>
      <trkpt lat="41.0483380" lon="-3.4905320">
        <ele>1289.0</ele>
        <time>2020-09-29T11:42:05Z</time>
      </trkpt>
      <trkpt lat="41.0482780" lon="-3.4905550">
        <ele>1289.0</ele>
        <time>2020-09-29T11:42:06Z</time>
      </trkpt>
      <trkpt lat="41.0482470" lon="-3.4905680">
        <ele>1289.0</ele>
        <time>2020-09-29T11:42:07Z</time>
      </trkpt>
      <trkpt lat="41.0482470" lon="-3.4905680">
        <ele>1289.0</ele>
        <time>2020-09-29T11:42:08Z</time>
      </trkpt>
      <trkpt lat="41.0481830" lon="-3.4905930">
        <ele>1289.0</ele>
        <time>2020-09-29T11:42:09Z</time>
      </trkpt>
      <trkpt lat="41.0481500" lon="-3.4906020">
        <ele>1290.0</ele>
        <time>2020-09-29T11:42:10Z</time>
      </trkpt>
      <trkpt lat="41.0481500" lon="-3.4906020">
        <ele>1290.0</ele>
        <time>2020-09-29T11:42:11Z</time>
      </trkpt>
      <trkpt lat="41.0480850" lon="-3.4906230">
        <ele>1290.0</ele>
        <time>2020-09-29T11:42:12Z</time>
      </trkpt>
      <trkpt lat="41.0480520" lon="-3.4906320">
        <ele>1290.0</ele>
        <time>2020-09-29T11:42:13Z</time>
      </trkpt>
      <trkpt lat="41.0480520" lon="-3.4906320">
        <ele>1290.0</ele>
        <time>2020-09-29T11:42:14Z</time>
      </trkpt>
      <trkpt lat="41.0479850" lon="-3.4906350">
        <ele>1291.0</ele>
        <time>2020-09-29T11:42:15Z</time>
      </trkpt>
      <trkpt lat="41.0479520" lon="-3.4906300">
        <ele>1291.0</ele>
        <time>2020-09-29T11:42:16Z</time>
      </trkpt>
      <trkpt lat="41.0479170" lon="-3.4906250">
        <ele>1291.0</ele>
        <time>2020-09-29T11:42:17Z</time>
      </trkpt>
      <trkpt lat="41.0479170" lon="-3.4906250">
        <ele>1291.0</ele>
        <time>2020-09-29T11:42:18Z</time>
      </trkpt>
      <trkpt lat="41.0478520" lon="-3.4906100">
        <ele>1291.0</ele>
        <time>2020-09-29T11:42:19Z</time>
      </trkpt>
      <trkpt lat="41.0478520" lon="-3.4906100">
        <ele>1291.0</ele>
        <time>2020-09-29T11:42:20Z</time>
      </trkpt>
      <trkpt lat="41.0477900" lon="-3.4905880">
        <ele>1292.0</ele>
        <time>2020-09-29T11:42:21Z</time>
      </trkpt>
      <trkpt lat="41.0477900" lon="-3.4905880">
        <ele>1292.0</ele>
        <time>2020-09-29T11:42:22Z</time>
      </trkpt>
      <trkpt lat="41.0477280" lon="-3.4905670">
        <ele>1292.0</ele>
        <time>2020-09-29T11:42:23Z</time>
      </trkpt>
      <trkpt lat="41.0477280" lon="-3.4905670">
        <ele>1292.0</ele>
        <time>2020-09-29T11:42:24Z</time>
      </trkpt>
      <trkpt lat="41.0476650" lon="-3.4905450">
        <ele>1292.0</ele>
        <time>2020-09-29T11:42:25Z</time>
      </trkpt>
      <trkpt lat="41.0476330" lon="-3.4905370">
        <ele>1292.0</ele>
        <time>2020-09-29T11:42:26Z</time>
      </trkpt>
      <trkpt lat="41.0476330" lon="-3.4905370">
        <ele>1293.0</ele>
        <time>2020-09-29T11:42:27Z</time>
      </trkpt>
      <trkpt lat="41.0475750" lon="-3.4905150">
        <ele>1293.0</ele>
        <time>2020-09-29T11:42:28Z</time>
      </trkpt>
      <trkpt lat="41.0475750" lon="-3.4905150">
        <ele>1293.0</ele>
        <time>2020-09-29T11:42:29Z</time>
      </trkpt>
      <trkpt lat="41.0475150" lon="-3.4904900">
        <ele>1293.0</ele>
        <time>2020-09-29T11:42:30Z</time>
      </trkpt>
      <trkpt lat="41.0475150" lon="-3.4904900">
        <ele>1293.0</ele>
        <time>2020-09-29T11:42:31Z</time>
      </trkpt>
      <trkpt lat="41.0474580" lon="-3.4904550">
        <ele>1293.0</ele>
        <time>2020-09-29T11:42:32Z</time>
      </trkpt>
      <trkpt lat="41.0474300" lon="-3.4904370">
        <ele>1293.0</ele>
        <time>2020-09-29T11:42:33Z</time>
      </trkpt>
      <trkpt lat="41.0474300" lon="-3.4904370">
        <ele>1293.0</ele>
        <time>2020-09-29T11:42:34Z</time>
      </trkpt>
      <trkpt lat="41.0473750" lon="-3.4904000">
        <ele>1294.0</ele>
        <time>2020-09-29T11:42:35Z</time>
      </trkpt>
      <trkpt lat="41.0473750" lon="-3.4904000">
        <ele>1294.0</ele>
        <time>2020-09-29T11:42:36Z</time>
      </trkpt>
      <trkpt lat="41.0473200" lon="-3.4903630">
        <ele>1294.0</ele>
        <time>2020-09-29T11:42:37Z</time>
      </trkpt>
      <trkpt lat="41.0473200" lon="-3.4903630">
        <ele>1295.0</ele>
        <time>2020-09-29T11:42:38Z</time>
      </trkpt>
      <trkpt lat="41.0472680" lon="-3.4903220">
        <ele>1295.0</ele>
        <time>2020-09-29T11:42:39Z</time>
      </trkpt>
      <trkpt lat="41.0472430" lon="-3.4903020">
        <ele>1295.0</ele>
        <time>2020-09-29T11:42:40Z</time>
      </trkpt>
      <trkpt lat="41.0472430" lon="-3.4903020">
        <ele>1295.0</ele>
        <time>2020-09-29T11:42:41Z</time>
      </trkpt>
      <trkpt lat="41.0471900" lon="-3.4902650">
        <ele>1295.0</ele>
        <time>2020-09-29T11:42:42Z</time>
      </trkpt>
      <trkpt lat="41.0471630" lon="-3.4902470">
        <ele>1295.0</ele>
        <time>2020-09-29T11:42:43Z</time>
      </trkpt>
      <trkpt lat="41.0471630" lon="-3.4902470">
        <ele>1296.0</ele>
        <time>2020-09-29T11:42:44Z</time>
      </trkpt>
      <trkpt lat="41.0471130" lon="-3.4902080">
        <ele>1296.0</ele>
        <time>2020-09-29T11:42:45Z</time>
      </trkpt>
      <trkpt lat="41.0470870" lon="-3.4901900">
        <ele>1297.0</ele>
        <time>2020-09-29T11:42:46Z</time>
      </trkpt>
      <trkpt lat="41.0470870" lon="-3.4901900">
        <ele>1297.0</ele>
        <time>2020-09-29T11:42:47Z</time>
      </trkpt>
      <trkpt lat="41.0470320" lon="-3.4901570">
        <ele>1297.0</ele>
        <time>2020-09-29T11:42:48Z</time>
      </trkpt>
      <trkpt lat="41.0470030" lon="-3.4901420">
        <ele>1297.0</ele>
        <time>2020-09-29T11:42:49Z</time>
      </trkpt>
      <trkpt lat="41.0470030" lon="-3.4901420">
        <ele>1298.0</ele>
        <time>2020-09-29T11:42:50Z</time>
      </trkpt>
      <trkpt lat="41.0469470" lon="-3.4901170">
        <ele>1298.0</ele>
        <time>2020-09-29T11:42:51Z</time>
      </trkpt>
      <trkpt lat="41.0469470" lon="-3.4901170">
        <ele>1298.0</ele>
        <time>2020-09-29T11:42:52Z</time>
      </trkpt>
      <trkpt lat="41.0468870" lon="-3.4901070">
        <ele>1298.0</ele>
        <time>2020-09-29T11:42:53Z</time>
      </trkpt>
      <trkpt lat="41.0468870" lon="-3.4901070">
        <ele>1298.0</ele>
        <time>2020-09-29T11:42:54Z</time>
      </trkpt>
      <trkpt lat="41.0468250" lon="-3.4901150">
        <ele>1298.0</ele>
        <time>2020-09-29T11:42:55Z</time>
      </trkpt>
      <trkpt lat="41.0467950" lon="-3.4901220">
        <ele>1299.0</ele>
        <time>2020-09-29T11:42:56Z</time>
      </trkpt>
      <trkpt lat="41.0467950" lon="-3.4901220">
        <ele>1299.0</ele>
        <time>2020-09-29T11:42:57Z</time>
      </trkpt>
      <trkpt lat="41.0467330" lon="-3.4901380">
        <ele>1299.0</ele>
        <time>2020-09-29T11:42:58Z</time>
      </trkpt>
      <trkpt lat="41.0467330" lon="-3.4901380">
        <ele>1299.0</ele>
        <time>2020-09-29T11:42:59Z</time>
      </trkpt>
      <trkpt lat="41.0466700" lon="-3.4901570">
        <ele>1299.0</ele>
        <time>2020-09-29T11:43:00Z</time>
      </trkpt>
      <trkpt lat="41.0466700" lon="-3.4901570">
        <ele>1300.0</ele>
        <time>2020-09-29T11:43:01Z</time>
      </trkpt>
      <trkpt lat="41.0466120" lon="-3.4901730">
        <ele>1300.0</ele>
        <time>2020-09-29T11:43:02Z</time>
      </trkpt>
      <trkpt lat="41.0466120" lon="-3.4901730">
        <ele>1300.0</ele>
        <time>2020-09-29T11:43:03Z</time>
      </trkpt>
      <trkpt lat="41.0465500" lon="-3.4901850">
        <ele>1300.0</ele>
        <time>2020-09-29T11:43:04Z</time>
      </trkpt>
      <trkpt lat="41.0465200" lon="-3.4901930">
        <ele>1300.0</ele>
        <time>2020-09-29T11:43:05Z</time>
      </trkpt>
      <trkpt lat="41.0464880" lon="-3.4902020">
        <ele>1300.0</ele>
        <time>2020-09-29T11:43:06Z</time>
      </trkpt>
      <trkpt lat="41.0464880" lon="-3.4902020">
        <ele>1300.0</ele>
        <time>2020-09-29T11:43:07Z</time>
      </trkpt>
      <trkpt lat="41.0464270" lon="-3.4902220">
        <ele>1300.0</ele>
        <time>2020-09-29T11:43:08Z</time>
      </trkpt>
      <trkpt lat="41.0463950" lon="-3.4902300">
        <ele>1301.0</ele>
        <time>2020-09-29T11:43:09Z</time>
      </trkpt>
      <trkpt lat="41.0463950" lon="-3.4902300">
        <ele>1301.0</ele>
        <time>2020-09-29T11:43:10Z</time>
      </trkpt>
      <trkpt lat="41.0463350" lon="-3.4902480">
        <ele>1301.0</ele>
        <time>2020-09-29T11:43:11Z</time>
      </trkpt>
      <trkpt lat="41.0463030" lon="-3.4902550">
        <ele>1301.0</ele>
        <time>2020-09-29T11:43:12Z</time>
      </trkpt>
      <trkpt lat="41.0463030" lon="-3.4902550">
        <ele>1301.0</ele>
        <time>2020-09-29T11:43:13Z</time>
      </trkpt>
      <trkpt lat="41.0462420" lon="-3.4902730">
        <ele>1302.0</ele>
        <time>2020-09-29T11:43:14Z</time>
      </trkpt>
      <trkpt lat="41.0462120" lon="-3.4902820">
        <ele>1302.0</ele>
        <time>2020-09-29T11:43:15Z</time>
      </trkpt>
      <trkpt lat="41.0461820" lon="-3.4902900">
        <ele>1302.0</ele>
        <time>2020-09-29T11:43:16Z</time>
      </trkpt>
      <trkpt lat="41.0461820" lon="-3.4902900">
        <ele>1302.0</ele>
        <time>2020-09-29T11:43:17Z</time>
      </trkpt>
      <trkpt lat="41.0461200" lon="-3.4903100">
        <ele>1302.0</ele>
        <time>2020-09-29T11:43:18Z</time>
      </trkpt>
      <trkpt lat="41.0461200" lon="-3.4903100">
        <ele>1302.0</ele>
        <time>2020-09-29T11:43:19Z</time>
      </trkpt>
      <trkpt lat="41.0460580" lon="-3.4903250">
        <ele>1302.0</ele>
        <time>2020-09-29T11:43:20Z</time>
      </trkpt>
      <trkpt lat="41.0460580" lon="-3.4903250">
        <ele>1303.0</ele>
        <time>2020-09-29T11:43:21Z</time>
      </trkpt>
      <trkpt lat="41.0459950" lon="-3.4903420">
        <ele>1303.0</ele>
        <time>2020-09-29T11:43:22Z</time>
      </trkpt>
      <trkpt lat="41.0459630" lon="-3.4903520">
        <ele>1303.0</ele>
        <time>2020-09-29T11:43:23Z</time>
      </trkpt>
      <trkpt lat="41.0459630" lon="-3.4903520">
        <ele>1303.0</ele>
        <time>2020-09-29T11:43:24Z</time>
      </trkpt>
      <trkpt lat="41.0458980" lon="-3.4903620">
        <ele>1304.0</ele>
        <time>2020-09-29T11:43:25Z</time>
      </trkpt>
      <trkpt lat="41.0458980" lon="-3.4903620">
        <ele>1304.0</ele>
        <time>2020-09-29T11:43:26Z</time>
      </trkpt>
      <trkpt lat="41.0458370" lon="-3.4903780">
        <ele>1304.0</ele>
        <time>2020-09-29T11:43:27Z</time>
      </trkpt>
      <trkpt lat="41.0458050" lon="-3.4903880">
        <ele>1304.0</ele>
        <time>2020-09-29T11:43:28Z</time>
      </trkpt>
      <trkpt lat="41.0458050" lon="-3.4903880">
        <ele>1304.0</ele>
        <time>2020-09-29T11:43:29Z</time>
      </trkpt>
      <trkpt lat="41.0457420" lon="-3.4904080">
        <ele>1304.0</ele>
        <time>2020-09-29T11:43:30Z</time>
      </trkpt>
      <trkpt lat="41.0457420" lon="-3.4904080">
        <ele>1305.0</ele>
        <time>2020-09-29T11:43:31Z</time>
      </trkpt>
      <trkpt lat="41.0456770" lon="-3.4904200">
        <ele>1305.0</ele>
        <time>2020-09-29T11:43:32Z</time>
      </trkpt>
      <trkpt lat="41.0456770" lon="-3.4904200">
        <ele>1305.0</ele>
        <time>2020-09-29T11:43:33Z</time>
      </trkpt>
      <trkpt lat="41.0456130" lon="-3.4904320">
        <ele>1305.0</ele>
        <time>2020-09-29T11:43:34Z</time>
      </trkpt>
      <trkpt lat="41.0455820" lon="-3.4904380">
        <ele>1305.0</ele>
        <time>2020-09-29T11:43:35Z</time>
      </trkpt>
      <trkpt lat="41.0455820" lon="-3.4904380">
        <ele>1305.0</ele>
        <time>2020-09-29T11:43:36Z</time>
      </trkpt>
      <trkpt lat="41.0455180" lon="-3.4904480">
        <ele>1306.0</ele>
        <time>2020-09-29T11:43:37Z</time>
      </trkpt>
      <trkpt lat="41.0455180" lon="-3.4904480">
        <ele>1306.0</ele>
        <time>2020-09-29T11:43:38Z</time>
      </trkpt>
      <trkpt lat="41.0454530" lon="-3.4904470">
        <ele>1306.0</ele>
        <time>2020-09-29T11:43:39Z</time>
      </trkpt>
      <trkpt lat="41.0454530" lon="-3.4904470">
        <ele>1306.0</ele>
        <time>2020-09-29T11:43:40Z</time>
      </trkpt>
      <trkpt lat="41.0453880" lon="-3.4904370">
        <ele>1307.0</ele>
        <time>2020-09-29T11:43:41Z</time>
      </trkpt>
      <trkpt lat="41.0453570" lon="-3.4904300">
        <ele>1307.0</ele>
        <time>2020-09-29T11:43:42Z</time>
      </trkpt>
      <trkpt lat="41.0453250" lon="-3.4904170">
        <ele>1307.0</ele>
        <time>2020-09-29T11:43:43Z</time>
      </trkpt>
      <trkpt lat="41.0453250" lon="-3.4904170">
        <ele>1307.0</ele>
        <time>2020-09-29T11:43:44Z</time>
      </trkpt>
      <trkpt lat="41.0452620" lon="-3.4903830">
        <ele>1307.0</ele>
        <time>2020-09-29T11:43:45Z</time>
      </trkpt>
      <trkpt lat="41.0452300" lon="-3.4903670">
        <ele>1307.0</ele>
        <time>2020-09-29T11:43:46Z</time>
      </trkpt>
      <trkpt lat="41.0452300" lon="-3.4903670">
        <ele>1308.0</ele>
        <time>2020-09-29T11:43:47Z</time>
      </trkpt>
      <trkpt lat="41.0451670" lon="-3.4903350">
        <ele>1308.0</ele>
        <time>2020-09-29T11:43:48Z</time>
      </trkpt>
      <trkpt lat="41.0451370" lon="-3.4903200">
        <ele>1308.0</ele>
        <time>2020-09-29T11:43:49Z</time>
      </trkpt>
      <trkpt lat="41.0451030" lon="-3.4903070">
        <ele>1308.0</ele>
        <time>2020-09-29T11:43:50Z</time>
      </trkpt>
      <trkpt lat="41.0451030" lon="-3.4903070">
        <ele>1308.0</ele>
        <time>2020-09-29T11:43:51Z</time>
      </trkpt>
      <trkpt lat="41.0450380" lon="-3.4902920">
        <ele>1308.0</ele>
        <time>2020-09-29T11:43:52Z</time>
      </trkpt>
      <trkpt lat="41.0450380" lon="-3.4902920">
        <ele>1308.0</ele>
        <time>2020-09-29T11:43:53Z</time>
      </trkpt>
      <trkpt lat="41.0449720" lon="-3.4902930">
        <ele>1308.0</ele>
        <time>2020-09-29T11:43:54Z</time>
      </trkpt>
      <trkpt lat="41.0449380" lon="-3.4903020">
        <ele>1308.0</ele>
        <time>2020-09-29T11:43:55Z</time>
      </trkpt>
      <trkpt lat="41.0449380" lon="-3.4903020">
        <ele>1308.0</ele>
        <time>2020-09-29T11:43:56Z</time>
      </trkpt>
      <trkpt lat="41.0448780" lon="-3.4903520">
        <ele>1308.0</ele>
        <time>2020-09-29T11:43:57Z</time>
      </trkpt>
      <trkpt lat="41.0448780" lon="-3.4903520">
        <ele>1308.0</ele>
        <time>2020-09-29T11:43:58Z</time>
      </trkpt>
      <trkpt lat="41.0448370" lon="-3.4904220">
        <ele>1308.0</ele>
        <time>2020-09-29T11:43:59Z</time>
      </trkpt>
      <trkpt lat="41.0448370" lon="-3.4904220">
        <ele>1309.0</ele>
        <time>2020-09-29T11:44:00Z</time>
      </trkpt>
      <trkpt lat="41.0448080" lon="-3.4905020">
        <ele>1309.0</ele>
        <time>2020-09-29T11:44:01Z</time>
      </trkpt>
      <trkpt lat="41.0448080" lon="-3.4905020">
        <ele>1309.0</ele>
        <time>2020-09-29T11:44:02Z</time>
      </trkpt>
      <trkpt lat="41.0447830" lon="-3.4905870">
        <ele>1309.0</ele>
        <time>2020-09-29T11:44:03Z</time>
      </trkpt>
      <trkpt lat="41.0447830" lon="-3.4905870">
        <ele>1309.0</ele>
        <time>2020-09-29T11:44:04Z</time>
      </trkpt>
      <trkpt lat="41.0447630" lon="-3.4906720">
        <ele>1309.0</ele>
        <time>2020-09-29T11:44:05Z</time>
      </trkpt>
      <trkpt lat="41.0447550" lon="-3.4907150">
        <ele>1310.0</ele>
        <time>2020-09-29T11:44:06Z</time>
      </trkpt>
      <trkpt lat="41.0447550" lon="-3.4907150">
        <ele>1310.0</ele>
        <time>2020-09-29T11:44:07Z</time>
      </trkpt>
      <trkpt lat="41.0447370" lon="-3.4907930">
        <ele>1310.0</ele>
        <time>2020-09-29T11:44:08Z</time>
      </trkpt>
      <trkpt lat="41.0447280" lon="-3.4908330">
        <ele>1310.0</ele>
        <time>2020-09-29T11:44:09Z</time>
      </trkpt>
      <trkpt lat="41.0447280" lon="-3.4908330">
        <ele>1310.0</ele>
        <time>2020-09-29T11:44:10Z</time>
      </trkpt>
      <trkpt lat="41.0447030" lon="-3.4909230">
        <ele>1310.0</ele>
        <time>2020-09-29T11:44:11Z</time>
      </trkpt>
      <trkpt lat="41.0447030" lon="-3.4909230">
        <ele>1310.0</ele>
        <time>2020-09-29T11:44:12Z</time>
      </trkpt>
      <trkpt lat="41.0446770" lon="-3.4910050">
        <ele>1310.0</ele>
        <time>2020-09-29T11:44:13Z</time>
      </trkpt>
      <trkpt lat="41.0446770" lon="-3.4910050">
        <ele>1310.0</ele>
        <time>2020-09-29T11:44:14Z</time>
      </trkpt>
      <trkpt lat="41.0446480" lon="-3.4910780">
        <ele>1310.0</ele>
        <time>2020-09-29T11:44:15Z</time>
      </trkpt>
      <trkpt lat="41.0446480" lon="-3.4910780">
        <ele>1311.0</ele>
        <time>2020-09-29T11:44:16Z</time>
      </trkpt>
      <trkpt lat="41.0446070" lon="-3.4911480">
        <ele>1311.0</ele>
        <time>2020-09-29T11:44:17Z</time>
      </trkpt>
      <trkpt lat="41.0445830" lon="-3.4911820">
        <ele>1311.0</ele>
        <time>2020-09-29T11:44:18Z</time>
      </trkpt>
      <trkpt lat="41.0445830" lon="-3.4911820">
        <ele>1311.0</ele>
        <time>2020-09-29T11:44:19Z</time>
      </trkpt>
      <trkpt lat="41.0445320" lon="-3.4912320">
        <ele>1311.0</ele>
        <time>2020-09-29T11:44:20Z</time>
      </trkpt>
      <trkpt lat="41.0445320" lon="-3.4912320">
        <ele>1311.0</ele>
        <time>2020-09-29T11:44:21Z</time>
      </trkpt>
      <trkpt lat="41.0444780" lon="-3.4912750">
        <ele>1312.0</ele>
        <time>2020-09-29T11:44:22Z</time>
      </trkpt>
      <trkpt lat="41.0444780" lon="-3.4912750">
        <ele>1312.0</ele>
        <time>2020-09-29T11:44:23Z</time>
      </trkpt>
      <trkpt lat="41.0444220" lon="-3.4913050">
        <ele>1312.0</ele>
        <time>2020-09-29T11:44:24Z</time>
      </trkpt>
      <trkpt lat="41.0443950" lon="-3.4913170">
        <ele>1312.0</ele>
        <time>2020-09-29T11:44:25Z</time>
      </trkpt>
      <trkpt lat="41.0443950" lon="-3.4913170">
        <ele>1312.0</ele>
        <time>2020-09-29T11:44:26Z</time>
      </trkpt>
      <trkpt lat="41.0443400" lon="-3.4913370">
        <ele>1313.0</ele>
        <time>2020-09-29T11:44:27Z</time>
      </trkpt>
      <trkpt lat="41.0443400" lon="-3.4913370">
        <ele>1313.0</ele>
        <time>2020-09-29T11:44:28Z</time>
      </trkpt>
      <trkpt lat="41.0442870" lon="-3.4913570">
        <ele>1313.0</ele>
        <time>2020-09-29T11:44:29Z</time>
      </trkpt>
      <trkpt lat="41.0442870" lon="-3.4913570">
        <ele>1313.0</ele>
        <time>2020-09-29T11:44:30Z</time>
      </trkpt>
      <trkpt lat="41.0442300" lon="-3.4913720">
        <ele>1314.0</ele>
        <time>2020-09-29T11:44:31Z</time>
      </trkpt>
      <trkpt lat="41.0442300" lon="-3.4913720">
        <ele>1314.0</ele>
        <time>2020-09-29T11:44:32Z</time>
      </trkpt>
      <trkpt lat="41.0441770" lon="-3.4913970">
        <ele>1314.0</ele>
        <time>2020-09-29T11:44:33Z</time>
      </trkpt>
      <trkpt lat="41.0441770" lon="-3.4913970">
        <ele>1314.0</ele>
        <time>2020-09-29T11:44:34Z</time>
      </trkpt>
      <trkpt lat="41.0441220" lon="-3.4914120">
        <ele>1315.0</ele>
        <time>2020-09-29T11:44:35Z</time>
      </trkpt>
      <trkpt lat="41.0441220" lon="-3.4914120">
        <ele>1315.0</ele>
        <time>2020-09-29T11:44:36Z</time>
      </trkpt>
      <trkpt lat="41.0440650" lon="-3.4914230">
        <ele>1315.0</ele>
        <time>2020-09-29T11:44:37Z</time>
      </trkpt>
      <trkpt lat="41.0440650" lon="-3.4914230">
        <ele>1315.0</ele>
        <time>2020-09-29T11:44:38Z</time>
      </trkpt>
      <trkpt lat="41.0440070" lon="-3.4914280">
        <ele>1316.0</ele>
        <time>2020-09-29T11:44:39Z</time>
      </trkpt>
      <trkpt lat="41.0439730" lon="-3.4914200">
        <ele>1316.0</ele>
        <time>2020-09-29T11:44:40Z</time>
      </trkpt>
      <trkpt lat="41.0439730" lon="-3.4914200">
        <ele>1317.0</ele>
        <time>2020-09-29T11:44:41Z</time>
      </trkpt>
      <trkpt lat="41.0439230" lon="-3.4914000">
        <ele>1317.0</ele>
        <time>2020-09-29T11:44:42Z</time>
      </trkpt>
      <trkpt lat="41.0439000" lon="-3.4913870">
        <ele>1318.0</ele>
        <time>2020-09-29T11:44:43Z</time>
      </trkpt>
      <trkpt lat="41.0439000" lon="-3.4913870">
        <ele>1318.0</ele>
        <time>2020-09-29T11:44:44Z</time>
      </trkpt>
      <trkpt lat="41.0438620" lon="-3.4913400">
        <ele>1318.0</ele>
        <time>2020-09-29T11:44:45Z</time>
      </trkpt>
      <trkpt lat="41.0438620" lon="-3.4913400">
        <ele>1318.0</ele>
        <time>2020-09-29T11:44:46Z</time>
      </trkpt>
      <trkpt lat="41.0438430" lon="-3.4912750">
        <ele>1318.0</ele>
        <time>2020-09-29T11:44:47Z</time>
      </trkpt>
      <trkpt lat="41.0438370" lon="-3.4912420">
        <ele>1319.0</ele>
        <time>2020-09-29T11:44:48Z</time>
      </trkpt>
      <trkpt lat="41.0438370" lon="-3.4912420">
        <ele>1319.0</ele>
        <time>2020-09-29T11:44:49Z</time>
      </trkpt>
      <trkpt lat="41.0438380" lon="-3.4911730">
        <ele>1319.0</ele>
        <time>2020-09-29T11:44:50Z</time>
      </trkpt>
      <trkpt lat="41.0438380" lon="-3.4911730">
        <ele>1319.0</ele>
        <time>2020-09-29T11:44:51Z</time>
      </trkpt>
      <trkpt lat="41.0438450" lon="-3.4911070">
        <ele>1320.0</ele>
        <time>2020-09-29T11:44:52Z</time>
      </trkpt>
      <trkpt lat="41.0438500" lon="-3.4910730">
        <ele>1320.0</ele>
        <time>2020-09-29T11:44:53Z</time>
      </trkpt>
      <trkpt lat="41.0438500" lon="-3.4910730">
        <ele>1320.0</ele>
        <time>2020-09-29T11:44:54Z</time>
      </trkpt>
      <trkpt lat="41.0438600" lon="-3.4910030">
        <ele>1320.0</ele>
        <time>2020-09-29T11:44:55Z</time>
      </trkpt>
      <trkpt lat="41.0438600" lon="-3.4910030">
        <ele>1320.0</ele>
        <time>2020-09-29T11:44:56Z</time>
      </trkpt>
      <trkpt lat="41.0438800" lon="-3.4909370">
        <ele>1322.0</ele>
        <time>2020-09-29T11:44:57Z</time>
      </trkpt>
      <trkpt lat="41.0438800" lon="-3.4909370">
        <ele>1322.0</ele>
        <time>2020-09-29T11:44:58Z</time>
      </trkpt>
      <trkpt lat="41.0439030" lon="-3.4908770">
        <ele>1322.0</ele>
        <time>2020-09-29T11:44:59Z</time>
      </trkpt>
      <trkpt lat="41.0439030" lon="-3.4908770">
        <ele>1322.0</ele>
        <time>2020-09-29T11:45:00Z</time>
      </trkpt>
      <trkpt lat="41.0439250" lon="-3.4908170">
        <ele>1322.0</ele>
        <time>2020-09-29T11:45:01Z</time>
      </trkpt>
      <trkpt lat="41.0439250" lon="-3.4908170">
        <ele>1322.0</ele>
        <time>2020-09-29T11:45:02Z</time>
      </trkpt>
      <trkpt lat="41.0439480" lon="-3.4907550">
        <ele>1323.0</ele>
        <time>2020-09-29T11:45:03Z</time>
      </trkpt>
      <trkpt lat="41.0439480" lon="-3.4907550">
        <ele>1323.0</ele>
        <time>2020-09-29T11:45:04Z</time>
      </trkpt>
      <trkpt lat="41.0439700" lon="-3.4906880">
        <ele>1323.0</ele>
        <time>2020-09-29T11:45:05Z</time>
      </trkpt>
      <trkpt lat="41.0439700" lon="-3.4906880">
        <ele>1323.0</ele>
        <time>2020-09-29T11:45:06Z</time>
      </trkpt>
      <trkpt lat="41.0439870" lon="-3.4906220">
        <ele>1323.0</ele>
        <time>2020-09-29T11:45:07Z</time>
      </trkpt>
      <trkpt lat="41.0439870" lon="-3.4906220">
        <ele>1323.0</ele>
        <time>2020-09-29T11:45:08Z</time>
      </trkpt>
      <trkpt lat="41.0439920" lon="-3.4905550">
        <ele>1323.0</ele>
        <time>2020-09-29T11:45:09Z</time>
      </trkpt>
      <trkpt lat="41.0439920" lon="-3.4905550">
        <ele>1323.0</ele>
        <time>2020-09-29T11:45:10Z</time>
      </trkpt>
      <trkpt lat="41.0439920" lon="-3.4904850">
        <ele>1324.0</ele>
        <time>2020-09-29T11:45:11Z</time>
      </trkpt>
      <trkpt lat="41.0439920" lon="-3.4904850">
        <ele>1324.0</ele>
        <time>2020-09-29T11:45:12Z</time>
      </trkpt>
      <trkpt lat="41.0439900" lon="-3.4904150">
        <ele>1324.0</ele>
        <time>2020-09-29T11:45:13Z</time>
      </trkpt>
      <trkpt lat="41.0439900" lon="-3.4904150">
        <ele>1324.0</ele>
        <time>2020-09-29T11:45:14Z</time>
      </trkpt>
      <trkpt lat="41.0439830" lon="-3.4903450">
        <ele>1324.0</ele>
        <time>2020-09-29T11:45:15Z</time>
      </trkpt>
      <trkpt lat="41.0439830" lon="-3.4903450">
        <ele>1324.0</ele>
        <time>2020-09-29T11:45:16Z</time>
      </trkpt>
      <trkpt lat="41.0439830" lon="-3.4903450">
        <ele>1325.0</ele>
        <time>2020-09-29T11:45:17Z</time>
      </trkpt>
      <trkpt lat="41.0439770" lon="-3.4902750">
        <ele>1325.0</ele>
        <time>2020-09-29T11:45:18Z</time>
      </trkpt>
      <trkpt lat="41.0439620" lon="-3.4902100">
        <ele>1325.0</ele>
        <time>2020-09-29T11:45:19Z</time>
      </trkpt>
      <trkpt lat="41.0439580" lon="-3.4901770">
        <ele>1325.0</ele>
        <time>2020-09-29T11:45:20Z</time>
      </trkpt>
      <trkpt lat="41.0439580" lon="-3.4901770">
        <ele>1326.0</ele>
        <time>2020-09-29T11:45:21Z</time>
      </trkpt>
      <trkpt lat="41.0439450" lon="-3.4901100">
        <ele>1326.0</ele>
        <time>2020-09-29T11:45:22Z</time>
      </trkpt>
      <trkpt lat="41.0439450" lon="-3.4901100">
        <ele>1326.0</ele>
        <time>2020-09-29T11:45:23Z</time>
      </trkpt>
      <trkpt lat="41.0439300" lon="-3.4900430">
        <ele>1326.0</ele>
        <time>2020-09-29T11:45:24Z</time>
      </trkpt>
      <trkpt lat="41.0439220" lon="-3.4900080">
        <ele>1327.0</ele>
        <time>2020-09-29T11:45:25Z</time>
      </trkpt>
      <trkpt lat="41.0439170" lon="-3.4899730">
        <ele>1327.0</ele>
        <time>2020-09-29T11:45:26Z</time>
      </trkpt>
      <trkpt lat="41.0439170" lon="-3.4899730">
        <ele>1327.0</ele>
        <time>2020-09-29T11:45:27Z</time>
      </trkpt>
      <trkpt lat="41.0439070" lon="-3.4899030">
        <ele>1327.0</ele>
        <time>2020-09-29T11:45:28Z</time>
      </trkpt>
      <trkpt lat="41.0438980" lon="-3.4898700">
        <ele>1328.0</ele>
        <time>2020-09-29T11:45:29Z</time>
      </trkpt>
      <trkpt lat="41.0438980" lon="-3.4898700">
        <ele>1328.0</ele>
        <time>2020-09-29T11:45:30Z</time>
      </trkpt>
      <trkpt lat="41.0438800" lon="-3.4898000">
        <ele>1328.0</ele>
        <time>2020-09-29T11:45:31Z</time>
      </trkpt>
      <trkpt lat="41.0438800" lon="-3.4898000">
        <ele>1328.0</ele>
        <time>2020-09-29T11:45:32Z</time>
      </trkpt>
      <trkpt lat="41.0438670" lon="-3.4897300">
        <ele>1329.0</ele>
        <time>2020-09-29T11:45:33Z</time>
      </trkpt>
      <trkpt lat="41.0438650" lon="-3.4896950">
        <ele>1329.0</ele>
        <time>2020-09-29T11:45:34Z</time>
      </trkpt>
      <trkpt lat="41.0438650" lon="-3.4896950">
        <ele>1329.0</ele>
        <time>2020-09-29T11:45:35Z</time>
      </trkpt>
      <trkpt lat="41.0438670" lon="-3.4896230">
        <ele>1329.0</ele>
        <time>2020-09-29T11:45:36Z</time>
      </trkpt>
      <trkpt lat="41.0438670" lon="-3.4896230">
        <ele>1329.0</ele>
        <time>2020-09-29T11:45:37Z</time>
      </trkpt>
      <trkpt lat="41.0438880" lon="-3.4895500">
        <ele>1329.0</ele>
        <time>2020-09-29T11:45:38Z</time>
      </trkpt>
      <trkpt lat="41.0438880" lon="-3.4895500">
        <ele>1330.0</ele>
        <time>2020-09-29T11:45:39Z</time>
      </trkpt>
      <trkpt lat="41.0439230" lon="-3.4894880">
        <ele>1330.0</ele>
        <time>2020-09-29T11:45:40Z</time>
      </trkpt>
      <trkpt lat="41.0439230" lon="-3.4894880">
        <ele>1330.0</ele>
        <time>2020-09-29T11:45:41Z</time>
      </trkpt>
      <trkpt lat="41.0439780" lon="-3.4894470">
        <ele>1330.0</ele>
        <time>2020-09-29T11:45:42Z</time>
      </trkpt>
      <trkpt lat="41.0440070" lon="-3.4894320">
        <ele>1330.0</ele>
        <time>2020-09-29T11:45:43Z</time>
      </trkpt>
      <trkpt lat="41.0440070" lon="-3.4894320">
        <ele>1330.0</ele>
        <time>2020-09-29T11:45:44Z</time>
      </trkpt>
      <trkpt lat="41.0440670" lon="-3.4894070">
        <ele>1330.0</ele>
        <time>2020-09-29T11:45:45Z</time>
      </trkpt>
      <trkpt lat="41.0440970" lon="-3.4893970">
        <ele>1330.0</ele>
        <time>2020-09-29T11:45:46Z</time>
      </trkpt>
      <trkpt lat="41.0440970" lon="-3.4893970">
        <ele>1330.0</ele>
        <time>2020-09-29T11:45:47Z</time>
      </trkpt>
      <trkpt lat="41.0441530" lon="-3.4893700">
        <ele>1330.0</ele>
        <time>2020-09-29T11:45:48Z</time>
      </trkpt>
      <trkpt lat="41.0441830" lon="-3.4893620">
        <ele>1330.0</ele>
        <time>2020-09-29T11:45:49Z</time>
      </trkpt>
      <trkpt lat="41.0441830" lon="-3.4893620">
        <ele>1331.0</ele>
        <time>2020-09-29T11:45:50Z</time>
      </trkpt>
      <trkpt lat="41.0442370" lon="-3.4893450">
        <ele>1331.0</ele>
        <time>2020-09-29T11:45:51Z</time>
      </trkpt>
      <trkpt lat="41.0442370" lon="-3.4893450">
        <ele>1331.0</ele>
        <time>2020-09-29T11:45:52Z</time>
      </trkpt>
      <trkpt lat="41.0442970" lon="-3.4893220">
        <ele>1331.0</ele>
        <time>2020-09-29T11:45:53Z</time>
      </trkpt>
      <trkpt lat="41.0443230" lon="-3.4893120">
        <ele>1331.0</ele>
        <time>2020-09-29T11:45:54Z</time>
      </trkpt>
      <trkpt lat="41.0443230" lon="-3.4893120">
        <ele>1332.0</ele>
        <time>2020-09-29T11:45:55Z</time>
      </trkpt>
      <trkpt lat="41.0443720" lon="-3.4892780">
        <ele>1332.0</ele>
        <time>2020-09-29T11:45:56Z</time>
      </trkpt>
      <trkpt lat="41.0443970" lon="-3.4892620">
        <ele>1332.0</ele>
        <time>2020-09-29T11:45:57Z</time>
      </trkpt>
      <trkpt lat="41.0443970" lon="-3.4892620">
        <ele>1332.0</ele>
        <time>2020-09-29T11:45:58Z</time>
      </trkpt>
      <trkpt lat="41.0444480" lon="-3.4892230">
        <ele>1333.0</ele>
        <time>2020-09-29T11:45:59Z</time>
      </trkpt>
      <trkpt lat="41.0444480" lon="-3.4892230">
        <ele>1333.0</ele>
        <time>2020-09-29T11:46:00Z</time>
      </trkpt>
      <trkpt lat="41.0444950" lon="-3.4891780">
        <ele>1333.0</ele>
        <time>2020-09-29T11:46:01Z</time>
      </trkpt>
      <trkpt lat="41.0444950" lon="-3.4891780">
        <ele>1333.0</ele>
        <time>2020-09-29T11:46:02Z</time>
      </trkpt>
      <trkpt lat="41.0445370" lon="-3.4891330">
        <ele>1334.0</ele>
        <time>2020-09-29T11:46:03Z</time>
      </trkpt>
      <trkpt lat="41.0445370" lon="-3.4891330">
        <ele>1334.0</ele>
        <time>2020-09-29T11:46:04Z</time>
      </trkpt>
      <trkpt lat="41.0445730" lon="-3.4890750">
        <ele>1334.0</ele>
        <time>2020-09-29T11:46:05Z</time>
      </trkpt>
      <trkpt lat="41.0445730" lon="-3.4890750">
        <ele>1334.0</ele>
        <time>2020-09-29T11:46:06Z</time>
      </trkpt>
      <trkpt lat="41.0446100" lon="-3.4890130">
        <ele>1334.0</ele>
        <time>2020-09-29T11:46:07Z</time>
      </trkpt>
      <trkpt lat="41.0446300" lon="-3.4889850">
        <ele>1334.0</ele>
        <time>2020-09-29T11:46:08Z</time>
      </trkpt>
      <trkpt lat="41.0446300" lon="-3.4889850">
        <ele>1334.0</ele>
        <time>2020-09-29T11:46:09Z</time>
      </trkpt>
      <trkpt lat="41.0446670" lon="-3.4889270">
        <ele>1334.0</ele>
        <time>2020-09-29T11:46:10Z</time>
      </trkpt>
      <trkpt lat="41.0446670" lon="-3.4889270">
        <ele>1335.0</ele>
        <time>2020-09-29T11:46:11Z</time>
      </trkpt>
      <trkpt lat="41.0447070" lon="-3.4888700">
        <ele>1335.0</ele>
        <time>2020-09-29T11:46:12Z</time>
      </trkpt>
      <trkpt lat="41.0447270" lon="-3.4888450">
        <ele>1335.0</ele>
        <time>2020-09-29T11:46:13Z</time>
      </trkpt>
      <trkpt lat="41.0447270" lon="-3.4888450">
        <ele>1335.0</ele>
        <time>2020-09-29T11:46:14Z</time>
      </trkpt>
      <trkpt lat="41.0447700" lon="-3.4888000">
        <ele>1335.0</ele>
        <time>2020-09-29T11:46:15Z</time>
      </trkpt>
      <trkpt lat="41.0447950" lon="-3.4887780">
        <ele>1336.0</ele>
        <time>2020-09-29T11:46:16Z</time>
      </trkpt>
      <trkpt lat="41.0447950" lon="-3.4887780">
        <ele>1336.0</ele>
        <time>2020-09-29T11:46:17Z</time>
      </trkpt>
      <trkpt lat="41.0448420" lon="-3.4887350">
        <ele>1336.0</ele>
        <time>2020-09-29T11:46:18Z</time>
      </trkpt>
      <trkpt lat="41.0448650" lon="-3.4887130">
        <ele>1336.0</ele>
        <time>2020-09-29T11:46:19Z</time>
      </trkpt>
      <trkpt lat="41.0448650" lon="-3.4887130">
        <ele>1337.0</ele>
        <time>2020-09-29T11:46:20Z</time>
      </trkpt>
      <trkpt lat="41.0449120" lon="-3.4886720">
        <ele>1337.0</ele>
        <time>2020-09-29T11:46:21Z</time>
      </trkpt>
      <trkpt lat="41.0449120" lon="-3.4886720">
        <ele>1337.0</ele>
        <time>2020-09-29T11:46:22Z</time>
      </trkpt>
      <trkpt lat="41.0449520" lon="-3.4886300">
        <ele>1337.0</ele>
        <time>2020-09-29T11:46:23Z</time>
      </trkpt>
      <trkpt lat="41.0449750" lon="-3.4886070">
        <ele>1337.0</ele>
        <time>2020-09-29T11:46:24Z</time>
      </trkpt>
      <trkpt lat="41.0449750" lon="-3.4886070">
        <ele>1337.0</ele>
        <time>2020-09-29T11:46:25Z</time>
      </trkpt>
      <trkpt lat="41.0450180" lon="-3.4885570">
        <ele>1337.0</ele>
        <time>2020-09-29T11:46:26Z</time>
      </trkpt>
      <trkpt lat="41.0450180" lon="-3.4885570">
        <ele>1337.0</ele>
        <time>2020-09-29T11:46:27Z</time>
      </trkpt>
      <trkpt lat="41.0450580" lon="-3.4885080">
        <ele>1339.0</ele>
        <time>2020-09-29T11:46:28Z</time>
      </trkpt>
      <trkpt lat="41.0450580" lon="-3.4885080">
        <ele>1339.0</ele>
        <time>2020-09-29T11:46:29Z</time>
      </trkpt>
      <trkpt lat="41.0451020" lon="-3.4884580">
        <ele>1339.0</ele>
        <time>2020-09-29T11:46:30Z</time>
      </trkpt>
      <trkpt lat="41.0451020" lon="-3.4884580">
        <ele>1339.0</ele>
        <time>2020-09-29T11:46:31Z</time>
      </trkpt>
      <trkpt lat="41.0451450" lon="-3.4884100">
        <ele>1340.0</ele>
        <time>2020-09-29T11:46:32Z</time>
      </trkpt>
      <trkpt lat="41.0451450" lon="-3.4884100">
        <ele>1340.0</ele>
        <time>2020-09-29T11:46:33Z</time>
      </trkpt>
      <trkpt lat="41.0451820" lon="-3.4883580">
        <ele>1340.0</ele>
        <time>2020-09-29T11:46:34Z</time>
      </trkpt>
      <trkpt lat="41.0451820" lon="-3.4883580">
        <ele>1340.0</ele>
        <time>2020-09-29T11:46:35Z</time>
      </trkpt>
      <trkpt lat="41.0452170" lon="-3.4883050">
        <ele>1341.0</ele>
        <time>2020-09-29T11:46:36Z</time>
      </trkpt>
      <trkpt lat="41.0452170" lon="-3.4883050">
        <ele>1341.0</ele>
        <time>2020-09-29T11:46:37Z</time>
      </trkpt>
      <trkpt lat="41.0452530" lon="-3.4882520">
        <ele>1341.0</ele>
        <time>2020-09-29T11:46:38Z</time>
      </trkpt>
      <trkpt lat="41.0452750" lon="-3.4882270">
        <ele>1341.0</ele>
        <time>2020-09-29T11:46:39Z</time>
      </trkpt>
      <trkpt lat="41.0452750" lon="-3.4882270">
        <ele>1342.0</ele>
        <time>2020-09-29T11:46:40Z</time>
      </trkpt>
      <trkpt lat="41.0453100" lon="-3.4881770">
        <ele>1342.0</ele>
        <time>2020-09-29T11:46:41Z</time>
      </trkpt>
      <trkpt lat="41.0453100" lon="-3.4881770">
        <ele>1342.0</ele>
        <time>2020-09-29T11:46:42Z</time>
      </trkpt>
      <trkpt lat="41.0453420" lon="-3.4881280">
        <ele>1342.0</ele>
        <time>2020-09-29T11:46:43Z</time>
      </trkpt>
      <trkpt lat="41.0453600" lon="-3.4881080">
        <ele>1343.0</ele>
        <time>2020-09-29T11:46:44Z</time>
      </trkpt>
      <trkpt lat="41.0453600" lon="-3.4881080">
        <ele>1343.0</ele>
        <time>2020-09-29T11:46:45Z</time>
      </trkpt>
      <trkpt lat="41.0453970" lon="-3.4880680">
        <ele>1343.0</ele>
        <time>2020-09-29T11:46:46Z</time>
      </trkpt>
      <trkpt lat="41.0453970" lon="-3.4880680">
        <ele>1343.0</ele>
        <time>2020-09-29T11:46:47Z</time>
      </trkpt>
      <trkpt lat="41.0454250" lon="-3.4880180">
        <ele>1344.0</ele>
        <time>2020-09-29T11:46:48Z</time>
      </trkpt>
      <trkpt lat="41.0454420" lon="-3.4879900">
        <ele>1344.0</ele>
        <time>2020-09-29T11:46:49Z</time>
      </trkpt>
      <trkpt lat="41.0454420" lon="-3.4879900">
        <ele>1344.0</ele>
        <time>2020-09-29T11:46:50Z</time>
      </trkpt>
      <trkpt lat="41.0454770" lon="-3.4879420">
        <ele>1345.0</ele>
        <time>2020-09-29T11:46:51Z</time>
      </trkpt>
      <trkpt lat="41.0454770" lon="-3.4879420">
        <ele>1345.0</ele>
        <time>2020-09-29T11:46:52Z</time>
      </trkpt>
      <trkpt lat="41.0455080" lon="-3.4878950">
        <ele>1345.0</ele>
        <time>2020-09-29T11:46:53Z</time>
      </trkpt>
      <trkpt lat="41.0455080" lon="-3.4878950">
        <ele>1345.0</ele>
        <time>2020-09-29T11:46:54Z</time>
      </trkpt>
      <trkpt lat="41.0455420" lon="-3.4878470">
        <ele>1346.0</ele>
        <time>2020-09-29T11:46:55Z</time>
      </trkpt>
      <trkpt lat="41.0455580" lon="-3.4878220">
        <ele>1346.0</ele>
        <time>2020-09-29T11:46:56Z</time>
      </trkpt>
      <trkpt lat="41.0455580" lon="-3.4878220">
        <ele>1346.0</ele>
        <time>2020-09-29T11:46:57Z</time>
      </trkpt>
      <trkpt lat="41.0455980" lon="-3.4877750">
        <ele>1346.0</ele>
        <time>2020-09-29T11:46:58Z</time>
      </trkpt>
      <trkpt lat="41.0455980" lon="-3.4877750">
        <ele>1346.0</ele>
        <time>2020-09-29T11:46:59Z</time>
      </trkpt>
      <trkpt lat="41.0456400" lon="-3.4877320">
        <ele>1346.0</ele>
        <time>2020-09-29T11:47:00Z</time>
      </trkpt>
      <trkpt lat="41.0456620" lon="-3.4877120">
        <ele>1346.0</ele>
        <time>2020-09-29T11:47:01Z</time>
      </trkpt>
      <trkpt lat="41.0456830" lon="-3.4876900">
        <ele>1346.0</ele>
        <time>2020-09-29T11:47:02Z</time>
      </trkpt>
      <trkpt lat="41.0456830" lon="-3.4876900">
        <ele>1346.0</ele>
        <time>2020-09-29T11:47:03Z</time>
      </trkpt>
      <trkpt lat="41.0457350" lon="-3.4876530">
        <ele>1346.0</ele>
        <time>2020-09-29T11:47:04Z</time>
      </trkpt>
      <trkpt lat="41.0457350" lon="-3.4876530">
        <ele>1347.0</ele>
        <time>2020-09-29T11:47:05Z</time>
      </trkpt>
      <trkpt lat="41.0457900" lon="-3.4876270">
        <ele>1347.0</ele>
        <time>2020-09-29T11:47:06Z</time>
      </trkpt>
      <trkpt lat="41.0458180" lon="-3.4876170">
        <ele>1347.0</ele>
        <time>2020-09-29T11:47:07Z</time>
      </trkpt>
      <trkpt lat="41.0458180" lon="-3.4876170">
        <ele>1347.0</ele>
        <time>2020-09-29T11:47:08Z</time>
      </trkpt>
      <trkpt lat="41.0458680" lon="-3.4875950">
        <ele>1348.0</ele>
        <time>2020-09-29T11:47:09Z</time>
      </trkpt>
      <trkpt lat="41.0458680" lon="-3.4875950">
        <ele>1348.0</ele>
        <time>2020-09-29T11:47:10Z</time>
      </trkpt>
      <trkpt lat="41.0459180" lon="-3.4875780">
        <ele>1348.0</ele>
        <time>2020-09-29T11:47:11Z</time>
      </trkpt>
      <trkpt lat="41.0459180" lon="-3.4875780">
        <ele>1348.0</ele>
        <time>2020-09-29T11:47:12Z</time>
      </trkpt>
      <trkpt lat="41.0459750" lon="-3.4875670">
        <ele>1349.0</ele>
        <time>2020-09-29T11:47:13Z</time>
      </trkpt>
      <trkpt lat="41.0459750" lon="-3.4875670">
        <ele>1349.0</ele>
        <time>2020-09-29T11:47:14Z</time>
      </trkpt>
      <trkpt lat="41.0460350" lon="-3.4875580">
        <ele>1349.0</ele>
        <time>2020-09-29T11:47:15Z</time>
      </trkpt>
      <trkpt lat="41.0460350" lon="-3.4875580">
        <ele>1349.0</ele>
        <time>2020-09-29T11:47:16Z</time>
      </trkpt>
      <trkpt lat="41.0460920" lon="-3.4875420">
        <ele>1349.0</ele>
        <time>2020-09-29T11:47:17Z</time>
      </trkpt>
      <trkpt lat="41.0461180" lon="-3.4875320">
        <ele>1350.0</ele>
        <time>2020-09-29T11:47:18Z</time>
      </trkpt>
      <trkpt lat="41.0461180" lon="-3.4875320">
        <ele>1350.0</ele>
        <time>2020-09-29T11:47:19Z</time>
      </trkpt>
      <trkpt lat="41.0461730" lon="-3.4875150">
        <ele>1350.0</ele>
        <time>2020-09-29T11:47:20Z</time>
      </trkpt>
      <trkpt lat="41.0461730" lon="-3.4875150">
        <ele>1350.0</ele>
        <time>2020-09-29T11:47:21Z</time>
      </trkpt>
      <trkpt lat="41.0462250" lon="-3.4874930">
        <ele>1350.0</ele>
        <time>2020-09-29T11:47:22Z</time>
      </trkpt>
      <trkpt lat="41.0462500" lon="-3.4874800">
        <ele>1350.0</ele>
        <time>2020-09-29T11:47:23Z</time>
      </trkpt>
      <trkpt lat="41.0462770" lon="-3.4874650">
        <ele>1351.0</ele>
        <time>2020-09-29T11:47:24Z</time>
      </trkpt>
      <trkpt lat="41.0463000" lon="-3.4874520">
        <ele>1351.0</ele>
        <time>2020-09-29T11:47:25Z</time>
      </trkpt>
      <trkpt lat="41.0463000" lon="-3.4874520">
        <ele>1351.0</ele>
        <time>2020-09-29T11:47:26Z</time>
      </trkpt>
      <trkpt lat="41.0463480" lon="-3.4874230">
        <ele>1352.0</ele>
        <time>2020-09-29T11:47:27Z</time>
      </trkpt>
      <trkpt lat="41.0463480" lon="-3.4874230">
        <ele>1352.0</ele>
        <time>2020-09-29T11:47:28Z</time>
      </trkpt>
      <trkpt lat="41.0463980" lon="-3.4873880">
        <ele>1352.0</ele>
        <time>2020-09-29T11:47:29Z</time>
      </trkpt>
      <trkpt lat="41.0463980" lon="-3.4873880">
        <ele>1352.0</ele>
        <time>2020-09-29T11:47:30Z</time>
      </trkpt>
      <trkpt lat="41.0464500" lon="-3.4873530">
        <ele>1352.0</ele>
        <time>2020-09-29T11:47:31Z</time>
      </trkpt>
      <trkpt lat="41.0464500" lon="-3.4873530">
        <ele>1352.0</ele>
        <time>2020-09-29T11:47:32Z</time>
      </trkpt>
      <trkpt lat="41.0465020" lon="-3.4873180">
        <ele>1352.0</ele>
        <time>2020-09-29T11:47:33Z</time>
      </trkpt>
      <trkpt lat="41.0465020" lon="-3.4873180">
        <ele>1352.0</ele>
        <time>2020-09-29T11:47:34Z</time>
      </trkpt>
      <trkpt lat="41.0465530" lon="-3.4872830">
        <ele>1352.0</ele>
        <time>2020-09-29T11:47:35Z</time>
      </trkpt>
      <trkpt lat="41.0465530" lon="-3.4872830">
        <ele>1352.0</ele>
        <time>2020-09-29T11:47:36Z</time>
      </trkpt>
      <trkpt lat="41.0465980" lon="-3.4872380">
        <ele>1353.0</ele>
        <time>2020-09-29T11:47:37Z</time>
      </trkpt>
      <trkpt lat="41.0466200" lon="-3.4872150">
        <ele>1353.0</ele>
        <time>2020-09-29T11:47:38Z</time>
      </trkpt>
      <trkpt lat="41.0466200" lon="-3.4872150">
        <ele>1353.0</ele>
        <time>2020-09-29T11:47:39Z</time>
      </trkpt>
      <trkpt lat="41.0466670" lon="-3.4871700">
        <ele>1353.0</ele>
        <time>2020-09-29T11:47:40Z</time>
      </trkpt>
      <trkpt lat="41.0466670" lon="-3.4871700">
        <ele>1353.0</ele>
        <time>2020-09-29T11:47:41Z</time>
      </trkpt>
      <trkpt lat="41.0467050" lon="-3.4871200">
        <ele>1353.0</ele>
        <time>2020-09-29T11:47:42Z</time>
      </trkpt>
      <trkpt lat="41.0467230" lon="-3.4870930">
        <ele>1354.0</ele>
        <time>2020-09-29T11:47:43Z</time>
      </trkpt>
      <trkpt lat="41.0467230" lon="-3.4870930">
        <ele>1354.0</ele>
        <time>2020-09-29T11:47:44Z</time>
      </trkpt>
      <trkpt lat="41.0467650" lon="-3.4870420">
        <ele>1354.0</ele>
        <time>2020-09-29T11:47:45Z</time>
      </trkpt>
      <trkpt lat="41.0467870" lon="-3.4870170">
        <ele>1354.0</ele>
        <time>2020-09-29T11:47:46Z</time>
      </trkpt>
      <trkpt lat="41.0467870" lon="-3.4870170">
        <ele>1355.0</ele>
        <time>2020-09-29T11:47:47Z</time>
      </trkpt>
      <trkpt lat="41.0468280" lon="-3.4869670">
        <ele>1355.0</ele>
        <time>2020-09-29T11:47:48Z</time>
      </trkpt>
      <trkpt lat="41.0468470" lon="-3.4869400">
        <ele>1355.0</ele>
        <time>2020-09-29T11:47:49Z</time>
      </trkpt>
      <trkpt lat="41.0468650" lon="-3.4869100">
        <ele>1355.0</ele>
        <time>2020-09-29T11:47:50Z</time>
      </trkpt>
      <trkpt lat="41.0468650" lon="-3.4869100">
        <ele>1356.0</ele>
        <time>2020-09-29T11:47:51Z</time>
      </trkpt>
      <trkpt lat="41.0469020" lon="-3.4868520">
        <ele>1356.0</ele>
        <time>2020-09-29T11:47:52Z</time>
      </trkpt>
      <trkpt lat="41.0469220" lon="-3.4868230">
        <ele>1356.0</ele>
        <time>2020-09-29T11:47:53Z</time>
      </trkpt>
      <trkpt lat="41.0469220" lon="-3.4868230">
        <ele>1356.0</ele>
        <time>2020-09-29T11:47:54Z</time>
      </trkpt>
      <trkpt lat="41.0469630" lon="-3.4867670">
        <ele>1357.0</ele>
        <time>2020-09-29T11:47:55Z</time>
      </trkpt>
      <trkpt lat="41.0469630" lon="-3.4867670">
        <ele>1357.0</ele>
        <time>2020-09-29T11:47:56Z</time>
      </trkpt>
      <trkpt lat="41.0470000" lon="-3.4867080">
        <ele>1357.0</ele>
        <time>2020-09-29T11:47:57Z</time>
      </trkpt>
      <trkpt lat="41.0470000" lon="-3.4867080">
        <ele>1357.0</ele>
        <time>2020-09-29T11:47:58Z</time>
      </trkpt>
      <trkpt lat="41.0470350" lon="-3.4866480">
        <ele>1357.0</ele>
        <time>2020-09-29T11:47:59Z</time>
      </trkpt>
      <trkpt lat="41.0470350" lon="-3.4866480">
        <ele>1357.0</ele>
        <time>2020-09-29T11:48:00Z</time>
      </trkpt>
      <trkpt lat="41.0470700" lon="-3.4865830">
        <ele>1358.0</ele>
        <time>2020-09-29T11:48:01Z</time>
      </trkpt>
      <trkpt lat="41.0470700" lon="-3.4865830">
        <ele>1358.0</ele>
        <time>2020-09-29T11:48:02Z</time>
      </trkpt>
      <trkpt lat="41.0471080" lon="-3.4865230">
        <ele>1358.0</ele>
        <time>2020-09-29T11:48:03Z</time>
      </trkpt>
      <trkpt lat="41.0471080" lon="-3.4865230">
        <ele>1358.0</ele>
        <time>2020-09-29T11:48:04Z</time>
      </trkpt>
      <trkpt lat="41.0471450" lon="-3.4864580">
        <ele>1358.0</ele>
        <time>2020-09-29T11:48:05Z</time>
      </trkpt>
      <trkpt lat="41.0471630" lon="-3.4864250">
        <ele>1358.0</ele>
        <time>2020-09-29T11:48:06Z</time>
      </trkpt>
      <trkpt lat="41.0471630" lon="-3.4864250">
        <ele>1358.0</ele>
        <time>2020-09-29T11:48:07Z</time>
      </trkpt>
      <trkpt lat="41.0471970" lon="-3.4863600">
        <ele>1358.0</ele>
        <time>2020-09-29T11:48:08Z</time>
      </trkpt>
      <trkpt lat="41.0471970" lon="-3.4863600">
        <ele>1358.0</ele>
        <time>2020-09-29T11:48:09Z</time>
      </trkpt>
      <trkpt lat="41.0472320" lon="-3.4863000">
        <ele>1359.0</ele>
        <time>2020-09-29T11:48:10Z</time>
      </trkpt>
      <trkpt lat="41.0472470" lon="-3.4862680">
        <ele>1359.0</ele>
        <time>2020-09-29T11:48:11Z</time>
      </trkpt>
      <trkpt lat="41.0472470" lon="-3.4862680">
        <ele>1359.0</ele>
        <time>2020-09-29T11:48:12Z</time>
      </trkpt>
      <trkpt lat="41.0472770" lon="-3.4862030">
        <ele>1359.0</ele>
        <time>2020-09-29T11:48:13Z</time>
      </trkpt>
      <trkpt lat="41.0472770" lon="-3.4862030">
        <ele>1359.0</ele>
        <time>2020-09-29T11:48:14Z</time>
      </trkpt>
      <trkpt lat="41.0473150" lon="-3.4861450">
        <ele>1359.0</ele>
        <time>2020-09-29T11:48:15Z</time>
      </trkpt>
      <trkpt lat="41.0473150" lon="-3.4861450">
        <ele>1360.0</ele>
        <time>2020-09-29T11:48:16Z</time>
      </trkpt>
      <trkpt lat="41.0473450" lon="-3.4860800">
        <ele>1360.0</ele>
        <time>2020-09-29T11:48:17Z</time>
      </trkpt>
      <trkpt lat="41.0473580" lon="-3.4860470">
        <ele>1360.0</ele>
        <time>2020-09-29T11:48:18Z</time>
      </trkpt>
      <trkpt lat="41.0473700" lon="-3.4860130">
        <ele>1360.0</ele>
        <time>2020-09-29T11:48:19Z</time>
      </trkpt>
      <trkpt lat="41.0473700" lon="-3.4860130">
        <ele>1361.0</ele>
        <time>2020-09-29T11:48:20Z</time>
      </trkpt>
      <trkpt lat="41.0473930" lon="-3.4859450">
        <ele>1361.0</ele>
        <time>2020-09-29T11:48:21Z</time>
      </trkpt>
      <trkpt lat="41.0473930" lon="-3.4859450">
        <ele>1361.0</ele>
        <time>2020-09-29T11:48:22Z</time>
      </trkpt>
      <trkpt lat="41.0474220" lon="-3.4858800">
        <ele>1361.0</ele>
        <time>2020-09-29T11:48:23Z</time>
      </trkpt>
      <trkpt lat="41.0474220" lon="-3.4858800">
        <ele>1362.0</ele>
        <time>2020-09-29T11:48:24Z</time>
      </trkpt>
      <trkpt lat="41.0474400" lon="-3.4858130">
        <ele>1362.0</ele>
        <time>2020-09-29T11:48:25Z</time>
      </trkpt>
      <trkpt lat="41.0474400" lon="-3.4858130">
        <ele>1362.0</ele>
        <time>2020-09-29T11:48:26Z</time>
      </trkpt>
      <trkpt lat="41.0474620" lon="-3.4857400">
        <ele>1362.0</ele>
        <time>2020-09-29T11:48:27Z</time>
      </trkpt>
      <trkpt lat="41.0474620" lon="-3.4857400">
        <ele>1362.0</ele>
        <time>2020-09-29T11:48:28Z</time>
      </trkpt>
      <trkpt lat="41.0474820" lon="-3.4856680">
        <ele>1362.0</ele>
        <time>2020-09-29T11:48:29Z</time>
      </trkpt>
      <trkpt lat="41.0474880" lon="-3.4856280">
        <ele>1363.0</ele>
        <time>2020-09-29T11:48:30Z</time>
      </trkpt>
      <trkpt lat="41.0474880" lon="-3.4856280">
        <ele>1363.0</ele>
        <time>2020-09-29T11:48:31Z</time>
      </trkpt>
      <trkpt lat="41.0475050" lon="-3.4855550">
        <ele>1363.0</ele>
        <time>2020-09-29T11:48:32Z</time>
      </trkpt>
      <trkpt lat="41.0475050" lon="-3.4855550">
        <ele>1363.0</ele>
        <time>2020-09-29T11:48:33Z</time>
      </trkpt>
      <trkpt lat="41.0475220" lon="-3.4854830">
        <ele>1364.0</ele>
        <time>2020-09-29T11:48:34Z</time>
      </trkpt>
      <trkpt lat="41.0475220" lon="-3.4854830">
        <ele>1364.0</ele>
        <time>2020-09-29T11:48:35Z</time>
      </trkpt>
      <trkpt lat="41.0475300" lon="-3.4854080">
        <ele>1364.0</ele>
        <time>2020-09-29T11:48:36Z</time>
      </trkpt>
      <trkpt lat="41.0475350" lon="-3.4853720">
        <ele>1364.0</ele>
        <time>2020-09-29T11:48:37Z</time>
      </trkpt>
      <trkpt lat="41.0475430" lon="-3.4853350">
        <ele>1364.0</ele>
        <time>2020-09-29T11:48:38Z</time>
      </trkpt>
      <trkpt lat="41.0475430" lon="-3.4853350">
        <ele>1364.0</ele>
        <time>2020-09-29T11:48:39Z</time>
      </trkpt>
      <trkpt lat="41.0475580" lon="-3.4852600">
        <ele>1365.0</ele>
        <time>2020-09-29T11:48:40Z</time>
      </trkpt>
      <trkpt lat="41.0475670" lon="-3.4852250">
        <ele>1365.0</ele>
        <time>2020-09-29T11:48:41Z</time>
      </trkpt>
      <trkpt lat="41.0475670" lon="-3.4852250">
        <ele>1365.0</ele>
        <time>2020-09-29T11:48:42Z</time>
      </trkpt>
      <trkpt lat="41.0475800" lon="-3.4851530">
        <ele>1365.0</ele>
        <time>2020-09-29T11:48:43Z</time>
      </trkpt>
      <trkpt lat="41.0475800" lon="-3.4851530">
        <ele>1366.0</ele>
        <time>2020-09-29T11:48:44Z</time>
      </trkpt>
      <trkpt lat="41.0475920" lon="-3.4850830">
        <ele>1366.0</ele>
        <time>2020-09-29T11:48:45Z</time>
      </trkpt>
      <trkpt lat="41.0475920" lon="-3.4850830">
        <ele>1366.0</ele>
        <time>2020-09-29T11:48:46Z</time>
      </trkpt>
      <trkpt lat="41.0476070" lon="-3.4850150">
        <ele>1366.0</ele>
        <time>2020-09-29T11:48:47Z</time>
      </trkpt>
      <trkpt lat="41.0476070" lon="-3.4850150">
        <ele>1367.0</ele>
        <time>2020-09-29T11:48:48Z</time>
      </trkpt>
      <trkpt lat="41.0476220" lon="-3.4849480">
        <ele>1367.0</ele>
        <time>2020-09-29T11:48:49Z</time>
      </trkpt>
      <trkpt lat="41.0476300" lon="-3.4849150">
        <ele>1367.0</ele>
        <time>2020-09-29T11:48:50Z</time>
      </trkpt>
      <trkpt lat="41.0476300" lon="-3.4849150">
        <ele>1367.0</ele>
        <time>2020-09-29T11:48:51Z</time>
      </trkpt>
      <trkpt lat="41.0476500" lon="-3.4848530">
        <ele>1368.0</ele>
        <time>2020-09-29T11:48:52Z</time>
      </trkpt>
      <trkpt lat="41.0476500" lon="-3.4848530">
        <ele>1368.0</ele>
        <time>2020-09-29T11:48:53Z</time>
      </trkpt>
      <trkpt lat="41.0476700" lon="-3.4847900">
        <ele>1368.0</ele>
        <time>2020-09-29T11:48:54Z</time>
      </trkpt>
      <trkpt lat="41.0476820" lon="-3.4847570">
        <ele>1368.0</ele>
        <time>2020-09-29T11:48:55Z</time>
      </trkpt>
      <trkpt lat="41.0476820" lon="-3.4847570">
        <ele>1369.0</ele>
        <time>2020-09-29T11:48:56Z</time>
      </trkpt>
      <trkpt lat="41.0477030" lon="-3.4846930">
        <ele>1369.0</ele>
        <time>2020-09-29T11:48:57Z</time>
      </trkpt>
      <trkpt lat="41.0477030" lon="-3.4846930">
        <ele>1369.0</ele>
        <time>2020-09-29T11:48:58Z</time>
      </trkpt>
      <trkpt lat="41.0477250" lon="-3.4846270">
        <ele>1369.0</ele>
        <time>2020-09-29T11:48:59Z</time>
      </trkpt>
      <trkpt lat="41.0477250" lon="-3.4846270">
        <ele>1369.0</ele>
        <time>2020-09-29T11:49:00Z</time>
      </trkpt>
      <trkpt lat="41.0477480" lon="-3.4845680">
        <ele>1369.0</ele>
        <time>2020-09-29T11:49:01Z</time>
      </trkpt>
      <trkpt lat="41.0477480" lon="-3.4845680">
        <ele>1369.0</ele>
        <time>2020-09-29T11:49:02Z</time>
      </trkpt>
      <trkpt lat="41.0477700" lon="-3.4845050">
        <ele>1369.0</ele>
        <time>2020-09-29T11:49:03Z</time>
      </trkpt>
      <trkpt lat="41.0477700" lon="-3.4845050">
        <ele>1369.0</ele>
        <time>2020-09-29T11:49:04Z</time>
      </trkpt>
      <trkpt lat="41.0477900" lon="-3.4844400">
        <ele>1369.0</ele>
        <time>2020-09-29T11:49:05Z</time>
      </trkpt>
      <trkpt lat="41.0478020" lon="-3.4844080">
        <ele>1369.0</ele>
        <time>2020-09-29T11:49:06Z</time>
      </trkpt>
      <trkpt lat="41.0478130" lon="-3.4843770">
        <ele>1371.0</ele>
        <time>2020-09-29T11:49:07Z</time>
      </trkpt>
      <trkpt lat="41.0478130" lon="-3.4843770">
        <ele>1371.0</ele>
        <time>2020-09-29T11:49:08Z</time>
      </trkpt>
      <trkpt lat="41.0478370" lon="-3.4843120">
        <ele>1371.0</ele>
        <time>2020-09-29T11:49:09Z</time>
      </trkpt>
      <trkpt lat="41.0478370" lon="-3.4843120">
        <ele>1371.0</ele>
        <time>2020-09-29T11:49:10Z</time>
      </trkpt>
      <trkpt lat="41.0478570" lon="-3.4842430">
        <ele>1371.0</ele>
        <time>2020-09-29T11:49:11Z</time>
      </trkpt>
      <trkpt lat="41.0478570" lon="-3.4842430">
        <ele>1371.0</ele>
        <time>2020-09-29T11:49:12Z</time>
      </trkpt>
      <trkpt lat="41.0478720" lon="-3.4841750">
        <ele>1371.0</ele>
        <time>2020-09-29T11:49:13Z</time>
      </trkpt>
      <trkpt lat="41.0478720" lon="-3.4841750">
        <ele>1371.0</ele>
        <time>2020-09-29T11:49:14Z</time>
      </trkpt>
      <trkpt lat="41.0478920" lon="-3.4841080">
        <ele>1371.0</ele>
        <time>2020-09-29T11:49:15Z</time>
      </trkpt>
      <trkpt lat="41.0478920" lon="-3.4841080">
        <ele>1371.0</ele>
        <time>2020-09-29T11:49:16Z</time>
      </trkpt>
      <trkpt lat="41.0479100" lon="-3.4840430">
        <ele>1371.0</ele>
        <time>2020-09-29T11:49:17Z</time>
      </trkpt>
      <trkpt lat="41.0479100" lon="-3.4840430">
        <ele>1371.0</ele>
        <time>2020-09-29T11:49:18Z</time>
      </trkpt>
      <trkpt lat="41.0479370" lon="-3.4839830">
        <ele>1372.0</ele>
        <time>2020-09-29T11:49:19Z</time>
      </trkpt>
      <trkpt lat="41.0479550" lon="-3.4839570">
        <ele>1372.0</ele>
        <time>2020-09-29T11:49:20Z</time>
      </trkpt>
      <trkpt lat="41.0479700" lon="-3.4839320">
        <ele>1372.0</ele>
        <time>2020-09-29T11:49:21Z</time>
      </trkpt>
      <trkpt lat="41.0479700" lon="-3.4839320">
        <ele>1372.0</ele>
        <time>2020-09-29T11:49:22Z</time>
      </trkpt>
      <trkpt lat="41.0480000" lon="-3.4838900">
        <ele>1372.0</ele>
        <time>2020-09-29T11:49:23Z</time>
      </trkpt>
      <trkpt lat="41.0480000" lon="-3.4838900">
        <ele>1374.0</ele>
        <time>2020-09-29T11:49:24Z</time>
      </trkpt>
      <trkpt lat="41.0480250" lon="-3.4838470">
        <ele>1374.0</ele>
        <time>2020-09-29T11:49:25Z</time>
      </trkpt>
      <trkpt lat="41.0480380" lon="-3.4838200">
        <ele>1374.0</ele>
        <time>2020-09-29T11:49:26Z</time>
      </trkpt>
      <trkpt lat="41.0480380" lon="-3.4838200">
        <ele>1374.0</ele>
        <time>2020-09-29T11:49:27Z</time>
      </trkpt>
      <trkpt lat="41.0480650" lon="-3.4837680">
        <ele>1375.0</ele>
        <time>2020-09-29T11:49:28Z</time>
      </trkpt>
      <trkpt lat="41.0480780" lon="-3.4837380">
        <ele>1375.0</ele>
        <time>2020-09-29T11:49:29Z</time>
      </trkpt>
      <trkpt lat="41.0480780" lon="-3.4837380">
        <ele>1375.0</ele>
        <time>2020-09-29T11:49:30Z</time>
      </trkpt>
      <trkpt lat="41.0481120" lon="-3.4836820">
        <ele>1375.0</ele>
        <time>2020-09-29T11:49:31Z</time>
      </trkpt>
      <trkpt lat="41.0481120" lon="-3.4836820">
        <ele>1375.0</ele>
        <time>2020-09-29T11:49:32Z</time>
      </trkpt>
      <trkpt lat="41.0481400" lon="-3.4836270">
        <ele>1375.0</ele>
        <time>2020-09-29T11:49:33Z</time>
      </trkpt>
      <trkpt lat="41.0481400" lon="-3.4836270">
        <ele>1376.0</ele>
        <time>2020-09-29T11:49:34Z</time>
      </trkpt>
      <trkpt lat="41.0481650" lon="-3.4835670">
        <ele>1376.0</ele>
        <time>2020-09-29T11:49:35Z</time>
      </trkpt>
      <trkpt lat="41.0481650" lon="-3.4835670">
        <ele>1376.0</ele>
        <time>2020-09-29T11:49:36Z</time>
      </trkpt>
      <trkpt lat="41.0481930" lon="-3.4835080">
        <ele>1376.0</ele>
        <time>2020-09-29T11:49:37Z</time>
      </trkpt>
      <trkpt lat="41.0482100" lon="-3.4834800">
        <ele>1377.0</ele>
        <time>2020-09-29T11:49:38Z</time>
      </trkpt>
      <trkpt lat="41.0482100" lon="-3.4834800">
        <ele>1377.0</ele>
        <time>2020-09-29T11:49:39Z</time>
      </trkpt>
      <trkpt lat="41.0482350" lon="-3.4834220">
        <ele>1377.0</ele>
        <time>2020-09-29T11:49:40Z</time>
      </trkpt>
      <trkpt lat="41.0482350" lon="-3.4834220">
        <ele>1377.0</ele>
        <time>2020-09-29T11:49:41Z</time>
      </trkpt>
      <trkpt lat="41.0482580" lon="-3.4833620">
        <ele>1378.0</ele>
        <time>2020-09-29T11:49:42Z</time>
      </trkpt>
      <trkpt lat="41.0482680" lon="-3.4833300">
        <ele>1378.0</ele>
        <time>2020-09-29T11:49:43Z</time>
      </trkpt>
      <trkpt lat="41.0482680" lon="-3.4833300">
        <ele>1378.0</ele>
        <time>2020-09-29T11:49:44Z</time>
      </trkpt>
      <trkpt lat="41.0482870" lon="-3.4832620">
        <ele>1378.0</ele>
        <time>2020-09-29T11:49:45Z</time>
      </trkpt>
      <trkpt lat="41.0482870" lon="-3.4832620">
        <ele>1380.0</ele>
        <time>2020-09-29T11:49:46Z</time>
      </trkpt>
      <trkpt lat="41.0483020" lon="-3.4831920">
        <ele>1380.0</ele>
        <time>2020-09-29T11:49:47Z</time>
      </trkpt>
      <trkpt lat="41.0483080" lon="-3.4831530">
        <ele>1380.0</ele>
        <time>2020-09-29T11:49:48Z</time>
      </trkpt>
      <trkpt lat="41.0483080" lon="-3.4831530">
        <ele>1380.0</ele>
        <time>2020-09-29T11:49:49Z</time>
      </trkpt>
      <trkpt lat="41.0483250" lon="-3.4830870">
        <ele>1381.0</ele>
        <time>2020-09-29T11:49:50Z</time>
      </trkpt>
      <trkpt lat="41.0483250" lon="-3.4830870">
        <ele>1381.0</ele>
        <time>2020-09-29T11:49:51Z</time>
      </trkpt>
      <trkpt lat="41.0483450" lon="-3.4830230">
        <ele>1381.0</ele>
        <time>2020-09-29T11:49:52Z</time>
      </trkpt>
      <trkpt lat="41.0483450" lon="-3.4830230">
        <ele>1382.0</ele>
        <time>2020-09-29T11:49:53Z</time>
      </trkpt>
      <trkpt lat="41.0483630" lon="-3.4829630">
        <ele>1382.0</ele>
        <time>2020-09-29T11:49:54Z</time>
      </trkpt>
      <trkpt lat="41.0483680" lon="-3.4829320">
        <ele>1382.0</ele>
        <time>2020-09-29T11:49:55Z</time>
      </trkpt>
      <trkpt lat="41.0483720" lon="-3.4828980">
        <ele>1382.0</ele>
        <time>2020-09-29T11:49:56Z</time>
      </trkpt>
      <trkpt lat="41.0483720" lon="-3.4828980">
        <ele>1382.0</ele>
        <time>2020-09-29T11:49:57Z</time>
      </trkpt>
      <trkpt lat="41.0483770" lon="-3.4828300">
        <ele>1383.0</ele>
        <time>2020-09-29T11:49:58Z</time>
      </trkpt>
      <trkpt lat="41.0483820" lon="-3.4827970">
        <ele>1383.0</ele>
        <time>2020-09-29T11:49:59Z</time>
      </trkpt>
      <trkpt lat="41.0483820" lon="-3.4827970">
        <ele>1383.0</ele>
        <time>2020-09-29T11:50:00Z</time>
      </trkpt>
      <trkpt lat="41.0483900" lon="-3.4827300">
        <ele>1383.0</ele>
        <time>2020-09-29T11:50:01Z</time>
      </trkpt>
      <trkpt lat="41.0483900" lon="-3.4827300">
        <ele>1383.0</ele>
        <time>2020-09-29T11:50:02Z</time>
      </trkpt>
      <trkpt lat="41.0484020" lon="-3.4826630">
        <ele>1383.0</ele>
        <time>2020-09-29T11:50:03Z</time>
      </trkpt>
      <trkpt lat="41.0484020" lon="-3.4826630">
        <ele>1384.0</ele>
        <time>2020-09-29T11:50:04Z</time>
      </trkpt>
      <trkpt lat="41.0484220" lon="-3.4826030">
        <ele>1384.0</ele>
        <time>2020-09-29T11:50:05Z</time>
      </trkpt>
      <trkpt lat="41.0484330" lon="-3.4825730">
        <ele>1384.0</ele>
        <time>2020-09-29T11:50:06Z</time>
      </trkpt>
      <trkpt lat="41.0484450" lon="-3.4825430">
        <ele>1384.0</ele>
        <time>2020-09-29T11:50:07Z</time>
      </trkpt>
      <trkpt lat="41.0484450" lon="-3.4825430">
        <ele>1385.0</ele>
        <time>2020-09-29T11:50:08Z</time>
      </trkpt>
      <trkpt lat="41.0484720" lon="-3.4824800">
        <ele>1385.0</ele>
        <time>2020-09-29T11:50:09Z</time>
      </trkpt>
      <trkpt lat="41.0484830" lon="-3.4824500">
        <ele>1385.0</ele>
        <time>2020-09-29T11:50:10Z</time>
      </trkpt>
      <trkpt lat="41.0484830" lon="-3.4824500">
        <ele>1385.0</ele>
        <time>2020-09-29T11:50:11Z</time>
      </trkpt>
      <trkpt lat="41.0485100" lon="-3.4823900">
        <ele>1385.0</ele>
        <time>2020-09-29T11:50:12Z</time>
      </trkpt>
      <trkpt lat="41.0485100" lon="-3.4823900">
        <ele>1385.0</ele>
        <time>2020-09-29T11:50:13Z</time>
      </trkpt>
      <trkpt lat="41.0485400" lon="-3.4823300">
        <ele>1386.0</ele>
        <time>2020-09-29T11:50:14Z</time>
      </trkpt>
      <trkpt lat="41.0485400" lon="-3.4823300">
        <ele>1386.0</ele>
        <time>2020-09-29T11:50:15Z</time>
      </trkpt>
      <trkpt lat="41.0485730" lon="-3.4822770">
        <ele>1386.0</ele>
        <time>2020-09-29T11:50:16Z</time>
      </trkpt>
      <trkpt lat="41.0485730" lon="-3.4822770">
        <ele>1386.0</ele>
        <time>2020-09-29T11:50:17Z</time>
      </trkpt>
      <trkpt lat="41.0486050" lon="-3.4822230">
        <ele>1387.0</ele>
        <time>2020-09-29T11:50:18Z</time>
      </trkpt>
      <trkpt lat="41.0486230" lon="-3.4821980">
        <ele>1387.0</ele>
        <time>2020-09-29T11:50:19Z</time>
      </trkpt>
      <trkpt lat="41.0486230" lon="-3.4821980">
        <ele>1387.0</ele>
        <time>2020-09-29T11:50:20Z</time>
      </trkpt>
      <trkpt lat="41.0486630" lon="-3.4821500">
        <ele>1387.0</ele>
        <time>2020-09-29T11:50:21Z</time>
      </trkpt>
      <trkpt lat="41.0486630" lon="-3.4821500">
        <ele>1388.0</ele>
        <time>2020-09-29T11:50:22Z</time>
      </trkpt>
      <trkpt lat="41.0487030" lon="-3.4821050">
        <ele>1388.0</ele>
        <time>2020-09-29T11:50:23Z</time>
      </trkpt>
      <trkpt lat="41.0487030" lon="-3.4821050">
        <ele>1388.0</ele>
        <time>2020-09-29T11:50:24Z</time>
      </trkpt>
      <trkpt lat="41.0487420" lon="-3.4820580">
        <ele>1388.0</ele>
        <time>2020-09-29T11:50:25Z</time>
      </trkpt>
      <trkpt lat="41.0487420" lon="-3.4820580">
        <ele>1388.0</ele>
        <time>2020-09-29T11:50:26Z</time>
      </trkpt>
      <trkpt lat="41.0487850" lon="-3.4820170">
        <ele>1389.0</ele>
        <time>2020-09-29T11:50:27Z</time>
      </trkpt>
      <trkpt lat="41.0488050" lon="-3.4819950">
        <ele>1389.0</ele>
        <time>2020-09-29T11:50:28Z</time>
      </trkpt>
      <trkpt lat="41.0488050" lon="-3.4819950">
        <ele>1389.0</ele>
        <time>2020-09-29T11:50:29Z</time>
      </trkpt>
      <trkpt lat="41.0488450" lon="-3.4819500">
        <ele>1389.0</ele>
        <time>2020-09-29T11:50:30Z</time>
      </trkpt>
      <trkpt lat="41.0488450" lon="-3.4819500">
        <ele>1389.0</ele>
        <time>2020-09-29T11:50:31Z</time>
      </trkpt>
      <trkpt lat="41.0488850" lon="-3.4819000">
        <ele>1389.0</ele>
        <time>2020-09-29T11:50:32Z</time>
      </trkpt>
      <trkpt lat="41.0489050" lon="-3.4818750">
        <ele>1390.0</ele>
        <time>2020-09-29T11:50:33Z</time>
      </trkpt>
      <trkpt lat="41.0489050" lon="-3.4818750">
        <ele>1390.0</ele>
        <time>2020-09-29T11:50:34Z</time>
      </trkpt>
      <trkpt lat="41.0489400" lon="-3.4818250">
        <ele>1390.0</ele>
        <time>2020-09-29T11:50:35Z</time>
      </trkpt>
      <trkpt lat="41.0489400" lon="-3.4818250">
        <ele>1390.0</ele>
        <time>2020-09-29T11:50:36Z</time>
      </trkpt>
      <trkpt lat="41.0489770" lon="-3.4817730">
        <ele>1390.0</ele>
        <time>2020-09-29T11:50:37Z</time>
      </trkpt>
      <trkpt lat="41.0489770" lon="-3.4817730">
        <ele>1390.0</ele>
        <time>2020-09-29T11:50:38Z</time>
      </trkpt>
      <trkpt lat="41.0490150" lon="-3.4817150">
        <ele>1391.0</ele>
        <time>2020-09-29T11:50:39Z</time>
      </trkpt>
      <trkpt lat="41.0490330" lon="-3.4816850">
        <ele>1391.0</ele>
        <time>2020-09-29T11:50:40Z</time>
      </trkpt>
      <trkpt lat="41.0490330" lon="-3.4816850">
        <ele>1391.0</ele>
        <time>2020-09-29T11:50:41Z</time>
      </trkpt>
      <trkpt lat="41.0490650" lon="-3.4816230">
        <ele>1391.0</ele>
        <time>2020-09-29T11:50:42Z</time>
      </trkpt>
      <trkpt lat="41.0490850" lon="-3.4815880">
        <ele>1391.0</ele>
        <time>2020-09-29T11:50:43Z</time>
      </trkpt>
      <trkpt lat="41.0490850" lon="-3.4815880">
        <ele>1391.0</ele>
        <time>2020-09-29T11:50:44Z</time>
      </trkpt>
      <trkpt lat="41.0491230" lon="-3.4815270">
        <ele>1391.0</ele>
        <time>2020-09-29T11:50:45Z</time>
      </trkpt>
      <trkpt lat="41.0491400" lon="-3.4814970">
        <ele>1391.0</ele>
        <time>2020-09-29T11:50:46Z</time>
      </trkpt>
      <trkpt lat="41.0491400" lon="-3.4814970">
        <ele>1391.0</ele>
        <time>2020-09-29T11:50:47Z</time>
      </trkpt>
      <trkpt lat="41.0491700" lon="-3.4814370">
        <ele>1391.0</ele>
        <time>2020-09-29T11:50:48Z</time>
      </trkpt>
      <trkpt lat="41.0491850" lon="-3.4814050">
        <ele>1393.0</ele>
        <time>2020-09-29T11:50:49Z</time>
      </trkpt>
      <trkpt lat="41.0491850" lon="-3.4814050">
        <ele>1393.0</ele>
        <time>2020-09-29T11:50:50Z</time>
      </trkpt>
      <trkpt lat="41.0492130" lon="-3.4813470">
        <ele>1393.0</ele>
        <time>2020-09-29T11:50:51Z</time>
      </trkpt>
      <trkpt lat="41.0492130" lon="-3.4813470">
        <ele>1393.0</ele>
        <time>2020-09-29T11:50:52Z</time>
      </trkpt>
      <trkpt lat="41.0492430" lon="-3.4812880">
        <ele>1393.0</ele>
        <time>2020-09-29T11:50:53Z</time>
      </trkpt>
      <trkpt lat="41.0492580" lon="-3.4812600">
        <ele>1393.0</ele>
        <time>2020-09-29T11:50:54Z</time>
      </trkpt>
      <trkpt lat="41.0492580" lon="-3.4812600">
        <ele>1393.0</ele>
        <time>2020-09-29T11:50:55Z</time>
      </trkpt>
      <trkpt lat="41.0492850" lon="-3.4812050">
        <ele>1393.0</ele>
        <time>2020-09-29T11:50:56Z</time>
      </trkpt>
      <trkpt lat="41.0492850" lon="-3.4812050">
        <ele>1394.0</ele>
        <time>2020-09-29T11:50:57Z</time>
      </trkpt>
      <trkpt lat="41.0493150" lon="-3.4811500">
        <ele>1394.0</ele>
        <time>2020-09-29T11:50:58Z</time>
      </trkpt>
      <trkpt lat="41.0493150" lon="-3.4811500">
        <ele>1394.0</ele>
        <time>2020-09-29T11:50:59Z</time>
      </trkpt>
      <trkpt lat="41.0493380" lon="-3.4810920">
        <ele>1394.0</ele>
        <time>2020-09-29T11:51:00Z</time>
      </trkpt>
      <trkpt lat="41.0493380" lon="-3.4810920">
        <ele>1395.0</ele>
        <time>2020-09-29T11:51:01Z</time>
      </trkpt>
      <trkpt lat="41.0493670" lon="-3.4810330">
        <ele>1395.0</ele>
        <time>2020-09-29T11:51:02Z</time>
      </trkpt>
      <trkpt lat="41.0493670" lon="-3.4810330">
        <ele>1395.0</ele>
        <time>2020-09-29T11:51:03Z</time>
      </trkpt>
      <trkpt lat="41.0493950" lon="-3.4809730">
        <ele>1396.0</ele>
        <time>2020-09-29T11:51:04Z</time>
      </trkpt>
      <trkpt lat="41.0493950" lon="-3.4809730">
        <ele>1396.0</ele>
        <time>2020-09-29T11:51:05Z</time>
      </trkpt>
      <trkpt lat="41.0494200" lon="-3.4809120">
        <ele>1396.0</ele>
        <time>2020-09-29T11:51:06Z</time>
      </trkpt>
      <trkpt lat="41.0494350" lon="-3.4808820">
        <ele>1396.0</ele>
        <time>2020-09-29T11:51:07Z</time>
      </trkpt>
      <trkpt lat="41.0494350" lon="-3.4808820">
        <ele>1396.0</ele>
        <time>2020-09-29T11:51:08Z</time>
      </trkpt>
      <trkpt lat="41.0494580" lon="-3.4808170">
        <ele>1397.0</ele>
        <time>2020-09-29T11:51:09Z</time>
      </trkpt>
      <trkpt lat="41.0494720" lon="-3.4807850">
        <ele>1397.0</ele>
        <time>2020-09-29T11:51:10Z</time>
      </trkpt>
      <trkpt lat="41.0494720" lon="-3.4807850">
        <ele>1397.0</ele>
        <time>2020-09-29T11:51:11Z</time>
      </trkpt>
      <trkpt lat="41.0494970" lon="-3.4807250">
        <ele>1397.0</ele>
        <time>2020-09-29T11:51:12Z</time>
      </trkpt>
      <trkpt lat="41.0494970" lon="-3.4807250">
        <ele>1398.0</ele>
        <time>2020-09-29T11:51:13Z</time>
      </trkpt>
      <trkpt lat="41.0495150" lon="-3.4806550">
        <ele>1398.0</ele>
        <time>2020-09-29T11:51:14Z</time>
      </trkpt>
      <trkpt lat="41.0495150" lon="-3.4806550">
        <ele>1398.0</ele>
        <time>2020-09-29T11:51:15Z</time>
      </trkpt>
      <trkpt lat="41.0495370" lon="-3.4805900">
        <ele>1398.0</ele>
        <time>2020-09-29T11:51:16Z</time>
      </trkpt>
      <trkpt lat="41.0495370" lon="-3.4805900">
        <ele>1398.0</ele>
        <time>2020-09-29T11:51:17Z</time>
      </trkpt>
      <trkpt lat="41.0495630" lon="-3.4805330">
        <ele>1398.0</ele>
        <time>2020-09-29T11:51:18Z</time>
      </trkpt>
      <trkpt lat="41.0495630" lon="-3.4805330">
        <ele>1398.0</ele>
        <time>2020-09-29T11:51:19Z</time>
      </trkpt>
      <trkpt lat="41.0495900" lon="-3.4804770">
        <ele>1398.0</ele>
        <time>2020-09-29T11:51:20Z</time>
      </trkpt>
      <trkpt lat="41.0495900" lon="-3.4804770">
        <ele>1398.0</ele>
        <time>2020-09-29T11:51:21Z</time>
      </trkpt>
      <trkpt lat="41.0496150" lon="-3.4804200">
        <ele>1398.0</ele>
        <time>2020-09-29T11:51:22Z</time>
      </trkpt>
      <trkpt lat="41.0496280" lon="-3.4803920">
        <ele>1399.0</ele>
        <time>2020-09-29T11:51:23Z</time>
      </trkpt>
      <trkpt lat="41.0496280" lon="-3.4803920">
        <ele>1399.0</ele>
        <time>2020-09-29T11:51:24Z</time>
      </trkpt>
      <trkpt lat="41.0496520" lon="-3.4803330">
        <ele>1399.0</ele>
        <time>2020-09-29T11:51:25Z</time>
      </trkpt>
      <trkpt lat="41.0496650" lon="-3.4803030">
        <ele>1399.0</ele>
        <time>2020-09-29T11:51:26Z</time>
      </trkpt>
      <trkpt lat="41.0496650" lon="-3.4803030">
        <ele>1400.0</ele>
        <time>2020-09-29T11:51:27Z</time>
      </trkpt>
      <trkpt lat="41.0496930" lon="-3.4802450">
        <ele>1400.0</ele>
        <time>2020-09-29T11:51:28Z</time>
      </trkpt>
      <trkpt lat="41.0496930" lon="-3.4802450">
        <ele>1400.0</ele>
        <time>2020-09-29T11:51:29Z</time>
      </trkpt>
      <trkpt lat="41.0497270" lon="-3.4801880">
        <ele>1400.0</ele>
        <time>2020-09-29T11:51:30Z</time>
      </trkpt>
      <trkpt lat="41.0497430" lon="-3.4801620">
        <ele>1400.0</ele>
        <time>2020-09-29T11:51:31Z</time>
      </trkpt>
      <trkpt lat="41.0497600" lon="-3.4801330">
        <ele>1400.0</ele>
        <time>2020-09-29T11:51:32Z</time>
      </trkpt>
      <trkpt lat="41.0497600" lon="-3.4801330">
        <ele>1401.0</ele>
        <time>2020-09-29T11:51:33Z</time>
      </trkpt>
      <trkpt lat="41.0497950" lon="-3.4800820">
        <ele>1401.0</ele>
        <time>2020-09-29T11:51:34Z</time>
      </trkpt>
      <trkpt lat="41.0497950" lon="-3.4800820">
        <ele>1401.0</ele>
        <time>2020-09-29T11:51:35Z</time>
      </trkpt>
      <trkpt lat="41.0498370" lon="-3.4800330">
        <ele>1401.0</ele>
        <time>2020-09-29T11:51:36Z</time>
      </trkpt>
      <trkpt lat="41.0498580" lon="-3.4800100">
        <ele>1401.0</ele>
        <time>2020-09-29T11:51:37Z</time>
      </trkpt>
      <trkpt lat="41.0498580" lon="-3.4800100">
        <ele>1401.0</ele>
        <time>2020-09-29T11:51:38Z</time>
      </trkpt>
      <trkpt lat="41.0499070" lon="-3.4799580">
        <ele>1402.0</ele>
        <time>2020-09-29T11:51:39Z</time>
      </trkpt>
      <trkpt lat="41.0499070" lon="-3.4799580">
        <ele>1402.0</ele>
        <time>2020-09-29T11:51:40Z</time>
      </trkpt>
      <trkpt lat="41.0499620" lon="-3.4799070">
        <ele>1402.0</ele>
        <time>2020-09-29T11:51:41Z</time>
      </trkpt>
      <trkpt lat="41.0499620" lon="-3.4799070">
        <ele>1402.0</ele>
        <time>2020-09-29T11:51:42Z</time>
      </trkpt>
      <trkpt lat="41.0500070" lon="-3.4798530">
        <ele>1402.0</ele>
        <time>2020-09-29T11:51:43Z</time>
      </trkpt>
      <trkpt lat="41.0500070" lon="-3.4798530">
        <ele>1403.0</ele>
        <time>2020-09-29T11:51:44Z</time>
      </trkpt>
      <trkpt lat="41.0500480" lon="-3.4798000">
        <ele>1403.0</ele>
        <time>2020-09-29T11:51:45Z</time>
      </trkpt>
      <trkpt lat="41.0500720" lon="-3.4797750">
        <ele>1403.0</ele>
        <time>2020-09-29T11:51:46Z</time>
      </trkpt>
      <trkpt lat="41.0500720" lon="-3.4797750">
        <ele>1403.0</ele>
        <time>2020-09-29T11:51:47Z</time>
      </trkpt>
      <trkpt lat="41.0501180" lon="-3.4797270">
        <ele>1404.0</ele>
        <time>2020-09-29T11:51:48Z</time>
      </trkpt>
      <trkpt lat="41.0501180" lon="-3.4797270">
        <ele>1404.0</ele>
        <time>2020-09-29T11:51:49Z</time>
      </trkpt>
      <trkpt lat="41.0501600" lon="-3.4796770">
        <ele>1404.0</ele>
        <time>2020-09-29T11:51:50Z</time>
      </trkpt>
      <trkpt lat="41.0501600" lon="-3.4796770">
        <ele>1404.0</ele>
        <time>2020-09-29T11:51:51Z</time>
      </trkpt>
      <trkpt lat="41.0502130" lon="-3.4796320">
        <ele>1404.0</ele>
        <time>2020-09-29T11:51:52Z</time>
      </trkpt>
      <trkpt lat="41.0502130" lon="-3.4796320">
        <ele>1404.0</ele>
        <time>2020-09-29T11:51:53Z</time>
      </trkpt>
      <trkpt lat="41.0502730" lon="-3.4795950">
        <ele>1405.0</ele>
        <time>2020-09-29T11:51:54Z</time>
      </trkpt>
      <trkpt lat="41.0503000" lon="-3.4795730">
        <ele>1405.0</ele>
        <time>2020-09-29T11:51:55Z</time>
      </trkpt>
      <trkpt lat="41.0503000" lon="-3.4795730">
        <ele>1405.0</ele>
        <time>2020-09-29T11:51:56Z</time>
      </trkpt>
      <trkpt lat="41.0503530" lon="-3.4795320">
        <ele>1405.0</ele>
        <time>2020-09-29T11:51:57Z</time>
      </trkpt>
      <trkpt lat="41.0503530" lon="-3.4795320">
        <ele>1405.0</ele>
        <time>2020-09-29T11:51:58Z</time>
      </trkpt>
      <trkpt lat="41.0504080" lon="-3.4794870">
        <ele>1405.0</ele>
        <time>2020-09-29T11:51:59Z</time>
      </trkpt>
      <trkpt lat="41.0504080" lon="-3.4794870">
        <ele>1405.0</ele>
        <time>2020-09-29T11:52:00Z</time>
      </trkpt>
      <trkpt lat="41.0504650" lon="-3.4794450">
        <ele>1405.0</ele>
        <time>2020-09-29T11:52:01Z</time>
      </trkpt>
      <trkpt lat="41.0504650" lon="-3.4794450">
        <ele>1405.0</ele>
        <time>2020-09-29T11:52:02Z</time>
      </trkpt>
      <trkpt lat="41.0505220" lon="-3.4794120">
        <ele>1405.0</ele>
        <time>2020-09-29T11:52:03Z</time>
      </trkpt>
      <trkpt lat="41.0505220" lon="-3.4794120">
        <ele>1405.0</ele>
        <time>2020-09-29T11:52:04Z</time>
      </trkpt>
      <trkpt lat="41.0505780" lon="-3.4793770">
        <ele>1405.0</ele>
        <time>2020-09-29T11:52:05Z</time>
      </trkpt>
      <trkpt lat="41.0505780" lon="-3.4793770">
        <ele>1405.0</ele>
        <time>2020-09-29T11:52:06Z</time>
      </trkpt>
      <trkpt lat="41.0506420" lon="-3.4793420">
        <ele>1405.0</ele>
        <time>2020-09-29T11:52:07Z</time>
      </trkpt>
      <trkpt lat="41.0506420" lon="-3.4793420">
        <ele>1406.0</ele>
        <time>2020-09-29T11:52:08Z</time>
      </trkpt>
      <trkpt lat="41.0507070" lon="-3.4793120">
        <ele>1406.0</ele>
        <time>2020-09-29T11:52:09Z</time>
      </trkpt>
      <trkpt lat="41.0507380" lon="-3.4792970">
        <ele>1406.0</ele>
        <time>2020-09-29T11:52:10Z</time>
      </trkpt>
      <trkpt lat="41.0507380" lon="-3.4792970">
        <ele>1406.0</ele>
        <time>2020-09-29T11:52:11Z</time>
      </trkpt>
      <trkpt lat="41.0508000" lon="-3.4792670">
        <ele>1406.0</ele>
        <time>2020-09-29T11:52:12Z</time>
      </trkpt>
      <trkpt lat="41.0508300" lon="-3.4792520">
        <ele>1406.0</ele>
        <time>2020-09-29T11:52:13Z</time>
      </trkpt>
      <trkpt lat="41.0508300" lon="-3.4792520">
        <ele>1407.0</ele>
        <time>2020-09-29T11:52:14Z</time>
      </trkpt>
      <trkpt lat="41.0508920" lon="-3.4792130">
        <ele>1407.0</ele>
        <time>2020-09-29T11:52:15Z</time>
      </trkpt>
      <trkpt lat="41.0508920" lon="-3.4792130">
        <ele>1407.0</ele>
        <time>2020-09-29T11:52:16Z</time>
      </trkpt>
      <trkpt lat="41.0509500" lon="-3.4791780">
        <ele>1407.0</ele>
        <time>2020-09-29T11:52:17Z</time>
      </trkpt>
      <trkpt lat="41.0509780" lon="-3.4791600">
        <ele>1407.0</ele>
        <time>2020-09-29T11:52:18Z</time>
      </trkpt>
      <trkpt lat="41.0510070" lon="-3.4791380">
        <ele>1408.0</ele>
        <time>2020-09-29T11:52:19Z</time>
      </trkpt>
      <trkpt lat="41.0510070" lon="-3.4791380">
        <ele>1408.0</ele>
        <time>2020-09-29T11:52:20Z</time>
      </trkpt>
      <trkpt lat="41.0510580" lon="-3.4790880">
        <ele>1408.0</ele>
        <time>2020-09-29T11:52:21Z</time>
      </trkpt>
      <trkpt lat="41.0510580" lon="-3.4790880">
        <ele>1408.0</ele>
        <time>2020-09-29T11:52:22Z</time>
      </trkpt>
      <trkpt lat="41.0511070" lon="-3.4790350">
        <ele>1409.0</ele>
        <time>2020-09-29T11:52:23Z</time>
      </trkpt>
      <trkpt lat="41.0511070" lon="-3.4790350">
        <ele>1409.0</ele>
        <time>2020-09-29T11:52:24Z</time>
      </trkpt>
      <trkpt lat="41.0511530" lon="-3.4789780">
        <ele>1409.0</ele>
        <time>2020-09-29T11:52:25Z</time>
      </trkpt>
      <trkpt lat="41.0511530" lon="-3.4789780">
        <ele>1409.0</ele>
        <time>2020-09-29T11:52:26Z</time>
      </trkpt>
      <trkpt lat="41.0511980" lon="-3.4789200">
        <ele>1409.0</ele>
        <time>2020-09-29T11:52:27Z</time>
      </trkpt>
      <trkpt lat="41.0511980" lon="-3.4789200">
        <ele>1409.0</ele>
        <time>2020-09-29T11:52:28Z</time>
      </trkpt>
      <trkpt lat="41.0512430" lon="-3.4788620">
        <ele>1410.0</ele>
        <time>2020-09-29T11:52:29Z</time>
      </trkpt>
      <trkpt lat="41.0512430" lon="-3.4788620">
        <ele>1410.0</ele>
        <time>2020-09-29T11:52:30Z</time>
      </trkpt>
      <trkpt lat="41.0512850" lon="-3.4788020">
        <ele>1410.0</ele>
        <time>2020-09-29T11:52:31Z</time>
      </trkpt>
      <trkpt lat="41.0512850" lon="-3.4788020">
        <ele>1410.0</ele>
        <time>2020-09-29T11:52:32Z</time>
      </trkpt>
      <trkpt lat="41.0513270" lon="-3.4787380">
        <ele>1411.0</ele>
        <time>2020-09-29T11:52:33Z</time>
      </trkpt>
      <trkpt lat="41.0513270" lon="-3.4787380">
        <ele>1411.0</ele>
        <time>2020-09-29T11:52:34Z</time>
      </trkpt>
      <trkpt lat="41.0513720" lon="-3.4786780">
        <ele>1411.0</ele>
        <time>2020-09-29T11:52:35Z</time>
      </trkpt>
      <trkpt lat="41.0513720" lon="-3.4786780">
        <ele>1411.0</ele>
        <time>2020-09-29T11:52:36Z</time>
      </trkpt>
      <trkpt lat="41.0514120" lon="-3.4786150">
        <ele>1412.0</ele>
        <time>2020-09-29T11:52:37Z</time>
      </trkpt>
      <trkpt lat="41.0514300" lon="-3.4785830">
        <ele>1412.0</ele>
        <time>2020-09-29T11:52:38Z</time>
      </trkpt>
      <trkpt lat="41.0514300" lon="-3.4785830">
        <ele>1412.0</ele>
        <time>2020-09-29T11:52:39Z</time>
      </trkpt>
      <trkpt lat="41.0514580" lon="-3.4785220">
        <ele>1412.0</ele>
        <time>2020-09-29T11:52:40Z</time>
      </trkpt>
      <trkpt lat="41.0514730" lon="-3.4784920">
        <ele>1413.0</ele>
        <time>2020-09-29T11:52:41Z</time>
      </trkpt>
      <trkpt lat="41.0514730" lon="-3.4784920">
        <ele>1413.0</ele>
        <time>2020-09-29T11:52:42Z</time>
      </trkpt>
      <trkpt lat="41.0515050" lon="-3.4784330">
        <ele>1413.0</ele>
        <time>2020-09-29T11:52:43Z</time>
      </trkpt>
      <trkpt lat="41.0515050" lon="-3.4784330">
        <ele>1413.0</ele>
        <time>2020-09-29T11:52:44Z</time>
      </trkpt>
      <trkpt lat="41.0515370" lon="-3.4783730">
        <ele>1414.0</ele>
        <time>2020-09-29T11:52:45Z</time>
      </trkpt>
      <trkpt lat="41.0515370" lon="-3.4783730">
        <ele>1414.0</ele>
        <time>2020-09-29T11:52:46Z</time>
      </trkpt>
      <trkpt lat="41.0515720" lon="-3.4783130">
        <ele>1414.0</ele>
        <time>2020-09-29T11:52:47Z</time>
      </trkpt>
      <trkpt lat="41.0515720" lon="-3.4783130">
        <ele>1414.0</ele>
        <time>2020-09-29T11:52:48Z</time>
      </trkpt>
      <trkpt lat="41.0516070" lon="-3.4782570">
        <ele>1415.0</ele>
        <time>2020-09-29T11:52:49Z</time>
      </trkpt>
      <trkpt lat="41.0516070" lon="-3.4782570">
        <ele>1415.0</ele>
        <time>2020-09-29T11:52:50Z</time>
      </trkpt>
      <trkpt lat="41.0516420" lon="-3.4782030">
        <ele>1415.0</ele>
        <time>2020-09-29T11:52:51Z</time>
      </trkpt>
      <trkpt lat="41.0516420" lon="-3.4782030">
        <ele>1416.0</ele>
        <time>2020-09-29T11:52:52Z</time>
      </trkpt>
      <trkpt lat="41.0516850" lon="-3.4781580">
        <ele>1416.0</ele>
        <time>2020-09-29T11:52:53Z</time>
      </trkpt>
      <trkpt lat="41.0517080" lon="-3.4781400">
        <ele>1416.0</ele>
        <time>2020-09-29T11:52:54Z</time>
      </trkpt>
      <trkpt lat="41.0517080" lon="-3.4781400">
        <ele>1416.0</ele>
        <time>2020-09-29T11:52:55Z</time>
      </trkpt>
      <trkpt lat="41.0517600" lon="-3.4781030">
        <ele>1417.0</ele>
        <time>2020-09-29T11:52:56Z</time>
      </trkpt>
      <trkpt lat="41.0517850" lon="-3.4780880">
        <ele>1417.0</ele>
        <time>2020-09-29T11:52:57Z</time>
      </trkpt>
      <trkpt lat="41.0517850" lon="-3.4780880">
        <ele>1417.0</ele>
        <time>2020-09-29T11:52:58Z</time>
      </trkpt>
      <trkpt lat="41.0518370" lon="-3.4780530">
        <ele>1417.0</ele>
        <time>2020-09-29T11:52:59Z</time>
      </trkpt>
      <trkpt lat="41.0518370" lon="-3.4780530">
        <ele>1418.0</ele>
        <time>2020-09-29T11:53:00Z</time>
      </trkpt>
      <trkpt lat="41.0518370" lon="-3.4780530">
        <ele>1418.0</ele>
        <time>2020-09-29T11:53:01Z</time>
      </trkpt>
      <trkpt lat="41.0518920" lon="-3.4780370">
        <ele>1418.0</ele>
        <time>2020-09-29T11:53:02Z</time>
      </trkpt>
      <trkpt lat="41.0519520" lon="-3.4780430">
        <ele>1418.0</ele>
        <time>2020-09-29T11:53:03Z</time>
      </trkpt>
      <trkpt lat="41.0519520" lon="-3.4780430">
        <ele>1418.0</ele>
        <time>2020-09-29T11:53:04Z</time>
      </trkpt>
      <trkpt lat="41.0520120" lon="-3.4780570">
        <ele>1418.0</ele>
        <time>2020-09-29T11:53:05Z</time>
      </trkpt>
      <trkpt lat="41.0520380" lon="-3.4780680">
        <ele>1419.0</ele>
        <time>2020-09-29T11:53:06Z</time>
      </trkpt>
      <trkpt lat="41.0520380" lon="-3.4780680">
        <ele>1419.0</ele>
        <time>2020-09-29T11:53:07Z</time>
      </trkpt>
      <trkpt lat="41.0520900" lon="-3.4780920">
        <ele>1419.0</ele>
        <time>2020-09-29T11:53:08Z</time>
      </trkpt>
      <trkpt lat="41.0520900" lon="-3.4780920">
        <ele>1419.0</ele>
        <time>2020-09-29T11:53:09Z</time>
      </trkpt>
      <trkpt lat="41.0521400" lon="-3.4781180">
        <ele>1419.0</ele>
        <time>2020-09-29T11:53:10Z</time>
      </trkpt>
      <trkpt lat="41.0521400" lon="-3.4781180">
        <ele>1420.0</ele>
        <time>2020-09-29T11:53:11Z</time>
      </trkpt>
      <trkpt lat="41.0521880" lon="-3.4781450">
        <ele>1420.0</ele>
        <time>2020-09-29T11:53:12Z</time>
      </trkpt>
      <trkpt lat="41.0522130" lon="-3.4781600">
        <ele>1420.0</ele>
        <time>2020-09-29T11:53:13Z</time>
      </trkpt>
      <trkpt lat="41.0522130" lon="-3.4781600">
        <ele>1420.0</ele>
        <time>2020-09-29T11:53:14Z</time>
      </trkpt>
      <trkpt lat="41.0522620" lon="-3.4781930">
        <ele>1421.0</ele>
        <time>2020-09-29T11:53:15Z</time>
      </trkpt>
      <trkpt lat="41.0522620" lon="-3.4781930">
        <ele>1421.0</ele>
        <time>2020-09-29T11:53:16Z</time>
      </trkpt>
      <trkpt lat="41.0523070" lon="-3.4782380">
        <ele>1421.0</ele>
        <time>2020-09-29T11:53:17Z</time>
      </trkpt>
      <trkpt lat="41.0523070" lon="-3.4782380">
        <ele>1421.0</ele>
        <time>2020-09-29T11:53:18Z</time>
      </trkpt>
      <trkpt lat="41.0523520" lon="-3.4782780">
        <ele>1422.0</ele>
        <time>2020-09-29T11:53:19Z</time>
      </trkpt>
      <trkpt lat="41.0523520" lon="-3.4782780">
        <ele>1422.0</ele>
        <time>2020-09-29T11:53:20Z</time>
      </trkpt>
      <trkpt lat="41.0524000" lon="-3.4783130">
        <ele>1423.0</ele>
        <time>2020-09-29T11:53:21Z</time>
      </trkpt>
      <trkpt lat="41.0524230" lon="-3.4783330">
        <ele>1423.0</ele>
        <time>2020-09-29T11:53:22Z</time>
      </trkpt>
      <trkpt lat="41.0524230" lon="-3.4783330">
        <ele>1423.0</ele>
        <time>2020-09-29T11:53:23Z</time>
      </trkpt>
      <trkpt lat="41.0524720" lon="-3.4783730">
        <ele>1423.0</ele>
        <time>2020-09-29T11:53:24Z</time>
      </trkpt>
      <trkpt lat="41.0524950" lon="-3.4783920">
        <ele>1424.0</ele>
        <time>2020-09-29T11:53:25Z</time>
      </trkpt>
      <trkpt lat="41.0524950" lon="-3.4783920">
        <ele>1424.0</ele>
        <time>2020-09-29T11:53:26Z</time>
      </trkpt>
      <trkpt lat="41.0525380" lon="-3.4784350">
        <ele>1424.0</ele>
        <time>2020-09-29T11:53:27Z</time>
      </trkpt>
      <trkpt lat="41.0525620" lon="-3.4784520">
        <ele>1424.0</ele>
        <time>2020-09-29T11:53:28Z</time>
      </trkpt>
      <trkpt lat="41.0525620" lon="-3.4784520">
        <ele>1424.0</ele>
        <time>2020-09-29T11:53:29Z</time>
      </trkpt>
      <trkpt lat="41.0526120" lon="-3.4784870">
        <ele>1424.0</ele>
        <time>2020-09-29T11:53:30Z</time>
      </trkpt>
      <trkpt lat="41.0526370" lon="-3.4785020">
        <ele>1424.0</ele>
        <time>2020-09-29T11:53:31Z</time>
      </trkpt>
      <trkpt lat="41.0526370" lon="-3.4785020">
        <ele>1424.0</ele>
        <time>2020-09-29T11:53:32Z</time>
      </trkpt>
      <trkpt lat="41.0526820" lon="-3.4785380">
        <ele>1424.0</ele>
        <time>2020-09-29T11:53:33Z</time>
      </trkpt>
      <trkpt lat="41.0527070" lon="-3.4785550">
        <ele>1424.0</ele>
        <time>2020-09-29T11:53:34Z</time>
      </trkpt>
      <trkpt lat="41.0527070" lon="-3.4785550">
        <ele>1424.0</ele>
        <time>2020-09-29T11:53:35Z</time>
      </trkpt>
      <trkpt lat="41.0527570" lon="-3.4785870">
        <ele>1426.0</ele>
        <time>2020-09-29T11:53:36Z</time>
      </trkpt>
      <trkpt lat="41.0527820" lon="-3.4786020">
        <ele>1426.0</ele>
        <time>2020-09-29T11:53:37Z</time>
      </trkpt>
      <trkpt lat="41.0527820" lon="-3.4786020">
        <ele>1426.0</ele>
        <time>2020-09-29T11:53:38Z</time>
      </trkpt>
      <trkpt lat="41.0528330" lon="-3.4786280">
        <ele>1426.0</ele>
        <time>2020-09-29T11:53:39Z</time>
      </trkpt>
      <trkpt lat="41.0528580" lon="-3.4786400">
        <ele>1426.0</ele>
        <time>2020-09-29T11:53:40Z</time>
      </trkpt>
      <trkpt lat="41.0528850" lon="-3.4786500">
        <ele>1426.0</ele>
        <time>2020-09-29T11:53:41Z</time>
      </trkpt>
      <trkpt lat="41.0528850" lon="-3.4786500">
        <ele>1426.0</ele>
        <time>2020-09-29T11:53:42Z</time>
      </trkpt>
      <trkpt lat="41.0529400" lon="-3.4786630">
        <ele>1426.0</ele>
        <time>2020-09-29T11:53:43Z</time>
      </trkpt>
      <trkpt lat="41.0529400" lon="-3.4786630">
        <ele>1428.0</ele>
        <time>2020-09-29T11:53:44Z</time>
      </trkpt>
      <trkpt lat="41.0529930" lon="-3.4786770">
        <ele>1428.0</ele>
        <time>2020-09-29T11:53:45Z</time>
      </trkpt>
      <trkpt lat="41.0529930" lon="-3.4786770">
        <ele>1428.0</ele>
        <time>2020-09-29T11:53:46Z</time>
      </trkpt>
      <trkpt lat="41.0530500" lon="-3.4786800">
        <ele>1428.0</ele>
        <time>2020-09-29T11:53:47Z</time>
      </trkpt>
      <trkpt lat="41.0530770" lon="-3.4786780">
        <ele>1428.0</ele>
        <time>2020-09-29T11:53:48Z</time>
      </trkpt>
      <trkpt lat="41.0531030" lon="-3.4786770">
        <ele>1428.0</ele>
        <time>2020-09-29T11:53:49Z</time>
      </trkpt>
      <trkpt lat="41.0531030" lon="-3.4786770">
        <ele>1428.0</ele>
        <time>2020-09-29T11:53:50Z</time>
      </trkpt>
      <trkpt lat="41.0531580" lon="-3.4786730">
        <ele>1428.0</ele>
        <time>2020-09-29T11:53:51Z</time>
      </trkpt>
      <trkpt lat="41.0531870" lon="-3.4786670">
        <ele>1430.0</ele>
        <time>2020-09-29T11:53:52Z</time>
      </trkpt>
      <trkpt lat="41.0531870" lon="-3.4786670">
        <ele>1430.0</ele>
        <time>2020-09-29T11:53:53Z</time>
      </trkpt>
      <trkpt lat="41.0532450" lon="-3.4786600">
        <ele>1430.0</ele>
        <time>2020-09-29T11:53:54Z</time>
      </trkpt>
      <trkpt lat="41.0532450" lon="-3.4786600">
        <ele>1430.0</ele>
        <time>2020-09-29T11:53:55Z</time>
      </trkpt>
      <trkpt lat="41.0532980" lon="-3.4786470">
        <ele>1430.0</ele>
        <time>2020-09-29T11:53:56Z</time>
      </trkpt>
      <trkpt lat="41.0532980" lon="-3.4786470">
        <ele>1431.0</ele>
        <time>2020-09-29T11:53:57Z</time>
      </trkpt>
      <trkpt lat="41.0533500" lon="-3.4786280">
        <ele>1431.0</ele>
        <time>2020-09-29T11:53:58Z</time>
      </trkpt>
      <trkpt lat="41.0533500" lon="-3.4786280">
        <ele>1431.0</ele>
        <time>2020-09-29T11:53:59Z</time>
      </trkpt>
      <trkpt lat="41.0534020" lon="-3.4786120">
        <ele>1431.0</ele>
        <time>2020-09-29T11:54:00Z</time>
      </trkpt>
      <trkpt lat="41.0534270" lon="-3.4786000">
        <ele>1432.0</ele>
        <time>2020-09-29T11:54:01Z</time>
      </trkpt>
      <trkpt lat="41.0534270" lon="-3.4786000">
        <ele>1432.0</ele>
        <time>2020-09-29T11:54:02Z</time>
      </trkpt>
      <trkpt lat="41.0534770" lon="-3.4785800">
        <ele>1432.0</ele>
        <time>2020-09-29T11:54:03Z</time>
      </trkpt>
      <trkpt lat="41.0534770" lon="-3.4785800">
        <ele>1433.0</ele>
        <time>2020-09-29T11:54:04Z</time>
      </trkpt>
      <trkpt lat="41.0535220" lon="-3.4785550">
        <ele>1433.0</ele>
        <time>2020-09-29T11:54:05Z</time>
      </trkpt>
      <trkpt lat="41.0535420" lon="-3.4785430">
        <ele>1433.0</ele>
        <time>2020-09-29T11:54:06Z</time>
      </trkpt>
      <trkpt lat="41.0535420" lon="-3.4785430">
        <ele>1433.0</ele>
        <time>2020-09-29T11:54:07Z</time>
      </trkpt>
      <trkpt lat="41.0535700" lon="-3.4785270">
        <ele>1434.0</ele>
        <time>2020-09-29T11:54:08Z</time>
      </trkpt>
      <trkpt lat="41.0535700" lon="-3.4785270">
        <ele>1434.0</ele>
        <time>2020-09-29T11:54:09Z</time>
      </trkpt>
      <trkpt lat="41.0535750" lon="-3.4785170">
        <ele>1434.0</ele>
        <time>2020-09-29T11:54:10Z</time>
      </trkpt>
      <trkpt lat="41.0535750" lon="-3.4785170">
        <ele>1434.0</ele>
        <time>2020-09-29T11:54:11Z</time>
      </trkpt>
      <trkpt lat="41.0535750" lon="-3.4785170">
        <ele>1434.0</ele>
        <time>2020-09-29T11:54:19Z</time>
      </trkpt>
      <trkpt lat="41.0535750" lon="-3.4785170">
        <ele>1434.0</ele>
        <time>2020-09-29T11:54:20Z</time>
      </trkpt>
      <trkpt lat="41.0535150" lon="-3.4785900">
        <ele>1434.0</ele>
        <time>2020-09-29T11:54:21Z</time>
      </trkpt>
      <trkpt lat="41.0535150" lon="-3.4785900">
        <ele>1434.0</ele>
        <time>2020-09-29T11:54:22Z</time>
      </trkpt>
      <trkpt lat="41.0534880" lon="-3.4786200">
        <ele>1434.0</ele>
        <time>2020-09-29T11:54:23Z</time>
      </trkpt>
      <trkpt lat="41.0534830" lon="-3.4786300">
        <ele>1434.0</ele>
        <time>2020-09-29T11:54:24Z</time>
      </trkpt>
      <trkpt lat="41.0534830" lon="-3.4786300">
        <ele>1434.0</ele>
        <time>2020-09-29T11:54:25Z</time>
      </trkpt>
      <trkpt lat="41.0534830" lon="-3.4786280">
        <ele>1433.0</ele>
        <time>2020-09-29T11:54:26Z</time>
      </trkpt>
      <trkpt lat="41.0534830" lon="-3.4786280">
        <ele>1433.0</ele>
        <time>2020-09-29T11:54:27Z</time>
      </trkpt>
      <trkpt lat="41.0534820" lon="-3.4786280">
        <ele>1433.0</ele>
        <time>2020-09-29T11:56:25Z</time>
      </trkpt>
      <trkpt lat="41.0534820" lon="-3.4786280">
        <ele>1433.0</ele>
        <time>2020-09-29T11:56:26Z</time>
      </trkpt>
      <trkpt lat="41.0534700" lon="-3.4785600">
        <ele>1433.0</ele>
        <time>2020-09-29T11:56:27Z</time>
      </trkpt>
      <trkpt lat="41.0534700" lon="-3.4785600">
        <ele>1433.0</ele>
        <time>2020-09-29T11:56:28Z</time>
      </trkpt>
      <trkpt lat="41.0535030" lon="-3.4785180">
        <ele>1433.0</ele>
        <time>2020-09-29T11:56:29Z</time>
      </trkpt>
      <trkpt lat="41.0535030" lon="-3.4785180">
        <ele>1433.0</ele>
        <time>2020-09-29T11:56:30Z</time>
      </trkpt>
      <trkpt lat="41.0535400" lon="-3.4784800">
        <ele>1433.0</ele>
        <time>2020-09-29T11:56:31Z</time>
      </trkpt>
      <trkpt lat="41.0535400" lon="-3.4784800">
        <ele>1433.0</ele>
        <time>2020-09-29T11:56:32Z</time>
      </trkpt>
      <trkpt lat="41.0535750" lon="-3.4784330">
        <ele>1434.0</ele>
        <time>2020-09-29T11:56:33Z</time>
      </trkpt>
      <trkpt lat="41.0535750" lon="-3.4784330">
        <ele>1434.0</ele>
        <time>2020-09-29T11:56:34Z</time>
      </trkpt>
      <trkpt lat="41.0536220" lon="-3.4783950">
        <ele>1434.0</ele>
        <time>2020-09-29T11:56:35Z</time>
      </trkpt>
      <trkpt lat="41.0536220" lon="-3.4783950">
        <ele>1434.0</ele>
        <time>2020-09-29T11:56:36Z</time>
      </trkpt>
      <trkpt lat="41.0536820" lon="-3.4783620">
        <ele>1434.0</ele>
        <time>2020-09-29T11:56:37Z</time>
      </trkpt>
      <trkpt lat="41.0536820" lon="-3.4783620">
        <ele>1434.0</ele>
        <time>2020-09-29T11:56:38Z</time>
      </trkpt>
      <trkpt lat="41.0537580" lon="-3.4783370">
        <ele>1434.0</ele>
        <time>2020-09-29T11:56:39Z</time>
      </trkpt>
      <trkpt lat="41.0538070" lon="-3.4783250">
        <ele>1434.0</ele>
        <time>2020-09-29T11:56:40Z</time>
      </trkpt>
      <trkpt lat="41.0538070" lon="-3.4783250">
        <ele>1434.0</ele>
        <time>2020-09-29T11:56:41Z</time>
      </trkpt>
      <trkpt lat="41.0539200" lon="-3.4782920">
        <ele>1434.0</ele>
        <time>2020-09-29T11:56:42Z</time>
      </trkpt>
      <trkpt lat="41.0539780" lon="-3.4782580">
        <ele>1433.0</ele>
        <time>2020-09-29T11:56:43Z</time>
      </trkpt>
      <trkpt lat="41.0539780" lon="-3.4782580">
        <ele>1433.0</ele>
        <time>2020-09-29T11:56:44Z</time>
      </trkpt>
      <trkpt lat="41.0540870" lon="-3.4781500">
        <ele>1432.0</ele>
        <time>2020-09-29T11:56:45Z</time>
      </trkpt>
      <trkpt lat="41.0540870" lon="-3.4781500">
        <ele>1432.0</ele>
        <time>2020-09-29T11:56:46Z</time>
      </trkpt>
      <trkpt lat="41.0541880" lon="-3.4779930">
        <ele>1431.0</ele>
        <time>2020-09-29T11:56:47Z</time>
      </trkpt>
      <trkpt lat="41.0542300" lon="-3.4778980">
        <ele>1431.0</ele>
        <time>2020-09-29T11:56:48Z</time>
      </trkpt>
      <trkpt lat="41.0542300" lon="-3.4778980">
        <ele>1430.0</ele>
        <time>2020-09-29T11:56:49Z</time>
      </trkpt>
      <trkpt lat="41.0542950" lon="-3.4776820">
        <ele>1430.0</ele>
        <time>2020-09-29T11:56:50Z</time>
      </trkpt>
      <trkpt lat="41.0542950" lon="-3.4776820">
        <ele>1428.0</ele>
        <time>2020-09-29T11:56:51Z</time>
      </trkpt>
      <trkpt lat="41.0543470" lon="-3.4774400">
        <ele>1428.0</ele>
        <time>2020-09-29T11:56:52Z</time>
      </trkpt>
      <trkpt lat="41.0543470" lon="-3.4774400">
        <ele>1427.0</ele>
        <time>2020-09-29T11:56:53Z</time>
      </trkpt>
      <trkpt lat="41.0544000" lon="-3.4771830">
        <ele>1427.0</ele>
        <time>2020-09-29T11:56:54Z</time>
      </trkpt>
      <trkpt lat="41.0544270" lon="-3.4770500">
        <ele>1426.0</ele>
        <time>2020-09-29T11:56:55Z</time>
      </trkpt>
      <trkpt lat="41.0544270" lon="-3.4770500">
        <ele>1426.0</ele>
        <time>2020-09-29T11:56:56Z</time>
      </trkpt>
      <trkpt lat="41.0544850" lon="-3.4767800">
        <ele>1425.0</ele>
        <time>2020-09-29T11:56:57Z</time>
      </trkpt>
      <trkpt lat="41.0544850" lon="-3.4767800">
        <ele>1425.0</ele>
        <time>2020-09-29T11:56:58Z</time>
      </trkpt>
      <trkpt lat="41.0545430" lon="-3.4764980">
        <ele>1424.0</ele>
        <time>2020-09-29T11:56:59Z</time>
      </trkpt>
      <trkpt lat="41.0545430" lon="-3.4764980">
        <ele>1424.0</ele>
        <time>2020-09-29T11:57:00Z</time>
      </trkpt>
      <trkpt lat="41.0546000" lon="-3.4762050">
        <ele>1423.0</ele>
        <time>2020-09-29T11:57:01Z</time>
      </trkpt>
      <trkpt lat="41.0546000" lon="-3.4762050">
        <ele>1423.0</ele>
        <time>2020-09-29T11:57:02Z</time>
      </trkpt>
      <trkpt lat="41.0546650" lon="-3.4759050">
        <ele>1422.0</ele>
        <time>2020-09-29T11:57:03Z</time>
      </trkpt>
      <trkpt lat="41.0546980" lon="-3.4757520">
        <ele>1422.0</ele>
        <time>2020-09-29T11:57:04Z</time>
      </trkpt>
      <trkpt lat="41.0546980" lon="-3.4757520">
        <ele>1421.0</ele>
        <time>2020-09-29T11:57:05Z</time>
      </trkpt>
      <trkpt lat="41.0547620" lon="-3.4754380">
        <ele>1421.0</ele>
        <time>2020-09-29T11:57:06Z</time>
      </trkpt>
      <trkpt lat="41.0547930" lon="-3.4752800">
        <ele>1419.0</ele>
        <time>2020-09-29T11:57:07Z</time>
      </trkpt>
      <trkpt lat="41.0547930" lon="-3.4752800">
        <ele>1419.0</ele>
        <time>2020-09-29T11:57:08Z</time>
      </trkpt>
      <trkpt lat="41.0548620" lon="-3.4749580">
        <ele>1418.0</ele>
        <time>2020-09-29T11:57:09Z</time>
      </trkpt>
      <trkpt lat="41.0548970" lon="-3.4747930">
        <ele>1418.0</ele>
        <time>2020-09-29T11:57:10Z</time>
      </trkpt>
      <trkpt lat="41.0548970" lon="-3.4747930">
        <ele>1417.0</ele>
        <time>2020-09-29T11:57:11Z</time>
      </trkpt>
      <trkpt lat="41.0549680" lon="-3.4744630">
        <ele>1417.0</ele>
        <time>2020-09-29T11:57:12Z</time>
      </trkpt>
      <trkpt lat="41.0550070" lon="-3.4742970">
        <ele>1416.0</ele>
        <time>2020-09-29T11:57:13Z</time>
      </trkpt>
      <trkpt lat="41.0550070" lon="-3.4742970">
        <ele>1416.0</ele>
        <time>2020-09-29T11:57:14Z</time>
      </trkpt>
      <trkpt lat="41.0550780" lon="-3.4739570">
        <ele>1415.0</ele>
        <time>2020-09-29T11:57:15Z</time>
      </trkpt>
      <trkpt lat="41.0550780" lon="-3.4739570">
        <ele>1413.0</ele>
        <time>2020-09-29T11:57:16Z</time>
      </trkpt>
      <trkpt lat="41.0550980" lon="-3.4736130">
        <ele>1413.0</ele>
        <time>2020-09-29T11:57:17Z</time>
      </trkpt>
      <trkpt lat="41.0550980" lon="-3.4736130">
        <ele>1412.0</ele>
        <time>2020-09-29T11:57:18Z</time>
      </trkpt>
      <trkpt lat="41.0550300" lon="-3.4732750">
        <ele>1412.0</ele>
        <time>2020-09-29T11:57:19Z</time>
      </trkpt>
      <trkpt lat="41.0550300" lon="-3.4732750">
        <ele>1412.0</ele>
        <time>2020-09-29T11:57:20Z</time>
      </trkpt>
      <trkpt lat="41.0548980" lon="-3.4729830">
        <ele>1410.0</ele>
        <time>2020-09-29T11:57:21Z</time>
      </trkpt>
      <trkpt lat="41.0548170" lon="-3.4728480">
        <ele>1410.0</ele>
        <time>2020-09-29T11:57:22Z</time>
      </trkpt>
      <trkpt lat="41.0548170" lon="-3.4728480">
        <ele>1409.0</ele>
        <time>2020-09-29T11:57:23Z</time>
      </trkpt>
      <trkpt lat="41.0546670" lon="-3.4725720">
        <ele>1408.0</ele>
        <time>2020-09-29T11:57:24Z</time>
      </trkpt>
      <trkpt lat="41.0546670" lon="-3.4725720">
        <ele>1408.0</ele>
        <time>2020-09-29T11:57:25Z</time>
      </trkpt>
      <trkpt lat="41.0545680" lon="-3.4722630">
        <ele>1407.0</ele>
        <time>2020-09-29T11:57:26Z</time>
      </trkpt>
      <trkpt lat="41.0545550" lon="-3.4721020">
        <ele>1407.0</ele>
        <time>2020-09-29T11:57:27Z</time>
      </trkpt>
      <trkpt lat="41.0545550" lon="-3.4721020">
        <ele>1405.0</ele>
        <time>2020-09-29T11:57:28Z</time>
      </trkpt>
      <trkpt lat="41.0546070" lon="-3.4717850">
        <ele>1405.0</ele>
        <time>2020-09-29T11:57:29Z</time>
      </trkpt>
      <trkpt lat="41.0546070" lon="-3.4717850">
        <ele>1404.0</ele>
        <time>2020-09-29T11:57:30Z</time>
      </trkpt>
      <trkpt lat="41.0547580" lon="-3.4715250">
        <ele>1404.0</ele>
        <time>2020-09-29T11:57:31Z</time>
      </trkpt>
      <trkpt lat="41.0547580" lon="-3.4715250">
        <ele>1403.0</ele>
        <time>2020-09-29T11:57:32Z</time>
      </trkpt>
      <trkpt lat="41.0549580" lon="-3.4713220">
        <ele>1403.0</ele>
        <time>2020-09-29T11:57:33Z</time>
      </trkpt>
      <trkpt lat="41.0549580" lon="-3.4713220">
        <ele>1401.0</ele>
        <time>2020-09-29T11:57:34Z</time>
      </trkpt>
      <trkpt lat="41.0551730" lon="-3.4711430">
        <ele>1401.0</ele>
        <time>2020-09-29T11:57:35Z</time>
      </trkpt>
      <trkpt lat="41.0551730" lon="-3.4711430">
        <ele>1400.0</ele>
        <time>2020-09-29T11:57:36Z</time>
      </trkpt>
      <trkpt lat="41.0553950" lon="-3.4709680">
        <ele>1400.0</ele>
        <time>2020-09-29T11:57:37Z</time>
      </trkpt>
      <trkpt lat="41.0553950" lon="-3.4709680">
        <ele>1398.0</ele>
        <time>2020-09-29T11:57:38Z</time>
      </trkpt>
      <trkpt lat="41.0556220" lon="-3.4707950">
        <ele>1398.0</ele>
        <time>2020-09-29T11:57:39Z</time>
      </trkpt>
      <trkpt lat="41.0556220" lon="-3.4707950">
        <ele>1397.0</ele>
        <time>2020-09-29T11:57:40Z</time>
      </trkpt>
      <trkpt lat="41.0558470" lon="-3.4706130">
        <ele>1397.0</ele>
        <time>2020-09-29T11:57:41Z</time>
      </trkpt>
      <trkpt lat="41.0558470" lon="-3.4706130">
        <ele>1395.0</ele>
        <time>2020-09-29T11:57:42Z</time>
      </trkpt>
      <trkpt lat="41.0560370" lon="-3.4703730">
        <ele>1395.0</ele>
        <time>2020-09-29T11:57:43Z</time>
      </trkpt>
      <trkpt lat="41.0560370" lon="-3.4703730">
        <ele>1394.0</ele>
        <time>2020-09-29T11:57:44Z</time>
      </trkpt>
      <trkpt lat="41.0561700" lon="-3.4700700">
        <ele>1394.0</ele>
        <time>2020-09-29T11:57:45Z</time>
      </trkpt>
      <trkpt lat="41.0561700" lon="-3.4700700">
        <ele>1392.0</ele>
        <time>2020-09-29T11:57:46Z</time>
      </trkpt>
      <trkpt lat="41.0562880" lon="-3.4697530">
        <ele>1392.0</ele>
        <time>2020-09-29T11:57:47Z</time>
      </trkpt>
      <trkpt lat="41.0562880" lon="-3.4697530">
        <ele>1390.0</ele>
        <time>2020-09-29T11:57:48Z</time>
      </trkpt>
      <trkpt lat="41.0564030" lon="-3.4694350">
        <ele>1390.0</ele>
        <time>2020-09-29T11:57:49Z</time>
      </trkpt>
      <trkpt lat="41.0564030" lon="-3.4694350">
        <ele>1388.0</ele>
        <time>2020-09-29T11:57:50Z</time>
      </trkpt>
      <trkpt lat="41.0565130" lon="-3.4691330">
        <ele>1388.0</ele>
        <time>2020-09-29T11:57:51Z</time>
      </trkpt>
      <trkpt lat="41.0565130" lon="-3.4691330">
        <ele>1386.0</ele>
        <time>2020-09-29T11:57:52Z</time>
      </trkpt>
      <trkpt lat="41.0566400" lon="-3.4688580">
        <ele>1386.0</ele>
        <time>2020-09-29T11:57:53Z</time>
      </trkpt>
      <trkpt lat="41.0566400" lon="-3.4688580">
        <ele>1383.0</ele>
        <time>2020-09-29T11:57:54Z</time>
      </trkpt>
      <trkpt lat="41.0568250" lon="-3.4686470">
        <ele>1382.0</ele>
        <time>2020-09-29T11:57:55Z</time>
      </trkpt>
      <trkpt lat="41.0568250" lon="-3.4686470">
        <ele>1382.0</ele>
        <time>2020-09-29T11:57:56Z</time>
      </trkpt>
      <trkpt lat="41.0570550" lon="-3.4685850">
        <ele>1380.0</ele>
        <time>2020-09-29T11:57:57Z</time>
      </trkpt>
      <trkpt lat="41.0570550" lon="-3.4685850">
        <ele>1380.0</ele>
        <time>2020-09-29T11:57:58Z</time>
      </trkpt>
      <trkpt lat="41.0572600" lon="-3.4687030">
        <ele>1378.0</ele>
        <time>2020-09-29T11:57:59Z</time>
      </trkpt>
      <trkpt lat="41.0573450" lon="-3.4688080">
        <ele>1378.0</ele>
        <time>2020-09-29T11:58:00Z</time>
      </trkpt>
      <trkpt lat="41.0573450" lon="-3.4688080">
        <ele>1377.0</ele>
        <time>2020-09-29T11:58:01Z</time>
      </trkpt>
      <trkpt lat="41.0574520" lon="-3.4690630">
        <ele>1377.0</ele>
        <time>2020-09-29T11:58:02Z</time>
      </trkpt>
      <trkpt lat="41.0574520" lon="-3.4690630">
        <ele>1375.0</ele>
        <time>2020-09-29T11:58:03Z</time>
      </trkpt>
      <trkpt lat="41.0575070" lon="-3.4693420">
        <ele>1375.0</ele>
        <time>2020-09-29T11:58:04Z</time>
      </trkpt>
      <trkpt lat="41.0575070" lon="-3.4693420">
        <ele>1374.0</ele>
        <time>2020-09-29T11:58:05Z</time>
      </trkpt>
      <trkpt lat="41.0575550" lon="-3.4696300">
        <ele>1374.0</ele>
        <time>2020-09-29T11:58:06Z</time>
      </trkpt>
      <trkpt lat="41.0575550" lon="-3.4696300">
        <ele>1373.0</ele>
        <time>2020-09-29T11:58:07Z</time>
      </trkpt>
      <trkpt lat="41.0576380" lon="-3.4699050">
        <ele>1373.0</ele>
        <time>2020-09-29T11:58:08Z</time>
      </trkpt>
      <trkpt lat="41.0576380" lon="-3.4699050">
        <ele>1371.0</ele>
        <time>2020-09-29T11:58:09Z</time>
      </trkpt>
      <trkpt lat="41.0577580" lon="-3.4701380">
        <ele>1371.0</ele>
        <time>2020-09-29T11:58:10Z</time>
      </trkpt>
      <trkpt lat="41.0577580" lon="-3.4701380">
        <ele>1371.0</ele>
        <time>2020-09-29T11:58:11Z</time>
      </trkpt>
      <trkpt lat="41.0578770" lon="-3.4703450">
        <ele>1371.0</ele>
        <time>2020-09-29T11:58:12Z</time>
      </trkpt>
      <trkpt lat="41.0579330" lon="-3.4704400">
        <ele>1371.0</ele>
        <time>2020-09-29T11:58:13Z</time>
      </trkpt>
      <trkpt lat="41.0579330" lon="-3.4704400">
        <ele>1371.0</ele>
        <time>2020-09-29T11:58:14Z</time>
      </trkpt>
      <trkpt lat="41.0580450" lon="-3.4705950">
        <ele>1371.0</ele>
        <time>2020-09-29T11:58:15Z</time>
      </trkpt>
      <trkpt lat="41.0580450" lon="-3.4705950">
        <ele>1371.0</ele>
        <time>2020-09-29T11:58:16Z</time>
      </trkpt>
      <trkpt lat="41.0581620" lon="-3.4707050">
        <ele>1371.0</ele>
        <time>2020-09-29T11:58:17Z</time>
      </trkpt>
      <trkpt lat="41.0582170" lon="-3.4707400">
        <ele>1371.0</ele>
        <time>2020-09-29T11:58:18Z</time>
      </trkpt>
      <trkpt lat="41.0582700" lon="-3.4707680">
        <ele>1372.0</ele>
        <time>2020-09-29T11:58:19Z</time>
      </trkpt>
      <trkpt lat="41.0582700" lon="-3.4707680">
        <ele>1372.0</ele>
        <time>2020-09-29T11:58:20Z</time>
      </trkpt>
      <trkpt lat="41.0583620" lon="-3.4708200">
        <ele>1372.0</ele>
        <time>2020-09-29T11:58:21Z</time>
      </trkpt>
      <trkpt lat="41.0583620" lon="-3.4708200">
        <ele>1372.0</ele>
        <time>2020-09-29T11:58:22Z</time>
      </trkpt>
      <trkpt lat="41.0584400" lon="-3.4708700">
        <ele>1373.0</ele>
        <time>2020-09-29T11:58:23Z</time>
      </trkpt>
      <trkpt lat="41.0584400" lon="-3.4708700">
        <ele>1373.0</ele>
        <time>2020-09-29T11:58:24Z</time>
      </trkpt>
      <trkpt lat="41.0585120" lon="-3.4709080">
        <ele>1373.0</ele>
        <time>2020-09-29T11:58:25Z</time>
      </trkpt>
      <trkpt lat="41.0585480" lon="-3.4709230">
        <ele>1373.0</ele>
        <time>2020-09-29T11:58:26Z</time>
      </trkpt>
      <trkpt lat="41.0585480" lon="-3.4709230">
        <ele>1374.0</ele>
        <time>2020-09-29T11:58:27Z</time>
      </trkpt>
      <trkpt lat="41.0586150" lon="-3.4709500">
        <ele>1374.0</ele>
        <time>2020-09-29T11:58:28Z</time>
      </trkpt>
      <trkpt lat="41.0586150" lon="-3.4709500">
        <ele>1374.0</ele>
        <time>2020-09-29T11:58:29Z</time>
      </trkpt>
      <trkpt lat="41.0586800" lon="-3.4709820">
        <ele>1375.0</ele>
        <time>2020-09-29T11:58:30Z</time>
      </trkpt>
      <trkpt lat="41.0586800" lon="-3.4709820">
        <ele>1375.0</ele>
        <time>2020-09-29T11:58:31Z</time>
      </trkpt>
      <trkpt lat="41.0587470" lon="-3.4710180">
        <ele>1375.0</ele>
        <time>2020-09-29T11:58:32Z</time>
      </trkpt>
      <trkpt lat="41.0587470" lon="-3.4710180">
        <ele>1375.0</ele>
        <time>2020-09-29T11:58:33Z</time>
      </trkpt>
      <trkpt lat="41.0588130" lon="-3.4710600">
        <ele>1375.0</ele>
        <time>2020-09-29T11:58:34Z</time>
      </trkpt>
      <trkpt lat="41.0588430" lon="-3.4710830">
        <ele>1375.0</ele>
        <time>2020-09-29T11:58:35Z</time>
      </trkpt>
      <trkpt lat="41.0588430" lon="-3.4710830">
        <ele>1376.0</ele>
        <time>2020-09-29T11:58:36Z</time>
      </trkpt>
      <trkpt lat="41.0589050" lon="-3.4711370">
        <ele>1376.0</ele>
        <time>2020-09-29T11:58:37Z</time>
      </trkpt>
      <trkpt lat="41.0589050" lon="-3.4711370">
        <ele>1376.0</ele>
        <time>2020-09-29T11:58:38Z</time>
      </trkpt>
      <trkpt lat="41.0589600" lon="-3.4712120">
        <ele>1376.0</ele>
        <time>2020-09-29T11:58:39Z</time>
      </trkpt>
      <trkpt lat="41.0589850" lon="-3.4712600">
        <ele>1376.0</ele>
        <time>2020-09-29T11:58:40Z</time>
      </trkpt>
      <trkpt lat="41.0590020" lon="-3.4713130">
        <ele>1376.0</ele>
        <time>2020-09-29T11:58:41Z</time>
      </trkpt>
      <trkpt lat="41.0590070" lon="-3.4713650">
        <ele>1376.0</ele>
        <time>2020-09-29T11:58:42Z</time>
      </trkpt>
      <trkpt lat="41.0590070" lon="-3.4713650">
        <ele>1376.0</ele>
        <time>2020-09-29T11:58:43Z</time>
      </trkpt>
      <trkpt lat="41.0590020" lon="-3.4714800">
        <ele>1376.0</ele>
        <time>2020-09-29T11:58:44Z</time>
      </trkpt>
      <trkpt lat="41.0590020" lon="-3.4714800">
        <ele>1376.0</ele>
        <time>2020-09-29T11:58:45Z</time>
      </trkpt>
      <trkpt lat="41.0589820" lon="-3.4715930">
        <ele>1376.0</ele>
        <time>2020-09-29T11:58:46Z</time>
      </trkpt>
      <trkpt lat="41.0589820" lon="-3.4715930">
        <ele>1376.0</ele>
        <time>2020-09-29T11:58:47Z</time>
      </trkpt>
      <trkpt lat="41.0589620" lon="-3.4717030">
        <ele>1376.0</ele>
        <time>2020-09-29T11:58:48Z</time>
      </trkpt>
      <trkpt lat="41.0589620" lon="-3.4717030">
        <ele>1376.0</ele>
        <time>2020-09-29T11:58:49Z</time>
      </trkpt>
      <trkpt lat="41.0589480" lon="-3.4718170">
        <ele>1376.0</ele>
        <time>2020-09-29T11:58:50Z</time>
      </trkpt>
      <trkpt lat="41.0589450" lon="-3.4718730">
        <ele>1376.0</ele>
        <time>2020-09-29T11:58:51Z</time>
      </trkpt>
      <trkpt lat="41.0589450" lon="-3.4718730">
        <ele>1377.0</ele>
        <time>2020-09-29T11:58:52Z</time>
      </trkpt>
      <trkpt lat="41.0589480" lon="-3.4719750">
        <ele>1377.0</ele>
        <time>2020-09-29T11:58:53Z</time>
      </trkpt>
      <trkpt lat="41.0589480" lon="-3.4719750">
        <ele>1377.0</ele>
        <time>2020-09-29T11:58:54Z</time>
      </trkpt>
      <trkpt lat="41.0589630" lon="-3.4720650">
        <ele>1377.0</ele>
        <time>2020-09-29T11:58:55Z</time>
      </trkpt>
      <trkpt lat="41.0589630" lon="-3.4720650">
        <ele>1377.0</ele>
        <time>2020-09-29T11:58:56Z</time>
      </trkpt>
      <trkpt lat="41.0589950" lon="-3.4721520">
        <ele>1377.0</ele>
        <time>2020-09-29T11:58:57Z</time>
      </trkpt>
      <trkpt lat="41.0589950" lon="-3.4721520">
        <ele>1378.0</ele>
        <time>2020-09-29T11:58:58Z</time>
      </trkpt>
      <trkpt lat="41.0590320" lon="-3.4722320">
        <ele>1378.0</ele>
        <time>2020-09-29T11:58:59Z</time>
      </trkpt>
      <trkpt lat="41.0590320" lon="-3.4722320">
        <ele>1378.0</ele>
        <time>2020-09-29T11:59:00Z</time>
      </trkpt>
      <trkpt lat="41.0590720" lon="-3.4722980">
        <ele>1378.0</ele>
        <time>2020-09-29T11:59:01Z</time>
      </trkpt>
      <trkpt lat="41.0590720" lon="-3.4722980">
        <ele>1379.0</ele>
        <time>2020-09-29T11:59:02Z</time>
      </trkpt>
      <trkpt lat="41.0591130" lon="-3.4723550">
        <ele>1379.0</ele>
        <time>2020-09-29T11:59:03Z</time>
      </trkpt>
      <trkpt lat="41.0591380" lon="-3.4723800">
        <ele>1379.0</ele>
        <time>2020-09-29T11:59:04Z</time>
      </trkpt>
      <trkpt lat="41.0591700" lon="-3.4724030">
        <ele>1380.0</ele>
        <time>2020-09-29T11:59:05Z</time>
      </trkpt>
      <trkpt lat="41.0591700" lon="-3.4724030">
        <ele>1380.0</ele>
        <time>2020-09-29T11:59:06Z</time>
      </trkpt>
      <trkpt lat="41.0592200" lon="-3.4724520">
        <ele>1380.0</ele>
        <time>2020-09-29T11:59:07Z</time>
      </trkpt>
      <trkpt lat="41.0592200" lon="-3.4724520">
        <ele>1380.0</ele>
        <time>2020-09-29T11:59:08Z</time>
      </trkpt>
      <trkpt lat="41.0592720" lon="-3.4725020">
        <ele>1381.0</ele>
        <time>2020-09-29T11:59:09Z</time>
      </trkpt>
      <trkpt lat="41.0592720" lon="-3.4725020">
        <ele>1381.0</ele>
        <time>2020-09-29T11:59:10Z</time>
      </trkpt>
      <trkpt lat="41.0593250" lon="-3.4725500">
        <ele>1381.0</ele>
        <time>2020-09-29T11:59:11Z</time>
      </trkpt>
      <trkpt lat="41.0593500" lon="-3.4725730">
        <ele>1381.0</ele>
        <time>2020-09-29T11:59:12Z</time>
      </trkpt>
      <trkpt lat="41.0593500" lon="-3.4725730">
        <ele>1382.0</ele>
        <time>2020-09-29T11:59:13Z</time>
      </trkpt>
      <trkpt lat="41.0594030" lon="-3.4726220">
        <ele>1382.0</ele>
        <time>2020-09-29T11:59:14Z</time>
      </trkpt>
      <trkpt lat="41.0594030" lon="-3.4726220">
        <ele>1382.0</ele>
        <time>2020-09-29T11:59:15Z</time>
      </trkpt>
      <trkpt lat="41.0594570" lon="-3.4726570">
        <ele>1382.0</ele>
        <time>2020-09-29T11:59:16Z</time>
      </trkpt>
      <trkpt lat="41.0594570" lon="-3.4726570">
        <ele>1383.0</ele>
        <time>2020-09-29T11:59:17Z</time>
      </trkpt>
      <trkpt lat="41.0595080" lon="-3.4726980">
        <ele>1383.0</ele>
        <time>2020-09-29T11:59:18Z</time>
      </trkpt>
      <trkpt lat="41.0595330" lon="-3.4727220">
        <ele>1383.0</ele>
        <time>2020-09-29T11:59:19Z</time>
      </trkpt>
      <trkpt lat="41.0595330" lon="-3.4727220">
        <ele>1383.0</ele>
        <time>2020-09-29T11:59:20Z</time>
      </trkpt>
      <trkpt lat="41.0595870" lon="-3.4727600">
        <ele>1384.0</ele>
        <time>2020-09-29T11:59:21Z</time>
      </trkpt>
      <trkpt lat="41.0595870" lon="-3.4727600">
        <ele>1384.0</ele>
        <time>2020-09-29T11:59:22Z</time>
      </trkpt>
      <trkpt lat="41.0596350" lon="-3.4728070">
        <ele>1384.0</ele>
        <time>2020-09-29T11:59:23Z</time>
      </trkpt>
      <trkpt lat="41.0596350" lon="-3.4728070">
        <ele>1384.0</ele>
        <time>2020-09-29T11:59:24Z</time>
      </trkpt>
      <trkpt lat="41.0596850" lon="-3.4728470">
        <ele>1384.0</ele>
        <time>2020-09-29T11:59:25Z</time>
      </trkpt>
      <trkpt lat="41.0596850" lon="-3.4728470">
        <ele>1384.0</ele>
        <time>2020-09-29T11:59:26Z</time>
      </trkpt>
      <trkpt lat="41.0597350" lon="-3.4728850">
        <ele>1385.0</ele>
        <time>2020-09-29T11:59:27Z</time>
      </trkpt>
      <trkpt lat="41.0597600" lon="-3.4729030">
        <ele>1385.0</ele>
        <time>2020-09-29T11:59:28Z</time>
      </trkpt>
      <trkpt lat="41.0597600" lon="-3.4729030">
        <ele>1385.0</ele>
        <time>2020-09-29T11:59:29Z</time>
      </trkpt>
      <trkpt lat="41.0598100" lon="-3.4729370">
        <ele>1385.0</ele>
        <time>2020-09-29T11:59:30Z</time>
      </trkpt>
      <trkpt lat="41.0598350" lon="-3.4729550">
        <ele>1386.0</ele>
        <time>2020-09-29T11:59:31Z</time>
      </trkpt>
      <trkpt lat="41.0598350" lon="-3.4729550">
        <ele>1386.0</ele>
        <time>2020-09-29T11:59:32Z</time>
      </trkpt>
      <trkpt lat="41.0598880" lon="-3.4729930">
        <ele>1386.0</ele>
        <time>2020-09-29T11:59:33Z</time>
      </trkpt>
      <trkpt lat="41.0599130" lon="-3.4730120">
        <ele>1386.0</ele>
        <time>2020-09-29T11:59:34Z</time>
      </trkpt>
      <trkpt lat="41.0599130" lon="-3.4730120">
        <ele>1386.0</ele>
        <time>2020-09-29T11:59:35Z</time>
      </trkpt>
      <trkpt lat="41.0599670" lon="-3.4730420">
        <ele>1387.0</ele>
        <time>2020-09-29T11:59:36Z</time>
      </trkpt>
      <trkpt lat="41.0599950" lon="-3.4730550">
        <ele>1387.0</ele>
        <time>2020-09-29T11:59:37Z</time>
      </trkpt>
      <trkpt lat="41.0599950" lon="-3.4730550">
        <ele>1387.0</ele>
        <time>2020-09-29T11:59:38Z</time>
      </trkpt>
      <trkpt lat="41.0600500" lon="-3.4730820">
        <ele>1387.0</ele>
        <time>2020-09-29T11:59:39Z</time>
      </trkpt>
      <trkpt lat="41.0600500" lon="-3.4730820">
        <ele>1388.0</ele>
        <time>2020-09-29T11:59:40Z</time>
      </trkpt>
      <trkpt lat="41.0601080" lon="-3.4731020">
        <ele>1388.0</ele>
        <time>2020-09-29T11:59:41Z</time>
      </trkpt>
      <trkpt lat="41.0601080" lon="-3.4731020">
        <ele>1388.0</ele>
        <time>2020-09-29T11:59:42Z</time>
      </trkpt>
      <trkpt lat="41.0601670" lon="-3.4731150">
        <ele>1388.0</ele>
        <time>2020-09-29T11:59:43Z</time>
      </trkpt>
      <trkpt lat="41.0601670" lon="-3.4731150">
        <ele>1389.0</ele>
        <time>2020-09-29T11:59:44Z</time>
      </trkpt>
      <trkpt lat="41.0602220" lon="-3.4731230">
        <ele>1389.0</ele>
        <time>2020-09-29T11:59:45Z</time>
      </trkpt>
      <trkpt lat="41.0602220" lon="-3.4731230">
        <ele>1389.0</ele>
        <time>2020-09-29T11:59:46Z</time>
      </trkpt>
      <trkpt lat="41.0602770" lon="-3.4731270">
        <ele>1389.0</ele>
        <time>2020-09-29T11:59:47Z</time>
      </trkpt>
      <trkpt lat="41.0602770" lon="-3.4731270">
        <ele>1389.0</ele>
        <time>2020-09-29T11:59:48Z</time>
      </trkpt>
      <trkpt lat="41.0603300" lon="-3.4731250">
        <ele>1390.0</ele>
        <time>2020-09-29T11:59:49Z</time>
      </trkpt>
      <trkpt lat="41.0603300" lon="-3.4731250">
        <ele>1390.0</ele>
        <time>2020-09-29T11:59:50Z</time>
      </trkpt>
      <trkpt lat="41.0603850" lon="-3.4731220">
        <ele>1390.0</ele>
        <time>2020-09-29T11:59:51Z</time>
      </trkpt>
      <trkpt lat="41.0603850" lon="-3.4731220">
        <ele>1390.0</ele>
        <time>2020-09-29T11:59:52Z</time>
      </trkpt>
      <trkpt lat="41.0604350" lon="-3.4731200">
        <ele>1391.0</ele>
        <time>2020-09-29T11:59:53Z</time>
      </trkpt>
      <trkpt lat="41.0604350" lon="-3.4731200">
        <ele>1391.0</ele>
        <time>2020-09-29T11:59:54Z</time>
      </trkpt>
      <trkpt lat="41.0604850" lon="-3.4731170">
        <ele>1391.0</ele>
        <time>2020-09-29T11:59:55Z</time>
      </trkpt>
      <trkpt lat="41.0604850" lon="-3.4731170">
        <ele>1391.0</ele>
        <time>2020-09-29T11:59:56Z</time>
      </trkpt>
      <trkpt lat="41.0605350" lon="-3.4731150">
        <ele>1391.0</ele>
        <time>2020-09-29T11:59:57Z</time>
      </trkpt>
      <trkpt lat="41.0605350" lon="-3.4731150">
        <ele>1391.0</ele>
        <time>2020-09-29T11:59:58Z</time>
      </trkpt>
      <trkpt lat="41.0605830" lon="-3.4731150">
        <ele>1392.0</ele>
        <time>2020-09-29T11:59:59Z</time>
      </trkpt>
      <trkpt lat="41.0606100" lon="-3.4731150">
        <ele>1392.0</ele>
        <time>2020-09-29T12:00:00Z</time>
      </trkpt>
      <trkpt lat="41.0606370" lon="-3.4731150">
        <ele>1392.0</ele>
        <time>2020-09-29T12:00:01Z</time>
      </trkpt>
      <trkpt lat="41.0606370" lon="-3.4731150">
        <ele>1392.0</ele>
        <time>2020-09-29T12:00:02Z</time>
      </trkpt>
      <trkpt lat="41.0606920" lon="-3.4731130">
        <ele>1392.0</ele>
        <time>2020-09-29T12:00:03Z</time>
      </trkpt>
      <trkpt lat="41.0607180" lon="-3.4731130">
        <ele>1392.0</ele>
        <time>2020-09-29T12:00:04Z</time>
      </trkpt>
      <trkpt lat="41.0607180" lon="-3.4731130">
        <ele>1392.0</ele>
        <time>2020-09-29T12:00:05Z</time>
      </trkpt>
      <trkpt lat="41.0607730" lon="-3.4731130">
        <ele>1392.0</ele>
        <time>2020-09-29T12:00:06Z</time>
      </trkpt>
      <trkpt lat="41.0607730" lon="-3.4731130">
        <ele>1393.0</ele>
        <time>2020-09-29T12:00:07Z</time>
      </trkpt>
      <trkpt lat="41.0608370" lon="-3.4731070">
        <ele>1393.0</ele>
        <time>2020-09-29T12:00:08Z</time>
      </trkpt>
      <trkpt lat="41.0608370" lon="-3.4731070">
        <ele>1393.0</ele>
        <time>2020-09-29T12:00:09Z</time>
      </trkpt>
      <trkpt lat="41.0608900" lon="-3.4731050">
        <ele>1393.0</ele>
        <time>2020-09-29T12:00:10Z</time>
      </trkpt>
      <trkpt lat="41.0608900" lon="-3.4731050">
        <ele>1393.0</ele>
        <time>2020-09-29T12:00:11Z</time>
      </trkpt>
      <trkpt lat="41.0609420" lon="-3.4731020">
        <ele>1393.0</ele>
        <time>2020-09-29T12:00:12Z</time>
      </trkpt>
      <trkpt lat="41.0609670" lon="-3.4731000">
        <ele>1394.0</ele>
        <time>2020-09-29T12:00:13Z</time>
      </trkpt>
      <trkpt lat="41.0609670" lon="-3.4731000">
        <ele>1394.0</ele>
        <time>2020-09-29T12:00:14Z</time>
      </trkpt>
      <trkpt lat="41.0610220" lon="-3.4730950">
        <ele>1394.0</ele>
        <time>2020-09-29T12:00:15Z</time>
      </trkpt>
      <trkpt lat="41.0610220" lon="-3.4730950">
        <ele>1394.0</ele>
        <time>2020-09-29T12:00:16Z</time>
      </trkpt>
      <trkpt lat="41.0610780" lon="-3.4730900">
        <ele>1395.0</ele>
        <time>2020-09-29T12:00:17Z</time>
      </trkpt>
      <trkpt lat="41.0610780" lon="-3.4730900">
        <ele>1395.0</ele>
        <time>2020-09-29T12:00:18Z</time>
      </trkpt>
      <trkpt lat="41.0611350" lon="-3.4730880">
        <ele>1395.0</ele>
        <time>2020-09-29T12:00:19Z</time>
      </trkpt>
      <trkpt lat="41.0611350" lon="-3.4730880">
        <ele>1395.0</ele>
        <time>2020-09-29T12:00:20Z</time>
      </trkpt>
      <trkpt lat="41.0611920" lon="-3.4730850">
        <ele>1396.0</ele>
        <time>2020-09-29T12:00:21Z</time>
      </trkpt>
      <trkpt lat="41.0611920" lon="-3.4730850">
        <ele>1396.0</ele>
        <time>2020-09-29T12:00:22Z</time>
      </trkpt>
      <trkpt lat="41.0612450" lon="-3.4730870">
        <ele>1396.0</ele>
        <time>2020-09-29T12:00:23Z</time>
      </trkpt>
      <trkpt lat="41.0612450" lon="-3.4730870">
        <ele>1396.0</ele>
        <time>2020-09-29T12:00:24Z</time>
      </trkpt>
      <trkpt lat="41.0612980" lon="-3.4730870">
        <ele>1397.0</ele>
        <time>2020-09-29T12:00:25Z</time>
      </trkpt>
      <trkpt lat="41.0612980" lon="-3.4730870">
        <ele>1397.0</ele>
        <time>2020-09-29T12:00:26Z</time>
      </trkpt>
      <trkpt lat="41.0613530" lon="-3.4730880">
        <ele>1397.0</ele>
        <time>2020-09-29T12:00:27Z</time>
      </trkpt>
      <trkpt lat="41.0613530" lon="-3.4730880">
        <ele>1397.0</ele>
        <time>2020-09-29T12:00:28Z</time>
      </trkpt>
      <trkpt lat="41.0614070" lon="-3.4730820">
        <ele>1397.0</ele>
        <time>2020-09-29T12:00:29Z</time>
      </trkpt>
      <trkpt lat="41.0614070" lon="-3.4730820">
        <ele>1397.0</ele>
        <time>2020-09-29T12:00:30Z</time>
      </trkpt>
      <trkpt lat="41.0614620" lon="-3.4730800">
        <ele>1398.0</ele>
        <time>2020-09-29T12:00:31Z</time>
      </trkpt>
      <trkpt lat="41.0614620" lon="-3.4730800">
        <ele>1398.0</ele>
        <time>2020-09-29T12:00:32Z</time>
      </trkpt>
      <trkpt lat="41.0615130" lon="-3.4730800">
        <ele>1398.0</ele>
        <time>2020-09-29T12:00:33Z</time>
      </trkpt>
      <trkpt lat="41.0615400" lon="-3.4730770">
        <ele>1398.0</ele>
        <time>2020-09-29T12:00:34Z</time>
      </trkpt>
      <trkpt lat="41.0615400" lon="-3.4730770">
        <ele>1399.0</ele>
        <time>2020-09-29T12:00:35Z</time>
      </trkpt>
      <trkpt lat="41.0615920" lon="-3.4730770">
        <ele>1399.0</ele>
        <time>2020-09-29T12:00:36Z</time>
      </trkpt>
      <trkpt lat="41.0615920" lon="-3.4730770">
        <ele>1399.0</ele>
        <time>2020-09-29T12:00:37Z</time>
      </trkpt>
      <trkpt lat="41.0616550" lon="-3.4730880">
        <ele>1399.0</ele>
        <time>2020-09-29T12:00:38Z</time>
      </trkpt>
      <trkpt lat="41.0616550" lon="-3.4730880">
        <ele>1400.0</ele>
        <time>2020-09-29T12:00:39Z</time>
      </trkpt>
      <trkpt lat="41.0617020" lon="-3.4730930">
        <ele>1400.0</ele>
        <time>2020-09-29T12:00:40Z</time>
      </trkpt>
      <trkpt lat="41.0617020" lon="-3.4730930">
        <ele>1400.0</ele>
        <time>2020-09-29T12:00:41Z</time>
      </trkpt>
      <trkpt lat="41.0617480" lon="-3.4730980">
        <ele>1400.0</ele>
        <time>2020-09-29T12:00:42Z</time>
      </trkpt>
      <trkpt lat="41.0617720" lon="-3.4731000">
        <ele>1401.0</ele>
        <time>2020-09-29T12:00:43Z</time>
      </trkpt>
      <trkpt lat="41.0617720" lon="-3.4731000">
        <ele>1401.0</ele>
        <time>2020-09-29T12:00:44Z</time>
      </trkpt>
      <trkpt lat="41.0618230" lon="-3.4731070">
        <ele>1401.0</ele>
        <time>2020-09-29T12:00:45Z</time>
      </trkpt>
      <trkpt lat="41.0618230" lon="-3.4731070">
        <ele>1401.0</ele>
        <time>2020-09-29T12:00:46Z</time>
      </trkpt>
      <trkpt lat="41.0618750" lon="-3.4731180">
        <ele>1402.0</ele>
        <time>2020-09-29T12:00:47Z</time>
      </trkpt>
      <trkpt lat="41.0619020" lon="-3.4731280">
        <ele>1402.0</ele>
        <time>2020-09-29T12:00:48Z</time>
      </trkpt>
      <trkpt lat="41.0619020" lon="-3.4731280">
        <ele>1402.0</ele>
        <time>2020-09-29T12:00:49Z</time>
      </trkpt>
      <trkpt lat="41.0619570" lon="-3.4731400">
        <ele>1402.0</ele>
        <time>2020-09-29T12:00:50Z</time>
      </trkpt>
      <trkpt lat="41.0619570" lon="-3.4731400">
        <ele>1402.0</ele>
        <time>2020-09-29T12:00:51Z</time>
      </trkpt>
      <trkpt lat="41.0620100" lon="-3.4731580">
        <ele>1402.0</ele>
        <time>2020-09-29T12:00:52Z</time>
      </trkpt>
      <trkpt lat="41.0620350" lon="-3.4731720">
        <ele>1403.0</ele>
        <time>2020-09-29T12:00:53Z</time>
      </trkpt>
      <trkpt lat="41.0620350" lon="-3.4731720">
        <ele>1403.0</ele>
        <time>2020-09-29T12:00:54Z</time>
      </trkpt>
      <trkpt lat="41.0620870" lon="-3.4731930">
        <ele>1403.0</ele>
        <time>2020-09-29T12:00:55Z</time>
      </trkpt>
      <trkpt lat="41.0620870" lon="-3.4731930">
        <ele>1403.0</ele>
        <time>2020-09-29T12:00:56Z</time>
      </trkpt>
      <trkpt lat="41.0621420" lon="-3.4732080">
        <ele>1404.0</ele>
        <time>2020-09-29T12:00:57Z</time>
      </trkpt>
      <trkpt lat="41.0621420" lon="-3.4732080">
        <ele>1404.0</ele>
        <time>2020-09-29T12:00:58Z</time>
      </trkpt>
      <trkpt lat="41.0621950" lon="-3.4732150">
        <ele>1404.0</ele>
        <time>2020-09-29T12:00:59Z</time>
      </trkpt>
      <trkpt lat="41.0621950" lon="-3.4732150">
        <ele>1404.0</ele>
        <time>2020-09-29T12:01:00Z</time>
      </trkpt>
      <trkpt lat="41.0622480" lon="-3.4732300">
        <ele>1405.0</ele>
        <time>2020-09-29T12:01:01Z</time>
      </trkpt>
      <trkpt lat="41.0622480" lon="-3.4732300">
        <ele>1405.0</ele>
        <time>2020-09-29T12:01:02Z</time>
      </trkpt>
      <trkpt lat="41.0622980" lon="-3.4732500">
        <ele>1405.0</ele>
        <time>2020-09-29T12:01:03Z</time>
      </trkpt>
      <trkpt lat="41.0622980" lon="-3.4732500">
        <ele>1405.0</ele>
        <time>2020-09-29T12:01:04Z</time>
      </trkpt>
      <trkpt lat="41.0623520" lon="-3.4732630">
        <ele>1406.0</ele>
        <time>2020-09-29T12:01:05Z</time>
      </trkpt>
      <trkpt lat="41.0623520" lon="-3.4732630">
        <ele>1406.0</ele>
        <time>2020-09-29T12:01:06Z</time>
      </trkpt>
      <trkpt lat="41.0624030" lon="-3.4732820">
        <ele>1406.0</ele>
        <time>2020-09-29T12:01:07Z</time>
      </trkpt>
      <trkpt lat="41.0624030" lon="-3.4732820">
        <ele>1406.0</ele>
        <time>2020-09-29T12:01:08Z</time>
      </trkpt>
      <trkpt lat="41.0624550" lon="-3.4732980">
        <ele>1407.0</ele>
        <time>2020-09-29T12:01:09Z</time>
      </trkpt>
      <trkpt lat="41.0624550" lon="-3.4732980">
        <ele>1407.0</ele>
        <time>2020-09-29T12:01:10Z</time>
      </trkpt>
      <trkpt lat="41.0625050" lon="-3.4733200">
        <ele>1407.0</ele>
        <time>2020-09-29T12:01:11Z</time>
      </trkpt>
      <trkpt lat="41.0625050" lon="-3.4733200">
        <ele>1407.0</ele>
        <time>2020-09-29T12:01:12Z</time>
      </trkpt>
      <trkpt lat="41.0625550" lon="-3.4733370">
        <ele>1408.0</ele>
        <time>2020-09-29T12:01:13Z</time>
      </trkpt>
      <trkpt lat="41.0625550" lon="-3.4733370">
        <ele>1408.0</ele>
        <time>2020-09-29T12:01:14Z</time>
      </trkpt>
      <trkpt lat="41.0626070" lon="-3.4733570">
        <ele>1408.0</ele>
        <time>2020-09-29T12:01:15Z</time>
      </trkpt>
      <trkpt lat="41.0626070" lon="-3.4733570">
        <ele>1408.0</ele>
        <time>2020-09-29T12:01:16Z</time>
      </trkpt>
      <trkpt lat="41.0626550" lon="-3.4733750">
        <ele>1409.0</ele>
        <time>2020-09-29T12:01:17Z</time>
      </trkpt>
      <trkpt lat="41.0626550" lon="-3.4733750">
        <ele>1409.0</ele>
        <time>2020-09-29T12:01:18Z</time>
      </trkpt>
      <trkpt lat="41.0627030" lon="-3.4733970">
        <ele>1409.0</ele>
        <time>2020-09-29T12:01:19Z</time>
      </trkpt>
      <trkpt lat="41.0627030" lon="-3.4733970">
        <ele>1409.0</ele>
        <time>2020-09-29T12:01:20Z</time>
      </trkpt>
      <trkpt lat="41.0627550" lon="-3.4734170">
        <ele>1410.0</ele>
        <time>2020-09-29T12:01:21Z</time>
      </trkpt>
      <trkpt lat="41.0627550" lon="-3.4734170">
        <ele>1410.0</ele>
        <time>2020-09-29T12:01:22Z</time>
      </trkpt>
      <trkpt lat="41.0628070" lon="-3.4734380">
        <ele>1410.0</ele>
        <time>2020-09-29T12:01:23Z</time>
      </trkpt>
      <trkpt lat="41.0628070" lon="-3.4734380">
        <ele>1410.0</ele>
        <time>2020-09-29T12:01:24Z</time>
      </trkpt>
      <trkpt lat="41.0628570" lon="-3.4734550">
        <ele>1411.0</ele>
        <time>2020-09-29T12:01:25Z</time>
      </trkpt>
      <trkpt lat="41.0628570" lon="-3.4734550">
        <ele>1411.0</ele>
        <time>2020-09-29T12:01:26Z</time>
      </trkpt>
      <trkpt lat="41.0629070" lon="-3.4734700">
        <ele>1411.0</ele>
        <time>2020-09-29T12:01:27Z</time>
      </trkpt>
      <trkpt lat="41.0629330" lon="-3.4734800">
        <ele>1411.0</ele>
        <time>2020-09-29T12:01:28Z</time>
      </trkpt>
      <trkpt lat="41.0629330" lon="-3.4734800">
        <ele>1411.0</ele>
        <time>2020-09-29T12:01:29Z</time>
      </trkpt>
      <trkpt lat="41.0629830" lon="-3.4735000">
        <ele>1412.0</ele>
        <time>2020-09-29T12:01:30Z</time>
      </trkpt>
      <trkpt lat="41.0630080" lon="-3.4735080">
        <ele>1412.0</ele>
        <time>2020-09-29T12:01:31Z</time>
      </trkpt>
      <trkpt lat="41.0630080" lon="-3.4735080">
        <ele>1412.0</ele>
        <time>2020-09-29T12:01:32Z</time>
      </trkpt>
      <trkpt lat="41.0630600" lon="-3.4735220">
        <ele>1412.0</ele>
        <time>2020-09-29T12:01:33Z</time>
      </trkpt>
      <trkpt lat="41.0630850" lon="-3.4735300">
        <ele>1412.0</ele>
        <time>2020-09-29T12:01:34Z</time>
      </trkpt>
      <trkpt lat="41.0630850" lon="-3.4735300">
        <ele>1413.0</ele>
        <time>2020-09-29T12:01:35Z</time>
      </trkpt>
      <trkpt lat="41.0631370" lon="-3.4735520">
        <ele>1413.0</ele>
        <time>2020-09-29T12:01:36Z</time>
      </trkpt>
      <trkpt lat="41.0631620" lon="-3.4735600">
        <ele>1413.0</ele>
        <time>2020-09-29T12:01:37Z</time>
      </trkpt>
      <trkpt lat="41.0631620" lon="-3.4735600">
        <ele>1413.0</ele>
        <time>2020-09-29T12:01:38Z</time>
      </trkpt>
      <trkpt lat="41.0632130" lon="-3.4735780">
        <ele>1414.0</ele>
        <time>2020-09-29T12:01:39Z</time>
      </trkpt>
      <trkpt lat="41.0632130" lon="-3.4735780">
        <ele>1414.0</ele>
        <time>2020-09-29T12:01:40Z</time>
      </trkpt>
      <trkpt lat="41.0632650" lon="-3.4735970">
        <ele>1414.0</ele>
        <time>2020-09-29T12:01:41Z</time>
      </trkpt>
      <trkpt lat="41.0632650" lon="-3.4735970">
        <ele>1414.0</ele>
        <time>2020-09-29T12:01:42Z</time>
      </trkpt>
      <trkpt lat="41.0633170" lon="-3.4736200">
        <ele>1415.0</ele>
        <time>2020-09-29T12:01:43Z</time>
      </trkpt>
      <trkpt lat="41.0633170" lon="-3.4736200">
        <ele>1415.0</ele>
        <time>2020-09-29T12:01:44Z</time>
      </trkpt>
      <trkpt lat="41.0633650" lon="-3.4736450">
        <ele>1415.0</ele>
        <time>2020-09-29T12:01:45Z</time>
      </trkpt>
      <trkpt lat="41.0633650" lon="-3.4736450">
        <ele>1415.0</ele>
        <time>2020-09-29T12:01:46Z</time>
      </trkpt>
      <trkpt lat="41.0634150" lon="-3.4736670">
        <ele>1416.0</ele>
        <time>2020-09-29T12:01:47Z</time>
      </trkpt>
      <trkpt lat="41.0634150" lon="-3.4736670">
        <ele>1416.0</ele>
        <time>2020-09-29T12:01:48Z</time>
      </trkpt>
      <trkpt lat="41.0634680" lon="-3.4736800">
        <ele>1416.0</ele>
        <time>2020-09-29T12:01:49Z</time>
      </trkpt>
      <trkpt lat="41.0634680" lon="-3.4736800">
        <ele>1416.0</ele>
        <time>2020-09-29T12:01:50Z</time>
      </trkpt>
      <trkpt lat="41.0635170" lon="-3.4736970">
        <ele>1417.0</ele>
        <time>2020-09-29T12:01:51Z</time>
      </trkpt>
      <trkpt lat="41.0635170" lon="-3.4736970">
        <ele>1417.0</ele>
        <time>2020-09-29T12:01:52Z</time>
      </trkpt>
      <trkpt lat="41.0635700" lon="-3.4737120">
        <ele>1417.0</ele>
        <time>2020-09-29T12:01:53Z</time>
      </trkpt>
      <trkpt lat="41.0635980" lon="-3.4737130">
        <ele>1417.0</ele>
        <time>2020-09-29T12:01:54Z</time>
      </trkpt>
      <trkpt lat="41.0635980" lon="-3.4737130">
        <ele>1417.0</ele>
        <time>2020-09-29T12:01:55Z</time>
      </trkpt>
      <trkpt lat="41.0636480" lon="-3.4737230">
        <ele>1417.0</ele>
        <time>2020-09-29T12:01:56Z</time>
      </trkpt>
      <trkpt lat="41.0636480" lon="-3.4737230">
        <ele>1417.0</ele>
        <time>2020-09-29T12:01:57Z</time>
      </trkpt>
      <trkpt lat="41.0637000" lon="-3.4737420">
        <ele>1417.0</ele>
        <time>2020-09-29T12:01:58Z</time>
      </trkpt>
      <trkpt lat="41.0637000" lon="-3.4737420">
        <ele>1418.0</ele>
        <time>2020-09-29T12:01:59Z</time>
      </trkpt>
      <trkpt lat="41.0637520" lon="-3.4737600">
        <ele>1418.0</ele>
        <time>2020-09-29T12:02:00Z</time>
      </trkpt>
      <trkpt lat="41.0637780" lon="-3.4737670">
        <ele>1418.0</ele>
        <time>2020-09-29T12:02:01Z</time>
      </trkpt>
      <trkpt lat="41.0637780" lon="-3.4737670">
        <ele>1418.0</ele>
        <time>2020-09-29T12:02:02Z</time>
      </trkpt>
      <trkpt lat="41.0638320" lon="-3.4737830">
        <ele>1419.0</ele>
        <time>2020-09-29T12:02:03Z</time>
      </trkpt>
      <trkpt lat="41.0638320" lon="-3.4737830">
        <ele>1419.0</ele>
        <time>2020-09-29T12:02:04Z</time>
      </trkpt>
      <trkpt lat="41.0638830" lon="-3.4738000">
        <ele>1419.0</ele>
        <time>2020-09-29T12:02:05Z</time>
      </trkpt>
      <trkpt lat="41.0638830" lon="-3.4738000">
        <ele>1419.0</ele>
        <time>2020-09-29T12:02:06Z</time>
      </trkpt>
      <trkpt lat="41.0639370" lon="-3.4738130">
        <ele>1420.0</ele>
        <time>2020-09-29T12:02:07Z</time>
      </trkpt>
      <trkpt lat="41.0639370" lon="-3.4738130">
        <ele>1420.0</ele>
        <time>2020-09-29T12:02:08Z</time>
      </trkpt>
      <trkpt lat="41.0639900" lon="-3.4738270">
        <ele>1420.0</ele>
        <time>2020-09-29T12:02:09Z</time>
      </trkpt>
      <trkpt lat="41.0639900" lon="-3.4738270">
        <ele>1420.0</ele>
        <time>2020-09-29T12:02:10Z</time>
      </trkpt>
      <trkpt lat="41.0640430" lon="-3.4738400">
        <ele>1421.0</ele>
        <time>2020-09-29T12:02:11Z</time>
      </trkpt>
      <trkpt lat="41.0640430" lon="-3.4738400">
        <ele>1421.0</ele>
        <time>2020-09-29T12:02:12Z</time>
      </trkpt>
      <trkpt lat="41.0640970" lon="-3.4738480">
        <ele>1421.0</ele>
        <time>2020-09-29T12:02:13Z</time>
      </trkpt>
      <trkpt lat="41.0640970" lon="-3.4738480">
        <ele>1421.0</ele>
        <time>2020-09-29T12:02:14Z</time>
      </trkpt>
      <trkpt lat="41.0641500" lon="-3.4738580">
        <ele>1422.0</ele>
        <time>2020-09-29T12:02:15Z</time>
      </trkpt>
      <trkpt lat="41.0641750" lon="-3.4738650">
        <ele>1422.0</ele>
        <time>2020-09-29T12:02:16Z</time>
      </trkpt>
      <trkpt lat="41.0641750" lon="-3.4738650">
        <ele>1423.0</ele>
        <time>2020-09-29T12:02:17Z</time>
      </trkpt>
      <trkpt lat="41.0642280" lon="-3.4738770">
        <ele>1423.0</ele>
        <time>2020-09-29T12:02:18Z</time>
      </trkpt>
      <trkpt lat="41.0642550" lon="-3.4738820">
        <ele>1423.0</ele>
        <time>2020-09-29T12:02:19Z</time>
      </trkpt>
      <trkpt lat="41.0642550" lon="-3.4738820">
        <ele>1423.0</ele>
        <time>2020-09-29T12:02:20Z</time>
      </trkpt>
      <trkpt lat="41.0643080" lon="-3.4738880">
        <ele>1423.0</ele>
        <time>2020-09-29T12:02:21Z</time>
      </trkpt>
      <trkpt lat="41.0643080" lon="-3.4738880">
        <ele>1424.0</ele>
        <time>2020-09-29T12:02:22Z</time>
      </trkpt>
      <trkpt lat="41.0643620" lon="-3.4738900">
        <ele>1424.0</ele>
        <time>2020-09-29T12:02:23Z</time>
      </trkpt>
      <trkpt lat="41.0643620" lon="-3.4738900">
        <ele>1424.0</ele>
        <time>2020-09-29T12:02:24Z</time>
      </trkpt>
      <trkpt lat="41.0644150" lon="-3.4738970">
        <ele>1424.0</ele>
        <time>2020-09-29T12:02:25Z</time>
      </trkpt>
      <trkpt lat="41.0644150" lon="-3.4738970">
        <ele>1425.0</ele>
        <time>2020-09-29T12:02:26Z</time>
      </trkpt>
      <trkpt lat="41.0644680" lon="-3.4739020">
        <ele>1425.0</ele>
        <time>2020-09-29T12:02:27Z</time>
      </trkpt>
      <trkpt lat="41.0644950" lon="-3.4739050">
        <ele>1425.0</ele>
        <time>2020-09-29T12:02:28Z</time>
      </trkpt>
      <trkpt lat="41.0644950" lon="-3.4739050">
        <ele>1425.0</ele>
        <time>2020-09-29T12:02:29Z</time>
      </trkpt>
      <trkpt lat="41.0645480" lon="-3.4739180">
        <ele>1426.0</ele>
        <time>2020-09-29T12:02:30Z</time>
      </trkpt>
      <trkpt lat="41.0645750" lon="-3.4739230">
        <ele>1426.0</ele>
        <time>2020-09-29T12:02:31Z</time>
      </trkpt>
      <trkpt lat="41.0645750" lon="-3.4739230">
        <ele>1426.0</ele>
        <time>2020-09-29T12:02:32Z</time>
      </trkpt>
      <trkpt lat="41.0646300" lon="-3.4739280">
        <ele>1426.0</ele>
        <time>2020-09-29T12:02:33Z</time>
      </trkpt>
      <trkpt lat="41.0646300" lon="-3.4739280">
        <ele>1426.0</ele>
        <time>2020-09-29T12:02:34Z</time>
      </trkpt>
      <trkpt lat="41.0646850" lon="-3.4739400">
        <ele>1426.0</ele>
        <time>2020-09-29T12:02:35Z</time>
      </trkpt>
      <trkpt lat="41.0646850" lon="-3.4739400">
        <ele>1426.0</ele>
        <time>2020-09-29T12:02:36Z</time>
      </trkpt>
      <trkpt lat="41.0647400" lon="-3.4739470">
        <ele>1426.0</ele>
        <time>2020-09-29T12:02:37Z</time>
      </trkpt>
      <trkpt lat="41.0647400" lon="-3.4739470">
        <ele>1427.0</ele>
        <time>2020-09-29T12:02:38Z</time>
      </trkpt>
      <trkpt lat="41.0647980" lon="-3.4739500">
        <ele>1427.0</ele>
        <time>2020-09-29T12:02:39Z</time>
      </trkpt>
      <trkpt lat="41.0648230" lon="-3.4739450">
        <ele>1427.0</ele>
        <time>2020-09-29T12:02:40Z</time>
      </trkpt>
      <trkpt lat="41.0648230" lon="-3.4739450">
        <ele>1427.0</ele>
        <time>2020-09-29T12:02:41Z</time>
      </trkpt>
      <trkpt lat="41.0648830" lon="-3.4739300">
        <ele>1428.0</ele>
        <time>2020-09-29T12:02:42Z</time>
      </trkpt>
      <trkpt lat="41.0649130" lon="-3.4739220">
        <ele>1428.0</ele>
        <time>2020-09-29T12:02:43Z</time>
      </trkpt>
      <trkpt lat="41.0649130" lon="-3.4739220">
        <ele>1428.0</ele>
        <time>2020-09-29T12:02:44Z</time>
      </trkpt>
      <trkpt lat="41.0649730" lon="-3.4739070">
        <ele>1428.0</ele>
        <time>2020-09-29T12:02:45Z</time>
      </trkpt>
      <trkpt lat="41.0649730" lon="-3.4739070">
        <ele>1428.0</ele>
        <time>2020-09-29T12:02:46Z</time>
      </trkpt>
      <trkpt lat="41.0650280" lon="-3.4738950">
        <ele>1429.0</ele>
        <time>2020-09-29T12:02:47Z</time>
      </trkpt>
      <trkpt lat="41.0650280" lon="-3.4738950">
        <ele>1429.0</ele>
        <time>2020-09-29T12:02:48Z</time>
      </trkpt>
      <trkpt lat="41.0650920" lon="-3.4738930">
        <ele>1429.0</ele>
        <time>2020-09-29T12:02:49Z</time>
      </trkpt>
      <trkpt lat="41.0650920" lon="-3.4738930">
        <ele>1429.0</ele>
        <time>2020-09-29T12:02:50Z</time>
      </trkpt>
      <trkpt lat="41.0651520" lon="-3.4739000">
        <ele>1429.0</ele>
        <time>2020-09-29T12:02:51Z</time>
      </trkpt>
      <trkpt lat="41.0651520" lon="-3.4739000">
        <ele>1429.0</ele>
        <time>2020-09-29T12:02:52Z</time>
      </trkpt>
      <trkpt lat="41.0652070" lon="-3.4739130">
        <ele>1430.0</ele>
        <time>2020-09-29T12:02:53Z</time>
      </trkpt>
      <trkpt lat="41.0652070" lon="-3.4739130">
        <ele>1430.0</ele>
        <time>2020-09-29T12:02:54Z</time>
      </trkpt>
      <trkpt lat="41.0652600" lon="-3.4739300">
        <ele>1430.0</ele>
        <time>2020-09-29T12:02:55Z</time>
      </trkpt>
      <trkpt lat="41.0652600" lon="-3.4739300">
        <ele>1430.0</ele>
        <time>2020-09-29T12:02:56Z</time>
      </trkpt>
      <trkpt lat="41.0653180" lon="-3.4739500">
        <ele>1430.0</ele>
        <time>2020-09-29T12:02:57Z</time>
      </trkpt>
      <trkpt lat="41.0653480" lon="-3.4739620">
        <ele>1430.0</ele>
        <time>2020-09-29T12:02:58Z</time>
      </trkpt>
      <trkpt lat="41.0653480" lon="-3.4739620">
        <ele>1431.0</ele>
        <time>2020-09-29T12:02:59Z</time>
      </trkpt>
      <trkpt lat="41.0654080" lon="-3.4739850">
        <ele>1431.0</ele>
        <time>2020-09-29T12:03:00Z</time>
      </trkpt>
      <trkpt lat="41.0654350" lon="-3.4739980">
        <ele>1431.0</ele>
        <time>2020-09-29T12:03:01Z</time>
      </trkpt>
      <trkpt lat="41.0654350" lon="-3.4739980">
        <ele>1431.0</ele>
        <time>2020-09-29T12:03:02Z</time>
      </trkpt>
      <trkpt lat="41.0654880" lon="-3.4740280">
        <ele>1431.0</ele>
        <time>2020-09-29T12:03:03Z</time>
      </trkpt>
      <trkpt lat="41.0654880" lon="-3.4740280">
        <ele>1431.0</ele>
        <time>2020-09-29T12:03:04Z</time>
      </trkpt>
      <trkpt lat="41.0655380" lon="-3.4740500">
        <ele>1432.0</ele>
        <time>2020-09-29T12:03:05Z</time>
      </trkpt>
      <trkpt lat="41.0655380" lon="-3.4740500">
        <ele>1432.0</ele>
        <time>2020-09-29T12:03:06Z</time>
      </trkpt>
      <trkpt lat="41.0655900" lon="-3.4740630">
        <ele>1432.0</ele>
        <time>2020-09-29T12:03:07Z</time>
      </trkpt>
      <trkpt lat="41.0655900" lon="-3.4740630">
        <ele>1432.0</ele>
        <time>2020-09-29T12:03:08Z</time>
      </trkpt>
      <trkpt lat="41.0656400" lon="-3.4740830">
        <ele>1432.0</ele>
        <time>2020-09-29T12:03:09Z</time>
      </trkpt>
      <trkpt lat="41.0656400" lon="-3.4740830">
        <ele>1432.0</ele>
        <time>2020-09-29T12:03:10Z</time>
      </trkpt>
      <trkpt lat="41.0656900" lon="-3.4741080">
        <ele>1432.0</ele>
        <time>2020-09-29T12:03:11Z</time>
      </trkpt>
      <trkpt lat="41.0657150" lon="-3.4741200">
        <ele>1432.0</ele>
        <time>2020-09-29T12:03:12Z</time>
      </trkpt>
      <trkpt lat="41.0657400" lon="-3.4741320">
        <ele>1433.0</ele>
        <time>2020-09-29T12:03:13Z</time>
      </trkpt>
      <trkpt lat="41.0657400" lon="-3.4741320">
        <ele>1433.0</ele>
        <time>2020-09-29T12:03:14Z</time>
      </trkpt>
      <trkpt lat="41.0657920" lon="-3.4741550">
        <ele>1433.0</ele>
        <time>2020-09-29T12:03:15Z</time>
      </trkpt>
      <trkpt lat="41.0658180" lon="-3.4741650">
        <ele>1433.0</ele>
        <time>2020-09-29T12:03:16Z</time>
      </trkpt>
      <trkpt lat="41.0658180" lon="-3.4741650">
        <ele>1433.0</ele>
        <time>2020-09-29T12:03:17Z</time>
      </trkpt>
      <trkpt lat="41.0658720" lon="-3.4741880">
        <ele>1435.0</ele>
        <time>2020-09-29T12:03:18Z</time>
      </trkpt>
      <trkpt lat="41.0658970" lon="-3.4741980">
        <ele>1435.0</ele>
        <time>2020-09-29T12:03:19Z</time>
      </trkpt>
      <trkpt lat="41.0658970" lon="-3.4741980">
        <ele>1435.0</ele>
        <time>2020-09-29T12:03:20Z</time>
      </trkpt>
      <trkpt lat="41.0659480" lon="-3.4742150">
        <ele>1435.0</ele>
        <time>2020-09-29T12:03:21Z</time>
      </trkpt>
      <trkpt lat="41.0659480" lon="-3.4742150">
        <ele>1435.0</ele>
        <time>2020-09-29T12:03:22Z</time>
      </trkpt>
      <trkpt lat="41.0660020" lon="-3.4742350">
        <ele>1435.0</ele>
        <time>2020-09-29T12:03:23Z</time>
      </trkpt>
      <trkpt lat="41.0660300" lon="-3.4742430">
        <ele>1435.0</ele>
        <time>2020-09-29T12:03:24Z</time>
      </trkpt>
      <trkpt lat="41.0660550" lon="-3.4742530">
        <ele>1436.0</ele>
        <time>2020-09-29T12:03:25Z</time>
      </trkpt>
      <trkpt lat="41.0660550" lon="-3.4742530">
        <ele>1436.0</ele>
        <time>2020-09-29T12:03:26Z</time>
      </trkpt>
      <trkpt lat="41.0661070" lon="-3.4742820">
        <ele>1436.0</ele>
        <time>2020-09-29T12:03:27Z</time>
      </trkpt>
      <trkpt lat="41.0661070" lon="-3.4742820">
        <ele>1436.0</ele>
        <time>2020-09-29T12:03:28Z</time>
      </trkpt>
      <trkpt lat="41.0661580" lon="-3.4742980">
        <ele>1436.0</ele>
        <time>2020-09-29T12:03:29Z</time>
      </trkpt>
      <trkpt lat="41.0661850" lon="-3.4743030">
        <ele>1436.0</ele>
        <time>2020-09-29T12:03:30Z</time>
      </trkpt>
      <trkpt lat="41.0662150" lon="-3.4743100">
        <ele>1436.0</ele>
        <time>2020-09-29T12:03:31Z</time>
      </trkpt>
      <trkpt lat="41.0662150" lon="-3.4743100">
        <ele>1436.0</ele>
        <time>2020-09-29T12:03:32Z</time>
      </trkpt>
      <trkpt lat="41.0662700" lon="-3.4743220">
        <ele>1438.0</ele>
        <time>2020-09-29T12:03:33Z</time>
      </trkpt>
      <trkpt lat="41.0662700" lon="-3.4743220">
        <ele>1438.0</ele>
        <time>2020-09-29T12:03:34Z</time>
      </trkpt>
      <trkpt lat="41.0663230" lon="-3.4743280">
        <ele>1438.0</ele>
        <time>2020-09-29T12:03:35Z</time>
      </trkpt>
      <trkpt lat="41.0663230" lon="-3.4743280">
        <ele>1438.0</ele>
        <time>2020-09-29T12:03:36Z</time>
      </trkpt>
      <trkpt lat="41.0663770" lon="-3.4743320">
        <ele>1438.0</ele>
        <time>2020-09-29T12:03:37Z</time>
      </trkpt>
      <trkpt lat="41.0663770" lon="-3.4743320">
        <ele>1438.0</ele>
        <time>2020-09-29T12:03:38Z</time>
      </trkpt>
      <trkpt lat="41.0664300" lon="-3.4743380">
        <ele>1438.0</ele>
        <time>2020-09-29T12:03:39Z</time>
      </trkpt>
      <trkpt lat="41.0664300" lon="-3.4743380">
        <ele>1439.0</ele>
        <time>2020-09-29T12:03:40Z</time>
      </trkpt>
      <trkpt lat="41.0664820" lon="-3.4743450">
        <ele>1439.0</ele>
        <time>2020-09-29T12:03:41Z</time>
      </trkpt>
      <trkpt lat="41.0664820" lon="-3.4743450">
        <ele>1439.0</ele>
        <time>2020-09-29T12:03:42Z</time>
      </trkpt>
      <trkpt lat="41.0665330" lon="-3.4743420">
        <ele>1439.0</ele>
        <time>2020-09-29T12:03:43Z</time>
      </trkpt>
      <trkpt lat="41.0665330" lon="-3.4743420">
        <ele>1440.0</ele>
        <time>2020-09-29T12:03:44Z</time>
      </trkpt>
      <trkpt lat="41.0665880" lon="-3.4743420">
        <ele>1440.0</ele>
        <time>2020-09-29T12:03:45Z</time>
      </trkpt>
      <trkpt lat="41.0666170" lon="-3.4743430">
        <ele>1440.0</ele>
        <time>2020-09-29T12:03:46Z</time>
      </trkpt>
      <trkpt lat="41.0666170" lon="-3.4743430">
        <ele>1440.0</ele>
        <time>2020-09-29T12:03:47Z</time>
      </trkpt>
      <trkpt lat="41.0666720" lon="-3.4743430">
        <ele>1441.0</ele>
        <time>2020-09-29T12:03:48Z</time>
      </trkpt>
      <trkpt lat="41.0666980" lon="-3.4743420">
        <ele>1441.0</ele>
        <time>2020-09-29T12:03:49Z</time>
      </trkpt>
      <trkpt lat="41.0666980" lon="-3.4743420">
        <ele>1442.0</ele>
        <time>2020-09-29T12:03:50Z</time>
      </trkpt>
      <trkpt lat="41.0667530" lon="-3.4743430">
        <ele>1442.0</ele>
        <time>2020-09-29T12:03:51Z</time>
      </trkpt>
      <trkpt lat="41.0667530" lon="-3.4743430">
        <ele>1442.0</ele>
        <time>2020-09-29T12:03:52Z</time>
      </trkpt>
      <trkpt lat="41.0668050" lon="-3.4743450">
        <ele>1442.0</ele>
        <time>2020-09-29T12:03:53Z</time>
      </trkpt>
      <trkpt lat="41.0668050" lon="-3.4743450">
        <ele>1443.0</ele>
        <time>2020-09-29T12:03:54Z</time>
      </trkpt>
      <trkpt lat="41.0668580" lon="-3.4743470">
        <ele>1443.0</ele>
        <time>2020-09-29T12:03:55Z</time>
      </trkpt>
      <trkpt lat="41.0668580" lon="-3.4743470">
        <ele>1443.0</ele>
        <time>2020-09-29T12:03:56Z</time>
      </trkpt>
      <trkpt lat="41.0669130" lon="-3.4743430">
        <ele>1443.0</ele>
        <time>2020-09-29T12:03:57Z</time>
      </trkpt>
      <trkpt lat="41.0669130" lon="-3.4743430">
        <ele>1443.0</ele>
        <time>2020-09-29T12:03:58Z</time>
      </trkpt>
      <trkpt lat="41.0669670" lon="-3.4743450">
        <ele>1443.0</ele>
        <time>2020-09-29T12:03:59Z</time>
      </trkpt>
      <trkpt lat="41.0669920" lon="-3.4743450">
        <ele>1443.0</ele>
        <time>2020-09-29T12:04:00Z</time>
      </trkpt>
      <trkpt lat="41.0670180" lon="-3.4743480">
        <ele>1443.0</ele>
        <time>2020-09-29T12:04:01Z</time>
      </trkpt>
      <trkpt lat="41.0670180" lon="-3.4743480">
        <ele>1444.0</ele>
        <time>2020-09-29T12:04:02Z</time>
      </trkpt>
      <trkpt lat="41.0670720" lon="-3.4743500">
        <ele>1444.0</ele>
        <time>2020-09-29T12:04:03Z</time>
      </trkpt>
      <trkpt lat="41.0670970" lon="-3.4743470">
        <ele>1444.0</ele>
        <time>2020-09-29T12:04:04Z</time>
      </trkpt>
      <trkpt lat="41.0671220" lon="-3.4743450">
        <ele>1446.0</ele>
        <time>2020-09-29T12:04:05Z</time>
      </trkpt>
      <trkpt lat="41.0671220" lon="-3.4743450">
        <ele>1446.0</ele>
        <time>2020-09-29T12:04:06Z</time>
      </trkpt>
      <trkpt lat="41.0671730" lon="-3.4743480">
        <ele>1446.0</ele>
        <time>2020-09-29T12:04:07Z</time>
      </trkpt>
      <trkpt lat="41.0671730" lon="-3.4743480">
        <ele>1446.0</ele>
        <time>2020-09-29T12:04:08Z</time>
      </trkpt>
      <trkpt lat="41.0672270" lon="-3.4743480">
        <ele>1446.0</ele>
        <time>2020-09-29T12:04:09Z</time>
      </trkpt>
      <trkpt lat="41.0672270" lon="-3.4743480">
        <ele>1446.0</ele>
        <time>2020-09-29T12:04:10Z</time>
      </trkpt>
      <trkpt lat="41.0672780" lon="-3.4743480">
        <ele>1446.0</ele>
        <time>2020-09-29T12:04:11Z</time>
      </trkpt>
      <trkpt lat="41.0672780" lon="-3.4743480">
        <ele>1446.0</ele>
        <time>2020-09-29T12:04:12Z</time>
      </trkpt>
      <trkpt lat="41.0673230" lon="-3.4743600">
        <ele>1447.0</ele>
        <time>2020-09-29T12:04:13Z</time>
      </trkpt>
      <trkpt lat="41.0673230" lon="-3.4743600">
        <ele>1447.0</ele>
        <time>2020-09-29T12:04:14Z</time>
      </trkpt>
      <trkpt lat="41.0673520" lon="-3.4743830">
        <ele>1447.0</ele>
        <time>2020-09-29T12:04:15Z</time>
      </trkpt>
      <trkpt lat="41.0673580" lon="-3.4743900">
        <ele>1447.0</ele>
        <time>2020-09-29T12:04:16Z</time>
      </trkpt>
      <trkpt lat="41.0673580" lon="-3.4743900">
        <ele>1447.0</ele>
        <time>2020-09-29T12:04:17Z</time>
      </trkpt>
      <trkpt lat="41.0673670" lon="-3.4743980">
        <ele>1447.0</ele>
        <time>2020-09-29T12:04:18Z</time>
      </trkpt>
      <trkpt lat="41.0673700" lon="-3.4743970">
        <ele>1448.0</ele>
        <time>2020-09-29T12:04:19Z</time>
      </trkpt>
      <trkpt lat="41.0673800" lon="-3.4743250">
        <ele>1448.0</ele>
        <time>2020-09-29T12:06:55Z</time>
      </trkpt>
      <trkpt lat="41.0673800" lon="-3.4743250">
        <ele>1448.0</ele>
        <time>2020-09-29T12:06:56Z</time>
      </trkpt>
      <trkpt lat="41.0674130" lon="-3.4743120">
        <ele>1448.0</ele>
        <time>2020-09-29T12:06:57Z</time>
      </trkpt>
      <trkpt lat="41.0674130" lon="-3.4743120">
        <ele>1448.0</ele>
        <time>2020-09-29T12:06:58Z</time>
      </trkpt>
      <trkpt lat="41.0674600" lon="-3.4742970">
        <ele>1448.0</ele>
        <time>2020-09-29T12:06:59Z</time>
      </trkpt>
      <trkpt lat="41.0674600" lon="-3.4742970">
        <ele>1448.0</ele>
        <time>2020-09-29T12:07:00Z</time>
      </trkpt>
      <trkpt lat="41.0675120" lon="-3.4742700">
        <ele>1448.0</ele>
        <time>2020-09-29T12:07:01Z</time>
      </trkpt>
      <trkpt lat="41.0675120" lon="-3.4742700">
        <ele>1448.0</ele>
        <time>2020-09-29T12:07:02Z</time>
      </trkpt>
      <trkpt lat="41.0675630" lon="-3.4742270">
        <ele>1448.0</ele>
        <time>2020-09-29T12:07:03Z</time>
      </trkpt>
      <trkpt lat="41.0675630" lon="-3.4742270">
        <ele>1448.0</ele>
        <time>2020-09-29T12:07:04Z</time>
      </trkpt>
      <trkpt lat="41.0676150" lon="-3.4741680">
        <ele>1448.0</ele>
        <time>2020-09-29T12:07:05Z</time>
      </trkpt>
      <trkpt lat="41.0676150" lon="-3.4741680">
        <ele>1448.0</ele>
        <time>2020-09-29T12:07:06Z</time>
      </trkpt>
      <trkpt lat="41.0676720" lon="-3.4741050">
        <ele>1448.0</ele>
        <time>2020-09-29T12:07:07Z</time>
      </trkpt>
      <trkpt lat="41.0676720" lon="-3.4741050">
        <ele>1448.0</ele>
        <time>2020-09-29T12:07:08Z</time>
      </trkpt>
      <trkpt lat="41.0677430" lon="-3.4740480">
        <ele>1448.0</ele>
        <time>2020-09-29T12:07:09Z</time>
      </trkpt>
      <trkpt lat="41.0677430" lon="-3.4740480">
        <ele>1448.0</ele>
        <time>2020-09-29T12:07:10Z</time>
      </trkpt>
      <trkpt lat="41.0678170" lon="-3.4740130">
        <ele>1448.0</ele>
        <time>2020-09-29T12:07:11Z</time>
      </trkpt>
      <trkpt lat="41.0678170" lon="-3.4740130">
        <ele>1447.0</ele>
        <time>2020-09-29T12:07:12Z</time>
      </trkpt>
      <trkpt lat="41.0678170" lon="-3.4740130">
        <ele>1447.0</ele>
        <time>2020-09-29T12:07:13Z</time>
      </trkpt>
      <trkpt lat="41.0678670" lon="-3.4739930">
        <ele>1447.0</ele>
        <time>2020-09-29T12:07:14Z</time>
      </trkpt>
      <trkpt lat="41.0678920" lon="-3.4739900">
        <ele>1447.0</ele>
        <time>2020-09-29T12:07:15Z</time>
      </trkpt>
      <trkpt lat="41.0678930" lon="-3.4739920">
        <ele>1447.0</ele>
        <time>2020-09-29T12:07:16Z</time>
      </trkpt>
      <trkpt lat="41.0678930" lon="-3.4739920">
        <ele>1447.0</ele>
        <time>2020-09-29T12:07:17Z</time>
      </trkpt>
      <trkpt lat="41.0678930" lon="-3.4739950">
        <ele>1446.0</ele>
        <time>2020-09-29T12:07:18Z</time>
      </trkpt>
      <trkpt lat="41.0678930" lon="-3.4739950">
        <ele>1446.0</ele>
        <time>2020-09-29T12:09:52Z</time>
      </trkpt>
      <trkpt lat="41.0679970" lon="-3.4740330">
        <ele>1446.0</ele>
        <time>2020-09-29T12:09:53Z</time>
      </trkpt>
      <trkpt lat="41.0680470" lon="-3.4740420">
        <ele>1446.0</ele>
        <time>2020-09-29T12:09:54Z</time>
      </trkpt>
      <trkpt lat="41.0681030" lon="-3.4740600">
        <ele>1445.0</ele>
        <time>2020-09-29T12:09:55Z</time>
      </trkpt>
      <trkpt lat="41.0681030" lon="-3.4740600">
        <ele>1445.0</ele>
        <time>2020-09-29T12:09:56Z</time>
      </trkpt>
      <trkpt lat="41.0682300" lon="-3.4741270">
        <ele>1443.0</ele>
        <time>2020-09-29T12:09:57Z</time>
      </trkpt>
      <trkpt lat="41.0683000" lon="-3.4741680">
        <ele>1443.0</ele>
        <time>2020-09-29T12:09:58Z</time>
      </trkpt>
      <trkpt lat="41.0683000" lon="-3.4741680">
        <ele>1442.0</ele>
        <time>2020-09-29T12:09:59Z</time>
      </trkpt>
      <trkpt lat="41.0684520" lon="-3.4742570">
        <ele>1442.0</ele>
        <time>2020-09-29T12:10:00Z</time>
      </trkpt>
      <trkpt lat="41.0685350" lon="-3.4743020">
        <ele>1441.0</ele>
        <time>2020-09-29T12:10:01Z</time>
      </trkpt>
      <trkpt lat="41.0685350" lon="-3.4743020">
        <ele>1441.0</ele>
        <time>2020-09-29T12:10:02Z</time>
      </trkpt>
      <trkpt lat="41.0687100" lon="-3.4743750">
        <ele>1441.0</ele>
        <time>2020-09-29T12:10:03Z</time>
      </trkpt>
      <trkpt lat="41.0688000" lon="-3.4744080">
        <ele>1441.0</ele>
        <time>2020-09-29T12:10:04Z</time>
      </trkpt>
      <trkpt lat="41.0688000" lon="-3.4744080">
        <ele>1439.0</ele>
        <time>2020-09-29T12:10:05Z</time>
      </trkpt>
      <trkpt lat="41.0689870" lon="-3.4744880">
        <ele>1439.0</ele>
        <time>2020-09-29T12:10:06Z</time>
      </trkpt>
      <trkpt lat="41.0690780" lon="-3.4745380">
        <ele>1438.0</ele>
        <time>2020-09-29T12:10:07Z</time>
      </trkpt>
      <trkpt lat="41.0690780" lon="-3.4745380">
        <ele>1438.0</ele>
        <time>2020-09-29T12:10:08Z</time>
      </trkpt>
      <trkpt lat="41.0692530" lon="-3.4746620">
        <ele>1436.0</ele>
        <time>2020-09-29T12:10:09Z</time>
      </trkpt>
      <trkpt lat="41.0692530" lon="-3.4746620">
        <ele>1436.0</ele>
        <time>2020-09-29T12:10:10Z</time>
      </trkpt>
      <trkpt lat="41.0694300" lon="-3.4747720">
        <ele>1435.0</ele>
        <time>2020-09-29T12:10:11Z</time>
      </trkpt>
      <trkpt lat="41.0694300" lon="-3.4747720">
        <ele>1435.0</ele>
        <time>2020-09-29T12:10:12Z</time>
      </trkpt>
      <trkpt lat="41.0696250" lon="-3.4748450">
        <ele>1434.0</ele>
        <time>2020-09-29T12:10:13Z</time>
      </trkpt>
      <trkpt lat="41.0696250" lon="-3.4748450">
        <ele>1434.0</ele>
        <time>2020-09-29T12:10:14Z</time>
      </trkpt>
      <trkpt lat="41.0698200" lon="-3.4748830">
        <ele>1433.0</ele>
        <time>2020-09-29T12:10:15Z</time>
      </trkpt>
      <trkpt lat="41.0698200" lon="-3.4748830">
        <ele>1433.0</ele>
        <time>2020-09-29T12:10:16Z</time>
      </trkpt>
      <trkpt lat="41.0700120" lon="-3.4748230">
        <ele>1432.0</ele>
        <time>2020-09-29T12:10:17Z</time>
      </trkpt>
      <trkpt lat="41.0701000" lon="-3.4747480">
        <ele>1432.0</ele>
        <time>2020-09-29T12:10:18Z</time>
      </trkpt>
      <trkpt lat="41.0701800" lon="-3.4746500">
        <ele>1431.0</ele>
        <time>2020-09-29T12:10:19Z</time>
      </trkpt>
      <trkpt lat="41.0701800" lon="-3.4746500">
        <ele>1431.0</ele>
        <time>2020-09-29T12:10:20Z</time>
      </trkpt>
      <trkpt lat="41.0703270" lon="-3.4744180">
        <ele>1430.0</ele>
        <time>2020-09-29T12:10:21Z</time>
      </trkpt>
      <trkpt lat="41.0703880" lon="-3.4742850">
        <ele>1430.0</ele>
        <time>2020-09-29T12:10:22Z</time>
      </trkpt>
      <trkpt lat="41.0703880" lon="-3.4742850">
        <ele>1428.0</ele>
        <time>2020-09-29T12:10:23Z</time>
      </trkpt>
      <trkpt lat="41.0705050" lon="-3.4740150">
        <ele>1426.0</ele>
        <time>2020-09-29T12:10:24Z</time>
      </trkpt>
      <trkpt lat="41.0705050" lon="-3.4740150">
        <ele>1426.0</ele>
        <time>2020-09-29T12:10:25Z</time>
      </trkpt>
      <trkpt lat="41.0706500" lon="-3.4737720">
        <ele>1424.0</ele>
        <time>2020-09-29T12:10:26Z</time>
      </trkpt>
      <trkpt lat="41.0706500" lon="-3.4737720">
        <ele>1424.0</ele>
        <time>2020-09-29T12:10:27Z</time>
      </trkpt>
      <trkpt lat="41.0708300" lon="-3.4735530">
        <ele>1424.0</ele>
        <time>2020-09-29T12:10:28Z</time>
      </trkpt>
      <trkpt lat="41.0708300" lon="-3.4735530">
        <ele>1422.0</ele>
        <time>2020-09-29T12:10:29Z</time>
      </trkpt>
      <trkpt lat="41.0710180" lon="-3.4733300">
        <ele>1422.0</ele>
        <time>2020-09-29T12:10:30Z</time>
      </trkpt>
      <trkpt lat="41.0710180" lon="-3.4733300">
        <ele>1420.0</ele>
        <time>2020-09-29T12:10:31Z</time>
      </trkpt>
      <trkpt lat="41.0712270" lon="-3.4731220">
        <ele>1420.0</ele>
        <time>2020-09-29T12:10:32Z</time>
      </trkpt>
      <trkpt lat="41.0712270" lon="-3.4731220">
        <ele>1418.0</ele>
        <time>2020-09-29T12:10:33Z</time>
      </trkpt>
      <trkpt lat="41.0714470" lon="-3.4729170">
        <ele>1418.0</ele>
        <time>2020-09-29T12:10:34Z</time>
      </trkpt>
      <trkpt lat="41.0714470" lon="-3.4729170">
        <ele>1416.0</ele>
        <time>2020-09-29T12:10:35Z</time>
      </trkpt>
      <trkpt lat="41.0716880" lon="-3.4727500">
        <ele>1416.0</ele>
        <time>2020-09-29T12:10:36Z</time>
      </trkpt>
      <trkpt lat="41.0718150" lon="-3.4726830">
        <ele>1414.0</ele>
        <time>2020-09-29T12:10:37Z</time>
      </trkpt>
      <trkpt lat="41.0718150" lon="-3.4726830">
        <ele>1414.0</ele>
        <time>2020-09-29T12:10:38Z</time>
      </trkpt>
      <trkpt lat="41.0720700" lon="-3.4725480">
        <ele>1412.0</ele>
        <time>2020-09-29T12:10:39Z</time>
      </trkpt>
      <trkpt lat="41.0721950" lon="-3.4724670">
        <ele>1412.0</ele>
        <time>2020-09-29T12:10:40Z</time>
      </trkpt>
      <trkpt lat="41.0721950" lon="-3.4724670">
        <ele>1411.0</ele>
        <time>2020-09-29T12:10:41Z</time>
      </trkpt>
      <trkpt lat="41.0724350" lon="-3.4722800">
        <ele>1411.0</ele>
        <time>2020-09-29T12:10:42Z</time>
      </trkpt>
      <trkpt lat="41.0725500" lon="-3.4721830">
        <ele>1409.0</ele>
        <time>2020-09-29T12:10:43Z</time>
      </trkpt>
      <trkpt lat="41.0725500" lon="-3.4721830">
        <ele>1409.0</ele>
        <time>2020-09-29T12:10:44Z</time>
      </trkpt>
      <trkpt lat="41.0727520" lon="-3.4719620">
        <ele>1407.0</ele>
        <time>2020-09-29T12:10:45Z</time>
      </trkpt>
      <trkpt lat="41.0727520" lon="-3.4719620">
        <ele>1407.0</ele>
        <time>2020-09-29T12:10:46Z</time>
      </trkpt>
      <trkpt lat="41.0729070" lon="-3.4716730">
        <ele>1404.0</ele>
        <time>2020-09-29T12:10:47Z</time>
      </trkpt>
      <trkpt lat="41.0729070" lon="-3.4716730">
        <ele>1404.0</ele>
        <time>2020-09-29T12:10:48Z</time>
      </trkpt>
      <trkpt lat="41.0730280" lon="-3.4713430">
        <ele>1402.0</ele>
        <time>2020-09-29T12:10:49Z</time>
      </trkpt>
      <trkpt lat="41.0730280" lon="-3.4713430">
        <ele>1402.0</ele>
        <time>2020-09-29T12:10:50Z</time>
      </trkpt>
      <trkpt lat="41.0731180" lon="-3.4709920">
        <ele>1399.0</ele>
        <time>2020-09-29T12:10:51Z</time>
      </trkpt>
      <trkpt lat="41.0731180" lon="-3.4709920">
        <ele>1399.0</ele>
        <time>2020-09-29T12:10:52Z</time>
      </trkpt>
      <trkpt lat="41.0731700" lon="-3.4706220">
        <ele>1397.0</ele>
        <time>2020-09-29T12:10:53Z</time>
      </trkpt>
      <trkpt lat="41.0731700" lon="-3.4706220">
        <ele>1397.0</ele>
        <time>2020-09-29T12:10:54Z</time>
      </trkpt>
      <trkpt lat="41.0731920" lon="-3.4702330">
        <ele>1395.0</ele>
        <time>2020-09-29T12:10:55Z</time>
      </trkpt>
      <trkpt lat="41.0731920" lon="-3.4702330">
        <ele>1395.0</ele>
        <time>2020-09-29T12:10:56Z</time>
      </trkpt>
      <trkpt lat="41.0732150" lon="-3.4698550">
        <ele>1393.0</ele>
        <time>2020-09-29T12:10:57Z</time>
      </trkpt>
      <trkpt lat="41.0732330" lon="-3.4696750">
        <ele>1393.0</ele>
        <time>2020-09-29T12:10:58Z</time>
      </trkpt>
      <trkpt lat="41.0732330" lon="-3.4696750">
        <ele>1390.0</ele>
        <time>2020-09-29T12:10:59Z</time>
      </trkpt>
      <trkpt lat="41.0732830" lon="-3.4693500">
        <ele>1388.0</ele>
        <time>2020-09-29T12:11:00Z</time>
      </trkpt>
      <trkpt lat="41.0733150" lon="-3.4692080">
        <ele>1388.0</ele>
        <time>2020-09-29T12:11:01Z</time>
      </trkpt>
      <trkpt lat="41.0733150" lon="-3.4692080">
        <ele>1385.0</ele>
        <time>2020-09-29T12:11:02Z</time>
      </trkpt>
      <trkpt lat="41.0734250" lon="-3.4689620">
        <ele>1385.0</ele>
        <time>2020-09-29T12:11:03Z</time>
      </trkpt>
      <trkpt lat="41.0734250" lon="-3.4689620">
        <ele>1385.0</ele>
        <time>2020-09-29T12:11:04Z</time>
      </trkpt>
      <trkpt lat="41.0735780" lon="-3.4687270">
        <ele>1384.0</ele>
        <time>2020-09-29T12:11:05Z</time>
      </trkpt>
      <trkpt lat="41.0735780" lon="-3.4687270">
        <ele>1384.0</ele>
        <time>2020-09-29T12:11:06Z</time>
      </trkpt>
      <trkpt lat="41.0737100" lon="-3.4684980">
        <ele>1382.0</ele>
        <time>2020-09-29T12:11:07Z</time>
      </trkpt>
      <trkpt lat="41.0737100" lon="-3.4684980">
        <ele>1382.0</ele>
        <time>2020-09-29T12:11:08Z</time>
      </trkpt>
      <trkpt lat="41.0738180" lon="-3.4683150">
        <ele>1380.0</ele>
        <time>2020-09-29T12:11:09Z</time>
      </trkpt>
      <trkpt lat="41.0738180" lon="-3.4683150">
        <ele>1380.0</ele>
        <time>2020-09-29T12:11:10Z</time>
      </trkpt>
      <trkpt lat="41.0738680" lon="-3.4681550">
        <ele>1378.0</ele>
        <time>2020-09-29T12:11:11Z</time>
      </trkpt>
      <trkpt lat="41.0738680" lon="-3.4681550">
        <ele>1378.0</ele>
        <time>2020-09-29T12:11:12Z</time>
      </trkpt>
      <trkpt lat="41.0738500" lon="-3.4680200">
        <ele>1378.0</ele>
        <time>2020-09-29T12:11:13Z</time>
      </trkpt>
      <trkpt lat="41.0738500" lon="-3.4680200">
        <ele>1378.0</ele>
        <time>2020-09-29T12:11:14Z</time>
      </trkpt>
      <trkpt lat="41.0737580" lon="-3.4679850">
        <ele>1378.0</ele>
        <time>2020-09-29T12:11:15Z</time>
      </trkpt>
      <trkpt lat="41.0737580" lon="-3.4679850">
        <ele>1378.0</ele>
        <time>2020-09-29T12:11:16Z</time>
      </trkpt>
      <trkpt lat="41.0736580" lon="-3.4680700">
        <ele>1376.0</ele>
        <time>2020-09-29T12:11:17Z</time>
      </trkpt>
      <trkpt lat="41.0736150" lon="-3.4681350">
        <ele>1376.0</ele>
        <time>2020-09-29T12:11:18Z</time>
      </trkpt>
      <trkpt lat="41.0736150" lon="-3.4681350">
        <ele>1376.0</ele>
        <time>2020-09-29T12:11:19Z</time>
      </trkpt>
      <trkpt lat="41.0735420" lon="-3.4682850">
        <ele>1376.0</ele>
        <time>2020-09-29T12:11:20Z</time>
      </trkpt>
      <trkpt lat="41.0735030" lon="-3.4683580">
        <ele>1375.0</ele>
        <time>2020-09-29T12:11:21Z</time>
      </trkpt>
      <trkpt lat="41.0735030" lon="-3.4683580">
        <ele>1375.0</ele>
        <time>2020-09-29T12:11:22Z</time>
      </trkpt>
      <trkpt lat="41.0734200" lon="-3.4685020">
        <ele>1375.0</ele>
        <time>2020-09-29T12:11:23Z</time>
      </trkpt>
      <trkpt lat="41.0733800" lon="-3.4685730">
        <ele>1375.0</ele>
        <time>2020-09-29T12:11:24Z</time>
      </trkpt>
      <trkpt lat="41.0733380" lon="-3.4686420">
        <ele>1375.0</ele>
        <time>2020-09-29T12:11:25Z</time>
      </trkpt>
      <trkpt lat="41.0733380" lon="-3.4686420">
        <ele>1375.0</ele>
        <time>2020-09-29T12:11:26Z</time>
      </trkpt>
      <trkpt lat="41.0732600" lon="-3.4687820">
        <ele>1374.0</ele>
        <time>2020-09-29T12:11:27Z</time>
      </trkpt>
      <trkpt lat="41.0732600" lon="-3.4687820">
        <ele>1374.0</ele>
        <time>2020-09-29T12:11:28Z</time>
      </trkpt>
      <trkpt lat="41.0731820" lon="-3.4689200">
        <ele>1374.0</ele>
        <time>2020-09-29T12:11:29Z</time>
      </trkpt>
      <trkpt lat="41.0731380" lon="-3.4689850">
        <ele>1374.0</ele>
        <time>2020-09-29T12:11:30Z</time>
      </trkpt>
      <trkpt lat="41.0730900" lon="-3.4690370">
        <ele>1373.0</ele>
        <time>2020-09-29T12:11:31Z</time>
      </trkpt>
      <trkpt lat="41.0730900" lon="-3.4690370">
        <ele>1373.0</ele>
        <time>2020-09-29T12:11:32Z</time>
      </trkpt>
      <trkpt lat="41.0729680" lon="-3.4690520">
        <ele>1373.0</ele>
        <time>2020-09-29T12:11:33Z</time>
      </trkpt>
      <trkpt lat="41.0729680" lon="-3.4690520">
        <ele>1373.0</ele>
        <time>2020-09-29T12:11:34Z</time>
      </trkpt>
      <trkpt lat="41.0728880" lon="-3.4689120">
        <ele>1372.0</ele>
        <time>2020-09-29T12:11:35Z</time>
      </trkpt>
      <trkpt lat="41.0728880" lon="-3.4689120">
        <ele>1372.0</ele>
        <time>2020-09-29T12:11:36Z</time>
      </trkpt>
      <trkpt lat="41.0729400" lon="-3.4687030">
        <ele>1371.0</ele>
        <time>2020-09-29T12:11:37Z</time>
      </trkpt>
      <trkpt lat="41.0729400" lon="-3.4687030">
        <ele>1370.0</ele>
        <time>2020-09-29T12:11:38Z</time>
      </trkpt>
      <trkpt lat="41.0730520" lon="-3.4685100">
        <ele>1370.0</ele>
        <time>2020-09-29T12:11:39Z</time>
      </trkpt>
      <trkpt lat="41.0730520" lon="-3.4685100">
        <ele>1369.0</ele>
        <time>2020-09-29T12:11:40Z</time>
      </trkpt>
      <trkpt lat="41.0731420" lon="-3.4682770">
        <ele>1369.0</ele>
        <time>2020-09-29T12:11:41Z</time>
      </trkpt>
      <trkpt lat="41.0731420" lon="-3.4682770">
        <ele>1367.0</ele>
        <time>2020-09-29T12:11:42Z</time>
      </trkpt>
      <trkpt lat="41.0731600" lon="-3.4679970">
        <ele>1367.0</ele>
        <time>2020-09-29T12:11:43Z</time>
      </trkpt>
      <trkpt lat="41.0731600" lon="-3.4679970">
        <ele>1366.0</ele>
        <time>2020-09-29T12:11:44Z</time>
      </trkpt>
      <trkpt lat="41.0731200" lon="-3.4677080">
        <ele>1366.0</ele>
        <time>2020-09-29T12:11:45Z</time>
      </trkpt>
      <trkpt lat="41.0731200" lon="-3.4677080">
        <ele>1365.0</ele>
        <time>2020-09-29T12:11:46Z</time>
      </trkpt>
      <trkpt lat="41.0730320" lon="-3.4674270">
        <ele>1365.0</ele>
        <time>2020-09-29T12:11:47Z</time>
      </trkpt>
      <trkpt lat="41.0730320" lon="-3.4674270">
        <ele>1364.0</ele>
        <time>2020-09-29T12:11:48Z</time>
      </trkpt>
      <trkpt lat="41.0729080" lon="-3.4671620">
        <ele>1364.0</ele>
        <time>2020-09-29T12:11:49Z</time>
      </trkpt>
      <trkpt lat="41.0729080" lon="-3.4671620">
        <ele>1362.0</ele>
        <time>2020-09-29T12:11:50Z</time>
      </trkpt>
      <trkpt lat="41.0727820" lon="-3.4668830">
        <ele>1362.0</ele>
        <time>2020-09-29T12:11:51Z</time>
      </trkpt>
      <trkpt lat="41.0727820" lon="-3.4668830">
        <ele>1361.0</ele>
        <time>2020-09-29T12:11:52Z</time>
      </trkpt>
      <trkpt lat="41.0726800" lon="-3.4665820">
        <ele>1361.0</ele>
        <time>2020-09-29T12:11:53Z</time>
      </trkpt>
      <trkpt lat="41.0726800" lon="-3.4665820">
        <ele>1359.0</ele>
        <time>2020-09-29T12:11:54Z</time>
      </trkpt>
      <trkpt lat="41.0726550" lon="-3.4662480">
        <ele>1359.0</ele>
        <time>2020-09-29T12:11:55Z</time>
      </trkpt>
      <trkpt lat="41.0726600" lon="-3.4660780">
        <ele>1358.0</ele>
        <time>2020-09-29T12:11:56Z</time>
      </trkpt>
      <trkpt lat="41.0726600" lon="-3.4660780">
        <ele>1358.0</ele>
        <time>2020-09-29T12:11:57Z</time>
      </trkpt>
      <trkpt lat="41.0726850" lon="-3.4657350">
        <ele>1356.0</ele>
        <time>2020-09-29T12:11:58Z</time>
      </trkpt>
      <trkpt lat="41.0727200" lon="-3.4655670">
        <ele>1356.0</ele>
        <time>2020-09-29T12:11:59Z</time>
      </trkpt>
      <trkpt lat="41.0727720" lon="-3.4654050">
        <ele>1354.0</ele>
        <time>2020-09-29T12:12:00Z</time>
      </trkpt>
      <trkpt lat="41.0727720" lon="-3.4654050">
        <ele>1354.0</ele>
        <time>2020-09-29T12:12:01Z</time>
      </trkpt>
      <trkpt lat="41.0728880" lon="-3.4650980">
        <ele>1353.0</ele>
        <time>2020-09-29T12:12:02Z</time>
      </trkpt>
      <trkpt lat="41.0729570" lon="-3.4649720">
        <ele>1353.0</ele>
        <time>2020-09-29T12:12:03Z</time>
      </trkpt>
      <trkpt lat="41.0729570" lon="-3.4649720">
        <ele>1350.0</ele>
        <time>2020-09-29T12:12:04Z</time>
      </trkpt>
      <trkpt lat="41.0731400" lon="-3.4647880">
        <ele>1350.0</ele>
        <time>2020-09-29T12:12:05Z</time>
      </trkpt>
      <trkpt lat="41.0731400" lon="-3.4647880">
        <ele>1348.0</ele>
        <time>2020-09-29T12:12:06Z</time>
      </trkpt>
      <trkpt lat="41.0733630" lon="-3.4646720">
        <ele>1348.0</ele>
        <time>2020-09-29T12:12:07Z</time>
      </trkpt>
      <trkpt lat="41.0734530" lon="-3.4645880">
        <ele>1346.0</ele>
        <time>2020-09-29T12:12:08Z</time>
      </trkpt>
      <trkpt lat="41.0734530" lon="-3.4645880">
        <ele>1346.0</ele>
        <time>2020-09-29T12:12:09Z</time>
      </trkpt>
      <trkpt lat="41.0735870" lon="-3.4643330">
        <ele>1344.0</ele>
        <time>2020-09-29T12:12:10Z</time>
      </trkpt>
      <trkpt lat="41.0735870" lon="-3.4643330">
        <ele>1344.0</ele>
        <time>2020-09-29T12:12:11Z</time>
      </trkpt>
      <trkpt lat="41.0736530" lon="-3.4640170">
        <ele>1343.0</ele>
        <time>2020-09-29T12:12:12Z</time>
      </trkpt>
      <trkpt lat="41.0736670" lon="-3.4638450">
        <ele>1343.0</ele>
        <time>2020-09-29T12:12:13Z</time>
      </trkpt>
      <trkpt lat="41.0736670" lon="-3.4638450">
        <ele>1340.0</ele>
        <time>2020-09-29T12:12:14Z</time>
      </trkpt>
      <trkpt lat="41.0736900" lon="-3.4634920">
        <ele>1337.0</ele>
        <time>2020-09-29T12:12:15Z</time>
      </trkpt>
      <trkpt lat="41.0736900" lon="-3.4634920">
        <ele>1337.0</ele>
        <time>2020-09-29T12:12:16Z</time>
      </trkpt>
      <trkpt lat="41.0737130" lon="-3.4631420">
        <ele>1335.0</ele>
        <time>2020-09-29T12:12:17Z</time>
      </trkpt>
      <trkpt lat="41.0737270" lon="-3.4629770">
        <ele>1335.0</ele>
        <time>2020-09-29T12:12:18Z</time>
      </trkpt>
      <trkpt lat="41.0737420" lon="-3.4628180">
        <ele>1332.0</ele>
        <time>2020-09-29T12:12:19Z</time>
      </trkpt>
      <trkpt lat="41.0737420" lon="-3.4628180">
        <ele>1332.0</ele>
        <time>2020-09-29T12:12:20Z</time>
      </trkpt>
      <trkpt lat="41.0737280" lon="-3.4624950">
        <ele>1330.0</ele>
        <time>2020-09-29T12:12:21Z</time>
      </trkpt>
      <trkpt lat="41.0737280" lon="-3.4624950">
        <ele>1330.0</ele>
        <time>2020-09-29T12:12:22Z</time>
      </trkpt>
      <trkpt lat="41.0736280" lon="-3.4621870">
        <ele>1328.0</ele>
        <time>2020-09-29T12:12:23Z</time>
      </trkpt>
      <trkpt lat="41.0736280" lon="-3.4621870">
        <ele>1328.0</ele>
        <time>2020-09-29T12:12:24Z</time>
      </trkpt>
      <trkpt lat="41.0735080" lon="-3.4618720">
        <ele>1326.0</ele>
        <time>2020-09-29T12:12:25Z</time>
      </trkpt>
      <trkpt lat="41.0735080" lon="-3.4618720">
        <ele>1326.0</ele>
        <time>2020-09-29T12:12:26Z</time>
      </trkpt>
      <trkpt lat="41.0734020" lon="-3.4615720">
        <ele>1324.0</ele>
        <time>2020-09-29T12:12:27Z</time>
      </trkpt>
      <trkpt lat="41.0733600" lon="-3.4614380">
        <ele>1324.0</ele>
        <time>2020-09-29T12:12:28Z</time>
      </trkpt>
      <trkpt lat="41.0733600" lon="-3.4614380">
        <ele>1322.0</ele>
        <time>2020-09-29T12:12:29Z</time>
      </trkpt>
      <trkpt lat="41.0733230" lon="-3.4611820">
        <ele>1322.0</ele>
        <time>2020-09-29T12:12:30Z</time>
      </trkpt>
      <trkpt lat="41.0733450" lon="-3.4610520">
        <ele>1320.0</ele>
        <time>2020-09-29T12:12:31Z</time>
      </trkpt>
      <trkpt lat="41.0733450" lon="-3.4610520">
        <ele>1320.0</ele>
        <time>2020-09-29T12:12:32Z</time>
      </trkpt>
      <trkpt lat="41.0734550" lon="-3.4608080">
        <ele>1318.0</ele>
        <time>2020-09-29T12:12:33Z</time>
      </trkpt>
      <trkpt lat="41.0735300" lon="-3.4606900">
        <ele>1318.0</ele>
        <time>2020-09-29T12:12:34Z</time>
      </trkpt>
      <trkpt lat="41.0735300" lon="-3.4606900">
        <ele>1316.0</ele>
        <time>2020-09-29T12:12:35Z</time>
      </trkpt>
      <trkpt lat="41.0736900" lon="-3.4604480">
        <ele>1316.0</ele>
        <time>2020-09-29T12:12:36Z</time>
      </trkpt>
      <trkpt lat="41.0737680" lon="-3.4603200">
        <ele>1315.0</ele>
        <time>2020-09-29T12:12:37Z</time>
      </trkpt>
      <trkpt lat="41.0737680" lon="-3.4603200">
        <ele>1315.0</ele>
        <time>2020-09-29T12:12:38Z</time>
      </trkpt>
      <trkpt lat="41.0739230" lon="-3.4600630">
        <ele>1313.0</ele>
        <time>2020-09-29T12:12:39Z</time>
      </trkpt>
      <trkpt lat="41.0739230" lon="-3.4600630">
        <ele>1313.0</ele>
        <time>2020-09-29T12:12:40Z</time>
      </trkpt>
      <trkpt lat="41.0740920" lon="-3.4598180">
        <ele>1312.0</ele>
        <time>2020-09-29T12:12:41Z</time>
      </trkpt>
      <trkpt lat="41.0740920" lon="-3.4598180">
        <ele>1312.0</ele>
        <time>2020-09-29T12:12:42Z</time>
      </trkpt>
      <trkpt lat="41.0742920" lon="-3.4596300">
        <ele>1310.0</ele>
        <time>2020-09-29T12:12:43Z</time>
      </trkpt>
      <trkpt lat="41.0742920" lon="-3.4596300">
        <ele>1310.0</ele>
        <time>2020-09-29T12:12:44Z</time>
      </trkpt>
      <trkpt lat="41.0745130" lon="-3.4595080">
        <ele>1307.0</ele>
        <time>2020-09-29T12:12:45Z</time>
      </trkpt>
      <trkpt lat="41.0746280" lon="-3.4594670">
        <ele>1307.0</ele>
        <time>2020-09-29T12:12:46Z</time>
      </trkpt>
      <trkpt lat="41.0747420" lon="-3.4594370">
        <ele>1305.0</ele>
        <time>2020-09-29T12:12:47Z</time>
      </trkpt>
      <trkpt lat="41.0747420" lon="-3.4594370">
        <ele>1305.0</ele>
        <time>2020-09-29T12:12:48Z</time>
      </trkpt>
      <trkpt lat="41.0749520" lon="-3.4593970">
        <ele>1303.0</ele>
        <time>2020-09-29T12:12:49Z</time>
      </trkpt>
      <trkpt lat="41.0749520" lon="-3.4593970">
        <ele>1301.0</ele>
        <time>2020-09-29T12:12:50Z</time>
      </trkpt>
      <trkpt lat="41.0751350" lon="-3.4592830">
        <ele>1301.0</ele>
        <time>2020-09-29T12:12:51Z</time>
      </trkpt>
      <trkpt lat="41.0751350" lon="-3.4592830">
        <ele>1299.0</ele>
        <time>2020-09-29T12:12:52Z</time>
      </trkpt>
      <trkpt lat="41.0752800" lon="-3.4590600">
        <ele>1299.0</ele>
        <time>2020-09-29T12:12:53Z</time>
      </trkpt>
      <trkpt lat="41.0753520" lon="-3.4589400">
        <ele>1297.0</ele>
        <time>2020-09-29T12:12:54Z</time>
      </trkpt>
      <trkpt lat="41.0753520" lon="-3.4589400">
        <ele>1297.0</ele>
        <time>2020-09-29T12:12:55Z</time>
      </trkpt>
      <trkpt lat="41.0755020" lon="-3.4586870">
        <ele>1295.0</ele>
        <time>2020-09-29T12:12:56Z</time>
      </trkpt>
      <trkpt lat="41.0755020" lon="-3.4586870">
        <ele>1295.0</ele>
        <time>2020-09-29T12:12:57Z</time>
      </trkpt>
      <trkpt lat="41.0756430" lon="-3.4584180">
        <ele>1292.0</ele>
        <time>2020-09-29T12:12:58Z</time>
      </trkpt>
      <trkpt lat="41.0756430" lon="-3.4584180">
        <ele>1292.0</ele>
        <time>2020-09-29T12:12:59Z</time>
      </trkpt>
      <trkpt lat="41.0757330" lon="-3.4581120">
        <ele>1290.0</ele>
        <time>2020-09-29T12:13:00Z</time>
      </trkpt>
      <trkpt lat="41.0757620" lon="-3.4579550">
        <ele>1290.0</ele>
        <time>2020-09-29T12:13:01Z</time>
      </trkpt>
      <trkpt lat="41.0757620" lon="-3.4579550">
        <ele>1288.0</ele>
        <time>2020-09-29T12:13:02Z</time>
      </trkpt>
      <trkpt lat="41.0758550" lon="-3.4577020">
        <ele>1288.0</ele>
        <time>2020-09-29T12:13:03Z</time>
      </trkpt>
      <trkpt lat="41.0758550" lon="-3.4577020">
        <ele>1285.0</ele>
        <time>2020-09-29T12:13:04Z</time>
      </trkpt>
      <trkpt lat="41.0759950" lon="-3.4575370">
        <ele>1285.0</ele>
        <time>2020-09-29T12:13:05Z</time>
      </trkpt>
      <trkpt lat="41.0760570" lon="-3.4574680">
        <ele>1284.0</ele>
        <time>2020-09-29T12:13:06Z</time>
      </trkpt>
      <trkpt lat="41.0760570" lon="-3.4574680">
        <ele>1284.0</ele>
        <time>2020-09-29T12:13:07Z</time>
      </trkpt>
      <trkpt lat="41.0760980" lon="-3.4573020">
        <ele>1282.0</ele>
        <time>2020-09-29T12:13:08Z</time>
      </trkpt>
      <trkpt lat="41.0760980" lon="-3.4573020">
        <ele>1282.0</ele>
        <time>2020-09-29T12:13:09Z</time>
      </trkpt>
      <trkpt lat="41.0760030" lon="-3.4572050">
        <ele>1281.0</ele>
        <time>2020-09-29T12:13:10Z</time>
      </trkpt>
      <trkpt lat="41.0759330" lon="-3.4572230">
        <ele>1281.0</ele>
        <time>2020-09-29T12:13:11Z</time>
      </trkpt>
      <trkpt lat="41.0759330" lon="-3.4572230">
        <ele>1280.0</ele>
        <time>2020-09-29T12:13:12Z</time>
      </trkpt>
      <trkpt lat="41.0758100" lon="-3.4573370">
        <ele>1280.0</ele>
        <time>2020-09-29T12:13:13Z</time>
      </trkpt>
      <trkpt lat="41.0758100" lon="-3.4573370">
        <ele>1278.0</ele>
        <time>2020-09-29T12:13:14Z</time>
      </trkpt>
      <trkpt lat="41.0756780" lon="-3.4574600">
        <ele>1278.0</ele>
        <time>2020-09-29T12:13:15Z</time>
      </trkpt>
      <trkpt lat="41.0756100" lon="-3.4575180">
        <ele>1277.0</ele>
        <time>2020-09-29T12:13:16Z</time>
      </trkpt>
      <trkpt lat="41.0756100" lon="-3.4575180">
        <ele>1277.0</ele>
        <time>2020-09-29T12:13:17Z</time>
      </trkpt>
      <trkpt lat="41.0754680" lon="-3.4576350">
        <ele>1277.0</ele>
        <time>2020-09-29T12:13:18Z</time>
      </trkpt>
      <trkpt lat="41.0753950" lon="-3.4576920">
        <ele>1277.0</ele>
        <time>2020-09-29T12:13:19Z</time>
      </trkpt>
      <trkpt lat="41.0753950" lon="-3.4576920">
        <ele>1276.0</ele>
        <time>2020-09-29T12:13:20Z</time>
      </trkpt>
      <trkpt lat="41.0752550" lon="-3.4578000">
        <ele>1276.0</ele>
        <time>2020-09-29T12:13:21Z</time>
      </trkpt>
      <trkpt lat="41.0752000" lon="-3.4578520">
        <ele>1275.0</ele>
        <time>2020-09-29T12:13:22Z</time>
      </trkpt>
      <trkpt lat="41.0752000" lon="-3.4578520">
        <ele>1275.0</ele>
        <time>2020-09-29T12:13:23Z</time>
      </trkpt>
      <trkpt lat="41.0751000" lon="-3.4579570">
        <ele>1273.0</ele>
        <time>2020-09-29T12:13:24Z</time>
      </trkpt>
      <trkpt lat="41.0750330" lon="-3.4580020">
        <ele>1273.0</ele>
        <time>2020-09-29T12:13:25Z</time>
      </trkpt>
      <trkpt lat="41.0750330" lon="-3.4580020">
        <ele>1272.0</ele>
        <time>2020-09-29T12:13:26Z</time>
      </trkpt>
      <trkpt lat="41.0748770" lon="-3.4580220">
        <ele>1271.0</ele>
        <time>2020-09-29T12:13:27Z</time>
      </trkpt>
      <trkpt lat="41.0747900" lon="-3.4580270">
        <ele>1271.0</ele>
        <time>2020-09-29T12:13:28Z</time>
      </trkpt>
      <trkpt lat="41.0747900" lon="-3.4580270">
        <ele>1270.0</ele>
        <time>2020-09-29T12:13:29Z</time>
      </trkpt>
      <trkpt lat="41.0746080" lon="-3.4580500">
        <ele>1270.0</ele>
        <time>2020-09-29T12:13:30Z</time>
      </trkpt>
      <trkpt lat="41.0745130" lon="-3.4580630">
        <ele>1269.0</ele>
        <time>2020-09-29T12:13:31Z</time>
      </trkpt>
      <trkpt lat="41.0745130" lon="-3.4580630">
        <ele>1269.0</ele>
        <time>2020-09-29T12:13:32Z</time>
      </trkpt>
      <trkpt lat="41.0743200" lon="-3.4580980">
        <ele>1269.0</ele>
        <time>2020-09-29T12:13:33Z</time>
      </trkpt>
      <trkpt lat="41.0743200" lon="-3.4580980">
        <ele>1269.0</ele>
        <time>2020-09-29T12:13:34Z</time>
      </trkpt>
      <trkpt lat="41.0741380" lon="-3.4581850">
        <ele>1268.0</ele>
        <time>2020-09-29T12:13:35Z</time>
      </trkpt>
      <trkpt lat="41.0741380" lon="-3.4581850">
        <ele>1268.0</ele>
        <time>2020-09-29T12:13:36Z</time>
      </trkpt>
      <trkpt lat="41.0739680" lon="-3.4583130">
        <ele>1268.0</ele>
        <time>2020-09-29T12:13:37Z</time>
      </trkpt>
      <trkpt lat="41.0738850" lon="-3.4583820">
        <ele>1268.0</ele>
        <time>2020-09-29T12:13:38Z</time>
      </trkpt>
      <trkpt lat="41.0738850" lon="-3.4583820">
        <ele>1266.0</ele>
        <time>2020-09-29T12:13:39Z</time>
      </trkpt>
      <trkpt lat="41.0737270" lon="-3.4585100">
        <ele>1266.0</ele>
        <time>2020-09-29T12:13:40Z</time>
      </trkpt>
      <trkpt lat="41.0737270" lon="-3.4585100">
        <ele>1265.0</ele>
        <time>2020-09-29T12:13:41Z</time>
      </trkpt>
      <trkpt lat="41.0735580" lon="-3.4586070">
        <ele>1265.0</ele>
        <time>2020-09-29T12:13:42Z</time>
      </trkpt>
      <trkpt lat="41.0734700" lon="-3.4586150">
        <ele>1265.0</ele>
        <time>2020-09-29T12:13:43Z</time>
      </trkpt>
      <trkpt lat="41.0734700" lon="-3.4586150">
        <ele>1265.0</ele>
        <time>2020-09-29T12:13:44Z</time>
      </trkpt>
      <trkpt lat="41.0732870" lon="-3.4585620">
        <ele>1264.0</ele>
        <time>2020-09-29T12:13:45Z</time>
      </trkpt>
      <trkpt lat="41.0732870" lon="-3.4585620">
        <ele>1264.0</ele>
        <time>2020-09-29T12:13:46Z</time>
      </trkpt>
      <trkpt lat="41.0730900" lon="-3.4585000">
        <ele>1264.0</ele>
        <time>2020-09-29T12:13:47Z</time>
      </trkpt>
      <trkpt lat="41.0729870" lon="-3.4584920">
        <ele>1264.0</ele>
        <time>2020-09-29T12:13:48Z</time>
      </trkpt>
      <trkpt lat="41.0729870" lon="-3.4584920">
        <ele>1262.0</ele>
        <time>2020-09-29T12:13:49Z</time>
      </trkpt>
      <trkpt lat="41.0727770" lon="-3.4585470">
        <ele>1262.0</ele>
        <time>2020-09-29T12:13:50Z</time>
      </trkpt>
      <trkpt lat="41.0726730" lon="-3.4585980">
        <ele>1261.0</ele>
        <time>2020-09-29T12:13:51Z</time>
      </trkpt>
      <trkpt lat="41.0726730" lon="-3.4585980">
        <ele>1261.0</ele>
        <time>2020-09-29T12:13:52Z</time>
      </trkpt>
      <trkpt lat="41.0724680" lon="-3.4587050">
        <ele>1260.0</ele>
        <time>2020-09-29T12:13:53Z</time>
      </trkpt>
      <trkpt lat="41.0723650" lon="-3.4587630">
        <ele>1260.0</ele>
        <time>2020-09-29T12:13:54Z</time>
      </trkpt>
      <trkpt lat="41.0722600" lon="-3.4588280">
        <ele>1259.0</ele>
        <time>2020-09-29T12:13:55Z</time>
      </trkpt>
      <trkpt lat="41.0722600" lon="-3.4588280">
        <ele>1259.0</ele>
        <time>2020-09-29T12:13:56Z</time>
      </trkpt>
      <trkpt lat="41.0720730" lon="-3.4589950">
        <ele>1258.0</ele>
        <time>2020-09-29T12:13:57Z</time>
      </trkpt>
      <trkpt lat="41.0720730" lon="-3.4589950">
        <ele>1258.0</ele>
        <time>2020-09-29T12:13:58Z</time>
      </trkpt>
      <trkpt lat="41.0719050" lon="-3.4591920">
        <ele>1257.0</ele>
        <time>2020-09-29T12:13:59Z</time>
      </trkpt>
      <trkpt lat="41.0719050" lon="-3.4591920">
        <ele>1257.0</ele>
        <time>2020-09-29T12:14:00Z</time>
      </trkpt>
      <trkpt lat="41.0717620" lon="-3.4594150">
        <ele>1255.0</ele>
        <time>2020-09-29T12:14:01Z</time>
      </trkpt>
      <trkpt lat="41.0717620" lon="-3.4594150">
        <ele>1255.0</ele>
        <time>2020-09-29T12:14:02Z</time>
      </trkpt>
      <trkpt lat="41.0716450" lon="-3.4596650">
        <ele>1255.0</ele>
        <time>2020-09-29T12:14:03Z</time>
      </trkpt>
      <trkpt lat="41.0715900" lon="-3.4597900">
        <ele>1254.0</ele>
        <time>2020-09-29T12:14:04Z</time>
      </trkpt>
      <trkpt lat="41.0715380" lon="-3.4599080">
        <ele>1254.0</ele>
        <time>2020-09-29T12:14:05Z</time>
      </trkpt>
      <trkpt lat="41.0715380" lon="-3.4599080">
        <ele>1252.0</ele>
        <time>2020-09-29T12:14:06Z</time>
      </trkpt>
      <trkpt lat="41.0714220" lon="-3.4600880">
        <ele>1252.0</ele>
        <time>2020-09-29T12:14:07Z</time>
      </trkpt>
      <trkpt lat="41.0714220" lon="-3.4600880">
        <ele>1251.0</ele>
        <time>2020-09-29T12:14:08Z</time>
      </trkpt>
      <trkpt lat="41.0712720" lon="-3.4601500">
        <ele>1251.0</ele>
        <time>2020-09-29T12:14:09Z</time>
      </trkpt>
      <trkpt lat="41.0712720" lon="-3.4601500">
        <ele>1250.0</ele>
        <time>2020-09-29T12:14:10Z</time>
      </trkpt>
      <trkpt lat="41.0711480" lon="-3.4600480">
        <ele>1250.0</ele>
        <time>2020-09-29T12:14:11Z</time>
      </trkpt>
      <trkpt lat="41.0711480" lon="-3.4600480">
        <ele>1249.0</ele>
        <time>2020-09-29T12:14:12Z</time>
      </trkpt>
      <trkpt lat="41.0711180" lon="-3.4598580">
        <ele>1249.0</ele>
        <time>2020-09-29T12:14:13Z</time>
      </trkpt>
      <trkpt lat="41.0711180" lon="-3.4598580">
        <ele>1249.0</ele>
        <time>2020-09-29T12:14:14Z</time>
      </trkpt>
      <trkpt lat="41.0710920" lon="-3.4596570">
        <ele>1249.0</ele>
        <time>2020-09-29T12:14:15Z</time>
      </trkpt>
      <trkpt lat="41.0710920" lon="-3.4596570">
        <ele>1248.0</ele>
        <time>2020-09-29T12:14:16Z</time>
      </trkpt>
      <trkpt lat="41.0710770" lon="-3.4594400">
        <ele>1248.0</ele>
        <time>2020-09-29T12:14:17Z</time>
      </trkpt>
      <trkpt lat="41.0710770" lon="-3.4594400">
        <ele>1248.0</ele>
        <time>2020-09-29T12:14:18Z</time>
      </trkpt>
      <trkpt lat="41.0710920" lon="-3.4592080">
        <ele>1248.0</ele>
        <time>2020-09-29T12:14:19Z</time>
      </trkpt>
      <trkpt lat="41.0710920" lon="-3.4592080">
        <ele>1247.0</ele>
        <time>2020-09-29T12:14:20Z</time>
      </trkpt>
      <trkpt lat="41.0711220" lon="-3.4589730">
        <ele>1247.0</ele>
        <time>2020-09-29T12:14:21Z</time>
      </trkpt>
      <trkpt lat="41.0711220" lon="-3.4589730">
        <ele>1246.0</ele>
        <time>2020-09-29T12:14:22Z</time>
      </trkpt>
      <trkpt lat="41.0711520" lon="-3.4587200">
        <ele>1246.0</ele>
        <time>2020-09-29T12:14:23Z</time>
      </trkpt>
      <trkpt lat="41.0711520" lon="-3.4587200">
        <ele>1245.0</ele>
        <time>2020-09-29T12:14:24Z</time>
      </trkpt>
      <trkpt lat="41.0711820" lon="-3.4584600">
        <ele>1245.0</ele>
        <time>2020-09-29T12:14:25Z</time>
      </trkpt>
      <trkpt lat="41.0711820" lon="-3.4584600">
        <ele>1244.0</ele>
        <time>2020-09-29T12:14:26Z</time>
      </trkpt>
      <trkpt lat="41.0712020" lon="-3.4581830">
        <ele>1244.0</ele>
        <time>2020-09-29T12:14:27Z</time>
      </trkpt>
      <trkpt lat="41.0711930" lon="-3.4580430">
        <ele>1243.0</ele>
        <time>2020-09-29T12:14:28Z</time>
      </trkpt>
      <trkpt lat="41.0711930" lon="-3.4580430">
        <ele>1243.0</ele>
        <time>2020-09-29T12:14:29Z</time>
      </trkpt>
      <trkpt lat="41.0711780" lon="-3.4578120">
        <ele>1242.0</ele>
        <time>2020-09-29T12:14:30Z</time>
      </trkpt>
      <trkpt lat="41.0712100" lon="-3.4577100">
        <ele>1242.0</ele>
        <time>2020-09-29T12:14:31Z</time>
      </trkpt>
      <trkpt lat="41.0712100" lon="-3.4577100">
        <ele>1241.0</ele>
        <time>2020-09-29T12:14:32Z</time>
      </trkpt>
      <trkpt lat="41.0713430" lon="-3.4575830">
        <ele>1241.0</ele>
        <time>2020-09-29T12:14:33Z</time>
      </trkpt>
      <trkpt lat="41.0713430" lon="-3.4575830">
        <ele>1241.0</ele>
        <time>2020-09-29T12:14:34Z</time>
      </trkpt>
      <trkpt lat="41.0715020" lon="-3.4574930">
        <ele>1241.0</ele>
        <time>2020-09-29T12:14:35Z</time>
      </trkpt>
      <trkpt lat="41.0715770" lon="-3.4574250">
        <ele>1240.0</ele>
        <time>2020-09-29T12:14:36Z</time>
      </trkpt>
      <trkpt lat="41.0715770" lon="-3.4574250">
        <ele>1240.0</ele>
        <time>2020-09-29T12:14:37Z</time>
      </trkpt>
      <trkpt lat="41.0716900" lon="-3.4572280">
        <ele>1240.0</ele>
        <time>2020-09-29T12:14:38Z</time>
      </trkpt>
      <trkpt lat="41.0716900" lon="-3.4572280">
        <ele>1239.0</ele>
        <time>2020-09-29T12:14:39Z</time>
      </trkpt>
      <trkpt lat="41.0717850" lon="-3.4569950">
        <ele>1239.0</ele>
        <time>2020-09-29T12:14:40Z</time>
      </trkpt>
      <trkpt lat="41.0718350" lon="-3.4568730">
        <ele>1239.0</ele>
        <time>2020-09-29T12:14:41Z</time>
      </trkpt>
      <trkpt lat="41.0718830" lon="-3.4567470">
        <ele>1238.0</ele>
        <time>2020-09-29T12:14:42Z</time>
      </trkpt>
      <trkpt lat="41.0718830" lon="-3.4567470">
        <ele>1238.0</ele>
        <time>2020-09-29T12:14:43Z</time>
      </trkpt>
      <trkpt lat="41.0719720" lon="-3.4564820">
        <ele>1236.0</ele>
        <time>2020-09-29T12:14:44Z</time>
      </trkpt>
      <trkpt lat="41.0719720" lon="-3.4564820">
        <ele>1236.0</ele>
        <time>2020-09-29T12:14:45Z</time>
      </trkpt>
      <trkpt lat="41.0720980" lon="-3.4562350">
        <ele>1235.0</ele>
        <time>2020-09-29T12:14:46Z</time>
      </trkpt>
      <trkpt lat="41.0720980" lon="-3.4562350">
        <ele>1235.0</ele>
        <time>2020-09-29T12:14:47Z</time>
      </trkpt>
      <trkpt lat="41.0722700" lon="-3.4560250">
        <ele>1234.0</ele>
        <time>2020-09-29T12:14:48Z</time>
      </trkpt>
      <trkpt lat="41.0723650" lon="-3.4559300">
        <ele>1234.0</ele>
        <time>2020-09-29T12:14:49Z</time>
      </trkpt>
      <trkpt lat="41.0723650" lon="-3.4559300">
        <ele>1233.0</ele>
        <time>2020-09-29T12:14:50Z</time>
      </trkpt>
      <trkpt lat="41.0725680" lon="-3.4557420">
        <ele>1233.0</ele>
        <time>2020-09-29T12:14:51Z</time>
      </trkpt>
      <trkpt lat="41.0725680" lon="-3.4557420">
        <ele>1231.0</ele>
        <time>2020-09-29T12:14:52Z</time>
      </trkpt>
      <trkpt lat="41.0727730" lon="-3.4555500">
        <ele>1231.0</ele>
        <time>2020-09-29T12:14:53Z</time>
      </trkpt>
      <trkpt lat="41.0727730" lon="-3.4555500">
        <ele>1230.0</ele>
        <time>2020-09-29T12:14:54Z</time>
      </trkpt>
      <trkpt lat="41.0729780" lon="-3.4553530">
        <ele>1230.0</ele>
        <time>2020-09-29T12:14:55Z</time>
      </trkpt>
      <trkpt lat="41.0729780" lon="-3.4553530">
        <ele>1228.0</ele>
        <time>2020-09-29T12:14:56Z</time>
      </trkpt>
      <trkpt lat="41.0731620" lon="-3.4551220">
        <ele>1228.0</ele>
        <time>2020-09-29T12:14:57Z</time>
      </trkpt>
      <trkpt lat="41.0731620" lon="-3.4551220">
        <ele>1227.0</ele>
        <time>2020-09-29T12:14:58Z</time>
      </trkpt>
      <trkpt lat="41.0733270" lon="-3.4548570">
        <ele>1227.0</ele>
        <time>2020-09-29T12:14:59Z</time>
      </trkpt>
      <trkpt lat="41.0733270" lon="-3.4548570">
        <ele>1225.0</ele>
        <time>2020-09-29T12:15:00Z</time>
      </trkpt>
      <trkpt lat="41.0734920" lon="-3.4545800">
        <ele>1225.0</ele>
        <time>2020-09-29T12:15:01Z</time>
      </trkpt>
      <trkpt lat="41.0734920" lon="-3.4545800">
        <ele>1223.0</ele>
        <time>2020-09-29T12:15:02Z</time>
      </trkpt>
      <trkpt lat="41.0736950" lon="-3.4543470">
        <ele>1223.0</ele>
        <time>2020-09-29T12:15:03Z</time>
      </trkpt>
      <trkpt lat="41.0738030" lon="-3.4542400">
        <ele>1221.0</ele>
        <time>2020-09-29T12:15:04Z</time>
      </trkpt>
      <trkpt lat="41.0738030" lon="-3.4542400">
        <ele>1221.0</ele>
        <time>2020-09-29T12:15:05Z</time>
      </trkpt>
      <trkpt lat="41.0740130" lon="-3.4540200">
        <ele>1219.0</ele>
        <time>2020-09-29T12:15:06Z</time>
      </trkpt>
      <trkpt lat="41.0740130" lon="-3.4540200">
        <ele>1219.0</ele>
        <time>2020-09-29T12:15:07Z</time>
      </trkpt>
      <trkpt lat="41.0742200" lon="-3.4537850">
        <ele>1218.0</ele>
        <time>2020-09-29T12:15:08Z</time>
      </trkpt>
      <trkpt lat="41.0742200" lon="-3.4537850">
        <ele>1218.0</ele>
        <time>2020-09-29T12:15:09Z</time>
      </trkpt>
      <trkpt lat="41.0744080" lon="-3.4535220">
        <ele>1216.0</ele>
        <time>2020-09-29T12:15:10Z</time>
      </trkpt>
      <trkpt lat="41.0744080" lon="-3.4535220">
        <ele>1216.0</ele>
        <time>2020-09-29T12:15:11Z</time>
      </trkpt>
      <trkpt lat="41.0745950" lon="-3.4532530">
        <ele>1213.0</ele>
        <time>2020-09-29T12:15:12Z</time>
      </trkpt>
      <trkpt lat="41.0745950" lon="-3.4532530">
        <ele>1213.0</ele>
        <time>2020-09-29T12:15:13Z</time>
      </trkpt>
      <trkpt lat="41.0747920" lon="-3.4529980">
        <ele>1212.0</ele>
        <time>2020-09-29T12:15:14Z</time>
      </trkpt>
      <trkpt lat="41.0747920" lon="-3.4529980">
        <ele>1212.0</ele>
        <time>2020-09-29T12:15:15Z</time>
      </trkpt>
      <trkpt lat="41.0750050" lon="-3.4527680">
        <ele>1210.0</ele>
        <time>2020-09-29T12:15:16Z</time>
      </trkpt>
      <trkpt lat="41.0750050" lon="-3.4527680">
        <ele>1209.0</ele>
        <time>2020-09-29T12:15:17Z</time>
      </trkpt>
      <trkpt lat="41.0752270" lon="-3.4525530">
        <ele>1209.0</ele>
        <time>2020-09-29T12:15:18Z</time>
      </trkpt>
      <trkpt lat="41.0753370" lon="-3.4524470">
        <ele>1207.0</ele>
        <time>2020-09-29T12:15:19Z</time>
      </trkpt>
      <trkpt lat="41.0753370" lon="-3.4524470">
        <ele>1207.0</ele>
        <time>2020-09-29T12:15:20Z</time>
      </trkpt>
      <trkpt lat="41.0755600" lon="-3.4522350">
        <ele>1206.0</ele>
        <time>2020-09-29T12:15:21Z</time>
      </trkpt>
      <trkpt lat="41.0755600" lon="-3.4522350">
        <ele>1206.0</ele>
        <time>2020-09-29T12:15:22Z</time>
      </trkpt>
      <trkpt lat="41.0757800" lon="-3.4520270">
        <ele>1205.0</ele>
        <time>2020-09-29T12:15:23Z</time>
      </trkpt>
      <trkpt lat="41.0758780" lon="-3.4519370">
        <ele>1205.0</ele>
        <time>2020-09-29T12:15:24Z</time>
      </trkpt>
      <trkpt lat="41.0759600" lon="-3.4518750">
        <ele>1203.0</ele>
        <time>2020-09-29T12:15:25Z</time>
      </trkpt>
      <trkpt lat="41.0759600" lon="-3.4518750">
        <ele>1203.0</ele>
        <time>2020-09-29T12:15:26Z</time>
      </trkpt>
      <trkpt lat="41.0761230" lon="-3.4517900">
        <ele>1202.0</ele>
        <time>2020-09-29T12:15:27Z</time>
      </trkpt>
      <trkpt lat="41.0761230" lon="-3.4517900">
        <ele>1202.0</ele>
        <time>2020-09-29T12:15:28Z</time>
      </trkpt>
      <trkpt lat="41.0762970" lon="-3.4517150">
        <ele>1201.0</ele>
        <time>2020-09-29T12:15:29Z</time>
      </trkpt>
      <trkpt lat="41.0762970" lon="-3.4517150">
        <ele>1201.0</ele>
        <time>2020-09-29T12:15:30Z</time>
      </trkpt>
      <trkpt lat="41.0764780" lon="-3.4516380">
        <ele>1199.0</ele>
        <time>2020-09-29T12:15:31Z</time>
      </trkpt>
      <trkpt lat="41.0764780" lon="-3.4516380">
        <ele>1199.0</ele>
        <time>2020-09-29T12:15:32Z</time>
      </trkpt>
      <trkpt lat="41.0766650" lon="-3.4515430">
        <ele>1198.0</ele>
        <time>2020-09-29T12:15:33Z</time>
      </trkpt>
      <trkpt lat="41.0766650" lon="-3.4515430">
        <ele>1198.0</ele>
        <time>2020-09-29T12:15:34Z</time>
      </trkpt>
      <trkpt lat="41.0768530" lon="-3.4514350">
        <ele>1198.0</ele>
        <time>2020-09-29T12:15:35Z</time>
      </trkpt>
      <trkpt lat="41.0768530" lon="-3.4514350">
        <ele>1198.0</ele>
        <time>2020-09-29T12:15:36Z</time>
      </trkpt>
      <trkpt lat="41.0770430" lon="-3.4513070">
        <ele>1198.0</ele>
        <time>2020-09-29T12:15:37Z</time>
      </trkpt>
      <trkpt lat="41.0770430" lon="-3.4513070">
        <ele>1198.0</ele>
        <time>2020-09-29T12:15:38Z</time>
      </trkpt>
      <trkpt lat="41.0772080" lon="-3.4511300">
        <ele>1196.0</ele>
        <time>2020-09-29T12:15:39Z</time>
      </trkpt>
      <trkpt lat="41.0772080" lon="-3.4511300">
        <ele>1196.0</ele>
        <time>2020-09-29T12:15:40Z</time>
      </trkpt>
      <trkpt lat="41.0773380" lon="-3.4508770">
        <ele>1195.0</ele>
        <time>2020-09-29T12:15:41Z</time>
      </trkpt>
      <trkpt lat="41.0774080" lon="-3.4507520">
        <ele>1195.0</ele>
        <time>2020-09-29T12:15:42Z</time>
      </trkpt>
      <trkpt lat="41.0774970" lon="-3.4506470">
        <ele>1194.0</ele>
        <time>2020-09-29T12:15:43Z</time>
      </trkpt>
      <trkpt lat="41.0774970" lon="-3.4506470">
        <ele>1194.0</ele>
        <time>2020-09-29T12:15:44Z</time>
      </trkpt>
      <trkpt lat="41.0777070" lon="-3.4504850">
        <ele>1193.0</ele>
        <time>2020-09-29T12:15:45Z</time>
      </trkpt>
      <trkpt lat="41.0778200" lon="-3.4504150">
        <ele>1193.0</ele>
        <time>2020-09-29T12:15:46Z</time>
      </trkpt>
      <trkpt lat="41.0778200" lon="-3.4504150">
        <ele>1192.0</ele>
        <time>2020-09-29T12:15:47Z</time>
      </trkpt>
      <trkpt lat="41.0780450" lon="-3.4502750">
        <ele>1192.0</ele>
        <time>2020-09-29T12:15:48Z</time>
      </trkpt>
      <trkpt lat="41.0781630" lon="-3.4502100">
        <ele>1191.0</ele>
        <time>2020-09-29T12:15:49Z</time>
      </trkpt>
      <trkpt lat="41.0781630" lon="-3.4502100">
        <ele>1191.0</ele>
        <time>2020-09-29T12:15:50Z</time>
      </trkpt>
      <trkpt lat="41.0783980" lon="-3.4500750">
        <ele>1191.0</ele>
        <time>2020-09-29T12:15:51Z</time>
      </trkpt>
      <trkpt lat="41.0783980" lon="-3.4500750">
        <ele>1189.0</ele>
        <time>2020-09-29T12:15:52Z</time>
      </trkpt>
      <trkpt lat="41.0786120" lon="-3.4498920">
        <ele>1188.0</ele>
        <time>2020-09-29T12:15:53Z</time>
      </trkpt>
      <trkpt lat="41.0786120" lon="-3.4498920">
        <ele>1188.0</ele>
        <time>2020-09-29T12:15:54Z</time>
      </trkpt>
      <trkpt lat="41.0787900" lon="-3.4496450">
        <ele>1187.0</ele>
        <time>2020-09-29T12:15:55Z</time>
      </trkpt>
      <trkpt lat="41.0787900" lon="-3.4496450">
        <ele>1187.0</ele>
        <time>2020-09-29T12:15:56Z</time>
      </trkpt>
      <trkpt lat="41.0789230" lon="-3.4493380">
        <ele>1185.0</ele>
        <time>2020-09-29T12:15:57Z</time>
      </trkpt>
      <trkpt lat="41.0789230" lon="-3.4493380">
        <ele>1185.0</ele>
        <time>2020-09-29T12:15:58Z</time>
      </trkpt>
      <trkpt lat="41.0790700" lon="-3.4490320">
        <ele>1183.0</ele>
        <time>2020-09-29T12:15:59Z</time>
      </trkpt>
      <trkpt lat="41.0790700" lon="-3.4490320">
        <ele>1183.0</ele>
        <time>2020-09-29T12:16:00Z</time>
      </trkpt>
      <trkpt lat="41.0792780" lon="-3.4487930">
        <ele>1181.0</ele>
        <time>2020-09-29T12:16:01Z</time>
      </trkpt>
      <trkpt lat="41.0792780" lon="-3.4487930">
        <ele>1181.0</ele>
        <time>2020-09-29T12:16:02Z</time>
      </trkpt>
      <trkpt lat="41.0795320" lon="-3.4486430">
        <ele>1179.0</ele>
        <time>2020-09-29T12:16:03Z</time>
      </trkpt>
      <trkpt lat="41.0796630" lon="-3.4485800">
        <ele>1179.0</ele>
        <time>2020-09-29T12:16:04Z</time>
      </trkpt>
      <trkpt lat="41.0796630" lon="-3.4485800">
        <ele>1177.0</ele>
        <time>2020-09-29T12:16:05Z</time>
      </trkpt>
      <trkpt lat="41.0799300" lon="-3.4484670">
        <ele>1177.0</ele>
        <time>2020-09-29T12:16:06Z</time>
      </trkpt>
      <trkpt lat="41.0800520" lon="-3.4483980">
        <ele>1176.0</ele>
        <time>2020-09-29T12:16:07Z</time>
      </trkpt>
      <trkpt lat="41.0800520" lon="-3.4483980">
        <ele>1176.0</ele>
        <time>2020-09-29T12:16:08Z</time>
      </trkpt>
      <trkpt lat="41.0802380" lon="-3.4482300">
        <ele>1174.0</ele>
        <time>2020-09-29T12:16:09Z</time>
      </trkpt>
      <trkpt lat="41.0802380" lon="-3.4482300">
        <ele>1174.0</ele>
        <time>2020-09-29T12:16:10Z</time>
      </trkpt>
      <trkpt lat="41.0803150" lon="-3.4479970">
        <ele>1172.0</ele>
        <time>2020-09-29T12:16:11Z</time>
      </trkpt>
      <trkpt lat="41.0803150" lon="-3.4479970">
        <ele>1172.0</ele>
        <time>2020-09-29T12:16:12Z</time>
      </trkpt>
      <trkpt lat="41.0803080" lon="-3.4477420">
        <ele>1171.0</ele>
        <time>2020-09-29T12:16:13Z</time>
      </trkpt>
      <trkpt lat="41.0803080" lon="-3.4477420">
        <ele>1171.0</ele>
        <time>2020-09-29T12:16:14Z</time>
      </trkpt>
      <trkpt lat="41.0802980" lon="-3.4474750">
        <ele>1170.0</ele>
        <time>2020-09-29T12:16:15Z</time>
      </trkpt>
      <trkpt lat="41.0802980" lon="-3.4473370">
        <ele>1170.0</ele>
        <time>2020-09-29T12:16:16Z</time>
      </trkpt>
      <trkpt lat="41.0802980" lon="-3.4473370">
        <ele>1169.0</ele>
        <time>2020-09-29T12:16:17Z</time>
      </trkpt>
      <trkpt lat="41.0803280" lon="-3.4470600">
        <ele>1169.0</ele>
        <time>2020-09-29T12:16:18Z</time>
      </trkpt>
      <trkpt lat="41.0803520" lon="-3.4469230">
        <ele>1167.0</ele>
        <time>2020-09-29T12:16:19Z</time>
      </trkpt>
      <trkpt lat="41.0803770" lon="-3.4467850">
        <ele>1167.0</ele>
        <time>2020-09-29T12:16:20Z</time>
      </trkpt>
      <trkpt lat="41.0803770" lon="-3.4467850">
        <ele>1167.0</ele>
        <time>2020-09-29T12:16:21Z</time>
      </trkpt>
      <trkpt lat="41.0804280" lon="-3.4465020">
        <ele>1167.0</ele>
        <time>2020-09-29T12:16:22Z</time>
      </trkpt>
      <trkpt lat="41.0804280" lon="-3.4465020">
        <ele>1166.0</ele>
        <time>2020-09-29T12:16:23Z</time>
      </trkpt>
      <trkpt lat="41.0804820" lon="-3.4462170">
        <ele>1166.0</ele>
        <time>2020-09-29T12:16:24Z</time>
      </trkpt>
      <trkpt lat="41.0804820" lon="-3.4462170">
        <ele>1166.0</ele>
        <time>2020-09-29T12:16:25Z</time>
      </trkpt>
      <trkpt lat="41.0805380" lon="-3.4459300">
        <ele>1166.0</ele>
        <time>2020-09-29T12:16:26Z</time>
      </trkpt>
      <trkpt lat="41.0805380" lon="-3.4459300">
        <ele>1164.0</ele>
        <time>2020-09-29T12:16:27Z</time>
      </trkpt>
      <trkpt lat="41.0805380" lon="-3.4459300">
        <ele>1164.0</ele>
        <time>2020-09-29T12:16:28Z</time>
      </trkpt>
      <trkpt lat="41.0806080" lon="-3.4456450">
        <ele>1163.0</ele>
        <time>2020-09-29T12:16:29Z</time>
      </trkpt>
      <trkpt lat="41.0807070" lon="-3.4453670">
        <ele>1162.0</ele>
        <time>2020-09-29T12:16:30Z</time>
      </trkpt>
      <trkpt lat="41.0807070" lon="-3.4453670">
        <ele>1162.0</ele>
        <time>2020-09-29T12:16:31Z</time>
      </trkpt>
      <trkpt lat="41.0808230" lon="-3.4451020">
        <ele>1161.0</ele>
        <time>2020-09-29T12:16:32Z</time>
      </trkpt>
      <trkpt lat="41.0808230" lon="-3.4451020">
        <ele>1161.0</ele>
        <time>2020-09-29T12:16:33Z</time>
      </trkpt>
      <trkpt lat="41.0809800" lon="-3.4448580">
        <ele>1160.0</ele>
        <time>2020-09-29T12:16:34Z</time>
      </trkpt>
      <trkpt lat="41.0809800" lon="-3.4448580">
        <ele>1160.0</ele>
        <time>2020-09-29T12:16:35Z</time>
      </trkpt>
      <trkpt lat="41.0811570" lon="-3.4446420">
        <ele>1158.0</ele>
        <time>2020-09-29T12:16:36Z</time>
      </trkpt>
      <trkpt lat="41.0811570" lon="-3.4446420">
        <ele>1158.0</ele>
        <time>2020-09-29T12:16:37Z</time>
      </trkpt>
      <trkpt lat="41.0813380" lon="-3.4444280">
        <ele>1157.0</ele>
        <time>2020-09-29T12:16:38Z</time>
      </trkpt>
      <trkpt lat="41.0813380" lon="-3.4444280">
        <ele>1157.0</ele>
        <time>2020-09-29T12:16:39Z</time>
      </trkpt>
      <trkpt lat="41.0815330" lon="-3.4442320">
        <ele>1156.0</ele>
        <time>2020-09-29T12:16:40Z</time>
      </trkpt>
      <trkpt lat="41.0815330" lon="-3.4442320">
        <ele>1156.0</ele>
        <time>2020-09-29T12:16:41Z</time>
      </trkpt>
      <trkpt lat="41.0817320" lon="-3.4440530">
        <ele>1154.0</ele>
        <time>2020-09-29T12:16:42Z</time>
      </trkpt>
      <trkpt lat="41.0818020" lon="-3.4439420">
        <ele>1154.0</ele>
        <time>2020-09-29T12:16:43Z</time>
      </trkpt>
      <trkpt lat="41.0818020" lon="-3.4439420">
        <ele>1153.0</ele>
        <time>2020-09-29T12:16:44Z</time>
      </trkpt>
      <trkpt lat="41.0818520" lon="-3.4436520">
        <ele>1153.0</ele>
        <time>2020-09-29T12:16:45Z</time>
      </trkpt>
      <trkpt lat="41.0818520" lon="-3.4436520">
        <ele>1151.0</ele>
        <time>2020-09-29T12:16:46Z</time>
      </trkpt>
      <trkpt lat="41.0818330" lon="-3.4433500">
        <ele>1151.0</ele>
        <time>2020-09-29T12:16:47Z</time>
      </trkpt>
      <trkpt lat="41.0818030" lon="-3.4432070">
        <ele>1150.0</ele>
        <time>2020-09-29T12:16:48Z</time>
      </trkpt>
      <trkpt lat="41.0818030" lon="-3.4432070">
        <ele>1150.0</ele>
        <time>2020-09-29T12:16:49Z</time>
      </trkpt>
      <trkpt lat="41.0817420" lon="-3.4429180">
        <ele>1149.0</ele>
        <time>2020-09-29T12:16:50Z</time>
      </trkpt>
      <trkpt lat="41.0817420" lon="-3.4429180">
        <ele>1149.0</ele>
        <time>2020-09-29T12:16:51Z</time>
      </trkpt>
      <trkpt lat="41.0817100" lon="-3.4426200">
        <ele>1148.0</ele>
        <time>2020-09-29T12:16:52Z</time>
      </trkpt>
      <trkpt lat="41.0817100" lon="-3.4426200">
        <ele>1148.0</ele>
        <time>2020-09-29T12:16:53Z</time>
      </trkpt>
      <trkpt lat="41.0816980" lon="-3.4423150">
        <ele>1147.0</ele>
        <time>2020-09-29T12:16:54Z</time>
      </trkpt>
      <trkpt lat="41.0816980" lon="-3.4423150">
        <ele>1147.0</ele>
        <time>2020-09-29T12:16:55Z</time>
      </trkpt>
      <trkpt lat="41.0816880" lon="-3.4420030">
        <ele>1146.0</ele>
        <time>2020-09-29T12:16:56Z</time>
      </trkpt>
      <trkpt lat="41.0816880" lon="-3.4420030">
        <ele>1146.0</ele>
        <time>2020-09-29T12:16:57Z</time>
      </trkpt>
      <trkpt lat="41.0816830" lon="-3.4416900">
        <ele>1145.0</ele>
        <time>2020-09-29T12:16:58Z</time>
      </trkpt>
      <trkpt lat="41.0816830" lon="-3.4416900">
        <ele>1145.0</ele>
        <time>2020-09-29T12:16:59Z</time>
      </trkpt>
      <trkpt lat="41.0817120" lon="-3.4413850">
        <ele>1144.0</ele>
        <time>2020-09-29T12:17:00Z</time>
      </trkpt>
      <trkpt lat="41.0817120" lon="-3.4413850">
        <ele>1144.0</ele>
        <time>2020-09-29T12:17:01Z</time>
      </trkpt>
      <trkpt lat="41.0817020" lon="-3.4410950">
        <ele>1143.0</ele>
        <time>2020-09-29T12:17:02Z</time>
      </trkpt>
      <trkpt lat="41.0817020" lon="-3.4410950">
        <ele>1143.0</ele>
        <time>2020-09-29T12:17:03Z</time>
      </trkpt>
      <trkpt lat="41.0816120" lon="-3.4408680">
        <ele>1142.0</ele>
        <time>2020-09-29T12:17:04Z</time>
      </trkpt>
      <trkpt lat="41.0815430" lon="-3.4407920">
        <ele>1141.0</ele>
        <time>2020-09-29T12:17:05Z</time>
      </trkpt>
      <trkpt lat="41.0815430" lon="-3.4407920">
        <ele>1141.0</ele>
        <time>2020-09-29T12:17:06Z</time>
      </trkpt>
      <trkpt lat="41.0813550" lon="-3.4406530">
        <ele>1140.0</ele>
        <time>2020-09-29T12:17:07Z</time>
      </trkpt>
      <trkpt lat="41.0813550" lon="-3.4406530">
        <ele>1140.0</ele>
        <time>2020-09-29T12:17:08Z</time>
      </trkpt>
      <trkpt lat="41.0811750" lon="-3.4404950">
        <ele>1140.0</ele>
        <time>2020-09-29T12:17:09Z</time>
      </trkpt>
      <trkpt lat="41.0810950" lon="-3.4404020">
        <ele>1140.0</ele>
        <time>2020-09-29T12:17:10Z</time>
      </trkpt>
      <trkpt lat="41.0810950" lon="-3.4404020">
        <ele>1139.0</ele>
        <time>2020-09-29T12:17:11Z</time>
      </trkpt>
      <trkpt lat="41.0809580" lon="-3.4401900">
        <ele>1139.0</ele>
        <time>2020-09-29T12:17:12Z</time>
      </trkpt>
      <trkpt lat="41.0809000" lon="-3.4400820">
        <ele>1139.0</ele>
        <time>2020-09-29T12:17:13Z</time>
      </trkpt>
      <trkpt lat="41.0809000" lon="-3.4400820">
        <ele>1139.0</ele>
        <time>2020-09-29T12:17:14Z</time>
      </trkpt>
      <trkpt lat="41.0809000" lon="-3.4400820">
        <ele>1138.0</ele>
        <time>2020-09-29T12:17:15Z</time>
      </trkpt>
      <trkpt lat="41.0808480" lon="-3.4398370">
        <ele>1138.0</ele>
        <time>2020-09-29T12:17:16Z</time>
      </trkpt>
      <trkpt lat="41.0808650" lon="-3.4395970">
        <ele>1138.0</ele>
        <time>2020-09-29T12:17:17Z</time>
      </trkpt>
      <trkpt lat="41.0809020" lon="-3.4394950">
        <ele>1138.0</ele>
        <time>2020-09-29T12:17:18Z</time>
      </trkpt>
      <trkpt lat="41.0809020" lon="-3.4394950">
        <ele>1138.0</ele>
        <time>2020-09-29T12:17:19Z</time>
      </trkpt>
      <trkpt lat="41.0810030" lon="-3.4393120">
        <ele>1138.0</ele>
        <time>2020-09-29T12:17:20Z</time>
      </trkpt>
      <trkpt lat="41.0810030" lon="-3.4393120">
        <ele>1138.0</ele>
        <time>2020-09-29T12:17:21Z</time>
      </trkpt>
      <trkpt lat="41.0811370" lon="-3.4391770">
        <ele>1138.0</ele>
        <time>2020-09-29T12:17:22Z</time>
      </trkpt>
      <trkpt lat="41.0811370" lon="-3.4391770">
        <ele>1138.0</ele>
        <time>2020-09-29T12:17:23Z</time>
      </trkpt>
      <trkpt lat="41.0812870" lon="-3.4390800">
        <ele>1138.0</ele>
        <time>2020-09-29T12:17:24Z</time>
      </trkpt>
      <trkpt lat="41.0813550" lon="-3.4390350">
        <ele>1138.0</ele>
        <time>2020-09-29T12:17:25Z</time>
      </trkpt>
      <trkpt lat="41.0813550" lon="-3.4390350">
        <ele>1138.0</ele>
        <time>2020-09-29T12:17:26Z</time>
      </trkpt>
      <trkpt lat="41.0814970" lon="-3.4389470">
        <ele>1138.0</ele>
        <time>2020-09-29T12:17:27Z</time>
      </trkpt>
      <trkpt lat="41.0814970" lon="-3.4389470">
        <ele>1138.0</ele>
        <time>2020-09-29T12:17:28Z</time>
      </trkpt>
      <trkpt lat="41.0816320" lon="-3.4388630">
        <ele>1138.0</ele>
        <time>2020-09-29T12:17:29Z</time>
      </trkpt>
      <trkpt lat="41.0816320" lon="-3.4388630">
        <ele>1138.0</ele>
        <time>2020-09-29T12:17:30Z</time>
      </trkpt>
      <trkpt lat="41.0817530" lon="-3.4387730">
        <ele>1138.0</ele>
        <time>2020-09-29T12:17:31Z</time>
      </trkpt>
      <trkpt lat="41.0817530" lon="-3.4387730">
        <ele>1138.0</ele>
        <time>2020-09-29T12:17:32Z</time>
      </trkpt>
      <trkpt lat="41.0818520" lon="-3.4386620">
        <ele>1138.0</ele>
        <time>2020-09-29T12:17:33Z</time>
      </trkpt>
      <trkpt lat="41.0818520" lon="-3.4386620">
        <ele>1138.0</ele>
        <time>2020-09-29T12:17:34Z</time>
      </trkpt>
      <trkpt lat="41.0819220" lon="-3.4385030">
        <ele>1138.0</ele>
        <time>2020-09-29T12:17:35Z</time>
      </trkpt>
      <trkpt lat="41.0819420" lon="-3.4384070">
        <ele>1138.0</ele>
        <time>2020-09-29T12:17:36Z</time>
      </trkpt>
      <trkpt lat="41.0819420" lon="-3.4384070">
        <ele>1138.0</ele>
        <time>2020-09-29T12:17:37Z</time>
      </trkpt>
      <trkpt lat="41.0819580" lon="-3.4381980">
        <ele>1138.0</ele>
        <time>2020-09-29T12:17:38Z</time>
      </trkpt>
      <trkpt lat="41.0819580" lon="-3.4381980">
        <ele>1138.0</ele>
        <time>2020-09-29T12:17:39Z</time>
      </trkpt>
      <trkpt lat="41.0819580" lon="-3.4379730">
        <ele>1138.0</ele>
        <time>2020-09-29T12:17:40Z</time>
      </trkpt>
      <trkpt lat="41.0819580" lon="-3.4379730">
        <ele>1137.0</ele>
        <time>2020-09-29T12:17:41Z</time>
      </trkpt>
      <trkpt lat="41.0819830" lon="-3.4377420">
        <ele>1137.0</ele>
        <time>2020-09-29T12:17:42Z</time>
      </trkpt>
      <trkpt lat="41.0820130" lon="-3.4376280">
        <ele>1137.0</ele>
        <time>2020-09-29T12:17:43Z</time>
      </trkpt>
      <trkpt lat="41.0820130" lon="-3.4376280">
        <ele>1136.0</ele>
        <time>2020-09-29T12:17:44Z</time>
      </trkpt>
      <trkpt lat="41.0821250" lon="-3.4374320">
        <ele>1136.0</ele>
        <time>2020-09-29T12:17:45Z</time>
      </trkpt>
      <trkpt lat="41.0821250" lon="-3.4374320">
        <ele>1136.0</ele>
        <time>2020-09-29T12:17:46Z</time>
      </trkpt>
      <trkpt lat="41.0822680" lon="-3.4372580">
        <ele>1136.0</ele>
        <time>2020-09-29T12:17:47Z</time>
      </trkpt>
      <trkpt lat="41.0822680" lon="-3.4372580">
        <ele>1135.0</ele>
        <time>2020-09-29T12:17:48Z</time>
      </trkpt>
      <trkpt lat="41.0824150" lon="-3.4370820">
        <ele>1135.0</ele>
        <time>2020-09-29T12:17:49Z</time>
      </trkpt>
      <trkpt lat="41.0824150" lon="-3.4370820">
        <ele>1135.0</ele>
        <time>2020-09-29T12:17:50Z</time>
      </trkpt>
      <trkpt lat="41.0825670" lon="-3.4369200">
        <ele>1135.0</ele>
        <time>2020-09-29T12:17:51Z</time>
      </trkpt>
      <trkpt lat="41.0826430" lon="-3.4368520">
        <ele>1134.0</ele>
        <time>2020-09-29T12:17:52Z</time>
      </trkpt>
      <trkpt lat="41.0826430" lon="-3.4368520">
        <ele>1134.0</ele>
        <time>2020-09-29T12:17:53Z</time>
      </trkpt>
      <trkpt lat="41.0828030" lon="-3.4367270">
        <ele>1134.0</ele>
        <time>2020-09-29T12:17:54Z</time>
      </trkpt>
      <trkpt lat="41.0828030" lon="-3.4367270">
        <ele>1134.0</ele>
        <time>2020-09-29T12:17:55Z</time>
      </trkpt>
      <trkpt lat="41.0829470" lon="-3.4366000">
        <ele>1134.0</ele>
        <time>2020-09-29T12:17:56Z</time>
      </trkpt>
      <trkpt lat="41.0829470" lon="-3.4366000">
        <ele>1134.0</ele>
        <time>2020-09-29T12:17:57Z</time>
      </trkpt>
      <trkpt lat="41.0830820" lon="-3.4364650">
        <ele>1134.0</ele>
        <time>2020-09-29T12:17:58Z</time>
      </trkpt>
      <trkpt lat="41.0830820" lon="-3.4364650">
        <ele>1134.0</ele>
        <time>2020-09-29T12:17:59Z</time>
      </trkpt>
      <trkpt lat="41.0832080" lon="-3.4363200">
        <ele>1134.0</ele>
        <time>2020-09-29T12:18:00Z</time>
      </trkpt>
      <trkpt lat="41.0832080" lon="-3.4363200">
        <ele>1134.0</ele>
        <time>2020-09-29T12:18:01Z</time>
      </trkpt>
      <trkpt lat="41.0833230" lon="-3.4361750">
        <ele>1134.0</ele>
        <time>2020-09-29T12:18:02Z</time>
      </trkpt>
      <trkpt lat="41.0833770" lon="-3.4361000">
        <ele>1134.0</ele>
        <time>2020-09-29T12:18:03Z</time>
      </trkpt>
      <trkpt lat="41.0833770" lon="-3.4361000">
        <ele>1134.0</ele>
        <time>2020-09-29T12:18:04Z</time>
      </trkpt>
      <trkpt lat="41.0834900" lon="-3.4359530">
        <ele>1134.0</ele>
        <time>2020-09-29T12:18:05Z</time>
      </trkpt>
      <trkpt lat="41.0834900" lon="-3.4359530">
        <ele>1134.0</ele>
        <time>2020-09-29T12:18:06Z</time>
      </trkpt>
      <trkpt lat="41.0836000" lon="-3.4358080">
        <ele>1134.0</ele>
        <time>2020-09-29T12:18:07Z</time>
      </trkpt>
      <trkpt lat="41.0836000" lon="-3.4358080">
        <ele>1134.0</ele>
        <time>2020-09-29T12:18:08Z</time>
      </trkpt>
      <trkpt lat="41.0836930" lon="-3.4356550">
        <ele>1134.0</ele>
        <time>2020-09-29T12:18:09Z</time>
      </trkpt>
      <trkpt lat="41.0837350" lon="-3.4355680">
        <ele>1134.0</ele>
        <time>2020-09-29T12:18:10Z</time>
      </trkpt>
      <trkpt lat="41.0837350" lon="-3.4355680">
        <ele>1134.0</ele>
        <time>2020-09-29T12:18:11Z</time>
      </trkpt>
      <trkpt lat="41.0837600" lon="-3.4353730">
        <ele>1135.0</ele>
        <time>2020-09-29T12:18:12Z</time>
      </trkpt>
      <trkpt lat="41.0837420" lon="-3.4352750">
        <ele>1135.0</ele>
        <time>2020-09-29T12:18:13Z</time>
      </trkpt>
      <trkpt lat="41.0837420" lon="-3.4352750">
        <ele>1135.0</ele>
        <time>2020-09-29T12:18:14Z</time>
      </trkpt>
      <trkpt lat="41.0836630" lon="-3.4351000">
        <ele>1135.0</ele>
        <time>2020-09-29T12:18:15Z</time>
      </trkpt>
      <trkpt lat="41.0836170" lon="-3.4350100">
        <ele>1135.0</ele>
        <time>2020-09-29T12:18:16Z</time>
      </trkpt>
      <trkpt lat="41.0836170" lon="-3.4350100">
        <ele>1135.0</ele>
        <time>2020-09-29T12:18:17Z</time>
      </trkpt>
      <trkpt lat="41.0835230" lon="-3.4348130">
        <ele>1135.0</ele>
        <time>2020-09-29T12:18:18Z</time>
      </trkpt>
      <trkpt lat="41.0834820" lon="-3.4347100">
        <ele>1134.0</ele>
        <time>2020-09-29T12:18:19Z</time>
      </trkpt>
      <trkpt lat="41.0834820" lon="-3.4347100">
        <ele>1134.0</ele>
        <time>2020-09-29T12:18:20Z</time>
      </trkpt>
      <trkpt lat="41.0834300" lon="-3.4344900">
        <ele>1134.0</ele>
        <time>2020-09-29T12:18:21Z</time>
      </trkpt>
      <trkpt lat="41.0834300" lon="-3.4344900">
        <ele>1134.0</ele>
        <time>2020-09-29T12:18:22Z</time>
      </trkpt>
      <trkpt lat="41.0834100" lon="-3.4342600">
        <ele>1133.0</ele>
        <time>2020-09-29T12:18:23Z</time>
      </trkpt>
      <trkpt lat="41.0834100" lon="-3.4342600">
        <ele>1133.0</ele>
        <time>2020-09-29T12:18:24Z</time>
      </trkpt>
      <trkpt lat="41.0834100" lon="-3.4340270">
        <ele>1133.0</ele>
        <time>2020-09-29T12:18:25Z</time>
      </trkpt>
      <trkpt lat="41.0834170" lon="-3.4339100">
        <ele>1133.0</ele>
        <time>2020-09-29T12:18:26Z</time>
      </trkpt>
      <trkpt lat="41.0834170" lon="-3.4339100">
        <ele>1132.0</ele>
        <time>2020-09-29T12:18:27Z</time>
      </trkpt>
      <trkpt lat="41.0834500" lon="-3.4336750">
        <ele>1132.0</ele>
        <time>2020-09-29T12:18:28Z</time>
      </trkpt>
      <trkpt lat="41.0834500" lon="-3.4336750">
        <ele>1132.0</ele>
        <time>2020-09-29T12:18:29Z</time>
      </trkpt>
      <trkpt lat="41.0834950" lon="-3.4334450">
        <ele>1132.0</ele>
        <time>2020-09-29T12:18:30Z</time>
      </trkpt>
      <trkpt lat="41.0835200" lon="-3.4333280">
        <ele>1131.0</ele>
        <time>2020-09-29T12:18:31Z</time>
      </trkpt>
      <trkpt lat="41.0835200" lon="-3.4333280">
        <ele>1131.0</ele>
        <time>2020-09-29T12:18:32Z</time>
      </trkpt>
      <trkpt lat="41.0835720" lon="-3.4331020">
        <ele>1130.0</ele>
        <time>2020-09-29T12:18:33Z</time>
      </trkpt>
      <trkpt lat="41.0836030" lon="-3.4329920">
        <ele>1130.0</ele>
        <time>2020-09-29T12:18:34Z</time>
      </trkpt>
      <trkpt lat="41.0836030" lon="-3.4329920">
        <ele>1130.0</ele>
        <time>2020-09-29T12:18:35Z</time>
      </trkpt>
      <trkpt lat="41.0836800" lon="-3.4327770">
        <ele>1130.0</ele>
        <time>2020-09-29T12:18:36Z</time>
      </trkpt>
      <trkpt lat="41.0837230" lon="-3.4326720">
        <ele>1129.0</ele>
        <time>2020-09-29T12:18:37Z</time>
      </trkpt>
      <trkpt lat="41.0837230" lon="-3.4326720">
        <ele>1129.0</ele>
        <time>2020-09-29T12:18:38Z</time>
      </trkpt>
      <trkpt lat="41.0838220" lon="-3.4324650">
        <ele>1129.0</ele>
        <time>2020-09-29T12:18:39Z</time>
      </trkpt>
      <trkpt lat="41.0838220" lon="-3.4324650">
        <ele>1129.0</ele>
        <time>2020-09-29T12:18:40Z</time>
      </trkpt>
      <trkpt lat="41.0839280" lon="-3.4322630">
        <ele>1128.0</ele>
        <time>2020-09-29T12:18:41Z</time>
      </trkpt>
      <trkpt lat="41.0839830" lon="-3.4321630">
        <ele>1128.0</ele>
        <time>2020-09-29T12:18:42Z</time>
      </trkpt>
      <trkpt lat="41.0839830" lon="-3.4321630">
        <ele>1128.0</ele>
        <time>2020-09-29T12:18:43Z</time>
      </trkpt>
      <trkpt lat="41.0840700" lon="-3.4319500">
        <ele>1128.0</ele>
        <time>2020-09-29T12:18:44Z</time>
      </trkpt>
      <trkpt lat="41.0840700" lon="-3.4319500">
        <ele>1127.0</ele>
        <time>2020-09-29T12:18:45Z</time>
      </trkpt>
      <trkpt lat="41.0841000" lon="-3.4317030">
        <ele>1127.0</ele>
        <time>2020-09-29T12:18:46Z</time>
      </trkpt>
      <trkpt lat="41.0841000" lon="-3.4317030">
        <ele>1126.0</ele>
        <time>2020-09-29T12:18:47Z</time>
      </trkpt>
      <trkpt lat="41.0840680" lon="-3.4314450">
        <ele>1126.0</ele>
        <time>2020-09-29T12:18:48Z</time>
      </trkpt>
      <trkpt lat="41.0840330" lon="-3.4313220">
        <ele>1126.0</ele>
        <time>2020-09-29T12:18:49Z</time>
      </trkpt>
      <trkpt lat="41.0840330" lon="-3.4313220">
        <ele>1126.0</ele>
        <time>2020-09-29T12:18:50Z</time>
      </trkpt>
      <trkpt lat="41.0839030" lon="-3.4311250">
        <ele>1125.0</ele>
        <time>2020-09-29T12:18:51Z</time>
      </trkpt>
      <trkpt lat="41.0839030" lon="-3.4311250">
        <ele>1125.0</ele>
        <time>2020-09-29T12:18:52Z</time>
      </trkpt>
      <trkpt lat="41.0837450" lon="-3.4309550">
        <ele>1125.0</ele>
        <time>2020-09-29T12:18:53Z</time>
      </trkpt>
      <trkpt lat="41.0836720" lon="-3.4308600">
        <ele>1125.0</ele>
        <time>2020-09-29T12:18:54Z</time>
      </trkpt>
      <trkpt lat="41.0836080" lon="-3.4307520">
        <ele>1124.0</ele>
        <time>2020-09-29T12:18:55Z</time>
      </trkpt>
      <trkpt lat="41.0836080" lon="-3.4307520">
        <ele>1124.0</ele>
        <time>2020-09-29T12:18:56Z</time>
      </trkpt>
      <trkpt lat="41.0835100" lon="-3.4305130">
        <ele>1124.0</ele>
        <time>2020-09-29T12:18:57Z</time>
      </trkpt>
      <trkpt lat="41.0834820" lon="-3.4303820">
        <ele>1123.0</ele>
        <time>2020-09-29T12:18:58Z</time>
      </trkpt>
      <trkpt lat="41.0834820" lon="-3.4303820">
        <ele>1123.0</ele>
        <time>2020-09-29T12:18:59Z</time>
      </trkpt>
      <trkpt lat="41.0835070" lon="-3.4301280">
        <ele>1123.0</ele>
        <time>2020-09-29T12:19:00Z</time>
      </trkpt>
      <trkpt lat="41.0835570" lon="-3.4300220">
        <ele>1123.0</ele>
        <time>2020-09-29T12:19:01Z</time>
      </trkpt>
      <trkpt lat="41.0836170" lon="-3.4299300">
        <ele>1122.0</ele>
        <time>2020-09-29T12:19:02Z</time>
      </trkpt>
      <trkpt lat="41.0836170" lon="-3.4299300">
        <ele>1122.0</ele>
        <time>2020-09-29T12:19:03Z</time>
      </trkpt>
      <trkpt lat="41.0837600" lon="-3.4297780">
        <ele>1122.0</ele>
        <time>2020-09-29T12:19:04Z</time>
      </trkpt>
      <trkpt lat="41.0837600" lon="-3.4297780">
        <ele>1122.0</ele>
        <time>2020-09-29T12:19:05Z</time>
      </trkpt>
      <trkpt lat="41.0839250" lon="-3.4296680">
        <ele>1121.0</ele>
        <time>2020-09-29T12:19:06Z</time>
      </trkpt>
      <trkpt lat="41.0839250" lon="-3.4296680">
        <ele>1121.0</ele>
        <time>2020-09-29T12:19:07Z</time>
      </trkpt>
      <trkpt lat="41.0841030" lon="-3.4295720">
        <ele>1120.0</ele>
        <time>2020-09-29T12:19:08Z</time>
      </trkpt>
      <trkpt lat="41.0841030" lon="-3.4295720">
        <ele>1120.0</ele>
        <time>2020-09-29T12:19:09Z</time>
      </trkpt>
      <trkpt lat="41.0842820" lon="-3.4294700">
        <ele>1119.0</ele>
        <time>2020-09-29T12:19:10Z</time>
      </trkpt>
      <trkpt lat="41.0842820" lon="-3.4294700">
        <ele>1119.0</ele>
        <time>2020-09-29T12:19:11Z</time>
      </trkpt>
      <trkpt lat="41.0844480" lon="-3.4293470">
        <ele>1119.0</ele>
        <time>2020-09-29T12:19:12Z</time>
      </trkpt>
      <trkpt lat="41.0845320" lon="-3.4292900">
        <ele>1119.0</ele>
        <time>2020-09-29T12:19:13Z</time>
      </trkpt>
      <trkpt lat="41.0845320" lon="-3.4292900">
        <ele>1119.0</ele>
        <time>2020-09-29T12:19:14Z</time>
      </trkpt>
      <trkpt lat="41.0846970" lon="-3.4292350">
        <ele>1118.0</ele>
        <time>2020-09-29T12:19:15Z</time>
      </trkpt>
      <trkpt lat="41.0846970" lon="-3.4292350">
        <ele>1118.0</ele>
        <time>2020-09-29T12:19:16Z</time>
      </trkpt>
      <trkpt lat="41.0848480" lon="-3.4292600">
        <ele>1118.0</ele>
        <time>2020-09-29T12:19:17Z</time>
      </trkpt>
      <trkpt lat="41.0849220" lon="-3.4292770">
        <ele>1118.0</ele>
        <time>2020-09-29T12:19:18Z</time>
      </trkpt>
      <trkpt lat="41.0849880" lon="-3.4292880">
        <ele>1118.0</ele>
        <time>2020-09-29T12:19:19Z</time>
      </trkpt>
      <trkpt lat="41.0849880" lon="-3.4292880">
        <ele>1118.0</ele>
        <time>2020-09-29T12:19:20Z</time>
      </trkpt>
      <trkpt lat="41.0851000" lon="-3.4293070">
        <ele>1119.0</ele>
        <time>2020-09-29T12:19:21Z</time>
      </trkpt>
      <trkpt lat="41.0851000" lon="-3.4293070">
        <ele>1119.0</ele>
        <time>2020-09-29T12:19:22Z</time>
      </trkpt>
      <trkpt lat="41.0851880" lon="-3.4293270">
        <ele>1120.0</ele>
        <time>2020-09-29T12:19:23Z</time>
      </trkpt>
      <trkpt lat="41.0852270" lon="-3.4293330">
        <ele>1120.0</ele>
        <time>2020-09-29T12:19:24Z</time>
      </trkpt>
      <trkpt lat="41.0852650" lon="-3.4293430">
        <ele>1120.0</ele>
        <time>2020-09-29T12:19:25Z</time>
      </trkpt>
      <trkpt lat="41.0852650" lon="-3.4293430">
        <ele>1120.0</ele>
        <time>2020-09-29T12:19:26Z</time>
      </trkpt>
      <trkpt lat="41.0853380" lon="-3.4293620">
        <ele>1121.0</ele>
        <time>2020-09-29T12:19:27Z</time>
      </trkpt>
      <trkpt lat="41.0853730" lon="-3.4293680">
        <ele>1121.0</ele>
        <time>2020-09-29T12:19:28Z</time>
      </trkpt>
      <trkpt lat="41.0853730" lon="-3.4293680">
        <ele>1121.0</ele>
        <time>2020-09-29T12:19:29Z</time>
      </trkpt>
      <trkpt lat="41.0854430" lon="-3.4293880">
        <ele>1121.0</ele>
        <time>2020-09-29T12:19:30Z</time>
      </trkpt>
      <trkpt lat="41.0854430" lon="-3.4293880">
        <ele>1122.0</ele>
        <time>2020-09-29T12:19:31Z</time>
      </trkpt>
      <trkpt lat="41.0855070" lon="-3.4294180">
        <ele>1122.0</ele>
        <time>2020-09-29T12:19:32Z</time>
      </trkpt>
      <trkpt lat="41.0855070" lon="-3.4294180">
        <ele>1122.0</ele>
        <time>2020-09-29T12:19:33Z</time>
      </trkpt>
      <trkpt lat="41.0855700" lon="-3.4294500">
        <ele>1122.0</ele>
        <time>2020-09-29T12:19:34Z</time>
      </trkpt>
      <trkpt lat="41.0855980" lon="-3.4294620">
        <ele>1123.0</ele>
        <time>2020-09-29T12:19:35Z</time>
      </trkpt>
      <trkpt lat="41.0855980" lon="-3.4294620">
        <ele>1123.0</ele>
        <time>2020-09-29T12:19:36Z</time>
      </trkpt>
      <trkpt lat="41.0856500" lon="-3.4294880">
        <ele>1123.0</ele>
        <time>2020-09-29T12:19:37Z</time>
      </trkpt>
      <trkpt lat="41.0856500" lon="-3.4294880">
        <ele>1124.0</ele>
        <time>2020-09-29T12:19:38Z</time>
      </trkpt>
      <trkpt lat="41.0857030" lon="-3.4295230">
        <ele>1124.0</ele>
        <time>2020-09-29T12:19:39Z</time>
      </trkpt>
      <trkpt lat="41.0857030" lon="-3.4295230">
        <ele>1124.0</ele>
        <time>2020-09-29T12:19:40Z</time>
      </trkpt>
      <trkpt lat="41.0857550" lon="-3.4295580">
        <ele>1124.0</ele>
        <time>2020-09-29T12:19:41Z</time>
      </trkpt>
      <trkpt lat="41.0857550" lon="-3.4295580">
        <ele>1125.0</ele>
        <time>2020-09-29T12:19:42Z</time>
      </trkpt>
      <trkpt lat="41.0858080" lon="-3.4295870">
        <ele>1125.0</ele>
        <time>2020-09-29T12:19:43Z</time>
      </trkpt>
      <trkpt lat="41.0858080" lon="-3.4295870">
        <ele>1125.0</ele>
        <time>2020-09-29T12:19:44Z</time>
      </trkpt>
      <trkpt lat="41.0858600" lon="-3.4296130">
        <ele>1125.0</ele>
        <time>2020-09-29T12:19:45Z</time>
      </trkpt>
      <trkpt lat="41.0858600" lon="-3.4296130">
        <ele>1126.0</ele>
        <time>2020-09-29T12:19:46Z</time>
      </trkpt>
      <trkpt lat="41.0859050" lon="-3.4296300">
        <ele>1126.0</ele>
        <time>2020-09-29T12:19:47Z</time>
      </trkpt>
      <trkpt lat="41.0859250" lon="-3.4296300">
        <ele>1126.0</ele>
        <time>2020-09-29T12:19:48Z</time>
      </trkpt>
      <trkpt lat="41.0859250" lon="-3.4296300">
        <ele>1126.0</ele>
        <time>2020-09-29T12:19:49Z</time>
      </trkpt>
      <trkpt lat="41.0859720" lon="-3.4296280">
        <ele>1127.0</ele>
        <time>2020-09-29T12:19:50Z</time>
      </trkpt>
      <trkpt lat="41.0859720" lon="-3.4296280">
        <ele>1127.0</ele>
        <time>2020-09-29T12:19:51Z</time>
      </trkpt>
      <trkpt lat="41.0860200" lon="-3.4296130">
        <ele>1127.0</ele>
        <time>2020-09-29T12:19:52Z</time>
      </trkpt>
      <trkpt lat="41.0860200" lon="-3.4296130">
        <ele>1127.0</ele>
        <time>2020-09-29T12:19:53Z</time>
      </trkpt>
      <trkpt lat="41.0860650" lon="-3.4295930">
        <ele>1128.0</ele>
        <time>2020-09-29T12:19:54Z</time>
      </trkpt>
      <trkpt lat="41.0860870" lon="-3.4295830">
        <ele>1128.0</ele>
        <time>2020-09-29T12:19:55Z</time>
      </trkpt>
      <trkpt lat="41.0861070" lon="-3.4295700">
        <ele>1128.0</ele>
        <time>2020-09-29T12:19:56Z</time>
      </trkpt>
      <trkpt lat="41.0861070" lon="-3.4295700">
        <ele>1128.0</ele>
        <time>2020-09-29T12:19:57Z</time>
      </trkpt>
      <trkpt lat="41.0861470" lon="-3.4295350">
        <ele>1129.0</ele>
        <time>2020-09-29T12:19:58Z</time>
      </trkpt>
      <trkpt lat="41.0861470" lon="-3.4295350">
        <ele>1129.0</ele>
        <time>2020-09-29T12:19:59Z</time>
      </trkpt>
      <trkpt lat="41.0861850" lon="-3.4295020">
        <ele>1129.0</ele>
        <time>2020-09-29T12:20:00Z</time>
      </trkpt>
      <trkpt lat="41.0861850" lon="-3.4295020">
        <ele>1129.0</ele>
        <time>2020-09-29T12:20:01Z</time>
      </trkpt>
      <trkpt lat="41.0862200" lon="-3.4294580">
        <ele>1130.0</ele>
        <time>2020-09-29T12:20:02Z</time>
      </trkpt>
      <trkpt lat="41.0862370" lon="-3.4294370">
        <ele>1130.0</ele>
        <time>2020-09-29T12:20:03Z</time>
      </trkpt>
      <trkpt lat="41.0862520" lon="-3.4294170">
        <ele>1130.0</ele>
        <time>2020-09-29T12:20:04Z</time>
      </trkpt>
      <trkpt lat="41.0862520" lon="-3.4294170">
        <ele>1130.0</ele>
        <time>2020-09-29T12:20:05Z</time>
      </trkpt>
      <trkpt lat="41.0862880" lon="-3.4293730">
        <ele>1131.0</ele>
        <time>2020-09-29T12:20:06Z</time>
      </trkpt>
      <trkpt lat="41.0863050" lon="-3.4293550">
        <ele>1131.0</ele>
        <time>2020-09-29T12:20:07Z</time>
      </trkpt>
      <trkpt lat="41.0863050" lon="-3.4293550">
        <ele>1131.0</ele>
        <time>2020-09-29T12:20:08Z</time>
      </trkpt>
      <trkpt lat="41.0863350" lon="-3.4293130">
        <ele>1132.0</ele>
        <time>2020-09-29T12:20:09Z</time>
      </trkpt>
      <trkpt lat="41.0863350" lon="-3.4293130">
        <ele>1132.0</ele>
        <time>2020-09-29T12:20:10Z</time>
      </trkpt>
      <trkpt lat="41.0863670" lon="-3.4292730">
        <ele>1130.0</ele>
        <time>2020-09-29T12:20:11Z</time>
      </trkpt>
      <trkpt lat="41.0863670" lon="-3.4292730">
        <ele>1130.0</ele>
        <time>2020-09-29T12:20:12Z</time>
      </trkpt>
      <trkpt lat="41.0863970" lon="-3.4292350">
        <ele>1131.0</ele>
        <time>2020-09-29T12:20:13Z</time>
      </trkpt>
      <trkpt lat="41.0863970" lon="-3.4292350">
        <ele>1131.0</ele>
        <time>2020-09-29T12:20:14Z</time>
      </trkpt>
      <trkpt lat="41.0864230" lon="-3.4291920">
        <ele>1133.0</ele>
        <time>2020-09-29T12:20:15Z</time>
      </trkpt>
      <trkpt lat="41.0864380" lon="-3.4291700">
        <ele>1133.0</ele>
        <time>2020-09-29T12:20:16Z</time>
      </trkpt>
      <trkpt lat="41.0864530" lon="-3.4291520">
        <ele>1133.0</ele>
        <time>2020-09-29T12:20:17Z</time>
      </trkpt>
      <trkpt lat="41.0864530" lon="-3.4291520">
        <ele>1133.0</ele>
        <time>2020-09-29T12:20:18Z</time>
      </trkpt>
      <trkpt lat="41.0864800" lon="-3.4291130">
        <ele>1134.0</ele>
        <time>2020-09-29T12:20:19Z</time>
      </trkpt>
      <trkpt lat="41.0864800" lon="-3.4291130">
        <ele>1134.0</ele>
        <time>2020-09-29T12:20:20Z</time>
      </trkpt>
      <trkpt lat="41.0865050" lon="-3.4290720">
        <ele>1134.0</ele>
        <time>2020-09-29T12:20:21Z</time>
      </trkpt>
      <trkpt lat="41.0865050" lon="-3.4290720">
        <ele>1134.0</ele>
        <time>2020-09-29T12:20:22Z</time>
      </trkpt>
      <trkpt lat="41.0865350" lon="-3.4290330">
        <ele>1135.0</ele>
        <time>2020-09-29T12:20:23Z</time>
      </trkpt>
      <trkpt lat="41.0865350" lon="-3.4290330">
        <ele>1135.0</ele>
        <time>2020-09-29T12:20:24Z</time>
      </trkpt>
      <trkpt lat="41.0865680" lon="-3.4289980">
        <ele>1135.0</ele>
        <time>2020-09-29T12:20:25Z</time>
      </trkpt>
      <trkpt lat="41.0865680" lon="-3.4289980">
        <ele>1135.0</ele>
        <time>2020-09-29T12:20:26Z</time>
      </trkpt>
      <trkpt lat="41.0866020" lon="-3.4289630">
        <ele>1136.0</ele>
        <time>2020-09-29T12:20:27Z</time>
      </trkpt>
      <trkpt lat="41.0866020" lon="-3.4289630">
        <ele>1136.0</ele>
        <time>2020-09-29T12:20:28Z</time>
      </trkpt>
      <trkpt lat="41.0866320" lon="-3.4289320">
        <ele>1136.0</ele>
        <time>2020-09-29T12:20:29Z</time>
      </trkpt>
      <trkpt lat="41.0866320" lon="-3.4289320">
        <ele>1136.0</ele>
        <time>2020-09-29T12:20:30Z</time>
      </trkpt>
      <trkpt lat="41.0866670" lon="-3.4288920">
        <ele>1136.0</ele>
        <time>2020-09-29T12:20:31Z</time>
      </trkpt>
      <trkpt lat="41.0866670" lon="-3.4288920">
        <ele>1136.0</ele>
        <time>2020-09-29T12:20:32Z</time>
      </trkpt>
      <trkpt lat="41.0867000" lon="-3.4288600">
        <ele>1136.0</ele>
        <time>2020-09-29T12:20:33Z</time>
      </trkpt>
      <trkpt lat="41.0867000" lon="-3.4288600">
        <ele>1136.0</ele>
        <time>2020-09-29T12:20:34Z</time>
      </trkpt>
      <trkpt lat="41.0867320" lon="-3.4288320">
        <ele>1136.0</ele>
        <time>2020-09-29T12:20:35Z</time>
      </trkpt>
      <trkpt lat="41.0867520" lon="-3.4288200">
        <ele>1137.0</ele>
        <time>2020-09-29T12:20:36Z</time>
      </trkpt>
      <trkpt lat="41.0867520" lon="-3.4288200">
        <ele>1137.0</ele>
        <time>2020-09-29T12:20:37Z</time>
      </trkpt>
      <trkpt lat="41.0867850" lon="-3.4287920">
        <ele>1137.0</ele>
        <time>2020-09-29T12:20:38Z</time>
      </trkpt>
      <trkpt lat="41.0867850" lon="-3.4287920">
        <ele>1137.0</ele>
        <time>2020-09-29T12:20:39Z</time>
      </trkpt>
      <trkpt lat="41.0868150" lon="-3.4287570">
        <ele>1138.0</ele>
        <time>2020-09-29T12:20:40Z</time>
      </trkpt>
      <trkpt lat="41.0868150" lon="-3.4287570">
        <ele>1138.0</ele>
        <time>2020-09-29T12:20:41Z</time>
      </trkpt>
      <trkpt lat="41.0868530" lon="-3.4287230">
        <ele>1138.0</ele>
        <time>2020-09-29T12:20:42Z</time>
      </trkpt>
      <trkpt lat="41.0868700" lon="-3.4287120">
        <ele>1138.0</ele>
        <time>2020-09-29T12:20:43Z</time>
      </trkpt>
      <trkpt lat="41.0868700" lon="-3.4287120">
        <ele>1139.0</ele>
        <time>2020-09-29T12:20:44Z</time>
      </trkpt>
      <trkpt lat="41.0869030" lon="-3.4286830">
        <ele>1139.0</ele>
        <time>2020-09-29T12:20:45Z</time>
      </trkpt>
      <trkpt lat="41.0869030" lon="-3.4286830">
        <ele>1139.0</ele>
        <time>2020-09-29T12:20:46Z</time>
      </trkpt>
      <trkpt lat="41.0869330" lon="-3.4286530">
        <ele>1139.0</ele>
        <time>2020-09-29T12:20:47Z</time>
      </trkpt>
      <trkpt lat="41.0869330" lon="-3.4286530">
        <ele>1139.0</ele>
        <time>2020-09-29T12:20:48Z</time>
      </trkpt>
      <trkpt lat="41.0869670" lon="-3.4286270">
        <ele>1140.0</ele>
        <time>2020-09-29T12:20:49Z</time>
      </trkpt>
      <trkpt lat="41.0869830" lon="-3.4286150">
        <ele>1140.0</ele>
        <time>2020-09-29T12:20:50Z</time>
      </trkpt>
      <trkpt lat="41.0869830" lon="-3.4286150">
        <ele>1140.0</ele>
        <time>2020-09-29T12:20:51Z</time>
      </trkpt>
      <trkpt lat="41.0870150" lon="-3.4285800">
        <ele>1140.0</ele>
        <time>2020-09-29T12:20:52Z</time>
      </trkpt>
      <trkpt lat="41.0870150" lon="-3.4285800">
        <ele>1140.0</ele>
        <time>2020-09-29T12:20:53Z</time>
      </trkpt>
      <trkpt lat="41.0870450" lon="-3.4285530">
        <ele>1140.0</ele>
        <time>2020-09-29T12:20:54Z</time>
      </trkpt>
      <trkpt lat="41.0870600" lon="-3.4285420">
        <ele>1141.0</ele>
        <time>2020-09-29T12:20:55Z</time>
      </trkpt>
      <trkpt lat="41.0870600" lon="-3.4285420">
        <ele>1141.0</ele>
        <time>2020-09-29T12:20:56Z</time>
      </trkpt>
      <trkpt lat="41.0870950" lon="-3.4285230">
        <ele>1142.0</ele>
        <time>2020-09-29T12:20:57Z</time>
      </trkpt>
      <trkpt lat="41.0870950" lon="-3.4285230">
        <ele>1142.0</ele>
        <time>2020-09-29T12:20:58Z</time>
      </trkpt>
      <trkpt lat="41.0871350" lon="-3.4285050">
        <ele>1142.0</ele>
        <time>2020-09-29T12:20:59Z</time>
      </trkpt>
      <trkpt lat="41.0871350" lon="-3.4285050">
        <ele>1142.0</ele>
        <time>2020-09-29T12:21:00Z</time>
      </trkpt>
      <trkpt lat="41.0871780" lon="-3.4284800">
        <ele>1142.0</ele>
        <time>2020-09-29T12:21:01Z</time>
      </trkpt>
      <trkpt lat="41.0871780" lon="-3.4284800">
        <ele>1142.0</ele>
        <time>2020-09-29T12:21:02Z</time>
      </trkpt>
      <trkpt lat="41.0872250" lon="-3.4284580">
        <ele>1142.0</ele>
        <time>2020-09-29T12:21:03Z</time>
      </trkpt>
      <trkpt lat="41.0872470" lon="-3.4284500">
        <ele>1142.0</ele>
        <time>2020-09-29T12:21:04Z</time>
      </trkpt>
      <trkpt lat="41.0872470" lon="-3.4284500">
        <ele>1142.0</ele>
        <time>2020-09-29T12:21:05Z</time>
      </trkpt>
      <trkpt lat="41.0872930" lon="-3.4284370">
        <ele>1142.0</ele>
        <time>2020-09-29T12:21:06Z</time>
      </trkpt>
      <trkpt lat="41.0872930" lon="-3.4284370">
        <ele>1143.0</ele>
        <time>2020-09-29T12:21:07Z</time>
      </trkpt>
      <trkpt lat="41.0873380" lon="-3.4284250">
        <ele>1143.0</ele>
        <time>2020-09-29T12:21:08Z</time>
      </trkpt>
      <trkpt lat="41.0873380" lon="-3.4284250">
        <ele>1143.0</ele>
        <time>2020-09-29T12:21:09Z</time>
      </trkpt>
      <trkpt lat="41.0873870" lon="-3.4284170">
        <ele>1143.0</ele>
        <time>2020-09-29T12:21:10Z</time>
      </trkpt>
      <trkpt lat="41.0874080" lon="-3.4284120">
        <ele>1143.0</ele>
        <time>2020-09-29T12:21:11Z</time>
      </trkpt>
      <trkpt lat="41.0874300" lon="-3.4284120">
        <ele>1143.0</ele>
        <time>2020-09-29T12:21:12Z</time>
      </trkpt>
      <trkpt lat="41.0874300" lon="-3.4284120">
        <ele>1144.0</ele>
        <time>2020-09-29T12:21:13Z</time>
      </trkpt>
      <trkpt lat="41.0874530" lon="-3.4284100">
        <ele>1144.0</ele>
        <time>2020-09-29T12:21:14Z</time>
      </trkpt>
      <trkpt lat="41.0875000" lon="-3.4283970">
        <ele>1144.0</ele>
        <time>2020-09-29T12:21:15Z</time>
      </trkpt>
      <trkpt lat="41.0875220" lon="-3.4283870">
        <ele>1144.0</ele>
        <time>2020-09-29T12:21:16Z</time>
      </trkpt>
      <trkpt lat="41.0875220" lon="-3.4283870">
        <ele>1144.0</ele>
        <time>2020-09-29T12:21:17Z</time>
      </trkpt>
      <trkpt lat="41.0875670" lon="-3.4283650">
        <ele>1144.0</ele>
        <time>2020-09-29T12:21:18Z</time>
      </trkpt>
      <trkpt lat="41.0875670" lon="-3.4283650">
        <ele>1145.0</ele>
        <time>2020-09-29T12:21:19Z</time>
      </trkpt>
      <trkpt lat="41.0876120" lon="-3.4283420">
        <ele>1145.0</ele>
        <time>2020-09-29T12:21:20Z</time>
      </trkpt>
      <trkpt lat="41.0876120" lon="-3.4283420">
        <ele>1145.0</ele>
        <time>2020-09-29T12:21:21Z</time>
      </trkpt>
      <trkpt lat="41.0876620" lon="-3.4283100">
        <ele>1145.0</ele>
        <time>2020-09-29T12:21:22Z</time>
      </trkpt>
      <trkpt lat="41.0876620" lon="-3.4283100">
        <ele>1146.0</ele>
        <time>2020-09-29T12:21:23Z</time>
      </trkpt>
      <trkpt lat="41.0877000" lon="-3.4282880">
        <ele>1146.0</ele>
        <time>2020-09-29T12:21:24Z</time>
      </trkpt>
      <trkpt lat="41.0877000" lon="-3.4282880">
        <ele>1146.0</ele>
        <time>2020-09-29T12:21:25Z</time>
      </trkpt>
      <trkpt lat="41.0877450" lon="-3.4282600">
        <ele>1146.0</ele>
        <time>2020-09-29T12:21:26Z</time>
      </trkpt>
      <trkpt lat="41.0877450" lon="-3.4282600">
        <ele>1146.0</ele>
        <time>2020-09-29T12:21:27Z</time>
      </trkpt>
      <trkpt lat="41.0877870" lon="-3.4282250">
        <ele>1147.0</ele>
        <time>2020-09-29T12:21:28Z</time>
      </trkpt>
      <trkpt lat="41.0877870" lon="-3.4282250">
        <ele>1147.0</ele>
        <time>2020-09-29T12:21:29Z</time>
      </trkpt>
      <trkpt lat="41.0878300" lon="-3.4281850">
        <ele>1147.0</ele>
        <time>2020-09-29T12:21:30Z</time>
      </trkpt>
      <trkpt lat="41.0878530" lon="-3.4281680">
        <ele>1147.0</ele>
        <time>2020-09-29T12:21:31Z</time>
      </trkpt>
      <trkpt lat="41.0878530" lon="-3.4281680">
        <ele>1147.0</ele>
        <time>2020-09-29T12:21:32Z</time>
      </trkpt>
      <trkpt lat="41.0879000" lon="-3.4281320">
        <ele>1147.0</ele>
        <time>2020-09-29T12:21:33Z</time>
      </trkpt>
      <trkpt lat="41.0879200" lon="-3.4281150">
        <ele>1147.0</ele>
        <time>2020-09-29T12:21:34Z</time>
      </trkpt>
      <trkpt lat="41.0879200" lon="-3.4281150">
        <ele>1147.0</ele>
        <time>2020-09-29T12:21:35Z</time>
      </trkpt>
      <trkpt lat="41.0879600" lon="-3.4280780">
        <ele>1147.0</ele>
        <time>2020-09-29T12:21:36Z</time>
      </trkpt>
      <trkpt lat="41.0879830" lon="-3.4280630">
        <ele>1147.0</ele>
        <time>2020-09-29T12:21:37Z</time>
      </trkpt>
      <trkpt lat="41.0879830" lon="-3.4280630">
        <ele>1148.0</ele>
        <time>2020-09-29T12:21:38Z</time>
      </trkpt>
      <trkpt lat="41.0880300" lon="-3.4280300">
        <ele>1148.0</ele>
        <time>2020-09-29T12:21:39Z</time>
      </trkpt>
      <trkpt lat="41.0880500" lon="-3.4280120">
        <ele>1148.0</ele>
        <time>2020-09-29T12:21:40Z</time>
      </trkpt>
      <trkpt lat="41.0880500" lon="-3.4280120">
        <ele>1148.0</ele>
        <time>2020-09-29T12:21:41Z</time>
      </trkpt>
      <trkpt lat="41.0880900" lon="-3.4279730">
        <ele>1149.0</ele>
        <time>2020-09-29T12:21:42Z</time>
      </trkpt>
      <trkpt lat="41.0881080" lon="-3.4279570">
        <ele>1149.0</ele>
        <time>2020-09-29T12:21:43Z</time>
      </trkpt>
      <trkpt lat="41.0881080" lon="-3.4279570">
        <ele>1149.0</ele>
        <time>2020-09-29T12:21:44Z</time>
      </trkpt>
      <trkpt lat="41.0881500" lon="-3.4279270">
        <ele>1149.0</ele>
        <time>2020-09-29T12:21:45Z</time>
      </trkpt>
      <trkpt lat="41.0881500" lon="-3.4279270">
        <ele>1150.0</ele>
        <time>2020-09-29T12:21:46Z</time>
      </trkpt>
      <trkpt lat="41.0881900" lon="-3.4278950">
        <ele>1150.0</ele>
        <time>2020-09-29T12:21:47Z</time>
      </trkpt>
      <trkpt lat="41.0882100" lon="-3.4278780">
        <ele>1150.0</ele>
        <time>2020-09-29T12:21:48Z</time>
      </trkpt>
      <trkpt lat="41.0882100" lon="-3.4278780">
        <ele>1150.0</ele>
        <time>2020-09-29T12:21:49Z</time>
      </trkpt>
      <trkpt lat="41.0882480" lon="-3.4278450">
        <ele>1150.0</ele>
        <time>2020-09-29T12:21:50Z</time>
      </trkpt>
      <trkpt lat="41.0882480" lon="-3.4278450">
        <ele>1150.0</ele>
        <time>2020-09-29T12:21:51Z</time>
      </trkpt>
      <trkpt lat="41.0882870" lon="-3.4278130">
        <ele>1151.0</ele>
        <time>2020-09-29T12:21:52Z</time>
      </trkpt>
      <trkpt lat="41.0883020" lon="-3.4277970">
        <ele>1151.0</ele>
        <time>2020-09-29T12:21:53Z</time>
      </trkpt>
      <trkpt lat="41.0883020" lon="-3.4277970">
        <ele>1151.0</ele>
        <time>2020-09-29T12:21:54Z</time>
      </trkpt>
      <trkpt lat="41.0883470" lon="-3.4277770">
        <ele>1151.0</ele>
        <time>2020-09-29T12:21:55Z</time>
      </trkpt>
      <trkpt lat="41.0883700" lon="-3.4277620">
        <ele>1152.0</ele>
        <time>2020-09-29T12:21:56Z</time>
      </trkpt>
      <trkpt lat="41.0883700" lon="-3.4277620">
        <ele>1152.0</ele>
        <time>2020-09-29T12:21:57Z</time>
      </trkpt>
      <trkpt lat="41.0884120" lon="-3.4277450">
        <ele>1152.0</ele>
        <time>2020-09-29T12:21:58Z</time>
      </trkpt>
      <trkpt lat="41.0884120" lon="-3.4277450">
        <ele>1152.0</ele>
        <time>2020-09-29T12:21:59Z</time>
      </trkpt>
      <trkpt lat="41.0884600" lon="-3.4277400">
        <ele>1152.0</ele>
        <time>2020-09-29T12:22:00Z</time>
      </trkpt>
      <trkpt lat="41.0884850" lon="-3.4277330">
        <ele>1152.0</ele>
        <time>2020-09-29T12:22:01Z</time>
      </trkpt>
      <trkpt lat="41.0884850" lon="-3.4277330">
        <ele>1152.0</ele>
        <time>2020-09-29T12:22:02Z</time>
      </trkpt>
      <trkpt lat="41.0885380" lon="-3.4277200">
        <ele>1153.0</ele>
        <time>2020-09-29T12:22:03Z</time>
      </trkpt>
      <trkpt lat="41.0885650" lon="-3.4277120">
        <ele>1153.0</ele>
        <time>2020-09-29T12:22:04Z</time>
      </trkpt>
      <trkpt lat="41.0885650" lon="-3.4277120">
        <ele>1153.0</ele>
        <time>2020-09-29T12:22:05Z</time>
      </trkpt>
      <trkpt lat="41.0886200" lon="-3.4276980">
        <ele>1153.0</ele>
        <time>2020-09-29T12:22:06Z</time>
      </trkpt>
      <trkpt lat="41.0886200" lon="-3.4276980">
        <ele>1154.0</ele>
        <time>2020-09-29T12:22:07Z</time>
      </trkpt>
      <trkpt lat="41.0886650" lon="-3.4276830">
        <ele>1154.0</ele>
        <time>2020-09-29T12:22:08Z</time>
      </trkpt>
      <trkpt lat="41.0886650" lon="-3.4276830">
        <ele>1154.0</ele>
        <time>2020-09-29T12:22:09Z</time>
      </trkpt>
      <trkpt lat="41.0887130" lon="-3.4276680">
        <ele>1154.0</ele>
        <time>2020-09-29T12:22:10Z</time>
      </trkpt>
      <trkpt lat="41.0887130" lon="-3.4276680">
        <ele>1155.0</ele>
        <time>2020-09-29T12:22:11Z</time>
      </trkpt>
      <trkpt lat="41.0887620" lon="-3.4276500">
        <ele>1155.0</ele>
        <time>2020-09-29T12:22:12Z</time>
      </trkpt>
      <trkpt lat="41.0887870" lon="-3.4276400">
        <ele>1155.0</ele>
        <time>2020-09-29T12:22:13Z</time>
      </trkpt>
      <trkpt lat="41.0888130" lon="-3.4276300">
        <ele>1155.0</ele>
        <time>2020-09-29T12:22:14Z</time>
      </trkpt>
      <trkpt lat="41.0888130" lon="-3.4276300">
        <ele>1156.0</ele>
        <time>2020-09-29T12:22:15Z</time>
      </trkpt>
      <trkpt lat="41.0888670" lon="-3.4276130">
        <ele>1156.0</ele>
        <time>2020-09-29T12:22:16Z</time>
      </trkpt>
      <trkpt lat="41.0888930" lon="-3.4276080">
        <ele>1156.0</ele>
        <time>2020-09-29T12:22:17Z</time>
      </trkpt>
      <trkpt lat="41.0888930" lon="-3.4276080">
        <ele>1156.0</ele>
        <time>2020-09-29T12:22:18Z</time>
      </trkpt>
      <trkpt lat="41.0889450" lon="-3.4275970">
        <ele>1157.0</ele>
        <time>2020-09-29T12:22:19Z</time>
      </trkpt>
      <trkpt lat="41.0889680" lon="-3.4275950">
        <ele>1157.0</ele>
        <time>2020-09-29T12:22:20Z</time>
      </trkpt>
      <trkpt lat="41.0889680" lon="-3.4275950">
        <ele>1157.0</ele>
        <time>2020-09-29T12:22:21Z</time>
      </trkpt>
      <trkpt lat="41.0890250" lon="-3.4275920">
        <ele>1157.0</ele>
        <time>2020-09-29T12:22:22Z</time>
      </trkpt>
      <trkpt lat="41.0890520" lon="-3.4275870">
        <ele>1157.0</ele>
        <time>2020-09-29T12:22:23Z</time>
      </trkpt>
      <trkpt lat="41.0890770" lon="-3.4275880">
        <ele>1157.0</ele>
        <time>2020-09-29T12:22:24Z</time>
      </trkpt>
      <trkpt lat="41.0891000" lon="-3.4275920">
        <ele>1157.0</ele>
        <time>2020-09-29T12:22:25Z</time>
      </trkpt>
      <trkpt lat="41.0891000" lon="-3.4275920">
        <ele>1157.0</ele>
        <time>2020-09-29T12:22:26Z</time>
      </trkpt>
      <trkpt lat="41.0891500" lon="-3.4276080">
        <ele>1157.0</ele>
        <time>2020-09-29T12:22:27Z</time>
      </trkpt>
      <trkpt lat="41.0891750" lon="-3.4276200">
        <ele>1157.0</ele>
        <time>2020-09-29T12:22:28Z</time>
      </trkpt>
      <trkpt lat="41.0891750" lon="-3.4276200">
        <ele>1158.0</ele>
        <time>2020-09-29T12:22:29Z</time>
      </trkpt>
      <trkpt lat="41.0892250" lon="-3.4276350">
        <ele>1158.0</ele>
        <time>2020-09-29T12:22:30Z</time>
      </trkpt>
      <trkpt lat="41.0892250" lon="-3.4276350">
        <ele>1158.0</ele>
        <time>2020-09-29T12:22:31Z</time>
      </trkpt>
      <trkpt lat="41.0892720" lon="-3.4276530">
        <ele>1158.0</ele>
        <time>2020-09-29T12:22:32Z</time>
      </trkpt>
      <trkpt lat="41.0892720" lon="-3.4276530">
        <ele>1159.0</ele>
        <time>2020-09-29T12:22:33Z</time>
      </trkpt>
      <trkpt lat="41.0893180" lon="-3.4276770">
        <ele>1159.0</ele>
        <time>2020-09-29T12:22:34Z</time>
      </trkpt>
      <trkpt lat="41.0893430" lon="-3.4276870">
        <ele>1159.0</ele>
        <time>2020-09-29T12:22:35Z</time>
      </trkpt>
      <trkpt lat="41.0893430" lon="-3.4276870">
        <ele>1159.0</ele>
        <time>2020-09-29T12:22:36Z</time>
      </trkpt>
      <trkpt lat="41.0893930" lon="-3.4277070">
        <ele>1160.0</ele>
        <time>2020-09-29T12:22:37Z</time>
      </trkpt>
      <trkpt lat="41.0894180" lon="-3.4277180">
        <ele>1160.0</ele>
        <time>2020-09-29T12:22:38Z</time>
      </trkpt>
      <trkpt lat="41.0894180" lon="-3.4277180">
        <ele>1160.0</ele>
        <time>2020-09-29T12:22:39Z</time>
      </trkpt>
      <trkpt lat="41.0894650" lon="-3.4277380">
        <ele>1160.0</ele>
        <time>2020-09-29T12:22:40Z</time>
      </trkpt>
      <trkpt lat="41.0894650" lon="-3.4277380">
        <ele>1161.0</ele>
        <time>2020-09-29T12:22:41Z</time>
      </trkpt>
      <trkpt lat="41.0895150" lon="-3.4277630">
        <ele>1161.0</ele>
        <time>2020-09-29T12:22:42Z</time>
      </trkpt>
      <trkpt lat="41.0895150" lon="-3.4277630">
        <ele>1161.0</ele>
        <time>2020-09-29T12:22:43Z</time>
      </trkpt>
      <trkpt lat="41.0895630" lon="-3.4277830">
        <ele>1161.0</ele>
        <time>2020-09-29T12:22:44Z</time>
      </trkpt>
      <trkpt lat="41.0895630" lon="-3.4277830">
        <ele>1162.0</ele>
        <time>2020-09-29T12:22:45Z</time>
      </trkpt>
      <trkpt lat="41.0896150" lon="-3.4278050">
        <ele>1162.0</ele>
        <time>2020-09-29T12:22:46Z</time>
      </trkpt>
      <trkpt lat="41.0896150" lon="-3.4278050">
        <ele>1163.0</ele>
        <time>2020-09-29T12:22:47Z</time>
      </trkpt>
      <trkpt lat="41.0896650" lon="-3.4278300">
        <ele>1163.0</ele>
        <time>2020-09-29T12:22:48Z</time>
      </trkpt>
      <trkpt lat="41.0896650" lon="-3.4278300">
        <ele>1163.0</ele>
        <time>2020-09-29T12:22:49Z</time>
      </trkpt>
      <trkpt lat="41.0897170" lon="-3.4278420">
        <ele>1163.0</ele>
        <time>2020-09-29T12:22:50Z</time>
      </trkpt>
      <trkpt lat="41.0897170" lon="-3.4278420">
        <ele>1163.0</ele>
        <time>2020-09-29T12:22:51Z</time>
      </trkpt>
      <trkpt lat="41.0897680" lon="-3.4278600">
        <ele>1164.0</ele>
        <time>2020-09-29T12:22:52Z</time>
      </trkpt>
      <trkpt lat="41.0897920" lon="-3.4278770">
        <ele>1164.0</ele>
        <time>2020-09-29T12:22:53Z</time>
      </trkpt>
      <trkpt lat="41.0897920" lon="-3.4278770">
        <ele>1164.0</ele>
        <time>2020-09-29T12:22:54Z</time>
      </trkpt>
      <trkpt lat="41.0898400" lon="-3.4279000">
        <ele>1164.0</ele>
        <time>2020-09-29T12:22:55Z</time>
      </trkpt>
      <trkpt lat="41.0898650" lon="-3.4279130">
        <ele>1165.0</ele>
        <time>2020-09-29T12:22:56Z</time>
      </trkpt>
      <trkpt lat="41.0898650" lon="-3.4279130">
        <ele>1165.0</ele>
        <time>2020-09-29T12:22:57Z</time>
      </trkpt>
      <trkpt lat="41.0899130" lon="-3.4279520">
        <ele>1165.0</ele>
        <time>2020-09-29T12:22:58Z</time>
      </trkpt>
      <trkpt lat="41.0899130" lon="-3.4279520">
        <ele>1165.0</ele>
        <time>2020-09-29T12:22:59Z</time>
      </trkpt>
      <trkpt lat="41.0899580" lon="-3.4279970">
        <ele>1165.0</ele>
        <time>2020-09-29T12:23:00Z</time>
      </trkpt>
      <trkpt lat="41.0899580" lon="-3.4279970">
        <ele>1165.0</ele>
        <time>2020-09-29T12:23:01Z</time>
      </trkpt>
      <trkpt lat="41.0900050" lon="-3.4280350">
        <ele>1165.0</ele>
        <time>2020-09-29T12:23:02Z</time>
      </trkpt>
      <trkpt lat="41.0900280" lon="-3.4280550">
        <ele>1165.0</ele>
        <time>2020-09-29T12:23:03Z</time>
      </trkpt>
      <trkpt lat="41.0900280" lon="-3.4280550">
        <ele>1165.0</ele>
        <time>2020-09-29T12:23:04Z</time>
      </trkpt>
      <trkpt lat="41.0900680" lon="-3.4280980">
        <ele>1165.0</ele>
        <time>2020-09-29T12:23:05Z</time>
      </trkpt>
      <trkpt lat="41.0900680" lon="-3.4280980">
        <ele>1166.0</ele>
        <time>2020-09-29T12:23:06Z</time>
      </trkpt>
      <trkpt lat="41.0901100" lon="-3.4281430">
        <ele>1166.0</ele>
        <time>2020-09-29T12:23:07Z</time>
      </trkpt>
      <trkpt lat="41.0901100" lon="-3.4281430">
        <ele>1166.0</ele>
        <time>2020-09-29T12:23:08Z</time>
      </trkpt>
      <trkpt lat="41.0901480" lon="-3.4281900">
        <ele>1166.0</ele>
        <time>2020-09-29T12:23:09Z</time>
      </trkpt>
      <trkpt lat="41.0901480" lon="-3.4281900">
        <ele>1166.0</ele>
        <time>2020-09-29T12:23:10Z</time>
      </trkpt>
      <trkpt lat="41.0901880" lon="-3.4282370">
        <ele>1167.0</ele>
        <time>2020-09-29T12:23:11Z</time>
      </trkpt>
      <trkpt lat="41.0901880" lon="-3.4282370">
        <ele>1167.0</ele>
        <time>2020-09-29T12:23:12Z</time>
      </trkpt>
      <trkpt lat="41.0902350" lon="-3.4282750">
        <ele>1167.0</ele>
        <time>2020-09-29T12:23:13Z</time>
      </trkpt>
      <trkpt lat="41.0902350" lon="-3.4282750">
        <ele>1167.0</ele>
        <time>2020-09-29T12:23:14Z</time>
      </trkpt>
      <trkpt lat="41.0902850" lon="-3.4283130">
        <ele>1167.0</ele>
        <time>2020-09-29T12:23:15Z</time>
      </trkpt>
      <trkpt lat="41.0903120" lon="-3.4283320">
        <ele>1167.0</ele>
        <time>2020-09-29T12:23:16Z</time>
      </trkpt>
      <trkpt lat="41.0903120" lon="-3.4283320">
        <ele>1167.0</ele>
        <time>2020-09-29T12:23:17Z</time>
      </trkpt>
      <trkpt lat="41.0903650" lon="-3.4283730">
        <ele>1167.0</ele>
        <time>2020-09-29T12:23:18Z</time>
      </trkpt>
      <trkpt lat="41.0903930" lon="-3.4283970">
        <ele>1167.0</ele>
        <time>2020-09-29T12:23:19Z</time>
      </trkpt>
      <trkpt lat="41.0903930" lon="-3.4283970">
        <ele>1168.0</ele>
        <time>2020-09-29T12:23:20Z</time>
      </trkpt>
      <trkpt lat="41.0904530" lon="-3.4284350">
        <ele>1168.0</ele>
        <time>2020-09-29T12:23:21Z</time>
      </trkpt>
      <trkpt lat="41.0904530" lon="-3.4284350">
        <ele>1168.0</ele>
        <time>2020-09-29T12:23:22Z</time>
      </trkpt>
      <trkpt lat="41.0905100" lon="-3.4284550">
        <ele>1168.0</ele>
        <time>2020-09-29T12:23:23Z</time>
      </trkpt>
      <trkpt lat="41.0905100" lon="-3.4284550">
        <ele>1168.0</ele>
        <time>2020-09-29T12:23:24Z</time>
      </trkpt>
      <trkpt lat="41.0905570" lon="-3.4284570">
        <ele>1168.0</ele>
        <time>2020-09-29T12:23:25Z</time>
      </trkpt>
      <trkpt lat="41.0905570" lon="-3.4284570">
        <ele>1168.0</ele>
        <time>2020-09-29T12:23:26Z</time>
      </trkpt>
      <trkpt lat="41.0906080" lon="-3.4284470">
        <ele>1168.0</ele>
        <time>2020-09-29T12:23:27Z</time>
      </trkpt>
      <trkpt lat="41.0906080" lon="-3.4284470">
        <ele>1169.0</ele>
        <time>2020-09-29T12:23:28Z</time>
      </trkpt>
      <trkpt lat="41.0906620" lon="-3.4284320">
        <ele>1169.0</ele>
        <time>2020-09-29T12:23:29Z</time>
      </trkpt>
      <trkpt lat="41.0906870" lon="-3.4284200">
        <ele>1169.0</ele>
        <time>2020-09-29T12:23:30Z</time>
      </trkpt>
      <trkpt lat="41.0906870" lon="-3.4284200">
        <ele>1169.0</ele>
        <time>2020-09-29T12:23:31Z</time>
      </trkpt>
      <trkpt lat="41.0907250" lon="-3.4283900">
        <ele>1170.0</ele>
        <time>2020-09-29T12:23:32Z</time>
      </trkpt>
      <trkpt lat="41.0907250" lon="-3.4283900">
        <ele>1170.0</ele>
        <time>2020-09-29T12:23:33Z</time>
      </trkpt>
      <trkpt lat="41.0907630" lon="-3.4283620">
        <ele>1170.0</ele>
        <time>2020-09-29T12:23:34Z</time>
      </trkpt>
      <trkpt lat="41.0907630" lon="-3.4283620">
        <ele>1170.0</ele>
        <time>2020-09-29T12:23:35Z</time>
      </trkpt>
      <trkpt lat="41.0908050" lon="-3.4283220">
        <ele>1170.0</ele>
        <time>2020-09-29T12:23:36Z</time>
      </trkpt>
      <trkpt lat="41.0908250" lon="-3.4282980">
        <ele>1170.0</ele>
        <time>2020-09-29T12:23:37Z</time>
      </trkpt>
      <trkpt lat="41.0908250" lon="-3.4282980">
        <ele>1170.0</ele>
        <time>2020-09-29T12:23:38Z</time>
      </trkpt>
      <trkpt lat="41.0908730" lon="-3.4282530">
        <ele>1170.0</ele>
        <time>2020-09-29T12:23:39Z</time>
      </trkpt>
      <trkpt lat="41.0908730" lon="-3.4282530">
        <ele>1170.0</ele>
        <time>2020-09-29T12:23:40Z</time>
      </trkpt>
      <trkpt lat="41.0909250" lon="-3.4282120">
        <ele>1170.0</ele>
        <time>2020-09-29T12:23:41Z</time>
      </trkpt>
      <trkpt lat="41.0909250" lon="-3.4282120">
        <ele>1172.0</ele>
        <time>2020-09-29T12:23:42Z</time>
      </trkpt>
      <trkpt lat="41.0909770" lon="-3.4281620">
        <ele>1172.0</ele>
        <time>2020-09-29T12:23:43Z</time>
      </trkpt>
      <trkpt lat="41.0909980" lon="-3.4281380">
        <ele>1172.0</ele>
        <time>2020-09-29T12:23:44Z</time>
      </trkpt>
      <trkpt lat="41.0909980" lon="-3.4281380">
        <ele>1172.0</ele>
        <time>2020-09-29T12:23:45Z</time>
      </trkpt>
      <trkpt lat="41.0910430" lon="-3.4280980">
        <ele>1173.0</ele>
        <time>2020-09-29T12:23:46Z</time>
      </trkpt>
      <trkpt lat="41.0910430" lon="-3.4280980">
        <ele>1173.0</ele>
        <time>2020-09-29T12:23:47Z</time>
      </trkpt>
      <trkpt lat="41.0910830" lon="-3.4280530">
        <ele>1173.0</ele>
        <time>2020-09-29T12:23:48Z</time>
      </trkpt>
      <trkpt lat="41.0911070" lon="-3.4280300">
        <ele>1174.0</ele>
        <time>2020-09-29T12:23:49Z</time>
      </trkpt>
      <trkpt lat="41.0911250" lon="-3.4280030">
        <ele>1174.0</ele>
        <time>2020-09-29T12:23:50Z</time>
      </trkpt>
      <trkpt lat="41.0911250" lon="-3.4280030">
        <ele>1174.0</ele>
        <time>2020-09-29T12:23:51Z</time>
      </trkpt>
      <trkpt lat="41.0911600" lon="-3.4279520">
        <ele>1174.0</ele>
        <time>2020-09-29T12:23:52Z</time>
      </trkpt>
      <trkpt lat="41.0911770" lon="-3.4279280">
        <ele>1174.0</ele>
        <time>2020-09-29T12:23:53Z</time>
      </trkpt>
      <trkpt lat="41.0911770" lon="-3.4279280">
        <ele>1174.0</ele>
        <time>2020-09-29T12:23:54Z</time>
      </trkpt>
      <trkpt lat="41.0912120" lon="-3.4278750">
        <ele>1174.0</ele>
        <time>2020-09-29T12:23:55Z</time>
      </trkpt>
      <trkpt lat="41.0912120" lon="-3.4278750">
        <ele>1174.0</ele>
        <time>2020-09-29T12:23:56Z</time>
      </trkpt>
      <trkpt lat="41.0912470" lon="-3.4278250">
        <ele>1174.0</ele>
        <time>2020-09-29T12:23:57Z</time>
      </trkpt>
      <trkpt lat="41.0912470" lon="-3.4278250">
        <ele>1174.0</ele>
        <time>2020-09-29T12:23:58Z</time>
      </trkpt>
      <trkpt lat="41.0912780" lon="-3.4277670">
        <ele>1175.0</ele>
        <time>2020-09-29T12:23:59Z</time>
      </trkpt>
      <trkpt lat="41.0912970" lon="-3.4277400">
        <ele>1175.0</ele>
        <time>2020-09-29T12:24:00Z</time>
      </trkpt>
      <trkpt lat="41.0912970" lon="-3.4277400">
        <ele>1175.0</ele>
        <time>2020-09-29T12:24:01Z</time>
      </trkpt>
      <trkpt lat="41.0913280" lon="-3.4276850">
        <ele>1175.0</ele>
        <time>2020-09-29T12:24:02Z</time>
      </trkpt>
      <trkpt lat="41.0913280" lon="-3.4276850">
        <ele>1175.0</ele>
        <time>2020-09-29T12:24:03Z</time>
      </trkpt>
      <trkpt lat="41.0913620" lon="-3.4276330">
        <ele>1175.0</ele>
        <time>2020-09-29T12:24:04Z</time>
      </trkpt>
      <trkpt lat="41.0913620" lon="-3.4276330">
        <ele>1176.0</ele>
        <time>2020-09-29T12:24:05Z</time>
      </trkpt>
      <trkpt lat="41.0913930" lon="-3.4275820">
        <ele>1176.0</ele>
        <time>2020-09-29T12:24:06Z</time>
      </trkpt>
      <trkpt lat="41.0913930" lon="-3.4275820">
        <ele>1176.0</ele>
        <time>2020-09-29T12:24:07Z</time>
      </trkpt>
      <trkpt lat="41.0914270" lon="-3.4275330">
        <ele>1176.0</ele>
        <time>2020-09-29T12:24:08Z</time>
      </trkpt>
      <trkpt lat="41.0914470" lon="-3.4275080">
        <ele>1177.0</ele>
        <time>2020-09-29T12:24:09Z</time>
      </trkpt>
      <trkpt lat="41.0914470" lon="-3.4275080">
        <ele>1177.0</ele>
        <time>2020-09-29T12:24:10Z</time>
      </trkpt>
      <trkpt lat="41.0914800" lon="-3.4274570">
        <ele>1177.0</ele>
        <time>2020-09-29T12:24:11Z</time>
      </trkpt>
      <trkpt lat="41.0914800" lon="-3.4274570">
        <ele>1177.0</ele>
        <time>2020-09-29T12:24:12Z</time>
      </trkpt>
      <trkpt lat="41.0915130" lon="-3.4274000">
        <ele>1177.0</ele>
        <time>2020-09-29T12:24:13Z</time>
      </trkpt>
      <trkpt lat="41.0915130" lon="-3.4274000">
        <ele>1177.0</ele>
        <time>2020-09-29T12:24:14Z</time>
      </trkpt>
      <trkpt lat="41.0915400" lon="-3.4273350">
        <ele>1177.0</ele>
        <time>2020-09-29T12:24:15Z</time>
      </trkpt>
      <trkpt lat="41.0915400" lon="-3.4273350">
        <ele>1177.0</ele>
        <time>2020-09-29T12:24:16Z</time>
      </trkpt>
      <trkpt lat="41.0915530" lon="-3.4272670">
        <ele>1178.0</ele>
        <time>2020-09-29T12:24:17Z</time>
      </trkpt>
      <trkpt lat="41.0915520" lon="-3.4272270">
        <ele>1178.0</ele>
        <time>2020-09-29T12:24:18Z</time>
      </trkpt>
      <trkpt lat="41.0915520" lon="-3.4272270">
        <ele>1178.0</ele>
        <time>2020-09-29T12:24:19Z</time>
      </trkpt>
      <trkpt lat="41.0915570" lon="-3.4271530">
        <ele>1178.0</ele>
        <time>2020-09-29T12:24:20Z</time>
      </trkpt>
      <trkpt lat="41.0915570" lon="-3.4271530">
        <ele>1179.0</ele>
        <time>2020-09-29T12:24:21Z</time>
      </trkpt>
      <trkpt lat="41.0915570" lon="-3.4271530">
        <ele>1179.0</ele>
        <time>2020-09-29T12:24:22Z</time>
      </trkpt>
      <trkpt lat="41.0915530" lon="-3.4270780">
        <ele>1180.0</ele>
        <time>2020-09-29T12:24:23Z</time>
      </trkpt>
      <trkpt lat="41.0915450" lon="-3.4270100">
        <ele>1180.0</ele>
        <time>2020-09-29T12:24:24Z</time>
      </trkpt>
      <trkpt lat="41.0915450" lon="-3.4270100">
        <ele>1180.0</ele>
        <time>2020-09-29T12:24:25Z</time>
      </trkpt>
      <trkpt lat="41.0915250" lon="-3.4269470">
        <ele>1181.0</ele>
        <time>2020-09-29T12:24:26Z</time>
      </trkpt>
      <trkpt lat="41.0915250" lon="-3.4269470">
        <ele>1181.0</ele>
        <time>2020-09-29T12:24:27Z</time>
      </trkpt>
      <trkpt lat="41.0915020" lon="-3.4268870">
        <ele>1181.0</ele>
        <time>2020-09-29T12:24:28Z</time>
      </trkpt>
      <trkpt lat="41.0914830" lon="-3.4268570">
        <ele>1181.0</ele>
        <time>2020-09-29T12:24:29Z</time>
      </trkpt>
      <trkpt lat="41.0914830" lon="-3.4268570">
        <ele>1182.0</ele>
        <time>2020-09-29T12:24:30Z</time>
      </trkpt>
      <trkpt lat="41.0914420" lon="-3.4268080">
        <ele>1182.0</ele>
        <time>2020-09-29T12:24:31Z</time>
      </trkpt>
      <trkpt lat="41.0914420" lon="-3.4268080">
        <ele>1182.0</ele>
        <time>2020-09-29T12:24:32Z</time>
      </trkpt>
      <trkpt lat="41.0913900" lon="-3.4267820">
        <ele>1182.0</ele>
        <time>2020-09-29T12:24:33Z</time>
      </trkpt>
      <trkpt lat="41.0913620" lon="-3.4267750">
        <ele>1183.0</ele>
        <time>2020-09-29T12:24:34Z</time>
      </trkpt>
      <trkpt lat="41.0913620" lon="-3.4267750">
        <ele>1183.0</ele>
        <time>2020-09-29T12:24:35Z</time>
      </trkpt>
      <trkpt lat="41.0913070" lon="-3.4267800">
        <ele>1183.0</ele>
        <time>2020-09-29T12:24:36Z</time>
      </trkpt>
      <trkpt lat="41.0912780" lon="-3.4267850">
        <ele>1183.0</ele>
        <time>2020-09-29T12:24:37Z</time>
      </trkpt>
      <trkpt lat="41.0912780" lon="-3.4267850">
        <ele>1184.0</ele>
        <time>2020-09-29T12:24:38Z</time>
      </trkpt>
      <trkpt lat="41.0912230" lon="-3.4267920">
        <ele>1184.0</ele>
        <time>2020-09-29T12:24:39Z</time>
      </trkpt>
      <trkpt lat="41.0912230" lon="-3.4267920">
        <ele>1184.0</ele>
        <time>2020-09-29T12:24:40Z</time>
      </trkpt>
      <trkpt lat="41.0911670" lon="-3.4268050">
        <ele>1184.0</ele>
        <time>2020-09-29T12:24:41Z</time>
      </trkpt>
      <trkpt lat="41.0911670" lon="-3.4268050">
        <ele>1184.0</ele>
        <time>2020-09-29T12:24:42Z</time>
      </trkpt>
      <trkpt lat="41.0911130" lon="-3.4268130">
        <ele>1184.0</ele>
        <time>2020-09-29T12:24:43Z</time>
      </trkpt>
      <trkpt lat="41.0911130" lon="-3.4268130">
        <ele>1185.0</ele>
        <time>2020-09-29T12:24:44Z</time>
      </trkpt>
      <trkpt lat="41.0910570" lon="-3.4268280">
        <ele>1185.0</ele>
        <time>2020-09-29T12:24:45Z</time>
      </trkpt>
      <trkpt lat="41.0910570" lon="-3.4268280">
        <ele>1185.0</ele>
        <time>2020-09-29T12:24:46Z</time>
      </trkpt>
      <trkpt lat="41.0909950" lon="-3.4268280">
        <ele>1185.0</ele>
        <time>2020-09-29T12:24:47Z</time>
      </trkpt>
      <trkpt lat="41.0909950" lon="-3.4268280">
        <ele>1186.0</ele>
        <time>2020-09-29T12:24:48Z</time>
      </trkpt>
      <trkpt lat="41.0909480" lon="-3.4268430">
        <ele>1186.0</ele>
        <time>2020-09-29T12:24:49Z</time>
      </trkpt>
      <trkpt lat="41.0909480" lon="-3.4268430">
        <ele>1186.0</ele>
        <time>2020-09-29T12:24:50Z</time>
      </trkpt>
      <trkpt lat="41.0909000" lon="-3.4268630">
        <ele>1186.0</ele>
        <time>2020-09-29T12:24:51Z</time>
      </trkpt>
      <trkpt lat="41.0908720" lon="-3.4268680">
        <ele>1186.0</ele>
        <time>2020-09-29T12:24:52Z</time>
      </trkpt>
      <trkpt lat="41.0908720" lon="-3.4268680">
        <ele>1186.0</ele>
        <time>2020-09-29T12:24:53Z</time>
      </trkpt>
      <trkpt lat="41.0908120" lon="-3.4268820">
        <ele>1186.0</ele>
        <time>2020-09-29T12:24:54Z</time>
      </trkpt>
      <trkpt lat="41.0907830" lon="-3.4268880">
        <ele>1186.0</ele>
        <time>2020-09-29T12:24:55Z</time>
      </trkpt>
      <trkpt lat="41.0907830" lon="-3.4268880">
        <ele>1187.0</ele>
        <time>2020-09-29T12:24:56Z</time>
      </trkpt>
      <trkpt lat="41.0907350" lon="-3.4269170">
        <ele>1187.0</ele>
        <time>2020-09-29T12:24:57Z</time>
      </trkpt>
      <trkpt lat="41.0907350" lon="-3.4269170">
        <ele>1187.0</ele>
        <time>2020-09-29T12:24:58Z</time>
      </trkpt>
      <trkpt lat="41.0906830" lon="-3.4269370">
        <ele>1187.0</ele>
        <time>2020-09-29T12:24:59Z</time>
      </trkpt>
      <trkpt lat="41.0906830" lon="-3.4269370">
        <ele>1188.0</ele>
        <time>2020-09-29T12:25:00Z</time>
      </trkpt>
      <trkpt lat="41.0906330" lon="-3.4269600">
        <ele>1188.0</ele>
        <time>2020-09-29T12:25:01Z</time>
      </trkpt>
      <trkpt lat="41.0906330" lon="-3.4269600">
        <ele>1188.0</ele>
        <time>2020-09-29T12:25:02Z</time>
      </trkpt>
      <trkpt lat="41.0905780" lon="-3.4269800">
        <ele>1189.0</ele>
        <time>2020-09-29T12:25:03Z</time>
      </trkpt>
      <trkpt lat="41.0905780" lon="-3.4269800">
        <ele>1189.0</ele>
        <time>2020-09-29T12:25:04Z</time>
      </trkpt>
      <trkpt lat="41.0905200" lon="-3.4269950">
        <ele>1189.0</ele>
        <time>2020-09-29T12:25:05Z</time>
      </trkpt>
      <trkpt lat="41.0905200" lon="-3.4269950">
        <ele>1189.0</ele>
        <time>2020-09-29T12:25:06Z</time>
      </trkpt>
      <trkpt lat="41.0904670" lon="-3.4270120">
        <ele>1190.0</ele>
        <time>2020-09-29T12:25:07Z</time>
      </trkpt>
      <trkpt lat="41.0904670" lon="-3.4270120">
        <ele>1190.0</ele>
        <time>2020-09-29T12:25:08Z</time>
      </trkpt>
      <trkpt lat="41.0904130" lon="-3.4270280">
        <ele>1190.0</ele>
        <time>2020-09-29T12:25:09Z</time>
      </trkpt>
      <trkpt lat="41.0904130" lon="-3.4270280">
        <ele>1190.0</ele>
        <time>2020-09-29T12:25:10Z</time>
      </trkpt>
      <trkpt lat="41.0903550" lon="-3.4270370">
        <ele>1190.0</ele>
        <time>2020-09-29T12:25:11Z</time>
      </trkpt>
      <trkpt lat="41.0903550" lon="-3.4270370">
        <ele>1190.0</ele>
        <time>2020-09-29T12:25:12Z</time>
      </trkpt>
      <trkpt lat="41.0902950" lon="-3.4270320">
        <ele>1191.0</ele>
        <time>2020-09-29T12:25:13Z</time>
      </trkpt>
      <trkpt lat="41.0902950" lon="-3.4270320">
        <ele>1191.0</ele>
        <time>2020-09-29T12:25:14Z</time>
      </trkpt>
      <trkpt lat="41.0902320" lon="-3.4270180">
        <ele>1191.0</ele>
        <time>2020-09-29T12:25:15Z</time>
      </trkpt>
      <trkpt lat="41.0902320" lon="-3.4270180">
        <ele>1191.0</ele>
        <time>2020-09-29T12:25:16Z</time>
      </trkpt>
      <trkpt lat="41.0901620" lon="-3.4270070">
        <ele>1191.0</ele>
        <time>2020-09-29T12:25:17Z</time>
      </trkpt>
      <trkpt lat="41.0901620" lon="-3.4270070">
        <ele>1191.0</ele>
        <time>2020-09-29T12:25:18Z</time>
      </trkpt>
      <trkpt lat="41.0900930" lon="-3.4269800">
        <ele>1191.0</ele>
        <time>2020-09-29T12:25:19Z</time>
      </trkpt>
      <trkpt lat="41.0900930" lon="-3.4269800">
        <ele>1191.0</ele>
        <time>2020-09-29T12:25:20Z</time>
      </trkpt>
      <trkpt lat="41.0900270" lon="-3.4269370">
        <ele>1191.0</ele>
        <time>2020-09-29T12:25:21Z</time>
      </trkpt>
      <trkpt lat="41.0900270" lon="-3.4269370">
        <ele>1191.0</ele>
        <time>2020-09-29T12:25:22Z</time>
      </trkpt>
      <trkpt lat="41.0899570" lon="-3.4268870">
        <ele>1191.0</ele>
        <time>2020-09-29T12:25:23Z</time>
      </trkpt>
      <trkpt lat="41.0899230" lon="-3.4268600">
        <ele>1191.0</ele>
        <time>2020-09-29T12:25:24Z</time>
      </trkpt>
      <trkpt lat="41.0898880" lon="-3.4268280">
        <ele>1191.0</ele>
        <time>2020-09-29T12:25:25Z</time>
      </trkpt>
      <trkpt lat="41.0898880" lon="-3.4268280">
        <ele>1191.0</ele>
        <time>2020-09-29T12:25:26Z</time>
      </trkpt>
      <trkpt lat="41.0898250" lon="-3.4267620">
        <ele>1191.0</ele>
        <time>2020-09-29T12:25:27Z</time>
      </trkpt>
      <trkpt lat="41.0898250" lon="-3.4267620">
        <ele>1191.0</ele>
        <time>2020-09-29T12:25:28Z</time>
      </trkpt>
      <trkpt lat="41.0897630" lon="-3.4266970">
        <ele>1191.0</ele>
        <time>2020-09-29T12:25:29Z</time>
      </trkpt>
      <trkpt lat="41.0897630" lon="-3.4266970">
        <ele>1191.0</ele>
        <time>2020-09-29T12:25:30Z</time>
      </trkpt>
      <trkpt lat="41.0897000" lon="-3.4266300">
        <ele>1191.0</ele>
        <time>2020-09-29T12:25:31Z</time>
      </trkpt>
      <trkpt lat="41.0897000" lon="-3.4266300">
        <ele>1191.0</ele>
        <time>2020-09-29T12:25:32Z</time>
      </trkpt>
      <trkpt lat="41.0896380" lon="-3.4265580">
        <ele>1191.0</ele>
        <time>2020-09-29T12:25:33Z</time>
      </trkpt>
      <trkpt lat="41.0896380" lon="-3.4265580">
        <ele>1191.0</ele>
        <time>2020-09-29T12:25:34Z</time>
      </trkpt>
      <trkpt lat="41.0895750" lon="-3.4264900">
        <ele>1191.0</ele>
        <time>2020-09-29T12:25:35Z</time>
      </trkpt>
      <trkpt lat="41.0895380" lon="-3.4264550">
        <ele>1191.0</ele>
        <time>2020-09-29T12:25:36Z</time>
      </trkpt>
      <trkpt lat="41.0895070" lon="-3.4264170">
        <ele>1191.0</ele>
        <time>2020-09-29T12:25:37Z</time>
      </trkpt>
      <trkpt lat="41.0895070" lon="-3.4264170">
        <ele>1191.0</ele>
        <time>2020-09-29T12:25:38Z</time>
      </trkpt>
      <trkpt lat="41.0894430" lon="-3.4263470">
        <ele>1191.0</ele>
        <time>2020-09-29T12:25:39Z</time>
      </trkpt>
      <trkpt lat="41.0894430" lon="-3.4263470">
        <ele>1191.0</ele>
        <time>2020-09-29T12:25:40Z</time>
      </trkpt>
      <trkpt lat="41.0893750" lon="-3.4262780">
        <ele>1191.0</ele>
        <time>2020-09-29T12:25:41Z</time>
      </trkpt>
      <trkpt lat="41.0893750" lon="-3.4262780">
        <ele>1191.0</ele>
        <time>2020-09-29T12:25:42Z</time>
      </trkpt>
      <trkpt lat="41.0893020" lon="-3.4262180">
        <ele>1191.0</ele>
        <time>2020-09-29T12:25:43Z</time>
      </trkpt>
      <trkpt lat="41.0893020" lon="-3.4262180">
        <ele>1191.0</ele>
        <time>2020-09-29T12:25:44Z</time>
      </trkpt>
      <trkpt lat="41.0892170" lon="-3.4261870">
        <ele>1191.0</ele>
        <time>2020-09-29T12:25:45Z</time>
      </trkpt>
      <trkpt lat="41.0892170" lon="-3.4261870">
        <ele>1191.0</ele>
        <time>2020-09-29T12:25:46Z</time>
      </trkpt>
      <trkpt lat="41.0891350" lon="-3.4261870">
        <ele>1191.0</ele>
        <time>2020-09-29T12:25:47Z</time>
      </trkpt>
      <trkpt lat="41.0891350" lon="-3.4261870">
        <ele>1191.0</ele>
        <time>2020-09-29T12:25:48Z</time>
      </trkpt>
      <trkpt lat="41.0890470" lon="-3.4261830">
        <ele>1191.0</ele>
        <time>2020-09-29T12:25:49Z</time>
      </trkpt>
      <trkpt lat="41.0890470" lon="-3.4261830">
        <ele>1191.0</ele>
        <time>2020-09-29T12:25:50Z</time>
      </trkpt>
      <trkpt lat="41.0889620" lon="-3.4261870">
        <ele>1191.0</ele>
        <time>2020-09-29T12:25:51Z</time>
      </trkpt>
      <trkpt lat="41.0889180" lon="-3.4261930">
        <ele>1191.0</ele>
        <time>2020-09-29T12:25:52Z</time>
      </trkpt>
      <trkpt lat="41.0889180" lon="-3.4261930">
        <ele>1191.0</ele>
        <time>2020-09-29T12:25:53Z</time>
      </trkpt>
      <trkpt lat="41.0888370" lon="-3.4262120">
        <ele>1191.0</ele>
        <time>2020-09-29T12:25:54Z</time>
      </trkpt>
      <trkpt lat="41.0887930" lon="-3.4262220">
        <ele>1191.0</ele>
        <time>2020-09-29T12:25:55Z</time>
      </trkpt>
      <trkpt lat="41.0887930" lon="-3.4262220">
        <ele>1191.0</ele>
        <time>2020-09-29T12:25:56Z</time>
      </trkpt>
      <trkpt lat="41.0887130" lon="-3.4262350">
        <ele>1191.0</ele>
        <time>2020-09-29T12:25:57Z</time>
      </trkpt>
      <trkpt lat="41.0887130" lon="-3.4262350">
        <ele>1191.0</ele>
        <time>2020-09-29T12:25:58Z</time>
      </trkpt>
      <trkpt lat="41.0886370" lon="-3.4262480">
        <ele>1191.0</ele>
        <time>2020-09-29T12:25:59Z</time>
      </trkpt>
      <trkpt lat="41.0886370" lon="-3.4262480">
        <ele>1191.0</ele>
        <time>2020-09-29T12:26:00Z</time>
      </trkpt>
      <trkpt lat="41.0885630" lon="-3.4262550">
        <ele>1191.0</ele>
        <time>2020-09-29T12:26:01Z</time>
      </trkpt>
      <trkpt lat="41.0885630" lon="-3.4262550">
        <ele>1191.0</ele>
        <time>2020-09-29T12:26:02Z</time>
      </trkpt>
      <trkpt lat="41.0884920" lon="-3.4262620">
        <ele>1191.0</ele>
        <time>2020-09-29T12:26:03Z</time>
      </trkpt>
      <trkpt lat="41.0884570" lon="-3.4262670">
        <ele>1191.0</ele>
        <time>2020-09-29T12:26:04Z</time>
      </trkpt>
      <trkpt lat="41.0884570" lon="-3.4262670">
        <ele>1193.0</ele>
        <time>2020-09-29T12:26:05Z</time>
      </trkpt>
      <trkpt lat="41.0883870" lon="-3.4262750">
        <ele>1193.0</ele>
        <time>2020-09-29T12:26:06Z</time>
      </trkpt>
      <trkpt lat="41.0883500" lon="-3.4262770">
        <ele>1193.0</ele>
        <time>2020-09-29T12:26:07Z</time>
      </trkpt>
      <trkpt lat="41.0883500" lon="-3.4262770">
        <ele>1193.0</ele>
        <time>2020-09-29T12:26:08Z</time>
      </trkpt>
      <trkpt lat="41.0882750" lon="-3.4262770">
        <ele>1193.0</ele>
        <time>2020-09-29T12:26:09Z</time>
      </trkpt>
      <trkpt lat="41.0882380" lon="-3.4262770">
        <ele>1193.0</ele>
        <time>2020-09-29T12:26:10Z</time>
      </trkpt>
      <trkpt lat="41.0882380" lon="-3.4262770">
        <ele>1193.0</ele>
        <time>2020-09-29T12:26:11Z</time>
      </trkpt>
      <trkpt lat="41.0881680" lon="-3.4262700">
        <ele>1193.0</ele>
        <time>2020-09-29T12:26:12Z</time>
      </trkpt>
      <trkpt lat="41.0881320" lon="-3.4262630">
        <ele>1193.0</ele>
        <time>2020-09-29T12:26:13Z</time>
      </trkpt>
      <trkpt lat="41.0881320" lon="-3.4262630">
        <ele>1193.0</ele>
        <time>2020-09-29T12:26:14Z</time>
      </trkpt>
      <trkpt lat="41.0880580" lon="-3.4262520">
        <ele>1193.0</ele>
        <time>2020-09-29T12:26:15Z</time>
      </trkpt>
      <trkpt lat="41.0880250" lon="-3.4262480">
        <ele>1193.0</ele>
        <time>2020-09-29T12:26:16Z</time>
      </trkpt>
      <trkpt lat="41.0880250" lon="-3.4262480">
        <ele>1193.0</ele>
        <time>2020-09-29T12:26:17Z</time>
      </trkpt>
      <trkpt lat="41.0879600" lon="-3.4262350">
        <ele>1194.0</ele>
        <time>2020-09-29T12:26:18Z</time>
      </trkpt>
      <trkpt lat="41.0879320" lon="-3.4262270">
        <ele>1194.0</ele>
        <time>2020-09-29T12:26:19Z</time>
      </trkpt>
      <trkpt lat="41.0879320" lon="-3.4262270">
        <ele>1194.0</ele>
        <time>2020-09-29T12:26:20Z</time>
      </trkpt>
      <trkpt lat="41.0878680" lon="-3.4261980">
        <ele>1194.0</ele>
        <time>2020-09-29T12:26:21Z</time>
      </trkpt>
      <trkpt lat="41.0878680" lon="-3.4261980">
        <ele>1195.0</ele>
        <time>2020-09-29T12:26:22Z</time>
      </trkpt>
      <trkpt lat="41.0878030" lon="-3.4261770">
        <ele>1195.0</ele>
        <time>2020-09-29T12:26:23Z</time>
      </trkpt>
      <trkpt lat="41.0877700" lon="-3.4261700">
        <ele>1195.0</ele>
        <time>2020-09-29T12:26:24Z</time>
      </trkpt>
      <trkpt lat="41.0877700" lon="-3.4261700">
        <ele>1195.0</ele>
        <time>2020-09-29T12:26:25Z</time>
      </trkpt>
      <trkpt lat="41.0877080" lon="-3.4261530">
        <ele>1195.0</ele>
        <time>2020-09-29T12:26:26Z</time>
      </trkpt>
      <trkpt lat="41.0876780" lon="-3.4261420">
        <ele>1196.0</ele>
        <time>2020-09-29T12:26:27Z</time>
      </trkpt>
      <trkpt lat="41.0876780" lon="-3.4261420">
        <ele>1196.0</ele>
        <time>2020-09-29T12:26:28Z</time>
      </trkpt>
      <trkpt lat="41.0876230" lon="-3.4261180">
        <ele>1193.0</ele>
        <time>2020-09-29T12:26:29Z</time>
      </trkpt>
      <trkpt lat="41.0876230" lon="-3.4261180">
        <ele>1193.0</ele>
        <time>2020-09-29T12:26:30Z</time>
      </trkpt>
      <trkpt lat="41.0875680" lon="-3.4260970">
        <ele>1193.0</ele>
        <time>2020-09-29T12:26:31Z</time>
      </trkpt>
      <trkpt lat="41.0875400" lon="-3.4260850">
        <ele>1193.0</ele>
        <time>2020-09-29T12:26:32Z</time>
      </trkpt>
      <trkpt lat="41.0875400" lon="-3.4260850">
        <ele>1199.0</ele>
        <time>2020-09-29T12:26:33Z</time>
      </trkpt>
      <trkpt lat="41.0874880" lon="-3.4260520">
        <ele>1199.0</ele>
        <time>2020-09-29T12:26:34Z</time>
      </trkpt>
      <trkpt lat="41.0874880" lon="-3.4260520">
        <ele>1209.0</ele>
        <time>2020-09-29T12:26:35Z</time>
      </trkpt>
      <trkpt lat="41.0874350" lon="-3.4260230">
        <ele>1209.0</ele>
        <time>2020-09-29T12:26:36Z</time>
      </trkpt>
      <trkpt lat="41.0874350" lon="-3.4260230">
        <ele>1205.0</ele>
        <time>2020-09-29T12:26:37Z</time>
      </trkpt>
      <trkpt lat="41.0873800" lon="-3.4259850">
        <ele>1205.0</ele>
        <time>2020-09-29T12:26:38Z</time>
      </trkpt>
      <trkpt lat="41.0873800" lon="-3.4259850">
        <ele>1202.0</ele>
        <time>2020-09-29T12:26:39Z</time>
      </trkpt>
      <trkpt lat="41.0873280" lon="-3.4259470">
        <ele>1202.0</ele>
        <time>2020-09-29T12:26:40Z</time>
      </trkpt>
      <trkpt lat="41.0873280" lon="-3.4259470">
        <ele>1200.0</ele>
        <time>2020-09-29T12:26:41Z</time>
      </trkpt>
      <trkpt lat="41.0872700" lon="-3.4259150">
        <ele>1200.0</ele>
        <time>2020-09-29T12:26:42Z</time>
      </trkpt>
      <trkpt lat="41.0872400" lon="-3.4259000">
        <ele>1200.0</ele>
        <time>2020-09-29T12:26:43Z</time>
      </trkpt>
      <trkpt lat="41.0872400" lon="-3.4259000">
        <ele>1200.0</ele>
        <time>2020-09-29T12:26:44Z</time>
      </trkpt>
      <trkpt lat="41.0871800" lon="-3.4258680">
        <ele>1200.0</ele>
        <time>2020-09-29T12:26:45Z</time>
      </trkpt>
      <trkpt lat="41.0871520" lon="-3.4258520">
        <ele>1200.0</ele>
        <time>2020-09-29T12:26:46Z</time>
      </trkpt>
      <trkpt lat="41.0871520" lon="-3.4258520">
        <ele>1200.0</ele>
        <time>2020-09-29T12:26:47Z</time>
      </trkpt>
      <trkpt lat="41.0870930" lon="-3.4258220">
        <ele>1200.0</ele>
        <time>2020-09-29T12:26:48Z</time>
      </trkpt>
      <trkpt lat="41.0870700" lon="-3.4258080">
        <ele>1200.0</ele>
        <time>2020-09-29T12:26:49Z</time>
      </trkpt>
      <trkpt lat="41.0870700" lon="-3.4258080">
        <ele>1200.0</ele>
        <time>2020-09-29T12:26:50Z</time>
      </trkpt>
      <trkpt lat="41.0870100" lon="-3.4257730">
        <ele>1200.0</ele>
        <time>2020-09-29T12:26:51Z</time>
      </trkpt>
      <trkpt lat="41.0870100" lon="-3.4257730">
        <ele>1200.0</ele>
        <time>2020-09-29T12:26:52Z</time>
      </trkpt>
      <trkpt lat="41.0869530" lon="-3.4257380">
        <ele>1200.0</ele>
        <time>2020-09-29T12:26:53Z</time>
      </trkpt>
      <trkpt lat="41.0869530" lon="-3.4257380">
        <ele>1200.0</ele>
        <time>2020-09-29T12:26:54Z</time>
      </trkpt>
      <trkpt lat="41.0869030" lon="-3.4257050">
        <ele>1200.0</ele>
        <time>2020-09-29T12:26:55Z</time>
      </trkpt>
      <trkpt lat="41.0869030" lon="-3.4257050">
        <ele>1202.0</ele>
        <time>2020-09-29T12:26:56Z</time>
      </trkpt>
      <trkpt lat="41.0868530" lon="-3.4256820">
        <ele>1202.0</ele>
        <time>2020-09-29T12:26:57Z</time>
      </trkpt>
      <trkpt lat="41.0868270" lon="-3.4256680">
        <ele>1202.0</ele>
        <time>2020-09-29T12:26:58Z</time>
      </trkpt>
      <trkpt lat="41.0868270" lon="-3.4256680">
        <ele>1202.0</ele>
        <time>2020-09-29T12:26:59Z</time>
      </trkpt>
      <trkpt lat="41.0867700" lon="-3.4256420">
        <ele>1202.0</ele>
        <time>2020-09-29T12:27:00Z</time>
      </trkpt>
      <trkpt lat="41.0867420" lon="-3.4256250">
        <ele>1202.0</ele>
        <time>2020-09-29T12:27:01Z</time>
      </trkpt>
      <trkpt lat="41.0867420" lon="-3.4256250">
        <ele>1202.0</ele>
        <time>2020-09-29T12:27:02Z</time>
      </trkpt>
      <trkpt lat="41.0866820" lon="-3.4255920">
        <ele>1202.0</ele>
        <time>2020-09-29T12:27:03Z</time>
      </trkpt>
      <trkpt lat="41.0866820" lon="-3.4255920">
        <ele>1202.0</ele>
        <time>2020-09-29T12:27:04Z</time>
      </trkpt>
      <trkpt lat="41.0866280" lon="-3.4255550">
        <ele>1202.0</ele>
        <time>2020-09-29T12:27:05Z</time>
      </trkpt>
      <trkpt lat="41.0866280" lon="-3.4255550">
        <ele>1203.0</ele>
        <time>2020-09-29T12:27:06Z</time>
      </trkpt>
      <trkpt lat="41.0865730" lon="-3.4255200">
        <ele>1203.0</ele>
        <time>2020-09-29T12:27:07Z</time>
      </trkpt>
      <trkpt lat="41.0865480" lon="-3.4255000">
        <ele>1203.0</ele>
        <time>2020-09-29T12:27:08Z</time>
      </trkpt>
      <trkpt lat="41.0865480" lon="-3.4255000">
        <ele>1203.0</ele>
        <time>2020-09-29T12:27:09Z</time>
      </trkpt>
      <trkpt lat="41.0865020" lon="-3.4254450">
        <ele>1203.0</ele>
        <time>2020-09-29T12:27:10Z</time>
      </trkpt>
      <trkpt lat="41.0865020" lon="-3.4254450">
        <ele>1203.0</ele>
        <time>2020-09-29T12:27:11Z</time>
      </trkpt>
      <trkpt lat="41.0864580" lon="-3.4253850">
        <ele>1204.0</ele>
        <time>2020-09-29T12:27:12Z</time>
      </trkpt>
      <trkpt lat="41.0864380" lon="-3.4253520">
        <ele>1204.0</ele>
        <time>2020-09-29T12:27:13Z</time>
      </trkpt>
      <trkpt lat="41.0864380" lon="-3.4253520">
        <ele>1204.0</ele>
        <time>2020-09-29T12:27:14Z</time>
      </trkpt>
      <trkpt lat="41.0864000" lon="-3.4252850">
        <ele>1204.0</ele>
        <time>2020-09-29T12:27:15Z</time>
      </trkpt>
      <trkpt lat="41.0863800" lon="-3.4252530">
        <ele>1204.0</ele>
        <time>2020-09-29T12:27:16Z</time>
      </trkpt>
      <trkpt lat="41.0863800" lon="-3.4252530">
        <ele>1204.0</ele>
        <time>2020-09-29T12:27:17Z</time>
      </trkpt>
      <trkpt lat="41.0863380" lon="-3.4251930">
        <ele>1205.0</ele>
        <time>2020-09-29T12:27:18Z</time>
      </trkpt>
      <trkpt lat="41.0863170" lon="-3.4251680">
        <ele>1205.0</ele>
        <time>2020-09-29T12:27:19Z</time>
      </trkpt>
      <trkpt lat="41.0863170" lon="-3.4251680">
        <ele>1205.0</ele>
        <time>2020-09-29T12:27:20Z</time>
      </trkpt>
      <trkpt lat="41.0862770" lon="-3.4251170">
        <ele>1205.0</ele>
        <time>2020-09-29T12:27:21Z</time>
      </trkpt>
      <trkpt lat="41.0862770" lon="-3.4251170">
        <ele>1206.0</ele>
        <time>2020-09-29T12:27:22Z</time>
      </trkpt>
      <trkpt lat="41.0862350" lon="-3.4250600">
        <ele>1206.0</ele>
        <time>2020-09-29T12:27:23Z</time>
      </trkpt>
      <trkpt lat="41.0862130" lon="-3.4250320">
        <ele>1206.0</ele>
        <time>2020-09-29T12:27:24Z</time>
      </trkpt>
      <trkpt lat="41.0862130" lon="-3.4250320">
        <ele>1206.0</ele>
        <time>2020-09-29T12:27:25Z</time>
      </trkpt>
      <trkpt lat="41.0861700" lon="-3.4249720">
        <ele>1207.0</ele>
        <time>2020-09-29T12:27:26Z</time>
      </trkpt>
      <trkpt lat="41.0861700" lon="-3.4249720">
        <ele>1207.0</ele>
        <time>2020-09-29T12:27:27Z</time>
      </trkpt>
      <trkpt lat="41.0861270" lon="-3.4249130">
        <ele>1207.0</ele>
        <time>2020-09-29T12:27:28Z</time>
      </trkpt>
      <trkpt lat="41.0861270" lon="-3.4249130">
        <ele>1208.0</ele>
        <time>2020-09-29T12:27:29Z</time>
      </trkpt>
      <trkpt lat="41.0860820" lon="-3.4248570">
        <ele>1208.0</ele>
        <time>2020-09-29T12:27:30Z</time>
      </trkpt>
      <trkpt lat="41.0860820" lon="-3.4248570">
        <ele>1208.0</ele>
        <time>2020-09-29T12:27:31Z</time>
      </trkpt>
      <trkpt lat="41.0860380" lon="-3.4248030">
        <ele>1208.0</ele>
        <time>2020-09-29T12:27:32Z</time>
      </trkpt>
      <trkpt lat="41.0860380" lon="-3.4248030">
        <ele>1208.0</ele>
        <time>2020-09-29T12:27:33Z</time>
      </trkpt>
      <trkpt lat="41.0859950" lon="-3.4247520">
        <ele>1208.0</ele>
        <time>2020-09-29T12:27:34Z</time>
      </trkpt>
      <trkpt lat="41.0859720" lon="-3.4247270">
        <ele>1209.0</ele>
        <time>2020-09-29T12:27:35Z</time>
      </trkpt>
      <trkpt lat="41.0859720" lon="-3.4247270">
        <ele>1209.0</ele>
        <time>2020-09-29T12:27:36Z</time>
      </trkpt>
      <trkpt lat="41.0859300" lon="-3.4246720">
        <ele>1209.0</ele>
        <time>2020-09-29T12:27:37Z</time>
      </trkpt>
      <trkpt lat="41.0859300" lon="-3.4246720">
        <ele>1209.0</ele>
        <time>2020-09-29T12:27:38Z</time>
      </trkpt>
      <trkpt lat="41.0858920" lon="-3.4246180">
        <ele>1209.0</ele>
        <time>2020-09-29T12:27:39Z</time>
      </trkpt>
      <trkpt lat="41.0858720" lon="-3.4245920">
        <ele>1210.0</ele>
        <time>2020-09-29T12:27:40Z</time>
      </trkpt>
      <trkpt lat="41.0858720" lon="-3.4245920">
        <ele>1210.0</ele>
        <time>2020-09-29T12:27:41Z</time>
      </trkpt>
      <trkpt lat="41.0858280" lon="-3.4245400">
        <ele>1210.0</ele>
        <time>2020-09-29T12:27:42Z</time>
      </trkpt>
      <trkpt lat="41.0858070" lon="-3.4245150">
        <ele>1210.0</ele>
        <time>2020-09-29T12:27:43Z</time>
      </trkpt>
      <trkpt lat="41.0858070" lon="-3.4245150">
        <ele>1210.0</ele>
        <time>2020-09-29T12:27:44Z</time>
      </trkpt>
      <trkpt lat="41.0857620" lon="-3.4244650">
        <ele>1210.0</ele>
        <time>2020-09-29T12:27:45Z</time>
      </trkpt>
      <trkpt lat="41.0857620" lon="-3.4244650">
        <ele>1210.0</ele>
        <time>2020-09-29T12:27:46Z</time>
      </trkpt>
      <trkpt lat="41.0857170" lon="-3.4244150">
        <ele>1210.0</ele>
        <time>2020-09-29T12:27:47Z</time>
      </trkpt>
      <trkpt lat="41.0856920" lon="-3.4243920">
        <ele>1210.0</ele>
        <time>2020-09-29T12:27:48Z</time>
      </trkpt>
      <trkpt lat="41.0856920" lon="-3.4243920">
        <ele>1210.0</ele>
        <time>2020-09-29T12:27:49Z</time>
      </trkpt>
      <trkpt lat="41.0856430" lon="-3.4243480">
        <ele>1211.0</ele>
        <time>2020-09-29T12:27:50Z</time>
      </trkpt>
      <trkpt lat="41.0856430" lon="-3.4243480">
        <ele>1211.0</ele>
        <time>2020-09-29T12:27:51Z</time>
      </trkpt>
      <trkpt lat="41.0855950" lon="-3.4243080">
        <ele>1211.0</ele>
        <time>2020-09-29T12:27:52Z</time>
      </trkpt>
      <trkpt lat="41.0855720" lon="-3.4242900">
        <ele>1211.0</ele>
        <time>2020-09-29T12:27:53Z</time>
      </trkpt>
      <trkpt lat="41.0855720" lon="-3.4242900">
        <ele>1211.0</ele>
        <time>2020-09-29T12:27:54Z</time>
      </trkpt>
      <trkpt lat="41.0855150" lon="-3.4242600">
        <ele>1211.0</ele>
        <time>2020-09-29T12:27:55Z</time>
      </trkpt>
      <trkpt lat="41.0855150" lon="-3.4242600">
        <ele>1213.0</ele>
        <time>2020-09-29T12:27:56Z</time>
      </trkpt>
      <trkpt lat="41.0854550" lon="-3.4242350">
        <ele>1213.0</ele>
        <time>2020-09-29T12:27:57Z</time>
      </trkpt>
      <trkpt lat="41.0854550" lon="-3.4242350">
        <ele>1213.0</ele>
        <time>2020-09-29T12:27:58Z</time>
      </trkpt>
      <trkpt lat="41.0853950" lon="-3.4242150">
        <ele>1213.0</ele>
        <time>2020-09-29T12:27:59Z</time>
      </trkpt>
      <trkpt lat="41.0853950" lon="-3.4242150">
        <ele>1213.0</ele>
        <time>2020-09-29T12:28:00Z</time>
      </trkpt>
      <trkpt lat="41.0853330" lon="-3.4242020">
        <ele>1213.0</ele>
        <time>2020-09-29T12:28:01Z</time>
      </trkpt>
      <trkpt lat="41.0853330" lon="-3.4242020">
        <ele>1214.0</ele>
        <time>2020-09-29T12:28:02Z</time>
      </trkpt>
      <trkpt lat="41.0852730" lon="-3.4241830">
        <ele>1214.0</ele>
        <time>2020-09-29T12:28:03Z</time>
      </trkpt>
      <trkpt lat="41.0852430" lon="-3.4241730">
        <ele>1214.0</ele>
        <time>2020-09-29T12:28:04Z</time>
      </trkpt>
      <trkpt lat="41.0852430" lon="-3.4241730">
        <ele>1214.0</ele>
        <time>2020-09-29T12:28:05Z</time>
      </trkpt>
      <trkpt lat="41.0851820" lon="-3.4241520">
        <ele>1214.0</ele>
        <time>2020-09-29T12:28:06Z</time>
      </trkpt>
      <trkpt lat="41.0851500" lon="-3.4241380">
        <ele>1214.0</ele>
        <time>2020-09-29T12:28:07Z</time>
      </trkpt>
      <trkpt lat="41.0851500" lon="-3.4241380">
        <ele>1214.0</ele>
        <time>2020-09-29T12:28:08Z</time>
      </trkpt>
      <trkpt lat="41.0850900" lon="-3.4241130">
        <ele>1214.0</ele>
        <time>2020-09-29T12:28:09Z</time>
      </trkpt>
      <trkpt lat="41.0850900" lon="-3.4241130">
        <ele>1214.0</ele>
        <time>2020-09-29T12:28:10Z</time>
      </trkpt>
      <trkpt lat="41.0850280" lon="-3.4240970">
        <ele>1215.0</ele>
        <time>2020-09-29T12:28:11Z</time>
      </trkpt>
      <trkpt lat="41.0850280" lon="-3.4240970">
        <ele>1215.0</ele>
        <time>2020-09-29T12:28:12Z</time>
      </trkpt>
      <trkpt lat="41.0849670" lon="-3.4240770">
        <ele>1215.0</ele>
        <time>2020-09-29T12:28:13Z</time>
      </trkpt>
      <trkpt lat="41.0849670" lon="-3.4240770">
        <ele>1215.0</ele>
        <time>2020-09-29T12:28:14Z</time>
      </trkpt>
      <trkpt lat="41.0849030" lon="-3.4240530">
        <ele>1215.0</ele>
        <time>2020-09-29T12:28:15Z</time>
      </trkpt>
      <trkpt lat="41.0848720" lon="-3.4240420">
        <ele>1215.0</ele>
        <time>2020-09-29T12:28:16Z</time>
      </trkpt>
      <trkpt lat="41.0848720" lon="-3.4240420">
        <ele>1215.0</ele>
        <time>2020-09-29T12:28:17Z</time>
      </trkpt>
      <trkpt lat="41.0848070" lon="-3.4240220">
        <ele>1215.0</ele>
        <time>2020-09-29T12:28:18Z</time>
      </trkpt>
      <trkpt lat="41.0848070" lon="-3.4240220">
        <ele>1215.0</ele>
        <time>2020-09-29T12:28:19Z</time>
      </trkpt>
      <trkpt lat="41.0847450" lon="-3.4240000">
        <ele>1215.0</ele>
        <time>2020-09-29T12:28:20Z</time>
      </trkpt>
      <trkpt lat="41.0847450" lon="-3.4240000">
        <ele>1216.0</ele>
        <time>2020-09-29T12:28:21Z</time>
      </trkpt>
      <trkpt lat="41.0846830" lon="-3.4239800">
        <ele>1216.0</ele>
        <time>2020-09-29T12:28:22Z</time>
      </trkpt>
      <trkpt lat="41.0846530" lon="-3.4239700">
        <ele>1216.0</ele>
        <time>2020-09-29T12:28:23Z</time>
      </trkpt>
      <trkpt lat="41.0846530" lon="-3.4239700">
        <ele>1216.0</ele>
        <time>2020-09-29T12:28:24Z</time>
      </trkpt>
      <trkpt lat="41.0845950" lon="-3.4239400">
        <ele>1216.0</ele>
        <time>2020-09-29T12:28:25Z</time>
      </trkpt>
      <trkpt lat="41.0845950" lon="-3.4239400">
        <ele>1216.0</ele>
        <time>2020-09-29T12:28:26Z</time>
      </trkpt>
      <trkpt lat="41.0845350" lon="-3.4239080">
        <ele>1216.0</ele>
        <time>2020-09-29T12:28:27Z</time>
      </trkpt>
      <trkpt lat="41.0845050" lon="-3.4238930">
        <ele>1216.0</ele>
        <time>2020-09-29T12:28:28Z</time>
      </trkpt>
      <trkpt lat="41.0845050" lon="-3.4238930">
        <ele>1216.0</ele>
        <time>2020-09-29T12:28:29Z</time>
      </trkpt>
      <trkpt lat="41.0844480" lon="-3.4238550">
        <ele>1217.0</ele>
        <time>2020-09-29T12:28:30Z</time>
      </trkpt>
      <trkpt lat="41.0844480" lon="-3.4238550">
        <ele>1217.0</ele>
        <time>2020-09-29T12:28:31Z</time>
      </trkpt>
      <trkpt lat="41.0843950" lon="-3.4238170">
        <ele>1217.0</ele>
        <time>2020-09-29T12:28:32Z</time>
      </trkpt>
      <trkpt lat="41.0843950" lon="-3.4238170">
        <ele>1217.0</ele>
        <time>2020-09-29T12:28:33Z</time>
      </trkpt>
      <trkpt lat="41.0843400" lon="-3.4237780">
        <ele>1217.0</ele>
        <time>2020-09-29T12:28:34Z</time>
      </trkpt>
      <trkpt lat="41.0843400" lon="-3.4237780">
        <ele>1217.0</ele>
        <time>2020-09-29T12:28:35Z</time>
      </trkpt>
      <trkpt lat="41.0842870" lon="-3.4237380">
        <ele>1217.0</ele>
        <time>2020-09-29T12:28:36Z</time>
      </trkpt>
      <trkpt lat="41.0842580" lon="-3.4237180">
        <ele>1217.0</ele>
        <time>2020-09-29T12:28:37Z</time>
      </trkpt>
      <trkpt lat="41.0842580" lon="-3.4237180">
        <ele>1217.0</ele>
        <time>2020-09-29T12:28:38Z</time>
      </trkpt>
      <trkpt lat="41.0842030" lon="-3.4236730">
        <ele>1217.0</ele>
        <time>2020-09-29T12:28:39Z</time>
      </trkpt>
      <trkpt lat="41.0842030" lon="-3.4236730">
        <ele>1218.0</ele>
        <time>2020-09-29T12:28:40Z</time>
      </trkpt>
      <trkpt lat="41.0841500" lon="-3.4236300">
        <ele>1218.0</ele>
        <time>2020-09-29T12:28:41Z</time>
      </trkpt>
      <trkpt lat="41.0841500" lon="-3.4236300">
        <ele>1218.0</ele>
        <time>2020-09-29T12:28:42Z</time>
      </trkpt>
      <trkpt lat="41.0840900" lon="-3.4235950">
        <ele>1218.0</ele>
        <time>2020-09-29T12:28:43Z</time>
      </trkpt>
      <trkpt lat="41.0840900" lon="-3.4235950">
        <ele>1218.0</ele>
        <time>2020-09-29T12:28:44Z</time>
      </trkpt>
      <trkpt lat="41.0840350" lon="-3.4235520">
        <ele>1218.0</ele>
        <time>2020-09-29T12:28:45Z</time>
      </trkpt>
      <trkpt lat="41.0840350" lon="-3.4235520">
        <ele>1218.0</ele>
        <time>2020-09-29T12:28:46Z</time>
      </trkpt>
      <trkpt lat="41.0839780" lon="-3.4235120">
        <ele>1218.0</ele>
        <time>2020-09-29T12:28:47Z</time>
      </trkpt>
      <trkpt lat="41.0839500" lon="-3.4234880">
        <ele>1218.0</ele>
        <time>2020-09-29T12:28:48Z</time>
      </trkpt>
      <trkpt lat="41.0839500" lon="-3.4234880">
        <ele>1218.0</ele>
        <time>2020-09-29T12:28:49Z</time>
      </trkpt>
      <trkpt lat="41.0838970" lon="-3.4234420">
        <ele>1218.0</ele>
        <time>2020-09-29T12:28:50Z</time>
      </trkpt>
      <trkpt lat="41.0838970" lon="-3.4234420">
        <ele>1218.0</ele>
        <time>2020-09-29T12:28:51Z</time>
      </trkpt>
      <trkpt lat="41.0838420" lon="-3.4233970">
        <ele>1218.0</ele>
        <time>2020-09-29T12:28:52Z</time>
      </trkpt>
      <trkpt lat="41.0838420" lon="-3.4233970">
        <ele>1219.0</ele>
        <time>2020-09-29T12:28:53Z</time>
      </trkpt>
      <trkpt lat="41.0837870" lon="-3.4233570">
        <ele>1219.0</ele>
        <time>2020-09-29T12:28:54Z</time>
      </trkpt>
      <trkpt lat="41.0837580" lon="-3.4233350">
        <ele>1219.0</ele>
        <time>2020-09-29T12:28:55Z</time>
      </trkpt>
      <trkpt lat="41.0837580" lon="-3.4233350">
        <ele>1219.0</ele>
        <time>2020-09-29T12:28:56Z</time>
      </trkpt>
      <trkpt lat="41.0837050" lon="-3.4232920">
        <ele>1219.0</ele>
        <time>2020-09-29T12:28:57Z</time>
      </trkpt>
      <trkpt lat="41.0837050" lon="-3.4232920">
        <ele>1219.0</ele>
        <time>2020-09-29T12:28:58Z</time>
      </trkpt>
      <trkpt lat="41.0836500" lon="-3.4232520">
        <ele>1219.0</ele>
        <time>2020-09-29T12:28:59Z</time>
      </trkpt>
      <trkpt lat="41.0836500" lon="-3.4232520">
        <ele>1219.0</ele>
        <time>2020-09-29T12:29:00Z</time>
      </trkpt>
      <trkpt lat="41.0835930" lon="-3.4232130">
        <ele>1219.0</ele>
        <time>2020-09-29T12:29:01Z</time>
      </trkpt>
      <trkpt lat="41.0835930" lon="-3.4232130">
        <ele>1219.0</ele>
        <time>2020-09-29T12:29:02Z</time>
      </trkpt>
      <trkpt lat="41.0835350" lon="-3.4231730">
        <ele>1219.0</ele>
        <time>2020-09-29T12:29:03Z</time>
      </trkpt>
      <trkpt lat="41.0835350" lon="-3.4231730">
        <ele>1219.0</ele>
        <time>2020-09-29T12:29:04Z</time>
      </trkpt>
      <trkpt lat="41.0834800" lon="-3.4231320">
        <ele>1219.0</ele>
        <time>2020-09-29T12:29:05Z</time>
      </trkpt>
      <trkpt lat="41.0834520" lon="-3.4231120">
        <ele>1219.0</ele>
        <time>2020-09-29T12:29:06Z</time>
      </trkpt>
      <trkpt lat="41.0834520" lon="-3.4231120">
        <ele>1220.0</ele>
        <time>2020-09-29T12:29:07Z</time>
      </trkpt>
      <trkpt lat="41.0834000" lon="-3.4230700">
        <ele>1220.0</ele>
        <time>2020-09-29T12:29:08Z</time>
      </trkpt>
      <trkpt lat="41.0834000" lon="-3.4230700">
        <ele>1220.0</ele>
        <time>2020-09-29T12:29:09Z</time>
      </trkpt>
      <trkpt lat="41.0833470" lon="-3.4230320">
        <ele>1220.0</ele>
        <time>2020-09-29T12:29:10Z</time>
      </trkpt>
      <trkpt lat="41.0833180" lon="-3.4230130">
        <ele>1220.0</ele>
        <time>2020-09-29T12:29:11Z</time>
      </trkpt>
      <trkpt lat="41.0833180" lon="-3.4230130">
        <ele>1220.0</ele>
        <time>2020-09-29T12:29:12Z</time>
      </trkpt>
      <trkpt lat="41.0832630" lon="-3.4229730">
        <ele>1220.0</ele>
        <time>2020-09-29T12:29:13Z</time>
      </trkpt>
      <trkpt lat="41.0832630" lon="-3.4229730">
        <ele>1220.0</ele>
        <time>2020-09-29T12:29:14Z</time>
      </trkpt>
      <trkpt lat="41.0832100" lon="-3.4229270">
        <ele>1220.0</ele>
        <time>2020-09-29T12:29:15Z</time>
      </trkpt>
      <trkpt lat="41.0831820" lon="-3.4229050">
        <ele>1220.0</ele>
        <time>2020-09-29T12:29:16Z</time>
      </trkpt>
      <trkpt lat="41.0831820" lon="-3.4229050">
        <ele>1220.0</ele>
        <time>2020-09-29T12:29:17Z</time>
      </trkpt>
      <trkpt lat="41.0831270" lon="-3.4228620">
        <ele>1220.0</ele>
        <time>2020-09-29T12:29:18Z</time>
      </trkpt>
      <trkpt lat="41.0831020" lon="-3.4228380">
        <ele>1220.0</ele>
        <time>2020-09-29T12:29:19Z</time>
      </trkpt>
      <trkpt lat="41.0830780" lon="-3.4228130">
        <ele>1220.0</ele>
        <time>2020-09-29T12:29:20Z</time>
      </trkpt>
      <trkpt lat="41.0830780" lon="-3.4228130">
        <ele>1220.0</ele>
        <time>2020-09-29T12:29:21Z</time>
      </trkpt>
      <trkpt lat="41.0830330" lon="-3.4227570">
        <ele>1221.0</ele>
        <time>2020-09-29T12:29:22Z</time>
      </trkpt>
      <trkpt lat="41.0830330" lon="-3.4227570">
        <ele>1221.0</ele>
        <time>2020-09-29T12:29:23Z</time>
      </trkpt>
      <trkpt lat="41.0829950" lon="-3.4226930">
        <ele>1221.0</ele>
        <time>2020-09-29T12:29:24Z</time>
      </trkpt>
      <trkpt lat="41.0829950" lon="-3.4226930">
        <ele>1221.0</ele>
        <time>2020-09-29T12:29:25Z</time>
      </trkpt>
      <trkpt lat="41.0829650" lon="-3.4226270">
        <ele>1221.0</ele>
        <time>2020-09-29T12:29:26Z</time>
      </trkpt>
      <trkpt lat="41.0829570" lon="-3.4225930">
        <ele>1221.0</ele>
        <time>2020-09-29T12:29:27Z</time>
      </trkpt>
      <trkpt lat="41.0829570" lon="-3.4225930">
        <ele>1221.0</ele>
        <time>2020-09-29T12:29:28Z</time>
      </trkpt>
      <trkpt lat="41.0829470" lon="-3.4225170">
        <ele>1221.0</ele>
        <time>2020-09-29T12:29:29Z</time>
      </trkpt>
      <trkpt lat="41.0829470" lon="-3.4225170">
        <ele>1221.0</ele>
        <time>2020-09-29T12:29:30Z</time>
      </trkpt>
      <trkpt lat="41.0829330" lon="-3.4224320">
        <ele>1221.0</ele>
        <time>2020-09-29T12:29:31Z</time>
      </trkpt>
      <trkpt lat="41.0829330" lon="-3.4224320">
        <ele>1221.0</ele>
        <time>2020-09-29T12:29:32Z</time>
      </trkpt>
      <trkpt lat="41.0829320" lon="-3.4223400">
        <ele>1221.0</ele>
        <time>2020-09-29T12:29:33Z</time>
      </trkpt>
      <trkpt lat="41.0829320" lon="-3.4223400">
        <ele>1221.0</ele>
        <time>2020-09-29T12:29:34Z</time>
      </trkpt>
      <trkpt lat="41.0829400" lon="-3.4222430">
        <ele>1221.0</ele>
        <time>2020-09-29T12:29:35Z</time>
      </trkpt>
      <trkpt lat="41.0829400" lon="-3.4222430">
        <ele>1221.0</ele>
        <time>2020-09-29T12:29:36Z</time>
      </trkpt>
      <trkpt lat="41.0829650" lon="-3.4221500">
        <ele>1221.0</ele>
        <time>2020-09-29T12:29:37Z</time>
      </trkpt>
      <trkpt lat="41.0829650" lon="-3.4221500">
        <ele>1221.0</ele>
        <time>2020-09-29T12:29:38Z</time>
      </trkpt>
      <trkpt lat="41.0830000" lon="-3.4220650">
        <ele>1221.0</ele>
        <time>2020-09-29T12:29:39Z</time>
      </trkpt>
      <trkpt lat="41.0830220" lon="-3.4220230">
        <ele>1221.0</ele>
        <time>2020-09-29T12:29:40Z</time>
      </trkpt>
      <trkpt lat="41.0830220" lon="-3.4220230">
        <ele>1221.0</ele>
        <time>2020-09-29T12:29:41Z</time>
      </trkpt>
      <trkpt lat="41.0830820" lon="-3.4219570">
        <ele>1222.0</ele>
        <time>2020-09-29T12:29:42Z</time>
      </trkpt>
      <trkpt lat="41.0831120" lon="-3.4219280">
        <ele>1222.0</ele>
        <time>2020-09-29T12:29:43Z</time>
      </trkpt>
      <trkpt lat="41.0831120" lon="-3.4219280">
        <ele>1222.0</ele>
        <time>2020-09-29T12:29:44Z</time>
      </trkpt>
      <trkpt lat="41.0831770" lon="-3.4218720">
        <ele>1222.0</ele>
        <time>2020-09-29T12:29:45Z</time>
      </trkpt>
      <trkpt lat="41.0831770" lon="-3.4218720">
        <ele>1222.0</ele>
        <time>2020-09-29T12:29:46Z</time>
      </trkpt>
      <trkpt lat="41.0832450" lon="-3.4218230">
        <ele>1222.0</ele>
        <time>2020-09-29T12:29:47Z</time>
      </trkpt>
      <trkpt lat="41.0832450" lon="-3.4218230">
        <ele>1222.0</ele>
        <time>2020-09-29T12:29:48Z</time>
      </trkpt>
      <trkpt lat="41.0833170" lon="-3.4217880">
        <ele>1222.0</ele>
        <time>2020-09-29T12:29:49Z</time>
      </trkpt>
      <trkpt lat="41.0833550" lon="-3.4217720">
        <ele>1222.0</ele>
        <time>2020-09-29T12:29:50Z</time>
      </trkpt>
      <trkpt lat="41.0833550" lon="-3.4217720">
        <ele>1222.0</ele>
        <time>2020-09-29T12:29:51Z</time>
      </trkpt>
      <trkpt lat="41.0834320" lon="-3.4217380">
        <ele>1222.0</ele>
        <time>2020-09-29T12:29:52Z</time>
      </trkpt>
      <trkpt lat="41.0834320" lon="-3.4217380">
        <ele>1223.0</ele>
        <time>2020-09-29T12:29:53Z</time>
      </trkpt>
      <trkpt lat="41.0835100" lon="-3.4217000">
        <ele>1223.0</ele>
        <time>2020-09-29T12:29:54Z</time>
      </trkpt>
      <trkpt lat="41.0835520" lon="-3.4216830">
        <ele>1223.0</ele>
        <time>2020-09-29T12:29:55Z</time>
      </trkpt>
      <trkpt lat="41.0835950" lon="-3.4216670">
        <ele>1223.0</ele>
        <time>2020-09-29T12:29:56Z</time>
      </trkpt>
      <trkpt lat="41.0835950" lon="-3.4216670">
        <ele>1223.0</ele>
        <time>2020-09-29T12:29:57Z</time>
      </trkpt>
      <trkpt lat="41.0836800" lon="-3.4216300">
        <ele>1223.0</ele>
        <time>2020-09-29T12:29:58Z</time>
      </trkpt>
      <trkpt lat="41.0837220" lon="-3.4216120">
        <ele>1223.0</ele>
        <time>2020-09-29T12:29:59Z</time>
      </trkpt>
      <trkpt lat="41.0837220" lon="-3.4216120">
        <ele>1223.0</ele>
        <time>2020-09-29T12:30:00Z</time>
      </trkpt>
      <trkpt lat="41.0838020" lon="-3.4215770">
        <ele>1223.0</ele>
        <time>2020-09-29T12:30:01Z</time>
      </trkpt>
      <trkpt lat="41.0838020" lon="-3.4215770">
        <ele>1223.0</ele>
        <time>2020-09-29T12:30:02Z</time>
      </trkpt>
      <trkpt lat="41.0838870" lon="-3.4215350">
        <ele>1223.0</ele>
        <time>2020-09-29T12:30:03Z</time>
      </trkpt>
      <trkpt lat="41.0838870" lon="-3.4215350">
        <ele>1223.0</ele>
        <time>2020-09-29T12:30:04Z</time>
      </trkpt>
      <trkpt lat="41.0839730" lon="-3.4214980">
        <ele>1223.0</ele>
        <time>2020-09-29T12:30:05Z</time>
      </trkpt>
      <trkpt lat="41.0839730" lon="-3.4214980">
        <ele>1223.0</ele>
        <time>2020-09-29T12:30:06Z</time>
      </trkpt>
      <trkpt lat="41.0840650" lon="-3.4214500">
        <ele>1223.0</ele>
        <time>2020-09-29T12:30:07Z</time>
      </trkpt>
      <trkpt lat="41.0840650" lon="-3.4214500">
        <ele>1223.0</ele>
        <time>2020-09-29T12:30:08Z</time>
      </trkpt>
      <trkpt lat="41.0841550" lon="-3.4214020">
        <ele>1223.0</ele>
        <time>2020-09-29T12:30:09Z</time>
      </trkpt>
      <trkpt lat="41.0841550" lon="-3.4214020">
        <ele>1223.0</ele>
        <time>2020-09-29T12:30:10Z</time>
      </trkpt>
      <trkpt lat="41.0842270" lon="-3.4213400">
        <ele>1223.0</ele>
        <time>2020-09-29T12:30:11Z</time>
      </trkpt>
      <trkpt lat="41.0842270" lon="-3.4213400">
        <ele>1223.0</ele>
        <time>2020-09-29T12:30:12Z</time>
      </trkpt>
      <trkpt lat="41.0843000" lon="-3.4212970">
        <ele>1223.0</ele>
        <time>2020-09-29T12:30:13Z</time>
      </trkpt>
      <trkpt lat="41.0843000" lon="-3.4212970">
        <ele>1223.0</ele>
        <time>2020-09-29T12:30:14Z</time>
      </trkpt>
      <trkpt lat="41.0843830" lon="-3.4212370">
        <ele>1223.0</ele>
        <time>2020-09-29T12:30:15Z</time>
      </trkpt>
      <trkpt lat="41.0843830" lon="-3.4212370">
        <ele>1223.0</ele>
        <time>2020-09-29T12:30:16Z</time>
      </trkpt>
      <trkpt lat="41.0844630" lon="-3.4211620">
        <ele>1223.0</ele>
        <time>2020-09-29T12:30:17Z</time>
      </trkpt>
      <trkpt lat="41.0844630" lon="-3.4211620">
        <ele>1223.0</ele>
        <time>2020-09-29T12:30:18Z</time>
      </trkpt>
      <trkpt lat="41.0844630" lon="-3.4211620">
        <ele>1223.0</ele>
        <time>2020-09-29T12:30:19Z</time>
      </trkpt>
      <trkpt lat="41.0845380" lon="-3.4210830">
        <ele>1223.0</ele>
        <time>2020-09-29T12:30:20Z</time>
      </trkpt>
      <trkpt lat="41.0846200" lon="-3.4210020">
        <ele>1223.0</ele>
        <time>2020-09-29T12:30:21Z</time>
      </trkpt>
      <trkpt lat="41.0846200" lon="-3.4210020">
        <ele>1223.0</ele>
        <time>2020-09-29T12:30:22Z</time>
      </trkpt>
      <trkpt lat="41.0847070" lon="-3.4209270">
        <ele>1223.0</ele>
        <time>2020-09-29T12:30:23Z</time>
      </trkpt>
      <trkpt lat="41.0847550" lon="-3.4208970">
        <ele>1223.0</ele>
        <time>2020-09-29T12:30:24Z</time>
      </trkpt>
      <trkpt lat="41.0847550" lon="-3.4208970">
        <ele>1224.0</ele>
        <time>2020-09-29T12:30:25Z</time>
      </trkpt>
      <trkpt lat="41.0848500" lon="-3.4208430">
        <ele>1224.0</ele>
        <time>2020-09-29T12:30:26Z</time>
      </trkpt>
      <trkpt lat="41.0848500" lon="-3.4208430">
        <ele>1224.0</ele>
        <time>2020-09-29T12:30:27Z</time>
      </trkpt>
      <trkpt lat="41.0849550" lon="-3.4207920">
        <ele>1224.0</ele>
        <time>2020-09-29T12:30:28Z</time>
      </trkpt>
      <trkpt lat="41.0849550" lon="-3.4207920">
        <ele>1224.0</ele>
        <time>2020-09-29T12:30:29Z</time>
      </trkpt>
      <trkpt lat="41.0850550" lon="-3.4207400">
        <ele>1224.0</ele>
        <time>2020-09-29T12:30:30Z</time>
      </trkpt>
      <trkpt lat="41.0851050" lon="-3.4207130">
        <ele>1224.0</ele>
        <time>2020-09-29T12:30:31Z</time>
      </trkpt>
      <trkpt lat="41.0851050" lon="-3.4207130">
        <ele>1224.0</ele>
        <time>2020-09-29T12:30:32Z</time>
      </trkpt>
      <trkpt lat="41.0852050" lon="-3.4206700">
        <ele>1224.0</ele>
        <time>2020-09-29T12:30:33Z</time>
      </trkpt>
      <trkpt lat="41.0852050" lon="-3.4206700">
        <ele>1224.0</ele>
        <time>2020-09-29T12:30:34Z</time>
      </trkpt>
      <trkpt lat="41.0853130" lon="-3.4206320">
        <ele>1224.0</ele>
        <time>2020-09-29T12:30:35Z</time>
      </trkpt>
      <trkpt lat="41.0853130" lon="-3.4206320">
        <ele>1224.0</ele>
        <time>2020-09-29T12:30:36Z</time>
      </trkpt>
      <trkpt lat="41.0854230" lon="-3.4206000">
        <ele>1224.0</ele>
        <time>2020-09-29T12:30:37Z</time>
      </trkpt>
      <trkpt lat="41.0854230" lon="-3.4206000">
        <ele>1224.0</ele>
        <time>2020-09-29T12:30:38Z</time>
      </trkpt>
      <trkpt lat="41.0855380" lon="-3.4205520">
        <ele>1224.0</ele>
        <time>2020-09-29T12:30:39Z</time>
      </trkpt>
      <trkpt lat="41.0855380" lon="-3.4205520">
        <ele>1224.0</ele>
        <time>2020-09-29T12:30:40Z</time>
      </trkpt>
      <trkpt lat="41.0856470" lon="-3.4205100">
        <ele>1224.0</ele>
        <time>2020-09-29T12:30:41Z</time>
      </trkpt>
      <trkpt lat="41.0857050" lon="-3.4204930">
        <ele>1225.0</ele>
        <time>2020-09-29T12:30:42Z</time>
      </trkpt>
      <trkpt lat="41.0857050" lon="-3.4204930">
        <ele>1225.0</ele>
        <time>2020-09-29T12:30:43Z</time>
      </trkpt>
      <trkpt lat="41.0858230" lon="-3.4204700">
        <ele>1225.0</ele>
        <time>2020-09-29T12:30:44Z</time>
      </trkpt>
      <trkpt lat="41.0858230" lon="-3.4204700">
        <ele>1225.0</ele>
        <time>2020-09-29T12:30:45Z</time>
      </trkpt>
      <trkpt lat="41.0859300" lon="-3.4204380">
        <ele>1225.0</ele>
        <time>2020-09-29T12:30:46Z</time>
      </trkpt>
      <trkpt lat="41.0859800" lon="-3.4204130">
        <ele>1225.0</ele>
        <time>2020-09-29T12:30:47Z</time>
      </trkpt>
      <trkpt lat="41.0859800" lon="-3.4204130">
        <ele>1225.0</ele>
        <time>2020-09-29T12:30:48Z</time>
      </trkpt>
      <trkpt lat="41.0860720" lon="-3.4203580">
        <ele>1226.0</ele>
        <time>2020-09-29T12:30:49Z</time>
      </trkpt>
      <trkpt lat="41.0860720" lon="-3.4203580">
        <ele>1226.0</ele>
        <time>2020-09-29T12:30:50Z</time>
      </trkpt>
      <trkpt lat="41.0861530" lon="-3.4202730">
        <ele>1226.0</ele>
        <time>2020-09-29T12:30:51Z</time>
      </trkpt>
      <trkpt lat="41.0861930" lon="-3.4202270">
        <ele>1226.0</ele>
        <time>2020-09-29T12:30:52Z</time>
      </trkpt>
      <trkpt lat="41.0862320" lon="-3.4201750">
        <ele>1226.0</ele>
        <time>2020-09-29T12:30:53Z</time>
      </trkpt>
      <trkpt lat="41.0862320" lon="-3.4201750">
        <ele>1226.0</ele>
        <time>2020-09-29T12:30:54Z</time>
      </trkpt>
      <trkpt lat="41.0863080" lon="-3.4200750">
        <ele>1226.0</ele>
        <time>2020-09-29T12:30:55Z</time>
      </trkpt>
      <trkpt lat="41.0863080" lon="-3.4200750">
        <ele>1226.0</ele>
        <time>2020-09-29T12:30:56Z</time>
      </trkpt>
      <trkpt lat="41.0863780" lon="-3.4199720">
        <ele>1226.0</ele>
        <time>2020-09-29T12:30:57Z</time>
      </trkpt>
      <trkpt lat="41.0864130" lon="-3.4199200">
        <ele>1227.0</ele>
        <time>2020-09-29T12:30:58Z</time>
      </trkpt>
      <trkpt lat="41.0864130" lon="-3.4199200">
        <ele>1227.0</ele>
        <time>2020-09-29T12:30:59Z</time>
      </trkpt>
      <trkpt lat="41.0864770" lon="-3.4198270">
        <ele>1227.0</ele>
        <time>2020-09-29T12:31:00Z</time>
      </trkpt>
      <trkpt lat="41.0864770" lon="-3.4198270">
        <ele>1227.0</ele>
        <time>2020-09-29T12:31:01Z</time>
      </trkpt>
      <trkpt lat="41.0865370" lon="-3.4197420">
        <ele>1227.0</ele>
        <time>2020-09-29T12:31:02Z</time>
      </trkpt>
      <trkpt lat="41.0865670" lon="-3.4196950">
        <ele>1227.0</ele>
        <time>2020-09-29T12:31:03Z</time>
      </trkpt>
      <trkpt lat="41.0865670" lon="-3.4196950">
        <ele>1227.0</ele>
        <time>2020-09-29T12:31:04Z</time>
      </trkpt>
      <trkpt lat="41.0866300" lon="-3.4196100">
        <ele>1227.0</ele>
        <time>2020-09-29T12:31:05Z</time>
      </trkpt>
      <trkpt lat="41.0866300" lon="-3.4196100">
        <ele>1227.0</ele>
        <time>2020-09-29T12:31:06Z</time>
      </trkpt>
      <trkpt lat="41.0866970" lon="-3.4195230">
        <ele>1227.0</ele>
        <time>2020-09-29T12:31:07Z</time>
      </trkpt>
      <trkpt lat="41.0866970" lon="-3.4195230">
        <ele>1228.0</ele>
        <time>2020-09-29T12:31:08Z</time>
      </trkpt>
      <trkpt lat="41.0867750" lon="-3.4194400">
        <ele>1228.0</ele>
        <time>2020-09-29T12:31:09Z</time>
      </trkpt>
      <trkpt lat="41.0867750" lon="-3.4194400">
        <ele>1228.0</ele>
        <time>2020-09-29T12:31:10Z</time>
      </trkpt>
      <trkpt lat="41.0868570" lon="-3.4193630">
        <ele>1228.0</ele>
        <time>2020-09-29T12:31:11Z</time>
      </trkpt>
      <trkpt lat="41.0868570" lon="-3.4193630">
        <ele>1228.0</ele>
        <time>2020-09-29T12:31:12Z</time>
      </trkpt>
      <trkpt lat="41.0869220" lon="-3.4192900">
        <ele>1229.0</ele>
        <time>2020-09-29T12:31:13Z</time>
      </trkpt>
      <trkpt lat="41.0869530" lon="-3.4192550">
        <ele>1229.0</ele>
        <time>2020-09-29T12:31:14Z</time>
      </trkpt>
      <trkpt lat="41.0869530" lon="-3.4192550">
        <ele>1229.0</ele>
        <time>2020-09-29T12:31:15Z</time>
      </trkpt>
      <trkpt lat="41.0870150" lon="-3.4191850">
        <ele>1229.0</ele>
        <time>2020-09-29T12:31:16Z</time>
      </trkpt>
      <trkpt lat="41.0870150" lon="-3.4191850">
        <ele>1229.0</ele>
        <time>2020-09-29T12:31:17Z</time>
      </trkpt>
      <trkpt lat="41.0870730" lon="-3.4191230">
        <ele>1229.0</ele>
        <time>2020-09-29T12:31:18Z</time>
      </trkpt>
      <trkpt lat="41.0870970" lon="-3.4190930">
        <ele>1229.0</ele>
        <time>2020-09-29T12:31:19Z</time>
      </trkpt>
      <trkpt lat="41.0870970" lon="-3.4190930">
        <ele>1229.0</ele>
        <time>2020-09-29T12:31:20Z</time>
      </trkpt>
      <trkpt lat="41.0871580" lon="-3.4190580">
        <ele>1230.0</ele>
        <time>2020-09-29T12:31:21Z</time>
      </trkpt>
      <trkpt lat="41.0871580" lon="-3.4190580">
        <ele>1230.0</ele>
        <time>2020-09-29T12:31:22Z</time>
      </trkpt>
      <trkpt lat="41.0872230" lon="-3.4190550">
        <ele>1230.0</ele>
        <time>2020-09-29T12:31:23Z</time>
      </trkpt>
      <trkpt lat="41.0872580" lon="-3.4190750">
        <ele>1230.0</ele>
        <time>2020-09-29T12:31:24Z</time>
      </trkpt>
      <trkpt lat="41.0872870" lon="-3.4190970">
        <ele>1230.0</ele>
        <time>2020-09-29T12:31:25Z</time>
      </trkpt>
      <trkpt lat="41.0872870" lon="-3.4190970">
        <ele>1230.0</ele>
        <time>2020-09-29T12:31:26Z</time>
      </trkpt>
      <trkpt lat="41.0873550" lon="-3.4191380">
        <ele>1230.0</ele>
        <time>2020-09-29T12:31:27Z</time>
      </trkpt>
      <trkpt lat="41.0873900" lon="-3.4191570">
        <ele>1230.0</ele>
        <time>2020-09-29T12:31:28Z</time>
      </trkpt>
      <trkpt lat="41.0873900" lon="-3.4191570">
        <ele>1231.0</ele>
        <time>2020-09-29T12:31:29Z</time>
      </trkpt>
      <trkpt lat="41.0874630" lon="-3.4191880">
        <ele>1231.0</ele>
        <time>2020-09-29T12:31:30Z</time>
      </trkpt>
      <trkpt lat="41.0874630" lon="-3.4191880">
        <ele>1231.0</ele>
        <time>2020-09-29T12:31:31Z</time>
      </trkpt>
      <trkpt lat="41.0875350" lon="-3.4192230">
        <ele>1231.0</ele>
        <time>2020-09-29T12:31:32Z</time>
      </trkpt>
      <trkpt lat="41.0875350" lon="-3.4192230">
        <ele>1231.0</ele>
        <time>2020-09-29T12:31:33Z</time>
      </trkpt>
      <trkpt lat="41.0876100" lon="-3.4192500">
        <ele>1231.0</ele>
        <time>2020-09-29T12:31:34Z</time>
      </trkpt>
      <trkpt lat="41.0876100" lon="-3.4192500">
        <ele>1232.0</ele>
        <time>2020-09-29T12:31:35Z</time>
      </trkpt>
      <trkpt lat="41.0876800" lon="-3.4192830">
        <ele>1232.0</ele>
        <time>2020-09-29T12:31:36Z</time>
      </trkpt>
      <trkpt lat="41.0877150" lon="-3.4193000">
        <ele>1232.0</ele>
        <time>2020-09-29T12:31:37Z</time>
      </trkpt>
      <trkpt lat="41.0877150" lon="-3.4193000">
        <ele>1232.0</ele>
        <time>2020-09-29T12:31:38Z</time>
      </trkpt>
      <trkpt lat="41.0877830" lon="-3.4193350">
        <ele>1233.0</ele>
        <time>2020-09-29T12:31:39Z</time>
      </trkpt>
      <trkpt lat="41.0878130" lon="-3.4193500">
        <ele>1233.0</ele>
        <time>2020-09-29T12:31:40Z</time>
      </trkpt>
      <trkpt lat="41.0878480" lon="-3.4193650">
        <ele>1233.0</ele>
        <time>2020-09-29T12:31:41Z</time>
      </trkpt>
      <trkpt lat="41.0878480" lon="-3.4193650">
        <ele>1234.0</ele>
        <time>2020-09-29T12:31:42Z</time>
      </trkpt>
      <trkpt lat="41.0879250" lon="-3.4193970">
        <ele>1234.0</ele>
        <time>2020-09-29T12:31:43Z</time>
      </trkpt>
      <trkpt lat="41.0879250" lon="-3.4193970">
        <ele>1234.0</ele>
        <time>2020-09-29T12:31:44Z</time>
      </trkpt>
      <trkpt lat="41.0880030" lon="-3.4194200">
        <ele>1234.0</ele>
        <time>2020-09-29T12:31:45Z</time>
      </trkpt>
      <trkpt lat="41.0880030" lon="-3.4194200">
        <ele>1234.0</ele>
        <time>2020-09-29T12:31:46Z</time>
      </trkpt>
      <trkpt lat="41.0880780" lon="-3.4194350">
        <ele>1234.0</ele>
        <time>2020-09-29T12:31:47Z</time>
      </trkpt>
      <trkpt lat="41.0881220" lon="-3.4194370">
        <ele>1235.0</ele>
        <time>2020-09-29T12:31:48Z</time>
      </trkpt>
      <trkpt lat="41.0881620" lon="-3.4194400">
        <ele>1235.0</ele>
        <time>2020-09-29T12:31:49Z</time>
      </trkpt>
      <trkpt lat="41.0881620" lon="-3.4194400">
        <ele>1235.0</ele>
        <time>2020-09-29T12:31:50Z</time>
      </trkpt>
      <trkpt lat="41.0882300" lon="-3.4194380">
        <ele>1235.0</ele>
        <time>2020-09-29T12:31:51Z</time>
      </trkpt>
      <trkpt lat="41.0882300" lon="-3.4194380">
        <ele>1235.0</ele>
        <time>2020-09-29T12:31:52Z</time>
      </trkpt>
      <trkpt lat="41.0883000" lon="-3.4194380">
        <ele>1235.0</ele>
        <time>2020-09-29T12:31:53Z</time>
      </trkpt>
      <trkpt lat="41.0883270" lon="-3.4194330">
        <ele>1235.0</ele>
        <time>2020-09-29T12:31:54Z</time>
      </trkpt>
      <trkpt lat="41.0883270" lon="-3.4194330">
        <ele>1235.0</ele>
        <time>2020-09-29T12:31:55Z</time>
      </trkpt>
      <trkpt lat="41.0883920" lon="-3.4194330">
        <ele>1235.0</ele>
        <time>2020-09-29T12:31:56Z</time>
      </trkpt>
      <trkpt lat="41.0883920" lon="-3.4194330">
        <ele>1235.0</ele>
        <time>2020-09-29T12:31:57Z</time>
      </trkpt>
      <trkpt lat="41.0884550" lon="-3.4194330">
        <ele>1237.0</ele>
        <time>2020-09-29T12:31:58Z</time>
      </trkpt>
      <trkpt lat="41.0884850" lon="-3.4194300">
        <ele>1237.0</ele>
        <time>2020-09-29T12:31:59Z</time>
      </trkpt>
      <trkpt lat="41.0884850" lon="-3.4194300">
        <ele>1237.0</ele>
        <time>2020-09-29T12:32:00Z</time>
      </trkpt>
      <trkpt lat="41.0885430" lon="-3.4194380">
        <ele>1237.0</ele>
        <time>2020-09-29T12:32:01Z</time>
      </trkpt>
      <trkpt lat="41.0885430" lon="-3.4194380">
        <ele>1237.0</ele>
        <time>2020-09-29T12:32:02Z</time>
      </trkpt>
      <trkpt lat="41.0886100" lon="-3.4194420">
        <ele>1237.0</ele>
        <time>2020-09-29T12:32:03Z</time>
      </trkpt>
      <trkpt lat="41.0886420" lon="-3.4194450">
        <ele>1237.0</ele>
        <time>2020-09-29T12:32:04Z</time>
      </trkpt>
      <trkpt lat="41.0886420" lon="-3.4194450">
        <ele>1238.0</ele>
        <time>2020-09-29T12:32:05Z</time>
      </trkpt>
      <trkpt lat="41.0887050" lon="-3.4194430">
        <ele>1238.0</ele>
        <time>2020-09-29T12:32:06Z</time>
      </trkpt>
      <trkpt lat="41.0887050" lon="-3.4194430">
        <ele>1238.0</ele>
        <time>2020-09-29T12:32:07Z</time>
      </trkpt>
      <trkpt lat="41.0887720" lon="-3.4194270">
        <ele>1238.0</ele>
        <time>2020-09-29T12:32:08Z</time>
      </trkpt>
      <trkpt lat="41.0887720" lon="-3.4194270">
        <ele>1238.0</ele>
        <time>2020-09-29T12:32:09Z</time>
      </trkpt>
      <trkpt lat="41.0888320" lon="-3.4193830">
        <ele>1238.0</ele>
        <time>2020-09-29T12:32:10Z</time>
      </trkpt>
      <trkpt lat="41.0888620" lon="-3.4193530">
        <ele>1238.0</ele>
        <time>2020-09-29T12:32:11Z</time>
      </trkpt>
      <trkpt lat="41.0888620" lon="-3.4193530">
        <ele>1238.0</ele>
        <time>2020-09-29T12:32:12Z</time>
      </trkpt>
      <trkpt lat="41.0889100" lon="-3.4192780">
        <ele>1238.0</ele>
        <time>2020-09-29T12:32:13Z</time>
      </trkpt>
      <trkpt lat="41.0889100" lon="-3.4192780">
        <ele>1238.0</ele>
        <time>2020-09-29T12:32:14Z</time>
      </trkpt>
      <trkpt lat="41.0889600" lon="-3.4192000">
        <ele>1238.0</ele>
        <time>2020-09-29T12:32:15Z</time>
      </trkpt>
      <trkpt lat="41.0889770" lon="-3.4191580">
        <ele>1238.0</ele>
        <time>2020-09-29T12:32:16Z</time>
      </trkpt>
      <trkpt lat="41.0889770" lon="-3.4191580">
        <ele>1239.0</ele>
        <time>2020-09-29T12:32:17Z</time>
      </trkpt>
      <trkpt lat="41.0890200" lon="-3.4190870">
        <ele>1239.0</ele>
        <time>2020-09-29T12:32:18Z</time>
      </trkpt>
      <trkpt lat="41.0890380" lon="-3.4190480">
        <ele>1239.0</ele>
        <time>2020-09-29T12:32:19Z</time>
      </trkpt>
      <trkpt lat="41.0890380" lon="-3.4190480">
        <ele>1240.0</ele>
        <time>2020-09-29T12:32:20Z</time>
      </trkpt>
      <trkpt lat="41.0890800" lon="-3.4189750">
        <ele>1240.0</ele>
        <time>2020-09-29T12:32:21Z</time>
      </trkpt>
      <trkpt lat="41.0890800" lon="-3.4189750">
        <ele>1240.0</ele>
        <time>2020-09-29T12:32:22Z</time>
      </trkpt>
      <trkpt lat="41.0891180" lon="-3.4189030">
        <ele>1240.0</ele>
        <time>2020-09-29T12:32:23Z</time>
      </trkpt>
      <trkpt lat="41.0891180" lon="-3.4189030">
        <ele>1241.0</ele>
        <time>2020-09-29T12:32:24Z</time>
      </trkpt>
      <trkpt lat="41.0891720" lon="-3.4188370">
        <ele>1241.0</ele>
        <time>2020-09-29T12:32:25Z</time>
      </trkpt>
      <trkpt lat="41.0891720" lon="-3.4188370">
        <ele>1241.0</ele>
        <time>2020-09-29T12:32:26Z</time>
      </trkpt>
      <trkpt lat="41.0892220" lon="-3.4187680">
        <ele>1241.0</ele>
        <time>2020-09-29T12:32:27Z</time>
      </trkpt>
      <trkpt lat="41.0892450" lon="-3.4187330">
        <ele>1242.0</ele>
        <time>2020-09-29T12:32:28Z</time>
      </trkpt>
      <trkpt lat="41.0892450" lon="-3.4187330">
        <ele>1242.0</ele>
        <time>2020-09-29T12:32:29Z</time>
      </trkpt>
      <trkpt lat="41.0892830" lon="-3.4186650">
        <ele>1242.0</ele>
        <time>2020-09-29T12:32:30Z</time>
      </trkpt>
      <trkpt lat="41.0892830" lon="-3.4186650">
        <ele>1242.0</ele>
        <time>2020-09-29T12:32:31Z</time>
      </trkpt>
      <trkpt lat="41.0893300" lon="-3.4186030">
        <ele>1243.0</ele>
        <time>2020-09-29T12:32:32Z</time>
      </trkpt>
      <trkpt lat="41.0893300" lon="-3.4186030">
        <ele>1243.0</ele>
        <time>2020-09-29T12:32:33Z</time>
      </trkpt>
      <trkpt lat="41.0893750" lon="-3.4185450">
        <ele>1243.0</ele>
        <time>2020-09-29T12:32:34Z</time>
      </trkpt>
      <trkpt lat="41.0893750" lon="-3.4185450">
        <ele>1243.0</ele>
        <time>2020-09-29T12:32:35Z</time>
      </trkpt>
      <trkpt lat="41.0894300" lon="-3.4184820">
        <ele>1243.0</ele>
        <time>2020-09-29T12:32:36Z</time>
      </trkpt>
      <trkpt lat="41.0894530" lon="-3.4184480">
        <ele>1243.0</ele>
        <time>2020-09-29T12:32:37Z</time>
      </trkpt>
      <trkpt lat="41.0894530" lon="-3.4184480">
        <ele>1243.0</ele>
        <time>2020-09-29T12:32:38Z</time>
      </trkpt>
      <trkpt lat="41.0895020" lon="-3.4183830">
        <ele>1243.0</ele>
        <time>2020-09-29T12:32:39Z</time>
      </trkpt>
      <trkpt lat="41.0895270" lon="-3.4183570">
        <ele>1244.0</ele>
        <time>2020-09-29T12:32:40Z</time>
      </trkpt>
      <trkpt lat="41.0895270" lon="-3.4183570">
        <ele>1244.0</ele>
        <time>2020-09-29T12:32:41Z</time>
      </trkpt>
      <trkpt lat="41.0895750" lon="-3.4183050">
        <ele>1244.0</ele>
        <time>2020-09-29T12:32:42Z</time>
      </trkpt>
      <trkpt lat="41.0895750" lon="-3.4183050">
        <ele>1244.0</ele>
        <time>2020-09-29T12:32:43Z</time>
      </trkpt>
      <trkpt lat="41.0896280" lon="-3.4182650">
        <ele>1245.0</ele>
        <time>2020-09-29T12:32:44Z</time>
      </trkpt>
      <trkpt lat="41.0896520" lon="-3.4182450">
        <ele>1245.0</ele>
        <time>2020-09-29T12:32:45Z</time>
      </trkpt>
      <trkpt lat="41.0896520" lon="-3.4182450">
        <ele>1245.0</ele>
        <time>2020-09-29T12:32:46Z</time>
      </trkpt>
      <trkpt lat="41.0897030" lon="-3.4182070">
        <ele>1245.0</ele>
        <time>2020-09-29T12:32:47Z</time>
      </trkpt>
      <trkpt lat="41.0897330" lon="-3.4181870">
        <ele>1246.0</ele>
        <time>2020-09-29T12:32:48Z</time>
      </trkpt>
      <trkpt lat="41.0897680" lon="-3.4181670">
        <ele>1246.0</ele>
        <time>2020-09-29T12:32:49Z</time>
      </trkpt>
      <trkpt lat="41.0897680" lon="-3.4181670">
        <ele>1246.0</ele>
        <time>2020-09-29T12:32:50Z</time>
      </trkpt>
      <trkpt lat="41.0898320" lon="-3.4181170">
        <ele>1246.0</ele>
        <time>2020-09-29T12:32:51Z</time>
      </trkpt>
      <trkpt lat="41.0898320" lon="-3.4181170">
        <ele>1246.0</ele>
        <time>2020-09-29T12:32:52Z</time>
      </trkpt>
      <trkpt lat="41.0898770" lon="-3.4180450">
        <ele>1246.0</ele>
        <time>2020-09-29T12:32:53Z</time>
      </trkpt>
      <trkpt lat="41.0898770" lon="-3.4180450">
        <ele>1247.0</ele>
        <time>2020-09-29T12:32:54Z</time>
      </trkpt>
      <trkpt lat="41.0899050" lon="-3.4179650">
        <ele>1247.0</ele>
        <time>2020-09-29T12:32:55Z</time>
      </trkpt>
      <trkpt lat="41.0899050" lon="-3.4179650">
        <ele>1247.0</ele>
        <time>2020-09-29T12:32:56Z</time>
      </trkpt>
      <trkpt lat="41.0899300" lon="-3.4178820">
        <ele>1247.0</ele>
        <time>2020-09-29T12:32:57Z</time>
      </trkpt>
      <trkpt lat="41.0899300" lon="-3.4178820">
        <ele>1247.0</ele>
        <time>2020-09-29T12:32:58Z</time>
      </trkpt>
      <trkpt lat="41.0899620" lon="-3.4177970">
        <ele>1247.0</ele>
        <time>2020-09-29T12:32:59Z</time>
      </trkpt>
      <trkpt lat="41.0899770" lon="-3.4177520">
        <ele>1248.0</ele>
        <time>2020-09-29T12:33:00Z</time>
      </trkpt>
      <trkpt lat="41.0899920" lon="-3.4177100">
        <ele>1248.0</ele>
        <time>2020-09-29T12:33:01Z</time>
      </trkpt>
      <trkpt lat="41.0899920" lon="-3.4177100">
        <ele>1248.0</ele>
        <time>2020-09-29T12:33:02Z</time>
      </trkpt>
      <trkpt lat="41.0900320" lon="-3.4176300">
        <ele>1248.0</ele>
        <time>2020-09-29T12:33:03Z</time>
      </trkpt>
      <trkpt lat="41.0900520" lon="-3.4175930">
        <ele>1248.0</ele>
        <time>2020-09-29T12:33:04Z</time>
      </trkpt>
      <trkpt lat="41.0900520" lon="-3.4175930">
        <ele>1248.0</ele>
        <time>2020-09-29T12:33:05Z</time>
      </trkpt>
      <trkpt lat="41.0900900" lon="-3.4175180">
        <ele>1248.0</ele>
        <time>2020-09-29T12:33:06Z</time>
      </trkpt>
      <trkpt lat="41.0901130" lon="-3.4174850">
        <ele>1248.0</ele>
        <time>2020-09-29T12:33:07Z</time>
      </trkpt>
      <trkpt lat="41.0901330" lon="-3.4174480">
        <ele>1248.0</ele>
        <time>2020-09-29T12:33:08Z</time>
      </trkpt>
      <trkpt lat="41.0901330" lon="-3.4174480">
        <ele>1248.0</ele>
        <time>2020-09-29T12:33:09Z</time>
      </trkpt>
      <trkpt lat="41.0901750" lon="-3.4173780">
        <ele>1248.0</ele>
        <time>2020-09-29T12:33:10Z</time>
      </trkpt>
      <trkpt lat="41.0901750" lon="-3.4173780">
        <ele>1249.0</ele>
        <time>2020-09-29T12:33:11Z</time>
      </trkpt>
      <trkpt lat="41.0902080" lon="-3.4172980">
        <ele>1249.0</ele>
        <time>2020-09-29T12:33:12Z</time>
      </trkpt>
      <trkpt lat="41.0902200" lon="-3.4172530">
        <ele>1249.0</ele>
        <time>2020-09-29T12:33:13Z</time>
      </trkpt>
      <trkpt lat="41.0902200" lon="-3.4172530">
        <ele>1249.0</ele>
        <time>2020-09-29T12:33:14Z</time>
      </trkpt>
      <trkpt lat="41.0901880" lon="-3.4171530">
        <ele>1249.0</ele>
        <time>2020-09-29T12:33:15Z</time>
      </trkpt>
      <trkpt lat="41.0901680" lon="-3.4171080">
        <ele>1249.0</ele>
        <time>2020-09-29T12:33:16Z</time>
      </trkpt>
      <trkpt lat="41.0901680" lon="-3.4171080">
        <ele>1249.0</ele>
        <time>2020-09-29T12:33:17Z</time>
      </trkpt>
      <trkpt lat="41.0901370" lon="-3.4170200">
        <ele>1249.0</ele>
        <time>2020-09-29T12:33:18Z</time>
      </trkpt>
      <trkpt lat="41.0901220" lon="-3.4169750">
        <ele>1250.0</ele>
        <time>2020-09-29T12:33:19Z</time>
      </trkpt>
      <trkpt lat="41.0901220" lon="-3.4169750">
        <ele>1250.0</ele>
        <time>2020-09-29T12:33:20Z</time>
      </trkpt>
      <trkpt lat="41.0900850" lon="-3.4168870">
        <ele>1250.0</ele>
        <time>2020-09-29T12:33:21Z</time>
      </trkpt>
      <trkpt lat="41.0900850" lon="-3.4168870">
        <ele>1250.0</ele>
        <time>2020-09-29T12:33:22Z</time>
      </trkpt>
      <trkpt lat="41.0900500" lon="-3.4168000">
        <ele>1250.0</ele>
        <time>2020-09-29T12:33:23Z</time>
      </trkpt>
      <trkpt lat="41.0900500" lon="-3.4168000">
        <ele>1250.0</ele>
        <time>2020-09-29T12:33:24Z</time>
      </trkpt>
      <trkpt lat="41.0900170" lon="-3.4167100">
        <ele>1250.0</ele>
        <time>2020-09-29T12:33:25Z</time>
      </trkpt>
      <trkpt lat="41.0900170" lon="-3.4167100">
        <ele>1250.0</ele>
        <time>2020-09-29T12:33:26Z</time>
      </trkpt>
      <trkpt lat="41.0899770" lon="-3.4166230">
        <ele>1250.0</ele>
        <time>2020-09-29T12:33:27Z</time>
      </trkpt>
      <trkpt lat="41.0899570" lon="-3.4165820">
        <ele>1250.0</ele>
        <time>2020-09-29T12:33:28Z</time>
      </trkpt>
      <trkpt lat="41.0899380" lon="-3.4165380">
        <ele>1251.0</ele>
        <time>2020-09-29T12:33:29Z</time>
      </trkpt>
      <trkpt lat="41.0899380" lon="-3.4165380">
        <ele>1251.0</ele>
        <time>2020-09-29T12:33:30Z</time>
      </trkpt>
      <trkpt lat="41.0899100" lon="-3.4164500">
        <ele>1251.0</ele>
        <time>2020-09-29T12:33:31Z</time>
      </trkpt>
      <trkpt lat="41.0899100" lon="-3.4164500">
        <ele>1251.0</ele>
        <time>2020-09-29T12:33:32Z</time>
      </trkpt>
      <trkpt lat="41.0898830" lon="-3.4163650">
        <ele>1251.0</ele>
        <time>2020-09-29T12:33:33Z</time>
      </trkpt>
      <trkpt lat="41.0898830" lon="-3.4163650">
        <ele>1252.0</ele>
        <time>2020-09-29T12:33:34Z</time>
      </trkpt>
      <trkpt lat="41.0898580" lon="-3.4162780">
        <ele>1252.0</ele>
        <time>2020-09-29T12:33:35Z</time>
      </trkpt>
      <trkpt lat="41.0898450" lon="-3.4162320">
        <ele>1252.0</ele>
        <time>2020-09-29T12:33:36Z</time>
      </trkpt>
      <trkpt lat="41.0898450" lon="-3.4162320">
        <ele>1252.0</ele>
        <time>2020-09-29T12:33:37Z</time>
      </trkpt>
      <trkpt lat="41.0898320" lon="-3.4161330">
        <ele>1253.0</ele>
        <time>2020-09-29T12:33:38Z</time>
      </trkpt>
      <trkpt lat="41.0898320" lon="-3.4161330">
        <ele>1253.0</ele>
        <time>2020-09-29T12:33:39Z</time>
      </trkpt>
      <trkpt lat="41.0898330" lon="-3.4160320">
        <ele>1253.0</ele>
        <time>2020-09-29T12:33:40Z</time>
      </trkpt>
      <trkpt lat="41.0898330" lon="-3.4160320">
        <ele>1253.0</ele>
        <time>2020-09-29T12:33:41Z</time>
      </trkpt>
      <trkpt lat="41.0898550" lon="-3.4159380">
        <ele>1253.0</ele>
        <time>2020-09-29T12:33:42Z</time>
      </trkpt>
      <trkpt lat="41.0898730" lon="-3.4158930">
        <ele>1253.0</ele>
        <time>2020-09-29T12:33:43Z</time>
      </trkpt>
      <trkpt lat="41.0898730" lon="-3.4158930">
        <ele>1253.0</ele>
        <time>2020-09-29T12:33:44Z</time>
      </trkpt>
      <trkpt lat="41.0899230" lon="-3.4158200">
        <ele>1253.0</ele>
        <time>2020-09-29T12:33:45Z</time>
      </trkpt>
      <trkpt lat="41.0899570" lon="-3.4157920">
        <ele>1253.0</ele>
        <time>2020-09-29T12:33:46Z</time>
      </trkpt>
      <trkpt lat="41.0899570" lon="-3.4157920">
        <ele>1253.0</ele>
        <time>2020-09-29T12:33:47Z</time>
      </trkpt>
      <trkpt lat="41.0900320" lon="-3.4157550">
        <ele>1253.0</ele>
        <time>2020-09-29T12:33:48Z</time>
      </trkpt>
      <trkpt lat="41.0900720" lon="-3.4157480">
        <ele>1253.0</ele>
        <time>2020-09-29T12:33:49Z</time>
      </trkpt>
      <trkpt lat="41.0900720" lon="-3.4157480">
        <ele>1253.0</ele>
        <time>2020-09-29T12:33:50Z</time>
      </trkpt>
      <trkpt lat="41.0901520" lon="-3.4157500">
        <ele>1253.0</ele>
        <time>2020-09-29T12:33:51Z</time>
      </trkpt>
      <trkpt lat="41.0901880" lon="-3.4157550">
        <ele>1253.0</ele>
        <time>2020-09-29T12:33:52Z</time>
      </trkpt>
      <trkpt lat="41.0901880" lon="-3.4157550">
        <ele>1253.0</ele>
        <time>2020-09-29T12:33:53Z</time>
      </trkpt>
      <trkpt lat="41.0902600" lon="-3.4157670">
        <ele>1253.0</ele>
        <time>2020-09-29T12:33:54Z</time>
      </trkpt>
      <trkpt lat="41.0903000" lon="-3.4157750">
        <ele>1253.0</ele>
        <time>2020-09-29T12:33:55Z</time>
      </trkpt>
      <trkpt lat="41.0903000" lon="-3.4157750">
        <ele>1253.0</ele>
        <time>2020-09-29T12:33:56Z</time>
      </trkpt>
      <trkpt lat="41.0903830" lon="-3.4157900">
        <ele>1253.0</ele>
        <time>2020-09-29T12:33:57Z</time>
      </trkpt>
      <trkpt lat="41.0904270" lon="-3.4157930">
        <ele>1253.0</ele>
        <time>2020-09-29T12:33:58Z</time>
      </trkpt>
      <trkpt lat="41.0904270" lon="-3.4157930">
        <ele>1253.0</ele>
        <time>2020-09-29T12:33:59Z</time>
      </trkpt>
      <trkpt lat="41.0905120" lon="-3.4157970">
        <ele>1253.0</ele>
        <time>2020-09-29T12:34:00Z</time>
      </trkpt>
      <trkpt lat="41.0905520" lon="-3.4157980">
        <ele>1253.0</ele>
        <time>2020-09-29T12:34:01Z</time>
      </trkpt>
      <trkpt lat="41.0905520" lon="-3.4157980">
        <ele>1253.0</ele>
        <time>2020-09-29T12:34:02Z</time>
      </trkpt>
      <trkpt lat="41.0906320" lon="-3.4157970">
        <ele>1253.0</ele>
        <time>2020-09-29T12:34:03Z</time>
      </trkpt>
      <trkpt lat="41.0906750" lon="-3.4157950">
        <ele>1253.0</ele>
        <time>2020-09-29T12:34:04Z</time>
      </trkpt>
      <trkpt lat="41.0907150" lon="-3.4157930">
        <ele>1253.0</ele>
        <time>2020-09-29T12:34:05Z</time>
      </trkpt>
      <trkpt lat="41.0907150" lon="-3.4157930">
        <ele>1254.0</ele>
        <time>2020-09-29T12:34:06Z</time>
      </trkpt>
      <trkpt lat="41.0907930" lon="-3.4157770">
        <ele>1254.0</ele>
        <time>2020-09-29T12:34:07Z</time>
      </trkpt>
      <trkpt lat="41.0907930" lon="-3.4157770">
        <ele>1254.0</ele>
        <time>2020-09-29T12:34:08Z</time>
      </trkpt>
      <trkpt lat="41.0908730" lon="-3.4157600">
        <ele>1254.0</ele>
        <time>2020-09-29T12:34:09Z</time>
      </trkpt>
      <trkpt lat="41.0908730" lon="-3.4157600">
        <ele>1254.0</ele>
        <time>2020-09-29T12:34:10Z</time>
      </trkpt>
      <trkpt lat="41.0909480" lon="-3.4157500">
        <ele>1254.0</ele>
        <time>2020-09-29T12:34:11Z</time>
      </trkpt>
      <trkpt lat="41.0909880" lon="-3.4157470">
        <ele>1254.0</ele>
        <time>2020-09-29T12:34:12Z</time>
      </trkpt>
      <trkpt lat="41.0910280" lon="-3.4157450">
        <ele>1255.0</ele>
        <time>2020-09-29T12:34:13Z</time>
      </trkpt>
      <trkpt lat="41.0910280" lon="-3.4157450">
        <ele>1255.0</ele>
        <time>2020-09-29T12:34:14Z</time>
      </trkpt>
      <trkpt lat="41.0911100" lon="-3.4157400">
        <ele>1255.0</ele>
        <time>2020-09-29T12:34:15Z</time>
      </trkpt>
      <trkpt lat="41.0911100" lon="-3.4157400">
        <ele>1255.0</ele>
        <time>2020-09-29T12:34:16Z</time>
      </trkpt>
      <trkpt lat="41.0911880" lon="-3.4157270">
        <ele>1255.0</ele>
        <time>2020-09-29T12:34:17Z</time>
      </trkpt>
      <trkpt lat="41.0911880" lon="-3.4157270">
        <ele>1255.0</ele>
        <time>2020-09-29T12:34:18Z</time>
      </trkpt>
      <trkpt lat="41.0912730" lon="-3.4157200">
        <ele>1255.0</ele>
        <time>2020-09-29T12:34:19Z</time>
      </trkpt>
      <trkpt lat="41.0912730" lon="-3.4157200">
        <ele>1255.0</ele>
        <time>2020-09-29T12:34:20Z</time>
      </trkpt>
      <trkpt lat="41.0913530" lon="-3.4156930">
        <ele>1255.0</ele>
        <time>2020-09-29T12:34:21Z</time>
      </trkpt>
      <trkpt lat="41.0913530" lon="-3.4156930">
        <ele>1255.0</ele>
        <time>2020-09-29T12:34:22Z</time>
      </trkpt>
      <trkpt lat="41.0914300" lon="-3.4156570">
        <ele>1255.0</ele>
        <time>2020-09-29T12:34:23Z</time>
      </trkpt>
      <trkpt lat="41.0914300" lon="-3.4156570">
        <ele>1255.0</ele>
        <time>2020-09-29T12:34:24Z</time>
      </trkpt>
      <trkpt lat="41.0915120" lon="-3.4156070">
        <ele>1255.0</ele>
        <time>2020-09-29T12:34:25Z</time>
      </trkpt>
      <trkpt lat="41.0915120" lon="-3.4156070">
        <ele>1255.0</ele>
        <time>2020-09-29T12:34:26Z</time>
      </trkpt>
      <trkpt lat="41.0915550" lon="-3.4155200">
        <ele>1255.0</ele>
        <time>2020-09-29T12:34:27Z</time>
      </trkpt>
      <trkpt lat="41.0915770" lon="-3.4154770">
        <ele>1255.0</ele>
        <time>2020-09-29T12:34:28Z</time>
      </trkpt>
      <trkpt lat="41.0915770" lon="-3.4154770">
        <ele>1255.0</ele>
        <time>2020-09-29T12:34:29Z</time>
      </trkpt>
      <trkpt lat="41.0916030" lon="-3.4153720">
        <ele>1255.0</ele>
        <time>2020-09-29T12:34:30Z</time>
      </trkpt>
      <trkpt lat="41.0916130" lon="-3.4153150">
        <ele>1256.0</ele>
        <time>2020-09-29T12:34:31Z</time>
      </trkpt>
      <trkpt lat="41.0916130" lon="-3.4153150">
        <ele>1256.0</ele>
        <time>2020-09-29T12:34:32Z</time>
      </trkpt>
      <trkpt lat="41.0916370" lon="-3.4152080">
        <ele>1256.0</ele>
        <time>2020-09-29T12:34:33Z</time>
      </trkpt>
      <trkpt lat="41.0916370" lon="-3.4152080">
        <ele>1256.0</ele>
        <time>2020-09-29T12:34:34Z</time>
      </trkpt>
      <trkpt lat="41.0916370" lon="-3.4152080">
        <ele>1256.0</ele>
        <time>2020-09-29T12:34:35Z</time>
      </trkpt>
      <trkpt lat="41.0916580" lon="-3.4150970">
        <ele>1256.0</ele>
        <time>2020-09-29T12:34:36Z</time>
      </trkpt>
      <trkpt lat="41.0916780" lon="-3.4149750">
        <ele>1256.0</ele>
        <time>2020-09-29T12:34:37Z</time>
      </trkpt>
      <trkpt lat="41.0916780" lon="-3.4149750">
        <ele>1256.0</ele>
        <time>2020-09-29T12:34:38Z</time>
      </trkpt>
      <trkpt lat="41.0917020" lon="-3.4148580">
        <ele>1256.0</ele>
        <time>2020-09-29T12:34:39Z</time>
      </trkpt>
      <trkpt lat="41.0917120" lon="-3.4147980">
        <ele>1256.0</ele>
        <time>2020-09-29T12:34:40Z</time>
      </trkpt>
      <trkpt lat="41.0917120" lon="-3.4147980">
        <ele>1256.0</ele>
        <time>2020-09-29T12:34:41Z</time>
      </trkpt>
      <trkpt lat="41.0917250" lon="-3.4146700">
        <ele>1256.0</ele>
        <time>2020-09-29T12:34:42Z</time>
      </trkpt>
      <trkpt lat="41.0917250" lon="-3.4146700">
        <ele>1256.0</ele>
        <time>2020-09-29T12:34:43Z</time>
      </trkpt>
      <trkpt lat="41.0917280" lon="-3.4145430">
        <ele>1256.0</ele>
        <time>2020-09-29T12:34:44Z</time>
      </trkpt>
      <trkpt lat="41.0917280" lon="-3.4145430">
        <ele>1256.0</ele>
        <time>2020-09-29T12:34:45Z</time>
      </trkpt>
      <trkpt lat="41.0917330" lon="-3.4144180">
        <ele>1256.0</ele>
        <time>2020-09-29T12:34:46Z</time>
      </trkpt>
      <trkpt lat="41.0917370" lon="-3.4143550">
        <ele>1257.0</ele>
        <time>2020-09-29T12:34:47Z</time>
      </trkpt>
      <trkpt lat="41.0917370" lon="-3.4143550">
        <ele>1257.0</ele>
        <time>2020-09-29T12:34:48Z</time>
      </trkpt>
      <trkpt lat="41.0917500" lon="-3.4142320">
        <ele>1257.0</ele>
        <time>2020-09-29T12:34:49Z</time>
      </trkpt>
      <trkpt lat="41.0917500" lon="-3.4142320">
        <ele>1257.0</ele>
        <time>2020-09-29T12:34:50Z</time>
      </trkpt>
      <trkpt lat="41.0917680" lon="-3.4141150">
        <ele>1257.0</ele>
        <time>2020-09-29T12:34:51Z</time>
      </trkpt>
      <trkpt lat="41.0917680" lon="-3.4141150">
        <ele>1257.0</ele>
        <time>2020-09-29T12:34:52Z</time>
      </trkpt>
      <trkpt lat="41.0917920" lon="-3.4139900">
        <ele>1257.0</ele>
        <time>2020-09-29T12:34:53Z</time>
      </trkpt>
      <trkpt lat="41.0917920" lon="-3.4139900">
        <ele>1257.0</ele>
        <time>2020-09-29T12:34:54Z</time>
      </trkpt>
      <trkpt lat="41.0918170" lon="-3.4138580">
        <ele>1257.0</ele>
        <time>2020-09-29T12:34:55Z</time>
      </trkpt>
      <trkpt lat="41.0918170" lon="-3.4138580">
        <ele>1257.0</ele>
        <time>2020-09-29T12:34:56Z</time>
      </trkpt>
      <trkpt lat="41.0918420" lon="-3.4137270">
        <ele>1257.0</ele>
        <time>2020-09-29T12:34:57Z</time>
      </trkpt>
      <trkpt lat="41.0918530" lon="-3.4136620">
        <ele>1257.0</ele>
        <time>2020-09-29T12:34:58Z</time>
      </trkpt>
      <trkpt lat="41.0918530" lon="-3.4136620">
        <ele>1257.0</ele>
        <time>2020-09-29T12:34:59Z</time>
      </trkpt>
      <trkpt lat="41.0918780" lon="-3.4135320">
        <ele>1257.0</ele>
        <time>2020-09-29T12:35:00Z</time>
      </trkpt>
      <trkpt lat="41.0918780" lon="-3.4135320">
        <ele>1258.0</ele>
        <time>2020-09-29T12:35:01Z</time>
      </trkpt>
      <trkpt lat="41.0919080" lon="-3.4134050">
        <ele>1258.0</ele>
        <time>2020-09-29T12:35:02Z</time>
      </trkpt>
      <trkpt lat="41.0919080" lon="-3.4134050">
        <ele>1258.0</ele>
        <time>2020-09-29T12:35:03Z</time>
      </trkpt>
      <trkpt lat="41.0919500" lon="-3.4132830">
        <ele>1258.0</ele>
        <time>2020-09-29T12:35:04Z</time>
      </trkpt>
      <trkpt lat="41.0919500" lon="-3.4132830">
        <ele>1258.0</ele>
        <time>2020-09-29T12:35:05Z</time>
      </trkpt>
      <trkpt lat="41.0920000" lon="-3.4131700">
        <ele>1258.0</ele>
        <time>2020-09-29T12:35:06Z</time>
      </trkpt>
      <trkpt lat="41.0920000" lon="-3.4131700">
        <ele>1258.0</ele>
        <time>2020-09-29T12:35:07Z</time>
      </trkpt>
      <trkpt lat="41.0920550" lon="-3.4130580">
        <ele>1258.0</ele>
        <time>2020-09-29T12:35:08Z</time>
      </trkpt>
      <trkpt lat="41.0920550" lon="-3.4130580">
        <ele>1258.0</ele>
        <time>2020-09-29T12:35:09Z</time>
      </trkpt>
      <trkpt lat="41.0921100" lon="-3.4129420">
        <ele>1258.0</ele>
        <time>2020-09-29T12:35:10Z</time>
      </trkpt>
      <trkpt lat="41.0921320" lon="-3.4128800">
        <ele>1258.0</ele>
        <time>2020-09-29T12:35:11Z</time>
      </trkpt>
      <trkpt lat="41.0921520" lon="-3.4128180">
        <ele>1258.0</ele>
        <time>2020-09-29T12:35:12Z</time>
      </trkpt>
      <trkpt lat="41.0921520" lon="-3.4128180">
        <ele>1258.0</ele>
        <time>2020-09-29T12:35:13Z</time>
      </trkpt>
      <trkpt lat="41.0921770" lon="-3.4126870">
        <ele>1258.0</ele>
        <time>2020-09-29T12:35:14Z</time>
      </trkpt>
      <trkpt lat="41.0921770" lon="-3.4126870">
        <ele>1258.0</ele>
        <time>2020-09-29T12:35:15Z</time>
      </trkpt>
      <trkpt lat="41.0921570" lon="-3.4125530">
        <ele>1258.0</ele>
        <time>2020-09-29T12:35:16Z</time>
      </trkpt>
      <trkpt lat="41.0921570" lon="-3.4125530">
        <ele>1258.0</ele>
        <time>2020-09-29T12:35:17Z</time>
      </trkpt>
      <trkpt lat="41.0920930" lon="-3.4124480">
        <ele>1258.0</ele>
        <time>2020-09-29T12:35:18Z</time>
      </trkpt>
      <trkpt lat="41.0920530" lon="-3.4124030">
        <ele>1258.0</ele>
        <time>2020-09-29T12:35:19Z</time>
      </trkpt>
      <trkpt lat="41.0920530" lon="-3.4124030">
        <ele>1258.0</ele>
        <time>2020-09-29T12:35:20Z</time>
      </trkpt>
      <trkpt lat="41.0919730" lon="-3.4123030">
        <ele>1258.0</ele>
        <time>2020-09-29T12:35:21Z</time>
      </trkpt>
      <trkpt lat="41.0919730" lon="-3.4123030">
        <ele>1259.0</ele>
        <time>2020-09-29T12:35:22Z</time>
      </trkpt>
      <trkpt lat="41.0919000" lon="-3.4121880">
        <ele>1259.0</ele>
        <time>2020-09-29T12:35:23Z</time>
      </trkpt>
      <trkpt lat="41.0919000" lon="-3.4121880">
        <ele>1259.0</ele>
        <time>2020-09-29T12:35:24Z</time>
      </trkpt>
      <trkpt lat="41.0918380" lon="-3.4120630">
        <ele>1259.0</ele>
        <time>2020-09-29T12:35:25Z</time>
      </trkpt>
      <trkpt lat="41.0918380" lon="-3.4120630">
        <ele>1259.0</ele>
        <time>2020-09-29T12:35:26Z</time>
      </trkpt>
      <trkpt lat="41.0917930" lon="-3.4119330">
        <ele>1259.0</ele>
        <time>2020-09-29T12:35:27Z</time>
      </trkpt>
      <trkpt lat="41.0917930" lon="-3.4119330">
        <ele>1259.0</ele>
        <time>2020-09-29T12:35:28Z</time>
      </trkpt>
      <trkpt lat="41.0917550" lon="-3.4118030">
        <ele>1259.0</ele>
        <time>2020-09-29T12:35:29Z</time>
      </trkpt>
      <trkpt lat="41.0917370" lon="-3.4117380">
        <ele>1259.0</ele>
        <time>2020-09-29T12:35:30Z</time>
      </trkpt>
      <trkpt lat="41.0917370" lon="-3.4117380">
        <ele>1259.0</ele>
        <time>2020-09-29T12:35:31Z</time>
      </trkpt>
      <trkpt lat="41.0917070" lon="-3.4115970">
        <ele>1259.0</ele>
        <time>2020-09-29T12:35:32Z</time>
      </trkpt>
      <trkpt lat="41.0917070" lon="-3.4115970">
        <ele>1259.0</ele>
        <time>2020-09-29T12:35:33Z</time>
      </trkpt>
      <trkpt lat="41.0916870" lon="-3.4114480">
        <ele>1260.0</ele>
        <time>2020-09-29T12:35:34Z</time>
      </trkpt>
      <trkpt lat="41.0916870" lon="-3.4114480">
        <ele>1260.0</ele>
        <time>2020-09-29T12:35:35Z</time>
      </trkpt>
      <trkpt lat="41.0916730" lon="-3.4112930">
        <ele>1260.0</ele>
        <time>2020-09-29T12:35:36Z</time>
      </trkpt>
      <trkpt lat="41.0916730" lon="-3.4112930">
        <ele>1260.0</ele>
        <time>2020-09-29T12:35:37Z</time>
      </trkpt>
      <trkpt lat="41.0916600" lon="-3.4111350">
        <ele>1260.0</ele>
        <time>2020-09-29T12:35:38Z</time>
      </trkpt>
      <trkpt lat="41.0916600" lon="-3.4111350">
        <ele>1260.0</ele>
        <time>2020-09-29T12:35:39Z</time>
      </trkpt>
      <trkpt lat="41.0916480" lon="-3.4109730">
        <ele>1260.0</ele>
        <time>2020-09-29T12:35:40Z</time>
      </trkpt>
      <trkpt lat="41.0916430" lon="-3.4108930">
        <ele>1260.0</ele>
        <time>2020-09-29T12:35:41Z</time>
      </trkpt>
      <trkpt lat="41.0916430" lon="-3.4108930">
        <ele>1260.0</ele>
        <time>2020-09-29T12:35:42Z</time>
      </trkpt>
      <trkpt lat="41.0916400" lon="-3.4107380">
        <ele>1260.0</ele>
        <time>2020-09-29T12:35:43Z</time>
      </trkpt>
      <trkpt lat="41.0916430" lon="-3.4106600">
        <ele>1261.0</ele>
        <time>2020-09-29T12:35:44Z</time>
      </trkpt>
      <trkpt lat="41.0916430" lon="-3.4106600">
        <ele>1261.0</ele>
        <time>2020-09-29T12:35:45Z</time>
      </trkpt>
      <trkpt lat="41.0916700" lon="-3.4105130">
        <ele>1261.0</ele>
        <time>2020-09-29T12:35:46Z</time>
      </trkpt>
      <trkpt lat="41.0916880" lon="-3.4104430">
        <ele>1261.0</ele>
        <time>2020-09-29T12:35:47Z</time>
      </trkpt>
      <trkpt lat="41.0917120" lon="-3.4103780">
        <ele>1261.0</ele>
        <time>2020-09-29T12:35:48Z</time>
      </trkpt>
      <trkpt lat="41.0917420" lon="-3.4103220">
        <ele>1261.0</ele>
        <time>2020-09-29T12:35:49Z</time>
      </trkpt>
      <trkpt lat="41.0917420" lon="-3.4103220">
        <ele>1262.0</ele>
        <time>2020-09-29T12:35:50Z</time>
      </trkpt>
      <trkpt lat="41.0918150" lon="-3.4102150">
        <ele>1262.0</ele>
        <time>2020-09-29T12:35:51Z</time>
      </trkpt>
      <trkpt lat="41.0918150" lon="-3.4102150">
        <ele>1262.0</ele>
        <time>2020-09-29T12:35:52Z</time>
      </trkpt>
      <trkpt lat="41.0919180" lon="-3.4101130">
        <ele>1262.0</ele>
        <time>2020-09-29T12:35:53Z</time>
      </trkpt>
      <trkpt lat="41.0919180" lon="-3.4101130">
        <ele>1262.0</ele>
        <time>2020-09-29T12:35:54Z</time>
      </trkpt>
      <trkpt lat="41.0919980" lon="-3.4100020">
        <ele>1263.0</ele>
        <time>2020-09-29T12:35:55Z</time>
      </trkpt>
      <trkpt lat="41.0919980" lon="-3.4100020">
        <ele>1263.0</ele>
        <time>2020-09-29T12:35:56Z</time>
      </trkpt>
      <trkpt lat="41.0920770" lon="-3.4099000">
        <ele>1263.0</ele>
        <time>2020-09-29T12:35:57Z</time>
      </trkpt>
      <trkpt lat="41.0921180" lon="-3.4098520">
        <ele>1263.0</ele>
        <time>2020-09-29T12:35:58Z</time>
      </trkpt>
      <trkpt lat="41.0921180" lon="-3.4098520">
        <ele>1263.0</ele>
        <time>2020-09-29T12:35:59Z</time>
      </trkpt>
      <trkpt lat="41.0921980" lon="-3.4097550">
        <ele>1263.0</ele>
        <time>2020-09-29T12:36:00Z</time>
      </trkpt>
      <trkpt lat="41.0922350" lon="-3.4097030">
        <ele>1263.0</ele>
        <time>2020-09-29T12:36:01Z</time>
      </trkpt>
      <trkpt lat="41.0922350" lon="-3.4097030">
        <ele>1263.0</ele>
        <time>2020-09-29T12:36:02Z</time>
      </trkpt>
      <trkpt lat="41.0923050" lon="-3.4096000">
        <ele>1263.0</ele>
        <time>2020-09-29T12:36:03Z</time>
      </trkpt>
      <trkpt lat="41.0923050" lon="-3.4096000">
        <ele>1263.0</ele>
        <time>2020-09-29T12:36:04Z</time>
      </trkpt>
      <trkpt lat="41.0923770" lon="-3.4095070">
        <ele>1263.0</ele>
        <time>2020-09-29T12:36:05Z</time>
      </trkpt>
      <trkpt lat="41.0924130" lon="-3.4094620">
        <ele>1263.0</ele>
        <time>2020-09-29T12:36:06Z</time>
      </trkpt>
      <trkpt lat="41.0924130" lon="-3.4094620">
        <ele>1264.0</ele>
        <time>2020-09-29T12:36:07Z</time>
      </trkpt>
      <trkpt lat="41.0925000" lon="-3.4093880">
        <ele>1264.0</ele>
        <time>2020-09-29T12:36:08Z</time>
      </trkpt>
      <trkpt lat="41.0925000" lon="-3.4093880">
        <ele>1264.0</ele>
        <time>2020-09-29T12:36:09Z</time>
      </trkpt>
      <trkpt lat="41.0925880" lon="-3.4093270">
        <ele>1264.0</ele>
        <time>2020-09-29T12:36:10Z</time>
      </trkpt>
      <trkpt lat="41.0926330" lon="-3.4092970">
        <ele>1264.0</ele>
        <time>2020-09-29T12:36:11Z</time>
      </trkpt>
      <trkpt lat="41.0926330" lon="-3.4092970">
        <ele>1264.0</ele>
        <time>2020-09-29T12:36:12Z</time>
      </trkpt>
      <trkpt lat="41.0927200" lon="-3.4092350">
        <ele>1265.0</ele>
        <time>2020-09-29T12:36:13Z</time>
      </trkpt>
      <trkpt lat="41.0927200" lon="-3.4092350">
        <ele>1265.0</ele>
        <time>2020-09-29T12:36:14Z</time>
      </trkpt>
      <trkpt lat="41.0928030" lon="-3.4091800">
        <ele>1265.0</ele>
        <time>2020-09-29T12:36:15Z</time>
      </trkpt>
      <trkpt lat="41.0928030" lon="-3.4091800">
        <ele>1265.0</ele>
        <time>2020-09-29T12:36:16Z</time>
      </trkpt>
      <trkpt lat="41.0928920" lon="-3.4091320">
        <ele>1265.0</ele>
        <time>2020-09-29T12:36:17Z</time>
      </trkpt>
      <trkpt lat="41.0928920" lon="-3.4091320">
        <ele>1265.0</ele>
        <time>2020-09-29T12:36:18Z</time>
      </trkpt>
      <trkpt lat="41.0929820" lon="-3.4090820">
        <ele>1265.0</ele>
        <time>2020-09-29T12:36:19Z</time>
      </trkpt>
      <trkpt lat="41.0930270" lon="-3.4090550">
        <ele>1265.0</ele>
        <time>2020-09-29T12:36:20Z</time>
      </trkpt>
      <trkpt lat="41.0930270" lon="-3.4090550">
        <ele>1266.0</ele>
        <time>2020-09-29T12:36:21Z</time>
      </trkpt>
      <trkpt lat="41.0931170" lon="-3.4090050">
        <ele>1266.0</ele>
        <time>2020-09-29T12:36:22Z</time>
      </trkpt>
      <trkpt lat="41.0931600" lon="-3.4089830">
        <ele>1266.0</ele>
        <time>2020-09-29T12:36:23Z</time>
      </trkpt>
      <trkpt lat="41.0931600" lon="-3.4089830">
        <ele>1266.0</ele>
        <time>2020-09-29T12:36:24Z</time>
      </trkpt>
      <trkpt lat="41.0932420" lon="-3.4089300">
        <ele>1266.0</ele>
        <time>2020-09-29T12:36:25Z</time>
      </trkpt>
      <trkpt lat="41.0932420" lon="-3.4089300">
        <ele>1266.0</ele>
        <time>2020-09-29T12:36:26Z</time>
      </trkpt>
      <trkpt lat="41.0933180" lon="-3.4088520">
        <ele>1267.0</ele>
        <time>2020-09-29T12:36:27Z</time>
      </trkpt>
      <trkpt lat="41.0933180" lon="-3.4088520">
        <ele>1267.0</ele>
        <time>2020-09-29T12:36:28Z</time>
      </trkpt>
      <trkpt lat="41.0933830" lon="-3.4087800">
        <ele>1267.0</ele>
        <time>2020-09-29T12:36:29Z</time>
      </trkpt>
      <trkpt lat="41.0934130" lon="-3.4087450">
        <ele>1267.0</ele>
        <time>2020-09-29T12:36:30Z</time>
      </trkpt>
      <trkpt lat="41.0934130" lon="-3.4087450">
        <ele>1267.0</ele>
        <time>2020-09-29T12:36:31Z</time>
      </trkpt>
      <trkpt lat="41.0934670" lon="-3.4086770">
        <ele>1268.0</ele>
        <time>2020-09-29T12:36:32Z</time>
      </trkpt>
      <trkpt lat="41.0934930" lon="-3.4086450">
        <ele>1268.0</ele>
        <time>2020-09-29T12:36:33Z</time>
      </trkpt>
      <trkpt lat="41.0934930" lon="-3.4086450">
        <ele>1268.0</ele>
        <time>2020-09-29T12:36:34Z</time>
      </trkpt>
      <trkpt lat="41.0935400" lon="-3.4085750">
        <ele>1268.0</ele>
        <time>2020-09-29T12:36:35Z</time>
      </trkpt>
      <trkpt lat="41.0935630" lon="-3.4085370">
        <ele>1268.0</ele>
        <time>2020-09-29T12:36:36Z</time>
      </trkpt>
      <trkpt lat="41.0935630" lon="-3.4085370">
        <ele>1268.0</ele>
        <time>2020-09-29T12:36:37Z</time>
      </trkpt>
      <trkpt lat="41.0936070" lon="-3.4084600">
        <ele>1269.0</ele>
        <time>2020-09-29T12:36:38Z</time>
      </trkpt>
      <trkpt lat="41.0936070" lon="-3.4084600">
        <ele>1269.0</ele>
        <time>2020-09-29T12:36:39Z</time>
      </trkpt>
      <trkpt lat="41.0936500" lon="-3.4083930">
        <ele>1269.0</ele>
        <time>2020-09-29T12:36:40Z</time>
      </trkpt>
      <trkpt lat="41.0936720" lon="-3.4083600">
        <ele>1269.0</ele>
        <time>2020-09-29T12:36:41Z</time>
      </trkpt>
      <trkpt lat="41.0936720" lon="-3.4083600">
        <ele>1269.0</ele>
        <time>2020-09-29T12:36:42Z</time>
      </trkpt>
      <trkpt lat="41.0937020" lon="-3.4083030">
        <ele>1269.0</ele>
        <time>2020-09-29T12:36:43Z</time>
      </trkpt>
      <trkpt lat="41.0937020" lon="-3.4083030">
        <ele>1270.0</ele>
        <time>2020-09-29T12:36:44Z</time>
      </trkpt>
      <trkpt lat="41.0937380" lon="-3.4082630">
        <ele>1270.0</ele>
        <time>2020-09-29T12:36:45Z</time>
      </trkpt>
      <trkpt lat="41.0937600" lon="-3.4082500">
        <ele>1270.0</ele>
        <time>2020-09-29T12:36:46Z</time>
      </trkpt>
      <trkpt lat="41.0937880" lon="-3.4082420">
        <ele>1270.0</ele>
        <time>2020-09-29T12:36:47Z</time>
      </trkpt>
      <trkpt lat="41.0937880" lon="-3.4082420">
        <ele>1271.0</ele>
        <time>2020-09-29T12:36:48Z</time>
      </trkpt>
      <trkpt lat="41.0938420" lon="-3.4082380">
        <ele>1271.0</ele>
        <time>2020-09-29T12:36:49Z</time>
      </trkpt>
      <trkpt lat="41.0938420" lon="-3.4082380">
        <ele>1271.0</ele>
        <time>2020-09-29T12:36:50Z</time>
      </trkpt>
      <trkpt lat="41.0938830" lon="-3.4082620">
        <ele>1271.0</ele>
        <time>2020-09-29T12:36:51Z</time>
      </trkpt>
      <trkpt lat="41.0939030" lon="-3.4082800">
        <ele>1272.0</ele>
        <time>2020-09-29T12:36:52Z</time>
      </trkpt>
      <trkpt lat="41.0939030" lon="-3.4082800">
        <ele>1272.0</ele>
        <time>2020-09-29T12:36:53Z</time>
      </trkpt>
      <trkpt lat="41.0939580" lon="-3.4083200">
        <ele>1272.0</ele>
        <time>2020-09-29T12:36:54Z</time>
      </trkpt>
      <trkpt lat="41.0939820" lon="-3.4083420">
        <ele>1272.0</ele>
        <time>2020-09-29T12:36:55Z</time>
      </trkpt>
      <trkpt lat="41.0939820" lon="-3.4083420">
        <ele>1274.0</ele>
        <time>2020-09-29T12:36:56Z</time>
      </trkpt>
      <trkpt lat="41.0940150" lon="-3.4083770">
        <ele>1274.0</ele>
        <time>2020-09-29T12:36:57Z</time>
      </trkpt>
      <trkpt lat="41.0940150" lon="-3.4083770">
        <ele>1274.0</ele>
        <time>2020-09-29T12:36:58Z</time>
      </trkpt>
      <trkpt lat="41.0940430" lon="-3.4084100">
        <ele>1274.0</ele>
        <time>2020-09-29T12:36:59Z</time>
      </trkpt>
      <trkpt lat="41.0940430" lon="-3.4084100">
        <ele>1275.0</ele>
        <time>2020-09-29T12:37:00Z</time>
      </trkpt>
      <trkpt lat="41.0940830" lon="-3.4084450">
        <ele>1275.0</ele>
        <time>2020-09-29T12:37:01Z</time>
      </trkpt>
      <trkpt lat="41.0940830" lon="-3.4084450">
        <ele>1275.0</ele>
        <time>2020-09-29T12:37:02Z</time>
      </trkpt>
      <trkpt lat="41.0941220" lon="-3.4084800">
        <ele>1275.0</ele>
        <time>2020-09-29T12:37:03Z</time>
      </trkpt>
      <trkpt lat="41.0941220" lon="-3.4084800">
        <ele>1275.0</ele>
        <time>2020-09-29T12:37:04Z</time>
      </trkpt>
      <trkpt lat="41.0941570" lon="-3.4085170">
        <ele>1275.0</ele>
        <time>2020-09-29T12:37:05Z</time>
      </trkpt>
      <trkpt lat="41.0941570" lon="-3.4085170">
        <ele>1275.0</ele>
        <time>2020-09-29T12:37:06Z</time>
      </trkpt>
      <trkpt lat="41.0941920" lon="-3.4085430">
        <ele>1275.0</ele>
        <time>2020-09-29T12:37:07Z</time>
      </trkpt>
      <trkpt lat="41.0941920" lon="-3.4085430">
        <ele>1276.0</ele>
        <time>2020-09-29T12:37:08Z</time>
      </trkpt>
      <trkpt lat="41.0942280" lon="-3.4085680">
        <ele>1276.0</ele>
        <time>2020-09-29T12:37:09Z</time>
      </trkpt>
      <trkpt lat="41.0942280" lon="-3.4085680">
        <ele>1276.0</ele>
        <time>2020-09-29T12:37:10Z</time>
      </trkpt>
      <trkpt lat="41.0942580" lon="-3.4086030">
        <ele>1276.0</ele>
        <time>2020-09-29T12:37:11Z</time>
      </trkpt>
      <trkpt lat="41.0942730" lon="-3.4086200">
        <ele>1278.0</ele>
        <time>2020-09-29T12:37:12Z</time>
      </trkpt>
      <trkpt lat="41.0942730" lon="-3.4086200">
        <ele>1278.0</ele>
        <time>2020-09-29T12:37:13Z</time>
      </trkpt>
      <trkpt lat="41.0943050" lon="-3.4086570">
        <ele>1278.0</ele>
        <time>2020-09-29T12:37:14Z</time>
      </trkpt>
      <trkpt lat="41.0943050" lon="-3.4086570">
        <ele>1278.0</ele>
        <time>2020-09-29T12:37:15Z</time>
      </trkpt>
      <trkpt lat="41.0943380" lon="-3.4086880">
        <ele>1278.0</ele>
        <time>2020-09-29T12:37:16Z</time>
      </trkpt>
      <trkpt lat="41.0943380" lon="-3.4086880">
        <ele>1279.0</ele>
        <time>2020-09-29T12:37:17Z</time>
      </trkpt>
      <trkpt lat="41.0943700" lon="-3.4087220">
        <ele>1279.0</ele>
        <time>2020-09-29T12:37:18Z</time>
      </trkpt>
      <trkpt lat="41.0943880" lon="-3.4087350">
        <ele>1279.0</ele>
        <time>2020-09-29T12:37:19Z</time>
      </trkpt>
      <trkpt lat="41.0943880" lon="-3.4087350">
        <ele>1279.0</ele>
        <time>2020-09-29T12:37:20Z</time>
      </trkpt>
      <trkpt lat="41.0944230" lon="-3.4087670">
        <ele>1280.0</ele>
        <time>2020-09-29T12:37:21Z</time>
      </trkpt>
      <trkpt lat="41.0944230" lon="-3.4087670">
        <ele>1280.0</ele>
        <time>2020-09-29T12:37:22Z</time>
      </trkpt>
      <trkpt lat="41.0944570" lon="-3.4088070">
        <ele>1280.0</ele>
        <time>2020-09-29T12:37:23Z</time>
      </trkpt>
      <trkpt lat="41.0944730" lon="-3.4088250">
        <ele>1280.0</ele>
        <time>2020-09-29T12:37:24Z</time>
      </trkpt>
      <trkpt lat="41.0944920" lon="-3.4088450">
        <ele>1281.0</ele>
        <time>2020-09-29T12:37:25Z</time>
      </trkpt>
      <trkpt lat="41.0944920" lon="-3.4088450">
        <ele>1281.0</ele>
        <time>2020-09-29T12:37:26Z</time>
      </trkpt>
      <trkpt lat="41.0945280" lon="-3.4088830">
        <ele>1281.0</ele>
        <time>2020-09-29T12:37:27Z</time>
      </trkpt>
      <trkpt lat="41.0945280" lon="-3.4088830">
        <ele>1281.0</ele>
        <time>2020-09-29T12:37:28Z</time>
      </trkpt>
      <trkpt lat="41.0945650" lon="-3.4089230">
        <ele>1282.0</ele>
        <time>2020-09-29T12:37:29Z</time>
      </trkpt>
      <trkpt lat="41.0945650" lon="-3.4089230">
        <ele>1282.0</ele>
        <time>2020-09-29T12:37:30Z</time>
      </trkpt>
      <trkpt lat="41.0946050" lon="-3.4089630">
        <ele>1282.0</ele>
        <time>2020-09-29T12:37:31Z</time>
      </trkpt>
      <trkpt lat="41.0946050" lon="-3.4089630">
        <ele>1282.0</ele>
        <time>2020-09-29T12:37:32Z</time>
      </trkpt>
      <trkpt lat="41.0946450" lon="-3.4090030">
        <ele>1283.0</ele>
        <time>2020-09-29T12:37:33Z</time>
      </trkpt>
      <trkpt lat="41.0946450" lon="-3.4090030">
        <ele>1283.0</ele>
        <time>2020-09-29T12:37:34Z</time>
      </trkpt>
      <trkpt lat="41.0946900" lon="-3.4090370">
        <ele>1283.0</ele>
        <time>2020-09-29T12:37:35Z</time>
      </trkpt>
      <trkpt lat="41.0946900" lon="-3.4090370">
        <ele>1283.0</ele>
        <time>2020-09-29T12:37:36Z</time>
      </trkpt>
      <trkpt lat="41.0947330" lon="-3.4090630">
        <ele>1284.0</ele>
        <time>2020-09-29T12:37:37Z</time>
      </trkpt>
      <trkpt lat="41.0947330" lon="-3.4090630">
        <ele>1284.0</ele>
        <time>2020-09-29T12:37:38Z</time>
      </trkpt>
      <trkpt lat="41.0947770" lon="-3.4090900">
        <ele>1284.0</ele>
        <time>2020-09-29T12:37:39Z</time>
      </trkpt>
      <trkpt lat="41.0947770" lon="-3.4090900">
        <ele>1284.0</ele>
        <time>2020-09-29T12:37:40Z</time>
      </trkpt>
      <trkpt lat="41.0948170" lon="-3.4091300">
        <ele>1285.0</ele>
        <time>2020-09-29T12:37:41Z</time>
      </trkpt>
      <trkpt lat="41.0948350" lon="-3.4091500">
        <ele>1285.0</ele>
        <time>2020-09-29T12:37:42Z</time>
      </trkpt>
      <trkpt lat="41.0948350" lon="-3.4091500">
        <ele>1285.0</ele>
        <time>2020-09-29T12:37:43Z</time>
      </trkpt>
      <trkpt lat="41.0948770" lon="-3.4091800">
        <ele>1285.0</ele>
        <time>2020-09-29T12:37:44Z</time>
      </trkpt>
      <trkpt lat="41.0949000" lon="-3.4091920">
        <ele>1285.0</ele>
        <time>2020-09-29T12:37:45Z</time>
      </trkpt>
      <trkpt lat="41.0949000" lon="-3.4091920">
        <ele>1286.0</ele>
        <time>2020-09-29T12:37:46Z</time>
      </trkpt>
      <trkpt lat="41.0949480" lon="-3.4092230">
        <ele>1286.0</ele>
        <time>2020-09-29T12:37:47Z</time>
      </trkpt>
      <trkpt lat="41.0949680" lon="-3.4092430">
        <ele>1286.0</ele>
        <time>2020-09-29T12:37:48Z</time>
      </trkpt>
      <trkpt lat="41.0949680" lon="-3.4092430">
        <ele>1286.0</ele>
        <time>2020-09-29T12:37:49Z</time>
      </trkpt>
      <trkpt lat="41.0950130" lon="-3.4092730">
        <ele>1287.0</ele>
        <time>2020-09-29T12:37:50Z</time>
      </trkpt>
      <trkpt lat="41.0950370" lon="-3.4092850">
        <ele>1287.0</ele>
        <time>2020-09-29T12:37:51Z</time>
      </trkpt>
      <trkpt lat="41.0950600" lon="-3.4092970">
        <ele>1287.0</ele>
        <time>2020-09-29T12:37:52Z</time>
      </trkpt>
      <trkpt lat="41.0950600" lon="-3.4092970">
        <ele>1287.0</ele>
        <time>2020-09-29T12:37:53Z</time>
      </trkpt>
      <trkpt lat="41.0951070" lon="-3.4093270">
        <ele>1287.0</ele>
        <time>2020-09-29T12:37:54Z</time>
      </trkpt>
      <trkpt lat="41.0951070" lon="-3.4093270">
        <ele>1287.0</ele>
        <time>2020-09-29T12:37:55Z</time>
      </trkpt>
      <trkpt lat="41.0951520" lon="-3.4093530">
        <ele>1288.0</ele>
        <time>2020-09-29T12:37:56Z</time>
      </trkpt>
      <trkpt lat="41.0951520" lon="-3.4093530">
        <ele>1288.0</ele>
        <time>2020-09-29T12:37:57Z</time>
      </trkpt>
      <trkpt lat="41.0951970" lon="-3.4093820">
        <ele>1288.0</ele>
        <time>2020-09-29T12:37:58Z</time>
      </trkpt>
      <trkpt lat="41.0951970" lon="-3.4093820">
        <ele>1288.0</ele>
        <time>2020-09-29T12:37:59Z</time>
      </trkpt>
      <trkpt lat="41.0952450" lon="-3.4094100">
        <ele>1288.0</ele>
        <time>2020-09-29T12:38:00Z</time>
      </trkpt>
      <trkpt lat="41.0952700" lon="-3.4094220">
        <ele>1288.0</ele>
        <time>2020-09-29T12:38:01Z</time>
      </trkpt>
      <trkpt lat="41.0952700" lon="-3.4094220">
        <ele>1289.0</ele>
        <time>2020-09-29T12:38:02Z</time>
      </trkpt>
      <trkpt lat="41.0953150" lon="-3.4094500">
        <ele>1289.0</ele>
        <time>2020-09-29T12:38:03Z</time>
      </trkpt>
      <trkpt lat="41.0953150" lon="-3.4094500">
        <ele>1289.0</ele>
        <time>2020-09-29T12:38:04Z</time>
      </trkpt>
      <trkpt lat="41.0953580" lon="-3.4094780">
        <ele>1289.0</ele>
        <time>2020-09-29T12:38:05Z</time>
      </trkpt>
      <trkpt lat="41.0953820" lon="-3.4094930">
        <ele>1290.0</ele>
        <time>2020-09-29T12:38:06Z</time>
      </trkpt>
      <trkpt lat="41.0953820" lon="-3.4094930">
        <ele>1290.0</ele>
        <time>2020-09-29T12:38:07Z</time>
      </trkpt>
      <trkpt lat="41.0954320" lon="-3.4095300">
        <ele>1290.0</ele>
        <time>2020-09-29T12:38:08Z</time>
      </trkpt>
      <trkpt lat="41.0954320" lon="-3.4095300">
        <ele>1290.0</ele>
        <time>2020-09-29T12:38:09Z</time>
      </trkpt>
      <trkpt lat="41.0954780" lon="-3.4095670">
        <ele>1290.0</ele>
        <time>2020-09-29T12:38:10Z</time>
      </trkpt>
      <trkpt lat="41.0954780" lon="-3.4095670">
        <ele>1290.0</ele>
        <time>2020-09-29T12:38:11Z</time>
      </trkpt>
      <trkpt lat="41.0955280" lon="-3.4095980">
        <ele>1290.0</ele>
        <time>2020-09-29T12:38:12Z</time>
      </trkpt>
      <trkpt lat="41.0955280" lon="-3.4095980">
        <ele>1290.0</ele>
        <time>2020-09-29T12:38:13Z</time>
      </trkpt>
      <trkpt lat="41.0955730" lon="-3.4096350">
        <ele>1291.0</ele>
        <time>2020-09-29T12:38:14Z</time>
      </trkpt>
      <trkpt lat="41.0955730" lon="-3.4096350">
        <ele>1291.0</ele>
        <time>2020-09-29T12:38:15Z</time>
      </trkpt>
      <trkpt lat="41.0956180" lon="-3.4096630">
        <ele>1291.0</ele>
        <time>2020-09-29T12:38:16Z</time>
      </trkpt>
      <trkpt lat="41.0956180" lon="-3.4096630">
        <ele>1291.0</ele>
        <time>2020-09-29T12:38:17Z</time>
      </trkpt>
      <trkpt lat="41.0956700" lon="-3.4096920">
        <ele>1291.0</ele>
        <time>2020-09-29T12:38:18Z</time>
      </trkpt>
      <trkpt lat="41.0956700" lon="-3.4096920">
        <ele>1291.0</ele>
        <time>2020-09-29T12:38:19Z</time>
      </trkpt>
      <trkpt lat="41.0957180" lon="-3.4097250">
        <ele>1292.0</ele>
        <time>2020-09-29T12:38:20Z</time>
      </trkpt>
      <trkpt lat="41.0957420" lon="-3.4097420">
        <ele>1292.0</ele>
        <time>2020-09-29T12:38:21Z</time>
      </trkpt>
      <trkpt lat="41.0957420" lon="-3.4097420">
        <ele>1292.0</ele>
        <time>2020-09-29T12:38:22Z</time>
      </trkpt>
      <trkpt lat="41.0957880" lon="-3.4097750">
        <ele>1293.0</ele>
        <time>2020-09-29T12:38:23Z</time>
      </trkpt>
      <trkpt lat="41.0958100" lon="-3.4097930">
        <ele>1293.0</ele>
        <time>2020-09-29T12:38:24Z</time>
      </trkpt>
      <trkpt lat="41.0958100" lon="-3.4097930">
        <ele>1293.0</ele>
        <time>2020-09-29T12:38:25Z</time>
      </trkpt>
      <trkpt lat="41.0958550" lon="-3.4098300">
        <ele>1293.0</ele>
        <time>2020-09-29T12:38:26Z</time>
      </trkpt>
      <trkpt lat="41.0958550" lon="-3.4098300">
        <ele>1294.0</ele>
        <time>2020-09-29T12:38:27Z</time>
      </trkpt>
      <trkpt lat="41.0959050" lon="-3.4098620">
        <ele>1294.0</ele>
        <time>2020-09-29T12:38:28Z</time>
      </trkpt>
      <trkpt lat="41.0959050" lon="-3.4098620">
        <ele>1294.0</ele>
        <time>2020-09-29T12:38:29Z</time>
      </trkpt>
      <trkpt lat="41.0959530" lon="-3.4098950">
        <ele>1294.0</ele>
        <time>2020-09-29T12:38:30Z</time>
      </trkpt>
      <trkpt lat="41.0959530" lon="-3.4098950">
        <ele>1295.0</ele>
        <time>2020-09-29T12:38:31Z</time>
      </trkpt>
      <trkpt lat="41.0959970" lon="-3.4099330">
        <ele>1295.0</ele>
        <time>2020-09-29T12:38:32Z</time>
      </trkpt>
      <trkpt lat="41.0960250" lon="-3.4099550">
        <ele>1295.0</ele>
        <time>2020-09-29T12:38:33Z</time>
      </trkpt>
      <trkpt lat="41.0960250" lon="-3.4099550">
        <ele>1295.0</ele>
        <time>2020-09-29T12:38:34Z</time>
      </trkpt>
      <trkpt lat="41.0960770" lon="-3.4099880">
        <ele>1295.0</ele>
        <time>2020-09-29T12:38:35Z</time>
      </trkpt>
      <trkpt lat="41.0961020" lon="-3.4100050">
        <ele>1295.0</ele>
        <time>2020-09-29T12:38:36Z</time>
      </trkpt>
      <trkpt lat="41.0961270" lon="-3.4100200">
        <ele>1295.0</ele>
        <time>2020-09-29T12:38:37Z</time>
      </trkpt>
      <trkpt lat="41.0961270" lon="-3.4100200">
        <ele>1295.0</ele>
        <time>2020-09-29T12:38:38Z</time>
      </trkpt>
      <trkpt lat="41.0961770" lon="-3.4100470">
        <ele>1295.0</ele>
        <time>2020-09-29T12:38:39Z</time>
      </trkpt>
      <trkpt lat="41.0961770" lon="-3.4100470">
        <ele>1295.0</ele>
        <time>2020-09-29T12:38:40Z</time>
      </trkpt>
      <trkpt lat="41.0962200" lon="-3.4100820">
        <ele>1296.0</ele>
        <time>2020-09-29T12:38:41Z</time>
      </trkpt>
      <trkpt lat="41.0962420" lon="-3.4100980">
        <ele>1296.0</ele>
        <time>2020-09-29T12:38:42Z</time>
      </trkpt>
      <trkpt lat="41.0962420" lon="-3.4100980">
        <ele>1296.0</ele>
        <time>2020-09-29T12:38:43Z</time>
      </trkpt>
      <trkpt lat="41.0962850" lon="-3.4101320">
        <ele>1296.0</ele>
        <time>2020-09-29T12:38:44Z</time>
      </trkpt>
      <trkpt lat="41.0963100" lon="-3.4101500">
        <ele>1296.0</ele>
        <time>2020-09-29T12:38:45Z</time>
      </trkpt>
      <trkpt lat="41.0963350" lon="-3.4101680">
        <ele>1296.0</ele>
        <time>2020-09-29T12:38:46Z</time>
      </trkpt>
      <trkpt lat="41.0963350" lon="-3.4101680">
        <ele>1297.0</ele>
        <time>2020-09-29T12:38:47Z</time>
      </trkpt>
      <trkpt lat="41.0963770" lon="-3.4102020">
        <ele>1297.0</ele>
        <time>2020-09-29T12:38:48Z</time>
      </trkpt>
      <trkpt lat="41.0963980" lon="-3.4102220">
        <ele>1297.0</ele>
        <time>2020-09-29T12:38:49Z</time>
      </trkpt>
      <trkpt lat="41.0964180" lon="-3.4102400">
        <ele>1297.0</ele>
        <time>2020-09-29T12:38:50Z</time>
      </trkpt>
      <trkpt lat="41.0964180" lon="-3.4102400">
        <ele>1297.0</ele>
        <time>2020-09-29T12:38:51Z</time>
      </trkpt>
      <trkpt lat="41.0964620" lon="-3.4102780">
        <ele>1297.0</ele>
        <time>2020-09-29T12:38:52Z</time>
      </trkpt>
      <trkpt lat="41.0964820" lon="-3.4102970">
        <ele>1298.0</ele>
        <time>2020-09-29T12:38:53Z</time>
      </trkpt>
      <trkpt lat="41.0964820" lon="-3.4102970">
        <ele>1298.0</ele>
        <time>2020-09-29T12:38:54Z</time>
      </trkpt>
      <trkpt lat="41.0965270" lon="-3.4103270">
        <ele>1298.0</ele>
        <time>2020-09-29T12:38:55Z</time>
      </trkpt>
      <trkpt lat="41.0965270" lon="-3.4103270">
        <ele>1298.0</ele>
        <time>2020-09-29T12:38:56Z</time>
      </trkpt>
      <trkpt lat="41.0965720" lon="-3.4103600">
        <ele>1298.0</ele>
        <time>2020-09-29T12:38:57Z</time>
      </trkpt>
      <trkpt lat="41.0965930" lon="-3.4103770">
        <ele>1300.0</ele>
        <time>2020-09-29T12:38:58Z</time>
      </trkpt>
      <trkpt lat="41.0965930" lon="-3.4103770">
        <ele>1300.0</ele>
        <time>2020-09-29T12:38:59Z</time>
      </trkpt>
      <trkpt lat="41.0966370" lon="-3.4104100">
        <ele>1300.0</ele>
        <time>2020-09-29T12:39:00Z</time>
      </trkpt>
      <trkpt lat="41.0966580" lon="-3.4104270">
        <ele>1300.0</ele>
        <time>2020-09-29T12:39:01Z</time>
      </trkpt>
      <trkpt lat="41.0966580" lon="-3.4104270">
        <ele>1300.0</ele>
        <time>2020-09-29T12:39:02Z</time>
      </trkpt>
      <trkpt lat="41.0967020" lon="-3.4104550">
        <ele>1300.0</ele>
        <time>2020-09-29T12:39:03Z</time>
      </trkpt>
      <trkpt lat="41.0967020" lon="-3.4104550">
        <ele>1300.0</ele>
        <time>2020-09-29T12:39:04Z</time>
      </trkpt>
      <trkpt lat="41.0967480" lon="-3.4104780">
        <ele>1300.0</ele>
        <time>2020-09-29T12:39:05Z</time>
      </trkpt>
      <trkpt lat="41.0967480" lon="-3.4104780">
        <ele>1301.0</ele>
        <time>2020-09-29T12:39:06Z</time>
      </trkpt>
      <trkpt lat="41.0967970" lon="-3.4105120">
        <ele>1301.0</ele>
        <time>2020-09-29T12:39:07Z</time>
      </trkpt>
      <trkpt lat="41.0967970" lon="-3.4105120">
        <ele>1301.0</ele>
        <time>2020-09-29T12:39:08Z</time>
      </trkpt>
      <trkpt lat="41.0968380" lon="-3.4105500">
        <ele>1301.0</ele>
        <time>2020-09-29T12:39:09Z</time>
      </trkpt>
      <trkpt lat="41.0968380" lon="-3.4105500">
        <ele>1302.0</ele>
        <time>2020-09-29T12:39:10Z</time>
      </trkpt>
      <trkpt lat="41.0968770" lon="-3.4105780">
        <ele>1302.0</ele>
        <time>2020-09-29T12:39:11Z</time>
      </trkpt>
      <trkpt lat="41.0968980" lon="-3.4105900">
        <ele>1302.0</ele>
        <time>2020-09-29T12:39:12Z</time>
      </trkpt>
      <trkpt lat="41.0968980" lon="-3.4105900">
        <ele>1302.0</ele>
        <time>2020-09-29T12:39:13Z</time>
      </trkpt>
      <trkpt lat="41.0969380" lon="-3.4106180">
        <ele>1303.0</ele>
        <time>2020-09-29T12:39:14Z</time>
      </trkpt>
      <trkpt lat="41.0969380" lon="-3.4106180">
        <ele>1303.0</ele>
        <time>2020-09-29T12:39:15Z</time>
      </trkpt>
      <trkpt lat="41.0969820" lon="-3.4106430">
        <ele>1303.0</ele>
        <time>2020-09-29T12:39:16Z</time>
      </trkpt>
      <trkpt lat="41.0969820" lon="-3.4106430">
        <ele>1303.0</ele>
        <time>2020-09-29T12:39:17Z</time>
      </trkpt>
      <trkpt lat="41.0970280" lon="-3.4106650">
        <ele>1303.0</ele>
        <time>2020-09-29T12:39:18Z</time>
      </trkpt>
      <trkpt lat="41.0970280" lon="-3.4106650">
        <ele>1303.0</ele>
        <time>2020-09-29T12:39:19Z</time>
      </trkpt>
      <trkpt lat="41.0970770" lon="-3.4106900">
        <ele>1303.0</ele>
        <time>2020-09-29T12:39:20Z</time>
      </trkpt>
      <trkpt lat="41.0970770" lon="-3.4106900">
        <ele>1303.0</ele>
        <time>2020-09-29T12:39:21Z</time>
      </trkpt>
      <trkpt lat="41.0971250" lon="-3.4107170">
        <ele>1304.0</ele>
        <time>2020-09-29T12:39:22Z</time>
      </trkpt>
      <trkpt lat="41.0971250" lon="-3.4107170">
        <ele>1304.0</ele>
        <time>2020-09-29T12:39:23Z</time>
      </trkpt>
      <trkpt lat="41.0971680" lon="-3.4107370">
        <ele>1304.0</ele>
        <time>2020-09-29T12:39:24Z</time>
      </trkpt>
      <trkpt lat="41.0971900" lon="-3.4107450">
        <ele>1304.0</ele>
        <time>2020-09-29T12:39:25Z</time>
      </trkpt>
      <trkpt lat="41.0971900" lon="-3.4107450">
        <ele>1305.0</ele>
        <time>2020-09-29T12:39:26Z</time>
      </trkpt>
      <trkpt lat="41.0972350" lon="-3.4107680">
        <ele>1305.0</ele>
        <time>2020-09-29T12:39:27Z</time>
      </trkpt>
      <trkpt lat="41.0972580" lon="-3.4107750">
        <ele>1305.0</ele>
        <time>2020-09-29T12:39:28Z</time>
      </trkpt>
      <trkpt lat="41.0972580" lon="-3.4107750">
        <ele>1305.0</ele>
        <time>2020-09-29T12:39:29Z</time>
      </trkpt>
      <trkpt lat="41.0973070" lon="-3.4107870">
        <ele>1305.0</ele>
        <time>2020-09-29T12:39:30Z</time>
      </trkpt>
      <trkpt lat="41.0973070" lon="-3.4107870">
        <ele>1305.0</ele>
        <time>2020-09-29T12:39:31Z</time>
      </trkpt>
      <trkpt lat="41.0973530" lon="-3.4108000">
        <ele>1307.0</ele>
        <time>2020-09-29T12:39:32Z</time>
      </trkpt>
      <trkpt lat="41.0973530" lon="-3.4108000">
        <ele>1307.0</ele>
        <time>2020-09-29T12:39:33Z</time>
      </trkpt>
      <trkpt lat="41.0974000" lon="-3.4108100">
        <ele>1307.0</ele>
        <time>2020-09-29T12:39:34Z</time>
      </trkpt>
      <trkpt lat="41.0974250" lon="-3.4108120">
        <ele>1308.0</ele>
        <time>2020-09-29T12:39:35Z</time>
      </trkpt>
      <trkpt lat="41.0974250" lon="-3.4108120">
        <ele>1308.0</ele>
        <time>2020-09-29T12:39:36Z</time>
      </trkpt>
      <trkpt lat="41.0974730" lon="-3.4108130">
        <ele>1308.0</ele>
        <time>2020-09-29T12:39:37Z</time>
      </trkpt>
      <trkpt lat="41.0974730" lon="-3.4108130">
        <ele>1308.0</ele>
        <time>2020-09-29T12:39:38Z</time>
      </trkpt>
      <trkpt lat="41.0975230" lon="-3.4108200">
        <ele>1308.0</ele>
        <time>2020-09-29T12:39:39Z</time>
      </trkpt>
      <trkpt lat="41.0975230" lon="-3.4108200">
        <ele>1309.0</ele>
        <time>2020-09-29T12:39:40Z</time>
      </trkpt>
      <trkpt lat="41.0975720" lon="-3.4108280">
        <ele>1309.0</ele>
        <time>2020-09-29T12:39:41Z</time>
      </trkpt>
      <trkpt lat="41.0975720" lon="-3.4108280">
        <ele>1309.0</ele>
        <time>2020-09-29T12:39:42Z</time>
      </trkpt>
      <trkpt lat="41.0976180" lon="-3.4108350">
        <ele>1309.0</ele>
        <time>2020-09-29T12:39:43Z</time>
      </trkpt>
      <trkpt lat="41.0976180" lon="-3.4108350">
        <ele>1310.0</ele>
        <time>2020-09-29T12:39:44Z</time>
      </trkpt>
      <trkpt lat="41.0976680" lon="-3.4108330">
        <ele>1310.0</ele>
        <time>2020-09-29T12:39:45Z</time>
      </trkpt>
      <trkpt lat="41.0976920" lon="-3.4108320">
        <ele>1310.0</ele>
        <time>2020-09-29T12:39:46Z</time>
      </trkpt>
      <trkpt lat="41.0976920" lon="-3.4108320">
        <ele>1310.0</ele>
        <time>2020-09-29T12:39:47Z</time>
      </trkpt>
      <trkpt lat="41.0977420" lon="-3.4108350">
        <ele>1311.0</ele>
        <time>2020-09-29T12:39:48Z</time>
      </trkpt>
      <trkpt lat="41.0977670" lon="-3.4108350">
        <ele>1311.0</ele>
        <time>2020-09-29T12:39:49Z</time>
      </trkpt>
      <trkpt lat="41.0977670" lon="-3.4108350">
        <ele>1311.0</ele>
        <time>2020-09-29T12:39:50Z</time>
      </trkpt>
      <trkpt lat="41.0978130" lon="-3.4108330">
        <ele>1311.0</ele>
        <time>2020-09-29T12:39:51Z</time>
      </trkpt>
      <trkpt lat="41.0978130" lon="-3.4108330">
        <ele>1312.0</ele>
        <time>2020-09-29T12:39:52Z</time>
      </trkpt>
      <trkpt lat="41.0978630" lon="-3.4108200">
        <ele>1312.0</ele>
        <time>2020-09-29T12:39:53Z</time>
      </trkpt>
      <trkpt lat="41.0978900" lon="-3.4108150">
        <ele>1312.0</ele>
        <time>2020-09-29T12:39:54Z</time>
      </trkpt>
      <trkpt lat="41.0978900" lon="-3.4108150">
        <ele>1312.0</ele>
        <time>2020-09-29T12:39:55Z</time>
      </trkpt>
      <trkpt lat="41.0979370" lon="-3.4107980">
        <ele>1312.0</ele>
        <time>2020-09-29T12:39:56Z</time>
      </trkpt>
      <trkpt lat="41.0979370" lon="-3.4107980">
        <ele>1312.0</ele>
        <time>2020-09-29T12:39:57Z</time>
      </trkpt>
      <trkpt lat="41.0979850" lon="-3.4107730">
        <ele>1313.0</ele>
        <time>2020-09-29T12:39:58Z</time>
      </trkpt>
      <trkpt lat="41.0979850" lon="-3.4107730">
        <ele>1313.0</ele>
        <time>2020-09-29T12:39:59Z</time>
      </trkpt>
      <trkpt lat="41.0980330" lon="-3.4107380">
        <ele>1313.0</ele>
        <time>2020-09-29T12:40:00Z</time>
      </trkpt>
      <trkpt lat="41.0980330" lon="-3.4107380">
        <ele>1313.0</ele>
        <time>2020-09-29T12:40:01Z</time>
      </trkpt>
      <trkpt lat="41.0980750" lon="-3.4106880">
        <ele>1313.0</ele>
        <time>2020-09-29T12:40:02Z</time>
      </trkpt>
      <trkpt lat="41.0980750" lon="-3.4106880">
        <ele>1313.0</ele>
        <time>2020-09-29T12:40:03Z</time>
      </trkpt>
      <trkpt lat="41.0981220" lon="-3.4106350">
        <ele>1313.0</ele>
        <time>2020-09-29T12:40:04Z</time>
      </trkpt>
      <trkpt lat="41.0981450" lon="-3.4106070">
        <ele>1313.0</ele>
        <time>2020-09-29T12:40:05Z</time>
      </trkpt>
      <trkpt lat="41.0981450" lon="-3.4106070">
        <ele>1314.0</ele>
        <time>2020-09-29T12:40:06Z</time>
      </trkpt>
      <trkpt lat="41.0981930" lon="-3.4105380">
        <ele>1314.0</ele>
        <time>2020-09-29T12:40:07Z</time>
      </trkpt>
      <trkpt lat="41.0981930" lon="-3.4105380">
        <ele>1314.0</ele>
        <time>2020-09-29T12:40:08Z</time>
      </trkpt>
      <trkpt lat="41.0982430" lon="-3.4104720">
        <ele>1314.0</ele>
        <time>2020-09-29T12:40:09Z</time>
      </trkpt>
      <trkpt lat="41.0982430" lon="-3.4104720">
        <ele>1314.0</ele>
        <time>2020-09-29T12:40:10Z</time>
      </trkpt>
      <trkpt lat="41.0982950" lon="-3.4104020">
        <ele>1314.0</ele>
        <time>2020-09-29T12:40:11Z</time>
      </trkpt>
      <trkpt lat="41.0983220" lon="-3.4103700">
        <ele>1314.0</ele>
        <time>2020-09-29T12:40:12Z</time>
      </trkpt>
      <trkpt lat="41.0983450" lon="-3.4103330">
        <ele>1314.0</ele>
        <time>2020-09-29T12:40:13Z</time>
      </trkpt>
      <trkpt lat="41.0983450" lon="-3.4103330">
        <ele>1314.0</ele>
        <time>2020-09-29T12:40:14Z</time>
      </trkpt>
      <trkpt lat="41.0983870" lon="-3.4102580">
        <ele>1314.0</ele>
        <time>2020-09-29T12:40:15Z</time>
      </trkpt>
      <trkpt lat="41.0983870" lon="-3.4102580">
        <ele>1314.0</ele>
        <time>2020-09-29T12:40:16Z</time>
      </trkpt>
      <trkpt lat="41.0984250" lon="-3.4101830">
        <ele>1314.0</ele>
        <time>2020-09-29T12:40:17Z</time>
      </trkpt>
      <trkpt lat="41.0984480" lon="-3.4101470">
        <ele>1314.0</ele>
        <time>2020-09-29T12:40:18Z</time>
      </trkpt>
      <trkpt lat="41.0984480" lon="-3.4101470">
        <ele>1314.0</ele>
        <time>2020-09-29T12:40:19Z</time>
      </trkpt>
      <trkpt lat="41.0984900" lon="-3.4100670">
        <ele>1314.0</ele>
        <time>2020-09-29T12:40:20Z</time>
      </trkpt>
      <trkpt lat="41.0984900" lon="-3.4100670">
        <ele>1314.0</ele>
        <time>2020-09-29T12:40:21Z</time>
      </trkpt>
      <trkpt lat="41.0985300" lon="-3.4099870">
        <ele>1314.0</ele>
        <time>2020-09-29T12:40:22Z</time>
      </trkpt>
      <trkpt lat="41.0985500" lon="-3.4099450">
        <ele>1314.0</ele>
        <time>2020-09-29T12:40:23Z</time>
      </trkpt>
      <trkpt lat="41.0985500" lon="-3.4099450">
        <ele>1314.0</ele>
        <time>2020-09-29T12:40:24Z</time>
      </trkpt>
      <trkpt lat="41.0985880" lon="-3.4098580">
        <ele>1314.0</ele>
        <time>2020-09-29T12:40:25Z</time>
      </trkpt>
      <trkpt lat="41.0985880" lon="-3.4098580">
        <ele>1314.0</ele>
        <time>2020-09-29T12:40:26Z</time>
      </trkpt>
      <trkpt lat="41.0986330" lon="-3.4097670">
        <ele>1314.0</ele>
        <time>2020-09-29T12:40:27Z</time>
      </trkpt>
      <trkpt lat="41.0986330" lon="-3.4097670">
        <ele>1314.0</ele>
        <time>2020-09-29T12:40:28Z</time>
      </trkpt>
      <trkpt lat="41.0986780" lon="-3.4096820">
        <ele>1314.0</ele>
        <time>2020-09-29T12:40:29Z</time>
      </trkpt>
      <trkpt lat="41.0986980" lon="-3.4096420">
        <ele>1314.0</ele>
        <time>2020-09-29T12:40:30Z</time>
      </trkpt>
      <trkpt lat="41.0986980" lon="-3.4096420">
        <ele>1314.0</ele>
        <time>2020-09-29T12:40:31Z</time>
      </trkpt>
      <trkpt lat="41.0987380" lon="-3.4095630">
        <ele>1314.0</ele>
        <time>2020-09-29T12:40:32Z</time>
      </trkpt>
      <trkpt lat="41.0987380" lon="-3.4095630">
        <ele>1314.0</ele>
        <time>2020-09-29T12:40:33Z</time>
      </trkpt>
      <trkpt lat="41.0987770" lon="-3.4094820">
        <ele>1314.0</ele>
        <time>2020-09-29T12:40:34Z</time>
      </trkpt>
      <trkpt lat="41.0987770" lon="-3.4094820">
        <ele>1314.0</ele>
        <time>2020-09-29T12:40:35Z</time>
      </trkpt>
      <trkpt lat="41.0988220" lon="-3.4094100">
        <ele>1314.0</ele>
        <time>2020-09-29T12:40:36Z</time>
      </trkpt>
      <trkpt lat="41.0988220" lon="-3.4094100">
        <ele>1315.0</ele>
        <time>2020-09-29T12:40:37Z</time>
      </trkpt>
      <trkpt lat="41.0988600" lon="-3.4093300">
        <ele>1315.0</ele>
        <time>2020-09-29T12:40:38Z</time>
      </trkpt>
      <trkpt lat="41.0988600" lon="-3.4093300">
        <ele>1315.0</ele>
        <time>2020-09-29T12:40:39Z</time>
      </trkpt>
      <trkpt lat="41.0989170" lon="-3.4092650">
        <ele>1315.0</ele>
        <time>2020-09-29T12:40:40Z</time>
      </trkpt>
      <trkpt lat="41.0989470" lon="-3.4092320">
        <ele>1315.0</ele>
        <time>2020-09-29T12:40:41Z</time>
      </trkpt>
      <trkpt lat="41.0989470" lon="-3.4092320">
        <ele>1315.0</ele>
        <time>2020-09-29T12:40:42Z</time>
      </trkpt>
      <trkpt lat="41.0990000" lon="-3.4091470">
        <ele>1315.0</ele>
        <time>2020-09-29T12:40:43Z</time>
      </trkpt>
      <trkpt lat="41.0990200" lon="-3.4090950">
        <ele>1315.0</ele>
        <time>2020-09-29T12:40:44Z</time>
      </trkpt>
      <trkpt lat="41.0990200" lon="-3.4090950">
        <ele>1315.0</ele>
        <time>2020-09-29T12:40:45Z</time>
      </trkpt>
      <trkpt lat="41.0990450" lon="-3.4089670">
        <ele>1315.0</ele>
        <time>2020-09-29T12:40:46Z</time>
      </trkpt>
      <trkpt lat="41.0990450" lon="-3.4089670">
        <ele>1315.0</ele>
        <time>2020-09-29T12:40:47Z</time>
      </trkpt>
      <trkpt lat="41.0990530" lon="-3.4088200">
        <ele>1315.0</ele>
        <time>2020-09-29T12:40:48Z</time>
      </trkpt>
      <trkpt lat="41.0990530" lon="-3.4088200">
        <ele>1315.0</ele>
        <time>2020-09-29T12:40:49Z</time>
      </trkpt>
      <trkpt lat="41.0990570" lon="-3.4086680">
        <ele>1315.0</ele>
        <time>2020-09-29T12:40:50Z</time>
      </trkpt>
      <trkpt lat="41.0990570" lon="-3.4086680">
        <ele>1315.0</ele>
        <time>2020-09-29T12:40:51Z</time>
      </trkpt>
      <trkpt lat="41.0990530" lon="-3.4085080">
        <ele>1314.0</ele>
        <time>2020-09-29T12:40:52Z</time>
      </trkpt>
      <trkpt lat="41.0990500" lon="-3.4084250">
        <ele>1314.0</ele>
        <time>2020-09-29T12:40:53Z</time>
      </trkpt>
      <trkpt lat="41.0990500" lon="-3.4084250">
        <ele>1314.0</ele>
        <time>2020-09-29T12:40:54Z</time>
      </trkpt>
      <trkpt lat="41.0990430" lon="-3.4082570">
        <ele>1314.0</ele>
        <time>2020-09-29T12:40:55Z</time>
      </trkpt>
      <trkpt lat="41.0990420" lon="-3.4081730">
        <ele>1314.0</ele>
        <time>2020-09-29T12:40:56Z</time>
      </trkpt>
      <trkpt lat="41.0990420" lon="-3.4081730">
        <ele>1314.0</ele>
        <time>2020-09-29T12:40:57Z</time>
      </trkpt>
      <trkpt lat="41.0990350" lon="-3.4080050">
        <ele>1314.0</ele>
        <time>2020-09-29T12:40:58Z</time>
      </trkpt>
      <trkpt lat="41.0990350" lon="-3.4080050">
        <ele>1314.0</ele>
        <time>2020-09-29T12:40:59Z</time>
      </trkpt>
      <trkpt lat="41.0990300" lon="-3.4078370">
        <ele>1314.0</ele>
        <time>2020-09-29T12:41:00Z</time>
      </trkpt>
      <trkpt lat="41.0990300" lon="-3.4078370">
        <ele>1314.0</ele>
        <time>2020-09-29T12:41:01Z</time>
      </trkpt>
      <trkpt lat="41.0990230" lon="-3.4076680">
        <ele>1314.0</ele>
        <time>2020-09-29T12:41:02Z</time>
      </trkpt>
      <trkpt lat="41.0990230" lon="-3.4076680">
        <ele>1314.0</ele>
        <time>2020-09-29T12:41:03Z</time>
      </trkpt>
      <trkpt lat="41.0990250" lon="-3.4074970">
        <ele>1314.0</ele>
        <time>2020-09-29T12:41:04Z</time>
      </trkpt>
      <trkpt lat="41.0990250" lon="-3.4074970">
        <ele>1314.0</ele>
        <time>2020-09-29T12:41:05Z</time>
      </trkpt>
      <trkpt lat="41.0990280" lon="-3.4073250">
        <ele>1314.0</ele>
        <time>2020-09-29T12:41:06Z</time>
      </trkpt>
      <trkpt lat="41.0990280" lon="-3.4073250">
        <ele>1314.0</ele>
        <time>2020-09-29T12:41:07Z</time>
      </trkpt>
      <trkpt lat="41.0990250" lon="-3.4071500">
        <ele>1314.0</ele>
        <time>2020-09-29T12:41:08Z</time>
      </trkpt>
      <trkpt lat="41.0990220" lon="-3.4070630">
        <ele>1314.0</ele>
        <time>2020-09-29T12:41:09Z</time>
      </trkpt>
      <trkpt lat="41.0990220" lon="-3.4070630">
        <ele>1314.0</ele>
        <time>2020-09-29T12:41:10Z</time>
      </trkpt>
      <trkpt lat="41.0990200" lon="-3.4068920">
        <ele>1314.0</ele>
        <time>2020-09-29T12:41:11Z</time>
      </trkpt>
      <trkpt lat="41.0990200" lon="-3.4068920">
        <ele>1314.0</ele>
        <time>2020-09-29T12:41:12Z</time>
      </trkpt>
      <trkpt lat="41.0990150" lon="-3.4067150">
        <ele>1314.0</ele>
        <time>2020-09-29T12:41:13Z</time>
      </trkpt>
      <trkpt lat="41.0990150" lon="-3.4067150">
        <ele>1314.0</ele>
        <time>2020-09-29T12:41:14Z</time>
      </trkpt>
      <trkpt lat="41.0990130" lon="-3.4065330">
        <ele>1314.0</ele>
        <time>2020-09-29T12:41:15Z</time>
      </trkpt>
      <trkpt lat="41.0990150" lon="-3.4064400">
        <ele>1314.0</ele>
        <time>2020-09-29T12:41:16Z</time>
      </trkpt>
      <trkpt lat="41.0990230" lon="-3.4063480">
        <ele>1314.0</ele>
        <time>2020-09-29T12:41:17Z</time>
      </trkpt>
      <trkpt lat="41.0990230" lon="-3.4063480">
        <ele>1314.0</ele>
        <time>2020-09-29T12:41:18Z</time>
      </trkpt>
      <trkpt lat="41.0990550" lon="-3.4061720">
        <ele>1314.0</ele>
        <time>2020-09-29T12:41:19Z</time>
      </trkpt>
      <trkpt lat="41.0990550" lon="-3.4061720">
        <ele>1314.0</ele>
        <time>2020-09-29T12:41:20Z</time>
      </trkpt>
      <trkpt lat="41.0991030" lon="-3.4060120">
        <ele>1314.0</ele>
        <time>2020-09-29T12:41:21Z</time>
      </trkpt>
      <trkpt lat="41.0991280" lon="-3.4059370">
        <ele>1314.0</ele>
        <time>2020-09-29T12:41:22Z</time>
      </trkpt>
      <trkpt lat="41.0991280" lon="-3.4059370">
        <ele>1314.0</ele>
        <time>2020-09-29T12:41:23Z</time>
      </trkpt>
      <trkpt lat="41.0991830" lon="-3.4057930">
        <ele>1314.0</ele>
        <time>2020-09-29T12:41:24Z</time>
      </trkpt>
      <trkpt lat="41.0992120" lon="-3.4057270">
        <ele>1314.0</ele>
        <time>2020-09-29T12:41:25Z</time>
      </trkpt>
      <trkpt lat="41.0992120" lon="-3.4057270">
        <ele>1314.0</ele>
        <time>2020-09-29T12:41:26Z</time>
      </trkpt>
      <trkpt lat="41.0992680" lon="-3.4056000">
        <ele>1314.0</ele>
        <time>2020-09-29T12:41:27Z</time>
      </trkpt>
      <trkpt lat="41.0992680" lon="-3.4056000">
        <ele>1314.0</ele>
        <time>2020-09-29T12:41:28Z</time>
      </trkpt>
      <trkpt lat="41.0993320" lon="-3.4054830">
        <ele>1314.0</ele>
        <time>2020-09-29T12:41:29Z</time>
      </trkpt>
      <trkpt lat="41.0993680" lon="-3.4054250">
        <ele>1314.0</ele>
        <time>2020-09-29T12:41:30Z</time>
      </trkpt>
      <trkpt lat="41.0993680" lon="-3.4054250">
        <ele>1314.0</ele>
        <time>2020-09-29T12:41:31Z</time>
      </trkpt>
      <trkpt lat="41.0994420" lon="-3.4053180">
        <ele>1314.0</ele>
        <time>2020-09-29T12:41:32Z</time>
      </trkpt>
      <trkpt lat="41.0994420" lon="-3.4053180">
        <ele>1314.0</ele>
        <time>2020-09-29T12:41:33Z</time>
      </trkpt>
      <trkpt lat="41.0995170" lon="-3.4052200">
        <ele>1314.0</ele>
        <time>2020-09-29T12:41:34Z</time>
      </trkpt>
      <trkpt lat="41.0995170" lon="-3.4052200">
        <ele>1315.0</ele>
        <time>2020-09-29T12:41:35Z</time>
      </trkpt>
      <trkpt lat="41.0995880" lon="-3.4051270">
        <ele>1315.0</ele>
        <time>2020-09-29T12:41:36Z</time>
      </trkpt>
      <trkpt lat="41.0996220" lon="-3.4050820">
        <ele>1315.0</ele>
        <time>2020-09-29T12:41:37Z</time>
      </trkpt>
      <trkpt lat="41.0996220" lon="-3.4050820">
        <ele>1315.0</ele>
        <time>2020-09-29T12:41:38Z</time>
      </trkpt>
      <trkpt lat="41.0996850" lon="-3.4049970">
        <ele>1316.0</ele>
        <time>2020-09-29T12:41:39Z</time>
      </trkpt>
      <trkpt lat="41.0997180" lon="-3.4049550">
        <ele>1316.0</ele>
        <time>2020-09-29T12:41:40Z</time>
      </trkpt>
      <trkpt lat="41.0997180" lon="-3.4049550">
        <ele>1316.0</ele>
        <time>2020-09-29T12:41:41Z</time>
      </trkpt>
      <trkpt lat="41.0997780" lon="-3.4048700">
        <ele>1316.0</ele>
        <time>2020-09-29T12:41:42Z</time>
      </trkpt>
      <trkpt lat="41.0998120" lon="-3.4048300">
        <ele>1316.0</ele>
        <time>2020-09-29T12:41:43Z</time>
      </trkpt>
      <trkpt lat="41.0998120" lon="-3.4048300">
        <ele>1316.0</ele>
        <time>2020-09-29T12:41:44Z</time>
      </trkpt>
      <trkpt lat="41.0998830" lon="-3.4047530">
        <ele>1317.0</ele>
        <time>2020-09-29T12:41:45Z</time>
      </trkpt>
      <trkpt lat="41.0998830" lon="-3.4047530">
        <ele>1317.0</ele>
        <time>2020-09-29T12:41:46Z</time>
      </trkpt>
      <trkpt lat="41.0999550" lon="-3.4046750">
        <ele>1317.0</ele>
        <time>2020-09-29T12:41:47Z</time>
      </trkpt>
      <trkpt lat="41.0999550" lon="-3.4046750">
        <ele>1317.0</ele>
        <time>2020-09-29T12:41:48Z</time>
      </trkpt>
      <trkpt lat="41.1000320" lon="-3.4045970">
        <ele>1317.0</ele>
        <time>2020-09-29T12:41:49Z</time>
      </trkpt>
      <trkpt lat="41.1000320" lon="-3.4045970">
        <ele>1317.0</ele>
        <time>2020-09-29T12:41:50Z</time>
      </trkpt>
      <trkpt lat="41.1001120" lon="-3.4045220">
        <ele>1317.0</ele>
        <time>2020-09-29T12:41:51Z</time>
      </trkpt>
      <trkpt lat="41.1001520" lon="-3.4044850">
        <ele>1317.0</ele>
        <time>2020-09-29T12:41:52Z</time>
      </trkpt>
      <trkpt lat="41.1001520" lon="-3.4044850">
        <ele>1317.0</ele>
        <time>2020-09-29T12:41:53Z</time>
      </trkpt>
      <trkpt lat="41.1002330" lon="-3.4044100">
        <ele>1317.0</ele>
        <time>2020-09-29T12:41:54Z</time>
      </trkpt>
      <trkpt lat="41.1002330" lon="-3.4044100">
        <ele>1317.0</ele>
        <time>2020-09-29T12:41:55Z</time>
      </trkpt>
      <trkpt lat="41.1003130" lon="-3.4043300">
        <ele>1317.0</ele>
        <time>2020-09-29T12:41:56Z</time>
      </trkpt>
      <trkpt lat="41.1003130" lon="-3.4043300">
        <ele>1317.0</ele>
        <time>2020-09-29T12:41:57Z</time>
      </trkpt>
      <trkpt lat="41.1004050" lon="-3.4042620">
        <ele>1317.0</ele>
        <time>2020-09-29T12:41:58Z</time>
      </trkpt>
      <trkpt lat="41.1004050" lon="-3.4042620">
        <ele>1317.0</ele>
        <time>2020-09-29T12:41:59Z</time>
      </trkpt>
      <trkpt lat="41.1004950" lon="-3.4041850">
        <ele>1317.0</ele>
        <time>2020-09-29T12:42:00Z</time>
      </trkpt>
      <trkpt lat="41.1005380" lon="-3.4041470">
        <ele>1317.0</ele>
        <time>2020-09-29T12:42:01Z</time>
      </trkpt>
      <trkpt lat="41.1005380" lon="-3.4041470">
        <ele>1317.0</ele>
        <time>2020-09-29T12:42:02Z</time>
      </trkpt>
      <trkpt lat="41.1006330" lon="-3.4040750">
        <ele>1317.0</ele>
        <time>2020-09-29T12:42:03Z</time>
      </trkpt>
      <trkpt lat="41.1006330" lon="-3.4040750">
        <ele>1317.0</ele>
        <time>2020-09-29T12:42:04Z</time>
      </trkpt>
      <trkpt lat="41.1007380" lon="-3.4040080">
        <ele>1317.0</ele>
        <time>2020-09-29T12:42:05Z</time>
      </trkpt>
      <trkpt lat="41.1007380" lon="-3.4040080">
        <ele>1317.0</ele>
        <time>2020-09-29T12:42:06Z</time>
      </trkpt>
      <trkpt lat="41.1008370" lon="-3.4039200">
        <ele>1317.0</ele>
        <time>2020-09-29T12:42:07Z</time>
      </trkpt>
      <trkpt lat="41.1008700" lon="-3.4038600">
        <ele>1318.0</ele>
        <time>2020-09-29T12:42:08Z</time>
      </trkpt>
      <trkpt lat="41.1008700" lon="-3.4038600">
        <ele>1318.0</ele>
        <time>2020-09-29T12:42:09Z</time>
      </trkpt>
      <trkpt lat="41.1008650" lon="-3.4037130">
        <ele>1318.0</ele>
        <time>2020-09-29T12:42:10Z</time>
      </trkpt>
      <trkpt lat="41.1008650" lon="-3.4037130">
        <ele>1318.0</ele>
        <time>2020-09-29T12:42:11Z</time>
      </trkpt>
      <trkpt lat="41.1008270" lon="-3.4035780">
        <ele>1318.0</ele>
        <time>2020-09-29T12:42:12Z</time>
      </trkpt>
      <trkpt lat="41.1008030" lon="-3.4035120">
        <ele>1318.0</ele>
        <time>2020-09-29T12:42:13Z</time>
      </trkpt>
      <trkpt lat="41.1008030" lon="-3.4035120">
        <ele>1318.0</ele>
        <time>2020-09-29T12:42:14Z</time>
      </trkpt>
      <trkpt lat="41.1007600" lon="-3.4033750">
        <ele>1318.0</ele>
        <time>2020-09-29T12:42:15Z</time>
      </trkpt>
      <trkpt lat="41.1007600" lon="-3.4033750">
        <ele>1318.0</ele>
        <time>2020-09-29T12:42:16Z</time>
      </trkpt>
      <trkpt lat="41.1007030" lon="-3.4032350">
        <ele>1318.0</ele>
        <time>2020-09-29T12:42:17Z</time>
      </trkpt>
      <trkpt lat="41.1006670" lon="-3.4031650">
        <ele>1318.0</ele>
        <time>2020-09-29T12:42:18Z</time>
      </trkpt>
      <trkpt lat="41.1006270" lon="-3.4030930">
        <ele>1318.0</ele>
        <time>2020-09-29T12:42:19Z</time>
      </trkpt>
      <trkpt lat="41.1006270" lon="-3.4030930">
        <ele>1318.0</ele>
        <time>2020-09-29T12:42:20Z</time>
      </trkpt>
      <trkpt lat="41.1005380" lon="-3.4029570">
        <ele>1318.0</ele>
        <time>2020-09-29T12:42:21Z</time>
      </trkpt>
      <trkpt lat="41.1005380" lon="-3.4029570">
        <ele>1318.0</ele>
        <time>2020-09-29T12:42:22Z</time>
      </trkpt>
      <trkpt lat="41.1004470" lon="-3.4028230">
        <ele>1318.0</ele>
        <time>2020-09-29T12:42:23Z</time>
      </trkpt>
      <trkpt lat="41.1004030" lon="-3.4027580">
        <ele>1318.0</ele>
        <time>2020-09-29T12:42:24Z</time>
      </trkpt>
      <trkpt lat="41.1004030" lon="-3.4027580">
        <ele>1318.0</ele>
        <time>2020-09-29T12:42:25Z</time>
      </trkpt>
      <trkpt lat="41.1003120" lon="-3.4026320">
        <ele>1318.0</ele>
        <time>2020-09-29T12:42:26Z</time>
      </trkpt>
      <trkpt lat="41.1003120" lon="-3.4026320">
        <ele>1318.0</ele>
        <time>2020-09-29T12:42:27Z</time>
      </trkpt>
      <trkpt lat="41.1002170" lon="-3.4025050">
        <ele>1318.0</ele>
        <time>2020-09-29T12:42:28Z</time>
      </trkpt>
      <trkpt lat="41.1002170" lon="-3.4025050">
        <ele>1318.0</ele>
        <time>2020-09-29T12:42:29Z</time>
      </trkpt>
      <trkpt lat="41.1001170" lon="-3.4023830">
        <ele>1318.0</ele>
        <time>2020-09-29T12:42:30Z</time>
      </trkpt>
      <trkpt lat="41.1000720" lon="-3.4023180">
        <ele>1318.0</ele>
        <time>2020-09-29T12:42:31Z</time>
      </trkpt>
      <trkpt lat="41.1000720" lon="-3.4023180">
        <ele>1318.0</ele>
        <time>2020-09-29T12:42:32Z</time>
      </trkpt>
      <trkpt lat="41.0999850" lon="-3.4021830">
        <ele>1318.0</ele>
        <time>2020-09-29T12:42:33Z</time>
      </trkpt>
      <trkpt lat="41.0999850" lon="-3.4021830">
        <ele>1318.0</ele>
        <time>2020-09-29T12:42:34Z</time>
      </trkpt>
      <trkpt lat="41.0999170" lon="-3.4020370">
        <ele>1318.0</ele>
        <time>2020-09-29T12:42:35Z</time>
      </trkpt>
      <trkpt lat="41.0998920" lon="-3.4019600">
        <ele>1318.0</ele>
        <time>2020-09-29T12:42:36Z</time>
      </trkpt>
      <trkpt lat="41.0998770" lon="-3.4018820">
        <ele>1317.0</ele>
        <time>2020-09-29T12:42:37Z</time>
      </trkpt>
      <trkpt lat="41.0998770" lon="-3.4018820">
        <ele>1317.0</ele>
        <time>2020-09-29T12:42:38Z</time>
      </trkpt>
      <trkpt lat="41.0998770" lon="-3.4018820">
        <ele>1317.0</ele>
        <time>2020-09-29T12:42:39Z</time>
      </trkpt>
      <trkpt lat="41.0998920" lon="-3.4016400">
        <ele>1317.0</ele>
        <time>2020-09-29T12:42:40Z</time>
      </trkpt>
      <trkpt lat="41.0999220" lon="-3.4015720">
        <ele>1317.0</ele>
        <time>2020-09-29T12:42:41Z</time>
      </trkpt>
      <trkpt lat="41.0999220" lon="-3.4015720">
        <ele>1317.0</ele>
        <time>2020-09-29T12:42:42Z</time>
      </trkpt>
      <trkpt lat="41.1000050" lon="-3.4014670">
        <ele>1317.0</ele>
        <time>2020-09-29T12:42:43Z</time>
      </trkpt>
      <trkpt lat="41.1000050" lon="-3.4014670">
        <ele>1317.0</ele>
        <time>2020-09-29T12:42:44Z</time>
      </trkpt>
      <trkpt lat="41.1001150" lon="-3.4014120">
        <ele>1317.0</ele>
        <time>2020-09-29T12:42:45Z</time>
      </trkpt>
      <trkpt lat="41.1001150" lon="-3.4014120">
        <ele>1317.0</ele>
        <time>2020-09-29T12:42:46Z</time>
      </trkpt>
      <trkpt lat="41.1002280" lon="-3.4013770">
        <ele>1317.0</ele>
        <time>2020-09-29T12:42:47Z</time>
      </trkpt>
      <trkpt lat="41.1002280" lon="-3.4013770">
        <ele>1317.0</ele>
        <time>2020-09-29T12:42:48Z</time>
      </trkpt>
      <trkpt lat="41.1003370" lon="-3.4013550">
        <ele>1317.0</ele>
        <time>2020-09-29T12:42:49Z</time>
      </trkpt>
      <trkpt lat="41.1003370" lon="-3.4013550">
        <ele>1317.0</ele>
        <time>2020-09-29T12:42:50Z</time>
      </trkpt>
      <trkpt lat="41.1004430" lon="-3.4013370">
        <ele>1317.0</ele>
        <time>2020-09-29T12:42:51Z</time>
      </trkpt>
      <trkpt lat="41.1004430" lon="-3.4013370">
        <ele>1318.0</ele>
        <time>2020-09-29T12:42:52Z</time>
      </trkpt>
      <trkpt lat="41.1005400" lon="-3.4013170">
        <ele>1318.0</ele>
        <time>2020-09-29T12:42:53Z</time>
      </trkpt>
      <trkpt lat="41.1005400" lon="-3.4013170">
        <ele>1318.0</ele>
        <time>2020-09-29T12:42:54Z</time>
      </trkpt>
      <trkpt lat="41.1006350" lon="-3.4012950">
        <ele>1318.0</ele>
        <time>2020-09-29T12:42:55Z</time>
      </trkpt>
      <trkpt lat="41.1006350" lon="-3.4012950">
        <ele>1319.0</ele>
        <time>2020-09-29T12:42:56Z</time>
      </trkpt>
      <trkpt lat="41.1007270" lon="-3.4012680">
        <ele>1319.0</ele>
        <time>2020-09-29T12:42:57Z</time>
      </trkpt>
      <trkpt lat="41.1007270" lon="-3.4012680">
        <ele>1319.0</ele>
        <time>2020-09-29T12:42:58Z</time>
      </trkpt>
      <trkpt lat="41.1008180" lon="-3.4012470">
        <ele>1319.0</ele>
        <time>2020-09-29T12:42:59Z</time>
      </trkpt>
      <trkpt lat="41.1008180" lon="-3.4012470">
        <ele>1319.0</ele>
        <time>2020-09-29T12:43:00Z</time>
      </trkpt>
      <trkpt lat="41.1009120" lon="-3.4012200">
        <ele>1319.0</ele>
        <time>2020-09-29T12:43:01Z</time>
      </trkpt>
      <trkpt lat="41.1009120" lon="-3.4012200">
        <ele>1319.0</ele>
        <time>2020-09-29T12:43:02Z</time>
      </trkpt>
      <trkpt lat="41.1010050" lon="-3.4011820">
        <ele>1319.0</ele>
        <time>2020-09-29T12:43:03Z</time>
      </trkpt>
      <trkpt lat="41.1010050" lon="-3.4011820">
        <ele>1319.0</ele>
        <time>2020-09-29T12:43:04Z</time>
      </trkpt>
      <trkpt lat="41.1011020" lon="-3.4011320">
        <ele>1319.0</ele>
        <time>2020-09-29T12:43:05Z</time>
      </trkpt>
      <trkpt lat="41.1011480" lon="-3.4011030">
        <ele>1319.0</ele>
        <time>2020-09-29T12:43:06Z</time>
      </trkpt>
      <trkpt lat="41.1011480" lon="-3.4011030">
        <ele>1319.0</ele>
        <time>2020-09-29T12:43:07Z</time>
      </trkpt>
      <trkpt lat="41.1012370" lon="-3.4010400">
        <ele>1319.0</ele>
        <time>2020-09-29T12:43:08Z</time>
      </trkpt>
      <trkpt lat="41.1012370" lon="-3.4010400">
        <ele>1319.0</ele>
        <time>2020-09-29T12:43:09Z</time>
      </trkpt>
      <trkpt lat="41.1013270" lon="-3.4009720">
        <ele>1319.0</ele>
        <time>2020-09-29T12:43:10Z</time>
      </trkpt>
      <trkpt lat="41.1013270" lon="-3.4009720">
        <ele>1319.0</ele>
        <time>2020-09-29T12:43:11Z</time>
      </trkpt>
      <trkpt lat="41.1014200" lon="-3.4009030">
        <ele>1319.0</ele>
        <time>2020-09-29T12:43:12Z</time>
      </trkpt>
      <trkpt lat="41.1014200" lon="-3.4009030">
        <ele>1319.0</ele>
        <time>2020-09-29T12:43:13Z</time>
      </trkpt>
      <trkpt lat="41.1015220" lon="-3.4008400">
        <ele>1319.0</ele>
        <time>2020-09-29T12:43:14Z</time>
      </trkpt>
      <trkpt lat="41.1015220" lon="-3.4008400">
        <ele>1319.0</ele>
        <time>2020-09-29T12:43:15Z</time>
      </trkpt>
      <trkpt lat="41.1016320" lon="-3.4007870">
        <ele>1319.0</ele>
        <time>2020-09-29T12:43:16Z</time>
      </trkpt>
      <trkpt lat="41.1016320" lon="-3.4007870">
        <ele>1319.0</ele>
        <time>2020-09-29T12:43:17Z</time>
      </trkpt>
      <trkpt lat="41.1017520" lon="-3.4007380">
        <ele>1319.0</ele>
        <time>2020-09-29T12:43:18Z</time>
      </trkpt>
      <trkpt lat="41.1017520" lon="-3.4007380">
        <ele>1319.0</ele>
        <time>2020-09-29T12:43:19Z</time>
      </trkpt>
      <trkpt lat="41.1018830" lon="-3.4006830">
        <ele>1319.0</ele>
        <time>2020-09-29T12:43:20Z</time>
      </trkpt>
      <trkpt lat="41.1018830" lon="-3.4006830">
        <ele>1319.0</ele>
        <time>2020-09-29T12:43:21Z</time>
      </trkpt>
      <trkpt lat="41.1020200" lon="-3.4006150">
        <ele>1319.0</ele>
        <time>2020-09-29T12:43:22Z</time>
      </trkpt>
      <trkpt lat="41.1020870" lon="-3.4005780">
        <ele>1319.0</ele>
        <time>2020-09-29T12:43:23Z</time>
      </trkpt>
      <trkpt lat="41.1020870" lon="-3.4005780">
        <ele>1319.0</ele>
        <time>2020-09-29T12:43:24Z</time>
      </trkpt>
      <trkpt lat="41.1022230" lon="-3.4005080">
        <ele>1318.0</ele>
        <time>2020-09-29T12:43:25Z</time>
      </trkpt>
      <trkpt lat="41.1022230" lon="-3.4005080">
        <ele>1318.0</ele>
        <time>2020-09-29T12:43:26Z</time>
      </trkpt>
      <trkpt lat="41.1023580" lon="-3.4004330">
        <ele>1318.0</ele>
        <time>2020-09-29T12:43:27Z</time>
      </trkpt>
      <trkpt lat="41.1024300" lon="-3.4003950">
        <ele>1318.0</ele>
        <time>2020-09-29T12:43:28Z</time>
      </trkpt>
      <trkpt lat="41.1024300" lon="-3.4003950">
        <ele>1318.0</ele>
        <time>2020-09-29T12:43:29Z</time>
      </trkpt>
      <trkpt lat="41.1025800" lon="-3.4003270">
        <ele>1318.0</ele>
        <time>2020-09-29T12:43:30Z</time>
      </trkpt>
      <trkpt lat="41.1025800" lon="-3.4003270">
        <ele>1317.0</ele>
        <time>2020-09-29T12:43:31Z</time>
      </trkpt>
      <trkpt lat="41.1027400" lon="-3.4002620">
        <ele>1317.0</ele>
        <time>2020-09-29T12:43:32Z</time>
      </trkpt>
      <trkpt lat="41.1027400" lon="-3.4002620">
        <ele>1317.0</ele>
        <time>2020-09-29T12:43:33Z</time>
      </trkpt>
      <trkpt lat="41.1029130" lon="-3.4001950">
        <ele>1317.0</ele>
        <time>2020-09-29T12:43:34Z</time>
      </trkpt>
      <trkpt lat="41.1029130" lon="-3.4001950">
        <ele>1316.0</ele>
        <time>2020-09-29T12:43:35Z</time>
      </trkpt>
      <trkpt lat="41.1031020" lon="-3.4001470">
        <ele>1316.0</ele>
        <time>2020-09-29T12:43:36Z</time>
      </trkpt>
      <trkpt lat="41.1031020" lon="-3.4001470">
        <ele>1315.0</ele>
        <time>2020-09-29T12:43:37Z</time>
      </trkpt>
      <trkpt lat="41.1033050" lon="-3.4001370">
        <ele>1315.0</ele>
        <time>2020-09-29T12:43:38Z</time>
      </trkpt>
      <trkpt lat="41.1033050" lon="-3.4001370">
        <ele>1314.0</ele>
        <time>2020-09-29T12:43:39Z</time>
      </trkpt>
      <trkpt lat="41.1035250" lon="-3.4001730">
        <ele>1314.0</ele>
        <time>2020-09-29T12:43:40Z</time>
      </trkpt>
      <trkpt lat="41.1035250" lon="-3.4001730">
        <ele>1313.0</ele>
        <time>2020-09-29T12:43:41Z</time>
      </trkpt>
      <trkpt lat="41.1037530" lon="-3.4002350">
        <ele>1313.0</ele>
        <time>2020-09-29T12:43:42Z</time>
      </trkpt>
      <trkpt lat="41.1038720" lon="-3.4002730">
        <ele>1311.0</ele>
        <time>2020-09-29T12:43:43Z</time>
      </trkpt>
      <trkpt lat="41.1038720" lon="-3.4002730">
        <ele>1311.0</ele>
        <time>2020-09-29T12:43:44Z</time>
      </trkpt>
      <trkpt lat="41.1041180" lon="-3.4003050">
        <ele>1310.0</ele>
        <time>2020-09-29T12:43:45Z</time>
      </trkpt>
      <trkpt lat="41.1041180" lon="-3.4003050">
        <ele>1310.0</ele>
        <time>2020-09-29T12:43:46Z</time>
      </trkpt>
      <trkpt lat="41.1043380" lon="-3.4002550">
        <ele>1309.0</ele>
        <time>2020-09-29T12:43:47Z</time>
      </trkpt>
      <trkpt lat="41.1043380" lon="-3.4002550">
        <ele>1309.0</ele>
        <time>2020-09-29T12:43:48Z</time>
      </trkpt>
      <trkpt lat="41.1044850" lon="-3.4000750">
        <ele>1308.0</ele>
        <time>2020-09-29T12:43:49Z</time>
      </trkpt>
      <trkpt lat="41.1044850" lon="-3.4000750">
        <ele>1307.0</ele>
        <time>2020-09-29T12:43:50Z</time>
      </trkpt>
      <trkpt lat="41.1045680" lon="-3.3998350">
        <ele>1307.0</ele>
        <time>2020-09-29T12:43:51Z</time>
      </trkpt>
      <trkpt lat="41.1045680" lon="-3.3998350">
        <ele>1307.0</ele>
        <time>2020-09-29T12:43:52Z</time>
      </trkpt>
      <trkpt lat="41.1046280" lon="-3.3995980">
        <ele>1307.0</ele>
        <time>2020-09-29T12:43:53Z</time>
      </trkpt>
      <trkpt lat="41.1046280" lon="-3.3995980">
        <ele>1306.0</ele>
        <time>2020-09-29T12:43:54Z</time>
      </trkpt>
      <trkpt lat="41.1046830" lon="-3.3993730">
        <ele>1306.0</ele>
        <time>2020-09-29T12:43:55Z</time>
      </trkpt>
      <trkpt lat="41.1046830" lon="-3.3993730">
        <ele>1306.0</ele>
        <time>2020-09-29T12:43:56Z</time>
      </trkpt>
      <trkpt lat="41.1047350" lon="-3.3991550">
        <ele>1306.0</ele>
        <time>2020-09-29T12:43:57Z</time>
      </trkpt>
      <trkpt lat="41.1047350" lon="-3.3991550">
        <ele>1306.0</ele>
        <time>2020-09-29T12:43:58Z</time>
      </trkpt>
      <trkpt lat="41.1047850" lon="-3.3989500">
        <ele>1306.0</ele>
        <time>2020-09-29T12:43:59Z</time>
      </trkpt>
      <trkpt lat="41.1048120" lon="-3.3988580">
        <ele>1306.0</ele>
        <time>2020-09-29T12:44:00Z</time>
      </trkpt>
      <trkpt lat="41.1048400" lon="-3.3987670">
        <ele>1306.0</ele>
        <time>2020-09-29T12:44:01Z</time>
      </trkpt>
      <trkpt lat="41.1048400" lon="-3.3987670">
        <ele>1306.0</ele>
        <time>2020-09-29T12:44:02Z</time>
      </trkpt>
      <trkpt lat="41.1048970" lon="-3.3986000">
        <ele>1306.0</ele>
        <time>2020-09-29T12:44:03Z</time>
      </trkpt>
      <trkpt lat="41.1049270" lon="-3.3985250">
        <ele>1307.0</ele>
        <time>2020-09-29T12:44:04Z</time>
      </trkpt>
      <trkpt lat="41.1049270" lon="-3.3985250">
        <ele>1307.0</ele>
        <time>2020-09-29T12:44:05Z</time>
      </trkpt>
      <trkpt lat="41.1049900" lon="-3.3983800">
        <ele>1307.0</ele>
        <time>2020-09-29T12:44:06Z</time>
      </trkpt>
      <trkpt lat="41.1049900" lon="-3.3983800">
        <ele>1307.0</ele>
        <time>2020-09-29T12:44:07Z</time>
      </trkpt>
      <trkpt lat="41.1050630" lon="-3.3982450">
        <ele>1307.0</ele>
        <time>2020-09-29T12:44:08Z</time>
      </trkpt>
      <trkpt lat="41.1050630" lon="-3.3982450">
        <ele>1307.0</ele>
        <time>2020-09-29T12:44:09Z</time>
      </trkpt>
      <trkpt lat="41.1051470" lon="-3.3981180">
        <ele>1308.0</ele>
        <time>2020-09-29T12:44:10Z</time>
      </trkpt>
      <trkpt lat="41.1051470" lon="-3.3981180">
        <ele>1308.0</ele>
        <time>2020-09-29T12:44:11Z</time>
      </trkpt>
      <trkpt lat="41.1052370" lon="-3.3980000">
        <ele>1308.0</ele>
        <time>2020-09-29T12:44:12Z</time>
      </trkpt>
      <trkpt lat="41.1052830" lon="-3.3979420">
        <ele>1308.0</ele>
        <time>2020-09-29T12:44:13Z</time>
      </trkpt>
      <trkpt lat="41.1052830" lon="-3.3979420">
        <ele>1308.0</ele>
        <time>2020-09-29T12:44:14Z</time>
      </trkpt>
      <trkpt lat="41.1053780" lon="-3.3978320">
        <ele>1308.0</ele>
        <time>2020-09-29T12:44:15Z</time>
      </trkpt>
      <trkpt lat="41.1054280" lon="-3.3977800">
        <ele>1309.0</ele>
        <time>2020-09-29T12:44:16Z</time>
      </trkpt>
      <trkpt lat="41.1054280" lon="-3.3977800">
        <ele>1309.0</ele>
        <time>2020-09-29T12:44:17Z</time>
      </trkpt>
      <trkpt lat="41.1055280" lon="-3.3976820">
        <ele>1309.0</ele>
        <time>2020-09-29T12:44:18Z</time>
      </trkpt>
      <trkpt lat="41.1055280" lon="-3.3976820">
        <ele>1309.0</ele>
        <time>2020-09-29T12:44:19Z</time>
      </trkpt>
      <trkpt lat="41.1056330" lon="-3.3975900">
        <ele>1309.0</ele>
        <time>2020-09-29T12:44:20Z</time>
      </trkpt>
      <trkpt lat="41.1056330" lon="-3.3975900">
        <ele>1309.0</ele>
        <time>2020-09-29T12:44:21Z</time>
      </trkpt>
      <trkpt lat="41.1057330" lon="-3.3974980">
        <ele>1309.0</ele>
        <time>2020-09-29T12:44:22Z</time>
      </trkpt>
      <trkpt lat="41.1057870" lon="-3.3974500">
        <ele>1309.0</ele>
        <time>2020-09-29T12:44:23Z</time>
      </trkpt>
      <trkpt lat="41.1057870" lon="-3.3974500">
        <ele>1309.0</ele>
        <time>2020-09-29T12:44:24Z</time>
      </trkpt>
      <trkpt lat="41.1059100" lon="-3.3973580">
        <ele>1309.0</ele>
        <time>2020-09-29T12:44:25Z</time>
      </trkpt>
      <trkpt lat="41.1059100" lon="-3.3973580">
        <ele>1309.0</ele>
        <time>2020-09-29T12:44:26Z</time>
      </trkpt>
      <trkpt lat="41.1060280" lon="-3.3972670">
        <ele>1309.0</ele>
        <time>2020-09-29T12:44:27Z</time>
      </trkpt>
      <trkpt lat="41.1060280" lon="-3.3972670">
        <ele>1309.0</ele>
        <time>2020-09-29T12:44:28Z</time>
      </trkpt>
      <trkpt lat="41.1061430" lon="-3.3971580">
        <ele>1309.0</ele>
        <time>2020-09-29T12:44:29Z</time>
      </trkpt>
      <trkpt lat="41.1061430" lon="-3.3971580">
        <ele>1309.0</ele>
        <time>2020-09-29T12:44:30Z</time>
      </trkpt>
      <trkpt lat="41.1062530" lon="-3.3970530">
        <ele>1309.0</ele>
        <time>2020-09-29T12:44:31Z</time>
      </trkpt>
      <trkpt lat="41.1063070" lon="-3.3970030">
        <ele>1309.0</ele>
        <time>2020-09-29T12:44:32Z</time>
      </trkpt>
      <trkpt lat="41.1063070" lon="-3.3970030">
        <ele>1309.0</ele>
        <time>2020-09-29T12:44:33Z</time>
      </trkpt>
      <trkpt lat="41.1064130" lon="-3.3969000">
        <ele>1309.0</ele>
        <time>2020-09-29T12:44:34Z</time>
      </trkpt>
      <trkpt lat="41.1064130" lon="-3.3969000">
        <ele>1309.0</ele>
        <time>2020-09-29T12:44:35Z</time>
      </trkpt>
      <trkpt lat="41.1065230" lon="-3.3968020">
        <ele>1309.0</ele>
        <time>2020-09-29T12:44:36Z</time>
      </trkpt>
      <trkpt lat="41.1065230" lon="-3.3968020">
        <ele>1309.0</ele>
        <time>2020-09-29T12:44:37Z</time>
      </trkpt>
      <trkpt lat="41.1066300" lon="-3.3967100">
        <ele>1309.0</ele>
        <time>2020-09-29T12:44:38Z</time>
      </trkpt>
      <trkpt lat="41.1066300" lon="-3.3967100">
        <ele>1310.0</ele>
        <time>2020-09-29T12:44:39Z</time>
      </trkpt>
      <trkpt lat="41.1067300" lon="-3.3966180">
        <ele>1310.0</ele>
        <time>2020-09-29T12:44:40Z</time>
      </trkpt>
      <trkpt lat="41.1067300" lon="-3.3966180">
        <ele>1310.0</ele>
        <time>2020-09-29T12:44:41Z</time>
      </trkpt>
      <trkpt lat="41.1068270" lon="-3.3965300">
        <ele>1310.0</ele>
        <time>2020-09-29T12:44:42Z</time>
      </trkpt>
      <trkpt lat="41.1068750" lon="-3.3964820">
        <ele>1310.0</ele>
        <time>2020-09-29T12:44:43Z</time>
      </trkpt>
      <trkpt lat="41.1068750" lon="-3.3964820">
        <ele>1310.0</ele>
        <time>2020-09-29T12:44:44Z</time>
      </trkpt>
      <trkpt lat="41.1069770" lon="-3.3963920">
        <ele>1310.0</ele>
        <time>2020-09-29T12:44:45Z</time>
      </trkpt>
      <trkpt lat="41.1069770" lon="-3.3963920">
        <ele>1310.0</ele>
        <time>2020-09-29T12:44:46Z</time>
      </trkpt>
      <trkpt lat="41.1070700" lon="-3.3962980">
        <ele>1310.0</ele>
        <time>2020-09-29T12:44:47Z</time>
      </trkpt>
      <trkpt lat="41.1071200" lon="-3.3962550">
        <ele>1310.0</ele>
        <time>2020-09-29T12:44:48Z</time>
      </trkpt>
      <trkpt lat="41.1071200" lon="-3.3962550">
        <ele>1311.0</ele>
        <time>2020-09-29T12:44:49Z</time>
      </trkpt>
      <trkpt lat="41.1072120" lon="-3.3961620">
        <ele>1311.0</ele>
        <time>2020-09-29T12:44:50Z</time>
      </trkpt>
      <trkpt lat="41.1072120" lon="-3.3961620">
        <ele>1311.0</ele>
        <time>2020-09-29T12:44:51Z</time>
      </trkpt>
      <trkpt lat="41.1072900" lon="-3.3960430">
        <ele>1311.0</ele>
        <time>2020-09-29T12:44:52Z</time>
      </trkpt>
      <trkpt lat="41.1073080" lon="-3.3959700">
        <ele>1311.0</ele>
        <time>2020-09-29T12:44:53Z</time>
      </trkpt>
      <trkpt lat="41.1073280" lon="-3.3959020">
        <ele>1311.0</ele>
        <time>2020-09-29T12:44:54Z</time>
      </trkpt>
      <trkpt lat="41.1073280" lon="-3.3959020">
        <ele>1312.0</ele>
        <time>2020-09-29T12:44:55Z</time>
      </trkpt>
      <trkpt lat="41.1073600" lon="-3.3957630">
        <ele>1312.0</ele>
        <time>2020-09-29T12:44:56Z</time>
      </trkpt>
      <trkpt lat="41.1073600" lon="-3.3957630">
        <ele>1312.0</ele>
        <time>2020-09-29T12:44:57Z</time>
      </trkpt>
      <trkpt lat="41.1073900" lon="-3.3956220">
        <ele>1312.0</ele>
        <time>2020-09-29T12:44:58Z</time>
      </trkpt>
      <trkpt lat="41.1073900" lon="-3.3956220">
        <ele>1312.0</ele>
        <time>2020-09-29T12:44:59Z</time>
      </trkpt>
      <trkpt lat="41.1074150" lon="-3.3954830">
        <ele>1312.0</ele>
        <time>2020-09-29T12:45:00Z</time>
      </trkpt>
      <trkpt lat="41.1074250" lon="-3.3954150">
        <ele>1313.0</ele>
        <time>2020-09-29T12:45:01Z</time>
      </trkpt>
      <trkpt lat="41.1074250" lon="-3.3954150">
        <ele>1313.0</ele>
        <time>2020-09-29T12:45:02Z</time>
      </trkpt>
      <trkpt lat="41.1074470" lon="-3.3952780">
        <ele>1313.0</ele>
        <time>2020-09-29T12:45:03Z</time>
      </trkpt>
      <trkpt lat="41.1074580" lon="-3.3952120">
        <ele>1313.0</ele>
        <time>2020-09-29T12:45:04Z</time>
      </trkpt>
      <trkpt lat="41.1074580" lon="-3.3952120">
        <ele>1313.0</ele>
        <time>2020-09-29T12:45:05Z</time>
      </trkpt>
      <trkpt lat="41.1074720" lon="-3.3950820">
        <ele>1313.0</ele>
        <time>2020-09-29T12:45:06Z</time>
      </trkpt>
      <trkpt lat="41.1074720" lon="-3.3950820">
        <ele>1313.0</ele>
        <time>2020-09-29T12:45:07Z</time>
      </trkpt>
      <trkpt lat="41.1074850" lon="-3.3949530">
        <ele>1314.0</ele>
        <time>2020-09-29T12:45:08Z</time>
      </trkpt>
      <trkpt lat="41.1074850" lon="-3.3949530">
        <ele>1314.0</ele>
        <time>2020-09-29T12:45:09Z</time>
      </trkpt>
      <trkpt lat="41.1074980" lon="-3.3948250">
        <ele>1314.0</ele>
        <time>2020-09-29T12:45:10Z</time>
      </trkpt>
      <trkpt lat="41.1074980" lon="-3.3948250">
        <ele>1314.0</ele>
        <time>2020-09-29T12:45:11Z</time>
      </trkpt>
      <trkpt lat="41.1075130" lon="-3.3946970">
        <ele>1314.0</ele>
        <time>2020-09-29T12:45:12Z</time>
      </trkpt>
      <trkpt lat="41.1075230" lon="-3.3946370">
        <ele>1314.0</ele>
        <time>2020-09-29T12:45:13Z</time>
      </trkpt>
      <trkpt lat="41.1075230" lon="-3.3946370">
        <ele>1315.0</ele>
        <time>2020-09-29T12:45:14Z</time>
      </trkpt>
      <trkpt lat="41.1075380" lon="-3.3945220">
        <ele>1315.0</ele>
        <time>2020-09-29T12:45:15Z</time>
      </trkpt>
      <trkpt lat="41.1075380" lon="-3.3945220">
        <ele>1315.0</ele>
        <time>2020-09-29T12:45:16Z</time>
      </trkpt>
      <trkpt lat="41.1075520" lon="-3.3944120">
        <ele>1315.0</ele>
        <time>2020-09-29T12:45:17Z</time>
      </trkpt>
      <trkpt lat="41.1075600" lon="-3.3943570">
        <ele>1316.0</ele>
        <time>2020-09-29T12:45:18Z</time>
      </trkpt>
      <trkpt lat="41.1075600" lon="-3.3943570">
        <ele>1316.0</ele>
        <time>2020-09-29T12:45:19Z</time>
      </trkpt>
      <trkpt lat="41.1075750" lon="-3.3942530">
        <ele>1316.0</ele>
        <time>2020-09-29T12:45:20Z</time>
      </trkpt>
      <trkpt lat="41.1075750" lon="-3.3942530">
        <ele>1316.0</ele>
        <time>2020-09-29T12:45:21Z</time>
      </trkpt>
      <trkpt lat="41.1075850" lon="-3.3941530">
        <ele>1316.0</ele>
        <time>2020-09-29T12:45:22Z</time>
      </trkpt>
      <trkpt lat="41.1075850" lon="-3.3941530">
        <ele>1316.0</ele>
        <time>2020-09-29T12:45:23Z</time>
      </trkpt>
      <trkpt lat="41.1075980" lon="-3.3940600">
        <ele>1317.0</ele>
        <time>2020-09-29T12:45:24Z</time>
      </trkpt>
      <trkpt lat="41.1075980" lon="-3.3940600">
        <ele>1317.0</ele>
        <time>2020-09-29T12:45:25Z</time>
      </trkpt>
      <trkpt lat="41.1076080" lon="-3.3939880">
        <ele>1318.0</ele>
        <time>2020-09-29T12:45:26Z</time>
      </trkpt>
      <trkpt lat="41.1076080" lon="-3.3939880">
        <ele>1318.0</ele>
        <time>2020-09-29T12:45:27Z</time>
      </trkpt>
      <trkpt lat="41.1076280" lon="-3.3939300">
        <ele>1318.0</ele>
        <time>2020-09-29T12:45:28Z</time>
      </trkpt>
      <trkpt lat="41.1076280" lon="-3.3939300">
        <ele>1318.0</ele>
        <time>2020-09-29T12:45:29Z</time>
      </trkpt>
      <trkpt lat="41.1076430" lon="-3.3938700">
        <ele>1319.0</ele>
        <time>2020-09-29T12:45:30Z</time>
      </trkpt>
      <trkpt lat="41.1076520" lon="-3.3938380">
        <ele>1319.0</ele>
        <time>2020-09-29T12:45:31Z</time>
      </trkpt>
      <trkpt lat="41.1076520" lon="-3.3938380">
        <ele>1319.0</ele>
        <time>2020-09-29T12:45:32Z</time>
      </trkpt>
      <trkpt lat="41.1076720" lon="-3.3937770">
        <ele>1319.0</ele>
        <time>2020-09-29T12:45:33Z</time>
      </trkpt>
      <trkpt lat="41.1076720" lon="-3.3937770">
        <ele>1319.0</ele>
        <time>2020-09-29T12:45:34Z</time>
      </trkpt>
      <trkpt lat="41.1076800" lon="-3.3937130">
        <ele>1319.0</ele>
        <time>2020-09-29T12:45:35Z</time>
      </trkpt>
      <trkpt lat="41.1076770" lon="-3.3936780">
        <ele>1320.0</ele>
        <time>2020-09-29T12:45:36Z</time>
      </trkpt>
      <trkpt lat="41.1076770" lon="-3.3936780">
        <ele>1320.0</ele>
        <time>2020-09-29T12:45:37Z</time>
      </trkpt>
      <trkpt lat="41.1076570" lon="-3.3936080">
        <ele>1320.0</ele>
        <time>2020-09-29T12:45:38Z</time>
      </trkpt>
      <trkpt lat="41.1076570" lon="-3.3936080">
        <ele>1320.0</ele>
        <time>2020-09-29T12:45:39Z</time>
      </trkpt>
      <trkpt lat="41.1076120" lon="-3.3935320">
        <ele>1320.0</ele>
        <time>2020-09-29T12:45:40Z</time>
      </trkpt>
      <trkpt lat="41.1076120" lon="-3.3935320">
        <ele>1320.0</ele>
        <time>2020-09-29T12:45:41Z</time>
      </trkpt>
      <trkpt lat="41.1075330" lon="-3.3934620">
        <ele>1320.0</ele>
        <time>2020-09-29T12:45:42Z</time>
      </trkpt>
      <trkpt lat="41.1074920" lon="-3.3934250">
        <ele>1320.0</ele>
        <time>2020-09-29T12:45:43Z</time>
      </trkpt>
      <trkpt lat="41.1074920" lon="-3.3934250">
        <ele>1320.0</ele>
        <time>2020-09-29T12:45:44Z</time>
      </trkpt>
      <trkpt lat="41.1073750" lon="-3.3933400">
        <ele>1320.0</ele>
        <time>2020-09-29T12:45:45Z</time>
      </trkpt>
      <trkpt lat="41.1073080" lon="-3.3932930">
        <ele>1320.0</ele>
        <time>2020-09-29T12:45:46Z</time>
      </trkpt>
      <trkpt lat="41.1073080" lon="-3.3932930">
        <ele>1319.0</ele>
        <time>2020-09-29T12:45:47Z</time>
      </trkpt>
      <trkpt lat="41.1071650" lon="-3.3931880">
        <ele>1319.0</ele>
        <time>2020-09-29T12:45:48Z</time>
      </trkpt>
      <trkpt lat="41.1070850" lon="-3.3931330">
        <ele>1318.0</ele>
        <time>2020-09-29T12:45:49Z</time>
      </trkpt>
      <trkpt lat="41.1070850" lon="-3.3931330">
        <ele>1318.0</ele>
        <time>2020-09-29T12:45:50Z</time>
      </trkpt>
      <trkpt lat="41.1069200" lon="-3.3930070">
        <ele>1316.0</ele>
        <time>2020-09-29T12:45:51Z</time>
      </trkpt>
      <trkpt lat="41.1069200" lon="-3.3930070">
        <ele>1316.0</ele>
        <time>2020-09-29T12:45:52Z</time>
      </trkpt>
      <trkpt lat="41.1067500" lon="-3.3928680">
        <ele>1315.0</ele>
        <time>2020-09-29T12:45:53Z</time>
      </trkpt>
      <trkpt lat="41.1067500" lon="-3.3928680">
        <ele>1315.0</ele>
        <time>2020-09-29T12:45:54Z</time>
      </trkpt>
      <trkpt lat="41.1065750" lon="-3.3927280">
        <ele>1314.0</ele>
        <time>2020-09-29T12:45:55Z</time>
      </trkpt>
      <trkpt lat="41.1065750" lon="-3.3927280">
        <ele>1314.0</ele>
        <time>2020-09-29T12:45:56Z</time>
      </trkpt>
      <trkpt lat="41.1064070" lon="-3.3925870">
        <ele>1313.0</ele>
        <time>2020-09-29T12:45:57Z</time>
      </trkpt>
      <trkpt lat="41.1064070" lon="-3.3925870">
        <ele>1313.0</ele>
        <time>2020-09-29T12:45:58Z</time>
      </trkpt>
      <trkpt lat="41.1062480" lon="-3.3924520">
        <ele>1313.0</ele>
        <time>2020-09-29T12:45:59Z</time>
      </trkpt>
      <trkpt lat="41.1061720" lon="-3.3923870">
        <ele>1313.0</ele>
        <time>2020-09-29T12:46:00Z</time>
      </trkpt>
      <trkpt lat="41.1060980" lon="-3.3923220">
        <ele>1312.0</ele>
        <time>2020-09-29T12:46:01Z</time>
      </trkpt>
      <trkpt lat="41.1060980" lon="-3.3923220">
        <ele>1312.0</ele>
        <time>2020-09-29T12:46:02Z</time>
      </trkpt>
      <trkpt lat="41.1059530" lon="-3.3921970">
        <ele>1312.0</ele>
        <time>2020-09-29T12:46:03Z</time>
      </trkpt>
      <trkpt lat="41.1059530" lon="-3.3921970">
        <ele>1312.0</ele>
        <time>2020-09-29T12:46:04Z</time>
      </trkpt>
      <trkpt lat="41.1058170" lon="-3.3920750">
        <ele>1312.0</ele>
        <time>2020-09-29T12:46:05Z</time>
      </trkpt>
      <trkpt lat="41.1058170" lon="-3.3920750">
        <ele>1312.0</ele>
        <time>2020-09-29T12:46:06Z</time>
      </trkpt>
      <trkpt lat="41.1056950" lon="-3.3919450">
        <ele>1312.0</ele>
        <time>2020-09-29T12:46:07Z</time>
      </trkpt>
      <trkpt lat="41.1056380" lon="-3.3918770">
        <ele>1312.0</ele>
        <time>2020-09-29T12:46:08Z</time>
      </trkpt>
      <trkpt lat="41.1056380" lon="-3.3918770">
        <ele>1312.0</ele>
        <time>2020-09-29T12:46:09Z</time>
      </trkpt>
      <trkpt lat="41.1055280" lon="-3.3917400">
        <ele>1312.0</ele>
        <time>2020-09-29T12:46:10Z</time>
      </trkpt>
      <trkpt lat="41.1054780" lon="-3.3916650">
        <ele>1312.0</ele>
        <time>2020-09-29T12:46:11Z</time>
      </trkpt>
      <trkpt lat="41.1054780" lon="-3.3916650">
        <ele>1312.0</ele>
        <time>2020-09-29T12:46:12Z</time>
      </trkpt>
      <trkpt lat="41.1053800" lon="-3.3915200">
        <ele>1312.0</ele>
        <time>2020-09-29T12:46:13Z</time>
      </trkpt>
      <trkpt lat="41.1053800" lon="-3.3915200">
        <ele>1312.0</ele>
        <time>2020-09-29T12:46:14Z</time>
      </trkpt>
      <trkpt lat="41.1052850" lon="-3.3913730">
        <ele>1312.0</ele>
        <time>2020-09-29T12:46:15Z</time>
      </trkpt>
      <trkpt lat="41.1052850" lon="-3.3913730">
        <ele>1312.0</ele>
        <time>2020-09-29T12:46:16Z</time>
      </trkpt>
      <trkpt lat="41.1052850" lon="-3.3913730">
        <ele>1312.0</ele>
        <time>2020-09-29T12:46:17Z</time>
      </trkpt>
      <trkpt lat="41.1051980" lon="-3.3912320">
        <ele>1312.0</ele>
        <time>2020-09-29T12:46:18Z</time>
      </trkpt>
      <trkpt lat="41.1051130" lon="-3.3911000">
        <ele>1312.0</ele>
        <time>2020-09-29T12:46:19Z</time>
      </trkpt>
      <trkpt lat="41.1050720" lon="-3.3910350">
        <ele>1312.0</ele>
        <time>2020-09-29T12:46:20Z</time>
      </trkpt>
      <trkpt lat="41.1050720" lon="-3.3910350">
        <ele>1312.0</ele>
        <time>2020-09-29T12:46:21Z</time>
      </trkpt>
      <trkpt lat="41.1049980" lon="-3.3908930">
        <ele>1312.0</ele>
        <time>2020-09-29T12:46:22Z</time>
      </trkpt>
      <trkpt lat="41.1049650" lon="-3.3908250">
        <ele>1312.0</ele>
        <time>2020-09-29T12:46:23Z</time>
      </trkpt>
      <trkpt lat="41.1049650" lon="-3.3908250">
        <ele>1312.0</ele>
        <time>2020-09-29T12:46:24Z</time>
      </trkpt>
      <trkpt lat="41.1048920" lon="-3.3906900">
        <ele>1312.0</ele>
        <time>2020-09-29T12:46:25Z</time>
      </trkpt>
      <trkpt lat="41.1048920" lon="-3.3906900">
        <ele>1312.0</ele>
        <time>2020-09-29T12:46:26Z</time>
      </trkpt>
      <trkpt lat="41.1048170" lon="-3.3905500">
        <ele>1312.0</ele>
        <time>2020-09-29T12:46:27Z</time>
      </trkpt>
      <trkpt lat="41.1048170" lon="-3.3905500">
        <ele>1312.0</ele>
        <time>2020-09-29T12:46:28Z</time>
      </trkpt>
      <trkpt lat="41.1047450" lon="-3.3904120">
        <ele>1312.0</ele>
        <time>2020-09-29T12:46:29Z</time>
      </trkpt>
      <trkpt lat="41.1047450" lon="-3.3904120">
        <ele>1312.0</ele>
        <time>2020-09-29T12:46:30Z</time>
      </trkpt>
      <trkpt lat="41.1046780" lon="-3.3902750">
        <ele>1312.0</ele>
        <time>2020-09-29T12:46:31Z</time>
      </trkpt>
      <trkpt lat="41.1046780" lon="-3.3902750">
        <ele>1313.0</ele>
        <time>2020-09-29T12:46:32Z</time>
      </trkpt>
      <trkpt lat="41.1046130" lon="-3.3901420">
        <ele>1313.0</ele>
        <time>2020-09-29T12:46:33Z</time>
      </trkpt>
      <trkpt lat="41.1046130" lon="-3.3901420">
        <ele>1313.0</ele>
        <time>2020-09-29T12:46:34Z</time>
      </trkpt>
      <trkpt lat="41.1045430" lon="-3.3900100">
        <ele>1313.0</ele>
        <time>2020-09-29T12:46:35Z</time>
      </trkpt>
      <trkpt lat="41.1045430" lon="-3.3900100">
        <ele>1313.0</ele>
        <time>2020-09-29T12:46:36Z</time>
      </trkpt>
      <trkpt lat="41.1044700" lon="-3.3898800">
        <ele>1314.0</ele>
        <time>2020-09-29T12:46:37Z</time>
      </trkpt>
      <trkpt lat="41.1044700" lon="-3.3898800">
        <ele>1314.0</ele>
        <time>2020-09-29T12:46:38Z</time>
      </trkpt>
      <trkpt lat="41.1043870" lon="-3.3897520">
        <ele>1314.0</ele>
        <time>2020-09-29T12:46:39Z</time>
      </trkpt>
      <trkpt lat="41.1043450" lon="-3.3896880">
        <ele>1314.0</ele>
        <time>2020-09-29T12:46:40Z</time>
      </trkpt>
      <trkpt lat="41.1043450" lon="-3.3896880">
        <ele>1314.0</ele>
        <time>2020-09-29T12:46:41Z</time>
      </trkpt>
      <trkpt lat="41.1042530" lon="-3.3895570">
        <ele>1314.0</ele>
        <time>2020-09-29T12:46:42Z</time>
      </trkpt>
      <trkpt lat="41.1042070" lon="-3.3894900">
        <ele>1314.0</ele>
        <time>2020-09-29T12:46:43Z</time>
      </trkpt>
      <trkpt lat="41.1042070" lon="-3.3894900">
        <ele>1314.0</ele>
        <time>2020-09-29T12:46:44Z</time>
      </trkpt>
      <trkpt lat="41.1041120" lon="-3.3893520">
        <ele>1314.0</ele>
        <time>2020-09-29T12:46:45Z</time>
      </trkpt>
      <trkpt lat="41.1041120" lon="-3.3893520">
        <ele>1314.0</ele>
        <time>2020-09-29T12:46:46Z</time>
      </trkpt>
      <trkpt lat="41.1040130" lon="-3.3892080">
        <ele>1314.0</ele>
        <time>2020-09-29T12:46:47Z</time>
      </trkpt>
      <trkpt lat="41.1040130" lon="-3.3892080">
        <ele>1314.0</ele>
        <time>2020-09-29T12:46:48Z</time>
      </trkpt>
      <trkpt lat="41.1039050" lon="-3.3890500">
        <ele>1314.0</ele>
        <time>2020-09-29T12:46:49Z</time>
      </trkpt>
      <trkpt lat="41.1039050" lon="-3.3890500">
        <ele>1313.0</ele>
        <time>2020-09-29T12:46:50Z</time>
      </trkpt>
      <trkpt lat="41.1037920" lon="-3.3888850">
        <ele>1313.0</ele>
        <time>2020-09-29T12:46:51Z</time>
      </trkpt>
      <trkpt lat="41.1037920" lon="-3.3888850">
        <ele>1313.0</ele>
        <time>2020-09-29T12:46:52Z</time>
      </trkpt>
      <trkpt lat="41.1036800" lon="-3.3887180">
        <ele>1313.0</ele>
        <time>2020-09-29T12:46:53Z</time>
      </trkpt>
      <trkpt lat="41.1036800" lon="-3.3887180">
        <ele>1312.0</ele>
        <time>2020-09-29T12:46:54Z</time>
      </trkpt>
      <trkpt lat="41.1035670" lon="-3.3885470">
        <ele>1312.0</ele>
        <time>2020-09-29T12:46:55Z</time>
      </trkpt>
      <trkpt lat="41.1035670" lon="-3.3885470">
        <ele>1312.0</ele>
        <time>2020-09-29T12:46:56Z</time>
      </trkpt>
      <trkpt lat="41.1034470" lon="-3.3883720">
        <ele>1311.0</ele>
        <time>2020-09-29T12:46:57Z</time>
      </trkpt>
      <trkpt lat="41.1034470" lon="-3.3883720">
        <ele>1311.0</ele>
        <time>2020-09-29T12:46:58Z</time>
      </trkpt>
      <trkpt lat="41.1033250" lon="-3.3881920">
        <ele>1310.0</ele>
        <time>2020-09-29T12:46:59Z</time>
      </trkpt>
      <trkpt lat="41.1033250" lon="-3.3881920">
        <ele>1310.0</ele>
        <time>2020-09-29T12:47:00Z</time>
      </trkpt>
      <trkpt lat="41.1032050" lon="-3.3880130">
        <ele>1310.0</ele>
        <time>2020-09-29T12:47:01Z</time>
      </trkpt>
      <trkpt lat="41.1032050" lon="-3.3880130">
        <ele>1310.0</ele>
        <time>2020-09-29T12:47:02Z</time>
      </trkpt>
      <trkpt lat="41.1030830" lon="-3.3878450">
        <ele>1310.0</ele>
        <time>2020-09-29T12:47:03Z</time>
      </trkpt>
      <trkpt lat="41.1030830" lon="-3.3878450">
        <ele>1309.0</ele>
        <time>2020-09-29T12:47:04Z</time>
      </trkpt>
      <trkpt lat="41.1029580" lon="-3.3876900">
        <ele>1309.0</ele>
        <time>2020-09-29T12:47:05Z</time>
      </trkpt>
      <trkpt lat="41.1029580" lon="-3.3876900">
        <ele>1309.0</ele>
        <time>2020-09-29T12:47:06Z</time>
      </trkpt>
      <trkpt lat="41.1028350" lon="-3.3875420">
        <ele>1309.0</ele>
        <time>2020-09-29T12:47:07Z</time>
      </trkpt>
      <trkpt lat="41.1027720" lon="-3.3874680">
        <ele>1309.0</ele>
        <time>2020-09-29T12:47:08Z</time>
      </trkpt>
      <trkpt lat="41.1027720" lon="-3.3874680">
        <ele>1309.0</ele>
        <time>2020-09-29T12:47:09Z</time>
      </trkpt>
      <trkpt lat="41.1026380" lon="-3.3873170">
        <ele>1308.0</ele>
        <time>2020-09-29T12:47:10Z</time>
      </trkpt>
      <trkpt lat="41.1025700" lon="-3.3872420">
        <ele>1308.0</ele>
        <time>2020-09-29T12:47:11Z</time>
      </trkpt>
      <trkpt lat="41.1025700" lon="-3.3872420">
        <ele>1308.0</ele>
        <time>2020-09-29T12:47:12Z</time>
      </trkpt>
      <trkpt lat="41.1024330" lon="-3.3870870">
        <ele>1308.0</ele>
        <time>2020-09-29T12:47:13Z</time>
      </trkpt>
      <trkpt lat="41.1023680" lon="-3.3870130">
        <ele>1308.0</ele>
        <time>2020-09-29T12:47:14Z</time>
      </trkpt>
      <trkpt lat="41.1023680" lon="-3.3870130">
        <ele>1308.0</ele>
        <time>2020-09-29T12:47:15Z</time>
      </trkpt>
      <trkpt lat="41.1022380" lon="-3.3868650">
        <ele>1308.0</ele>
        <time>2020-09-29T12:47:16Z</time>
      </trkpt>
      <trkpt lat="41.1022380" lon="-3.3868650">
        <ele>1307.0</ele>
        <time>2020-09-29T12:47:17Z</time>
      </trkpt>
      <trkpt lat="41.1021030" lon="-3.3867180">
        <ele>1307.0</ele>
        <time>2020-09-29T12:47:18Z</time>
      </trkpt>
      <trkpt lat="41.1020350" lon="-3.3866450">
        <ele>1307.0</ele>
        <time>2020-09-29T12:47:19Z</time>
      </trkpt>
      <trkpt lat="41.1020350" lon="-3.3866450">
        <ele>1307.0</ele>
        <time>2020-09-29T12:47:20Z</time>
      </trkpt>
      <trkpt lat="41.1019070" lon="-3.3864980">
        <ele>1307.0</ele>
        <time>2020-09-29T12:47:21Z</time>
      </trkpt>
      <trkpt lat="41.1019070" lon="-3.3864980">
        <ele>1307.0</ele>
        <time>2020-09-29T12:47:22Z</time>
      </trkpt>
      <trkpt lat="41.1017800" lon="-3.3863520">
        <ele>1306.0</ele>
        <time>2020-09-29T12:47:23Z</time>
      </trkpt>
      <trkpt lat="41.1017800" lon="-3.3863520">
        <ele>1306.0</ele>
        <time>2020-09-29T12:47:24Z</time>
      </trkpt>
      <trkpt lat="41.1016470" lon="-3.3862000">
        <ele>1306.0</ele>
        <time>2020-09-29T12:47:25Z</time>
      </trkpt>
      <trkpt lat="41.1016470" lon="-3.3862000">
        <ele>1306.0</ele>
        <time>2020-09-29T12:47:26Z</time>
      </trkpt>
      <trkpt lat="41.1015130" lon="-3.3860520">
        <ele>1306.0</ele>
        <time>2020-09-29T12:47:27Z</time>
      </trkpt>
      <trkpt lat="41.1014450" lon="-3.3859780">
        <ele>1306.0</ele>
        <time>2020-09-29T12:47:28Z</time>
      </trkpt>
      <trkpt lat="41.1014450" lon="-3.3859780">
        <ele>1305.0</ele>
        <time>2020-09-29T12:47:29Z</time>
      </trkpt>
      <trkpt lat="41.1013170" lon="-3.3858350">
        <ele>1305.0</ele>
        <time>2020-09-29T12:47:30Z</time>
      </trkpt>
      <trkpt lat="41.1013170" lon="-3.3858350">
        <ele>1305.0</ele>
        <time>2020-09-29T12:47:31Z</time>
      </trkpt>
      <trkpt lat="41.1011970" lon="-3.3856900">
        <ele>1305.0</ele>
        <time>2020-09-29T12:47:32Z</time>
      </trkpt>
      <trkpt lat="41.1011970" lon="-3.3856900">
        <ele>1305.0</ele>
        <time>2020-09-29T12:47:33Z</time>
      </trkpt>
      <trkpt lat="41.1010820" lon="-3.3855670">
        <ele>1305.0</ele>
        <time>2020-09-29T12:47:34Z</time>
      </trkpt>
      <trkpt lat="41.1010820" lon="-3.3855670">
        <ele>1305.0</ele>
        <time>2020-09-29T12:47:35Z</time>
      </trkpt>
      <trkpt lat="41.1009900" lon="-3.3854600">
        <ele>1305.0</ele>
        <time>2020-09-29T12:47:36Z</time>
      </trkpt>
      <trkpt lat="41.1009900" lon="-3.3854600">
        <ele>1306.0</ele>
        <time>2020-09-29T12:47:37Z</time>
      </trkpt>
      <trkpt lat="41.1009250" lon="-3.3853600">
        <ele>1306.0</ele>
        <time>2020-09-29T12:47:38Z</time>
      </trkpt>
      <trkpt lat="41.1009250" lon="-3.3853600">
        <ele>1306.0</ele>
        <time>2020-09-29T12:47:39Z</time>
      </trkpt>
      <trkpt lat="41.1008770" lon="-3.3852650">
        <ele>1307.0</ele>
        <time>2020-09-29T12:47:40Z</time>
      </trkpt>
      <trkpt lat="41.1008530" lon="-3.3852200">
        <ele>1307.0</ele>
        <time>2020-09-29T12:47:41Z</time>
      </trkpt>
      <trkpt lat="41.1008530" lon="-3.3852200">
        <ele>1307.0</ele>
        <time>2020-09-29T12:47:42Z</time>
      </trkpt>
      <trkpt lat="41.1008120" lon="-3.3851220">
        <ele>1307.0</ele>
        <time>2020-09-29T12:47:43Z</time>
      </trkpt>
      <trkpt lat="41.1008120" lon="-3.3851220">
        <ele>1309.0</ele>
        <time>2020-09-29T12:47:44Z</time>
      </trkpt>
      <trkpt lat="41.1007800" lon="-3.3850270">
        <ele>1309.0</ele>
        <time>2020-09-29T12:47:45Z</time>
      </trkpt>
      <trkpt lat="41.1007800" lon="-3.3850270">
        <ele>1309.0</ele>
        <time>2020-09-29T12:47:46Z</time>
      </trkpt>
      <trkpt lat="41.1007530" lon="-3.3849450">
        <ele>1309.0</ele>
        <time>2020-09-29T12:47:47Z</time>
      </trkpt>
      <trkpt lat="41.1007530" lon="-3.3849450">
        <ele>1310.0</ele>
        <time>2020-09-29T12:47:48Z</time>
      </trkpt>
      <trkpt lat="41.1007320" lon="-3.3848670">
        <ele>1310.0</ele>
        <time>2020-09-29T12:47:49Z</time>
      </trkpt>
      <trkpt lat="41.1007220" lon="-3.3848300">
        <ele>1310.0</ele>
        <time>2020-09-29T12:47:50Z</time>
      </trkpt>
      <trkpt lat="41.1007220" lon="-3.3848300">
        <ele>1310.0</ele>
        <time>2020-09-29T12:47:51Z</time>
      </trkpt>
      <trkpt lat="41.1007000" lon="-3.3847530">
        <ele>1311.0</ele>
        <time>2020-09-29T12:47:52Z</time>
      </trkpt>
      <trkpt lat="41.1007000" lon="-3.3847530">
        <ele>1311.0</ele>
        <time>2020-09-29T12:47:53Z</time>
      </trkpt>
      <trkpt lat="41.1006780" lon="-3.3846750">
        <ele>1311.0</ele>
        <time>2020-09-29T12:47:54Z</time>
      </trkpt>
      <trkpt lat="41.1006780" lon="-3.3846750">
        <ele>1311.0</ele>
        <time>2020-09-29T12:47:55Z</time>
      </trkpt>
      <trkpt lat="41.1006570" lon="-3.3845980">
        <ele>1312.0</ele>
        <time>2020-09-29T12:47:56Z</time>
      </trkpt>
      <trkpt lat="41.1006570" lon="-3.3845980">
        <ele>1312.0</ele>
        <time>2020-09-29T12:47:57Z</time>
      </trkpt>
      <trkpt lat="41.1006350" lon="-3.3845220">
        <ele>1312.0</ele>
        <time>2020-09-29T12:47:58Z</time>
      </trkpt>
      <trkpt lat="41.1006250" lon="-3.3844830">
        <ele>1312.0</ele>
        <time>2020-09-29T12:47:59Z</time>
      </trkpt>
      <trkpt lat="41.1006250" lon="-3.3844830">
        <ele>1314.0</ele>
        <time>2020-09-29T12:48:00Z</time>
      </trkpt>
      <trkpt lat="41.1006070" lon="-3.3844120">
        <ele>1314.0</ele>
        <time>2020-09-29T12:48:01Z</time>
      </trkpt>
      <trkpt lat="41.1005980" lon="-3.3843770">
        <ele>1314.0</ele>
        <time>2020-09-29T12:48:02Z</time>
      </trkpt>
      <trkpt lat="41.1005980" lon="-3.3843770">
        <ele>1314.0</ele>
        <time>2020-09-29T12:48:03Z</time>
      </trkpt>
      <trkpt lat="41.1005800" lon="-3.3843080">
        <ele>1314.0</ele>
        <time>2020-09-29T12:48:04Z</time>
      </trkpt>
      <trkpt lat="41.1005800" lon="-3.3843080">
        <ele>1314.0</ele>
        <time>2020-09-29T12:48:05Z</time>
      </trkpt>
      <trkpt lat="41.1005530" lon="-3.3842400">
        <ele>1314.0</ele>
        <time>2020-09-29T12:48:06Z</time>
      </trkpt>
      <trkpt lat="41.1005530" lon="-3.3842400">
        <ele>1314.0</ele>
        <time>2020-09-29T12:48:07Z</time>
      </trkpt>
      <trkpt lat="41.1005330" lon="-3.3841730">
        <ele>1314.0</ele>
        <time>2020-09-29T12:48:08Z</time>
      </trkpt>
      <trkpt lat="41.1005330" lon="-3.3841730">
        <ele>1316.0</ele>
        <time>2020-09-29T12:48:09Z</time>
      </trkpt>
      <trkpt lat="41.1005170" lon="-3.3841070">
        <ele>1316.0</ele>
        <time>2020-09-29T12:48:10Z</time>
      </trkpt>
      <trkpt lat="41.1005170" lon="-3.3841070">
        <ele>1316.0</ele>
        <time>2020-09-29T12:48:11Z</time>
      </trkpt>
      <trkpt lat="41.1004970" lon="-3.3840400">
        <ele>1317.0</ele>
        <time>2020-09-29T12:48:12Z</time>
      </trkpt>
      <trkpt lat="41.1004870" lon="-3.3840070">
        <ele>1317.0</ele>
        <time>2020-09-29T12:48:13Z</time>
      </trkpt>
      <trkpt lat="41.1004870" lon="-3.3840070">
        <ele>1317.0</ele>
        <time>2020-09-29T12:48:14Z</time>
      </trkpt>
      <trkpt lat="41.1004720" lon="-3.3839420">
        <ele>1317.0</ele>
        <time>2020-09-29T12:48:15Z</time>
      </trkpt>
      <trkpt lat="41.1004720" lon="-3.3839420">
        <ele>1318.0</ele>
        <time>2020-09-29T12:48:16Z</time>
      </trkpt>
      <trkpt lat="41.1004520" lon="-3.3838780">
        <ele>1318.0</ele>
        <time>2020-09-29T12:48:17Z</time>
      </trkpt>
      <trkpt lat="41.1004420" lon="-3.3838430">
        <ele>1318.0</ele>
        <time>2020-09-29T12:48:18Z</time>
      </trkpt>
      <trkpt lat="41.1004420" lon="-3.3838430">
        <ele>1318.0</ele>
        <time>2020-09-29T12:48:19Z</time>
      </trkpt>
      <trkpt lat="41.1004230" lon="-3.3837730">
        <ele>1319.0</ele>
        <time>2020-09-29T12:48:20Z</time>
      </trkpt>
      <trkpt lat="41.1004230" lon="-3.3837730">
        <ele>1319.0</ele>
        <time>2020-09-29T12:48:21Z</time>
      </trkpt>
      <trkpt lat="41.1004020" lon="-3.3837070">
        <ele>1319.0</ele>
        <time>2020-09-29T12:48:22Z</time>
      </trkpt>
      <trkpt lat="41.1004020" lon="-3.3837070">
        <ele>1319.0</ele>
        <time>2020-09-29T12:48:23Z</time>
      </trkpt>
      <trkpt lat="41.1003820" lon="-3.3836400">
        <ele>1319.0</ele>
        <time>2020-09-29T12:48:24Z</time>
      </trkpt>
      <trkpt lat="41.1003820" lon="-3.3836400">
        <ele>1319.0</ele>
        <time>2020-09-29T12:48:25Z</time>
      </trkpt>
      <trkpt lat="41.1003630" lon="-3.3835750">
        <ele>1319.0</ele>
        <time>2020-09-29T12:48:26Z</time>
      </trkpt>
      <trkpt lat="41.1003630" lon="-3.3835750">
        <ele>1319.0</ele>
        <time>2020-09-29T12:48:27Z</time>
      </trkpt>
      <trkpt lat="41.1003430" lon="-3.3835070">
        <ele>1319.0</ele>
        <time>2020-09-29T12:48:28Z</time>
      </trkpt>
      <trkpt lat="41.1003430" lon="-3.3835070">
        <ele>1319.0</ele>
        <time>2020-09-29T12:48:29Z</time>
      </trkpt>
      <trkpt lat="41.1003250" lon="-3.3834400">
        <ele>1319.0</ele>
        <time>2020-09-29T12:48:30Z</time>
      </trkpt>
      <trkpt lat="41.1003250" lon="-3.3834400">
        <ele>1319.0</ele>
        <time>2020-09-29T12:48:31Z</time>
      </trkpt>
      <trkpt lat="41.1003080" lon="-3.3833720">
        <ele>1319.0</ele>
        <time>2020-09-29T12:48:32Z</time>
      </trkpt>
      <trkpt lat="41.1003080" lon="-3.3833720">
        <ele>1319.0</ele>
        <time>2020-09-29T12:48:33Z</time>
      </trkpt>
      <trkpt lat="41.1002870" lon="-3.3833000">
        <ele>1320.0</ele>
        <time>2020-09-29T12:48:34Z</time>
      </trkpt>
      <trkpt lat="41.1002870" lon="-3.3833000">
        <ele>1320.0</ele>
        <time>2020-09-29T12:48:35Z</time>
      </trkpt>
      <trkpt lat="41.1002650" lon="-3.3832230">
        <ele>1320.0</ele>
        <time>2020-09-29T12:48:36Z</time>
      </trkpt>
      <trkpt lat="41.1002650" lon="-3.3832230">
        <ele>1320.0</ele>
        <time>2020-09-29T12:48:37Z</time>
      </trkpt>
      <trkpt lat="41.1002400" lon="-3.3831480">
        <ele>1320.0</ele>
        <time>2020-09-29T12:48:38Z</time>
      </trkpt>
      <trkpt lat="41.1002400" lon="-3.3831480">
        <ele>1320.0</ele>
        <time>2020-09-29T12:48:39Z</time>
      </trkpt>
      <trkpt lat="41.1002170" lon="-3.3830700">
        <ele>1321.0</ele>
        <time>2020-09-29T12:48:40Z</time>
      </trkpt>
      <trkpt lat="41.1002170" lon="-3.3830700">
        <ele>1321.0</ele>
        <time>2020-09-29T12:48:41Z</time>
      </trkpt>
      <trkpt lat="41.1001920" lon="-3.3829930">
        <ele>1321.0</ele>
        <time>2020-09-29T12:48:42Z</time>
      </trkpt>
      <trkpt lat="41.1001920" lon="-3.3829930">
        <ele>1321.0</ele>
        <time>2020-09-29T12:48:43Z</time>
      </trkpt>
      <trkpt lat="41.1001650" lon="-3.3829180">
        <ele>1321.0</ele>
        <time>2020-09-29T12:48:44Z</time>
      </trkpt>
      <trkpt lat="41.1001650" lon="-3.3829180">
        <ele>1321.0</ele>
        <time>2020-09-29T12:48:45Z</time>
      </trkpt>
      <trkpt lat="41.1001400" lon="-3.3828420">
        <ele>1321.0</ele>
        <time>2020-09-29T12:48:46Z</time>
      </trkpt>
      <trkpt lat="41.1001400" lon="-3.3828420">
        <ele>1322.0</ele>
        <time>2020-09-29T12:48:47Z</time>
      </trkpt>
      <trkpt lat="41.1001120" lon="-3.3827620">
        <ele>1322.0</ele>
        <time>2020-09-29T12:48:48Z</time>
      </trkpt>
      <trkpt lat="41.1000970" lon="-3.3827220">
        <ele>1322.0</ele>
        <time>2020-09-29T12:48:49Z</time>
      </trkpt>
      <trkpt lat="41.1000970" lon="-3.3827220">
        <ele>1322.0</ele>
        <time>2020-09-29T12:48:50Z</time>
      </trkpt>
      <trkpt lat="41.1000700" lon="-3.3826430">
        <ele>1322.0</ele>
        <time>2020-09-29T12:48:51Z</time>
      </trkpt>
      <trkpt lat="41.1000570" lon="-3.3826030">
        <ele>1322.0</ele>
        <time>2020-09-29T12:48:52Z</time>
      </trkpt>
      <trkpt lat="41.1000570" lon="-3.3826030">
        <ele>1322.0</ele>
        <time>2020-09-29T12:48:53Z</time>
      </trkpt>
      <trkpt lat="41.1000330" lon="-3.3825270">
        <ele>1322.0</ele>
        <time>2020-09-29T12:48:54Z</time>
      </trkpt>
      <trkpt lat="41.1000200" lon="-3.3824880">
        <ele>1323.0</ele>
        <time>2020-09-29T12:48:55Z</time>
      </trkpt>
      <trkpt lat="41.1000200" lon="-3.3824880">
        <ele>1323.0</ele>
        <time>2020-09-29T12:48:56Z</time>
      </trkpt>
      <trkpt lat="41.0999920" lon="-3.3824130">
        <ele>1323.0</ele>
        <time>2020-09-29T12:48:57Z</time>
      </trkpt>
      <trkpt lat="41.0999780" lon="-3.3823770">
        <ele>1323.0</ele>
        <time>2020-09-29T12:48:58Z</time>
      </trkpt>
      <trkpt lat="41.0999650" lon="-3.3823380">
        <ele>1323.0</ele>
        <time>2020-09-29T12:48:59Z</time>
      </trkpt>
      <trkpt lat="41.0999650" lon="-3.3823380">
        <ele>1323.0</ele>
        <time>2020-09-29T12:49:00Z</time>
      </trkpt>
      <trkpt lat="41.0999420" lon="-3.3822580">
        <ele>1323.0</ele>
        <time>2020-09-29T12:49:01Z</time>
      </trkpt>
      <trkpt lat="41.0999420" lon="-3.3822580">
        <ele>1323.0</ele>
        <time>2020-09-29T12:49:02Z</time>
      </trkpt>
      <trkpt lat="41.0999150" lon="-3.3821820">
        <ele>1325.0</ele>
        <time>2020-09-29T12:49:03Z</time>
      </trkpt>
      <trkpt lat="41.0999150" lon="-3.3821820">
        <ele>1325.0</ele>
        <time>2020-09-29T12:49:04Z</time>
      </trkpt>
      <trkpt lat="41.0998880" lon="-3.3821050">
        <ele>1325.0</ele>
        <time>2020-09-29T12:49:05Z</time>
      </trkpt>
      <trkpt lat="41.0998880" lon="-3.3821050">
        <ele>1325.0</ele>
        <time>2020-09-29T12:49:06Z</time>
      </trkpt>
      <trkpt lat="41.0998630" lon="-3.3820280">
        <ele>1325.0</ele>
        <time>2020-09-29T12:49:07Z</time>
      </trkpt>
      <trkpt lat="41.0998630" lon="-3.3820280">
        <ele>1325.0</ele>
        <time>2020-09-29T12:49:08Z</time>
      </trkpt>
      <trkpt lat="41.0998370" lon="-3.3819520">
        <ele>1325.0</ele>
        <time>2020-09-29T12:49:09Z</time>
      </trkpt>
      <trkpt lat="41.0998370" lon="-3.3819520">
        <ele>1325.0</ele>
        <time>2020-09-29T12:49:10Z</time>
      </trkpt>
      <trkpt lat="41.0998050" lon="-3.3818750">
        <ele>1327.0</ele>
        <time>2020-09-29T12:49:11Z</time>
      </trkpt>
      <trkpt lat="41.0998050" lon="-3.3818750">
        <ele>1327.0</ele>
        <time>2020-09-29T12:49:12Z</time>
      </trkpt>
      <trkpt lat="41.0997630" lon="-3.3818020">
        <ele>1327.0</ele>
        <time>2020-09-29T12:49:13Z</time>
      </trkpt>
      <trkpt lat="41.0997630" lon="-3.3818020">
        <ele>1327.0</ele>
        <time>2020-09-29T12:49:14Z</time>
      </trkpt>
      <trkpt lat="41.0997120" lon="-3.3817280">
        <ele>1327.0</ele>
        <time>2020-09-29T12:49:15Z</time>
      </trkpt>
      <trkpt lat="41.0997120" lon="-3.3817280">
        <ele>1327.0</ele>
        <time>2020-09-29T12:49:16Z</time>
      </trkpt>
      <trkpt lat="41.0996520" lon="-3.3816520">
        <ele>1327.0</ele>
        <time>2020-09-29T12:49:17Z</time>
      </trkpt>
      <trkpt lat="41.0996520" lon="-3.3816520">
        <ele>1327.0</ele>
        <time>2020-09-29T12:49:18Z</time>
      </trkpt>
      <trkpt lat="41.0995880" lon="-3.3815700">
        <ele>1327.0</ele>
        <time>2020-09-29T12:49:19Z</time>
      </trkpt>
      <trkpt lat="41.0995880" lon="-3.3815700">
        <ele>1327.0</ele>
        <time>2020-09-29T12:49:20Z</time>
      </trkpt>
      <trkpt lat="41.0995230" lon="-3.3814880">
        <ele>1328.0</ele>
        <time>2020-09-29T12:49:21Z</time>
      </trkpt>
      <trkpt lat="41.0994930" lon="-3.3814450">
        <ele>1328.0</ele>
        <time>2020-09-29T12:49:22Z</time>
      </trkpt>
      <trkpt lat="41.0994930" lon="-3.3814450">
        <ele>1328.0</ele>
        <time>2020-09-29T12:49:23Z</time>
      </trkpt>
      <trkpt lat="41.0994370" lon="-3.3813530">
        <ele>1328.0</ele>
        <time>2020-09-29T12:49:24Z</time>
      </trkpt>
      <trkpt lat="41.0994370" lon="-3.3813530">
        <ele>1328.0</ele>
        <time>2020-09-29T12:49:25Z</time>
      </trkpt>
      <trkpt lat="41.0993870" lon="-3.3812580">
        <ele>1329.0</ele>
        <time>2020-09-29T12:49:26Z</time>
      </trkpt>
      <trkpt lat="41.0993620" lon="-3.3812080">
        <ele>1329.0</ele>
        <time>2020-09-29T12:49:27Z</time>
      </trkpt>
      <trkpt lat="41.0993620" lon="-3.3812080">
        <ele>1329.0</ele>
        <time>2020-09-29T12:49:28Z</time>
      </trkpt>
      <trkpt lat="41.0993170" lon="-3.3811100">
        <ele>1329.0</ele>
        <time>2020-09-29T12:49:29Z</time>
      </trkpt>
      <trkpt lat="41.0993170" lon="-3.3811100">
        <ele>1329.0</ele>
        <time>2020-09-29T12:49:30Z</time>
      </trkpt>
      <trkpt lat="41.0992750" lon="-3.3810120">
        <ele>1329.0</ele>
        <time>2020-09-29T12:49:31Z</time>
      </trkpt>
      <trkpt lat="41.0992750" lon="-3.3810120">
        <ele>1329.0</ele>
        <time>2020-09-29T12:49:32Z</time>
      </trkpt>
      <trkpt lat="41.0992320" lon="-3.3809120">
        <ele>1329.0</ele>
        <time>2020-09-29T12:49:33Z</time>
      </trkpt>
      <trkpt lat="41.0992320" lon="-3.3809120">
        <ele>1329.0</ele>
        <time>2020-09-29T12:49:34Z</time>
      </trkpt>
      <trkpt lat="41.0991930" lon="-3.3808070">
        <ele>1329.0</ele>
        <time>2020-09-29T12:49:35Z</time>
      </trkpt>
      <trkpt lat="41.0991730" lon="-3.3807550">
        <ele>1330.0</ele>
        <time>2020-09-29T12:49:36Z</time>
      </trkpt>
      <trkpt lat="41.0991530" lon="-3.3807000">
        <ele>1330.0</ele>
        <time>2020-09-29T12:49:37Z</time>
      </trkpt>
      <trkpt lat="41.0991530" lon="-3.3807000">
        <ele>1330.0</ele>
        <time>2020-09-29T12:49:38Z</time>
      </trkpt>
      <trkpt lat="41.0991050" lon="-3.3805870">
        <ele>1330.0</ele>
        <time>2020-09-29T12:49:39Z</time>
      </trkpt>
      <trkpt lat="41.0990780" lon="-3.3805270">
        <ele>1330.0</ele>
        <time>2020-09-29T12:49:40Z</time>
      </trkpt>
      <trkpt lat="41.0990780" lon="-3.3805270">
        <ele>1330.0</ele>
        <time>2020-09-29T12:49:41Z</time>
      </trkpt>
      <trkpt lat="41.0990050" lon="-3.3803970">
        <ele>1330.0</ele>
        <time>2020-09-29T12:49:42Z</time>
      </trkpt>
      <trkpt lat="41.0989550" lon="-3.3803330">
        <ele>1330.0</ele>
        <time>2020-09-29T12:49:43Z</time>
      </trkpt>
      <trkpt lat="41.0989550" lon="-3.3803330">
        <ele>1330.0</ele>
        <time>2020-09-29T12:49:44Z</time>
      </trkpt>
      <trkpt lat="41.0988380" lon="-3.3802220">
        <ele>1330.0</ele>
        <time>2020-09-29T12:49:45Z</time>
      </trkpt>
      <trkpt lat="41.0988380" lon="-3.3802220">
        <ele>1330.0</ele>
        <time>2020-09-29T12:49:46Z</time>
      </trkpt>
      <trkpt lat="41.0987050" lon="-3.3801130">
        <ele>1329.0</ele>
        <time>2020-09-29T12:49:47Z</time>
      </trkpt>
      <trkpt lat="41.0987050" lon="-3.3801130">
        <ele>1329.0</ele>
        <time>2020-09-29T12:49:48Z</time>
      </trkpt>
      <trkpt lat="41.0985870" lon="-3.3799700">
        <ele>1329.0</ele>
        <time>2020-09-29T12:49:49Z</time>
      </trkpt>
      <trkpt lat="41.0985870" lon="-3.3799700">
        <ele>1329.0</ele>
        <time>2020-09-29T12:49:50Z</time>
      </trkpt>
      <trkpt lat="41.0985100" lon="-3.3797980">
        <ele>1328.0</ele>
        <time>2020-09-29T12:49:51Z</time>
      </trkpt>
      <trkpt lat="41.0985100" lon="-3.3797980">
        <ele>1328.0</ele>
        <time>2020-09-29T12:49:52Z</time>
      </trkpt>
      <trkpt lat="41.0984600" lon="-3.3796150">
        <ele>1328.0</ele>
        <time>2020-09-29T12:49:53Z</time>
      </trkpt>
      <trkpt lat="41.0984380" lon="-3.3795220">
        <ele>1328.0</ele>
        <time>2020-09-29T12:49:54Z</time>
      </trkpt>
      <trkpt lat="41.0984380" lon="-3.3795220">
        <ele>1328.0</ele>
        <time>2020-09-29T12:49:55Z</time>
      </trkpt>
      <trkpt lat="41.0984080" lon="-3.3793370">
        <ele>1328.0</ele>
        <time>2020-09-29T12:49:56Z</time>
      </trkpt>
      <trkpt lat="41.0983970" lon="-3.3792450">
        <ele>1328.0</ele>
        <time>2020-09-29T12:49:57Z</time>
      </trkpt>
      <trkpt lat="41.0983900" lon="-3.3791550">
        <ele>1328.0</ele>
        <time>2020-09-29T12:49:58Z</time>
      </trkpt>
      <trkpt lat="41.0983900" lon="-3.3791550">
        <ele>1328.0</ele>
        <time>2020-09-29T12:49:59Z</time>
      </trkpt>
      <trkpt lat="41.0983720" lon="-3.3789800">
        <ele>1328.0</ele>
        <time>2020-09-29T12:50:00Z</time>
      </trkpt>
      <trkpt lat="41.0983620" lon="-3.3788970">
        <ele>1328.0</ele>
        <time>2020-09-29T12:50:01Z</time>
      </trkpt>
      <trkpt lat="41.0983620" lon="-3.3788970">
        <ele>1328.0</ele>
        <time>2020-09-29T12:50:02Z</time>
      </trkpt>
      <trkpt lat="41.0983430" lon="-3.3787350">
        <ele>1328.0</ele>
        <time>2020-09-29T12:50:03Z</time>
      </trkpt>
      <trkpt lat="41.0983430" lon="-3.3787350">
        <ele>1328.0</ele>
        <time>2020-09-29T12:50:04Z</time>
      </trkpt>
      <trkpt lat="41.0983200" lon="-3.3785780">
        <ele>1328.0</ele>
        <time>2020-09-29T12:50:05Z</time>
      </trkpt>
      <trkpt lat="41.0983200" lon="-3.3785780">
        <ele>1328.0</ele>
        <time>2020-09-29T12:50:06Z</time>
      </trkpt>
      <trkpt lat="41.0982920" lon="-3.3784230">
        <ele>1328.0</ele>
        <time>2020-09-29T12:50:07Z</time>
      </trkpt>
      <trkpt lat="41.0982920" lon="-3.3784230">
        <ele>1328.0</ele>
        <time>2020-09-29T12:50:08Z</time>
      </trkpt>
      <trkpt lat="41.0982580" lon="-3.3782620">
        <ele>1328.0</ele>
        <time>2020-09-29T12:50:09Z</time>
      </trkpt>
      <trkpt lat="41.0982430" lon="-3.3781780">
        <ele>1328.0</ele>
        <time>2020-09-29T12:50:10Z</time>
      </trkpt>
      <trkpt lat="41.0982430" lon="-3.3781780">
        <ele>1328.0</ele>
        <time>2020-09-29T12:50:11Z</time>
      </trkpt>
      <trkpt lat="41.0982250" lon="-3.3780130">
        <ele>1328.0</ele>
        <time>2020-09-29T12:50:12Z</time>
      </trkpt>
      <trkpt lat="41.0982250" lon="-3.3780130">
        <ele>1328.0</ele>
        <time>2020-09-29T12:50:13Z</time>
      </trkpt>
      <trkpt lat="41.0982180" lon="-3.3778370">
        <ele>1328.0</ele>
        <time>2020-09-29T12:50:14Z</time>
      </trkpt>
      <trkpt lat="41.0982180" lon="-3.3777500">
        <ele>1328.0</ele>
        <time>2020-09-29T12:50:15Z</time>
      </trkpt>
      <trkpt lat="41.0982230" lon="-3.3776620">
        <ele>1328.0</ele>
        <time>2020-09-29T12:50:16Z</time>
      </trkpt>
      <trkpt lat="41.0982230" lon="-3.3776620">
        <ele>1328.0</ele>
        <time>2020-09-29T12:50:17Z</time>
      </trkpt>
      <trkpt lat="41.0982320" lon="-3.3774930">
        <ele>1328.0</ele>
        <time>2020-09-29T12:50:18Z</time>
      </trkpt>
      <trkpt lat="41.0982320" lon="-3.3774930">
        <ele>1328.0</ele>
        <time>2020-09-29T12:50:19Z</time>
      </trkpt>
      <trkpt lat="41.0982570" lon="-3.3773400">
        <ele>1328.0</ele>
        <time>2020-09-29T12:50:20Z</time>
      </trkpt>
      <trkpt lat="41.0982730" lon="-3.3772670">
        <ele>1328.0</ele>
        <time>2020-09-29T12:50:21Z</time>
      </trkpt>
      <trkpt lat="41.0982730" lon="-3.3772670">
        <ele>1328.0</ele>
        <time>2020-09-29T12:50:22Z</time>
      </trkpt>
      <trkpt lat="41.0983130" lon="-3.3771400">
        <ele>1328.0</ele>
        <time>2020-09-29T12:50:23Z</time>
      </trkpt>
      <trkpt lat="41.0983130" lon="-3.3771400">
        <ele>1328.0</ele>
        <time>2020-09-29T12:50:24Z</time>
      </trkpt>
      <trkpt lat="41.0983530" lon="-3.3770370">
        <ele>1328.0</ele>
        <time>2020-09-29T12:50:25Z</time>
      </trkpt>
      <trkpt lat="41.0983530" lon="-3.3770370">
        <ele>1328.0</ele>
        <time>2020-09-29T12:50:26Z</time>
      </trkpt>
      <trkpt lat="41.0983900" lon="-3.3769450">
        <ele>1328.0</ele>
        <time>2020-09-29T12:50:27Z</time>
      </trkpt>
      <trkpt lat="41.0984030" lon="-3.3769070">
        <ele>1329.0</ele>
        <time>2020-09-29T12:50:28Z</time>
      </trkpt>
      <trkpt lat="41.0984030" lon="-3.3769070">
        <ele>1329.0</ele>
        <time>2020-09-29T12:50:29Z</time>
      </trkpt>
      <trkpt lat="41.0984280" lon="-3.3768370">
        <ele>1329.0</ele>
        <time>2020-09-29T12:50:30Z</time>
      </trkpt>
      <trkpt lat="41.0984420" lon="-3.3768080">
        <ele>1329.0</ele>
        <time>2020-09-29T12:50:31Z</time>
      </trkpt>
      <trkpt lat="41.0984420" lon="-3.3768080">
        <ele>1330.0</ele>
        <time>2020-09-29T12:50:32Z</time>
      </trkpt>
      <trkpt lat="41.0984770" lon="-3.3767620">
        <ele>1330.0</ele>
        <time>2020-09-29T12:50:33Z</time>
      </trkpt>
      <trkpt lat="41.0984770" lon="-3.3767620">
        <ele>1330.0</ele>
        <time>2020-09-29T12:50:34Z</time>
      </trkpt>
      <trkpt lat="41.0985050" lon="-3.3767080">
        <ele>1330.0</ele>
        <time>2020-09-29T12:50:35Z</time>
      </trkpt>
      <trkpt lat="41.0985170" lon="-3.3766780">
        <ele>1330.0</ele>
        <time>2020-09-29T12:50:36Z</time>
      </trkpt>
      <trkpt lat="41.0985280" lon="-3.3766480">
        <ele>1331.0</ele>
        <time>2020-09-29T12:50:37Z</time>
      </trkpt>
      <trkpt lat="41.0985280" lon="-3.3766480">
        <ele>1331.0</ele>
        <time>2020-09-29T12:50:38Z</time>
      </trkpt>
      <trkpt lat="41.0985500" lon="-3.3765900">
        <ele>1331.0</ele>
        <time>2020-09-29T12:50:39Z</time>
      </trkpt>
      <trkpt lat="41.0985500" lon="-3.3765900">
        <ele>1331.0</ele>
        <time>2020-09-29T12:50:40Z</time>
      </trkpt>
      <trkpt lat="41.0985700" lon="-3.3765320">
        <ele>1332.0</ele>
        <time>2020-09-29T12:50:41Z</time>
      </trkpt>
      <trkpt lat="41.0985800" lon="-3.3765020">
        <ele>1332.0</ele>
        <time>2020-09-29T12:50:42Z</time>
      </trkpt>
      <trkpt lat="41.0985800" lon="-3.3765020">
        <ele>1332.0</ele>
        <time>2020-09-29T12:50:43Z</time>
      </trkpt>
      <trkpt lat="41.0985980" lon="-3.3764430">
        <ele>1332.0</ele>
        <time>2020-09-29T12:50:44Z</time>
      </trkpt>
      <trkpt lat="41.0985980" lon="-3.3764430">
        <ele>1332.0</ele>
        <time>2020-09-29T12:50:45Z</time>
      </trkpt>
      <trkpt lat="41.0986170" lon="-3.3763830">
        <ele>1332.0</ele>
        <time>2020-09-29T12:50:46Z</time>
      </trkpt>
      <trkpt lat="41.0986280" lon="-3.3763530">
        <ele>1333.0</ele>
        <time>2020-09-29T12:50:47Z</time>
      </trkpt>
      <trkpt lat="41.0986280" lon="-3.3763530">
        <ele>1333.0</ele>
        <time>2020-09-29T12:50:48Z</time>
      </trkpt>
      <trkpt lat="41.0986480" lon="-3.3762930">
        <ele>1333.0</ele>
        <time>2020-09-29T12:50:49Z</time>
      </trkpt>
      <trkpt lat="41.0986550" lon="-3.3762620">
        <ele>1333.0</ele>
        <time>2020-09-29T12:50:50Z</time>
      </trkpt>
      <trkpt lat="41.0986550" lon="-3.3762620">
        <ele>1333.0</ele>
        <time>2020-09-29T12:50:51Z</time>
      </trkpt>
      <trkpt lat="41.0986730" lon="-3.3762000">
        <ele>1333.0</ele>
        <time>2020-09-29T12:50:52Z</time>
      </trkpt>
      <trkpt lat="41.0986820" lon="-3.3761680">
        <ele>1334.0</ele>
        <time>2020-09-29T12:50:53Z</time>
      </trkpt>
      <trkpt lat="41.0986820" lon="-3.3761680">
        <ele>1334.0</ele>
        <time>2020-09-29T12:50:54Z</time>
      </trkpt>
      <trkpt lat="41.0986900" lon="-3.3761030">
        <ele>1334.0</ele>
        <time>2020-09-29T12:50:55Z</time>
      </trkpt>
      <trkpt lat="41.0986900" lon="-3.3761030">
        <ele>1334.0</ele>
        <time>2020-09-29T12:50:56Z</time>
      </trkpt>
      <trkpt lat="41.0986950" lon="-3.3760370">
        <ele>1335.0</ele>
        <time>2020-09-29T12:50:57Z</time>
      </trkpt>
      <trkpt lat="41.0986970" lon="-3.3760030">
        <ele>1335.0</ele>
        <time>2020-09-29T12:50:58Z</time>
      </trkpt>
      <trkpt lat="41.0986970" lon="-3.3760030">
        <ele>1335.0</ele>
        <time>2020-09-29T12:50:59Z</time>
      </trkpt>
      <trkpt lat="41.0986920" lon="-3.3759350">
        <ele>1335.0</ele>
        <time>2020-09-29T12:51:00Z</time>
      </trkpt>
      <trkpt lat="41.0986900" lon="-3.3758980">
        <ele>1335.0</ele>
        <time>2020-09-29T12:51:01Z</time>
      </trkpt>
      <trkpt lat="41.0986900" lon="-3.3758980">
        <ele>1335.0</ele>
        <time>2020-09-29T12:51:02Z</time>
      </trkpt>
      <trkpt lat="41.0986880" lon="-3.3758280">
        <ele>1335.0</ele>
        <time>2020-09-29T12:51:03Z</time>
      </trkpt>
      <trkpt lat="41.0986850" lon="-3.3757930">
        <ele>1335.0</ele>
        <time>2020-09-29T12:51:04Z</time>
      </trkpt>
      <trkpt lat="41.0986850" lon="-3.3757930">
        <ele>1336.0</ele>
        <time>2020-09-29T12:51:05Z</time>
      </trkpt>
      <trkpt lat="41.0986800" lon="-3.3757150">
        <ele>1336.0</ele>
        <time>2020-09-29T12:51:06Z</time>
      </trkpt>
      <trkpt lat="41.0986800" lon="-3.3757150">
        <ele>1336.0</ele>
        <time>2020-09-29T12:51:07Z</time>
      </trkpt>
      <trkpt lat="41.0986730" lon="-3.3756320">
        <ele>1336.0</ele>
        <time>2020-09-29T12:51:08Z</time>
      </trkpt>
      <trkpt lat="41.0986730" lon="-3.3756320">
        <ele>1336.0</ele>
        <time>2020-09-29T12:51:09Z</time>
      </trkpt>
      <trkpt lat="41.0986620" lon="-3.3755330">
        <ele>1336.0</ele>
        <time>2020-09-29T12:51:10Z</time>
      </trkpt>
      <trkpt lat="41.0986620" lon="-3.3755330">
        <ele>1336.0</ele>
        <time>2020-09-29T12:51:11Z</time>
      </trkpt>
      <trkpt lat="41.0986380" lon="-3.3754350">
        <ele>1336.0</ele>
        <time>2020-09-29T12:51:12Z</time>
      </trkpt>
      <trkpt lat="41.0986230" lon="-3.3753880">
        <ele>1336.0</ele>
        <time>2020-09-29T12:51:13Z</time>
      </trkpt>
      <trkpt lat="41.0986230" lon="-3.3753880">
        <ele>1336.0</ele>
        <time>2020-09-29T12:51:14Z</time>
      </trkpt>
      <trkpt lat="41.0985830" lon="-3.3752820">
        <ele>1336.0</ele>
        <time>2020-09-29T12:51:15Z</time>
      </trkpt>
      <trkpt lat="41.0985620" lon="-3.3752270">
        <ele>1336.0</ele>
        <time>2020-09-29T12:51:16Z</time>
      </trkpt>
      <trkpt lat="41.0985620" lon="-3.3752270">
        <ele>1336.0</ele>
        <time>2020-09-29T12:51:17Z</time>
      </trkpt>
      <trkpt lat="41.0985000" lon="-3.3751080">
        <ele>1335.0</ele>
        <time>2020-09-29T12:51:18Z</time>
      </trkpt>
      <trkpt lat="41.0984700" lon="-3.3750450">
        <ele>1335.0</ele>
        <time>2020-09-29T12:51:19Z</time>
      </trkpt>
      <trkpt lat="41.0984700" lon="-3.3750450">
        <ele>1335.0</ele>
        <time>2020-09-29T12:51:20Z</time>
      </trkpt>
      <trkpt lat="41.0983920" lon="-3.3748980">
        <ele>1335.0</ele>
        <time>2020-09-29T12:51:21Z</time>
      </trkpt>
      <trkpt lat="41.0983920" lon="-3.3748980">
        <ele>1334.0</ele>
        <time>2020-09-29T12:51:22Z</time>
      </trkpt>
      <trkpt lat="41.0983070" lon="-3.3747330">
        <ele>1334.0</ele>
        <time>2020-09-29T12:51:23Z</time>
      </trkpt>
      <trkpt lat="41.0983070" lon="-3.3747330">
        <ele>1334.0</ele>
        <time>2020-09-29T12:51:24Z</time>
      </trkpt>
      <trkpt lat="41.0982100" lon="-3.3745530">
        <ele>1334.0</ele>
        <time>2020-09-29T12:51:25Z</time>
      </trkpt>
      <trkpt lat="41.0982100" lon="-3.3745530">
        <ele>1332.0</ele>
        <time>2020-09-29T12:51:26Z</time>
      </trkpt>
      <trkpt lat="41.0981030" lon="-3.3743600">
        <ele>1332.0</ele>
        <time>2020-09-29T12:51:27Z</time>
      </trkpt>
      <trkpt lat="41.0980500" lon="-3.3742530">
        <ele>1331.0</ele>
        <time>2020-09-29T12:51:28Z</time>
      </trkpt>
      <trkpt lat="41.0980500" lon="-3.3742530">
        <ele>1331.0</ele>
        <time>2020-09-29T12:51:29Z</time>
      </trkpt>
      <trkpt lat="41.0979320" lon="-3.3740420">
        <ele>1330.0</ele>
        <time>2020-09-29T12:51:30Z</time>
      </trkpt>
      <trkpt lat="41.0979320" lon="-3.3740420">
        <ele>1330.0</ele>
        <time>2020-09-29T12:51:31Z</time>
      </trkpt>
      <trkpt lat="41.0977870" lon="-3.3738480">
        <ele>1328.0</ele>
        <time>2020-09-29T12:51:32Z</time>
      </trkpt>
      <trkpt lat="41.0977870" lon="-3.3738480">
        <ele>1328.0</ele>
        <time>2020-09-29T12:51:33Z</time>
      </trkpt>
      <trkpt lat="41.0976170" lon="-3.3736830">
        <ele>1327.0</ele>
        <time>2020-09-29T12:51:34Z</time>
      </trkpt>
      <trkpt lat="41.0975270" lon="-3.3736220">
        <ele>1327.0</ele>
        <time>2020-09-29T12:51:35Z</time>
      </trkpt>
      <trkpt lat="41.0975270" lon="-3.3736220">
        <ele>1326.0</ele>
        <time>2020-09-29T12:51:36Z</time>
      </trkpt>
      <trkpt lat="41.0973430" lon="-3.3735270">
        <ele>1326.0</ele>
        <time>2020-09-29T12:51:37Z</time>
      </trkpt>
      <trkpt lat="41.0973430" lon="-3.3735270">
        <ele>1325.0</ele>
        <time>2020-09-29T12:51:38Z</time>
      </trkpt>
      <trkpt lat="41.0971670" lon="-3.3734130">
        <ele>1325.0</ele>
        <time>2020-09-29T12:51:39Z</time>
      </trkpt>
      <trkpt lat="41.0971670" lon="-3.3734130">
        <ele>1324.0</ele>
        <time>2020-09-29T12:51:40Z</time>
      </trkpt>
      <trkpt lat="41.0970200" lon="-3.3732400">
        <ele>1324.0</ele>
        <time>2020-09-29T12:51:41Z</time>
      </trkpt>
      <trkpt lat="41.0970200" lon="-3.3732400">
        <ele>1324.0</ele>
        <time>2020-09-29T12:51:42Z</time>
      </trkpt>
      <trkpt lat="41.0968950" lon="-3.3730400">
        <ele>1324.0</ele>
        <time>2020-09-29T12:51:43Z</time>
      </trkpt>
      <trkpt lat="41.0968950" lon="-3.3730400">
        <ele>1323.0</ele>
        <time>2020-09-29T12:51:44Z</time>
      </trkpt>
      <trkpt lat="41.0967720" lon="-3.3728320">
        <ele>1323.0</ele>
        <time>2020-09-29T12:51:45Z</time>
      </trkpt>
      <trkpt lat="41.0967720" lon="-3.3728320">
        <ele>1323.0</ele>
        <time>2020-09-29T12:51:46Z</time>
      </trkpt>
      <trkpt lat="41.0966550" lon="-3.3726370">
        <ele>1323.0</ele>
        <time>2020-09-29T12:51:47Z</time>
      </trkpt>
      <trkpt lat="41.0966020" lon="-3.3725450">
        <ele>1323.0</ele>
        <time>2020-09-29T12:51:48Z</time>
      </trkpt>
      <trkpt lat="41.0965500" lon="-3.3724550">
        <ele>1323.0</ele>
        <time>2020-09-29T12:51:49Z</time>
      </trkpt>
      <trkpt lat="41.0965500" lon="-3.3724550">
        <ele>1323.0</ele>
        <time>2020-09-29T12:51:50Z</time>
      </trkpt>
      <trkpt lat="41.0964430" lon="-3.3722730">
        <ele>1322.0</ele>
        <time>2020-09-29T12:51:51Z</time>
      </trkpt>
      <trkpt lat="41.0964430" lon="-3.3722730">
        <ele>1322.0</ele>
        <time>2020-09-29T12:51:52Z</time>
      </trkpt>
      <trkpt lat="41.0963400" lon="-3.3720980">
        <ele>1322.0</ele>
        <time>2020-09-29T12:51:53Z</time>
      </trkpt>
      <trkpt lat="41.0963400" lon="-3.3720980">
        <ele>1322.0</ele>
        <time>2020-09-29T12:51:54Z</time>
      </trkpt>
      <trkpt lat="41.0962330" lon="-3.3719350">
        <ele>1320.0</ele>
        <time>2020-09-29T12:51:55Z</time>
      </trkpt>
      <trkpt lat="41.0962330" lon="-3.3719350">
        <ele>1320.0</ele>
        <time>2020-09-29T12:51:56Z</time>
      </trkpt>
      <trkpt lat="41.0961170" lon="-3.3717720">
        <ele>1319.0</ele>
        <time>2020-09-29T12:51:57Z</time>
      </trkpt>
      <trkpt lat="41.0960550" lon="-3.3716950">
        <ele>1319.0</ele>
        <time>2020-09-29T12:51:58Z</time>
      </trkpt>
      <trkpt lat="41.0960550" lon="-3.3716950">
        <ele>1318.0</ele>
        <time>2020-09-29T12:51:59Z</time>
      </trkpt>
      <trkpt lat="41.0959330" lon="-3.3715520">
        <ele>1318.0</ele>
        <time>2020-09-29T12:52:00Z</time>
      </trkpt>
      <trkpt lat="41.0958680" lon="-3.3714770">
        <ele>1317.0</ele>
        <time>2020-09-29T12:52:01Z</time>
      </trkpt>
      <trkpt lat="41.0958680" lon="-3.3714770">
        <ele>1317.0</ele>
        <time>2020-09-29T12:52:02Z</time>
      </trkpt>
      <trkpt lat="41.0957470" lon="-3.3713320">
        <ele>1317.0</ele>
        <time>2020-09-29T12:52:03Z</time>
      </trkpt>
      <trkpt lat="41.0956820" lon="-3.3712570">
        <ele>1317.0</ele>
        <time>2020-09-29T12:52:04Z</time>
      </trkpt>
      <trkpt lat="41.0956130" lon="-3.3711770">
        <ele>1316.0</ele>
        <time>2020-09-29T12:52:05Z</time>
      </trkpt>
      <trkpt lat="41.0956130" lon="-3.3711770">
        <ele>1316.0</ele>
        <time>2020-09-29T12:52:06Z</time>
      </trkpt>
      <trkpt lat="41.0954830" lon="-3.3710230">
        <ele>1315.0</ele>
        <time>2020-09-29T12:52:07Z</time>
      </trkpt>
      <trkpt lat="41.0954830" lon="-3.3710230">
        <ele>1315.0</ele>
        <time>2020-09-29T12:52:08Z</time>
      </trkpt>
      <trkpt lat="41.0953450" lon="-3.3708620">
        <ele>1314.0</ele>
        <time>2020-09-29T12:52:09Z</time>
      </trkpt>
      <trkpt lat="41.0953450" lon="-3.3708620">
        <ele>1314.0</ele>
        <time>2020-09-29T12:52:10Z</time>
      </trkpt>
      <trkpt lat="41.0951970" lon="-3.3706970">
        <ele>1314.0</ele>
        <time>2020-09-29T12:52:11Z</time>
      </trkpt>
      <trkpt lat="41.0951970" lon="-3.3706970">
        <ele>1314.0</ele>
        <time>2020-09-29T12:52:12Z</time>
      </trkpt>
      <trkpt lat="41.0950200" lon="-3.3705570">
        <ele>1313.0</ele>
        <time>2020-09-29T12:52:13Z</time>
      </trkpt>
      <trkpt lat="41.0950200" lon="-3.3705570">
        <ele>1313.0</ele>
        <time>2020-09-29T12:52:14Z</time>
      </trkpt>
      <trkpt lat="41.0948180" lon="-3.3704350">
        <ele>1312.0</ele>
        <time>2020-09-29T12:52:15Z</time>
      </trkpt>
      <trkpt lat="41.0947070" lon="-3.3703970">
        <ele>1312.0</ele>
        <time>2020-09-29T12:52:16Z</time>
      </trkpt>
      <trkpt lat="41.0947070" lon="-3.3703970">
        <ele>1310.0</ele>
        <time>2020-09-29T12:52:17Z</time>
      </trkpt>
      <trkpt lat="41.0944680" lon="-3.3703750">
        <ele>1310.0</ele>
        <time>2020-09-29T12:52:18Z</time>
      </trkpt>
      <trkpt lat="41.0943370" lon="-3.3703750">
        <ele>1308.0</ele>
        <time>2020-09-29T12:52:19Z</time>
      </trkpt>
      <trkpt lat="41.0943370" lon="-3.3703750">
        <ele>1308.0</ele>
        <time>2020-09-29T12:52:20Z</time>
      </trkpt>
      <trkpt lat="41.0940500" lon="-3.3703730">
        <ele>1305.0</ele>
        <time>2020-09-29T12:52:21Z</time>
      </trkpt>
      <trkpt lat="41.0939030" lon="-3.3703720">
        <ele>1305.0</ele>
        <time>2020-09-29T12:52:22Z</time>
      </trkpt>
      <trkpt lat="41.0937520" lon="-3.3703630">
        <ele>1302.0</ele>
        <time>2020-09-29T12:52:23Z</time>
      </trkpt>
      <trkpt lat="41.0937520" lon="-3.3703630">
        <ele>1299.0</ele>
        <time>2020-09-29T12:52:24Z</time>
      </trkpt>
      <trkpt lat="41.0934520" lon="-3.3703550">
        <ele>1299.0</ele>
        <time>2020-09-29T12:52:25Z</time>
      </trkpt>
      <trkpt lat="41.0934520" lon="-3.3703550">
        <ele>1296.0</ele>
        <time>2020-09-29T12:52:26Z</time>
      </trkpt>
      <trkpt lat="41.0931600" lon="-3.3703380">
        <ele>1296.0</ele>
        <time>2020-09-29T12:52:27Z</time>
      </trkpt>
      <trkpt lat="41.0931600" lon="-3.3703380">
        <ele>1292.0</ele>
        <time>2020-09-29T12:52:28Z</time>
      </trkpt>
      <trkpt lat="41.0928800" lon="-3.3703170">
        <ele>1292.0</ele>
        <time>2020-09-29T12:52:29Z</time>
      </trkpt>
      <trkpt lat="41.0928800" lon="-3.3703170">
        <ele>1289.0</ele>
        <time>2020-09-29T12:52:30Z</time>
      </trkpt>
      <trkpt lat="41.0926220" lon="-3.3703250">
        <ele>1289.0</ele>
        <time>2020-09-29T12:52:31Z</time>
      </trkpt>
      <trkpt lat="41.0926220" lon="-3.3703250">
        <ele>1285.0</ele>
        <time>2020-09-29T12:52:32Z</time>
      </trkpt>
      <trkpt lat="41.0924000" lon="-3.3703770">
        <ele>1285.0</ele>
        <time>2020-09-29T12:52:33Z</time>
      </trkpt>
      <trkpt lat="41.0923100" lon="-3.3704080">
        <ele>1281.0</ele>
        <time>2020-09-29T12:52:34Z</time>
      </trkpt>
      <trkpt lat="41.0922330" lon="-3.3704400">
        <ele>1281.0</ele>
        <time>2020-09-29T12:52:35Z</time>
      </trkpt>
      <trkpt lat="41.0922330" lon="-3.3704400">
        <ele>1277.0</ele>
        <time>2020-09-29T12:52:36Z</time>
      </trkpt>
      <trkpt lat="41.0921100" lon="-3.3704730">
        <ele>1277.0</ele>
        <time>2020-09-29T12:52:37Z</time>
      </trkpt>
      <trkpt lat="41.0921100" lon="-3.3704730">
        <ele>1274.0</ele>
        <time>2020-09-29T12:52:38Z</time>
      </trkpt>
      <trkpt lat="41.0919970" lon="-3.3704230">
        <ele>1274.0</ele>
        <time>2020-09-29T12:52:39Z</time>
      </trkpt>
      <trkpt lat="41.0919430" lon="-3.3703570">
        <ele>1272.0</ele>
        <time>2020-09-29T12:52:40Z</time>
      </trkpt>
      <trkpt lat="41.0918920" lon="-3.3702680">
        <ele>1272.0</ele>
        <time>2020-09-29T12:52:41Z</time>
      </trkpt>
      <trkpt lat="41.0918920" lon="-3.3702680">
        <ele>1270.0</ele>
        <time>2020-09-29T12:52:42Z</time>
      </trkpt>
      <trkpt lat="41.0918020" lon="-3.3700580">
        <ele>1270.0</ele>
        <time>2020-09-29T12:52:43Z</time>
      </trkpt>
      <trkpt lat="41.0918020" lon="-3.3700580">
        <ele>1268.0</ele>
        <time>2020-09-29T12:52:44Z</time>
      </trkpt>
      <trkpt lat="41.0917250" lon="-3.3698400">
        <ele>1268.0</ele>
        <time>2020-09-29T12:52:45Z</time>
      </trkpt>
      <trkpt lat="41.0916900" lon="-3.3697280">
        <ele>1266.0</ele>
        <time>2020-09-29T12:52:46Z</time>
      </trkpt>
      <trkpt lat="41.0916900" lon="-3.3697280">
        <ele>1266.0</ele>
        <time>2020-09-29T12:52:47Z</time>
      </trkpt>
      <trkpt lat="41.0916020" lon="-3.3695020">
        <ele>1265.0</ele>
        <time>2020-09-29T12:52:48Z</time>
      </trkpt>
      <trkpt lat="41.0916020" lon="-3.3695020">
        <ele>1265.0</ele>
        <time>2020-09-29T12:52:49Z</time>
      </trkpt>
      <trkpt lat="41.0914980" lon="-3.3692730">
        <ele>1264.0</ele>
        <time>2020-09-29T12:52:50Z</time>
      </trkpt>
      <trkpt lat="41.0914980" lon="-3.3692730">
        <ele>1264.0</ele>
        <time>2020-09-29T12:52:51Z</time>
      </trkpt>
      <trkpt lat="41.0913780" lon="-3.3690600">
        <ele>1262.0</ele>
        <time>2020-09-29T12:52:52Z</time>
      </trkpt>
      <trkpt lat="41.0913780" lon="-3.3690600">
        <ele>1262.0</ele>
        <time>2020-09-29T12:52:53Z</time>
      </trkpt>
      <trkpt lat="41.0912300" lon="-3.3688830">
        <ele>1262.0</ele>
        <time>2020-09-29T12:52:54Z</time>
      </trkpt>
      <trkpt lat="41.0911500" lon="-3.3688100">
        <ele>1261.0</ele>
        <time>2020-09-29T12:52:55Z</time>
      </trkpt>
      <trkpt lat="41.0911500" lon="-3.3688100">
        <ele>1261.0</ele>
        <time>2020-09-29T12:52:56Z</time>
      </trkpt>
      <trkpt lat="41.0909820" lon="-3.3686650">
        <ele>1260.0</ele>
        <time>2020-09-29T12:52:57Z</time>
      </trkpt>
      <trkpt lat="41.0909820" lon="-3.3686650">
        <ele>1260.0</ele>
        <time>2020-09-29T12:52:58Z</time>
      </trkpt>
      <trkpt lat="41.0908170" lon="-3.3685250">
        <ele>1259.0</ele>
        <time>2020-09-29T12:52:59Z</time>
      </trkpt>
      <trkpt lat="41.0908170" lon="-3.3685250">
        <ele>1259.0</ele>
        <time>2020-09-29T12:53:00Z</time>
      </trkpt>
      <trkpt lat="41.0906470" lon="-3.3683880">
        <ele>1258.0</ele>
        <time>2020-09-29T12:53:01Z</time>
      </trkpt>
      <trkpt lat="41.0906470" lon="-3.3683880">
        <ele>1258.0</ele>
        <time>2020-09-29T12:53:02Z</time>
      </trkpt>
      <trkpt lat="41.0904770" lon="-3.3682570">
        <ele>1258.0</ele>
        <time>2020-09-29T12:53:03Z</time>
      </trkpt>
      <trkpt lat="41.0904770" lon="-3.3682570">
        <ele>1258.0</ele>
        <time>2020-09-29T12:53:04Z</time>
      </trkpt>
      <trkpt lat="41.0903000" lon="-3.3681470">
        <ele>1256.0</ele>
        <time>2020-09-29T12:53:05Z</time>
      </trkpt>
      <trkpt lat="41.0902100" lon="-3.3681000">
        <ele>1256.0</ele>
        <time>2020-09-29T12:53:06Z</time>
      </trkpt>
      <trkpt lat="41.0901180" lon="-3.3680600">
        <ele>1256.0</ele>
        <time>2020-09-29T12:53:07Z</time>
      </trkpt>
      <trkpt lat="41.0901180" lon="-3.3680600">
        <ele>1256.0</ele>
        <time>2020-09-29T12:53:08Z</time>
      </trkpt>
      <trkpt lat="41.0899370" lon="-3.3679920">
        <ele>1255.0</ele>
        <time>2020-09-29T12:53:09Z</time>
      </trkpt>
      <trkpt lat="41.0899370" lon="-3.3679920">
        <ele>1255.0</ele>
        <time>2020-09-29T12:53:10Z</time>
      </trkpt>
      <trkpt lat="41.0897650" lon="-3.3679280">
        <ele>1255.0</ele>
        <time>2020-09-29T12:53:11Z</time>
      </trkpt>
      <trkpt lat="41.0897650" lon="-3.3679280">
        <ele>1255.0</ele>
        <time>2020-09-29T12:53:12Z</time>
      </trkpt>
      <trkpt lat="41.0895970" lon="-3.3678570">
        <ele>1255.0</ele>
        <time>2020-09-29T12:53:13Z</time>
      </trkpt>
      <trkpt lat="41.0895970" lon="-3.3678570">
        <ele>1254.0</ele>
        <time>2020-09-29T12:53:14Z</time>
      </trkpt>
      <trkpt lat="41.0894370" lon="-3.3677950">
        <ele>1254.0</ele>
        <time>2020-09-29T12:53:15Z</time>
      </trkpt>
      <trkpt lat="41.0894370" lon="-3.3677950">
        <ele>1254.0</ele>
        <time>2020-09-29T12:53:16Z</time>
      </trkpt>
      <trkpt lat="41.0892770" lon="-3.3677570">
        <ele>1254.0</ele>
        <time>2020-09-29T12:53:17Z</time>
      </trkpt>
      <trkpt lat="41.0892770" lon="-3.3677570">
        <ele>1254.0</ele>
        <time>2020-09-29T12:53:18Z</time>
      </trkpt>
      <trkpt lat="41.0891230" lon="-3.3677280">
        <ele>1254.0</ele>
        <time>2020-09-29T12:53:19Z</time>
      </trkpt>
      <trkpt lat="41.0891230" lon="-3.3677280">
        <ele>1254.0</ele>
        <time>2020-09-29T12:53:20Z</time>
      </trkpt>
      <trkpt lat="41.0889720" lon="-3.3676950">
        <ele>1254.0</ele>
        <time>2020-09-29T12:53:21Z</time>
      </trkpt>
      <trkpt lat="41.0888950" lon="-3.3676850">
        <ele>1254.0</ele>
        <time>2020-09-29T12:53:22Z</time>
      </trkpt>
      <trkpt lat="41.0888950" lon="-3.3676850">
        <ele>1254.0</ele>
        <time>2020-09-29T12:53:23Z</time>
      </trkpt>
      <trkpt lat="41.0887470" lon="-3.3676800">
        <ele>1254.0</ele>
        <time>2020-09-29T12:53:24Z</time>
      </trkpt>
      <trkpt lat="41.0886730" lon="-3.3676900">
        <ele>1254.0</ele>
        <time>2020-09-29T12:53:25Z</time>
      </trkpt>
      <trkpt lat="41.0886730" lon="-3.3676900">
        <ele>1254.0</ele>
        <time>2020-09-29T12:53:26Z</time>
      </trkpt>
      <trkpt lat="41.0885470" lon="-3.3677550">
        <ele>1254.0</ele>
        <time>2020-09-29T12:53:27Z</time>
      </trkpt>
      <trkpt lat="41.0885470" lon="-3.3677550">
        <ele>1254.0</ele>
        <time>2020-09-29T12:53:28Z</time>
      </trkpt>
      <trkpt lat="41.0884280" lon="-3.3678380">
        <ele>1254.0</ele>
        <time>2020-09-29T12:53:29Z</time>
      </trkpt>
      <trkpt lat="41.0884280" lon="-3.3678380">
        <ele>1254.0</ele>
        <time>2020-09-29T12:53:30Z</time>
      </trkpt>
      <trkpt lat="41.0883050" lon="-3.3679030">
        <ele>1254.0</ele>
        <time>2020-09-29T12:53:31Z</time>
      </trkpt>
      <trkpt lat="41.0883050" lon="-3.3679030">
        <ele>1254.0</ele>
        <time>2020-09-29T12:53:32Z</time>
      </trkpt>
      <trkpt lat="41.0881820" lon="-3.3679620">
        <ele>1254.0</ele>
        <time>2020-09-29T12:53:33Z</time>
      </trkpt>
      <trkpt lat="41.0881820" lon="-3.3679620">
        <ele>1254.0</ele>
        <time>2020-09-29T12:53:34Z</time>
      </trkpt>
      <trkpt lat="41.0880480" lon="-3.3680200">
        <ele>1254.0</ele>
        <time>2020-09-29T12:53:35Z</time>
      </trkpt>
      <trkpt lat="41.0879780" lon="-3.3680500">
        <ele>1254.0</ele>
        <time>2020-09-29T12:53:36Z</time>
      </trkpt>
      <trkpt lat="41.0879780" lon="-3.3680500">
        <ele>1254.0</ele>
        <time>2020-09-29T12:53:37Z</time>
      </trkpt>
      <trkpt lat="41.0878430" lon="-3.3681320">
        <ele>1254.0</ele>
        <time>2020-09-29T12:53:38Z</time>
      </trkpt>
      <trkpt lat="41.0878430" lon="-3.3681320">
        <ele>1253.0</ele>
        <time>2020-09-29T12:53:39Z</time>
      </trkpt>
      <trkpt lat="41.0877120" lon="-3.3682250">
        <ele>1253.0</ele>
        <time>2020-09-29T12:53:40Z</time>
      </trkpt>
      <trkpt lat="41.0877120" lon="-3.3682250">
        <ele>1253.0</ele>
        <time>2020-09-29T12:53:41Z</time>
      </trkpt>
      <trkpt lat="41.0875850" lon="-3.3683200">
        <ele>1253.0</ele>
        <time>2020-09-29T12:53:42Z</time>
      </trkpt>
      <trkpt lat="41.0875230" lon="-3.3683670">
        <ele>1253.0</ele>
        <time>2020-09-29T12:53:43Z</time>
      </trkpt>
      <trkpt lat="41.0875230" lon="-3.3683670">
        <ele>1253.0</ele>
        <time>2020-09-29T12:53:44Z</time>
      </trkpt>
      <trkpt lat="41.0873950" lon="-3.3684480">
        <ele>1253.0</ele>
        <time>2020-09-29T12:53:45Z</time>
      </trkpt>
      <trkpt lat="41.0873280" lon="-3.3684800">
        <ele>1253.0</ele>
        <time>2020-09-29T12:53:46Z</time>
      </trkpt>
      <trkpt lat="41.0873280" lon="-3.3684800">
        <ele>1252.0</ele>
        <time>2020-09-29T12:53:47Z</time>
      </trkpt>
      <trkpt lat="41.0871930" lon="-3.3685200">
        <ele>1252.0</ele>
        <time>2020-09-29T12:53:48Z</time>
      </trkpt>
      <trkpt lat="41.0871930" lon="-3.3685200">
        <ele>1252.0</ele>
        <time>2020-09-29T12:53:49Z</time>
      </trkpt>
      <trkpt lat="41.0870580" lon="-3.3685050">
        <ele>1252.0</ele>
        <time>2020-09-29T12:53:50Z</time>
      </trkpt>
      <trkpt lat="41.0870580" lon="-3.3685050">
        <ele>1251.0</ele>
        <time>2020-09-29T12:53:51Z</time>
      </trkpt>
      <trkpt lat="41.0869620" lon="-3.3683870">
        <ele>1251.0</ele>
        <time>2020-09-29T12:53:52Z</time>
      </trkpt>
      <trkpt lat="41.0869620" lon="-3.3683870">
        <ele>1249.0</ele>
        <time>2020-09-29T12:53:53Z</time>
      </trkpt>
      <trkpt lat="41.0869230" lon="-3.3682050">
        <ele>1249.0</ele>
        <time>2020-09-29T12:53:54Z</time>
      </trkpt>
      <trkpt lat="41.0869230" lon="-3.3682050">
        <ele>1247.0</ele>
        <time>2020-09-29T12:53:55Z</time>
      </trkpt>
      <trkpt lat="41.0869250" lon="-3.3680180">
        <ele>1247.0</ele>
        <time>2020-09-29T12:53:56Z</time>
      </trkpt>
      <trkpt lat="41.0869250" lon="-3.3680180">
        <ele>1246.0</ele>
        <time>2020-09-29T12:53:57Z</time>
      </trkpt>
      <trkpt lat="41.0869550" lon="-3.3678300">
        <ele>1246.0</ele>
        <time>2020-09-29T12:53:58Z</time>
      </trkpt>
      <trkpt lat="41.0869550" lon="-3.3678300">
        <ele>1244.0</ele>
        <time>2020-09-29T12:53:59Z</time>
      </trkpt>
      <trkpt lat="41.0869920" lon="-3.3676420">
        <ele>1244.0</ele>
        <time>2020-09-29T12:54:00Z</time>
      </trkpt>
      <trkpt lat="41.0869980" lon="-3.3675430">
        <ele>1243.0</ele>
        <time>2020-09-29T12:54:01Z</time>
      </trkpt>
      <trkpt lat="41.0869980" lon="-3.3675430">
        <ele>1243.0</ele>
        <time>2020-09-29T12:54:02Z</time>
      </trkpt>
      <trkpt lat="41.0869820" lon="-3.3673420">
        <ele>1242.0</ele>
        <time>2020-09-29T12:54:03Z</time>
      </trkpt>
      <trkpt lat="41.0869820" lon="-3.3673420">
        <ele>1242.0</ele>
        <time>2020-09-29T12:54:04Z</time>
      </trkpt>
      <trkpt lat="41.0869250" lon="-3.3671350">
        <ele>1240.0</ele>
        <time>2020-09-29T12:54:05Z</time>
      </trkpt>
      <trkpt lat="41.0869250" lon="-3.3671350">
        <ele>1240.0</ele>
        <time>2020-09-29T12:54:06Z</time>
      </trkpt>
      <trkpt lat="41.0868580" lon="-3.3669230">
        <ele>1238.0</ele>
        <time>2020-09-29T12:54:07Z</time>
      </trkpt>
      <trkpt lat="41.0868270" lon="-3.3668170">
        <ele>1238.0</ele>
        <time>2020-09-29T12:54:08Z</time>
      </trkpt>
      <trkpt lat="41.0868270" lon="-3.3668170">
        <ele>1237.0</ele>
        <time>2020-09-29T12:54:09Z</time>
      </trkpt>
      <trkpt lat="41.0867450" lon="-3.3665850">
        <ele>1237.0</ele>
        <time>2020-09-29T12:54:10Z</time>
      </trkpt>
      <trkpt lat="41.0866920" lon="-3.3664650">
        <ele>1234.0</ele>
        <time>2020-09-29T12:54:11Z</time>
      </trkpt>
      <trkpt lat="41.0866300" lon="-3.3663480">
        <ele>1232.0</ele>
        <time>2020-09-29T12:54:12Z</time>
      </trkpt>
      <trkpt lat="41.0865580" lon="-3.3662330">
        <ele>1232.0</ele>
        <time>2020-09-29T12:54:13Z</time>
      </trkpt>
      <trkpt lat="41.0865580" lon="-3.3662330">
        <ele>1230.0</ele>
        <time>2020-09-29T12:54:14Z</time>
      </trkpt>
      <trkpt lat="41.0864150" lon="-3.3659870">
        <ele>1230.0</ele>
        <time>2020-09-29T12:54:15Z</time>
      </trkpt>
      <trkpt lat="41.0863430" lon="-3.3658650">
        <ele>1227.0</ele>
        <time>2020-09-29T12:54:16Z</time>
      </trkpt>
      <trkpt lat="41.0863430" lon="-3.3658650">
        <ele>1227.0</ele>
        <time>2020-09-29T12:54:17Z</time>
      </trkpt>
      <trkpt lat="41.0861850" lon="-3.3656100">
        <ele>1225.0</ele>
        <time>2020-09-29T12:54:18Z</time>
      </trkpt>
      <trkpt lat="41.0861850" lon="-3.3656100">
        <ele>1225.0</ele>
        <time>2020-09-29T12:54:19Z</time>
      </trkpt>
      <trkpt lat="41.0860230" lon="-3.3653580">
        <ele>1223.0</ele>
        <time>2020-09-29T12:54:20Z</time>
      </trkpt>
      <trkpt lat="41.0860230" lon="-3.3653580">
        <ele>1223.0</ele>
        <time>2020-09-29T12:54:21Z</time>
      </trkpt>
      <trkpt lat="41.0858580" lon="-3.3651100">
        <ele>1221.0</ele>
        <time>2020-09-29T12:54:22Z</time>
      </trkpt>
      <trkpt lat="41.0857800" lon="-3.3649920">
        <ele>1221.0</ele>
        <time>2020-09-29T12:54:23Z</time>
      </trkpt>
      <trkpt lat="41.0857800" lon="-3.3649920">
        <ele>1220.0</ele>
        <time>2020-09-29T12:54:24Z</time>
      </trkpt>
      <trkpt lat="41.0856130" lon="-3.3647520">
        <ele>1220.0</ele>
        <time>2020-09-29T12:54:25Z</time>
      </trkpt>
      <trkpt lat="41.0856130" lon="-3.3647520">
        <ele>1218.0</ele>
        <time>2020-09-29T12:54:26Z</time>
      </trkpt>
      <trkpt lat="41.0854530" lon="-3.3645100">
        <ele>1218.0</ele>
        <time>2020-09-29T12:54:27Z</time>
      </trkpt>
      <trkpt lat="41.0853750" lon="-3.3643980">
        <ele>1217.0</ele>
        <time>2020-09-29T12:54:28Z</time>
      </trkpt>
      <trkpt lat="41.0853750" lon="-3.3643980">
        <ele>1217.0</ele>
        <time>2020-09-29T12:54:29Z</time>
      </trkpt>
      <trkpt lat="41.0851920" lon="-3.3642000">
        <ele>1216.0</ele>
        <time>2020-09-29T12:54:30Z</time>
      </trkpt>
      <trkpt lat="41.0850970" lon="-3.3641230">
        <ele>1216.0</ele>
        <time>2020-09-29T12:54:31Z</time>
      </trkpt>
      <trkpt lat="41.0850970" lon="-3.3641230">
        <ele>1215.0</ele>
        <time>2020-09-29T12:54:32Z</time>
      </trkpt>
      <trkpt lat="41.0848850" lon="-3.3639950">
        <ele>1215.0</ele>
        <time>2020-09-29T12:54:33Z</time>
      </trkpt>
      <trkpt lat="41.0848850" lon="-3.3639950">
        <ele>1214.0</ele>
        <time>2020-09-29T12:54:34Z</time>
      </trkpt>
      <trkpt lat="41.0846680" lon="-3.3638670">
        <ele>1214.0</ele>
        <time>2020-09-29T12:54:35Z</time>
      </trkpt>
      <trkpt lat="41.0846680" lon="-3.3638670">
        <ele>1213.0</ele>
        <time>2020-09-29T12:54:36Z</time>
      </trkpt>
      <trkpt lat="41.0844480" lon="-3.3637420">
        <ele>1213.0</ele>
        <time>2020-09-29T12:54:37Z</time>
      </trkpt>
      <trkpt lat="41.0843380" lon="-3.3636820">
        <ele>1212.0</ele>
        <time>2020-09-29T12:54:38Z</time>
      </trkpt>
      <trkpt lat="41.0843380" lon="-3.3636820">
        <ele>1212.0</ele>
        <time>2020-09-29T12:54:39Z</time>
      </trkpt>
      <trkpt lat="41.0841170" lon="-3.3635730">
        <ele>1211.0</ele>
        <time>2020-09-29T12:54:40Z</time>
      </trkpt>
      <trkpt lat="41.0841170" lon="-3.3635730">
        <ele>1211.0</ele>
        <time>2020-09-29T12:54:41Z</time>
      </trkpt>
      <trkpt lat="41.0838850" lon="-3.3634800">
        <ele>1210.0</ele>
        <time>2020-09-29T12:54:42Z</time>
      </trkpt>
      <trkpt lat="41.0837650" lon="-3.3634370">
        <ele>1210.0</ele>
        <time>2020-09-29T12:54:43Z</time>
      </trkpt>
      <trkpt lat="41.0837650" lon="-3.3634370">
        <ele>1208.0</ele>
        <time>2020-09-29T12:54:44Z</time>
      </trkpt>
      <trkpt lat="41.0835130" lon="-3.3633630">
        <ele>1208.0</ele>
        <time>2020-09-29T12:54:45Z</time>
      </trkpt>
      <trkpt lat="41.0835130" lon="-3.3633630">
        <ele>1206.0</ele>
        <time>2020-09-29T12:54:46Z</time>
      </trkpt>
      <trkpt lat="41.0832430" lon="-3.3633130">
        <ele>1203.0</ele>
        <time>2020-09-29T12:54:47Z</time>
      </trkpt>
      <trkpt lat="41.0832430" lon="-3.3633130">
        <ele>1203.0</ele>
        <time>2020-09-29T12:54:48Z</time>
      </trkpt>
      <trkpt lat="41.0829580" lon="-3.3632620">
        <ele>1200.0</ele>
        <time>2020-09-29T12:54:49Z</time>
      </trkpt>
      <trkpt lat="41.0829580" lon="-3.3632620">
        <ele>1200.0</ele>
        <time>2020-09-29T12:54:50Z</time>
      </trkpt>
      <trkpt lat="41.0826670" lon="-3.3632030">
        <ele>1197.0</ele>
        <time>2020-09-29T12:54:51Z</time>
      </trkpt>
      <trkpt lat="41.0826670" lon="-3.3632030">
        <ele>1197.0</ele>
        <time>2020-09-29T12:54:52Z</time>
      </trkpt>
      <trkpt lat="41.0823770" lon="-3.3631320">
        <ele>1194.0</ele>
        <time>2020-09-29T12:54:53Z</time>
      </trkpt>
      <trkpt lat="41.0823770" lon="-3.3631320">
        <ele>1194.0</ele>
        <time>2020-09-29T12:54:54Z</time>
      </trkpt>
      <trkpt lat="41.0820920" lon="-3.3630620">
        <ele>1191.0</ele>
        <time>2020-09-29T12:54:55Z</time>
      </trkpt>
      <trkpt lat="41.0820920" lon="-3.3630620">
        <ele>1191.0</ele>
        <time>2020-09-29T12:54:56Z</time>
      </trkpt>
      <trkpt lat="41.0818080" lon="-3.3629980">
        <ele>1188.0</ele>
        <time>2020-09-29T12:54:57Z</time>
      </trkpt>
      <trkpt lat="41.0818080" lon="-3.3629980">
        <ele>1188.0</ele>
        <time>2020-09-29T12:54:58Z</time>
      </trkpt>
      <trkpt lat="41.0815320" lon="-3.3629370">
        <ele>1185.0</ele>
        <time>2020-09-29T12:54:59Z</time>
      </trkpt>
      <trkpt lat="41.0813950" lon="-3.3629070">
        <ele>1185.0</ele>
        <time>2020-09-29T12:55:00Z</time>
      </trkpt>
      <trkpt lat="41.0813950" lon="-3.3629070">
        <ele>1183.0</ele>
        <time>2020-09-29T12:55:01Z</time>
      </trkpt>
      <trkpt lat="41.0811250" lon="-3.3628270">
        <ele>1183.0</ele>
        <time>2020-09-29T12:55:02Z</time>
      </trkpt>
      <trkpt lat="41.0811250" lon="-3.3628270">
        <ele>1181.0</ele>
        <time>2020-09-29T12:55:03Z</time>
      </trkpt>
      <trkpt lat="41.0808580" lon="-3.3627430">
        <ele>1181.0</ele>
        <time>2020-09-29T12:55:04Z</time>
      </trkpt>
      <trkpt lat="41.0807270" lon="-3.3626970">
        <ele>1178.0</ele>
        <time>2020-09-29T12:55:05Z</time>
      </trkpt>
      <trkpt lat="41.0807270" lon="-3.3626970">
        <ele>1178.0</ele>
        <time>2020-09-29T12:55:06Z</time>
      </trkpt>
      <trkpt lat="41.0804670" lon="-3.3625830">
        <ele>1176.0</ele>
        <time>2020-09-29T12:55:07Z</time>
      </trkpt>
      <trkpt lat="41.0804670" lon="-3.3625830">
        <ele>1176.0</ele>
        <time>2020-09-29T12:55:08Z</time>
      </trkpt>
      <trkpt lat="41.0802220" lon="-3.3624570">
        <ele>1175.0</ele>
        <time>2020-09-29T12:55:09Z</time>
      </trkpt>
      <trkpt lat="41.0802220" lon="-3.3624570">
        <ele>1175.0</ele>
        <time>2020-09-29T12:55:10Z</time>
      </trkpt>
      <trkpt lat="41.0799980" lon="-3.3623070">
        <ele>1174.0</ele>
        <time>2020-09-29T12:55:11Z</time>
      </trkpt>
      <trkpt lat="41.0799980" lon="-3.3623070">
        <ele>1174.0</ele>
        <time>2020-09-29T12:55:12Z</time>
      </trkpt>
      <trkpt lat="41.0797950" lon="-3.3621480">
        <ele>1174.0</ele>
        <time>2020-09-29T12:55:13Z</time>
      </trkpt>
      <trkpt lat="41.0797950" lon="-3.3621480">
        <ele>1174.0</ele>
        <time>2020-09-29T12:55:14Z</time>
      </trkpt>
      <trkpt lat="41.0796070" lon="-3.3619900">
        <ele>1173.0</ele>
        <time>2020-09-29T12:55:15Z</time>
      </trkpt>
      <trkpt lat="41.0795150" lon="-3.3619130">
        <ele>1173.0</ele>
        <time>2020-09-29T12:55:16Z</time>
      </trkpt>
      <trkpt lat="41.0795150" lon="-3.3619130">
        <ele>1172.0</ele>
        <time>2020-09-29T12:55:17Z</time>
      </trkpt>
      <trkpt lat="41.0793400" lon="-3.3617580">
        <ele>1172.0</ele>
        <time>2020-09-29T12:55:18Z</time>
      </trkpt>
      <trkpt lat="41.0793400" lon="-3.3617580">
        <ele>1171.0</ele>
        <time>2020-09-29T12:55:19Z</time>
      </trkpt>
      <trkpt lat="41.0791700" lon="-3.3616030">
        <ele>1171.0</ele>
        <time>2020-09-29T12:55:20Z</time>
      </trkpt>
      <trkpt lat="41.0791700" lon="-3.3616030">
        <ele>1171.0</ele>
        <time>2020-09-29T12:55:21Z</time>
      </trkpt>
      <trkpt lat="41.0790120" lon="-3.3614470">
        <ele>1171.0</ele>
        <time>2020-09-29T12:55:22Z</time>
      </trkpt>
      <trkpt lat="41.0789350" lon="-3.3613680">
        <ele>1171.0</ele>
        <time>2020-09-29T12:55:23Z</time>
      </trkpt>
      <trkpt lat="41.0789350" lon="-3.3613680">
        <ele>1170.0</ele>
        <time>2020-09-29T12:55:24Z</time>
      </trkpt>
      <trkpt lat="41.0787880" lon="-3.3612020">
        <ele>1170.0</ele>
        <time>2020-09-29T12:55:25Z</time>
      </trkpt>
      <trkpt lat="41.0787880" lon="-3.3612020">
        <ele>1170.0</ele>
        <time>2020-09-29T12:55:26Z</time>
      </trkpt>
      <trkpt lat="41.0786380" lon="-3.3610350">
        <ele>1170.0</ele>
        <time>2020-09-29T12:55:27Z</time>
      </trkpt>
      <trkpt lat="41.0786380" lon="-3.3610350">
        <ele>1169.0</ele>
        <time>2020-09-29T12:55:28Z</time>
      </trkpt>
      <trkpt lat="41.0784850" lon="-3.3608670">
        <ele>1169.0</ele>
        <time>2020-09-29T12:55:29Z</time>
      </trkpt>
      <trkpt lat="41.0784080" lon="-3.3607820">
        <ele>1168.0</ele>
        <time>2020-09-29T12:55:30Z</time>
      </trkpt>
      <trkpt lat="41.0783320" lon="-3.3606980">
        <ele>1168.0</ele>
        <time>2020-09-29T12:55:31Z</time>
      </trkpt>
      <trkpt lat="41.0782600" lon="-3.3606200">
        <ele>1167.0</ele>
        <time>2020-09-29T12:55:32Z</time>
      </trkpt>
      <trkpt lat="41.0782600" lon="-3.3606200">
        <ele>1167.0</ele>
        <time>2020-09-29T12:55:33Z</time>
      </trkpt>
      <trkpt lat="41.0781230" lon="-3.3604680">
        <ele>1165.0</ele>
        <time>2020-09-29T12:55:34Z</time>
      </trkpt>
      <trkpt lat="41.0781230" lon="-3.3604680">
        <ele>1165.0</ele>
        <time>2020-09-29T12:55:35Z</time>
      </trkpt>
      <trkpt lat="41.0780130" lon="-3.3603330">
        <ele>1164.0</ele>
        <time>2020-09-29T12:55:36Z</time>
      </trkpt>
      <trkpt lat="41.0779680" lon="-3.3602770">
        <ele>1164.0</ele>
        <time>2020-09-29T12:55:37Z</time>
      </trkpt>
      <trkpt lat="41.0779680" lon="-3.3602770">
        <ele>1162.0</ele>
        <time>2020-09-29T12:55:38Z</time>
      </trkpt>
      <trkpt lat="41.0779070" lon="-3.3602000">
        <ele>1162.0</ele>
        <time>2020-09-29T12:55:39Z</time>
      </trkpt>
      <trkpt lat="41.0779070" lon="-3.3602000">
        <ele>1162.0</ele>
        <time>2020-09-29T12:55:40Z</time>
      </trkpt>
      <trkpt lat="41.0778750" lon="-3.3601650">
        <ele>1161.0</ele>
        <time>2020-09-29T12:55:41Z</time>
      </trkpt>
      <trkpt lat="41.0778750" lon="-3.3601650">
        <ele>1161.0</ele>
        <time>2020-09-29T12:55:42Z</time>
      </trkpt>
      <trkpt lat="41.0778700" lon="-3.3601620">
        <ele>1159.0</ele>
        <time>2020-09-29T12:55:43Z</time>
      </trkpt>
      <trkpt lat="41.0778700" lon="-3.3601620">
        <ele>1159.0</ele>
        <time>2020-09-29T12:55:44Z</time>
      </trkpt>
      <trkpt lat="41.0778720" lon="-3.3601620">
        <ele>1159.0</ele>
        <time>2020-09-29T12:57:30Z</time>
      </trkpt>
      <trkpt lat="41.0778650" lon="-3.3601000">
        <ele>1159.0</ele>
        <time>2020-09-29T12:57:31Z</time>
      </trkpt>
      <trkpt lat="41.0778650" lon="-3.3601000">
        <ele>1158.0</ele>
        <time>2020-09-29T12:57:32Z</time>
      </trkpt>
      <trkpt lat="41.0778100" lon="-3.3600200">
        <ele>1158.0</ele>
        <time>2020-09-29T12:57:33Z</time>
      </trkpt>
      <trkpt lat="41.0778100" lon="-3.3600200">
        <ele>1157.0</ele>
        <time>2020-09-29T12:57:34Z</time>
      </trkpt>
      <trkpt lat="41.0777320" lon="-3.3599150">
        <ele>1157.0</ele>
        <time>2020-09-29T12:57:35Z</time>
      </trkpt>
      <trkpt lat="41.0777320" lon="-3.3599150">
        <ele>1157.0</ele>
        <time>2020-09-29T12:57:36Z</time>
      </trkpt>
      <trkpt lat="41.0776370" lon="-3.3597720">
        <ele>1157.0</ele>
        <time>2020-09-29T12:57:37Z</time>
      </trkpt>
      <trkpt lat="41.0776370" lon="-3.3597720">
        <ele>1156.0</ele>
        <time>2020-09-29T12:57:38Z</time>
      </trkpt>
      <trkpt lat="41.0775330" lon="-3.3595970">
        <ele>1156.0</ele>
        <time>2020-09-29T12:57:39Z</time>
      </trkpt>
      <trkpt lat="41.0774830" lon="-3.3594980">
        <ele>1154.0</ele>
        <time>2020-09-29T12:57:40Z</time>
      </trkpt>
      <trkpt lat="41.0774830" lon="-3.3594980">
        <ele>1154.0</ele>
        <time>2020-09-29T12:57:41Z</time>
      </trkpt>
      <trkpt lat="41.0773930" lon="-3.3592920">
        <ele>1153.0</ele>
        <time>2020-09-29T12:57:42Z</time>
      </trkpt>
      <trkpt lat="41.0773930" lon="-3.3592920">
        <ele>1153.0</ele>
        <time>2020-09-29T12:57:43Z</time>
      </trkpt>
      <trkpt lat="41.0773430" lon="-3.3591050">
        <ele>1151.0</ele>
        <time>2020-09-29T12:57:44Z</time>
      </trkpt>
      <trkpt lat="41.0773430" lon="-3.3591050">
        <ele>1151.0</ele>
        <time>2020-09-29T12:57:45Z</time>
      </trkpt>
      <trkpt lat="41.0773200" lon="-3.3589370">
        <ele>1149.0</ele>
        <time>2020-09-29T12:57:46Z</time>
      </trkpt>
      <trkpt lat="41.0773200" lon="-3.3589370">
        <ele>1149.0</ele>
        <time>2020-09-29T12:57:47Z</time>
      </trkpt>
      <trkpt lat="41.0773050" lon="-3.3587970">
        <ele>1147.0</ele>
        <time>2020-09-29T12:57:48Z</time>
      </trkpt>
      <trkpt lat="41.0773000" lon="-3.3587420">
        <ele>1146.0</ele>
        <time>2020-09-29T12:57:49Z</time>
      </trkpt>
      <trkpt lat="41.0773000" lon="-3.3587420">
        <ele>1146.0</ele>
        <time>2020-09-29T12:57:50Z</time>
      </trkpt>
      <trkpt lat="41.0772920" lon="-3.3586750">
        <ele>1144.0</ele>
        <time>2020-09-29T12:57:51Z</time>
      </trkpt>
      <trkpt lat="41.0772900" lon="-3.3586630">
        <ele>1144.0</ele>
        <time>2020-09-29T12:57:52Z</time>
      </trkpt>
      <trkpt lat="41.0772900" lon="-3.3586630">
        <ele>1144.0</ele>
        <time>2020-09-29T12:57:53Z</time>
      </trkpt>
      <trkpt lat="41.0772950" lon="-3.3586630">
        <ele>1143.0</ele>
        <time>2020-09-29T12:57:54Z</time>
      </trkpt>
      <trkpt lat="41.0772950" lon="-3.3586630">
        <ele>1143.0</ele>
        <time>2020-09-29T12:57:55Z</time>
      </trkpt>
      <trkpt lat="41.0772950" lon="-3.3586630">
        <ele>1143.0</ele>
        <time>2020-09-29T13:00:51Z</time>
      </trkpt>
      <trkpt lat="41.0772950" lon="-3.3586630">
        <ele>1143.0</ele>
        <time>2020-09-29T13:00:52Z</time>
      </trkpt>
      <trkpt lat="41.0772520" lon="-3.3585050">
        <ele>1143.0</ele>
        <time>2020-09-29T13:00:53Z</time>
      </trkpt>
      <trkpt lat="41.0772520" lon="-3.3585050">
        <ele>1140.0</ele>
        <time>2020-09-29T13:00:54Z</time>
      </trkpt>
      <trkpt lat="41.0772250" lon="-3.3583500">
        <ele>1140.0</ele>
        <time>2020-09-29T13:00:55Z</time>
      </trkpt>
      <trkpt lat="41.0772250" lon="-3.3583500">
        <ele>1138.0</ele>
        <time>2020-09-29T13:00:56Z</time>
      </trkpt>
      <trkpt lat="41.0771820" lon="-3.3581730">
        <ele>1138.0</ele>
        <time>2020-09-29T13:00:57Z</time>
      </trkpt>
      <trkpt lat="41.0771580" lon="-3.3580770">
        <ele>1137.0</ele>
        <time>2020-09-29T13:00:58Z</time>
      </trkpt>
      <trkpt lat="41.0771580" lon="-3.3580770">
        <ele>1137.0</ele>
        <time>2020-09-29T13:00:59Z</time>
      </trkpt>
      <trkpt lat="41.0771020" lon="-3.3578800">
        <ele>1135.0</ele>
        <time>2020-09-29T13:01:00Z</time>
      </trkpt>
      <trkpt lat="41.0770720" lon="-3.3577820">
        <ele>1133.0</ele>
        <time>2020-09-29T13:01:01Z</time>
      </trkpt>
      <trkpt lat="41.0770720" lon="-3.3577820">
        <ele>1133.0</ele>
        <time>2020-09-29T13:01:02Z</time>
      </trkpt>
      <trkpt lat="41.0770020" lon="-3.3575900">
        <ele>1130.0</ele>
        <time>2020-09-29T13:01:03Z</time>
      </trkpt>
      <trkpt lat="41.0769620" lon="-3.3575000">
        <ele>1130.0</ele>
        <time>2020-09-29T13:01:04Z</time>
      </trkpt>
      <trkpt lat="41.0769620" lon="-3.3575000">
        <ele>1127.0</ele>
        <time>2020-09-29T13:01:05Z</time>
      </trkpt>
      <trkpt lat="41.0768780" lon="-3.3573280">
        <ele>1127.0</ele>
        <time>2020-09-29T13:01:06Z</time>
      </trkpt>
      <trkpt lat="41.0768250" lon="-3.3572520">
        <ele>1125.0</ele>
        <time>2020-09-29T13:01:07Z</time>
      </trkpt>
      <trkpt lat="41.0768250" lon="-3.3572520">
        <ele>1125.0</ele>
        <time>2020-09-29T13:01:08Z</time>
      </trkpt>
      <trkpt lat="41.0766830" lon="-3.3571380">
        <ele>1123.0</ele>
        <time>2020-09-29T13:01:09Z</time>
      </trkpt>
      <trkpt lat="41.0765980" lon="-3.3570970">
        <ele>1123.0</ele>
        <time>2020-09-29T13:01:10Z</time>
      </trkpt>
      <trkpt lat="41.0765980" lon="-3.3570970">
        <ele>1121.0</ele>
        <time>2020-09-29T13:01:11Z</time>
      </trkpt>
      <trkpt lat="41.0764250" lon="-3.3570200">
        <ele>1121.0</ele>
        <time>2020-09-29T13:01:12Z</time>
      </trkpt>
      <trkpt lat="41.0763330" lon="-3.3569820">
        <ele>1119.0</ele>
        <time>2020-09-29T13:01:13Z</time>
      </trkpt>
      <trkpt lat="41.0763330" lon="-3.3569820">
        <ele>1119.0</ele>
        <time>2020-09-29T13:01:14Z</time>
      </trkpt>
      <trkpt lat="41.0761520" lon="-3.3569080">
        <ele>1117.0</ele>
        <time>2020-09-29T13:01:15Z</time>
      </trkpt>
      <trkpt lat="41.0760670" lon="-3.3568700">
        <ele>1117.0</ele>
        <time>2020-09-29T13:01:16Z</time>
      </trkpt>
      <trkpt lat="41.0760670" lon="-3.3568700">
        <ele>1115.0</ele>
        <time>2020-09-29T13:01:17Z</time>
      </trkpt>
      <trkpt lat="41.0759200" lon="-3.3568050">
        <ele>1115.0</ele>
        <time>2020-09-29T13:01:18Z</time>
      </trkpt>
      <trkpt lat="41.0758570" lon="-3.3567850">
        <ele>1113.0</ele>
        <time>2020-09-29T13:01:19Z</time>
      </trkpt>
      <trkpt lat="41.0758570" lon="-3.3567850">
        <ele>1113.0</ele>
        <time>2020-09-29T13:01:20Z</time>
      </trkpt>
      <trkpt lat="41.0757600" lon="-3.3567550">
        <ele>1112.0</ele>
        <time>2020-09-29T13:01:21Z</time>
      </trkpt>
      <trkpt lat="41.0757600" lon="-3.3567550">
        <ele>1112.0</ele>
        <time>2020-09-29T13:01:22Z</time>
      </trkpt>
      <trkpt lat="41.0756930" lon="-3.3567400">
        <ele>1111.0</ele>
        <time>2020-09-29T13:01:23Z</time>
      </trkpt>
      <trkpt lat="41.0756670" lon="-3.3567350">
        <ele>1111.0</ele>
        <time>2020-09-29T13:01:24Z</time>
      </trkpt>
      <trkpt lat="41.0756470" lon="-3.3567300">
        <ele>1109.0</ele>
        <time>2020-09-29T13:01:25Z</time>
      </trkpt>
      <trkpt lat="41.0756470" lon="-3.3567300">
        <ele>1109.0</ele>
        <time>2020-09-29T13:01:26Z</time>
      </trkpt>
      <trkpt lat="41.0756120" lon="-3.3567080">
        <ele>1109.0</ele>
        <time>2020-09-29T13:01:27Z</time>
      </trkpt>
      <trkpt lat="41.0756120" lon="-3.3567080">
        <ele>1109.0</ele>
        <time>2020-09-29T13:01:28Z</time>
      </trkpt>
      <trkpt lat="41.0755970" lon="-3.3566930">
        <ele>1108.0</ele>
        <time>2020-09-29T13:01:29Z</time>
      </trkpt>
      <trkpt lat="41.0755970" lon="-3.3566930">
        <ele>1108.0</ele>
        <time>2020-09-29T13:01:30Z</time>
      </trkpt>
      <trkpt lat="41.0755980" lon="-3.3566930">
        <ele>1108.0</ele>
        <time>2020-09-29T13:01:31Z</time>
      </trkpt>
      <trkpt lat="41.0755570" lon="-3.3567020">
        <ele>1108.0</ele>
        <time>2020-09-29T13:04:37Z</time>
      </trkpt>
      <trkpt lat="41.0755230" lon="-3.3566970">
        <ele>1107.0</ele>
        <time>2020-09-29T13:04:38Z</time>
      </trkpt>
      <trkpt lat="41.0754880" lon="-3.3566920">
        <ele>1107.0</ele>
        <time>2020-09-29T13:04:39Z</time>
      </trkpt>
      <trkpt lat="41.0754880" lon="-3.3566920">
        <ele>1106.0</ele>
        <time>2020-09-29T13:04:40Z</time>
      </trkpt>
      <trkpt lat="41.0754180" lon="-3.3566780">
        <ele>1106.0</ele>
        <time>2020-09-29T13:04:41Z</time>
      </trkpt>
      <trkpt lat="41.0754180" lon="-3.3566780">
        <ele>1105.0</ele>
        <time>2020-09-29T13:04:42Z</time>
      </trkpt>
      <trkpt lat="41.0753380" lon="-3.3566630">
        <ele>1105.0</ele>
        <time>2020-09-29T13:04:43Z</time>
      </trkpt>
      <trkpt lat="41.0753380" lon="-3.3566630">
        <ele>1104.0</ele>
        <time>2020-09-29T13:04:44Z</time>
      </trkpt>
      <trkpt lat="41.0752550" lon="-3.3566420">
        <ele>1104.0</ele>
        <time>2020-09-29T13:04:45Z</time>
      </trkpt>
      <trkpt lat="41.0752550" lon="-3.3566420">
        <ele>1103.0</ele>
        <time>2020-09-29T13:04:46Z</time>
      </trkpt>
      <trkpt lat="41.0751800" lon="-3.3566200">
        <ele>1102.0</ele>
        <time>2020-09-29T13:04:47Z</time>
      </trkpt>
      <trkpt lat="41.0751430" lon="-3.3566100">
        <ele>1102.0</ele>
        <time>2020-09-29T13:04:48Z</time>
      </trkpt>
      <trkpt lat="41.0751430" lon="-3.3566100">
        <ele>1101.0</ele>
        <time>2020-09-29T13:04:49Z</time>
      </trkpt>
      <trkpt lat="41.0750720" lon="-3.3565920">
        <ele>1101.0</ele>
        <time>2020-09-29T13:04:50Z</time>
      </trkpt>
      <trkpt lat="41.0750370" lon="-3.3565850">
        <ele>1100.0</ele>
        <time>2020-09-29T13:04:51Z</time>
      </trkpt>
      <trkpt lat="41.0750370" lon="-3.3565850">
        <ele>1100.0</ele>
        <time>2020-09-29T13:04:52Z</time>
      </trkpt>
      <trkpt lat="41.0749630" lon="-3.3565670">
        <ele>1099.0</ele>
        <time>2020-09-29T13:04:53Z</time>
      </trkpt>
      <trkpt lat="41.0749630" lon="-3.3565670">
        <ele>1099.0</ele>
        <time>2020-09-29T13:04:54Z</time>
      </trkpt>
      <trkpt lat="41.0748870" lon="-3.3565450">
        <ele>1098.0</ele>
        <time>2020-09-29T13:04:55Z</time>
      </trkpt>
      <trkpt lat="41.0748870" lon="-3.3565450">
        <ele>1098.0</ele>
        <time>2020-09-29T13:04:56Z</time>
      </trkpt>
      <trkpt lat="41.0748080" lon="-3.3565220">
        <ele>1097.0</ele>
        <time>2020-09-29T13:04:57Z</time>
      </trkpt>
      <trkpt lat="41.0747680" lon="-3.3565050">
        <ele>1097.0</ele>
        <time>2020-09-29T13:04:58Z</time>
      </trkpt>
      <trkpt lat="41.0747680" lon="-3.3565050">
        <ele>1096.0</ele>
        <time>2020-09-29T13:04:59Z</time>
      </trkpt>
      <trkpt lat="41.0746820" lon="-3.3564770">
        <ele>1096.0</ele>
        <time>2020-09-29T13:05:00Z</time>
      </trkpt>
      <trkpt lat="41.0746330" lon="-3.3564600">
        <ele>1094.0</ele>
        <time>2020-09-29T13:05:01Z</time>
      </trkpt>
      <trkpt lat="41.0746330" lon="-3.3564600">
        <ele>1094.0</ele>
        <time>2020-09-29T13:05:02Z</time>
      </trkpt>
      <trkpt lat="41.0745400" lon="-3.3564330">
        <ele>1093.0</ele>
        <time>2020-09-29T13:05:03Z</time>
      </trkpt>
      <trkpt lat="41.0745400" lon="-3.3564330">
        <ele>1093.0</ele>
        <time>2020-09-29T13:05:04Z</time>
      </trkpt>
      <trkpt lat="41.0744520" lon="-3.3564120">
        <ele>1091.0</ele>
        <time>2020-09-29T13:05:05Z</time>
      </trkpt>
      <trkpt lat="41.0744080" lon="-3.3564070">
        <ele>1091.0</ele>
        <time>2020-09-29T13:05:06Z</time>
      </trkpt>
      <trkpt lat="41.0744080" lon="-3.3564070">
        <ele>1090.0</ele>
        <time>2020-09-29T13:05:07Z</time>
      </trkpt>
      <trkpt lat="41.0743200" lon="-3.3563930">
        <ele>1090.0</ele>
        <time>2020-09-29T13:05:08Z</time>
      </trkpt>
      <trkpt lat="41.0743200" lon="-3.3563930">
        <ele>1088.0</ele>
        <time>2020-09-29T13:05:09Z</time>
      </trkpt>
      <trkpt lat="41.0742330" lon="-3.3563780">
        <ele>1088.0</ele>
        <time>2020-09-29T13:05:10Z</time>
      </trkpt>
      <trkpt lat="41.0741930" lon="-3.3563730">
        <ele>1087.0</ele>
        <time>2020-09-29T13:05:11Z</time>
      </trkpt>
      <trkpt lat="41.0741930" lon="-3.3563730">
        <ele>1087.0</ele>
        <time>2020-09-29T13:05:12Z</time>
      </trkpt>
      <trkpt lat="41.0741070" lon="-3.3563720">
        <ele>1086.0</ele>
        <time>2020-09-29T13:05:13Z</time>
      </trkpt>
      <trkpt lat="41.0741070" lon="-3.3563720">
        <ele>1086.0</ele>
        <time>2020-09-29T13:05:14Z</time>
      </trkpt>
      <trkpt lat="41.0740170" lon="-3.3563750">
        <ele>1084.0</ele>
        <time>2020-09-29T13:05:15Z</time>
      </trkpt>
      <trkpt lat="41.0740170" lon="-3.3563750">
        <ele>1084.0</ele>
        <time>2020-09-29T13:05:16Z</time>
      </trkpt>
      <trkpt lat="41.0739270" lon="-3.3563730">
        <ele>1083.0</ele>
        <time>2020-09-29T13:05:17Z</time>
      </trkpt>
      <trkpt lat="41.0739270" lon="-3.3563730">
        <ele>1083.0</ele>
        <time>2020-09-29T13:05:18Z</time>
      </trkpt>
      <trkpt lat="41.0739270" lon="-3.3563730">
        <ele>1081.0</ele>
        <time>2020-09-29T13:05:19Z</time>
      </trkpt>
      <trkpt lat="41.0738380" lon="-3.3563750">
        <ele>1081.0</ele>
        <time>2020-09-29T13:05:20Z</time>
      </trkpt>
      <trkpt lat="41.0737520" lon="-3.3563780">
        <ele>1080.0</ele>
        <time>2020-09-29T13:05:21Z</time>
      </trkpt>
      <trkpt lat="41.0737520" lon="-3.3563780">
        <ele>1078.0</ele>
        <time>2020-09-29T13:05:22Z</time>
      </trkpt>
      <trkpt lat="41.0736770" lon="-3.3563850">
        <ele>1078.0</ele>
        <time>2020-09-29T13:05:23Z</time>
      </trkpt>
      <trkpt lat="41.0736400" lon="-3.3563820">
        <ele>1078.0</ele>
        <time>2020-09-29T13:05:24Z</time>
      </trkpt>
      <trkpt lat="41.0736400" lon="-3.3563820">
        <ele>1077.0</ele>
        <time>2020-09-29T13:05:25Z</time>
      </trkpt>
      <trkpt lat="41.0735620" lon="-3.3563820">
        <ele>1077.0</ele>
        <time>2020-09-29T13:05:26Z</time>
      </trkpt>
      <trkpt lat="41.0735170" lon="-3.3563830">
        <ele>1076.0</ele>
        <time>2020-09-29T13:05:27Z</time>
      </trkpt>
      <trkpt lat="41.0735170" lon="-3.3563830">
        <ele>1075.0</ele>
        <time>2020-09-29T13:05:28Z</time>
      </trkpt>
      <trkpt lat="41.0734330" lon="-3.3563730">
        <ele>1075.0</ele>
        <time>2020-09-29T13:05:29Z</time>
      </trkpt>
      <trkpt lat="41.0734330" lon="-3.3563730">
        <ele>1073.0</ele>
        <time>2020-09-29T13:05:30Z</time>
      </trkpt>
      <trkpt lat="41.0733500" lon="-3.3563580">
        <ele>1073.0</ele>
        <time>2020-09-29T13:05:31Z</time>
      </trkpt>
      <trkpt lat="41.0733030" lon="-3.3563580">
        <ele>1072.0</ele>
        <time>2020-09-29T13:05:32Z</time>
      </trkpt>
      <trkpt lat="41.0733030" lon="-3.3563580">
        <ele>1072.0</ele>
        <time>2020-09-29T13:05:33Z</time>
      </trkpt>
      <trkpt lat="41.0732170" lon="-3.3563150">
        <ele>1071.0</ele>
        <time>2020-09-29T13:05:34Z</time>
      </trkpt>
      <trkpt lat="41.0731770" lon="-3.3562900">
        <ele>1071.0</ele>
        <time>2020-09-29T13:05:35Z</time>
      </trkpt>
      <trkpt lat="41.0731400" lon="-3.3562600">
        <ele>1070.0</ele>
        <time>2020-09-29T13:05:36Z</time>
      </trkpt>
      <trkpt lat="41.0731400" lon="-3.3562600">
        <ele>1070.0</ele>
        <time>2020-09-29T13:05:37Z</time>
      </trkpt>
      <trkpt lat="41.0730630" lon="-3.3562000">
        <ele>1068.0</ele>
        <time>2020-09-29T13:05:38Z</time>
      </trkpt>
      <trkpt lat="41.0730630" lon="-3.3562000">
        <ele>1068.0</ele>
        <time>2020-09-29T13:05:39Z</time>
      </trkpt>
      <trkpt lat="41.0729900" lon="-3.3561480">
        <ele>1067.0</ele>
        <time>2020-09-29T13:05:40Z</time>
      </trkpt>
      <trkpt lat="41.0729900" lon="-3.3561480">
        <ele>1067.0</ele>
        <time>2020-09-29T13:05:41Z</time>
      </trkpt>
      <trkpt lat="41.0729200" lon="-3.3560900">
        <ele>1066.0</ele>
        <time>2020-09-29T13:05:42Z</time>
      </trkpt>
      <trkpt lat="41.0728830" lon="-3.3560550">
        <ele>1066.0</ele>
        <time>2020-09-29T13:05:43Z</time>
      </trkpt>
      <trkpt lat="41.0728830" lon="-3.3560550">
        <ele>1065.0</ele>
        <time>2020-09-29T13:05:44Z</time>
      </trkpt>
      <trkpt lat="41.0727980" lon="-3.3559980">
        <ele>1065.0</ele>
        <time>2020-09-29T13:05:45Z</time>
      </trkpt>
      <trkpt lat="41.0727980" lon="-3.3559980">
        <ele>1064.0</ele>
        <time>2020-09-29T13:05:46Z</time>
      </trkpt>
      <trkpt lat="41.0727170" lon="-3.3559530">
        <ele>1064.0</ele>
        <time>2020-09-29T13:05:47Z</time>
      </trkpt>
      <trkpt lat="41.0727170" lon="-3.3559530">
        <ele>1062.0</ele>
        <time>2020-09-29T13:05:48Z</time>
      </trkpt>
      <trkpt lat="41.0726370" lon="-3.3559080">
        <ele>1062.0</ele>
        <time>2020-09-29T13:05:49Z</time>
      </trkpt>
      <trkpt lat="41.0726370" lon="-3.3559080">
        <ele>1061.0</ele>
        <time>2020-09-29T13:05:50Z</time>
      </trkpt>
      <trkpt lat="41.0725570" lon="-3.3558580">
        <ele>1061.0</ele>
        <time>2020-09-29T13:05:51Z</time>
      </trkpt>
      <trkpt lat="41.0725170" lon="-3.3558350">
        <ele>1060.0</ele>
        <time>2020-09-29T13:05:52Z</time>
      </trkpt>
      <trkpt lat="41.0725170" lon="-3.3558350">
        <ele>1060.0</ele>
        <time>2020-09-29T13:05:53Z</time>
      </trkpt>
      <trkpt lat="41.0724370" lon="-3.3557920">
        <ele>1059.0</ele>
        <time>2020-09-29T13:05:54Z</time>
      </trkpt>
      <trkpt lat="41.0724370" lon="-3.3557920">
        <ele>1059.0</ele>
        <time>2020-09-29T13:05:55Z</time>
      </trkpt>
      <trkpt lat="41.0723630" lon="-3.3557450">
        <ele>1058.0</ele>
        <time>2020-09-29T13:05:56Z</time>
      </trkpt>
      <trkpt lat="41.0723630" lon="-3.3557450">
        <ele>1057.0</ele>
        <time>2020-09-29T13:05:57Z</time>
      </trkpt>
      <trkpt lat="41.0722830" lon="-3.3557000">
        <ele>1057.0</ele>
        <time>2020-09-29T13:05:58Z</time>
      </trkpt>
      <trkpt lat="41.0722420" lon="-3.3556670">
        <ele>1057.0</ele>
        <time>2020-09-29T13:05:59Z</time>
      </trkpt>
      <trkpt lat="41.0722420" lon="-3.3556670">
        <ele>1056.0</ele>
        <time>2020-09-29T13:06:00Z</time>
      </trkpt>
      <trkpt lat="41.0721750" lon="-3.3556000">
        <ele>1056.0</ele>
        <time>2020-09-29T13:06:01Z</time>
      </trkpt>
      <trkpt lat="41.0721750" lon="-3.3556000">
        <ele>1055.0</ele>
        <time>2020-09-29T13:06:02Z</time>
      </trkpt>
      <trkpt lat="41.0721080" lon="-3.3555420">
        <ele>1055.0</ele>
        <time>2020-09-29T13:06:03Z</time>
      </trkpt>
      <trkpt lat="41.0720720" lon="-3.3555080">
        <ele>1054.0</ele>
        <time>2020-09-29T13:06:04Z</time>
      </trkpt>
      <trkpt lat="41.0720720" lon="-3.3555080">
        <ele>1052.0</ele>
        <time>2020-09-29T13:06:05Z</time>
      </trkpt>
      <trkpt lat="41.0720150" lon="-3.3554400">
        <ele>1052.0</ele>
        <time>2020-09-29T13:06:06Z</time>
      </trkpt>
      <trkpt lat="41.0720150" lon="-3.3554400">
        <ele>1051.0</ele>
        <time>2020-09-29T13:06:07Z</time>
      </trkpt>
      <trkpt lat="41.0719630" lon="-3.3553670">
        <ele>1051.0</ele>
        <time>2020-09-29T13:06:08Z</time>
      </trkpt>
      <trkpt lat="41.0719630" lon="-3.3553670">
        <ele>1050.0</ele>
        <time>2020-09-29T13:06:09Z</time>
      </trkpt>
      <trkpt lat="41.0719100" lon="-3.3552970">
        <ele>1050.0</ele>
        <time>2020-09-29T13:06:10Z</time>
      </trkpt>
      <trkpt lat="41.0719100" lon="-3.3552970">
        <ele>1049.0</ele>
        <time>2020-09-29T13:06:11Z</time>
      </trkpt>
      <trkpt lat="41.0718450" lon="-3.3552380">
        <ele>1049.0</ele>
        <time>2020-09-29T13:06:12Z</time>
      </trkpt>
      <trkpt lat="41.0718450" lon="-3.3552380">
        <ele>1047.0</ele>
        <time>2020-09-29T13:06:13Z</time>
      </trkpt>
      <trkpt lat="41.0717830" lon="-3.3551970">
        <ele>1047.0</ele>
        <time>2020-09-29T13:06:14Z</time>
      </trkpt>
      <trkpt lat="41.0717650" lon="-3.3551700">
        <ele>1046.0</ele>
        <time>2020-09-29T13:06:15Z</time>
      </trkpt>
      <trkpt lat="41.0717650" lon="-3.3551700">
        <ele>1046.0</ele>
        <time>2020-09-29T13:06:16Z</time>
      </trkpt>
      <trkpt lat="41.0717380" lon="-3.3551030">
        <ele>1046.0</ele>
        <time>2020-09-29T13:06:17Z</time>
      </trkpt>
      <trkpt lat="41.0717350" lon="-3.3550630">
        <ele>1046.0</ele>
        <time>2020-09-29T13:06:18Z</time>
      </trkpt>
      <trkpt lat="41.0717450" lon="-3.3550280">
        <ele>1045.0</ele>
        <time>2020-09-29T13:06:19Z</time>
      </trkpt>
      <trkpt lat="41.0717450" lon="-3.3550280">
        <ele>1045.0</ele>
        <time>2020-09-29T13:06:20Z</time>
      </trkpt>
      <trkpt lat="41.0717780" lon="-3.3549870">
        <ele>1045.0</ele>
        <time>2020-09-29T13:06:21Z</time>
      </trkpt>
      <trkpt lat="41.0717780" lon="-3.3549870">
        <ele>1045.0</ele>
        <time>2020-09-29T13:06:22Z</time>
      </trkpt>
      <trkpt lat="41.0718270" lon="-3.3549720">
        <ele>1044.0</ele>
        <time>2020-09-29T13:06:23Z</time>
      </trkpt>
      <trkpt lat="41.0718270" lon="-3.3549720">
        <ele>1044.0</ele>
        <time>2020-09-29T13:06:24Z</time>
      </trkpt>
      <trkpt lat="41.0718700" lon="-3.3549930">
        <ele>1044.0</ele>
        <time>2020-09-29T13:06:25Z</time>
      </trkpt>
      <trkpt lat="41.0718900" lon="-3.3550130">
        <ele>1044.0</ele>
        <time>2020-09-29T13:06:26Z</time>
      </trkpt>
      <trkpt lat="41.0718900" lon="-3.3550130">
        <ele>1044.0</ele>
        <time>2020-09-29T13:06:27Z</time>
      </trkpt>
      <trkpt lat="41.0719270" lon="-3.3550720">
        <ele>1044.0</ele>
        <time>2020-09-29T13:06:28Z</time>
      </trkpt>
      <trkpt lat="41.0719480" lon="-3.3551020">
        <ele>1043.0</ele>
        <time>2020-09-29T13:06:29Z</time>
      </trkpt>
      <trkpt lat="41.0719480" lon="-3.3551020">
        <ele>1043.0</ele>
        <time>2020-09-29T13:06:30Z</time>
      </trkpt>
      <trkpt lat="41.0719880" lon="-3.3551370">
        <ele>1042.0</ele>
        <time>2020-09-29T13:06:31Z</time>
      </trkpt>
      <trkpt lat="41.0719880" lon="-3.3551370">
        <ele>1042.0</ele>
        <time>2020-09-29T13:06:32Z</time>
      </trkpt>
      <trkpt lat="41.0720200" lon="-3.3551500">
        <ele>1042.0</ele>
        <time>2020-09-29T13:06:33Z</time>
      </trkpt>
      <trkpt lat="41.0720370" lon="-3.3551530">
        <ele>1041.0</ele>
        <time>2020-09-29T13:06:34Z</time>
      </trkpt>
      <trkpt lat="41.0720370" lon="-3.3551530">
        <ele>1041.0</ele>
        <time>2020-09-29T13:06:35Z</time>
      </trkpt>
      <trkpt lat="41.0720400" lon="-3.3551630">
        <ele>1041.0</ele>
        <time>2020-09-29T13:06:36Z</time>
      </trkpt>
      <trkpt lat="41.0720370" lon="-3.3551670">
        <ele>1041.0</ele>
        <time>2020-09-29T13:06:37Z</time>
      </trkpt>
      <trkpt lat="41.0720370" lon="-3.3551670">
        <ele>1041.0</ele>
        <time>2020-09-29T13:07:00Z</time>
      </trkpt>
      <trkpt lat="41.0720370" lon="-3.3551670">
        <ele>1041.0</ele>
        <time>2020-09-29T13:07:01Z</time>
      </trkpt>
      <trkpt lat="41.0720650" lon="-3.3552250">
        <ele>1041.0</ele>
        <time>2020-09-29T13:07:02Z</time>
      </trkpt>
      <trkpt lat="41.0720830" lon="-3.3552430">
        <ele>1040.0</ele>
        <time>2020-09-29T13:07:03Z</time>
      </trkpt>
      <trkpt lat="41.0720830" lon="-3.3552430">
        <ele>1040.0</ele>
        <time>2020-09-29T13:07:04Z</time>
      </trkpt>
      <trkpt lat="41.0721250" lon="-3.3552820">
        <ele>1040.0</ele>
        <time>2020-09-29T13:07:05Z</time>
      </trkpt>
      <trkpt lat="41.0721250" lon="-3.3552820">
        <ele>1040.0</ele>
        <time>2020-09-29T13:07:06Z</time>
      </trkpt>
      <trkpt lat="41.0721730" lon="-3.3553100">
        <ele>1039.0</ele>
        <time>2020-09-29T13:07:07Z</time>
      </trkpt>
      <trkpt lat="41.0721730" lon="-3.3553100">
        <ele>1039.0</ele>
        <time>2020-09-29T13:07:08Z</time>
      </trkpt>
      <trkpt lat="41.0722280" lon="-3.3553400">
        <ele>1039.0</ele>
        <time>2020-09-29T13:07:09Z</time>
      </trkpt>
      <trkpt lat="41.0722280" lon="-3.3553400">
        <ele>1039.0</ele>
        <time>2020-09-29T13:07:10Z</time>
      </trkpt>
      <trkpt lat="41.0722870" lon="-3.3553630">
        <ele>1037.0</ele>
        <time>2020-09-29T13:07:11Z</time>
      </trkpt>
      <trkpt lat="41.0722870" lon="-3.3553630">
        <ele>1037.0</ele>
        <time>2020-09-29T13:07:12Z</time>
      </trkpt>
      <trkpt lat="41.0723500" lon="-3.3553800">
        <ele>1036.0</ele>
        <time>2020-09-29T13:07:13Z</time>
      </trkpt>
      <trkpt lat="41.0723500" lon="-3.3553800">
        <ele>1036.0</ele>
        <time>2020-09-29T13:07:14Z</time>
      </trkpt>
      <trkpt lat="41.0724100" lon="-3.3553880">
        <ele>1036.0</ele>
        <time>2020-09-29T13:07:15Z</time>
      </trkpt>
      <trkpt lat="41.0724100" lon="-3.3553880">
        <ele>1036.0</ele>
        <time>2020-09-29T13:07:16Z</time>
      </trkpt>
      <trkpt lat="41.0724750" lon="-3.3553920">
        <ele>1035.0</ele>
        <time>2020-09-29T13:07:17Z</time>
      </trkpt>
      <trkpt lat="41.0725030" lon="-3.3553950">
        <ele>1035.0</ele>
        <time>2020-09-29T13:07:18Z</time>
      </trkpt>
      <trkpt lat="41.0725030" lon="-3.3553950">
        <ele>1034.0</ele>
        <time>2020-09-29T13:07:19Z</time>
      </trkpt>
      <trkpt lat="41.0725630" lon="-3.3554070">
        <ele>1034.0</ele>
        <time>2020-09-29T13:07:20Z</time>
      </trkpt>
      <trkpt lat="41.0725630" lon="-3.3554070">
        <ele>1033.0</ele>
        <time>2020-09-29T13:07:21Z</time>
      </trkpt>
      <trkpt lat="41.0726330" lon="-3.3554220">
        <ele>1033.0</ele>
        <time>2020-09-29T13:07:22Z</time>
      </trkpt>
      <trkpt lat="41.0726330" lon="-3.3554220">
        <ele>1033.0</ele>
        <time>2020-09-29T13:07:23Z</time>
      </trkpt>
      <trkpt lat="41.0727030" lon="-3.3554350">
        <ele>1032.0</ele>
        <time>2020-09-29T13:07:24Z</time>
      </trkpt>
      <trkpt lat="41.0727380" lon="-3.3554420">
        <ele>1032.0</ele>
        <time>2020-09-29T13:07:25Z</time>
      </trkpt>
      <trkpt lat="41.0727380" lon="-3.3554420">
        <ele>1031.0</ele>
        <time>2020-09-29T13:07:26Z</time>
      </trkpt>
      <trkpt lat="41.0728030" lon="-3.3554480">
        <ele>1031.0</ele>
        <time>2020-09-29T13:07:27Z</time>
      </trkpt>
      <trkpt lat="41.0728370" lon="-3.3554480">
        <ele>1030.0</ele>
        <time>2020-09-29T13:07:28Z</time>
      </trkpt>
      <trkpt lat="41.0728370" lon="-3.3554480">
        <ele>1029.0</ele>
        <time>2020-09-29T13:07:29Z</time>
      </trkpt>
      <trkpt lat="41.0729030" lon="-3.3554500">
        <ele>1029.0</ele>
        <time>2020-09-29T13:07:30Z</time>
      </trkpt>
      <trkpt lat="41.0729030" lon="-3.3554500">
        <ele>1029.0</ele>
        <time>2020-09-29T13:07:31Z</time>
      </trkpt>
      <trkpt lat="41.0729650" lon="-3.3554550">
        <ele>1029.0</ele>
        <time>2020-09-29T13:07:32Z</time>
      </trkpt>
      <trkpt lat="41.0729650" lon="-3.3554550">
        <ele>1028.0</ele>
        <time>2020-09-29T13:07:33Z</time>
      </trkpt>
      <trkpt lat="41.0730250" lon="-3.3554530">
        <ele>1028.0</ele>
        <time>2020-09-29T13:07:34Z</time>
      </trkpt>
      <trkpt lat="41.0730250" lon="-3.3554530">
        <ele>1027.0</ele>
        <time>2020-09-29T13:07:35Z</time>
      </trkpt>
      <trkpt lat="41.0730880" lon="-3.3554620">
        <ele>1027.0</ele>
        <time>2020-09-29T13:07:36Z</time>
      </trkpt>
      <trkpt lat="41.0731180" lon="-3.3554670">
        <ele>1027.0</ele>
        <time>2020-09-29T13:07:37Z</time>
      </trkpt>
      <trkpt lat="41.0731180" lon="-3.3554670">
        <ele>1027.0</ele>
        <time>2020-09-29T13:07:38Z</time>
      </trkpt>
      <trkpt lat="41.0731720" lon="-3.3554700">
        <ele>1026.0</ele>
        <time>2020-09-29T13:07:39Z</time>
      </trkpt>
      <trkpt lat="41.0731720" lon="-3.3554700">
        <ele>1026.0</ele>
        <time>2020-09-29T13:07:40Z</time>
      </trkpt>
      <trkpt lat="41.0732280" lon="-3.3554680">
        <ele>1025.0</ele>
        <time>2020-09-29T13:07:41Z</time>
      </trkpt>
      <trkpt lat="41.0732280" lon="-3.3554680">
        <ele>1025.0</ele>
        <time>2020-09-29T13:07:42Z</time>
      </trkpt>
      <trkpt lat="41.0732950" lon="-3.3554820">
        <ele>1025.0</ele>
        <time>2020-09-29T13:07:43Z</time>
      </trkpt>
      <trkpt lat="41.0733280" lon="-3.3554800">
        <ele>1025.0</ele>
        <time>2020-09-29T13:07:44Z</time>
      </trkpt>
      <trkpt lat="41.0733280" lon="-3.3554800">
        <ele>1023.0</ele>
        <time>2020-09-29T13:07:45Z</time>
      </trkpt>
      <trkpt lat="41.0733930" lon="-3.3554770">
        <ele>1023.0</ele>
        <time>2020-09-29T13:07:46Z</time>
      </trkpt>
      <trkpt lat="41.0733930" lon="-3.3554770">
        <ele>1022.0</ele>
        <time>2020-09-29T13:07:47Z</time>
      </trkpt>
      <trkpt lat="41.0734600" lon="-3.3554670">
        <ele>1022.0</ele>
        <time>2020-09-29T13:07:48Z</time>
      </trkpt>
      <trkpt lat="41.0734600" lon="-3.3554670">
        <ele>1021.0</ele>
        <time>2020-09-29T13:07:49Z</time>
      </trkpt>
      <trkpt lat="41.0735200" lon="-3.3554470">
        <ele>1021.0</ele>
        <time>2020-09-29T13:07:50Z</time>
      </trkpt>
      <trkpt lat="41.0735200" lon="-3.3554470">
        <ele>1021.0</ele>
        <time>2020-09-29T13:07:51Z</time>
      </trkpt>
      <trkpt lat="41.0735820" lon="-3.3554320">
        <ele>1021.0</ele>
        <time>2020-09-29T13:07:52Z</time>
      </trkpt>
      <trkpt lat="41.0735820" lon="-3.3554320">
        <ele>1020.0</ele>
        <time>2020-09-29T13:07:53Z</time>
      </trkpt>
      <trkpt lat="41.0736420" lon="-3.3554080">
        <ele>1020.0</ele>
        <time>2020-09-29T13:07:54Z</time>
      </trkpt>
      <trkpt lat="41.0736770" lon="-3.3553980">
        <ele>1019.0</ele>
        <time>2020-09-29T13:07:55Z</time>
      </trkpt>
      <trkpt lat="41.0736770" lon="-3.3553980">
        <ele>1019.0</ele>
        <time>2020-09-29T13:07:56Z</time>
      </trkpt>
      <trkpt lat="41.0737450" lon="-3.3553750">
        <ele>1018.0</ele>
        <time>2020-09-29T13:07:57Z</time>
      </trkpt>
      <trkpt lat="41.0737450" lon="-3.3553750">
        <ele>1018.0</ele>
        <time>2020-09-29T13:07:58Z</time>
      </trkpt>
      <trkpt lat="41.0738100" lon="-3.3553430">
        <ele>1017.0</ele>
        <time>2020-09-29T13:07:59Z</time>
      </trkpt>
      <trkpt lat="41.0738450" lon="-3.3553280">
        <ele>1017.0</ele>
        <time>2020-09-29T13:08:00Z</time>
      </trkpt>
      <trkpt lat="41.0738450" lon="-3.3553280">
        <ele>1016.0</ele>
        <time>2020-09-29T13:08:01Z</time>
      </trkpt>
      <trkpt lat="41.0739120" lon="-3.3552880">
        <ele>1016.0</ele>
        <time>2020-09-29T13:08:02Z</time>
      </trkpt>
      <trkpt lat="41.0739120" lon="-3.3552880">
        <ele>1015.0</ele>
        <time>2020-09-29T13:08:03Z</time>
      </trkpt>
      <trkpt lat="41.0739900" lon="-3.3552370">
        <ele>1014.0</ele>
        <time>2020-09-29T13:08:04Z</time>
      </trkpt>
      <trkpt lat="41.0739900" lon="-3.3552370">
        <ele>1014.0</ele>
        <time>2020-09-29T13:08:05Z</time>
      </trkpt>
      <trkpt lat="41.0740670" lon="-3.3551580">
        <ele>1013.0</ele>
        <time>2020-09-29T13:08:06Z</time>
      </trkpt>
      <trkpt lat="41.0740670" lon="-3.3551580">
        <ele>1013.0</ele>
        <time>2020-09-29T13:08:07Z</time>
      </trkpt>
      <trkpt lat="41.0741430" lon="-3.3550700">
        <ele>1012.0</ele>
        <time>2020-09-29T13:08:08Z</time>
      </trkpt>
      <trkpt lat="41.0741880" lon="-3.3550220">
        <ele>1012.0</ele>
        <time>2020-09-29T13:08:09Z</time>
      </trkpt>
      <trkpt lat="41.0741880" lon="-3.3550220">
        <ele>1011.0</ele>
        <time>2020-09-29T13:08:10Z</time>
      </trkpt>
      <trkpt lat="41.0742850" lon="-3.3549080">
        <ele>1011.0</ele>
        <time>2020-09-29T13:08:11Z</time>
      </trkpt>
      <trkpt lat="41.0742850" lon="-3.3549080">
        <ele>1009.0</ele>
        <time>2020-09-29T13:08:12Z</time>
      </trkpt>
      <trkpt lat="41.0743820" lon="-3.3547700">
        <ele>1009.0</ele>
        <time>2020-09-29T13:08:13Z</time>
      </trkpt>
      <trkpt lat="41.0743820" lon="-3.3547700">
        <ele>1009.0</ele>
        <time>2020-09-29T13:08:14Z</time>
      </trkpt>
      <trkpt lat="41.0744750" lon="-3.3546230">
        <ele>1008.0</ele>
        <time>2020-09-29T13:08:15Z</time>
      </trkpt>
      <trkpt lat="41.0744750" lon="-3.3546230">
        <ele>1008.0</ele>
        <time>2020-09-29T13:08:16Z</time>
      </trkpt>
      <trkpt lat="41.0745680" lon="-3.3544780">
        <ele>1007.0</ele>
        <time>2020-09-29T13:08:17Z</time>
      </trkpt>
      <trkpt lat="41.0745680" lon="-3.3544780">
        <ele>1007.0</ele>
        <time>2020-09-29T13:08:18Z</time>
      </trkpt>
      <trkpt lat="41.0746800" lon="-3.3543880">
        <ele>1006.0</ele>
        <time>2020-09-29T13:08:19Z</time>
      </trkpt>
      <trkpt lat="41.0746800" lon="-3.3543880">
        <ele>1006.0</ele>
        <time>2020-09-29T13:08:20Z</time>
      </trkpt>
      <trkpt lat="41.0748020" lon="-3.3543530">
        <ele>1006.0</ele>
        <time>2020-09-29T13:08:21Z</time>
      </trkpt>
      <trkpt lat="41.0748620" lon="-3.3543600">
        <ele>1006.0</ele>
        <time>2020-09-29T13:08:22Z</time>
      </trkpt>
      <trkpt lat="41.0748620" lon="-3.3543600">
        <ele>1006.0</ele>
        <time>2020-09-29T13:08:23Z</time>
      </trkpt>
      <trkpt lat="41.0749750" lon="-3.3543880">
        <ele>1005.0</ele>
        <time>2020-09-29T13:08:24Z</time>
      </trkpt>
      <trkpt lat="41.0750300" lon="-3.3543980">
        <ele>1005.0</ele>
        <time>2020-09-29T13:08:25Z</time>
      </trkpt>
      <trkpt lat="41.0750300" lon="-3.3543980">
        <ele>1005.0</ele>
        <time>2020-09-29T13:08:26Z</time>
      </trkpt>
      <trkpt lat="41.0751350" lon="-3.3544200">
        <ele>1005.0</ele>
        <time>2020-09-29T13:08:27Z</time>
      </trkpt>
      <trkpt lat="41.0751350" lon="-3.3544200">
        <ele>1005.0</ele>
        <time>2020-09-29T13:08:28Z</time>
      </trkpt>
      <trkpt lat="41.0752350" lon="-3.3544480">
        <ele>1005.0</ele>
        <time>2020-09-29T13:08:29Z</time>
      </trkpt>
      <trkpt lat="41.0752350" lon="-3.3544480">
        <ele>1005.0</ele>
        <time>2020-09-29T13:08:30Z</time>
      </trkpt>
      <trkpt lat="41.0753350" lon="-3.3544850">
        <ele>1005.0</ele>
        <time>2020-09-29T13:08:31Z</time>
      </trkpt>
      <trkpt lat="41.0753350" lon="-3.3544850">
        <ele>1005.0</ele>
        <time>2020-09-29T13:08:32Z</time>
      </trkpt>
      <trkpt lat="41.0754370" lon="-3.3545270">
        <ele>1005.0</ele>
        <time>2020-09-29T13:08:33Z</time>
      </trkpt>
      <trkpt lat="41.0754900" lon="-3.3545470">
        <ele>1005.0</ele>
        <time>2020-09-29T13:08:34Z</time>
      </trkpt>
      <trkpt lat="41.0754900" lon="-3.3545470">
        <ele>1005.0</ele>
        <time>2020-09-29T13:08:35Z</time>
      </trkpt>
      <trkpt lat="41.0755850" lon="-3.3546080">
        <ele>1005.0</ele>
        <time>2020-09-29T13:08:36Z</time>
      </trkpt>
      <trkpt lat="41.0756300" lon="-3.3546430">
        <ele>1005.0</ele>
        <time>2020-09-29T13:08:37Z</time>
      </trkpt>
      <trkpt lat="41.0756300" lon="-3.3546430">
        <ele>1005.0</ele>
        <time>2020-09-29T13:08:38Z</time>
      </trkpt>
      <trkpt lat="41.0757150" lon="-3.3547200">
        <ele>1005.0</ele>
        <time>2020-09-29T13:08:39Z</time>
      </trkpt>
      <trkpt lat="41.0757150" lon="-3.3547200">
        <ele>1005.0</ele>
        <time>2020-09-29T13:08:40Z</time>
      </trkpt>
      <trkpt lat="41.0757930" lon="-3.3548030">
        <ele>1005.0</ele>
        <time>2020-09-29T13:08:41Z</time>
      </trkpt>
      <trkpt lat="41.0757930" lon="-3.3548030">
        <ele>1005.0</ele>
        <time>2020-09-29T13:08:42Z</time>
      </trkpt>
      <trkpt lat="41.0758720" lon="-3.3548880">
        <ele>1005.0</ele>
        <time>2020-09-29T13:08:43Z</time>
      </trkpt>
      <trkpt lat="41.0758720" lon="-3.3548880">
        <ele>1005.0</ele>
        <time>2020-09-29T13:08:44Z</time>
      </trkpt>
      <trkpt lat="41.0759630" lon="-3.3549570">
        <ele>1005.0</ele>
        <time>2020-09-29T13:08:45Z</time>
      </trkpt>
      <trkpt lat="41.0759630" lon="-3.3549570">
        <ele>1005.0</ele>
        <time>2020-09-29T13:08:46Z</time>
      </trkpt>
      <trkpt lat="41.0760620" lon="-3.3550080">
        <ele>1005.0</ele>
        <time>2020-09-29T13:08:47Z</time>
      </trkpt>
      <trkpt lat="41.0760620" lon="-3.3550080">
        <ele>1005.0</ele>
        <time>2020-09-29T13:08:48Z</time>
      </trkpt>
      <trkpt lat="41.0761650" lon="-3.3550520">
        <ele>1005.0</ele>
        <time>2020-09-29T13:08:49Z</time>
      </trkpt>
      <trkpt lat="41.0762170" lon="-3.3550620">
        <ele>1005.0</ele>
        <time>2020-09-29T13:08:50Z</time>
      </trkpt>
      <trkpt lat="41.0762170" lon="-3.3550620">
        <ele>1005.0</ele>
        <time>2020-09-29T13:08:51Z</time>
      </trkpt>
      <trkpt lat="41.0763200" lon="-3.3550680">
        <ele>1005.0</ele>
        <time>2020-09-29T13:08:52Z</time>
      </trkpt>
      <trkpt lat="41.0763750" lon="-3.3550700">
        <ele>1005.0</ele>
        <time>2020-09-29T13:08:53Z</time>
      </trkpt>
      <trkpt lat="41.0764320" lon="-3.3550670">
        <ele>1004.0</ele>
        <time>2020-09-29T13:08:54Z</time>
      </trkpt>
      <trkpt lat="41.0764320" lon="-3.3550670">
        <ele>1004.0</ele>
        <time>2020-09-29T13:08:55Z</time>
      </trkpt>
      <trkpt lat="41.0765420" lon="-3.3550530">
        <ele>1004.0</ele>
        <time>2020-09-29T13:08:56Z</time>
      </trkpt>
      <trkpt lat="41.0765950" lon="-3.3550400">
        <ele>1004.0</ele>
        <time>2020-09-29T13:08:57Z</time>
      </trkpt>
      <trkpt lat="41.0765950" lon="-3.3550400">
        <ele>1004.0</ele>
        <time>2020-09-29T13:08:58Z</time>
      </trkpt>
      <trkpt lat="41.0766950" lon="-3.3550070">
        <ele>1004.0</ele>
        <time>2020-09-29T13:08:59Z</time>
      </trkpt>
      <trkpt lat="41.0766950" lon="-3.3550070">
        <ele>1004.0</ele>
        <time>2020-09-29T13:09:00Z</time>
      </trkpt>
      <trkpt lat="41.0767900" lon="-3.3549820">
        <ele>1003.0</ele>
        <time>2020-09-29T13:09:01Z</time>
      </trkpt>
      <trkpt lat="41.0767900" lon="-3.3549820">
        <ele>1003.0</ele>
        <time>2020-09-29T13:09:02Z</time>
      </trkpt>
      <trkpt lat="41.0768820" lon="-3.3549570">
        <ele>1003.0</ele>
        <time>2020-09-29T13:09:03Z</time>
      </trkpt>
      <trkpt lat="41.0769250" lon="-3.3549450">
        <ele>1003.0</ele>
        <time>2020-09-29T13:09:04Z</time>
      </trkpt>
      <trkpt lat="41.0769250" lon="-3.3549450">
        <ele>1003.0</ele>
        <time>2020-09-29T13:09:05Z</time>
      </trkpt>
      <trkpt lat="41.0769980" lon="-3.3549150">
        <ele>1003.0</ele>
        <time>2020-09-29T13:09:06Z</time>
      </trkpt>
      <trkpt lat="41.0770300" lon="-3.3548930">
        <ele>1002.0</ele>
        <time>2020-09-29T13:09:07Z</time>
      </trkpt>
      <trkpt lat="41.0770300" lon="-3.3548930">
        <ele>1002.0</ele>
        <time>2020-09-29T13:09:08Z</time>
      </trkpt>
      <trkpt lat="41.0770630" lon="-3.3548130">
        <ele>1002.0</ele>
        <time>2020-09-29T13:09:09Z</time>
      </trkpt>
      <trkpt lat="41.0770500" lon="-3.3547720">
        <ele>1002.0</ele>
        <time>2020-09-29T13:09:10Z</time>
      </trkpt>
      <trkpt lat="41.0770500" lon="-3.3547720">
        <ele>1002.0</ele>
        <time>2020-09-29T13:09:11Z</time>
      </trkpt>
      <trkpt lat="41.0769870" lon="-3.3547450">
        <ele>1002.0</ele>
        <time>2020-09-29T13:09:12Z</time>
      </trkpt>
      <trkpt lat="41.0769480" lon="-3.3547630">
        <ele>1002.0</ele>
        <time>2020-09-29T13:09:13Z</time>
      </trkpt>
      <trkpt lat="41.0769480" lon="-3.3547630">
        <ele>1001.0</ele>
        <time>2020-09-29T13:09:14Z</time>
      </trkpt>
      <trkpt lat="41.0768620" lon="-3.3548050">
        <ele>1001.0</ele>
        <time>2020-09-29T13:09:15Z</time>
      </trkpt>
      <trkpt lat="41.0768620" lon="-3.3548050">
        <ele>999.0</ele>
        <time>2020-09-29T13:09:16Z</time>
      </trkpt>
      <trkpt lat="41.0767650" lon="-3.3548430">
        <ele>999.0</ele>
        <time>2020-09-29T13:09:17Z</time>
      </trkpt>
      <trkpt lat="41.0767650" lon="-3.3548430">
        <ele>999.0</ele>
        <time>2020-09-29T13:09:18Z</time>
      </trkpt>
      <trkpt lat="41.0766750" lon="-3.3548520">
        <ele>999.0</ele>
        <time>2020-09-29T13:09:19Z</time>
      </trkpt>
      <trkpt lat="41.0766400" lon="-3.3548550">
        <ele>998.0</ele>
        <time>2020-09-29T13:09:20Z</time>
      </trkpt>
      <trkpt lat="41.0766400" lon="-3.3548550">
        <ele>998.0</ele>
        <time>2020-09-29T13:09:21Z</time>
      </trkpt>
      <trkpt lat="41.0765880" lon="-3.3548520">
        <ele>997.0</ele>
        <time>2020-09-29T13:09:22Z</time>
      </trkpt>
      <trkpt lat="41.0765880" lon="-3.3548520">
        <ele>997.0</ele>
        <time>2020-09-29T13:09:23Z</time>
      </trkpt>
      <trkpt lat="41.0765380" lon="-3.3548550">
        <ele>996.0</ele>
        <time>2020-09-29T13:09:24Z</time>
      </trkpt>
      <trkpt lat="41.0765020" lon="-3.3548630">
        <ele>996.0</ele>
        <time>2020-09-29T13:09:25Z</time>
      </trkpt>
      <trkpt lat="41.0765020" lon="-3.3548630">
        <ele>996.0</ele>
        <time>2020-09-29T13:09:26Z</time>
      </trkpt>
      <trkpt lat="41.0764170" lon="-3.3548820">
        <ele>996.0</ele>
        <time>2020-09-29T13:09:27Z</time>
      </trkpt>
      <trkpt lat="41.0764170" lon="-3.3548820">
        <ele>995.0</ele>
        <time>2020-09-29T13:09:28Z</time>
      </trkpt>
      <trkpt lat="41.0763250" lon="-3.3548780">
        <ele>995.0</ele>
        <time>2020-09-29T13:09:29Z</time>
      </trkpt>
      <trkpt lat="41.0763250" lon="-3.3548780">
        <ele>994.0</ele>
        <time>2020-09-29T13:09:30Z</time>
      </trkpt>
      <trkpt lat="41.0762300" lon="-3.3548480">
        <ele>994.0</ele>
        <time>2020-09-29T13:09:31Z</time>
      </trkpt>
      <trkpt lat="41.0762300" lon="-3.3548480">
        <ele>993.0</ele>
        <time>2020-09-29T13:09:32Z</time>
      </trkpt>
      <trkpt lat="41.0761370" lon="-3.3548020">
        <ele>993.0</ele>
        <time>2020-09-29T13:09:33Z</time>
      </trkpt>
      <trkpt lat="41.0761370" lon="-3.3548020">
        <ele>993.0</ele>
        <time>2020-09-29T13:09:34Z</time>
      </trkpt>
      <trkpt lat="41.0760550" lon="-3.3547400">
        <ele>993.0</ele>
        <time>2020-09-29T13:09:35Z</time>
      </trkpt>
      <trkpt lat="41.0760550" lon="-3.3547400">
        <ele>992.0</ele>
        <time>2020-09-29T13:09:36Z</time>
      </trkpt>
      <trkpt lat="41.0759720" lon="-3.3546730">
        <ele>992.0</ele>
        <time>2020-09-29T13:09:37Z</time>
      </trkpt>
      <trkpt lat="41.0759300" lon="-3.3546370">
        <ele>991.0</ele>
        <time>2020-09-29T13:09:38Z</time>
      </trkpt>
      <trkpt lat="41.0759300" lon="-3.3546370">
        <ele>991.0</ele>
        <time>2020-09-29T13:09:39Z</time>
      </trkpt>
      <trkpt lat="41.0758520" lon="-3.3545580">
        <ele>991.0</ele>
        <time>2020-09-29T13:09:40Z</time>
      </trkpt>
      <trkpt lat="41.0758520" lon="-3.3545580">
        <ele>991.0</ele>
        <time>2020-09-29T13:09:41Z</time>
      </trkpt>
      <trkpt lat="41.0757730" lon="-3.3544700">
        <ele>990.0</ele>
        <time>2020-09-29T13:09:42Z</time>
      </trkpt>
      <trkpt lat="41.0757370" lon="-3.3544250">
        <ele>990.0</ele>
        <time>2020-09-29T13:09:43Z</time>
      </trkpt>
      <trkpt lat="41.0757370" lon="-3.3544250">
        <ele>989.0</ele>
        <time>2020-09-29T13:09:44Z</time>
      </trkpt>
      <trkpt lat="41.0756570" lon="-3.3543470">
        <ele>989.0</ele>
        <time>2020-09-29T13:09:45Z</time>
      </trkpt>
      <trkpt lat="41.0756570" lon="-3.3543470">
        <ele>988.0</ele>
        <time>2020-09-29T13:09:46Z</time>
      </trkpt>
      <trkpt lat="41.0755800" lon="-3.3542770">
        <ele>988.0</ele>
        <time>2020-09-29T13:09:47Z</time>
      </trkpt>
      <trkpt lat="41.0755800" lon="-3.3542770">
        <ele>988.0</ele>
        <time>2020-09-29T13:09:48Z</time>
      </trkpt>
      <trkpt lat="41.0754930" lon="-3.3542070">
        <ele>987.0</ele>
        <time>2020-09-29T13:09:49Z</time>
      </trkpt>
      <trkpt lat="41.0754930" lon="-3.3542070">
        <ele>987.0</ele>
        <time>2020-09-29T13:09:50Z</time>
      </trkpt>
      <trkpt lat="41.0753950" lon="-3.3541450">
        <ele>987.0</ele>
        <time>2020-09-29T13:09:51Z</time>
      </trkpt>
      <trkpt lat="41.0753950" lon="-3.3541450">
        <ele>987.0</ele>
        <time>2020-09-29T13:09:52Z</time>
      </trkpt>
      <trkpt lat="41.0753050" lon="-3.3540970">
        <ele>986.0</ele>
        <time>2020-09-29T13:09:53Z</time>
      </trkpt>
      <trkpt lat="41.0753050" lon="-3.3540970">
        <ele>986.0</ele>
        <time>2020-09-29T13:09:54Z</time>
      </trkpt>
      <trkpt lat="41.0752180" lon="-3.3540620">
        <ele>985.0</ele>
        <time>2020-09-29T13:09:55Z</time>
      </trkpt>
      <trkpt lat="41.0752180" lon="-3.3540620">
        <ele>985.0</ele>
        <time>2020-09-29T13:09:56Z</time>
      </trkpt>
      <trkpt lat="41.0751370" lon="-3.3540430">
        <ele>984.0</ele>
        <time>2020-09-29T13:09:57Z</time>
      </trkpt>
      <trkpt lat="41.0750950" lon="-3.3540350">
        <ele>984.0</ele>
        <time>2020-09-29T13:09:58Z</time>
      </trkpt>
      <trkpt lat="41.0750950" lon="-3.3540350">
        <ele>984.0</ele>
        <time>2020-09-29T13:09:59Z</time>
      </trkpt>
      <trkpt lat="41.0750130" lon="-3.3540220">
        <ele>984.0</ele>
        <time>2020-09-29T13:10:00Z</time>
      </trkpt>
      <trkpt lat="41.0749720" lon="-3.3540180">
        <ele>983.0</ele>
        <time>2020-09-29T13:10:01Z</time>
      </trkpt>
      <trkpt lat="41.0749720" lon="-3.3540180">
        <ele>983.0</ele>
        <time>2020-09-29T13:10:02Z</time>
      </trkpt>
      <trkpt lat="41.0748920" lon="-3.3540050">
        <ele>983.0</ele>
        <time>2020-09-29T13:10:03Z</time>
      </trkpt>
      <trkpt lat="41.0748920" lon="-3.3540050">
        <ele>983.0</ele>
        <time>2020-09-29T13:10:04Z</time>
      </trkpt>
      <trkpt lat="41.0748050" lon="-3.3539950">
        <ele>982.0</ele>
        <time>2020-09-29T13:10:05Z</time>
      </trkpt>
      <trkpt lat="41.0748050" lon="-3.3539950">
        <ele>982.0</ele>
        <time>2020-09-29T13:10:06Z</time>
      </trkpt>
      <trkpt lat="41.0747270" lon="-3.3539830">
        <ele>981.0</ele>
        <time>2020-09-29T13:10:07Z</time>
      </trkpt>
      <trkpt lat="41.0746970" lon="-3.3539720">
        <ele>981.0</ele>
        <time>2020-09-29T13:10:08Z</time>
      </trkpt>
      <trkpt lat="41.0746970" lon="-3.3539720">
        <ele>980.0</ele>
        <time>2020-09-29T13:10:09Z</time>
      </trkpt>
      <trkpt lat="41.0746400" lon="-3.3539450">
        <ele>980.0</ele>
        <time>2020-09-29T13:10:10Z</time>
      </trkpt>
      <trkpt lat="41.0746400" lon="-3.3539450">
        <ele>980.0</ele>
        <time>2020-09-29T13:10:11Z</time>
      </trkpt>
      <trkpt lat="41.0746170" lon="-3.3538730">
        <ele>980.0</ele>
        <time>2020-09-29T13:10:12Z</time>
      </trkpt>
      <trkpt lat="41.0746200" lon="-3.3538280">
        <ele>980.0</ele>
        <time>2020-09-29T13:10:13Z</time>
      </trkpt>
      <trkpt lat="41.0746270" lon="-3.3537770">
        <ele>980.0</ele>
        <time>2020-09-29T13:10:14Z</time>
      </trkpt>
      <trkpt lat="41.0746270" lon="-3.3537770">
        <ele>980.0</ele>
        <time>2020-09-29T13:10:15Z</time>
      </trkpt>
      <trkpt lat="41.0746370" lon="-3.3536770">
        <ele>980.0</ele>
        <time>2020-09-29T13:10:16Z</time>
      </trkpt>
      <trkpt lat="41.0746370" lon="-3.3536770">
        <ele>980.0</ele>
        <time>2020-09-29T13:10:17Z</time>
      </trkpt>
      <trkpt lat="41.0746370" lon="-3.3535930">
        <ele>980.0</ele>
        <time>2020-09-29T13:10:18Z</time>
      </trkpt>
      <trkpt lat="41.0746330" lon="-3.3535600">
        <ele>980.0</ele>
        <time>2020-09-29T13:10:19Z</time>
      </trkpt>
      <trkpt lat="41.0746330" lon="-3.3535600">
        <ele>980.0</ele>
        <time>2020-09-29T13:10:20Z</time>
      </trkpt>
      <trkpt lat="41.0746550" lon="-3.3534920">
        <ele>980.0</ele>
        <time>2020-09-29T13:10:21Z</time>
      </trkpt>
      <trkpt lat="41.0746550" lon="-3.3534920">
        <ele>980.0</ele>
        <time>2020-09-29T13:10:22Z</time>
      </trkpt>
      <trkpt lat="41.0746730" lon="-3.3534170">
        <ele>979.0</ele>
        <time>2020-09-29T13:10:23Z</time>
      </trkpt>
      <trkpt lat="41.0746680" lon="-3.3533750">
        <ele>979.0</ele>
        <time>2020-09-29T13:10:24Z</time>
      </trkpt>
      <trkpt lat="41.0746680" lon="-3.3533750">
        <ele>979.0</ele>
        <time>2020-09-29T13:10:25Z</time>
      </trkpt>
      <trkpt lat="41.0746730" lon="-3.3532830">
        <ele>979.0</ele>
        <time>2020-09-29T13:10:26Z</time>
      </trkpt>
      <trkpt lat="41.0746730" lon="-3.3532830">
        <ele>979.0</ele>
        <time>2020-09-29T13:10:27Z</time>
      </trkpt>
      <trkpt lat="41.0746750" lon="-3.3531950">
        <ele>979.0</ele>
        <time>2020-09-29T13:10:28Z</time>
      </trkpt>
      <trkpt lat="41.0746750" lon="-3.3531950">
        <ele>979.0</ele>
        <time>2020-09-29T13:10:29Z</time>
      </trkpt>
      <trkpt lat="41.0746570" lon="-3.3531270">
        <ele>979.0</ele>
        <time>2020-09-29T13:10:30Z</time>
      </trkpt>
      <trkpt lat="41.0746570" lon="-3.3531270">
        <ele>979.0</ele>
        <time>2020-09-29T13:10:31Z</time>
      </trkpt>
      <trkpt lat="41.0746250" lon="-3.3530920">
        <ele>979.0</ele>
        <time>2020-09-29T13:10:32Z</time>
      </trkpt>
      <trkpt lat="41.0746250" lon="-3.3530920">
        <ele>979.0</ele>
        <time>2020-09-29T13:10:33Z</time>
      </trkpt>
      <trkpt lat="41.0745900" lon="-3.3530720">
        <ele>979.0</ele>
        <time>2020-09-29T13:10:34Z</time>
      </trkpt>
      <trkpt lat="41.0745720" lon="-3.3530670">
        <ele>979.0</ele>
        <time>2020-09-29T13:10:35Z</time>
      </trkpt>
      <trkpt lat="41.0745720" lon="-3.3530670">
        <ele>979.0</ele>
        <time>2020-09-29T13:10:36Z</time>
      </trkpt>
      <trkpt lat="41.0745370" lon="-3.3530620">
        <ele>981.0</ele>
        <time>2020-09-29T13:10:37Z</time>
      </trkpt>
      <trkpt lat="41.0745370" lon="-3.3530620">
        <ele>981.0</ele>
        <time>2020-09-29T13:10:38Z</time>
      </trkpt>
      <trkpt lat="41.0744950" lon="-3.3530600">
        <ele>981.0</ele>
        <time>2020-09-29T13:10:39Z</time>
      </trkpt>
      <trkpt lat="41.0744750" lon="-3.3530550">
        <ele>981.0</ele>
        <time>2020-09-29T13:10:40Z</time>
      </trkpt>
      <trkpt lat="41.0744750" lon="-3.3530550">
        <ele>982.0</ele>
        <time>2020-09-29T13:10:41Z</time>
      </trkpt>
      <trkpt lat="41.0744450" lon="-3.3530520">
        <ele>982.0</ele>
        <time>2020-09-29T13:10:42Z</time>
      </trkpt>
      <trkpt lat="41.0744270" lon="-3.3530480">
        <ele>982.0</ele>
        <time>2020-09-29T13:10:43Z</time>
      </trkpt>
      <trkpt lat="41.0744270" lon="-3.3530480">
        <ele>982.0</ele>
        <time>2020-09-29T13:10:44Z</time>
      </trkpt>
      <trkpt lat="41.0743850" lon="-3.3530320">
        <ele>983.0</ele>
        <time>2020-09-29T13:10:45Z</time>
      </trkpt>
      <trkpt lat="41.0743670" lon="-3.3530220">
        <ele>983.0</ele>
        <time>2020-09-29T13:10:46Z</time>
      </trkpt>
      <trkpt lat="41.0743670" lon="-3.3530220">
        <ele>984.0</ele>
        <time>2020-09-29T13:10:47Z</time>
      </trkpt>
      <trkpt lat="41.0743270" lon="-3.3530070">
        <ele>984.0</ele>
        <time>2020-09-29T13:10:48Z</time>
      </trkpt>
      <trkpt lat="41.0743070" lon="-3.3530020">
        <ele>985.0</ele>
        <time>2020-09-29T13:10:49Z</time>
      </trkpt>
      <trkpt lat="41.0743070" lon="-3.3530020">
        <ele>985.0</ele>
        <time>2020-09-29T13:10:50Z</time>
      </trkpt>
      <trkpt lat="41.0742730" lon="-3.3529900">
        <ele>985.0</ele>
        <time>2020-09-29T13:10:51Z</time>
      </trkpt>
      <trkpt lat="41.0742730" lon="-3.3529900">
        <ele>985.0</ele>
        <time>2020-09-29T13:10:52Z</time>
      </trkpt>
      <trkpt lat="41.0742280" lon="-3.3529700">
        <ele>986.0</ele>
        <time>2020-09-29T13:10:53Z</time>
      </trkpt>
      <trkpt lat="41.0742050" lon="-3.3529600">
        <ele>986.0</ele>
        <time>2020-09-29T13:10:54Z</time>
      </trkpt>
      <trkpt lat="41.0741880" lon="-3.3529520">
        <ele>986.0</ele>
        <time>2020-09-29T13:10:55Z</time>
      </trkpt>
      <trkpt lat="41.0741880" lon="-3.3529520">
        <ele>986.0</ele>
        <time>2020-09-29T13:10:56Z</time>
      </trkpt>
      <trkpt lat="41.0741450" lon="-3.3529330">
        <ele>987.0</ele>
        <time>2020-09-29T13:10:57Z</time>
      </trkpt>
      <trkpt lat="41.0741250" lon="-3.3529220">
        <ele>987.0</ele>
        <time>2020-09-29T13:10:58Z</time>
      </trkpt>
      <trkpt lat="41.0741070" lon="-3.3529170">
        <ele>987.0</ele>
        <time>2020-09-29T13:10:59Z</time>
      </trkpt>
      <trkpt lat="41.0741070" lon="-3.3529170">
        <ele>988.0</ele>
        <time>2020-09-29T13:11:00Z</time>
      </trkpt>
      <trkpt lat="41.0740670" lon="-3.3529000">
        <ele>988.0</ele>
        <time>2020-09-29T13:11:01Z</time>
      </trkpt>
      <trkpt lat="41.0740670" lon="-3.3529000">
        <ele>988.0</ele>
        <time>2020-09-29T13:11:02Z</time>
      </trkpt>
      <trkpt lat="41.0740300" lon="-3.3528820">
        <ele>988.0</ele>
        <time>2020-09-29T13:11:03Z</time>
      </trkpt>
      <trkpt lat="41.0740120" lon="-3.3528730">
        <ele>989.0</ele>
        <time>2020-09-29T13:11:04Z</time>
      </trkpt>
      <trkpt lat="41.0739950" lon="-3.3528650">
        <ele>989.0</ele>
        <time>2020-09-29T13:11:05Z</time>
      </trkpt>
      <trkpt lat="41.0739950" lon="-3.3528650">
        <ele>989.0</ele>
        <time>2020-09-29T13:11:06Z</time>
      </trkpt>
      <trkpt lat="41.0739550" lon="-3.3528480">
        <ele>989.0</ele>
        <time>2020-09-29T13:11:07Z</time>
      </trkpt>
      <trkpt lat="41.0739550" lon="-3.3528480">
        <ele>990.0</ele>
        <time>2020-09-29T13:11:08Z</time>
      </trkpt>
      <trkpt lat="41.0739120" lon="-3.3528330">
        <ele>990.0</ele>
        <time>2020-09-29T13:11:09Z</time>
      </trkpt>
      <trkpt lat="41.0739120" lon="-3.3528330">
        <ele>990.0</ele>
        <time>2020-09-29T13:11:10Z</time>
      </trkpt>
      <trkpt lat="41.0738830" lon="-3.3528050">
        <ele>990.0</ele>
        <time>2020-09-29T13:11:11Z</time>
      </trkpt>
      <trkpt lat="41.0738680" lon="-3.3527920">
        <ele>991.0</ele>
        <time>2020-09-29T13:11:12Z</time>
      </trkpt>
      <trkpt lat="41.0738530" lon="-3.3527770">
        <ele>991.0</ele>
        <time>2020-09-29T13:11:13Z</time>
      </trkpt>
      <trkpt lat="41.0738530" lon="-3.3527770">
        <ele>992.0</ele>
        <time>2020-09-29T13:11:14Z</time>
      </trkpt>
      <trkpt lat="41.0738320" lon="-3.3527380">
        <ele>992.0</ele>
        <time>2020-09-29T13:11:15Z</time>
      </trkpt>
      <trkpt lat="41.0738320" lon="-3.3527380">
        <ele>992.0</ele>
        <time>2020-09-29T13:11:16Z</time>
      </trkpt>
      <trkpt lat="41.0738230" lon="-3.3526970">
        <ele>992.0</ele>
        <time>2020-09-29T13:11:17Z</time>
      </trkpt>
      <trkpt lat="41.0738220" lon="-3.3526750">
        <ele>992.0</ele>
        <time>2020-09-29T13:11:18Z</time>
      </trkpt>
      <trkpt lat="41.0738220" lon="-3.3526750">
        <ele>994.0</ele>
        <time>2020-09-29T13:11:19Z</time>
      </trkpt>
      <trkpt lat="41.0738300" lon="-3.3526380">
        <ele>994.0</ele>
        <time>2020-09-29T13:11:20Z</time>
      </trkpt>
      <trkpt lat="41.0738380" lon="-3.3526220">
        <ele>994.0</ele>
        <time>2020-09-29T13:11:21Z</time>
      </trkpt>
      <trkpt lat="41.0738380" lon="-3.3526220">
        <ele>994.0</ele>
        <time>2020-09-29T13:11:22Z</time>
      </trkpt>
      <trkpt lat="41.0738580" lon="-3.3525980">
        <ele>994.0</ele>
        <time>2020-09-29T13:11:23Z</time>
      </trkpt>
      <trkpt lat="41.0738730" lon="-3.3525920">
        <ele>994.0</ele>
        <time>2020-09-29T13:11:24Z</time>
      </trkpt>
      <trkpt lat="41.0738730" lon="-3.3525920">
        <ele>995.0</ele>
        <time>2020-09-29T13:11:25Z</time>
      </trkpt>
      <trkpt lat="41.0739080" lon="-3.3525900">
        <ele>995.0</ele>
        <time>2020-09-29T13:11:26Z</time>
      </trkpt>
      <trkpt lat="41.0739080" lon="-3.3525900">
        <ele>995.0</ele>
        <time>2020-09-29T13:11:27Z</time>
      </trkpt>
      <trkpt lat="41.0739400" lon="-3.3525970">
        <ele>995.0</ele>
        <time>2020-09-29T13:11:28Z</time>
      </trkpt>
      <trkpt lat="41.0739400" lon="-3.3525970">
        <ele>996.0</ele>
        <time>2020-09-29T13:11:29Z</time>
      </trkpt>
      <trkpt lat="41.0739700" lon="-3.3526100">
        <ele>996.0</ele>
        <time>2020-09-29T13:11:30Z</time>
      </trkpt>
      <trkpt lat="41.0739870" lon="-3.3526180">
        <ele>996.0</ele>
        <time>2020-09-29T13:11:31Z</time>
      </trkpt>
      <trkpt lat="41.0739870" lon="-3.3526180">
        <ele>996.0</ele>
        <time>2020-09-29T13:11:32Z</time>
      </trkpt>
      <trkpt lat="41.0740180" lon="-3.3526370">
        <ele>996.0</ele>
        <time>2020-09-29T13:11:33Z</time>
      </trkpt>
      <trkpt lat="41.0740180" lon="-3.3526370">
        <ele>996.0</ele>
        <time>2020-09-29T13:11:34Z</time>
      </trkpt>
      <trkpt lat="41.0740530" lon="-3.3526420">
        <ele>996.0</ele>
        <time>2020-09-29T13:11:35Z</time>
      </trkpt>
      <trkpt lat="41.0740530" lon="-3.3526420">
        <ele>997.0</ele>
        <time>2020-09-29T13:11:36Z</time>
      </trkpt>
      <trkpt lat="41.0740830" lon="-3.3526520">
        <ele>997.0</ele>
        <time>2020-09-29T13:11:37Z</time>
      </trkpt>
      <trkpt lat="41.0740830" lon="-3.3526520">
        <ele>997.0</ele>
        <time>2020-09-29T13:11:38Z</time>
      </trkpt>
      <trkpt lat="41.0741120" lon="-3.3526630">
        <ele>997.0</ele>
        <time>2020-09-29T13:11:39Z</time>
      </trkpt>
      <trkpt lat="41.0741120" lon="-3.3526630">
        <ele>998.0</ele>
        <time>2020-09-29T13:11:40Z</time>
      </trkpt>
      <trkpt lat="41.0741430" lon="-3.3526700">
        <ele>998.0</ele>
        <time>2020-09-29T13:11:41Z</time>
      </trkpt>
      <trkpt lat="41.0741430" lon="-3.3526700">
        <ele>998.0</ele>
        <time>2020-09-29T13:11:42Z</time>
      </trkpt>
      <trkpt lat="41.0741770" lon="-3.3526650">
        <ele>998.0</ele>
        <time>2020-09-29T13:11:43Z</time>
      </trkpt>
      <trkpt lat="41.0741770" lon="-3.3526650">
        <ele>998.0</ele>
        <time>2020-09-29T13:11:44Z</time>
      </trkpt>
      <trkpt lat="41.0742100" lon="-3.3526670">
        <ele>998.0</ele>
        <time>2020-09-29T13:11:45Z</time>
      </trkpt>
      <trkpt lat="41.0742250" lon="-3.3526670">
        <ele>999.0</ele>
        <time>2020-09-29T13:11:46Z</time>
      </trkpt>
      <trkpt lat="41.0742250" lon="-3.3526670">
        <ele>999.0</ele>
        <time>2020-09-29T13:11:47Z</time>
      </trkpt>
      <trkpt lat="41.0742570" lon="-3.3526630">
        <ele>999.0</ele>
        <time>2020-09-29T13:11:48Z</time>
      </trkpt>
      <trkpt lat="41.0742720" lon="-3.3526650">
        <ele>999.0</ele>
        <time>2020-09-29T13:11:49Z</time>
      </trkpt>
      <trkpt lat="41.0742720" lon="-3.3526650">
        <ele>1000.0</ele>
        <time>2020-09-29T13:11:50Z</time>
      </trkpt>
      <trkpt lat="41.0743030" lon="-3.3526650">
        <ele>1000.0</ele>
        <time>2020-09-29T13:11:51Z</time>
      </trkpt>
      <trkpt lat="41.0743180" lon="-3.3526650">
        <ele>1000.0</ele>
        <time>2020-09-29T13:11:52Z</time>
      </trkpt>
      <trkpt lat="41.0743180" lon="-3.3526650">
        <ele>1000.0</ele>
        <time>2020-09-29T13:11:53Z</time>
      </trkpt>
      <trkpt lat="41.0743480" lon="-3.3526670">
        <ele>1001.0</ele>
        <time>2020-09-29T13:11:54Z</time>
      </trkpt>
      <trkpt lat="41.0743650" lon="-3.3526680">
        <ele>1001.0</ele>
        <time>2020-09-29T13:11:55Z</time>
      </trkpt>
      <trkpt lat="41.0743650" lon="-3.3526680">
        <ele>1001.0</ele>
        <time>2020-09-29T13:11:56Z</time>
      </trkpt>
      <trkpt lat="41.0743980" lon="-3.3526600">
        <ele>1001.0</ele>
        <time>2020-09-29T13:11:57Z</time>
      </trkpt>
      <trkpt lat="41.0744150" lon="-3.3526550">
        <ele>1002.0</ele>
        <time>2020-09-29T13:11:58Z</time>
      </trkpt>
      <trkpt lat="41.0744150" lon="-3.3526550">
        <ele>1002.0</ele>
        <time>2020-09-29T13:11:59Z</time>
      </trkpt>
      <trkpt lat="41.0744480" lon="-3.3526480">
        <ele>1002.0</ele>
        <time>2020-09-29T13:12:00Z</time>
      </trkpt>
      <trkpt lat="41.0744480" lon="-3.3526480">
        <ele>1002.0</ele>
        <time>2020-09-29T13:12:01Z</time>
      </trkpt>
      <trkpt lat="41.0744820" lon="-3.3526400">
        <ele>1002.0</ele>
        <time>2020-09-29T13:12:02Z</time>
      </trkpt>
      <trkpt lat="41.0744820" lon="-3.3526400">
        <ele>1002.0</ele>
        <time>2020-09-29T13:12:03Z</time>
      </trkpt>
      <trkpt lat="41.0745150" lon="-3.3526320">
        <ele>1002.0</ele>
        <time>2020-09-29T13:12:04Z</time>
      </trkpt>
      <trkpt lat="41.0745300" lon="-3.3526280">
        <ele>1002.0</ele>
        <time>2020-09-29T13:12:05Z</time>
      </trkpt>
      <trkpt lat="41.0745300" lon="-3.3526280">
        <ele>1002.0</ele>
        <time>2020-09-29T13:12:06Z</time>
      </trkpt>
      <trkpt lat="41.0745620" lon="-3.3526220">
        <ele>1002.0</ele>
        <time>2020-09-29T13:12:07Z</time>
      </trkpt>
      <trkpt lat="41.0745620" lon="-3.3526220">
        <ele>1003.0</ele>
        <time>2020-09-29T13:12:08Z</time>
      </trkpt>
      <trkpt lat="41.0745950" lon="-3.3526080">
        <ele>1003.0</ele>
        <time>2020-09-29T13:12:09Z</time>
      </trkpt>
      <trkpt lat="41.0745950" lon="-3.3526080">
        <ele>1003.0</ele>
        <time>2020-09-29T13:12:10Z</time>
      </trkpt>
      <trkpt lat="41.0746270" lon="-3.3526000">
        <ele>1003.0</ele>
        <time>2020-09-29T13:12:11Z</time>
      </trkpt>
      <trkpt lat="41.0746270" lon="-3.3526000">
        <ele>1005.0</ele>
        <time>2020-09-29T13:12:12Z</time>
      </trkpt>
      <trkpt lat="41.0746580" lon="-3.3525930">
        <ele>1005.0</ele>
        <time>2020-09-29T13:12:13Z</time>
      </trkpt>
      <trkpt lat="41.0746580" lon="-3.3525930">
        <ele>1005.0</ele>
        <time>2020-09-29T13:12:14Z</time>
      </trkpt>
      <trkpt lat="41.0746900" lon="-3.3525880">
        <ele>1005.0</ele>
        <time>2020-09-29T13:12:15Z</time>
      </trkpt>
      <trkpt lat="41.0747070" lon="-3.3525880">
        <ele>1006.0</ele>
        <time>2020-09-29T13:12:16Z</time>
      </trkpt>
      <trkpt lat="41.0747070" lon="-3.3525880">
        <ele>1006.0</ele>
        <time>2020-09-29T13:12:17Z</time>
      </trkpt>
      <trkpt lat="41.0747400" lon="-3.3525870">
        <ele>1006.0</ele>
        <time>2020-09-29T13:12:18Z</time>
      </trkpt>
      <trkpt lat="41.0747570" lon="-3.3525850">
        <ele>1006.0</ele>
        <time>2020-09-29T13:12:19Z</time>
      </trkpt>
      <trkpt lat="41.0747570" lon="-3.3525850">
        <ele>1007.0</ele>
        <time>2020-09-29T13:12:20Z</time>
      </trkpt>
      <trkpt lat="41.0747920" lon="-3.3525830">
        <ele>1007.0</ele>
        <time>2020-09-29T13:12:21Z</time>
      </trkpt>
      <trkpt lat="41.0748080" lon="-3.3525880">
        <ele>1007.0</ele>
        <time>2020-09-29T13:12:22Z</time>
      </trkpt>
      <trkpt lat="41.0748080" lon="-3.3525880">
        <ele>1007.0</ele>
        <time>2020-09-29T13:12:23Z</time>
      </trkpt>
      <trkpt lat="41.0748400" lon="-3.3526020">
        <ele>1008.0</ele>
        <time>2020-09-29T13:12:24Z</time>
      </trkpt>
      <trkpt lat="41.0748570" lon="-3.3526080">
        <ele>1008.0</ele>
        <time>2020-09-29T13:12:25Z</time>
      </trkpt>
      <trkpt lat="41.0748570" lon="-3.3526080">
        <ele>1008.0</ele>
        <time>2020-09-29T13:12:26Z</time>
      </trkpt>
      <trkpt lat="41.0748870" lon="-3.3526270">
        <ele>1008.0</ele>
        <time>2020-09-29T13:12:27Z</time>
      </trkpt>
      <trkpt lat="41.0748870" lon="-3.3526270">
        <ele>1008.0</ele>
        <time>2020-09-29T13:12:28Z</time>
      </trkpt>
      <trkpt lat="41.0749080" lon="-3.3526570">
        <ele>1009.0</ele>
        <time>2020-09-29T13:12:29Z</time>
      </trkpt>
      <trkpt lat="41.0749220" lon="-3.3526730">
        <ele>1009.0</ele>
        <time>2020-09-29T13:12:30Z</time>
      </trkpt>
      <trkpt lat="41.0749220" lon="-3.3526730">
        <ele>1009.0</ele>
        <time>2020-09-29T13:12:31Z</time>
      </trkpt>
      <trkpt lat="41.0749470" lon="-3.3527030">
        <ele>1009.0</ele>
        <time>2020-09-29T13:12:32Z</time>
      </trkpt>
      <trkpt lat="41.0749470" lon="-3.3527030">
        <ele>1010.0</ele>
        <time>2020-09-29T13:12:33Z</time>
      </trkpt>
      <trkpt lat="41.0749730" lon="-3.3527320">
        <ele>1010.0</ele>
        <time>2020-09-29T13:12:34Z</time>
      </trkpt>
      <trkpt lat="41.0749730" lon="-3.3527320">
        <ele>1010.0</ele>
        <time>2020-09-29T13:12:35Z</time>
      </trkpt>
      <trkpt lat="41.0750020" lon="-3.3527530">
        <ele>1010.0</ele>
        <time>2020-09-29T13:12:36Z</time>
      </trkpt>
      <trkpt lat="41.0750020" lon="-3.3527530">
        <ele>1010.0</ele>
        <time>2020-09-29T13:12:37Z</time>
      </trkpt>
      <trkpt lat="41.0750300" lon="-3.3527730">
        <ele>1011.0</ele>
        <time>2020-09-29T13:12:38Z</time>
      </trkpt>
      <trkpt lat="41.0750300" lon="-3.3527730">
        <ele>1011.0</ele>
        <time>2020-09-29T13:12:39Z</time>
      </trkpt>
      <trkpt lat="41.0750600" lon="-3.3527950">
        <ele>1012.0</ele>
        <time>2020-09-29T13:12:40Z</time>
      </trkpt>
      <trkpt lat="41.0750750" lon="-3.3528030">
        <ele>1012.0</ele>
        <time>2020-09-29T13:12:41Z</time>
      </trkpt>
      <trkpt lat="41.0750750" lon="-3.3528030">
        <ele>1012.0</ele>
        <time>2020-09-29T13:12:42Z</time>
      </trkpt>
      <trkpt lat="41.0751080" lon="-3.3528130">
        <ele>1012.0</ele>
        <time>2020-09-29T13:12:43Z</time>
      </trkpt>
      <trkpt lat="41.0751080" lon="-3.3528130">
        <ele>1012.0</ele>
        <time>2020-09-29T13:12:44Z</time>
      </trkpt>
      <trkpt lat="41.0751400" lon="-3.3528180">
        <ele>1013.0</ele>
        <time>2020-09-29T13:12:45Z</time>
      </trkpt>
      <trkpt lat="41.0751400" lon="-3.3528180">
        <ele>1013.0</ele>
        <time>2020-09-29T13:12:46Z</time>
      </trkpt>
      <trkpt lat="41.0751730" lon="-3.3528180">
        <ele>1013.0</ele>
        <time>2020-09-29T13:12:47Z</time>
      </trkpt>
      <trkpt lat="41.0751930" lon="-3.3528130">
        <ele>1013.0</ele>
        <time>2020-09-29T13:12:48Z</time>
      </trkpt>
      <trkpt lat="41.0751930" lon="-3.3528130">
        <ele>1015.0</ele>
        <time>2020-09-29T13:12:49Z</time>
      </trkpt>
      <trkpt lat="41.0752200" lon="-3.3527900">
        <ele>1015.0</ele>
        <time>2020-09-29T13:12:50Z</time>
      </trkpt>
      <trkpt lat="41.0752200" lon="-3.3527900">
        <ele>1015.0</ele>
        <time>2020-09-29T13:12:51Z</time>
      </trkpt>
      <trkpt lat="41.0752400" lon="-3.3527450">
        <ele>1015.0</ele>
        <time>2020-09-29T13:12:52Z</time>
      </trkpt>
      <trkpt lat="41.0752430" lon="-3.3527220">
        <ele>1015.0</ele>
        <time>2020-09-29T13:12:53Z</time>
      </trkpt>
      <trkpt lat="41.0752400" lon="-3.3527020">
        <ele>1015.0</ele>
        <time>2020-09-29T13:12:54Z</time>
      </trkpt>
      <trkpt lat="41.0752330" lon="-3.3526820">
        <ele>1016.0</ele>
        <time>2020-09-29T13:12:55Z</time>
      </trkpt>
      <trkpt lat="41.0752330" lon="-3.3526820">
        <ele>1016.0</ele>
        <time>2020-09-29T13:12:56Z</time>
      </trkpt>
      <trkpt lat="41.0752150" lon="-3.3526520">
        <ele>1016.0</ele>
        <time>2020-09-29T13:12:57Z</time>
      </trkpt>
      <trkpt lat="41.0752150" lon="-3.3526520">
        <ele>1016.0</ele>
        <time>2020-09-29T13:12:58Z</time>
      </trkpt>
      <trkpt lat="41.0751930" lon="-3.3526270">
        <ele>1018.0</ele>
        <time>2020-09-29T13:12:59Z</time>
      </trkpt>
      <trkpt lat="41.0751850" lon="-3.3526130">
        <ele>1018.0</ele>
        <time>2020-09-29T13:13:00Z</time>
      </trkpt>
      <trkpt lat="41.0751850" lon="-3.3526130">
        <ele>1018.0</ele>
        <time>2020-09-29T13:13:01Z</time>
      </trkpt>
      <trkpt lat="41.0751700" lon="-3.3525800">
        <ele>1018.0</ele>
        <time>2020-09-29T13:13:02Z</time>
      </trkpt>
      <trkpt lat="41.0751700" lon="-3.3525800">
        <ele>1019.0</ele>
        <time>2020-09-29T13:13:03Z</time>
      </trkpt>
      <trkpt lat="41.0751600" lon="-3.3525520">
        <ele>1019.0</ele>
        <time>2020-09-29T13:13:04Z</time>
      </trkpt>
      <trkpt lat="41.0751600" lon="-3.3525520">
        <ele>1019.0</ele>
        <time>2020-09-29T13:13:05Z</time>
      </trkpt>
      <trkpt lat="41.0751530" lon="-3.3525120">
        <ele>1019.0</ele>
        <time>2020-09-29T13:13:06Z</time>
      </trkpt>
      <trkpt lat="41.0751530" lon="-3.3525120">
        <ele>1020.0</ele>
        <time>2020-09-29T13:13:07Z</time>
      </trkpt>
      <trkpt lat="41.0751400" lon="-3.3524730">
        <ele>1020.0</ele>
        <time>2020-09-29T13:13:08Z</time>
      </trkpt>
      <trkpt lat="41.0751400" lon="-3.3524730">
        <ele>1020.0</ele>
        <time>2020-09-29T13:13:09Z</time>
      </trkpt>
      <trkpt lat="41.0751220" lon="-3.3524400">
        <ele>1020.0</ele>
        <time>2020-09-29T13:13:10Z</time>
      </trkpt>
      <trkpt lat="41.0751220" lon="-3.3524400">
        <ele>1021.0</ele>
        <time>2020-09-29T13:13:11Z</time>
      </trkpt>
      <trkpt lat="41.0750970" lon="-3.3524130">
        <ele>1021.0</ele>
        <time>2020-09-29T13:13:12Z</time>
      </trkpt>
      <trkpt lat="41.0750850" lon="-3.3524000">
        <ele>1021.0</ele>
        <time>2020-09-29T13:13:13Z</time>
      </trkpt>
      <trkpt lat="41.0750850" lon="-3.3524000">
        <ele>1021.0</ele>
        <time>2020-09-29T13:13:14Z</time>
      </trkpt>
      <trkpt lat="41.0750620" lon="-3.3523680">
        <ele>1021.0</ele>
        <time>2020-09-29T13:13:15Z</time>
      </trkpt>
      <trkpt lat="41.0750620" lon="-3.3523680">
        <ele>1021.0</ele>
        <time>2020-09-29T13:13:16Z</time>
      </trkpt>
      <trkpt lat="41.0750370" lon="-3.3523400">
        <ele>1022.0</ele>
        <time>2020-09-29T13:13:17Z</time>
      </trkpt>
      <trkpt lat="41.0750370" lon="-3.3523400">
        <ele>1022.0</ele>
        <time>2020-09-29T13:13:18Z</time>
      </trkpt>
      <trkpt lat="41.0750050" lon="-3.3523230">
        <ele>1022.0</ele>
        <time>2020-09-29T13:13:19Z</time>
      </trkpt>
      <trkpt lat="41.0749880" lon="-3.3523150">
        <ele>1023.0</ele>
        <time>2020-09-29T13:13:20Z</time>
      </trkpt>
      <trkpt lat="41.0749880" lon="-3.3523150">
        <ele>1023.0</ele>
        <time>2020-09-29T13:13:21Z</time>
      </trkpt>
      <trkpt lat="41.0749620" lon="-3.3523000">
        <ele>1023.0</ele>
        <time>2020-09-29T13:13:22Z</time>
      </trkpt>
      <trkpt lat="41.0749620" lon="-3.3523000">
        <ele>1023.0</ele>
        <time>2020-09-29T13:13:23Z</time>
      </trkpt>
      <trkpt lat="41.0749370" lon="-3.3522820">
        <ele>1024.0</ele>
        <time>2020-09-29T13:13:24Z</time>
      </trkpt>
      <trkpt lat="41.0749280" lon="-3.3522770">
        <ele>1024.0</ele>
        <time>2020-09-29T13:13:25Z</time>
      </trkpt>
      <trkpt lat="41.0749280" lon="-3.3522770">
        <ele>1024.0</ele>
        <time>2020-09-29T13:13:26Z</time>
      </trkpt>
      <trkpt lat="41.0749020" lon="-3.3522650">
        <ele>1024.0</ele>
        <time>2020-09-29T13:13:27Z</time>
      </trkpt>
      <trkpt lat="41.0749020" lon="-3.3522650">
        <ele>1025.0</ele>
        <time>2020-09-29T13:13:28Z</time>
      </trkpt>
      <trkpt lat="41.0748700" lon="-3.3522570">
        <ele>1025.0</ele>
        <time>2020-09-29T13:13:29Z</time>
      </trkpt>
      <trkpt lat="41.0748700" lon="-3.3522570">
        <ele>1025.0</ele>
        <time>2020-09-29T13:13:30Z</time>
      </trkpt>
      <trkpt lat="41.0748450" lon="-3.3522470">
        <ele>1025.0</ele>
        <time>2020-09-29T13:13:31Z</time>
      </trkpt>
      <trkpt lat="41.0748450" lon="-3.3522470">
        <ele>1026.0</ele>
        <time>2020-09-29T13:13:32Z</time>
      </trkpt>
      <trkpt lat="41.0748130" lon="-3.3522400">
        <ele>1026.0</ele>
        <time>2020-09-29T13:13:33Z</time>
      </trkpt>
      <trkpt lat="41.0748130" lon="-3.3522400">
        <ele>1027.0</ele>
        <time>2020-09-29T13:13:34Z</time>
      </trkpt>
      <trkpt lat="41.0747850" lon="-3.3522330">
        <ele>1027.0</ele>
        <time>2020-09-29T13:13:35Z</time>
      </trkpt>
      <trkpt lat="41.0747700" lon="-3.3522300">
        <ele>1027.0</ele>
        <time>2020-09-29T13:13:36Z</time>
      </trkpt>
      <trkpt lat="41.0747550" lon="-3.3522300">
        <ele>1027.0</ele>
        <time>2020-09-29T13:13:37Z</time>
      </trkpt>
      <trkpt lat="41.0747550" lon="-3.3522300">
        <ele>1028.0</ele>
        <time>2020-09-29T13:13:38Z</time>
      </trkpt>
      <trkpt lat="41.0747220" lon="-3.3522230">
        <ele>1028.0</ele>
        <time>2020-09-29T13:13:39Z</time>
      </trkpt>
      <trkpt lat="41.0747050" lon="-3.3522230">
        <ele>1028.0</ele>
        <time>2020-09-29T13:13:40Z</time>
      </trkpt>
      <trkpt lat="41.0747050" lon="-3.3522230">
        <ele>1028.0</ele>
        <time>2020-09-29T13:13:41Z</time>
      </trkpt>
      <trkpt lat="41.0746720" lon="-3.3522200">
        <ele>1029.0</ele>
        <time>2020-09-29T13:13:42Z</time>
      </trkpt>
      <trkpt lat="41.0746580" lon="-3.3522200">
        <ele>1029.0</ele>
        <time>2020-09-29T13:13:43Z</time>
      </trkpt>
      <trkpt lat="41.0746580" lon="-3.3522200">
        <ele>1029.0</ele>
        <time>2020-09-29T13:13:44Z</time>
      </trkpt>
      <trkpt lat="41.0746280" lon="-3.3522230">
        <ele>1029.0</ele>
        <time>2020-09-29T13:13:45Z</time>
      </trkpt>
      <trkpt lat="41.0746280" lon="-3.3522230">
        <ele>1030.0</ele>
        <time>2020-09-29T13:13:46Z</time>
      </trkpt>
      <trkpt lat="41.0745970" lon="-3.3522080">
        <ele>1030.0</ele>
        <time>2020-09-29T13:13:47Z</time>
      </trkpt>
      <trkpt lat="41.0745970" lon="-3.3522080">
        <ele>1031.0</ele>
        <time>2020-09-29T13:13:48Z</time>
      </trkpt>
      <trkpt lat="41.0745800" lon="-3.3522000">
        <ele>1031.0</ele>
        <time>2020-09-29T13:13:49Z</time>
      </trkpt>
      <trkpt lat="41.0745800" lon="-3.3522000">
        <ele>1031.0</ele>
        <time>2020-09-29T13:13:50Z</time>
      </trkpt>
      <trkpt lat="41.0745750" lon="-3.3521970">
        <ele>1031.0</ele>
        <time>2020-09-29T13:13:51Z</time>
      </trkpt>
      <trkpt lat="41.0745750" lon="-3.3521970">
        <ele>1031.0</ele>
        <time>2020-09-29T13:15:00Z</time>
      </trkpt>
      <trkpt lat="41.0746020" lon="-3.3521850">
        <ele>1031.0</ele>
        <time>2020-09-29T13:15:01Z</time>
      </trkpt>
      <trkpt lat="41.0746020" lon="-3.3521850">
        <ele>1031.0</ele>
        <time>2020-09-29T13:15:02Z</time>
      </trkpt>
      <trkpt lat="41.0746330" lon="-3.3521870">
        <ele>1031.0</ele>
        <time>2020-09-29T13:15:03Z</time>
      </trkpt>
      <trkpt lat="41.0746330" lon="-3.3521870">
        <ele>1031.0</ele>
        <time>2020-09-29T13:15:04Z</time>
      </trkpt>
      <trkpt lat="41.0746550" lon="-3.3521980">
        <ele>1031.0</ele>
        <time>2020-09-29T13:15:05Z</time>
      </trkpt>
      <trkpt lat="41.0746600" lon="-3.3522100">
        <ele>1031.0</ele>
        <time>2020-09-29T13:15:06Z</time>
      </trkpt>
      <trkpt lat="41.0746680" lon="-3.3522220">
        <ele>1031.0</ele>
        <time>2020-09-29T13:15:07Z</time>
      </trkpt>
      <trkpt lat="41.0746800" lon="-3.3522270">
        <ele>1031.0</ele>
        <time>2020-09-29T13:15:08Z</time>
      </trkpt>
      <trkpt lat="41.0746930" lon="-3.3522220">
        <ele>1030.0</ele>
        <time>2020-09-29T13:15:09Z</time>
      </trkpt>
      <trkpt lat="41.0746930" lon="-3.3522220">
        <ele>1030.0</ele>
        <time>2020-09-29T13:15:10Z</time>
      </trkpt>
      <trkpt lat="41.0747030" lon="-3.3522100">
        <ele>1030.0</ele>
        <time>2020-09-29T13:15:11Z</time>
      </trkpt>
      <trkpt lat="41.0747020" lon="-3.3522120">
        <ele>1030.0</ele>
        <time>2020-09-29T13:15:12Z</time>
      </trkpt>
      <trkpt lat="41.0747020" lon="-3.3522120">
        <ele>1030.0</ele>
        <time>2020-09-29T13:15:13Z</time>
      </trkpt>
      <trkpt lat="41.0747020" lon="-3.3522180">
        <ele>1030.0</ele>
        <time>2020-09-29T13:15:14Z</time>
      </trkpt>
      <trkpt lat="41.0747020" lon="-3.3522180">
        <ele>1030.0</ele>
        <time>2020-09-29T13:15:15Z</time>
      </trkpt>
      <trkpt lat="41.0747020" lon="-3.3522180">
        <ele>1030.0</ele>
        <time>2020-09-29T13:15:19Z</time>
      </trkpt>
      <trkpt lat="41.0746750" lon="-3.3522280">
        <ele>1030.0</ele>
        <time>2020-09-29T13:15:20Z</time>
      </trkpt>
      <trkpt lat="41.0746730" lon="-3.3522230">
        <ele>1030.0</ele>
        <time>2020-09-29T13:15:21Z</time>
      </trkpt>
      <trkpt lat="41.0746730" lon="-3.3522230">
        <ele>1030.0</ele>
        <time>2020-09-29T13:15:22Z</time>
      </trkpt>
      <trkpt lat="41.0746720" lon="-3.3522220">
        <ele>1030.0</ele>
        <time>2020-09-29T13:15:23Z</time>
      </trkpt>
      <trkpt lat="41.0746720" lon="-3.3522220">
        <ele>1030.0</ele>
        <time>2020-09-29T13:15:24Z</time>
      </trkpt>
      <trkpt lat="41.0746720" lon="-3.3522220">
        <ele>1030.0</ele>
        <time>2020-09-29T13:15:26Z</time>
      </trkpt>
      <trkpt lat="41.0746570" lon="-3.3521870">
        <ele>1030.0</ele>
        <time>2020-09-29T13:15:27Z</time>
      </trkpt>
      <trkpt lat="41.0746570" lon="-3.3521870">
        <ele>1030.0</ele>
        <time>2020-09-29T13:15:28Z</time>
      </trkpt>
      <trkpt lat="41.0746080" lon="-3.3521700">
        <ele>1030.0</ele>
        <time>2020-09-29T13:15:29Z</time>
      </trkpt>
      <trkpt lat="41.0746080" lon="-3.3521700">
        <ele>1030.0</ele>
        <time>2020-09-29T13:15:30Z</time>
      </trkpt>
      <trkpt lat="41.0746080" lon="-3.3521700">
        <ele>1030.0</ele>
        <time>2020-09-29T13:15:31Z</time>
      </trkpt>
      <trkpt lat="41.0745780" lon="-3.3521680">
        <ele>1030.0</ele>
        <time>2020-09-29T13:15:32Z</time>
      </trkpt>
      <trkpt lat="41.0745780" lon="-3.3521680">
        <ele>1030.0</ele>
        <time>2020-09-29T13:15:33Z</time>
      </trkpt>
      <trkpt lat="41.0745520" lon="-3.3521570">
        <ele>1030.0</ele>
        <time>2020-09-29T13:15:34Z</time>
      </trkpt>
      <trkpt lat="41.0745520" lon="-3.3521570">
        <ele>1030.0</ele>
        <time>2020-09-29T13:15:35Z</time>
      </trkpt>
      <trkpt lat="41.0745270" lon="-3.3521630">
        <ele>1030.0</ele>
        <time>2020-09-29T13:15:36Z</time>
      </trkpt>
      <trkpt lat="41.0745220" lon="-3.3521720">
        <ele>1030.0</ele>
        <time>2020-09-29T13:15:37Z</time>
      </trkpt>
      <trkpt lat="41.0745220" lon="-3.3521720">
        <ele>1030.0</ele>
        <time>2020-09-29T13:15:38Z</time>
      </trkpt>
      <trkpt lat="41.0745230" lon="-3.3521750">
        <ele>1030.0</ele>
        <time>2020-09-29T13:15:39Z</time>
      </trkpt>
      <trkpt lat="41.0745230" lon="-3.3521750">
        <ele>1030.0</ele>
        <time>2020-09-29T13:15:40Z</time>
      </trkpt>
      <trkpt lat="41.0745230" lon="-3.3521780">
        <ele>1030.0</ele>
        <time>2020-09-29T13:15:46Z</time>
      </trkpt>
      <trkpt lat="41.0745230" lon="-3.3521780">
        <ele>1030.0</ele>
        <time>2020-09-29T13:15:47Z</time>
      </trkpt>
      <trkpt lat="41.0744970" lon="-3.3522070">
        <ele>1030.0</ele>
        <time>2020-09-29T13:15:48Z</time>
      </trkpt>
      <trkpt lat="41.0744970" lon="-3.3522070">
        <ele>1030.0</ele>
        <time>2020-09-29T13:15:49Z</time>
      </trkpt>
      <trkpt lat="41.0744950" lon="-3.3522070">
        <ele>1030.0</ele>
        <time>2020-09-29T13:15:50Z</time>
      </trkpt>
      <trkpt lat="41.0744950" lon="-3.3522070">
        <ele>1030.0</ele>
        <time>2020-09-29T13:15:51Z</time>
      </trkpt>
      <trkpt lat="41.0744970" lon="-3.3522070">
        <ele>1030.0</ele>
        <time>2020-09-29T13:16:55Z</time>
      </trkpt>
      <trkpt lat="41.0744970" lon="-3.3522070">
        <ele>1030.0</ele>
        <time>2020-09-29T13:16:56Z</time>
      </trkpt>
      <trkpt lat="41.0744570" lon="-3.3521570">
        <ele>1030.0</ele>
        <time>2020-09-29T13:16:57Z</time>
      </trkpt>
      <trkpt lat="41.0744570" lon="-3.3521570">
        <ele>1030.0</ele>
        <time>2020-09-29T13:16:58Z</time>
      </trkpt>
      <trkpt lat="41.0744120" lon="-3.3521550">
        <ele>1031.0</ele>
        <time>2020-09-29T13:16:59Z</time>
      </trkpt>
      <trkpt lat="41.0744120" lon="-3.3521550">
        <ele>1031.0</ele>
        <time>2020-09-29T13:17:00Z</time>
      </trkpt>
      <trkpt lat="41.0743700" lon="-3.3521430">
        <ele>1031.0</ele>
        <time>2020-09-29T13:17:01Z</time>
      </trkpt>
      <trkpt lat="41.0743700" lon="-3.3521430">
        <ele>1031.0</ele>
        <time>2020-09-29T13:17:02Z</time>
      </trkpt>
      <trkpt lat="41.0743380" lon="-3.3521150">
        <ele>1032.0</ele>
        <time>2020-09-29T13:17:03Z</time>
      </trkpt>
      <trkpt lat="41.0743270" lon="-3.3520920">
        <ele>1033.0</ele>
        <time>2020-09-29T13:17:04Z</time>
      </trkpt>
      <trkpt lat="41.0743270" lon="-3.3520920">
        <ele>1033.0</ele>
        <time>2020-09-29T13:17:05Z</time>
      </trkpt>
      <trkpt lat="41.0743080" lon="-3.3520450">
        <ele>1034.0</ele>
        <time>2020-09-29T13:17:06Z</time>
      </trkpt>
      <trkpt lat="41.0743080" lon="-3.3520450">
        <ele>1034.0</ele>
        <time>2020-09-29T13:17:07Z</time>
      </trkpt>
      <trkpt lat="41.0742930" lon="-3.3520020">
        <ele>1034.0</ele>
        <time>2020-09-29T13:17:08Z</time>
      </trkpt>
      <trkpt lat="41.0742930" lon="-3.3520020">
        <ele>1034.0</ele>
        <time>2020-09-29T13:17:09Z</time>
      </trkpt>
      <trkpt lat="41.0742750" lon="-3.3519570">
        <ele>1035.0</ele>
        <time>2020-09-29T13:17:10Z</time>
      </trkpt>
      <trkpt lat="41.0742650" lon="-3.3519320">
        <ele>1035.0</ele>
        <time>2020-09-29T13:17:11Z</time>
      </trkpt>
      <trkpt lat="41.0742650" lon="-3.3519320">
        <ele>1036.0</ele>
        <time>2020-09-29T13:17:12Z</time>
      </trkpt>
      <trkpt lat="41.0742470" lon="-3.3518720">
        <ele>1036.0</ele>
        <time>2020-09-29T13:17:13Z</time>
      </trkpt>
      <trkpt lat="41.0742470" lon="-3.3518720">
        <ele>1036.0</ele>
        <time>2020-09-29T13:17:14Z</time>
      </trkpt>
      <trkpt lat="41.0742330" lon="-3.3518230">
        <ele>1036.0</ele>
        <time>2020-09-29T13:17:15Z</time>
      </trkpt>
      <trkpt lat="41.0742270" lon="-3.3518000">
        <ele>1038.0</ele>
        <time>2020-09-29T13:17:16Z</time>
      </trkpt>
      <trkpt lat="41.0742270" lon="-3.3518000">
        <ele>1038.0</ele>
        <time>2020-09-29T13:17:17Z</time>
      </trkpt>
      <trkpt lat="41.0742170" lon="-3.3517580">
        <ele>1038.0</ele>
        <time>2020-09-29T13:17:18Z</time>
      </trkpt>
      <trkpt lat="41.0742120" lon="-3.3517380">
        <ele>1038.0</ele>
        <time>2020-09-29T13:17:19Z</time>
      </trkpt>
      <trkpt lat="41.0742120" lon="-3.3517380">
        <ele>1039.0</ele>
        <time>2020-09-29T13:17:20Z</time>
      </trkpt>
      <trkpt lat="41.0742030" lon="-3.3516980">
        <ele>1039.0</ele>
        <time>2020-09-29T13:17:21Z</time>
      </trkpt>
      <trkpt lat="41.0742000" lon="-3.3516780">
        <ele>1039.0</ele>
        <time>2020-09-29T13:17:22Z</time>
      </trkpt>
      <trkpt lat="41.0742000" lon="-3.3516780">
        <ele>1039.0</ele>
        <time>2020-09-29T13:17:23Z</time>
      </trkpt>
      <trkpt lat="41.0741980" lon="-3.3516380">
        <ele>1040.0</ele>
        <time>2020-09-29T13:17:24Z</time>
      </trkpt>
      <trkpt lat="41.0741980" lon="-3.3516380">
        <ele>1040.0</ele>
        <time>2020-09-29T13:17:25Z</time>
      </trkpt>
      <trkpt lat="41.0741950" lon="-3.3515970">
        <ele>1040.0</ele>
        <time>2020-09-29T13:17:26Z</time>
      </trkpt>
      <trkpt lat="41.0741930" lon="-3.3515750">
        <ele>1040.0</ele>
        <time>2020-09-29T13:17:27Z</time>
      </trkpt>
      <trkpt lat="41.0741930" lon="-3.3515750">
        <ele>1041.0</ele>
        <time>2020-09-29T13:17:28Z</time>
      </trkpt>
      <trkpt lat="41.0742070" lon="-3.3515430">
        <ele>1041.0</ele>
        <time>2020-09-29T13:17:29Z</time>
      </trkpt>
      <trkpt lat="41.0742070" lon="-3.3515430">
        <ele>1041.0</ele>
        <time>2020-09-29T13:17:30Z</time>
      </trkpt>
      <trkpt lat="41.0742220" lon="-3.3515130">
        <ele>1041.0</ele>
        <time>2020-09-29T13:17:31Z</time>
      </trkpt>
      <trkpt lat="41.0742220" lon="-3.3515130">
        <ele>1042.0</ele>
        <time>2020-09-29T13:17:32Z</time>
      </trkpt>
      <trkpt lat="41.0742500" lon="-3.3515050">
        <ele>1042.0</ele>
        <time>2020-09-29T13:17:33Z</time>
      </trkpt>
      <trkpt lat="41.0742500" lon="-3.3515050">
        <ele>1042.0</ele>
        <time>2020-09-29T13:17:34Z</time>
      </trkpt>
      <trkpt lat="41.0742750" lon="-3.3515180">
        <ele>1042.0</ele>
        <time>2020-09-29T13:17:35Z</time>
      </trkpt>
      <trkpt lat="41.0742750" lon="-3.3515180">
        <ele>1042.0</ele>
        <time>2020-09-29T13:17:36Z</time>
      </trkpt>
      <trkpt lat="41.0743000" lon="-3.3515430">
        <ele>1042.0</ele>
        <time>2020-09-29T13:17:37Z</time>
      </trkpt>
      <trkpt lat="41.0743000" lon="-3.3515430">
        <ele>1042.0</ele>
        <time>2020-09-29T13:17:38Z</time>
      </trkpt>
      <trkpt lat="41.0743270" lon="-3.3515700">
        <ele>1043.0</ele>
        <time>2020-09-29T13:17:39Z</time>
      </trkpt>
      <trkpt lat="41.0743270" lon="-3.3515700">
        <ele>1043.0</ele>
        <time>2020-09-29T13:17:40Z</time>
      </trkpt>
      <trkpt lat="41.0743470" lon="-3.3516020">
        <ele>1043.0</ele>
        <time>2020-09-29T13:17:41Z</time>
      </trkpt>
      <trkpt lat="41.0743470" lon="-3.3516020">
        <ele>1043.0</ele>
        <time>2020-09-29T13:17:42Z</time>
      </trkpt>
      <trkpt lat="41.0743620" lon="-3.3516450">
        <ele>1044.0</ele>
        <time>2020-09-29T13:17:43Z</time>
      </trkpt>
      <trkpt lat="41.0743620" lon="-3.3516450">
        <ele>1044.0</ele>
        <time>2020-09-29T13:17:44Z</time>
      </trkpt>
      <trkpt lat="41.0743870" lon="-3.3516680">
        <ele>1045.0</ele>
        <time>2020-09-29T13:17:45Z</time>
      </trkpt>
      <trkpt lat="41.0743870" lon="-3.3516680">
        <ele>1045.0</ele>
        <time>2020-09-29T13:17:46Z</time>
      </trkpt>
      <trkpt lat="41.0744150" lon="-3.3516800">
        <ele>1045.0</ele>
        <time>2020-09-29T13:17:47Z</time>
      </trkpt>
      <trkpt lat="41.0744150" lon="-3.3516800">
        <ele>1045.0</ele>
        <time>2020-09-29T13:17:48Z</time>
      </trkpt>
      <trkpt lat="41.0744450" lon="-3.3516870">
        <ele>1046.0</ele>
        <time>2020-09-29T13:17:49Z</time>
      </trkpt>
      <trkpt lat="41.0744450" lon="-3.3516870">
        <ele>1046.0</ele>
        <time>2020-09-29T13:17:50Z</time>
      </trkpt>
      <trkpt lat="41.0744750" lon="-3.3516950">
        <ele>1046.0</ele>
        <time>2020-09-29T13:17:51Z</time>
      </trkpt>
      <trkpt lat="41.0744870" lon="-3.3517050">
        <ele>1046.0</ele>
        <time>2020-09-29T13:17:52Z</time>
      </trkpt>
      <trkpt lat="41.0744870" lon="-3.3517050">
        <ele>1047.0</ele>
        <time>2020-09-29T13:17:53Z</time>
      </trkpt>
      <trkpt lat="41.0745100" lon="-3.3517350">
        <ele>1047.0</ele>
        <time>2020-09-29T13:17:54Z</time>
      </trkpt>
      <trkpt lat="41.0745100" lon="-3.3517350">
        <ele>1047.0</ele>
        <time>2020-09-29T13:17:55Z</time>
      </trkpt>
      <trkpt lat="41.0745330" lon="-3.3517670">
        <ele>1047.0</ele>
        <time>2020-09-29T13:17:56Z</time>
      </trkpt>
      <trkpt lat="41.0745330" lon="-3.3517670">
        <ele>1049.0</ele>
        <time>2020-09-29T13:17:57Z</time>
      </trkpt>
      <trkpt lat="41.0745720" lon="-3.3517700">
        <ele>1049.0</ele>
        <time>2020-09-29T13:17:58Z</time>
      </trkpt>
      <trkpt lat="41.0745880" lon="-3.3517550">
        <ele>1049.0</ele>
        <time>2020-09-29T13:17:59Z</time>
      </trkpt>
      <trkpt lat="41.0745880" lon="-3.3517550">
        <ele>1049.0</ele>
        <time>2020-09-29T13:18:00Z</time>
      </trkpt>
      <trkpt lat="41.0746220" lon="-3.3517400">
        <ele>1049.0</ele>
        <time>2020-09-29T13:18:01Z</time>
      </trkpt>
      <trkpt lat="41.0746220" lon="-3.3517400">
        <ele>1049.0</ele>
        <time>2020-09-29T13:18:02Z</time>
      </trkpt>
      <trkpt lat="41.0746480" lon="-3.3517470">
        <ele>1049.0</ele>
        <time>2020-09-29T13:18:03Z</time>
      </trkpt>
      <trkpt lat="41.0746480" lon="-3.3517470">
        <ele>1049.0</ele>
        <time>2020-09-29T13:18:04Z</time>
      </trkpt>
      <trkpt lat="41.0746770" lon="-3.3517520">
        <ele>1051.0</ele>
        <time>2020-09-29T13:18:05Z</time>
      </trkpt>
      <trkpt lat="41.0746770" lon="-3.3517520">
        <ele>1051.0</ele>
        <time>2020-09-29T13:18:06Z</time>
      </trkpt>
      <trkpt lat="41.0747030" lon="-3.3517520">
        <ele>1051.0</ele>
        <time>2020-09-29T13:18:07Z</time>
      </trkpt>
      <trkpt lat="41.0747170" lon="-3.3517480">
        <ele>1051.0</ele>
        <time>2020-09-29T13:18:08Z</time>
      </trkpt>
      <trkpt lat="41.0747170" lon="-3.3517480">
        <ele>1051.0</ele>
        <time>2020-09-29T13:18:09Z</time>
      </trkpt>
      <trkpt lat="41.0747450" lon="-3.3517420">
        <ele>1051.0</ele>
        <time>2020-09-29T13:18:10Z</time>
      </trkpt>
      <trkpt lat="41.0747450" lon="-3.3517420">
        <ele>1053.0</ele>
        <time>2020-09-29T13:18:11Z</time>
      </trkpt>
      <trkpt lat="41.0747700" lon="-3.3517300">
        <ele>1053.0</ele>
        <time>2020-09-29T13:18:12Z</time>
      </trkpt>
      <trkpt lat="41.0747820" lon="-3.3517180">
        <ele>1053.0</ele>
        <time>2020-09-29T13:18:13Z</time>
      </trkpt>
      <trkpt lat="41.0747820" lon="-3.3517180">
        <ele>1054.0</ele>
        <time>2020-09-29T13:18:14Z</time>
      </trkpt>
      <trkpt lat="41.0748050" lon="-3.3516970">
        <ele>1054.0</ele>
        <time>2020-09-29T13:18:15Z</time>
      </trkpt>
      <trkpt lat="41.0748050" lon="-3.3516970">
        <ele>1054.0</ele>
        <time>2020-09-29T13:18:16Z</time>
      </trkpt>
      <trkpt lat="41.0748330" lon="-3.3516920">
        <ele>1054.0</ele>
        <time>2020-09-29T13:18:17Z</time>
      </trkpt>
      <trkpt lat="41.0748330" lon="-3.3516920">
        <ele>1055.0</ele>
        <time>2020-09-29T13:18:18Z</time>
      </trkpt>
      <trkpt lat="41.0748600" lon="-3.3516950">
        <ele>1055.0</ele>
        <time>2020-09-29T13:18:19Z</time>
      </trkpt>
      <trkpt lat="41.0748600" lon="-3.3516950">
        <ele>1055.0</ele>
        <time>2020-09-29T13:18:20Z</time>
      </trkpt>
      <trkpt lat="41.0748870" lon="-3.3516900">
        <ele>1055.0</ele>
        <time>2020-09-29T13:18:21Z</time>
      </trkpt>
      <trkpt lat="41.0749000" lon="-3.3516800">
        <ele>1055.0</ele>
        <time>2020-09-29T13:18:22Z</time>
      </trkpt>
      <trkpt lat="41.0749000" lon="-3.3516800">
        <ele>1055.0</ele>
        <time>2020-09-29T13:18:23Z</time>
      </trkpt>
      <trkpt lat="41.0749270" lon="-3.3516630">
        <ele>1056.0</ele>
        <time>2020-09-29T13:18:24Z</time>
      </trkpt>
      <trkpt lat="41.0749270" lon="-3.3516630">
        <ele>1056.0</ele>
        <time>2020-09-29T13:18:25Z</time>
      </trkpt>
      <trkpt lat="41.0749550" lon="-3.3516580">
        <ele>1056.0</ele>
        <time>2020-09-29T13:18:26Z</time>
      </trkpt>
      <trkpt lat="41.0749550" lon="-3.3516580">
        <ele>1056.0</ele>
        <time>2020-09-29T13:18:27Z</time>
      </trkpt>
      <trkpt lat="41.0749800" lon="-3.3516500">
        <ele>1056.0</ele>
        <time>2020-09-29T13:18:28Z</time>
      </trkpt>
      <trkpt lat="41.0749800" lon="-3.3516500">
        <ele>1057.0</ele>
        <time>2020-09-29T13:18:29Z</time>
      </trkpt>
      <trkpt lat="41.0750070" lon="-3.3516320">
        <ele>1057.0</ele>
        <time>2020-09-29T13:18:30Z</time>
      </trkpt>
      <trkpt lat="41.0750180" lon="-3.3516200">
        <ele>1057.0</ele>
        <time>2020-09-29T13:18:31Z</time>
      </trkpt>
      <trkpt lat="41.0750180" lon="-3.3516200">
        <ele>1057.0</ele>
        <time>2020-09-29T13:18:32Z</time>
      </trkpt>
      <trkpt lat="41.0750430" lon="-3.3515950">
        <ele>1057.0</ele>
        <time>2020-09-29T13:18:33Z</time>
      </trkpt>
      <trkpt lat="41.0750570" lon="-3.3515830">
        <ele>1057.0</ele>
        <time>2020-09-29T13:18:34Z</time>
      </trkpt>
      <trkpt lat="41.0750570" lon="-3.3515830">
        <ele>1057.0</ele>
        <time>2020-09-29T13:18:35Z</time>
      </trkpt>
      <trkpt lat="41.0750850" lon="-3.3515630">
        <ele>1057.0</ele>
        <time>2020-09-29T13:18:36Z</time>
      </trkpt>
      <trkpt lat="41.0750850" lon="-3.3515630">
        <ele>1058.0</ele>
        <time>2020-09-29T13:18:37Z</time>
      </trkpt>
      <trkpt lat="41.0751130" lon="-3.3515530">
        <ele>1058.0</ele>
        <time>2020-09-29T13:18:38Z</time>
      </trkpt>
      <trkpt lat="41.0751130" lon="-3.3515530">
        <ele>1058.0</ele>
        <time>2020-09-29T13:18:39Z</time>
      </trkpt>
      <trkpt lat="41.0751380" lon="-3.3515330">
        <ele>1058.0</ele>
        <time>2020-09-29T13:18:40Z</time>
      </trkpt>
      <trkpt lat="41.0751380" lon="-3.3515330">
        <ele>1059.0</ele>
        <time>2020-09-29T13:18:41Z</time>
      </trkpt>
      <trkpt lat="41.0751600" lon="-3.3515080">
        <ele>1059.0</ele>
        <time>2020-09-29T13:18:42Z</time>
      </trkpt>
      <trkpt lat="41.0751600" lon="-3.3515080">
        <ele>1059.0</ele>
        <time>2020-09-29T13:18:43Z</time>
      </trkpt>
      <trkpt lat="41.0751820" lon="-3.3514850">
        <ele>1059.0</ele>
        <time>2020-09-29T13:18:44Z</time>
      </trkpt>
      <trkpt lat="41.0751820" lon="-3.3514850">
        <ele>1060.0</ele>
        <time>2020-09-29T13:18:45Z</time>
      </trkpt>
      <trkpt lat="41.0752050" lon="-3.3514630">
        <ele>1060.0</ele>
        <time>2020-09-29T13:18:46Z</time>
      </trkpt>
      <trkpt lat="41.0752150" lon="-3.3514480">
        <ele>1060.0</ele>
        <time>2020-09-29T13:18:47Z</time>
      </trkpt>
      <trkpt lat="41.0752150" lon="-3.3514480">
        <ele>1060.0</ele>
        <time>2020-09-29T13:18:48Z</time>
      </trkpt>
      <trkpt lat="41.0752380" lon="-3.3514200">
        <ele>1061.0</ele>
        <time>2020-09-29T13:18:49Z</time>
      </trkpt>
      <trkpt lat="41.0752380" lon="-3.3514200">
        <ele>1061.0</ele>
        <time>2020-09-29T13:18:50Z</time>
      </trkpt>
      <trkpt lat="41.0752630" lon="-3.3513920">
        <ele>1061.0</ele>
        <time>2020-09-29T13:18:51Z</time>
      </trkpt>
      <trkpt lat="41.0752630" lon="-3.3513920">
        <ele>1062.0</ele>
        <time>2020-09-29T13:18:52Z</time>
      </trkpt>
      <trkpt lat="41.0752880" lon="-3.3513670">
        <ele>1062.0</ele>
        <time>2020-09-29T13:18:53Z</time>
      </trkpt>
      <trkpt lat="41.0752880" lon="-3.3513670">
        <ele>1062.0</ele>
        <time>2020-09-29T13:18:54Z</time>
      </trkpt>
      <trkpt lat="41.0753180" lon="-3.3513580">
        <ele>1062.0</ele>
        <time>2020-09-29T13:18:55Z</time>
      </trkpt>
      <trkpt lat="41.0753180" lon="-3.3513580">
        <ele>1063.0</ele>
        <time>2020-09-29T13:18:56Z</time>
      </trkpt>
      <trkpt lat="41.0753500" lon="-3.3513520">
        <ele>1063.0</ele>
        <time>2020-09-29T13:18:57Z</time>
      </trkpt>
      <trkpt lat="41.0753580" lon="-3.3513370">
        <ele>1063.0</ele>
        <time>2020-09-29T13:18:58Z</time>
      </trkpt>
      <trkpt lat="41.0753580" lon="-3.3513370">
        <ele>1063.0</ele>
        <time>2020-09-29T13:18:59Z</time>
      </trkpt>
      <trkpt lat="41.0753770" lon="-3.3512970">
        <ele>1063.0</ele>
        <time>2020-09-29T13:19:00Z</time>
      </trkpt>
      <trkpt lat="41.0753900" lon="-3.3512800">
        <ele>1063.0</ele>
        <time>2020-09-29T13:19:01Z</time>
      </trkpt>
      <trkpt lat="41.0753900" lon="-3.3512800">
        <ele>1064.0</ele>
        <time>2020-09-29T13:19:02Z</time>
      </trkpt>
      <trkpt lat="41.0754170" lon="-3.3512520">
        <ele>1064.0</ele>
        <time>2020-09-29T13:19:03Z</time>
      </trkpt>
      <trkpt lat="41.0754170" lon="-3.3512520">
        <ele>1064.0</ele>
        <time>2020-09-29T13:19:04Z</time>
      </trkpt>
      <trkpt lat="41.0754470" lon="-3.3512280">
        <ele>1064.0</ele>
        <time>2020-09-29T13:19:05Z</time>
      </trkpt>
      <trkpt lat="41.0754470" lon="-3.3512280">
        <ele>1065.0</ele>
        <time>2020-09-29T13:19:06Z</time>
      </trkpt>
      <trkpt lat="41.0754830" lon="-3.3512230">
        <ele>1065.0</ele>
        <time>2020-09-29T13:19:07Z</time>
      </trkpt>
      <trkpt lat="41.0754830" lon="-3.3512230">
        <ele>1065.0</ele>
        <time>2020-09-29T13:19:08Z</time>
      </trkpt>
      <trkpt lat="41.0755180" lon="-3.3512350">
        <ele>1065.0</ele>
        <time>2020-09-29T13:19:09Z</time>
      </trkpt>
      <trkpt lat="41.0755180" lon="-3.3512350">
        <ele>1065.0</ele>
        <time>2020-09-29T13:19:10Z</time>
      </trkpt>
      <trkpt lat="41.0755530" lon="-3.3512500">
        <ele>1065.0</ele>
        <time>2020-09-29T13:19:11Z</time>
      </trkpt>
      <trkpt lat="41.0755530" lon="-3.3512500">
        <ele>1065.0</ele>
        <time>2020-09-29T13:19:12Z</time>
      </trkpt>
      <trkpt lat="41.0755870" lon="-3.3512670">
        <ele>1065.0</ele>
        <time>2020-09-29T13:19:13Z</time>
      </trkpt>
      <trkpt lat="41.0755870" lon="-3.3512670">
        <ele>1066.0</ele>
        <time>2020-09-29T13:19:14Z</time>
      </trkpt>
      <trkpt lat="41.0756170" lon="-3.3512770">
        <ele>1066.0</ele>
        <time>2020-09-29T13:19:15Z</time>
      </trkpt>
      <trkpt lat="41.0756330" lon="-3.3512820">
        <ele>1066.0</ele>
        <time>2020-09-29T13:19:16Z</time>
      </trkpt>
      <trkpt lat="41.0756330" lon="-3.3512820">
        <ele>1066.0</ele>
        <time>2020-09-29T13:19:17Z</time>
      </trkpt>
      <trkpt lat="41.0756670" lon="-3.3513100">
        <ele>1067.0</ele>
        <time>2020-09-29T13:19:18Z</time>
      </trkpt>
      <trkpt lat="41.0756820" lon="-3.3513200">
        <ele>1067.0</ele>
        <time>2020-09-29T13:19:19Z</time>
      </trkpt>
      <trkpt lat="41.0756970" lon="-3.3513280">
        <ele>1067.0</ele>
        <time>2020-09-29T13:19:20Z</time>
      </trkpt>
      <trkpt lat="41.0756970" lon="-3.3513280">
        <ele>1067.0</ele>
        <time>2020-09-29T13:19:21Z</time>
      </trkpt>
      <trkpt lat="41.0757280" lon="-3.3513500">
        <ele>1068.0</ele>
        <time>2020-09-29T13:19:22Z</time>
      </trkpt>
      <trkpt lat="41.0757450" lon="-3.3513550">
        <ele>1068.0</ele>
        <time>2020-09-29T13:19:23Z</time>
      </trkpt>
      <trkpt lat="41.0757450" lon="-3.3513550">
        <ele>1068.0</ele>
        <time>2020-09-29T13:19:24Z</time>
      </trkpt>
      <trkpt lat="41.0757780" lon="-3.3513700">
        <ele>1069.0</ele>
        <time>2020-09-29T13:19:25Z</time>
      </trkpt>
      <trkpt lat="41.0757780" lon="-3.3513700">
        <ele>1069.0</ele>
        <time>2020-09-29T13:19:26Z</time>
      </trkpt>
      <trkpt lat="41.0758120" lon="-3.3513900">
        <ele>1069.0</ele>
        <time>2020-09-29T13:19:27Z</time>
      </trkpt>
      <trkpt lat="41.0758280" lon="-3.3514020">
        <ele>1069.0</ele>
        <time>2020-09-29T13:19:28Z</time>
      </trkpt>
      <trkpt lat="41.0758280" lon="-3.3514020">
        <ele>1070.0</ele>
        <time>2020-09-29T13:19:29Z</time>
      </trkpt>
      <trkpt lat="41.0758520" lon="-3.3514250">
        <ele>1070.0</ele>
        <time>2020-09-29T13:19:30Z</time>
      </trkpt>
      <trkpt lat="41.0758650" lon="-3.3514400">
        <ele>1070.0</ele>
        <time>2020-09-29T13:19:31Z</time>
      </trkpt>
      <trkpt lat="41.0758650" lon="-3.3514400">
        <ele>1070.0</ele>
        <time>2020-09-29T13:19:32Z</time>
      </trkpt>
      <trkpt lat="41.0758950" lon="-3.3514600">
        <ele>1070.0</ele>
        <time>2020-09-29T13:19:33Z</time>
      </trkpt>
      <trkpt lat="41.0758950" lon="-3.3514600">
        <ele>1070.0</ele>
        <time>2020-09-29T13:19:34Z</time>
      </trkpt>
      <trkpt lat="41.0759300" lon="-3.3514770">
        <ele>1071.0</ele>
        <time>2020-09-29T13:19:35Z</time>
      </trkpt>
      <trkpt lat="41.0759300" lon="-3.3514770">
        <ele>1071.0</ele>
        <time>2020-09-29T13:19:36Z</time>
      </trkpt>
      <trkpt lat="41.0759670" lon="-3.3514930">
        <ele>1071.0</ele>
        <time>2020-09-29T13:19:37Z</time>
      </trkpt>
      <trkpt lat="41.0759670" lon="-3.3514930">
        <ele>1071.0</ele>
        <time>2020-09-29T13:19:38Z</time>
      </trkpt>
      <trkpt lat="41.0760000" lon="-3.3515100">
        <ele>1071.0</ele>
        <time>2020-09-29T13:19:39Z</time>
      </trkpt>
      <trkpt lat="41.0760000" lon="-3.3515100">
        <ele>1071.0</ele>
        <time>2020-09-29T13:19:40Z</time>
      </trkpt>
      <trkpt lat="41.0760370" lon="-3.3515200">
        <ele>1071.0</ele>
        <time>2020-09-29T13:19:41Z</time>
      </trkpt>
      <trkpt lat="41.0760370" lon="-3.3515200">
        <ele>1071.0</ele>
        <time>2020-09-29T13:19:42Z</time>
      </trkpt>
      <trkpt lat="41.0760670" lon="-3.3514980">
        <ele>1072.0</ele>
        <time>2020-09-29T13:19:43Z</time>
      </trkpt>
      <trkpt lat="41.0760670" lon="-3.3514980">
        <ele>1072.0</ele>
        <time>2020-09-29T13:19:44Z</time>
      </trkpt>
      <trkpt lat="41.0760830" lon="-3.3514530">
        <ele>1072.0</ele>
        <time>2020-09-29T13:19:45Z</time>
      </trkpt>
      <trkpt lat="41.0760880" lon="-3.3514280">
        <ele>1072.0</ele>
        <time>2020-09-29T13:19:46Z</time>
      </trkpt>
      <trkpt lat="41.0760880" lon="-3.3514280">
        <ele>1073.0</ele>
        <time>2020-09-29T13:19:47Z</time>
      </trkpt>
      <trkpt lat="41.0760830" lon="-3.3513800">
        <ele>1073.0</ele>
        <time>2020-09-29T13:19:48Z</time>
      </trkpt>
      <trkpt lat="41.0760830" lon="-3.3513800">
        <ele>1073.0</ele>
        <time>2020-09-29T13:19:49Z</time>
      </trkpt>
      <trkpt lat="41.0760670" lon="-3.3513320">
        <ele>1073.0</ele>
        <time>2020-09-29T13:19:50Z</time>
      </trkpt>
      <trkpt lat="41.0760670" lon="-3.3513320">
        <ele>1074.0</ele>
        <time>2020-09-29T13:19:51Z</time>
      </trkpt>
      <trkpt lat="41.0760330" lon="-3.3512970">
        <ele>1074.0</ele>
        <time>2020-09-29T13:19:52Z</time>
      </trkpt>
      <trkpt lat="41.0760150" lon="-3.3512820">
        <ele>1074.0</ele>
        <time>2020-09-29T13:19:53Z</time>
      </trkpt>
      <trkpt lat="41.0760150" lon="-3.3512820">
        <ele>1074.0</ele>
        <time>2020-09-29T13:19:54Z</time>
      </trkpt>
      <trkpt lat="41.0759770" lon="-3.3512600">
        <ele>1075.0</ele>
        <time>2020-09-29T13:19:55Z</time>
      </trkpt>
      <trkpt lat="41.0759770" lon="-3.3512600">
        <ele>1075.0</ele>
        <time>2020-09-29T13:19:56Z</time>
      </trkpt>
      <trkpt lat="41.0759400" lon="-3.3512300">
        <ele>1075.0</ele>
        <time>2020-09-29T13:19:57Z</time>
      </trkpt>
      <trkpt lat="41.0759400" lon="-3.3512300">
        <ele>1075.0</ele>
        <time>2020-09-29T13:19:58Z</time>
      </trkpt>
      <trkpt lat="41.0759080" lon="-3.3511930">
        <ele>1075.0</ele>
        <time>2020-09-29T13:19:59Z</time>
      </trkpt>
      <trkpt lat="41.0758930" lon="-3.3511750">
        <ele>1076.0</ele>
        <time>2020-09-29T13:20:00Z</time>
      </trkpt>
      <trkpt lat="41.0758930" lon="-3.3511750">
        <ele>1076.0</ele>
        <time>2020-09-29T13:20:01Z</time>
      </trkpt>
      <trkpt lat="41.0758650" lon="-3.3511370">
        <ele>1076.0</ele>
        <time>2020-09-29T13:20:02Z</time>
      </trkpt>
      <trkpt lat="41.0758650" lon="-3.3511370">
        <ele>1076.0</ele>
        <time>2020-09-29T13:20:03Z</time>
      </trkpt>
      <trkpt lat="41.0758300" lon="-3.3511050">
        <ele>1077.0</ele>
        <time>2020-09-29T13:20:04Z</time>
      </trkpt>
      <trkpt lat="41.0758300" lon="-3.3511050">
        <ele>1077.0</ele>
        <time>2020-09-29T13:20:05Z</time>
      </trkpt>
      <trkpt lat="41.0757970" lon="-3.3510680">
        <ele>1077.0</ele>
        <time>2020-09-29T13:20:06Z</time>
      </trkpt>
      <trkpt lat="41.0757820" lon="-3.3510470">
        <ele>1077.0</ele>
        <time>2020-09-29T13:20:07Z</time>
      </trkpt>
      <trkpt lat="41.0757820" lon="-3.3510470">
        <ele>1078.0</ele>
        <time>2020-09-29T13:20:08Z</time>
      </trkpt>
      <trkpt lat="41.0757570" lon="-3.3509970">
        <ele>1078.0</ele>
        <time>2020-09-29T13:20:09Z</time>
      </trkpt>
      <trkpt lat="41.0757450" lon="-3.3509700">
        <ele>1078.0</ele>
        <time>2020-09-29T13:20:10Z</time>
      </trkpt>
      <trkpt lat="41.0757320" lon="-3.3509430">
        <ele>1078.0</ele>
        <time>2020-09-29T13:20:11Z</time>
      </trkpt>
      <trkpt lat="41.0757320" lon="-3.3509430">
        <ele>1079.0</ele>
        <time>2020-09-29T13:20:12Z</time>
      </trkpt>
      <trkpt lat="41.0757080" lon="-3.3508950">
        <ele>1079.0</ele>
        <time>2020-09-29T13:20:13Z</time>
      </trkpt>
      <trkpt lat="41.0757080" lon="-3.3508950">
        <ele>1079.0</ele>
        <time>2020-09-29T13:20:14Z</time>
      </trkpt>
      <trkpt lat="41.0756880" lon="-3.3508420">
        <ele>1079.0</ele>
        <time>2020-09-29T13:20:15Z</time>
      </trkpt>
      <trkpt lat="41.0756880" lon="-3.3508420">
        <ele>1080.0</ele>
        <time>2020-09-29T13:20:16Z</time>
      </trkpt>
      <trkpt lat="41.0756650" lon="-3.3507920">
        <ele>1080.0</ele>
        <time>2020-09-29T13:20:17Z</time>
      </trkpt>
      <trkpt lat="41.0756550" lon="-3.3507650">
        <ele>1080.0</ele>
        <time>2020-09-29T13:20:18Z</time>
      </trkpt>
      <trkpt lat="41.0756450" lon="-3.3507380">
        <ele>1080.0</ele>
        <time>2020-09-29T13:20:19Z</time>
      </trkpt>
      <trkpt lat="41.0756450" lon="-3.3507380">
        <ele>1080.0</ele>
        <time>2020-09-29T13:20:20Z</time>
      </trkpt>
      <trkpt lat="41.0756130" lon="-3.3506930">
        <ele>1080.0</ele>
        <time>2020-09-29T13:20:21Z</time>
      </trkpt>
      <trkpt lat="41.0755950" lon="-3.3506800">
        <ele>1081.0</ele>
        <time>2020-09-29T13:20:22Z</time>
      </trkpt>
      <trkpt lat="41.0755950" lon="-3.3506800">
        <ele>1081.0</ele>
        <time>2020-09-29T13:20:23Z</time>
      </trkpt>
      <trkpt lat="41.0755530" lon="-3.3506630">
        <ele>1081.0</ele>
        <time>2020-09-29T13:20:24Z</time>
      </trkpt>
      <trkpt lat="41.0755320" lon="-3.3506570">
        <ele>1081.0</ele>
        <time>2020-09-29T13:20:25Z</time>
      </trkpt>
      <trkpt lat="41.0755320" lon="-3.3506570">
        <ele>1082.0</ele>
        <time>2020-09-29T13:20:26Z</time>
      </trkpt>
      <trkpt lat="41.0754900" lon="-3.3506450">
        <ele>1082.0</ele>
        <time>2020-09-29T13:20:27Z</time>
      </trkpt>
      <trkpt lat="41.0754700" lon="-3.3506370">
        <ele>1082.0</ele>
        <time>2020-09-29T13:20:28Z</time>
      </trkpt>
      <trkpt lat="41.0754500" lon="-3.3506330">
        <ele>1082.0</ele>
        <time>2020-09-29T13:20:29Z</time>
      </trkpt>
      <trkpt lat="41.0754500" lon="-3.3506330">
        <ele>1082.0</ele>
        <time>2020-09-29T13:20:30Z</time>
      </trkpt>
      <trkpt lat="41.0754080" lon="-3.3506170">
        <ele>1082.0</ele>
        <time>2020-09-29T13:20:31Z</time>
      </trkpt>
      <trkpt lat="41.0754080" lon="-3.3506170">
        <ele>1082.0</ele>
        <time>2020-09-29T13:20:32Z</time>
      </trkpt>
      <trkpt lat="41.0753700" lon="-3.3506070">
        <ele>1083.0</ele>
        <time>2020-09-29T13:20:33Z</time>
      </trkpt>
      <trkpt lat="41.0753530" lon="-3.3505980">
        <ele>1083.0</ele>
        <time>2020-09-29T13:20:34Z</time>
      </trkpt>
      <trkpt lat="41.0753530" lon="-3.3505980">
        <ele>1083.0</ele>
        <time>2020-09-29T13:20:35Z</time>
      </trkpt>
      <trkpt lat="41.0753200" lon="-3.3505870">
        <ele>1083.0</ele>
        <time>2020-09-29T13:20:36Z</time>
      </trkpt>
      <trkpt lat="41.0753020" lon="-3.3505820">
        <ele>1083.0</ele>
        <time>2020-09-29T13:20:37Z</time>
      </trkpt>
      <trkpt lat="41.0753020" lon="-3.3505820">
        <ele>1083.0</ele>
        <time>2020-09-29T13:20:38Z</time>
      </trkpt>
      <trkpt lat="41.0752670" lon="-3.3505700">
        <ele>1084.0</ele>
        <time>2020-09-29T13:20:39Z</time>
      </trkpt>
      <trkpt lat="41.0752500" lon="-3.3505630">
        <ele>1084.0</ele>
        <time>2020-09-29T13:20:40Z</time>
      </trkpt>
      <trkpt lat="41.0752500" lon="-3.3505630">
        <ele>1085.0</ele>
        <time>2020-09-29T13:20:41Z</time>
      </trkpt>
      <trkpt lat="41.0752170" lon="-3.3505470">
        <ele>1085.0</ele>
        <time>2020-09-29T13:20:42Z</time>
      </trkpt>
      <trkpt lat="41.0752020" lon="-3.3505380">
        <ele>1085.0</ele>
        <time>2020-09-29T13:20:43Z</time>
      </trkpt>
      <trkpt lat="41.0752020" lon="-3.3505380">
        <ele>1085.0</ele>
        <time>2020-09-29T13:20:44Z</time>
      </trkpt>
      <trkpt lat="41.0751670" lon="-3.3505230">
        <ele>1086.0</ele>
        <time>2020-09-29T13:20:45Z</time>
      </trkpt>
      <trkpt lat="41.0751670" lon="-3.3505230">
        <ele>1086.0</ele>
        <time>2020-09-29T13:20:46Z</time>
      </trkpt>
      <trkpt lat="41.0751330" lon="-3.3505080">
        <ele>1086.0</ele>
        <time>2020-09-29T13:20:47Z</time>
      </trkpt>
      <trkpt lat="41.0751170" lon="-3.3505000">
        <ele>1086.0</ele>
        <time>2020-09-29T13:20:48Z</time>
      </trkpt>
      <trkpt lat="41.0750980" lon="-3.3504920">
        <ele>1088.0</ele>
        <time>2020-09-29T13:20:49Z</time>
      </trkpt>
      <trkpt lat="41.0750980" lon="-3.3504920">
        <ele>1088.0</ele>
        <time>2020-09-29T13:20:50Z</time>
      </trkpt>
      <trkpt lat="41.0750670" lon="-3.3504680">
        <ele>1088.0</ele>
        <time>2020-09-29T13:20:51Z</time>
      </trkpt>
      <trkpt lat="41.0750670" lon="-3.3504680">
        <ele>1088.0</ele>
        <time>2020-09-29T13:20:52Z</time>
      </trkpt>
      <trkpt lat="41.0750380" lon="-3.3504320">
        <ele>1089.0</ele>
        <time>2020-09-29T13:20:53Z</time>
      </trkpt>
      <trkpt lat="41.0750270" lon="-3.3504180">
        <ele>1089.0</ele>
        <time>2020-09-29T13:20:54Z</time>
      </trkpt>
      <trkpt lat="41.0750270" lon="-3.3504180">
        <ele>1089.0</ele>
        <time>2020-09-29T13:20:55Z</time>
      </trkpt>
      <trkpt lat="41.0750000" lon="-3.3503880">
        <ele>1089.0</ele>
        <time>2020-09-29T13:20:56Z</time>
      </trkpt>
      <trkpt lat="41.0750000" lon="-3.3503880">
        <ele>1090.0</ele>
        <time>2020-09-29T13:20:57Z</time>
      </trkpt>
      <trkpt lat="41.0749800" lon="-3.3503470">
        <ele>1090.0</ele>
        <time>2020-09-29T13:20:58Z</time>
      </trkpt>
      <trkpt lat="41.0749800" lon="-3.3503470">
        <ele>1090.0</ele>
        <time>2020-09-29T13:20:59Z</time>
      </trkpt>
      <trkpt lat="41.0749730" lon="-3.3502950">
        <ele>1090.0</ele>
        <time>2020-09-29T13:21:00Z</time>
      </trkpt>
      <trkpt lat="41.0749750" lon="-3.3502700">
        <ele>1091.0</ele>
        <time>2020-09-29T13:21:01Z</time>
      </trkpt>
      <trkpt lat="41.0749750" lon="-3.3502700">
        <ele>1091.0</ele>
        <time>2020-09-29T13:21:02Z</time>
      </trkpt>
      <trkpt lat="41.0749800" lon="-3.3502200">
        <ele>1092.0</ele>
        <time>2020-09-29T13:21:03Z</time>
      </trkpt>
      <trkpt lat="41.0749800" lon="-3.3502200">
        <ele>1092.0</ele>
        <time>2020-09-29T13:21:04Z</time>
      </trkpt>
      <trkpt lat="41.0749880" lon="-3.3501700">
        <ele>1092.0</ele>
        <time>2020-09-29T13:21:05Z</time>
      </trkpt>
      <trkpt lat="41.0749880" lon="-3.3501700">
        <ele>1092.0</ele>
        <time>2020-09-29T13:21:06Z</time>
      </trkpt>
      <trkpt lat="41.0749920" lon="-3.3501200">
        <ele>1092.0</ele>
        <time>2020-09-29T13:21:07Z</time>
      </trkpt>
      <trkpt lat="41.0749930" lon="-3.3500970">
        <ele>1093.0</ele>
        <time>2020-09-29T13:21:08Z</time>
      </trkpt>
      <trkpt lat="41.0749930" lon="-3.3500970">
        <ele>1093.0</ele>
        <time>2020-09-29T13:21:09Z</time>
      </trkpt>
      <trkpt lat="41.0750000" lon="-3.3500480">
        <ele>1093.0</ele>
        <time>2020-09-29T13:21:10Z</time>
      </trkpt>
      <trkpt lat="41.0750000" lon="-3.3500480">
        <ele>1094.0</ele>
        <time>2020-09-29T13:21:11Z</time>
      </trkpt>
      <trkpt lat="41.0750080" lon="-3.3500020">
        <ele>1094.0</ele>
        <time>2020-09-29T13:21:12Z</time>
      </trkpt>
      <trkpt lat="41.0750080" lon="-3.3500020">
        <ele>1094.0</ele>
        <time>2020-09-29T13:21:13Z</time>
      </trkpt>
      <trkpt lat="41.0750120" lon="-3.3499520">
        <ele>1094.0</ele>
        <time>2020-09-29T13:21:14Z</time>
      </trkpt>
      <trkpt lat="41.0750120" lon="-3.3499520">
        <ele>1095.0</ele>
        <time>2020-09-29T13:21:15Z</time>
      </trkpt>
      <trkpt lat="41.0750200" lon="-3.3498980">
        <ele>1095.0</ele>
        <time>2020-09-29T13:21:16Z</time>
      </trkpt>
      <trkpt lat="41.0750200" lon="-3.3498980">
        <ele>1095.0</ele>
        <time>2020-09-29T13:21:17Z</time>
      </trkpt>
      <trkpt lat="41.0750200" lon="-3.3498980">
        <ele>1095.0</ele>
        <time>2020-09-29T13:21:18Z</time>
      </trkpt>
      <trkpt lat="41.0750400" lon="-3.3498230">
        <ele>1096.0</ele>
        <time>2020-09-29T13:21:19Z</time>
      </trkpt>
      <trkpt lat="41.0750400" lon="-3.3498230">
        <ele>1096.0</ele>
        <time>2020-09-29T13:21:20Z</time>
      </trkpt>
      <trkpt lat="41.0750520" lon="-3.3497720">
        <ele>1096.0</ele>
        <time>2020-09-29T13:21:21Z</time>
      </trkpt>
      <trkpt lat="41.0750520" lon="-3.3497720">
        <ele>1096.0</ele>
        <time>2020-09-29T13:21:22Z</time>
      </trkpt>
      <trkpt lat="41.0750600" lon="-3.3497230">
        <ele>1096.0</ele>
        <time>2020-09-29T13:21:23Z</time>
      </trkpt>
      <trkpt lat="41.0750680" lon="-3.3497000">
        <ele>1097.0</ele>
        <time>2020-09-29T13:21:24Z</time>
      </trkpt>
      <trkpt lat="41.0750680" lon="-3.3497000">
        <ele>1097.0</ele>
        <time>2020-09-29T13:21:25Z</time>
      </trkpt>
      <trkpt lat="41.0750830" lon="-3.3496480">
        <ele>1097.0</ele>
        <time>2020-09-29T13:21:26Z</time>
      </trkpt>
      <trkpt lat="41.0750830" lon="-3.3496480">
        <ele>1097.0</ele>
        <time>2020-09-29T13:21:27Z</time>
      </trkpt>
      <trkpt lat="41.0750930" lon="-3.3495950">
        <ele>1098.0</ele>
        <time>2020-09-29T13:21:28Z</time>
      </trkpt>
      <trkpt lat="41.0751000" lon="-3.3495680">
        <ele>1098.0</ele>
        <time>2020-09-29T13:21:29Z</time>
      </trkpt>
      <trkpt lat="41.0751000" lon="-3.3495680">
        <ele>1098.0</ele>
        <time>2020-09-29T13:21:30Z</time>
      </trkpt>
      <trkpt lat="41.0751120" lon="-3.3495170">
        <ele>1098.0</ele>
        <time>2020-09-29T13:21:31Z</time>
      </trkpt>
      <trkpt lat="41.0751200" lon="-3.3494920">
        <ele>1099.0</ele>
        <time>2020-09-29T13:21:32Z</time>
      </trkpt>
      <trkpt lat="41.0751200" lon="-3.3494920">
        <ele>1099.0</ele>
        <time>2020-09-29T13:21:33Z</time>
      </trkpt>
      <trkpt lat="41.0751350" lon="-3.3494380">
        <ele>1099.0</ele>
        <time>2020-09-29T13:21:34Z</time>
      </trkpt>
      <trkpt lat="41.0751430" lon="-3.3494100">
        <ele>1099.0</ele>
        <time>2020-09-29T13:21:35Z</time>
      </trkpt>
      <trkpt lat="41.0751430" lon="-3.3494100">
        <ele>1100.0</ele>
        <time>2020-09-29T13:21:36Z</time>
      </trkpt>
      <trkpt lat="41.0751630" lon="-3.3493570">
        <ele>1100.0</ele>
        <time>2020-09-29T13:21:37Z</time>
      </trkpt>
      <trkpt lat="41.0751630" lon="-3.3493570">
        <ele>1100.0</ele>
        <time>2020-09-29T13:21:38Z</time>
      </trkpt>
      <trkpt lat="41.0751780" lon="-3.3493000">
        <ele>1100.0</ele>
        <time>2020-09-29T13:21:39Z</time>
      </trkpt>
      <trkpt lat="41.0751830" lon="-3.3492700">
        <ele>1101.0</ele>
        <time>2020-09-29T13:21:40Z</time>
      </trkpt>
      <trkpt lat="41.0751930" lon="-3.3492430">
        <ele>1101.0</ele>
        <time>2020-09-29T13:21:41Z</time>
      </trkpt>
      <trkpt lat="41.0751930" lon="-3.3492430">
        <ele>1101.0</ele>
        <time>2020-09-29T13:21:42Z</time>
      </trkpt>
      <trkpt lat="41.0752230" lon="-3.3491920">
        <ele>1102.0</ele>
        <time>2020-09-29T13:21:43Z</time>
      </trkpt>
      <trkpt lat="41.0752230" lon="-3.3491920">
        <ele>1102.0</ele>
        <time>2020-09-29T13:21:44Z</time>
      </trkpt>
      <trkpt lat="41.0752450" lon="-3.3491320">
        <ele>1102.0</ele>
        <time>2020-09-29T13:21:45Z</time>
      </trkpt>
      <trkpt lat="41.0752450" lon="-3.3491320">
        <ele>1102.0</ele>
        <time>2020-09-29T13:21:46Z</time>
      </trkpt>
      <trkpt lat="41.0752680" lon="-3.3490750">
        <ele>1102.0</ele>
        <time>2020-09-29T13:21:47Z</time>
      </trkpt>
      <trkpt lat="41.0752680" lon="-3.3490750">
        <ele>1102.0</ele>
        <time>2020-09-29T13:21:48Z</time>
      </trkpt>
      <trkpt lat="41.0752920" lon="-3.3490170">
        <ele>1103.0</ele>
        <time>2020-09-29T13:21:49Z</time>
      </trkpt>
      <trkpt lat="41.0752920" lon="-3.3490170">
        <ele>1103.0</ele>
        <time>2020-09-29T13:21:50Z</time>
      </trkpt>
      <trkpt lat="41.0753180" lon="-3.3489620">
        <ele>1103.0</ele>
        <time>2020-09-29T13:21:51Z</time>
      </trkpt>
      <trkpt lat="41.0753300" lon="-3.3489320">
        <ele>1103.0</ele>
        <time>2020-09-29T13:21:52Z</time>
      </trkpt>
      <trkpt lat="41.0753300" lon="-3.3489320">
        <ele>1103.0</ele>
        <time>2020-09-29T13:21:53Z</time>
      </trkpt>
      <trkpt lat="41.0753500" lon="-3.3488750">
        <ele>1103.0</ele>
        <time>2020-09-29T13:21:54Z</time>
      </trkpt>
      <trkpt lat="41.0753500" lon="-3.3488750">
        <ele>1103.0</ele>
        <time>2020-09-29T13:21:55Z</time>
      </trkpt>
      <trkpt lat="41.0753700" lon="-3.3488170">
        <ele>1103.0</ele>
        <time>2020-09-29T13:21:56Z</time>
      </trkpt>
      <trkpt lat="41.0753700" lon="-3.3488170">
        <ele>1104.0</ele>
        <time>2020-09-29T13:21:57Z</time>
      </trkpt>
      <trkpt lat="41.0753870" lon="-3.3487550">
        <ele>1104.0</ele>
        <time>2020-09-29T13:21:58Z</time>
      </trkpt>
      <trkpt lat="41.0753870" lon="-3.3487550">
        <ele>1104.0</ele>
        <time>2020-09-29T13:21:59Z</time>
      </trkpt>
      <trkpt lat="41.0754030" lon="-3.3486950">
        <ele>1104.0</ele>
        <time>2020-09-29T13:22:00Z</time>
      </trkpt>
      <trkpt lat="41.0754170" lon="-3.3486670">
        <ele>1104.0</ele>
        <time>2020-09-29T13:22:01Z</time>
      </trkpt>
      <trkpt lat="41.0754170" lon="-3.3486670">
        <ele>1104.0</ele>
        <time>2020-09-29T13:22:02Z</time>
      </trkpt>
      <trkpt lat="41.0754400" lon="-3.3486100">
        <ele>1104.0</ele>
        <time>2020-09-29T13:22:03Z</time>
      </trkpt>
      <trkpt lat="41.0754500" lon="-3.3485820">
        <ele>1104.0</ele>
        <time>2020-09-29T13:22:04Z</time>
      </trkpt>
      <trkpt lat="41.0754620" lon="-3.3485530">
        <ele>1105.0</ele>
        <time>2020-09-29T13:22:05Z</time>
      </trkpt>
      <trkpt lat="41.0754620" lon="-3.3485530">
        <ele>1105.0</ele>
        <time>2020-09-29T13:22:06Z</time>
      </trkpt>
      <trkpt lat="41.0754880" lon="-3.3484970">
        <ele>1105.0</ele>
        <time>2020-09-29T13:22:07Z</time>
      </trkpt>
      <trkpt lat="41.0754880" lon="-3.3484970">
        <ele>1105.0</ele>
        <time>2020-09-29T13:22:08Z</time>
      </trkpt>
      <trkpt lat="41.0755100" lon="-3.3484380">
        <ele>1105.0</ele>
        <time>2020-09-29T13:22:09Z</time>
      </trkpt>
      <trkpt lat="41.0755100" lon="-3.3484380">
        <ele>1105.0</ele>
        <time>2020-09-29T13:22:10Z</time>
      </trkpt>
      <trkpt lat="41.0755330" lon="-3.3483780">
        <ele>1105.0</ele>
        <time>2020-09-29T13:22:11Z</time>
      </trkpt>
      <trkpt lat="41.0755470" lon="-3.3483470">
        <ele>1105.0</ele>
        <time>2020-09-29T13:22:12Z</time>
      </trkpt>
      <trkpt lat="41.0755470" lon="-3.3483470">
        <ele>1106.0</ele>
        <time>2020-09-29T13:22:13Z</time>
      </trkpt>
      <trkpt lat="41.0755770" lon="-3.3482820">
        <ele>1106.0</ele>
        <time>2020-09-29T13:22:14Z</time>
      </trkpt>
      <trkpt lat="41.0755930" lon="-3.3482480">
        <ele>1106.0</ele>
        <time>2020-09-29T13:22:15Z</time>
      </trkpt>
      <trkpt lat="41.0755930" lon="-3.3482480">
        <ele>1106.0</ele>
        <time>2020-09-29T13:22:16Z</time>
      </trkpt>
      <trkpt lat="41.0756280" lon="-3.3481780">
        <ele>1106.0</ele>
        <time>2020-09-29T13:22:17Z</time>
      </trkpt>
      <trkpt lat="41.0756470" lon="-3.3481420">
        <ele>1106.0</ele>
        <time>2020-09-29T13:22:18Z</time>
      </trkpt>
      <trkpt lat="41.0756650" lon="-3.3481020">
        <ele>1106.0</ele>
        <time>2020-09-29T13:22:19Z</time>
      </trkpt>
      <trkpt lat="41.0756650" lon="-3.3481020">
        <ele>1106.0</ele>
        <time>2020-09-29T13:22:20Z</time>
      </trkpt>
      <trkpt lat="41.0757020" lon="-3.3480220">
        <ele>1106.0</ele>
        <time>2020-09-29T13:22:21Z</time>
      </trkpt>
      <trkpt lat="41.0757020" lon="-3.3480220">
        <ele>1106.0</ele>
        <time>2020-09-29T13:22:22Z</time>
      </trkpt>
      <trkpt lat="41.0757330" lon="-3.3479400">
        <ele>1106.0</ele>
        <time>2020-09-29T13:22:23Z</time>
      </trkpt>
      <trkpt lat="41.0757330" lon="-3.3479400">
        <ele>1106.0</ele>
        <time>2020-09-29T13:22:24Z</time>
      </trkpt>
      <trkpt lat="41.0757700" lon="-3.3478620">
        <ele>1106.0</ele>
        <time>2020-09-29T13:22:25Z</time>
      </trkpt>
      <trkpt lat="41.0757700" lon="-3.3478620">
        <ele>1106.0</ele>
        <time>2020-09-29T13:22:26Z</time>
      </trkpt>
      <trkpt lat="41.0758180" lon="-3.3477850">
        <ele>1106.0</ele>
        <time>2020-09-29T13:22:27Z</time>
      </trkpt>
      <trkpt lat="41.0758420" lon="-3.3477470">
        <ele>1106.0</ele>
        <time>2020-09-29T13:22:28Z</time>
      </trkpt>
      <trkpt lat="41.0758420" lon="-3.3477470">
        <ele>1106.0</ele>
        <time>2020-09-29T13:22:29Z</time>
      </trkpt>
      <trkpt lat="41.0758800" lon="-3.3476630">
        <ele>1106.0</ele>
        <time>2020-09-29T13:22:30Z</time>
      </trkpt>
      <trkpt lat="41.0759000" lon="-3.3476220">
        <ele>1106.0</ele>
        <time>2020-09-29T13:22:31Z</time>
      </trkpt>
      <trkpt lat="41.0759000" lon="-3.3476220">
        <ele>1107.0</ele>
        <time>2020-09-29T13:22:32Z</time>
      </trkpt>
      <trkpt lat="41.0759420" lon="-3.3475420">
        <ele>1107.0</ele>
        <time>2020-09-29T13:22:33Z</time>
      </trkpt>
      <trkpt lat="41.0759420" lon="-3.3475420">
        <ele>1107.0</ele>
        <time>2020-09-29T13:22:34Z</time>
      </trkpt>
      <trkpt lat="41.0759820" lon="-3.3474650">
        <ele>1107.0</ele>
        <time>2020-09-29T13:22:35Z</time>
      </trkpt>
      <trkpt lat="41.0759820" lon="-3.3474650">
        <ele>1107.0</ele>
        <time>2020-09-29T13:22:36Z</time>
      </trkpt>
      <trkpt lat="41.0760180" lon="-3.3473850">
        <ele>1107.0</ele>
        <time>2020-09-29T13:22:37Z</time>
      </trkpt>
      <trkpt lat="41.0760180" lon="-3.3473850">
        <ele>1107.0</ele>
        <time>2020-09-29T13:22:38Z</time>
      </trkpt>
      <trkpt lat="41.0760550" lon="-3.3473070">
        <ele>1107.0</ele>
        <time>2020-09-29T13:22:39Z</time>
      </trkpt>
      <trkpt lat="41.0760550" lon="-3.3473070">
        <ele>1107.0</ele>
        <time>2020-09-29T13:22:40Z</time>
      </trkpt>
      <trkpt lat="41.0760930" lon="-3.3472300">
        <ele>1107.0</ele>
        <time>2020-09-29T13:22:41Z</time>
      </trkpt>
      <trkpt lat="41.0761120" lon="-3.3471900">
        <ele>1107.0</ele>
        <time>2020-09-29T13:22:42Z</time>
      </trkpt>
      <trkpt lat="41.0761120" lon="-3.3471900">
        <ele>1107.0</ele>
        <time>2020-09-29T13:22:43Z</time>
      </trkpt>
      <trkpt lat="41.0761480" lon="-3.3471120">
        <ele>1107.0</ele>
        <time>2020-09-29T13:22:44Z</time>
      </trkpt>
      <trkpt lat="41.0761480" lon="-3.3471120">
        <ele>1107.0</ele>
        <time>2020-09-29T13:22:45Z</time>
      </trkpt>
      <trkpt lat="41.0761820" lon="-3.3470280">
        <ele>1107.0</ele>
        <time>2020-09-29T13:22:46Z</time>
      </trkpt>
      <trkpt lat="41.0762000" lon="-3.3469870">
        <ele>1107.0</ele>
        <time>2020-09-29T13:22:47Z</time>
      </trkpt>
      <trkpt lat="41.0762000" lon="-3.3469870">
        <ele>1107.0</ele>
        <time>2020-09-29T13:22:48Z</time>
      </trkpt>
      <trkpt lat="41.0762420" lon="-3.3469020">
        <ele>1107.0</ele>
        <time>2020-09-29T13:22:49Z</time>
      </trkpt>
      <trkpt lat="41.0762420" lon="-3.3469020">
        <ele>1108.0</ele>
        <time>2020-09-29T13:22:50Z</time>
      </trkpt>
      <trkpt lat="41.0762830" lon="-3.3468080">
        <ele>1108.0</ele>
        <time>2020-09-29T13:22:51Z</time>
      </trkpt>
      <trkpt lat="41.0762830" lon="-3.3468080">
        <ele>1108.0</ele>
        <time>2020-09-29T13:22:52Z</time>
      </trkpt>
      <trkpt lat="41.0763250" lon="-3.3467100">
        <ele>1108.0</ele>
        <time>2020-09-29T13:22:53Z</time>
      </trkpt>
      <trkpt lat="41.0763250" lon="-3.3467100">
        <ele>1108.0</ele>
        <time>2020-09-29T13:22:54Z</time>
      </trkpt>
      <trkpt lat="41.0763700" lon="-3.3466020">
        <ele>1108.0</ele>
        <time>2020-09-29T13:22:55Z</time>
      </trkpt>
      <trkpt lat="41.0763700" lon="-3.3466020">
        <ele>1108.0</ele>
        <time>2020-09-29T13:22:56Z</time>
      </trkpt>
      <trkpt lat="41.0764200" lon="-3.3464880">
        <ele>1108.0</ele>
        <time>2020-09-29T13:22:57Z</time>
      </trkpt>
      <trkpt lat="41.0764200" lon="-3.3464880">
        <ele>1108.0</ele>
        <time>2020-09-29T13:22:58Z</time>
      </trkpt>
      <trkpt lat="41.0764720" lon="-3.3463670">
        <ele>1108.0</ele>
        <time>2020-09-29T13:22:59Z</time>
      </trkpt>
      <trkpt lat="41.0764720" lon="-3.3463670">
        <ele>1108.0</ele>
        <time>2020-09-29T13:23:00Z</time>
      </trkpt>
      <trkpt lat="41.0765000" lon="-3.3462220">
        <ele>1108.0</ele>
        <time>2020-09-29T13:23:01Z</time>
      </trkpt>
      <trkpt lat="41.0765000" lon="-3.3462220">
        <ele>1108.0</ele>
        <time>2020-09-29T13:23:02Z</time>
      </trkpt>
      <trkpt lat="41.0765180" lon="-3.3460580">
        <ele>1107.0</ele>
        <time>2020-09-29T13:23:03Z</time>
      </trkpt>
      <trkpt lat="41.0765180" lon="-3.3460580">
        <ele>1107.0</ele>
        <time>2020-09-29T13:23:04Z</time>
      </trkpt>
      <trkpt lat="41.0765180" lon="-3.3458730">
        <ele>1106.0</ele>
        <time>2020-09-29T13:23:05Z</time>
      </trkpt>
      <trkpt lat="41.0765180" lon="-3.3458730">
        <ele>1106.0</ele>
        <time>2020-09-29T13:23:06Z</time>
      </trkpt>
      <trkpt lat="41.0765130" lon="-3.3456820">
        <ele>1106.0</ele>
        <time>2020-09-29T13:23:07Z</time>
      </trkpt>
      <trkpt lat="41.0765130" lon="-3.3456820">
        <ele>1106.0</ele>
        <time>2020-09-29T13:23:08Z</time>
      </trkpt>
      <trkpt lat="41.0765100" lon="-3.3454820">
        <ele>1104.0</ele>
        <time>2020-09-29T13:23:09Z</time>
      </trkpt>
      <trkpt lat="41.0765100" lon="-3.3454820">
        <ele>1104.0</ele>
        <time>2020-09-29T13:23:10Z</time>
      </trkpt>
      <trkpt lat="41.0765080" lon="-3.3452800">
        <ele>1103.0</ele>
        <time>2020-09-29T13:23:11Z</time>
      </trkpt>
      <trkpt lat="41.0765080" lon="-3.3452800">
        <ele>1103.0</ele>
        <time>2020-09-29T13:23:12Z</time>
      </trkpt>
      <trkpt lat="41.0764980" lon="-3.3450680">
        <ele>1102.0</ele>
        <time>2020-09-29T13:23:13Z</time>
      </trkpt>
      <trkpt lat="41.0764980" lon="-3.3450680">
        <ele>1102.0</ele>
        <time>2020-09-29T13:23:14Z</time>
      </trkpt>
      <trkpt lat="41.0764850" lon="-3.3448480">
        <ele>1100.0</ele>
        <time>2020-09-29T13:23:15Z</time>
      </trkpt>
      <trkpt lat="41.0764820" lon="-3.3447320">
        <ele>1100.0</ele>
        <time>2020-09-29T13:23:16Z</time>
      </trkpt>
      <trkpt lat="41.0764820" lon="-3.3447320">
        <ele>1098.0</ele>
        <time>2020-09-29T13:23:17Z</time>
      </trkpt>
      <trkpt lat="41.0765070" lon="-3.3444880">
        <ele>1098.0</ele>
        <time>2020-09-29T13:23:18Z</time>
      </trkpt>
      <trkpt lat="41.0765070" lon="-3.3444880">
        <ele>1096.0</ele>
        <time>2020-09-29T13:23:19Z</time>
      </trkpt>
      <trkpt lat="41.0766050" lon="-3.3442470">
        <ele>1096.0</ele>
        <time>2020-09-29T13:23:20Z</time>
      </trkpt>
      <trkpt lat="41.0766050" lon="-3.3442470">
        <ele>1094.0</ele>
        <time>2020-09-29T13:23:21Z</time>
      </trkpt>
      <trkpt lat="41.0767150" lon="-3.3439950">
        <ele>1094.0</ele>
        <time>2020-09-29T13:23:22Z</time>
      </trkpt>
      <trkpt lat="41.0767680" lon="-3.3438700">
        <ele>1092.0</ele>
        <time>2020-09-29T13:23:23Z</time>
      </trkpt>
      <trkpt lat="41.0767680" lon="-3.3438700">
        <ele>1092.0</ele>
        <time>2020-09-29T13:23:24Z</time>
      </trkpt>
      <trkpt lat="41.0768830" lon="-3.3436200">
        <ele>1089.0</ele>
        <time>2020-09-29T13:23:25Z</time>
      </trkpt>
      <trkpt lat="41.0768830" lon="-3.3436200">
        <ele>1089.0</ele>
        <time>2020-09-29T13:23:26Z</time>
      </trkpt>
      <trkpt lat="41.0769850" lon="-3.3433800">
        <ele>1087.0</ele>
        <time>2020-09-29T13:23:27Z</time>
      </trkpt>
      <trkpt lat="41.0769850" lon="-3.3433800">
        <ele>1086.0</ele>
        <time>2020-09-29T13:23:28Z</time>
      </trkpt>
      <trkpt lat="41.0770600" lon="-3.3431970">
        <ele>1086.0</ele>
        <time>2020-09-29T13:23:29Z</time>
      </trkpt>
      <trkpt lat="41.0770600" lon="-3.3431970">
        <ele>1084.0</ele>
        <time>2020-09-29T13:23:30Z</time>
      </trkpt>
      <trkpt lat="41.0771150" lon="-3.3430530">
        <ele>1084.0</ele>
        <time>2020-09-29T13:23:31Z</time>
      </trkpt>
      <trkpt lat="41.0771150" lon="-3.3430530">
        <ele>1082.0</ele>
        <time>2020-09-29T13:23:32Z</time>
      </trkpt>
      <trkpt lat="41.0771820" lon="-3.3428970">
        <ele>1082.0</ele>
        <time>2020-09-29T13:23:33Z</time>
      </trkpt>
      <trkpt lat="41.0771820" lon="-3.3428970">
        <ele>1081.0</ele>
        <time>2020-09-29T13:23:34Z</time>
      </trkpt>
      <trkpt lat="41.0772520" lon="-3.3427330">
        <ele>1081.0</ele>
        <time>2020-09-29T13:23:35Z</time>
      </trkpt>
      <trkpt lat="41.0772520" lon="-3.3427330">
        <ele>1080.0</ele>
        <time>2020-09-29T13:23:36Z</time>
      </trkpt>
      <trkpt lat="41.0773020" lon="-3.3425980">
        <ele>1080.0</ele>
        <time>2020-09-29T13:23:37Z</time>
      </trkpt>
      <trkpt lat="41.0773020" lon="-3.3425980">
        <ele>1079.0</ele>
        <time>2020-09-29T13:23:38Z</time>
      </trkpt>
      <trkpt lat="41.0773570" lon="-3.3424750">
        <ele>1079.0</ele>
        <time>2020-09-29T13:23:39Z</time>
      </trkpt>
      <trkpt lat="41.0773570" lon="-3.3424750">
        <ele>1079.0</ele>
        <time>2020-09-29T13:23:40Z</time>
      </trkpt>
      <trkpt lat="41.0774170" lon="-3.3423500">
        <ele>1079.0</ele>
        <time>2020-09-29T13:23:41Z</time>
      </trkpt>
      <trkpt lat="41.0774170" lon="-3.3423500">
        <ele>1079.0</ele>
        <time>2020-09-29T13:23:42Z</time>
      </trkpt>
      <trkpt lat="41.0774870" lon="-3.3422280">
        <ele>1079.0</ele>
        <time>2020-09-29T13:23:43Z</time>
      </trkpt>
      <trkpt lat="41.0775300" lon="-3.3421780">
        <ele>1079.0</ele>
        <time>2020-09-29T13:23:44Z</time>
      </trkpt>
      <trkpt lat="41.0775300" lon="-3.3421780">
        <ele>1079.0</ele>
        <time>2020-09-29T13:23:45Z</time>
      </trkpt>
      <trkpt lat="41.0776320" lon="-3.3421000">
        <ele>1079.0</ele>
        <time>2020-09-29T13:23:46Z</time>
      </trkpt>
      <trkpt lat="41.0776320" lon="-3.3421000">
        <ele>1079.0</ele>
        <time>2020-09-29T13:23:47Z</time>
      </trkpt>
      <trkpt lat="41.0777300" lon="-3.3420630">
        <ele>1079.0</ele>
        <time>2020-09-29T13:23:48Z</time>
      </trkpt>
      <trkpt lat="41.0777300" lon="-3.3420630">
        <ele>1079.0</ele>
        <time>2020-09-29T13:23:49Z</time>
      </trkpt>
      <trkpt lat="41.0778200" lon="-3.3420880">
        <ele>1079.0</ele>
        <time>2020-09-29T13:23:50Z</time>
      </trkpt>
      <trkpt lat="41.0778630" lon="-3.3421120">
        <ele>1079.0</ele>
        <time>2020-09-29T13:23:51Z</time>
      </trkpt>
      <trkpt lat="41.0778630" lon="-3.3421120">
        <ele>1080.0</ele>
        <time>2020-09-29T13:23:52Z</time>
      </trkpt>
      <trkpt lat="41.0779500" lon="-3.3421680">
        <ele>1080.0</ele>
        <time>2020-09-29T13:23:53Z</time>
      </trkpt>
      <trkpt lat="41.0779500" lon="-3.3421680">
        <ele>1080.0</ele>
        <time>2020-09-29T13:23:54Z</time>
      </trkpt>
      <trkpt lat="41.0780350" lon="-3.3422250">
        <ele>1080.0</ele>
        <time>2020-09-29T13:23:55Z</time>
      </trkpt>
      <trkpt lat="41.0780350" lon="-3.3422250">
        <ele>1080.0</ele>
        <time>2020-09-29T13:23:56Z</time>
      </trkpt>
      <trkpt lat="41.0781170" lon="-3.3422850">
        <ele>1080.0</ele>
        <time>2020-09-29T13:23:57Z</time>
      </trkpt>
      <trkpt lat="41.0781170" lon="-3.3422850">
        <ele>1081.0</ele>
        <time>2020-09-29T13:23:58Z</time>
      </trkpt>
      <trkpt lat="41.0781970" lon="-3.3423470">
        <ele>1081.0</ele>
        <time>2020-09-29T13:23:59Z</time>
      </trkpt>
      <trkpt lat="41.0781970" lon="-3.3423470">
        <ele>1081.0</ele>
        <time>2020-09-29T13:24:00Z</time>
      </trkpt>
      <trkpt lat="41.0782780" lon="-3.3424100">
        <ele>1081.0</ele>
        <time>2020-09-29T13:24:01Z</time>
      </trkpt>
      <trkpt lat="41.0782780" lon="-3.3424100">
        <ele>1083.0</ele>
        <time>2020-09-29T13:24:02Z</time>
      </trkpt>
      <trkpt lat="41.0783600" lon="-3.3424720">
        <ele>1083.0</ele>
        <time>2020-09-29T13:24:03Z</time>
      </trkpt>
      <trkpt lat="41.0783600" lon="-3.3424720">
        <ele>1083.0</ele>
        <time>2020-09-29T13:24:04Z</time>
      </trkpt>
      <trkpt lat="41.0784350" lon="-3.3425280">
        <ele>1083.0</ele>
        <time>2020-09-29T13:24:05Z</time>
      </trkpt>
      <trkpt lat="41.0784730" lon="-3.3425500">
        <ele>1083.0</ele>
        <time>2020-09-29T13:24:06Z</time>
      </trkpt>
      <trkpt lat="41.0785120" lon="-3.3425630">
        <ele>1083.0</ele>
        <time>2020-09-29T13:24:07Z</time>
      </trkpt>
      <trkpt lat="41.0785120" lon="-3.3425630">
        <ele>1083.0</ele>
        <time>2020-09-29T13:24:08Z</time>
      </trkpt>
      <trkpt lat="41.0785880" lon="-3.3425580">
        <ele>1083.0</ele>
        <time>2020-09-29T13:24:09Z</time>
      </trkpt>
      <trkpt lat="41.0785880" lon="-3.3425580">
        <ele>1083.0</ele>
        <time>2020-09-29T13:24:10Z</time>
      </trkpt>
      <trkpt lat="41.0786600" lon="-3.3425120">
        <ele>1083.0</ele>
        <time>2020-09-29T13:24:11Z</time>
      </trkpt>
      <trkpt lat="41.0786600" lon="-3.3425120">
        <ele>1083.0</ele>
        <time>2020-09-29T13:24:12Z</time>
      </trkpt>
      <trkpt lat="41.0787130" lon="-3.3424170">
        <ele>1083.0</ele>
        <time>2020-09-29T13:24:13Z</time>
      </trkpt>
      <trkpt lat="41.0787130" lon="-3.3424170">
        <ele>1083.0</ele>
        <time>2020-09-29T13:24:14Z</time>
      </trkpt>
      <trkpt lat="41.0787530" lon="-3.3422930">
        <ele>1083.0</ele>
        <time>2020-09-29T13:24:15Z</time>
      </trkpt>
      <trkpt lat="41.0787720" lon="-3.3422300">
        <ele>1083.0</ele>
        <time>2020-09-29T13:24:16Z</time>
      </trkpt>
      <trkpt lat="41.0787720" lon="-3.3422300">
        <ele>1083.0</ele>
        <time>2020-09-29T13:24:17Z</time>
      </trkpt>
      <trkpt lat="41.0788020" lon="-3.3421050">
        <ele>1083.0</ele>
        <time>2020-09-29T13:24:18Z</time>
      </trkpt>
      <trkpt lat="41.0788150" lon="-3.3420450">
        <ele>1083.0</ele>
        <time>2020-09-29T13:24:19Z</time>
      </trkpt>
      <trkpt lat="41.0788150" lon="-3.3420450">
        <ele>1083.0</ele>
        <time>2020-09-29T13:24:20Z</time>
      </trkpt>
      <trkpt lat="41.0788380" lon="-3.3419330">
        <ele>1083.0</ele>
        <time>2020-09-29T13:24:21Z</time>
      </trkpt>
      <trkpt lat="41.0788380" lon="-3.3419330">
        <ele>1083.0</ele>
        <time>2020-09-29T13:24:22Z</time>
      </trkpt>
      <trkpt lat="41.0788550" lon="-3.3418380">
        <ele>1083.0</ele>
        <time>2020-09-29T13:24:23Z</time>
      </trkpt>
      <trkpt lat="41.0788550" lon="-3.3418380">
        <ele>1083.0</ele>
        <time>2020-09-29T13:24:24Z</time>
      </trkpt>
      <trkpt lat="41.0788550" lon="-3.3417520">
        <ele>1084.0</ele>
        <time>2020-09-29T13:24:25Z</time>
      </trkpt>
      <trkpt lat="41.0788550" lon="-3.3417520">
        <ele>1084.0</ele>
        <time>2020-09-29T13:24:26Z</time>
      </trkpt>
      <trkpt lat="41.0788350" lon="-3.3416720">
        <ele>1084.0</ele>
        <time>2020-09-29T13:24:27Z</time>
      </trkpt>
      <trkpt lat="41.0788350" lon="-3.3416720">
        <ele>1084.0</ele>
        <time>2020-09-29T13:24:28Z</time>
      </trkpt>
      <trkpt lat="41.0788170" lon="-3.3416050">
        <ele>1085.0</ele>
        <time>2020-09-29T13:24:29Z</time>
      </trkpt>
      <trkpt lat="41.0788170" lon="-3.3416050">
        <ele>1085.0</ele>
        <time>2020-09-29T13:24:30Z</time>
      </trkpt>
      <trkpt lat="41.0787870" lon="-3.3415470">
        <ele>1085.0</ele>
        <time>2020-09-29T13:24:31Z</time>
      </trkpt>
      <trkpt lat="41.0787670" lon="-3.3415220">
        <ele>1085.0</ele>
        <time>2020-09-29T13:24:32Z</time>
      </trkpt>
      <trkpt lat="41.0787670" lon="-3.3415220">
        <ele>1086.0</ele>
        <time>2020-09-29T13:24:33Z</time>
      </trkpt>
      <trkpt lat="41.0787330" lon="-3.3414720">
        <ele>1086.0</ele>
        <time>2020-09-29T13:24:34Z</time>
      </trkpt>
      <trkpt lat="41.0787330" lon="-3.3414720">
        <ele>1087.0</ele>
        <time>2020-09-29T13:24:35Z</time>
      </trkpt>
      <trkpt lat="41.0787030" lon="-3.3414150">
        <ele>1087.0</ele>
        <time>2020-09-29T13:24:36Z</time>
      </trkpt>
      <trkpt lat="41.0787030" lon="-3.3414150">
        <ele>1087.0</ele>
        <time>2020-09-29T13:24:37Z</time>
      </trkpt>
      <trkpt lat="41.0786650" lon="-3.3413650">
        <ele>1088.0</ele>
        <time>2020-09-29T13:24:38Z</time>
      </trkpt>
      <trkpt lat="41.0786430" lon="-3.3413420">
        <ele>1088.0</ele>
        <time>2020-09-29T13:24:39Z</time>
      </trkpt>
      <trkpt lat="41.0786430" lon="-3.3413420">
        <ele>1088.0</ele>
        <time>2020-09-29T13:24:40Z</time>
      </trkpt>
      <trkpt lat="41.0786020" lon="-3.3412950">
        <ele>1088.0</ele>
        <time>2020-09-29T13:24:41Z</time>
      </trkpt>
      <trkpt lat="41.0786020" lon="-3.3412950">
        <ele>1088.0</ele>
        <time>2020-09-29T13:24:42Z</time>
      </trkpt>
      <trkpt lat="41.0785620" lon="-3.3412450">
        <ele>1088.0</ele>
        <time>2020-09-29T13:24:43Z</time>
      </trkpt>
      <trkpt lat="41.0785620" lon="-3.3412450">
        <ele>1088.0</ele>
        <time>2020-09-29T13:24:44Z</time>
      </trkpt>
      <trkpt lat="41.0785230" lon="-3.3411970">
        <ele>1088.0</ele>
        <time>2020-09-29T13:24:45Z</time>
      </trkpt>
      <trkpt lat="41.0785230" lon="-3.3411970">
        <ele>1088.0</ele>
        <time>2020-09-29T13:24:46Z</time>
      </trkpt>
      <trkpt lat="41.0784830" lon="-3.3411500">
        <ele>1088.0</ele>
        <time>2020-09-29T13:24:47Z</time>
      </trkpt>
      <trkpt lat="41.0784830" lon="-3.3411500">
        <ele>1089.0</ele>
        <time>2020-09-29T13:24:48Z</time>
      </trkpt>
      <trkpt lat="41.0784470" lon="-3.3411020">
        <ele>1089.0</ele>
        <time>2020-09-29T13:24:49Z</time>
      </trkpt>
      <trkpt lat="41.0784470" lon="-3.3411020">
        <ele>1089.0</ele>
        <time>2020-09-29T13:24:50Z</time>
      </trkpt>
      <trkpt lat="41.0784170" lon="-3.3410470">
        <ele>1089.0</ele>
        <time>2020-09-29T13:24:51Z</time>
      </trkpt>
      <trkpt lat="41.0784000" lon="-3.3410200">
        <ele>1089.0</ele>
        <time>2020-09-29T13:24:52Z</time>
      </trkpt>
      <trkpt lat="41.0784000" lon="-3.3410200">
        <ele>1089.0</ele>
        <time>2020-09-29T13:24:53Z</time>
      </trkpt>
      <trkpt lat="41.0783670" lon="-3.3409700">
        <ele>1090.0</ele>
        <time>2020-09-29T13:24:54Z</time>
      </trkpt>
      <trkpt lat="41.0783520" lon="-3.3409430">
        <ele>1090.0</ele>
        <time>2020-09-29T13:24:55Z</time>
      </trkpt>
      <trkpt lat="41.0783520" lon="-3.3409430">
        <ele>1090.0</ele>
        <time>2020-09-29T13:24:56Z</time>
      </trkpt>
      <trkpt lat="41.0783230" lon="-3.3408870">
        <ele>1090.0</ele>
        <time>2020-09-29T13:24:57Z</time>
      </trkpt>
      <trkpt lat="41.0783230" lon="-3.3408870">
        <ele>1091.0</ele>
        <time>2020-09-29T13:24:58Z</time>
      </trkpt>
      <trkpt lat="41.0782970" lon="-3.3408270">
        <ele>1091.0</ele>
        <time>2020-09-29T13:24:59Z</time>
      </trkpt>
      <trkpt lat="41.0782970" lon="-3.3408270">
        <ele>1091.0</ele>
        <time>2020-09-29T13:25:00Z</time>
      </trkpt>
      <trkpt lat="41.0782700" lon="-3.3407680">
        <ele>1091.0</ele>
        <time>2020-09-29T13:25:01Z</time>
      </trkpt>
      <trkpt lat="41.0782700" lon="-3.3407680">
        <ele>1092.0</ele>
        <time>2020-09-29T13:25:02Z</time>
      </trkpt>
      <trkpt lat="41.0782450" lon="-3.3407080">
        <ele>1092.0</ele>
        <time>2020-09-29T13:25:03Z</time>
      </trkpt>
      <trkpt lat="41.0782450" lon="-3.3407080">
        <ele>1092.0</ele>
        <time>2020-09-29T13:25:04Z</time>
      </trkpt>
      <trkpt lat="41.0782280" lon="-3.3406430">
        <ele>1092.0</ele>
        <time>2020-09-29T13:25:05Z</time>
      </trkpt>
      <trkpt lat="41.0782180" lon="-3.3406120">
        <ele>1092.0</ele>
        <time>2020-09-29T13:25:06Z</time>
      </trkpt>
      <trkpt lat="41.0782180" lon="-3.3406120">
        <ele>1093.0</ele>
        <time>2020-09-29T13:25:07Z</time>
      </trkpt>
      <trkpt lat="41.0782050" lon="-3.3405470">
        <ele>1093.0</ele>
        <time>2020-09-29T13:25:08Z</time>
      </trkpt>
      <trkpt lat="41.0782050" lon="-3.3405470">
        <ele>1093.0</ele>
        <time>2020-09-29T13:25:09Z</time>
      </trkpt>
      <trkpt lat="41.0782000" lon="-3.3404780">
        <ele>1093.0</ele>
        <time>2020-09-29T13:25:10Z</time>
      </trkpt>
      <trkpt lat="41.0781970" lon="-3.3404450">
        <ele>1094.0</ele>
        <time>2020-09-29T13:25:11Z</time>
      </trkpt>
      <trkpt lat="41.0781970" lon="-3.3404450">
        <ele>1094.0</ele>
        <time>2020-09-29T13:25:12Z</time>
      </trkpt>
      <trkpt lat="41.0782020" lon="-3.3403780">
        <ele>1094.0</ele>
        <time>2020-09-29T13:25:13Z</time>
      </trkpt>
      <trkpt lat="41.0782020" lon="-3.3403780">
        <ele>1095.0</ele>
        <time>2020-09-29T13:25:14Z</time>
      </trkpt>
      <trkpt lat="41.0782250" lon="-3.3403200">
        <ele>1095.0</ele>
        <time>2020-09-29T13:25:15Z</time>
      </trkpt>
      <trkpt lat="41.0782250" lon="-3.3403200">
        <ele>1095.0</ele>
        <time>2020-09-29T13:25:16Z</time>
      </trkpt>
      <trkpt lat="41.0782600" lon="-3.3402700">
        <ele>1095.0</ele>
        <time>2020-09-29T13:25:17Z</time>
      </trkpt>
      <trkpt lat="41.0782800" lon="-3.3402470">
        <ele>1095.0</ele>
        <time>2020-09-29T13:25:18Z</time>
      </trkpt>
      <trkpt lat="41.0782800" lon="-3.3402470">
        <ele>1095.0</ele>
        <time>2020-09-29T13:25:19Z</time>
      </trkpt>
      <trkpt lat="41.0783180" lon="-3.3402030">
        <ele>1095.0</ele>
        <time>2020-09-29T13:25:20Z</time>
      </trkpt>
      <trkpt lat="41.0783180" lon="-3.3402030">
        <ele>1095.0</ele>
        <time>2020-09-29T13:25:21Z</time>
      </trkpt>
      <trkpt lat="41.0783620" lon="-3.3401630">
        <ele>1095.0</ele>
        <time>2020-09-29T13:25:22Z</time>
      </trkpt>
      <trkpt lat="41.0783620" lon="-3.3401630">
        <ele>1095.0</ele>
        <time>2020-09-29T13:25:23Z</time>
      </trkpt>
      <trkpt lat="41.0784030" lon="-3.3401300">
        <ele>1095.0</ele>
        <time>2020-09-29T13:25:24Z</time>
      </trkpt>
      <trkpt lat="41.0784030" lon="-3.3401300">
        <ele>1095.0</ele>
        <time>2020-09-29T13:25:25Z</time>
      </trkpt>
      <trkpt lat="41.0784500" lon="-3.3401000">
        <ele>1096.0</ele>
        <time>2020-09-29T13:25:26Z</time>
      </trkpt>
      <trkpt lat="41.0784730" lon="-3.3400820">
        <ele>1096.0</ele>
        <time>2020-09-29T13:25:27Z</time>
      </trkpt>
      <trkpt lat="41.0784730" lon="-3.3400820">
        <ele>1096.0</ele>
        <time>2020-09-29T13:25:28Z</time>
      </trkpt>
      <trkpt lat="41.0785220" lon="-3.3400520">
        <ele>1096.0</ele>
        <time>2020-09-29T13:25:29Z</time>
      </trkpt>
      <trkpt lat="41.0785220" lon="-3.3400520">
        <ele>1097.0</ele>
        <time>2020-09-29T13:25:30Z</time>
      </trkpt>
      <trkpt lat="41.0785720" lon="-3.3400220">
        <ele>1097.0</ele>
        <time>2020-09-29T13:25:31Z</time>
      </trkpt>
      <trkpt lat="41.0785720" lon="-3.3400220">
        <ele>1097.0</ele>
        <time>2020-09-29T13:25:32Z</time>
      </trkpt>
      <trkpt lat="41.0786250" lon="-3.3399920">
        <ele>1097.0</ele>
        <time>2020-09-29T13:25:33Z</time>
      </trkpt>
      <trkpt lat="41.0786250" lon="-3.3399920">
        <ele>1097.0</ele>
        <time>2020-09-29T13:25:34Z</time>
      </trkpt>
      <trkpt lat="41.0786800" lon="-3.3399650">
        <ele>1097.0</ele>
        <time>2020-09-29T13:25:35Z</time>
      </trkpt>
      <trkpt lat="41.0787120" lon="-3.3399500">
        <ele>1097.0</ele>
        <time>2020-09-29T13:25:36Z</time>
      </trkpt>
      <trkpt lat="41.0787120" lon="-3.3399500">
        <ele>1097.0</ele>
        <time>2020-09-29T13:25:37Z</time>
      </trkpt>
      <trkpt lat="41.0787830" lon="-3.3399020">
        <ele>1097.0</ele>
        <time>2020-09-29T13:25:38Z</time>
      </trkpt>
      <trkpt lat="41.0787830" lon="-3.3399020">
        <ele>1097.0</ele>
        <time>2020-09-29T13:25:39Z</time>
      </trkpt>
      <trkpt lat="41.0788700" lon="-3.3398430">
        <ele>1097.0</ele>
        <time>2020-09-29T13:25:40Z</time>
      </trkpt>
      <trkpt lat="41.0788700" lon="-3.3398430">
        <ele>1097.0</ele>
        <time>2020-09-29T13:25:41Z</time>
      </trkpt>
      <trkpt lat="41.0789520" lon="-3.3397520">
        <ele>1097.0</ele>
        <time>2020-09-29T13:25:42Z</time>
      </trkpt>
      <trkpt lat="41.0789820" lon="-3.3396850">
        <ele>1097.0</ele>
        <time>2020-09-29T13:25:43Z</time>
      </trkpt>
      <trkpt lat="41.0789820" lon="-3.3396850">
        <ele>1097.0</ele>
        <time>2020-09-29T13:25:44Z</time>
      </trkpt>
      <trkpt lat="41.0789780" lon="-3.3395420">
        <ele>1097.0</ele>
        <time>2020-09-29T13:25:45Z</time>
      </trkpt>
      <trkpt lat="41.0789430" lon="-3.3394870">
        <ele>1096.0</ele>
        <time>2020-09-29T13:25:46Z</time>
      </trkpt>
      <trkpt lat="41.0789430" lon="-3.3394870">
        <ele>1096.0</ele>
        <time>2020-09-29T13:25:47Z</time>
      </trkpt>
      <trkpt lat="41.0788650" lon="-3.3393970">
        <ele>1096.0</ele>
        <time>2020-09-29T13:25:48Z</time>
      </trkpt>
      <trkpt lat="41.0788250" lon="-3.3393550">
        <ele>1096.0</ele>
        <time>2020-09-29T13:25:49Z</time>
      </trkpt>
      <trkpt lat="41.0788250" lon="-3.3393550">
        <ele>1096.0</ele>
        <time>2020-09-29T13:25:50Z</time>
      </trkpt>
      <trkpt lat="41.0787450" lon="-3.3392780">
        <ele>1096.0</ele>
        <time>2020-09-29T13:25:51Z</time>
      </trkpt>
      <trkpt lat="41.0787050" lon="-3.3392420">
        <ele>1096.0</ele>
        <time>2020-09-29T13:25:52Z</time>
      </trkpt>
      <trkpt lat="41.0787050" lon="-3.3392420">
        <ele>1096.0</ele>
        <time>2020-09-29T13:25:53Z</time>
      </trkpt>
      <trkpt lat="41.0786320" lon="-3.3391670">
        <ele>1097.0</ele>
        <time>2020-09-29T13:25:54Z</time>
      </trkpt>
      <trkpt lat="41.0786320" lon="-3.3391670">
        <ele>1097.0</ele>
        <time>2020-09-29T13:25:55Z</time>
      </trkpt>
      <trkpt lat="41.0785620" lon="-3.3390930">
        <ele>1097.0</ele>
        <time>2020-09-29T13:25:56Z</time>
      </trkpt>
      <trkpt lat="41.0785620" lon="-3.3390930">
        <ele>1097.0</ele>
        <time>2020-09-29T13:25:57Z</time>
      </trkpt>
      <trkpt lat="41.0784880" lon="-3.3390270">
        <ele>1098.0</ele>
        <time>2020-09-29T13:25:58Z</time>
      </trkpt>
      <trkpt lat="41.0784880" lon="-3.3390270">
        <ele>1098.0</ele>
        <time>2020-09-29T13:25:59Z</time>
      </trkpt>
      <trkpt lat="41.0784170" lon="-3.3389570">
        <ele>1098.0</ele>
        <time>2020-09-29T13:26:00Z</time>
      </trkpt>
      <trkpt lat="41.0784170" lon="-3.3389570">
        <ele>1098.0</ele>
        <time>2020-09-29T13:26:01Z</time>
      </trkpt>
      <trkpt lat="41.0783450" lon="-3.3388850">
        <ele>1098.0</ele>
        <time>2020-09-29T13:26:02Z</time>
      </trkpt>
      <trkpt lat="41.0783080" lon="-3.3388480">
        <ele>1098.0</ele>
        <time>2020-09-29T13:26:03Z</time>
      </trkpt>
      <trkpt lat="41.0782770" lon="-3.3388100">
        <ele>1099.0</ele>
        <time>2020-09-29T13:26:04Z</time>
      </trkpt>
      <trkpt lat="41.0782770" lon="-3.3388100">
        <ele>1099.0</ele>
        <time>2020-09-29T13:26:05Z</time>
      </trkpt>
      <trkpt lat="41.0782170" lon="-3.3387270">
        <ele>1099.0</ele>
        <time>2020-09-29T13:26:06Z</time>
      </trkpt>
      <trkpt lat="41.0781900" lon="-3.3386830">
        <ele>1099.0</ele>
        <time>2020-09-29T13:26:07Z</time>
      </trkpt>
      <trkpt lat="41.0781900" lon="-3.3386830">
        <ele>1099.0</ele>
        <time>2020-09-29T13:26:08Z</time>
      </trkpt>
      <trkpt lat="41.0781420" lon="-3.3385970">
        <ele>1099.0</ele>
        <time>2020-09-29T13:26:09Z</time>
      </trkpt>
      <trkpt lat="41.0781220" lon="-3.3385500">
        <ele>1099.0</ele>
        <time>2020-09-29T13:26:10Z</time>
      </trkpt>
      <trkpt lat="41.0781220" lon="-3.3385500">
        <ele>1100.0</ele>
        <time>2020-09-29T13:26:11Z</time>
      </trkpt>
      <trkpt lat="41.0780870" lon="-3.3384600">
        <ele>1100.0</ele>
        <time>2020-09-29T13:26:12Z</time>
      </trkpt>
      <trkpt lat="41.0780870" lon="-3.3384600">
        <ele>1100.0</ele>
        <time>2020-09-29T13:26:13Z</time>
      </trkpt>
      <trkpt lat="41.0780500" lon="-3.3383730">
        <ele>1100.0</ele>
        <time>2020-09-29T13:26:14Z</time>
      </trkpt>
      <trkpt lat="41.0780320" lon="-3.3383300">
        <ele>1101.0</ele>
        <time>2020-09-29T13:26:15Z</time>
      </trkpt>
      <trkpt lat="41.0780320" lon="-3.3383300">
        <ele>1101.0</ele>
        <time>2020-09-29T13:26:16Z</time>
      </trkpt>
      <trkpt lat="41.0779950" lon="-3.3382380">
        <ele>1101.0</ele>
        <time>2020-09-29T13:26:17Z</time>
      </trkpt>
      <trkpt lat="41.0779950" lon="-3.3382380">
        <ele>1101.0</ele>
        <time>2020-09-29T13:26:18Z</time>
      </trkpt>
      <trkpt lat="41.0779600" lon="-3.3381430">
        <ele>1102.0</ele>
        <time>2020-09-29T13:26:19Z</time>
      </trkpt>
      <trkpt lat="41.0779600" lon="-3.3381430">
        <ele>1102.0</ele>
        <time>2020-09-29T13:26:20Z</time>
      </trkpt>
      <trkpt lat="41.0779220" lon="-3.3380520">
        <ele>1102.0</ele>
        <time>2020-09-29T13:26:21Z</time>
      </trkpt>
      <trkpt lat="41.0779030" lon="-3.3380070">
        <ele>1102.0</ele>
        <time>2020-09-29T13:26:22Z</time>
      </trkpt>
      <trkpt lat="41.0778870" lon="-3.3379600">
        <ele>1102.0</ele>
        <time>2020-09-29T13:26:23Z</time>
      </trkpt>
      <trkpt lat="41.0778870" lon="-3.3379600">
        <ele>1103.0</ele>
        <time>2020-09-29T13:26:24Z</time>
      </trkpt>
      <trkpt lat="41.0778550" lon="-3.3378620">
        <ele>1103.0</ele>
        <time>2020-09-29T13:26:25Z</time>
      </trkpt>
      <trkpt lat="41.0778550" lon="-3.3378620">
        <ele>1103.0</ele>
        <time>2020-09-29T13:26:26Z</time>
      </trkpt>
      <trkpt lat="41.0778220" lon="-3.3377580">
        <ele>1103.0</ele>
        <time>2020-09-29T13:26:27Z</time>
      </trkpt>
      <trkpt lat="41.0778080" lon="-3.3377020">
        <ele>1103.0</ele>
        <time>2020-09-29T13:26:28Z</time>
      </trkpt>
      <trkpt lat="41.0778080" lon="-3.3377020">
        <ele>1103.0</ele>
        <time>2020-09-29T13:26:29Z</time>
      </trkpt>
      <trkpt lat="41.0777820" lon="-3.3375870">
        <ele>1103.0</ele>
        <time>2020-09-29T13:26:30Z</time>
      </trkpt>
      <trkpt lat="41.0777630" lon="-3.3375280">
        <ele>1103.0</ele>
        <time>2020-09-29T13:26:31Z</time>
      </trkpt>
      <trkpt lat="41.0777630" lon="-3.3375280">
        <ele>1103.0</ele>
        <time>2020-09-29T13:26:32Z</time>
      </trkpt>
      <trkpt lat="41.0777280" lon="-3.3374030">
        <ele>1103.0</ele>
        <time>2020-09-29T13:26:33Z</time>
      </trkpt>
      <trkpt lat="41.0777280" lon="-3.3374030">
        <ele>1103.0</ele>
        <time>2020-09-29T13:26:34Z</time>
      </trkpt>
      <trkpt lat="41.0776980" lon="-3.3372620">
        <ele>1103.0</ele>
        <time>2020-09-29T13:26:35Z</time>
      </trkpt>
      <trkpt lat="41.0776980" lon="-3.3372620">
        <ele>1103.0</ele>
        <time>2020-09-29T13:26:36Z</time>
      </trkpt>
      <trkpt lat="41.0776780" lon="-3.3371000">
        <ele>1103.0</ele>
        <time>2020-09-29T13:26:37Z</time>
      </trkpt>
      <trkpt lat="41.0776780" lon="-3.3371000">
        <ele>1102.0</ele>
        <time>2020-09-29T13:26:38Z</time>
      </trkpt>
      <trkpt lat="41.0776570" lon="-3.3369200">
        <ele>1102.0</ele>
        <time>2020-09-29T13:26:39Z</time>
      </trkpt>
      <trkpt lat="41.0776570" lon="-3.3369200">
        <ele>1102.0</ele>
        <time>2020-09-29T13:26:40Z</time>
      </trkpt>
      <trkpt lat="41.0776300" lon="-3.3367200">
        <ele>1102.0</ele>
        <time>2020-09-29T13:26:41Z</time>
      </trkpt>
      <trkpt lat="41.0776150" lon="-3.3366170">
        <ele>1101.0</ele>
        <time>2020-09-29T13:26:42Z</time>
      </trkpt>
      <trkpt lat="41.0776150" lon="-3.3366170">
        <ele>1101.0</ele>
        <time>2020-09-29T13:26:43Z</time>
      </trkpt>
      <trkpt lat="41.0775650" lon="-3.3364070">
        <ele>1101.0</ele>
        <time>2020-09-29T13:26:44Z</time>
      </trkpt>
      <trkpt lat="41.0775650" lon="-3.3364070">
        <ele>1101.0</ele>
        <time>2020-09-29T13:26:45Z</time>
      </trkpt>
      <trkpt lat="41.0774730" lon="-3.3362100">
        <ele>1099.0</ele>
        <time>2020-09-29T13:26:46Z</time>
      </trkpt>
      <trkpt lat="41.0774730" lon="-3.3362100">
        <ele>1099.0</ele>
        <time>2020-09-29T13:26:47Z</time>
      </trkpt>
      <trkpt lat="41.0773320" lon="-3.3360480">
        <ele>1099.0</ele>
        <time>2020-09-29T13:26:48Z</time>
      </trkpt>
      <trkpt lat="41.0772480" lon="-3.3359870">
        <ele>1099.0</ele>
        <time>2020-09-29T13:26:49Z</time>
      </trkpt>
      <trkpt lat="41.0772480" lon="-3.3359870">
        <ele>1098.0</ele>
        <time>2020-09-29T13:26:50Z</time>
      </trkpt>
      <trkpt lat="41.0770730" lon="-3.3358730">
        <ele>1098.0</ele>
        <time>2020-09-29T13:26:51Z</time>
      </trkpt>
      <trkpt lat="41.0770730" lon="-3.3358730">
        <ele>1097.0</ele>
        <time>2020-09-29T13:26:52Z</time>
      </trkpt>
      <trkpt lat="41.0769130" lon="-3.3357580">
        <ele>1097.0</ele>
        <time>2020-09-29T13:26:53Z</time>
      </trkpt>
      <trkpt lat="41.0768480" lon="-3.3356900">
        <ele>1096.0</ele>
        <time>2020-09-29T13:26:54Z</time>
      </trkpt>
      <trkpt lat="41.0768480" lon="-3.3356900">
        <ele>1096.0</ele>
        <time>2020-09-29T13:26:55Z</time>
      </trkpt>
      <trkpt lat="41.0767920" lon="-3.3355220">
        <ele>1095.0</ele>
        <time>2020-09-29T13:26:56Z</time>
      </trkpt>
      <trkpt lat="41.0767920" lon="-3.3355220">
        <ele>1095.0</ele>
        <time>2020-09-29T13:26:57Z</time>
      </trkpt>
      <trkpt lat="41.0768250" lon="-3.3353630">
        <ele>1095.0</ele>
        <time>2020-09-29T13:26:58Z</time>
      </trkpt>
      <trkpt lat="41.0768250" lon="-3.3353630">
        <ele>1095.0</ele>
        <time>2020-09-29T13:26:59Z</time>
      </trkpt>
      <trkpt lat="41.0768780" lon="-3.3352430">
        <ele>1095.0</ele>
        <time>2020-09-29T13:27:00Z</time>
      </trkpt>
      <trkpt lat="41.0768780" lon="-3.3352430">
        <ele>1095.0</ele>
        <time>2020-09-29T13:27:01Z</time>
      </trkpt>
      <trkpt lat="41.0769350" lon="-3.3351450">
        <ele>1095.0</ele>
        <time>2020-09-29T13:27:02Z</time>
      </trkpt>
      <trkpt lat="41.0769350" lon="-3.3351450">
        <ele>1095.0</ele>
        <time>2020-09-29T13:27:03Z</time>
      </trkpt>
      <trkpt lat="41.0769930" lon="-3.3350420">
        <ele>1095.0</ele>
        <time>2020-09-29T13:27:04Z</time>
      </trkpt>
      <trkpt lat="41.0770230" lon="-3.3349900">
        <ele>1095.0</ele>
        <time>2020-09-29T13:27:05Z</time>
      </trkpt>
      <trkpt lat="41.0770230" lon="-3.3349900">
        <ele>1095.0</ele>
        <time>2020-09-29T13:27:06Z</time>
      </trkpt>
      <trkpt lat="41.0770820" lon="-3.3348850">
        <ele>1096.0</ele>
        <time>2020-09-29T13:27:07Z</time>
      </trkpt>
      <trkpt lat="41.0770820" lon="-3.3348850">
        <ele>1096.0</ele>
        <time>2020-09-29T13:27:08Z</time>
      </trkpt>
      <trkpt lat="41.0771400" lon="-3.3347830">
        <ele>1096.0</ele>
        <time>2020-09-29T13:27:09Z</time>
      </trkpt>
      <trkpt lat="41.0771400" lon="-3.3347830">
        <ele>1096.0</ele>
        <time>2020-09-29T13:27:10Z</time>
      </trkpt>
      <trkpt lat="41.0771970" lon="-3.3346800">
        <ele>1097.0</ele>
        <time>2020-09-29T13:27:11Z</time>
      </trkpt>
      <trkpt lat="41.0771970" lon="-3.3346800">
        <ele>1097.0</ele>
        <time>2020-09-29T13:27:12Z</time>
      </trkpt>
      <trkpt lat="41.0772550" lon="-3.3345770">
        <ele>1097.0</ele>
        <time>2020-09-29T13:27:13Z</time>
      </trkpt>
      <trkpt lat="41.0772850" lon="-3.3345250">
        <ele>1097.0</ele>
        <time>2020-09-29T13:27:14Z</time>
      </trkpt>
      <trkpt lat="41.0772850" lon="-3.3345250">
        <ele>1097.0</ele>
        <time>2020-09-29T13:27:15Z</time>
      </trkpt>
      <trkpt lat="41.0773450" lon="-3.3344230">
        <ele>1097.0</ele>
        <time>2020-09-29T13:27:16Z</time>
      </trkpt>
      <trkpt lat="41.0773450" lon="-3.3344230">
        <ele>1097.0</ele>
        <time>2020-09-29T13:27:17Z</time>
      </trkpt>
      <trkpt lat="41.0774030" lon="-3.3343220">
        <ele>1097.0</ele>
        <time>2020-09-29T13:27:18Z</time>
      </trkpt>
      <trkpt lat="41.0774030" lon="-3.3343220">
        <ele>1097.0</ele>
        <time>2020-09-29T13:27:19Z</time>
      </trkpt>
      <trkpt lat="41.0774600" lon="-3.3342220">
        <ele>1098.0</ele>
        <time>2020-09-29T13:27:20Z</time>
      </trkpt>
      <trkpt lat="41.0774600" lon="-3.3342220">
        <ele>1098.0</ele>
        <time>2020-09-29T13:27:21Z</time>
      </trkpt>
      <trkpt lat="41.0775220" lon="-3.3341220">
        <ele>1098.0</ele>
        <time>2020-09-29T13:27:22Z</time>
      </trkpt>
      <trkpt lat="41.0775520" lon="-3.3340730">
        <ele>1098.0</ele>
        <time>2020-09-29T13:27:23Z</time>
      </trkpt>
      <trkpt lat="41.0775520" lon="-3.3340730">
        <ele>1098.0</ele>
        <time>2020-09-29T13:27:24Z</time>
      </trkpt>
      <trkpt lat="41.0776100" lon="-3.3339770">
        <ele>1098.0</ele>
        <time>2020-09-29T13:27:25Z</time>
      </trkpt>
      <trkpt lat="41.0776100" lon="-3.3339770">
        <ele>1099.0</ele>
        <time>2020-09-29T13:27:26Z</time>
      </trkpt>
      <trkpt lat="41.0776680" lon="-3.3338800">
        <ele>1099.0</ele>
        <time>2020-09-29T13:27:27Z</time>
      </trkpt>
      <trkpt lat="41.0776680" lon="-3.3338800">
        <ele>1099.0</ele>
        <time>2020-09-29T13:27:28Z</time>
      </trkpt>
      <trkpt lat="41.0777270" lon="-3.3337770">
        <ele>1099.0</ele>
        <time>2020-09-29T13:27:29Z</time>
      </trkpt>
      <trkpt lat="41.0777550" lon="-3.3337230">
        <ele>1099.0</ele>
        <time>2020-09-29T13:27:30Z</time>
      </trkpt>
      <trkpt lat="41.0777550" lon="-3.3337230">
        <ele>1099.0</ele>
        <time>2020-09-29T13:27:31Z</time>
      </trkpt>
      <trkpt lat="41.0778150" lon="-3.3336150">
        <ele>1100.0</ele>
        <time>2020-09-29T13:27:32Z</time>
      </trkpt>
      <trkpt lat="41.0778150" lon="-3.3336150">
        <ele>1100.0</ele>
        <time>2020-09-29T13:27:33Z</time>
      </trkpt>
      <trkpt lat="41.0778750" lon="-3.3335100">
        <ele>1100.0</ele>
        <time>2020-09-29T13:27:34Z</time>
      </trkpt>
      <trkpt lat="41.0778750" lon="-3.3335100">
        <ele>1100.0</ele>
        <time>2020-09-29T13:27:35Z</time>
      </trkpt>
      <trkpt lat="41.0779350" lon="-3.3334120">
        <ele>1100.0</ele>
        <time>2020-09-29T13:27:36Z</time>
      </trkpt>
      <trkpt lat="41.0779650" lon="-3.3333620">
        <ele>1100.0</ele>
        <time>2020-09-29T13:27:37Z</time>
      </trkpt>
      <trkpt lat="41.0779650" lon="-3.3333620">
        <ele>1100.0</ele>
        <time>2020-09-29T13:27:38Z</time>
      </trkpt>
      <trkpt lat="41.0780270" lon="-3.3332620">
        <ele>1100.0</ele>
        <time>2020-09-29T13:27:39Z</time>
      </trkpt>
      <trkpt lat="41.0780270" lon="-3.3332620">
        <ele>1100.0</ele>
        <time>2020-09-29T13:27:40Z</time>
      </trkpt>
      <trkpt lat="41.0780870" lon="-3.3331570">
        <ele>1100.0</ele>
        <time>2020-09-29T13:27:41Z</time>
      </trkpt>
      <trkpt lat="41.0781170" lon="-3.3331020">
        <ele>1099.0</ele>
        <time>2020-09-29T13:27:42Z</time>
      </trkpt>
      <trkpt lat="41.0781450" lon="-3.3330450">
        <ele>1099.0</ele>
        <time>2020-09-29T13:27:43Z</time>
      </trkpt>
      <trkpt lat="41.0781450" lon="-3.3330450">
        <ele>1099.0</ele>
        <time>2020-09-29T13:27:44Z</time>
      </trkpt>
      <trkpt lat="41.0782120" lon="-3.3329300">
        <ele>1099.0</ele>
        <time>2020-09-29T13:27:45Z</time>
      </trkpt>
      <trkpt lat="41.0782120" lon="-3.3329300">
        <ele>1099.0</ele>
        <time>2020-09-29T13:27:46Z</time>
      </trkpt>
      <trkpt lat="41.0782830" lon="-3.3328080">
        <ele>1099.0</ele>
        <time>2020-09-29T13:27:47Z</time>
      </trkpt>
      <trkpt lat="41.0783150" lon="-3.3327380">
        <ele>1099.0</ele>
        <time>2020-09-29T13:27:48Z</time>
      </trkpt>
      <trkpt lat="41.0783450" lon="-3.3326630">
        <ele>1099.0</ele>
        <time>2020-09-29T13:27:49Z</time>
      </trkpt>
      <trkpt lat="41.0783680" lon="-3.3325800">
        <ele>1098.0</ele>
        <time>2020-09-29T13:27:50Z</time>
      </trkpt>
      <trkpt lat="41.0783680" lon="-3.3325800">
        <ele>1098.0</ele>
        <time>2020-09-29T13:27:51Z</time>
      </trkpt>
      <trkpt lat="41.0783980" lon="-3.3323880">
        <ele>1098.0</ele>
        <time>2020-09-29T13:27:52Z</time>
      </trkpt>
      <trkpt lat="41.0783980" lon="-3.3323880">
        <ele>1098.0</ele>
        <time>2020-09-29T13:27:53Z</time>
      </trkpt>
      <trkpt lat="41.0783950" lon="-3.3321700">
        <ele>1097.0</ele>
        <time>2020-09-29T13:27:54Z</time>
      </trkpt>
      <trkpt lat="41.0783950" lon="-3.3321700">
        <ele>1097.0</ele>
        <time>2020-09-29T13:27:55Z</time>
      </trkpt>
      <trkpt lat="41.0783900" lon="-3.3319370">
        <ele>1096.0</ele>
        <time>2020-09-29T13:27:56Z</time>
      </trkpt>
      <trkpt lat="41.0783930" lon="-3.3318180">
        <ele>1096.0</ele>
        <time>2020-09-29T13:27:57Z</time>
      </trkpt>
      <trkpt lat="41.0783930" lon="-3.3318180">
        <ele>1096.0</ele>
        <time>2020-09-29T13:27:58Z</time>
      </trkpt>
      <trkpt lat="41.0784320" lon="-3.3315830">
        <ele>1095.0</ele>
        <time>2020-09-29T13:27:59Z</time>
      </trkpt>
      <trkpt lat="41.0784320" lon="-3.3315830">
        <ele>1095.0</ele>
        <time>2020-09-29T13:28:00Z</time>
      </trkpt>
      <trkpt lat="41.0785120" lon="-3.3313670">
        <ele>1094.0</ele>
        <time>2020-09-29T13:28:01Z</time>
      </trkpt>
      <trkpt lat="41.0785120" lon="-3.3313670">
        <ele>1094.0</ele>
        <time>2020-09-29T13:28:02Z</time>
      </trkpt>
      <trkpt lat="41.0786270" lon="-3.3311670">
        <ele>1093.0</ele>
        <time>2020-09-29T13:28:03Z</time>
      </trkpt>
      <trkpt lat="41.0786850" lon="-3.3310650">
        <ele>1093.0</ele>
        <time>2020-09-29T13:28:04Z</time>
      </trkpt>
      <trkpt lat="41.0786850" lon="-3.3310650">
        <ele>1092.0</ele>
        <time>2020-09-29T13:28:05Z</time>
      </trkpt>
      <trkpt lat="41.0788120" lon="-3.3308620">
        <ele>1092.0</ele>
        <time>2020-09-29T13:28:06Z</time>
      </trkpt>
      <trkpt lat="41.0788770" lon="-3.3307600">
        <ele>1092.0</ele>
        <time>2020-09-29T13:28:07Z</time>
      </trkpt>
      <trkpt lat="41.0788770" lon="-3.3307600">
        <ele>1091.0</ele>
        <time>2020-09-29T13:28:08Z</time>
      </trkpt>
      <trkpt lat="41.0790030" lon="-3.3305450">
        <ele>1091.0</ele>
        <time>2020-09-29T13:28:09Z</time>
      </trkpt>
      <trkpt lat="41.0790030" lon="-3.3305450">
        <ele>1090.0</ele>
        <time>2020-09-29T13:28:10Z</time>
      </trkpt>
      <trkpt lat="41.0791330" lon="-3.3303270">
        <ele>1090.0</ele>
        <time>2020-09-29T13:28:11Z</time>
      </trkpt>
      <trkpt lat="41.0791330" lon="-3.3303270">
        <ele>1089.0</ele>
        <time>2020-09-29T13:28:12Z</time>
      </trkpt>
      <trkpt lat="41.0792650" lon="-3.3301020">
        <ele>1089.0</ele>
        <time>2020-09-29T13:28:13Z</time>
      </trkpt>
      <trkpt lat="41.0792650" lon="-3.3301020">
        <ele>1088.0</ele>
        <time>2020-09-29T13:28:14Z</time>
      </trkpt>
      <trkpt lat="41.0793930" lon="-3.3298630">
        <ele>1088.0</ele>
        <time>2020-09-29T13:28:15Z</time>
      </trkpt>
      <trkpt lat="41.0793930" lon="-3.3298630">
        <ele>1086.0</ele>
        <time>2020-09-29T13:28:16Z</time>
      </trkpt>
      <trkpt lat="41.0795080" lon="-3.3296020">
        <ele>1086.0</ele>
        <time>2020-09-29T13:28:17Z</time>
      </trkpt>
      <trkpt lat="41.0795080" lon="-3.3296020">
        <ele>1085.0</ele>
        <time>2020-09-29T13:28:18Z</time>
      </trkpt>
      <trkpt lat="41.0795800" lon="-3.3293000">
        <ele>1085.0</ele>
        <time>2020-09-29T13:28:19Z</time>
      </trkpt>
      <trkpt lat="41.0795800" lon="-3.3293000">
        <ele>1083.0</ele>
        <time>2020-09-29T13:28:20Z</time>
      </trkpt>
      <trkpt lat="41.0795880" lon="-3.3289730">
        <ele>1083.0</ele>
        <time>2020-09-29T13:28:21Z</time>
      </trkpt>
      <trkpt lat="41.0795820" lon="-3.3288070">
        <ele>1082.0</ele>
        <time>2020-09-29T13:28:22Z</time>
      </trkpt>
      <trkpt lat="41.0795820" lon="-3.3288070">
        <ele>1082.0</ele>
        <time>2020-09-29T13:28:23Z</time>
      </trkpt>
      <trkpt lat="41.0795600" lon="-3.3284720">
        <ele>1080.0</ele>
        <time>2020-09-29T13:28:24Z</time>
      </trkpt>
      <trkpt lat="41.0795480" lon="-3.3283000">
        <ele>1080.0</ele>
        <time>2020-09-29T13:28:25Z</time>
      </trkpt>
      <trkpt lat="41.0795480" lon="-3.3283000">
        <ele>1078.0</ele>
        <time>2020-09-29T13:28:26Z</time>
      </trkpt>
      <trkpt lat="41.0795300" lon="-3.3279600">
        <ele>1078.0</ele>
        <time>2020-09-29T13:28:27Z</time>
      </trkpt>
      <trkpt lat="41.0795300" lon="-3.3279600">
        <ele>1076.0</ele>
        <time>2020-09-29T13:28:28Z</time>
      </trkpt>
      <trkpt lat="41.0795470" lon="-3.3276250">
        <ele>1076.0</ele>
        <time>2020-09-29T13:28:29Z</time>
      </trkpt>
      <trkpt lat="41.0795470" lon="-3.3276250">
        <ele>1074.0</ele>
        <time>2020-09-29T13:28:30Z</time>
      </trkpt>
      <trkpt lat="41.0795980" lon="-3.3272980">
        <ele>1074.0</ele>
        <time>2020-09-29T13:28:31Z</time>
      </trkpt>
      <trkpt lat="41.0795980" lon="-3.3272980">
        <ele>1073.0</ele>
        <time>2020-09-29T13:28:32Z</time>
      </trkpt>
      <trkpt lat="41.0796750" lon="-3.3269770">
        <ele>1073.0</ele>
        <time>2020-09-29T13:28:33Z</time>
      </trkpt>
      <trkpt lat="41.0797180" lon="-3.3268150">
        <ele>1071.0</ele>
        <time>2020-09-29T13:28:34Z</time>
      </trkpt>
      <trkpt lat="41.0797180" lon="-3.3268150">
        <ele>1071.0</ele>
        <time>2020-09-29T13:28:35Z</time>
      </trkpt>
      <trkpt lat="41.0798020" lon="-3.3264920">
        <ele>1069.0</ele>
        <time>2020-09-29T13:28:36Z</time>
      </trkpt>
      <trkpt lat="41.0798020" lon="-3.3264920">
        <ele>1067.0</ele>
        <time>2020-09-29T13:28:37Z</time>
      </trkpt>
      <trkpt lat="41.0798870" lon="-3.3261670">
        <ele>1067.0</ele>
        <time>2020-09-29T13:28:38Z</time>
      </trkpt>
      <trkpt lat="41.0798870" lon="-3.3261670">
        <ele>1067.0</ele>
        <time>2020-09-29T13:28:39Z</time>
      </trkpt>
      <trkpt lat="41.0799680" lon="-3.3258370">
        <ele>1065.0</ele>
        <time>2020-09-29T13:28:40Z</time>
      </trkpt>
      <trkpt lat="41.0799680" lon="-3.3258370">
        <ele>1065.0</ele>
        <time>2020-09-29T13:28:41Z</time>
      </trkpt>
      <trkpt lat="41.0800500" lon="-3.3255100">
        <ele>1064.0</ele>
        <time>2020-09-29T13:28:42Z</time>
      </trkpt>
      <trkpt lat="41.0800930" lon="-3.3253450">
        <ele>1064.0</ele>
        <time>2020-09-29T13:28:43Z</time>
      </trkpt>
      <trkpt lat="41.0800930" lon="-3.3253450">
        <ele>1062.0</ele>
        <time>2020-09-29T13:28:44Z</time>
      </trkpt>
      <trkpt lat="41.0801700" lon="-3.3250130">
        <ele>1062.0</ele>
        <time>2020-09-29T13:28:45Z</time>
      </trkpt>
      <trkpt lat="41.0802000" lon="-3.3248500">
        <ele>1060.0</ele>
        <time>2020-09-29T13:28:46Z</time>
      </trkpt>
      <trkpt lat="41.0802000" lon="-3.3248500">
        <ele>1060.0</ele>
        <time>2020-09-29T13:28:47Z</time>
      </trkpt>
      <trkpt lat="41.0802180" lon="-3.3245350">
        <ele>1058.0</ele>
        <time>2020-09-29T13:28:48Z</time>
      </trkpt>
      <trkpt lat="41.0801970" lon="-3.3243830">
        <ele>1058.0</ele>
        <time>2020-09-29T13:28:49Z</time>
      </trkpt>
      <trkpt lat="41.0801970" lon="-3.3243830">
        <ele>1057.0</ele>
        <time>2020-09-29T13:28:50Z</time>
      </trkpt>
      <trkpt lat="41.0801000" lon="-3.3240930">
        <ele>1057.0</ele>
        <time>2020-09-29T13:28:51Z</time>
      </trkpt>
      <trkpt lat="41.0801000" lon="-3.3240930">
        <ele>1055.0</ele>
        <time>2020-09-29T13:28:52Z</time>
      </trkpt>
      <trkpt lat="41.0799850" lon="-3.3238350">
        <ele>1055.0</ele>
        <time>2020-09-29T13:28:53Z</time>
      </trkpt>
      <trkpt lat="41.0799300" lon="-3.3237070">
        <ele>1053.0</ele>
        <time>2020-09-29T13:28:54Z</time>
      </trkpt>
      <trkpt lat="41.0799300" lon="-3.3237070">
        <ele>1053.0</ele>
        <time>2020-09-29T13:28:55Z</time>
      </trkpt>
      <trkpt lat="41.0798170" lon="-3.3234550">
        <ele>1052.0</ele>
        <time>2020-09-29T13:28:56Z</time>
      </trkpt>
      <trkpt lat="41.0798170" lon="-3.3234550">
        <ele>1052.0</ele>
        <time>2020-09-29T13:28:57Z</time>
      </trkpt>
      <trkpt lat="41.0797020" lon="-3.3232170">
        <ele>1050.0</ele>
        <time>2020-09-29T13:28:58Z</time>
      </trkpt>
      <trkpt lat="41.0797020" lon="-3.3232170">
        <ele>1050.0</ele>
        <time>2020-09-29T13:28:59Z</time>
      </trkpt>
      <trkpt lat="41.0796020" lon="-3.3230030">
        <ele>1049.0</ele>
        <time>2020-09-29T13:29:00Z</time>
      </trkpt>
      <trkpt lat="41.0796020" lon="-3.3230030">
        <ele>1049.0</ele>
        <time>2020-09-29T13:29:01Z</time>
      </trkpt>
      <trkpt lat="41.0795070" lon="-3.3228020">
        <ele>1047.0</ele>
        <time>2020-09-29T13:29:02Z</time>
      </trkpt>
      <trkpt lat="41.0795070" lon="-3.3228020">
        <ele>1047.0</ele>
        <time>2020-09-29T13:29:03Z</time>
      </trkpt>
      <trkpt lat="41.0794100" lon="-3.3225970">
        <ele>1047.0</ele>
        <time>2020-09-29T13:29:04Z</time>
      </trkpt>
      <trkpt lat="41.0794100" lon="-3.3225970">
        <ele>1047.0</ele>
        <time>2020-09-29T13:29:05Z</time>
      </trkpt>
      <trkpt lat="41.0793280" lon="-3.3223900">
        <ele>1047.0</ele>
        <time>2020-09-29T13:29:06Z</time>
      </trkpt>
      <trkpt lat="41.0793020" lon="-3.3222850">
        <ele>1047.0</ele>
        <time>2020-09-29T13:29:07Z</time>
      </trkpt>
      <trkpt lat="41.0792920" lon="-3.3221830">
        <ele>1046.0</ele>
        <time>2020-09-29T13:29:08Z</time>
      </trkpt>
      <trkpt lat="41.0792920" lon="-3.3221830">
        <ele>1046.0</ele>
        <time>2020-09-29T13:29:09Z</time>
      </trkpt>
      <trkpt lat="41.0793230" lon="-3.3220080">
        <ele>1046.0</ele>
        <time>2020-09-29T13:29:10Z</time>
      </trkpt>
      <trkpt lat="41.0793230" lon="-3.3220080">
        <ele>1046.0</ele>
        <time>2020-09-29T13:29:11Z</time>
      </trkpt>
      <trkpt lat="41.0793950" lon="-3.3218820">
        <ele>1046.0</ele>
        <time>2020-09-29T13:29:12Z</time>
      </trkpt>
      <trkpt lat="41.0794320" lon="-3.3218420">
        <ele>1046.0</ele>
        <time>2020-09-29T13:29:13Z</time>
      </trkpt>
      <trkpt lat="41.0794320" lon="-3.3218420">
        <ele>1047.0</ele>
        <time>2020-09-29T13:29:14Z</time>
      </trkpt>
      <trkpt lat="41.0795070" lon="-3.3217850">
        <ele>1047.0</ele>
        <time>2020-09-29T13:29:15Z</time>
      </trkpt>
      <trkpt lat="41.0795070" lon="-3.3217850">
        <ele>1047.0</ele>
        <time>2020-09-29T13:29:16Z</time>
      </trkpt>
      <trkpt lat="41.0795800" lon="-3.3217550">
        <ele>1047.0</ele>
        <time>2020-09-29T13:29:17Z</time>
      </trkpt>
      <trkpt lat="41.0795800" lon="-3.3217550">
        <ele>1047.0</ele>
        <time>2020-09-29T13:29:18Z</time>
      </trkpt>
      <trkpt lat="41.0796580" lon="-3.3217370">
        <ele>1049.0</ele>
        <time>2020-09-29T13:29:19Z</time>
      </trkpt>
      <trkpt lat="41.0796580" lon="-3.3217370">
        <ele>1049.0</ele>
        <time>2020-09-29T13:29:20Z</time>
      </trkpt>
      <trkpt lat="41.0797330" lon="-3.3217300">
        <ele>1049.0</ele>
        <time>2020-09-29T13:29:21Z</time>
      </trkpt>
      <trkpt lat="41.0797330" lon="-3.3217300">
        <ele>1049.0</ele>
        <time>2020-09-29T13:29:22Z</time>
      </trkpt>
      <trkpt lat="41.0798070" lon="-3.3217200">
        <ele>1050.0</ele>
        <time>2020-09-29T13:29:23Z</time>
      </trkpt>
      <trkpt lat="41.0798070" lon="-3.3217200">
        <ele>1050.0</ele>
        <time>2020-09-29T13:29:24Z</time>
      </trkpt>
      <trkpt lat="41.0798770" lon="-3.3217270">
        <ele>1050.0</ele>
        <time>2020-09-29T13:29:25Z</time>
      </trkpt>
      <trkpt lat="41.0799100" lon="-3.3217300">
        <ele>1050.0</ele>
        <time>2020-09-29T13:29:26Z</time>
      </trkpt>
      <trkpt lat="41.0799100" lon="-3.3217300">
        <ele>1051.0</ele>
        <time>2020-09-29T13:29:27Z</time>
      </trkpt>
      <trkpt lat="41.0799780" lon="-3.3217380">
        <ele>1051.0</ele>
        <time>2020-09-29T13:29:28Z</time>
      </trkpt>
      <trkpt lat="41.0800130" lon="-3.3217400">
        <ele>1051.0</ele>
        <time>2020-09-29T13:29:29Z</time>
      </trkpt>
      <trkpt lat="41.0800130" lon="-3.3217400">
        <ele>1051.0</ele>
        <time>2020-09-29T13:29:30Z</time>
      </trkpt>
      <trkpt lat="41.0800820" lon="-3.3217480">
        <ele>1052.0</ele>
        <time>2020-09-29T13:29:31Z</time>
      </trkpt>
      <trkpt lat="41.0800820" lon="-3.3217480">
        <ele>1052.0</ele>
        <time>2020-09-29T13:29:32Z</time>
      </trkpt>
      <trkpt lat="41.0801470" lon="-3.3217600">
        <ele>1052.0</ele>
        <time>2020-09-29T13:29:33Z</time>
      </trkpt>
      <trkpt lat="41.0801800" lon="-3.3217630">
        <ele>1052.0</ele>
        <time>2020-09-29T13:29:34Z</time>
      </trkpt>
      <trkpt lat="41.0801800" lon="-3.3217630">
        <ele>1053.0</ele>
        <time>2020-09-29T13:29:35Z</time>
      </trkpt>
      <trkpt lat="41.0802450" lon="-3.3217750">
        <ele>1053.0</ele>
        <time>2020-09-29T13:29:36Z</time>
      </trkpt>
      <trkpt lat="41.0802450" lon="-3.3217750">
        <ele>1053.0</ele>
        <time>2020-09-29T13:29:37Z</time>
      </trkpt>
      <trkpt lat="41.0803130" lon="-3.3217820">
        <ele>1053.0</ele>
        <time>2020-09-29T13:29:38Z</time>
      </trkpt>
      <trkpt lat="41.0803130" lon="-3.3217820">
        <ele>1053.0</ele>
        <time>2020-09-29T13:29:39Z</time>
      </trkpt>
      <trkpt lat="41.0803820" lon="-3.3217850">
        <ele>1053.0</ele>
        <time>2020-09-29T13:29:40Z</time>
      </trkpt>
      <trkpt lat="41.0803820" lon="-3.3217850">
        <ele>1053.0</ele>
        <time>2020-09-29T13:29:41Z</time>
      </trkpt>
      <trkpt lat="41.0804450" lon="-3.3217880">
        <ele>1053.0</ele>
        <time>2020-09-29T13:29:42Z</time>
      </trkpt>
      <trkpt lat="41.0804450" lon="-3.3217880">
        <ele>1054.0</ele>
        <time>2020-09-29T13:29:43Z</time>
      </trkpt>
      <trkpt lat="41.0805100" lon="-3.3217850">
        <ele>1054.0</ele>
        <time>2020-09-29T13:29:44Z</time>
      </trkpt>
      <trkpt lat="41.0805100" lon="-3.3217850">
        <ele>1054.0</ele>
        <time>2020-09-29T13:29:45Z</time>
      </trkpt>
      <trkpt lat="41.0805720" lon="-3.3217680">
        <ele>1054.0</ele>
        <time>2020-09-29T13:29:46Z</time>
      </trkpt>
      <trkpt lat="41.0805720" lon="-3.3217680">
        <ele>1055.0</ele>
        <time>2020-09-29T13:29:47Z</time>
      </trkpt>
      <trkpt lat="41.0806280" lon="-3.3217450">
        <ele>1055.0</ele>
        <time>2020-09-29T13:29:48Z</time>
      </trkpt>
      <trkpt lat="41.0806550" lon="-3.3217300">
        <ele>1055.0</ele>
        <time>2020-09-29T13:29:49Z</time>
      </trkpt>
      <trkpt lat="41.0806550" lon="-3.3217300">
        <ele>1055.0</ele>
        <time>2020-09-29T13:29:50Z</time>
      </trkpt>
      <trkpt lat="41.0807080" lon="-3.3216930">
        <ele>1055.0</ele>
        <time>2020-09-29T13:29:51Z</time>
      </trkpt>
      <trkpt lat="41.0807300" lon="-3.3216700">
        <ele>1055.0</ele>
        <time>2020-09-29T13:29:52Z</time>
      </trkpt>
      <trkpt lat="41.0807300" lon="-3.3216700">
        <ele>1056.0</ele>
        <time>2020-09-29T13:29:53Z</time>
      </trkpt>
      <trkpt lat="41.0807730" lon="-3.3216120">
        <ele>1056.0</ele>
        <time>2020-09-29T13:29:54Z</time>
      </trkpt>
      <trkpt lat="41.0807730" lon="-3.3216120">
        <ele>1056.0</ele>
        <time>2020-09-29T13:29:55Z</time>
      </trkpt>
      <trkpt lat="41.0808170" lon="-3.3215600">
        <ele>1057.0</ele>
        <time>2020-09-29T13:29:56Z</time>
      </trkpt>
      <trkpt lat="41.0808170" lon="-3.3215600">
        <ele>1057.0</ele>
        <time>2020-09-29T13:29:57Z</time>
      </trkpt>
      <trkpt lat="41.0808470" lon="-3.3214950">
        <ele>1057.0</ele>
        <time>2020-09-29T13:29:58Z</time>
      </trkpt>
      <trkpt lat="41.0808470" lon="-3.3214950">
        <ele>1057.0</ele>
        <time>2020-09-29T13:29:59Z</time>
      </trkpt>
      <trkpt lat="41.0808680" lon="-3.3214270">
        <ele>1058.0</ele>
        <time>2020-09-29T13:30:00Z</time>
      </trkpt>
      <trkpt lat="41.0808680" lon="-3.3214270">
        <ele>1058.0</ele>
        <time>2020-09-29T13:30:01Z</time>
      </trkpt>
      <trkpt lat="41.0808880" lon="-3.3213650">
        <ele>1058.0</ele>
        <time>2020-09-29T13:30:02Z</time>
      </trkpt>
      <trkpt lat="41.0808880" lon="-3.3213650">
        <ele>1058.0</ele>
        <time>2020-09-29T13:30:03Z</time>
      </trkpt>
      <trkpt lat="41.0808970" lon="-3.3212930">
        <ele>1059.0</ele>
        <time>2020-09-29T13:30:04Z</time>
      </trkpt>
      <trkpt lat="41.0808970" lon="-3.3212930">
        <ele>1059.0</ele>
        <time>2020-09-29T13:30:05Z</time>
      </trkpt>
      <trkpt lat="41.0808970" lon="-3.3212130">
        <ele>1059.0</ele>
        <time>2020-09-29T13:30:06Z</time>
      </trkpt>
      <trkpt lat="41.0808970" lon="-3.3212130">
        <ele>1059.0</ele>
        <time>2020-09-29T13:30:07Z</time>
      </trkpt>
      <trkpt lat="41.0808930" lon="-3.3211380">
        <ele>1060.0</ele>
        <time>2020-09-29T13:30:08Z</time>
      </trkpt>
      <trkpt lat="41.0808930" lon="-3.3211380">
        <ele>1060.0</ele>
        <time>2020-09-29T13:30:09Z</time>
      </trkpt>
      <trkpt lat="41.0808920" lon="-3.3210630">
        <ele>1060.0</ele>
        <time>2020-09-29T13:30:10Z</time>
      </trkpt>
      <trkpt lat="41.0808920" lon="-3.3210630">
        <ele>1060.0</ele>
        <time>2020-09-29T13:30:11Z</time>
      </trkpt>
      <trkpt lat="41.0808850" lon="-3.3209900">
        <ele>1061.0</ele>
        <time>2020-09-29T13:30:12Z</time>
      </trkpt>
      <trkpt lat="41.0808850" lon="-3.3209900">
        <ele>1061.0</ele>
        <time>2020-09-29T13:30:13Z</time>
      </trkpt>
      <trkpt lat="41.0808730" lon="-3.3209150">
        <ele>1061.0</ele>
        <time>2020-09-29T13:30:14Z</time>
      </trkpt>
      <trkpt lat="41.0808730" lon="-3.3209150">
        <ele>1061.0</ele>
        <time>2020-09-29T13:30:15Z</time>
      </trkpt>
      <trkpt lat="41.0808620" lon="-3.3208420">
        <ele>1062.0</ele>
        <time>2020-09-29T13:30:16Z</time>
      </trkpt>
      <trkpt lat="41.0808620" lon="-3.3208420">
        <ele>1062.0</ele>
        <time>2020-09-29T13:30:17Z</time>
      </trkpt>
      <trkpt lat="41.0808420" lon="-3.3207670">
        <ele>1062.0</ele>
        <time>2020-09-29T13:30:18Z</time>
      </trkpt>
      <trkpt lat="41.0808320" lon="-3.3207300">
        <ele>1062.0</ele>
        <time>2020-09-29T13:30:19Z</time>
      </trkpt>
      <trkpt lat="41.0808220" lon="-3.3206920">
        <ele>1063.0</ele>
        <time>2020-09-29T13:30:20Z</time>
      </trkpt>
      <trkpt lat="41.0808220" lon="-3.3206920">
        <ele>1063.0</ele>
        <time>2020-09-29T13:30:21Z</time>
      </trkpt>
      <trkpt lat="41.0808080" lon="-3.3206120">
        <ele>1063.0</ele>
        <time>2020-09-29T13:30:22Z</time>
      </trkpt>
      <trkpt lat="41.0807980" lon="-3.3205730">
        <ele>1063.0</ele>
        <time>2020-09-29T13:30:23Z</time>
      </trkpt>
      <trkpt lat="41.0807870" lon="-3.3205330">
        <ele>1063.0</ele>
        <time>2020-09-29T13:30:24Z</time>
      </trkpt>
      <trkpt lat="41.0807870" lon="-3.3205330">
        <ele>1063.0</ele>
        <time>2020-09-29T13:30:25Z</time>
      </trkpt>
      <trkpt lat="41.0807620" lon="-3.3204530">
        <ele>1064.0</ele>
        <time>2020-09-29T13:30:26Z</time>
      </trkpt>
      <trkpt lat="41.0807500" lon="-3.3204120">
        <ele>1064.0</ele>
        <time>2020-09-29T13:30:27Z</time>
      </trkpt>
      <trkpt lat="41.0807500" lon="-3.3204120">
        <ele>1064.0</ele>
        <time>2020-09-29T13:30:28Z</time>
      </trkpt>
      <trkpt lat="41.0807280" lon="-3.3203280">
        <ele>1064.0</ele>
        <time>2020-09-29T13:30:29Z</time>
      </trkpt>
      <trkpt lat="41.0807170" lon="-3.3202850">
        <ele>1064.0</ele>
        <time>2020-09-29T13:30:30Z</time>
      </trkpt>
      <trkpt lat="41.0807050" lon="-3.3202430">
        <ele>1064.0</ele>
        <time>2020-09-29T13:30:31Z</time>
      </trkpt>
      <trkpt lat="41.0807050" lon="-3.3202430">
        <ele>1065.0</ele>
        <time>2020-09-29T13:30:32Z</time>
      </trkpt>
      <trkpt lat="41.0806800" lon="-3.3201580">
        <ele>1065.0</ele>
        <time>2020-09-29T13:30:33Z</time>
      </trkpt>
      <trkpt lat="41.0806800" lon="-3.3201580">
        <ele>1065.0</ele>
        <time>2020-09-29T13:30:34Z</time>
      </trkpt>
      <trkpt lat="41.0806520" lon="-3.3200730">
        <ele>1065.0</ele>
        <time>2020-09-29T13:30:35Z</time>
      </trkpt>
      <trkpt lat="41.0806520" lon="-3.3200730">
        <ele>1065.0</ele>
        <time>2020-09-29T13:30:36Z</time>
      </trkpt>
      <trkpt lat="41.0806270" lon="-3.3199830">
        <ele>1065.0</ele>
        <time>2020-09-29T13:30:37Z</time>
      </trkpt>
      <trkpt lat="41.0806270" lon="-3.3199830">
        <ele>1065.0</ele>
        <time>2020-09-29T13:30:38Z</time>
      </trkpt>
      <trkpt lat="41.0805970" lon="-3.3198930">
        <ele>1065.0</ele>
        <time>2020-09-29T13:30:39Z</time>
      </trkpt>
      <trkpt lat="41.0805970" lon="-3.3198930">
        <ele>1065.0</ele>
        <time>2020-09-29T13:30:40Z</time>
      </trkpt>
      <trkpt lat="41.0805650" lon="-3.3198000">
        <ele>1065.0</ele>
        <time>2020-09-29T13:30:41Z</time>
      </trkpt>
      <trkpt lat="41.0805520" lon="-3.3197530">
        <ele>1066.0</ele>
        <time>2020-09-29T13:30:42Z</time>
      </trkpt>
      <trkpt lat="41.0805520" lon="-3.3197530">
        <ele>1066.0</ele>
        <time>2020-09-29T13:30:43Z</time>
      </trkpt>
      <trkpt lat="41.0805200" lon="-3.3196580">
        <ele>1066.0</ele>
        <time>2020-09-29T13:30:44Z</time>
      </trkpt>
      <trkpt lat="41.0805030" lon="-3.3196100">
        <ele>1066.0</ele>
        <time>2020-09-29T13:30:45Z</time>
      </trkpt>
      <trkpt lat="41.0805030" lon="-3.3196100">
        <ele>1066.0</ele>
        <time>2020-09-29T13:30:46Z</time>
      </trkpt>
      <trkpt lat="41.0804800" lon="-3.3195170">
        <ele>1066.0</ele>
        <time>2020-09-29T13:30:47Z</time>
      </trkpt>
      <trkpt lat="41.0804800" lon="-3.3195170">
        <ele>1066.0</ele>
        <time>2020-09-29T13:30:48Z</time>
      </trkpt>
      <trkpt lat="41.0804470" lon="-3.3194220">
        <ele>1066.0</ele>
        <time>2020-09-29T13:30:49Z</time>
      </trkpt>
      <trkpt lat="41.0804470" lon="-3.3194220">
        <ele>1067.0</ele>
        <time>2020-09-29T13:30:50Z</time>
      </trkpt>
      <trkpt lat="41.0804180" lon="-3.3193170">
        <ele>1067.0</ele>
        <time>2020-09-29T13:30:51Z</time>
      </trkpt>
      <trkpt lat="41.0804180" lon="-3.3193170">
        <ele>1067.0</ele>
        <time>2020-09-29T13:30:52Z</time>
      </trkpt>
      <trkpt lat="41.0803880" lon="-3.3192030">
        <ele>1067.0</ele>
        <time>2020-09-29T13:30:53Z</time>
      </trkpt>
      <trkpt lat="41.0803880" lon="-3.3192030">
        <ele>1067.0</ele>
        <time>2020-09-29T13:30:54Z</time>
      </trkpt>
      <trkpt lat="41.0803520" lon="-3.3190870">
        <ele>1067.0</ele>
        <time>2020-09-29T13:30:55Z</time>
      </trkpt>
      <trkpt lat="41.0803520" lon="-3.3190870">
        <ele>1067.0</ele>
        <time>2020-09-29T13:30:56Z</time>
      </trkpt>
      <trkpt lat="41.0803150" lon="-3.3189620">
        <ele>1067.0</ele>
        <time>2020-09-29T13:30:57Z</time>
      </trkpt>
      <trkpt lat="41.0802950" lon="-3.3188950">
        <ele>1067.0</ele>
        <time>2020-09-29T13:30:58Z</time>
      </trkpt>
      <trkpt lat="41.0802770" lon="-3.3188320">
        <ele>1067.0</ele>
        <time>2020-09-29T13:30:59Z</time>
      </trkpt>
      <trkpt lat="41.0802770" lon="-3.3188320">
        <ele>1067.0</ele>
        <time>2020-09-29T13:31:00Z</time>
      </trkpt>
      <trkpt lat="41.0802330" lon="-3.3187100">
        <ele>1067.0</ele>
        <time>2020-09-29T13:31:01Z</time>
      </trkpt>
      <trkpt lat="41.0802130" lon="-3.3186470">
        <ele>1067.0</ele>
        <time>2020-09-29T13:31:02Z</time>
      </trkpt>
      <trkpt lat="41.0802130" lon="-3.3186470">
        <ele>1067.0</ele>
        <time>2020-09-29T13:31:03Z</time>
      </trkpt>
      <trkpt lat="41.0801770" lon="-3.3185170">
        <ele>1067.0</ele>
        <time>2020-09-29T13:31:04Z</time>
      </trkpt>
      <trkpt lat="41.0801770" lon="-3.3185170">
        <ele>1067.0</ele>
        <time>2020-09-29T13:31:05Z</time>
      </trkpt>
      <trkpt lat="41.0801430" lon="-3.3183850">
        <ele>1067.0</ele>
        <time>2020-09-29T13:31:06Z</time>
      </trkpt>
      <trkpt lat="41.0801270" lon="-3.3183220">
        <ele>1067.0</ele>
        <time>2020-09-29T13:31:07Z</time>
      </trkpt>
      <trkpt lat="41.0801270" lon="-3.3183220">
        <ele>1067.0</ele>
        <time>2020-09-29T13:31:08Z</time>
      </trkpt>
      <trkpt lat="41.0800930" lon="-3.3181920">
        <ele>1067.0</ele>
        <time>2020-09-29T13:31:09Z</time>
      </trkpt>
      <trkpt lat="41.0800930" lon="-3.3181920">
        <ele>1067.0</ele>
        <time>2020-09-29T13:31:10Z</time>
      </trkpt>
      <trkpt lat="41.0800570" lon="-3.3180680">
        <ele>1067.0</ele>
        <time>2020-09-29T13:31:11Z</time>
      </trkpt>
      <trkpt lat="41.0800570" lon="-3.3180680">
        <ele>1067.0</ele>
        <time>2020-09-29T13:31:12Z</time>
      </trkpt>
      <trkpt lat="41.0800220" lon="-3.3179420">
        <ele>1067.0</ele>
        <time>2020-09-29T13:31:13Z</time>
      </trkpt>
      <trkpt lat="41.0800030" lon="-3.3178780">
        <ele>1067.0</ele>
        <time>2020-09-29T13:31:14Z</time>
      </trkpt>
      <trkpt lat="41.0800030" lon="-3.3178780">
        <ele>1067.0</ele>
        <time>2020-09-29T13:31:15Z</time>
      </trkpt>
      <trkpt lat="41.0799630" lon="-3.3177500">
        <ele>1067.0</ele>
        <time>2020-09-29T13:31:16Z</time>
      </trkpt>
      <trkpt lat="41.0799450" lon="-3.3176880">
        <ele>1067.0</ele>
        <time>2020-09-29T13:31:17Z</time>
      </trkpt>
      <trkpt lat="41.0799450" lon="-3.3176880">
        <ele>1067.0</ele>
        <time>2020-09-29T13:31:18Z</time>
      </trkpt>
      <trkpt lat="41.0799070" lon="-3.3175570">
        <ele>1067.0</ele>
        <time>2020-09-29T13:31:19Z</time>
      </trkpt>
      <trkpt lat="41.0799070" lon="-3.3175570">
        <ele>1067.0</ele>
        <time>2020-09-29T13:31:20Z</time>
      </trkpt>
      <trkpt lat="41.0798700" lon="-3.3174230">
        <ele>1067.0</ele>
        <time>2020-09-29T13:31:21Z</time>
      </trkpt>
      <trkpt lat="41.0798700" lon="-3.3174230">
        <ele>1067.0</ele>
        <time>2020-09-29T13:31:22Z</time>
      </trkpt>
      <trkpt lat="41.0798300" lon="-3.3172950">
        <ele>1067.0</ele>
        <time>2020-09-29T13:31:23Z</time>
      </trkpt>
      <trkpt lat="41.0798300" lon="-3.3172950">
        <ele>1067.0</ele>
        <time>2020-09-29T13:31:24Z</time>
      </trkpt>
      <trkpt lat="41.0797920" lon="-3.3171670">
        <ele>1068.0</ele>
        <time>2020-09-29T13:31:25Z</time>
      </trkpt>
      <trkpt lat="41.0797920" lon="-3.3171670">
        <ele>1068.0</ele>
        <time>2020-09-29T13:31:26Z</time>
      </trkpt>
      <trkpt lat="41.0797500" lon="-3.3170350">
        <ele>1068.0</ele>
        <time>2020-09-29T13:31:27Z</time>
      </trkpt>
      <trkpt lat="41.0797500" lon="-3.3170350">
        <ele>1068.0</ele>
        <time>2020-09-29T13:31:28Z</time>
      </trkpt>
      <trkpt lat="41.0797150" lon="-3.3169020">
        <ele>1068.0</ele>
        <time>2020-09-29T13:31:29Z</time>
      </trkpt>
      <trkpt lat="41.0796930" lon="-3.3168350">
        <ele>1068.0</ele>
        <time>2020-09-29T13:31:30Z</time>
      </trkpt>
      <trkpt lat="41.0796930" lon="-3.3168350">
        <ele>1068.0</ele>
        <time>2020-09-29T13:31:31Z</time>
      </trkpt>
      <trkpt lat="41.0796500" lon="-3.3167050">
        <ele>1068.0</ele>
        <time>2020-09-29T13:31:32Z</time>
      </trkpt>
      <trkpt lat="41.0796500" lon="-3.3167050">
        <ele>1068.0</ele>
        <time>2020-09-29T13:31:33Z</time>
      </trkpt>
      <trkpt lat="41.0796180" lon="-3.3165730">
        <ele>1068.0</ele>
        <time>2020-09-29T13:31:34Z</time>
      </trkpt>
      <trkpt lat="41.0796180" lon="-3.3165730">
        <ele>1068.0</ele>
        <time>2020-09-29T13:31:35Z</time>
      </trkpt>
      <trkpt lat="41.0795820" lon="-3.3164380">
        <ele>1068.0</ele>
        <time>2020-09-29T13:31:36Z</time>
      </trkpt>
      <trkpt lat="41.0795820" lon="-3.3164380">
        <ele>1068.0</ele>
        <time>2020-09-29T13:31:37Z</time>
      </trkpt>
      <trkpt lat="41.0795400" lon="-3.3163080">
        <ele>1068.0</ele>
        <time>2020-09-29T13:31:38Z</time>
      </trkpt>
      <trkpt lat="41.0795400" lon="-3.3163080">
        <ele>1068.0</ele>
        <time>2020-09-29T13:31:39Z</time>
      </trkpt>
      <trkpt lat="41.0794970" lon="-3.3161730">
        <ele>1068.0</ele>
        <time>2020-09-29T13:31:40Z</time>
      </trkpt>
      <trkpt lat="41.0794970" lon="-3.3161730">
        <ele>1068.0</ele>
        <time>2020-09-29T13:31:41Z</time>
      </trkpt>
      <trkpt lat="41.0794600" lon="-3.3160400">
        <ele>1068.0</ele>
        <time>2020-09-29T13:31:42Z</time>
      </trkpt>
      <trkpt lat="41.0794430" lon="-3.3159700">
        <ele>1068.0</ele>
        <time>2020-09-29T13:31:43Z</time>
      </trkpt>
      <trkpt lat="41.0794430" lon="-3.3159700">
        <ele>1068.0</ele>
        <time>2020-09-29T13:31:44Z</time>
      </trkpt>
      <trkpt lat="41.0794070" lon="-3.3158280">
        <ele>1068.0</ele>
        <time>2020-09-29T13:31:45Z</time>
      </trkpt>
      <trkpt lat="41.0794070" lon="-3.3158280">
        <ele>1068.0</ele>
        <time>2020-09-29T13:31:46Z</time>
      </trkpt>
      <trkpt lat="41.0793700" lon="-3.3156930">
        <ele>1068.0</ele>
        <time>2020-09-29T13:31:47Z</time>
      </trkpt>
      <trkpt lat="41.0793700" lon="-3.3156930">
        <ele>1068.0</ele>
        <time>2020-09-29T13:31:48Z</time>
      </trkpt>
      <trkpt lat="41.0793350" lon="-3.3155600">
        <ele>1068.0</ele>
        <time>2020-09-29T13:31:49Z</time>
      </trkpt>
      <trkpt lat="41.0793350" lon="-3.3155600">
        <ele>1068.0</ele>
        <time>2020-09-29T13:31:50Z</time>
      </trkpt>
      <trkpt lat="41.0793000" lon="-3.3154150">
        <ele>1068.0</ele>
        <time>2020-09-29T13:31:51Z</time>
      </trkpt>
      <trkpt lat="41.0793000" lon="-3.3154150">
        <ele>1068.0</ele>
        <time>2020-09-29T13:31:52Z</time>
      </trkpt>
      <trkpt lat="41.0792650" lon="-3.3152770">
        <ele>1068.0</ele>
        <time>2020-09-29T13:31:53Z</time>
      </trkpt>
      <trkpt lat="41.0792650" lon="-3.3152770">
        <ele>1068.0</ele>
        <time>2020-09-29T13:31:54Z</time>
      </trkpt>
      <trkpt lat="41.0792270" lon="-3.3151420">
        <ele>1068.0</ele>
        <time>2020-09-29T13:31:55Z</time>
      </trkpt>
      <trkpt lat="41.0792270" lon="-3.3151420">
        <ele>1068.0</ele>
        <time>2020-09-29T13:31:56Z</time>
      </trkpt>
      <trkpt lat="41.0791880" lon="-3.3150050">
        <ele>1068.0</ele>
        <time>2020-09-29T13:31:57Z</time>
      </trkpt>
      <trkpt lat="41.0791880" lon="-3.3150050">
        <ele>1068.0</ele>
        <time>2020-09-29T13:31:58Z</time>
      </trkpt>
      <trkpt lat="41.0791550" lon="-3.3148720">
        <ele>1068.0</ele>
        <time>2020-09-29T13:31:59Z</time>
      </trkpt>
      <trkpt lat="41.0791550" lon="-3.3148720">
        <ele>1069.0</ele>
        <time>2020-09-29T13:32:00Z</time>
      </trkpt>
      <trkpt lat="41.0791220" lon="-3.3147330">
        <ele>1069.0</ele>
        <time>2020-09-29T13:32:01Z</time>
      </trkpt>
      <trkpt lat="41.0791020" lon="-3.3146630">
        <ele>1069.0</ele>
        <time>2020-09-29T13:32:02Z</time>
      </trkpt>
      <trkpt lat="41.0791020" lon="-3.3146630">
        <ele>1069.0</ele>
        <time>2020-09-29T13:32:03Z</time>
      </trkpt>
      <trkpt lat="41.0790620" lon="-3.3145200">
        <ele>1069.0</ele>
        <time>2020-09-29T13:32:04Z</time>
      </trkpt>
      <trkpt lat="41.0790400" lon="-3.3144430">
        <ele>1069.0</ele>
        <time>2020-09-29T13:32:05Z</time>
      </trkpt>
      <trkpt lat="41.0790170" lon="-3.3143670">
        <ele>1069.0</ele>
        <time>2020-09-29T13:32:06Z</time>
      </trkpt>
      <trkpt lat="41.0790170" lon="-3.3143670">
        <ele>1069.0</ele>
        <time>2020-09-29T13:32:07Z</time>
      </trkpt>
      <trkpt lat="41.0789800" lon="-3.3142070">
        <ele>1068.0</ele>
        <time>2020-09-29T13:32:08Z</time>
      </trkpt>
      <trkpt lat="41.0789800" lon="-3.3142070">
        <ele>1068.0</ele>
        <time>2020-09-29T13:32:09Z</time>
      </trkpt>
      <trkpt lat="41.0789580" lon="-3.3140350">
        <ele>1068.0</ele>
        <time>2020-09-29T13:32:10Z</time>
      </trkpt>
      <trkpt lat="41.0789580" lon="-3.3140350">
        <ele>1068.0</ele>
        <time>2020-09-29T13:32:11Z</time>
      </trkpt>
      <trkpt lat="41.0789530" lon="-3.3138550">
        <ele>1068.0</ele>
        <time>2020-09-29T13:32:12Z</time>
      </trkpt>
      <trkpt lat="41.0789530" lon="-3.3138550">
        <ele>1068.0</ele>
        <time>2020-09-29T13:32:13Z</time>
      </trkpt>
      <trkpt lat="41.0789720" lon="-3.3136680">
        <ele>1068.0</ele>
        <time>2020-09-29T13:32:14Z</time>
      </trkpt>
      <trkpt lat="41.0789720" lon="-3.3136680">
        <ele>1068.0</ele>
        <time>2020-09-29T13:32:15Z</time>
      </trkpt>
      <trkpt lat="41.0789900" lon="-3.3134780">
        <ele>1068.0</ele>
        <time>2020-09-29T13:32:16Z</time>
      </trkpt>
      <trkpt lat="41.0789900" lon="-3.3134780">
        <ele>1068.0</ele>
        <time>2020-09-29T13:32:17Z</time>
      </trkpt>
      <trkpt lat="41.0790030" lon="-3.3132850">
        <ele>1068.0</ele>
        <time>2020-09-29T13:32:18Z</time>
      </trkpt>
      <trkpt lat="41.0790150" lon="-3.3131880">
        <ele>1067.0</ele>
        <time>2020-09-29T13:32:19Z</time>
      </trkpt>
      <trkpt lat="41.0790150" lon="-3.3131880">
        <ele>1067.0</ele>
        <time>2020-09-29T13:32:20Z</time>
      </trkpt>
      <trkpt lat="41.0790380" lon="-3.3129920">
        <ele>1067.0</ele>
        <time>2020-09-29T13:32:21Z</time>
      </trkpt>
      <trkpt lat="41.0790380" lon="-3.3129920">
        <ele>1067.0</ele>
        <time>2020-09-29T13:32:22Z</time>
      </trkpt>
      <trkpt lat="41.0790620" lon="-3.3127880">
        <ele>1066.0</ele>
        <time>2020-09-29T13:32:23Z</time>
      </trkpt>
      <trkpt lat="41.0790620" lon="-3.3127880">
        <ele>1066.0</ele>
        <time>2020-09-29T13:32:24Z</time>
      </trkpt>
      <trkpt lat="41.0790900" lon="-3.3125830">
        <ele>1066.0</ele>
        <time>2020-09-29T13:32:25Z</time>
      </trkpt>
      <trkpt lat="41.0790900" lon="-3.3125830">
        <ele>1066.0</ele>
        <time>2020-09-29T13:32:26Z</time>
      </trkpt>
      <trkpt lat="41.0791200" lon="-3.3123770">
        <ele>1066.0</ele>
        <time>2020-09-29T13:32:27Z</time>
      </trkpt>
      <trkpt lat="41.0791200" lon="-3.3123770">
        <ele>1066.0</ele>
        <time>2020-09-29T13:32:28Z</time>
      </trkpt>
      <trkpt lat="41.0791450" lon="-3.3121680">
        <ele>1065.0</ele>
        <time>2020-09-29T13:32:29Z</time>
      </trkpt>
      <trkpt lat="41.0791450" lon="-3.3121680">
        <ele>1065.0</ele>
        <time>2020-09-29T13:32:30Z</time>
      </trkpt>
      <trkpt lat="41.0791730" lon="-3.3119550">
        <ele>1065.0</ele>
        <time>2020-09-29T13:32:31Z</time>
      </trkpt>
      <trkpt lat="41.0791730" lon="-3.3119550">
        <ele>1065.0</ele>
        <time>2020-09-29T13:32:32Z</time>
      </trkpt>
      <trkpt lat="41.0792030" lon="-3.3117400">
        <ele>1065.0</ele>
        <time>2020-09-29T13:32:33Z</time>
      </trkpt>
      <trkpt lat="41.0792200" lon="-3.3116320">
        <ele>1065.0</ele>
        <time>2020-09-29T13:32:34Z</time>
      </trkpt>
      <trkpt lat="41.0792200" lon="-3.3116320">
        <ele>1064.0</ele>
        <time>2020-09-29T13:32:35Z</time>
      </trkpt>
      <trkpt lat="41.0792530" lon="-3.3114150">
        <ele>1064.0</ele>
        <time>2020-09-29T13:32:36Z</time>
      </trkpt>
      <trkpt lat="41.0792530" lon="-3.3114150">
        <ele>1064.0</ele>
        <time>2020-09-29T13:32:37Z</time>
      </trkpt>
      <trkpt lat="41.0792870" lon="-3.3112020">
        <ele>1064.0</ele>
        <time>2020-09-29T13:32:38Z</time>
      </trkpt>
      <trkpt lat="41.0792870" lon="-3.3112020">
        <ele>1064.0</ele>
        <time>2020-09-29T13:32:39Z</time>
      </trkpt>
      <trkpt lat="41.0793200" lon="-3.3109930">
        <ele>1064.0</ele>
        <time>2020-09-29T13:32:40Z</time>
      </trkpt>
      <trkpt lat="41.0793330" lon="-3.3108970">
        <ele>1064.0</ele>
        <time>2020-09-29T13:32:41Z</time>
      </trkpt>
      <trkpt lat="41.0793330" lon="-3.3108970">
        <ele>1064.0</ele>
        <time>2020-09-29T13:32:42Z</time>
      </trkpt>
      <trkpt lat="41.0793520" lon="-3.3107380">
        <ele>1063.0</ele>
        <time>2020-09-29T13:32:43Z</time>
      </trkpt>
      <trkpt lat="41.0793520" lon="-3.3107380">
        <ele>1063.0</ele>
        <time>2020-09-29T13:32:44Z</time>
      </trkpt>
      <trkpt lat="41.0793720" lon="-3.3106130">
        <ele>1063.0</ele>
        <time>2020-09-29T13:32:45Z</time>
      </trkpt>
      <trkpt lat="41.0793720" lon="-3.3106130">
        <ele>1063.0</ele>
        <time>2020-09-29T13:32:46Z</time>
      </trkpt>
      <trkpt lat="41.0793750" lon="-3.3104750">
        <ele>1063.0</ele>
        <time>2020-09-29T13:32:47Z</time>
      </trkpt>
      <trkpt lat="41.0793680" lon="-3.3104050">
        <ele>1063.0</ele>
        <time>2020-09-29T13:32:48Z</time>
      </trkpt>
      <trkpt lat="41.0793580" lon="-3.3103370">
        <ele>1063.0</ele>
        <time>2020-09-29T13:32:49Z</time>
      </trkpt>
      <trkpt lat="41.0793580" lon="-3.3103370">
        <ele>1063.0</ele>
        <time>2020-09-29T13:32:50Z</time>
      </trkpt>
      <trkpt lat="41.0793280" lon="-3.3102050">
        <ele>1063.0</ele>
        <time>2020-09-29T13:32:51Z</time>
      </trkpt>
      <trkpt lat="41.0793280" lon="-3.3102050">
        <ele>1063.0</ele>
        <time>2020-09-29T13:32:52Z</time>
      </trkpt>
      <trkpt lat="41.0792950" lon="-3.3100850">
        <ele>1063.0</ele>
        <time>2020-09-29T13:32:53Z</time>
      </trkpt>
      <trkpt lat="41.0792950" lon="-3.3100850">
        <ele>1063.0</ele>
        <time>2020-09-29T13:32:54Z</time>
      </trkpt>
      <trkpt lat="41.0792480" lon="-3.3099800">
        <ele>1063.0</ele>
        <time>2020-09-29T13:32:55Z</time>
      </trkpt>
      <trkpt lat="41.0792480" lon="-3.3099800">
        <ele>1063.0</ele>
        <time>2020-09-29T13:32:56Z</time>
      </trkpt>
      <trkpt lat="41.0791880" lon="-3.3098870">
        <ele>1063.0</ele>
        <time>2020-09-29T13:32:57Z</time>
      </trkpt>
      <trkpt lat="41.0791530" lon="-3.3098470">
        <ele>1063.0</ele>
        <time>2020-09-29T13:32:58Z</time>
      </trkpt>
      <trkpt lat="41.0791530" lon="-3.3098470">
        <ele>1063.0</ele>
        <time>2020-09-29T13:32:59Z</time>
      </trkpt>
      <trkpt lat="41.0790780" lon="-3.3097700">
        <ele>1063.0</ele>
        <time>2020-09-29T13:33:00Z</time>
      </trkpt>
      <trkpt lat="41.0790420" lon="-3.3097330">
        <ele>1063.0</ele>
        <time>2020-09-29T13:33:01Z</time>
      </trkpt>
      <trkpt lat="41.0790420" lon="-3.3097330">
        <ele>1064.0</ele>
        <time>2020-09-29T13:33:02Z</time>
      </trkpt>
      <trkpt lat="41.0789720" lon="-3.3096520">
        <ele>1064.0</ele>
        <time>2020-09-29T13:33:03Z</time>
      </trkpt>
      <trkpt lat="41.0789720" lon="-3.3096520">
        <ele>1064.0</ele>
        <time>2020-09-29T13:33:04Z</time>
      </trkpt>
      <trkpt lat="41.0789030" lon="-3.3095750">
        <ele>1064.0</ele>
        <time>2020-09-29T13:33:05Z</time>
      </trkpt>
      <trkpt lat="41.0788670" lon="-3.3095380">
        <ele>1064.0</ele>
        <time>2020-09-29T13:33:06Z</time>
      </trkpt>
      <trkpt lat="41.0788320" lon="-3.3095020">
        <ele>1064.0</ele>
        <time>2020-09-29T13:33:07Z</time>
      </trkpt>
      <trkpt lat="41.0788320" lon="-3.3095020">
        <ele>1064.0</ele>
        <time>2020-09-29T13:33:08Z</time>
      </trkpt>
      <trkpt lat="41.0787650" lon="-3.3094270">
        <ele>1064.0</ele>
        <time>2020-09-29T13:33:09Z</time>
      </trkpt>
      <trkpt lat="41.0787650" lon="-3.3094270">
        <ele>1065.0</ele>
        <time>2020-09-29T13:33:10Z</time>
      </trkpt>
      <trkpt lat="41.0786970" lon="-3.3093480">
        <ele>1065.0</ele>
        <time>2020-09-29T13:33:11Z</time>
      </trkpt>
      <trkpt lat="41.0786970" lon="-3.3093480">
        <ele>1065.0</ele>
        <time>2020-09-29T13:33:12Z</time>
      </trkpt>
      <trkpt lat="41.0786280" lon="-3.3092730">
        <ele>1065.0</ele>
        <time>2020-09-29T13:33:13Z</time>
      </trkpt>
      <trkpt lat="41.0786280" lon="-3.3092730">
        <ele>1065.0</ele>
        <time>2020-09-29T13:33:14Z</time>
      </trkpt>
      <trkpt lat="41.0785550" lon="-3.3091970">
        <ele>1065.0</ele>
        <time>2020-09-29T13:33:15Z</time>
      </trkpt>
      <trkpt lat="41.0785550" lon="-3.3091970">
        <ele>1065.0</ele>
        <time>2020-09-29T13:33:16Z</time>
      </trkpt>
      <trkpt lat="41.0784870" lon="-3.3091170">
        <ele>1065.0</ele>
        <time>2020-09-29T13:33:17Z</time>
      </trkpt>
      <trkpt lat="41.0784870" lon="-3.3091170">
        <ele>1066.0</ele>
        <time>2020-09-29T13:33:18Z</time>
      </trkpt>
      <trkpt lat="41.0784200" lon="-3.3090400">
        <ele>1066.0</ele>
        <time>2020-09-29T13:33:19Z</time>
      </trkpt>
      <trkpt lat="41.0783820" lon="-3.3090030">
        <ele>1066.0</ele>
        <time>2020-09-29T13:33:20Z</time>
      </trkpt>
      <trkpt lat="41.0783470" lon="-3.3089650">
        <ele>1066.0</ele>
        <time>2020-09-29T13:33:21Z</time>
      </trkpt>
      <trkpt lat="41.0783470" lon="-3.3089650">
        <ele>1066.0</ele>
        <time>2020-09-29T13:33:22Z</time>
      </trkpt>
      <trkpt lat="41.0782750" lon="-3.3088850">
        <ele>1066.0</ele>
        <time>2020-09-29T13:33:23Z</time>
      </trkpt>
      <trkpt lat="41.0782750" lon="-3.3088850">
        <ele>1066.0</ele>
        <time>2020-09-29T13:33:24Z</time>
      </trkpt>
      <trkpt lat="41.0782030" lon="-3.3088070">
        <ele>1066.0</ele>
        <time>2020-09-29T13:33:25Z</time>
      </trkpt>
      <trkpt lat="41.0782030" lon="-3.3088070">
        <ele>1067.0</ele>
        <time>2020-09-29T13:33:26Z</time>
      </trkpt>
      <trkpt lat="41.0781300" lon="-3.3087250">
        <ele>1067.0</ele>
        <time>2020-09-29T13:33:27Z</time>
      </trkpt>
      <trkpt lat="41.0781300" lon="-3.3087250">
        <ele>1067.0</ele>
        <time>2020-09-29T13:33:28Z</time>
      </trkpt>
      <trkpt lat="41.0780580" lon="-3.3086400">
        <ele>1067.0</ele>
        <time>2020-09-29T13:33:29Z</time>
      </trkpt>
      <trkpt lat="41.0780220" lon="-3.3085970">
        <ele>1067.0</ele>
        <time>2020-09-29T13:33:30Z</time>
      </trkpt>
      <trkpt lat="41.0779850" lon="-3.3085530">
        <ele>1067.0</ele>
        <time>2020-09-29T13:33:31Z</time>
      </trkpt>
      <trkpt lat="41.0779470" lon="-3.3085100">
        <ele>1067.0</ele>
        <time>2020-09-29T13:33:32Z</time>
      </trkpt>
      <trkpt lat="41.0779470" lon="-3.3085100">
        <ele>1067.0</ele>
        <time>2020-09-29T13:33:33Z</time>
      </trkpt>
      <trkpt lat="41.0778730" lon="-3.3084280">
        <ele>1067.0</ele>
        <time>2020-09-29T13:33:34Z</time>
      </trkpt>
      <trkpt lat="41.0778730" lon="-3.3084280">
        <ele>1067.0</ele>
        <time>2020-09-29T13:33:35Z</time>
      </trkpt>
      <trkpt lat="41.0777980" lon="-3.3083450">
        <ele>1067.0</ele>
        <time>2020-09-29T13:33:36Z</time>
      </trkpt>
      <trkpt lat="41.0777980" lon="-3.3083450">
        <ele>1067.0</ele>
        <time>2020-09-29T13:33:37Z</time>
      </trkpt>
      <trkpt lat="41.0777230" lon="-3.3082580">
        <ele>1067.0</ele>
        <time>2020-09-29T13:33:38Z</time>
      </trkpt>
      <trkpt lat="41.0777230" lon="-3.3082580">
        <ele>1067.0</ele>
        <time>2020-09-29T13:33:39Z</time>
      </trkpt>
      <trkpt lat="41.0776470" lon="-3.3081720">
        <ele>1067.0</ele>
        <time>2020-09-29T13:33:40Z</time>
      </trkpt>
      <trkpt lat="41.0776470" lon="-3.3081720">
        <ele>1067.0</ele>
        <time>2020-09-29T13:33:41Z</time>
      </trkpt>
      <trkpt lat="41.0775630" lon="-3.3080780">
        <ele>1068.0</ele>
        <time>2020-09-29T13:33:42Z</time>
      </trkpt>
      <trkpt lat="41.0775180" lon="-3.3080330">
        <ele>1068.0</ele>
        <time>2020-09-29T13:33:43Z</time>
      </trkpt>
      <trkpt lat="41.0775180" lon="-3.3080330">
        <ele>1068.0</ele>
        <time>2020-09-29T13:33:44Z</time>
      </trkpt>
      <trkpt lat="41.0774250" lon="-3.3079470">
        <ele>1068.0</ele>
        <time>2020-09-29T13:33:45Z</time>
      </trkpt>
      <trkpt lat="41.0773800" lon="-3.3079030">
        <ele>1068.0</ele>
        <time>2020-09-29T13:33:46Z</time>
      </trkpt>
      <trkpt lat="41.0773800" lon="-3.3079030">
        <ele>1068.0</ele>
        <time>2020-09-29T13:33:47Z</time>
      </trkpt>
      <trkpt lat="41.0772920" lon="-3.3078230">
        <ele>1068.0</ele>
        <time>2020-09-29T13:33:48Z</time>
      </trkpt>
      <trkpt lat="41.0772920" lon="-3.3078230">
        <ele>1068.0</ele>
        <time>2020-09-29T13:33:49Z</time>
      </trkpt>
      <trkpt lat="41.0772030" lon="-3.3077420">
        <ele>1068.0</ele>
        <time>2020-09-29T13:33:50Z</time>
      </trkpt>
      <trkpt lat="41.0772030" lon="-3.3077420">
        <ele>1068.0</ele>
        <time>2020-09-29T13:33:51Z</time>
      </trkpt>
      <trkpt lat="41.0771130" lon="-3.3076580">
        <ele>1068.0</ele>
        <time>2020-09-29T13:33:52Z</time>
      </trkpt>
      <trkpt lat="41.0770630" lon="-3.3076150">
        <ele>1068.0</ele>
        <time>2020-09-29T13:33:53Z</time>
      </trkpt>
      <trkpt lat="41.0770630" lon="-3.3076150">
        <ele>1068.0</ele>
        <time>2020-09-29T13:33:54Z</time>
      </trkpt>
      <trkpt lat="41.0769580" lon="-3.3075380">
        <ele>1068.0</ele>
        <time>2020-09-29T13:33:55Z</time>
      </trkpt>
      <trkpt lat="41.0769580" lon="-3.3075380">
        <ele>1068.0</ele>
        <time>2020-09-29T13:33:56Z</time>
      </trkpt>
      <trkpt lat="41.0768450" lon="-3.3074570">
        <ele>1068.0</ele>
        <time>2020-09-29T13:33:57Z</time>
      </trkpt>
      <trkpt lat="41.0767870" lon="-3.3074120">
        <ele>1068.0</ele>
        <time>2020-09-29T13:33:58Z</time>
      </trkpt>
      <trkpt lat="41.0767870" lon="-3.3074120">
        <ele>1068.0</ele>
        <time>2020-09-29T13:33:59Z</time>
      </trkpt>
      <trkpt lat="41.0766670" lon="-3.3073200">
        <ele>1067.0</ele>
        <time>2020-09-29T13:34:00Z</time>
      </trkpt>
      <trkpt lat="41.0766070" lon="-3.3072730">
        <ele>1067.0</ele>
        <time>2020-09-29T13:34:01Z</time>
      </trkpt>
      <trkpt lat="41.0766070" lon="-3.3072730">
        <ele>1067.0</ele>
        <time>2020-09-29T13:34:02Z</time>
      </trkpt>
      <trkpt lat="41.0764870" lon="-3.3071770">
        <ele>1067.0</ele>
        <time>2020-09-29T13:34:03Z</time>
      </trkpt>
      <trkpt lat="41.0764250" lon="-3.3071270">
        <ele>1067.0</ele>
        <time>2020-09-29T13:34:04Z</time>
      </trkpt>
      <trkpt lat="41.0764250" lon="-3.3071270">
        <ele>1066.0</ele>
        <time>2020-09-29T13:34:05Z</time>
      </trkpt>
      <trkpt lat="41.0763020" lon="-3.3070320">
        <ele>1066.0</ele>
        <time>2020-09-29T13:34:06Z</time>
      </trkpt>
      <trkpt lat="41.0762370" lon="-3.3069870">
        <ele>1066.0</ele>
        <time>2020-09-29T13:34:07Z</time>
      </trkpt>
      <trkpt lat="41.0762370" lon="-3.3069870">
        <ele>1066.0</ele>
        <time>2020-09-29T13:34:08Z</time>
      </trkpt>
      <trkpt lat="41.0760980" lon="-3.3069100">
        <ele>1066.0</ele>
        <time>2020-09-29T13:34:09Z</time>
      </trkpt>
      <trkpt lat="41.0760250" lon="-3.3068800">
        <ele>1066.0</ele>
        <time>2020-09-29T13:34:10Z</time>
      </trkpt>
      <trkpt lat="41.0759450" lon="-3.3068570">
        <ele>1065.0</ele>
        <time>2020-09-29T13:34:11Z</time>
      </trkpt>
      <trkpt lat="41.0759450" lon="-3.3068570">
        <ele>1065.0</ele>
        <time>2020-09-29T13:34:12Z</time>
      </trkpt>
      <trkpt lat="41.0757880" lon="-3.3068250">
        <ele>1065.0</ele>
        <time>2020-09-29T13:34:13Z</time>
      </trkpt>
      <trkpt lat="41.0757880" lon="-3.3068250">
        <ele>1065.0</ele>
        <time>2020-09-29T13:34:14Z</time>
      </trkpt>
      <trkpt lat="41.0756280" lon="-3.3068080">
        <ele>1064.0</ele>
        <time>2020-09-29T13:34:15Z</time>
      </trkpt>
      <trkpt lat="41.0755470" lon="-3.3068030">
        <ele>1064.0</ele>
        <time>2020-09-29T13:34:16Z</time>
      </trkpt>
      <trkpt lat="41.0754670" lon="-3.3067980">
        <ele>1064.0</ele>
        <time>2020-09-29T13:34:17Z</time>
      </trkpt>
      <trkpt lat="41.0754670" lon="-3.3067980">
        <ele>1064.0</ele>
        <time>2020-09-29T13:34:18Z</time>
      </trkpt>
      <trkpt lat="41.0753000" lon="-3.3067870">
        <ele>1063.0</ele>
        <time>2020-09-29T13:34:19Z</time>
      </trkpt>
      <trkpt lat="41.0752150" lon="-3.3067820">
        <ele>1063.0</ele>
        <time>2020-09-29T13:34:20Z</time>
      </trkpt>
      <trkpt lat="41.0752150" lon="-3.3067820">
        <ele>1063.0</ele>
        <time>2020-09-29T13:34:21Z</time>
      </trkpt>
      <trkpt lat="41.0750550" lon="-3.3067670">
        <ele>1063.0</ele>
        <time>2020-09-29T13:34:22Z</time>
      </trkpt>
      <trkpt lat="41.0750550" lon="-3.3067670">
        <ele>1063.0</ele>
        <time>2020-09-29T13:34:23Z</time>
      </trkpt>
      <trkpt lat="41.0748980" lon="-3.3067520">
        <ele>1063.0</ele>
        <time>2020-09-29T13:34:24Z</time>
      </trkpt>
      <trkpt lat="41.0748980" lon="-3.3067520">
        <ele>1063.0</ele>
        <time>2020-09-29T13:34:25Z</time>
      </trkpt>
      <trkpt lat="41.0747420" lon="-3.3067350">
        <ele>1063.0</ele>
        <time>2020-09-29T13:34:26Z</time>
      </trkpt>
      <trkpt lat="41.0747420" lon="-3.3067350">
        <ele>1063.0</ele>
        <time>2020-09-29T13:34:27Z</time>
      </trkpt>
      <trkpt lat="41.0745900" lon="-3.3067250">
        <ele>1063.0</ele>
        <time>2020-09-29T13:34:28Z</time>
      </trkpt>
      <trkpt lat="41.0745170" lon="-3.3067220">
        <ele>1063.0</ele>
        <time>2020-09-29T13:34:29Z</time>
      </trkpt>
      <trkpt lat="41.0745170" lon="-3.3067220">
        <ele>1063.0</ele>
        <time>2020-09-29T13:34:30Z</time>
      </trkpt>
      <trkpt lat="41.0743730" lon="-3.3067150">
        <ele>1063.0</ele>
        <time>2020-09-29T13:34:31Z</time>
      </trkpt>
      <trkpt lat="41.0743730" lon="-3.3067150">
        <ele>1063.0</ele>
        <time>2020-09-29T13:34:32Z</time>
      </trkpt>
      <trkpt lat="41.0742370" lon="-3.3067000">
        <ele>1063.0</ele>
        <time>2020-09-29T13:34:33Z</time>
      </trkpt>
      <trkpt lat="41.0741700" lon="-3.3066880">
        <ele>1063.0</ele>
        <time>2020-09-29T13:34:34Z</time>
      </trkpt>
      <trkpt lat="41.0741700" lon="-3.3066880">
        <ele>1063.0</ele>
        <time>2020-09-29T13:34:35Z</time>
      </trkpt>
      <trkpt lat="41.0740400" lon="-3.3066650">
        <ele>1063.0</ele>
        <time>2020-09-29T13:34:36Z</time>
      </trkpt>
      <trkpt lat="41.0739770" lon="-3.3066520">
        <ele>1063.0</ele>
        <time>2020-09-29T13:34:37Z</time>
      </trkpt>
      <trkpt lat="41.0739770" lon="-3.3066520">
        <ele>1063.0</ele>
        <time>2020-09-29T13:34:38Z</time>
      </trkpt>
      <trkpt lat="41.0738650" lon="-3.3066300">
        <ele>1063.0</ele>
        <time>2020-09-29T13:34:39Z</time>
      </trkpt>
      <trkpt lat="41.0738650" lon="-3.3066300">
        <ele>1062.0</ele>
        <time>2020-09-29T13:34:40Z</time>
      </trkpt>
      <trkpt lat="41.0737870" lon="-3.3066780">
        <ele>1062.0</ele>
        <time>2020-09-29T13:34:41Z</time>
      </trkpt>
      <trkpt lat="41.0737870" lon="-3.3066780">
        <ele>1062.0</ele>
        <time>2020-09-29T13:34:42Z</time>
      </trkpt>
      <trkpt lat="41.0737520" lon="-3.3067370">
        <ele>1062.0</ele>
        <time>2020-09-29T13:34:43Z</time>
      </trkpt>
      <trkpt lat="41.0737520" lon="-3.3067370">
        <ele>1062.0</ele>
        <time>2020-09-29T13:34:44Z</time>
      </trkpt>
      <trkpt lat="41.0737130" lon="-3.3067670">
        <ele>1062.0</ele>
        <time>2020-09-29T13:34:45Z</time>
      </trkpt>
      <trkpt lat="41.0736920" lon="-3.3067770">
        <ele>1062.0</ele>
        <time>2020-09-29T13:34:46Z</time>
      </trkpt>
      <trkpt lat="41.0736650" lon="-3.3067850">
        <ele>1062.0</ele>
        <time>2020-09-29T13:34:47Z</time>
      </trkpt>
      <trkpt lat="41.0736650" lon="-3.3067850">
        <ele>1062.0</ele>
        <time>2020-09-29T13:34:48Z</time>
      </trkpt>
      <trkpt lat="41.0735950" lon="-3.3067980">
        <ele>1062.0</ele>
        <time>2020-09-29T13:34:49Z</time>
      </trkpt>
      <trkpt lat="41.0735580" lon="-3.3068020">
        <ele>1062.0</ele>
        <time>2020-09-29T13:34:50Z</time>
      </trkpt>
      <trkpt lat="41.0735580" lon="-3.3068020">
        <ele>1062.0</ele>
        <time>2020-09-29T13:34:51Z</time>
      </trkpt>
      <trkpt lat="41.0734850" lon="-3.3068080">
        <ele>1062.0</ele>
        <time>2020-09-29T13:34:52Z</time>
      </trkpt>
      <trkpt lat="41.0734430" lon="-3.3068070">
        <ele>1062.0</ele>
        <time>2020-09-29T13:34:53Z</time>
      </trkpt>
      <trkpt lat="41.0734000" lon="-3.3068020">
        <ele>1062.0</ele>
        <time>2020-09-29T13:34:54Z</time>
      </trkpt>
      <trkpt lat="41.0734000" lon="-3.3068020">
        <ele>1062.0</ele>
        <time>2020-09-29T13:34:55Z</time>
      </trkpt>
      <trkpt lat="41.0733050" lon="-3.3067920">
        <ele>1062.0</ele>
        <time>2020-09-29T13:34:56Z</time>
      </trkpt>
      <trkpt lat="41.0733050" lon="-3.3067920">
        <ele>1062.0</ele>
        <time>2020-09-29T13:34:57Z</time>
      </trkpt>
      <trkpt lat="41.0732150" lon="-3.3067970">
        <ele>1062.0</ele>
        <time>2020-09-29T13:34:58Z</time>
      </trkpt>
      <trkpt lat="41.0732150" lon="-3.3067970">
        <ele>1062.0</ele>
        <time>2020-09-29T13:34:59Z</time>
      </trkpt>
      <trkpt lat="41.0731280" lon="-3.3068120">
        <ele>1062.0</ele>
        <time>2020-09-29T13:35:00Z</time>
      </trkpt>
      <trkpt lat="41.0731280" lon="-3.3068120">
        <ele>1062.0</ele>
        <time>2020-09-29T13:35:01Z</time>
      </trkpt>
      <trkpt lat="41.0730470" lon="-3.3068370">
        <ele>1063.0</ele>
        <time>2020-09-29T13:35:02Z</time>
      </trkpt>
      <trkpt lat="41.0730470" lon="-3.3068370">
        <ele>1063.0</ele>
        <time>2020-09-29T13:35:03Z</time>
      </trkpt>
      <trkpt lat="41.0729730" lon="-3.3068830">
        <ele>1063.0</ele>
        <time>2020-09-29T13:35:04Z</time>
      </trkpt>
      <trkpt lat="41.0729730" lon="-3.3068830">
        <ele>1063.0</ele>
        <time>2020-09-29T13:35:05Z</time>
      </trkpt>
      <trkpt lat="41.0729070" lon="-3.3069530">
        <ele>1064.0</ele>
        <time>2020-09-29T13:35:06Z</time>
      </trkpt>
      <trkpt lat="41.0728770" lon="-3.3069930">
        <ele>1064.0</ele>
        <time>2020-09-29T13:35:07Z</time>
      </trkpt>
      <trkpt lat="41.0728770" lon="-3.3069930">
        <ele>1064.0</ele>
        <time>2020-09-29T13:35:08Z</time>
      </trkpt>
      <trkpt lat="41.0728180" lon="-3.3070680">
        <ele>1064.0</ele>
        <time>2020-09-29T13:35:09Z</time>
      </trkpt>
      <trkpt lat="41.0728180" lon="-3.3070680">
        <ele>1065.0</ele>
        <time>2020-09-29T13:35:10Z</time>
      </trkpt>
      <trkpt lat="41.0727620" lon="-3.3071370">
        <ele>1065.0</ele>
        <time>2020-09-29T13:35:11Z</time>
      </trkpt>
      <trkpt lat="41.0727620" lon="-3.3071370">
        <ele>1065.0</ele>
        <time>2020-09-29T13:35:12Z</time>
      </trkpt>
      <trkpt lat="41.0727070" lon="-3.3072120">
        <ele>1066.0</ele>
        <time>2020-09-29T13:35:13Z</time>
      </trkpt>
      <trkpt lat="41.0727070" lon="-3.3072120">
        <ele>1066.0</ele>
        <time>2020-09-29T13:35:14Z</time>
      </trkpt>
      <trkpt lat="41.0726570" lon="-3.3072850">
        <ele>1066.0</ele>
        <time>2020-09-29T13:35:15Z</time>
      </trkpt>
      <trkpt lat="41.0726570" lon="-3.3072850">
        <ele>1066.0</ele>
        <time>2020-09-29T13:35:16Z</time>
      </trkpt>
      <trkpt lat="41.0726200" lon="-3.3073630">
        <ele>1067.0</ele>
        <time>2020-09-29T13:35:17Z</time>
      </trkpt>
      <trkpt lat="41.0726200" lon="-3.3073630">
        <ele>1067.0</ele>
        <time>2020-09-29T13:35:18Z</time>
      </trkpt>
      <trkpt lat="41.0726020" lon="-3.3074550">
        <ele>1067.0</ele>
        <time>2020-09-29T13:35:19Z</time>
      </trkpt>
      <trkpt lat="41.0726020" lon="-3.3074550">
        <ele>1067.0</ele>
        <time>2020-09-29T13:35:20Z</time>
      </trkpt>
      <trkpt lat="41.0725970" lon="-3.3075520">
        <ele>1067.0</ele>
        <time>2020-09-29T13:35:21Z</time>
      </trkpt>
      <trkpt lat="41.0725970" lon="-3.3075520">
        <ele>1067.0</ele>
        <time>2020-09-29T13:35:22Z</time>
      </trkpt>
      <trkpt lat="41.0725920" lon="-3.3076420">
        <ele>1067.0</ele>
        <time>2020-09-29T13:35:23Z</time>
      </trkpt>
      <trkpt lat="41.0725870" lon="-3.3076870">
        <ele>1067.0</ele>
        <time>2020-09-29T13:35:24Z</time>
      </trkpt>
      <trkpt lat="41.0725870" lon="-3.3076870">
        <ele>1067.0</ele>
        <time>2020-09-29T13:35:25Z</time>
      </trkpt>
      <trkpt lat="41.0725720" lon="-3.3077780">
        <ele>1068.0</ele>
        <time>2020-09-29T13:35:26Z</time>
      </trkpt>
      <trkpt lat="41.0725720" lon="-3.3077780">
        <ele>1068.0</ele>
        <time>2020-09-29T13:35:27Z</time>
      </trkpt>
      <trkpt lat="41.0725280" lon="-3.3078500">
        <ele>1068.0</ele>
        <time>2020-09-29T13:35:28Z</time>
      </trkpt>
      <trkpt lat="41.0725280" lon="-3.3078500">
        <ele>1068.0</ele>
        <time>2020-09-29T13:35:29Z</time>
      </trkpt>
      <trkpt lat="41.0724580" lon="-3.3078700">
        <ele>1068.0</ele>
        <time>2020-09-29T13:35:30Z</time>
      </trkpt>
      <trkpt lat="41.0724230" lon="-3.3078730">
        <ele>1068.0</ele>
        <time>2020-09-29T13:35:31Z</time>
      </trkpt>
      <trkpt lat="41.0723880" lon="-3.3078770">
        <ele>1069.0</ele>
        <time>2020-09-29T13:35:32Z</time>
      </trkpt>
      <trkpt lat="41.0723530" lon="-3.3078820">
        <ele>1069.0</ele>
        <time>2020-09-29T13:35:33Z</time>
      </trkpt>
      <trkpt lat="41.0723530" lon="-3.3078820">
        <ele>1069.0</ele>
        <time>2020-09-29T13:35:34Z</time>
      </trkpt>
      <trkpt lat="41.0722850" lon="-3.3078930">
        <ele>1069.0</ele>
        <time>2020-09-29T13:35:35Z</time>
      </trkpt>
      <trkpt lat="41.0722850" lon="-3.3078930">
        <ele>1069.0</ele>
        <time>2020-09-29T13:35:36Z</time>
      </trkpt>
      <trkpt lat="41.0722200" lon="-3.3079070">
        <ele>1069.0</ele>
        <time>2020-09-29T13:35:37Z</time>
      </trkpt>
      <trkpt lat="41.0722200" lon="-3.3079070">
        <ele>1069.0</ele>
        <time>2020-09-29T13:35:38Z</time>
      </trkpt>
      <trkpt lat="41.0721570" lon="-3.3079330">
        <ele>1069.0</ele>
        <time>2020-09-29T13:35:39Z</time>
      </trkpt>
      <trkpt lat="41.0721300" lon="-3.3079450">
        <ele>1069.0</ele>
        <time>2020-09-29T13:35:40Z</time>
      </trkpt>
      <trkpt lat="41.0721300" lon="-3.3079450">
        <ele>1069.0</ele>
        <time>2020-09-29T13:35:41Z</time>
      </trkpt>
      <trkpt lat="41.0720780" lon="-3.3079720">
        <ele>1069.0</ele>
        <time>2020-09-29T13:35:42Z</time>
      </trkpt>
      <trkpt lat="41.0720600" lon="-3.3079930">
        <ele>1069.0</ele>
        <time>2020-09-29T13:35:43Z</time>
      </trkpt>
      <trkpt lat="41.0720600" lon="-3.3079930">
        <ele>1069.0</ele>
        <time>2020-09-29T13:35:44Z</time>
      </trkpt>
      <trkpt lat="41.0720350" lon="-3.3080420">
        <ele>1069.0</ele>
        <time>2020-09-29T13:35:45Z</time>
      </trkpt>
      <trkpt lat="41.0720270" lon="-3.3080730">
        <ele>1069.0</ele>
        <time>2020-09-29T13:35:46Z</time>
      </trkpt>
      <trkpt lat="41.0720270" lon="-3.3080730">
        <ele>1069.0</ele>
        <time>2020-09-29T13:35:47Z</time>
      </trkpt>
      <trkpt lat="41.0720080" lon="-3.3081370">
        <ele>1068.0</ele>
        <time>2020-09-29T13:35:48Z</time>
      </trkpt>
      <trkpt lat="41.0720080" lon="-3.3081370">
        <ele>1068.0</ele>
        <time>2020-09-29T13:35:49Z</time>
      </trkpt>
      <trkpt lat="41.0719870" lon="-3.3082050">
        <ele>1068.0</ele>
        <time>2020-09-29T13:35:50Z</time>
      </trkpt>
      <trkpt lat="41.0719870" lon="-3.3082050">
        <ele>1068.0</ele>
        <time>2020-09-29T13:35:51Z</time>
      </trkpt>
      <trkpt lat="41.0719680" lon="-3.3082750">
        <ele>1068.0</ele>
        <time>2020-09-29T13:35:52Z</time>
      </trkpt>
      <trkpt lat="41.0719500" lon="-3.3083080">
        <ele>1068.0</ele>
        <time>2020-09-29T13:35:53Z</time>
      </trkpt>
      <trkpt lat="41.0719500" lon="-3.3083080">
        <ele>1068.0</ele>
        <time>2020-09-29T13:35:54Z</time>
      </trkpt>
      <trkpt lat="41.0719150" lon="-3.3083480">
        <ele>1067.0</ele>
        <time>2020-09-29T13:35:55Z</time>
      </trkpt>
      <trkpt lat="41.0719150" lon="-3.3083480">
        <ele>1067.0</ele>
        <time>2020-09-29T13:35:56Z</time>
      </trkpt>
      <trkpt lat="41.0719050" lon="-3.3083550">
        <ele>1067.0</ele>
        <time>2020-09-29T13:35:57Z</time>
      </trkpt>
      <trkpt lat="41.0719030" lon="-3.3083550">
        <ele>1067.0</ele>
        <time>2020-09-29T13:35:58Z</time>
      </trkpt>
      <trkpt lat="41.0719030" lon="-3.3083550">
        <ele>1067.0</ele>
        <time>2020-09-29T13:35:59Z</time>
      </trkpt>
      <trkpt lat="41.0719170" lon="-3.3083700">
        <ele>1067.0</ele>
        <time>2020-09-29T13:37:12Z</time>
      </trkpt>
      <trkpt lat="41.0719170" lon="-3.3083600">
        <ele>1067.0</ele>
        <time>2020-09-29T13:37:13Z</time>
      </trkpt>
      <trkpt lat="41.0719170" lon="-3.3083600">
        <ele>1067.0</ele>
        <time>2020-09-29T13:37:14Z</time>
      </trkpt>
      <trkpt lat="41.0719180" lon="-3.3083470">
        <ele>1067.0</ele>
        <time>2020-09-29T13:37:15Z</time>
      </trkpt>
      <trkpt lat="41.0719180" lon="-3.3083480">
        <ele>1067.0</ele>
        <time>2020-09-29T13:37:16Z</time>
      </trkpt>
      <trkpt lat="41.0719180" lon="-3.3083480">
        <ele>1067.0</ele>
        <time>2020-09-29T13:37:17Z</time>
      </trkpt>
      <trkpt lat="41.0719400" lon="-3.3083030">
        <ele>1067.0</ele>
        <time>2020-09-29T13:37:21Z</time>
      </trkpt>
      <trkpt lat="41.0719450" lon="-3.3082850">
        <ele>1067.0</ele>
        <time>2020-09-29T13:37:22Z</time>
      </trkpt>
      <trkpt lat="41.0719450" lon="-3.3082850">
        <ele>1066.0</ele>
        <time>2020-09-29T13:37:23Z</time>
      </trkpt>
      <trkpt lat="41.0719550" lon="-3.3082450">
        <ele>1066.0</ele>
        <time>2020-09-29T13:37:24Z</time>
      </trkpt>
      <trkpt lat="41.0719550" lon="-3.3082450">
        <ele>1066.0</ele>
        <time>2020-09-29T13:37:25Z</time>
      </trkpt>
      <trkpt lat="41.0719650" lon="-3.3082080">
        <ele>1066.0</ele>
        <time>2020-09-29T13:37:26Z</time>
      </trkpt>
      <trkpt lat="41.0719650" lon="-3.3082080">
        <ele>1066.0</ele>
        <time>2020-09-29T13:37:27Z</time>
      </trkpt>
      <trkpt lat="41.0719650" lon="-3.3081950">
        <ele>1066.0</ele>
        <time>2020-09-29T13:37:28Z</time>
      </trkpt>
      <trkpt lat="41.0719670" lon="-3.3081970">
        <ele>1066.0</ele>
        <time>2020-09-29T13:37:29Z</time>
      </trkpt>
      <trkpt lat="41.0720020" lon="-3.3081580">
        <ele>1066.0</ele>
        <time>2020-09-29T13:38:12Z</time>
      </trkpt>
      <trkpt lat="41.0720020" lon="-3.3081580">
        <ele>1066.0</ele>
        <time>2020-09-29T13:38:13Z</time>
      </trkpt>
      <trkpt lat="41.0720200" lon="-3.3081380">
        <ele>1066.0</ele>
        <time>2020-09-29T13:38:14Z</time>
      </trkpt>
      <trkpt lat="41.0720200" lon="-3.3081380">
        <ele>1066.0</ele>
        <time>2020-09-29T13:38:15Z</time>
      </trkpt>
      <trkpt lat="41.0720350" lon="-3.3080920">
        <ele>1066.0</ele>
        <time>2020-09-29T13:38:16Z</time>
      </trkpt>
      <trkpt lat="41.0720350" lon="-3.3080920">
        <ele>1066.0</ele>
        <time>2020-09-29T13:38:17Z</time>
      </trkpt>
      <trkpt lat="41.0720500" lon="-3.3080530">
        <ele>1066.0</ele>
        <time>2020-09-29T13:38:18Z</time>
      </trkpt>
      <trkpt lat="41.0720580" lon="-3.3080400">
        <ele>1066.0</ele>
        <time>2020-09-29T13:38:19Z</time>
      </trkpt>
      <trkpt lat="41.0720580" lon="-3.3080400">
        <ele>1066.0</ele>
        <time>2020-09-29T13:38:20Z</time>
      </trkpt>
      <trkpt lat="41.0720880" lon="-3.3080030">
        <ele>1067.0</ele>
        <time>2020-09-29T13:38:21Z</time>
      </trkpt>
      <trkpt lat="41.0721070" lon="-3.3079870">
        <ele>1067.0</ele>
        <time>2020-09-29T13:38:22Z</time>
      </trkpt>
      <trkpt lat="41.0721270" lon="-3.3079700">
        <ele>1067.0</ele>
        <time>2020-09-29T13:38:23Z</time>
      </trkpt>
      <trkpt lat="41.0721270" lon="-3.3079700">
        <ele>1067.0</ele>
        <time>2020-09-29T13:38:24Z</time>
      </trkpt>
      <trkpt lat="41.0721680" lon="-3.3079370">
        <ele>1067.0</ele>
        <time>2020-09-29T13:38:25Z</time>
      </trkpt>
      <trkpt lat="41.0721680" lon="-3.3079370">
        <ele>1067.0</ele>
        <time>2020-09-29T13:38:26Z</time>
      </trkpt>
      <trkpt lat="41.0722230" lon="-3.3079080">
        <ele>1067.0</ele>
        <time>2020-09-29T13:38:27Z</time>
      </trkpt>
      <trkpt lat="41.0722500" lon="-3.3078980">
        <ele>1067.0</ele>
        <time>2020-09-29T13:38:28Z</time>
      </trkpt>
      <trkpt lat="41.0722500" lon="-3.3078980">
        <ele>1067.0</ele>
        <time>2020-09-29T13:38:29Z</time>
      </trkpt>
      <trkpt lat="41.0723000" lon="-3.3078900">
        <ele>1067.0</ele>
        <time>2020-09-29T13:38:30Z</time>
      </trkpt>
      <trkpt lat="41.0723000" lon="-3.3078900">
        <ele>1067.0</ele>
        <time>2020-09-29T13:38:31Z</time>
      </trkpt>
      <trkpt lat="41.0723570" lon="-3.3078770">
        <ele>1068.0</ele>
        <time>2020-09-29T13:38:32Z</time>
      </trkpt>
      <trkpt lat="41.0723570" lon="-3.3078770">
        <ele>1068.0</ele>
        <time>2020-09-29T13:38:33Z</time>
      </trkpt>
      <trkpt lat="41.0724130" lon="-3.3078630">
        <ele>1068.0</ele>
        <time>2020-09-29T13:38:34Z</time>
      </trkpt>
      <trkpt lat="41.0724420" lon="-3.3078570">
        <ele>1068.0</ele>
        <time>2020-09-29T13:38:35Z</time>
      </trkpt>
      <trkpt lat="41.0724420" lon="-3.3078570">
        <ele>1068.0</ele>
        <time>2020-09-29T13:38:36Z</time>
      </trkpt>
      <trkpt lat="41.0725050" lon="-3.3078320">
        <ele>1068.0</ele>
        <time>2020-09-29T13:38:37Z</time>
      </trkpt>
      <trkpt lat="41.0725050" lon="-3.3078320">
        <ele>1068.0</ele>
        <time>2020-09-29T13:38:38Z</time>
      </trkpt>
      <trkpt lat="41.0725620" lon="-3.3077750">
        <ele>1068.0</ele>
        <time>2020-09-29T13:38:39Z</time>
      </trkpt>
      <trkpt lat="41.0725820" lon="-3.3077250">
        <ele>1068.0</ele>
        <time>2020-09-29T13:38:40Z</time>
      </trkpt>
      <trkpt lat="41.0725820" lon="-3.3077250">
        <ele>1068.0</ele>
        <time>2020-09-29T13:38:41Z</time>
      </trkpt>
      <trkpt lat="41.0725950" lon="-3.3076170">
        <ele>1068.0</ele>
        <time>2020-09-29T13:38:42Z</time>
      </trkpt>
      <trkpt lat="41.0725950" lon="-3.3076170">
        <ele>1068.0</ele>
        <time>2020-09-29T13:38:43Z</time>
      </trkpt>
      <trkpt lat="41.0726000" lon="-3.3075030">
        <ele>1068.0</ele>
        <time>2020-09-29T13:38:44Z</time>
      </trkpt>
      <trkpt lat="41.0726000" lon="-3.3075030">
        <ele>1067.0</ele>
        <time>2020-09-29T13:38:45Z</time>
      </trkpt>
      <trkpt lat="41.0726180" lon="-3.3073850">
        <ele>1067.0</ele>
        <time>2020-09-29T13:38:46Z</time>
      </trkpt>
      <trkpt lat="41.0726180" lon="-3.3073850">
        <ele>1067.0</ele>
        <time>2020-09-29T13:38:47Z</time>
      </trkpt>
      <trkpt lat="41.0726720" lon="-3.3072770">
        <ele>1067.0</ele>
        <time>2020-09-29T13:38:48Z</time>
      </trkpt>
      <trkpt lat="41.0727050" lon="-3.3072200">
        <ele>1066.0</ele>
        <time>2020-09-29T13:38:49Z</time>
      </trkpt>
      <trkpt lat="41.0727400" lon="-3.3071650">
        <ele>1066.0</ele>
        <time>2020-09-29T13:38:50Z</time>
      </trkpt>
      <trkpt lat="41.0727400" lon="-3.3071650">
        <ele>1066.0</ele>
        <time>2020-09-29T13:38:51Z</time>
      </trkpt>
      <trkpt lat="41.0728220" lon="-3.3070500">
        <ele>1066.0</ele>
        <time>2020-09-29T13:38:52Z</time>
      </trkpt>
      <trkpt lat="41.0728670" lon="-3.3069900">
        <ele>1066.0</ele>
        <time>2020-09-29T13:38:53Z</time>
      </trkpt>
      <trkpt lat="41.0728670" lon="-3.3069900">
        <ele>1066.0</ele>
        <time>2020-09-29T13:38:54Z</time>
      </trkpt>
      <trkpt lat="41.0729700" lon="-3.3068820">
        <ele>1065.0</ele>
        <time>2020-09-29T13:38:55Z</time>
      </trkpt>
      <trkpt lat="41.0729700" lon="-3.3068820">
        <ele>1065.0</ele>
        <time>2020-09-29T13:38:56Z</time>
      </trkpt>
      <trkpt lat="41.0730980" lon="-3.3068200">
        <ele>1065.0</ele>
        <time>2020-09-29T13:38:57Z</time>
      </trkpt>
      <trkpt lat="41.0731650" lon="-3.3068030">
        <ele>1065.0</ele>
        <time>2020-09-29T13:38:58Z</time>
      </trkpt>
      <trkpt lat="41.0731650" lon="-3.3068030">
        <ele>1063.0</ele>
        <time>2020-09-29T13:38:59Z</time>
      </trkpt>
      <trkpt lat="41.0733070" lon="-3.3067900">
        <ele>1063.0</ele>
        <time>2020-09-29T13:39:00Z</time>
      </trkpt>
      <trkpt lat="41.0733070" lon="-3.3067900">
        <ele>1062.0</ele>
        <time>2020-09-29T13:39:01Z</time>
      </trkpt>
      <trkpt lat="41.0734550" lon="-3.3067900">
        <ele>1062.0</ele>
        <time>2020-09-29T13:39:02Z</time>
      </trkpt>
      <trkpt lat="41.0734550" lon="-3.3067900">
        <ele>1061.0</ele>
        <time>2020-09-29T13:39:03Z</time>
      </trkpt>
      <trkpt lat="41.0735850" lon="-3.3067770">
        <ele>1061.0</ele>
        <time>2020-09-29T13:39:04Z</time>
      </trkpt>
      <trkpt lat="41.0736450" lon="-3.3067700">
        <ele>1061.0</ele>
        <time>2020-09-29T13:39:05Z</time>
      </trkpt>
      <trkpt lat="41.0736450" lon="-3.3067700">
        <ele>1061.0</ele>
        <time>2020-09-29T13:39:06Z</time>
      </trkpt>
      <trkpt lat="41.0737550" lon="-3.3067320">
        <ele>1061.0</ele>
        <time>2020-09-29T13:39:07Z</time>
      </trkpt>
      <trkpt lat="41.0737550" lon="-3.3067320">
        <ele>1061.0</ele>
        <time>2020-09-29T13:39:08Z</time>
      </trkpt>
      <trkpt lat="41.0737920" lon="-3.3066420">
        <ele>1061.0</ele>
        <time>2020-09-29T13:39:09Z</time>
      </trkpt>
      <trkpt lat="41.0737920" lon="-3.3066420">
        <ele>1061.0</ele>
        <time>2020-09-29T13:39:10Z</time>
      </trkpt>
      <trkpt lat="41.0737320" lon="-3.3065520">
        <ele>1061.0</ele>
        <time>2020-09-29T13:39:11Z</time>
      </trkpt>
      <trkpt lat="41.0736820" lon="-3.3065200">
        <ele>1061.0</ele>
        <time>2020-09-29T13:39:12Z</time>
      </trkpt>
      <trkpt lat="41.0736820" lon="-3.3065200">
        <ele>1061.0</ele>
        <time>2020-09-29T13:39:13Z</time>
      </trkpt>
      <trkpt lat="41.0735750" lon="-3.3064670">
        <ele>1060.0</ele>
        <time>2020-09-29T13:39:14Z</time>
      </trkpt>
      <trkpt lat="41.0735750" lon="-3.3064670">
        <ele>1060.0</ele>
        <time>2020-09-29T13:39:15Z</time>
      </trkpt>
      <trkpt lat="41.0734600" lon="-3.3063900">
        <ele>1060.0</ele>
        <time>2020-09-29T13:39:16Z</time>
      </trkpt>
      <trkpt lat="41.0734600" lon="-3.3063900">
        <ele>1060.0</ele>
        <time>2020-09-29T13:39:17Z</time>
      </trkpt>
      <trkpt lat="41.0733400" lon="-3.3063050">
        <ele>1060.0</ele>
        <time>2020-09-29T13:39:18Z</time>
      </trkpt>
      <trkpt lat="41.0732850" lon="-3.3062650">
        <ele>1060.0</ele>
        <time>2020-09-29T13:39:19Z</time>
      </trkpt>
      <trkpt lat="41.0732850" lon="-3.3062650">
        <ele>1059.0</ele>
        <time>2020-09-29T13:39:20Z</time>
      </trkpt>
      <trkpt lat="41.0731750" lon="-3.3061880">
        <ele>1059.0</ele>
        <time>2020-09-29T13:39:21Z</time>
      </trkpt>
      <trkpt lat="41.0731750" lon="-3.3061880">
        <ele>1059.0</ele>
        <time>2020-09-29T13:39:22Z</time>
      </trkpt>
      <trkpt lat="41.0730680" lon="-3.3061220">
        <ele>1059.0</ele>
        <time>2020-09-29T13:39:23Z</time>
      </trkpt>
      <trkpt lat="41.0730680" lon="-3.3061220">
        <ele>1059.0</ele>
        <time>2020-09-29T13:39:24Z</time>
      </trkpt>
      <trkpt lat="41.0729600" lon="-3.3060480">
        <ele>1059.0</ele>
        <time>2020-09-29T13:39:25Z</time>
      </trkpt>
      <trkpt lat="41.0729050" lon="-3.3060080">
        <ele>1059.0</ele>
        <time>2020-09-29T13:39:26Z</time>
      </trkpt>
      <trkpt lat="41.0729050" lon="-3.3060080">
        <ele>1059.0</ele>
        <time>2020-09-29T13:39:27Z</time>
      </trkpt>
      <trkpt lat="41.0728020" lon="-3.3059400">
        <ele>1059.0</ele>
        <time>2020-09-29T13:39:28Z</time>
      </trkpt>
      <trkpt lat="41.0728020" lon="-3.3059400">
        <ele>1059.0</ele>
        <time>2020-09-29T13:39:29Z</time>
      </trkpt>
      <trkpt lat="41.0726850" lon="-3.3058600">
        <ele>1059.0</ele>
        <time>2020-09-29T13:39:30Z</time>
      </trkpt>
      <trkpt lat="41.0726850" lon="-3.3058600">
        <ele>1059.0</ele>
        <time>2020-09-29T13:39:31Z</time>
      </trkpt>
      <trkpt lat="41.0725550" lon="-3.3057720">
        <ele>1059.0</ele>
        <time>2020-09-29T13:39:32Z</time>
      </trkpt>
      <trkpt lat="41.0724830" lon="-3.3057300">
        <ele>1059.0</ele>
        <time>2020-09-29T13:39:33Z</time>
      </trkpt>
      <trkpt lat="41.0724830" lon="-3.3057300">
        <ele>1059.0</ele>
        <time>2020-09-29T13:39:34Z</time>
      </trkpt>
      <trkpt lat="41.0723200" lon="-3.3056730">
        <ele>1058.0</ele>
        <time>2020-09-29T13:39:35Z</time>
      </trkpt>
      <trkpt lat="41.0722350" lon="-3.3056600">
        <ele>1058.0</ele>
        <time>2020-09-29T13:39:36Z</time>
      </trkpt>
      <trkpt lat="41.0721500" lon="-3.3056520">
        <ele>1058.0</ele>
        <time>2020-09-29T13:39:37Z</time>
      </trkpt>
      <trkpt lat="41.0721500" lon="-3.3056520">
        <ele>1058.0</ele>
        <time>2020-09-29T13:39:38Z</time>
      </trkpt>
      <trkpt lat="41.0719800" lon="-3.3056420">
        <ele>1058.0</ele>
        <time>2020-09-29T13:39:39Z</time>
      </trkpt>
      <trkpt lat="41.0718980" lon="-3.3056370">
        <ele>1058.0</ele>
        <time>2020-09-29T13:39:40Z</time>
      </trkpt>
      <trkpt lat="41.0718980" lon="-3.3056370">
        <ele>1057.0</ele>
        <time>2020-09-29T13:39:41Z</time>
      </trkpt>
      <trkpt lat="41.0717300" lon="-3.3056520">
        <ele>1057.0</ele>
        <time>2020-09-29T13:39:42Z</time>
      </trkpt>
      <trkpt lat="41.0716470" lon="-3.3056800">
        <ele>1057.0</ele>
        <time>2020-09-29T13:39:43Z</time>
      </trkpt>
      <trkpt lat="41.0716470" lon="-3.3056800">
        <ele>1057.0</ele>
        <time>2020-09-29T13:39:44Z</time>
      </trkpt>
      <trkpt lat="41.0714670" lon="-3.3057570">
        <ele>1056.0</ele>
        <time>2020-09-29T13:39:45Z</time>
      </trkpt>
      <trkpt lat="41.0713730" lon="-3.3057950">
        <ele>1056.0</ele>
        <time>2020-09-29T13:39:46Z</time>
      </trkpt>
      <trkpt lat="41.0713730" lon="-3.3057950">
        <ele>1055.0</ele>
        <time>2020-09-29T13:39:47Z</time>
      </trkpt>
      <trkpt lat="41.0711770" lon="-3.3058580">
        <ele>1055.0</ele>
        <time>2020-09-29T13:39:48Z</time>
      </trkpt>
      <trkpt lat="41.0711770" lon="-3.3058580">
        <ele>1054.0</ele>
        <time>2020-09-29T13:39:49Z</time>
      </trkpt>
      <trkpt lat="41.0709720" lon="-3.3058980">
        <ele>1054.0</ele>
        <time>2020-09-29T13:39:50Z</time>
      </trkpt>
      <trkpt lat="41.0709720" lon="-3.3058980">
        <ele>1053.0</ele>
        <time>2020-09-29T13:39:51Z</time>
      </trkpt>
      <trkpt lat="41.0707600" lon="-3.3059180">
        <ele>1053.0</ele>
        <time>2020-09-29T13:39:52Z</time>
      </trkpt>
      <trkpt lat="41.0706530" lon="-3.3059250">
        <ele>1052.0</ele>
        <time>2020-09-29T13:39:53Z</time>
      </trkpt>
      <trkpt lat="41.0705550" lon="-3.3059300">
        <ele>1052.0</ele>
        <time>2020-09-29T13:39:54Z</time>
      </trkpt>
      <trkpt lat="41.0704620" lon="-3.3059280">
        <ele>1052.0</ele>
        <time>2020-09-29T13:39:55Z</time>
      </trkpt>
      <trkpt lat="41.0704620" lon="-3.3059280">
        <ele>1051.0</ele>
        <time>2020-09-29T13:39:56Z</time>
      </trkpt>
      <trkpt lat="41.0703000" lon="-3.3058880">
        <ele>1051.0</ele>
        <time>2020-09-29T13:39:57Z</time>
      </trkpt>
      <trkpt lat="41.0702350" lon="-3.3058480">
        <ele>1051.0</ele>
        <time>2020-09-29T13:39:58Z</time>
      </trkpt>
      <trkpt lat="41.0702350" lon="-3.3058480">
        <ele>1051.0</ele>
        <time>2020-09-29T13:39:59Z</time>
      </trkpt>
      <trkpt lat="41.0701220" lon="-3.3057470">
        <ele>1051.0</ele>
        <time>2020-09-29T13:40:00Z</time>
      </trkpt>
      <trkpt lat="41.0700720" lon="-3.3056820">
        <ele>1051.0</ele>
        <time>2020-09-29T13:40:01Z</time>
      </trkpt>
      <trkpt lat="41.0700220" lon="-3.3056200">
        <ele>1051.0</ele>
        <time>2020-09-29T13:40:02Z</time>
      </trkpt>
      <trkpt lat="41.0700220" lon="-3.3056200">
        <ele>1051.0</ele>
        <time>2020-09-29T13:40:03Z</time>
      </trkpt>
      <trkpt lat="41.0699200" lon="-3.3055080">
        <ele>1051.0</ele>
        <time>2020-09-29T13:40:04Z</time>
      </trkpt>
      <trkpt lat="41.0699200" lon="-3.3055080">
        <ele>1051.0</ele>
        <time>2020-09-29T13:40:05Z</time>
      </trkpt>
      <trkpt lat="41.0698230" lon="-3.3053950">
        <ele>1052.0</ele>
        <time>2020-09-29T13:40:06Z</time>
      </trkpt>
      <trkpt lat="41.0697750" lon="-3.3053380">
        <ele>1052.0</ele>
        <time>2020-09-29T13:40:07Z</time>
      </trkpt>
      <trkpt lat="41.0697750" lon="-3.3053380">
        <ele>1052.0</ele>
        <time>2020-09-29T13:40:08Z</time>
      </trkpt>
      <trkpt lat="41.0696770" lon="-3.3052270">
        <ele>1052.0</ele>
        <time>2020-09-29T13:40:09Z</time>
      </trkpt>
      <trkpt lat="41.0696770" lon="-3.3052270">
        <ele>1052.0</ele>
        <time>2020-09-29T13:40:10Z</time>
      </trkpt>
      <trkpt lat="41.0695770" lon="-3.3051170">
        <ele>1052.0</ele>
        <time>2020-09-29T13:40:11Z</time>
      </trkpt>
      <trkpt lat="41.0695770" lon="-3.3051170">
        <ele>1052.0</ele>
        <time>2020-09-29T13:40:12Z</time>
      </trkpt>
      <trkpt lat="41.0694730" lon="-3.3050070">
        <ele>1052.0</ele>
        <time>2020-09-29T13:40:13Z</time>
      </trkpt>
      <trkpt lat="41.0694730" lon="-3.3050070">
        <ele>1052.0</ele>
        <time>2020-09-29T13:40:14Z</time>
      </trkpt>
      <trkpt lat="41.0693770" lon="-3.3048980">
        <ele>1052.0</ele>
        <time>2020-09-29T13:40:15Z</time>
      </trkpt>
      <trkpt lat="41.0693770" lon="-3.3048980">
        <ele>1052.0</ele>
        <time>2020-09-29T13:40:16Z</time>
      </trkpt>
      <trkpt lat="41.0692870" lon="-3.3047870">
        <ele>1052.0</ele>
        <time>2020-09-29T13:40:17Z</time>
      </trkpt>
      <trkpt lat="41.0692420" lon="-3.3047350">
        <ele>1052.0</ele>
        <time>2020-09-29T13:40:18Z</time>
      </trkpt>
      <trkpt lat="41.0692420" lon="-3.3047350">
        <ele>1052.0</ele>
        <time>2020-09-29T13:40:19Z</time>
      </trkpt>
      <trkpt lat="41.0691470" lon="-3.3046270">
        <ele>1052.0</ele>
        <time>2020-09-29T13:40:20Z</time>
      </trkpt>
      <trkpt lat="41.0691470" lon="-3.3046270">
        <ele>1052.0</ele>
        <time>2020-09-29T13:40:21Z</time>
      </trkpt>
      <trkpt lat="41.0690530" lon="-3.3045130">
        <ele>1052.0</ele>
        <time>2020-09-29T13:40:22Z</time>
      </trkpt>
      <trkpt lat="41.0690530" lon="-3.3045130">
        <ele>1052.0</ele>
        <time>2020-09-29T13:40:23Z</time>
      </trkpt>
      <trkpt lat="41.0689470" lon="-3.3043970">
        <ele>1051.0</ele>
        <time>2020-09-29T13:40:24Z</time>
      </trkpt>
      <trkpt lat="41.0688950" lon="-3.3043330">
        <ele>1051.0</ele>
        <time>2020-09-29T13:40:25Z</time>
      </trkpt>
      <trkpt lat="41.0688950" lon="-3.3043330">
        <ele>1051.0</ele>
        <time>2020-09-29T13:40:26Z</time>
      </trkpt>
      <trkpt lat="41.0687920" lon="-3.3042050">
        <ele>1051.0</ele>
        <time>2020-09-29T13:40:27Z</time>
      </trkpt>
      <trkpt lat="41.0687920" lon="-3.3042050">
        <ele>1051.0</ele>
        <time>2020-09-29T13:40:28Z</time>
      </trkpt>
      <trkpt lat="41.0686970" lon="-3.3040530">
        <ele>1051.0</ele>
        <time>2020-09-29T13:40:29Z</time>
      </trkpt>
      <trkpt lat="41.0686570" lon="-3.3039680">
        <ele>1050.0</ele>
        <time>2020-09-29T13:40:30Z</time>
      </trkpt>
      <trkpt lat="41.0686570" lon="-3.3039680">
        <ele>1050.0</ele>
        <time>2020-09-29T13:40:31Z</time>
      </trkpt>
      <trkpt lat="41.0685920" lon="-3.3037920">
        <ele>1050.0</ele>
        <time>2020-09-29T13:40:32Z</time>
      </trkpt>
      <trkpt lat="41.0685580" lon="-3.3037020">
        <ele>1050.0</ele>
        <time>2020-09-29T13:40:33Z</time>
      </trkpt>
      <trkpt lat="41.0685580" lon="-3.3037020">
        <ele>1050.0</ele>
        <time>2020-09-29T13:40:34Z</time>
      </trkpt>
      <trkpt lat="41.0684920" lon="-3.3035350">
        <ele>1050.0</ele>
        <time>2020-09-29T13:40:35Z</time>
      </trkpt>
      <trkpt lat="41.0684630" lon="-3.3034500">
        <ele>1050.0</ele>
        <time>2020-09-29T13:40:36Z</time>
      </trkpt>
      <trkpt lat="41.0684350" lon="-3.3033680">
        <ele>1050.0</ele>
        <time>2020-09-29T13:40:37Z</time>
      </trkpt>
      <trkpt lat="41.0684350" lon="-3.3033680">
        <ele>1050.0</ele>
        <time>2020-09-29T13:40:38Z</time>
      </trkpt>
      <trkpt lat="41.0683820" lon="-3.3032080">
        <ele>1050.0</ele>
        <time>2020-09-29T13:40:39Z</time>
      </trkpt>
      <trkpt lat="41.0683820" lon="-3.3032080">
        <ele>1050.0</ele>
        <time>2020-09-29T13:40:40Z</time>
      </trkpt>
      <trkpt lat="41.0683380" lon="-3.3030550">
        <ele>1050.0</ele>
        <time>2020-09-29T13:40:41Z</time>
      </trkpt>
      <trkpt lat="41.0683380" lon="-3.3030550">
        <ele>1050.0</ele>
        <time>2020-09-29T13:40:42Z</time>
      </trkpt>
      <trkpt lat="41.0682920" lon="-3.3029000">
        <ele>1050.0</ele>
        <time>2020-09-29T13:40:43Z</time>
      </trkpt>
      <trkpt lat="41.0682670" lon="-3.3028220">
        <ele>1050.0</ele>
        <time>2020-09-29T13:40:44Z</time>
      </trkpt>
      <trkpt lat="41.0682670" lon="-3.3028220">
        <ele>1050.0</ele>
        <time>2020-09-29T13:40:45Z</time>
      </trkpt>
      <trkpt lat="41.0682170" lon="-3.3026670">
        <ele>1050.0</ele>
        <time>2020-09-29T13:40:46Z</time>
      </trkpt>
      <trkpt lat="41.0681900" lon="-3.3025880">
        <ele>1050.0</ele>
        <time>2020-09-29T13:40:47Z</time>
      </trkpt>
      <trkpt lat="41.0681900" lon="-3.3025880">
        <ele>1050.0</ele>
        <time>2020-09-29T13:40:48Z</time>
      </trkpt>
      <trkpt lat="41.0681350" lon="-3.3024280">
        <ele>1050.0</ele>
        <time>2020-09-29T13:40:49Z</time>
      </trkpt>
      <trkpt lat="41.0681350" lon="-3.3024280">
        <ele>1050.0</ele>
        <time>2020-09-29T13:40:50Z</time>
      </trkpt>
      <trkpt lat="41.0680720" lon="-3.3022570">
        <ele>1049.0</ele>
        <time>2020-09-29T13:40:51Z</time>
      </trkpt>
      <trkpt lat="41.0680720" lon="-3.3022570">
        <ele>1049.0</ele>
        <time>2020-09-29T13:40:52Z</time>
      </trkpt>
      <trkpt lat="41.0680050" lon="-3.3020720">
        <ele>1049.0</ele>
        <time>2020-09-29T13:40:53Z</time>
      </trkpt>
      <trkpt lat="41.0680050" lon="-3.3020720">
        <ele>1049.0</ele>
        <time>2020-09-29T13:40:54Z</time>
      </trkpt>
      <trkpt lat="41.0679330" lon="-3.3018830">
        <ele>1048.0</ele>
        <time>2020-09-29T13:40:55Z</time>
      </trkpt>
      <trkpt lat="41.0679330" lon="-3.3018830">
        <ele>1048.0</ele>
        <time>2020-09-29T13:40:56Z</time>
      </trkpt>
      <trkpt lat="41.0678550" lon="-3.3016820">
        <ele>1047.0</ele>
        <time>2020-09-29T13:40:57Z</time>
      </trkpt>
      <trkpt lat="41.0678550" lon="-3.3016820">
        <ele>1047.0</ele>
        <time>2020-09-29T13:40:58Z</time>
      </trkpt>
      <trkpt lat="41.0677770" lon="-3.3014720">
        <ele>1046.0</ele>
        <time>2020-09-29T13:40:59Z</time>
      </trkpt>
      <trkpt lat="41.0677380" lon="-3.3013650">
        <ele>1046.0</ele>
        <time>2020-09-29T13:41:00Z</time>
      </trkpt>
      <trkpt lat="41.0677380" lon="-3.3013650">
        <ele>1045.0</ele>
        <time>2020-09-29T13:41:01Z</time>
      </trkpt>
      <trkpt lat="41.0676580" lon="-3.3011470">
        <ele>1045.0</ele>
        <time>2020-09-29T13:41:02Z</time>
      </trkpt>
      <trkpt lat="41.0676580" lon="-3.3011470">
        <ele>1044.0</ele>
        <time>2020-09-29T13:41:03Z</time>
      </trkpt>
      <trkpt lat="41.0675850" lon="-3.3009180">
        <ele>1044.0</ele>
        <time>2020-09-29T13:41:04Z</time>
      </trkpt>
      <trkpt lat="41.0675500" lon="-3.3008030">
        <ele>1043.0</ele>
        <time>2020-09-29T13:41:05Z</time>
      </trkpt>
      <trkpt lat="41.0675200" lon="-3.3006850">
        <ele>1043.0</ele>
        <time>2020-09-29T13:41:06Z</time>
      </trkpt>
      <trkpt lat="41.0675200" lon="-3.3006850">
        <ele>1042.0</ele>
        <time>2020-09-29T13:41:07Z</time>
      </trkpt>
      <trkpt lat="41.0674570" lon="-3.3004420">
        <ele>1042.0</ele>
        <time>2020-09-29T13:41:08Z</time>
      </trkpt>
      <trkpt lat="41.0674250" lon="-3.3003250">
        <ele>1042.0</ele>
        <time>2020-09-29T13:41:09Z</time>
      </trkpt>
      <trkpt lat="41.0673920" lon="-3.3002080">
        <ele>1041.0</ele>
        <time>2020-09-29T13:41:10Z</time>
      </trkpt>
      <trkpt lat="41.0673920" lon="-3.3002080">
        <ele>1041.0</ele>
        <time>2020-09-29T13:41:11Z</time>
      </trkpt>
      <trkpt lat="41.0673280" lon="-3.2999850">
        <ele>1040.0</ele>
        <time>2020-09-29T13:41:12Z</time>
      </trkpt>
      <trkpt lat="41.0673280" lon="-3.2999850">
        <ele>1040.0</ele>
        <time>2020-09-29T13:41:13Z</time>
      </trkpt>
      <trkpt lat="41.0672730" lon="-3.2997630">
        <ele>1040.0</ele>
        <time>2020-09-29T13:41:14Z</time>
      </trkpt>
      <trkpt lat="41.0672730" lon="-3.2997630">
        <ele>1040.0</ele>
        <time>2020-09-29T13:41:15Z</time>
      </trkpt>
      <trkpt lat="41.0672120" lon="-3.2995400">
        <ele>1038.0</ele>
        <time>2020-09-29T13:41:16Z</time>
      </trkpt>
      <trkpt lat="41.0672120" lon="-3.2995400">
        <ele>1038.0</ele>
        <time>2020-09-29T13:41:17Z</time>
      </trkpt>
      <trkpt lat="41.0671530" lon="-3.2993170">
        <ele>1038.0</ele>
        <time>2020-09-29T13:41:18Z</time>
      </trkpt>
      <trkpt lat="41.0671200" lon="-3.2992020">
        <ele>1038.0</ele>
        <time>2020-09-29T13:41:19Z</time>
      </trkpt>
      <trkpt lat="41.0671200" lon="-3.2992020">
        <ele>1037.0</ele>
        <time>2020-09-29T13:41:20Z</time>
      </trkpt>
      <trkpt lat="41.0670570" lon="-3.2989630">
        <ele>1037.0</ele>
        <time>2020-09-29T13:41:21Z</time>
      </trkpt>
      <trkpt lat="41.0670570" lon="-3.2989630">
        <ele>1036.0</ele>
        <time>2020-09-29T13:41:22Z</time>
      </trkpt>
      <trkpt lat="41.0669920" lon="-3.2987080">
        <ele>1036.0</ele>
        <time>2020-09-29T13:41:23Z</time>
      </trkpt>
      <trkpt lat="41.0669920" lon="-3.2987080">
        <ele>1035.0</ele>
        <time>2020-09-29T13:41:24Z</time>
      </trkpt>
      <trkpt lat="41.0669250" lon="-3.2984450">
        <ele>1035.0</ele>
        <time>2020-09-29T13:41:25Z</time>
      </trkpt>
      <trkpt lat="41.0669250" lon="-3.2984450">
        <ele>1034.0</ele>
        <time>2020-09-29T13:41:26Z</time>
      </trkpt>
      <trkpt lat="41.0668720" lon="-3.2981680">
        <ele>1034.0</ele>
        <time>2020-09-29T13:41:27Z</time>
      </trkpt>
      <trkpt lat="41.0668720" lon="-3.2981680">
        <ele>1032.0</ele>
        <time>2020-09-29T13:41:28Z</time>
      </trkpt>
      <trkpt lat="41.0668300" lon="-3.2978780">
        <ele>1032.0</ele>
        <time>2020-09-29T13:41:29Z</time>
      </trkpt>
      <trkpt lat="41.0668300" lon="-3.2978780">
        <ele>1031.0</ele>
        <time>2020-09-29T13:41:30Z</time>
      </trkpt>
      <trkpt lat="41.0667950" lon="-3.2975980">
        <ele>1031.0</ele>
        <time>2020-09-29T13:41:31Z</time>
      </trkpt>
      <trkpt lat="41.0667950" lon="-3.2975980">
        <ele>1029.0</ele>
        <time>2020-09-29T13:41:32Z</time>
      </trkpt>
      <trkpt lat="41.0667620" lon="-3.2973380">
        <ele>1029.0</ele>
        <time>2020-09-29T13:41:33Z</time>
      </trkpt>
      <trkpt lat="41.0667620" lon="-3.2973380">
        <ele>1029.0</ele>
        <time>2020-09-29T13:41:34Z</time>
      </trkpt>
      <trkpt lat="41.0667250" lon="-3.2971020">
        <ele>1029.0</ele>
        <time>2020-09-29T13:41:35Z</time>
      </trkpt>
      <trkpt lat="41.0667250" lon="-3.2971020">
        <ele>1029.0</ele>
        <time>2020-09-29T13:41:36Z</time>
      </trkpt>
      <trkpt lat="41.0666300" lon="-3.2969050">
        <ele>1029.0</ele>
        <time>2020-09-29T13:41:37Z</time>
      </trkpt>
      <trkpt lat="41.0666300" lon="-3.2969050">
        <ele>1029.0</ele>
        <time>2020-09-29T13:41:38Z</time>
      </trkpt>
      <trkpt lat="41.0665030" lon="-3.2967880">
        <ele>1029.0</ele>
        <time>2020-09-29T13:41:39Z</time>
      </trkpt>
      <trkpt lat="41.0664450" lon="-3.2967470">
        <ele>1029.0</ele>
        <time>2020-09-29T13:41:40Z</time>
      </trkpt>
      <trkpt lat="41.0663880" lon="-3.2967100">
        <ele>1029.0</ele>
        <time>2020-09-29T13:41:41Z</time>
      </trkpt>
      <trkpt lat="41.0663880" lon="-3.2967100">
        <ele>1030.0</ele>
        <time>2020-09-29T13:41:42Z</time>
      </trkpt>
      <trkpt lat="41.0662920" lon="-3.2966470">
        <ele>1031.0</ele>
        <time>2020-09-29T13:41:43Z</time>
      </trkpt>
      <trkpt lat="41.0662920" lon="-3.2966470">
        <ele>1031.0</ele>
        <time>2020-09-29T13:41:44Z</time>
      </trkpt>
      <trkpt lat="41.0662050" lon="-3.2965920">
        <ele>1031.0</ele>
        <time>2020-09-29T13:41:45Z</time>
      </trkpt>
      <trkpt lat="41.0662050" lon="-3.2965920">
        <ele>1031.0</ele>
        <time>2020-09-29T13:41:46Z</time>
      </trkpt>
      <trkpt lat="41.0661320" lon="-3.2965520">
        <ele>1031.0</ele>
        <time>2020-09-29T13:41:47Z</time>
      </trkpt>
      <trkpt lat="41.0661320" lon="-3.2965520">
        <ele>1031.0</ele>
        <time>2020-09-29T13:41:48Z</time>
      </trkpt>
      <trkpt lat="41.0660620" lon="-3.2965200">
        <ele>1032.0</ele>
        <time>2020-09-29T13:41:49Z</time>
      </trkpt>
      <trkpt lat="41.0660620" lon="-3.2965200">
        <ele>1032.0</ele>
        <time>2020-09-29T13:41:50Z</time>
      </trkpt>
      <trkpt lat="41.0659950" lon="-3.2964800">
        <ele>1032.0</ele>
        <time>2020-09-29T13:41:51Z</time>
      </trkpt>
      <trkpt lat="41.0659630" lon="-3.2964620">
        <ele>1032.0</ele>
        <time>2020-09-29T13:41:52Z</time>
      </trkpt>
      <trkpt lat="41.0659630" lon="-3.2964620">
        <ele>1033.0</ele>
        <time>2020-09-29T13:41:53Z</time>
      </trkpt>
      <trkpt lat="41.0658950" lon="-3.2964380">
        <ele>1033.0</ele>
        <time>2020-09-29T13:41:54Z</time>
      </trkpt>
      <trkpt lat="41.0658620" lon="-3.2964330">
        <ele>1033.0</ele>
        <time>2020-09-29T13:41:55Z</time>
      </trkpt>
      <trkpt lat="41.0658620" lon="-3.2964330">
        <ele>1033.0</ele>
        <time>2020-09-29T13:41:56Z</time>
      </trkpt>
      <trkpt lat="41.0657950" lon="-3.2964050">
        <ele>1035.0</ele>
        <time>2020-09-29T13:41:57Z</time>
      </trkpt>
      <trkpt lat="41.0657630" lon="-3.2963920">
        <ele>1035.0</ele>
        <time>2020-09-29T13:41:58Z</time>
      </trkpt>
      <trkpt lat="41.0657630" lon="-3.2963920">
        <ele>1035.0</ele>
        <time>2020-09-29T13:41:59Z</time>
      </trkpt>
      <trkpt lat="41.0656970" lon="-3.2963730">
        <ele>1035.0</ele>
        <time>2020-09-29T13:42:00Z</time>
      </trkpt>
      <trkpt lat="41.0656630" lon="-3.2963620">
        <ele>1036.0</ele>
        <time>2020-09-29T13:42:01Z</time>
      </trkpt>
      <trkpt lat="41.0656630" lon="-3.2963620">
        <ele>1036.0</ele>
        <time>2020-09-29T13:42:02Z</time>
      </trkpt>
      <trkpt lat="41.0655980" lon="-3.2963350">
        <ele>1036.0</ele>
        <time>2020-09-29T13:42:03Z</time>
      </trkpt>
      <trkpt lat="41.0655980" lon="-3.2963350">
        <ele>1036.0</ele>
        <time>2020-09-29T13:42:04Z</time>
      </trkpt>
      <trkpt lat="41.0655380" lon="-3.2963030">
        <ele>1037.0</ele>
        <time>2020-09-29T13:42:05Z</time>
      </trkpt>
      <trkpt lat="41.0655380" lon="-3.2963030">
        <ele>1037.0</ele>
        <time>2020-09-29T13:42:06Z</time>
      </trkpt>
      <trkpt lat="41.0654780" lon="-3.2962770">
        <ele>1037.0</ele>
        <time>2020-09-29T13:42:07Z</time>
      </trkpt>
      <trkpt lat="41.0654470" lon="-3.2962680">
        <ele>1037.0</ele>
        <time>2020-09-29T13:42:08Z</time>
      </trkpt>
      <trkpt lat="41.0654470" lon="-3.2962680">
        <ele>1037.0</ele>
        <time>2020-09-29T13:42:09Z</time>
      </trkpt>
      <trkpt lat="41.0653870" lon="-3.2962450">
        <ele>1038.0</ele>
        <time>2020-09-29T13:42:10Z</time>
      </trkpt>
      <trkpt lat="41.0653870" lon="-3.2962450">
        <ele>1038.0</ele>
        <time>2020-09-29T13:42:11Z</time>
      </trkpt>
      <trkpt lat="41.0653330" lon="-3.2962020">
        <ele>1038.0</ele>
        <time>2020-09-29T13:42:12Z</time>
      </trkpt>
      <trkpt lat="41.0653330" lon="-3.2962020">
        <ele>1038.0</ele>
        <time>2020-09-29T13:42:13Z</time>
      </trkpt>
      <trkpt lat="41.0652770" lon="-3.2961530">
        <ele>1039.0</ele>
        <time>2020-09-29T13:42:14Z</time>
      </trkpt>
      <trkpt lat="41.0652770" lon="-3.2961530">
        <ele>1039.0</ele>
        <time>2020-09-29T13:42:15Z</time>
      </trkpt>
      <trkpt lat="41.0652280" lon="-3.2961050">
        <ele>1040.0</ele>
        <time>2020-09-29T13:42:16Z</time>
      </trkpt>
      <trkpt lat="41.0652280" lon="-3.2961050">
        <ele>1040.0</ele>
        <time>2020-09-29T13:42:17Z</time>
      </trkpt>
      <trkpt lat="41.0651850" lon="-3.2960450">
        <ele>1040.0</ele>
        <time>2020-09-29T13:42:18Z</time>
      </trkpt>
      <trkpt lat="41.0651650" lon="-3.2960130">
        <ele>1040.0</ele>
        <time>2020-09-29T13:42:19Z</time>
      </trkpt>
      <trkpt lat="41.0651650" lon="-3.2960130">
        <ele>1040.0</ele>
        <time>2020-09-29T13:42:20Z</time>
      </trkpt>
      <trkpt lat="41.0651330" lon="-3.2959550">
        <ele>1040.0</ele>
        <time>2020-09-29T13:42:21Z</time>
      </trkpt>
      <trkpt lat="41.0651200" lon="-3.2959230">
        <ele>1040.0</ele>
        <time>2020-09-29T13:42:22Z</time>
      </trkpt>
      <trkpt lat="41.0651200" lon="-3.2959230">
        <ele>1041.0</ele>
        <time>2020-09-29T13:42:23Z</time>
      </trkpt>
      <trkpt lat="41.0650930" lon="-3.2958580">
        <ele>1041.0</ele>
        <time>2020-09-29T13:42:24Z</time>
      </trkpt>
      <trkpt lat="41.0650930" lon="-3.2958580">
        <ele>1041.0</ele>
        <time>2020-09-29T13:42:25Z</time>
      </trkpt>
      <trkpt lat="41.0650730" lon="-3.2957900">
        <ele>1041.0</ele>
        <time>2020-09-29T13:42:26Z</time>
      </trkpt>
      <trkpt lat="41.0650730" lon="-3.2957900">
        <ele>1041.0</ele>
        <time>2020-09-29T13:42:27Z</time>
      </trkpt>
      <trkpt lat="41.0650620" lon="-3.2957170">
        <ele>1041.0</ele>
        <time>2020-09-29T13:42:28Z</time>
      </trkpt>
      <trkpt lat="41.0650620" lon="-3.2957170">
        <ele>1042.0</ele>
        <time>2020-09-29T13:42:29Z</time>
      </trkpt>
      <trkpt lat="41.0650500" lon="-3.2956480">
        <ele>1042.0</ele>
        <time>2020-09-29T13:42:30Z</time>
      </trkpt>
      <trkpt lat="41.0650500" lon="-3.2956480">
        <ele>1043.0</ele>
        <time>2020-09-29T13:42:31Z</time>
      </trkpt>
      <trkpt lat="41.0650420" lon="-3.2955780">
        <ele>1043.0</ele>
        <time>2020-09-29T13:42:32Z</time>
      </trkpt>
      <trkpt lat="41.0650420" lon="-3.2955780">
        <ele>1044.0</ele>
        <time>2020-09-29T13:42:33Z</time>
      </trkpt>
      <trkpt lat="41.0650350" lon="-3.2955100">
        <ele>1044.0</ele>
        <time>2020-09-29T13:42:34Z</time>
      </trkpt>
      <trkpt lat="41.0650320" lon="-3.2954750">
        <ele>1044.0</ele>
        <time>2020-09-29T13:42:35Z</time>
      </trkpt>
      <trkpt lat="41.0650300" lon="-3.2954400">
        <ele>1044.0</ele>
        <time>2020-09-29T13:42:36Z</time>
      </trkpt>
      <trkpt lat="41.0650300" lon="-3.2954400">
        <ele>1045.0</ele>
        <time>2020-09-29T13:42:37Z</time>
      </trkpt>
      <trkpt lat="41.0650330" lon="-3.2953700">
        <ele>1045.0</ele>
        <time>2020-09-29T13:42:38Z</time>
      </trkpt>
      <trkpt lat="41.0650330" lon="-3.2953700">
        <ele>1045.0</ele>
        <time>2020-09-29T13:42:39Z</time>
      </trkpt>
      <trkpt lat="41.0650320" lon="-3.2952980">
        <ele>1045.0</ele>
        <time>2020-09-29T13:42:40Z</time>
      </trkpt>
      <trkpt lat="41.0650280" lon="-3.2952630">
        <ele>1046.0</ele>
        <time>2020-09-29T13:42:41Z</time>
      </trkpt>
      <trkpt lat="41.0650280" lon="-3.2952630">
        <ele>1046.0</ele>
        <time>2020-09-29T13:42:42Z</time>
      </trkpt>
      <trkpt lat="41.0650320" lon="-3.2951930">
        <ele>1046.0</ele>
        <time>2020-09-29T13:42:43Z</time>
      </trkpt>
      <trkpt lat="41.0650320" lon="-3.2951580">
        <ele>1046.0</ele>
        <time>2020-09-29T13:42:44Z</time>
      </trkpt>
      <trkpt lat="41.0650320" lon="-3.2951580">
        <ele>1046.0</ele>
        <time>2020-09-29T13:42:45Z</time>
      </trkpt>
      <trkpt lat="41.0650250" lon="-3.2950920">
        <ele>1046.0</ele>
        <time>2020-09-29T13:42:46Z</time>
      </trkpt>
      <trkpt lat="41.0650250" lon="-3.2950920">
        <ele>1046.0</ele>
        <time>2020-09-29T13:42:47Z</time>
      </trkpt>
      <trkpt lat="41.0650250" lon="-3.2950230">
        <ele>1046.0</ele>
        <time>2020-09-29T13:42:48Z</time>
      </trkpt>
      <trkpt lat="41.0650250" lon="-3.2950230">
        <ele>1046.0</ele>
        <time>2020-09-29T13:42:49Z</time>
      </trkpt>
      <trkpt lat="41.0650250" lon="-3.2949550">
        <ele>1046.0</ele>
        <time>2020-09-29T13:42:50Z</time>
      </trkpt>
      <trkpt lat="41.0650250" lon="-3.2949550">
        <ele>1048.0</ele>
        <time>2020-09-29T13:42:51Z</time>
      </trkpt>
      <trkpt lat="41.0650300" lon="-3.2948880">
        <ele>1048.0</ele>
        <time>2020-09-29T13:42:52Z</time>
      </trkpt>
      <trkpt lat="41.0650380" lon="-3.2948550">
        <ele>1048.0</ele>
        <time>2020-09-29T13:42:53Z</time>
      </trkpt>
      <trkpt lat="41.0650380" lon="-3.2948550">
        <ele>1049.0</ele>
        <time>2020-09-29T13:42:54Z</time>
      </trkpt>
      <trkpt lat="41.0650600" lon="-3.2947880">
        <ele>1049.0</ele>
        <time>2020-09-29T13:42:55Z</time>
      </trkpt>
      <trkpt lat="41.0650600" lon="-3.2947880">
        <ele>1049.0</ele>
        <time>2020-09-29T13:42:56Z</time>
      </trkpt>
      <trkpt lat="41.0650870" lon="-3.2947170">
        <ele>1049.0</ele>
        <time>2020-09-29T13:42:57Z</time>
      </trkpt>
      <trkpt lat="41.0651020" lon="-3.2946820">
        <ele>1049.0</ele>
        <time>2020-09-29T13:42:58Z</time>
      </trkpt>
      <trkpt lat="41.0651020" lon="-3.2946820">
        <ele>1049.0</ele>
        <time>2020-09-29T13:42:59Z</time>
      </trkpt>
      <trkpt lat="41.0651400" lon="-3.2946120">
        <ele>1049.0</ele>
        <time>2020-09-29T13:43:00Z</time>
      </trkpt>
      <trkpt lat="41.0651400" lon="-3.2946120">
        <ele>1049.0</ele>
        <time>2020-09-29T13:43:01Z</time>
      </trkpt>
      <trkpt lat="41.0651980" lon="-3.2945420">
        <ele>1049.0</ele>
        <time>2020-09-29T13:43:02Z</time>
      </trkpt>
      <trkpt lat="41.0651980" lon="-3.2945420">
        <ele>1049.0</ele>
        <time>2020-09-29T13:43:03Z</time>
      </trkpt>
      <trkpt lat="41.0652730" lon="-3.2944750">
        <ele>1049.0</ele>
        <time>2020-09-29T13:43:04Z</time>
      </trkpt>
      <trkpt lat="41.0653170" lon="-3.2944420">
        <ele>1049.0</ele>
        <time>2020-09-29T13:43:05Z</time>
      </trkpt>
      <trkpt lat="41.0653170" lon="-3.2944420">
        <ele>1049.0</ele>
        <time>2020-09-29T13:43:06Z</time>
      </trkpt>
      <trkpt lat="41.0654270" lon="-3.2943820">
        <ele>1049.0</ele>
        <time>2020-09-29T13:43:07Z</time>
      </trkpt>
      <trkpt lat="41.0654900" lon="-3.2943530">
        <ele>1049.0</ele>
        <time>2020-09-29T13:43:08Z</time>
      </trkpt>
      <trkpt lat="41.0655600" lon="-3.2943230">
        <ele>1049.0</ele>
        <time>2020-09-29T13:43:09Z</time>
      </trkpt>
      <trkpt lat="41.0655600" lon="-3.2943230">
        <ele>1049.0</ele>
        <time>2020-09-29T13:43:10Z</time>
      </trkpt>
      <trkpt lat="41.0657150" lon="-3.2942700">
        <ele>1047.0</ele>
        <time>2020-09-29T13:43:11Z</time>
      </trkpt>
      <trkpt lat="41.0657150" lon="-3.2942700">
        <ele>1047.0</ele>
        <time>2020-09-29T13:43:12Z</time>
      </trkpt>
      <trkpt lat="41.0658850" lon="-3.2942250">
        <ele>1046.0</ele>
        <time>2020-09-29T13:43:13Z</time>
      </trkpt>
      <trkpt lat="41.0659770" lon="-3.2942080">
        <ele>1046.0</ele>
        <time>2020-09-29T13:43:14Z</time>
      </trkpt>
      <trkpt lat="41.0659770" lon="-3.2942080">
        <ele>1045.0</ele>
        <time>2020-09-29T13:43:15Z</time>
      </trkpt>
      <trkpt lat="41.0661670" lon="-3.2941820">
        <ele>1045.0</ele>
        <time>2020-09-29T13:43:16Z</time>
      </trkpt>
      <trkpt lat="41.0661670" lon="-3.2941820">
        <ele>1044.0</ele>
        <time>2020-09-29T13:43:17Z</time>
      </trkpt>
      <trkpt lat="41.0663620" lon="-3.2941600">
        <ele>1044.0</ele>
        <time>2020-09-29T13:43:18Z</time>
      </trkpt>
      <trkpt lat="41.0664580" lon="-3.2941450">
        <ele>1043.0</ele>
        <time>2020-09-29T13:43:19Z</time>
      </trkpt>
      <trkpt lat="41.0664580" lon="-3.2941450">
        <ele>1043.0</ele>
        <time>2020-09-29T13:43:20Z</time>
      </trkpt>
      <trkpt lat="41.0666470" lon="-3.2941030">
        <ele>1042.0</ele>
        <time>2020-09-29T13:43:21Z</time>
      </trkpt>
      <trkpt lat="41.0666470" lon="-3.2941030">
        <ele>1042.0</ele>
        <time>2020-09-29T13:43:22Z</time>
      </trkpt>
      <trkpt lat="41.0668280" lon="-3.2940700">
        <ele>1042.0</ele>
        <time>2020-09-29T13:43:23Z</time>
      </trkpt>
      <trkpt lat="41.0668280" lon="-3.2940700">
        <ele>1042.0</ele>
        <time>2020-09-29T13:43:24Z</time>
      </trkpt>
      <trkpt lat="41.0670080" lon="-3.2940400">
        <ele>1042.0</ele>
        <time>2020-09-29T13:43:25Z</time>
      </trkpt>
      <trkpt lat="41.0670080" lon="-3.2940400">
        <ele>1042.0</ele>
        <time>2020-09-29T13:43:26Z</time>
      </trkpt>
      <trkpt lat="41.0671820" lon="-3.2940150">
        <ele>1042.0</ele>
        <time>2020-09-29T13:43:27Z</time>
      </trkpt>
      <trkpt lat="41.0672700" lon="-3.2940030">
        <ele>1042.0</ele>
        <time>2020-09-29T13:43:28Z</time>
      </trkpt>
      <trkpt lat="41.0672700" lon="-3.2940030">
        <ele>1041.0</ele>
        <time>2020-09-29T13:43:29Z</time>
      </trkpt>
      <trkpt lat="41.0674520" lon="-3.2939930">
        <ele>1041.0</ele>
        <time>2020-09-29T13:43:30Z</time>
      </trkpt>
      <trkpt lat="41.0675450" lon="-3.2939900">
        <ele>1041.0</ele>
        <time>2020-09-29T13:43:31Z</time>
      </trkpt>
      <trkpt lat="41.0675450" lon="-3.2939900">
        <ele>1040.0</ele>
        <time>2020-09-29T13:43:32Z</time>
      </trkpt>
      <trkpt lat="41.0677400" lon="-3.2939820">
        <ele>1040.0</ele>
        <time>2020-09-29T13:43:33Z</time>
      </trkpt>
      <trkpt lat="41.0677400" lon="-3.2939820">
        <ele>1040.0</ele>
        <time>2020-09-29T13:43:34Z</time>
      </trkpt>
      <trkpt lat="41.0679350" lon="-3.2939420">
        <ele>1040.0</ele>
        <time>2020-09-29T13:43:35Z</time>
      </trkpt>
      <trkpt lat="41.0679350" lon="-3.2939420">
        <ele>1039.0</ele>
        <time>2020-09-29T13:43:36Z</time>
      </trkpt>
      <trkpt lat="41.0681170" lon="-3.2938370">
        <ele>1039.0</ele>
        <time>2020-09-29T13:43:37Z</time>
      </trkpt>
      <trkpt lat="41.0681170" lon="-3.2938370">
        <ele>1038.0</ele>
        <time>2020-09-29T13:43:38Z</time>
      </trkpt>
      <trkpt lat="41.0682270" lon="-3.2936220">
        <ele>1038.0</ele>
        <time>2020-09-29T13:43:39Z</time>
      </trkpt>
      <trkpt lat="41.0682270" lon="-3.2936220">
        <ele>1038.0</ele>
        <time>2020-09-29T13:43:40Z</time>
      </trkpt>
      <trkpt lat="41.0682230" lon="-3.2933650">
        <ele>1038.0</ele>
        <time>2020-09-29T13:43:41Z</time>
      </trkpt>
      <trkpt lat="41.0682230" lon="-3.2933650">
        <ele>1038.0</ele>
        <time>2020-09-29T13:43:42Z</time>
      </trkpt>
      <trkpt lat="41.0681300" lon="-3.2932200">
        <ele>1038.0</ele>
        <time>2020-09-29T13:43:43Z</time>
      </trkpt>
      <trkpt lat="41.0681300" lon="-3.2932200">
        <ele>1038.0</ele>
        <time>2020-09-29T13:43:44Z</time>
      </trkpt>
      <trkpt lat="41.0680150" lon="-3.2931950">
        <ele>1038.0</ele>
        <time>2020-09-29T13:43:45Z</time>
      </trkpt>
      <trkpt lat="41.0679630" lon="-3.2931980">
        <ele>1040.0</ele>
        <time>2020-09-29T13:43:46Z</time>
      </trkpt>
      <trkpt lat="41.0679630" lon="-3.2931980">
        <ele>1040.0</ele>
        <time>2020-09-29T13:43:47Z</time>
      </trkpt>
      <trkpt lat="41.0678680" lon="-3.2931850">
        <ele>1041.0</ele>
        <time>2020-09-29T13:43:48Z</time>
      </trkpt>
      <trkpt lat="41.0678680" lon="-3.2931850">
        <ele>1041.0</ele>
        <time>2020-09-29T13:43:49Z</time>
      </trkpt>
      <trkpt lat="41.0677800" lon="-3.2931680">
        <ele>1041.0</ele>
        <time>2020-09-29T13:43:50Z</time>
      </trkpt>
      <trkpt lat="41.0677370" lon="-3.2931620">
        <ele>1041.0</ele>
        <time>2020-09-29T13:43:51Z</time>
      </trkpt>
      <trkpt lat="41.0677370" lon="-3.2931620">
        <ele>1041.0</ele>
        <time>2020-09-29T13:43:52Z</time>
      </trkpt>
      <trkpt lat="41.0676550" lon="-3.2931450">
        <ele>1041.0</ele>
        <time>2020-09-29T13:43:53Z</time>
      </trkpt>
      <trkpt lat="41.0676550" lon="-3.2931450">
        <ele>1041.0</ele>
        <time>2020-09-29T13:43:54Z</time>
      </trkpt>
      <trkpt lat="41.0675800" lon="-3.2931080">
        <ele>1043.0</ele>
        <time>2020-09-29T13:43:55Z</time>
      </trkpt>
      <trkpt lat="41.0675800" lon="-3.2931080">
        <ele>1043.0</ele>
        <time>2020-09-29T13:43:56Z</time>
      </trkpt>
      <trkpt lat="41.0675120" lon="-3.2930600">
        <ele>1043.0</ele>
        <time>2020-09-29T13:43:57Z</time>
      </trkpt>
      <trkpt lat="41.0675120" lon="-3.2930600">
        <ele>1043.0</ele>
        <time>2020-09-29T13:43:58Z</time>
      </trkpt>
      <trkpt lat="41.0674500" lon="-3.2930050">
        <ele>1043.0</ele>
        <time>2020-09-29T13:43:59Z</time>
      </trkpt>
      <trkpt lat="41.0674500" lon="-3.2930050">
        <ele>1043.0</ele>
        <time>2020-09-29T13:44:00Z</time>
      </trkpt>
      <trkpt lat="41.0673900" lon="-3.2929430">
        <ele>1044.0</ele>
        <time>2020-09-29T13:44:01Z</time>
      </trkpt>
      <trkpt lat="41.0673900" lon="-3.2929430">
        <ele>1044.0</ele>
        <time>2020-09-29T13:44:02Z</time>
      </trkpt>
      <trkpt lat="41.0673380" lon="-3.2928750">
        <ele>1044.0</ele>
        <time>2020-09-29T13:44:03Z</time>
      </trkpt>
      <trkpt lat="41.0673130" lon="-3.2928400">
        <ele>1044.0</ele>
        <time>2020-09-29T13:44:04Z</time>
      </trkpt>
      <trkpt lat="41.0673130" lon="-3.2928400">
        <ele>1045.0</ele>
        <time>2020-09-29T13:44:05Z</time>
      </trkpt>
      <trkpt lat="41.0672670" lon="-3.2927820">
        <ele>1046.0</ele>
        <time>2020-09-29T13:44:06Z</time>
      </trkpt>
      <trkpt lat="41.0672670" lon="-3.2927820">
        <ele>1046.0</ele>
        <time>2020-09-29T13:44:07Z</time>
      </trkpt>
      <trkpt lat="41.0672180" lon="-3.2927130">
        <ele>1046.0</ele>
        <time>2020-09-29T13:44:08Z</time>
      </trkpt>
      <trkpt lat="41.0672180" lon="-3.2927130">
        <ele>1046.0</ele>
        <time>2020-09-29T13:44:09Z</time>
      </trkpt>
      <trkpt lat="41.0671670" lon="-3.2926420">
        <ele>1047.0</ele>
        <time>2020-09-29T13:44:10Z</time>
      </trkpt>
      <trkpt lat="41.0671670" lon="-3.2926420">
        <ele>1047.0</ele>
        <time>2020-09-29T13:44:11Z</time>
      </trkpt>
      <trkpt lat="41.0671170" lon="-3.2925750">
        <ele>1047.0</ele>
        <time>2020-09-29T13:44:12Z</time>
      </trkpt>
      <trkpt lat="41.0670900" lon="-3.2925400">
        <ele>1047.0</ele>
        <time>2020-09-29T13:44:13Z</time>
      </trkpt>
      <trkpt lat="41.0670900" lon="-3.2925400">
        <ele>1048.0</ele>
        <time>2020-09-29T13:44:14Z</time>
      </trkpt>
      <trkpt lat="41.0670500" lon="-3.2924720">
        <ele>1048.0</ele>
        <time>2020-09-29T13:44:15Z</time>
      </trkpt>
      <trkpt lat="41.0670250" lon="-3.2924320">
        <ele>1048.0</ele>
        <time>2020-09-29T13:44:16Z</time>
      </trkpt>
      <trkpt lat="41.0670250" lon="-3.2924320">
        <ele>1048.0</ele>
        <time>2020-09-29T13:44:17Z</time>
      </trkpt>
      <trkpt lat="41.0669650" lon="-3.2923700">
        <ele>1050.0</ele>
        <time>2020-09-29T13:44:18Z</time>
      </trkpt>
      <trkpt lat="41.0669350" lon="-3.2923400">
        <ele>1050.0</ele>
        <time>2020-09-29T13:44:19Z</time>
      </trkpt>
      <trkpt lat="41.0669350" lon="-3.2923400">
        <ele>1050.0</ele>
        <time>2020-09-29T13:44:20Z</time>
      </trkpt>
      <trkpt lat="41.0668830" lon="-3.2922700">
        <ele>1050.0</ele>
        <time>2020-09-29T13:44:21Z</time>
      </trkpt>
      <trkpt lat="41.0668830" lon="-3.2922700">
        <ele>1051.0</ele>
        <time>2020-09-29T13:44:22Z</time>
      </trkpt>
      <trkpt lat="41.0668370" lon="-3.2921980">
        <ele>1051.0</ele>
        <time>2020-09-29T13:44:23Z</time>
      </trkpt>
      <trkpt lat="41.0668370" lon="-3.2921980">
        <ele>1051.0</ele>
        <time>2020-09-29T13:44:24Z</time>
      </trkpt>
      <trkpt lat="41.0667900" lon="-3.2921330">
        <ele>1051.0</ele>
        <time>2020-09-29T13:44:25Z</time>
      </trkpt>
      <trkpt lat="41.0667900" lon="-3.2921330">
        <ele>1051.0</ele>
        <time>2020-09-29T13:44:26Z</time>
      </trkpt>
      <trkpt lat="41.0667430" lon="-3.2920650">
        <ele>1052.0</ele>
        <time>2020-09-29T13:44:27Z</time>
      </trkpt>
      <trkpt lat="41.0667200" lon="-3.2920280">
        <ele>1052.0</ele>
        <time>2020-09-29T13:44:28Z</time>
      </trkpt>
      <trkpt lat="41.0667200" lon="-3.2920280">
        <ele>1052.0</ele>
        <time>2020-09-29T13:44:29Z</time>
      </trkpt>
      <trkpt lat="41.0666770" lon="-3.2919530">
        <ele>1052.0</ele>
        <time>2020-09-29T13:44:30Z</time>
      </trkpt>
      <trkpt lat="41.0666770" lon="-3.2919530">
        <ele>1053.0</ele>
        <time>2020-09-29T13:44:31Z</time>
      </trkpt>
      <trkpt lat="41.0666330" lon="-3.2918770">
        <ele>1053.0</ele>
        <time>2020-09-29T13:44:32Z</time>
      </trkpt>
      <trkpt lat="41.0666330" lon="-3.2918770">
        <ele>1053.0</ele>
        <time>2020-09-29T13:44:33Z</time>
      </trkpt>
      <trkpt lat="41.0665880" lon="-3.2918000">
        <ele>1053.0</ele>
        <time>2020-09-29T13:44:34Z</time>
      </trkpt>
      <trkpt lat="41.0665880" lon="-3.2918000">
        <ele>1054.0</ele>
        <time>2020-09-29T13:44:35Z</time>
      </trkpt>
      <trkpt lat="41.0665450" lon="-3.2917170">
        <ele>1054.0</ele>
        <time>2020-09-29T13:44:36Z</time>
      </trkpt>
      <trkpt lat="41.0665450" lon="-3.2917170">
        <ele>1054.0</ele>
        <time>2020-09-29T13:44:37Z</time>
      </trkpt>
      <trkpt lat="41.0665100" lon="-3.2916350">
        <ele>1054.0</ele>
        <time>2020-09-29T13:44:38Z</time>
      </trkpt>
      <trkpt lat="41.0664930" lon="-3.2915950">
        <ele>1054.0</ele>
        <time>2020-09-29T13:44:39Z</time>
      </trkpt>
      <trkpt lat="41.0664930" lon="-3.2915950">
        <ele>1054.0</ele>
        <time>2020-09-29T13:44:40Z</time>
      </trkpt>
      <trkpt lat="41.0664650" lon="-3.2915050">
        <ele>1054.0</ele>
        <time>2020-09-29T13:44:41Z</time>
      </trkpt>
      <trkpt lat="41.0664650" lon="-3.2915050">
        <ele>1054.0</ele>
        <time>2020-09-29T13:44:42Z</time>
      </trkpt>
      <trkpt lat="41.0664430" lon="-3.2914000">
        <ele>1054.0</ele>
        <time>2020-09-29T13:44:43Z</time>
      </trkpt>
      <trkpt lat="41.0664430" lon="-3.2914000">
        <ele>1054.0</ele>
        <time>2020-09-29T13:44:44Z</time>
      </trkpt>
      <trkpt lat="41.0664270" lon="-3.2912850">
        <ele>1054.0</ele>
        <time>2020-09-29T13:44:45Z</time>
      </trkpt>
      <trkpt lat="41.0664270" lon="-3.2912850">
        <ele>1054.0</ele>
        <time>2020-09-29T13:44:46Z</time>
      </trkpt>
      <trkpt lat="41.0664230" lon="-3.2911570">
        <ele>1054.0</ele>
        <time>2020-09-29T13:44:47Z</time>
      </trkpt>
      <trkpt lat="41.0664230" lon="-3.2911570">
        <ele>1054.0</ele>
        <time>2020-09-29T13:44:48Z</time>
      </trkpt>
      <trkpt lat="41.0664380" lon="-3.2910220">
        <ele>1054.0</ele>
        <time>2020-09-29T13:44:49Z</time>
      </trkpt>
      <trkpt lat="41.0664380" lon="-3.2910220">
        <ele>1054.0</ele>
        <time>2020-09-29T13:44:50Z</time>
      </trkpt>
      <trkpt lat="41.0664530" lon="-3.2908720">
        <ele>1054.0</ele>
        <time>2020-09-29T13:44:51Z</time>
      </trkpt>
      <trkpt lat="41.0664600" lon="-3.2907900">
        <ele>1054.0</ele>
        <time>2020-09-29T13:44:52Z</time>
      </trkpt>
      <trkpt lat="41.0664600" lon="-3.2907900">
        <ele>1054.0</ele>
        <time>2020-09-29T13:44:53Z</time>
      </trkpt>
      <trkpt lat="41.0664430" lon="-3.2906030">
        <ele>1054.0</ele>
        <time>2020-09-29T13:44:54Z</time>
      </trkpt>
      <trkpt lat="41.0664080" lon="-3.2905120">
        <ele>1053.0</ele>
        <time>2020-09-29T13:44:55Z</time>
      </trkpt>
      <trkpt lat="41.0664080" lon="-3.2905120">
        <ele>1053.0</ele>
        <time>2020-09-29T13:44:56Z</time>
      </trkpt>
      <trkpt lat="41.0662850" lon="-3.2903670">
        <ele>1053.0</ele>
        <time>2020-09-29T13:44:57Z</time>
      </trkpt>
      <trkpt lat="41.0662850" lon="-3.2903670">
        <ele>1053.0</ele>
        <time>2020-09-29T13:44:58Z</time>
      </trkpt>
      <trkpt lat="41.0661350" lon="-3.2903000">
        <ele>1053.0</ele>
        <time>2020-09-29T13:44:59Z</time>
      </trkpt>
      <trkpt lat="41.0661350" lon="-3.2903000">
        <ele>1053.0</ele>
        <time>2020-09-29T13:45:00Z</time>
      </trkpt>
      <trkpt lat="41.0659800" lon="-3.2902870">
        <ele>1053.0</ele>
        <time>2020-09-29T13:45:01Z</time>
      </trkpt>
      <trkpt lat="41.0659800" lon="-3.2902870">
        <ele>1052.0</ele>
        <time>2020-09-29T13:45:02Z</time>
      </trkpt>
      <trkpt lat="41.0658450" lon="-3.2902870">
        <ele>1052.0</ele>
        <time>2020-09-29T13:45:03Z</time>
      </trkpt>
      <trkpt lat="41.0658450" lon="-3.2902870">
        <ele>1052.0</ele>
        <time>2020-09-29T13:45:04Z</time>
      </trkpt>
      <trkpt lat="41.0657180" lon="-3.2902850">
        <ele>1052.0</ele>
        <time>2020-09-29T13:45:05Z</time>
      </trkpt>
      <trkpt lat="41.0656580" lon="-3.2902830">
        <ele>1052.0</ele>
        <time>2020-09-29T13:45:06Z</time>
      </trkpt>
      <trkpt lat="41.0655980" lon="-3.2902800">
        <ele>1052.0</ele>
        <time>2020-09-29T13:45:07Z</time>
      </trkpt>
      <trkpt lat="41.0655400" lon="-3.2902800">
        <ele>1052.0</ele>
        <time>2020-09-29T13:45:08Z</time>
      </trkpt>
      <trkpt lat="41.0655400" lon="-3.2902800">
        <ele>1052.0</ele>
        <time>2020-09-29T13:45:09Z</time>
      </trkpt>
      <trkpt lat="41.0654270" lon="-3.2902730">
        <ele>1052.0</ele>
        <time>2020-09-29T13:45:10Z</time>
      </trkpt>
      <trkpt lat="41.0654270" lon="-3.2902730">
        <ele>1052.0</ele>
        <time>2020-09-29T13:45:11Z</time>
      </trkpt>
      <trkpt lat="41.0653250" lon="-3.2902450">
        <ele>1053.0</ele>
        <time>2020-09-29T13:45:12Z</time>
      </trkpt>
      <trkpt lat="41.0652750" lon="-3.2902280">
        <ele>1053.0</ele>
        <time>2020-09-29T13:45:13Z</time>
      </trkpt>
      <trkpt lat="41.0652750" lon="-3.2902280">
        <ele>1053.0</ele>
        <time>2020-09-29T13:45:14Z</time>
      </trkpt>
      <trkpt lat="41.0651780" lon="-3.2902020">
        <ele>1053.0</ele>
        <time>2020-09-29T13:45:15Z</time>
      </trkpt>
      <trkpt lat="41.0651320" lon="-3.2901850">
        <ele>1053.0</ele>
        <time>2020-09-29T13:45:16Z</time>
      </trkpt>
      <trkpt lat="41.0650870" lon="-3.2901670">
        <ele>1053.0</ele>
        <time>2020-09-29T13:45:17Z</time>
      </trkpt>
      <trkpt lat="41.0650870" lon="-3.2901670">
        <ele>1053.0</ele>
        <time>2020-09-29T13:45:18Z</time>
      </trkpt>
      <trkpt lat="41.0650080" lon="-3.2901350">
        <ele>1054.0</ele>
        <time>2020-09-29T13:45:19Z</time>
      </trkpt>
      <trkpt lat="41.0650080" lon="-3.2901350">
        <ele>1054.0</ele>
        <time>2020-09-29T13:45:20Z</time>
      </trkpt>
      <trkpt lat="41.0649170" lon="-3.2900970">
        <ele>1054.0</ele>
        <time>2020-09-29T13:45:21Z</time>
      </trkpt>
      <trkpt lat="41.0649170" lon="-3.2900970">
        <ele>1054.0</ele>
        <time>2020-09-29T13:45:22Z</time>
      </trkpt>
      <trkpt lat="41.0648180" lon="-3.2900550">
        <ele>1054.0</ele>
        <time>2020-09-29T13:45:23Z</time>
      </trkpt>
      <trkpt lat="41.0647720" lon="-3.2900350">
        <ele>1054.0</ele>
        <time>2020-09-29T13:45:24Z</time>
      </trkpt>
      <trkpt lat="41.0647720" lon="-3.2900350">
        <ele>1054.0</ele>
        <time>2020-09-29T13:45:25Z</time>
      </trkpt>
      <trkpt lat="41.0646770" lon="-3.2900000">
        <ele>1054.0</ele>
        <time>2020-09-29T13:45:26Z</time>
      </trkpt>
      <trkpt lat="41.0646770" lon="-3.2900000">
        <ele>1054.0</ele>
        <time>2020-09-29T13:45:27Z</time>
      </trkpt>
      <trkpt lat="41.0645820" lon="-3.2899570">
        <ele>1054.0</ele>
        <time>2020-09-29T13:45:28Z</time>
      </trkpt>
      <trkpt lat="41.0645820" lon="-3.2899570">
        <ele>1054.0</ele>
        <time>2020-09-29T13:45:29Z</time>
      </trkpt>
      <trkpt lat="41.0644850" lon="-3.2899170">
        <ele>1054.0</ele>
        <time>2020-09-29T13:45:30Z</time>
      </trkpt>
      <trkpt lat="41.0644850" lon="-3.2899170">
        <ele>1054.0</ele>
        <time>2020-09-29T13:45:31Z</time>
      </trkpt>
      <trkpt lat="41.0643850" lon="-3.2898870">
        <ele>1054.0</ele>
        <time>2020-09-29T13:45:32Z</time>
      </trkpt>
      <trkpt lat="41.0643850" lon="-3.2898870">
        <ele>1054.0</ele>
        <time>2020-09-29T13:45:33Z</time>
      </trkpt>
      <trkpt lat="41.0642830" lon="-3.2898630">
        <ele>1054.0</ele>
        <time>2020-09-29T13:45:34Z</time>
      </trkpt>
      <trkpt lat="41.0642300" lon="-3.2898500">
        <ele>1052.0</ele>
        <time>2020-09-29T13:45:35Z</time>
      </trkpt>
      <trkpt lat="41.0642300" lon="-3.2898500">
        <ele>1052.0</ele>
        <time>2020-09-29T13:45:36Z</time>
      </trkpt>
      <trkpt lat="41.0641250" lon="-3.2898270">
        <ele>1052.0</ele>
        <time>2020-09-29T13:45:37Z</time>
      </trkpt>
      <trkpt lat="41.0641250" lon="-3.2898270">
        <ele>1052.0</ele>
        <time>2020-09-29T13:45:38Z</time>
      </trkpt>
      <trkpt lat="41.0640230" lon="-3.2898050">
        <ele>1052.0</ele>
        <time>2020-09-29T13:45:39Z</time>
      </trkpt>
      <trkpt lat="41.0640230" lon="-3.2898050">
        <ele>1052.0</ele>
        <time>2020-09-29T13:45:40Z</time>
      </trkpt>
      <trkpt lat="41.0639630" lon="-3.2897880">
        <ele>1052.0</ele>
        <time>2020-09-29T13:45:41Z</time>
      </trkpt>
      <trkpt lat="41.0639450" lon="-3.2897880">
        <ele>1052.0</ele>
        <time>2020-09-29T13:45:42Z</time>
      </trkpt>
      <trkpt lat="41.0639230" lon="-3.2897870">
        <ele>1052.0</ele>
        <time>2020-09-29T13:45:43Z</time>
      </trkpt>
      <trkpt lat="41.0639230" lon="-3.2897870">
        <ele>1052.0</ele>
        <time>2020-09-29T13:45:44Z</time>
      </trkpt>
      <trkpt lat="41.0638780" lon="-3.2897830">
        <ele>1052.0</ele>
        <time>2020-09-29T13:45:45Z</time>
      </trkpt>
      <trkpt lat="41.0638780" lon="-3.2897830">
        <ele>1052.0</ele>
        <time>2020-09-29T13:45:46Z</time>
      </trkpt>
      <trkpt lat="41.0638350" lon="-3.2898150">
        <ele>1052.0</ele>
        <time>2020-09-29T13:45:47Z</time>
      </trkpt>
      <trkpt lat="41.0638270" lon="-3.2898500">
        <ele>1052.0</ele>
        <time>2020-09-29T13:45:48Z</time>
      </trkpt>
      <trkpt lat="41.0638230" lon="-3.2898970">
        <ele>1052.0</ele>
        <time>2020-09-29T13:45:49Z</time>
      </trkpt>
      <trkpt lat="41.0638230" lon="-3.2898970">
        <ele>1052.0</ele>
        <time>2020-09-29T13:45:50Z</time>
      </trkpt>
      <trkpt lat="41.0638080" lon="-3.2899950">
        <ele>1052.0</ele>
        <time>2020-09-29T13:45:51Z</time>
      </trkpt>
      <trkpt lat="41.0637950" lon="-3.2900450">
        <ele>1052.0</ele>
        <time>2020-09-29T13:45:52Z</time>
      </trkpt>
      <trkpt lat="41.0637950" lon="-3.2900450">
        <ele>1052.0</ele>
        <time>2020-09-29T13:45:53Z</time>
      </trkpt>
      <trkpt lat="41.0637650" lon="-3.2901420">
        <ele>1052.0</ele>
        <time>2020-09-29T13:45:54Z</time>
      </trkpt>
      <trkpt lat="41.0637400" lon="-3.2901930">
        <ele>1052.0</ele>
        <time>2020-09-29T13:45:55Z</time>
      </trkpt>
      <trkpt lat="41.0637400" lon="-3.2901930">
        <ele>1051.0</ele>
        <time>2020-09-29T13:45:56Z</time>
      </trkpt>
      <trkpt lat="41.0636580" lon="-3.2902670">
        <ele>1051.0</ele>
        <time>2020-09-29T13:45:57Z</time>
      </trkpt>
      <trkpt lat="41.0636100" lon="-3.2902800">
        <ele>1051.0</ele>
        <time>2020-09-29T13:45:58Z</time>
      </trkpt>
      <trkpt lat="41.0635620" lon="-3.2902800">
        <ele>1051.0</ele>
        <time>2020-09-29T13:45:59Z</time>
      </trkpt>
      <trkpt lat="41.0635150" lon="-3.2902770">
        <ele>1050.0</ele>
        <time>2020-09-29T13:46:00Z</time>
      </trkpt>
      <trkpt lat="41.0635150" lon="-3.2902770">
        <ele>1050.0</ele>
        <time>2020-09-29T13:46:01Z</time>
      </trkpt>
      <trkpt lat="41.0634370" lon="-3.2902650">
        <ele>1050.0</ele>
        <time>2020-09-29T13:46:02Z</time>
      </trkpt>
      <trkpt lat="41.0634370" lon="-3.2902650">
        <ele>1050.0</ele>
        <time>2020-09-29T13:46:03Z</time>
      </trkpt>
      <trkpt lat="41.0633800" lon="-3.2902300">
        <ele>1050.0</ele>
        <time>2020-09-29T13:46:04Z</time>
      </trkpt>
      <trkpt lat="41.0633680" lon="-3.2902000">
        <ele>1050.0</ele>
        <time>2020-09-29T13:46:05Z</time>
      </trkpt>
      <trkpt lat="41.0633680" lon="-3.2902000">
        <ele>1049.0</ele>
        <time>2020-09-29T13:46:06Z</time>
      </trkpt>
      <trkpt lat="41.0633700" lon="-3.2901400">
        <ele>1049.0</ele>
        <time>2020-09-29T13:46:07Z</time>
      </trkpt>
      <trkpt lat="41.0633700" lon="-3.2901400">
        <ele>1049.0</ele>
        <time>2020-09-29T13:46:08Z</time>
      </trkpt>
      <trkpt lat="41.0633770" lon="-3.2901000">
        <ele>1049.0</ele>
        <time>2020-09-29T13:46:09Z</time>
      </trkpt>
      <trkpt lat="41.0633820" lon="-3.2900850">
        <ele>1049.0</ele>
        <time>2020-09-29T13:46:10Z</time>
      </trkpt>
      <trkpt lat="41.0633920" lon="-3.2900700">
        <ele>1049.0</ele>
        <time>2020-09-29T13:46:11Z</time>
      </trkpt>
      <trkpt lat="41.0634020" lon="-3.2900620">
        <ele>1050.0</ele>
        <time>2020-09-29T13:46:12Z</time>
      </trkpt>
      <trkpt lat="41.0634080" lon="-3.2900550">
        <ele>1050.0</ele>
        <time>2020-09-29T13:46:13Z</time>
      </trkpt>
      <trkpt lat="41.0634080" lon="-3.2900550">
        <ele>1050.0</ele>
        <time>2020-09-29T13:46:14Z</time>
      </trkpt>
      <trkpt lat="41.0634180" lon="-3.2900580">
        <ele>1050.0</ele>
        <time>2020-09-29T13:46:15Z</time>
      </trkpt>
      <trkpt lat="41.0634180" lon="-3.2900580">
        <ele>1050.0</ele>
        <time>2020-09-29T13:46:16Z</time>
      </trkpt>
      <trkpt lat="41.0634180" lon="-3.2900580">
        <ele>1050.0</ele>
        <time>2020-09-29T13:47:02Z</time>
      </trkpt>
      <trkpt lat="41.0633550" lon="-3.2900730">
        <ele>1050.0</ele>
        <time>2020-09-29T13:47:03Z</time>
      </trkpt>
      <trkpt lat="41.0633550" lon="-3.2900730">
        <ele>1050.0</ele>
        <time>2020-09-29T13:47:04Z</time>
      </trkpt>
      <trkpt lat="41.0633400" lon="-3.2901180">
        <ele>1050.0</ele>
        <time>2020-09-29T13:47:09Z</time>
      </trkpt>
      <trkpt lat="41.0633400" lon="-3.2901180">
        <ele>1050.0</ele>
        <time>2020-09-29T13:47:10Z</time>
      </trkpt>
      <trkpt lat="41.0633230" lon="-3.2901570">
        <ele>1050.0</ele>
        <time>2020-09-29T13:47:11Z</time>
      </trkpt>
      <trkpt lat="41.0633230" lon="-3.2901570">
        <ele>1050.0</ele>
        <time>2020-09-29T13:47:12Z</time>
      </trkpt>
      <trkpt lat="41.0632780" lon="-3.2901520">
        <ele>1050.0</ele>
        <time>2020-09-29T13:47:13Z</time>
      </trkpt>
      <trkpt lat="41.0632780" lon="-3.2901520">
        <ele>1050.0</ele>
        <time>2020-09-29T13:47:14Z</time>
      </trkpt>
      <trkpt lat="41.0632350" lon="-3.2901270">
        <ele>1050.0</ele>
        <time>2020-09-29T13:47:15Z</time>
      </trkpt>
      <trkpt lat="41.0632130" lon="-3.2901200">
        <ele>1050.0</ele>
        <time>2020-09-29T13:47:16Z</time>
      </trkpt>
      <trkpt lat="41.0632130" lon="-3.2901200">
        <ele>1050.0</ele>
        <time>2020-09-29T13:47:17Z</time>
      </trkpt>
      <trkpt lat="41.0631630" lon="-3.2901020">
        <ele>1050.0</ele>
        <time>2020-09-29T13:47:18Z</time>
      </trkpt>
      <trkpt lat="41.0631630" lon="-3.2901020">
        <ele>1050.0</ele>
        <time>2020-09-29T13:47:19Z</time>
      </trkpt>
      <trkpt lat="41.0631180" lon="-3.2900750">
        <ele>1050.0</ele>
        <time>2020-09-29T13:47:20Z</time>
      </trkpt>
      <trkpt lat="41.0631180" lon="-3.2900750">
        <ele>1050.0</ele>
        <time>2020-09-29T13:47:21Z</time>
      </trkpt>
      <trkpt lat="41.0630630" lon="-3.2900400">
        <ele>1050.0</ele>
        <time>2020-09-29T13:47:22Z</time>
      </trkpt>
      <trkpt lat="41.0630180" lon="-3.2900050">
        <ele>1050.0</ele>
        <time>2020-09-29T13:47:23Z</time>
      </trkpt>
      <trkpt lat="41.0630180" lon="-3.2900050">
        <ele>1050.0</ele>
        <time>2020-09-29T13:47:24Z</time>
      </trkpt>
      <trkpt lat="41.0629950" lon="-3.2899880">
        <ele>1050.0</ele>
        <time>2020-09-29T13:47:25Z</time>
      </trkpt>
      <trkpt lat="41.0629950" lon="-3.2899880">
        <ele>1050.0</ele>
        <time>2020-09-29T13:47:26Z</time>
      </trkpt>
      <trkpt lat="41.0629450" lon="-3.2899630">
        <ele>1050.0</ele>
        <time>2020-09-29T13:47:27Z</time>
      </trkpt>
      <trkpt lat="41.0629220" lon="-3.2899470">
        <ele>1050.0</ele>
        <time>2020-09-29T13:47:28Z</time>
      </trkpt>
      <trkpt lat="41.0629220" lon="-3.2899470">
        <ele>1050.0</ele>
        <time>2020-09-29T13:47:29Z</time>
      </trkpt>
      <trkpt lat="41.0628820" lon="-3.2898850">
        <ele>1050.0</ele>
        <time>2020-09-29T13:47:30Z</time>
      </trkpt>
      <trkpt lat="41.0628820" lon="-3.2898850">
        <ele>1050.0</ele>
        <time>2020-09-29T13:47:31Z</time>
      </trkpt>
      <trkpt lat="41.0628720" lon="-3.2898350">
        <ele>1051.0</ele>
        <time>2020-09-29T13:47:32Z</time>
      </trkpt>
      <trkpt lat="41.0628720" lon="-3.2898350">
        <ele>1051.0</ele>
        <time>2020-09-29T13:47:33Z</time>
      </trkpt>
      <trkpt lat="41.0628770" lon="-3.2897920">
        <ele>1051.0</ele>
        <time>2020-09-29T13:47:34Z</time>
      </trkpt>
      <trkpt lat="41.0628770" lon="-3.2897920">
        <ele>1051.0</ele>
        <time>2020-09-29T13:47:35Z</time>
      </trkpt>
      <trkpt lat="41.0628930" lon="-3.2897370">
        <ele>1051.0</ele>
        <time>2020-09-29T13:47:36Z</time>
      </trkpt>
      <trkpt lat="41.0629050" lon="-3.2897070">
        <ele>1051.0</ele>
        <time>2020-09-29T13:47:37Z</time>
      </trkpt>
      <trkpt lat="41.0629050" lon="-3.2897070">
        <ele>1051.0</ele>
        <time>2020-09-29T13:47:38Z</time>
      </trkpt>
      <trkpt lat="41.0629370" lon="-3.2896470">
        <ele>1051.0</ele>
        <time>2020-09-29T13:47:39Z</time>
      </trkpt>
      <trkpt lat="41.0629370" lon="-3.2896470">
        <ele>1052.0</ele>
        <time>2020-09-29T13:47:40Z</time>
      </trkpt>
      <trkpt lat="41.0629870" lon="-3.2895970">
        <ele>1052.0</ele>
        <time>2020-09-29T13:47:41Z</time>
      </trkpt>
      <trkpt lat="41.0629870" lon="-3.2895970">
        <ele>1052.0</ele>
        <time>2020-09-29T13:47:42Z</time>
      </trkpt>
      <trkpt lat="41.0630430" lon="-3.2895600">
        <ele>1052.0</ele>
        <time>2020-09-29T13:47:43Z</time>
      </trkpt>
      <trkpt lat="41.0630430" lon="-3.2895600">
        <ele>1052.0</ele>
        <time>2020-09-29T13:47:44Z</time>
      </trkpt>
      <trkpt lat="41.0631050" lon="-3.2895280">
        <ele>1052.0</ele>
        <time>2020-09-29T13:47:45Z</time>
      </trkpt>
      <trkpt lat="41.0631050" lon="-3.2895280">
        <ele>1052.0</ele>
        <time>2020-09-29T13:47:46Z</time>
      </trkpt>
      <trkpt lat="41.0631570" lon="-3.2894980">
        <ele>1052.0</ele>
        <time>2020-09-29T13:47:47Z</time>
      </trkpt>
      <trkpt lat="41.0631800" lon="-3.2894880">
        <ele>1052.0</ele>
        <time>2020-09-29T13:47:48Z</time>
      </trkpt>
      <trkpt lat="41.0631800" lon="-3.2894880">
        <ele>1051.0</ele>
        <time>2020-09-29T13:47:49Z</time>
      </trkpt>
      <trkpt lat="41.0632300" lon="-3.2894620">
        <ele>1051.0</ele>
        <time>2020-09-29T13:47:50Z</time>
      </trkpt>
      <trkpt lat="41.0632530" lon="-3.2894430">
        <ele>1051.0</ele>
        <time>2020-09-29T13:47:51Z</time>
      </trkpt>
      <trkpt lat="41.0632530" lon="-3.2894430">
        <ele>1051.0</ele>
        <time>2020-09-29T13:47:52Z</time>
      </trkpt>
      <trkpt lat="41.0632900" lon="-3.2893850">
        <ele>1051.0</ele>
        <time>2020-09-29T13:47:53Z</time>
      </trkpt>
      <trkpt lat="41.0632900" lon="-3.2893850">
        <ele>1051.0</ele>
        <time>2020-09-29T13:47:54Z</time>
      </trkpt>
      <trkpt lat="41.0633020" lon="-3.2892850">
        <ele>1050.0</ele>
        <time>2020-09-29T13:47:55Z</time>
      </trkpt>
      <trkpt lat="41.0633020" lon="-3.2892850">
        <ele>1050.0</ele>
        <time>2020-09-29T13:47:56Z</time>
      </trkpt>
      <trkpt lat="41.0632980" lon="-3.2891730">
        <ele>1050.0</ele>
        <time>2020-09-29T13:47:57Z</time>
      </trkpt>
      <trkpt lat="41.0632980" lon="-3.2891730">
        <ele>1049.0</ele>
        <time>2020-09-29T13:47:58Z</time>
      </trkpt>
      <trkpt lat="41.0632720" lon="-3.2890620">
        <ele>1049.0</ele>
        <time>2020-09-29T13:47:59Z</time>
      </trkpt>
      <trkpt lat="41.0632720" lon="-3.2890620">
        <ele>1049.0</ele>
        <time>2020-09-29T13:48:00Z</time>
      </trkpt>
      <trkpt lat="41.0632250" lon="-3.2889500">
        <ele>1049.0</ele>
        <time>2020-09-29T13:48:01Z</time>
      </trkpt>
      <trkpt lat="41.0632000" lon="-3.2888880">
        <ele>1048.0</ele>
        <time>2020-09-29T13:48:02Z</time>
      </trkpt>
      <trkpt lat="41.0632000" lon="-3.2888880">
        <ele>1048.0</ele>
        <time>2020-09-29T13:48:03Z</time>
      </trkpt>
      <trkpt lat="41.0631370" lon="-3.2887580">
        <ele>1048.0</ele>
        <time>2020-09-29T13:48:04Z</time>
      </trkpt>
      <trkpt lat="41.0631370" lon="-3.2887580">
        <ele>1048.0</ele>
        <time>2020-09-29T13:48:05Z</time>
      </trkpt>
      <trkpt lat="41.0630670" lon="-3.2886200">
        <ele>1047.0</ele>
        <time>2020-09-29T13:48:06Z</time>
      </trkpt>
      <trkpt lat="41.0630300" lon="-3.2885500">
        <ele>1047.0</ele>
        <time>2020-09-29T13:48:07Z</time>
      </trkpt>
      <trkpt lat="41.0630300" lon="-3.2885500">
        <ele>1047.0</ele>
        <time>2020-09-29T13:48:08Z</time>
      </trkpt>
      <trkpt lat="41.0629520" lon="-3.2884100">
        <ele>1047.0</ele>
        <time>2020-09-29T13:48:09Z</time>
      </trkpt>
      <trkpt lat="41.0629520" lon="-3.2884100">
        <ele>1045.0</ele>
        <time>2020-09-29T13:48:10Z</time>
      </trkpt>
      <trkpt lat="41.0628680" lon="-3.2882800">
        <ele>1045.0</ele>
        <time>2020-09-29T13:48:11Z</time>
      </trkpt>
      <trkpt lat="41.0628680" lon="-3.2882800">
        <ele>1045.0</ele>
        <time>2020-09-29T13:48:12Z</time>
      </trkpt>
      <trkpt lat="41.0627700" lon="-3.2881630">
        <ele>1045.0</ele>
        <time>2020-09-29T13:48:13Z</time>
      </trkpt>
      <trkpt lat="41.0627700" lon="-3.2881630">
        <ele>1045.0</ele>
        <time>2020-09-29T13:48:14Z</time>
      </trkpt>
      <trkpt lat="41.0626650" lon="-3.2880550">
        <ele>1045.0</ele>
        <time>2020-09-29T13:48:15Z</time>
      </trkpt>
      <trkpt lat="41.0626650" lon="-3.2880550">
        <ele>1045.0</ele>
        <time>2020-09-29T13:48:16Z</time>
      </trkpt>
      <trkpt lat="41.0625570" lon="-3.2879580">
        <ele>1045.0</ele>
        <time>2020-09-29T13:48:17Z</time>
      </trkpt>
      <trkpt lat="41.0625050" lon="-3.2879150">
        <ele>1045.0</ele>
        <time>2020-09-29T13:48:18Z</time>
      </trkpt>
      <trkpt lat="41.0625050" lon="-3.2879150">
        <ele>1045.0</ele>
        <time>2020-09-29T13:48:19Z</time>
      </trkpt>
      <trkpt lat="41.0624000" lon="-3.2878280">
        <ele>1045.0</ele>
        <time>2020-09-29T13:48:20Z</time>
      </trkpt>
      <trkpt lat="41.0624000" lon="-3.2878280">
        <ele>1045.0</ele>
        <time>2020-09-29T13:48:21Z</time>
      </trkpt>
      <trkpt lat="41.0622980" lon="-3.2877350">
        <ele>1045.0</ele>
        <time>2020-09-29T13:48:22Z</time>
      </trkpt>
      <trkpt lat="41.0622980" lon="-3.2877350">
        <ele>1045.0</ele>
        <time>2020-09-29T13:48:23Z</time>
      </trkpt>
      <trkpt lat="41.0621950" lon="-3.2876380">
        <ele>1045.0</ele>
        <time>2020-09-29T13:48:24Z</time>
      </trkpt>
      <trkpt lat="41.0621420" lon="-3.2875830">
        <ele>1045.0</ele>
        <time>2020-09-29T13:48:25Z</time>
      </trkpt>
      <trkpt lat="41.0621420" lon="-3.2875830">
        <ele>1045.0</ele>
        <time>2020-09-29T13:48:26Z</time>
      </trkpt>
      <trkpt lat="41.0620330" lon="-3.2874600">
        <ele>1045.0</ele>
        <time>2020-09-29T13:48:27Z</time>
      </trkpt>
      <trkpt lat="41.0620330" lon="-3.2874600">
        <ele>1044.0</ele>
        <time>2020-09-29T13:48:28Z</time>
      </trkpt>
      <trkpt lat="41.0619170" lon="-3.2873200">
        <ele>1044.0</ele>
        <time>2020-09-29T13:48:29Z</time>
      </trkpt>
      <trkpt lat="41.0619170" lon="-3.2873200">
        <ele>1044.0</ele>
        <time>2020-09-29T13:48:30Z</time>
      </trkpt>
      <trkpt lat="41.0617980" lon="-3.2871670">
        <ele>1042.0</ele>
        <time>2020-09-29T13:48:31Z</time>
      </trkpt>
      <trkpt lat="41.0617980" lon="-3.2871670">
        <ele>1042.0</ele>
        <time>2020-09-29T13:48:32Z</time>
      </trkpt>
      <trkpt lat="41.0616730" lon="-3.2869950">
        <ele>1042.0</ele>
        <time>2020-09-29T13:48:33Z</time>
      </trkpt>
      <trkpt lat="41.0616100" lon="-3.2869050">
        <ele>1041.0</ele>
        <time>2020-09-29T13:48:34Z</time>
      </trkpt>
      <trkpt lat="41.0616100" lon="-3.2869050">
        <ele>1041.0</ele>
        <time>2020-09-29T13:48:35Z</time>
      </trkpt>
      <trkpt lat="41.0614880" lon="-3.2867280">
        <ele>1041.0</ele>
        <time>2020-09-29T13:48:36Z</time>
      </trkpt>
      <trkpt lat="41.0614270" lon="-3.2866550">
        <ele>1040.0</ele>
        <time>2020-09-29T13:48:37Z</time>
      </trkpt>
      <trkpt lat="41.0614270" lon="-3.2866550">
        <ele>1040.0</ele>
        <time>2020-09-29T13:48:38Z</time>
      </trkpt>
      <trkpt lat="41.0612980" lon="-3.2865630">
        <ele>1040.0</ele>
        <time>2020-09-29T13:48:39Z</time>
      </trkpt>
      <trkpt lat="41.0612980" lon="-3.2865630">
        <ele>1040.0</ele>
        <time>2020-09-29T13:48:40Z</time>
      </trkpt>
      <trkpt lat="41.0611750" lon="-3.2865450">
        <ele>1040.0</ele>
        <time>2020-09-29T13:48:41Z</time>
      </trkpt>
      <trkpt lat="41.0611750" lon="-3.2865450">
        <ele>1040.0</ele>
        <time>2020-09-29T13:48:42Z</time>
      </trkpt>
      <trkpt lat="41.0610720" lon="-3.2865650">
        <ele>1041.0</ele>
        <time>2020-09-29T13:48:43Z</time>
      </trkpt>
      <trkpt lat="41.0610720" lon="-3.2865650">
        <ele>1041.0</ele>
        <time>2020-09-29T13:48:44Z</time>
      </trkpt>
      <trkpt lat="41.0609800" lon="-3.2865870">
        <ele>1041.0</ele>
        <time>2020-09-29T13:48:45Z</time>
      </trkpt>
      <trkpt lat="41.0609800" lon="-3.2865870">
        <ele>1041.0</ele>
        <time>2020-09-29T13:48:46Z</time>
      </trkpt>
      <trkpt lat="41.0608970" lon="-3.2866080">
        <ele>1043.0</ele>
        <time>2020-09-29T13:48:47Z</time>
      </trkpt>
      <trkpt lat="41.0608970" lon="-3.2866080">
        <ele>1043.0</ele>
        <time>2020-09-29T13:48:48Z</time>
      </trkpt>
      <trkpt lat="41.0608170" lon="-3.2866270">
        <ele>1043.0</ele>
        <time>2020-09-29T13:48:49Z</time>
      </trkpt>
      <trkpt lat="41.0608170" lon="-3.2866270">
        <ele>1043.0</ele>
        <time>2020-09-29T13:48:50Z</time>
      </trkpt>
      <trkpt lat="41.0607430" lon="-3.2866420">
        <ele>1043.0</ele>
        <time>2020-09-29T13:48:51Z</time>
      </trkpt>
      <trkpt lat="41.0607100" lon="-3.2866480">
        <ele>1043.0</ele>
        <time>2020-09-29T13:48:52Z</time>
      </trkpt>
      <trkpt lat="41.0607100" lon="-3.2866480">
        <ele>1044.0</ele>
        <time>2020-09-29T13:48:53Z</time>
      </trkpt>
      <trkpt lat="41.0606500" lon="-3.2866620">
        <ele>1044.0</ele>
        <time>2020-09-29T13:48:54Z</time>
      </trkpt>
      <trkpt lat="41.0606230" lon="-3.2866630">
        <ele>1044.0</ele>
        <time>2020-09-29T13:48:55Z</time>
      </trkpt>
      <trkpt lat="41.0606230" lon="-3.2866630">
        <ele>1044.0</ele>
        <time>2020-09-29T13:48:56Z</time>
      </trkpt>
      <trkpt lat="41.0605630" lon="-3.2866620">
        <ele>1045.0</ele>
        <time>2020-09-29T13:48:57Z</time>
      </trkpt>
      <trkpt lat="41.0605630" lon="-3.2866620">
        <ele>1045.0</ele>
        <time>2020-09-29T13:48:58Z</time>
      </trkpt>
      <trkpt lat="41.0605080" lon="-3.2866570">
        <ele>1045.0</ele>
        <time>2020-09-29T13:48:59Z</time>
      </trkpt>
      <trkpt lat="41.0605080" lon="-3.2866570">
        <ele>1045.0</ele>
        <time>2020-09-29T13:49:00Z</time>
      </trkpt>
      <trkpt lat="41.0604500" lon="-3.2866570">
        <ele>1045.0</ele>
        <time>2020-09-29T13:49:01Z</time>
      </trkpt>
      <trkpt lat="41.0604500" lon="-3.2866570">
        <ele>1046.0</ele>
        <time>2020-09-29T13:49:02Z</time>
      </trkpt>
      <trkpt lat="41.0603920" lon="-3.2866520">
        <ele>1046.0</ele>
        <time>2020-09-29T13:49:03Z</time>
      </trkpt>
      <trkpt lat="41.0603920" lon="-3.2866520">
        <ele>1046.0</ele>
        <time>2020-09-29T13:49:04Z</time>
      </trkpt>
      <trkpt lat="41.0603370" lon="-3.2866450">
        <ele>1046.0</ele>
        <time>2020-09-29T13:49:05Z</time>
      </trkpt>
      <trkpt lat="41.0603080" lon="-3.2866430">
        <ele>1048.0</ele>
        <time>2020-09-29T13:49:06Z</time>
      </trkpt>
      <trkpt lat="41.0603080" lon="-3.2866430">
        <ele>1048.0</ele>
        <time>2020-09-29T13:49:07Z</time>
      </trkpt>
      <trkpt lat="41.0602550" lon="-3.2866350">
        <ele>1048.0</ele>
        <time>2020-09-29T13:49:08Z</time>
      </trkpt>
      <trkpt lat="41.0602550" lon="-3.2866350">
        <ele>1048.0</ele>
        <time>2020-09-29T13:49:09Z</time>
      </trkpt>
      <trkpt lat="41.0602020" lon="-3.2866270">
        <ele>1049.0</ele>
        <time>2020-09-29T13:49:10Z</time>
      </trkpt>
      <trkpt lat="41.0602020" lon="-3.2866270">
        <ele>1049.0</ele>
        <time>2020-09-29T13:49:11Z</time>
      </trkpt>
      <trkpt lat="41.0601470" lon="-3.2866200">
        <ele>1049.0</ele>
        <time>2020-09-29T13:49:12Z</time>
      </trkpt>
      <trkpt lat="41.0601220" lon="-3.2866080">
        <ele>1050.0</ele>
        <time>2020-09-29T13:49:13Z</time>
      </trkpt>
      <trkpt lat="41.0601220" lon="-3.2866080">
        <ele>1050.0</ele>
        <time>2020-09-29T13:49:14Z</time>
      </trkpt>
      <trkpt lat="41.0600720" lon="-3.2865820">
        <ele>1050.0</ele>
        <time>2020-09-29T13:49:15Z</time>
      </trkpt>
      <trkpt lat="41.0600480" lon="-3.2865700">
        <ele>1050.0</ele>
        <time>2020-09-29T13:49:16Z</time>
      </trkpt>
      <trkpt lat="41.0600480" lon="-3.2865700">
        <ele>1051.0</ele>
        <time>2020-09-29T13:49:17Z</time>
      </trkpt>
      <trkpt lat="41.0600000" lon="-3.2865470">
        <ele>1051.0</ele>
        <time>2020-09-29T13:49:18Z</time>
      </trkpt>
      <trkpt lat="41.0599730" lon="-3.2865330">
        <ele>1051.0</ele>
        <time>2020-09-29T13:49:19Z</time>
      </trkpt>
      <trkpt lat="41.0599730" lon="-3.2865330">
        <ele>1051.0</ele>
        <time>2020-09-29T13:49:20Z</time>
      </trkpt>
      <trkpt lat="41.0599280" lon="-3.2865080">
        <ele>1052.0</ele>
        <time>2020-09-29T13:49:21Z</time>
      </trkpt>
      <trkpt lat="41.0599080" lon="-3.2864920">
        <ele>1052.0</ele>
        <time>2020-09-29T13:49:22Z</time>
      </trkpt>
      <trkpt lat="41.0599080" lon="-3.2864920">
        <ele>1052.0</ele>
        <time>2020-09-29T13:49:23Z</time>
      </trkpt>
      <trkpt lat="41.0598650" lon="-3.2864530">
        <ele>1052.0</ele>
        <time>2020-09-29T13:49:24Z</time>
      </trkpt>
      <trkpt lat="41.0598420" lon="-3.2864350">
        <ele>1052.0</ele>
        <time>2020-09-29T13:49:25Z</time>
      </trkpt>
      <trkpt lat="41.0598420" lon="-3.2864350">
        <ele>1052.0</ele>
        <time>2020-09-29T13:49:26Z</time>
      </trkpt>
      <trkpt lat="41.0597980" lon="-3.2864080">
        <ele>1051.0</ele>
        <time>2020-09-29T13:49:27Z</time>
      </trkpt>
      <trkpt lat="41.0597980" lon="-3.2864080">
        <ele>1051.0</ele>
        <time>2020-09-29T13:49:28Z</time>
      </trkpt>
      <trkpt lat="41.0597550" lon="-3.2863820">
        <ele>1052.0</ele>
        <time>2020-09-29T13:49:29Z</time>
      </trkpt>
      <trkpt lat="41.0597550" lon="-3.2863820">
        <ele>1052.0</ele>
        <time>2020-09-29T13:49:30Z</time>
      </trkpt>
      <trkpt lat="41.0597170" lon="-3.2863530">
        <ele>1054.0</ele>
        <time>2020-09-29T13:49:31Z</time>
      </trkpt>
      <trkpt lat="41.0597170" lon="-3.2863530">
        <ele>1054.0</ele>
        <time>2020-09-29T13:49:32Z</time>
      </trkpt>
      <trkpt lat="41.0596770" lon="-3.2863250">
        <ele>1054.0</ele>
        <time>2020-09-29T13:49:33Z</time>
      </trkpt>
      <trkpt lat="41.0596770" lon="-3.2863250">
        <ele>1054.0</ele>
        <time>2020-09-29T13:49:34Z</time>
      </trkpt>
      <trkpt lat="41.0596380" lon="-3.2862970">
        <ele>1055.0</ele>
        <time>2020-09-29T13:49:35Z</time>
      </trkpt>
      <trkpt lat="41.0596380" lon="-3.2862970">
        <ele>1055.0</ele>
        <time>2020-09-29T13:49:36Z</time>
      </trkpt>
      <trkpt lat="41.0595930" lon="-3.2862770">
        <ele>1055.0</ele>
        <time>2020-09-29T13:49:37Z</time>
      </trkpt>
      <trkpt lat="41.0595930" lon="-3.2862770">
        <ele>1055.0</ele>
        <time>2020-09-29T13:49:38Z</time>
      </trkpt>
      <trkpt lat="41.0595500" lon="-3.2862570">
        <ele>1056.0</ele>
        <time>2020-09-29T13:49:39Z</time>
      </trkpt>
      <trkpt lat="41.0595500" lon="-3.2862570">
        <ele>1056.0</ele>
        <time>2020-09-29T13:49:40Z</time>
      </trkpt>
      <trkpt lat="41.0595070" lon="-3.2862380">
        <ele>1056.0</ele>
        <time>2020-09-29T13:49:41Z</time>
      </trkpt>
      <trkpt lat="41.0595070" lon="-3.2862380">
        <ele>1056.0</ele>
        <time>2020-09-29T13:49:42Z</time>
      </trkpt>
      <trkpt lat="41.0594650" lon="-3.2862180">
        <ele>1057.0</ele>
        <time>2020-09-29T13:49:43Z</time>
      </trkpt>
      <trkpt lat="41.0594650" lon="-3.2862180">
        <ele>1057.0</ele>
        <time>2020-09-29T13:49:44Z</time>
      </trkpt>
      <trkpt lat="41.0594220" lon="-3.2862030">
        <ele>1057.0</ele>
        <time>2020-09-29T13:49:45Z</time>
      </trkpt>
      <trkpt lat="41.0594220" lon="-3.2862030">
        <ele>1058.0</ele>
        <time>2020-09-29T13:49:46Z</time>
      </trkpt>
      <trkpt lat="41.0593780" lon="-3.2861870">
        <ele>1058.0</ele>
        <time>2020-09-29T13:49:47Z</time>
      </trkpt>
      <trkpt lat="41.0593780" lon="-3.2861870">
        <ele>1058.0</ele>
        <time>2020-09-29T13:49:48Z</time>
      </trkpt>
      <trkpt lat="41.0593380" lon="-3.2861630">
        <ele>1058.0</ele>
        <time>2020-09-29T13:49:49Z</time>
      </trkpt>
      <trkpt lat="41.0593380" lon="-3.2861630">
        <ele>1058.0</ele>
        <time>2020-09-29T13:49:50Z</time>
      </trkpt>
      <trkpt lat="41.0592970" lon="-3.2861480">
        <ele>1059.0</ele>
        <time>2020-09-29T13:49:51Z</time>
      </trkpt>
      <trkpt lat="41.0592970" lon="-3.2861480">
        <ele>1059.0</ele>
        <time>2020-09-29T13:49:52Z</time>
      </trkpt>
      <trkpt lat="41.0592530" lon="-3.2861320">
        <ele>1059.0</ele>
        <time>2020-09-29T13:49:53Z</time>
      </trkpt>
      <trkpt lat="41.0592320" lon="-3.2861220">
        <ele>1059.0</ele>
        <time>2020-09-29T13:49:54Z</time>
      </trkpt>
      <trkpt lat="41.0592320" lon="-3.2861220">
        <ele>1060.0</ele>
        <time>2020-09-29T13:49:55Z</time>
      </trkpt>
      <trkpt lat="41.0591830" lon="-3.2861050">
        <ele>1060.0</ele>
        <time>2020-09-29T13:49:56Z</time>
      </trkpt>
      <trkpt lat="41.0591830" lon="-3.2861050">
        <ele>1060.0</ele>
        <time>2020-09-29T13:49:57Z</time>
      </trkpt>
      <trkpt lat="41.0591380" lon="-3.2860820">
        <ele>1060.0</ele>
        <time>2020-09-29T13:49:58Z</time>
      </trkpt>
      <trkpt lat="41.0591380" lon="-3.2860820">
        <ele>1060.0</ele>
        <time>2020-09-29T13:49:59Z</time>
      </trkpt>
      <trkpt lat="41.0590980" lon="-3.2860680">
        <ele>1060.0</ele>
        <time>2020-09-29T13:50:00Z</time>
      </trkpt>
      <trkpt lat="41.0590770" lon="-3.2860620">
        <ele>1061.0</ele>
        <time>2020-09-29T13:50:01Z</time>
      </trkpt>
      <trkpt lat="41.0590550" lon="-3.2860530">
        <ele>1061.0</ele>
        <time>2020-09-29T13:50:02Z</time>
      </trkpt>
      <trkpt lat="41.0590550" lon="-3.2860530">
        <ele>1061.0</ele>
        <time>2020-09-29T13:50:03Z</time>
      </trkpt>
      <trkpt lat="41.0590100" lon="-3.2860370">
        <ele>1061.0</ele>
        <time>2020-09-29T13:50:04Z</time>
      </trkpt>
      <trkpt lat="41.0589880" lon="-3.2860300">
        <ele>1062.0</ele>
        <time>2020-09-29T13:50:05Z</time>
      </trkpt>
      <trkpt lat="41.0589880" lon="-3.2860300">
        <ele>1062.0</ele>
        <time>2020-09-29T13:50:06Z</time>
      </trkpt>
      <trkpt lat="41.0589400" lon="-3.2860200">
        <ele>1062.0</ele>
        <time>2020-09-29T13:50:07Z</time>
      </trkpt>
      <trkpt lat="41.0589400" lon="-3.2860200">
        <ele>1062.0</ele>
        <time>2020-09-29T13:50:08Z</time>
      </trkpt>
      <trkpt lat="41.0588930" lon="-3.2860170">
        <ele>1062.0</ele>
        <time>2020-09-29T13:50:09Z</time>
      </trkpt>
      <trkpt lat="41.0588930" lon="-3.2860170">
        <ele>1062.0</ele>
        <time>2020-09-29T13:50:10Z</time>
      </trkpt>
      <trkpt lat="41.0588470" lon="-3.2860170">
        <ele>1063.0</ele>
        <time>2020-09-29T13:50:11Z</time>
      </trkpt>
      <trkpt lat="41.0588470" lon="-3.2860170">
        <ele>1063.0</ele>
        <time>2020-09-29T13:50:12Z</time>
      </trkpt>
      <trkpt lat="41.0588000" lon="-3.2860220">
        <ele>1063.0</ele>
        <time>2020-09-29T13:50:13Z</time>
      </trkpt>
      <trkpt lat="41.0588000" lon="-3.2860220">
        <ele>1063.0</ele>
        <time>2020-09-29T13:50:14Z</time>
      </trkpt>
      <trkpt lat="41.0587530" lon="-3.2860230">
        <ele>1063.0</ele>
        <time>2020-09-29T13:50:15Z</time>
      </trkpt>
      <trkpt lat="41.0587530" lon="-3.2860230">
        <ele>1063.0</ele>
        <time>2020-09-29T13:50:16Z</time>
      </trkpt>
      <trkpt lat="41.0587080" lon="-3.2860270">
        <ele>1064.0</ele>
        <time>2020-09-29T13:50:17Z</time>
      </trkpt>
      <trkpt lat="41.0587080" lon="-3.2860270">
        <ele>1064.0</ele>
        <time>2020-09-29T13:50:18Z</time>
      </trkpt>
      <trkpt lat="41.0586620" lon="-3.2860370">
        <ele>1064.0</ele>
        <time>2020-09-29T13:50:19Z</time>
      </trkpt>
      <trkpt lat="41.0586620" lon="-3.2860370">
        <ele>1064.0</ele>
        <time>2020-09-29T13:50:20Z</time>
      </trkpt>
      <trkpt lat="41.0586170" lon="-3.2860450">
        <ele>1065.0</ele>
        <time>2020-09-29T13:50:21Z</time>
      </trkpt>
      <trkpt lat="41.0586170" lon="-3.2860450">
        <ele>1065.0</ele>
        <time>2020-09-29T13:50:22Z</time>
      </trkpt>
      <trkpt lat="41.0585720" lon="-3.2860520">
        <ele>1065.0</ele>
        <time>2020-09-29T13:50:23Z</time>
      </trkpt>
      <trkpt lat="41.0585720" lon="-3.2860520">
        <ele>1066.0</ele>
        <time>2020-09-29T13:50:24Z</time>
      </trkpt>
      <trkpt lat="41.0585270" lon="-3.2860570">
        <ele>1066.0</ele>
        <time>2020-09-29T13:50:25Z</time>
      </trkpt>
      <trkpt lat="41.0585270" lon="-3.2860570">
        <ele>1066.0</ele>
        <time>2020-09-29T13:50:26Z</time>
      </trkpt>
      <trkpt lat="41.0584820" lon="-3.2860620">
        <ele>1066.0</ele>
        <time>2020-09-29T13:50:27Z</time>
      </trkpt>
      <trkpt lat="41.0584600" lon="-3.2860620">
        <ele>1067.0</ele>
        <time>2020-09-29T13:50:28Z</time>
      </trkpt>
      <trkpt lat="41.0584600" lon="-3.2860620">
        <ele>1067.0</ele>
        <time>2020-09-29T13:50:29Z</time>
      </trkpt>
      <trkpt lat="41.0584130" lon="-3.2860680">
        <ele>1067.0</ele>
        <time>2020-09-29T13:50:30Z</time>
      </trkpt>
      <trkpt lat="41.0584130" lon="-3.2860680">
        <ele>1067.0</ele>
        <time>2020-09-29T13:50:31Z</time>
      </trkpt>
      <trkpt lat="41.0583650" lon="-3.2860800">
        <ele>1067.0</ele>
        <time>2020-09-29T13:50:32Z</time>
      </trkpt>
      <trkpt lat="41.0583650" lon="-3.2860800">
        <ele>1067.0</ele>
        <time>2020-09-29T13:50:33Z</time>
      </trkpt>
      <trkpt lat="41.0583180" lon="-3.2860950">
        <ele>1067.0</ele>
        <time>2020-09-29T13:50:34Z</time>
      </trkpt>
      <trkpt lat="41.0582950" lon="-3.2860950">
        <ele>1067.0</ele>
        <time>2020-09-29T13:50:35Z</time>
      </trkpt>
      <trkpt lat="41.0582950" lon="-3.2860950">
        <ele>1068.0</ele>
        <time>2020-09-29T13:50:36Z</time>
      </trkpt>
      <trkpt lat="41.0582550" lon="-3.2860930">
        <ele>1068.0</ele>
        <time>2020-09-29T13:50:37Z</time>
      </trkpt>
      <trkpt lat="41.0582550" lon="-3.2860930">
        <ele>1068.0</ele>
        <time>2020-09-29T13:50:38Z</time>
      </trkpt>
      <trkpt lat="41.0582100" lon="-3.2861020">
        <ele>1068.0</ele>
        <time>2020-09-29T13:50:39Z</time>
      </trkpt>
      <trkpt lat="41.0582100" lon="-3.2861020">
        <ele>1069.0</ele>
        <time>2020-09-29T13:50:40Z</time>
      </trkpt>
      <trkpt lat="41.0581670" lon="-3.2861080">
        <ele>1069.0</ele>
        <time>2020-09-29T13:50:41Z</time>
      </trkpt>
      <trkpt lat="41.0581450" lon="-3.2861080">
        <ele>1069.0</ele>
        <time>2020-09-29T13:50:42Z</time>
      </trkpt>
      <trkpt lat="41.0581450" lon="-3.2861080">
        <ele>1069.0</ele>
        <time>2020-09-29T13:50:43Z</time>
      </trkpt>
      <trkpt lat="41.0581000" lon="-3.2861020">
        <ele>1070.0</ele>
        <time>2020-09-29T13:50:44Z</time>
      </trkpt>
      <trkpt lat="41.0581000" lon="-3.2861020">
        <ele>1070.0</ele>
        <time>2020-09-29T13:50:45Z</time>
      </trkpt>
      <trkpt lat="41.0580530" lon="-3.2860970">
        <ele>1070.0</ele>
        <time>2020-09-29T13:50:46Z</time>
      </trkpt>
      <trkpt lat="41.0580300" lon="-3.2860950">
        <ele>1070.0</ele>
        <time>2020-09-29T13:50:47Z</time>
      </trkpt>
      <trkpt lat="41.0580300" lon="-3.2860950">
        <ele>1071.0</ele>
        <time>2020-09-29T13:50:48Z</time>
      </trkpt>
      <trkpt lat="41.0579830" lon="-3.2860880">
        <ele>1071.0</ele>
        <time>2020-09-29T13:50:49Z</time>
      </trkpt>
      <trkpt lat="41.0579830" lon="-3.2860880">
        <ele>1071.0</ele>
        <time>2020-09-29T13:50:50Z</time>
      </trkpt>
      <trkpt lat="41.0579330" lon="-3.2860780">
        <ele>1071.0</ele>
        <time>2020-09-29T13:50:51Z</time>
      </trkpt>
      <trkpt lat="41.0579080" lon="-3.2860720">
        <ele>1071.0</ele>
        <time>2020-09-29T13:50:52Z</time>
      </trkpt>
      <trkpt lat="41.0579080" lon="-3.2860720">
        <ele>1072.0</ele>
        <time>2020-09-29T13:50:53Z</time>
      </trkpt>
      <trkpt lat="41.0578580" lon="-3.2860580">
        <ele>1072.0</ele>
        <time>2020-09-29T13:50:54Z</time>
      </trkpt>
      <trkpt lat="41.0578320" lon="-3.2860500">
        <ele>1072.0</ele>
        <time>2020-09-29T13:50:55Z</time>
      </trkpt>
      <trkpt lat="41.0578320" lon="-3.2860500">
        <ele>1072.0</ele>
        <time>2020-09-29T13:50:56Z</time>
      </trkpt>
      <trkpt lat="41.0577770" lon="-3.2860320">
        <ele>1072.0</ele>
        <time>2020-09-29T13:50:57Z</time>
      </trkpt>
      <trkpt lat="41.0577770" lon="-3.2860320">
        <ele>1072.0</ele>
        <time>2020-09-29T13:50:58Z</time>
      </trkpt>
      <trkpt lat="41.0577250" lon="-3.2860120">
        <ele>1072.0</ele>
        <time>2020-09-29T13:50:59Z</time>
      </trkpt>
      <trkpt lat="41.0576980" lon="-3.2859970">
        <ele>1072.0</ele>
        <time>2020-09-29T13:51:00Z</time>
      </trkpt>
      <trkpt lat="41.0576730" lon="-3.2859850">
        <ele>1073.0</ele>
        <time>2020-09-29T13:51:01Z</time>
      </trkpt>
      <trkpt lat="41.0576730" lon="-3.2859850">
        <ele>1073.0</ele>
        <time>2020-09-29T13:51:02Z</time>
      </trkpt>
      <trkpt lat="41.0576270" lon="-3.2859570">
        <ele>1073.0</ele>
        <time>2020-09-29T13:51:03Z</time>
      </trkpt>
      <trkpt lat="41.0576020" lon="-3.2859450">
        <ele>1073.0</ele>
        <time>2020-09-29T13:51:04Z</time>
      </trkpt>
      <trkpt lat="41.0576020" lon="-3.2859450">
        <ele>1073.0</ele>
        <time>2020-09-29T13:51:05Z</time>
      </trkpt>
      <trkpt lat="41.0575500" lon="-3.2859220">
        <ele>1073.0</ele>
        <time>2020-09-29T13:51:06Z</time>
      </trkpt>
      <trkpt lat="41.0575500" lon="-3.2859220">
        <ele>1073.0</ele>
        <time>2020-09-29T13:51:07Z</time>
      </trkpt>
      <trkpt lat="41.0574970" lon="-3.2858980">
        <ele>1073.0</ele>
        <time>2020-09-29T13:51:08Z</time>
      </trkpt>
      <trkpt lat="41.0574970" lon="-3.2858980">
        <ele>1074.0</ele>
        <time>2020-09-29T13:51:09Z</time>
      </trkpt>
      <trkpt lat="41.0574420" lon="-3.2858730">
        <ele>1074.0</ele>
        <time>2020-09-29T13:51:10Z</time>
      </trkpt>
      <trkpt lat="41.0574420" lon="-3.2858730">
        <ele>1074.0</ele>
        <time>2020-09-29T13:51:11Z</time>
      </trkpt>
      <trkpt lat="41.0573900" lon="-3.2858470">
        <ele>1074.0</ele>
        <time>2020-09-29T13:51:12Z</time>
      </trkpt>
      <trkpt lat="41.0573900" lon="-3.2858470">
        <ele>1074.0</ele>
        <time>2020-09-29T13:51:13Z</time>
      </trkpt>
      <trkpt lat="41.0573370" lon="-3.2858170">
        <ele>1074.0</ele>
        <time>2020-09-29T13:51:14Z</time>
      </trkpt>
      <trkpt lat="41.0573370" lon="-3.2858170">
        <ele>1075.0</ele>
        <time>2020-09-29T13:51:15Z</time>
      </trkpt>
      <trkpt lat="41.0572830" lon="-3.2857880">
        <ele>1075.0</ele>
        <time>2020-09-29T13:51:16Z</time>
      </trkpt>
      <trkpt lat="41.0572830" lon="-3.2857880">
        <ele>1075.0</ele>
        <time>2020-09-29T13:51:17Z</time>
      </trkpt>
      <trkpt lat="41.0572320" lon="-3.2857630">
        <ele>1075.0</ele>
        <time>2020-09-29T13:51:18Z</time>
      </trkpt>
      <trkpt lat="41.0572050" lon="-3.2857500">
        <ele>1075.0</ele>
        <time>2020-09-29T13:51:19Z</time>
      </trkpt>
      <trkpt lat="41.0572050" lon="-3.2857500">
        <ele>1075.0</ele>
        <time>2020-09-29T13:51:20Z</time>
      </trkpt>
      <trkpt lat="41.0571520" lon="-3.2857250">
        <ele>1076.0</ele>
        <time>2020-09-29T13:51:21Z</time>
      </trkpt>
      <trkpt lat="41.0571270" lon="-3.2857120">
        <ele>1076.0</ele>
        <time>2020-09-29T13:51:22Z</time>
      </trkpt>
      <trkpt lat="41.0571270" lon="-3.2857120">
        <ele>1076.0</ele>
        <time>2020-09-29T13:51:23Z</time>
      </trkpt>
      <trkpt lat="41.0570730" lon="-3.2856900">
        <ele>1076.0</ele>
        <time>2020-09-29T13:51:24Z</time>
      </trkpt>
      <trkpt lat="41.0570470" lon="-3.2856780">
        <ele>1076.0</ele>
        <time>2020-09-29T13:51:25Z</time>
      </trkpt>
      <trkpt lat="41.0570470" lon="-3.2856780">
        <ele>1076.0</ele>
        <time>2020-09-29T13:51:26Z</time>
      </trkpt>
      <trkpt lat="41.0569900" lon="-3.2856530">
        <ele>1076.0</ele>
        <time>2020-09-29T13:51:27Z</time>
      </trkpt>
      <trkpt lat="41.0569900" lon="-3.2856530">
        <ele>1076.0</ele>
        <time>2020-09-29T13:51:28Z</time>
      </trkpt>
      <trkpt lat="41.0569330" lon="-3.2856270">
        <ele>1076.0</ele>
        <time>2020-09-29T13:51:29Z</time>
      </trkpt>
      <trkpt lat="41.0569330" lon="-3.2856270">
        <ele>1076.0</ele>
        <time>2020-09-29T13:51:30Z</time>
      </trkpt>
      <trkpt lat="41.0568750" lon="-3.2855900">
        <ele>1077.0</ele>
        <time>2020-09-29T13:51:31Z</time>
      </trkpt>
      <trkpt lat="41.0568750" lon="-3.2855900">
        <ele>1077.0</ele>
        <time>2020-09-29T13:51:32Z</time>
      </trkpt>
      <trkpt lat="41.0568020" lon="-3.2855600">
        <ele>1077.0</ele>
        <time>2020-09-29T13:51:33Z</time>
      </trkpt>
      <trkpt lat="41.0568020" lon="-3.2855600">
        <ele>1077.0</ele>
        <time>2020-09-29T13:51:34Z</time>
      </trkpt>
      <trkpt lat="41.0567180" lon="-3.2855200">
        <ele>1077.0</ele>
        <time>2020-09-29T13:51:35Z</time>
      </trkpt>
      <trkpt lat="41.0566780" lon="-3.2854980">
        <ele>1077.0</ele>
        <time>2020-09-29T13:51:36Z</time>
      </trkpt>
      <trkpt lat="41.0566350" lon="-3.2854770">
        <ele>1077.0</ele>
        <time>2020-09-29T13:51:37Z</time>
      </trkpt>
      <trkpt lat="41.0566350" lon="-3.2854770">
        <ele>1077.0</ele>
        <time>2020-09-29T13:51:38Z</time>
      </trkpt>
      <trkpt lat="41.0565400" lon="-3.2854350">
        <ele>1077.0</ele>
        <time>2020-09-29T13:51:39Z</time>
      </trkpt>
      <trkpt lat="41.0565400" lon="-3.2854350">
        <ele>1077.0</ele>
        <time>2020-09-29T13:51:40Z</time>
      </trkpt>
      <trkpt lat="41.0564370" lon="-3.2853920">
        <ele>1077.0</ele>
        <time>2020-09-29T13:51:41Z</time>
      </trkpt>
      <trkpt lat="41.0563830" lon="-3.2853670">
        <ele>1077.0</ele>
        <time>2020-09-29T13:51:42Z</time>
      </trkpt>
      <trkpt lat="41.0563320" lon="-3.2853380">
        <ele>1077.0</ele>
        <time>2020-09-29T13:51:43Z</time>
      </trkpt>
      <trkpt lat="41.0563320" lon="-3.2853380">
        <ele>1077.0</ele>
        <time>2020-09-29T13:51:44Z</time>
      </trkpt>
      <trkpt lat="41.0562220" lon="-3.2852880">
        <ele>1077.0</ele>
        <time>2020-09-29T13:51:45Z</time>
      </trkpt>
      <trkpt lat="41.0561630" lon="-3.2852650">
        <ele>1077.0</ele>
        <time>2020-09-29T13:51:46Z</time>
      </trkpt>
      <trkpt lat="41.0561630" lon="-3.2852650">
        <ele>1077.0</ele>
        <time>2020-09-29T13:51:47Z</time>
      </trkpt>
      <trkpt lat="41.0560420" lon="-3.2852200">
        <ele>1076.0</ele>
        <time>2020-09-29T13:51:48Z</time>
      </trkpt>
      <trkpt lat="41.0560420" lon="-3.2852200">
        <ele>1076.0</ele>
        <time>2020-09-29T13:51:49Z</time>
      </trkpt>
      <trkpt lat="41.0559070" lon="-3.2851680">
        <ele>1075.0</ele>
        <time>2020-09-29T13:51:50Z</time>
      </trkpt>
      <trkpt lat="41.0559070" lon="-3.2851680">
        <ele>1075.0</ele>
        <time>2020-09-29T13:51:51Z</time>
      </trkpt>
      <trkpt lat="41.0557620" lon="-3.2851150">
        <ele>1074.0</ele>
        <time>2020-09-29T13:51:52Z</time>
      </trkpt>
      <trkpt lat="41.0557620" lon="-3.2851150">
        <ele>1074.0</ele>
        <time>2020-09-29T13:51:53Z</time>
      </trkpt>
      <trkpt lat="41.0556050" lon="-3.2850680">
        <ele>1073.0</ele>
        <time>2020-09-29T13:51:54Z</time>
      </trkpt>
      <trkpt lat="41.0556050" lon="-3.2850680">
        <ele>1073.0</ele>
        <time>2020-09-29T13:51:55Z</time>
      </trkpt>
      <trkpt lat="41.0554330" lon="-3.2850170">
        <ele>1072.0</ele>
        <time>2020-09-29T13:51:56Z</time>
      </trkpt>
      <trkpt lat="41.0554330" lon="-3.2850170">
        <ele>1072.0</ele>
        <time>2020-09-29T13:51:57Z</time>
      </trkpt>
      <trkpt lat="41.0552520" lon="-3.2849680">
        <ele>1071.0</ele>
        <time>2020-09-29T13:51:58Z</time>
      </trkpt>
      <trkpt lat="41.0552520" lon="-3.2849680">
        <ele>1071.0</ele>
        <time>2020-09-29T13:51:59Z</time>
      </trkpt>
      <trkpt lat="41.0550570" lon="-3.2849080">
        <ele>1071.0</ele>
        <time>2020-09-29T13:52:00Z</time>
      </trkpt>
      <trkpt lat="41.0549550" lon="-3.2848770">
        <ele>1070.0</ele>
        <time>2020-09-29T13:52:01Z</time>
      </trkpt>
      <trkpt lat="41.0549550" lon="-3.2848770">
        <ele>1068.0</ele>
        <time>2020-09-29T13:52:02Z</time>
      </trkpt>
      <trkpt lat="41.0547530" lon="-3.2848100">
        <ele>1068.0</ele>
        <time>2020-09-29T13:52:03Z</time>
      </trkpt>
      <trkpt lat="41.0546530" lon="-3.2847780">
        <ele>1068.0</ele>
        <time>2020-09-29T13:52:04Z</time>
      </trkpt>
      <trkpt lat="41.0546530" lon="-3.2847780">
        <ele>1067.0</ele>
        <time>2020-09-29T13:52:05Z</time>
      </trkpt>
      <trkpt lat="41.0544600" lon="-3.2847270">
        <ele>1067.0</ele>
        <time>2020-09-29T13:52:06Z</time>
      </trkpt>
      <trkpt lat="41.0543650" lon="-3.2847030">
        <ele>1067.0</ele>
        <time>2020-09-29T13:52:07Z</time>
      </trkpt>
      <trkpt lat="41.0543650" lon="-3.2847030">
        <ele>1066.0</ele>
        <time>2020-09-29T13:52:08Z</time>
      </trkpt>
      <trkpt lat="41.0541820" lon="-3.2846600">
        <ele>1066.0</ele>
        <time>2020-09-29T13:52:09Z</time>
      </trkpt>
      <trkpt lat="41.0541820" lon="-3.2846600">
        <ele>1066.0</ele>
        <time>2020-09-29T13:52:10Z</time>
      </trkpt>
      <trkpt lat="41.0540030" lon="-3.2846170">
        <ele>1066.0</ele>
        <time>2020-09-29T13:52:11Z</time>
      </trkpt>
      <trkpt lat="41.0539150" lon="-3.2845970">
        <ele>1065.0</ele>
        <time>2020-09-29T13:52:12Z</time>
      </trkpt>
      <trkpt lat="41.0539150" lon="-3.2845970">
        <ele>1065.0</ele>
        <time>2020-09-29T13:52:13Z</time>
      </trkpt>
      <trkpt lat="41.0537370" lon="-3.2845570">
        <ele>1065.0</ele>
        <time>2020-09-29T13:52:14Z</time>
      </trkpt>
      <trkpt lat="41.0537370" lon="-3.2845570">
        <ele>1065.0</ele>
        <time>2020-09-29T13:52:15Z</time>
      </trkpt>
      <trkpt lat="41.0535580" lon="-3.2845250">
        <ele>1064.0</ele>
        <time>2020-09-29T13:52:16Z</time>
      </trkpt>
      <trkpt lat="41.0535580" lon="-3.2845250">
        <ele>1064.0</ele>
        <time>2020-09-29T13:52:17Z</time>
      </trkpt>
      <trkpt lat="41.0533800" lon="-3.2845030">
        <ele>1063.0</ele>
        <time>2020-09-29T13:52:18Z</time>
      </trkpt>
      <trkpt lat="41.0533800" lon="-3.2845030">
        <ele>1063.0</ele>
        <time>2020-09-29T13:52:19Z</time>
      </trkpt>
      <trkpt lat="41.0532050" lon="-3.2844850">
        <ele>1063.0</ele>
        <time>2020-09-29T13:52:20Z</time>
      </trkpt>
      <trkpt lat="41.0532050" lon="-3.2844850">
        <ele>1063.0</ele>
        <time>2020-09-29T13:52:21Z</time>
      </trkpt>
      <trkpt lat="41.0530420" lon="-3.2844730">
        <ele>1062.0</ele>
        <time>2020-09-29T13:52:22Z</time>
      </trkpt>
      <trkpt lat="41.0530420" lon="-3.2844730">
        <ele>1062.0</ele>
        <time>2020-09-29T13:52:23Z</time>
      </trkpt>
      <trkpt lat="41.0528850" lon="-3.2844630">
        <ele>1062.0</ele>
        <time>2020-09-29T13:52:24Z</time>
      </trkpt>
      <trkpt lat="41.0528080" lon="-3.2844530">
        <ele>1062.0</ele>
        <time>2020-09-29T13:52:25Z</time>
      </trkpt>
      <trkpt lat="41.0528080" lon="-3.2844530">
        <ele>1062.0</ele>
        <time>2020-09-29T13:52:26Z</time>
      </trkpt>
      <trkpt lat="41.0526580" lon="-3.2844370">
        <ele>1062.0</ele>
        <time>2020-09-29T13:52:27Z</time>
      </trkpt>
      <trkpt lat="41.0526580" lon="-3.2844370">
        <ele>1062.0</ele>
        <time>2020-09-29T13:52:28Z</time>
      </trkpt>
      <trkpt lat="41.0525170" lon="-3.2844230">
        <ele>1062.0</ele>
        <time>2020-09-29T13:52:29Z</time>
      </trkpt>
      <trkpt lat="41.0525170" lon="-3.2844230">
        <ele>1062.0</ele>
        <time>2020-09-29T13:52:30Z</time>
      </trkpt>
      <trkpt lat="41.0523830" lon="-3.2844050">
        <ele>1062.0</ele>
        <time>2020-09-29T13:52:31Z</time>
      </trkpt>
      <trkpt lat="41.0523830" lon="-3.2844050">
        <ele>1062.0</ele>
        <time>2020-09-29T13:52:32Z</time>
      </trkpt>
      <trkpt lat="41.0522570" lon="-3.2843800">
        <ele>1062.0</ele>
        <time>2020-09-29T13:52:33Z</time>
      </trkpt>
      <trkpt lat="41.0522570" lon="-3.2843800">
        <ele>1062.0</ele>
        <time>2020-09-29T13:52:34Z</time>
      </trkpt>
      <trkpt lat="41.0521330" lon="-3.2843570">
        <ele>1062.0</ele>
        <time>2020-09-29T13:52:35Z</time>
      </trkpt>
      <trkpt lat="41.0521330" lon="-3.2843570">
        <ele>1062.0</ele>
        <time>2020-09-29T13:52:36Z</time>
      </trkpt>
      <trkpt lat="41.0520120" lon="-3.2843320">
        <ele>1062.0</ele>
        <time>2020-09-29T13:52:37Z</time>
      </trkpt>
      <trkpt lat="41.0520120" lon="-3.2843320">
        <ele>1062.0</ele>
        <time>2020-09-29T13:52:38Z</time>
      </trkpt>
      <trkpt lat="41.0518880" lon="-3.2843070">
        <ele>1062.0</ele>
        <time>2020-09-29T13:52:39Z</time>
      </trkpt>
      <trkpt lat="41.0518250" lon="-3.2842970">
        <ele>1062.0</ele>
        <time>2020-09-29T13:52:40Z</time>
      </trkpt>
      <trkpt lat="41.0518250" lon="-3.2842970">
        <ele>1062.0</ele>
        <time>2020-09-29T13:52:41Z</time>
      </trkpt>
      <trkpt lat="41.0516970" lon="-3.2842880">
        <ele>1062.0</ele>
        <time>2020-09-29T13:52:42Z</time>
      </trkpt>
      <trkpt lat="41.0516320" lon="-3.2842930">
        <ele>1062.0</ele>
        <time>2020-09-29T13:52:43Z</time>
      </trkpt>
      <trkpt lat="41.0516320" lon="-3.2842930">
        <ele>1062.0</ele>
        <time>2020-09-29T13:52:44Z</time>
      </trkpt>
      <trkpt lat="41.0515000" lon="-3.2843000">
        <ele>1062.0</ele>
        <time>2020-09-29T13:52:45Z</time>
      </trkpt>
      <trkpt lat="41.0515000" lon="-3.2843000">
        <ele>1062.0</ele>
        <time>2020-09-29T13:52:46Z</time>
      </trkpt>
      <trkpt lat="41.0513680" lon="-3.2843250">
        <ele>1062.0</ele>
        <time>2020-09-29T13:52:47Z</time>
      </trkpt>
      <trkpt lat="41.0513030" lon="-3.2843380">
        <ele>1062.0</ele>
        <time>2020-09-29T13:52:48Z</time>
      </trkpt>
      <trkpt lat="41.0513030" lon="-3.2843380">
        <ele>1062.0</ele>
        <time>2020-09-29T13:52:49Z</time>
      </trkpt>
      <trkpt lat="41.0511800" lon="-3.2843770">
        <ele>1062.0</ele>
        <time>2020-09-29T13:52:50Z</time>
      </trkpt>
      <trkpt lat="41.0511800" lon="-3.2843770">
        <ele>1062.0</ele>
        <time>2020-09-29T13:52:51Z</time>
      </trkpt>
      <trkpt lat="41.0510650" lon="-3.2844200">
        <ele>1062.0</ele>
        <time>2020-09-29T13:52:52Z</time>
      </trkpt>
      <trkpt lat="41.0510650" lon="-3.2844200">
        <ele>1062.0</ele>
        <time>2020-09-29T13:52:53Z</time>
      </trkpt>
      <trkpt lat="41.0509480" lon="-3.2844580">
        <ele>1062.0</ele>
        <time>2020-09-29T13:52:54Z</time>
      </trkpt>
      <trkpt lat="41.0508880" lon="-3.2844730">
        <ele>1062.0</ele>
        <time>2020-09-29T13:52:55Z</time>
      </trkpt>
      <trkpt lat="41.0508880" lon="-3.2844730">
        <ele>1062.0</ele>
        <time>2020-09-29T13:52:56Z</time>
      </trkpt>
      <trkpt lat="41.0507650" lon="-3.2845080">
        <ele>1062.0</ele>
        <time>2020-09-29T13:52:57Z</time>
      </trkpt>
      <trkpt lat="41.0507650" lon="-3.2845080">
        <ele>1062.0</ele>
        <time>2020-09-29T13:52:58Z</time>
      </trkpt>
      <trkpt lat="41.0506320" lon="-3.2845420">
        <ele>1062.0</ele>
        <time>2020-09-29T13:52:59Z</time>
      </trkpt>
      <trkpt lat="41.0506320" lon="-3.2845420">
        <ele>1062.0</ele>
        <time>2020-09-29T13:53:00Z</time>
      </trkpt>
      <trkpt lat="41.0504900" lon="-3.2845670">
        <ele>1061.0</ele>
        <time>2020-09-29T13:53:01Z</time>
      </trkpt>
      <trkpt lat="41.0504900" lon="-3.2845670">
        <ele>1061.0</ele>
        <time>2020-09-29T13:53:02Z</time>
      </trkpt>
      <trkpt lat="41.0503400" lon="-3.2845920">
        <ele>1061.0</ele>
        <time>2020-09-29T13:53:03Z</time>
      </trkpt>
      <trkpt lat="41.0503400" lon="-3.2845920">
        <ele>1061.0</ele>
        <time>2020-09-29T13:53:04Z</time>
      </trkpt>
      <trkpt lat="41.0501850" lon="-3.2846250">
        <ele>1060.0</ele>
        <time>2020-09-29T13:53:05Z</time>
      </trkpt>
      <trkpt lat="41.0501850" lon="-3.2846250">
        <ele>1060.0</ele>
        <time>2020-09-29T13:53:06Z</time>
      </trkpt>
      <trkpt lat="41.0500180" lon="-3.2846620">
        <ele>1060.0</ele>
        <time>2020-09-29T13:53:07Z</time>
      </trkpt>
      <trkpt lat="41.0499330" lon="-3.2846780">
        <ele>1060.0</ele>
        <time>2020-09-29T13:53:08Z</time>
      </trkpt>
      <trkpt lat="41.0499330" lon="-3.2846780">
        <ele>1058.0</ele>
        <time>2020-09-29T13:53:09Z</time>
      </trkpt>
      <trkpt lat="41.0497620" lon="-3.2847150">
        <ele>1058.0</ele>
        <time>2020-09-29T13:53:10Z</time>
      </trkpt>
      <trkpt lat="41.0497620" lon="-3.2847150">
        <ele>1058.0</ele>
        <time>2020-09-29T13:53:11Z</time>
      </trkpt>
      <trkpt lat="41.0495850" lon="-3.2847570">
        <ele>1058.0</ele>
        <time>2020-09-29T13:53:12Z</time>
      </trkpt>
      <trkpt lat="41.0494970" lon="-3.2847770">
        <ele>1057.0</ele>
        <time>2020-09-29T13:53:13Z</time>
      </trkpt>
      <trkpt lat="41.0494970" lon="-3.2847770">
        <ele>1057.0</ele>
        <time>2020-09-29T13:53:14Z</time>
      </trkpt>
      <trkpt lat="41.0493100" lon="-3.2848200">
        <ele>1057.0</ele>
        <time>2020-09-29T13:53:15Z</time>
      </trkpt>
      <trkpt lat="41.0493100" lon="-3.2848200">
        <ele>1056.0</ele>
        <time>2020-09-29T13:53:16Z</time>
      </trkpt>
      <trkpt lat="41.0491170" lon="-3.2848580">
        <ele>1056.0</ele>
        <time>2020-09-29T13:53:17Z</time>
      </trkpt>
      <trkpt lat="41.0491170" lon="-3.2848580">
        <ele>1056.0</ele>
        <time>2020-09-29T13:53:18Z</time>
      </trkpt>
      <trkpt lat="41.0489180" lon="-3.2849020">
        <ele>1055.0</ele>
        <time>2020-09-29T13:53:19Z</time>
      </trkpt>
      <trkpt lat="41.0489180" lon="-3.2849020">
        <ele>1054.0</ele>
        <time>2020-09-29T13:53:20Z</time>
      </trkpt>
      <trkpt lat="41.0487180" lon="-3.2849450">
        <ele>1054.0</ele>
        <time>2020-09-29T13:53:21Z</time>
      </trkpt>
      <trkpt lat="41.0487180" lon="-3.2849450">
        <ele>1053.0</ele>
        <time>2020-09-29T13:53:22Z</time>
      </trkpt>
      <trkpt lat="41.0484270" lon="-3.2850070">
        <ele>1053.0</ele>
        <time>2020-09-29T13:53:23Z</time>
      </trkpt>
      <trkpt lat="41.0484270" lon="-3.2850070">
        <ele>1053.0</ele>
        <time>2020-09-29T13:53:24Z</time>
      </trkpt>
      <trkpt lat="41.0483320" lon="-3.2850230">
        <ele>1053.0</ele>
        <time>2020-09-29T13:53:25Z</time>
      </trkpt>
      <trkpt lat="41.0483320" lon="-3.2850230">
        <ele>1052.0</ele>
        <time>2020-09-29T13:53:26Z</time>
      </trkpt>
      <trkpt lat="41.0481520" lon="-3.2850600">
        <ele>1052.0</ele>
        <time>2020-09-29T13:53:27Z</time>
      </trkpt>
      <trkpt lat="41.0481520" lon="-3.2850600">
        <ele>1052.0</ele>
        <time>2020-09-29T13:53:28Z</time>
      </trkpt>
      <trkpt lat="41.0479870" lon="-3.2850980">
        <ele>1052.0</ele>
        <time>2020-09-29T13:53:29Z</time>
      </trkpt>
      <trkpt lat="41.0479870" lon="-3.2850980">
        <ele>1052.0</ele>
        <time>2020-09-29T13:53:30Z</time>
      </trkpt>
      <trkpt lat="41.0478320" lon="-3.2851400">
        <ele>1052.0</ele>
        <time>2020-09-29T13:53:31Z</time>
      </trkpt>
      <trkpt lat="41.0477600" lon="-3.2851630">
        <ele>1052.0</ele>
        <time>2020-09-29T13:53:32Z</time>
      </trkpt>
      <trkpt lat="41.0477600" lon="-3.2851630">
        <ele>1052.0</ele>
        <time>2020-09-29T13:53:33Z</time>
      </trkpt>
      <trkpt lat="41.0476220" lon="-3.2852080">
        <ele>1052.0</ele>
        <time>2020-09-29T13:53:34Z</time>
      </trkpt>
      <trkpt lat="41.0475580" lon="-3.2852330">
        <ele>1052.0</ele>
        <time>2020-09-29T13:53:35Z</time>
      </trkpt>
      <trkpt lat="41.0475580" lon="-3.2852330">
        <ele>1052.0</ele>
        <time>2020-09-29T13:53:36Z</time>
      </trkpt>
      <trkpt lat="41.0474280" lon="-3.2852950">
        <ele>1052.0</ele>
        <time>2020-09-29T13:53:37Z</time>
      </trkpt>
      <trkpt lat="41.0474280" lon="-3.2852950">
        <ele>1051.0</ele>
        <time>2020-09-29T13:53:38Z</time>
      </trkpt>
      <trkpt lat="41.0472900" lon="-3.2853620">
        <ele>1051.0</ele>
        <time>2020-09-29T13:53:39Z</time>
      </trkpt>
      <trkpt lat="41.0472170" lon="-3.2853980">
        <ele>1051.0</ele>
        <time>2020-09-29T13:53:40Z</time>
      </trkpt>
      <trkpt lat="41.0472170" lon="-3.2853980">
        <ele>1051.0</ele>
        <time>2020-09-29T13:53:41Z</time>
      </trkpt>
      <trkpt lat="41.0470650" lon="-3.2854730">
        <ele>1051.0</ele>
        <time>2020-09-29T13:53:42Z</time>
      </trkpt>
      <trkpt lat="41.0469870" lon="-3.2855120">
        <ele>1051.0</ele>
        <time>2020-09-29T13:53:43Z</time>
      </trkpt>
      <trkpt lat="41.0469870" lon="-3.2855120">
        <ele>1049.0</ele>
        <time>2020-09-29T13:53:44Z</time>
      </trkpt>
      <trkpt lat="41.0468250" lon="-3.2855880">
        <ele>1049.0</ele>
        <time>2020-09-29T13:53:45Z</time>
      </trkpt>
      <trkpt lat="41.0468250" lon="-3.2855880">
        <ele>1048.0</ele>
        <time>2020-09-29T13:53:46Z</time>
      </trkpt>
      <trkpt lat="41.0466580" lon="-3.2856680">
        <ele>1048.0</ele>
        <time>2020-09-29T13:53:47Z</time>
      </trkpt>
      <trkpt lat="41.0466580" lon="-3.2856680">
        <ele>1047.0</ele>
        <time>2020-09-29T13:53:48Z</time>
      </trkpt>
      <trkpt lat="41.0464770" lon="-3.2857550">
        <ele>1045.0</ele>
        <time>2020-09-29T13:53:49Z</time>
      </trkpt>
      <trkpt lat="41.0463850" lon="-3.2858020">
        <ele>1045.0</ele>
        <time>2020-09-29T13:53:50Z</time>
      </trkpt>
      <trkpt lat="41.0463850" lon="-3.2858020">
        <ele>1045.0</ele>
        <time>2020-09-29T13:53:51Z</time>
      </trkpt>
      <trkpt lat="41.0462000" lon="-3.2858850">
        <ele>1044.0</ele>
        <time>2020-09-29T13:53:52Z</time>
      </trkpt>
      <trkpt lat="41.0462000" lon="-3.2858850">
        <ele>1044.0</ele>
        <time>2020-09-29T13:53:53Z</time>
      </trkpt>
      <trkpt lat="41.0460150" lon="-3.2859330">
        <ele>1043.0</ele>
        <time>2020-09-29T13:53:54Z</time>
      </trkpt>
      <trkpt lat="41.0460150" lon="-3.2859330">
        <ele>1043.0</ele>
        <time>2020-09-29T13:53:55Z</time>
      </trkpt>
      <trkpt lat="41.0458450" lon="-3.2859430">
        <ele>1043.0</ele>
        <time>2020-09-29T13:53:56Z</time>
      </trkpt>
      <trkpt lat="41.0458450" lon="-3.2859430">
        <ele>1043.0</ele>
        <time>2020-09-29T13:53:57Z</time>
      </trkpt>
      <trkpt lat="41.0456930" lon="-3.2859280">
        <ele>1043.0</ele>
        <time>2020-09-29T13:53:58Z</time>
      </trkpt>
      <trkpt lat="41.0456930" lon="-3.2859280">
        <ele>1043.0</ele>
        <time>2020-09-29T13:53:59Z</time>
      </trkpt>
      <trkpt lat="41.0455500" lon="-3.2859030">
        <ele>1044.0</ele>
        <time>2020-09-29T13:54:00Z</time>
      </trkpt>
      <trkpt lat="41.0454800" lon="-3.2858850">
        <ele>1044.0</ele>
        <time>2020-09-29T13:54:01Z</time>
      </trkpt>
      <trkpt lat="41.0454100" lon="-3.2858620">
        <ele>1044.0</ele>
        <time>2020-09-29T13:54:02Z</time>
      </trkpt>
      <trkpt lat="41.0454100" lon="-3.2858620">
        <ele>1044.0</ele>
        <time>2020-09-29T13:54:03Z</time>
      </trkpt>
      <trkpt lat="41.0452700" lon="-3.2857950">
        <ele>1044.0</ele>
        <time>2020-09-29T13:54:04Z</time>
      </trkpt>
      <trkpt lat="41.0452700" lon="-3.2857950">
        <ele>1044.0</ele>
        <time>2020-09-29T13:54:05Z</time>
      </trkpt>
      <trkpt lat="41.0451200" lon="-3.2857150">
        <ele>1043.0</ele>
        <time>2020-09-29T13:54:06Z</time>
      </trkpt>
      <trkpt lat="41.0450400" lon="-3.2856670">
        <ele>1043.0</ele>
        <time>2020-09-29T13:54:07Z</time>
      </trkpt>
      <trkpt lat="41.0450400" lon="-3.2856670">
        <ele>1042.0</ele>
        <time>2020-09-29T13:54:08Z</time>
      </trkpt>
      <trkpt lat="41.0448670" lon="-3.2855670">
        <ele>1042.0</ele>
        <time>2020-09-29T13:54:09Z</time>
      </trkpt>
      <trkpt lat="41.0447730" lon="-3.2855220">
        <ele>1040.0</ele>
        <time>2020-09-29T13:54:10Z</time>
      </trkpt>
      <trkpt lat="41.0447730" lon="-3.2855220">
        <ele>1040.0</ele>
        <time>2020-09-29T13:54:11Z</time>
      </trkpt>
      <trkpt lat="41.0445720" lon="-3.2854320">
        <ele>1039.0</ele>
        <time>2020-09-29T13:54:12Z</time>
      </trkpt>
      <trkpt lat="41.0445720" lon="-3.2854320">
        <ele>1039.0</ele>
        <time>2020-09-29T13:54:13Z</time>
      </trkpt>
      <trkpt lat="41.0443550" lon="-3.2853470">
        <ele>1037.0</ele>
        <time>2020-09-29T13:54:14Z</time>
      </trkpt>
      <trkpt lat="41.0443550" lon="-3.2853470">
        <ele>1037.0</ele>
        <time>2020-09-29T13:54:15Z</time>
      </trkpt>
      <trkpt lat="41.0441200" lon="-3.2852950">
        <ele>1035.0</ele>
        <time>2020-09-29T13:54:16Z</time>
      </trkpt>
      <trkpt lat="41.0440020" lon="-3.2852680">
        <ele>1035.0</ele>
        <time>2020-09-29T13:54:17Z</time>
      </trkpt>
      <trkpt lat="41.0440020" lon="-3.2852680">
        <ele>1033.0</ele>
        <time>2020-09-29T13:54:18Z</time>
      </trkpt>
      <trkpt lat="41.0437600" lon="-3.2851800">
        <ele>1033.0</ele>
        <time>2020-09-29T13:54:19Z</time>
      </trkpt>
      <trkpt lat="41.0436400" lon="-3.2851300">
        <ele>1031.0</ele>
        <time>2020-09-29T13:54:20Z</time>
      </trkpt>
      <trkpt lat="41.0436400" lon="-3.2851300">
        <ele>1031.0</ele>
        <time>2020-09-29T13:54:21Z</time>
      </trkpt>
      <trkpt lat="41.0433880" lon="-3.2850900">
        <ele>1029.0</ele>
        <time>2020-09-29T13:54:22Z</time>
      </trkpt>
      <trkpt lat="41.0432650" lon="-3.2850980">
        <ele>1027.0</ele>
        <time>2020-09-29T13:54:23Z</time>
      </trkpt>
      <trkpt lat="41.0432650" lon="-3.2850980">
        <ele>1027.0</ele>
        <time>2020-09-29T13:54:24Z</time>
      </trkpt>
      <trkpt lat="41.0430180" lon="-3.2850530">
        <ele>1027.0</ele>
        <time>2020-09-29T13:54:25Z</time>
      </trkpt>
      <trkpt lat="41.0430180" lon="-3.2850530">
        <ele>1024.0</ele>
        <time>2020-09-29T13:54:26Z</time>
      </trkpt>
      <trkpt lat="41.0427830" lon="-3.2849280">
        <ele>1024.0</ele>
        <time>2020-09-29T13:54:27Z</time>
      </trkpt>
      <trkpt lat="41.0426580" lon="-3.2848870">
        <ele>1022.0</ele>
        <time>2020-09-29T13:54:28Z</time>
      </trkpt>
      <trkpt lat="41.0426580" lon="-3.2848870">
        <ele>1022.0</ele>
        <time>2020-09-29T13:54:29Z</time>
      </trkpt>
      <trkpt lat="41.0423950" lon="-3.2848750">
        <ele>1020.0</ele>
        <time>2020-09-29T13:54:30Z</time>
      </trkpt>
      <trkpt lat="41.0422630" lon="-3.2848900">
        <ele>1018.0</ele>
        <time>2020-09-29T13:54:31Z</time>
      </trkpt>
      <trkpt lat="41.0422630" lon="-3.2848900">
        <ele>1018.0</ele>
        <time>2020-09-29T13:54:32Z</time>
      </trkpt>
      <trkpt lat="41.0419970" lon="-3.2849270">
        <ele>1016.0</ele>
        <time>2020-09-29T13:54:33Z</time>
      </trkpt>
      <trkpt lat="41.0419970" lon="-3.2849270">
        <ele>1016.0</ele>
        <time>2020-09-29T13:54:34Z</time>
      </trkpt>
      <trkpt lat="41.0417320" lon="-3.2849470">
        <ele>1014.0</ele>
        <time>2020-09-29T13:54:35Z</time>
      </trkpt>
      <trkpt lat="41.0417320" lon="-3.2849470">
        <ele>1014.0</ele>
        <time>2020-09-29T13:54:36Z</time>
      </trkpt>
      <trkpt lat="41.0414700" lon="-3.2849050">
        <ele>1012.0</ele>
        <time>2020-09-29T13:54:37Z</time>
      </trkpt>
      <trkpt lat="41.0414700" lon="-3.2849050">
        <ele>1012.0</ele>
        <time>2020-09-29T13:54:38Z</time>
      </trkpt>
      <trkpt lat="41.0412170" lon="-3.2848130">
        <ele>1011.0</ele>
        <time>2020-09-29T13:54:39Z</time>
      </trkpt>
      <trkpt lat="41.0412170" lon="-3.2848130">
        <ele>1011.0</ele>
        <time>2020-09-29T13:54:40Z</time>
      </trkpt>
      <trkpt lat="41.0409530" lon="-3.2847630">
        <ele>1009.0</ele>
        <time>2020-09-29T13:54:41Z</time>
      </trkpt>
      <trkpt lat="41.0409530" lon="-3.2847630">
        <ele>1009.0</ele>
        <time>2020-09-29T13:54:42Z</time>
      </trkpt>
      <trkpt lat="41.0406850" lon="-3.2847330">
        <ele>1007.0</ele>
        <time>2020-09-29T13:54:43Z</time>
      </trkpt>
      <trkpt lat="41.0406850" lon="-3.2847330">
        <ele>1007.0</ele>
        <time>2020-09-29T13:54:44Z</time>
      </trkpt>
      <trkpt lat="41.0404120" lon="-3.2846620">
        <ele>1005.0</ele>
        <time>2020-09-29T13:54:45Z</time>
      </trkpt>
      <trkpt lat="41.0402770" lon="-3.2846030">
        <ele>1005.0</ele>
        <time>2020-09-29T13:54:46Z</time>
      </trkpt>
      <trkpt lat="41.0401430" lon="-3.2845450">
        <ele>1003.0</ele>
        <time>2020-09-29T13:54:47Z</time>
      </trkpt>
      <trkpt lat="41.0401430" lon="-3.2845450">
        <ele>1003.0</ele>
        <time>2020-09-29T13:54:48Z</time>
      </trkpt>
      <trkpt lat="41.0398750" lon="-3.2844420">
        <ele>1000.0</ele>
        <time>2020-09-29T13:54:49Z</time>
      </trkpt>
      <trkpt lat="41.0398750" lon="-3.2844420">
        <ele>1000.0</ele>
        <time>2020-09-29T13:54:50Z</time>
      </trkpt>
      <trkpt lat="41.0396080" lon="-3.2843800">
        <ele>998.0</ele>
        <time>2020-09-29T13:54:51Z</time>
      </trkpt>
      <trkpt lat="41.0396080" lon="-3.2843800">
        <ele>998.0</ele>
        <time>2020-09-29T13:54:52Z</time>
      </trkpt>
      <trkpt lat="41.0393350" lon="-3.2843520">
        <ele>995.0</ele>
        <time>2020-09-29T13:54:53Z</time>
      </trkpt>
      <trkpt lat="41.0392080" lon="-3.2843730">
        <ele>995.0</ele>
        <time>2020-09-29T13:54:54Z</time>
      </trkpt>
      <trkpt lat="41.0390850" lon="-3.2844250">
        <ele>993.0</ele>
        <time>2020-09-29T13:54:55Z</time>
      </trkpt>
      <trkpt lat="41.0389580" lon="-3.2844730">
        <ele>993.0</ele>
        <time>2020-09-29T13:54:56Z</time>
      </trkpt>
      <trkpt lat="41.0389580" lon="-3.2844730">
        <ele>991.0</ele>
        <time>2020-09-29T13:54:57Z</time>
      </trkpt>
      <trkpt lat="41.0386900" lon="-3.2844530">
        <ele>991.0</ele>
        <time>2020-09-29T13:54:58Z</time>
      </trkpt>
      <trkpt lat="41.0386900" lon="-3.2844530">
        <ele>989.0</ele>
        <time>2020-09-29T13:54:59Z</time>
      </trkpt>
      <trkpt lat="41.0384320" lon="-3.2843150">
        <ele>989.0</ele>
        <time>2020-09-29T13:55:00Z</time>
      </trkpt>
      <trkpt lat="41.0384320" lon="-3.2843150">
        <ele>987.0</ele>
        <time>2020-09-29T13:55:01Z</time>
      </trkpt>
      <trkpt lat="41.0381770" lon="-3.2842420">
        <ele>987.0</ele>
        <time>2020-09-29T13:55:02Z</time>
      </trkpt>
      <trkpt lat="41.0381770" lon="-3.2842420">
        <ele>985.0</ele>
        <time>2020-09-29T13:55:03Z</time>
      </trkpt>
      <trkpt lat="41.0379150" lon="-3.2842950">
        <ele>985.0</ele>
        <time>2020-09-29T13:55:04Z</time>
      </trkpt>
      <trkpt lat="41.0377830" lon="-3.2843380">
        <ele>984.0</ele>
        <time>2020-09-29T13:55:05Z</time>
      </trkpt>
      <trkpt lat="41.0377830" lon="-3.2843380">
        <ele>982.0</ele>
        <time>2020-09-29T13:55:06Z</time>
      </trkpt>
      <trkpt lat="41.0375230" lon="-3.2844280">
        <ele>982.0</ele>
        <time>2020-09-29T13:55:07Z</time>
      </trkpt>
      <trkpt lat="41.0375230" lon="-3.2844280">
        <ele>980.0</ele>
        <time>2020-09-29T13:55:08Z</time>
      </trkpt>
      <trkpt lat="41.0372580" lon="-3.2845230">
        <ele>980.0</ele>
        <time>2020-09-29T13:55:09Z</time>
      </trkpt>
      <trkpt lat="41.0372580" lon="-3.2845230">
        <ele>978.0</ele>
        <time>2020-09-29T13:55:10Z</time>
      </trkpt>
      <trkpt lat="41.0370070" lon="-3.2846280">
        <ele>978.0</ele>
        <time>2020-09-29T13:55:11Z</time>
      </trkpt>
      <trkpt lat="41.0370070" lon="-3.2846280">
        <ele>976.0</ele>
        <time>2020-09-29T13:55:12Z</time>
      </trkpt>
      <trkpt lat="41.0367870" lon="-3.2847480">
        <ele>976.0</ele>
        <time>2020-09-29T13:55:13Z</time>
      </trkpt>
      <trkpt lat="41.0367870" lon="-3.2847480">
        <ele>974.0</ele>
        <time>2020-09-29T13:55:14Z</time>
      </trkpt>
      <trkpt lat="41.0366070" lon="-3.2848730">
        <ele>974.0</ele>
        <time>2020-09-29T13:55:15Z</time>
      </trkpt>
      <trkpt lat="41.0365250" lon="-3.2849230">
        <ele>971.0</ele>
        <time>2020-09-29T13:55:16Z</time>
      </trkpt>
      <trkpt lat="41.0365250" lon="-3.2849230">
        <ele>971.0</ele>
        <time>2020-09-29T13:55:17Z</time>
      </trkpt>
      <trkpt lat="41.0363430" lon="-3.2849200">
        <ele>969.0</ele>
        <time>2020-09-29T13:55:18Z</time>
      </trkpt>
      <trkpt lat="41.0363430" lon="-3.2849200">
        <ele>969.0</ele>
        <time>2020-09-29T13:55:19Z</time>
      </trkpt>
      <trkpt lat="41.0361830" lon="-3.2847570">
        <ele>967.0</ele>
        <time>2020-09-29T13:55:20Z</time>
      </trkpt>
      <trkpt lat="41.0361830" lon="-3.2847570">
        <ele>967.0</ele>
        <time>2020-09-29T13:55:21Z</time>
      </trkpt>
      <trkpt lat="41.0360720" lon="-3.2845350">
        <ele>964.0</ele>
        <time>2020-09-29T13:55:22Z</time>
      </trkpt>
      <trkpt lat="41.0360720" lon="-3.2845350">
        <ele>964.0</ele>
        <time>2020-09-29T13:55:23Z</time>
      </trkpt>
      <trkpt lat="41.0360620" lon="-3.2842700">
        <ele>961.0</ele>
        <time>2020-09-29T13:55:24Z</time>
      </trkpt>
      <trkpt lat="41.0361120" lon="-3.2841400">
        <ele>961.0</ele>
        <time>2020-09-29T13:55:25Z</time>
      </trkpt>
      <trkpt lat="41.0361120" lon="-3.2841400">
        <ele>959.0</ele>
        <time>2020-09-29T13:55:26Z</time>
      </trkpt>
      <trkpt lat="41.0362830" lon="-3.2839550">
        <ele>959.0</ele>
        <time>2020-09-29T13:55:27Z</time>
      </trkpt>
      <trkpt lat="41.0362830" lon="-3.2839550">
        <ele>957.0</ele>
        <time>2020-09-29T13:55:28Z</time>
      </trkpt>
      <trkpt lat="41.0364900" lon="-3.2838500">
        <ele>957.0</ele>
        <time>2020-09-29T13:55:29Z</time>
      </trkpt>
      <trkpt lat="41.0364900" lon="-3.2838500">
        <ele>956.0</ele>
        <time>2020-09-29T13:55:30Z</time>
      </trkpt>
      <trkpt lat="41.0366800" lon="-3.2837230">
        <ele>956.0</ele>
        <time>2020-09-29T13:55:31Z</time>
      </trkpt>
      <trkpt lat="41.0366800" lon="-3.2837230">
        <ele>955.0</ele>
        <time>2020-09-29T13:55:32Z</time>
      </trkpt>
      <trkpt lat="41.0368550" lon="-3.2835720">
        <ele>955.0</ele>
        <time>2020-09-29T13:55:33Z</time>
      </trkpt>
      <trkpt lat="41.0368550" lon="-3.2835720">
        <ele>955.0</ele>
        <time>2020-09-29T13:55:34Z</time>
      </trkpt>
      <trkpt lat="41.0370270" lon="-3.2834270">
        <ele>955.0</ele>
        <time>2020-09-29T13:55:35Z</time>
      </trkpt>
      <trkpt lat="41.0370270" lon="-3.2834270">
        <ele>954.0</ele>
        <time>2020-09-29T13:55:36Z</time>
      </trkpt>
      <trkpt lat="41.0372020" lon="-3.2833020">
        <ele>954.0</ele>
        <time>2020-09-29T13:55:37Z</time>
      </trkpt>
      <trkpt lat="41.0372020" lon="-3.2833020">
        <ele>954.0</ele>
        <time>2020-09-29T13:55:38Z</time>
      </trkpt>
      <trkpt lat="41.0373900" lon="-3.2832050">
        <ele>952.0</ele>
        <time>2020-09-29T13:55:39Z</time>
      </trkpt>
      <trkpt lat="41.0374880" lon="-3.2831630">
        <ele>952.0</ele>
        <time>2020-09-29T13:55:40Z</time>
      </trkpt>
      <trkpt lat="41.0374880" lon="-3.2831630">
        <ele>952.0</ele>
        <time>2020-09-29T13:55:41Z</time>
      </trkpt>
      <trkpt lat="41.0376850" lon="-3.2830780">
        <ele>952.0</ele>
        <time>2020-09-29T13:55:42Z</time>
      </trkpt>
      <trkpt lat="41.0377820" lon="-3.2830280">
        <ele>952.0</ele>
        <time>2020-09-29T13:55:43Z</time>
      </trkpt>
      <trkpt lat="41.0377820" lon="-3.2830280">
        <ele>951.0</ele>
        <time>2020-09-29T13:55:44Z</time>
      </trkpt>
      <trkpt lat="41.0379600" lon="-3.2828850">
        <ele>951.0</ele>
        <time>2020-09-29T13:55:45Z</time>
      </trkpt>
      <trkpt lat="41.0380350" lon="-3.2827870">
        <ele>950.0</ele>
        <time>2020-09-29T13:55:46Z</time>
      </trkpt>
      <trkpt lat="41.0380350" lon="-3.2827870">
        <ele>950.0</ele>
        <time>2020-09-29T13:55:47Z</time>
      </trkpt>
      <trkpt lat="41.0381350" lon="-3.2825320">
        <ele>949.0</ele>
        <time>2020-09-29T13:55:48Z</time>
      </trkpt>
      <trkpt lat="41.0381350" lon="-3.2825320">
        <ele>949.0</ele>
        <time>2020-09-29T13:55:49Z</time>
      </trkpt>
      <trkpt lat="41.0382050" lon="-3.2822700">
        <ele>949.0</ele>
        <time>2020-09-29T13:55:50Z</time>
      </trkpt>
      <trkpt lat="41.0382050" lon="-3.2822700">
        <ele>949.0</ele>
        <time>2020-09-29T13:55:51Z</time>
      </trkpt>
      <trkpt lat="41.0382450" lon="-3.2820380">
        <ele>949.0</ele>
        <time>2020-09-29T13:55:52Z</time>
      </trkpt>
      <trkpt lat="41.0382530" lon="-3.2819330">
        <ele>949.0</ele>
        <time>2020-09-29T13:55:53Z</time>
      </trkpt>
      <trkpt lat="41.0382530" lon="-3.2819330">
        <ele>949.0</ele>
        <time>2020-09-29T13:55:54Z</time>
      </trkpt>
      <trkpt lat="41.0382720" lon="-3.2817520">
        <ele>949.0</ele>
        <time>2020-09-29T13:55:55Z</time>
      </trkpt>
      <trkpt lat="41.0382720" lon="-3.2817520">
        <ele>950.0</ele>
        <time>2020-09-29T13:55:56Z</time>
      </trkpt>
      <trkpt lat="41.0382750" lon="-3.2816100">
        <ele>950.0</ele>
        <time>2020-09-29T13:55:57Z</time>
      </trkpt>
      <trkpt lat="41.0382750" lon="-3.2816100">
        <ele>950.0</ele>
        <time>2020-09-29T13:55:58Z</time>
      </trkpt>
      <trkpt lat="41.0382650" lon="-3.2814930">
        <ele>950.0</ele>
        <time>2020-09-29T13:55:59Z</time>
      </trkpt>
      <trkpt lat="41.0382650" lon="-3.2814930">
        <ele>952.0</ele>
        <time>2020-09-29T13:56:00Z</time>
      </trkpt>
      <trkpt lat="41.0382480" lon="-3.2813850">
        <ele>952.0</ele>
        <time>2020-09-29T13:56:01Z</time>
      </trkpt>
      <trkpt lat="41.0382480" lon="-3.2813850">
        <ele>952.0</ele>
        <time>2020-09-29T13:56:02Z</time>
      </trkpt>
      <trkpt lat="41.0382300" lon="-3.2812980">
        <ele>953.0</ele>
        <time>2020-09-29T13:56:03Z</time>
      </trkpt>
      <trkpt lat="41.0382200" lon="-3.2812620">
        <ele>953.0</ele>
        <time>2020-09-29T13:56:04Z</time>
      </trkpt>
      <trkpt lat="41.0382200" lon="-3.2812620">
        <ele>953.0</ele>
        <time>2020-09-29T13:56:05Z</time>
      </trkpt>
      <trkpt lat="41.0381920" lon="-3.2811880">
        <ele>953.0</ele>
        <time>2020-09-29T13:56:06Z</time>
      </trkpt>
      <trkpt lat="41.0381730" lon="-3.2811480">
        <ele>954.0</ele>
        <time>2020-09-29T13:56:07Z</time>
      </trkpt>
      <trkpt lat="41.0381730" lon="-3.2811480">
        <ele>954.0</ele>
        <time>2020-09-29T13:56:08Z</time>
      </trkpt>
      <trkpt lat="41.0381250" lon="-3.2810700">
        <ele>954.0</ele>
        <time>2020-09-29T13:56:09Z</time>
      </trkpt>
      <trkpt lat="41.0381250" lon="-3.2810700">
        <ele>954.0</ele>
        <time>2020-09-29T13:56:10Z</time>
      </trkpt>
      <trkpt lat="41.0380770" lon="-3.2809980">
        <ele>955.0</ele>
        <time>2020-09-29T13:56:11Z</time>
      </trkpt>
      <trkpt lat="41.0380770" lon="-3.2809980">
        <ele>955.0</ele>
        <time>2020-09-29T13:56:12Z</time>
      </trkpt>
      <trkpt lat="41.0380280" lon="-3.2809280">
        <ele>955.0</ele>
        <time>2020-09-29T13:56:13Z</time>
      </trkpt>
      <trkpt lat="41.0380280" lon="-3.2809280">
        <ele>955.0</ele>
        <time>2020-09-29T13:56:14Z</time>
      </trkpt>
      <trkpt lat="41.0379830" lon="-3.2808670">
        <ele>956.0</ele>
        <time>2020-09-29T13:56:15Z</time>
      </trkpt>
      <trkpt lat="41.0379830" lon="-3.2808670">
        <ele>956.0</ele>
        <time>2020-09-29T13:56:16Z</time>
      </trkpt>
      <trkpt lat="41.0379430" lon="-3.2808020">
        <ele>956.0</ele>
        <time>2020-09-29T13:56:17Z</time>
      </trkpt>
      <trkpt lat="41.0379430" lon="-3.2808020">
        <ele>956.0</ele>
        <time>2020-09-29T13:56:18Z</time>
      </trkpt>
      <trkpt lat="41.0379070" lon="-3.2807230">
        <ele>956.0</ele>
        <time>2020-09-29T13:56:19Z</time>
      </trkpt>
      <trkpt lat="41.0378850" lon="-3.2806780">
        <ele>956.0</ele>
        <time>2020-09-29T13:56:20Z</time>
      </trkpt>
      <trkpt lat="41.0378850" lon="-3.2806780">
        <ele>957.0</ele>
        <time>2020-09-29T13:56:21Z</time>
      </trkpt>
      <trkpt lat="41.0378280" lon="-3.2806120">
        <ele>957.0</ele>
        <time>2020-09-29T13:56:22Z</time>
      </trkpt>
      <trkpt lat="41.0378280" lon="-3.2806120">
        <ele>957.0</ele>
        <time>2020-09-29T13:56:23Z</time>
      </trkpt>
      <trkpt lat="41.0377730" lon="-3.2805530">
        <ele>957.0</ele>
        <time>2020-09-29T13:56:24Z</time>
      </trkpt>
      <trkpt lat="41.0377430" lon="-3.2805320">
        <ele>958.0</ele>
        <time>2020-09-29T13:56:25Z</time>
      </trkpt>
      <trkpt lat="41.0377430" lon="-3.2805320">
        <ele>958.0</ele>
        <time>2020-09-29T13:56:26Z</time>
      </trkpt>
      <trkpt lat="41.0376800" lon="-3.2804980">
        <ele>958.0</ele>
        <time>2020-09-29T13:56:27Z</time>
      </trkpt>
      <trkpt lat="41.0376800" lon="-3.2804980">
        <ele>958.0</ele>
        <time>2020-09-29T13:56:28Z</time>
      </trkpt>
      <trkpt lat="41.0376170" lon="-3.2804650">
        <ele>958.0</ele>
        <time>2020-09-29T13:56:29Z</time>
      </trkpt>
      <trkpt lat="41.0375850" lon="-3.2804430">
        <ele>959.0</ele>
        <time>2020-09-29T13:56:30Z</time>
      </trkpt>
      <trkpt lat="41.0375570" lon="-3.2804180">
        <ele>959.0</ele>
        <time>2020-09-29T13:56:31Z</time>
      </trkpt>
      <trkpt lat="41.0375570" lon="-3.2804180">
        <ele>959.0</ele>
        <time>2020-09-29T13:56:32Z</time>
      </trkpt>
      <trkpt lat="41.0375000" lon="-3.2803630">
        <ele>959.0</ele>
        <time>2020-09-29T13:56:33Z</time>
      </trkpt>
      <trkpt lat="41.0374730" lon="-3.2803270">
        <ele>960.0</ele>
        <time>2020-09-29T13:56:34Z</time>
      </trkpt>
      <trkpt lat="41.0374730" lon="-3.2803270">
        <ele>960.0</ele>
        <time>2020-09-29T13:56:35Z</time>
      </trkpt>
      <trkpt lat="41.0374220" lon="-3.2802630">
        <ele>960.0</ele>
        <time>2020-09-29T13:56:36Z</time>
      </trkpt>
      <trkpt lat="41.0374220" lon="-3.2802630">
        <ele>960.0</ele>
        <time>2020-09-29T13:56:37Z</time>
      </trkpt>
      <trkpt lat="41.0373480" lon="-3.2802020">
        <ele>960.0</ele>
        <time>2020-09-29T13:56:38Z</time>
      </trkpt>
      <trkpt lat="41.0373480" lon="-3.2802020">
        <ele>960.0</ele>
        <time>2020-09-29T13:56:39Z</time>
      </trkpt>
      <trkpt lat="41.0372650" lon="-3.2801580">
        <ele>960.0</ele>
        <time>2020-09-29T13:56:40Z</time>
      </trkpt>
      <trkpt lat="41.0372200" lon="-3.2801530">
        <ele>960.0</ele>
        <time>2020-09-29T13:56:41Z</time>
      </trkpt>
      <trkpt lat="41.0372200" lon="-3.2801530">
        <ele>960.0</ele>
        <time>2020-09-29T13:56:42Z</time>
      </trkpt>
      <trkpt lat="41.0371350" lon="-3.2801920">
        <ele>960.0</ele>
        <time>2020-09-29T13:56:43Z</time>
      </trkpt>
      <trkpt lat="41.0371350" lon="-3.2801920">
        <ele>960.0</ele>
        <time>2020-09-29T13:56:44Z</time>
      </trkpt>
      <trkpt lat="41.0370650" lon="-3.2802750">
        <ele>960.0</ele>
        <time>2020-09-29T13:56:45Z</time>
      </trkpt>
      <trkpt lat="41.0370650" lon="-3.2802750">
        <ele>961.0</ele>
        <time>2020-09-29T13:56:46Z</time>
      </trkpt>
      <trkpt lat="41.0370020" lon="-3.2803820">
        <ele>961.0</ele>
        <time>2020-09-29T13:56:47Z</time>
      </trkpt>
      <trkpt lat="41.0370020" lon="-3.2803820">
        <ele>961.0</ele>
        <time>2020-09-29T13:56:48Z</time>
      </trkpt>
      <trkpt lat="41.0369270" lon="-3.2804870">
        <ele>961.0</ele>
        <time>2020-09-29T13:56:49Z</time>
      </trkpt>
      <trkpt lat="41.0369270" lon="-3.2804870">
        <ele>961.0</ele>
        <time>2020-09-29T13:56:50Z</time>
      </trkpt>
      <trkpt lat="41.0368330" lon="-3.2805780">
        <ele>961.0</ele>
        <time>2020-09-29T13:56:51Z</time>
      </trkpt>
      <trkpt lat="41.0368330" lon="-3.2805780">
        <ele>961.0</ele>
        <time>2020-09-29T13:56:52Z</time>
      </trkpt>
      <trkpt lat="41.0367270" lon="-3.2806270">
        <ele>961.0</ele>
        <time>2020-09-29T13:56:53Z</time>
      </trkpt>
      <trkpt lat="41.0367270" lon="-3.2806270">
        <ele>961.0</ele>
        <time>2020-09-29T13:56:54Z</time>
      </trkpt>
      <trkpt lat="41.0366130" lon="-3.2806500">
        <ele>961.0</ele>
        <time>2020-09-29T13:56:55Z</time>
      </trkpt>
      <trkpt lat="41.0366130" lon="-3.2806500">
        <ele>961.0</ele>
        <time>2020-09-29T13:56:56Z</time>
      </trkpt>
      <trkpt lat="41.0364880" lon="-3.2806450">
        <ele>961.0</ele>
        <time>2020-09-29T13:56:57Z</time>
      </trkpt>
      <trkpt lat="41.0364880" lon="-3.2806450">
        <ele>961.0</ele>
        <time>2020-09-29T13:56:58Z</time>
      </trkpt>
      <trkpt lat="41.0363630" lon="-3.2806470">
        <ele>961.0</ele>
        <time>2020-09-29T13:56:59Z</time>
      </trkpt>
      <trkpt lat="41.0363030" lon="-3.2806400">
        <ele>961.0</ele>
        <time>2020-09-29T13:57:00Z</time>
      </trkpt>
      <trkpt lat="41.0363030" lon="-3.2806400">
        <ele>960.0</ele>
        <time>2020-09-29T13:57:01Z</time>
      </trkpt>
      <trkpt lat="41.0361830" lon="-3.2806130">
        <ele>960.0</ele>
        <time>2020-09-29T13:57:02Z</time>
      </trkpt>
      <trkpt lat="41.0361830" lon="-3.2806130">
        <ele>960.0</ele>
        <time>2020-09-29T13:57:03Z</time>
      </trkpt>
      <trkpt lat="41.0360520" lon="-3.2806070">
        <ele>960.0</ele>
        <time>2020-09-29T13:57:04Z</time>
      </trkpt>
      <trkpt lat="41.0360520" lon="-3.2806070">
        <ele>958.0</ele>
        <time>2020-09-29T13:57:05Z</time>
      </trkpt>
      <trkpt lat="41.0359100" lon="-3.2806530">
        <ele>958.0</ele>
        <time>2020-09-29T13:57:06Z</time>
      </trkpt>
      <trkpt lat="41.0359100" lon="-3.2806530">
        <ele>958.0</ele>
        <time>2020-09-29T13:57:07Z</time>
      </trkpt>
      <trkpt lat="41.0357830" lon="-3.2807530">
        <ele>958.0</ele>
        <time>2020-09-29T13:57:08Z</time>
      </trkpt>
      <trkpt lat="41.0357830" lon="-3.2807530">
        <ele>958.0</ele>
        <time>2020-09-29T13:57:09Z</time>
      </trkpt>
      <trkpt lat="41.0356480" lon="-3.2808280">
        <ele>958.0</ele>
        <time>2020-09-29T13:57:10Z</time>
      </trkpt>
      <trkpt lat="41.0355750" lon="-3.2808430">
        <ele>958.0</ele>
        <time>2020-09-29T13:57:11Z</time>
      </trkpt>
      <trkpt lat="41.0355750" lon="-3.2808430">
        <ele>958.0</ele>
        <time>2020-09-29T13:57:12Z</time>
      </trkpt>
      <trkpt lat="41.0354250" lon="-3.2808430">
        <ele>958.0</ele>
        <time>2020-09-29T13:57:13Z</time>
      </trkpt>
      <trkpt lat="41.0354250" lon="-3.2808430">
        <ele>957.0</ele>
        <time>2020-09-29T13:57:14Z</time>
      </trkpt>
      <trkpt lat="41.0352680" lon="-3.2807770">
        <ele>957.0</ele>
        <time>2020-09-29T13:57:15Z</time>
      </trkpt>
      <trkpt lat="41.0352680" lon="-3.2807770">
        <ele>956.0</ele>
        <time>2020-09-29T13:57:16Z</time>
      </trkpt>
      <trkpt lat="41.0351650" lon="-3.2805900">
        <ele>956.0</ele>
        <time>2020-09-29T13:57:17Z</time>
      </trkpt>
      <trkpt lat="41.0351650" lon="-3.2805900">
        <ele>955.0</ele>
        <time>2020-09-29T13:57:18Z</time>
      </trkpt>
      <trkpt lat="41.0350970" lon="-3.2803930">
        <ele>955.0</ele>
        <time>2020-09-29T13:57:19Z</time>
      </trkpt>
      <trkpt lat="41.0350970" lon="-3.2803930">
        <ele>955.0</ele>
        <time>2020-09-29T13:57:20Z</time>
      </trkpt>
      <trkpt lat="41.0350320" lon="-3.2802070">
        <ele>955.0</ele>
        <time>2020-09-29T13:57:21Z</time>
      </trkpt>
      <trkpt lat="41.0350320" lon="-3.2802070">
        <ele>954.0</ele>
        <time>2020-09-29T13:57:22Z</time>
      </trkpt>
      <trkpt lat="41.0349720" lon="-3.2799970">
        <ele>954.0</ele>
        <time>2020-09-29T13:57:23Z</time>
      </trkpt>
      <trkpt lat="41.0349420" lon="-3.2798970">
        <ele>954.0</ele>
        <time>2020-09-29T13:57:24Z</time>
      </trkpt>
      <trkpt lat="41.0349120" lon="-3.2797920">
        <ele>954.0</ele>
        <time>2020-09-29T13:57:25Z</time>
      </trkpt>
      <trkpt lat="41.0349120" lon="-3.2797920">
        <ele>954.0</ele>
        <time>2020-09-29T13:57:26Z</time>
      </trkpt>
      <trkpt lat="41.0348500" lon="-3.2796020">
        <ele>954.0</ele>
        <time>2020-09-29T13:57:27Z</time>
      </trkpt>
      <trkpt lat="41.0348500" lon="-3.2796020">
        <ele>954.0</ele>
        <time>2020-09-29T13:57:28Z</time>
      </trkpt>
      <trkpt lat="41.0347630" lon="-3.2794430">
        <ele>954.0</ele>
        <time>2020-09-29T13:57:29Z</time>
      </trkpt>
      <trkpt lat="41.0347630" lon="-3.2794430">
        <ele>954.0</ele>
        <time>2020-09-29T13:57:30Z</time>
      </trkpt>
      <trkpt lat="41.0346720" lon="-3.2793070">
        <ele>954.0</ele>
        <time>2020-09-29T13:57:31Z</time>
      </trkpt>
      <trkpt lat="41.0346720" lon="-3.2793070">
        <ele>954.0</ele>
        <time>2020-09-29T13:57:32Z</time>
      </trkpt>
      <trkpt lat="41.0345730" lon="-3.2791880">
        <ele>954.0</ele>
        <time>2020-09-29T13:57:33Z</time>
      </trkpt>
      <trkpt lat="41.0345730" lon="-3.2791880">
        <ele>954.0</ele>
        <time>2020-09-29T13:57:34Z</time>
      </trkpt>
      <trkpt lat="41.0344670" lon="-3.2790920">
        <ele>955.0</ele>
        <time>2020-09-29T13:57:35Z</time>
      </trkpt>
      <trkpt lat="41.0344670" lon="-3.2790920">
        <ele>955.0</ele>
        <time>2020-09-29T13:57:36Z</time>
      </trkpt>
      <trkpt lat="41.0343300" lon="-3.2790750">
        <ele>955.0</ele>
        <time>2020-09-29T13:57:37Z</time>
      </trkpt>
      <trkpt lat="41.0343300" lon="-3.2790750">
        <ele>955.0</ele>
        <time>2020-09-29T13:57:38Z</time>
      </trkpt>
      <trkpt lat="41.0342180" lon="-3.2791780">
        <ele>955.0</ele>
        <time>2020-09-29T13:57:39Z</time>
      </trkpt>
      <trkpt lat="41.0341830" lon="-3.2792570">
        <ele>955.0</ele>
        <time>2020-09-29T13:57:40Z</time>
      </trkpt>
      <trkpt lat="41.0341830" lon="-3.2792570">
        <ele>955.0</ele>
        <time>2020-09-29T13:57:41Z</time>
      </trkpt>
      <trkpt lat="41.0341530" lon="-3.2794370">
        <ele>955.0</ele>
        <time>2020-09-29T13:57:42Z</time>
      </trkpt>
      <trkpt lat="41.0341670" lon="-3.2795280">
        <ele>955.0</ele>
        <time>2020-09-29T13:57:43Z</time>
      </trkpt>
      <trkpt lat="41.0341670" lon="-3.2795280">
        <ele>955.0</ele>
        <time>2020-09-29T13:57:44Z</time>
      </trkpt>
      <trkpt lat="41.0342180" lon="-3.2797030">
        <ele>955.0</ele>
        <time>2020-09-29T13:57:45Z</time>
      </trkpt>
      <trkpt lat="41.0342180" lon="-3.2797030">
        <ele>955.0</ele>
        <time>2020-09-29T13:57:46Z</time>
      </trkpt>
      <trkpt lat="41.0342820" lon="-3.2798750">
        <ele>955.0</ele>
        <time>2020-09-29T13:57:47Z</time>
      </trkpt>
      <trkpt lat="41.0342820" lon="-3.2798750">
        <ele>955.0</ele>
        <time>2020-09-29T13:57:48Z</time>
      </trkpt>
      <trkpt lat="41.0343270" lon="-3.2800630">
        <ele>955.0</ele>
        <time>2020-09-29T13:57:49Z</time>
      </trkpt>
      <trkpt lat="41.0343270" lon="-3.2800630">
        <ele>955.0</ele>
        <time>2020-09-29T13:57:50Z</time>
      </trkpt>
      <trkpt lat="41.0343650" lon="-3.2802680">
        <ele>955.0</ele>
        <time>2020-09-29T13:57:51Z</time>
      </trkpt>
      <trkpt lat="41.0343850" lon="-3.2803800">
        <ele>955.0</ele>
        <time>2020-09-29T13:57:52Z</time>
      </trkpt>
      <trkpt lat="41.0343850" lon="-3.2803800">
        <ele>954.0</ele>
        <time>2020-09-29T13:57:53Z</time>
      </trkpt>
      <trkpt lat="41.0344170" lon="-3.2805970">
        <ele>954.0</ele>
        <time>2020-09-29T13:57:54Z</time>
      </trkpt>
      <trkpt lat="41.0344170" lon="-3.2805970">
        <ele>954.0</ele>
        <time>2020-09-29T13:57:55Z</time>
      </trkpt>
      <trkpt lat="41.0344320" lon="-3.2808050">
        <ele>954.0</ele>
        <time>2020-09-29T13:57:56Z</time>
      </trkpt>
      <trkpt lat="41.0344320" lon="-3.2808050">
        <ele>954.0</ele>
        <time>2020-09-29T13:57:57Z</time>
      </trkpt>
      <trkpt lat="41.0344230" lon="-3.2810000">
        <ele>954.0</ele>
        <time>2020-09-29T13:57:58Z</time>
      </trkpt>
      <trkpt lat="41.0344230" lon="-3.2810000">
        <ele>954.0</ele>
        <time>2020-09-29T13:57:59Z</time>
      </trkpt>
      <trkpt lat="41.0343770" lon="-3.2811780">
        <ele>954.0</ele>
        <time>2020-09-29T13:58:00Z</time>
      </trkpt>
      <trkpt lat="41.0343380" lon="-3.2812500">
        <ele>954.0</ele>
        <time>2020-09-29T13:58:01Z</time>
      </trkpt>
      <trkpt lat="41.0343380" lon="-3.2812500">
        <ele>954.0</ele>
        <time>2020-09-29T13:58:02Z</time>
      </trkpt>
      <trkpt lat="41.0342530" lon="-3.2813770">
        <ele>954.0</ele>
        <time>2020-09-29T13:58:03Z</time>
      </trkpt>
      <trkpt lat="41.0342530" lon="-3.2813770">
        <ele>954.0</ele>
        <time>2020-09-29T13:58:04Z</time>
      </trkpt>
      <trkpt lat="41.0341630" lon="-3.2814720">
        <ele>954.0</ele>
        <time>2020-09-29T13:58:05Z</time>
      </trkpt>
      <trkpt lat="41.0341200" lon="-3.2815100">
        <ele>954.0</ele>
        <time>2020-09-29T13:58:06Z</time>
      </trkpt>
      <trkpt lat="41.0341200" lon="-3.2815100">
        <ele>954.0</ele>
        <time>2020-09-29T13:58:07Z</time>
      </trkpt>
      <trkpt lat="41.0340420" lon="-3.2815720">
        <ele>954.0</ele>
        <time>2020-09-29T13:58:08Z</time>
      </trkpt>
      <trkpt lat="41.0340080" lon="-3.2815970">
        <ele>955.0</ele>
        <time>2020-09-29T13:58:09Z</time>
      </trkpt>
      <trkpt lat="41.0339750" lon="-3.2816180">
        <ele>955.0</ele>
        <time>2020-09-29T13:58:10Z</time>
      </trkpt>
      <trkpt lat="41.0339750" lon="-3.2816180">
        <ele>955.0</ele>
        <time>2020-09-29T13:58:11Z</time>
      </trkpt>
      <trkpt lat="41.0339120" lon="-3.2816600">
        <ele>955.0</ele>
        <time>2020-09-29T13:58:12Z</time>
      </trkpt>
      <trkpt lat="41.0338820" lon="-3.2816820">
        <ele>956.0</ele>
        <time>2020-09-29T13:58:13Z</time>
      </trkpt>
      <trkpt lat="41.0338820" lon="-3.2816820">
        <ele>956.0</ele>
        <time>2020-09-29T13:58:14Z</time>
      </trkpt>
      <trkpt lat="41.0338250" lon="-3.2817280">
        <ele>956.0</ele>
        <time>2020-09-29T13:58:15Z</time>
      </trkpt>
      <trkpt lat="41.0338250" lon="-3.2817280">
        <ele>956.0</ele>
        <time>2020-09-29T13:58:16Z</time>
      </trkpt>
      <trkpt lat="41.0337680" lon="-3.2817820">
        <ele>956.0</ele>
        <time>2020-09-29T13:58:17Z</time>
      </trkpt>
      <trkpt lat="41.0337680" lon="-3.2817820">
        <ele>956.0</ele>
        <time>2020-09-29T13:58:18Z</time>
      </trkpt>
      <trkpt lat="41.0337150" lon="-3.2818350">
        <ele>957.0</ele>
        <time>2020-09-29T13:58:19Z</time>
      </trkpt>
      <trkpt lat="41.0337150" lon="-3.2818350">
        <ele>957.0</ele>
        <time>2020-09-29T13:58:20Z</time>
      </trkpt>
      <trkpt lat="41.0336600" lon="-3.2818870">
        <ele>957.0</ele>
        <time>2020-09-29T13:58:21Z</time>
      </trkpt>
      <trkpt lat="41.0336600" lon="-3.2818870">
        <ele>957.0</ele>
        <time>2020-09-29T13:58:22Z</time>
      </trkpt>
      <trkpt lat="41.0335980" lon="-3.2819350">
        <ele>958.0</ele>
        <time>2020-09-29T13:58:23Z</time>
      </trkpt>
      <trkpt lat="41.0335980" lon="-3.2819350">
        <ele>958.0</ele>
        <time>2020-09-29T13:58:24Z</time>
      </trkpt>
      <trkpt lat="41.0335280" lon="-3.2819570">
        <ele>958.0</ele>
        <time>2020-09-29T13:58:25Z</time>
      </trkpt>
      <trkpt lat="41.0335280" lon="-3.2819570">
        <ele>958.0</ele>
        <time>2020-09-29T13:58:26Z</time>
      </trkpt>
      <trkpt lat="41.0334580" lon="-3.2819570">
        <ele>958.0</ele>
        <time>2020-09-29T13:58:27Z</time>
      </trkpt>
      <trkpt lat="41.0334270" lon="-3.2819470">
        <ele>958.0</ele>
        <time>2020-09-29T13:58:28Z</time>
      </trkpt>
      <trkpt lat="41.0334270" lon="-3.2819470">
        <ele>959.0</ele>
        <time>2020-09-29T13:58:29Z</time>
      </trkpt>
      <trkpt lat="41.0333630" lon="-3.2819130">
        <ele>959.0</ele>
        <time>2020-09-29T13:58:30Z</time>
      </trkpt>
      <trkpt lat="41.0333320" lon="-3.2819020">
        <ele>959.0</ele>
        <time>2020-09-29T13:58:31Z</time>
      </trkpt>
      <trkpt lat="41.0333320" lon="-3.2819020">
        <ele>959.0</ele>
        <time>2020-09-29T13:58:32Z</time>
      </trkpt>
      <trkpt lat="41.0332680" lon="-3.2818700">
        <ele>960.0</ele>
        <time>2020-09-29T13:58:33Z</time>
      </trkpt>
      <trkpt lat="41.0332680" lon="-3.2818700">
        <ele>960.0</ele>
        <time>2020-09-29T13:58:34Z</time>
      </trkpt>
      <trkpt lat="41.0332050" lon="-3.2818350">
        <ele>960.0</ele>
        <time>2020-09-29T13:58:35Z</time>
      </trkpt>
      <trkpt lat="41.0332050" lon="-3.2818350">
        <ele>960.0</ele>
        <time>2020-09-29T13:58:36Z</time>
      </trkpt>
      <trkpt lat="41.0331430" lon="-3.2818000">
        <ele>960.0</ele>
        <time>2020-09-29T13:58:37Z</time>
      </trkpt>
      <trkpt lat="41.0331430" lon="-3.2818000">
        <ele>960.0</ele>
        <time>2020-09-29T13:58:38Z</time>
      </trkpt>
      <trkpt lat="41.0330850" lon="-3.2817570">
        <ele>960.0</ele>
        <time>2020-09-29T13:58:39Z</time>
      </trkpt>
      <trkpt lat="41.0330850" lon="-3.2817570">
        <ele>961.0</ele>
        <time>2020-09-29T13:58:40Z</time>
      </trkpt>
      <trkpt lat="41.0330250" lon="-3.2817130">
        <ele>961.0</ele>
        <time>2020-09-29T13:58:41Z</time>
      </trkpt>
      <trkpt lat="41.0329980" lon="-3.2816880">
        <ele>961.0</ele>
        <time>2020-09-29T13:58:42Z</time>
      </trkpt>
      <trkpt lat="41.0329980" lon="-3.2816880">
        <ele>961.0</ele>
        <time>2020-09-29T13:58:43Z</time>
      </trkpt>
      <trkpt lat="41.0329450" lon="-3.2816370">
        <ele>962.0</ele>
        <time>2020-09-29T13:58:44Z</time>
      </trkpt>
      <trkpt lat="41.0329450" lon="-3.2816370">
        <ele>962.0</ele>
        <time>2020-09-29T13:58:45Z</time>
      </trkpt>
      <trkpt lat="41.0328950" lon="-3.2815670">
        <ele>962.0</ele>
        <time>2020-09-29T13:58:46Z</time>
      </trkpt>
      <trkpt lat="41.0328720" lon="-3.2815220">
        <ele>962.0</ele>
        <time>2020-09-29T13:58:47Z</time>
      </trkpt>
      <trkpt lat="41.0328450" lon="-3.2814670">
        <ele>962.0</ele>
        <time>2020-09-29T13:58:48Z</time>
      </trkpt>
      <trkpt lat="41.0328450" lon="-3.2814670">
        <ele>962.0</ele>
        <time>2020-09-29T13:58:49Z</time>
      </trkpt>
      <trkpt lat="41.0327920" lon="-3.2813480">
        <ele>962.0</ele>
        <time>2020-09-29T13:58:50Z</time>
      </trkpt>
      <trkpt lat="41.0327920" lon="-3.2813480">
        <ele>962.0</ele>
        <time>2020-09-29T13:58:51Z</time>
      </trkpt>
      <trkpt lat="41.0327370" lon="-3.2812080">
        <ele>962.0</ele>
        <time>2020-09-29T13:58:52Z</time>
      </trkpt>
      <trkpt lat="41.0327120" lon="-3.2811320">
        <ele>962.0</ele>
        <time>2020-09-29T13:58:53Z</time>
      </trkpt>
      <trkpt lat="41.0327120" lon="-3.2811320">
        <ele>961.0</ele>
        <time>2020-09-29T13:58:54Z</time>
      </trkpt>
      <trkpt lat="41.0326530" lon="-3.2809680">
        <ele>961.0</ele>
        <time>2020-09-29T13:58:55Z</time>
      </trkpt>
      <trkpt lat="41.0326530" lon="-3.2809680">
        <ele>961.0</ele>
        <time>2020-09-29T13:58:56Z</time>
      </trkpt>
      <trkpt lat="41.0326130" lon="-3.2807700">
        <ele>961.0</ele>
        <time>2020-09-29T13:58:57Z</time>
      </trkpt>
      <trkpt lat="41.0326130" lon="-3.2807700">
        <ele>960.0</ele>
        <time>2020-09-29T13:58:58Z</time>
      </trkpt>
      <trkpt lat="41.0325930" lon="-3.2805500">
        <ele>960.0</ele>
        <time>2020-09-29T13:58:59Z</time>
      </trkpt>
      <trkpt lat="41.0325950" lon="-3.2804350">
        <ele>959.0</ele>
        <time>2020-09-29T13:59:00Z</time>
      </trkpt>
      <trkpt lat="41.0325980" lon="-3.2803180">
        <ele>959.0</ele>
        <time>2020-09-29T13:59:01Z</time>
      </trkpt>
      <trkpt lat="41.0325980" lon="-3.2803180">
        <ele>958.0</ele>
        <time>2020-09-29T13:59:02Z</time>
      </trkpt>
      <trkpt lat="41.0325930" lon="-3.2800800">
        <ele>958.0</ele>
        <time>2020-09-29T13:59:03Z</time>
      </trkpt>
      <trkpt lat="41.0325930" lon="-3.2800800">
        <ele>957.0</ele>
        <time>2020-09-29T13:59:04Z</time>
      </trkpt>
      <trkpt lat="41.0325220" lon="-3.2798450">
        <ele>957.0</ele>
        <time>2020-09-29T13:59:05Z</time>
      </trkpt>
      <trkpt lat="41.0325220" lon="-3.2798450">
        <ele>956.0</ele>
        <time>2020-09-29T13:59:06Z</time>
      </trkpt>
      <trkpt lat="41.0323880" lon="-3.2796530">
        <ele>956.0</ele>
        <time>2020-09-29T13:59:07Z</time>
      </trkpt>
      <trkpt lat="41.0323880" lon="-3.2796530">
        <ele>956.0</ele>
        <time>2020-09-29T13:59:08Z</time>
      </trkpt>
      <trkpt lat="41.0322450" lon="-3.2794870">
        <ele>956.0</ele>
        <time>2020-09-29T13:59:09Z</time>
      </trkpt>
      <trkpt lat="41.0322450" lon="-3.2794870">
        <ele>955.0</ele>
        <time>2020-09-29T13:59:10Z</time>
      </trkpt>
      <trkpt lat="41.0321020" lon="-3.2793320">
        <ele>955.0</ele>
        <time>2020-09-29T13:59:11Z</time>
      </trkpt>
      <trkpt lat="41.0321020" lon="-3.2793320">
        <ele>955.0</ele>
        <time>2020-09-29T13:59:12Z</time>
      </trkpt>
      <trkpt lat="41.0319520" lon="-3.2791830">
        <ele>955.0</ele>
        <time>2020-09-29T13:59:13Z</time>
      </trkpt>
      <trkpt lat="41.0319520" lon="-3.2791830">
        <ele>955.0</ele>
        <time>2020-09-29T13:59:14Z</time>
      </trkpt>
      <trkpt lat="41.0318030" lon="-3.2790480">
        <ele>954.0</ele>
        <time>2020-09-29T13:59:15Z</time>
      </trkpt>
      <trkpt lat="41.0318030" lon="-3.2790480">
        <ele>954.0</ele>
        <time>2020-09-29T13:59:16Z</time>
      </trkpt>
      <trkpt lat="41.0316630" lon="-3.2789030">
        <ele>953.0</ele>
        <time>2020-09-29T13:59:17Z</time>
      </trkpt>
      <trkpt lat="41.0316630" lon="-3.2789030">
        <ele>953.0</ele>
        <time>2020-09-29T13:59:18Z</time>
      </trkpt>
      <trkpt lat="41.0315330" lon="-3.2787420">
        <ele>953.0</ele>
        <time>2020-09-29T13:59:19Z</time>
      </trkpt>
      <trkpt lat="41.0315330" lon="-3.2787420">
        <ele>953.0</ele>
        <time>2020-09-29T13:59:20Z</time>
      </trkpt>
      <trkpt lat="41.0314050" lon="-3.2785780">
        <ele>952.0</ele>
        <time>2020-09-29T13:59:21Z</time>
      </trkpt>
      <trkpt lat="41.0314050" lon="-3.2785780">
        <ele>952.0</ele>
        <time>2020-09-29T13:59:22Z</time>
      </trkpt>
      <trkpt lat="41.0312800" lon="-3.2784180">
        <ele>952.0</ele>
        <time>2020-09-29T13:59:23Z</time>
      </trkpt>
      <trkpt lat="41.0312250" lon="-3.2783380">
        <ele>952.0</ele>
        <time>2020-09-29T13:59:24Z</time>
      </trkpt>
      <trkpt lat="41.0311770" lon="-3.2782550">
        <ele>952.0</ele>
        <time>2020-09-29T13:59:25Z</time>
      </trkpt>
      <trkpt lat="41.0311770" lon="-3.2782550">
        <ele>952.0</ele>
        <time>2020-09-29T13:59:26Z</time>
      </trkpt>
      <trkpt lat="41.0311130" lon="-3.2780630">
        <ele>952.0</ele>
        <time>2020-09-29T13:59:27Z</time>
      </trkpt>
      <trkpt lat="41.0311130" lon="-3.2780630">
        <ele>952.0</ele>
        <time>2020-09-29T13:59:28Z</time>
      </trkpt>
      <trkpt lat="41.0310880" lon="-3.2778670">
        <ele>952.0</ele>
        <time>2020-09-29T13:59:29Z</time>
      </trkpt>
      <trkpt lat="41.0310800" lon="-3.2777750">
        <ele>952.0</ele>
        <time>2020-09-29T13:59:30Z</time>
      </trkpt>
      <trkpt lat="41.0310800" lon="-3.2777750">
        <ele>952.0</ele>
        <time>2020-09-29T13:59:31Z</time>
      </trkpt>
      <trkpt lat="41.0310680" lon="-3.2775970">
        <ele>952.0</ele>
        <time>2020-09-29T13:59:32Z</time>
      </trkpt>
      <trkpt lat="41.0310680" lon="-3.2775970">
        <ele>952.0</ele>
        <time>2020-09-29T13:59:33Z</time>
      </trkpt>
      <trkpt lat="41.0310600" lon="-3.2774320">
        <ele>952.0</ele>
        <time>2020-09-29T13:59:34Z</time>
      </trkpt>
      <trkpt lat="41.0310600" lon="-3.2774320">
        <ele>952.0</ele>
        <time>2020-09-29T13:59:35Z</time>
      </trkpt>
      <trkpt lat="41.0310520" lon="-3.2772870">
        <ele>952.0</ele>
        <time>2020-09-29T13:59:36Z</time>
      </trkpt>
      <trkpt lat="41.0310430" lon="-3.2772220">
        <ele>953.0</ele>
        <time>2020-09-29T13:59:37Z</time>
      </trkpt>
      <trkpt lat="41.0310430" lon="-3.2772220">
        <ele>953.0</ele>
        <time>2020-09-29T13:59:38Z</time>
      </trkpt>
      <trkpt lat="41.0310230" lon="-3.2771030">
        <ele>953.0</ele>
        <time>2020-09-29T13:59:39Z</time>
      </trkpt>
      <trkpt lat="41.0310230" lon="-3.2771030">
        <ele>953.0</ele>
        <time>2020-09-29T13:59:40Z</time>
      </trkpt>
      <trkpt lat="41.0310020" lon="-3.2769880">
        <ele>954.0</ele>
        <time>2020-09-29T13:59:41Z</time>
      </trkpt>
      <trkpt lat="41.0310020" lon="-3.2769880">
        <ele>954.0</ele>
        <time>2020-09-29T13:59:42Z</time>
      </trkpt>
      <trkpt lat="41.0309770" lon="-3.2768870">
        <ele>954.0</ele>
        <time>2020-09-29T13:59:43Z</time>
      </trkpt>
      <trkpt lat="41.0309770" lon="-3.2768870">
        <ele>954.0</ele>
        <time>2020-09-29T13:59:44Z</time>
      </trkpt>
      <trkpt lat="41.0309350" lon="-3.2768070">
        <ele>955.0</ele>
        <time>2020-09-29T13:59:45Z</time>
      </trkpt>
      <trkpt lat="41.0309350" lon="-3.2768070">
        <ele>955.0</ele>
        <time>2020-09-29T13:59:46Z</time>
      </trkpt>
      <trkpt lat="41.0308870" lon="-3.2767430">
        <ele>955.0</ele>
        <time>2020-09-29T13:59:47Z</time>
      </trkpt>
      <trkpt lat="41.0308650" lon="-3.2767170">
        <ele>955.0</ele>
        <time>2020-09-29T13:59:48Z</time>
      </trkpt>
      <trkpt lat="41.0308650" lon="-3.2767170">
        <ele>956.0</ele>
        <time>2020-09-29T13:59:49Z</time>
      </trkpt>
      <trkpt lat="41.0308220" lon="-3.2766600">
        <ele>957.0</ele>
        <time>2020-09-29T13:59:50Z</time>
      </trkpt>
      <trkpt lat="41.0307980" lon="-3.2766350">
        <ele>957.0</ele>
        <time>2020-09-29T13:59:51Z</time>
      </trkpt>
      <trkpt lat="41.0307980" lon="-3.2766350">
        <ele>958.0</ele>
        <time>2020-09-29T13:59:52Z</time>
      </trkpt>
      <trkpt lat="41.0307520" lon="-3.2765980">
        <ele>958.0</ele>
        <time>2020-09-29T13:59:53Z</time>
      </trkpt>
      <trkpt lat="41.0307520" lon="-3.2765980">
        <ele>958.0</ele>
        <time>2020-09-29T13:59:54Z</time>
      </trkpt>
      <trkpt lat="41.0307030" lon="-3.2765600">
        <ele>958.0</ele>
        <time>2020-09-29T13:59:55Z</time>
      </trkpt>
      <trkpt lat="41.0307030" lon="-3.2765600">
        <ele>958.0</ele>
        <time>2020-09-29T13:59:56Z</time>
      </trkpt>
      <trkpt lat="41.0306570" lon="-3.2765130">
        <ele>958.0</ele>
        <time>2020-09-29T13:59:57Z</time>
      </trkpt>
      <trkpt lat="41.0306570" lon="-3.2765130">
        <ele>958.0</ele>
        <time>2020-09-29T13:59:58Z</time>
      </trkpt>
      <trkpt lat="41.0306130" lon="-3.2764580">
        <ele>958.0</ele>
        <time>2020-09-29T13:59:59Z</time>
      </trkpt>
      <trkpt lat="41.0306130" lon="-3.2764580">
        <ele>958.0</ele>
        <time>2020-09-29T14:00:00Z</time>
      </trkpt>
      <trkpt lat="41.0305700" lon="-3.2764120">
        <ele>958.0</ele>
        <time>2020-09-29T14:00:01Z</time>
      </trkpt>
      <trkpt lat="41.0305520" lon="-3.2763870">
        <ele>959.0</ele>
        <time>2020-09-29T14:00:02Z</time>
      </trkpt>
      <trkpt lat="41.0305520" lon="-3.2763870">
        <ele>959.0</ele>
        <time>2020-09-29T14:00:03Z</time>
      </trkpt>
      <trkpt lat="41.0305170" lon="-3.2763470">
        <ele>959.0</ele>
        <time>2020-09-29T14:00:04Z</time>
      </trkpt>
      <trkpt lat="41.0305170" lon="-3.2763470">
        <ele>959.0</ele>
        <time>2020-09-29T14:00:05Z</time>
      </trkpt>
      <trkpt lat="41.0304830" lon="-3.2762980">
        <ele>959.0</ele>
        <time>2020-09-29T14:00:06Z</time>
      </trkpt>
      <trkpt lat="41.0304650" lon="-3.2762770">
        <ele>960.0</ele>
        <time>2020-09-29T14:00:07Z</time>
      </trkpt>
      <trkpt lat="41.0304650" lon="-3.2762770">
        <ele>960.0</ele>
        <time>2020-09-29T14:00:08Z</time>
      </trkpt>
      <trkpt lat="41.0304320" lon="-3.2762270">
        <ele>961.0</ele>
        <time>2020-09-29T14:00:09Z</time>
      </trkpt>
      <trkpt lat="41.0304320" lon="-3.2762270">
        <ele>961.0</ele>
        <time>2020-09-29T14:00:10Z</time>
      </trkpt>
      <trkpt lat="41.0304000" lon="-3.2761850">
        <ele>961.0</ele>
        <time>2020-09-29T14:00:11Z</time>
      </trkpt>
      <trkpt lat="41.0304000" lon="-3.2761850">
        <ele>961.0</ele>
        <time>2020-09-29T14:00:12Z</time>
      </trkpt>
      <trkpt lat="41.0303730" lon="-3.2761420">
        <ele>961.0</ele>
        <time>2020-09-29T14:00:13Z</time>
      </trkpt>
      <trkpt lat="41.0303730" lon="-3.2761420">
        <ele>961.0</ele>
        <time>2020-09-29T14:00:14Z</time>
      </trkpt>
      <trkpt lat="41.0303450" lon="-3.2760930">
        <ele>962.0</ele>
        <time>2020-09-29T14:00:15Z</time>
      </trkpt>
      <trkpt lat="41.0303450" lon="-3.2760930">
        <ele>962.0</ele>
        <time>2020-09-29T14:00:16Z</time>
      </trkpt>
      <trkpt lat="41.0303170" lon="-3.2760480">
        <ele>962.0</ele>
        <time>2020-09-29T14:00:17Z</time>
      </trkpt>
      <trkpt lat="41.0303170" lon="-3.2760480">
        <ele>962.0</ele>
        <time>2020-09-29T14:00:18Z</time>
      </trkpt>
      <trkpt lat="41.0302880" lon="-3.2760000">
        <ele>963.0</ele>
        <time>2020-09-29T14:00:19Z</time>
      </trkpt>
      <trkpt lat="41.0302750" lon="-3.2759800">
        <ele>963.0</ele>
        <time>2020-09-29T14:00:20Z</time>
      </trkpt>
      <trkpt lat="41.0302750" lon="-3.2759800">
        <ele>963.0</ele>
        <time>2020-09-29T14:00:21Z</time>
      </trkpt>
      <trkpt lat="41.0302430" lon="-3.2759400">
        <ele>963.0</ele>
        <time>2020-09-29T14:00:22Z</time>
      </trkpt>
      <trkpt lat="41.0302430" lon="-3.2759400">
        <ele>964.0</ele>
        <time>2020-09-29T14:00:23Z</time>
      </trkpt>
      <trkpt lat="41.0302130" lon="-3.2758950">
        <ele>964.0</ele>
        <time>2020-09-29T14:00:24Z</time>
      </trkpt>
      <trkpt lat="41.0302020" lon="-3.2758750">
        <ele>964.0</ele>
        <time>2020-09-29T14:00:25Z</time>
      </trkpt>
      <trkpt lat="41.0302020" lon="-3.2758750">
        <ele>964.0</ele>
        <time>2020-09-29T14:00:26Z</time>
      </trkpt>
      <trkpt lat="41.0301720" lon="-3.2758320">
        <ele>964.0</ele>
        <time>2020-09-29T14:00:27Z</time>
      </trkpt>
      <trkpt lat="41.0301720" lon="-3.2758320">
        <ele>964.0</ele>
        <time>2020-09-29T14:00:28Z</time>
      </trkpt>
      <trkpt lat="41.0301400" lon="-3.2757850">
        <ele>964.0</ele>
        <time>2020-09-29T14:00:29Z</time>
      </trkpt>
      <trkpt lat="41.0301400" lon="-3.2757850">
        <ele>965.0</ele>
        <time>2020-09-29T14:00:30Z</time>
      </trkpt>
      <trkpt lat="41.0300970" lon="-3.2757520">
        <ele>965.0</ele>
        <time>2020-09-29T14:00:31Z</time>
      </trkpt>
      <trkpt lat="41.0300970" lon="-3.2757520">
        <ele>963.0</ele>
        <time>2020-09-29T14:00:32Z</time>
      </trkpt>
      <trkpt lat="41.0300630" lon="-3.2757130">
        <ele>963.0</ele>
        <time>2020-09-29T14:00:33Z</time>
      </trkpt>
      <trkpt lat="41.0300630" lon="-3.2757130">
        <ele>965.0</ele>
        <time>2020-09-29T14:00:34Z</time>
      </trkpt>
      <trkpt lat="41.0300280" lon="-3.2756800">
        <ele>965.0</ele>
        <time>2020-09-29T14:00:35Z</time>
      </trkpt>
      <trkpt lat="41.0300100" lon="-3.2756620">
        <ele>965.0</ele>
        <time>2020-09-29T14:00:36Z</time>
      </trkpt>
      <trkpt lat="41.0300100" lon="-3.2756620">
        <ele>965.0</ele>
        <time>2020-09-29T14:00:37Z</time>
      </trkpt>
      <trkpt lat="41.0299720" lon="-3.2756220">
        <ele>966.0</ele>
        <time>2020-09-29T14:00:38Z</time>
      </trkpt>
      <trkpt lat="41.0299720" lon="-3.2756220">
        <ele>966.0</ele>
        <time>2020-09-29T14:00:39Z</time>
      </trkpt>
      <trkpt lat="41.0299400" lon="-3.2755800">
        <ele>966.0</ele>
        <time>2020-09-29T14:00:40Z</time>
      </trkpt>
      <trkpt lat="41.0299400" lon="-3.2755800">
        <ele>966.0</ele>
        <time>2020-09-29T14:00:41Z</time>
      </trkpt>
      <trkpt lat="41.0299050" lon="-3.2755420">
        <ele>966.0</ele>
        <time>2020-09-29T14:00:42Z</time>
      </trkpt>
      <trkpt lat="41.0298850" lon="-3.2755230">
        <ele>966.0</ele>
        <time>2020-09-29T14:00:43Z</time>
      </trkpt>
      <trkpt lat="41.0298850" lon="-3.2755230">
        <ele>967.0</ele>
        <time>2020-09-29T14:00:44Z</time>
      </trkpt>
      <trkpt lat="41.0298430" lon="-3.2754930">
        <ele>967.0</ele>
        <time>2020-09-29T14:00:45Z</time>
      </trkpt>
      <trkpt lat="41.0298430" lon="-3.2754930">
        <ele>967.0</ele>
        <time>2020-09-29T14:00:46Z</time>
      </trkpt>
      <trkpt lat="41.0298120" lon="-3.2754480">
        <ele>967.0</ele>
        <time>2020-09-29T14:00:47Z</time>
      </trkpt>
      <trkpt lat="41.0298120" lon="-3.2754480">
        <ele>968.0</ele>
        <time>2020-09-29T14:00:48Z</time>
      </trkpt>
      <trkpt lat="41.0297830" lon="-3.2753980">
        <ele>968.0</ele>
        <time>2020-09-29T14:00:49Z</time>
      </trkpt>
      <trkpt lat="41.0297680" lon="-3.2753780">
        <ele>968.0</ele>
        <time>2020-09-29T14:00:50Z</time>
      </trkpt>
      <trkpt lat="41.0297680" lon="-3.2753780">
        <ele>968.0</ele>
        <time>2020-09-29T14:00:51Z</time>
      </trkpt>
      <trkpt lat="41.0297420" lon="-3.2753370">
        <ele>968.0</ele>
        <time>2020-09-29T14:00:52Z</time>
      </trkpt>
      <trkpt lat="41.0297420" lon="-3.2753370">
        <ele>968.0</ele>
        <time>2020-09-29T14:00:53Z</time>
      </trkpt>
      <trkpt lat="41.0297120" lon="-3.2752900">
        <ele>968.0</ele>
        <time>2020-09-29T14:00:54Z</time>
      </trkpt>
      <trkpt lat="41.0296970" lon="-3.2752680">
        <ele>969.0</ele>
        <time>2020-09-29T14:00:55Z</time>
      </trkpt>
      <trkpt lat="41.0296820" lon="-3.2752500">
        <ele>969.0</ele>
        <time>2020-09-29T14:00:56Z</time>
      </trkpt>
      <trkpt lat="41.0296820" lon="-3.2752500">
        <ele>969.0</ele>
        <time>2020-09-29T14:00:57Z</time>
      </trkpt>
      <trkpt lat="41.0296500" lon="-3.2752020">
        <ele>969.0</ele>
        <time>2020-09-29T14:00:58Z</time>
      </trkpt>
      <trkpt lat="41.0296500" lon="-3.2752020">
        <ele>970.0</ele>
        <time>2020-09-29T14:00:59Z</time>
      </trkpt>
      <trkpt lat="41.0296180" lon="-3.2751520">
        <ele>970.0</ele>
        <time>2020-09-29T14:01:00Z</time>
      </trkpt>
      <trkpt lat="41.0295980" lon="-3.2751300">
        <ele>970.0</ele>
        <time>2020-09-29T14:01:01Z</time>
      </trkpt>
      <trkpt lat="41.0295980" lon="-3.2751300">
        <ele>970.0</ele>
        <time>2020-09-29T14:01:02Z</time>
      </trkpt>
      <trkpt lat="41.0295650" lon="-3.2750870">
        <ele>970.0</ele>
        <time>2020-09-29T14:01:03Z</time>
      </trkpt>
      <trkpt lat="41.0295650" lon="-3.2750870">
        <ele>971.0</ele>
        <time>2020-09-29T14:01:04Z</time>
      </trkpt>
      <trkpt lat="41.0295350" lon="-3.2750480">
        <ele>971.0</ele>
        <time>2020-09-29T14:01:05Z</time>
      </trkpt>
      <trkpt lat="41.0295120" lon="-3.2750370">
        <ele>971.0</ele>
        <time>2020-09-29T14:01:06Z</time>
      </trkpt>
      <trkpt lat="41.0295120" lon="-3.2750370">
        <ele>971.0</ele>
        <time>2020-09-29T14:01:07Z</time>
      </trkpt>
      <trkpt lat="41.0294700" lon="-3.2750180">
        <ele>972.0</ele>
        <time>2020-09-29T14:01:08Z</time>
      </trkpt>
      <trkpt lat="41.0294700" lon="-3.2750180">
        <ele>972.0</ele>
        <time>2020-09-29T14:01:09Z</time>
      </trkpt>
      <trkpt lat="41.0294270" lon="-3.2750020">
        <ele>972.0</ele>
        <time>2020-09-29T14:01:10Z</time>
      </trkpt>
      <trkpt lat="41.0294270" lon="-3.2750020">
        <ele>972.0</ele>
        <time>2020-09-29T14:01:11Z</time>
      </trkpt>
      <trkpt lat="41.0293900" lon="-3.2749820">
        <ele>973.0</ele>
        <time>2020-09-29T14:01:12Z</time>
      </trkpt>
      <trkpt lat="41.0293680" lon="-3.2749680">
        <ele>973.0</ele>
        <time>2020-09-29T14:01:13Z</time>
      </trkpt>
      <trkpt lat="41.0293680" lon="-3.2749680">
        <ele>973.0</ele>
        <time>2020-09-29T14:01:14Z</time>
      </trkpt>
      <trkpt lat="41.0293250" lon="-3.2749450">
        <ele>973.0</ele>
        <time>2020-09-29T14:01:15Z</time>
      </trkpt>
      <trkpt lat="41.0293250" lon="-3.2749450">
        <ele>974.0</ele>
        <time>2020-09-29T14:01:16Z</time>
      </trkpt>
      <trkpt lat="41.0292770" lon="-3.2749280">
        <ele>974.0</ele>
        <time>2020-09-29T14:01:17Z</time>
      </trkpt>
      <trkpt lat="41.0292770" lon="-3.2749280">
        <ele>974.0</ele>
        <time>2020-09-29T14:01:18Z</time>
      </trkpt>
      <trkpt lat="41.0292280" lon="-3.2749300">
        <ele>974.0</ele>
        <time>2020-09-29T14:01:19Z</time>
      </trkpt>
      <trkpt lat="41.0292280" lon="-3.2749300">
        <ele>974.0</ele>
        <time>2020-09-29T14:01:20Z</time>
      </trkpt>
      <trkpt lat="41.0291830" lon="-3.2749500">
        <ele>974.0</ele>
        <time>2020-09-29T14:01:21Z</time>
      </trkpt>
      <trkpt lat="41.0291830" lon="-3.2749500">
        <ele>974.0</ele>
        <time>2020-09-29T14:01:22Z</time>
      </trkpt>
      <trkpt lat="41.0291450" lon="-3.2749880">
        <ele>974.0</ele>
        <time>2020-09-29T14:01:23Z</time>
      </trkpt>
      <trkpt lat="41.0291450" lon="-3.2749880">
        <ele>974.0</ele>
        <time>2020-09-29T14:01:24Z</time>
      </trkpt>
      <trkpt lat="41.0291170" lon="-3.2750380">
        <ele>974.0</ele>
        <time>2020-09-29T14:01:25Z</time>
      </trkpt>
      <trkpt lat="41.0291170" lon="-3.2750380">
        <ele>975.0</ele>
        <time>2020-09-29T14:01:26Z</time>
      </trkpt>
      <trkpt lat="41.0291030" lon="-3.2750950">
        <ele>975.0</ele>
        <time>2020-09-29T14:01:27Z</time>
      </trkpt>
      <trkpt lat="41.0291030" lon="-3.2750950">
        <ele>975.0</ele>
        <time>2020-09-29T14:01:28Z</time>
      </trkpt>
      <trkpt lat="41.0290980" lon="-3.2751520">
        <ele>975.0</ele>
        <time>2020-09-29T14:01:29Z</time>
      </trkpt>
      <trkpt lat="41.0290980" lon="-3.2751520">
        <ele>976.0</ele>
        <time>2020-09-29T14:01:30Z</time>
      </trkpt>
      <trkpt lat="41.0291120" lon="-3.2752130">
        <ele>976.0</ele>
        <time>2020-09-29T14:01:31Z</time>
      </trkpt>
      <trkpt lat="41.0291220" lon="-3.2752420">
        <ele>976.0</ele>
        <time>2020-09-29T14:01:32Z</time>
      </trkpt>
      <trkpt lat="41.0291300" lon="-3.2752700">
        <ele>976.0</ele>
        <time>2020-09-29T14:01:33Z</time>
      </trkpt>
      <trkpt lat="41.0291300" lon="-3.2752700">
        <ele>976.0</ele>
        <time>2020-09-29T14:01:34Z</time>
      </trkpt>
      <trkpt lat="41.0291520" lon="-3.2753230">
        <ele>977.0</ele>
        <time>2020-09-29T14:01:35Z</time>
      </trkpt>
      <trkpt lat="41.0291650" lon="-3.2753500">
        <ele>977.0</ele>
        <time>2020-09-29T14:01:36Z</time>
      </trkpt>
      <trkpt lat="41.0291650" lon="-3.2753500">
        <ele>977.0</ele>
        <time>2020-09-29T14:01:37Z</time>
      </trkpt>
      <trkpt lat="41.0292000" lon="-3.2753980">
        <ele>977.0</ele>
        <time>2020-09-29T14:01:38Z</time>
      </trkpt>
      <trkpt lat="41.0292000" lon="-3.2753980">
        <ele>978.0</ele>
        <time>2020-09-29T14:01:39Z</time>
      </trkpt>
      <trkpt lat="41.0292470" lon="-3.2754230">
        <ele>978.0</ele>
        <time>2020-09-29T14:01:40Z</time>
      </trkpt>
      <trkpt lat="41.0292670" lon="-3.2754370">
        <ele>978.0</ele>
        <time>2020-09-29T14:01:41Z</time>
      </trkpt>
      <trkpt lat="41.0292870" lon="-3.2754520">
        <ele>978.0</ele>
        <time>2020-09-29T14:01:42Z</time>
      </trkpt>
      <trkpt lat="41.0292870" lon="-3.2754520">
        <ele>979.0</ele>
        <time>2020-09-29T14:01:43Z</time>
      </trkpt>
      <trkpt lat="41.0293280" lon="-3.2754820">
        <ele>979.0</ele>
        <time>2020-09-29T14:01:44Z</time>
      </trkpt>
      <trkpt lat="41.0293530" lon="-3.2754980">
        <ele>979.0</ele>
        <time>2020-09-29T14:01:45Z</time>
      </trkpt>
      <trkpt lat="41.0293530" lon="-3.2754980">
        <ele>979.0</ele>
        <time>2020-09-29T14:01:46Z</time>
      </trkpt>
      <trkpt lat="41.0294020" lon="-3.2755370">
        <ele>979.0</ele>
        <time>2020-09-29T14:01:47Z</time>
      </trkpt>
      <trkpt lat="41.0294020" lon="-3.2755370">
        <ele>979.0</ele>
        <time>2020-09-29T14:01:48Z</time>
      </trkpt>
      <trkpt lat="41.0294570" lon="-3.2755830">
        <ele>979.0</ele>
        <time>2020-09-29T14:01:49Z</time>
      </trkpt>
      <trkpt lat="41.0294570" lon="-3.2755830">
        <ele>979.0</ele>
        <time>2020-09-29T14:01:50Z</time>
      </trkpt>
      <trkpt lat="41.0295130" lon="-3.2756330">
        <ele>979.0</ele>
        <time>2020-09-29T14:01:51Z</time>
      </trkpt>
      <trkpt lat="41.0295430" lon="-3.2756570">
        <ele>979.0</ele>
        <time>2020-09-29T14:01:52Z</time>
      </trkpt>
      <trkpt lat="41.0295430" lon="-3.2756570">
        <ele>979.0</ele>
        <time>2020-09-29T14:01:53Z</time>
      </trkpt>
      <trkpt lat="41.0296020" lon="-3.2757170">
        <ele>979.0</ele>
        <time>2020-09-29T14:01:54Z</time>
      </trkpt>
      <trkpt lat="41.0296320" lon="-3.2757520">
        <ele>979.0</ele>
        <time>2020-09-29T14:01:55Z</time>
      </trkpt>
      <trkpt lat="41.0296580" lon="-3.2757870">
        <ele>979.0</ele>
        <time>2020-09-29T14:01:56Z</time>
      </trkpt>
      <trkpt lat="41.0296580" lon="-3.2757870">
        <ele>979.0</ele>
        <time>2020-09-29T14:01:57Z</time>
      </trkpt>
      <trkpt lat="41.0297120" lon="-3.2758600">
        <ele>979.0</ele>
        <time>2020-09-29T14:01:58Z</time>
      </trkpt>
      <trkpt lat="41.0297120" lon="-3.2758600">
        <ele>979.0</ele>
        <time>2020-09-29T14:01:59Z</time>
      </trkpt>
      <trkpt lat="41.0297630" lon="-3.2759420">
        <ele>979.0</ele>
        <time>2020-09-29T14:02:00Z</time>
      </trkpt>
      <trkpt lat="41.0297630" lon="-3.2759420">
        <ele>979.0</ele>
        <time>2020-09-29T14:02:01Z</time>
      </trkpt>
      <trkpt lat="41.0298130" lon="-3.2760180">
        <ele>979.0</ele>
        <time>2020-09-29T14:02:02Z</time>
      </trkpt>
      <trkpt lat="41.0298380" lon="-3.2760570">
        <ele>979.0</ele>
        <time>2020-09-29T14:02:03Z</time>
      </trkpt>
      <trkpt lat="41.0298380" lon="-3.2760570">
        <ele>979.0</ele>
        <time>2020-09-29T14:02:04Z</time>
      </trkpt>
      <trkpt lat="41.0298900" lon="-3.2761320">
        <ele>979.0</ele>
        <time>2020-09-29T14:02:05Z</time>
      </trkpt>
      <trkpt lat="41.0298900" lon="-3.2761320">
        <ele>979.0</ele>
        <time>2020-09-29T14:02:06Z</time>
      </trkpt>
      <trkpt lat="41.0299300" lon="-3.2762200">
        <ele>979.0</ele>
        <time>2020-09-29T14:02:07Z</time>
      </trkpt>
      <trkpt lat="41.0299300" lon="-3.2762200">
        <ele>979.0</ele>
        <time>2020-09-29T14:02:08Z</time>
      </trkpt>
      <trkpt lat="41.0299620" lon="-3.2763120">
        <ele>979.0</ele>
        <time>2020-09-29T14:02:09Z</time>
      </trkpt>
      <trkpt lat="41.0299750" lon="-3.2763600">
        <ele>979.0</ele>
        <time>2020-09-29T14:02:10Z</time>
      </trkpt>
      <trkpt lat="41.0299750" lon="-3.2763600">
        <ele>979.0</ele>
        <time>2020-09-29T14:02:11Z</time>
      </trkpt>
      <trkpt lat="41.0299980" lon="-3.2764630">
        <ele>979.0</ele>
        <time>2020-09-29T14:02:12Z</time>
      </trkpt>
      <trkpt lat="41.0299980" lon="-3.2764630">
        <ele>979.0</ele>
        <time>2020-09-29T14:02:13Z</time>
      </trkpt>
      <trkpt lat="41.0299900" lon="-3.2765750">
        <ele>979.0</ele>
        <time>2020-09-29T14:02:14Z</time>
      </trkpt>
      <trkpt lat="41.0299900" lon="-3.2765750">
        <ele>979.0</ele>
        <time>2020-09-29T14:02:15Z</time>
      </trkpt>
      <trkpt lat="41.0299530" lon="-3.2766730">
        <ele>979.0</ele>
        <time>2020-09-29T14:02:16Z</time>
      </trkpt>
      <trkpt lat="41.0299530" lon="-3.2766730">
        <ele>979.0</ele>
        <time>2020-09-29T14:02:17Z</time>
      </trkpt>
      <trkpt lat="41.0298950" lon="-3.2767430">
        <ele>979.0</ele>
        <time>2020-09-29T14:02:18Z</time>
      </trkpt>
      <trkpt lat="41.0298550" lon="-3.2767720">
        <ele>979.0</ele>
        <time>2020-09-29T14:02:19Z</time>
      </trkpt>
      <trkpt lat="41.0298550" lon="-3.2767720">
        <ele>979.0</ele>
        <time>2020-09-29T14:02:20Z</time>
      </trkpt>
      <trkpt lat="41.0297720" lon="-3.2767970">
        <ele>979.0</ele>
        <time>2020-09-29T14:02:21Z</time>
      </trkpt>
      <trkpt lat="41.0297300" lon="-3.2767950">
        <ele>979.0</ele>
        <time>2020-09-29T14:02:22Z</time>
      </trkpt>
      <trkpt lat="41.0297300" lon="-3.2767950">
        <ele>979.0</ele>
        <time>2020-09-29T14:02:23Z</time>
      </trkpt>
      <trkpt lat="41.0296550" lon="-3.2767830">
        <ele>979.0</ele>
        <time>2020-09-29T14:02:24Z</time>
      </trkpt>
      <trkpt lat="41.0296550" lon="-3.2767830">
        <ele>979.0</ele>
        <time>2020-09-29T14:02:25Z</time>
      </trkpt>
      <trkpt lat="41.0295970" lon="-3.2767680">
        <ele>980.0</ele>
        <time>2020-09-29T14:02:26Z</time>
      </trkpt>
      <trkpt lat="41.0295970" lon="-3.2767680">
        <ele>980.0</ele>
        <time>2020-09-29T14:02:27Z</time>
      </trkpt>
      <trkpt lat="41.0295450" lon="-3.2767320">
        <ele>980.0</ele>
        <time>2020-09-29T14:02:28Z</time>
      </trkpt>
      <trkpt lat="41.0295450" lon="-3.2767320">
        <ele>980.0</ele>
        <time>2020-09-29T14:02:29Z</time>
      </trkpt>
      <trkpt lat="41.0294900" lon="-3.2767000">
        <ele>980.0</ele>
        <time>2020-09-29T14:02:30Z</time>
      </trkpt>
      <trkpt lat="41.0294600" lon="-3.2766820">
        <ele>980.0</ele>
        <time>2020-09-29T14:02:31Z</time>
      </trkpt>
      <trkpt lat="41.0294600" lon="-3.2766820">
        <ele>981.0</ele>
        <time>2020-09-29T14:02:32Z</time>
      </trkpt>
      <trkpt lat="41.0294030" lon="-3.2766500">
        <ele>981.0</ele>
        <time>2020-09-29T14:02:33Z</time>
      </trkpt>
      <trkpt lat="41.0294030" lon="-3.2766500">
        <ele>981.0</ele>
        <time>2020-09-29T14:02:34Z</time>
      </trkpt>
      <trkpt lat="41.0293450" lon="-3.2766250">
        <ele>982.0</ele>
        <time>2020-09-29T14:02:35Z</time>
      </trkpt>
      <trkpt lat="41.0293450" lon="-3.2766250">
        <ele>982.0</ele>
        <time>2020-09-29T14:02:36Z</time>
      </trkpt>
      <trkpt lat="41.0292870" lon="-3.2766080">
        <ele>983.0</ele>
        <time>2020-09-29T14:02:37Z</time>
      </trkpt>
      <trkpt lat="41.0292870" lon="-3.2766080">
        <ele>983.0</ele>
        <time>2020-09-29T14:02:38Z</time>
      </trkpt>
      <trkpt lat="41.0292330" lon="-3.2765880">
        <ele>983.0</ele>
        <time>2020-09-29T14:02:39Z</time>
      </trkpt>
      <trkpt lat="41.0292080" lon="-3.2765780">
        <ele>983.0</ele>
        <time>2020-09-29T14:02:40Z</time>
      </trkpt>
      <trkpt lat="41.0292080" lon="-3.2765780">
        <ele>984.0</ele>
        <time>2020-09-29T14:02:41Z</time>
      </trkpt>
      <trkpt lat="41.0291550" lon="-3.2765530">
        <ele>984.0</ele>
        <time>2020-09-29T14:02:42Z</time>
      </trkpt>
      <trkpt lat="41.0291550" lon="-3.2765530">
        <ele>984.0</ele>
        <time>2020-09-29T14:02:43Z</time>
      </trkpt>
      <trkpt lat="41.0291020" lon="-3.2765270">
        <ele>984.0</ele>
        <time>2020-09-29T14:02:44Z</time>
      </trkpt>
      <trkpt lat="41.0291020" lon="-3.2765270">
        <ele>985.0</ele>
        <time>2020-09-29T14:02:45Z</time>
      </trkpt>
      <trkpt lat="41.0290500" lon="-3.2765050">
        <ele>985.0</ele>
        <time>2020-09-29T14:02:46Z</time>
      </trkpt>
      <trkpt lat="41.0290250" lon="-3.2764950">
        <ele>985.0</ele>
        <time>2020-09-29T14:02:47Z</time>
      </trkpt>
      <trkpt lat="41.0289970" lon="-3.2764800">
        <ele>985.0</ele>
        <time>2020-09-29T14:02:48Z</time>
      </trkpt>
      <trkpt lat="41.0289970" lon="-3.2764800">
        <ele>985.0</ele>
        <time>2020-09-29T14:02:49Z</time>
      </trkpt>
      <trkpt lat="41.0289450" lon="-3.2764580">
        <ele>986.0</ele>
        <time>2020-09-29T14:02:50Z</time>
      </trkpt>
      <trkpt lat="41.0289450" lon="-3.2764580">
        <ele>986.0</ele>
        <time>2020-09-29T14:02:51Z</time>
      </trkpt>
      <trkpt lat="41.0288880" lon="-3.2764420">
        <ele>986.0</ele>
        <time>2020-09-29T14:02:52Z</time>
      </trkpt>
      <trkpt lat="41.0288600" lon="-3.2764320">
        <ele>986.0</ele>
        <time>2020-09-29T14:02:53Z</time>
      </trkpt>
      <trkpt lat="41.0288600" lon="-3.2764320">
        <ele>986.0</ele>
        <time>2020-09-29T14:02:54Z</time>
      </trkpt>
      <trkpt lat="41.0288020" lon="-3.2764120">
        <ele>986.0</ele>
        <time>2020-09-29T14:02:55Z</time>
      </trkpt>
      <trkpt lat="41.0288020" lon="-3.2764120">
        <ele>986.0</ele>
        <time>2020-09-29T14:02:56Z</time>
      </trkpt>
      <trkpt lat="41.0287470" lon="-3.2763950">
        <ele>987.0</ele>
        <time>2020-09-29T14:02:57Z</time>
      </trkpt>
      <trkpt lat="41.0287470" lon="-3.2763950">
        <ele>987.0</ele>
        <time>2020-09-29T14:02:58Z</time>
      </trkpt>
      <trkpt lat="41.0286930" lon="-3.2763730">
        <ele>987.0</ele>
        <time>2020-09-29T14:02:59Z</time>
      </trkpt>
      <trkpt lat="41.0286930" lon="-3.2763730">
        <ele>987.0</ele>
        <time>2020-09-29T14:03:00Z</time>
      </trkpt>
      <trkpt lat="41.0286380" lon="-3.2763530">
        <ele>987.0</ele>
        <time>2020-09-29T14:03:01Z</time>
      </trkpt>
      <trkpt lat="41.0286380" lon="-3.2763530">
        <ele>987.0</ele>
        <time>2020-09-29T14:03:02Z</time>
      </trkpt>
      <trkpt lat="41.0285820" lon="-3.2763400">
        <ele>987.0</ele>
        <time>2020-09-29T14:03:03Z</time>
      </trkpt>
      <trkpt lat="41.0285820" lon="-3.2763400">
        <ele>987.0</ele>
        <time>2020-09-29T14:03:04Z</time>
      </trkpt>
      <trkpt lat="41.0285270" lon="-3.2763200">
        <ele>987.0</ele>
        <time>2020-09-29T14:03:05Z</time>
      </trkpt>
      <trkpt lat="41.0285000" lon="-3.2763080">
        <ele>987.0</ele>
        <time>2020-09-29T14:03:06Z</time>
      </trkpt>
      <trkpt lat="41.0284750" lon="-3.2762950">
        <ele>987.0</ele>
        <time>2020-09-29T14:03:07Z</time>
      </trkpt>
      <trkpt lat="41.0284750" lon="-3.2762950">
        <ele>988.0</ele>
        <time>2020-09-29T14:03:08Z</time>
      </trkpt>
      <trkpt lat="41.0284250" lon="-3.2762720">
        <ele>988.0</ele>
        <time>2020-09-29T14:03:09Z</time>
      </trkpt>
      <trkpt lat="41.0284250" lon="-3.2762720">
        <ele>988.0</ele>
        <time>2020-09-29T14:03:10Z</time>
      </trkpt>
      <trkpt lat="41.0283730" lon="-3.2762450">
        <ele>988.0</ele>
        <time>2020-09-29T14:03:11Z</time>
      </trkpt>
      <trkpt lat="41.0283470" lon="-3.2762300">
        <ele>988.0</ele>
        <time>2020-09-29T14:03:12Z</time>
      </trkpt>
      <trkpt lat="41.0283230" lon="-3.2762150">
        <ele>988.0</ele>
        <time>2020-09-29T14:03:13Z</time>
      </trkpt>
      <trkpt lat="41.0283230" lon="-3.2762150">
        <ele>989.0</ele>
        <time>2020-09-29T14:03:14Z</time>
      </trkpt>
      <trkpt lat="41.0282730" lon="-3.2761830">
        <ele>989.0</ele>
        <time>2020-09-29T14:03:15Z</time>
      </trkpt>
      <trkpt lat="41.0282500" lon="-3.2761680">
        <ele>989.0</ele>
        <time>2020-09-29T14:03:16Z</time>
      </trkpt>
      <trkpt lat="41.0282500" lon="-3.2761680">
        <ele>989.0</ele>
        <time>2020-09-29T14:03:17Z</time>
      </trkpt>
      <trkpt lat="41.0282030" lon="-3.2761350">
        <ele>990.0</ele>
        <time>2020-09-29T14:03:18Z</time>
      </trkpt>
      <trkpt lat="41.0282030" lon="-3.2761350">
        <ele>990.0</ele>
        <time>2020-09-29T14:03:19Z</time>
      </trkpt>
      <trkpt lat="41.0281620" lon="-3.2760930">
        <ele>990.0</ele>
        <time>2020-09-29T14:03:20Z</time>
      </trkpt>
      <trkpt lat="41.0281620" lon="-3.2760930">
        <ele>991.0</ele>
        <time>2020-09-29T14:03:21Z</time>
      </trkpt>
      <trkpt lat="41.0281220" lon="-3.2760580">
        <ele>991.0</ele>
        <time>2020-09-29T14:03:22Z</time>
      </trkpt>
      <trkpt lat="41.0280830" lon="-3.2760270">
        <ele>991.0</ele>
        <time>2020-09-29T14:03:23Z</time>
      </trkpt>
      <trkpt lat="41.0280830" lon="-3.2760270">
        <ele>991.0</ele>
        <time>2020-09-29T14:03:24Z</time>
      </trkpt>
      <trkpt lat="41.0280620" lon="-3.2760100">
        <ele>991.0</ele>
        <time>2020-09-29T14:03:25Z</time>
      </trkpt>
      <trkpt lat="41.0280620" lon="-3.2760100">
        <ele>991.0</ele>
        <time>2020-09-29T14:03:26Z</time>
      </trkpt>
      <trkpt lat="41.0280200" lon="-3.2759670">
        <ele>991.0</ele>
        <time>2020-09-29T14:03:27Z</time>
      </trkpt>
      <trkpt lat="41.0279970" lon="-3.2759450">
        <ele>991.0</ele>
        <time>2020-09-29T14:03:28Z</time>
      </trkpt>
      <trkpt lat="41.0279970" lon="-3.2759450">
        <ele>992.0</ele>
        <time>2020-09-29T14:03:29Z</time>
      </trkpt>
      <trkpt lat="41.0279500" lon="-3.2759050">
        <ele>992.0</ele>
        <time>2020-09-29T14:03:30Z</time>
      </trkpt>
      <trkpt lat="41.0279500" lon="-3.2759050">
        <ele>992.0</ele>
        <time>2020-09-29T14:03:31Z</time>
      </trkpt>
      <trkpt lat="41.0279050" lon="-3.2758620">
        <ele>992.0</ele>
        <time>2020-09-29T14:03:32Z</time>
      </trkpt>
      <trkpt lat="41.0278850" lon="-3.2758450">
        <ele>993.0</ele>
        <time>2020-09-29T14:03:33Z</time>
      </trkpt>
      <trkpt lat="41.0278850" lon="-3.2758450">
        <ele>993.0</ele>
        <time>2020-09-29T14:03:34Z</time>
      </trkpt>
      <trkpt lat="41.0278430" lon="-3.2758080">
        <ele>993.0</ele>
        <time>2020-09-29T14:03:35Z</time>
      </trkpt>
      <trkpt lat="41.0278220" lon="-3.2757880">
        <ele>993.0</ele>
        <time>2020-09-29T14:03:36Z</time>
      </trkpt>
      <trkpt lat="41.0278220" lon="-3.2757880">
        <ele>994.0</ele>
        <time>2020-09-29T14:03:37Z</time>
      </trkpt>
      <trkpt lat="41.0277800" lon="-3.2757570">
        <ele>994.0</ele>
        <time>2020-09-29T14:03:38Z</time>
      </trkpt>
      <trkpt lat="41.0277580" lon="-3.2757420">
        <ele>994.0</ele>
        <time>2020-09-29T14:03:39Z</time>
      </trkpt>
      <trkpt lat="41.0277580" lon="-3.2757420">
        <ele>994.0</ele>
        <time>2020-09-29T14:03:40Z</time>
      </trkpt>
      <trkpt lat="41.0277130" lon="-3.2757100">
        <ele>995.0</ele>
        <time>2020-09-29T14:03:41Z</time>
      </trkpt>
      <trkpt lat="41.0277130" lon="-3.2757100">
        <ele>995.0</ele>
        <time>2020-09-29T14:03:42Z</time>
      </trkpt>
      <trkpt lat="41.0276750" lon="-3.2756780">
        <ele>995.0</ele>
        <time>2020-09-29T14:03:43Z</time>
      </trkpt>
      <trkpt lat="41.0276550" lon="-3.2756620">
        <ele>995.0</ele>
        <time>2020-09-29T14:03:44Z</time>
      </trkpt>
      <trkpt lat="41.0276550" lon="-3.2756620">
        <ele>996.0</ele>
        <time>2020-09-29T14:03:45Z</time>
      </trkpt>
      <trkpt lat="41.0276170" lon="-3.2756230">
        <ele>996.0</ele>
        <time>2020-09-29T14:03:46Z</time>
      </trkpt>
      <trkpt lat="41.0276170" lon="-3.2756230">
        <ele>996.0</ele>
        <time>2020-09-29T14:03:47Z</time>
      </trkpt>
      <trkpt lat="41.0275730" lon="-3.2755880">
        <ele>996.0</ele>
        <time>2020-09-29T14:03:48Z</time>
      </trkpt>
      <trkpt lat="41.0275730" lon="-3.2755880">
        <ele>997.0</ele>
        <time>2020-09-29T14:03:49Z</time>
      </trkpt>
      <trkpt lat="41.0275320" lon="-3.2755570">
        <ele>997.0</ele>
        <time>2020-09-29T14:03:50Z</time>
      </trkpt>
      <trkpt lat="41.0275080" lon="-3.2755430">
        <ele>997.0</ele>
        <time>2020-09-29T14:03:51Z</time>
      </trkpt>
      <trkpt lat="41.0274920" lon="-3.2755300">
        <ele>997.0</ele>
        <time>2020-09-29T14:03:52Z</time>
      </trkpt>
      <trkpt lat="41.0274920" lon="-3.2755300">
        <ele>998.0</ele>
        <time>2020-09-29T14:03:53Z</time>
      </trkpt>
      <trkpt lat="41.0274520" lon="-3.2754920">
        <ele>998.0</ele>
        <time>2020-09-29T14:03:54Z</time>
      </trkpt>
      <trkpt lat="41.0274330" lon="-3.2754730">
        <ele>998.0</ele>
        <time>2020-09-29T14:03:55Z</time>
      </trkpt>
      <trkpt lat="41.0274330" lon="-3.2754730">
        <ele>998.0</ele>
        <time>2020-09-29T14:03:56Z</time>
      </trkpt>
      <trkpt lat="41.0273950" lon="-3.2754350">
        <ele>999.0</ele>
        <time>2020-09-29T14:03:57Z</time>
      </trkpt>
      <trkpt lat="41.0273950" lon="-3.2754350">
        <ele>999.0</ele>
        <time>2020-09-29T14:03:58Z</time>
      </trkpt>
      <trkpt lat="41.0273580" lon="-3.2753980">
        <ele>999.0</ele>
        <time>2020-09-29T14:03:59Z</time>
      </trkpt>
      <trkpt lat="41.0273580" lon="-3.2753980">
        <ele>1000.0</ele>
        <time>2020-09-29T14:04:00Z</time>
      </trkpt>
      <trkpt lat="41.0273180" lon="-3.2753570">
        <ele>1000.0</ele>
        <time>2020-09-29T14:04:01Z</time>
      </trkpt>
      <trkpt lat="41.0273180" lon="-3.2753570">
        <ele>1000.0</ele>
        <time>2020-09-29T14:04:02Z</time>
      </trkpt>
      <trkpt lat="41.0272780" lon="-3.2753220">
        <ele>1000.0</ele>
        <time>2020-09-29T14:04:03Z</time>
      </trkpt>
      <trkpt lat="41.0272550" lon="-3.2753070">
        <ele>1001.0</ele>
        <time>2020-09-29T14:04:04Z</time>
      </trkpt>
      <trkpt lat="41.0272550" lon="-3.2753070">
        <ele>1001.0</ele>
        <time>2020-09-29T14:04:05Z</time>
      </trkpt>
      <trkpt lat="41.0272030" lon="-3.2752750">
        <ele>1001.0</ele>
        <time>2020-09-29T14:04:06Z</time>
      </trkpt>
      <trkpt lat="41.0271780" lon="-3.2752580">
        <ele>1001.0</ele>
        <time>2020-09-29T14:04:07Z</time>
      </trkpt>
      <trkpt lat="41.0271780" lon="-3.2752580">
        <ele>1002.0</ele>
        <time>2020-09-29T14:04:08Z</time>
      </trkpt>
      <trkpt lat="41.0271320" lon="-3.2752300">
        <ele>1002.0</ele>
        <time>2020-09-29T14:04:09Z</time>
      </trkpt>
      <trkpt lat="41.0271070" lon="-3.2752220">
        <ele>1002.0</ele>
        <time>2020-09-29T14:04:10Z</time>
      </trkpt>
      <trkpt lat="41.0270800" lon="-3.2752180">
        <ele>1002.0</ele>
        <time>2020-09-29T14:04:11Z</time>
      </trkpt>
      <trkpt lat="41.0270800" lon="-3.2752180">
        <ele>1003.0</ele>
        <time>2020-09-29T14:04:12Z</time>
      </trkpt>
      <trkpt lat="41.0270300" lon="-3.2752050">
        <ele>1003.0</ele>
        <time>2020-09-29T14:04:13Z</time>
      </trkpt>
      <trkpt lat="41.0270300" lon="-3.2752050">
        <ele>1003.0</ele>
        <time>2020-09-29T14:04:14Z</time>
      </trkpt>
      <trkpt lat="41.0269820" lon="-3.2751950">
        <ele>1003.0</ele>
        <time>2020-09-29T14:04:15Z</time>
      </trkpt>
      <trkpt lat="41.0269820" lon="-3.2751950">
        <ele>1003.0</ele>
        <time>2020-09-29T14:04:16Z</time>
      </trkpt>
      <trkpt lat="41.0269320" lon="-3.2751920">
        <ele>1003.0</ele>
        <time>2020-09-29T14:04:17Z</time>
      </trkpt>
      <trkpt lat="41.0269050" lon="-3.2751900">
        <ele>1003.0</ele>
        <time>2020-09-29T14:04:18Z</time>
      </trkpt>
      <trkpt lat="41.0269050" lon="-3.2751900">
        <ele>1003.0</ele>
        <time>2020-09-29T14:04:19Z</time>
      </trkpt>
      <trkpt lat="41.0268550" lon="-3.2751900">
        <ele>1003.0</ele>
        <time>2020-09-29T14:04:20Z</time>
      </trkpt>
      <trkpt lat="41.0268550" lon="-3.2751900">
        <ele>1003.0</ele>
        <time>2020-09-29T14:04:21Z</time>
      </trkpt>
      <trkpt lat="41.0268100" lon="-3.2751870">
        <ele>1004.0</ele>
        <time>2020-09-29T14:04:22Z</time>
      </trkpt>
      <trkpt lat="41.0268100" lon="-3.2751870">
        <ele>1004.0</ele>
        <time>2020-09-29T14:04:23Z</time>
      </trkpt>
      <trkpt lat="41.0267630" lon="-3.2751880">
        <ele>1004.0</ele>
        <time>2020-09-29T14:04:24Z</time>
      </trkpt>
      <trkpt lat="41.0267630" lon="-3.2751880">
        <ele>1004.0</ele>
        <time>2020-09-29T14:04:25Z</time>
      </trkpt>
      <trkpt lat="41.0267130" lon="-3.2751900">
        <ele>1004.0</ele>
        <time>2020-09-29T14:04:26Z</time>
      </trkpt>
      <trkpt lat="41.0266900" lon="-3.2751930">
        <ele>1004.0</ele>
        <time>2020-09-29T14:04:27Z</time>
      </trkpt>
      <trkpt lat="41.0266900" lon="-3.2751930">
        <ele>1005.0</ele>
        <time>2020-09-29T14:04:28Z</time>
      </trkpt>
      <trkpt lat="41.0266430" lon="-3.2752030">
        <ele>1005.0</ele>
        <time>2020-09-29T14:04:29Z</time>
      </trkpt>
      <trkpt lat="41.0266430" lon="-3.2752030">
        <ele>1005.0</ele>
        <time>2020-09-29T14:04:30Z</time>
      </trkpt>
      <trkpt lat="41.0265970" lon="-3.2752180">
        <ele>1005.0</ele>
        <time>2020-09-29T14:04:31Z</time>
      </trkpt>
      <trkpt lat="41.0265730" lon="-3.2752280">
        <ele>1006.0</ele>
        <time>2020-09-29T14:04:32Z</time>
      </trkpt>
      <trkpt lat="41.0265730" lon="-3.2752280">
        <ele>1006.0</ele>
        <time>2020-09-29T14:04:33Z</time>
      </trkpt>
      <trkpt lat="41.0265270" lon="-3.2752470">
        <ele>1006.0</ele>
        <time>2020-09-29T14:04:34Z</time>
      </trkpt>
      <trkpt lat="41.0265270" lon="-3.2752470">
        <ele>1006.0</ele>
        <time>2020-09-29T14:04:35Z</time>
      </trkpt>
      <trkpt lat="41.0264820" lon="-3.2752650">
        <ele>1007.0</ele>
        <time>2020-09-29T14:04:36Z</time>
      </trkpt>
      <trkpt lat="41.0264820" lon="-3.2752650">
        <ele>1007.0</ele>
        <time>2020-09-29T14:04:37Z</time>
      </trkpt>
      <trkpt lat="41.0264330" lon="-3.2752770">
        <ele>1007.0</ele>
        <time>2020-09-29T14:04:38Z</time>
      </trkpt>
      <trkpt lat="41.0264330" lon="-3.2752770">
        <ele>1007.0</ele>
        <time>2020-09-29T14:04:39Z</time>
      </trkpt>
      <trkpt lat="41.0263880" lon="-3.2752880">
        <ele>1008.0</ele>
        <time>2020-09-29T14:04:40Z</time>
      </trkpt>
      <trkpt lat="41.0263880" lon="-3.2752880">
        <ele>1008.0</ele>
        <time>2020-09-29T14:04:41Z</time>
      </trkpt>
      <trkpt lat="41.0263450" lon="-3.2753130">
        <ele>1008.0</ele>
        <time>2020-09-29T14:04:42Z</time>
      </trkpt>
      <trkpt lat="41.0263450" lon="-3.2753130">
        <ele>1008.0</ele>
        <time>2020-09-29T14:04:43Z</time>
      </trkpt>
      <trkpt lat="41.0263020" lon="-3.2753350">
        <ele>1008.0</ele>
        <time>2020-09-29T14:04:44Z</time>
      </trkpt>
      <trkpt lat="41.0263020" lon="-3.2753350">
        <ele>1008.0</ele>
        <time>2020-09-29T14:04:45Z</time>
      </trkpt>
      <trkpt lat="41.0262570" lon="-3.2753530">
        <ele>1009.0</ele>
        <time>2020-09-29T14:04:46Z</time>
      </trkpt>
      <trkpt lat="41.0262570" lon="-3.2753530">
        <ele>1009.0</ele>
        <time>2020-09-29T14:04:47Z</time>
      </trkpt>
      <trkpt lat="41.0262070" lon="-3.2753650">
        <ele>1009.0</ele>
        <time>2020-09-29T14:04:48Z</time>
      </trkpt>
      <trkpt lat="41.0261820" lon="-3.2753700">
        <ele>1009.0</ele>
        <time>2020-09-29T14:04:49Z</time>
      </trkpt>
      <trkpt lat="41.0261570" lon="-3.2753720">
        <ele>1009.0</ele>
        <time>2020-09-29T14:04:50Z</time>
      </trkpt>
      <trkpt lat="41.0261570" lon="-3.2753720">
        <ele>1009.0</ele>
        <time>2020-09-29T14:04:51Z</time>
      </trkpt>
      <trkpt lat="41.0261050" lon="-3.2753720">
        <ele>1010.0</ele>
        <time>2020-09-29T14:04:52Z</time>
      </trkpt>
      <trkpt lat="41.0260780" lon="-3.2753700">
        <ele>1010.0</ele>
        <time>2020-09-29T14:04:53Z</time>
      </trkpt>
      <trkpt lat="41.0260780" lon="-3.2753700">
        <ele>1010.0</ele>
        <time>2020-09-29T14:04:54Z</time>
      </trkpt>
      <trkpt lat="41.0260280" lon="-3.2753630">
        <ele>1010.0</ele>
        <time>2020-09-29T14:04:55Z</time>
      </trkpt>
      <trkpt lat="41.0260020" lon="-3.2753580">
        <ele>1010.0</ele>
        <time>2020-09-29T14:04:56Z</time>
      </trkpt>
      <trkpt lat="41.0260020" lon="-3.2753580">
        <ele>1010.0</ele>
        <time>2020-09-29T14:04:57Z</time>
      </trkpt>
      <trkpt lat="41.0259500" lon="-3.2753430">
        <ele>1011.0</ele>
        <time>2020-09-29T14:04:58Z</time>
      </trkpt>
      <trkpt lat="41.0259500" lon="-3.2753430">
        <ele>1011.0</ele>
        <time>2020-09-29T14:04:59Z</time>
      </trkpt>
      <trkpt lat="41.0258980" lon="-3.2753270">
        <ele>1011.0</ele>
        <time>2020-09-29T14:05:00Z</time>
      </trkpt>
      <trkpt lat="41.0258720" lon="-3.2753200">
        <ele>1011.0</ele>
        <time>2020-09-29T14:05:01Z</time>
      </trkpt>
      <trkpt lat="41.0258720" lon="-3.2753200">
        <ele>1011.0</ele>
        <time>2020-09-29T14:05:02Z</time>
      </trkpt>
      <trkpt lat="41.0258200" lon="-3.2753050">
        <ele>1011.0</ele>
        <time>2020-09-29T14:05:03Z</time>
      </trkpt>
      <trkpt lat="41.0257950" lon="-3.2752980">
        <ele>1011.0</ele>
        <time>2020-09-29T14:05:04Z</time>
      </trkpt>
      <trkpt lat="41.0257950" lon="-3.2752980">
        <ele>1011.0</ele>
        <time>2020-09-29T14:05:05Z</time>
      </trkpt>
      <trkpt lat="41.0257430" lon="-3.2752850">
        <ele>1011.0</ele>
        <time>2020-09-29T14:05:06Z</time>
      </trkpt>
      <trkpt lat="41.0257180" lon="-3.2752800">
        <ele>1012.0</ele>
        <time>2020-09-29T14:05:07Z</time>
      </trkpt>
      <trkpt lat="41.0257180" lon="-3.2752800">
        <ele>1012.0</ele>
        <time>2020-09-29T14:05:08Z</time>
      </trkpt>
      <trkpt lat="41.0256730" lon="-3.2752850">
        <ele>1012.0</ele>
        <time>2020-09-29T14:05:09Z</time>
      </trkpt>
      <trkpt lat="41.0256580" lon="-3.2753000">
        <ele>1012.0</ele>
        <time>2020-09-29T14:05:10Z</time>
      </trkpt>
      <trkpt lat="41.0256480" lon="-3.2753200">
        <ele>1012.0</ele>
        <time>2020-09-29T14:05:11Z</time>
      </trkpt>
      <trkpt lat="41.0256480" lon="-3.2753200">
        <ele>1013.0</ele>
        <time>2020-09-29T14:05:12Z</time>
      </trkpt>
      <trkpt lat="41.0256470" lon="-3.2753870">
        <ele>1013.0</ele>
        <time>2020-09-29T14:05:13Z</time>
      </trkpt>
      <trkpt lat="41.0256470" lon="-3.2753870">
        <ele>1013.0</ele>
        <time>2020-09-29T14:05:14Z</time>
      </trkpt>
      <trkpt lat="41.0256630" lon="-3.2754630">
        <ele>1013.0</ele>
        <time>2020-09-29T14:05:15Z</time>
      </trkpt>
      <trkpt lat="41.0256750" lon="-3.2755030">
        <ele>1013.0</ele>
        <time>2020-09-29T14:05:16Z</time>
      </trkpt>
      <trkpt lat="41.0256750" lon="-3.2755030">
        <ele>1013.0</ele>
        <time>2020-09-29T14:05:17Z</time>
      </trkpt>
      <trkpt lat="41.0256920" lon="-3.2755980">
        <ele>1013.0</ele>
        <time>2020-09-29T14:05:18Z</time>
      </trkpt>
      <trkpt lat="41.0256980" lon="-3.2756470">
        <ele>1013.0</ele>
        <time>2020-09-29T14:05:19Z</time>
      </trkpt>
      <trkpt lat="41.0256980" lon="-3.2756470">
        <ele>1013.0</ele>
        <time>2020-09-29T14:05:20Z</time>
      </trkpt>
      <trkpt lat="41.0257230" lon="-3.2757430">
        <ele>1013.0</ele>
        <time>2020-09-29T14:05:21Z</time>
      </trkpt>
      <trkpt lat="41.0257330" lon="-3.2757900">
        <ele>1013.0</ele>
        <time>2020-09-29T14:05:22Z</time>
      </trkpt>
      <trkpt lat="41.0257330" lon="-3.2757900">
        <ele>1013.0</ele>
        <time>2020-09-29T14:05:23Z</time>
      </trkpt>
      <trkpt lat="41.0257570" lon="-3.2758870">
        <ele>1013.0</ele>
        <time>2020-09-29T14:05:24Z</time>
      </trkpt>
      <trkpt lat="41.0257680" lon="-3.2759370">
        <ele>1013.0</ele>
        <time>2020-09-29T14:05:25Z</time>
      </trkpt>
      <trkpt lat="41.0257680" lon="-3.2759370">
        <ele>1013.0</ele>
        <time>2020-09-29T14:05:26Z</time>
      </trkpt>
      <trkpt lat="41.0257970" lon="-3.2760300">
        <ele>1013.0</ele>
        <time>2020-09-29T14:05:27Z</time>
      </trkpt>
      <trkpt lat="41.0257970" lon="-3.2760300">
        <ele>1013.0</ele>
        <time>2020-09-29T14:05:28Z</time>
      </trkpt>
      <trkpt lat="41.0258230" lon="-3.2761150">
        <ele>1013.0</ele>
        <time>2020-09-29T14:05:29Z</time>
      </trkpt>
      <trkpt lat="41.0258230" lon="-3.2761150">
        <ele>1013.0</ele>
        <time>2020-09-29T14:05:30Z</time>
      </trkpt>
      <trkpt lat="41.0258620" lon="-3.2761880">
        <ele>1013.0</ele>
        <time>2020-09-29T14:05:31Z</time>
      </trkpt>
      <trkpt lat="41.0258620" lon="-3.2761880">
        <ele>1013.0</ele>
        <time>2020-09-29T14:05:32Z</time>
      </trkpt>
      <trkpt lat="41.0259250" lon="-3.2762350">
        <ele>1013.0</ele>
        <time>2020-09-29T14:05:33Z</time>
      </trkpt>
      <trkpt lat="41.0259250" lon="-3.2762350">
        <ele>1013.0</ele>
        <time>2020-09-29T14:05:34Z</time>
      </trkpt>
      <trkpt lat="41.0260000" lon="-3.2762520">
        <ele>1013.0</ele>
        <time>2020-09-29T14:05:35Z</time>
      </trkpt>
      <trkpt lat="41.0260000" lon="-3.2762520">
        <ele>1013.0</ele>
        <time>2020-09-29T14:05:36Z</time>
      </trkpt>
      <trkpt lat="41.0260900" lon="-3.2762300">
        <ele>1013.0</ele>
        <time>2020-09-29T14:05:37Z</time>
      </trkpt>
      <trkpt lat="41.0260900" lon="-3.2762300">
        <ele>1013.0</ele>
        <time>2020-09-29T14:05:38Z</time>
      </trkpt>
      <trkpt lat="41.0261780" lon="-3.2762150">
        <ele>1013.0</ele>
        <time>2020-09-29T14:05:39Z</time>
      </trkpt>
      <trkpt lat="41.0261780" lon="-3.2762150">
        <ele>1013.0</ele>
        <time>2020-09-29T14:05:40Z</time>
      </trkpt>
      <trkpt lat="41.0262680" lon="-3.2762200">
        <ele>1013.0</ele>
        <time>2020-09-29T14:05:41Z</time>
      </trkpt>
      <trkpt lat="41.0262680" lon="-3.2762200">
        <ele>1013.0</ele>
        <time>2020-09-29T14:05:42Z</time>
      </trkpt>
      <trkpt lat="41.0263620" lon="-3.2762620">
        <ele>1013.0</ele>
        <time>2020-09-29T14:05:43Z</time>
      </trkpt>
      <trkpt lat="41.0263620" lon="-3.2762620">
        <ele>1013.0</ele>
        <time>2020-09-29T14:05:44Z</time>
      </trkpt>
      <trkpt lat="41.0264380" lon="-3.2763450">
        <ele>1013.0</ele>
        <time>2020-09-29T14:05:45Z</time>
      </trkpt>
      <trkpt lat="41.0264680" lon="-3.2763980">
        <ele>1013.0</ele>
        <time>2020-09-29T14:05:46Z</time>
      </trkpt>
      <trkpt lat="41.0264680" lon="-3.2763980">
        <ele>1013.0</ele>
        <time>2020-09-29T14:05:47Z</time>
      </trkpt>
      <trkpt lat="41.0265230" lon="-3.2765100">
        <ele>1013.0</ele>
        <time>2020-09-29T14:05:48Z</time>
      </trkpt>
      <trkpt lat="41.0265480" lon="-3.2765670">
        <ele>1013.0</ele>
        <time>2020-09-29T14:05:49Z</time>
      </trkpt>
      <trkpt lat="41.0265480" lon="-3.2765670">
        <ele>1013.0</ele>
        <time>2020-09-29T14:05:50Z</time>
      </trkpt>
      <trkpt lat="41.0265950" lon="-3.2766820">
        <ele>1013.0</ele>
        <time>2020-09-29T14:05:51Z</time>
      </trkpt>
      <trkpt lat="41.0266180" lon="-3.2767380">
        <ele>1013.0</ele>
        <time>2020-09-29T14:05:52Z</time>
      </trkpt>
      <trkpt lat="41.0266180" lon="-3.2767380">
        <ele>1013.0</ele>
        <time>2020-09-29T14:05:53Z</time>
      </trkpt>
      <trkpt lat="41.0266620" lon="-3.2768550">
        <ele>1013.0</ele>
        <time>2020-09-29T14:05:54Z</time>
      </trkpt>
      <trkpt lat="41.0266620" lon="-3.2768550">
        <ele>1013.0</ele>
        <time>2020-09-29T14:05:55Z</time>
      </trkpt>
      <trkpt lat="41.0267030" lon="-3.2769700">
        <ele>1013.0</ele>
        <time>2020-09-29T14:05:56Z</time>
      </trkpt>
      <trkpt lat="41.0267220" lon="-3.2770300">
        <ele>1013.0</ele>
        <time>2020-09-29T14:05:57Z</time>
      </trkpt>
      <trkpt lat="41.0267220" lon="-3.2770300">
        <ele>1013.0</ele>
        <time>2020-09-29T14:05:58Z</time>
      </trkpt>
      <trkpt lat="41.0267650" lon="-3.2771500">
        <ele>1013.0</ele>
        <time>2020-09-29T14:05:59Z</time>
      </trkpt>
      <trkpt lat="41.0267920" lon="-3.2772080">
        <ele>1013.0</ele>
        <time>2020-09-29T14:06:00Z</time>
      </trkpt>
      <trkpt lat="41.0267920" lon="-3.2772080">
        <ele>1013.0</ele>
        <time>2020-09-29T14:06:01Z</time>
      </trkpt>
      <trkpt lat="41.0268370" lon="-3.2773270">
        <ele>1013.0</ele>
        <time>2020-09-29T14:06:02Z</time>
      </trkpt>
      <trkpt lat="41.0268550" lon="-3.2773870">
        <ele>1013.0</ele>
        <time>2020-09-29T14:06:03Z</time>
      </trkpt>
      <trkpt lat="41.0268550" lon="-3.2773870">
        <ele>1013.0</ele>
        <time>2020-09-29T14:06:04Z</time>
      </trkpt>
      <trkpt lat="41.0268880" lon="-3.2774980">
        <ele>1013.0</ele>
        <time>2020-09-29T14:06:05Z</time>
      </trkpt>
      <trkpt lat="41.0268880" lon="-3.2774980">
        <ele>1013.0</ele>
        <time>2020-09-29T14:06:06Z</time>
      </trkpt>
      <trkpt lat="41.0269070" lon="-3.2776030">
        <ele>1013.0</ele>
        <time>2020-09-29T14:06:07Z</time>
      </trkpt>
      <trkpt lat="41.0269070" lon="-3.2776030">
        <ele>1013.0</ele>
        <time>2020-09-29T14:06:08Z</time>
      </trkpt>
      <trkpt lat="41.0269270" lon="-3.2777130">
        <ele>1013.0</ele>
        <time>2020-09-29T14:06:09Z</time>
      </trkpt>
      <trkpt lat="41.0269420" lon="-3.2777670">
        <ele>1013.0</ele>
        <time>2020-09-29T14:06:10Z</time>
      </trkpt>
      <trkpt lat="41.0269420" lon="-3.2777670">
        <ele>1013.0</ele>
        <time>2020-09-29T14:06:11Z</time>
      </trkpt>
      <trkpt lat="41.0269700" lon="-3.2778820">
        <ele>1013.0</ele>
        <time>2020-09-29T14:06:12Z</time>
      </trkpt>
      <trkpt lat="41.0269780" lon="-3.2779380">
        <ele>1013.0</ele>
        <time>2020-09-29T14:06:13Z</time>
      </trkpt>
      <trkpt lat="41.0269780" lon="-3.2779380">
        <ele>1013.0</ele>
        <time>2020-09-29T14:06:14Z</time>
      </trkpt>
      <trkpt lat="41.0269950" lon="-3.2780450">
        <ele>1013.0</ele>
        <time>2020-09-29T14:06:15Z</time>
      </trkpt>
      <trkpt lat="41.0269950" lon="-3.2780450">
        <ele>1013.0</ele>
        <time>2020-09-29T14:06:16Z</time>
      </trkpt>
      <trkpt lat="41.0270220" lon="-3.2781450">
        <ele>1013.0</ele>
        <time>2020-09-29T14:06:17Z</time>
      </trkpt>
      <trkpt lat="41.0270220" lon="-3.2781450">
        <ele>1013.0</ele>
        <time>2020-09-29T14:06:18Z</time>
      </trkpt>
      <trkpt lat="41.0270400" lon="-3.2782470">
        <ele>1013.0</ele>
        <time>2020-09-29T14:06:19Z</time>
      </trkpt>
      <trkpt lat="41.0270400" lon="-3.2782470">
        <ele>1013.0</ele>
        <time>2020-09-29T14:06:20Z</time>
      </trkpt>
      <trkpt lat="41.0270770" lon="-3.2783380">
        <ele>1013.0</ele>
        <time>2020-09-29T14:06:21Z</time>
      </trkpt>
      <trkpt lat="41.0271070" lon="-3.2783750">
        <ele>1013.0</ele>
        <time>2020-09-29T14:06:22Z</time>
      </trkpt>
      <trkpt lat="41.0271070" lon="-3.2783750">
        <ele>1013.0</ele>
        <time>2020-09-29T14:06:23Z</time>
      </trkpt>
      <trkpt lat="41.0271730" lon="-3.2784300">
        <ele>1013.0</ele>
        <time>2020-09-29T14:06:24Z</time>
      </trkpt>
      <trkpt lat="41.0272080" lon="-3.2784480">
        <ele>1013.0</ele>
        <time>2020-09-29T14:06:25Z</time>
      </trkpt>
      <trkpt lat="41.0272080" lon="-3.2784480">
        <ele>1013.0</ele>
        <time>2020-09-29T14:06:26Z</time>
      </trkpt>
      <trkpt lat="41.0272920" lon="-3.2784630">
        <ele>1013.0</ele>
        <time>2020-09-29T14:06:27Z</time>
      </trkpt>
      <trkpt lat="41.0272920" lon="-3.2784630">
        <ele>1013.0</ele>
        <time>2020-09-29T14:06:28Z</time>
      </trkpt>
      <trkpt lat="41.0273770" lon="-3.2784750">
        <ele>1013.0</ele>
        <time>2020-09-29T14:06:29Z</time>
      </trkpt>
      <trkpt lat="41.0273770" lon="-3.2784750">
        <ele>1013.0</ele>
        <time>2020-09-29T14:06:30Z</time>
      </trkpt>
      <trkpt lat="41.0274650" lon="-3.2784920">
        <ele>1013.0</ele>
        <time>2020-09-29T14:06:31Z</time>
      </trkpt>
      <trkpt lat="41.0274650" lon="-3.2784920">
        <ele>1013.0</ele>
        <time>2020-09-29T14:06:32Z</time>
      </trkpt>
      <trkpt lat="41.0275600" lon="-3.2785150">
        <ele>1013.0</ele>
        <time>2020-09-29T14:06:33Z</time>
      </trkpt>
      <trkpt lat="41.0276100" lon="-3.2785330">
        <ele>1013.0</ele>
        <time>2020-09-29T14:06:34Z</time>
      </trkpt>
      <trkpt lat="41.0276100" lon="-3.2785330">
        <ele>1013.0</ele>
        <time>2020-09-29T14:06:35Z</time>
      </trkpt>
      <trkpt lat="41.0277080" lon="-3.2785650">
        <ele>1013.0</ele>
        <time>2020-09-29T14:06:36Z</time>
      </trkpt>
      <trkpt lat="41.0277550" lon="-3.2785900">
        <ele>1013.0</ele>
        <time>2020-09-29T14:06:37Z</time>
      </trkpt>
      <trkpt lat="41.0277550" lon="-3.2785900">
        <ele>1013.0</ele>
        <time>2020-09-29T14:06:38Z</time>
      </trkpt>
      <trkpt lat="41.0278380" lon="-3.2786720">
        <ele>1013.0</ele>
        <time>2020-09-29T14:06:39Z</time>
      </trkpt>
      <trkpt lat="41.0278380" lon="-3.2786720">
        <ele>1013.0</ele>
        <time>2020-09-29T14:06:40Z</time>
      </trkpt>
      <trkpt lat="41.0279180" lon="-3.2787480">
        <ele>1013.0</ele>
        <time>2020-09-29T14:06:41Z</time>
      </trkpt>
      <trkpt lat="41.0279180" lon="-3.2787480">
        <ele>1013.0</ele>
        <time>2020-09-29T14:06:42Z</time>
      </trkpt>
      <trkpt lat="41.0279720" lon="-3.2788480">
        <ele>1013.0</ele>
        <time>2020-09-29T14:06:43Z</time>
      </trkpt>
      <trkpt lat="41.0279720" lon="-3.2788480">
        <ele>1013.0</ele>
        <time>2020-09-29T14:06:44Z</time>
      </trkpt>
      <trkpt lat="41.0280250" lon="-3.2789430">
        <ele>1013.0</ele>
        <time>2020-09-29T14:06:45Z</time>
      </trkpt>
      <trkpt lat="41.0280250" lon="-3.2789430">
        <ele>1013.0</ele>
        <time>2020-09-29T14:06:46Z</time>
      </trkpt>
      <trkpt lat="41.0280720" lon="-3.2790400">
        <ele>1013.0</ele>
        <time>2020-09-29T14:06:47Z</time>
      </trkpt>
      <trkpt lat="41.0280720" lon="-3.2790400">
        <ele>1013.0</ele>
        <time>2020-09-29T14:06:48Z</time>
      </trkpt>
      <trkpt lat="41.0281150" lon="-3.2791370">
        <ele>1013.0</ele>
        <time>2020-09-29T14:06:49Z</time>
      </trkpt>
      <trkpt lat="41.0281400" lon="-3.2791830">
        <ele>1013.0</ele>
        <time>2020-09-29T14:06:50Z</time>
      </trkpt>
      <trkpt lat="41.0281400" lon="-3.2791830">
        <ele>1013.0</ele>
        <time>2020-09-29T14:06:51Z</time>
      </trkpt>
      <trkpt lat="41.0281880" lon="-3.2792750">
        <ele>1013.0</ele>
        <time>2020-09-29T14:06:52Z</time>
      </trkpt>
      <trkpt lat="41.0281880" lon="-3.2792750">
        <ele>1013.0</ele>
        <time>2020-09-29T14:06:53Z</time>
      </trkpt>
      <trkpt lat="41.0282330" lon="-3.2793630">
        <ele>1013.0</ele>
        <time>2020-09-29T14:06:54Z</time>
      </trkpt>
      <trkpt lat="41.0282330" lon="-3.2793630">
        <ele>1013.0</ele>
        <time>2020-09-29T14:06:55Z</time>
      </trkpt>
      <trkpt lat="41.0282820" lon="-3.2794520">
        <ele>1013.0</ele>
        <time>2020-09-29T14:06:56Z</time>
      </trkpt>
      <trkpt lat="41.0283030" lon="-3.2794970">
        <ele>1013.0</ele>
        <time>2020-09-29T14:06:57Z</time>
      </trkpt>
      <trkpt lat="41.0283030" lon="-3.2794970">
        <ele>1013.0</ele>
        <time>2020-09-29T14:06:58Z</time>
      </trkpt>
      <trkpt lat="41.0283480" lon="-3.2795980">
        <ele>1013.0</ele>
        <time>2020-09-29T14:06:59Z</time>
      </trkpt>
      <trkpt lat="41.0283730" lon="-3.2796500">
        <ele>1013.0</ele>
        <time>2020-09-29T14:07:00Z</time>
      </trkpt>
      <trkpt lat="41.0283730" lon="-3.2796500">
        <ele>1013.0</ele>
        <time>2020-09-29T14:07:01Z</time>
      </trkpt>
      <trkpt lat="41.0284150" lon="-3.2797500">
        <ele>1013.0</ele>
        <time>2020-09-29T14:07:02Z</time>
      </trkpt>
      <trkpt lat="41.0284320" lon="-3.2798050">
        <ele>1013.0</ele>
        <time>2020-09-29T14:07:03Z</time>
      </trkpt>
      <trkpt lat="41.0284320" lon="-3.2798050">
        <ele>1013.0</ele>
        <time>2020-09-29T14:07:04Z</time>
      </trkpt>
      <trkpt lat="41.0284750" lon="-3.2799030">
        <ele>1013.0</ele>
        <time>2020-09-29T14:07:05Z</time>
      </trkpt>
      <trkpt lat="41.0284750" lon="-3.2799030">
        <ele>1013.0</ele>
        <time>2020-09-29T14:07:06Z</time>
      </trkpt>
      <trkpt lat="41.0285230" lon="-3.2799920">
        <ele>1013.0</ele>
        <time>2020-09-29T14:07:07Z</time>
      </trkpt>
      <trkpt lat="41.0285230" lon="-3.2799920">
        <ele>1013.0</ele>
        <time>2020-09-29T14:07:08Z</time>
      </trkpt>
      <trkpt lat="41.0285620" lon="-3.2800780">
        <ele>1013.0</ele>
        <time>2020-09-29T14:07:09Z</time>
      </trkpt>
      <trkpt lat="41.0285620" lon="-3.2800780">
        <ele>1013.0</ele>
        <time>2020-09-29T14:07:10Z</time>
      </trkpt>
      <trkpt lat="41.0286120" lon="-3.2801620">
        <ele>1013.0</ele>
        <time>2020-09-29T14:07:11Z</time>
      </trkpt>
      <trkpt lat="41.0286120" lon="-3.2801620">
        <ele>1013.0</ele>
        <time>2020-09-29T14:07:12Z</time>
      </trkpt>
      <trkpt lat="41.0286750" lon="-3.2802330">
        <ele>1013.0</ele>
        <time>2020-09-29T14:07:13Z</time>
      </trkpt>
      <trkpt lat="41.0286750" lon="-3.2802330">
        <ele>1013.0</ele>
        <time>2020-09-29T14:07:14Z</time>
      </trkpt>
      <trkpt lat="41.0287480" lon="-3.2803020">
        <ele>1013.0</ele>
        <time>2020-09-29T14:07:15Z</time>
      </trkpt>
      <trkpt lat="41.0287480" lon="-3.2803020">
        <ele>1013.0</ele>
        <time>2020-09-29T14:07:16Z</time>
      </trkpt>
      <trkpt lat="41.0288300" lon="-3.2803720">
        <ele>1013.0</ele>
        <time>2020-09-29T14:07:17Z</time>
      </trkpt>
      <trkpt lat="41.0288300" lon="-3.2803720">
        <ele>1013.0</ele>
        <time>2020-09-29T14:07:18Z</time>
      </trkpt>
      <trkpt lat="41.0289070" lon="-3.2804320">
        <ele>1013.0</ele>
        <time>2020-09-29T14:07:19Z</time>
      </trkpt>
      <trkpt lat="41.0289070" lon="-3.2804320">
        <ele>1013.0</ele>
        <time>2020-09-29T14:07:20Z</time>
      </trkpt>
      <trkpt lat="41.0289900" lon="-3.2804900">
        <ele>1013.0</ele>
        <time>2020-09-29T14:07:21Z</time>
      </trkpt>
      <trkpt lat="41.0290330" lon="-3.2805220">
        <ele>1013.0</ele>
        <time>2020-09-29T14:07:22Z</time>
      </trkpt>
      <trkpt lat="41.0291230" lon="-3.2805850">
        <ele>1013.0</ele>
        <time>2020-09-29T14:07:23Z</time>
      </trkpt>
      <trkpt lat="41.0291230" lon="-3.2805850">
        <ele>1013.0</ele>
        <time>2020-09-29T14:07:24Z</time>
      </trkpt>
      <trkpt lat="41.0291630" lon="-3.2806130">
        <ele>1013.0</ele>
        <time>2020-09-29T14:07:25Z</time>
      </trkpt>
      <trkpt lat="41.0291630" lon="-3.2806130">
        <ele>1013.0</ele>
        <time>2020-09-29T14:07:26Z</time>
      </trkpt>
      <trkpt lat="41.0292530" lon="-3.2806700">
        <ele>1013.0</ele>
        <time>2020-09-29T14:07:27Z</time>
      </trkpt>
      <trkpt lat="41.0292920" lon="-3.2806980">
        <ele>1013.0</ele>
        <time>2020-09-29T14:07:28Z</time>
      </trkpt>
      <trkpt lat="41.0292920" lon="-3.2806980">
        <ele>1013.0</ele>
        <time>2020-09-29T14:07:29Z</time>
      </trkpt>
      <trkpt lat="41.0293650" lon="-3.2807580">
        <ele>1013.0</ele>
        <time>2020-09-29T14:07:30Z</time>
      </trkpt>
      <trkpt lat="41.0293650" lon="-3.2807580">
        <ele>1013.0</ele>
        <time>2020-09-29T14:07:31Z</time>
      </trkpt>
      <trkpt lat="41.0294370" lon="-3.2808350">
        <ele>1013.0</ele>
        <time>2020-09-29T14:07:32Z</time>
      </trkpt>
      <trkpt lat="41.0294370" lon="-3.2808350">
        <ele>1013.0</ele>
        <time>2020-09-29T14:07:33Z</time>
      </trkpt>
      <trkpt lat="41.0294700" lon="-3.2809350">
        <ele>1013.0</ele>
        <time>2020-09-29T14:07:34Z</time>
      </trkpt>
      <trkpt lat="41.0294820" lon="-3.2809880">
        <ele>1013.0</ele>
        <time>2020-09-29T14:07:35Z</time>
      </trkpt>
      <trkpt lat="41.0294970" lon="-3.2810350">
        <ele>1013.0</ele>
        <time>2020-09-29T14:07:36Z</time>
      </trkpt>
      <trkpt lat="41.0294970" lon="-3.2810350">
        <ele>1013.0</ele>
        <time>2020-09-29T14:07:37Z</time>
      </trkpt>
      <trkpt lat="41.0295150" lon="-3.2811350">
        <ele>1013.0</ele>
        <time>2020-09-29T14:07:38Z</time>
      </trkpt>
      <trkpt lat="41.0295250" lon="-3.2811920">
        <ele>1013.0</ele>
        <time>2020-09-29T14:07:39Z</time>
      </trkpt>
      <trkpt lat="41.0295250" lon="-3.2811920">
        <ele>1013.0</ele>
        <time>2020-09-29T14:07:40Z</time>
      </trkpt>
      <trkpt lat="41.0295430" lon="-3.2813080">
        <ele>1013.0</ele>
        <time>2020-09-29T14:07:41Z</time>
      </trkpt>
      <trkpt lat="41.0295430" lon="-3.2813080">
        <ele>1013.0</ele>
        <time>2020-09-29T14:07:42Z</time>
      </trkpt>
      <trkpt lat="41.0295580" lon="-3.2814330">
        <ele>1013.0</ele>
        <time>2020-09-29T14:07:43Z</time>
      </trkpt>
      <trkpt lat="41.0295580" lon="-3.2814330">
        <ele>1013.0</ele>
        <time>2020-09-29T14:07:44Z</time>
      </trkpt>
      <trkpt lat="41.0295730" lon="-3.2815650">
        <ele>1013.0</ele>
        <time>2020-09-29T14:07:45Z</time>
      </trkpt>
      <trkpt lat="41.0295780" lon="-3.2816300">
        <ele>1013.0</ele>
        <time>2020-09-29T14:07:46Z</time>
      </trkpt>
      <trkpt lat="41.0295780" lon="-3.2816300">
        <ele>1013.0</ele>
        <time>2020-09-29T14:07:47Z</time>
      </trkpt>
      <trkpt lat="41.0295850" lon="-3.2817620">
        <ele>1013.0</ele>
        <time>2020-09-29T14:07:48Z</time>
      </trkpt>
      <trkpt lat="41.0295850" lon="-3.2818220">
        <ele>1013.0</ele>
        <time>2020-09-29T14:07:49Z</time>
      </trkpt>
      <trkpt lat="41.0295850" lon="-3.2818220">
        <ele>1013.0</ele>
        <time>2020-09-29T14:07:50Z</time>
      </trkpt>
      <trkpt lat="41.0295750" lon="-3.2819330">
        <ele>1013.0</ele>
        <time>2020-09-29T14:07:51Z</time>
      </trkpt>
      <trkpt lat="41.0295580" lon="-3.2819950">
        <ele>1013.0</ele>
        <time>2020-09-29T14:07:52Z</time>
      </trkpt>
      <trkpt lat="41.0295580" lon="-3.2819950">
        <ele>1013.0</ele>
        <time>2020-09-29T14:07:53Z</time>
      </trkpt>
      <trkpt lat="41.0295280" lon="-3.2821050">
        <ele>1013.0</ele>
        <time>2020-09-29T14:07:54Z</time>
      </trkpt>
      <trkpt lat="41.0295170" lon="-3.2821550">
        <ele>1013.0</ele>
        <time>2020-09-29T14:07:55Z</time>
      </trkpt>
      <trkpt lat="41.0295170" lon="-3.2821550">
        <ele>1013.0</ele>
        <time>2020-09-29T14:07:56Z</time>
      </trkpt>
      <trkpt lat="41.0294780" lon="-3.2822470">
        <ele>1013.0</ele>
        <time>2020-09-29T14:07:57Z</time>
      </trkpt>
      <trkpt lat="41.0294580" lon="-3.2822970">
        <ele>1013.0</ele>
        <time>2020-09-29T14:07:58Z</time>
      </trkpt>
      <trkpt lat="41.0294400" lon="-3.2823470">
        <ele>1013.0</ele>
        <time>2020-09-29T14:07:59Z</time>
      </trkpt>
      <trkpt lat="41.0294400" lon="-3.2823470">
        <ele>1013.0</ele>
        <time>2020-09-29T14:08:00Z</time>
      </trkpt>
      <trkpt lat="41.0293980" lon="-3.2824430">
        <ele>1013.0</ele>
        <time>2020-09-29T14:08:01Z</time>
      </trkpt>
      <trkpt lat="41.0293980" lon="-3.2824430">
        <ele>1013.0</ele>
        <time>2020-09-29T14:08:02Z</time>
      </trkpt>
      <trkpt lat="41.0293530" lon="-3.2825550">
        <ele>1013.0</ele>
        <time>2020-09-29T14:08:03Z</time>
      </trkpt>
      <trkpt lat="41.0293230" lon="-3.2826070">
        <ele>1013.0</ele>
        <time>2020-09-29T14:08:04Z</time>
      </trkpt>
      <trkpt lat="41.0293230" lon="-3.2826070">
        <ele>1013.0</ele>
        <time>2020-09-29T14:08:05Z</time>
      </trkpt>
      <trkpt lat="41.0292480" lon="-3.2827020">
        <ele>1013.0</ele>
        <time>2020-09-29T14:08:06Z</time>
      </trkpt>
      <trkpt lat="41.0292480" lon="-3.2827020">
        <ele>1013.0</ele>
        <time>2020-09-29T14:08:07Z</time>
      </trkpt>
      <trkpt lat="41.0291650" lon="-3.2827880">
        <ele>1013.0</ele>
        <time>2020-09-29T14:08:08Z</time>
      </trkpt>
      <trkpt lat="41.0291650" lon="-3.2827880">
        <ele>1013.0</ele>
        <time>2020-09-29T14:08:09Z</time>
      </trkpt>
      <trkpt lat="41.0290780" lon="-3.2828700">
        <ele>1013.0</ele>
        <time>2020-09-29T14:08:10Z</time>
      </trkpt>
      <trkpt lat="41.0290780" lon="-3.2828700">
        <ele>1013.0</ele>
        <time>2020-09-29T14:08:11Z</time>
      </trkpt>
      <trkpt lat="41.0289950" lon="-3.2829550">
        <ele>1013.0</ele>
        <time>2020-09-29T14:08:12Z</time>
      </trkpt>
      <trkpt lat="41.0289530" lon="-3.2829950">
        <ele>1013.0</ele>
        <time>2020-09-29T14:08:13Z</time>
      </trkpt>
      <trkpt lat="41.0289530" lon="-3.2829950">
        <ele>1013.0</ele>
        <time>2020-09-29T14:08:14Z</time>
      </trkpt>
      <trkpt lat="41.0288700" lon="-3.2830770">
        <ele>1013.0</ele>
        <time>2020-09-29T14:08:15Z</time>
      </trkpt>
      <trkpt lat="41.0288700" lon="-3.2830770">
        <ele>1013.0</ele>
        <time>2020-09-29T14:08:16Z</time>
      </trkpt>
      <trkpt lat="41.0287830" lon="-3.2831520">
        <ele>1013.0</ele>
        <time>2020-09-29T14:08:17Z</time>
      </trkpt>
      <trkpt lat="41.0287830" lon="-3.2831520">
        <ele>1013.0</ele>
        <time>2020-09-29T14:08:18Z</time>
      </trkpt>
      <trkpt lat="41.0286930" lon="-3.2832320">
        <ele>1013.0</ele>
        <time>2020-09-29T14:08:19Z</time>
      </trkpt>
      <trkpt lat="41.0286930" lon="-3.2832320">
        <ele>1013.0</ele>
        <time>2020-09-29T14:08:20Z</time>
      </trkpt>
      <trkpt lat="41.0286130" lon="-3.2832950">
        <ele>1013.0</ele>
        <time>2020-09-29T14:08:21Z</time>
      </trkpt>
      <trkpt lat="41.0286130" lon="-3.2832950">
        <ele>1013.0</ele>
        <time>2020-09-29T14:08:22Z</time>
      </trkpt>
      <trkpt lat="41.0285330" lon="-3.2833530">
        <ele>1013.0</ele>
        <time>2020-09-29T14:08:23Z</time>
      </trkpt>
      <trkpt lat="41.0285330" lon="-3.2833530">
        <ele>1013.0</ele>
        <time>2020-09-29T14:08:24Z</time>
      </trkpt>
      <trkpt lat="41.0284500" lon="-3.2834200">
        <ele>1013.0</ele>
        <time>2020-09-29T14:08:25Z</time>
      </trkpt>
      <trkpt lat="41.0284130" lon="-3.2834530">
        <ele>1013.0</ele>
        <time>2020-09-29T14:08:26Z</time>
      </trkpt>
      <trkpt lat="41.0283780" lon="-3.2834880">
        <ele>1013.0</ele>
        <time>2020-09-29T14:08:27Z</time>
      </trkpt>
      <trkpt lat="41.0283780" lon="-3.2834880">
        <ele>1013.0</ele>
        <time>2020-09-29T14:08:28Z</time>
      </trkpt>
      <trkpt lat="41.0283070" lon="-3.2835530">
        <ele>1013.0</ele>
        <time>2020-09-29T14:08:29Z</time>
      </trkpt>
      <trkpt lat="41.0283070" lon="-3.2835530">
        <ele>1013.0</ele>
        <time>2020-09-29T14:08:30Z</time>
      </trkpt>
      <trkpt lat="41.0282220" lon="-3.2836380">
        <ele>1013.0</ele>
        <time>2020-09-29T14:08:31Z</time>
      </trkpt>
      <trkpt lat="41.0282220" lon="-3.2836380">
        <ele>1013.0</ele>
        <time>2020-09-29T14:08:32Z</time>
      </trkpt>
      <trkpt lat="41.0281350" lon="-3.2837100">
        <ele>1013.0</ele>
        <time>2020-09-29T14:08:33Z</time>
      </trkpt>
      <trkpt lat="41.0280930" lon="-3.2837480">
        <ele>1013.0</ele>
        <time>2020-09-29T14:08:34Z</time>
      </trkpt>
      <trkpt lat="41.0280570" lon="-3.2837830">
        <ele>1013.0</ele>
        <time>2020-09-29T14:08:35Z</time>
      </trkpt>
      <trkpt lat="41.0280570" lon="-3.2837830">
        <ele>1013.0</ele>
        <time>2020-09-29T14:08:36Z</time>
      </trkpt>
      <trkpt lat="41.0279730" lon="-3.2839020">
        <ele>1013.0</ele>
        <time>2020-09-29T14:08:37Z</time>
      </trkpt>
      <trkpt lat="41.0279370" lon="-3.2839580">
        <ele>1013.0</ele>
        <time>2020-09-29T14:08:38Z</time>
      </trkpt>
      <trkpt lat="41.0279370" lon="-3.2839580">
        <ele>1013.0</ele>
        <time>2020-09-29T14:08:39Z</time>
      </trkpt>
      <trkpt lat="41.0279070" lon="-3.2840850">
        <ele>1013.0</ele>
        <time>2020-09-29T14:08:40Z</time>
      </trkpt>
      <trkpt lat="41.0279170" lon="-3.2841400">
        <ele>1013.0</ele>
        <time>2020-09-29T14:08:41Z</time>
      </trkpt>
      <trkpt lat="41.0279170" lon="-3.2841400">
        <ele>1013.0</ele>
        <time>2020-09-29T14:08:42Z</time>
      </trkpt>
      <trkpt lat="41.0279500" lon="-3.2842100">
        <ele>1013.0</ele>
        <time>2020-09-29T14:08:43Z</time>
      </trkpt>
      <trkpt lat="41.0279500" lon="-3.2842100">
        <ele>1013.0</ele>
        <time>2020-09-29T14:08:44Z</time>
      </trkpt>
      <trkpt lat="41.0280170" lon="-3.2842300">
        <ele>1013.0</ele>
        <time>2020-09-29T14:08:45Z</time>
      </trkpt>
      <trkpt lat="41.0280170" lon="-3.2842300">
        <ele>1013.0</ele>
        <time>2020-09-29T14:08:46Z</time>
      </trkpt>
      <trkpt lat="41.0281000" lon="-3.2842470">
        <ele>1013.0</ele>
        <time>2020-09-29T14:08:47Z</time>
      </trkpt>
      <trkpt lat="41.0281000" lon="-3.2842470">
        <ele>1013.0</ele>
        <time>2020-09-29T14:08:48Z</time>
      </trkpt>
      <trkpt lat="41.0281820" lon="-3.2842570">
        <ele>1013.0</ele>
        <time>2020-09-29T14:08:49Z</time>
      </trkpt>
      <trkpt lat="41.0281820" lon="-3.2842570">
        <ele>1013.0</ele>
        <time>2020-09-29T14:08:50Z</time>
      </trkpt>
      <trkpt lat="41.0282650" lon="-3.2842620">
        <ele>1013.0</ele>
        <time>2020-09-29T14:08:51Z</time>
      </trkpt>
      <trkpt lat="41.0283200" lon="-3.2842800">
        <ele>1013.0</ele>
        <time>2020-09-29T14:08:52Z</time>
      </trkpt>
      <trkpt lat="41.0283200" lon="-3.2842800">
        <ele>1013.0</ele>
        <time>2020-09-29T14:08:53Z</time>
      </trkpt>
      <trkpt lat="41.0284480" lon="-3.2843770">
        <ele>1013.0</ele>
        <time>2020-09-29T14:08:54Z</time>
      </trkpt>
      <trkpt lat="41.0284950" lon="-3.2844100">
        <ele>1013.0</ele>
        <time>2020-09-29T14:08:55Z</time>
      </trkpt>
      <trkpt lat="41.0284950" lon="-3.2844100">
        <ele>1013.0</ele>
        <time>2020-09-29T14:08:56Z</time>
      </trkpt>
      <trkpt lat="41.0285970" lon="-3.2844770">
        <ele>1013.0</ele>
        <time>2020-09-29T14:08:57Z</time>
      </trkpt>
      <trkpt lat="41.0285970" lon="-3.2844770">
        <ele>1013.0</ele>
        <time>2020-09-29T14:08:58Z</time>
      </trkpt>
      <trkpt lat="41.0286950" lon="-3.2845380">
        <ele>1013.0</ele>
        <time>2020-09-29T14:08:59Z</time>
      </trkpt>
      <trkpt lat="41.0286950" lon="-3.2845380">
        <ele>1013.0</ele>
        <time>2020-09-29T14:09:00Z</time>
      </trkpt>
      <trkpt lat="41.0288130" lon="-3.2846130">
        <ele>1013.0</ele>
        <time>2020-09-29T14:09:01Z</time>
      </trkpt>
      <trkpt lat="41.0288130" lon="-3.2846130">
        <ele>1013.0</ele>
        <time>2020-09-29T14:09:02Z</time>
      </trkpt>
      <trkpt lat="41.0289250" lon="-3.2846930">
        <ele>1013.0</ele>
        <time>2020-09-29T14:09:03Z</time>
      </trkpt>
      <trkpt lat="41.0289250" lon="-3.2846930">
        <ele>1012.0</ele>
        <time>2020-09-29T14:09:04Z</time>
      </trkpt>
      <trkpt lat="41.0290380" lon="-3.2847820">
        <ele>1012.0</ele>
        <time>2020-09-29T14:09:05Z</time>
      </trkpt>
      <trkpt lat="41.0290800" lon="-3.2848170">
        <ele>1012.0</ele>
        <time>2020-09-29T14:09:06Z</time>
      </trkpt>
      <trkpt lat="41.0290800" lon="-3.2848170">
        <ele>1012.0</ele>
        <time>2020-09-29T14:09:07Z</time>
      </trkpt>
      <trkpt lat="41.0291520" lon="-3.2848950">
        <ele>1012.0</ele>
        <time>2020-09-29T14:09:08Z</time>
      </trkpt>
      <trkpt lat="41.0291520" lon="-3.2848950">
        <ele>1012.0</ele>
        <time>2020-09-29T14:09:09Z</time>
      </trkpt>
      <trkpt lat="41.0292180" lon="-3.2849920">
        <ele>1012.0</ele>
        <time>2020-09-29T14:09:10Z</time>
      </trkpt>
      <trkpt lat="41.0292430" lon="-3.2850450">
        <ele>1012.0</ele>
        <time>2020-09-29T14:09:11Z</time>
      </trkpt>
      <trkpt lat="41.0292430" lon="-3.2850450">
        <ele>1012.0</ele>
        <time>2020-09-29T14:09:12Z</time>
      </trkpt>
      <trkpt lat="41.0292870" lon="-3.2851420">
        <ele>1012.0</ele>
        <time>2020-09-29T14:09:13Z</time>
      </trkpt>
      <trkpt lat="41.0293100" lon="-3.2851830">
        <ele>1012.0</ele>
        <time>2020-09-29T14:09:14Z</time>
      </trkpt>
      <trkpt lat="41.0293100" lon="-3.2851830">
        <ele>1012.0</ele>
        <time>2020-09-29T14:09:15Z</time>
      </trkpt>
      <trkpt lat="41.0293530" lon="-3.2852770">
        <ele>1012.0</ele>
        <time>2020-09-29T14:09:16Z</time>
      </trkpt>
      <trkpt lat="41.0293770" lon="-3.2853270">
        <ele>1012.0</ele>
        <time>2020-09-29T14:09:17Z</time>
      </trkpt>
      <trkpt lat="41.0293770" lon="-3.2853270">
        <ele>1012.0</ele>
        <time>2020-09-29T14:09:18Z</time>
      </trkpt>
      <trkpt lat="41.0294180" lon="-3.2854100">
        <ele>1012.0</ele>
        <time>2020-09-29T14:09:19Z</time>
      </trkpt>
      <trkpt lat="41.0294370" lon="-3.2854680">
        <ele>1011.0</ele>
        <time>2020-09-29T14:09:20Z</time>
      </trkpt>
      <trkpt lat="41.0294370" lon="-3.2854680">
        <ele>1011.0</ele>
        <time>2020-09-29T14:09:21Z</time>
      </trkpt>
      <trkpt lat="41.0294850" lon="-3.2855730">
        <ele>1011.0</ele>
        <time>2020-09-29T14:09:22Z</time>
      </trkpt>
      <trkpt lat="41.0294850" lon="-3.2855730">
        <ele>1011.0</ele>
        <time>2020-09-29T14:09:23Z</time>
      </trkpt>
      <trkpt lat="41.0295280" lon="-3.2856720">
        <ele>1011.0</ele>
        <time>2020-09-29T14:09:24Z</time>
      </trkpt>
      <trkpt lat="41.0295470" lon="-3.2857220">
        <ele>1011.0</ele>
        <time>2020-09-29T14:09:25Z</time>
      </trkpt>
      <trkpt lat="41.0295470" lon="-3.2857220">
        <ele>1011.0</ele>
        <time>2020-09-29T14:09:26Z</time>
      </trkpt>
      <trkpt lat="41.0295880" lon="-3.2858250">
        <ele>1011.0</ele>
        <time>2020-09-29T14:09:27Z</time>
      </trkpt>
      <trkpt lat="41.0296080" lon="-3.2858830">
        <ele>1011.0</ele>
        <time>2020-09-29T14:09:28Z</time>
      </trkpt>
      <trkpt lat="41.0296080" lon="-3.2858830">
        <ele>1011.0</ele>
        <time>2020-09-29T14:09:29Z</time>
      </trkpt>
      <trkpt lat="41.0296330" lon="-3.2860000">
        <ele>1010.0</ele>
        <time>2020-09-29T14:09:30Z</time>
      </trkpt>
      <trkpt lat="41.0296400" lon="-3.2860570">
        <ele>1010.0</ele>
        <time>2020-09-29T14:09:31Z</time>
      </trkpt>
      <trkpt lat="41.0296400" lon="-3.2860570">
        <ele>1010.0</ele>
        <time>2020-09-29T14:09:32Z</time>
      </trkpt>
      <trkpt lat="41.0296330" lon="-3.2861730">
        <ele>1010.0</ele>
        <time>2020-09-29T14:09:33Z</time>
      </trkpt>
      <trkpt lat="41.0296330" lon="-3.2861730">
        <ele>1010.0</ele>
        <time>2020-09-29T14:09:34Z</time>
      </trkpt>
      <trkpt lat="41.0295880" lon="-3.2862820">
        <ele>1010.0</ele>
        <time>2020-09-29T14:09:35Z</time>
      </trkpt>
      <trkpt lat="41.0295880" lon="-3.2862820">
        <ele>1010.0</ele>
        <time>2020-09-29T14:09:36Z</time>
      </trkpt>
      <trkpt lat="41.0295280" lon="-3.2863620">
        <ele>1010.0</ele>
        <time>2020-09-29T14:09:37Z</time>
      </trkpt>
      <trkpt lat="41.0295280" lon="-3.2863620">
        <ele>1010.0</ele>
        <time>2020-09-29T14:09:38Z</time>
      </trkpt>
      <trkpt lat="41.0294530" lon="-3.2864170">
        <ele>1010.0</ele>
        <time>2020-09-29T14:09:39Z</time>
      </trkpt>
      <trkpt lat="41.0294130" lon="-3.2864370">
        <ele>1010.0</ele>
        <time>2020-09-29T14:09:40Z</time>
      </trkpt>
      <trkpt lat="41.0294130" lon="-3.2864370">
        <ele>1010.0</ele>
        <time>2020-09-29T14:09:41Z</time>
      </trkpt>
      <trkpt lat="41.0293350" lon="-3.2864620">
        <ele>1010.0</ele>
        <time>2020-09-29T14:09:42Z</time>
      </trkpt>
      <trkpt lat="41.0292980" lon="-3.2864680">
        <ele>1010.0</ele>
        <time>2020-09-29T14:09:43Z</time>
      </trkpt>
      <trkpt lat="41.0292980" lon="-3.2864680">
        <ele>1010.0</ele>
        <time>2020-09-29T14:09:44Z</time>
      </trkpt>
      <trkpt lat="41.0292100" lon="-3.2864750">
        <ele>1010.0</ele>
        <time>2020-09-29T14:09:45Z</time>
      </trkpt>
      <trkpt lat="41.0292100" lon="-3.2864750">
        <ele>1010.0</ele>
        <time>2020-09-29T14:09:46Z</time>
      </trkpt>
      <trkpt lat="41.0291270" lon="-3.2864850">
        <ele>1010.0</ele>
        <time>2020-09-29T14:09:47Z</time>
      </trkpt>
      <trkpt lat="41.0291270" lon="-3.2864850">
        <ele>1010.0</ele>
        <time>2020-09-29T14:09:48Z</time>
      </trkpt>
      <trkpt lat="41.0290450" lon="-3.2865050">
        <ele>1010.0</ele>
        <time>2020-09-29T14:09:49Z</time>
      </trkpt>
      <trkpt lat="41.0290450" lon="-3.2865050">
        <ele>1010.0</ele>
        <time>2020-09-29T14:09:50Z</time>
      </trkpt>
      <trkpt lat="41.0289670" lon="-3.2865370">
        <ele>1010.0</ele>
        <time>2020-09-29T14:09:51Z</time>
      </trkpt>
      <trkpt lat="41.0289670" lon="-3.2865370">
        <ele>1010.0</ele>
        <time>2020-09-29T14:09:52Z</time>
      </trkpt>
      <trkpt lat="41.0289180" lon="-3.2865880">
        <ele>1009.0</ele>
        <time>2020-09-29T14:09:53Z</time>
      </trkpt>
      <trkpt lat="41.0288970" lon="-3.2866450">
        <ele>1009.0</ele>
        <time>2020-09-29T14:09:54Z</time>
      </trkpt>
      <trkpt lat="41.0288970" lon="-3.2866450">
        <ele>1009.0</ele>
        <time>2020-09-29T14:09:55Z</time>
      </trkpt>
      <trkpt lat="41.0288970" lon="-3.2867550">
        <ele>1009.0</ele>
        <time>2020-09-29T14:09:56Z</time>
      </trkpt>
      <trkpt lat="41.0288970" lon="-3.2867550">
        <ele>1009.0</ele>
        <time>2020-09-29T14:09:57Z</time>
      </trkpt>
      <trkpt lat="41.0289370" lon="-3.2868280">
        <ele>1009.0</ele>
        <time>2020-09-29T14:09:58Z</time>
      </trkpt>
      <trkpt lat="41.0289500" lon="-3.2868600">
        <ele>1009.0</ele>
        <time>2020-09-29T14:09:59Z</time>
      </trkpt>
      <trkpt lat="41.0289500" lon="-3.2868600">
        <ele>1009.0</ele>
        <time>2020-09-29T14:10:00Z</time>
      </trkpt>
      <trkpt lat="41.0289930" lon="-3.2869300">
        <ele>1009.0</ele>
        <time>2020-09-29T14:10:01Z</time>
      </trkpt>
      <trkpt lat="41.0289930" lon="-3.2869300">
        <ele>1009.0</ele>
        <time>2020-09-29T14:10:02Z</time>
      </trkpt>
      <trkpt lat="41.0290450" lon="-3.2870170">
        <ele>1009.0</ele>
        <time>2020-09-29T14:10:03Z</time>
      </trkpt>
      <trkpt lat="41.0290450" lon="-3.2870170">
        <ele>1009.0</ele>
        <time>2020-09-29T14:10:04Z</time>
      </trkpt>
      <trkpt lat="41.0291180" lon="-3.2871070">
        <ele>1009.0</ele>
        <time>2020-09-29T14:10:05Z</time>
      </trkpt>
      <trkpt lat="41.0291180" lon="-3.2871070">
        <ele>1009.0</ele>
        <time>2020-09-29T14:10:06Z</time>
      </trkpt>
      <trkpt lat="41.0291900" lon="-3.2872200">
        <ele>1009.0</ele>
        <time>2020-09-29T14:10:07Z</time>
      </trkpt>
      <trkpt lat="41.0291900" lon="-3.2872200">
        <ele>1009.0</ele>
        <time>2020-09-29T14:10:08Z</time>
      </trkpt>
      <trkpt lat="41.0292670" lon="-3.2873180">
        <ele>1009.0</ele>
        <time>2020-09-29T14:10:09Z</time>
      </trkpt>
      <trkpt lat="41.0293030" lon="-3.2873650">
        <ele>1009.0</ele>
        <time>2020-09-29T14:10:10Z</time>
      </trkpt>
      <trkpt lat="41.0293030" lon="-3.2873650">
        <ele>1009.0</ele>
        <time>2020-09-29T14:10:11Z</time>
      </trkpt>
      <trkpt lat="41.0293670" lon="-3.2874600">
        <ele>1009.0</ele>
        <time>2020-09-29T14:10:12Z</time>
      </trkpt>
      <trkpt lat="41.0293670" lon="-3.2874600">
        <ele>1009.0</ele>
        <time>2020-09-29T14:10:13Z</time>
      </trkpt>
      <trkpt lat="41.0294320" lon="-3.2875620">
        <ele>1009.0</ele>
        <time>2020-09-29T14:10:14Z</time>
      </trkpt>
      <trkpt lat="41.0294670" lon="-3.2876220">
        <ele>1009.0</ele>
        <time>2020-09-29T14:10:15Z</time>
      </trkpt>
      <trkpt lat="41.0294670" lon="-3.2876220">
        <ele>1009.0</ele>
        <time>2020-09-29T14:10:16Z</time>
      </trkpt>
      <trkpt lat="41.0295080" lon="-3.2877600">
        <ele>1009.0</ele>
        <time>2020-09-29T14:10:17Z</time>
      </trkpt>
      <trkpt lat="41.0295080" lon="-3.2877600">
        <ele>1009.0</ele>
        <time>2020-09-29T14:10:18Z</time>
      </trkpt>
      <trkpt lat="41.0295430" lon="-3.2879070">
        <ele>1009.0</ele>
        <time>2020-09-29T14:10:19Z</time>
      </trkpt>
      <trkpt lat="41.0295430" lon="-3.2879070">
        <ele>1009.0</ele>
        <time>2020-09-29T14:10:20Z</time>
      </trkpt>
      <trkpt lat="41.0295420" lon="-3.2880630">
        <ele>1009.0</ele>
        <time>2020-09-29T14:10:21Z</time>
      </trkpt>
      <trkpt lat="41.0295420" lon="-3.2880630">
        <ele>1009.0</ele>
        <time>2020-09-29T14:10:22Z</time>
      </trkpt>
      <trkpt lat="41.0295100" lon="-3.2882180">
        <ele>1008.0</ele>
        <time>2020-09-29T14:10:23Z</time>
      </trkpt>
      <trkpt lat="41.0295100" lon="-3.2882180">
        <ele>1008.0</ele>
        <time>2020-09-29T14:10:24Z</time>
      </trkpt>
      <trkpt lat="41.0294630" lon="-3.2883700">
        <ele>1008.0</ele>
        <time>2020-09-29T14:10:25Z</time>
      </trkpt>
      <trkpt lat="41.0294630" lon="-3.2883700">
        <ele>1008.0</ele>
        <time>2020-09-29T14:10:26Z</time>
      </trkpt>
      <trkpt lat="41.0293950" lon="-3.2885120">
        <ele>1008.0</ele>
        <time>2020-09-29T14:10:27Z</time>
      </trkpt>
      <trkpt lat="41.0293550" lon="-3.2885780">
        <ele>1007.0</ele>
        <time>2020-09-29T14:10:28Z</time>
      </trkpt>
      <trkpt lat="41.0293550" lon="-3.2885780">
        <ele>1007.0</ele>
        <time>2020-09-29T14:10:29Z</time>
      </trkpt>
      <trkpt lat="41.0292700" lon="-3.2887150">
        <ele>1007.0</ele>
        <time>2020-09-29T14:10:30Z</time>
      </trkpt>
      <trkpt lat="41.0292300" lon="-3.2887850">
        <ele>1007.0</ele>
        <time>2020-09-29T14:10:31Z</time>
      </trkpt>
      <trkpt lat="41.0292300" lon="-3.2887850">
        <ele>1007.0</ele>
        <time>2020-09-29T14:10:32Z</time>
      </trkpt>
      <trkpt lat="41.0291480" lon="-3.2889230">
        <ele>1007.0</ele>
        <time>2020-09-29T14:10:33Z</time>
      </trkpt>
      <trkpt lat="41.0291480" lon="-3.2889230">
        <ele>1006.0</ele>
        <time>2020-09-29T14:10:34Z</time>
      </trkpt>
      <trkpt lat="41.0290700" lon="-3.2890720">
        <ele>1006.0</ele>
        <time>2020-09-29T14:10:35Z</time>
      </trkpt>
      <trkpt lat="41.0290700" lon="-3.2890720">
        <ele>1006.0</ele>
        <time>2020-09-29T14:10:36Z</time>
      </trkpt>
      <trkpt lat="41.0289900" lon="-3.2892200">
        <ele>1006.0</ele>
        <time>2020-09-29T14:10:37Z</time>
      </trkpt>
      <trkpt lat="41.0289900" lon="-3.2892200">
        <ele>1005.0</ele>
        <time>2020-09-29T14:10:38Z</time>
      </trkpt>
      <trkpt lat="41.0289130" lon="-3.2893700">
        <ele>1005.0</ele>
        <time>2020-09-29T14:10:39Z</time>
      </trkpt>
      <trkpt lat="41.0288780" lon="-3.2894430">
        <ele>1005.0</ele>
        <time>2020-09-29T14:10:40Z</time>
      </trkpt>
      <trkpt lat="41.0288780" lon="-3.2894430">
        <ele>1005.0</ele>
        <time>2020-09-29T14:10:41Z</time>
      </trkpt>
      <trkpt lat="41.0288020" lon="-3.2895850">
        <ele>1005.0</ele>
        <time>2020-09-29T14:10:42Z</time>
      </trkpt>
      <trkpt lat="41.0288020" lon="-3.2895850">
        <ele>1005.0</ele>
        <time>2020-09-29T14:10:43Z</time>
      </trkpt>
      <trkpt lat="41.0287220" lon="-3.2897130">
        <ele>1005.0</ele>
        <time>2020-09-29T14:10:44Z</time>
      </trkpt>
      <trkpt lat="41.0286800" lon="-3.2897680">
        <ele>1005.0</ele>
        <time>2020-09-29T14:10:45Z</time>
      </trkpt>
      <trkpt lat="41.0286800" lon="-3.2897680">
        <ele>1005.0</ele>
        <time>2020-09-29T14:10:46Z</time>
      </trkpt>
      <trkpt lat="41.0285800" lon="-3.2898380">
        <ele>1005.0</ele>
        <time>2020-09-29T14:10:47Z</time>
      </trkpt>
      <trkpt lat="41.0285800" lon="-3.2898380">
        <ele>1004.0</ele>
        <time>2020-09-29T14:10:48Z</time>
      </trkpt>
      <trkpt lat="41.0284680" lon="-3.2898550">
        <ele>1004.0</ele>
        <time>2020-09-29T14:10:49Z</time>
      </trkpt>
      <trkpt lat="41.0284680" lon="-3.2898550">
        <ele>1004.0</ele>
        <time>2020-09-29T14:10:50Z</time>
      </trkpt>
      <trkpt lat="41.0283650" lon="-3.2898620">
        <ele>1004.0</ele>
        <time>2020-09-29T14:10:51Z</time>
      </trkpt>
      <trkpt lat="41.0283650" lon="-3.2898620">
        <ele>1004.0</ele>
        <time>2020-09-29T14:10:52Z</time>
      </trkpt>
      <trkpt lat="41.0282620" lon="-3.2898500">
        <ele>1004.0</ele>
        <time>2020-09-29T14:10:53Z</time>
      </trkpt>
      <trkpt lat="41.0282620" lon="-3.2898500">
        <ele>1004.0</ele>
        <time>2020-09-29T14:10:54Z</time>
      </trkpt>
      <trkpt lat="41.0281620" lon="-3.2898430">
        <ele>1004.0</ele>
        <time>2020-09-29T14:10:55Z</time>
      </trkpt>
      <trkpt lat="41.0281620" lon="-3.2898430">
        <ele>1004.0</ele>
        <time>2020-09-29T14:10:56Z</time>
      </trkpt>
      <trkpt lat="41.0280580" lon="-3.2898330">
        <ele>1004.0</ele>
        <time>2020-09-29T14:10:57Z</time>
      </trkpt>
      <trkpt lat="41.0280580" lon="-3.2898330">
        <ele>1004.0</ele>
        <time>2020-09-29T14:10:58Z</time>
      </trkpt>
      <trkpt lat="41.0279670" lon="-3.2898220">
        <ele>1004.0</ele>
        <time>2020-09-29T14:10:59Z</time>
      </trkpt>
      <trkpt lat="41.0279420" lon="-3.2898170">
        <ele>1004.0</ele>
        <time>2020-09-29T14:11:00Z</time>
      </trkpt>
      <trkpt lat="41.0279420" lon="-3.2898170">
        <ele>1004.0</ele>
        <time>2020-09-29T14:11:01Z</time>
      </trkpt>
      <trkpt lat="41.0278880" lon="-3.2898230">
        <ele>1004.0</ele>
        <time>2020-09-29T14:11:02Z</time>
      </trkpt>
      <trkpt lat="41.0278630" lon="-3.2898220">
        <ele>1003.0</ele>
        <time>2020-09-29T14:11:03Z</time>
      </trkpt>
      <trkpt lat="41.0278630" lon="-3.2898220">
        <ele>1003.0</ele>
        <time>2020-09-29T14:11:04Z</time>
      </trkpt>
      <trkpt lat="41.0277980" lon="-3.2898380">
        <ele>1003.0</ele>
        <time>2020-09-29T14:11:05Z</time>
      </trkpt>
      <trkpt lat="41.0277980" lon="-3.2898380">
        <ele>1003.0</ele>
        <time>2020-09-29T14:11:06Z</time>
      </trkpt>
      <trkpt lat="41.0277330" lon="-3.2898970">
        <ele>1003.0</ele>
        <time>2020-09-29T14:11:07Z</time>
      </trkpt>
      <trkpt lat="41.0277330" lon="-3.2898970">
        <ele>1003.0</ele>
        <time>2020-09-29T14:11:08Z</time>
      </trkpt>
      <trkpt lat="41.0276730" lon="-3.2900270">
        <ele>1003.0</ele>
        <time>2020-09-29T14:11:09Z</time>
      </trkpt>
      <trkpt lat="41.0276730" lon="-3.2900270">
        <ele>1003.0</ele>
        <time>2020-09-29T14:11:10Z</time>
      </trkpt>
      <trkpt lat="41.0276270" lon="-3.2901530">
        <ele>1003.0</ele>
        <time>2020-09-29T14:11:11Z</time>
      </trkpt>
      <trkpt lat="41.0276270" lon="-3.2901530">
        <ele>1003.0</ele>
        <time>2020-09-29T14:11:12Z</time>
      </trkpt>
      <trkpt lat="41.0276020" lon="-3.2902720">
        <ele>1003.0</ele>
        <time>2020-09-29T14:11:13Z</time>
      </trkpt>
      <trkpt lat="41.0276020" lon="-3.2902720">
        <ele>1003.0</ele>
        <time>2020-09-29T14:11:14Z</time>
      </trkpt>
      <trkpt lat="41.0275850" lon="-3.2903800">
        <ele>1003.0</ele>
        <time>2020-09-29T14:11:15Z</time>
      </trkpt>
      <trkpt lat="41.0275850" lon="-3.2903800">
        <ele>1003.0</ele>
        <time>2020-09-29T14:11:16Z</time>
      </trkpt>
      <trkpt lat="41.0275530" lon="-3.2905050">
        <ele>1003.0</ele>
        <time>2020-09-29T14:11:17Z</time>
      </trkpt>
      <trkpt lat="41.0275530" lon="-3.2905050">
        <ele>1003.0</ele>
        <time>2020-09-29T14:11:18Z</time>
      </trkpt>
      <trkpt lat="41.0274920" lon="-3.2906130">
        <ele>1003.0</ele>
        <time>2020-09-29T14:11:19Z</time>
      </trkpt>
      <trkpt lat="41.0274920" lon="-3.2906130">
        <ele>1002.0</ele>
        <time>2020-09-29T14:11:20Z</time>
      </trkpt>
      <trkpt lat="41.0274220" lon="-3.2906950">
        <ele>1002.0</ele>
        <time>2020-09-29T14:11:21Z</time>
      </trkpt>
      <trkpt lat="41.0274220" lon="-3.2906950">
        <ele>1002.0</ele>
        <time>2020-09-29T14:11:22Z</time>
      </trkpt>
      <trkpt lat="41.0273250" lon="-3.2907120">
        <ele>1002.0</ele>
        <time>2020-09-29T14:11:23Z</time>
      </trkpt>
      <trkpt lat="41.0273250" lon="-3.2907120">
        <ele>1002.0</ele>
        <time>2020-09-29T14:11:24Z</time>
      </trkpt>
      <trkpt lat="41.0272350" lon="-3.2907020">
        <ele>1002.0</ele>
        <time>2020-09-29T14:11:25Z</time>
      </trkpt>
      <trkpt lat="41.0272350" lon="-3.2907020">
        <ele>1001.0</ele>
        <time>2020-09-29T14:11:26Z</time>
      </trkpt>
      <trkpt lat="41.0271450" lon="-3.2906850">
        <ele>1001.0</ele>
        <time>2020-09-29T14:11:27Z</time>
      </trkpt>
      <trkpt lat="41.0271450" lon="-3.2906850">
        <ele>1001.0</ele>
        <time>2020-09-29T14:11:28Z</time>
      </trkpt>
      <trkpt lat="41.0270430" lon="-3.2906680">
        <ele>1001.0</ele>
        <time>2020-09-29T14:11:29Z</time>
      </trkpt>
      <trkpt lat="41.0269950" lon="-3.2906580">
        <ele>1001.0</ele>
        <time>2020-09-29T14:11:30Z</time>
      </trkpt>
      <trkpt lat="41.0269950" lon="-3.2906580">
        <ele>1001.0</ele>
        <time>2020-09-29T14:11:31Z</time>
      </trkpt>
      <trkpt lat="41.0269000" lon="-3.2906420">
        <ele>1001.0</ele>
        <time>2020-09-29T14:11:32Z</time>
      </trkpt>
      <trkpt lat="41.0269000" lon="-3.2906420">
        <ele>1001.0</ele>
        <time>2020-09-29T14:11:33Z</time>
      </trkpt>
      <trkpt lat="41.0268030" lon="-3.2906280">
        <ele>1000.0</ele>
        <time>2020-09-29T14:11:34Z</time>
      </trkpt>
      <trkpt lat="41.0267550" lon="-3.2906230">
        <ele>1000.0</ele>
        <time>2020-09-29T14:11:35Z</time>
      </trkpt>
      <trkpt lat="41.0267550" lon="-3.2906230">
        <ele>1000.0</ele>
        <time>2020-09-29T14:11:36Z</time>
      </trkpt>
      <trkpt lat="41.0266750" lon="-3.2906470">
        <ele>1000.0</ele>
        <time>2020-09-29T14:11:37Z</time>
      </trkpt>
      <trkpt lat="41.0266750" lon="-3.2906470">
        <ele>1000.0</ele>
        <time>2020-09-29T14:11:38Z</time>
      </trkpt>
      <trkpt lat="41.0265930" lon="-3.2906870">
        <ele>1000.0</ele>
        <time>2020-09-29T14:11:39Z</time>
      </trkpt>
      <trkpt lat="41.0265530" lon="-3.2907280">
        <ele>1000.0</ele>
        <time>2020-09-29T14:11:40Z</time>
      </trkpt>
      <trkpt lat="41.0265200" lon="-3.2908000">
        <ele>1000.0</ele>
        <time>2020-09-29T14:11:41Z</time>
      </trkpt>
      <trkpt lat="41.0265200" lon="-3.2908000">
        <ele>1000.0</ele>
        <time>2020-09-29T14:11:42Z</time>
      </trkpt>
      <trkpt lat="41.0264720" lon="-3.2909330">
        <ele>1000.0</ele>
        <time>2020-09-29T14:11:43Z</time>
      </trkpt>
      <trkpt lat="41.0264720" lon="-3.2909330">
        <ele>1000.0</ele>
        <time>2020-09-29T14:11:44Z</time>
      </trkpt>
      <trkpt lat="41.0264530" lon="-3.2910700">
        <ele>1000.0</ele>
        <time>2020-09-29T14:11:45Z</time>
      </trkpt>
      <trkpt lat="41.0264620" lon="-3.2911380">
        <ele>1000.0</ele>
        <time>2020-09-29T14:11:46Z</time>
      </trkpt>
      <trkpt lat="41.0264620" lon="-3.2911380">
        <ele>999.0</ele>
        <time>2020-09-29T14:11:47Z</time>
      </trkpt>
      <trkpt lat="41.0264900" lon="-3.2912680">
        <ele>999.0</ele>
        <time>2020-09-29T14:11:48Z</time>
      </trkpt>
      <trkpt lat="41.0264900" lon="-3.2912680">
        <ele>999.0</ele>
        <time>2020-09-29T14:11:49Z</time>
      </trkpt>
      <trkpt lat="41.0265180" lon="-3.2914020">
        <ele>999.0</ele>
        <time>2020-09-29T14:11:50Z</time>
      </trkpt>
      <trkpt lat="41.0265180" lon="-3.2914020">
        <ele>999.0</ele>
        <time>2020-09-29T14:11:51Z</time>
      </trkpt>
      <trkpt lat="41.0265620" lon="-3.2915450">
        <ele>999.0</ele>
        <time>2020-09-29T14:11:52Z</time>
      </trkpt>
      <trkpt lat="41.0265620" lon="-3.2915450">
        <ele>999.0</ele>
        <time>2020-09-29T14:11:53Z</time>
      </trkpt>
      <trkpt lat="41.0265950" lon="-3.2916870">
        <ele>999.0</ele>
        <time>2020-09-29T14:11:54Z</time>
      </trkpt>
      <trkpt lat="41.0265950" lon="-3.2916870">
        <ele>998.0</ele>
        <time>2020-09-29T14:11:55Z</time>
      </trkpt>
      <trkpt lat="41.0266300" lon="-3.2918300">
        <ele>998.0</ele>
        <time>2020-09-29T14:11:56Z</time>
      </trkpt>
      <trkpt lat="41.0266300" lon="-3.2918300">
        <ele>998.0</ele>
        <time>2020-09-29T14:11:57Z</time>
      </trkpt>
      <trkpt lat="41.0266650" lon="-3.2919720">
        <ele>998.0</ele>
        <time>2020-09-29T14:11:58Z</time>
      </trkpt>
      <trkpt lat="41.0266650" lon="-3.2919720">
        <ele>998.0</ele>
        <time>2020-09-29T14:11:59Z</time>
      </trkpt>
      <trkpt lat="41.0267050" lon="-3.2921080">
        <ele>998.0</ele>
        <time>2020-09-29T14:12:00Z</time>
      </trkpt>
      <trkpt lat="41.0267050" lon="-3.2921080">
        <ele>998.0</ele>
        <time>2020-09-29T14:12:01Z</time>
      </trkpt>
      <trkpt lat="41.0267420" lon="-3.2922470">
        <ele>998.0</ele>
        <time>2020-09-29T14:12:02Z</time>
      </trkpt>
      <trkpt lat="41.0267420" lon="-3.2922470">
        <ele>998.0</ele>
        <time>2020-09-29T14:12:03Z</time>
      </trkpt>
      <trkpt lat="41.0267600" lon="-3.2923800">
        <ele>998.0</ele>
        <time>2020-09-29T14:12:04Z</time>
      </trkpt>
      <trkpt lat="41.0267680" lon="-3.2924480">
        <ele>998.0</ele>
        <time>2020-09-29T14:12:05Z</time>
      </trkpt>
      <trkpt lat="41.0267680" lon="-3.2924480">
        <ele>998.0</ele>
        <time>2020-09-29T14:12:06Z</time>
      </trkpt>
      <trkpt lat="41.0267480" lon="-3.2925830">
        <ele>998.0</ele>
        <time>2020-09-29T14:12:07Z</time>
      </trkpt>
      <trkpt lat="41.0267480" lon="-3.2925830">
        <ele>998.0</ele>
        <time>2020-09-29T14:12:08Z</time>
      </trkpt>
      <trkpt lat="41.0266920" lon="-3.2926900">
        <ele>998.0</ele>
        <time>2020-09-29T14:12:09Z</time>
      </trkpt>
      <trkpt lat="41.0266920" lon="-3.2926900">
        <ele>998.0</ele>
        <time>2020-09-29T14:12:10Z</time>
      </trkpt>
      <trkpt lat="41.0266230" lon="-3.2927900">
        <ele>998.0</ele>
        <time>2020-09-29T14:12:11Z</time>
      </trkpt>
      <trkpt lat="41.0266230" lon="-3.2927900">
        <ele>998.0</ele>
        <time>2020-09-29T14:12:12Z</time>
      </trkpt>
      <trkpt lat="41.0265520" lon="-3.2928900">
        <ele>998.0</ele>
        <time>2020-09-29T14:12:13Z</time>
      </trkpt>
      <trkpt lat="41.0265520" lon="-3.2928900">
        <ele>998.0</ele>
        <time>2020-09-29T14:12:14Z</time>
      </trkpt>
      <trkpt lat="41.0264800" lon="-3.2929930">
        <ele>998.0</ele>
        <time>2020-09-29T14:12:15Z</time>
      </trkpt>
      <trkpt lat="41.0264800" lon="-3.2929930">
        <ele>997.0</ele>
        <time>2020-09-29T14:12:16Z</time>
      </trkpt>
      <trkpt lat="41.0264330" lon="-3.2930920">
        <ele>997.0</ele>
        <time>2020-09-29T14:12:17Z</time>
      </trkpt>
      <trkpt lat="41.0264330" lon="-3.2930920">
        <ele>997.0</ele>
        <time>2020-09-29T14:12:18Z</time>
      </trkpt>
      <trkpt lat="41.0263650" lon="-3.2931770">
        <ele>997.0</ele>
        <time>2020-09-29T14:12:19Z</time>
      </trkpt>
      <trkpt lat="41.0263650" lon="-3.2931770">
        <ele>997.0</ele>
        <time>2020-09-29T14:12:20Z</time>
      </trkpt>
      <trkpt lat="41.0263150" lon="-3.2932700">
        <ele>997.0</ele>
        <time>2020-09-29T14:12:21Z</time>
      </trkpt>
      <trkpt lat="41.0263150" lon="-3.2932700">
        <ele>997.0</ele>
        <time>2020-09-29T14:12:22Z</time>
      </trkpt>
      <trkpt lat="41.0262320" lon="-3.2933200">
        <ele>997.0</ele>
        <time>2020-09-29T14:12:23Z</time>
      </trkpt>
      <trkpt lat="41.0262320" lon="-3.2933200">
        <ele>996.0</ele>
        <time>2020-09-29T14:12:24Z</time>
      </trkpt>
      <trkpt lat="41.0261320" lon="-3.2933170">
        <ele>996.0</ele>
        <time>2020-09-29T14:12:25Z</time>
      </trkpt>
      <trkpt lat="41.0261320" lon="-3.2933170">
        <ele>996.0</ele>
        <time>2020-09-29T14:12:26Z</time>
      </trkpt>
      <trkpt lat="41.0260220" lon="-3.2932780">
        <ele>996.0</ele>
        <time>2020-09-29T14:12:27Z</time>
      </trkpt>
      <trkpt lat="41.0259720" lon="-3.2932530">
        <ele>996.0</ele>
        <time>2020-09-29T14:12:28Z</time>
      </trkpt>
      <trkpt lat="41.0259720" lon="-3.2932530">
        <ele>996.0</ele>
        <time>2020-09-29T14:12:29Z</time>
      </trkpt>
      <trkpt lat="41.0258750" lon="-3.2932000">
        <ele>995.0</ele>
        <time>2020-09-29T14:12:30Z</time>
      </trkpt>
      <trkpt lat="41.0258280" lon="-3.2931770">
        <ele>995.0</ele>
        <time>2020-09-29T14:12:31Z</time>
      </trkpt>
      <trkpt lat="41.0258280" lon="-3.2931770">
        <ele>995.0</ele>
        <time>2020-09-29T14:12:32Z</time>
      </trkpt>
      <trkpt lat="41.0257320" lon="-3.2931380">
        <ele>995.0</ele>
        <time>2020-09-29T14:12:33Z</time>
      </trkpt>
      <trkpt lat="41.0256850" lon="-3.2931120">
        <ele>994.0</ele>
        <time>2020-09-29T14:12:34Z</time>
      </trkpt>
      <trkpt lat="41.0256850" lon="-3.2931120">
        <ele>994.0</ele>
        <time>2020-09-29T14:12:35Z</time>
      </trkpt>
      <trkpt lat="41.0255930" lon="-3.2930720">
        <ele>994.0</ele>
        <time>2020-09-29T14:12:36Z</time>
      </trkpt>
      <trkpt lat="41.0255930" lon="-3.2930720">
        <ele>994.0</ele>
        <time>2020-09-29T14:12:37Z</time>
      </trkpt>
      <trkpt lat="41.0254980" lon="-3.2930380">
        <ele>994.0</ele>
        <time>2020-09-29T14:12:38Z</time>
      </trkpt>
      <trkpt lat="41.0254980" lon="-3.2930380">
        <ele>994.0</ele>
        <time>2020-09-29T14:12:39Z</time>
      </trkpt>
      <trkpt lat="41.0254050" lon="-3.2930080">
        <ele>994.0</ele>
        <time>2020-09-29T14:12:40Z</time>
      </trkpt>
      <trkpt lat="41.0253670" lon="-3.2929920">
        <ele>994.0</ele>
        <time>2020-09-29T14:12:41Z</time>
      </trkpt>
      <trkpt lat="41.0253670" lon="-3.2929920">
        <ele>994.0</ele>
        <time>2020-09-29T14:12:42Z</time>
      </trkpt>
      <trkpt lat="41.0252930" lon="-3.2929800">
        <ele>994.0</ele>
        <time>2020-09-29T14:12:43Z</time>
      </trkpt>
      <trkpt lat="41.0252930" lon="-3.2929800">
        <ele>994.0</ele>
        <time>2020-09-29T14:12:44Z</time>
      </trkpt>
      <trkpt lat="41.0252380" lon="-3.2930120">
        <ele>994.0</ele>
        <time>2020-09-29T14:12:45Z</time>
      </trkpt>
      <trkpt lat="41.0252380" lon="-3.2930120">
        <ele>994.0</ele>
        <time>2020-09-29T14:12:46Z</time>
      </trkpt>
      <trkpt lat="41.0251970" lon="-3.2930570">
        <ele>994.0</ele>
        <time>2020-09-29T14:12:47Z</time>
      </trkpt>
      <trkpt lat="41.0251600" lon="-3.2931070">
        <ele>994.0</ele>
        <time>2020-09-29T14:12:48Z</time>
      </trkpt>
      <trkpt lat="41.0251220" lon="-3.2931630">
        <ele>994.0</ele>
        <time>2020-09-29T14:12:49Z</time>
      </trkpt>
      <trkpt lat="41.0251220" lon="-3.2931630">
        <ele>994.0</ele>
        <time>2020-09-29T14:12:50Z</time>
      </trkpt>
      <trkpt lat="41.0250820" lon="-3.2932820">
        <ele>994.0</ele>
        <time>2020-09-29T14:12:51Z</time>
      </trkpt>
      <trkpt lat="41.0250820" lon="-3.2932820">
        <ele>994.0</ele>
        <time>2020-09-29T14:12:52Z</time>
      </trkpt>
      <trkpt lat="41.0250650" lon="-3.2934120">
        <ele>994.0</ele>
        <time>2020-09-29T14:12:53Z</time>
      </trkpt>
      <trkpt lat="41.0250650" lon="-3.2934120">
        <ele>994.0</ele>
        <time>2020-09-29T14:12:54Z</time>
      </trkpt>
      <trkpt lat="41.0250600" lon="-3.2935320">
        <ele>994.0</ele>
        <time>2020-09-29T14:12:55Z</time>
      </trkpt>
      <trkpt lat="41.0250600" lon="-3.2935320">
        <ele>994.0</ele>
        <time>2020-09-29T14:12:56Z</time>
      </trkpt>
      <trkpt lat="41.0250770" lon="-3.2936620">
        <ele>994.0</ele>
        <time>2020-09-29T14:12:57Z</time>
      </trkpt>
      <trkpt lat="41.0250900" lon="-3.2937180">
        <ele>994.0</ele>
        <time>2020-09-29T14:12:58Z</time>
      </trkpt>
      <trkpt lat="41.0250900" lon="-3.2937180">
        <ele>994.0</ele>
        <time>2020-09-29T14:12:59Z</time>
      </trkpt>
      <trkpt lat="41.0251120" lon="-3.2938370">
        <ele>994.0</ele>
        <time>2020-09-29T14:13:00Z</time>
      </trkpt>
      <trkpt lat="41.0251250" lon="-3.2938970">
        <ele>994.0</ele>
        <time>2020-09-29T14:13:01Z</time>
      </trkpt>
      <trkpt lat="41.0251250" lon="-3.2938970">
        <ele>994.0</ele>
        <time>2020-09-29T14:13:02Z</time>
      </trkpt>
      <trkpt lat="41.0251350" lon="-3.2940100">
        <ele>994.0</ele>
        <time>2020-09-29T14:13:03Z</time>
      </trkpt>
      <trkpt lat="41.0251480" lon="-3.2940680">
        <ele>994.0</ele>
        <time>2020-09-29T14:13:04Z</time>
      </trkpt>
      <trkpt lat="41.0251480" lon="-3.2940680">
        <ele>993.0</ele>
        <time>2020-09-29T14:13:05Z</time>
      </trkpt>
      <trkpt lat="41.0251730" lon="-3.2941950">
        <ele>993.0</ele>
        <time>2020-09-29T14:13:06Z</time>
      </trkpt>
      <trkpt lat="41.0251730" lon="-3.2941950">
        <ele>993.0</ele>
        <time>2020-09-29T14:13:07Z</time>
      </trkpt>
      <trkpt lat="41.0252070" lon="-3.2943270">
        <ele>993.0</ele>
        <time>2020-09-29T14:13:08Z</time>
      </trkpt>
      <trkpt lat="41.0252070" lon="-3.2943270">
        <ele>993.0</ele>
        <time>2020-09-29T14:13:09Z</time>
      </trkpt>
      <trkpt lat="41.0252350" lon="-3.2944530">
        <ele>993.0</ele>
        <time>2020-09-29T14:13:10Z</time>
      </trkpt>
      <trkpt lat="41.0252480" lon="-3.2945170">
        <ele>993.0</ele>
        <time>2020-09-29T14:13:11Z</time>
      </trkpt>
      <trkpt lat="41.0252480" lon="-3.2945170">
        <ele>993.0</ele>
        <time>2020-09-29T14:13:12Z</time>
      </trkpt>
      <trkpt lat="41.0252750" lon="-3.2946480">
        <ele>993.0</ele>
        <time>2020-09-29T14:13:13Z</time>
      </trkpt>
      <trkpt lat="41.0252750" lon="-3.2946480">
        <ele>993.0</ele>
        <time>2020-09-29T14:13:14Z</time>
      </trkpt>
      <trkpt lat="41.0252600" lon="-3.2947970">
        <ele>993.0</ele>
        <time>2020-09-29T14:13:15Z</time>
      </trkpt>
      <trkpt lat="41.0252300" lon="-3.2948630">
        <ele>993.0</ele>
        <time>2020-09-29T14:13:16Z</time>
      </trkpt>
      <trkpt lat="41.0252300" lon="-3.2948630">
        <ele>993.0</ele>
        <time>2020-09-29T14:13:17Z</time>
      </trkpt>
      <trkpt lat="41.0251500" lon="-3.2949600">
        <ele>993.0</ele>
        <time>2020-09-29T14:13:18Z</time>
      </trkpt>
      <trkpt lat="41.0250980" lon="-3.2949880">
        <ele>993.0</ele>
        <time>2020-09-29T14:13:19Z</time>
      </trkpt>
      <trkpt lat="41.0250980" lon="-3.2949880">
        <ele>993.0</ele>
        <time>2020-09-29T14:13:20Z</time>
      </trkpt>
      <trkpt lat="41.0250000" lon="-3.2950150">
        <ele>992.0</ele>
        <time>2020-09-29T14:13:21Z</time>
      </trkpt>
      <trkpt lat="41.0250000" lon="-3.2950150">
        <ele>992.0</ele>
        <time>2020-09-29T14:13:22Z</time>
      </trkpt>
      <trkpt lat="41.0249120" lon="-3.2950300">
        <ele>992.0</ele>
        <time>2020-09-29T14:13:23Z</time>
      </trkpt>
      <trkpt lat="41.0249120" lon="-3.2950300">
        <ele>992.0</ele>
        <time>2020-09-29T14:13:24Z</time>
      </trkpt>
      <trkpt lat="41.0248180" lon="-3.2950600">
        <ele>992.0</ele>
        <time>2020-09-29T14:13:25Z</time>
      </trkpt>
      <trkpt lat="41.0248180" lon="-3.2950600">
        <ele>992.0</ele>
        <time>2020-09-29T14:13:26Z</time>
      </trkpt>
      <trkpt lat="41.0247220" lon="-3.2950980">
        <ele>992.0</ele>
        <time>2020-09-29T14:13:27Z</time>
      </trkpt>
      <trkpt lat="41.0247220" lon="-3.2950980">
        <ele>992.0</ele>
        <time>2020-09-29T14:13:28Z</time>
      </trkpt>
      <trkpt lat="41.0246270" lon="-3.2951520">
        <ele>992.0</ele>
        <time>2020-09-29T14:13:29Z</time>
      </trkpt>
      <trkpt lat="41.0245770" lon="-3.2951770">
        <ele>992.0</ele>
        <time>2020-09-29T14:13:30Z</time>
      </trkpt>
      <trkpt lat="41.0245250" lon="-3.2951970">
        <ele>992.0</ele>
        <time>2020-09-29T14:13:31Z</time>
      </trkpt>
      <trkpt lat="41.0245250" lon="-3.2951970">
        <ele>990.0</ele>
        <time>2020-09-29T14:13:32Z</time>
      </trkpt>
      <trkpt lat="41.0244170" lon="-3.2952300">
        <ele>990.0</ele>
        <time>2020-09-29T14:13:33Z</time>
      </trkpt>
      <trkpt lat="41.0244170" lon="-3.2952300">
        <ele>990.0</ele>
        <time>2020-09-29T14:13:34Z</time>
      </trkpt>
      <trkpt lat="41.0243050" lon="-3.2952130">
        <ele>990.0</ele>
        <time>2020-09-29T14:13:35Z</time>
      </trkpt>
      <trkpt lat="41.0243050" lon="-3.2952130">
        <ele>990.0</ele>
        <time>2020-09-29T14:13:36Z</time>
      </trkpt>
      <trkpt lat="41.0242080" lon="-3.2951430">
        <ele>990.0</ele>
        <time>2020-09-29T14:13:37Z</time>
      </trkpt>
      <trkpt lat="41.0241700" lon="-3.2950980">
        <ele>990.0</ele>
        <time>2020-09-29T14:13:38Z</time>
      </trkpt>
      <trkpt lat="41.0241700" lon="-3.2950980">
        <ele>990.0</ele>
        <time>2020-09-29T14:13:39Z</time>
      </trkpt>
      <trkpt lat="41.0240980" lon="-3.2949970">
        <ele>990.0</ele>
        <time>2020-09-29T14:13:40Z</time>
      </trkpt>
      <trkpt lat="41.0240670" lon="-3.2949450">
        <ele>990.0</ele>
        <time>2020-09-29T14:13:41Z</time>
      </trkpt>
      <trkpt lat="41.0240330" lon="-3.2948900">
        <ele>990.0</ele>
        <time>2020-09-29T14:13:42Z</time>
      </trkpt>
      <trkpt lat="41.0240330" lon="-3.2948900">
        <ele>990.0</ele>
        <time>2020-09-29T14:13:43Z</time>
      </trkpt>
      <trkpt lat="41.0239480" lon="-3.2947780">
        <ele>990.0</ele>
        <time>2020-09-29T14:13:44Z</time>
      </trkpt>
      <trkpt lat="41.0239480" lon="-3.2947780">
        <ele>990.0</ele>
        <time>2020-09-29T14:13:45Z</time>
      </trkpt>
      <trkpt lat="41.0238630" lon="-3.2946970">
        <ele>990.0</ele>
        <time>2020-09-29T14:13:46Z</time>
      </trkpt>
      <trkpt lat="41.0238630" lon="-3.2946970">
        <ele>990.0</ele>
        <time>2020-09-29T14:13:47Z</time>
      </trkpt>
      <trkpt lat="41.0237620" lon="-3.2946830">
        <ele>990.0</ele>
        <time>2020-09-29T14:13:48Z</time>
      </trkpt>
      <trkpt lat="41.0237150" lon="-3.2947120">
        <ele>990.0</ele>
        <time>2020-09-29T14:13:49Z</time>
      </trkpt>
      <trkpt lat="41.0237150" lon="-3.2947120">
        <ele>990.0</ele>
        <time>2020-09-29T14:13:50Z</time>
      </trkpt>
      <trkpt lat="41.0236300" lon="-3.2947720">
        <ele>990.0</ele>
        <time>2020-09-29T14:13:51Z</time>
      </trkpt>
      <trkpt lat="41.0235870" lon="-3.2948130">
        <ele>990.0</ele>
        <time>2020-09-29T14:13:52Z</time>
      </trkpt>
      <trkpt lat="41.0235450" lon="-3.2948630">
        <ele>990.0</ele>
        <time>2020-09-29T14:13:53Z</time>
      </trkpt>
      <trkpt lat="41.0235450" lon="-3.2948630">
        <ele>989.0</ele>
        <time>2020-09-29T14:13:54Z</time>
      </trkpt>
      <trkpt lat="41.0234680" lon="-3.2949570">
        <ele>989.0</ele>
        <time>2020-09-29T14:13:55Z</time>
      </trkpt>
      <trkpt lat="41.0234680" lon="-3.2949570">
        <ele>989.0</ele>
        <time>2020-09-29T14:13:56Z</time>
      </trkpt>
      <trkpt lat="41.0234070" lon="-3.2950300">
        <ele>989.0</ele>
        <time>2020-09-29T14:13:57Z</time>
      </trkpt>
      <trkpt lat="41.0233770" lon="-3.2950680">
        <ele>989.0</ele>
        <time>2020-09-29T14:13:58Z</time>
      </trkpt>
      <trkpt lat="41.0233770" lon="-3.2950680">
        <ele>989.0</ele>
        <time>2020-09-29T14:13:59Z</time>
      </trkpt>
      <trkpt lat="41.0233070" lon="-3.2951670">
        <ele>989.0</ele>
        <time>2020-09-29T14:14:00Z</time>
      </trkpt>
      <trkpt lat="41.0232780" lon="-3.2952230">
        <ele>989.0</ele>
        <time>2020-09-29T14:14:01Z</time>
      </trkpt>
      <trkpt lat="41.0232780" lon="-3.2952230">
        <ele>989.0</ele>
        <time>2020-09-29T14:14:02Z</time>
      </trkpt>
      <trkpt lat="41.0232400" lon="-3.2953330">
        <ele>989.0</ele>
        <time>2020-09-29T14:14:03Z</time>
      </trkpt>
      <trkpt lat="41.0232400" lon="-3.2953330">
        <ele>989.0</ele>
        <time>2020-09-29T14:14:04Z</time>
      </trkpt>
      <trkpt lat="41.0232030" lon="-3.2954380">
        <ele>988.0</ele>
        <time>2020-09-29T14:14:05Z</time>
      </trkpt>
      <trkpt lat="41.0232030" lon="-3.2954380">
        <ele>988.0</ele>
        <time>2020-09-29T14:14:06Z</time>
      </trkpt>
      <trkpt lat="41.0231700" lon="-3.2955450">
        <ele>988.0</ele>
        <time>2020-09-29T14:14:07Z</time>
      </trkpt>
      <trkpt lat="41.0231700" lon="-3.2955450">
        <ele>988.0</ele>
        <time>2020-09-29T14:14:08Z</time>
      </trkpt>
      <trkpt lat="41.0231420" lon="-3.2956450">
        <ele>988.0</ele>
        <time>2020-09-29T14:14:09Z</time>
      </trkpt>
      <trkpt lat="41.0231420" lon="-3.2956450">
        <ele>988.0</ele>
        <time>2020-09-29T14:14:10Z</time>
      </trkpt>
      <trkpt lat="41.0231200" lon="-3.2957380">
        <ele>988.0</ele>
        <time>2020-09-29T14:14:11Z</time>
      </trkpt>
      <trkpt lat="41.0231200" lon="-3.2957380">
        <ele>988.0</ele>
        <time>2020-09-29T14:14:12Z</time>
      </trkpt>
      <trkpt lat="41.0230980" lon="-3.2958470">
        <ele>988.0</ele>
        <time>2020-09-29T14:14:13Z</time>
      </trkpt>
      <trkpt lat="41.0230980" lon="-3.2958470">
        <ele>988.0</ele>
        <time>2020-09-29T14:14:14Z</time>
      </trkpt>
      <trkpt lat="41.0230570" lon="-3.2959800">
        <ele>988.0</ele>
        <time>2020-09-29T14:14:15Z</time>
      </trkpt>
      <trkpt lat="41.0230270" lon="-3.2960450">
        <ele>988.0</ele>
        <time>2020-09-29T14:14:16Z</time>
      </trkpt>
      <trkpt lat="41.0230270" lon="-3.2960450">
        <ele>987.0</ele>
        <time>2020-09-29T14:14:17Z</time>
      </trkpt>
      <trkpt lat="41.0229630" lon="-3.2961630">
        <ele>987.0</ele>
        <time>2020-09-29T14:14:18Z</time>
      </trkpt>
      <trkpt lat="41.0229300" lon="-3.2962220">
        <ele>987.0</ele>
        <time>2020-09-29T14:14:19Z</time>
      </trkpt>
      <trkpt lat="41.0229300" lon="-3.2962220">
        <ele>987.0</ele>
        <time>2020-09-29T14:14:20Z</time>
      </trkpt>
      <trkpt lat="41.0228480" lon="-3.2963180">
        <ele>987.0</ele>
        <time>2020-09-29T14:14:21Z</time>
      </trkpt>
      <trkpt lat="41.0228480" lon="-3.2963180">
        <ele>987.0</ele>
        <time>2020-09-29T14:14:22Z</time>
      </trkpt>
      <trkpt lat="41.0227730" lon="-3.2964000">
        <ele>987.0</ele>
        <time>2020-09-29T14:14:23Z</time>
      </trkpt>
      <trkpt lat="41.0227730" lon="-3.2964000">
        <ele>987.0</ele>
        <time>2020-09-29T14:14:24Z</time>
      </trkpt>
      <trkpt lat="41.0226930" lon="-3.2964850">
        <ele>987.0</ele>
        <time>2020-09-29T14:14:25Z</time>
      </trkpt>
      <trkpt lat="41.0226930" lon="-3.2964850">
        <ele>987.0</ele>
        <time>2020-09-29T14:14:26Z</time>
      </trkpt>
      <trkpt lat="41.0226070" lon="-3.2965770">
        <ele>987.0</ele>
        <time>2020-09-29T14:14:27Z</time>
      </trkpt>
      <trkpt lat="41.0225630" lon="-3.2966170">
        <ele>987.0</ele>
        <time>2020-09-29T14:14:28Z</time>
      </trkpt>
      <trkpt lat="41.0225630" lon="-3.2966170">
        <ele>987.0</ele>
        <time>2020-09-29T14:14:29Z</time>
      </trkpt>
      <trkpt lat="41.0224800" lon="-3.2966980">
        <ele>986.0</ele>
        <time>2020-09-29T14:14:30Z</time>
      </trkpt>
      <trkpt lat="41.0224420" lon="-3.2967350">
        <ele>986.0</ele>
        <time>2020-09-29T14:14:31Z</time>
      </trkpt>
      <trkpt lat="41.0224420" lon="-3.2967350">
        <ele>986.0</ele>
        <time>2020-09-29T14:14:32Z</time>
      </trkpt>
      <trkpt lat="41.0223580" lon="-3.2968100">
        <ele>986.0</ele>
        <time>2020-09-29T14:14:33Z</time>
      </trkpt>
      <trkpt lat="41.0223580" lon="-3.2968100">
        <ele>986.0</ele>
        <time>2020-09-29T14:14:34Z</time>
      </trkpt>
      <trkpt lat="41.0222750" lon="-3.2968920">
        <ele>986.0</ele>
        <time>2020-09-29T14:14:35Z</time>
      </trkpt>
      <trkpt lat="41.0222350" lon="-3.2969280">
        <ele>986.0</ele>
        <time>2020-09-29T14:14:36Z</time>
      </trkpt>
      <trkpt lat="41.0221970" lon="-3.2969550">
        <ele>986.0</ele>
        <time>2020-09-29T14:14:37Z</time>
      </trkpt>
      <trkpt lat="41.0221970" lon="-3.2969550">
        <ele>986.0</ele>
        <time>2020-09-29T14:14:38Z</time>
      </trkpt>
      <trkpt lat="41.0221050" lon="-3.2969970">
        <ele>986.0</ele>
        <time>2020-09-29T14:14:39Z</time>
      </trkpt>
      <trkpt lat="41.0220580" lon="-3.2970120">
        <ele>986.0</ele>
        <time>2020-09-29T14:14:40Z</time>
      </trkpt>
      <trkpt lat="41.0220580" lon="-3.2970120">
        <ele>985.0</ele>
        <time>2020-09-29T14:14:41Z</time>
      </trkpt>
      <trkpt lat="41.0219580" lon="-3.2970030">
        <ele>985.0</ele>
        <time>2020-09-29T14:14:42Z</time>
      </trkpt>
      <trkpt lat="41.0219080" lon="-3.2969870">
        <ele>985.0</ele>
        <time>2020-09-29T14:14:43Z</time>
      </trkpt>
      <trkpt lat="41.0219080" lon="-3.2969870">
        <ele>985.0</ele>
        <time>2020-09-29T14:14:44Z</time>
      </trkpt>
      <trkpt lat="41.0218220" lon="-3.2969400">
        <ele>985.0</ele>
        <time>2020-09-29T14:14:45Z</time>
      </trkpt>
      <trkpt lat="41.0217770" lon="-3.2969170">
        <ele>985.0</ele>
        <time>2020-09-29T14:14:46Z</time>
      </trkpt>
      <trkpt lat="41.0217770" lon="-3.2969170">
        <ele>984.0</ele>
        <time>2020-09-29T14:14:47Z</time>
      </trkpt>
      <trkpt lat="41.0217020" lon="-3.2968420">
        <ele>984.0</ele>
        <time>2020-09-29T14:14:48Z</time>
      </trkpt>
      <trkpt lat="41.0216650" lon="-3.2967920">
        <ele>984.0</ele>
        <time>2020-09-29T14:14:49Z</time>
      </trkpt>
      <trkpt lat="41.0216650" lon="-3.2967920">
        <ele>984.0</ele>
        <time>2020-09-29T14:14:50Z</time>
      </trkpt>
      <trkpt lat="41.0215780" lon="-3.2966920">
        <ele>983.0</ele>
        <time>2020-09-29T14:14:51Z</time>
      </trkpt>
      <trkpt lat="41.0215780" lon="-3.2966920">
        <ele>983.0</ele>
        <time>2020-09-29T14:14:52Z</time>
      </trkpt>
      <trkpt lat="41.0215020" lon="-3.2965800">
        <ele>983.0</ele>
        <time>2020-09-29T14:14:53Z</time>
      </trkpt>
      <trkpt lat="41.0215020" lon="-3.2965800">
        <ele>983.0</ele>
        <time>2020-09-29T14:14:54Z</time>
      </trkpt>
      <trkpt lat="41.0214370" lon="-3.2964820">
        <ele>981.0</ele>
        <time>2020-09-29T14:14:55Z</time>
      </trkpt>
      <trkpt lat="41.0214370" lon="-3.2964820">
        <ele>981.0</ele>
        <time>2020-09-29T14:14:56Z</time>
      </trkpt>
      <trkpt lat="41.0213670" lon="-3.2963750">
        <ele>981.0</ele>
        <time>2020-09-29T14:14:57Z</time>
      </trkpt>
      <trkpt lat="41.0213670" lon="-3.2963750">
        <ele>981.0</ele>
        <time>2020-09-29T14:14:58Z</time>
      </trkpt>
      <trkpt lat="41.0212750" lon="-3.2962650">
        <ele>981.0</ele>
        <time>2020-09-29T14:14:59Z</time>
      </trkpt>
      <trkpt lat="41.0212270" lon="-3.2962030">
        <ele>981.0</ele>
        <time>2020-09-29T14:15:00Z</time>
      </trkpt>
      <trkpt lat="41.0212270" lon="-3.2962030">
        <ele>979.0</ele>
        <time>2020-09-29T14:15:01Z</time>
      </trkpt>
      <trkpt lat="41.0211230" lon="-3.2960800">
        <ele>979.0</ele>
        <time>2020-09-29T14:15:02Z</time>
      </trkpt>
      <trkpt lat="41.0211230" lon="-3.2960800">
        <ele>979.0</ele>
        <time>2020-09-29T14:15:03Z</time>
      </trkpt>
      <trkpt lat="41.0210370" lon="-3.2959670">
        <ele>979.0</ele>
        <time>2020-09-29T14:15:04Z</time>
      </trkpt>
      <trkpt lat="41.0210370" lon="-3.2959670">
        <ele>979.0</ele>
        <time>2020-09-29T14:15:05Z</time>
      </trkpt>
      <trkpt lat="41.0209850" lon="-3.2958600">
        <ele>979.0</ele>
        <time>2020-09-29T14:15:06Z</time>
      </trkpt>
      <trkpt lat="41.0209850" lon="-3.2958600">
        <ele>978.0</ele>
        <time>2020-09-29T14:15:07Z</time>
      </trkpt>
      <trkpt lat="41.0209370" lon="-3.2957630">
        <ele>978.0</ele>
        <time>2020-09-29T14:15:08Z</time>
      </trkpt>
      <trkpt lat="41.0209370" lon="-3.2957630">
        <ele>978.0</ele>
        <time>2020-09-29T14:15:09Z</time>
      </trkpt>
      <trkpt lat="41.0208850" lon="-3.2956700">
        <ele>977.0</ele>
        <time>2020-09-29T14:15:10Z</time>
      </trkpt>
      <trkpt lat="41.0208850" lon="-3.2956700">
        <ele>977.0</ele>
        <time>2020-09-29T14:15:11Z</time>
      </trkpt>
      <trkpt lat="41.0208380" lon="-3.2955580">
        <ele>976.0</ele>
        <time>2020-09-29T14:15:12Z</time>
      </trkpt>
      <trkpt lat="41.0208150" lon="-3.2954900">
        <ele>975.0</ele>
        <time>2020-09-29T14:15:13Z</time>
      </trkpt>
      <trkpt lat="41.0208150" lon="-3.2954900">
        <ele>975.0</ele>
        <time>2020-09-29T14:15:14Z</time>
      </trkpt>
      <trkpt lat="41.0207780" lon="-3.2953270">
        <ele>975.0</ele>
        <time>2020-09-29T14:15:15Z</time>
      </trkpt>
      <trkpt lat="41.0207550" lon="-3.2952400">
        <ele>975.0</ele>
        <time>2020-09-29T14:15:16Z</time>
      </trkpt>
      <trkpt lat="41.0207550" lon="-3.2952400">
        <ele>974.0</ele>
        <time>2020-09-29T14:15:17Z</time>
      </trkpt>
      <trkpt lat="41.0207120" lon="-3.2950730">
        <ele>974.0</ele>
        <time>2020-09-29T14:15:18Z</time>
      </trkpt>
      <trkpt lat="41.0207120" lon="-3.2950730">
        <ele>972.0</ele>
        <time>2020-09-29T14:15:19Z</time>
      </trkpt>
      <trkpt lat="41.0206630" lon="-3.2948930">
        <ele>972.0</ele>
        <time>2020-09-29T14:15:20Z</time>
      </trkpt>
      <trkpt lat="41.0206330" lon="-3.2948000">
        <ele>971.0</ele>
        <time>2020-09-29T14:15:21Z</time>
      </trkpt>
      <trkpt lat="41.0206330" lon="-3.2948000">
        <ele>971.0</ele>
        <time>2020-09-29T14:15:22Z</time>
      </trkpt>
      <trkpt lat="41.0205720" lon="-3.2946050">
        <ele>970.0</ele>
        <time>2020-09-29T14:15:23Z</time>
      </trkpt>
      <trkpt lat="41.0205720" lon="-3.2946050">
        <ele>970.0</ele>
        <time>2020-09-29T14:15:24Z</time>
      </trkpt>
      <trkpt lat="41.0205120" lon="-3.2944280">
        <ele>969.0</ele>
        <time>2020-09-29T14:15:25Z</time>
      </trkpt>
      <trkpt lat="41.0205120" lon="-3.2944280">
        <ele>969.0</ele>
        <time>2020-09-29T14:15:26Z</time>
      </trkpt>
      <trkpt lat="41.0204120" lon="-3.2942830">
        <ele>969.0</ele>
        <time>2020-09-29T14:15:27Z</time>
      </trkpt>
      <trkpt lat="41.0203500" lon="-3.2942300">
        <ele>969.0</ele>
        <time>2020-09-29T14:15:28Z</time>
      </trkpt>
      <trkpt lat="41.0202870" lon="-3.2942000">
        <ele>969.0</ele>
        <time>2020-09-29T14:15:29Z</time>
      </trkpt>
      <trkpt lat="41.0202870" lon="-3.2942000">
        <ele>969.0</ele>
        <time>2020-09-29T14:15:30Z</time>
      </trkpt>
      <trkpt lat="41.0201680" lon="-3.2942120">
        <ele>967.0</ele>
        <time>2020-09-29T14:15:31Z</time>
      </trkpt>
      <trkpt lat="41.0201170" lon="-3.2942370">
        <ele>967.0</ele>
        <time>2020-09-29T14:15:32Z</time>
      </trkpt>
      <trkpt lat="41.0201170" lon="-3.2942370">
        <ele>967.0</ele>
        <time>2020-09-29T14:15:33Z</time>
      </trkpt>
      <trkpt lat="41.0200380" lon="-3.2943020">
        <ele>967.0</ele>
        <time>2020-09-29T14:15:34Z</time>
      </trkpt>
      <trkpt lat="41.0200380" lon="-3.2943020">
        <ele>967.0</ele>
        <time>2020-09-29T14:15:35Z</time>
      </trkpt>
      <trkpt lat="41.0199780" lon="-3.2943870">
        <ele>967.0</ele>
        <time>2020-09-29T14:15:36Z</time>
      </trkpt>
      <trkpt lat="41.0199530" lon="-3.2944350">
        <ele>967.0</ele>
        <time>2020-09-29T14:15:37Z</time>
      </trkpt>
      <trkpt lat="41.0199530" lon="-3.2944350">
        <ele>968.0</ele>
        <time>2020-09-29T14:15:38Z</time>
      </trkpt>
      <trkpt lat="41.0199220" lon="-3.2945230">
        <ele>968.0</ele>
        <time>2020-09-29T14:15:39Z</time>
      </trkpt>
      <trkpt lat="41.0199220" lon="-3.2945230">
        <ele>969.0</ele>
        <time>2020-09-29T14:15:40Z</time>
      </trkpt>
      <trkpt lat="41.0199000" lon="-3.2946080">
        <ele>969.0</ele>
        <time>2020-09-29T14:15:41Z</time>
      </trkpt>
      <trkpt lat="41.0199000" lon="-3.2946080">
        <ele>969.0</ele>
        <time>2020-09-29T14:15:42Z</time>
      </trkpt>
      <trkpt lat="41.0198820" lon="-3.2946880">
        <ele>969.0</ele>
        <time>2020-09-29T14:15:43Z</time>
      </trkpt>
      <trkpt lat="41.0198820" lon="-3.2946880">
        <ele>969.0</ele>
        <time>2020-09-29T14:15:44Z</time>
      </trkpt>
      <trkpt lat="41.0198700" lon="-3.2947650">
        <ele>969.0</ele>
        <time>2020-09-29T14:15:45Z</time>
      </trkpt>
      <trkpt lat="41.0198620" lon="-3.2948080">
        <ele>969.0</ele>
        <time>2020-09-29T14:15:46Z</time>
      </trkpt>
      <trkpt lat="41.0198620" lon="-3.2948080">
        <ele>969.0</ele>
        <time>2020-09-29T14:15:47Z</time>
      </trkpt>
      <trkpt lat="41.0198320" lon="-3.2949130">
        <ele>970.0</ele>
        <time>2020-09-29T14:15:48Z</time>
      </trkpt>
      <trkpt lat="41.0198170" lon="-3.2949580">
        <ele>970.0</ele>
        <time>2020-09-29T14:15:49Z</time>
      </trkpt>
      <trkpt lat="41.0198170" lon="-3.2949580">
        <ele>970.0</ele>
        <time>2020-09-29T14:15:50Z</time>
      </trkpt>
      <trkpt lat="41.0198020" lon="-3.2950250">
        <ele>971.0</ele>
        <time>2020-09-29T14:15:51Z</time>
      </trkpt>
      <trkpt lat="41.0198020" lon="-3.2950250">
        <ele>971.0</ele>
        <time>2020-09-29T14:15:52Z</time>
      </trkpt>
      <trkpt lat="41.0197970" lon="-3.2951000">
        <ele>971.0</ele>
        <time>2020-09-29T14:15:53Z</time>
      </trkpt>
      <trkpt lat="41.0197970" lon="-3.2951000">
        <ele>971.0</ele>
        <time>2020-09-29T14:15:54Z</time>
      </trkpt>
      <trkpt lat="41.0197770" lon="-3.2951820">
        <ele>971.0</ele>
        <time>2020-09-29T14:15:55Z</time>
      </trkpt>
      <trkpt lat="41.0197770" lon="-3.2951820">
        <ele>971.0</ele>
        <time>2020-09-29T14:15:56Z</time>
      </trkpt>
      <trkpt lat="41.0197600" lon="-3.2952170">
        <ele>971.0</ele>
        <time>2020-09-29T14:15:57Z</time>
      </trkpt>
      <trkpt lat="41.0197600" lon="-3.2952170">
        <ele>971.0</ele>
        <time>2020-09-29T14:15:58Z</time>
      </trkpt>
      <trkpt lat="41.0197620" lon="-3.2952120">
        <ele>971.0</ele>
        <time>2020-09-29T14:16:20Z</time>
      </trkpt>
      <trkpt lat="41.0197620" lon="-3.2952120">
        <ele>971.0</ele>
        <time>2020-09-29T14:16:21Z</time>
      </trkpt>
      <trkpt lat="41.0196620" lon="-3.2955080">
        <ele>971.0</ele>
        <time>2020-09-29T14:16:22Z</time>
      </trkpt>
      <trkpt lat="41.0196620" lon="-3.2955080">
        <ele>971.0</ele>
        <time>2020-09-29T14:16:23Z</time>
      </trkpt>
      <trkpt lat="41.0196550" lon="-3.2955770">
        <ele>971.0</ele>
        <time>2020-09-29T14:16:24Z</time>
      </trkpt>
      <trkpt lat="41.0196550" lon="-3.2955770">
        <ele>971.0</ele>
        <time>2020-09-29T14:16:25Z</time>
      </trkpt>
      <trkpt lat="41.0196400" lon="-3.2956330">
        <ele>971.0</ele>
        <time>2020-09-29T14:16:26Z</time>
      </trkpt>
      <trkpt lat="41.0196400" lon="-3.2956330">
        <ele>971.0</ele>
        <time>2020-09-29T14:16:27Z</time>
      </trkpt>
      <trkpt lat="41.0196270" lon="-3.2956820">
        <ele>971.0</ele>
        <time>2020-09-29T14:16:28Z</time>
      </trkpt>
      <trkpt lat="41.0196270" lon="-3.2956820">
        <ele>971.0</ele>
        <time>2020-09-29T14:16:29Z</time>
      </trkpt>
      <trkpt lat="41.0196230" lon="-3.2957480">
        <ele>971.0</ele>
        <time>2020-09-29T14:16:30Z</time>
      </trkpt>
      <trkpt lat="41.0196180" lon="-3.2957870">
        <ele>971.0</ele>
        <time>2020-09-29T14:16:31Z</time>
      </trkpt>
      <trkpt lat="41.0196180" lon="-3.2957870">
        <ele>972.0</ele>
        <time>2020-09-29T14:16:32Z</time>
      </trkpt>
      <trkpt lat="41.0196100" lon="-3.2958580">
        <ele>972.0</ele>
        <time>2020-09-29T14:16:33Z</time>
      </trkpt>
      <trkpt lat="41.0195970" lon="-3.2959050">
        <ele>972.0</ele>
        <time>2020-09-29T14:16:34Z</time>
      </trkpt>
      <trkpt lat="41.0195970" lon="-3.2959050">
        <ele>972.0</ele>
        <time>2020-09-29T14:16:35Z</time>
      </trkpt>
      <trkpt lat="41.0195680" lon="-3.2960170">
        <ele>972.0</ele>
        <time>2020-09-29T14:16:36Z</time>
      </trkpt>
      <trkpt lat="41.0195680" lon="-3.2960170">
        <ele>972.0</ele>
        <time>2020-09-29T14:16:37Z</time>
      </trkpt>
      <trkpt lat="41.0195430" lon="-3.2961120">
        <ele>973.0</ele>
        <time>2020-09-29T14:16:38Z</time>
      </trkpt>
      <trkpt lat="41.0195430" lon="-3.2961120">
        <ele>973.0</ele>
        <time>2020-09-29T14:16:39Z</time>
      </trkpt>
      <trkpt lat="41.0195200" lon="-3.2961930">
        <ele>973.0</ele>
        <time>2020-09-29T14:16:40Z</time>
      </trkpt>
      <trkpt lat="41.0195200" lon="-3.2961930">
        <ele>973.0</ele>
        <time>2020-09-29T14:16:41Z</time>
      </trkpt>
      <trkpt lat="41.0194970" lon="-3.2962730">
        <ele>973.0</ele>
        <time>2020-09-29T14:16:42Z</time>
      </trkpt>
      <trkpt lat="41.0194850" lon="-3.2963170">
        <ele>973.0</ele>
        <time>2020-09-29T14:16:43Z</time>
      </trkpt>
      <trkpt lat="41.0194850" lon="-3.2963170">
        <ele>974.0</ele>
        <time>2020-09-29T14:16:44Z</time>
      </trkpt>
      <trkpt lat="41.0194720" lon="-3.2964170">
        <ele>974.0</ele>
        <time>2020-09-29T14:16:45Z</time>
      </trkpt>
      <trkpt lat="41.0194720" lon="-3.2964170">
        <ele>974.0</ele>
        <time>2020-09-29T14:16:46Z</time>
      </trkpt>
      <trkpt lat="41.0194570" lon="-3.2965150">
        <ele>974.0</ele>
        <time>2020-09-29T14:16:47Z</time>
      </trkpt>
      <trkpt lat="41.0194570" lon="-3.2965150">
        <ele>974.0</ele>
        <time>2020-09-29T14:16:48Z</time>
      </trkpt>
      <trkpt lat="41.0194350" lon="-3.2966000">
        <ele>974.0</ele>
        <time>2020-09-29T14:16:49Z</time>
      </trkpt>
      <trkpt lat="41.0194350" lon="-3.2966000">
        <ele>974.0</ele>
        <time>2020-09-29T14:16:50Z</time>
      </trkpt>
      <trkpt lat="41.0193970" lon="-3.2966920">
        <ele>974.0</ele>
        <time>2020-09-29T14:16:51Z</time>
      </trkpt>
      <trkpt lat="41.0193700" lon="-3.2967350">
        <ele>975.0</ele>
        <time>2020-09-29T14:16:52Z</time>
      </trkpt>
      <trkpt lat="41.0193700" lon="-3.2967350">
        <ele>975.0</ele>
        <time>2020-09-29T14:16:53Z</time>
      </trkpt>
      <trkpt lat="41.0193100" lon="-3.2968280">
        <ele>975.0</ele>
        <time>2020-09-29T14:16:54Z</time>
      </trkpt>
      <trkpt lat="41.0193100" lon="-3.2968280">
        <ele>975.0</ele>
        <time>2020-09-29T14:16:55Z</time>
      </trkpt>
      <trkpt lat="41.0192500" lon="-3.2968980">
        <ele>975.0</ele>
        <time>2020-09-29T14:16:56Z</time>
      </trkpt>
      <trkpt lat="41.0192200" lon="-3.2969280">
        <ele>975.0</ele>
        <time>2020-09-29T14:16:57Z</time>
      </trkpt>
      <trkpt lat="41.0192200" lon="-3.2969280">
        <ele>976.0</ele>
        <time>2020-09-29T14:16:58Z</time>
      </trkpt>
      <trkpt lat="41.0191520" lon="-3.2969730">
        <ele>976.0</ele>
        <time>2020-09-29T14:16:59Z</time>
      </trkpt>
      <trkpt lat="41.0191520" lon="-3.2969730">
        <ele>976.0</ele>
        <time>2020-09-29T14:17:00Z</time>
      </trkpt>
      <trkpt lat="41.0190830" lon="-3.2970050">
        <ele>976.0</ele>
        <time>2020-09-29T14:17:01Z</time>
      </trkpt>
      <trkpt lat="41.0190830" lon="-3.2970050">
        <ele>976.0</ele>
        <time>2020-09-29T14:17:02Z</time>
      </trkpt>
      <trkpt lat="41.0190130" lon="-3.2970270">
        <ele>976.0</ele>
        <time>2020-09-29T14:17:03Z</time>
      </trkpt>
      <trkpt lat="41.0189780" lon="-3.2970370">
        <ele>976.0</ele>
        <time>2020-09-29T14:17:04Z</time>
      </trkpt>
      <trkpt lat="41.0189780" lon="-3.2970370">
        <ele>976.0</ele>
        <time>2020-09-29T14:17:05Z</time>
      </trkpt>
      <trkpt lat="41.0189100" lon="-3.2970600">
        <ele>976.0</ele>
        <time>2020-09-29T14:17:06Z</time>
      </trkpt>
      <trkpt lat="41.0188700" lon="-3.2970680">
        <ele>976.0</ele>
        <time>2020-09-29T14:17:07Z</time>
      </trkpt>
      <trkpt lat="41.0188700" lon="-3.2970680">
        <ele>976.0</ele>
        <time>2020-09-29T14:17:08Z</time>
      </trkpt>
      <trkpt lat="41.0187850" lon="-3.2970880">
        <ele>976.0</ele>
        <time>2020-09-29T14:17:09Z</time>
      </trkpt>
      <trkpt lat="41.0187420" lon="-3.2971000">
        <ele>976.0</ele>
        <time>2020-09-29T14:17:10Z</time>
      </trkpt>
      <trkpt lat="41.0187420" lon="-3.2971000">
        <ele>976.0</ele>
        <time>2020-09-29T14:17:11Z</time>
      </trkpt>
      <trkpt lat="41.0186620" lon="-3.2971170">
        <ele>976.0</ele>
        <time>2020-09-29T14:17:12Z</time>
      </trkpt>
      <trkpt lat="41.0186200" lon="-3.2971270">
        <ele>976.0</ele>
        <time>2020-09-29T14:17:13Z</time>
      </trkpt>
      <trkpt lat="41.0186200" lon="-3.2971270">
        <ele>976.0</ele>
        <time>2020-09-29T14:17:14Z</time>
      </trkpt>
      <trkpt lat="41.0185330" lon="-3.2971470">
        <ele>976.0</ele>
        <time>2020-09-29T14:17:15Z</time>
      </trkpt>
      <trkpt lat="41.0185330" lon="-3.2971470">
        <ele>976.0</ele>
        <time>2020-09-29T14:17:16Z</time>
      </trkpt>
      <trkpt lat="41.0184380" lon="-3.2971630">
        <ele>976.0</ele>
        <time>2020-09-29T14:17:17Z</time>
      </trkpt>
      <trkpt lat="41.0184380" lon="-3.2971630">
        <ele>976.0</ele>
        <time>2020-09-29T14:17:18Z</time>
      </trkpt>
      <trkpt lat="41.0183330" lon="-3.2971880">
        <ele>976.0</ele>
        <time>2020-09-29T14:17:19Z</time>
      </trkpt>
      <trkpt lat="41.0182770" lon="-3.2972020">
        <ele>976.0</ele>
        <time>2020-09-29T14:17:20Z</time>
      </trkpt>
      <trkpt lat="41.0182770" lon="-3.2972020">
        <ele>975.0</ele>
        <time>2020-09-29T14:17:21Z</time>
      </trkpt>
      <trkpt lat="41.0181500" lon="-3.2972420">
        <ele>975.0</ele>
        <time>2020-09-29T14:17:22Z</time>
      </trkpt>
      <trkpt lat="41.0181500" lon="-3.2972420">
        <ele>975.0</ele>
        <time>2020-09-29T14:17:23Z</time>
      </trkpt>
      <trkpt lat="41.0180050" lon="-3.2972620">
        <ele>975.0</ele>
        <time>2020-09-29T14:17:24Z</time>
      </trkpt>
      <trkpt lat="41.0179370" lon="-3.2972820">
        <ele>974.0</ele>
        <time>2020-09-29T14:17:25Z</time>
      </trkpt>
      <trkpt lat="41.0179370" lon="-3.2972820">
        <ele>974.0</ele>
        <time>2020-09-29T14:17:26Z</time>
      </trkpt>
      <trkpt lat="41.0178200" lon="-3.2973250">
        <ele>974.0</ele>
        <time>2020-09-29T14:17:27Z</time>
      </trkpt>
      <trkpt lat="41.0177650" lon="-3.2973450">
        <ele>974.0</ele>
        <time>2020-09-29T14:17:28Z</time>
      </trkpt>
      <trkpt lat="41.0177080" lon="-3.2973700">
        <ele>973.0</ele>
        <time>2020-09-29T14:17:29Z</time>
      </trkpt>
      <trkpt lat="41.0177080" lon="-3.2973700">
        <ele>973.0</ele>
        <time>2020-09-29T14:17:30Z</time>
      </trkpt>
      <trkpt lat="41.0175970" lon="-3.2973970">
        <ele>973.0</ele>
        <time>2020-09-29T14:17:31Z</time>
      </trkpt>
      <trkpt lat="41.0175970" lon="-3.2973970">
        <ele>973.0</ele>
        <time>2020-09-29T14:17:32Z</time>
      </trkpt>
      <trkpt lat="41.0174900" lon="-3.2974300">
        <ele>973.0</ele>
        <time>2020-09-29T14:17:33Z</time>
      </trkpt>
      <trkpt lat="41.0174900" lon="-3.2974300">
        <ele>973.0</ele>
        <time>2020-09-29T14:17:34Z</time>
      </trkpt>
      <trkpt lat="41.0173730" lon="-3.2974620">
        <ele>972.0</ele>
        <time>2020-09-29T14:17:35Z</time>
      </trkpt>
      <trkpt lat="41.0173080" lon="-3.2974750">
        <ele>972.0</ele>
        <time>2020-09-29T14:17:36Z</time>
      </trkpt>
      <trkpt lat="41.0173080" lon="-3.2974750">
        <ele>972.0</ele>
        <time>2020-09-29T14:17:37Z</time>
      </trkpt>
      <trkpt lat="41.0171750" lon="-3.2974470">
        <ele>971.0</ele>
        <time>2020-09-29T14:17:38Z</time>
      </trkpt>
      <trkpt lat="41.0171750" lon="-3.2974470">
        <ele>971.0</ele>
        <time>2020-09-29T14:17:39Z</time>
      </trkpt>
      <trkpt lat="41.0170580" lon="-3.2973380">
        <ele>971.0</ele>
        <time>2020-09-29T14:17:40Z</time>
      </trkpt>
      <trkpt lat="41.0170580" lon="-3.2973380">
        <ele>971.0</ele>
        <time>2020-09-29T14:17:41Z</time>
      </trkpt>
      <trkpt lat="41.0170020" lon="-3.2971880">
        <ele>970.0</ele>
        <time>2020-09-29T14:17:42Z</time>
      </trkpt>
      <trkpt lat="41.0169930" lon="-3.2971080">
        <ele>970.0</ele>
        <time>2020-09-29T14:17:43Z</time>
      </trkpt>
      <trkpt lat="41.0169930" lon="-3.2971080">
        <ele>970.0</ele>
        <time>2020-09-29T14:17:44Z</time>
      </trkpt>
      <trkpt lat="41.0170030" lon="-3.2969380">
        <ele>970.0</ele>
        <time>2020-09-29T14:17:45Z</time>
      </trkpt>
      <trkpt lat="41.0170030" lon="-3.2969380">
        <ele>969.0</ele>
        <time>2020-09-29T14:17:46Z</time>
      </trkpt>
      <trkpt lat="41.0170220" lon="-3.2967770">
        <ele>969.0</ele>
        <time>2020-09-29T14:17:47Z</time>
      </trkpt>
      <trkpt lat="41.0170220" lon="-3.2967770">
        <ele>969.0</ele>
        <time>2020-09-29T14:17:48Z</time>
      </trkpt>
      <trkpt lat="41.0170500" lon="-3.2966050">
        <ele>969.0</ele>
        <time>2020-09-29T14:17:49Z</time>
      </trkpt>
      <trkpt lat="41.0170500" lon="-3.2966050">
        <ele>969.0</ele>
        <time>2020-09-29T14:17:50Z</time>
      </trkpt>
      <trkpt lat="41.0170680" lon="-3.2964350">
        <ele>969.0</ele>
        <time>2020-09-29T14:17:51Z</time>
      </trkpt>
      <trkpt lat="41.0170680" lon="-3.2964350">
        <ele>968.0</ele>
        <time>2020-09-29T14:17:52Z</time>
      </trkpt>
      <trkpt lat="41.0170970" lon="-3.2962730">
        <ele>968.0</ele>
        <time>2020-09-29T14:17:53Z</time>
      </trkpt>
      <trkpt lat="41.0171120" lon="-3.2961950">
        <ele>968.0</ele>
        <time>2020-09-29T14:17:54Z</time>
      </trkpt>
      <trkpt lat="41.0171120" lon="-3.2961950">
        <ele>968.0</ele>
        <time>2020-09-29T14:17:55Z</time>
      </trkpt>
      <trkpt lat="41.0171170" lon="-3.2960430">
        <ele>968.0</ele>
        <time>2020-09-29T14:17:56Z</time>
      </trkpt>
      <trkpt lat="41.0171170" lon="-3.2960430">
        <ele>968.0</ele>
        <time>2020-09-29T14:17:57Z</time>
      </trkpt>
      <trkpt lat="41.0171400" lon="-3.2958750">
        <ele>968.0</ele>
        <time>2020-09-29T14:17:58Z</time>
      </trkpt>
      <trkpt lat="41.0171400" lon="-3.2958750">
        <ele>968.0</ele>
        <time>2020-09-29T14:17:59Z</time>
      </trkpt>
      <trkpt lat="41.0171720" lon="-3.2956970">
        <ele>967.0</ele>
        <time>2020-09-29T14:18:00Z</time>
      </trkpt>
      <trkpt lat="41.0171920" lon="-3.2956030">
        <ele>967.0</ele>
        <time>2020-09-29T14:18:01Z</time>
      </trkpt>
      <trkpt lat="41.0171920" lon="-3.2956030">
        <ele>967.0</ele>
        <time>2020-09-29T14:18:02Z</time>
      </trkpt>
      <trkpt lat="41.0172180" lon="-3.2954200">
        <ele>967.0</ele>
        <time>2020-09-29T14:18:03Z</time>
      </trkpt>
      <trkpt lat="41.0172180" lon="-3.2954200">
        <ele>966.0</ele>
        <time>2020-09-29T14:18:04Z</time>
      </trkpt>
      <trkpt lat="41.0172420" lon="-3.2952650">
        <ele>966.0</ele>
        <time>2020-09-29T14:18:05Z</time>
      </trkpt>
      <trkpt lat="41.0172420" lon="-3.2952650">
        <ele>966.0</ele>
        <time>2020-09-29T14:18:06Z</time>
      </trkpt>
      <trkpt lat="41.0172370" lon="-3.2951450">
        <ele>966.0</ele>
        <time>2020-09-29T14:18:07Z</time>
      </trkpt>
      <trkpt lat="41.0172220" lon="-3.2950850">
        <ele>965.0</ele>
        <time>2020-09-29T14:18:08Z</time>
      </trkpt>
      <trkpt lat="41.0172220" lon="-3.2950850">
        <ele>965.0</ele>
        <time>2020-09-29T14:18:09Z</time>
      </trkpt>
      <trkpt lat="41.0171580" lon="-3.2949750">
        <ele>965.0</ele>
        <time>2020-09-29T14:18:10Z</time>
      </trkpt>
      <trkpt lat="41.0171580" lon="-3.2949750">
        <ele>965.0</ele>
        <time>2020-09-29T14:18:11Z</time>
      </trkpt>
      <trkpt lat="41.0170750" lon="-3.2949000">
        <ele>964.0</ele>
        <time>2020-09-29T14:18:12Z</time>
      </trkpt>
      <trkpt lat="41.0170750" lon="-3.2949000">
        <ele>964.0</ele>
        <time>2020-09-29T14:18:13Z</time>
      </trkpt>
      <trkpt lat="41.0169830" lon="-3.2948730">
        <ele>964.0</ele>
        <time>2020-09-29T14:18:14Z</time>
      </trkpt>
      <trkpt lat="41.0169830" lon="-3.2948730">
        <ele>963.0</ele>
        <time>2020-09-29T14:18:15Z</time>
      </trkpt>
      <trkpt lat="41.0168800" lon="-3.2948720">
        <ele>963.0</ele>
        <time>2020-09-29T14:18:16Z</time>
      </trkpt>
      <trkpt lat="41.0168200" lon="-3.2948770">
        <ele>963.0</ele>
        <time>2020-09-29T14:18:17Z</time>
      </trkpt>
      <trkpt lat="41.0168200" lon="-3.2948770">
        <ele>963.0</ele>
        <time>2020-09-29T14:18:18Z</time>
      </trkpt>
      <trkpt lat="41.0167020" lon="-3.2948900">
        <ele>962.0</ele>
        <time>2020-09-29T14:18:19Z</time>
      </trkpt>
      <trkpt lat="41.0167020" lon="-3.2948900">
        <ele>962.0</ele>
        <time>2020-09-29T14:18:20Z</time>
      </trkpt>
      <trkpt lat="41.0165680" lon="-3.2949230">
        <ele>962.0</ele>
        <time>2020-09-29T14:18:21Z</time>
      </trkpt>
      <trkpt lat="41.0165680" lon="-3.2949230">
        <ele>962.0</ele>
        <time>2020-09-29T14:18:22Z</time>
      </trkpt>
      <trkpt lat="41.0164120" lon="-3.2949570">
        <ele>961.0</ele>
        <time>2020-09-29T14:18:23Z</time>
      </trkpt>
      <trkpt lat="41.0163350" lon="-3.2949700">
        <ele>961.0</ele>
        <time>2020-09-29T14:18:24Z</time>
      </trkpt>
      <trkpt lat="41.0163350" lon="-3.2949700">
        <ele>960.0</ele>
        <time>2020-09-29T14:18:25Z</time>
      </trkpt>
      <trkpt lat="41.0161480" lon="-3.2949980">
        <ele>960.0</ele>
        <time>2020-09-29T14:18:26Z</time>
      </trkpt>
      <trkpt lat="41.0160620" lon="-3.2950130">
        <ele>960.0</ele>
        <time>2020-09-29T14:18:27Z</time>
      </trkpt>
      <trkpt lat="41.0160620" lon="-3.2950130">
        <ele>960.0</ele>
        <time>2020-09-29T14:18:28Z</time>
      </trkpt>
      <trkpt lat="41.0159080" lon="-3.2950350">
        <ele>960.0</ele>
        <time>2020-09-29T14:18:29Z</time>
      </trkpt>
      <trkpt lat="41.0158330" lon="-3.2950400">
        <ele>960.0</ele>
        <time>2020-09-29T14:18:30Z</time>
      </trkpt>
      <trkpt lat="41.0158330" lon="-3.2950400">
        <ele>959.0</ele>
        <time>2020-09-29T14:18:31Z</time>
      </trkpt>
      <trkpt lat="41.0156900" lon="-3.2950320">
        <ele>959.0</ele>
        <time>2020-09-29T14:18:32Z</time>
      </trkpt>
      <trkpt lat="41.0156900" lon="-3.2950320">
        <ele>959.0</ele>
        <time>2020-09-29T14:18:33Z</time>
      </trkpt>
      <trkpt lat="41.0155580" lon="-3.2949880">
        <ele>959.0</ele>
        <time>2020-09-29T14:18:34Z</time>
      </trkpt>
      <trkpt lat="41.0154970" lon="-3.2949570">
        <ele>959.0</ele>
        <time>2020-09-29T14:18:35Z</time>
      </trkpt>
      <trkpt lat="41.0154450" lon="-3.2949150">
        <ele>959.0</ele>
        <time>2020-09-29T14:18:36Z</time>
      </trkpt>
      <trkpt lat="41.0154450" lon="-3.2949150">
        <ele>959.0</ele>
        <time>2020-09-29T14:18:37Z</time>
      </trkpt>
      <trkpt lat="41.0153550" lon="-3.2948230">
        <ele>958.0</ele>
        <time>2020-09-29T14:18:38Z</time>
      </trkpt>
      <trkpt lat="41.0153550" lon="-3.2948230">
        <ele>958.0</ele>
        <time>2020-09-29T14:18:39Z</time>
      </trkpt>
      <trkpt lat="41.0152950" lon="-3.2947100">
        <ele>958.0</ele>
        <time>2020-09-29T14:18:40Z</time>
      </trkpt>
      <trkpt lat="41.0152720" lon="-3.2946480">
        <ele>958.0</ele>
        <time>2020-09-29T14:18:41Z</time>
      </trkpt>
      <trkpt lat="41.0152720" lon="-3.2946480">
        <ele>958.0</ele>
        <time>2020-09-29T14:18:42Z</time>
      </trkpt>
      <trkpt lat="41.0152430" lon="-3.2945120">
        <ele>958.0</ele>
        <time>2020-09-29T14:18:43Z</time>
      </trkpt>
      <trkpt lat="41.0152270" lon="-3.2944470">
        <ele>958.0</ele>
        <time>2020-09-29T14:18:44Z</time>
      </trkpt>
      <trkpt lat="41.0152270" lon="-3.2944470">
        <ele>958.0</ele>
        <time>2020-09-29T14:18:45Z</time>
      </trkpt>
      <trkpt lat="41.0152020" lon="-3.2943100">
        <ele>958.0</ele>
        <time>2020-09-29T14:18:46Z</time>
      </trkpt>
      <trkpt lat="41.0151930" lon="-3.2942420">
        <ele>958.0</ele>
        <time>2020-09-29T14:18:47Z</time>
      </trkpt>
      <trkpt lat="41.0151930" lon="-3.2942420">
        <ele>958.0</ele>
        <time>2020-09-29T14:18:48Z</time>
      </trkpt>
      <trkpt lat="41.0151670" lon="-3.2941000">
        <ele>957.0</ele>
        <time>2020-09-29T14:18:49Z</time>
      </trkpt>
      <trkpt lat="41.0151670" lon="-3.2941000">
        <ele>957.0</ele>
        <time>2020-09-29T14:18:50Z</time>
      </trkpt>
      <trkpt lat="41.0151370" lon="-3.2939450">
        <ele>957.0</ele>
        <time>2020-09-29T14:18:51Z</time>
      </trkpt>
      <trkpt lat="41.0151370" lon="-3.2939450">
        <ele>957.0</ele>
        <time>2020-09-29T14:18:52Z</time>
      </trkpt>
      <trkpt lat="41.0151030" lon="-3.2937780">
        <ele>957.0</ele>
        <time>2020-09-29T14:18:53Z</time>
      </trkpt>
      <trkpt lat="41.0151030" lon="-3.2937780">
        <ele>957.0</ele>
        <time>2020-09-29T14:18:54Z</time>
      </trkpt>
      <trkpt lat="41.0150750" lon="-3.2936050">
        <ele>956.0</ele>
        <time>2020-09-29T14:18:55Z</time>
      </trkpt>
      <trkpt lat="41.0150750" lon="-3.2936050">
        <ele>956.0</ele>
        <time>2020-09-29T14:18:56Z</time>
      </trkpt>
      <trkpt lat="41.0150200" lon="-3.2934330">
        <ele>956.0</ele>
        <time>2020-09-29T14:18:57Z</time>
      </trkpt>
      <trkpt lat="41.0149970" lon="-3.2933550">
        <ele>956.0</ele>
        <time>2020-09-29T14:18:58Z</time>
      </trkpt>
      <trkpt lat="41.0149970" lon="-3.2933550">
        <ele>954.0</ele>
        <time>2020-09-29T14:18:59Z</time>
      </trkpt>
      <trkpt lat="41.0149330" lon="-3.2932050">
        <ele>954.0</ele>
        <time>2020-09-29T14:19:00Z</time>
      </trkpt>
      <trkpt lat="41.0148820" lon="-3.2931650">
        <ele>954.0</ele>
        <time>2020-09-29T14:19:01Z</time>
      </trkpt>
      <trkpt lat="41.0148820" lon="-3.2931650">
        <ele>954.0</ele>
        <time>2020-09-29T14:19:02Z</time>
      </trkpt>
      <trkpt lat="41.0147680" lon="-3.2931200">
        <ele>953.0</ele>
        <time>2020-09-29T14:19:03Z</time>
      </trkpt>
      <trkpt lat="41.0146920" lon="-3.2931420">
        <ele>953.0</ele>
        <time>2020-09-29T14:19:04Z</time>
      </trkpt>
      <trkpt lat="41.0146280" lon="-3.2931630">
        <ele>953.0</ele>
        <time>2020-09-29T14:19:05Z</time>
      </trkpt>
      <trkpt lat="41.0146280" lon="-3.2931630">
        <ele>953.0</ele>
        <time>2020-09-29T14:19:06Z</time>
      </trkpt>
      <trkpt lat="41.0145250" lon="-3.2932450">
        <ele>953.0</ele>
        <time>2020-09-29T14:19:07Z</time>
      </trkpt>
      <trkpt lat="41.0145250" lon="-3.2932450">
        <ele>953.0</ele>
        <time>2020-09-29T14:19:08Z</time>
      </trkpt>
      <trkpt lat="41.0144270" lon="-3.2933550">
        <ele>952.0</ele>
        <time>2020-09-29T14:19:09Z</time>
      </trkpt>
      <trkpt lat="41.0143820" lon="-3.2934250">
        <ele>952.0</ele>
        <time>2020-09-29T14:19:10Z</time>
      </trkpt>
      <trkpt lat="41.0143820" lon="-3.2934250">
        <ele>952.0</ele>
        <time>2020-09-29T14:19:11Z</time>
      </trkpt>
      <trkpt lat="41.0142880" lon="-3.2935570">
        <ele>952.0</ele>
        <time>2020-09-29T14:19:12Z</time>
      </trkpt>
      <trkpt lat="41.0142880" lon="-3.2935570">
        <ele>952.0</ele>
        <time>2020-09-29T14:19:13Z</time>
      </trkpt>
      <trkpt lat="41.0142130" lon="-3.2936900">
        <ele>952.0</ele>
        <time>2020-09-29T14:19:14Z</time>
      </trkpt>
      <trkpt lat="41.0142130" lon="-3.2936900">
        <ele>951.0</ele>
        <time>2020-09-29T14:19:15Z</time>
      </trkpt>
      <trkpt lat="41.0141280" lon="-3.2938080">
        <ele>951.0</ele>
        <time>2020-09-29T14:19:16Z</time>
      </trkpt>
      <trkpt lat="41.0141280" lon="-3.2938080">
        <ele>951.0</ele>
        <time>2020-09-29T14:19:17Z</time>
      </trkpt>
      <trkpt lat="41.0140550" lon="-3.2939270">
        <ele>951.0</ele>
        <time>2020-09-29T14:19:18Z</time>
      </trkpt>
      <trkpt lat="41.0140550" lon="-3.2939270">
        <ele>951.0</ele>
        <time>2020-09-29T14:19:19Z</time>
      </trkpt>
      <trkpt lat="41.0139620" lon="-3.2940330">
        <ele>951.0</ele>
        <time>2020-09-29T14:19:20Z</time>
      </trkpt>
      <trkpt lat="41.0139620" lon="-3.2940330">
        <ele>951.0</ele>
        <time>2020-09-29T14:19:21Z</time>
      </trkpt>
      <trkpt lat="41.0138950" lon="-3.2941650">
        <ele>951.0</ele>
        <time>2020-09-29T14:19:22Z</time>
      </trkpt>
      <trkpt lat="41.0138580" lon="-3.2942280">
        <ele>951.0</ele>
        <time>2020-09-29T14:19:23Z</time>
      </trkpt>
      <trkpt lat="41.0138580" lon="-3.2942280">
        <ele>951.0</ele>
        <time>2020-09-29T14:19:24Z</time>
      </trkpt>
      <trkpt lat="41.0137750" lon="-3.2943400">
        <ele>951.0</ele>
        <time>2020-09-29T14:19:25Z</time>
      </trkpt>
      <trkpt lat="41.0137750" lon="-3.2943400">
        <ele>951.0</ele>
        <time>2020-09-29T14:19:26Z</time>
      </trkpt>
      <trkpt lat="41.0136830" lon="-3.2944600">
        <ele>950.0</ele>
        <time>2020-09-29T14:19:27Z</time>
      </trkpt>
      <trkpt lat="41.0136370" lon="-3.2945350">
        <ele>950.0</ele>
        <time>2020-09-29T14:19:28Z</time>
      </trkpt>
      <trkpt lat="41.0136370" lon="-3.2945350">
        <ele>950.0</ele>
        <time>2020-09-29T14:19:29Z</time>
      </trkpt>
      <trkpt lat="41.0135250" lon="-3.2946550">
        <ele>950.0</ele>
        <time>2020-09-29T14:19:30Z</time>
      </trkpt>
      <trkpt lat="41.0135250" lon="-3.2946550">
        <ele>949.0</ele>
        <time>2020-09-29T14:19:31Z</time>
      </trkpt>
      <trkpt lat="41.0134200" lon="-3.2947830">
        <ele>949.0</ele>
        <time>2020-09-29T14:19:32Z</time>
      </trkpt>
      <trkpt lat="41.0134200" lon="-3.2947830">
        <ele>949.0</ele>
        <time>2020-09-29T14:19:33Z</time>
      </trkpt>
      <trkpt lat="41.0133330" lon="-3.2949070">
        <ele>949.0</ele>
        <time>2020-09-29T14:19:34Z</time>
      </trkpt>
      <trkpt lat="41.0133330" lon="-3.2949070">
        <ele>949.0</ele>
        <time>2020-09-29T14:19:35Z</time>
      </trkpt>
      <trkpt lat="41.0132480" lon="-3.2949530">
        <ele>949.0</ele>
        <time>2020-09-29T14:19:36Z</time>
      </trkpt>
      <trkpt lat="41.0131980" lon="-3.2949600">
        <ele>948.0</ele>
        <time>2020-09-29T14:19:37Z</time>
      </trkpt>
      <trkpt lat="41.0131980" lon="-3.2949600">
        <ele>948.0</ele>
        <time>2020-09-29T14:19:38Z</time>
      </trkpt>
      <trkpt lat="41.0131070" lon="-3.2949530">
        <ele>948.0</ele>
        <time>2020-09-29T14:19:39Z</time>
      </trkpt>
      <trkpt lat="41.0131070" lon="-3.2949530">
        <ele>948.0</ele>
        <time>2020-09-29T14:19:40Z</time>
      </trkpt>
      <trkpt lat="41.0130320" lon="-3.2949130">
        <ele>947.0</ele>
        <time>2020-09-29T14:19:41Z</time>
      </trkpt>
      <trkpt lat="41.0130320" lon="-3.2949130">
        <ele>947.0</ele>
        <time>2020-09-29T14:19:42Z</time>
      </trkpt>
      <trkpt lat="41.0129680" lon="-3.2948480">
        <ele>947.0</ele>
        <time>2020-09-29T14:19:43Z</time>
      </trkpt>
      <trkpt lat="41.0129080" lon="-3.2947670">
        <ele>947.0</ele>
        <time>2020-09-29T14:19:44Z</time>
      </trkpt>
      <trkpt lat="41.0129080" lon="-3.2947670">
        <ele>946.0</ele>
        <time>2020-09-29T14:19:45Z</time>
      </trkpt>
      <trkpt lat="41.0129080" lon="-3.2947670">
        <ele>946.0</ele>
        <time>2020-09-29T14:19:46Z</time>
      </trkpt>
      <trkpt lat="41.0128520" lon="-3.2946970">
        <ele>946.0</ele>
        <time>2020-09-29T14:19:47Z</time>
      </trkpt>
      <trkpt lat="41.0128200" lon="-3.2946600">
        <ele>946.0</ele>
        <time>2020-09-29T14:19:48Z</time>
      </trkpt>
      <trkpt lat="41.0128200" lon="-3.2946600">
        <ele>946.0</ele>
        <time>2020-09-29T14:19:49Z</time>
      </trkpt>
      <trkpt lat="41.0127500" lon="-3.2945980">
        <ele>946.0</ele>
        <time>2020-09-29T14:19:50Z</time>
      </trkpt>
      <trkpt lat="41.0127500" lon="-3.2945980">
        <ele>946.0</ele>
        <time>2020-09-29T14:19:51Z</time>
      </trkpt>
      <trkpt lat="41.0126770" lon="-3.2945730">
        <ele>946.0</ele>
        <time>2020-09-29T14:19:52Z</time>
      </trkpt>
      <trkpt lat="41.0126770" lon="-3.2945730">
        <ele>946.0</ele>
        <time>2020-09-29T14:19:53Z</time>
      </trkpt>
      <trkpt lat="41.0126020" lon="-3.2945920">
        <ele>946.0</ele>
        <time>2020-09-29T14:19:54Z</time>
      </trkpt>
      <trkpt lat="41.0125630" lon="-3.2946070">
        <ele>946.0</ele>
        <time>2020-09-29T14:19:55Z</time>
      </trkpt>
      <trkpt lat="41.0125630" lon="-3.2946070">
        <ele>946.0</ele>
        <time>2020-09-29T14:19:56Z</time>
      </trkpt>
      <trkpt lat="41.0124900" lon="-3.2946770">
        <ele>946.0</ele>
        <time>2020-09-29T14:19:57Z</time>
      </trkpt>
      <trkpt lat="41.0124900" lon="-3.2946770">
        <ele>946.0</ele>
        <time>2020-09-29T14:19:58Z</time>
      </trkpt>
      <trkpt lat="41.0124080" lon="-3.2947180">
        <ele>945.0</ele>
        <time>2020-09-29T14:19:59Z</time>
      </trkpt>
      <trkpt lat="41.0123680" lon="-3.2947570">
        <ele>945.0</ele>
        <time>2020-09-29T14:20:00Z</time>
      </trkpt>
      <trkpt lat="41.0123680" lon="-3.2947570">
        <ele>945.0</ele>
        <time>2020-09-29T14:20:01Z</time>
      </trkpt>
      <trkpt lat="41.0122880" lon="-3.2948150">
        <ele>945.0</ele>
        <time>2020-09-29T14:20:02Z</time>
      </trkpt>
      <trkpt lat="41.0122880" lon="-3.2948150">
        <ele>945.0</ele>
        <time>2020-09-29T14:20:03Z</time>
      </trkpt>
      <trkpt lat="41.0122120" lon="-3.2948820">
        <ele>945.0</ele>
        <time>2020-09-29T14:20:04Z</time>
      </trkpt>
      <trkpt lat="41.0122120" lon="-3.2948820">
        <ele>945.0</ele>
        <time>2020-09-29T14:20:05Z</time>
      </trkpt>
      <trkpt lat="41.0121330" lon="-3.2949430">
        <ele>945.0</ele>
        <time>2020-09-29T14:20:06Z</time>
      </trkpt>
      <trkpt lat="41.0120870" lon="-3.2949670">
        <ele>945.0</ele>
        <time>2020-09-29T14:20:07Z</time>
      </trkpt>
      <trkpt lat="41.0120870" lon="-3.2949670">
        <ele>945.0</ele>
        <time>2020-09-29T14:20:08Z</time>
      </trkpt>
      <trkpt lat="41.0120020" lon="-3.2950180">
        <ele>945.0</ele>
        <time>2020-09-29T14:20:09Z</time>
      </trkpt>
      <trkpt lat="41.0120020" lon="-3.2950180">
        <ele>945.0</ele>
        <time>2020-09-29T14:20:10Z</time>
      </trkpt>
      <trkpt lat="41.0119020" lon="-3.2950620">
        <ele>945.0</ele>
        <time>2020-09-29T14:20:11Z</time>
      </trkpt>
      <trkpt lat="41.0118470" lon="-3.2950680">
        <ele>944.0</ele>
        <time>2020-09-29T14:20:12Z</time>
      </trkpt>
      <trkpt lat="41.0118470" lon="-3.2950680">
        <ele>944.0</ele>
        <time>2020-09-29T14:20:13Z</time>
      </trkpt>
      <trkpt lat="41.0117420" lon="-3.2950530">
        <ele>944.0</ele>
        <time>2020-09-29T14:20:14Z</time>
      </trkpt>
      <trkpt lat="41.0116980" lon="-3.2950280">
        <ele>944.0</ele>
        <time>2020-09-29T14:20:15Z</time>
      </trkpt>
      <trkpt lat="41.0116630" lon="-3.2949930">
        <ele>944.0</ele>
        <time>2020-09-29T14:20:16Z</time>
      </trkpt>
      <trkpt lat="41.0116630" lon="-3.2949930">
        <ele>944.0</ele>
        <time>2020-09-29T14:20:17Z</time>
      </trkpt>
      <trkpt lat="41.0116080" lon="-3.2949100">
        <ele>944.0</ele>
        <time>2020-09-29T14:20:18Z</time>
      </trkpt>
      <trkpt lat="41.0115950" lon="-3.2948580">
        <ele>944.0</ele>
        <time>2020-09-29T14:20:19Z</time>
      </trkpt>
      <trkpt lat="41.0115950" lon="-3.2948580">
        <ele>944.0</ele>
        <time>2020-09-29T14:20:20Z</time>
      </trkpt>
      <trkpt lat="41.0115770" lon="-3.2947580">
        <ele>944.0</ele>
        <time>2020-09-29T14:20:21Z</time>
      </trkpt>
      <trkpt lat="41.0115700" lon="-3.2947020">
        <ele>943.0</ele>
        <time>2020-09-29T14:20:22Z</time>
      </trkpt>
      <trkpt lat="41.0115700" lon="-3.2947020">
        <ele>943.0</ele>
        <time>2020-09-29T14:20:23Z</time>
      </trkpt>
      <trkpt lat="41.0115630" lon="-3.2945880">
        <ele>943.0</ele>
        <time>2020-09-29T14:20:24Z</time>
      </trkpt>
      <trkpt lat="41.0115580" lon="-3.2945320">
        <ele>943.0</ele>
        <time>2020-09-29T14:20:25Z</time>
      </trkpt>
      <trkpt lat="41.0115580" lon="-3.2945320">
        <ele>943.0</ele>
        <time>2020-09-29T14:20:26Z</time>
      </trkpt>
      <trkpt lat="41.0115500" lon="-3.2944130">
        <ele>943.0</ele>
        <time>2020-09-29T14:20:27Z</time>
      </trkpt>
      <trkpt lat="41.0115500" lon="-3.2944130">
        <ele>943.0</ele>
        <time>2020-09-29T14:20:28Z</time>
      </trkpt>
      <trkpt lat="41.0115430" lon="-3.2943000">
        <ele>943.0</ele>
        <time>2020-09-29T14:20:29Z</time>
      </trkpt>
      <trkpt lat="41.0115430" lon="-3.2943000">
        <ele>943.0</ele>
        <time>2020-09-29T14:20:30Z</time>
      </trkpt>
      <trkpt lat="41.0115180" lon="-3.2941880">
        <ele>943.0</ele>
        <time>2020-09-29T14:20:31Z</time>
      </trkpt>
      <trkpt lat="41.0115180" lon="-3.2941880">
        <ele>943.0</ele>
        <time>2020-09-29T14:20:32Z</time>
      </trkpt>
      <trkpt lat="41.0115020" lon="-3.2940650">
        <ele>943.0</ele>
        <time>2020-09-29T14:20:33Z</time>
      </trkpt>
      <trkpt lat="41.0114880" lon="-3.2940020">
        <ele>943.0</ele>
        <time>2020-09-29T14:20:34Z</time>
      </trkpt>
      <trkpt lat="41.0114880" lon="-3.2940020">
        <ele>943.0</ele>
        <time>2020-09-29T14:20:35Z</time>
      </trkpt>
      <trkpt lat="41.0114530" lon="-3.2938750">
        <ele>943.0</ele>
        <time>2020-09-29T14:20:36Z</time>
      </trkpt>
      <trkpt lat="41.0114300" lon="-3.2938170">
        <ele>943.0</ele>
        <time>2020-09-29T14:20:37Z</time>
      </trkpt>
      <trkpt lat="41.0114020" lon="-3.2937680">
        <ele>943.0</ele>
        <time>2020-09-29T14:20:38Z</time>
      </trkpt>
      <trkpt lat="41.0114020" lon="-3.2937680">
        <ele>942.0</ele>
        <time>2020-09-29T14:20:39Z</time>
      </trkpt>
      <trkpt lat="41.0113180" lon="-3.2937080">
        <ele>942.0</ele>
        <time>2020-09-29T14:20:40Z</time>
      </trkpt>
      <trkpt lat="41.0113180" lon="-3.2937080">
        <ele>942.0</ele>
        <time>2020-09-29T14:20:41Z</time>
      </trkpt>
      <trkpt lat="41.0112230" lon="-3.2936870">
        <ele>942.0</ele>
        <time>2020-09-29T14:20:42Z</time>
      </trkpt>
      <trkpt lat="41.0112230" lon="-3.2936870">
        <ele>942.0</ele>
        <time>2020-09-29T14:20:43Z</time>
      </trkpt>
      <trkpt lat="41.0110800" lon="-3.2936680">
        <ele>942.0</ele>
        <time>2020-09-29T14:20:44Z</time>
      </trkpt>
      <trkpt lat="41.0110800" lon="-3.2936680">
        <ele>942.0</ele>
        <time>2020-09-29T14:20:45Z</time>
      </trkpt>
      <trkpt lat="41.0110800" lon="-3.2936680">
        <ele>942.0</ele>
        <time>2020-09-29T14:20:46Z</time>
      </trkpt>
      <trkpt lat="41.0109920" lon="-3.2936270">
        <ele>941.0</ele>
        <time>2020-09-29T14:20:47Z</time>
      </trkpt>
      <trkpt lat="41.0109920" lon="-3.2936270">
        <ele>941.0</ele>
        <time>2020-09-29T14:20:48Z</time>
      </trkpt>
      <trkpt lat="41.0109170" lon="-3.2935470">
        <ele>941.0</ele>
        <time>2020-09-29T14:20:49Z</time>
      </trkpt>
      <trkpt lat="41.0109170" lon="-3.2935470">
        <ele>941.0</ele>
        <time>2020-09-29T14:20:50Z</time>
      </trkpt>
      <trkpt lat="41.0108700" lon="-3.2934330">
        <ele>941.0</ele>
        <time>2020-09-29T14:20:51Z</time>
      </trkpt>
      <trkpt lat="41.0108530" lon="-3.2933720">
        <ele>941.0</ele>
        <time>2020-09-29T14:20:52Z</time>
      </trkpt>
      <trkpt lat="41.0108530" lon="-3.2933720">
        <ele>940.0</ele>
        <time>2020-09-29T14:20:53Z</time>
      </trkpt>
      <trkpt lat="41.0108130" lon="-3.2932570">
        <ele>940.0</ele>
        <time>2020-09-29T14:20:54Z</time>
      </trkpt>
      <trkpt lat="41.0108130" lon="-3.2932570">
        <ele>940.0</ele>
        <time>2020-09-29T14:20:55Z</time>
      </trkpt>
      <trkpt lat="41.0107730" lon="-3.2931570">
        <ele>940.0</ele>
        <time>2020-09-29T14:20:56Z</time>
      </trkpt>
      <trkpt lat="41.0107550" lon="-3.2931030">
        <ele>940.0</ele>
        <time>2020-09-29T14:20:57Z</time>
      </trkpt>
      <trkpt lat="41.0107330" lon="-3.2930480">
        <ele>940.0</ele>
        <time>2020-09-29T14:20:58Z</time>
      </trkpt>
      <trkpt lat="41.0107330" lon="-3.2930480">
        <ele>940.0</ele>
        <time>2020-09-29T14:20:59Z</time>
      </trkpt>
      <trkpt lat="41.0106800" lon="-3.2929350">
        <ele>940.0</ele>
        <time>2020-09-29T14:21:00Z</time>
      </trkpt>
      <trkpt lat="41.0106520" lon="-3.2928820">
        <ele>940.0</ele>
        <time>2020-09-29T14:21:01Z</time>
      </trkpt>
      <trkpt lat="41.0106520" lon="-3.2928820">
        <ele>940.0</ele>
        <time>2020-09-29T14:21:02Z</time>
      </trkpt>
      <trkpt lat="41.0106020" lon="-3.2927630">
        <ele>940.0</ele>
        <time>2020-09-29T14:21:03Z</time>
      </trkpt>
      <trkpt lat="41.0106020" lon="-3.2927630">
        <ele>940.0</ele>
        <time>2020-09-29T14:21:04Z</time>
      </trkpt>
      <trkpt lat="41.0105430" lon="-3.2926330">
        <ele>940.0</ele>
        <time>2020-09-29T14:21:05Z</time>
      </trkpt>
      <trkpt lat="41.0105170" lon="-3.2925630">
        <ele>940.0</ele>
        <time>2020-09-29T14:21:06Z</time>
      </trkpt>
      <trkpt lat="41.0105170" lon="-3.2925630">
        <ele>940.0</ele>
        <time>2020-09-29T14:21:07Z</time>
      </trkpt>
      <trkpt lat="41.0104580" lon="-3.2924520">
        <ele>940.0</ele>
        <time>2020-09-29T14:21:08Z</time>
      </trkpt>
      <trkpt lat="41.0104580" lon="-3.2924520">
        <ele>940.0</ele>
        <time>2020-09-29T14:21:09Z</time>
      </trkpt>
      <trkpt lat="41.0103980" lon="-3.2923370">
        <ele>940.0</ele>
        <time>2020-09-29T14:21:10Z</time>
      </trkpt>
      <trkpt lat="41.0103980" lon="-3.2923370">
        <ele>940.0</ele>
        <time>2020-09-29T14:21:11Z</time>
      </trkpt>
      <trkpt lat="41.0103370" lon="-3.2922070">
        <ele>940.0</ele>
        <time>2020-09-29T14:21:12Z</time>
      </trkpt>
      <trkpt lat="41.0103070" lon="-3.2921470">
        <ele>939.0</ele>
        <time>2020-09-29T14:21:13Z</time>
      </trkpt>
      <trkpt lat="41.0103070" lon="-3.2921470">
        <ele>939.0</ele>
        <time>2020-09-29T14:21:14Z</time>
      </trkpt>
      <trkpt lat="41.0102450" lon="-3.2920230">
        <ele>939.0</ele>
        <time>2020-09-29T14:21:15Z</time>
      </trkpt>
      <trkpt lat="41.0102450" lon="-3.2920230">
        <ele>939.0</ele>
        <time>2020-09-29T14:21:16Z</time>
      </trkpt>
      <trkpt lat="41.0101830" lon="-3.2918970">
        <ele>939.0</ele>
        <time>2020-09-29T14:21:17Z</time>
      </trkpt>
      <trkpt lat="41.0101830" lon="-3.2918970">
        <ele>939.0</ele>
        <time>2020-09-29T14:21:18Z</time>
      </trkpt>
      <trkpt lat="41.0101200" lon="-3.2917650">
        <ele>939.0</ele>
        <time>2020-09-29T14:21:19Z</time>
      </trkpt>
      <trkpt lat="41.0101200" lon="-3.2917650">
        <ele>939.0</ele>
        <time>2020-09-29T14:21:20Z</time>
      </trkpt>
      <trkpt lat="41.0100680" lon="-3.2916280">
        <ele>939.0</ele>
        <time>2020-09-29T14:21:21Z</time>
      </trkpt>
      <trkpt lat="41.0100680" lon="-3.2916280">
        <ele>939.0</ele>
        <time>2020-09-29T14:21:22Z</time>
      </trkpt>
      <trkpt lat="41.0100170" lon="-3.2914970">
        <ele>938.0</ele>
        <time>2020-09-29T14:21:23Z</time>
      </trkpt>
      <trkpt lat="41.0099830" lon="-3.2914330">
        <ele>938.0</ele>
        <time>2020-09-29T14:21:24Z</time>
      </trkpt>
      <trkpt lat="41.0099830" lon="-3.2914330">
        <ele>938.0</ele>
        <time>2020-09-29T14:21:25Z</time>
      </trkpt>
      <trkpt lat="41.0098920" lon="-3.2913680">
        <ele>938.0</ele>
        <time>2020-09-29T14:21:26Z</time>
      </trkpt>
      <trkpt lat="41.0098920" lon="-3.2913680">
        <ele>938.0</ele>
        <time>2020-09-29T14:21:27Z</time>
      </trkpt>
      <trkpt lat="41.0097900" lon="-3.2913800">
        <ele>938.0</ele>
        <time>2020-09-29T14:21:28Z</time>
      </trkpt>
      <trkpt lat="41.0097400" lon="-3.2913970">
        <ele>937.0</ele>
        <time>2020-09-29T14:21:29Z</time>
      </trkpt>
      <trkpt lat="41.0097400" lon="-3.2913970">
        <ele>937.0</ele>
        <time>2020-09-29T14:21:30Z</time>
      </trkpt>
      <trkpt lat="41.0096350" lon="-3.2914530">
        <ele>937.0</ele>
        <time>2020-09-29T14:21:31Z</time>
      </trkpt>
      <trkpt lat="41.0096350" lon="-3.2914530">
        <ele>937.0</ele>
        <time>2020-09-29T14:21:32Z</time>
      </trkpt>
      <trkpt lat="41.0094950" lon="-3.2915120">
        <ele>937.0</ele>
        <time>2020-09-29T14:21:33Z</time>
      </trkpt>
      <trkpt lat="41.0094950" lon="-3.2915120">
        <ele>937.0</ele>
        <time>2020-09-29T14:21:34Z</time>
      </trkpt>
      <trkpt lat="41.0093900" lon="-3.2915570">
        <ele>936.0</ele>
        <time>2020-09-29T14:21:35Z</time>
      </trkpt>
      <trkpt lat="41.0093380" lon="-3.2915830">
        <ele>936.0</ele>
        <time>2020-09-29T14:21:36Z</time>
      </trkpt>
      <trkpt lat="41.0093380" lon="-3.2915830">
        <ele>936.0</ele>
        <time>2020-09-29T14:21:37Z</time>
      </trkpt>
      <trkpt lat="41.0092570" lon="-3.2916370">
        <ele>936.0</ele>
        <time>2020-09-29T14:21:38Z</time>
      </trkpt>
      <trkpt lat="41.0092100" lon="-3.2916470">
        <ele>935.0</ele>
        <time>2020-09-29T14:21:39Z</time>
      </trkpt>
      <trkpt lat="41.0091630" lon="-3.2916570">
        <ele>935.0</ele>
        <time>2020-09-29T14:21:40Z</time>
      </trkpt>
      <trkpt lat="41.0091630" lon="-3.2916570">
        <ele>935.0</ele>
        <time>2020-09-29T14:21:41Z</time>
      </trkpt>
      <trkpt lat="41.0090580" lon="-3.2916480">
        <ele>935.0</ele>
        <time>2020-09-29T14:21:42Z</time>
      </trkpt>
      <trkpt lat="41.0090070" lon="-3.2916330">
        <ele>934.0</ele>
        <time>2020-09-29T14:21:43Z</time>
      </trkpt>
      <trkpt lat="41.0090070" lon="-3.2916330">
        <ele>934.0</ele>
        <time>2020-09-29T14:21:44Z</time>
      </trkpt>
      <trkpt lat="41.0089000" lon="-3.2915950">
        <ele>934.0</ele>
        <time>2020-09-29T14:21:45Z</time>
      </trkpt>
      <trkpt lat="41.0089000" lon="-3.2915950">
        <ele>934.0</ele>
        <time>2020-09-29T14:21:46Z</time>
      </trkpt>
      <trkpt lat="41.0088000" lon="-3.2915330">
        <ele>934.0</ele>
        <time>2020-09-29T14:21:47Z</time>
      </trkpt>
      <trkpt lat="41.0088000" lon="-3.2915330">
        <ele>934.0</ele>
        <time>2020-09-29T14:21:48Z</time>
      </trkpt>
      <trkpt lat="41.0087020" lon="-3.2914680">
        <ele>934.0</ele>
        <time>2020-09-29T14:21:49Z</time>
      </trkpt>
      <trkpt lat="41.0087020" lon="-3.2914680">
        <ele>934.0</ele>
        <time>2020-09-29T14:21:50Z</time>
      </trkpt>
      <trkpt lat="41.0086000" lon="-3.2913930">
        <ele>934.0</ele>
        <time>2020-09-29T14:21:51Z</time>
      </trkpt>
      <trkpt lat="41.0086000" lon="-3.2913930">
        <ele>934.0</ele>
        <time>2020-09-29T14:21:52Z</time>
      </trkpt>
      <trkpt lat="41.0084930" lon="-3.2913200">
        <ele>934.0</ele>
        <time>2020-09-29T14:21:53Z</time>
      </trkpt>
      <trkpt lat="41.0084930" lon="-3.2913200">
        <ele>933.0</ele>
        <time>2020-09-29T14:21:54Z</time>
      </trkpt>
      <trkpt lat="41.0083970" lon="-3.2912350">
        <ele>933.0</ele>
        <time>2020-09-29T14:21:55Z</time>
      </trkpt>
      <trkpt lat="41.0083970" lon="-3.2912350">
        <ele>933.0</ele>
        <time>2020-09-29T14:21:56Z</time>
      </trkpt>
      <trkpt lat="41.0082980" lon="-3.2911530">
        <ele>933.0</ele>
        <time>2020-09-29T14:21:57Z</time>
      </trkpt>
      <trkpt lat="41.0082980" lon="-3.2911530">
        <ele>933.0</ele>
        <time>2020-09-29T14:21:58Z</time>
      </trkpt>
      <trkpt lat="41.0081750" lon="-3.2911350">
        <ele>933.0</ele>
        <time>2020-09-29T14:21:59Z</time>
      </trkpt>
      <trkpt lat="41.0081750" lon="-3.2911350">
        <ele>932.0</ele>
        <time>2020-09-29T14:22:00Z</time>
      </trkpt>
      <trkpt lat="41.0080430" lon="-3.2911930">
        <ele>932.0</ele>
        <time>2020-09-29T14:22:01Z</time>
      </trkpt>
      <trkpt lat="41.0079920" lon="-3.2912320">
        <ele>932.0</ele>
        <time>2020-09-29T14:22:02Z</time>
      </trkpt>
      <trkpt lat="41.0079920" lon="-3.2912320">
        <ele>932.0</ele>
        <time>2020-09-29T14:22:03Z</time>
      </trkpt>
      <trkpt lat="41.0078880" lon="-3.2913350">
        <ele>932.0</ele>
        <time>2020-09-29T14:22:04Z</time>
      </trkpt>
      <trkpt lat="41.0078400" lon="-3.2913880">
        <ele>932.0</ele>
        <time>2020-09-29T14:22:05Z</time>
      </trkpt>
      <trkpt lat="41.0078400" lon="-3.2913880">
        <ele>932.0</ele>
        <time>2020-09-29T14:22:06Z</time>
      </trkpt>
      <trkpt lat="41.0077580" lon="-3.2915130">
        <ele>932.0</ele>
        <time>2020-09-29T14:22:07Z</time>
      </trkpt>
      <trkpt lat="41.0077200" lon="-3.2915700">
        <ele>931.0</ele>
        <time>2020-09-29T14:22:08Z</time>
      </trkpt>
      <trkpt lat="41.0077200" lon="-3.2915700">
        <ele>931.0</ele>
        <time>2020-09-29T14:22:09Z</time>
      </trkpt>
      <trkpt lat="41.0076570" lon="-3.2916550">
        <ele>931.0</ele>
        <time>2020-09-29T14:22:10Z</time>
      </trkpt>
      <trkpt lat="41.0076570" lon="-3.2916550">
        <ele>931.0</ele>
        <time>2020-09-29T14:22:11Z</time>
      </trkpt>
      <trkpt lat="41.0076400" lon="-3.2917050">
        <ele>931.0</ele>
        <time>2020-09-29T14:22:12Z</time>
      </trkpt>
      <trkpt lat="41.0076400" lon="-3.2917050">
        <ele>931.0</ele>
        <time>2020-09-29T14:22:13Z</time>
      </trkpt>
      <trkpt lat="41.0076170" lon="-3.2917400">
        <ele>931.0</ele>
        <time>2020-09-29T14:22:14Z</time>
      </trkpt>
      <trkpt lat="41.0076080" lon="-3.2917430">
        <ele>931.0</ele>
        <time>2020-09-29T14:22:15Z</time>
      </trkpt>
      <trkpt lat="41.0076080" lon="-3.2917430">
        <ele>931.0</ele>
        <time>2020-09-29T14:22:16Z</time>
      </trkpt>
      <trkpt lat="41.0076050" lon="-3.2917430">
        <ele>931.0</ele>
        <time>2020-09-29T14:22:17Z</time>
      </trkpt>
      <trkpt lat="41.0076050" lon="-3.2917430">
        <ele>930.0</ele>
        <time>2020-09-29T14:22:18Z</time>
      </trkpt>
      <trkpt lat="41.0076050" lon="-3.2917430">
        <ele>930.0</ele>
        <time>2020-09-29T14:22:52Z</time>
      </trkpt>
      <trkpt lat="41.0075280" lon="-3.2918200">
        <ele>930.0</ele>
        <time>2020-09-29T14:22:53Z</time>
      </trkpt>
      <trkpt lat="41.0075280" lon="-3.2918200">
        <ele>930.0</ele>
        <time>2020-09-29T14:22:54Z</time>
      </trkpt>
      <trkpt lat="41.0074930" lon="-3.2918480">
        <ele>930.0</ele>
        <time>2020-09-29T14:22:55Z</time>
      </trkpt>
      <trkpt lat="41.0074930" lon="-3.2918480">
        <ele>930.0</ele>
        <time>2020-09-29T14:22:56Z</time>
      </trkpt>
      <trkpt lat="41.0074570" lon="-3.2918970">
        <ele>930.0</ele>
        <time>2020-09-29T14:22:57Z</time>
      </trkpt>
      <trkpt lat="41.0074570" lon="-3.2918970">
        <ele>930.0</ele>
        <time>2020-09-29T14:22:58Z</time>
      </trkpt>
      <trkpt lat="41.0074130" lon="-3.2919580">
        <ele>930.0</ele>
        <time>2020-09-29T14:22:59Z</time>
      </trkpt>
      <trkpt lat="41.0074130" lon="-3.2919580">
        <ele>930.0</ele>
        <time>2020-09-29T14:23:00Z</time>
      </trkpt>
      <trkpt lat="41.0073600" lon="-3.2920150">
        <ele>930.0</ele>
        <time>2020-09-29T14:23:01Z</time>
      </trkpt>
      <trkpt lat="41.0073600" lon="-3.2920150">
        <ele>930.0</ele>
        <time>2020-09-29T14:23:02Z</time>
      </trkpt>
      <trkpt lat="41.0073020" lon="-3.2920620">
        <ele>930.0</ele>
        <time>2020-09-29T14:23:03Z</time>
      </trkpt>
      <trkpt lat="41.0073020" lon="-3.2920620">
        <ele>930.0</ele>
        <time>2020-09-29T14:23:04Z</time>
      </trkpt>
      <trkpt lat="41.0072400" lon="-3.2921020">
        <ele>930.0</ele>
        <time>2020-09-29T14:23:05Z</time>
      </trkpt>
      <trkpt lat="41.0072400" lon="-3.2921020">
        <ele>930.0</ele>
        <time>2020-09-29T14:23:06Z</time>
      </trkpt>
      <trkpt lat="41.0071700" lon="-3.2921150">
        <ele>930.0</ele>
        <time>2020-09-29T14:23:07Z</time>
      </trkpt>
      <trkpt lat="41.0071700" lon="-3.2921150">
        <ele>930.0</ele>
        <time>2020-09-29T14:23:08Z</time>
      </trkpt>
      <trkpt lat="41.0070920" lon="-3.2921320">
        <ele>930.0</ele>
        <time>2020-09-29T14:23:09Z</time>
      </trkpt>
      <trkpt lat="41.0070920" lon="-3.2921320">
        <ele>929.0</ele>
        <time>2020-09-29T14:23:10Z</time>
      </trkpt>
      <trkpt lat="41.0070220" lon="-3.2921420">
        <ele>929.0</ele>
        <time>2020-09-29T14:23:11Z</time>
      </trkpt>
      <trkpt lat="41.0069850" lon="-3.2921470">
        <ele>929.0</ele>
        <time>2020-09-29T14:23:12Z</time>
      </trkpt>
      <trkpt lat="41.0069850" lon="-3.2921470">
        <ele>929.0</ele>
        <time>2020-09-29T14:23:13Z</time>
      </trkpt>
      <trkpt lat="41.0068900" lon="-3.2921620">
        <ele>929.0</ele>
        <time>2020-09-29T14:23:14Z</time>
      </trkpt>
      <trkpt lat="41.0068900" lon="-3.2921620">
        <ele>929.0</ele>
        <time>2020-09-29T14:23:15Z</time>
      </trkpt>
      <trkpt lat="41.0067980" lon="-3.2921920">
        <ele>929.0</ele>
        <time>2020-09-29T14:23:16Z</time>
      </trkpt>
      <trkpt lat="41.0067980" lon="-3.2921920">
        <ele>929.0</ele>
        <time>2020-09-29T14:23:17Z</time>
      </trkpt>
      <trkpt lat="41.0067270" lon="-3.2922480">
        <ele>929.0</ele>
        <time>2020-09-29T14:23:18Z</time>
      </trkpt>
      <trkpt lat="41.0067270" lon="-3.2922480">
        <ele>929.0</ele>
        <time>2020-09-29T14:23:19Z</time>
      </trkpt>
      <trkpt lat="41.0066620" lon="-3.2923120">
        <ele>929.0</ele>
        <time>2020-09-29T14:23:20Z</time>
      </trkpt>
      <trkpt lat="41.0066620" lon="-3.2923120">
        <ele>929.0</ele>
        <time>2020-09-29T14:23:21Z</time>
      </trkpt>
      <trkpt lat="41.0066080" lon="-3.2923870">
        <ele>929.0</ele>
        <time>2020-09-29T14:23:22Z</time>
      </trkpt>
      <trkpt lat="41.0066080" lon="-3.2923870">
        <ele>929.0</ele>
        <time>2020-09-29T14:23:23Z</time>
      </trkpt>
      <trkpt lat="41.0065420" lon="-3.2924420">
        <ele>929.0</ele>
        <time>2020-09-29T14:23:24Z</time>
      </trkpt>
      <trkpt lat="41.0065130" lon="-3.2924700">
        <ele>929.0</ele>
        <time>2020-09-29T14:23:25Z</time>
      </trkpt>
      <trkpt lat="41.0065130" lon="-3.2924700">
        <ele>929.0</ele>
        <time>2020-09-29T14:23:26Z</time>
      </trkpt>
      <trkpt lat="41.0064650" lon="-3.2925370">
        <ele>929.0</ele>
        <time>2020-09-29T14:23:27Z</time>
      </trkpt>
      <trkpt lat="41.0064320" lon="-3.2925650">
        <ele>929.0</ele>
        <time>2020-09-29T14:23:28Z</time>
      </trkpt>
      <trkpt lat="41.0064320" lon="-3.2925650">
        <ele>929.0</ele>
        <time>2020-09-29T14:23:29Z</time>
      </trkpt>
      <trkpt lat="41.0063620" lon="-3.2926100">
        <ele>929.0</ele>
        <time>2020-09-29T14:23:30Z</time>
      </trkpt>
      <trkpt lat="41.0063620" lon="-3.2926100">
        <ele>929.0</ele>
        <time>2020-09-29T14:23:31Z</time>
      </trkpt>
      <trkpt lat="41.0062850" lon="-3.2926680">
        <ele>929.0</ele>
        <time>2020-09-29T14:23:32Z</time>
      </trkpt>
      <trkpt lat="41.0062850" lon="-3.2926680">
        <ele>929.0</ele>
        <time>2020-09-29T14:23:33Z</time>
      </trkpt>
      <trkpt lat="41.0062050" lon="-3.2927130">
        <ele>929.0</ele>
        <time>2020-09-29T14:23:34Z</time>
      </trkpt>
      <trkpt lat="41.0062050" lon="-3.2927130">
        <ele>929.0</ele>
        <time>2020-09-29T14:23:35Z</time>
      </trkpt>
      <trkpt lat="41.0061270" lon="-3.2927720">
        <ele>929.0</ele>
        <time>2020-09-29T14:23:36Z</time>
      </trkpt>
      <trkpt lat="41.0060920" lon="-3.2927980">
        <ele>929.0</ele>
        <time>2020-09-29T14:23:37Z</time>
      </trkpt>
      <trkpt lat="41.0060920" lon="-3.2927980">
        <ele>929.0</ele>
        <time>2020-09-29T14:23:38Z</time>
      </trkpt>
      <trkpt lat="41.0060100" lon="-3.2928420">
        <ele>929.0</ele>
        <time>2020-09-29T14:23:39Z</time>
      </trkpt>
      <trkpt lat="41.0060100" lon="-3.2928420">
        <ele>929.0</ele>
        <time>2020-09-29T14:23:40Z</time>
      </trkpt>
      <trkpt lat="41.0059280" lon="-3.2928950">
        <ele>929.0</ele>
        <time>2020-09-29T14:23:41Z</time>
      </trkpt>
      <trkpt lat="41.0059280" lon="-3.2928950">
        <ele>929.0</ele>
        <time>2020-09-29T14:23:42Z</time>
      </trkpt>
      <trkpt lat="41.0058470" lon="-3.2929420">
        <ele>929.0</ele>
        <time>2020-09-29T14:23:43Z</time>
      </trkpt>
      <trkpt lat="41.0058470" lon="-3.2929420">
        <ele>929.0</ele>
        <time>2020-09-29T14:23:44Z</time>
      </trkpt>
      <trkpt lat="41.0057730" lon="-3.2929970">
        <ele>929.0</ele>
        <time>2020-09-29T14:23:45Z</time>
      </trkpt>
      <trkpt lat="41.0057280" lon="-3.2930150">
        <ele>930.0</ele>
        <time>2020-09-29T14:23:46Z</time>
      </trkpt>
      <trkpt lat="41.0057280" lon="-3.2930150">
        <ele>930.0</ele>
        <time>2020-09-29T14:23:47Z</time>
      </trkpt>
      <trkpt lat="41.0056400" lon="-3.2930570">
        <ele>930.0</ele>
        <time>2020-09-29T14:23:48Z</time>
      </trkpt>
      <trkpt lat="41.0056400" lon="-3.2930570">
        <ele>930.0</ele>
        <time>2020-09-29T14:23:49Z</time>
      </trkpt>
      <trkpt lat="41.0055530" lon="-3.2931100">
        <ele>930.0</ele>
        <time>2020-09-29T14:23:50Z</time>
      </trkpt>
      <trkpt lat="41.0055530" lon="-3.2931100">
        <ele>930.0</ele>
        <time>2020-09-29T14:23:51Z</time>
      </trkpt>
      <trkpt lat="41.0054680" lon="-3.2931580">
        <ele>930.0</ele>
        <time>2020-09-29T14:23:52Z</time>
      </trkpt>
      <trkpt lat="41.0054220" lon="-3.2931770">
        <ele>930.0</ele>
        <time>2020-09-29T14:23:53Z</time>
      </trkpt>
      <trkpt lat="41.0054220" lon="-3.2931770">
        <ele>930.0</ele>
        <time>2020-09-29T14:23:54Z</time>
      </trkpt>
      <trkpt lat="41.0053130" lon="-3.2931950">
        <ele>930.0</ele>
        <time>2020-09-29T14:23:55Z</time>
      </trkpt>
      <trkpt lat="41.0053130" lon="-3.2931950">
        <ele>930.0</ele>
        <time>2020-09-29T14:23:56Z</time>
      </trkpt>
      <trkpt lat="41.0052080" lon="-3.2931980">
        <ele>930.0</ele>
        <time>2020-09-29T14:23:57Z</time>
      </trkpt>
      <trkpt lat="41.0052080" lon="-3.2931980">
        <ele>930.0</ele>
        <time>2020-09-29T14:23:58Z</time>
      </trkpt>
      <trkpt lat="41.0051120" lon="-3.2931680">
        <ele>930.0</ele>
        <time>2020-09-29T14:23:59Z</time>
      </trkpt>
      <trkpt lat="41.0051120" lon="-3.2931680">
        <ele>930.0</ele>
        <time>2020-09-29T14:24:00Z</time>
      </trkpt>
      <trkpt lat="41.0050180" lon="-3.2931220">
        <ele>930.0</ele>
        <time>2020-09-29T14:24:01Z</time>
      </trkpt>
      <trkpt lat="41.0050180" lon="-3.2931220">
        <ele>930.0</ele>
        <time>2020-09-29T14:24:02Z</time>
      </trkpt>
      <trkpt lat="41.0049280" lon="-3.2930850">
        <ele>930.0</ele>
        <time>2020-09-29T14:24:03Z</time>
      </trkpt>
      <trkpt lat="41.0049280" lon="-3.2930850">
        <ele>929.0</ele>
        <time>2020-09-29T14:24:04Z</time>
      </trkpt>
      <trkpt lat="41.0048370" lon="-3.2931220">
        <ele>929.0</ele>
        <time>2020-09-29T14:24:05Z</time>
      </trkpt>
      <trkpt lat="41.0047970" lon="-3.2931620">
        <ele>929.0</ele>
        <time>2020-09-29T14:24:06Z</time>
      </trkpt>
      <trkpt lat="41.0047970" lon="-3.2931620">
        <ele>929.0</ele>
        <time>2020-09-29T14:24:07Z</time>
      </trkpt>
      <trkpt lat="41.0047270" lon="-3.2932470">
        <ele>929.0</ele>
        <time>2020-09-29T14:24:08Z</time>
      </trkpt>
      <trkpt lat="41.0047270" lon="-3.2932470">
        <ele>929.0</ele>
        <time>2020-09-29T14:24:09Z</time>
      </trkpt>
      <trkpt lat="41.0046570" lon="-3.2933350">
        <ele>929.0</ele>
        <time>2020-09-29T14:24:10Z</time>
      </trkpt>
      <trkpt lat="41.0046170" lon="-3.2933850">
        <ele>929.0</ele>
        <time>2020-09-29T14:24:11Z</time>
      </trkpt>
      <trkpt lat="41.0046170" lon="-3.2933850">
        <ele>929.0</ele>
        <time>2020-09-29T14:24:12Z</time>
      </trkpt>
      <trkpt lat="41.0045200" lon="-3.2934580">
        <ele>929.0</ele>
        <time>2020-09-29T14:24:13Z</time>
      </trkpt>
      <trkpt lat="41.0045200" lon="-3.2934580">
        <ele>929.0</ele>
        <time>2020-09-29T14:24:14Z</time>
      </trkpt>
      <trkpt lat="41.0044300" lon="-3.2935130">
        <ele>929.0</ele>
        <time>2020-09-29T14:24:15Z</time>
      </trkpt>
      <trkpt lat="41.0043900" lon="-3.2935370">
        <ele>929.0</ele>
        <time>2020-09-29T14:24:16Z</time>
      </trkpt>
      <trkpt lat="41.0043900" lon="-3.2935370">
        <ele>929.0</ele>
        <time>2020-09-29T14:24:17Z</time>
      </trkpt>
      <trkpt lat="41.0043120" lon="-3.2936100">
        <ele>929.0</ele>
        <time>2020-09-29T14:24:18Z</time>
      </trkpt>
      <trkpt lat="41.0043120" lon="-3.2936100">
        <ele>929.0</ele>
        <time>2020-09-29T14:24:19Z</time>
      </trkpt>
      <trkpt lat="41.0042380" lon="-3.2937120">
        <ele>929.0</ele>
        <time>2020-09-29T14:24:20Z</time>
      </trkpt>
      <trkpt lat="41.0042280" lon="-3.2937880">
        <ele>929.0</ele>
        <time>2020-09-29T14:24:21Z</time>
      </trkpt>
      <trkpt lat="41.0042280" lon="-3.2937880">
        <ele>929.0</ele>
        <time>2020-09-29T14:24:22Z</time>
      </trkpt>
      <trkpt lat="41.0042400" lon="-3.2939270">
        <ele>929.0</ele>
        <time>2020-09-29T14:24:23Z</time>
      </trkpt>
      <trkpt lat="41.0042400" lon="-3.2939270">
        <ele>929.0</ele>
        <time>2020-09-29T14:24:24Z</time>
      </trkpt>
      <trkpt lat="41.0042750" lon="-3.2940720">
        <ele>929.0</ele>
        <time>2020-09-29T14:24:25Z</time>
      </trkpt>
      <trkpt lat="41.0042750" lon="-3.2940720">
        <ele>929.0</ele>
        <time>2020-09-29T14:24:26Z</time>
      </trkpt>
      <trkpt lat="41.0043120" lon="-3.2942150">
        <ele>929.0</ele>
        <time>2020-09-29T14:24:27Z</time>
      </trkpt>
      <trkpt lat="41.0043120" lon="-3.2942150">
        <ele>929.0</ele>
        <time>2020-09-29T14:24:28Z</time>
      </trkpt>
      <trkpt lat="41.0043530" lon="-3.2943520">
        <ele>929.0</ele>
        <time>2020-09-29T14:24:29Z</time>
      </trkpt>
      <trkpt lat="41.0043530" lon="-3.2943520">
        <ele>929.0</ele>
        <time>2020-09-29T14:24:30Z</time>
      </trkpt>
      <trkpt lat="41.0043780" lon="-3.2944820">
        <ele>929.0</ele>
        <time>2020-09-29T14:24:31Z</time>
      </trkpt>
      <trkpt lat="41.0043780" lon="-3.2944820">
        <ele>929.0</ele>
        <time>2020-09-29T14:24:32Z</time>
      </trkpt>
      <trkpt lat="41.0043900" lon="-3.2946280">
        <ele>929.0</ele>
        <time>2020-09-29T14:24:33Z</time>
      </trkpt>
      <trkpt lat="41.0043900" lon="-3.2946280">
        <ele>929.0</ele>
        <time>2020-09-29T14:24:34Z</time>
      </trkpt>
      <trkpt lat="41.0043900" lon="-3.2947880">
        <ele>929.0</ele>
        <time>2020-09-29T14:24:35Z</time>
      </trkpt>
      <trkpt lat="41.0043720" lon="-3.2948620">
        <ele>929.0</ele>
        <time>2020-09-29T14:24:36Z</time>
      </trkpt>
      <trkpt lat="41.0043720" lon="-3.2948620">
        <ele>929.0</ele>
        <time>2020-09-29T14:24:37Z</time>
      </trkpt>
      <trkpt lat="41.0043200" lon="-3.2950100">
        <ele>929.0</ele>
        <time>2020-09-29T14:24:38Z</time>
      </trkpt>
      <trkpt lat="41.0042880" lon="-3.2950800">
        <ele>929.0</ele>
        <time>2020-09-29T14:24:39Z</time>
      </trkpt>
      <trkpt lat="41.0042880" lon="-3.2950800">
        <ele>929.0</ele>
        <time>2020-09-29T14:24:40Z</time>
      </trkpt>
      <trkpt lat="41.0042030" lon="-3.2951980">
        <ele>929.0</ele>
        <time>2020-09-29T14:24:41Z</time>
      </trkpt>
      <trkpt lat="41.0042030" lon="-3.2951980">
        <ele>929.0</ele>
        <time>2020-09-29T14:24:42Z</time>
      </trkpt>
      <trkpt lat="41.0041170" lon="-3.2952870">
        <ele>929.0</ele>
        <time>2020-09-29T14:24:43Z</time>
      </trkpt>
      <trkpt lat="41.0041170" lon="-3.2952870">
        <ele>929.0</ele>
        <time>2020-09-29T14:24:44Z</time>
      </trkpt>
      <trkpt lat="41.0040130" lon="-3.2953430">
        <ele>929.0</ele>
        <time>2020-09-29T14:24:45Z</time>
      </trkpt>
      <trkpt lat="41.0040130" lon="-3.2953430">
        <ele>929.0</ele>
        <time>2020-09-29T14:24:46Z</time>
      </trkpt>
      <trkpt lat="41.0038980" lon="-3.2953800">
        <ele>929.0</ele>
        <time>2020-09-29T14:24:47Z</time>
      </trkpt>
      <trkpt lat="41.0038380" lon="-3.2953900">
        <ele>929.0</ele>
        <time>2020-09-29T14:24:48Z</time>
      </trkpt>
      <trkpt lat="41.0038380" lon="-3.2953900">
        <ele>929.0</ele>
        <time>2020-09-29T14:24:49Z</time>
      </trkpt>
      <trkpt lat="41.0037180" lon="-3.2954050">
        <ele>929.0</ele>
        <time>2020-09-29T14:24:50Z</time>
      </trkpt>
      <trkpt lat="41.0036600" lon="-3.2954120">
        <ele>929.0</ele>
        <time>2020-09-29T14:24:51Z</time>
      </trkpt>
      <trkpt lat="41.0036600" lon="-3.2954120">
        <ele>929.0</ele>
        <time>2020-09-29T14:24:52Z</time>
      </trkpt>
      <trkpt lat="41.0035380" lon="-3.2954130">
        <ele>929.0</ele>
        <time>2020-09-29T14:24:53Z</time>
      </trkpt>
      <trkpt lat="41.0034780" lon="-3.2954120">
        <ele>929.0</ele>
        <time>2020-09-29T14:24:54Z</time>
      </trkpt>
      <trkpt lat="41.0034780" lon="-3.2954120">
        <ele>929.0</ele>
        <time>2020-09-29T14:24:55Z</time>
      </trkpt>
      <trkpt lat="41.0033670" lon="-3.2954020">
        <ele>929.0</ele>
        <time>2020-09-29T14:24:56Z</time>
      </trkpt>
      <trkpt lat="41.0033670" lon="-3.2954020">
        <ele>929.0</ele>
        <time>2020-09-29T14:24:57Z</time>
      </trkpt>
      <trkpt lat="41.0032580" lon="-3.2953930">
        <ele>929.0</ele>
        <time>2020-09-29T14:24:58Z</time>
      </trkpt>
      <trkpt lat="41.0032030" lon="-3.2953830">
        <ele>929.0</ele>
        <time>2020-09-29T14:24:59Z</time>
      </trkpt>
      <trkpt lat="41.0032030" lon="-3.2953830">
        <ele>929.0</ele>
        <time>2020-09-29T14:25:00Z</time>
      </trkpt>
      <trkpt lat="41.0030920" lon="-3.2953630">
        <ele>928.0</ele>
        <time>2020-09-29T14:25:01Z</time>
      </trkpt>
      <trkpt lat="41.0030920" lon="-3.2953630">
        <ele>928.0</ele>
        <time>2020-09-29T14:25:02Z</time>
      </trkpt>
      <trkpt lat="41.0029820" lon="-3.2953450">
        <ele>928.0</ele>
        <time>2020-09-29T14:25:03Z</time>
      </trkpt>
      <trkpt lat="41.0029820" lon="-3.2953450">
        <ele>928.0</ele>
        <time>2020-09-29T14:25:04Z</time>
      </trkpt>
      <trkpt lat="41.0028680" lon="-3.2953230">
        <ele>928.0</ele>
        <time>2020-09-29T14:25:05Z</time>
      </trkpt>
      <trkpt lat="41.0028680" lon="-3.2953230">
        <ele>928.0</ele>
        <time>2020-09-29T14:25:06Z</time>
      </trkpt>
      <trkpt lat="41.0027580" lon="-3.2952930">
        <ele>928.0</ele>
        <time>2020-09-29T14:25:07Z</time>
      </trkpt>
      <trkpt lat="41.0027580" lon="-3.2952930">
        <ele>928.0</ele>
        <time>2020-09-29T14:25:08Z</time>
      </trkpt>
      <trkpt lat="41.0026630" lon="-3.2952870">
        <ele>927.0</ele>
        <time>2020-09-29T14:25:09Z</time>
      </trkpt>
      <trkpt lat="41.0026630" lon="-3.2952870">
        <ele>927.0</ele>
        <time>2020-09-29T14:25:10Z</time>
      </trkpt>
      <trkpt lat="41.0026000" lon="-3.2952730">
        <ele>927.0</ele>
        <time>2020-09-29T14:25:11Z</time>
      </trkpt>
      <trkpt lat="41.0026000" lon="-3.2952730">
        <ele>927.0</ele>
        <time>2020-09-29T14:25:12Z</time>
      </trkpt>
      <trkpt lat="41.0025550" lon="-3.2952700">
        <ele>927.0</ele>
        <time>2020-09-29T14:25:13Z</time>
      </trkpt>
      <trkpt lat="41.0025550" lon="-3.2952700">
        <ele>927.0</ele>
        <time>2020-09-29T14:25:14Z</time>
      </trkpt>
      <trkpt lat="41.0025050" lon="-3.2952780">
        <ele>927.0</ele>
        <time>2020-09-29T14:25:15Z</time>
      </trkpt>
      <trkpt lat="41.0024830" lon="-3.2952830">
        <ele>927.0</ele>
        <time>2020-09-29T14:25:16Z</time>
      </trkpt>
      <trkpt lat="41.0024570" lon="-3.2953230">
        <ele>927.0</ele>
        <time>2020-09-29T14:25:17Z</time>
      </trkpt>
      <trkpt lat="41.0024570" lon="-3.2953230">
        <ele>927.0</ele>
        <time>2020-09-29T14:25:18Z</time>
      </trkpt>
      <trkpt lat="41.0024520" lon="-3.2953550">
        <ele>927.0</ele>
        <time>2020-09-29T14:25:19Z</time>
      </trkpt>
      <trkpt lat="41.0024520" lon="-3.2953550">
        <ele>927.0</ele>
        <time>2020-09-29T14:25:20Z</time>
      </trkpt>
      <trkpt lat="41.0024520" lon="-3.2954380">
        <ele>927.0</ele>
        <time>2020-09-29T14:25:21Z</time>
      </trkpt>
      <trkpt lat="41.0024520" lon="-3.2954380">
        <ele>927.0</ele>
        <time>2020-09-29T14:25:22Z</time>
      </trkpt>
      <trkpt lat="41.0024520" lon="-3.2955400">
        <ele>927.0</ele>
        <time>2020-09-29T14:25:23Z</time>
      </trkpt>
      <trkpt lat="41.0024520" lon="-3.2955400">
        <ele>927.0</ele>
        <time>2020-09-29T14:25:24Z</time>
      </trkpt>
      <trkpt lat="41.0024450" lon="-3.2956580">
        <ele>927.0</ele>
        <time>2020-09-29T14:25:25Z</time>
      </trkpt>
      <trkpt lat="41.0024450" lon="-3.2956580">
        <ele>927.0</ele>
        <time>2020-09-29T14:25:26Z</time>
      </trkpt>
      <trkpt lat="41.0024320" lon="-3.2957780">
        <ele>927.0</ele>
        <time>2020-09-29T14:25:27Z</time>
      </trkpt>
      <trkpt lat="41.0024250" lon="-3.2958400">
        <ele>927.0</ele>
        <time>2020-09-29T14:25:28Z</time>
      </trkpt>
      <trkpt lat="41.0024250" lon="-3.2958400">
        <ele>927.0</ele>
        <time>2020-09-29T14:25:29Z</time>
      </trkpt>
      <trkpt lat="41.0024100" lon="-3.2959630">
        <ele>927.0</ele>
        <time>2020-09-29T14:25:30Z</time>
      </trkpt>
      <trkpt lat="41.0024050" lon="-3.2960270">
        <ele>927.0</ele>
        <time>2020-09-29T14:25:31Z</time>
      </trkpt>
      <trkpt lat="41.0024050" lon="-3.2960270">
        <ele>927.0</ele>
        <time>2020-09-29T14:25:32Z</time>
      </trkpt>
      <trkpt lat="41.0023920" lon="-3.2961500">
        <ele>927.0</ele>
        <time>2020-09-29T14:25:33Z</time>
      </trkpt>
      <trkpt lat="41.0023920" lon="-3.2961500">
        <ele>927.0</ele>
        <time>2020-09-29T14:25:34Z</time>
      </trkpt>
      <trkpt lat="41.0023820" lon="-3.2962680">
        <ele>927.0</ele>
        <time>2020-09-29T14:25:35Z</time>
      </trkpt>
      <trkpt lat="41.0023820" lon="-3.2962680">
        <ele>927.0</ele>
        <time>2020-09-29T14:25:36Z</time>
      </trkpt>
      <trkpt lat="41.0023750" lon="-3.2963950">
        <ele>927.0</ele>
        <time>2020-09-29T14:25:37Z</time>
      </trkpt>
      <trkpt lat="41.0023750" lon="-3.2963950">
        <ele>927.0</ele>
        <time>2020-09-29T14:25:38Z</time>
      </trkpt>
      <trkpt lat="41.0023630" lon="-3.2965170">
        <ele>927.0</ele>
        <time>2020-09-29T14:25:39Z</time>
      </trkpt>
      <trkpt lat="41.0023620" lon="-3.2965820">
        <ele>927.0</ele>
        <time>2020-09-29T14:25:40Z</time>
      </trkpt>
      <trkpt lat="41.0023620" lon="-3.2965820">
        <ele>927.0</ele>
        <time>2020-09-29T14:25:41Z</time>
      </trkpt>
      <trkpt lat="41.0023520" lon="-3.2967270">
        <ele>927.0</ele>
        <time>2020-09-29T14:25:42Z</time>
      </trkpt>
      <trkpt lat="41.0023480" lon="-3.2968020">
        <ele>927.0</ele>
        <time>2020-09-29T14:25:43Z</time>
      </trkpt>
      <trkpt lat="41.0023480" lon="-3.2968020">
        <ele>927.0</ele>
        <time>2020-09-29T14:25:44Z</time>
      </trkpt>
      <trkpt lat="41.0023380" lon="-3.2969550">
        <ele>927.0</ele>
        <time>2020-09-29T14:25:45Z</time>
      </trkpt>
      <trkpt lat="41.0023380" lon="-3.2969550">
        <ele>926.0</ele>
        <time>2020-09-29T14:25:46Z</time>
      </trkpt>
      <trkpt lat="41.0023280" lon="-3.2970950">
        <ele>926.0</ele>
        <time>2020-09-29T14:25:47Z</time>
      </trkpt>
      <trkpt lat="41.0023280" lon="-3.2970950">
        <ele>926.0</ele>
        <time>2020-09-29T14:25:48Z</time>
      </trkpt>
      <trkpt lat="41.0023170" lon="-3.2972080">
        <ele>926.0</ele>
        <time>2020-09-29T14:25:49Z</time>
      </trkpt>
      <trkpt lat="41.0023170" lon="-3.2972080">
        <ele>926.0</ele>
        <time>2020-09-29T14:25:50Z</time>
      </trkpt>
      <trkpt lat="41.0023120" lon="-3.2973130">
        <ele>926.0</ele>
        <time>2020-09-29T14:25:51Z</time>
      </trkpt>
      <trkpt lat="41.0023120" lon="-3.2973130">
        <ele>926.0</ele>
        <time>2020-09-29T14:25:52Z</time>
      </trkpt>
      <trkpt lat="41.0023050" lon="-3.2974280">
        <ele>926.0</ele>
        <time>2020-09-29T14:25:53Z</time>
      </trkpt>
      <trkpt lat="41.0023050" lon="-3.2974880">
        <ele>926.0</ele>
        <time>2020-09-29T14:25:54Z</time>
      </trkpt>
      <trkpt lat="41.0023050" lon="-3.2974880">
        <ele>926.0</ele>
        <time>2020-09-29T14:25:55Z</time>
      </trkpt>
      <trkpt lat="41.0023150" lon="-3.2976080">
        <ele>926.0</ele>
        <time>2020-09-29T14:25:56Z</time>
      </trkpt>
      <trkpt lat="41.0023330" lon="-3.2976670">
        <ele>926.0</ele>
        <time>2020-09-29T14:25:57Z</time>
      </trkpt>
      <trkpt lat="41.0023330" lon="-3.2976670">
        <ele>926.0</ele>
        <time>2020-09-29T14:25:58Z</time>
      </trkpt>
      <trkpt lat="41.0023950" lon="-3.2977680">
        <ele>926.0</ele>
        <time>2020-09-29T14:25:59Z</time>
      </trkpt>
      <trkpt lat="41.0023950" lon="-3.2977680">
        <ele>926.0</ele>
        <time>2020-09-29T14:26:00Z</time>
      </trkpt>
      <trkpt lat="41.0024870" lon="-3.2978150">
        <ele>926.0</ele>
        <time>2020-09-29T14:26:01Z</time>
      </trkpt>
      <trkpt lat="41.0024870" lon="-3.2978150">
        <ele>926.0</ele>
        <time>2020-09-29T14:26:02Z</time>
      </trkpt>
      <trkpt lat="41.0025900" lon="-3.2978180">
        <ele>927.0</ele>
        <time>2020-09-29T14:26:03Z</time>
      </trkpt>
      <trkpt lat="41.0025900" lon="-3.2978180">
        <ele>927.0</ele>
        <time>2020-09-29T14:26:04Z</time>
      </trkpt>
      <trkpt lat="41.0026850" lon="-3.2978030">
        <ele>927.0</ele>
        <time>2020-09-29T14:26:05Z</time>
      </trkpt>
      <trkpt lat="41.0026850" lon="-3.2978030">
        <ele>927.0</ele>
        <time>2020-09-29T14:26:06Z</time>
      </trkpt>
      <trkpt lat="41.0027820" lon="-3.2977920">
        <ele>927.0</ele>
        <time>2020-09-29T14:26:07Z</time>
      </trkpt>
      <trkpt lat="41.0027820" lon="-3.2977920">
        <ele>927.0</ele>
        <time>2020-09-29T14:26:08Z</time>
      </trkpt>
      <trkpt lat="41.0028850" lon="-3.2978100">
        <ele>927.0</ele>
        <time>2020-09-29T14:26:09Z</time>
      </trkpt>
      <trkpt lat="41.0028850" lon="-3.2978100">
        <ele>927.0</ele>
        <time>2020-09-29T14:26:10Z</time>
      </trkpt>
      <trkpt lat="41.0029800" lon="-3.2978830">
        <ele>927.0</ele>
        <time>2020-09-29T14:26:11Z</time>
      </trkpt>
      <trkpt lat="41.0029800" lon="-3.2978830">
        <ele>927.0</ele>
        <time>2020-09-29T14:26:12Z</time>
      </trkpt>
      <trkpt lat="41.0030470" lon="-3.2979930">
        <ele>927.0</ele>
        <time>2020-09-29T14:26:13Z</time>
      </trkpt>
      <trkpt lat="41.0030470" lon="-3.2979930">
        <ele>927.0</ele>
        <time>2020-09-29T14:26:14Z</time>
      </trkpt>
      <trkpt lat="41.0030980" lon="-3.2981180">
        <ele>927.0</ele>
        <time>2020-09-29T14:26:15Z</time>
      </trkpt>
      <trkpt lat="41.0030980" lon="-3.2981180">
        <ele>927.0</ele>
        <time>2020-09-29T14:26:16Z</time>
      </trkpt>
      <trkpt lat="41.0031320" lon="-3.2982570">
        <ele>927.0</ele>
        <time>2020-09-29T14:26:17Z</time>
      </trkpt>
      <trkpt lat="41.0031320" lon="-3.2982570">
        <ele>927.0</ele>
        <time>2020-09-29T14:26:18Z</time>
      </trkpt>
      <trkpt lat="41.0031470" lon="-3.2983980">
        <ele>927.0</ele>
        <time>2020-09-29T14:26:19Z</time>
      </trkpt>
      <trkpt lat="41.0031470" lon="-3.2983980">
        <ele>927.0</ele>
        <time>2020-09-29T14:26:20Z</time>
      </trkpt>
      <trkpt lat="41.0031530" lon="-3.2985470">
        <ele>927.0</ele>
        <time>2020-09-29T14:26:21Z</time>
      </trkpt>
      <trkpt lat="41.0031530" lon="-3.2985470">
        <ele>927.0</ele>
        <time>2020-09-29T14:26:22Z</time>
      </trkpt>
      <trkpt lat="41.0031550" lon="-3.2986970">
        <ele>927.0</ele>
        <time>2020-09-29T14:26:23Z</time>
      </trkpt>
      <trkpt lat="41.0031550" lon="-3.2986970">
        <ele>927.0</ele>
        <time>2020-09-29T14:26:24Z</time>
      </trkpt>
      <trkpt lat="41.0031480" lon="-3.2988520">
        <ele>927.0</ele>
        <time>2020-09-29T14:26:25Z</time>
      </trkpt>
      <trkpt lat="41.0031480" lon="-3.2988520">
        <ele>927.0</ele>
        <time>2020-09-29T14:26:26Z</time>
      </trkpt>
      <trkpt lat="41.0031230" lon="-3.2989980">
        <ele>927.0</ele>
        <time>2020-09-29T14:26:27Z</time>
      </trkpt>
      <trkpt lat="41.0031230" lon="-3.2989980">
        <ele>927.0</ele>
        <time>2020-09-29T14:26:28Z</time>
      </trkpt>
      <trkpt lat="41.0030880" lon="-3.2991420">
        <ele>927.0</ele>
        <time>2020-09-29T14:26:29Z</time>
      </trkpt>
      <trkpt lat="41.0030880" lon="-3.2991420">
        <ele>927.0</ele>
        <time>2020-09-29T14:26:30Z</time>
      </trkpt>
      <trkpt lat="41.0030470" lon="-3.2992830">
        <ele>927.0</ele>
        <time>2020-09-29T14:26:31Z</time>
      </trkpt>
      <trkpt lat="41.0030470" lon="-3.2992830">
        <ele>927.0</ele>
        <time>2020-09-29T14:26:32Z</time>
      </trkpt>
      <trkpt lat="41.0030000" lon="-3.2994220">
        <ele>927.0</ele>
        <time>2020-09-29T14:26:33Z</time>
      </trkpt>
      <trkpt lat="41.0029680" lon="-3.2994800">
        <ele>927.0</ele>
        <time>2020-09-29T14:26:34Z</time>
      </trkpt>
      <trkpt lat="41.0029680" lon="-3.2994800">
        <ele>927.0</ele>
        <time>2020-09-29T14:26:35Z</time>
      </trkpt>
      <trkpt lat="41.0029030" lon="-3.2995970">
        <ele>927.0</ele>
        <time>2020-09-29T14:26:36Z</time>
      </trkpt>
      <trkpt lat="41.0028720" lon="-3.2996550">
        <ele>927.0</ele>
        <time>2020-09-29T14:26:37Z</time>
      </trkpt>
      <trkpt lat="41.0028720" lon="-3.2996550">
        <ele>927.0</ele>
        <time>2020-09-29T14:26:38Z</time>
      </trkpt>
      <trkpt lat="41.0028250" lon="-3.2997900">
        <ele>927.0</ele>
        <time>2020-09-29T14:26:39Z</time>
      </trkpt>
      <trkpt lat="41.0028250" lon="-3.2997900">
        <ele>927.0</ele>
        <time>2020-09-29T14:26:40Z</time>
      </trkpt>
      <trkpt lat="41.0027650" lon="-3.2999070">
        <ele>927.0</ele>
        <time>2020-09-29T14:26:41Z</time>
      </trkpt>
      <trkpt lat="41.0027350" lon="-3.2999620">
        <ele>927.0</ele>
        <time>2020-09-29T14:26:42Z</time>
      </trkpt>
      <trkpt lat="41.0027350" lon="-3.2999620">
        <ele>927.0</ele>
        <time>2020-09-29T14:26:43Z</time>
      </trkpt>
      <trkpt lat="41.0026920" lon="-3.3000600">
        <ele>927.0</ele>
        <time>2020-09-29T14:26:44Z</time>
      </trkpt>
      <trkpt lat="41.0026700" lon="-3.3000980">
        <ele>927.0</ele>
        <time>2020-09-29T14:26:45Z</time>
      </trkpt>
      <trkpt lat="41.0026700" lon="-3.3000980">
        <ele>927.0</ele>
        <time>2020-09-29T14:26:46Z</time>
      </trkpt>
      <trkpt lat="41.0026250" lon="-3.3001700">
        <ele>927.0</ele>
        <time>2020-09-29T14:26:47Z</time>
      </trkpt>
      <trkpt lat="41.0026250" lon="-3.3001700">
        <ele>927.0</ele>
        <time>2020-09-29T14:26:48Z</time>
      </trkpt>
      <trkpt lat="41.0025620" lon="-3.3002330">
        <ele>927.0</ele>
        <time>2020-09-29T14:26:49Z</time>
      </trkpt>
      <trkpt lat="41.0025620" lon="-3.3002330">
        <ele>927.0</ele>
        <time>2020-09-29T14:26:50Z</time>
      </trkpt>
      <trkpt lat="41.0024930" lon="-3.3002880">
        <ele>927.0</ele>
        <time>2020-09-29T14:26:51Z</time>
      </trkpt>
      <trkpt lat="41.0024930" lon="-3.3002880">
        <ele>927.0</ele>
        <time>2020-09-29T14:26:52Z</time>
      </trkpt>
      <trkpt lat="41.0024330" lon="-3.3003500">
        <ele>927.0</ele>
        <time>2020-09-29T14:26:53Z</time>
      </trkpt>
      <trkpt lat="41.0026620" lon="-3.3004530">
        <ele>927.0</ele>
        <time>2020-09-29T14:26:54Z</time>
      </trkpt>
      <trkpt lat="41.0026620" lon="-3.3004530">
        <ele>927.0</ele>
        <time>2020-09-29T14:26:55Z</time>
      </trkpt>
      <trkpt lat="41.0028800" lon="-3.3005620">
        <ele>927.0</ele>
        <time>2020-09-29T14:26:56Z</time>
      </trkpt>
      <trkpt lat="41.0029420" lon="-3.3006230">
        <ele>927.0</ele>
        <time>2020-09-29T14:26:57Z</time>
      </trkpt>
      <trkpt lat="41.0029420" lon="-3.3006230">
        <ele>927.0</ele>
        <time>2020-09-29T14:26:58Z</time>
      </trkpt>
      <trkpt lat="41.0030330" lon="-3.3006880">
        <ele>927.0</ele>
        <time>2020-09-29T14:26:59Z</time>
      </trkpt>
      <trkpt lat="41.0030330" lon="-3.3006880">
        <ele>927.0</ele>
        <time>2020-09-29T14:27:00Z</time>
      </trkpt>
      <trkpt lat="41.0031320" lon="-3.3007600">
        <ele>927.0</ele>
        <time>2020-09-29T14:27:01Z</time>
      </trkpt>
      <trkpt lat="41.0031320" lon="-3.3007600">
        <ele>927.0</ele>
        <time>2020-09-29T14:27:02Z</time>
      </trkpt>
      <trkpt lat="41.0032170" lon="-3.3008100">
        <ele>927.0</ele>
        <time>2020-09-29T14:27:03Z</time>
      </trkpt>
      <trkpt lat="41.0032170" lon="-3.3008100">
        <ele>927.0</ele>
        <time>2020-09-29T14:27:04Z</time>
      </trkpt>
      <trkpt lat="41.0033030" lon="-3.3008480">
        <ele>927.0</ele>
        <time>2020-09-29T14:27:05Z</time>
      </trkpt>
      <trkpt lat="41.0033480" lon="-3.3008700">
        <ele>927.0</ele>
        <time>2020-09-29T14:27:06Z</time>
      </trkpt>
      <trkpt lat="41.0033480" lon="-3.3008700">
        <ele>927.0</ele>
        <time>2020-09-29T14:27:07Z</time>
      </trkpt>
      <trkpt lat="41.0034370" lon="-3.3009130">
        <ele>927.0</ele>
        <time>2020-09-29T14:27:08Z</time>
      </trkpt>
      <trkpt lat="41.0034370" lon="-3.3009130">
        <ele>927.0</ele>
        <time>2020-09-29T14:27:09Z</time>
      </trkpt>
      <trkpt lat="41.0035250" lon="-3.3009550">
        <ele>927.0</ele>
        <time>2020-09-29T14:27:10Z</time>
      </trkpt>
      <trkpt lat="41.0035250" lon="-3.3009550">
        <ele>927.0</ele>
        <time>2020-09-29T14:27:11Z</time>
      </trkpt>
      <trkpt lat="41.0036100" lon="-3.3010030">
        <ele>927.0</ele>
        <time>2020-09-29T14:27:12Z</time>
      </trkpt>
      <trkpt lat="41.0036530" lon="-3.3010250">
        <ele>927.0</ele>
        <time>2020-09-29T14:27:13Z</time>
      </trkpt>
      <trkpt lat="41.0036530" lon="-3.3010250">
        <ele>927.0</ele>
        <time>2020-09-29T14:27:14Z</time>
      </trkpt>
      <trkpt lat="41.0037380" lon="-3.3010750">
        <ele>927.0</ele>
        <time>2020-09-29T14:27:15Z</time>
      </trkpt>
      <trkpt lat="41.0037820" lon="-3.3010930">
        <ele>927.0</ele>
        <time>2020-09-29T14:27:16Z</time>
      </trkpt>
      <trkpt lat="41.0037820" lon="-3.3010930">
        <ele>927.0</ele>
        <time>2020-09-29T14:27:17Z</time>
      </trkpt>
      <trkpt lat="41.0038720" lon="-3.3011230">
        <ele>927.0</ele>
        <time>2020-09-29T14:27:18Z</time>
      </trkpt>
      <trkpt lat="41.0039180" lon="-3.3011430">
        <ele>927.0</ele>
        <time>2020-09-29T14:27:19Z</time>
      </trkpt>
      <trkpt lat="41.0039180" lon="-3.3011430">
        <ele>927.0</ele>
        <time>2020-09-29T14:27:20Z</time>
      </trkpt>
      <trkpt lat="41.0040100" lon="-3.3011930">
        <ele>927.0</ele>
        <time>2020-09-29T14:27:21Z</time>
      </trkpt>
      <trkpt lat="41.0040100" lon="-3.3011930">
        <ele>927.0</ele>
        <time>2020-09-29T14:27:22Z</time>
      </trkpt>
      <trkpt lat="41.0041050" lon="-3.3012430">
        <ele>927.0</ele>
        <time>2020-09-29T14:27:23Z</time>
      </trkpt>
      <trkpt lat="41.0041050" lon="-3.3012430">
        <ele>927.0</ele>
        <time>2020-09-29T14:27:24Z</time>
      </trkpt>
      <trkpt lat="41.0041920" lon="-3.3012970">
        <ele>927.0</ele>
        <time>2020-09-29T14:27:25Z</time>
      </trkpt>
      <trkpt lat="41.0041920" lon="-3.3012970">
        <ele>927.0</ele>
        <time>2020-09-29T14:27:26Z</time>
      </trkpt>
      <trkpt lat="41.0042300" lon="-3.3013970">
        <ele>927.0</ele>
        <time>2020-09-29T14:27:27Z</time>
      </trkpt>
      <trkpt lat="41.0042300" lon="-3.3013970">
        <ele>927.0</ele>
        <time>2020-09-29T14:27:28Z</time>
      </trkpt>
      <trkpt lat="41.0042020" lon="-3.3015020">
        <ele>927.0</ele>
        <time>2020-09-29T14:27:29Z</time>
      </trkpt>
      <trkpt lat="41.0042020" lon="-3.3015020">
        <ele>927.0</ele>
        <time>2020-09-29T14:27:30Z</time>
      </trkpt>
      <trkpt lat="41.0041570" lon="-3.3016050">
        <ele>927.0</ele>
        <time>2020-09-29T14:27:31Z</time>
      </trkpt>
      <trkpt lat="41.0041570" lon="-3.3016050">
        <ele>927.0</ele>
        <time>2020-09-29T14:27:32Z</time>
      </trkpt>
      <trkpt lat="41.0041170" lon="-3.3017120">
        <ele>927.0</ele>
        <time>2020-09-29T14:27:33Z</time>
      </trkpt>
      <trkpt lat="41.0041170" lon="-3.3017120">
        <ele>927.0</ele>
        <time>2020-09-29T14:27:34Z</time>
      </trkpt>
      <trkpt lat="41.0040670" lon="-3.3018170">
        <ele>927.0</ele>
        <time>2020-09-29T14:27:35Z</time>
      </trkpt>
      <trkpt lat="41.0040670" lon="-3.3018170">
        <ele>927.0</ele>
        <time>2020-09-29T14:27:36Z</time>
      </trkpt>
      <trkpt lat="41.0040130" lon="-3.3019330">
        <ele>927.0</ele>
        <time>2020-09-29T14:27:37Z</time>
      </trkpt>
      <trkpt lat="41.0040130" lon="-3.3019330">
        <ele>926.0</ele>
        <time>2020-09-29T14:27:38Z</time>
      </trkpt>
      <trkpt lat="41.0039650" lon="-3.3020600">
        <ele>926.0</ele>
        <time>2020-09-29T14:27:39Z</time>
      </trkpt>
      <trkpt lat="41.0039650" lon="-3.3020600">
        <ele>925.0</ele>
        <time>2020-09-29T14:27:40Z</time>
      </trkpt>
      <trkpt lat="41.0039330" lon="-3.3021570">
        <ele>925.0</ele>
        <time>2020-09-29T14:27:41Z</time>
      </trkpt>
      <trkpt lat="41.0039330" lon="-3.3021570">
        <ele>924.0</ele>
        <time>2020-09-29T14:27:42Z</time>
      </trkpt>
      <trkpt lat="41.0039020" lon="-3.3022020">
        <ele>924.0</ele>
        <time>2020-09-29T14:27:43Z</time>
      </trkpt>
      <trkpt lat="41.0038920" lon="-3.3022130">
        <ele>923.0</ele>
        <time>2020-09-29T14:27:44Z</time>
      </trkpt>
      <trkpt lat="41.0038920" lon="-3.3022130">
        <ele>923.0</ele>
        <time>2020-09-29T14:27:45Z</time>
      </trkpt>
      <trkpt lat="41.0038870" lon="-3.3022280">
        <ele>922.0</ele>
        <time>2020-09-29T14:27:46Z</time>
      </trkpt>
      <trkpt lat="41.0038870" lon="-3.3022280">
        <ele>922.0</ele>
        <time>2020-09-29T14:27:47Z</time>
      </trkpt>
      <trkpt lat="41.0038680" lon="-3.3022670">
        <ele>922.0</ele>
        <time>2020-09-29T14:28:48Z</time>
      </trkpt>
      <trkpt lat="41.0038680" lon="-3.3022670">
        <ele>922.0</ele>
        <time>2020-09-29T14:28:49Z</time>
      </trkpt>
      <trkpt lat="41.0038400" lon="-3.3023380">
        <ele>922.0</ele>
        <time>2020-09-29T14:28:50Z</time>
      </trkpt>
      <trkpt lat="41.0038400" lon="-3.3023380">
        <ele>922.0</ele>
        <time>2020-09-29T14:28:51Z</time>
      </trkpt>
      <trkpt lat="41.0038020" lon="-3.3024350">
        <ele>921.0</ele>
        <time>2020-09-29T14:28:52Z</time>
      </trkpt>
      <trkpt lat="41.0038020" lon="-3.3024350">
        <ele>921.0</ele>
        <time>2020-09-29T14:28:53Z</time>
      </trkpt>
      <trkpt lat="41.0037500" lon="-3.3025470">
        <ele>921.0</ele>
        <time>2020-09-29T14:28:54Z</time>
      </trkpt>
      <trkpt lat="41.0037270" lon="-3.3026020">
        <ele>921.0</ele>
        <time>2020-09-29T14:28:55Z</time>
      </trkpt>
      <trkpt lat="41.0037270" lon="-3.3026020">
        <ele>920.0</ele>
        <time>2020-09-29T14:28:56Z</time>
      </trkpt>
      <trkpt lat="41.0036820" lon="-3.3027180">
        <ele>920.0</ele>
        <time>2020-09-29T14:28:57Z</time>
      </trkpt>
      <trkpt lat="41.0036820" lon="-3.3027180">
        <ele>920.0</ele>
        <time>2020-09-29T14:28:58Z</time>
      </trkpt>
      <trkpt lat="41.0036380" lon="-3.3028380">
        <ele>920.0</ele>
        <time>2020-09-29T14:28:59Z</time>
      </trkpt>
      <trkpt lat="41.0036380" lon="-3.3028380">
        <ele>920.0</ele>
        <time>2020-09-29T14:29:00Z</time>
      </trkpt>
      <trkpt lat="41.0035830" lon="-3.3029580">
        <ele>918.0</ele>
        <time>2020-09-29T14:29:01Z</time>
      </trkpt>
      <trkpt lat="41.0035830" lon="-3.3029580">
        <ele>916.0</ele>
        <time>2020-09-29T14:29:02Z</time>
      </trkpt>
      <trkpt lat="41.0035250" lon="-3.3030870">
        <ele>916.0</ele>
        <time>2020-09-29T14:29:03Z</time>
      </trkpt>
      <trkpt lat="41.0035250" lon="-3.3030870">
        <ele>915.0</ele>
        <time>2020-09-29T14:29:04Z</time>
      </trkpt>
      <trkpt lat="41.0034530" lon="-3.3032100">
        <ele>915.0</ele>
        <time>2020-09-29T14:29:05Z</time>
      </trkpt>
      <trkpt lat="41.0034170" lon="-3.3032650">
        <ele>914.0</ele>
        <time>2020-09-29T14:29:06Z</time>
      </trkpt>
      <trkpt lat="41.0033770" lon="-3.3033130">
        <ele>914.0</ele>
        <time>2020-09-29T14:29:07Z</time>
      </trkpt>
      <trkpt lat="41.0033770" lon="-3.3033130">
        <ele>913.0</ele>
        <time>2020-09-29T14:29:08Z</time>
      </trkpt>
      <trkpt lat="41.0032820" lon="-3.3034070">
        <ele>913.0</ele>
        <time>2020-09-29T14:29:09Z</time>
      </trkpt>
      <trkpt lat="41.0032820" lon="-3.3034070">
        <ele>912.0</ele>
        <time>2020-09-29T14:29:10Z</time>
      </trkpt>
      <trkpt lat="41.0031680" lon="-3.3034930">
        <ele>912.0</ele>
        <time>2020-09-29T14:29:11Z</time>
      </trkpt>
      <trkpt lat="41.0031680" lon="-3.3034930">
        <ele>910.0</ele>
        <time>2020-09-29T14:29:12Z</time>
      </trkpt>
      <trkpt lat="41.0030870" lon="-3.3035820">
        <ele>910.0</ele>
        <time>2020-09-29T14:29:13Z</time>
      </trkpt>
      <trkpt lat="41.0030870" lon="-3.3035820">
        <ele>909.0</ele>
        <time>2020-09-29T14:29:14Z</time>
      </trkpt>
      <trkpt lat="41.0030300" lon="-3.3036680">
        <ele>909.0</ele>
        <time>2020-09-29T14:29:15Z</time>
      </trkpt>
      <trkpt lat="41.0030300" lon="-3.3036680">
        <ele>908.0</ele>
        <time>2020-09-29T14:29:16Z</time>
      </trkpt>
      <trkpt lat="41.0029920" lon="-3.3037520">
        <ele>908.0</ele>
        <time>2020-09-29T14:29:17Z</time>
      </trkpt>
      <trkpt lat="41.0029920" lon="-3.3037520">
        <ele>907.0</ele>
        <time>2020-09-29T14:29:18Z</time>
      </trkpt>
      <trkpt lat="41.0029530" lon="-3.3037970">
        <ele>907.0</ele>
        <time>2020-09-29T14:29:19Z</time>
      </trkpt>
      <trkpt lat="41.0029530" lon="-3.3037970">
        <ele>907.0</ele>
        <time>2020-09-29T14:29:20Z</time>
      </trkpt>
      <trkpt lat="41.0029300" lon="-3.3038820">
        <ele>907.0</ele>
        <time>2020-09-29T14:29:21Z</time>
      </trkpt>
      <trkpt lat="41.0029230" lon="-3.3038950">
        <ele>906.0</ele>
        <time>2020-09-29T14:29:22Z</time>
      </trkpt>
      <trkpt lat="41.0029230" lon="-3.3038950">
        <ele>906.0</ele>
        <time>2020-09-29T14:29:23Z</time>
      </trkpt>
      <trkpt lat="41.0029180" lon="-3.3039070">
        <ele>906.0</ele>
        <time>2020-09-29T14:29:24Z</time>
      </trkpt>
      <trkpt lat="41.0029180" lon="-3.3039070">
        <ele>906.0</ele>
        <time>2020-09-29T14:29:40Z</time>
      </trkpt>
      <trkpt lat="41.0028950" lon="-3.3038920">
        <ele>906.0</ele>
        <time>2020-09-29T14:29:41Z</time>
      </trkpt>
      <trkpt lat="41.0028950" lon="-3.3038920">
        <ele>905.0</ele>
        <time>2020-09-29T14:29:42Z</time>
      </trkpt>
      <trkpt lat="41.0028530" lon="-3.3038920">
        <ele>905.0</ele>
        <time>2020-09-29T14:29:43Z</time>
      </trkpt>
      <trkpt lat="41.0028530" lon="-3.3038920">
        <ele>905.0</ele>
        <time>2020-09-29T14:29:44Z</time>
      </trkpt>
      <trkpt lat="41.0028050" lon="-3.3039020">
        <ele>905.0</ele>
        <time>2020-09-29T14:29:45Z</time>
      </trkpt>
      <trkpt lat="41.0028050" lon="-3.3039020">
        <ele>904.0</ele>
        <time>2020-09-29T14:29:46Z</time>
      </trkpt>
      <trkpt lat="41.0027550" lon="-3.3039250">
        <ele>904.0</ele>
        <time>2020-09-29T14:29:47Z</time>
      </trkpt>
      <trkpt lat="41.0027550" lon="-3.3039250">
        <ele>903.0</ele>
        <time>2020-09-29T14:29:48Z</time>
      </trkpt>
      <trkpt lat="41.0026920" lon="-3.3039470">
        <ele>903.0</ele>
        <time>2020-09-29T14:29:49Z</time>
      </trkpt>
      <trkpt lat="41.0026920" lon="-3.3039470">
        <ele>903.0</ele>
        <time>2020-09-29T14:29:50Z</time>
      </trkpt>
      <trkpt lat="41.0026050" lon="-3.3039720">
        <ele>903.0</ele>
        <time>2020-09-29T14:29:51Z</time>
      </trkpt>
      <trkpt lat="41.0026050" lon="-3.3039720">
        <ele>902.0</ele>
        <time>2020-09-29T14:29:52Z</time>
      </trkpt>
      <trkpt lat="41.0025150" lon="-3.3040080">
        <ele>902.0</ele>
        <time>2020-09-29T14:29:53Z</time>
      </trkpt>
      <trkpt lat="41.0024750" lon="-3.3040220">
        <ele>902.0</ele>
        <time>2020-09-29T14:29:54Z</time>
      </trkpt>
      <trkpt lat="41.0024750" lon="-3.3040220">
        <ele>902.0</ele>
        <time>2020-09-29T14:29:55Z</time>
      </trkpt>
      <trkpt lat="41.0023930" lon="-3.3040220">
        <ele>901.0</ele>
        <time>2020-09-29T14:29:56Z</time>
      </trkpt>
      <trkpt lat="41.0023930" lon="-3.3040220">
        <ele>901.0</ele>
        <time>2020-09-29T14:29:57Z</time>
      </trkpt>
      <trkpt lat="41.0023130" lon="-3.3040230">
        <ele>901.0</ele>
        <time>2020-09-29T14:29:58Z</time>
      </trkpt>
      <trkpt lat="41.0022720" lon="-3.3040230">
        <ele>901.0</ele>
        <time>2020-09-29T14:29:59Z</time>
      </trkpt>
      <trkpt lat="41.0022720" lon="-3.3040230">
        <ele>900.0</ele>
        <time>2020-09-29T14:30:00Z</time>
      </trkpt>
      <trkpt lat="41.0021880" lon="-3.3040080">
        <ele>900.0</ele>
        <time>2020-09-29T14:30:01Z</time>
      </trkpt>
      <trkpt lat="41.0021880" lon="-3.3040080">
        <ele>900.0</ele>
        <time>2020-09-29T14:30:02Z</time>
      </trkpt>
      <trkpt lat="41.0021000" lon="-3.3039770">
        <ele>900.0</ele>
        <time>2020-09-29T14:30:03Z</time>
      </trkpt>
      <trkpt lat="41.0021000" lon="-3.3039770">
        <ele>899.0</ele>
        <time>2020-09-29T14:30:04Z</time>
      </trkpt>
      <trkpt lat="41.0020130" lon="-3.3039570">
        <ele>899.0</ele>
        <time>2020-09-29T14:30:05Z</time>
      </trkpt>
      <trkpt lat="41.0020130" lon="-3.3039570">
        <ele>898.0</ele>
        <time>2020-09-29T14:30:06Z</time>
      </trkpt>
      <trkpt lat="41.0019250" lon="-3.3039020">
        <ele>898.0</ele>
        <time>2020-09-29T14:30:07Z</time>
      </trkpt>
      <trkpt lat="41.0019250" lon="-3.3039020">
        <ele>898.0</ele>
        <time>2020-09-29T14:30:08Z</time>
      </trkpt>
      <trkpt lat="41.0018380" lon="-3.3038470">
        <ele>898.0</ele>
        <time>2020-09-29T14:30:09Z</time>
      </trkpt>
      <trkpt lat="41.0018380" lon="-3.3038470">
        <ele>896.0</ele>
        <time>2020-09-29T14:30:10Z</time>
      </trkpt>
      <trkpt lat="41.0017550" lon="-3.3037900">
        <ele>896.0</ele>
        <time>2020-09-29T14:30:11Z</time>
      </trkpt>
      <trkpt lat="41.0017550" lon="-3.3037900">
        <ele>896.0</ele>
        <time>2020-09-29T14:30:12Z</time>
      </trkpt>
      <trkpt lat="41.0016780" lon="-3.3037380">
        <ele>895.0</ele>
        <time>2020-09-29T14:30:13Z</time>
      </trkpt>
      <trkpt lat="41.0016780" lon="-3.3037380">
        <ele>895.0</ele>
        <time>2020-09-29T14:30:14Z</time>
      </trkpt>
      <trkpt lat="41.0016030" lon="-3.3037000">
        <ele>894.0</ele>
        <time>2020-09-29T14:30:15Z</time>
      </trkpt>
      <trkpt lat="41.0016030" lon="-3.3037000">
        <ele>894.0</ele>
        <time>2020-09-29T14:30:16Z</time>
      </trkpt>
      <trkpt lat="41.0015370" lon="-3.3037000">
        <ele>893.0</ele>
        <time>2020-09-29T14:30:17Z</time>
      </trkpt>
      <trkpt lat="41.0015000" lon="-3.3036970">
        <ele>893.0</ele>
        <time>2020-09-29T14:30:18Z</time>
      </trkpt>
      <trkpt lat="41.0015000" lon="-3.3036970">
        <ele>893.0</ele>
        <time>2020-09-29T14:30:19Z</time>
      </trkpt>
      <trkpt lat="41.0014300" lon="-3.3036720">
        <ele>893.0</ele>
        <time>2020-09-29T14:30:20Z</time>
      </trkpt>
      <trkpt lat="41.0014030" lon="-3.3036620">
        <ele>892.0</ele>
        <time>2020-09-29T14:30:21Z</time>
      </trkpt>
      <trkpt lat="41.0014030" lon="-3.3036620">
        <ele>892.0</ele>
        <time>2020-09-29T14:30:22Z</time>
      </trkpt>
      <trkpt lat="41.0013750" lon="-3.3036730">
        <ele>892.0</ele>
        <time>2020-09-29T14:30:23Z</time>
      </trkpt>
      <trkpt lat="41.0013620" lon="-3.3036780">
        <ele>892.0</ele>
        <time>2020-09-29T14:30:24Z</time>
      </trkpt>
      <trkpt lat="41.0013620" lon="-3.3036780">
        <ele>892.0</ele>
        <time>2020-09-29T14:30:25Z</time>
      </trkpt>
      <trkpt lat="41.0013300" lon="-3.3036530">
        <ele>890.0</ele>
        <time>2020-09-29T14:30:26Z</time>
      </trkpt>
      <trkpt lat="41.0013300" lon="-3.3036530">
        <ele>890.0</ele>
        <time>2020-09-29T14:30:27Z</time>
      </trkpt>
      <trkpt lat="41.0013030" lon="-3.3036280">
        <ele>890.0</ele>
        <time>2020-09-29T14:30:28Z</time>
      </trkpt>
      <trkpt lat="41.0013030" lon="-3.3036280">
        <ele>890.0</ele>
        <time>2020-09-29T14:30:29Z</time>
      </trkpt>
      <trkpt lat="41.0012920" lon="-3.3036150">
        <ele>889.0</ele>
        <time>2020-09-29T14:30:30Z</time>
      </trkpt>
      <trkpt lat="41.0012870" lon="-3.3036050">
        <ele>889.0</ele>
        <time>2020-09-29T14:30:31Z</time>
      </trkpt>
      <trkpt lat="41.0012870" lon="-3.3036050">
        <ele>889.0</ele>
        <time>2020-09-29T14:30:32Z</time>
      </trkpt>
      <trkpt lat="41.0012670" lon="-3.3035870">
        <ele>889.0</ele>
        <time>2020-09-29T14:30:33Z</time>
      </trkpt>
      <trkpt lat="41.0012500" lon="-3.3035730">
        <ele>889.0</ele>
        <time>2020-09-29T14:30:34Z</time>
      </trkpt>
      <trkpt lat="41.0012500" lon="-3.3035730">
        <ele>889.0</ele>
        <time>2020-09-29T14:30:35Z</time>
      </trkpt>
      <trkpt lat="41.0012200" lon="-3.3035600">
        <ele>888.0</ele>
        <time>2020-09-29T14:30:36Z</time>
      </trkpt>
      <trkpt lat="41.0012030" lon="-3.3035520">
        <ele>888.0</ele>
        <time>2020-09-29T14:30:37Z</time>
      </trkpt>
      <trkpt lat="41.0012030" lon="-3.3035520">
        <ele>888.0</ele>
        <time>2020-09-29T14:30:38Z</time>
      </trkpt>
      <trkpt lat="41.0011550" lon="-3.3035270">
        <ele>888.0</ele>
        <time>2020-09-29T14:30:39Z</time>
      </trkpt>
      <trkpt lat="41.0011230" lon="-3.3035130">
        <ele>888.0</ele>
        <time>2020-09-29T14:30:40Z</time>
      </trkpt>
      <trkpt lat="41.0011230" lon="-3.3035130">
        <ele>887.0</ele>
        <time>2020-09-29T14:30:41Z</time>
      </trkpt>
      <trkpt lat="41.0010730" lon="-3.3034970">
        <ele>887.0</ele>
        <time>2020-09-29T14:30:42Z</time>
      </trkpt>
      <trkpt lat="41.0010600" lon="-3.3034950">
        <ele>887.0</ele>
        <time>2020-09-29T14:30:43Z</time>
      </trkpt>
      <trkpt lat="41.0010600" lon="-3.3034950">
        <ele>887.0</ele>
        <time>2020-09-29T14:30:44Z</time>
      </trkpt>
      <trkpt lat="41.0010300" lon="-3.3034870">
        <ele>887.0</ele>
        <time>2020-09-29T14:30:45Z</time>
      </trkpt>
      <trkpt lat="41.0010300" lon="-3.3034870">
        <ele>887.0</ele>
        <time>2020-09-29T14:30:46Z</time>
      </trkpt>
      <trkpt lat="41.0009830" lon="-3.3034730">
        <ele>887.0</ele>
        <time>2020-09-29T14:30:47Z</time>
      </trkpt>
      <trkpt lat="41.0009830" lon="-3.3034730">
        <ele>886.0</ele>
        <time>2020-09-29T14:30:48Z</time>
      </trkpt>
      <trkpt lat="41.0009280" lon="-3.3034580">
        <ele>886.0</ele>
        <time>2020-09-29T14:30:49Z</time>
      </trkpt>
      <trkpt lat="41.0009280" lon="-3.3034580">
        <ele>886.0</ele>
        <time>2020-09-29T14:30:50Z</time>
      </trkpt>
      <trkpt lat="41.0008750" lon="-3.3034430">
        <ele>886.0</ele>
        <time>2020-09-29T14:30:51Z</time>
      </trkpt>
      <trkpt lat="41.0008750" lon="-3.3034430">
        <ele>885.0</ele>
        <time>2020-09-29T14:30:52Z</time>
      </trkpt>
      <trkpt lat="41.0008250" lon="-3.3034230">
        <ele>885.0</ele>
        <time>2020-09-29T14:30:53Z</time>
      </trkpt>
      <trkpt lat="41.0008250" lon="-3.3034230">
        <ele>885.0</ele>
        <time>2020-09-29T14:30:54Z</time>
      </trkpt>
      <trkpt lat="41.0007620" lon="-3.3033830">
        <ele>885.0</ele>
        <time>2020-09-29T14:30:55Z</time>
      </trkpt>
      <trkpt lat="41.0007620" lon="-3.3033830">
        <ele>884.0</ele>
        <time>2020-09-29T14:30:56Z</time>
      </trkpt>
      <trkpt lat="41.0006900" lon="-3.3033150">
        <ele>884.0</ele>
        <time>2020-09-29T14:30:57Z</time>
      </trkpt>
      <trkpt lat="41.0006900" lon="-3.3033150">
        <ele>884.0</ele>
        <time>2020-09-29T14:30:58Z</time>
      </trkpt>
      <trkpt lat="41.0006080" lon="-3.3032450">
        <ele>884.0</ele>
        <time>2020-09-29T14:30:59Z</time>
      </trkpt>
      <trkpt lat="41.0005700" lon="-3.3032030">
        <ele>883.0</ele>
        <time>2020-09-29T14:31:00Z</time>
      </trkpt>
      <trkpt lat="41.0005700" lon="-3.3032030">
        <ele>883.0</ele>
        <time>2020-09-29T14:31:01Z</time>
      </trkpt>
      <trkpt lat="41.0004820" lon="-3.3031350">
        <ele>883.0</ele>
        <time>2020-09-29T14:31:02Z</time>
      </trkpt>
      <trkpt lat="41.0004430" lon="-3.3031000">
        <ele>883.0</ele>
        <time>2020-09-29T14:31:03Z</time>
      </trkpt>
      <trkpt lat="41.0004430" lon="-3.3031000">
        <ele>883.0</ele>
        <time>2020-09-29T14:31:04Z</time>
      </trkpt>
      <trkpt lat="41.0003950" lon="-3.3030080">
        <ele>882.0</ele>
        <time>2020-09-29T14:31:05Z</time>
      </trkpt>
      <trkpt lat="41.0003950" lon="-3.3030080">
        <ele>882.0</ele>
        <time>2020-09-29T14:31:06Z</time>
      </trkpt>
      <trkpt lat="41.0003530" lon="-3.3029280">
        <ele>882.0</ele>
        <time>2020-09-29T14:31:07Z</time>
      </trkpt>
      <trkpt lat="41.0003530" lon="-3.3029280">
        <ele>882.0</ele>
        <time>2020-09-29T14:31:08Z</time>
      </trkpt>
      <trkpt lat="41.0003050" lon="-3.3028600">
        <ele>882.0</ele>
        <time>2020-09-29T14:31:09Z</time>
      </trkpt>
      <trkpt lat="41.0002820" lon="-3.3028220">
        <ele>882.0</ele>
        <time>2020-09-29T14:31:10Z</time>
      </trkpt>
      <trkpt lat="41.0002820" lon="-3.3028220">
        <ele>882.0</ele>
        <time>2020-09-29T14:31:11Z</time>
      </trkpt>
      <trkpt lat="41.0002300" lon="-3.3027500">
        <ele>882.0</ele>
        <time>2020-09-29T14:31:12Z</time>
      </trkpt>
      <trkpt lat="41.0002050" lon="-3.3027150">
        <ele>882.0</ele>
        <time>2020-09-29T14:31:13Z</time>
      </trkpt>
      <trkpt lat="41.0002050" lon="-3.3027150">
        <ele>882.0</ele>
        <time>2020-09-29T14:31:14Z</time>
      </trkpt>
      <trkpt lat="41.0001550" lon="-3.3026470">
        <ele>883.0</ele>
        <time>2020-09-29T14:31:15Z</time>
      </trkpt>
      <trkpt lat="41.0001320" lon="-3.3026170">
        <ele>883.0</ele>
        <time>2020-09-29T14:31:16Z</time>
      </trkpt>
      <trkpt lat="41.0001320" lon="-3.3026170">
        <ele>883.0</ele>
        <time>2020-09-29T14:31:17Z</time>
      </trkpt>
      <trkpt lat="41.0000870" lon="-3.3025670">
        <ele>883.0</ele>
        <time>2020-09-29T14:31:18Z</time>
      </trkpt>
      <trkpt lat="41.0000670" lon="-3.3025380">
        <ele>884.0</ele>
        <time>2020-09-29T14:31:19Z</time>
      </trkpt>
      <trkpt lat="41.0000670" lon="-3.3025380">
        <ele>884.0</ele>
        <time>2020-09-29T14:31:20Z</time>
      </trkpt>
      <trkpt lat="41.0000250" lon="-3.3024820">
        <ele>884.0</ele>
        <time>2020-09-29T14:31:21Z</time>
      </trkpt>
      <trkpt lat="41.0000050" lon="-3.3024570">
        <ele>884.0</ele>
        <time>2020-09-29T14:31:22Z</time>
      </trkpt>
      <trkpt lat="40.9999870" lon="-3.3024330">
        <ele>885.0</ele>
        <time>2020-09-29T14:31:23Z</time>
      </trkpt>
      <trkpt lat="40.9999870" lon="-3.3024330">
        <ele>885.0</ele>
        <time>2020-09-29T14:31:24Z</time>
      </trkpt>
      <trkpt lat="40.9999400" lon="-3.3023750">
        <ele>885.0</ele>
        <time>2020-09-29T14:31:25Z</time>
      </trkpt>
      <trkpt lat="40.9999400" lon="-3.3023750">
        <ele>886.0</ele>
        <time>2020-09-29T14:31:26Z</time>
      </trkpt>
      <trkpt lat="40.9998950" lon="-3.3023300">
        <ele>886.0</ele>
        <time>2020-09-29T14:31:27Z</time>
      </trkpt>
      <trkpt lat="40.9998950" lon="-3.3023300">
        <ele>886.0</ele>
        <time>2020-09-29T14:31:28Z</time>
      </trkpt>
      <trkpt lat="40.9998600" lon="-3.3022730">
        <ele>886.0</ele>
        <time>2020-09-29T14:31:29Z</time>
      </trkpt>
      <trkpt lat="40.9998600" lon="-3.3022730">
        <ele>887.0</ele>
        <time>2020-09-29T14:31:30Z</time>
      </trkpt>
      <trkpt lat="40.9998250" lon="-3.3022180">
        <ele>887.0</ele>
        <time>2020-09-29T14:31:31Z</time>
      </trkpt>
      <trkpt lat="40.9997830" lon="-3.3021750">
        <ele>887.0</ele>
        <time>2020-09-29T14:31:32Z</time>
      </trkpt>
      <trkpt lat="40.9997830" lon="-3.3021750">
        <ele>887.0</ele>
        <time>2020-09-29T14:31:33Z</time>
      </trkpt>
      <trkpt lat="40.9997600" lon="-3.3021530">
        <ele>887.0</ele>
        <time>2020-09-29T14:31:34Z</time>
      </trkpt>
      <trkpt lat="40.9997600" lon="-3.3021530">
        <ele>888.0</ele>
        <time>2020-09-29T14:31:35Z</time>
      </trkpt>
      <trkpt lat="40.9997150" lon="-3.3021180">
        <ele>888.0</ele>
        <time>2020-09-29T14:31:36Z</time>
      </trkpt>
      <trkpt lat="40.9996920" lon="-3.3021000">
        <ele>888.0</ele>
        <time>2020-09-29T14:31:37Z</time>
      </trkpt>
      <trkpt lat="40.9996920" lon="-3.3021000">
        <ele>888.0</ele>
        <time>2020-09-29T14:31:38Z</time>
      </trkpt>
      <trkpt lat="40.9996420" lon="-3.3020680">
        <ele>889.0</ele>
        <time>2020-09-29T14:31:39Z</time>
      </trkpt>
      <trkpt lat="40.9996420" lon="-3.3020680">
        <ele>889.0</ele>
        <time>2020-09-29T14:31:40Z</time>
      </trkpt>
      <trkpt lat="40.9995920" lon="-3.3020370">
        <ele>889.0</ele>
        <time>2020-09-29T14:31:41Z</time>
      </trkpt>
      <trkpt lat="40.9995920" lon="-3.3020370">
        <ele>889.0</ele>
        <time>2020-09-29T14:31:42Z</time>
      </trkpt>
      <trkpt lat="40.9995420" lon="-3.3020020">
        <ele>889.0</ele>
        <time>2020-09-29T14:31:43Z</time>
      </trkpt>
      <trkpt lat="40.9995420" lon="-3.3020020">
        <ele>890.0</ele>
        <time>2020-09-29T14:31:44Z</time>
      </trkpt>
      <trkpt lat="40.9994930" lon="-3.3019700">
        <ele>890.0</ele>
        <time>2020-09-29T14:31:45Z</time>
      </trkpt>
      <trkpt lat="40.9994930" lon="-3.3019700">
        <ele>890.0</ele>
        <time>2020-09-29T14:31:46Z</time>
      </trkpt>
      <trkpt lat="40.9994480" lon="-3.3019420">
        <ele>890.0</ele>
        <time>2020-09-29T14:31:47Z</time>
      </trkpt>
      <trkpt lat="40.9994480" lon="-3.3019420">
        <ele>891.0</ele>
        <time>2020-09-29T14:31:48Z</time>
      </trkpt>
      <trkpt lat="40.9994070" lon="-3.3019080">
        <ele>891.0</ele>
        <time>2020-09-29T14:31:49Z</time>
      </trkpt>
      <trkpt lat="40.9994070" lon="-3.3019080">
        <ele>892.0</ele>
        <time>2020-09-29T14:31:50Z</time>
      </trkpt>
      <trkpt lat="40.9993680" lon="-3.3018730">
        <ele>892.0</ele>
        <time>2020-09-29T14:31:51Z</time>
      </trkpt>
      <trkpt lat="40.9993520" lon="-3.3018520">
        <ele>892.0</ele>
        <time>2020-09-29T14:31:52Z</time>
      </trkpt>
      <trkpt lat="40.9993520" lon="-3.3018520">
        <ele>892.0</ele>
        <time>2020-09-29T14:31:53Z</time>
      </trkpt>
      <trkpt lat="40.9993230" lon="-3.3018020">
        <ele>893.0</ele>
        <time>2020-09-29T14:31:54Z</time>
      </trkpt>
      <trkpt lat="40.9993030" lon="-3.3017800">
        <ele>893.0</ele>
        <time>2020-09-29T14:31:55Z</time>
      </trkpt>
      <trkpt lat="40.9992850" lon="-3.3017580">
        <ele>893.0</ele>
        <time>2020-09-29T14:31:56Z</time>
      </trkpt>
      <trkpt lat="40.9992850" lon="-3.3017580">
        <ele>893.0</ele>
        <time>2020-09-29T14:31:57Z</time>
      </trkpt>
      <trkpt lat="40.9992520" lon="-3.3017020">
        <ele>893.0</ele>
        <time>2020-09-29T14:31:58Z</time>
      </trkpt>
      <trkpt lat="40.9992520" lon="-3.3017020">
        <ele>893.0</ele>
        <time>2020-09-29T14:31:59Z</time>
      </trkpt>
      <trkpt lat="40.9992280" lon="-3.3016380">
        <ele>894.0</ele>
        <time>2020-09-29T14:32:00Z</time>
      </trkpt>
      <trkpt lat="40.9992280" lon="-3.3016380">
        <ele>894.0</ele>
        <time>2020-09-29T14:32:01Z</time>
      </trkpt>
      <trkpt lat="40.9992050" lon="-3.3015720">
        <ele>894.0</ele>
        <time>2020-09-29T14:32:02Z</time>
      </trkpt>
      <trkpt lat="40.9991970" lon="-3.3015530">
        <ele>895.0</ele>
        <time>2020-09-29T14:32:03Z</time>
      </trkpt>
      <trkpt lat="40.9991850" lon="-3.3015270">
        <ele>895.0</ele>
        <time>2020-09-29T14:32:04Z</time>
      </trkpt>
      <trkpt lat="40.9991850" lon="-3.3015270">
        <ele>895.0</ele>
        <time>2020-09-29T14:32:05Z</time>
      </trkpt>
      <trkpt lat="40.9991570" lon="-3.3014770">
        <ele>895.0</ele>
        <time>2020-09-29T14:32:06Z</time>
      </trkpt>
      <trkpt lat="40.9991400" lon="-3.3014480">
        <ele>896.0</ele>
        <time>2020-09-29T14:32:07Z</time>
      </trkpt>
      <trkpt lat="40.9991400" lon="-3.3014480">
        <ele>896.0</ele>
        <time>2020-09-29T14:32:08Z</time>
      </trkpt>
      <trkpt lat="40.9991020" lon="-3.3013900">
        <ele>896.0</ele>
        <time>2020-09-29T14:32:09Z</time>
      </trkpt>
      <trkpt lat="40.9991020" lon="-3.3013900">
        <ele>896.0</ele>
        <time>2020-09-29T14:32:10Z</time>
      </trkpt>
      <trkpt lat="40.9990680" lon="-3.3013280">
        <ele>897.0</ele>
        <time>2020-09-29T14:32:11Z</time>
      </trkpt>
      <trkpt lat="40.9990680" lon="-3.3013280">
        <ele>897.0</ele>
        <time>2020-09-29T14:32:12Z</time>
      </trkpt>
      <trkpt lat="40.9990380" lon="-3.3012730">
        <ele>897.0</ele>
        <time>2020-09-29T14:32:13Z</time>
      </trkpt>
      <trkpt lat="40.9990380" lon="-3.3012730">
        <ele>897.0</ele>
        <time>2020-09-29T14:32:14Z</time>
      </trkpt>
      <trkpt lat="40.9990100" lon="-3.3012130">
        <ele>897.0</ele>
        <time>2020-09-29T14:32:15Z</time>
      </trkpt>
      <trkpt lat="40.9990100" lon="-3.3012130">
        <ele>897.0</ele>
        <time>2020-09-29T14:32:16Z</time>
      </trkpt>
      <trkpt lat="40.9989820" lon="-3.3011570">
        <ele>898.0</ele>
        <time>2020-09-29T14:32:17Z</time>
      </trkpt>
      <trkpt lat="40.9989700" lon="-3.3011270">
        <ele>898.0</ele>
        <time>2020-09-29T14:32:18Z</time>
      </trkpt>
      <trkpt lat="40.9989570" lon="-3.3011000">
        <ele>898.0</ele>
        <time>2020-09-29T14:32:19Z</time>
      </trkpt>
      <trkpt lat="40.9989570" lon="-3.3011000">
        <ele>898.0</ele>
        <time>2020-09-29T14:32:20Z</time>
      </trkpt>
      <trkpt lat="40.9989170" lon="-3.3010650">
        <ele>899.0</ele>
        <time>2020-09-29T14:32:21Z</time>
      </trkpt>
      <trkpt lat="40.9988950" lon="-3.3010550">
        <ele>899.0</ele>
        <time>2020-09-29T14:32:22Z</time>
      </trkpt>
      <trkpt lat="40.9988950" lon="-3.3010550">
        <ele>899.0</ele>
        <time>2020-09-29T14:32:23Z</time>
      </trkpt>
      <trkpt lat="40.9988430" lon="-3.3010430">
        <ele>899.0</ele>
        <time>2020-09-29T14:32:24Z</time>
      </trkpt>
      <trkpt lat="40.9988430" lon="-3.3010430">
        <ele>900.0</ele>
        <time>2020-09-29T14:32:25Z</time>
      </trkpt>
      <trkpt lat="40.9988000" lon="-3.3010350">
        <ele>900.0</ele>
        <time>2020-09-29T14:32:26Z</time>
      </trkpt>
      <trkpt lat="40.9988000" lon="-3.3010350">
        <ele>900.0</ele>
        <time>2020-09-29T14:32:27Z</time>
      </trkpt>
      <trkpt lat="40.9987520" lon="-3.3010180">
        <ele>900.0</ele>
        <time>2020-09-29T14:32:28Z</time>
      </trkpt>
      <trkpt lat="40.9987320" lon="-3.3010020">
        <ele>901.0</ele>
        <time>2020-09-29T14:32:29Z</time>
      </trkpt>
      <trkpt lat="40.9987120" lon="-3.3009780">
        <ele>901.0</ele>
        <time>2020-09-29T14:32:30Z</time>
      </trkpt>
      <trkpt lat="40.9987120" lon="-3.3009780">
        <ele>901.0</ele>
        <time>2020-09-29T14:32:31Z</time>
      </trkpt>
      <trkpt lat="40.9986780" lon="-3.3009300">
        <ele>901.0</ele>
        <time>2020-09-29T14:32:32Z</time>
      </trkpt>
      <trkpt lat="40.9986780" lon="-3.3009300">
        <ele>901.0</ele>
        <time>2020-09-29T14:32:33Z</time>
      </trkpt>
      <trkpt lat="40.9986570" lon="-3.3008750">
        <ele>901.0</ele>
        <time>2020-09-29T14:32:34Z</time>
      </trkpt>
      <trkpt lat="40.9986570" lon="-3.3008750">
        <ele>902.0</ele>
        <time>2020-09-29T14:32:35Z</time>
      </trkpt>
      <trkpt lat="40.9986430" lon="-3.3008100">
        <ele>902.0</ele>
        <time>2020-09-29T14:32:36Z</time>
      </trkpt>
      <trkpt lat="40.9986430" lon="-3.3008100">
        <ele>902.0</ele>
        <time>2020-09-29T14:32:37Z</time>
      </trkpt>
      <trkpt lat="40.9986420" lon="-3.3007430">
        <ele>902.0</ele>
        <time>2020-09-29T14:32:38Z</time>
      </trkpt>
      <trkpt lat="40.9986420" lon="-3.3007430">
        <ele>902.0</ele>
        <time>2020-09-29T14:32:39Z</time>
      </trkpt>
      <trkpt lat="40.9986470" lon="-3.3006750">
        <ele>902.0</ele>
        <time>2020-09-29T14:32:40Z</time>
      </trkpt>
      <trkpt lat="40.9986400" lon="-3.3006430">
        <ele>902.0</ele>
        <time>2020-09-29T14:32:41Z</time>
      </trkpt>
      <trkpt lat="40.9986400" lon="-3.3006430">
        <ele>903.0</ele>
        <time>2020-09-29T14:32:42Z</time>
      </trkpt>
      <trkpt lat="40.9986300" lon="-3.3005900">
        <ele>903.0</ele>
        <time>2020-09-29T14:32:43Z</time>
      </trkpt>
      <trkpt lat="40.9986300" lon="-3.3005900">
        <ele>903.0</ele>
        <time>2020-09-29T14:32:44Z</time>
      </trkpt>
      <trkpt lat="40.9986180" lon="-3.3005280">
        <ele>903.0</ele>
        <time>2020-09-29T14:32:45Z</time>
      </trkpt>
      <trkpt lat="40.9986070" lon="-3.3005020">
        <ele>904.0</ele>
        <time>2020-09-29T14:32:46Z</time>
      </trkpt>
      <trkpt lat="40.9986070" lon="-3.3005020">
        <ele>904.0</ele>
        <time>2020-09-29T14:32:47Z</time>
      </trkpt>
      <trkpt lat="40.9985830" lon="-3.3004400">
        <ele>904.0</ele>
        <time>2020-09-29T14:32:48Z</time>
      </trkpt>
      <trkpt lat="40.9985670" lon="-3.3004130">
        <ele>904.0</ele>
        <time>2020-09-29T14:32:49Z</time>
      </trkpt>
      <trkpt lat="40.9985670" lon="-3.3004130">
        <ele>904.0</ele>
        <time>2020-09-29T14:32:50Z</time>
      </trkpt>
      <trkpt lat="40.9985270" lon="-3.3003650">
        <ele>905.0</ele>
        <time>2020-09-29T14:32:51Z</time>
      </trkpt>
      <trkpt lat="40.9985270" lon="-3.3003650">
        <ele>905.0</ele>
        <time>2020-09-29T14:32:52Z</time>
      </trkpt>
      <trkpt lat="40.9984870" lon="-3.3003170">
        <ele>905.0</ele>
        <time>2020-09-29T14:32:53Z</time>
      </trkpt>
      <trkpt lat="40.9984620" lon="-3.3003020">
        <ele>905.0</ele>
        <time>2020-09-29T14:32:54Z</time>
      </trkpt>
      <trkpt lat="40.9984370" lon="-3.3002870">
        <ele>906.0</ele>
        <time>2020-09-29T14:32:55Z</time>
      </trkpt>
      <trkpt lat="40.9984370" lon="-3.3002870">
        <ele>906.0</ele>
        <time>2020-09-29T14:32:56Z</time>
      </trkpt>
      <trkpt lat="40.9983830" lon="-3.3002600">
        <ele>906.0</ele>
        <time>2020-09-29T14:32:57Z</time>
      </trkpt>
      <trkpt lat="40.9983570" lon="-3.3002430">
        <ele>906.0</ele>
        <time>2020-09-29T14:32:58Z</time>
      </trkpt>
      <trkpt lat="40.9983320" lon="-3.3002300">
        <ele>907.0</ele>
        <time>2020-09-29T14:32:59Z</time>
      </trkpt>
      <trkpt lat="40.9983320" lon="-3.3002300">
        <ele>907.0</ele>
        <time>2020-09-29T14:33:00Z</time>
      </trkpt>
      <trkpt lat="40.9982780" lon="-3.3002020">
        <ele>907.0</ele>
        <time>2020-09-29T14:33:01Z</time>
      </trkpt>
      <trkpt lat="40.9982780" lon="-3.3002020">
        <ele>907.0</ele>
        <time>2020-09-29T14:33:02Z</time>
      </trkpt>
      <trkpt lat="40.9982300" lon="-3.3001570">
        <ele>907.0</ele>
        <time>2020-09-29T14:33:03Z</time>
      </trkpt>
      <trkpt lat="40.9982300" lon="-3.3001570">
        <ele>907.0</ele>
        <time>2020-09-29T14:33:04Z</time>
      </trkpt>
      <trkpt lat="40.9981830" lon="-3.3001070">
        <ele>907.0</ele>
        <time>2020-09-29T14:33:05Z</time>
      </trkpt>
      <trkpt lat="40.9981830" lon="-3.3001070">
        <ele>907.0</ele>
        <time>2020-09-29T14:33:06Z</time>
      </trkpt>
      <trkpt lat="40.9981530" lon="-3.3000330">
        <ele>908.0</ele>
        <time>2020-09-29T14:33:07Z</time>
      </trkpt>
      <trkpt lat="40.9981530" lon="-3.3000330">
        <ele>908.0</ele>
        <time>2020-09-29T14:33:08Z</time>
      </trkpt>
      <trkpt lat="40.9981200" lon="-3.2999570">
        <ele>908.0</ele>
        <time>2020-09-29T14:33:09Z</time>
      </trkpt>
      <trkpt lat="40.9981200" lon="-3.2999570">
        <ele>908.0</ele>
        <time>2020-09-29T14:33:10Z</time>
      </trkpt>
      <trkpt lat="40.9980830" lon="-3.2998830">
        <ele>908.0</ele>
        <time>2020-09-29T14:33:11Z</time>
      </trkpt>
      <trkpt lat="40.9980830" lon="-3.2998830">
        <ele>908.0</ele>
        <time>2020-09-29T14:33:12Z</time>
      </trkpt>
      <trkpt lat="40.9980320" lon="-3.2998200">
        <ele>908.0</ele>
        <time>2020-09-29T14:33:13Z</time>
      </trkpt>
      <trkpt lat="40.9980320" lon="-3.2998200">
        <ele>908.0</ele>
        <time>2020-09-29T14:33:14Z</time>
      </trkpt>
      <trkpt lat="40.9979670" lon="-3.2997620">
        <ele>908.0</ele>
        <time>2020-09-29T14:33:15Z</time>
      </trkpt>
      <trkpt lat="40.9979300" lon="-3.2997400">
        <ele>908.0</ele>
        <time>2020-09-29T14:33:16Z</time>
      </trkpt>
      <trkpt lat="40.9979300" lon="-3.2997400">
        <ele>908.0</ele>
        <time>2020-09-29T14:33:17Z</time>
      </trkpt>
      <trkpt lat="40.9978530" lon="-3.2997020">
        <ele>908.0</ele>
        <time>2020-09-29T14:33:18Z</time>
      </trkpt>
      <trkpt lat="40.9978150" lon="-3.2996830">
        <ele>908.0</ele>
        <time>2020-09-29T14:33:19Z</time>
      </trkpt>
      <trkpt lat="40.9978150" lon="-3.2996830">
        <ele>908.0</ele>
        <time>2020-09-29T14:33:20Z</time>
      </trkpt>
      <trkpt lat="40.9977320" lon="-3.2996520">
        <ele>908.0</ele>
        <time>2020-09-29T14:33:21Z</time>
      </trkpt>
      <trkpt lat="40.9976920" lon="-3.2996350">
        <ele>908.0</ele>
        <time>2020-09-29T14:33:22Z</time>
      </trkpt>
      <trkpt lat="40.9976920" lon="-3.2996350">
        <ele>908.0</ele>
        <time>2020-09-29T14:33:23Z</time>
      </trkpt>
      <trkpt lat="40.9976280" lon="-3.2995470">
        <ele>908.0</ele>
        <time>2020-09-29T14:33:24Z</time>
      </trkpt>
      <trkpt lat="40.9976280" lon="-3.2995470">
        <ele>908.0</ele>
        <time>2020-09-29T14:33:25Z</time>
      </trkpt>
      <trkpt lat="40.9975950" lon="-3.2994450">
        <ele>908.0</ele>
        <time>2020-09-29T14:33:26Z</time>
      </trkpt>
      <trkpt lat="40.9975950" lon="-3.2994450">
        <ele>908.0</ele>
        <time>2020-09-29T14:33:27Z</time>
      </trkpt>
      <trkpt lat="40.9976070" lon="-3.2993450">
        <ele>908.0</ele>
        <time>2020-09-29T14:33:28Z</time>
      </trkpt>
      <trkpt lat="40.9976170" lon="-3.2992920">
        <ele>908.0</ele>
        <time>2020-09-29T14:33:29Z</time>
      </trkpt>
      <trkpt lat="40.9976170" lon="-3.2992920">
        <ele>908.0</ele>
        <time>2020-09-29T14:33:30Z</time>
      </trkpt>
      <trkpt lat="40.9976180" lon="-3.2991730">
        <ele>908.0</ele>
        <time>2020-09-29T14:33:31Z</time>
      </trkpt>
      <trkpt lat="40.9976180" lon="-3.2991730">
        <ele>908.0</ele>
        <time>2020-09-29T14:33:32Z</time>
      </trkpt>
      <trkpt lat="40.9975930" lon="-3.2990580">
        <ele>908.0</ele>
        <time>2020-09-29T14:33:33Z</time>
      </trkpt>
      <trkpt lat="40.9975670" lon="-3.2990080">
        <ele>908.0</ele>
        <time>2020-09-29T14:33:34Z</time>
      </trkpt>
      <trkpt lat="40.9975670" lon="-3.2990080">
        <ele>908.0</ele>
        <time>2020-09-29T14:33:35Z</time>
      </trkpt>
      <trkpt lat="40.9974950" lon="-3.2989180">
        <ele>908.0</ele>
        <time>2020-09-29T14:33:36Z</time>
      </trkpt>
      <trkpt lat="40.9974530" lon="-3.2988800">
        <ele>908.0</ele>
        <time>2020-09-29T14:33:37Z</time>
      </trkpt>
      <trkpt lat="40.9974530" lon="-3.2988800">
        <ele>908.0</ele>
        <time>2020-09-29T14:33:38Z</time>
      </trkpt>
      <trkpt lat="40.9973650" lon="-3.2988130">
        <ele>908.0</ele>
        <time>2020-09-29T14:33:39Z</time>
      </trkpt>
      <trkpt lat="40.9973250" lon="-3.2987800">
        <ele>908.0</ele>
        <time>2020-09-29T14:33:40Z</time>
      </trkpt>
      <trkpt lat="40.9973250" lon="-3.2987800">
        <ele>908.0</ele>
        <time>2020-09-29T14:33:41Z</time>
      </trkpt>
      <trkpt lat="40.9972550" lon="-3.2987120">
        <ele>908.0</ele>
        <time>2020-09-29T14:33:42Z</time>
      </trkpt>
      <trkpt lat="40.9972550" lon="-3.2987120">
        <ele>908.0</ele>
        <time>2020-09-29T14:33:43Z</time>
      </trkpt>
      <trkpt lat="40.9972450" lon="-3.2986120">
        <ele>908.0</ele>
        <time>2020-09-29T14:33:44Z</time>
      </trkpt>
      <trkpt lat="40.9972570" lon="-3.2985600">
        <ele>909.0</ele>
        <time>2020-09-29T14:33:45Z</time>
      </trkpt>
      <trkpt lat="40.9972570" lon="-3.2985600">
        <ele>909.0</ele>
        <time>2020-09-29T14:33:46Z</time>
      </trkpt>
      <trkpt lat="40.9972970" lon="-3.2984720">
        <ele>909.0</ele>
        <time>2020-09-29T14:33:47Z</time>
      </trkpt>
      <trkpt lat="40.9972970" lon="-3.2984720">
        <ele>909.0</ele>
        <time>2020-09-29T14:33:48Z</time>
      </trkpt>
      <trkpt lat="40.9972970" lon="-3.2983720">
        <ele>909.0</ele>
        <time>2020-09-29T14:33:49Z</time>
      </trkpt>
      <trkpt lat="40.9972970" lon="-3.2983720">
        <ele>910.0</ele>
        <time>2020-09-29T14:33:50Z</time>
      </trkpt>
      <trkpt lat="40.9972480" lon="-3.2982830">
        <ele>910.0</ele>
        <time>2020-09-29T14:33:51Z</time>
      </trkpt>
      <trkpt lat="40.9972480" lon="-3.2982830">
        <ele>910.0</ele>
        <time>2020-09-29T14:33:52Z</time>
      </trkpt>
      <trkpt lat="40.9971850" lon="-3.2981920">
        <ele>910.0</ele>
        <time>2020-09-29T14:33:53Z</time>
      </trkpt>
      <trkpt lat="40.9971850" lon="-3.2981920">
        <ele>911.0</ele>
        <time>2020-09-29T14:33:54Z</time>
      </trkpt>
      <trkpt lat="40.9971330" lon="-3.2981000">
        <ele>911.0</ele>
        <time>2020-09-29T14:33:55Z</time>
      </trkpt>
      <trkpt lat="40.9971330" lon="-3.2981000">
        <ele>911.0</ele>
        <time>2020-09-29T14:33:56Z</time>
      </trkpt>
      <trkpt lat="40.9970920" lon="-3.2980030">
        <ele>911.0</ele>
        <time>2020-09-29T14:33:57Z</time>
      </trkpt>
      <trkpt lat="40.9970920" lon="-3.2980030">
        <ele>911.0</ele>
        <time>2020-09-29T14:33:58Z</time>
      </trkpt>
      <trkpt lat="40.9970500" lon="-3.2979070">
        <ele>911.0</ele>
        <time>2020-09-29T14:33:59Z</time>
      </trkpt>
      <trkpt lat="40.9970500" lon="-3.2979070">
        <ele>911.0</ele>
        <time>2020-09-29T14:34:00Z</time>
      </trkpt>
      <trkpt lat="40.9970170" lon="-3.2977870">
        <ele>911.0</ele>
        <time>2020-09-29T14:34:01Z</time>
      </trkpt>
      <trkpt lat="40.9970170" lon="-3.2977870">
        <ele>911.0</ele>
        <time>2020-09-29T14:34:02Z</time>
      </trkpt>
      <trkpt lat="40.9969770" lon="-3.2976600">
        <ele>911.0</ele>
        <time>2020-09-29T14:34:03Z</time>
      </trkpt>
      <trkpt lat="40.9969770" lon="-3.2976600">
        <ele>912.0</ele>
        <time>2020-09-29T14:34:04Z</time>
      </trkpt>
      <trkpt lat="40.9969400" lon="-3.2975430">
        <ele>912.0</ele>
        <time>2020-09-29T14:34:05Z</time>
      </trkpt>
      <trkpt lat="40.9969400" lon="-3.2975430">
        <ele>912.0</ele>
        <time>2020-09-29T14:34:06Z</time>
      </trkpt>
      <trkpt lat="40.9968850" lon="-3.2974500">
        <ele>912.0</ele>
        <time>2020-09-29T14:34:07Z</time>
      </trkpt>
      <trkpt lat="40.9968850" lon="-3.2974500">
        <ele>912.0</ele>
        <time>2020-09-29T14:34:08Z</time>
      </trkpt>
      <trkpt lat="40.9968150" lon="-3.2973730">
        <ele>912.0</ele>
        <time>2020-09-29T14:34:09Z</time>
      </trkpt>
      <trkpt lat="40.9968150" lon="-3.2973730">
        <ele>912.0</ele>
        <time>2020-09-29T14:34:10Z</time>
      </trkpt>
      <trkpt lat="40.9967320" lon="-3.2973030">
        <ele>912.0</ele>
        <time>2020-09-29T14:34:11Z</time>
      </trkpt>
      <trkpt lat="40.9966800" lon="-3.2972850">
        <ele>912.0</ele>
        <time>2020-09-29T14:34:12Z</time>
      </trkpt>
      <trkpt lat="40.9966800" lon="-3.2972850">
        <ele>912.0</ele>
        <time>2020-09-29T14:34:13Z</time>
      </trkpt>
      <trkpt lat="40.9965780" lon="-3.2972620">
        <ele>912.0</ele>
        <time>2020-09-29T14:34:14Z</time>
      </trkpt>
      <trkpt lat="40.9965780" lon="-3.2972620">
        <ele>912.0</ele>
        <time>2020-09-29T14:34:15Z</time>
      </trkpt>
      <trkpt lat="40.9964720" lon="-3.2972450">
        <ele>912.0</ele>
        <time>2020-09-29T14:34:16Z</time>
      </trkpt>
      <trkpt lat="40.9964720" lon="-3.2972450">
        <ele>912.0</ele>
        <time>2020-09-29T14:34:17Z</time>
      </trkpt>
      <trkpt lat="40.9963630" lon="-3.2972520">
        <ele>912.0</ele>
        <time>2020-09-29T14:34:18Z</time>
      </trkpt>
      <trkpt lat="40.9963630" lon="-3.2972520">
        <ele>912.0</ele>
        <time>2020-09-29T14:34:19Z</time>
      </trkpt>
      <trkpt lat="40.9962570" lon="-3.2972900">
        <ele>912.0</ele>
        <time>2020-09-29T14:34:20Z</time>
      </trkpt>
      <trkpt lat="40.9962570" lon="-3.2972900">
        <ele>912.0</ele>
        <time>2020-09-29T14:34:21Z</time>
      </trkpt>
      <trkpt lat="40.9961550" lon="-3.2973970">
        <ele>912.0</ele>
        <time>2020-09-29T14:34:22Z</time>
      </trkpt>
      <trkpt lat="40.9961550" lon="-3.2973970">
        <ele>912.0</ele>
        <time>2020-09-29T14:34:23Z</time>
      </trkpt>
      <trkpt lat="40.9960750" lon="-3.2975600">
        <ele>910.0</ele>
        <time>2020-09-29T14:34:24Z</time>
      </trkpt>
      <trkpt lat="40.9960380" lon="-3.2976450">
        <ele>910.0</ele>
        <time>2020-09-29T14:34:25Z</time>
      </trkpt>
      <trkpt lat="40.9960380" lon="-3.2976450">
        <ele>909.0</ele>
        <time>2020-09-29T14:34:26Z</time>
      </trkpt>
      <trkpt lat="40.9959570" lon="-3.2977720">
        <ele>909.0</ele>
        <time>2020-09-29T14:34:27Z</time>
      </trkpt>
      <trkpt lat="40.9959570" lon="-3.2977720">
        <ele>908.0</ele>
        <time>2020-09-29T14:34:28Z</time>
      </trkpt>
      <trkpt lat="40.9958620" lon="-3.2978450">
        <ele>908.0</ele>
        <time>2020-09-29T14:34:29Z</time>
      </trkpt>
      <trkpt lat="40.9958120" lon="-3.2978750">
        <ele>907.0</ele>
        <time>2020-09-29T14:34:30Z</time>
      </trkpt>
      <trkpt lat="40.9958120" lon="-3.2978750">
        <ele>907.0</ele>
        <time>2020-09-29T14:34:31Z</time>
      </trkpt>
      <trkpt lat="40.9957020" lon="-3.2979480">
        <ele>907.0</ele>
        <time>2020-09-29T14:34:32Z</time>
      </trkpt>
      <trkpt lat="40.9956520" lon="-3.2979980">
        <ele>907.0</ele>
        <time>2020-09-29T14:34:33Z</time>
      </trkpt>
      <trkpt lat="40.9956520" lon="-3.2979980">
        <ele>906.0</ele>
        <time>2020-09-29T14:34:34Z</time>
      </trkpt>
      <trkpt lat="40.9955530" lon="-3.2981170">
        <ele>906.0</ele>
        <time>2020-09-29T14:34:35Z</time>
      </trkpt>
      <trkpt lat="40.9955530" lon="-3.2981170">
        <ele>906.0</ele>
        <time>2020-09-29T14:34:36Z</time>
      </trkpt>
      <trkpt lat="40.9954480" lon="-3.2982250">
        <ele>906.0</ele>
        <time>2020-09-29T14:34:37Z</time>
      </trkpt>
      <trkpt lat="40.9954480" lon="-3.2982250">
        <ele>906.0</ele>
        <time>2020-09-29T14:34:38Z</time>
      </trkpt>
      <trkpt lat="40.9953400" lon="-3.2983280">
        <ele>906.0</ele>
        <time>2020-09-29T14:34:39Z</time>
      </trkpt>
      <trkpt lat="40.9953400" lon="-3.2983280">
        <ele>905.0</ele>
        <time>2020-09-29T14:34:40Z</time>
      </trkpt>
      <trkpt lat="40.9952330" lon="-3.2984280">
        <ele>905.0</ele>
        <time>2020-09-29T14:34:41Z</time>
      </trkpt>
      <trkpt lat="40.9951900" lon="-3.2984900">
        <ele>905.0</ele>
        <time>2020-09-29T14:34:42Z</time>
      </trkpt>
      <trkpt lat="40.9951900" lon="-3.2984900">
        <ele>905.0</ele>
        <time>2020-09-29T14:34:43Z</time>
      </trkpt>
      <trkpt lat="40.9951420" lon="-3.2986320">
        <ele>905.0</ele>
        <time>2020-09-29T14:34:44Z</time>
      </trkpt>
      <trkpt lat="40.9951420" lon="-3.2986320">
        <ele>905.0</ele>
        <time>2020-09-29T14:34:45Z</time>
      </trkpt>
      <trkpt lat="40.9951120" lon="-3.2987420">
        <ele>905.0</ele>
        <time>2020-09-29T14:34:46Z</time>
      </trkpt>
      <trkpt lat="40.9951120" lon="-3.2987420">
        <ele>905.0</ele>
        <time>2020-09-29T14:34:47Z</time>
      </trkpt>
      <trkpt lat="40.9950700" lon="-3.2988180">
        <ele>905.0</ele>
        <time>2020-09-29T14:34:48Z</time>
      </trkpt>
      <trkpt lat="40.9950400" lon="-3.2988470">
        <ele>905.0</ele>
        <time>2020-09-29T14:34:49Z</time>
      </trkpt>
      <trkpt lat="40.9950400" lon="-3.2988470">
        <ele>905.0</ele>
        <time>2020-09-29T14:34:50Z</time>
      </trkpt>
      <trkpt lat="40.9949620" lon="-3.2989150">
        <ele>905.0</ele>
        <time>2020-09-29T14:34:51Z</time>
      </trkpt>
      <trkpt lat="40.9949200" lon="-3.2989520">
        <ele>905.0</ele>
        <time>2020-09-29T14:34:52Z</time>
      </trkpt>
      <trkpt lat="40.9949200" lon="-3.2989520">
        <ele>905.0</ele>
        <time>2020-09-29T14:34:53Z</time>
      </trkpt>
      <trkpt lat="40.9948380" lon="-3.2990250">
        <ele>905.0</ele>
        <time>2020-09-29T14:34:54Z</time>
      </trkpt>
      <trkpt lat="40.9947980" lon="-3.2990620">
        <ele>905.0</ele>
        <time>2020-09-29T14:34:55Z</time>
      </trkpt>
      <trkpt lat="40.9947980" lon="-3.2990620">
        <ele>905.0</ele>
        <time>2020-09-29T14:34:56Z</time>
      </trkpt>
      <trkpt lat="40.9947170" lon="-3.2991400">
        <ele>905.0</ele>
        <time>2020-09-29T14:34:57Z</time>
      </trkpt>
      <trkpt lat="40.9946780" lon="-3.2991820">
        <ele>905.0</ele>
        <time>2020-09-29T14:34:58Z</time>
      </trkpt>
      <trkpt lat="40.9946780" lon="-3.2991820">
        <ele>905.0</ele>
        <time>2020-09-29T14:34:59Z</time>
      </trkpt>
      <trkpt lat="40.9946080" lon="-3.2992850">
        <ele>905.0</ele>
        <time>2020-09-29T14:35:00Z</time>
      </trkpt>
      <trkpt lat="40.9946080" lon="-3.2992850">
        <ele>905.0</ele>
        <time>2020-09-29T14:35:01Z</time>
      </trkpt>
      <trkpt lat="40.9945700" lon="-3.2994150">
        <ele>905.0</ele>
        <time>2020-09-29T14:35:02Z</time>
      </trkpt>
      <trkpt lat="40.9945700" lon="-3.2994150">
        <ele>905.0</ele>
        <time>2020-09-29T14:35:03Z</time>
      </trkpt>
      <trkpt lat="40.9945430" lon="-3.2995330">
        <ele>905.0</ele>
        <time>2020-09-29T14:35:04Z</time>
      </trkpt>
      <trkpt lat="40.9945230" lon="-3.2995730">
        <ele>905.0</ele>
        <time>2020-09-29T14:35:05Z</time>
      </trkpt>
      <trkpt lat="40.9945230" lon="-3.2995730">
        <ele>905.0</ele>
        <time>2020-09-29T14:35:06Z</time>
      </trkpt>
      <trkpt lat="40.9944720" lon="-3.2996330">
        <ele>905.0</ele>
        <time>2020-09-29T14:35:07Z</time>
      </trkpt>
      <trkpt lat="40.9944720" lon="-3.2996330">
        <ele>905.0</ele>
        <time>2020-09-29T14:35:08Z</time>
      </trkpt>
      <trkpt lat="40.9943920" lon="-3.2996550">
        <ele>905.0</ele>
        <time>2020-09-29T14:35:09Z</time>
      </trkpt>
      <trkpt lat="40.9943920" lon="-3.2996550">
        <ele>905.0</ele>
        <time>2020-09-29T14:35:10Z</time>
      </trkpt>
      <trkpt lat="40.9942980" lon="-3.2996620">
        <ele>905.0</ele>
        <time>2020-09-29T14:35:11Z</time>
      </trkpt>
      <trkpt lat="40.9942530" lon="-3.2996750">
        <ele>905.0</ele>
        <time>2020-09-29T14:35:12Z</time>
      </trkpt>
      <trkpt lat="40.9942100" lon="-3.2996880">
        <ele>905.0</ele>
        <time>2020-09-29T14:35:13Z</time>
      </trkpt>
      <trkpt lat="40.9942100" lon="-3.2996880">
        <ele>905.0</ele>
        <time>2020-09-29T14:35:14Z</time>
      </trkpt>
      <trkpt lat="40.9941280" lon="-3.2997370">
        <ele>905.0</ele>
        <time>2020-09-29T14:35:15Z</time>
      </trkpt>
      <trkpt lat="40.9940930" lon="-3.2997680">
        <ele>905.0</ele>
        <time>2020-09-29T14:35:16Z</time>
      </trkpt>
      <trkpt lat="40.9940930" lon="-3.2997680">
        <ele>905.0</ele>
        <time>2020-09-29T14:35:17Z</time>
      </trkpt>
      <trkpt lat="40.9940000" lon="-3.2997970">
        <ele>905.0</ele>
        <time>2020-09-29T14:35:18Z</time>
      </trkpt>
      <trkpt lat="40.9940000" lon="-3.2997970">
        <ele>905.0</ele>
        <time>2020-09-29T14:35:19Z</time>
      </trkpt>
      <trkpt lat="40.9939000" lon="-3.2997870">
        <ele>905.0</ele>
        <time>2020-09-29T14:35:20Z</time>
      </trkpt>
      <trkpt lat="40.9938480" lon="-3.2997920">
        <ele>905.0</ele>
        <time>2020-09-29T14:35:21Z</time>
      </trkpt>
      <trkpt lat="40.9938480" lon="-3.2997920">
        <ele>905.0</ele>
        <time>2020-09-29T14:35:22Z</time>
      </trkpt>
      <trkpt lat="40.9937520" lon="-3.2998230">
        <ele>905.0</ele>
        <time>2020-09-29T14:35:23Z</time>
      </trkpt>
      <trkpt lat="40.9937520" lon="-3.2998230">
        <ele>905.0</ele>
        <time>2020-09-29T14:35:24Z</time>
      </trkpt>
      <trkpt lat="40.9936550" lon="-3.2998680">
        <ele>905.0</ele>
        <time>2020-09-29T14:35:25Z</time>
      </trkpt>
      <trkpt lat="40.9936550" lon="-3.2998680">
        <ele>905.0</ele>
        <time>2020-09-29T14:35:26Z</time>
      </trkpt>
      <trkpt lat="40.9935580" lon="-3.2999100">
        <ele>905.0</ele>
        <time>2020-09-29T14:35:27Z</time>
      </trkpt>
      <trkpt lat="40.9935580" lon="-3.2999100">
        <ele>905.0</ele>
        <time>2020-09-29T14:35:28Z</time>
      </trkpt>
      <trkpt lat="40.9934550" lon="-3.2999250">
        <ele>906.0</ele>
        <time>2020-09-29T14:35:29Z</time>
      </trkpt>
      <trkpt lat="40.9934030" lon="-3.2999120">
        <ele>906.0</ele>
        <time>2020-09-29T14:35:30Z</time>
      </trkpt>
      <trkpt lat="40.9934030" lon="-3.2999120">
        <ele>906.0</ele>
        <time>2020-09-29T14:35:31Z</time>
      </trkpt>
      <trkpt lat="40.9933020" lon="-3.2998800">
        <ele>906.0</ele>
        <time>2020-09-29T14:35:32Z</time>
      </trkpt>
      <trkpt lat="40.9933020" lon="-3.2998800">
        <ele>906.0</ele>
        <time>2020-09-29T14:35:33Z</time>
      </trkpt>
      <trkpt lat="40.9931900" lon="-3.2998770">
        <ele>906.0</ele>
        <time>2020-09-29T14:35:34Z</time>
      </trkpt>
      <trkpt lat="40.9931900" lon="-3.2998770">
        <ele>906.0</ele>
        <time>2020-09-29T14:35:35Z</time>
      </trkpt>
      <trkpt lat="40.9930850" lon="-3.2998980">
        <ele>906.0</ele>
        <time>2020-09-29T14:35:36Z</time>
      </trkpt>
      <trkpt lat="40.9930300" lon="-3.2999070">
        <ele>906.0</ele>
        <time>2020-09-29T14:35:37Z</time>
      </trkpt>
      <trkpt lat="40.9930300" lon="-3.2999070">
        <ele>906.0</ele>
        <time>2020-09-29T14:35:38Z</time>
      </trkpt>
      <trkpt lat="40.9929180" lon="-3.2999030">
        <ele>906.0</ele>
        <time>2020-09-29T14:35:39Z</time>
      </trkpt>
      <trkpt lat="40.9929180" lon="-3.2999030">
        <ele>906.0</ele>
        <time>2020-09-29T14:35:40Z</time>
      </trkpt>
      <trkpt lat="40.9928130" lon="-3.2998630">
        <ele>906.0</ele>
        <time>2020-09-29T14:35:41Z</time>
      </trkpt>
      <trkpt lat="40.9927580" lon="-3.2998480">
        <ele>906.0</ele>
        <time>2020-09-29T14:35:42Z</time>
      </trkpt>
      <trkpt lat="40.9927580" lon="-3.2998480">
        <ele>906.0</ele>
        <time>2020-09-29T14:35:43Z</time>
      </trkpt>
      <trkpt lat="40.9926470" lon="-3.2998370">
        <ele>906.0</ele>
        <time>2020-09-29T14:35:44Z</time>
      </trkpt>
      <trkpt lat="40.9925900" lon="-3.2998300">
        <ele>906.0</ele>
        <time>2020-09-29T14:35:45Z</time>
      </trkpt>
      <trkpt lat="40.9925900" lon="-3.2998300">
        <ele>906.0</ele>
        <time>2020-09-29T14:35:46Z</time>
      </trkpt>
      <trkpt lat="40.9924750" lon="-3.2998150">
        <ele>906.0</ele>
        <time>2020-09-29T14:35:47Z</time>
      </trkpt>
      <trkpt lat="40.9924170" lon="-3.2998070">
        <ele>906.0</ele>
        <time>2020-09-29T14:35:48Z</time>
      </trkpt>
      <trkpt lat="40.9924170" lon="-3.2998070">
        <ele>906.0</ele>
        <time>2020-09-29T14:35:49Z</time>
      </trkpt>
      <trkpt lat="40.9923000" lon="-3.2997920">
        <ele>906.0</ele>
        <time>2020-09-29T14:35:50Z</time>
      </trkpt>
      <trkpt lat="40.9923000" lon="-3.2997920">
        <ele>906.0</ele>
        <time>2020-09-29T14:35:51Z</time>
      </trkpt>
      <trkpt lat="40.9921880" lon="-3.2997900">
        <ele>906.0</ele>
        <time>2020-09-29T14:35:52Z</time>
      </trkpt>
      <trkpt lat="40.9921370" lon="-3.2998080">
        <ele>906.0</ele>
        <time>2020-09-29T14:35:53Z</time>
      </trkpt>
      <trkpt lat="40.9921370" lon="-3.2998080">
        <ele>906.0</ele>
        <time>2020-09-29T14:35:54Z</time>
      </trkpt>
      <trkpt lat="40.9920480" lon="-3.2998920">
        <ele>906.0</ele>
        <time>2020-09-29T14:35:55Z</time>
      </trkpt>
      <trkpt lat="40.9920480" lon="-3.2998920">
        <ele>906.0</ele>
        <time>2020-09-29T14:35:56Z</time>
      </trkpt>
      <trkpt lat="40.9919930" lon="-3.3000230">
        <ele>906.0</ele>
        <time>2020-09-29T14:35:57Z</time>
      </trkpt>
      <trkpt lat="40.9919930" lon="-3.3000230">
        <ele>906.0</ele>
        <time>2020-09-29T14:35:58Z</time>
      </trkpt>
      <trkpt lat="40.9919830" lon="-3.3001830">
        <ele>906.0</ele>
        <time>2020-09-29T14:35:59Z</time>
      </trkpt>
      <trkpt lat="40.9919830" lon="-3.3001830">
        <ele>906.0</ele>
        <time>2020-09-29T14:36:00Z</time>
      </trkpt>
      <trkpt lat="40.9920030" lon="-3.3003480">
        <ele>906.0</ele>
        <time>2020-09-29T14:36:01Z</time>
      </trkpt>
      <trkpt lat="40.9920030" lon="-3.3003480">
        <ele>906.0</ele>
        <time>2020-09-29T14:36:02Z</time>
      </trkpt>
      <trkpt lat="40.9920200" lon="-3.3005170">
        <ele>906.0</ele>
        <time>2020-09-29T14:36:03Z</time>
      </trkpt>
      <trkpt lat="40.9920280" lon="-3.3005980">
        <ele>906.0</ele>
        <time>2020-09-29T14:36:04Z</time>
      </trkpt>
      <trkpt lat="40.9920280" lon="-3.3005980">
        <ele>906.0</ele>
        <time>2020-09-29T14:36:05Z</time>
      </trkpt>
      <trkpt lat="40.9920330" lon="-3.3007580">
        <ele>906.0</ele>
        <time>2020-09-29T14:36:06Z</time>
      </trkpt>
      <trkpt lat="40.9920330" lon="-3.3007580">
        <ele>906.0</ele>
        <time>2020-09-29T14:36:07Z</time>
      </trkpt>
      <trkpt lat="40.9920220" lon="-3.3009100">
        <ele>906.0</ele>
        <time>2020-09-29T14:36:08Z</time>
      </trkpt>
      <trkpt lat="40.9920150" lon="-3.3009820">
        <ele>906.0</ele>
        <time>2020-09-29T14:36:09Z</time>
      </trkpt>
      <trkpt lat="40.9920150" lon="-3.3009820">
        <ele>906.0</ele>
        <time>2020-09-29T14:36:10Z</time>
      </trkpt>
      <trkpt lat="40.9919950" lon="-3.3011270">
        <ele>906.0</ele>
        <time>2020-09-29T14:36:11Z</time>
      </trkpt>
      <trkpt lat="40.9919950" lon="-3.3011270">
        <ele>906.0</ele>
        <time>2020-09-29T14:36:12Z</time>
      </trkpt>
      <trkpt lat="40.9919850" lon="-3.3012780">
        <ele>906.0</ele>
        <time>2020-09-29T14:36:13Z</time>
      </trkpt>
      <trkpt lat="40.9919850" lon="-3.3012780">
        <ele>906.0</ele>
        <time>2020-09-29T14:36:14Z</time>
      </trkpt>
      <trkpt lat="40.9919400" lon="-3.3013820">
        <ele>906.0</ele>
        <time>2020-09-29T14:36:15Z</time>
      </trkpt>
      <trkpt lat="40.9919400" lon="-3.3013820">
        <ele>906.0</ele>
        <time>2020-09-29T14:36:16Z</time>
      </trkpt>
      <trkpt lat="40.9918530" lon="-3.3014080">
        <ele>906.0</ele>
        <time>2020-09-29T14:36:17Z</time>
      </trkpt>
      <trkpt lat="40.9918150" lon="-3.3013920">
        <ele>906.0</ele>
        <time>2020-09-29T14:36:18Z</time>
      </trkpt>
      <trkpt lat="40.9918150" lon="-3.3013920">
        <ele>906.0</ele>
        <time>2020-09-29T14:36:19Z</time>
      </trkpt>
      <trkpt lat="40.9917580" lon="-3.3013130">
        <ele>906.0</ele>
        <time>2020-09-29T14:36:20Z</time>
      </trkpt>
      <trkpt lat="40.9917580" lon="-3.3013130">
        <ele>906.0</ele>
        <time>2020-09-29T14:36:21Z</time>
      </trkpt>
      <trkpt lat="40.9917200" lon="-3.3012100">
        <ele>906.0</ele>
        <time>2020-09-29T14:36:22Z</time>
      </trkpt>
      <trkpt lat="40.9917200" lon="-3.3012100">
        <ele>906.0</ele>
        <time>2020-09-29T14:36:23Z</time>
      </trkpt>
      <trkpt lat="40.9916830" lon="-3.3011120">
        <ele>906.0</ele>
        <time>2020-09-29T14:36:24Z</time>
      </trkpt>
      <trkpt lat="40.9916630" lon="-3.3010580">
        <ele>906.0</ele>
        <time>2020-09-29T14:36:25Z</time>
      </trkpt>
      <trkpt lat="40.9916630" lon="-3.3010580">
        <ele>906.0</ele>
        <time>2020-09-29T14:36:26Z</time>
      </trkpt>
      <trkpt lat="40.9916250" lon="-3.3009470">
        <ele>906.0</ele>
        <time>2020-09-29T14:36:27Z</time>
      </trkpt>
      <trkpt lat="40.9916250" lon="-3.3009470">
        <ele>906.0</ele>
        <time>2020-09-29T14:36:28Z</time>
      </trkpt>
      <trkpt lat="40.9915670" lon="-3.3008370">
        <ele>906.0</ele>
        <time>2020-09-29T14:36:29Z</time>
      </trkpt>
      <trkpt lat="40.9915670" lon="-3.3008370">
        <ele>906.0</ele>
        <time>2020-09-29T14:36:30Z</time>
      </trkpt>
      <trkpt lat="40.9914820" lon="-3.3007430">
        <ele>906.0</ele>
        <time>2020-09-29T14:36:31Z</time>
      </trkpt>
      <trkpt lat="40.9914820" lon="-3.3007430">
        <ele>906.0</ele>
        <time>2020-09-29T14:36:32Z</time>
      </trkpt>
      <trkpt lat="40.9913850" lon="-3.3006800">
        <ele>906.0</ele>
        <time>2020-09-29T14:36:33Z</time>
      </trkpt>
      <trkpt lat="40.9913380" lon="-3.3006520">
        <ele>906.0</ele>
        <time>2020-09-29T14:36:34Z</time>
      </trkpt>
      <trkpt lat="40.9912950" lon="-3.3006120">
        <ele>906.0</ele>
        <time>2020-09-29T14:36:35Z</time>
      </trkpt>
      <trkpt lat="40.9912950" lon="-3.3006120">
        <ele>906.0</ele>
        <time>2020-09-29T14:36:36Z</time>
      </trkpt>
      <trkpt lat="40.9912380" lon="-3.3005080">
        <ele>906.0</ele>
        <time>2020-09-29T14:36:37Z</time>
      </trkpt>
      <trkpt lat="40.9912380" lon="-3.3005080">
        <ele>906.0</ele>
        <time>2020-09-29T14:36:38Z</time>
      </trkpt>
      <trkpt lat="40.9912050" lon="-3.3003950">
        <ele>906.0</ele>
        <time>2020-09-29T14:36:39Z</time>
      </trkpt>
      <trkpt lat="40.9912050" lon="-3.3003950">
        <ele>906.0</ele>
        <time>2020-09-29T14:36:40Z</time>
      </trkpt>
      <trkpt lat="40.9911930" lon="-3.3002650">
        <ele>906.0</ele>
        <time>2020-09-29T14:36:41Z</time>
      </trkpt>
      <trkpt lat="40.9911830" lon="-3.3002050">
        <ele>906.0</ele>
        <time>2020-09-29T14:36:42Z</time>
      </trkpt>
      <trkpt lat="40.9911830" lon="-3.3002050">
        <ele>906.0</ele>
        <time>2020-09-29T14:36:43Z</time>
      </trkpt>
      <trkpt lat="40.9911420" lon="-3.3001030">
        <ele>906.0</ele>
        <time>2020-09-29T14:36:44Z</time>
      </trkpt>
      <trkpt lat="40.9911420" lon="-3.3001030">
        <ele>906.0</ele>
        <time>2020-09-29T14:36:45Z</time>
      </trkpt>
      <trkpt lat="40.9910830" lon="-3.3000120">
        <ele>907.0</ele>
        <time>2020-09-29T14:36:46Z</time>
      </trkpt>
      <trkpt lat="40.9910830" lon="-3.3000120">
        <ele>907.0</ele>
        <time>2020-09-29T14:36:47Z</time>
      </trkpt>
      <trkpt lat="40.9909900" lon="-3.2999550">
        <ele>907.0</ele>
        <time>2020-09-29T14:36:48Z</time>
      </trkpt>
      <trkpt lat="40.9909900" lon="-3.2999550">
        <ele>908.0</ele>
        <time>2020-09-29T14:36:49Z</time>
      </trkpt>
      <trkpt lat="40.9908980" lon="-3.2999300">
        <ele>908.0</ele>
        <time>2020-09-29T14:36:50Z</time>
      </trkpt>
      <trkpt lat="40.9908980" lon="-3.2999300">
        <ele>908.0</ele>
        <time>2020-09-29T14:36:51Z</time>
      </trkpt>
      <trkpt lat="40.9908120" lon="-3.2999180">
        <ele>908.0</ele>
        <time>2020-09-29T14:36:52Z</time>
      </trkpt>
      <trkpt lat="40.9908120" lon="-3.2999180">
        <ele>908.0</ele>
        <time>2020-09-29T14:36:53Z</time>
      </trkpt>
      <trkpt lat="40.9907300" lon="-3.2999050">
        <ele>908.0</ele>
        <time>2020-09-29T14:36:54Z</time>
      </trkpt>
      <trkpt lat="40.9907300" lon="-3.2999050">
        <ele>908.0</ele>
        <time>2020-09-29T14:36:55Z</time>
      </trkpt>
      <trkpt lat="40.9906530" lon="-3.2998920">
        <ele>908.0</ele>
        <time>2020-09-29T14:36:56Z</time>
      </trkpt>
      <trkpt lat="40.9906530" lon="-3.2998920">
        <ele>908.0</ele>
        <time>2020-09-29T14:36:57Z</time>
      </trkpt>
      <trkpt lat="40.9905920" lon="-3.2998850">
        <ele>908.0</ele>
        <time>2020-09-29T14:36:58Z</time>
      </trkpt>
      <trkpt lat="40.9905920" lon="-3.2998850">
        <ele>908.0</ele>
        <time>2020-09-29T14:36:59Z</time>
      </trkpt>
      <trkpt lat="40.9905350" lon="-3.2998750">
        <ele>910.0</ele>
        <time>2020-09-29T14:37:00Z</time>
      </trkpt>
      <trkpt lat="40.9905350" lon="-3.2998750">
        <ele>910.0</ele>
        <time>2020-09-29T14:37:01Z</time>
      </trkpt>
      <trkpt lat="40.9904820" lon="-3.2998670">
        <ele>910.0</ele>
        <time>2020-09-29T14:37:02Z</time>
      </trkpt>
      <trkpt lat="40.9904530" lon="-3.2998630">
        <ele>910.0</ele>
        <time>2020-09-29T14:37:03Z</time>
      </trkpt>
      <trkpt lat="40.9904530" lon="-3.2998630">
        <ele>911.0</ele>
        <time>2020-09-29T14:37:04Z</time>
      </trkpt>
      <trkpt lat="40.9904020" lon="-3.2998500">
        <ele>911.0</ele>
        <time>2020-09-29T14:37:05Z</time>
      </trkpt>
      <trkpt lat="40.9903820" lon="-3.2998480">
        <ele>911.0</ele>
        <time>2020-09-29T14:37:06Z</time>
      </trkpt>
      <trkpt lat="40.9903820" lon="-3.2998480">
        <ele>911.0</ele>
        <time>2020-09-29T14:37:07Z</time>
      </trkpt>
      <trkpt lat="40.9903330" lon="-3.2998700">
        <ele>912.0</ele>
        <time>2020-09-29T14:37:08Z</time>
      </trkpt>
      <trkpt lat="40.9903330" lon="-3.2998700">
        <ele>912.0</ele>
        <time>2020-09-29T14:37:09Z</time>
      </trkpt>
      <trkpt lat="40.9902850" lon="-3.2999130">
        <ele>912.0</ele>
        <time>2020-09-29T14:37:10Z</time>
      </trkpt>
      <trkpt lat="40.9902630" lon="-3.2999400">
        <ele>912.0</ele>
        <time>2020-09-29T14:37:11Z</time>
      </trkpt>
      <trkpt lat="40.9902630" lon="-3.2999400">
        <ele>912.0</ele>
        <time>2020-09-29T14:37:12Z</time>
      </trkpt>
      <trkpt lat="40.9902320" lon="-3.3000200">
        <ele>912.0</ele>
        <time>2020-09-29T14:37:13Z</time>
      </trkpt>
      <trkpt lat="40.9902320" lon="-3.3000200">
        <ele>912.0</ele>
        <time>2020-09-29T14:37:14Z</time>
      </trkpt>
      <trkpt lat="40.9902120" lon="-3.3001220">
        <ele>912.0</ele>
        <time>2020-09-29T14:37:15Z</time>
      </trkpt>
      <trkpt lat="40.9902120" lon="-3.3001220">
        <ele>912.0</ele>
        <time>2020-09-29T14:37:16Z</time>
      </trkpt>
      <trkpt lat="40.9901980" lon="-3.3002450">
        <ele>912.0</ele>
        <time>2020-09-29T14:37:17Z</time>
      </trkpt>
      <trkpt lat="40.9901880" lon="-3.3003100">
        <ele>912.0</ele>
        <time>2020-09-29T14:37:18Z</time>
      </trkpt>
      <trkpt lat="40.9901880" lon="-3.3003100">
        <ele>912.0</ele>
        <time>2020-09-29T14:37:19Z</time>
      </trkpt>
      <trkpt lat="40.9901450" lon="-3.3004530">
        <ele>912.0</ele>
        <time>2020-09-29T14:37:20Z</time>
      </trkpt>
      <trkpt lat="40.9901450" lon="-3.3004530">
        <ele>912.0</ele>
        <time>2020-09-29T14:37:21Z</time>
      </trkpt>
      <trkpt lat="40.9900680" lon="-3.3006050">
        <ele>911.0</ele>
        <time>2020-09-29T14:37:22Z</time>
      </trkpt>
      <trkpt lat="40.9900680" lon="-3.3006050">
        <ele>911.0</ele>
        <time>2020-09-29T14:37:23Z</time>
      </trkpt>
      <trkpt lat="40.9899630" lon="-3.3007450">
        <ele>910.0</ele>
        <time>2020-09-29T14:37:24Z</time>
      </trkpt>
      <trkpt lat="40.9899630" lon="-3.3007450">
        <ele>910.0</ele>
        <time>2020-09-29T14:37:25Z</time>
      </trkpt>
      <trkpt lat="40.9898580" lon="-3.3008880">
        <ele>910.0</ele>
        <time>2020-09-29T14:37:26Z</time>
      </trkpt>
      <trkpt lat="40.9898580" lon="-3.3008880">
        <ele>910.0</ele>
        <time>2020-09-29T14:37:27Z</time>
      </trkpt>
      <trkpt lat="40.9897770" lon="-3.3010480">
        <ele>910.0</ele>
        <time>2020-09-29T14:37:28Z</time>
      </trkpt>
      <trkpt lat="40.9897530" lon="-3.3011370">
        <ele>910.0</ele>
        <time>2020-09-29T14:37:29Z</time>
      </trkpt>
      <trkpt lat="40.9897530" lon="-3.3011370">
        <ele>910.0</ele>
        <time>2020-09-29T14:37:30Z</time>
      </trkpt>
      <trkpt lat="40.9897530" lon="-3.3013270">
        <ele>908.0</ele>
        <time>2020-09-29T14:37:31Z</time>
      </trkpt>
      <trkpt lat="40.9897530" lon="-3.3013270">
        <ele>908.0</ele>
        <time>2020-09-29T14:37:32Z</time>
      </trkpt>
      <trkpt lat="40.9897580" lon="-3.3015200">
        <ele>907.0</ele>
        <time>2020-09-29T14:37:33Z</time>
      </trkpt>
      <trkpt lat="40.9897580" lon="-3.3015200">
        <ele>907.0</ele>
        <time>2020-09-29T14:37:34Z</time>
      </trkpt>
      <trkpt lat="40.9897320" lon="-3.3017150">
        <ele>906.0</ele>
        <time>2020-09-29T14:37:35Z</time>
      </trkpt>
      <trkpt lat="40.9897230" lon="-3.3018130">
        <ele>906.0</ele>
        <time>2020-09-29T14:37:36Z</time>
      </trkpt>
      <trkpt lat="40.9897230" lon="-3.3018130">
        <ele>905.0</ele>
        <time>2020-09-29T14:37:37Z</time>
      </trkpt>
      <trkpt lat="40.9896980" lon="-3.3019820">
        <ele>905.0</ele>
        <time>2020-09-29T14:37:38Z</time>
      </trkpt>
      <trkpt lat="40.9896980" lon="-3.3019820">
        <ele>903.0</ele>
        <time>2020-09-29T14:37:39Z</time>
      </trkpt>
      <trkpt lat="40.9896420" lon="-3.3021150">
        <ele>903.0</ele>
        <time>2020-09-29T14:37:40Z</time>
      </trkpt>
      <trkpt lat="40.9895870" lon="-3.3021550">
        <ele>902.0</ele>
        <time>2020-09-29T14:37:41Z</time>
      </trkpt>
      <trkpt lat="40.9895870" lon="-3.3021550">
        <ele>902.0</ele>
        <time>2020-09-29T14:37:42Z</time>
      </trkpt>
      <trkpt lat="40.9894600" lon="-3.3021630">
        <ele>901.0</ele>
        <time>2020-09-29T14:37:43Z</time>
      </trkpt>
      <trkpt lat="40.9894030" lon="-3.3021400">
        <ele>901.0</ele>
        <time>2020-09-29T14:37:44Z</time>
      </trkpt>
      <trkpt lat="40.9894030" lon="-3.3021400">
        <ele>901.0</ele>
        <time>2020-09-29T14:37:45Z</time>
      </trkpt>
      <trkpt lat="40.9893270" lon="-3.3020500">
        <ele>901.0</ele>
        <time>2020-09-29T14:37:46Z</time>
      </trkpt>
      <trkpt lat="40.9893270" lon="-3.3020500">
        <ele>901.0</ele>
        <time>2020-09-29T14:37:47Z</time>
      </trkpt>
      <trkpt lat="40.9892920" lon="-3.3019550">
        <ele>901.0</ele>
        <time>2020-09-29T14:37:48Z</time>
      </trkpt>
      <trkpt lat="40.9892920" lon="-3.3019550">
        <ele>901.0</ele>
        <time>2020-09-29T14:37:49Z</time>
      </trkpt>
      <trkpt lat="40.9892820" lon="-3.3018550">
        <ele>901.0</ele>
        <time>2020-09-29T14:37:50Z</time>
      </trkpt>
      <trkpt lat="40.9892780" lon="-3.3018100">
        <ele>901.0</ele>
        <time>2020-09-29T14:37:51Z</time>
      </trkpt>
      <trkpt lat="40.9892730" lon="-3.3017650">
        <ele>901.0</ele>
        <time>2020-09-29T14:37:52Z</time>
      </trkpt>
      <trkpt lat="40.9892730" lon="-3.3017650">
        <ele>902.0</ele>
        <time>2020-09-29T14:37:53Z</time>
      </trkpt>
      <trkpt lat="40.9892480" lon="-3.3016850">
        <ele>902.0</ele>
        <time>2020-09-29T14:37:54Z</time>
      </trkpt>
      <trkpt lat="40.9892320" lon="-3.3016470">
        <ele>902.0</ele>
        <time>2020-09-29T14:37:55Z</time>
      </trkpt>
      <trkpt lat="40.9892320" lon="-3.3016470">
        <ele>902.0</ele>
        <time>2020-09-29T14:37:56Z</time>
      </trkpt>
      <trkpt lat="40.9891930" lon="-3.3015820">
        <ele>903.0</ele>
        <time>2020-09-29T14:37:57Z</time>
      </trkpt>
      <trkpt lat="40.9891700" lon="-3.3015500">
        <ele>903.0</ele>
        <time>2020-09-29T14:37:58Z</time>
      </trkpt>
      <trkpt lat="40.9891700" lon="-3.3015500">
        <ele>903.0</ele>
        <time>2020-09-29T14:37:59Z</time>
      </trkpt>
      <trkpt lat="40.9891220" lon="-3.3014870">
        <ele>903.0</ele>
        <time>2020-09-29T14:38:00Z</time>
      </trkpt>
      <trkpt lat="40.9891020" lon="-3.3014550">
        <ele>903.0</ele>
        <time>2020-09-29T14:38:01Z</time>
      </trkpt>
      <trkpt lat="40.9891020" lon="-3.3014550">
        <ele>904.0</ele>
        <time>2020-09-29T14:38:02Z</time>
      </trkpt>
      <trkpt lat="40.9890680" lon="-3.3013930">
        <ele>904.0</ele>
        <time>2020-09-29T14:38:03Z</time>
      </trkpt>
      <trkpt lat="40.9890680" lon="-3.3013930">
        <ele>904.0</ele>
        <time>2020-09-29T14:38:04Z</time>
      </trkpt>
      <trkpt lat="40.9890350" lon="-3.3013300">
        <ele>904.0</ele>
        <time>2020-09-29T14:38:05Z</time>
      </trkpt>
      <trkpt lat="40.9890350" lon="-3.3013300">
        <ele>905.0</ele>
        <time>2020-09-29T14:38:06Z</time>
      </trkpt>
      <trkpt lat="40.9890130" lon="-3.3012550">
        <ele>905.0</ele>
        <time>2020-09-29T14:38:07Z</time>
      </trkpt>
      <trkpt lat="40.9890130" lon="-3.3012550">
        <ele>905.0</ele>
        <time>2020-09-29T14:38:08Z</time>
      </trkpt>
      <trkpt lat="40.9890020" lon="-3.3011850">
        <ele>905.0</ele>
        <time>2020-09-29T14:38:09Z</time>
      </trkpt>
      <trkpt lat="40.9889950" lon="-3.3011500">
        <ele>906.0</ele>
        <time>2020-09-29T14:38:10Z</time>
      </trkpt>
      <trkpt lat="40.9889950" lon="-3.3011500">
        <ele>906.0</ele>
        <time>2020-09-29T14:38:11Z</time>
      </trkpt>
      <trkpt lat="40.9889920" lon="-3.3010780">
        <ele>906.0</ele>
        <time>2020-09-29T14:38:12Z</time>
      </trkpt>
      <trkpt lat="40.9889930" lon="-3.3010400">
        <ele>906.0</ele>
        <time>2020-09-29T14:38:13Z</time>
      </trkpt>
      <trkpt lat="40.9889950" lon="-3.3010000">
        <ele>907.0</ele>
        <time>2020-09-29T14:38:14Z</time>
      </trkpt>
      <trkpt lat="40.9889950" lon="-3.3010000">
        <ele>907.0</ele>
        <time>2020-09-29T14:38:15Z</time>
      </trkpt>
      <trkpt lat="40.9889970" lon="-3.3009270">
        <ele>907.0</ele>
        <time>2020-09-29T14:38:16Z</time>
      </trkpt>
      <trkpt lat="40.9889970" lon="-3.3009270">
        <ele>907.0</ele>
        <time>2020-09-29T14:38:17Z</time>
      </trkpt>
      <trkpt lat="40.9889950" lon="-3.3008530">
        <ele>908.0</ele>
        <time>2020-09-29T14:38:18Z</time>
      </trkpt>
      <trkpt lat="40.9889920" lon="-3.3008130">
        <ele>908.0</ele>
        <time>2020-09-29T14:38:19Z</time>
      </trkpt>
      <trkpt lat="40.9889920" lon="-3.3008130">
        <ele>908.0</ele>
        <time>2020-09-29T14:38:20Z</time>
      </trkpt>
      <trkpt lat="40.9890050" lon="-3.3007400">
        <ele>908.0</ele>
        <time>2020-09-29T14:38:21Z</time>
      </trkpt>
      <trkpt lat="40.9890130" lon="-3.3007050">
        <ele>909.0</ele>
        <time>2020-09-29T14:38:22Z</time>
      </trkpt>
      <trkpt lat="40.9890130" lon="-3.3007050">
        <ele>909.0</ele>
        <time>2020-09-29T14:38:23Z</time>
      </trkpt>
      <trkpt lat="40.9890280" lon="-3.3006320">
        <ele>909.0</ele>
        <time>2020-09-29T14:38:24Z</time>
      </trkpt>
      <trkpt lat="40.9890420" lon="-3.3005970">
        <ele>909.0</ele>
        <time>2020-09-29T14:38:25Z</time>
      </trkpt>
      <trkpt lat="40.9890420" lon="-3.3005970">
        <ele>910.0</ele>
        <time>2020-09-29T14:38:26Z</time>
      </trkpt>
      <trkpt lat="40.9890530" lon="-3.3005280">
        <ele>910.0</ele>
        <time>2020-09-29T14:38:27Z</time>
      </trkpt>
      <trkpt lat="40.9890530" lon="-3.3004920">
        <ele>910.0</ele>
        <time>2020-09-29T14:38:28Z</time>
      </trkpt>
      <trkpt lat="40.9890530" lon="-3.3004920">
        <ele>910.0</ele>
        <time>2020-09-29T14:38:29Z</time>
      </trkpt>
      <trkpt lat="40.9890420" lon="-3.3004230">
        <ele>911.0</ele>
        <time>2020-09-29T14:38:30Z</time>
      </trkpt>
      <trkpt lat="40.9890350" lon="-3.3003880">
        <ele>911.0</ele>
        <time>2020-09-29T14:38:31Z</time>
      </trkpt>
      <trkpt lat="40.9890350" lon="-3.3003880">
        <ele>911.0</ele>
        <time>2020-09-29T14:38:32Z</time>
      </trkpt>
      <trkpt lat="40.9890220" lon="-3.3003180">
        <ele>911.0</ele>
        <time>2020-09-29T14:38:33Z</time>
      </trkpt>
      <trkpt lat="40.9890150" lon="-3.3002820">
        <ele>913.0</ele>
        <time>2020-09-29T14:38:34Z</time>
      </trkpt>
      <trkpt lat="40.9890150" lon="-3.3002820">
        <ele>913.0</ele>
        <time>2020-09-29T14:38:35Z</time>
      </trkpt>
      <trkpt lat="40.9890020" lon="-3.3002150">
        <ele>913.0</ele>
        <time>2020-09-29T14:38:36Z</time>
      </trkpt>
      <trkpt lat="40.9889950" lon="-3.3001820">
        <ele>914.0</ele>
        <time>2020-09-29T14:38:37Z</time>
      </trkpt>
      <trkpt lat="40.9889950" lon="-3.3001820">
        <ele>914.0</ele>
        <time>2020-09-29T14:38:38Z</time>
      </trkpt>
      <trkpt lat="40.9889770" lon="-3.3001170">
        <ele>914.0</ele>
        <time>2020-09-29T14:38:39Z</time>
      </trkpt>
      <trkpt lat="40.9889770" lon="-3.3001170">
        <ele>914.0</ele>
        <time>2020-09-29T14:38:40Z</time>
      </trkpt>
      <trkpt lat="40.9889450" lon="-3.3000650">
        <ele>915.0</ele>
        <time>2020-09-29T14:38:41Z</time>
      </trkpt>
      <trkpt lat="40.9889270" lon="-3.3000400">
        <ele>915.0</ele>
        <time>2020-09-29T14:38:42Z</time>
      </trkpt>
      <trkpt lat="40.9889130" lon="-3.3000150">
        <ele>915.0</ele>
        <time>2020-09-29T14:38:43Z</time>
      </trkpt>
      <trkpt lat="40.9889130" lon="-3.3000150">
        <ele>915.0</ele>
        <time>2020-09-29T14:38:44Z</time>
      </trkpt>
      <trkpt lat="40.9888870" lon="-3.2999620">
        <ele>915.0</ele>
        <time>2020-09-29T14:38:45Z</time>
      </trkpt>
      <trkpt lat="40.9888870" lon="-3.2999620">
        <ele>915.0</ele>
        <time>2020-09-29T14:38:46Z</time>
      </trkpt>
      <trkpt lat="40.9888570" lon="-3.2999120">
        <ele>915.0</ele>
        <time>2020-09-29T14:38:47Z</time>
      </trkpt>
      <trkpt lat="40.9888400" lon="-3.2998880">
        <ele>915.0</ele>
        <time>2020-09-29T14:38:48Z</time>
      </trkpt>
      <trkpt lat="40.9888400" lon="-3.2998880">
        <ele>916.0</ele>
        <time>2020-09-29T14:38:49Z</time>
      </trkpt>
      <trkpt lat="40.9888080" lon="-3.2998470">
        <ele>916.0</ele>
        <time>2020-09-29T14:38:50Z</time>
      </trkpt>
      <trkpt lat="40.9888080" lon="-3.2998470">
        <ele>916.0</ele>
        <time>2020-09-29T14:38:51Z</time>
      </trkpt>
      <trkpt lat="40.9887650" lon="-3.2998170">
        <ele>916.0</ele>
        <time>2020-09-29T14:38:52Z</time>
      </trkpt>
      <trkpt lat="40.9887650" lon="-3.2998170">
        <ele>917.0</ele>
        <time>2020-09-29T14:38:53Z</time>
      </trkpt>
      <trkpt lat="40.9887250" lon="-3.2997930">
        <ele>917.0</ele>
        <time>2020-09-29T14:38:54Z</time>
      </trkpt>
      <trkpt lat="40.9887000" lon="-3.2997880">
        <ele>917.0</ele>
        <time>2020-09-29T14:38:55Z</time>
      </trkpt>
      <trkpt lat="40.9887000" lon="-3.2997880">
        <ele>917.0</ele>
        <time>2020-09-29T14:38:56Z</time>
      </trkpt>
      <trkpt lat="40.9886500" lon="-3.2997880">
        <ele>918.0</ele>
        <time>2020-09-29T14:38:57Z</time>
      </trkpt>
      <trkpt lat="40.9886500" lon="-3.2997880">
        <ele>918.0</ele>
        <time>2020-09-29T14:38:58Z</time>
      </trkpt>
      <trkpt lat="40.9886020" lon="-3.2997920">
        <ele>918.0</ele>
        <time>2020-09-29T14:38:59Z</time>
      </trkpt>
      <trkpt lat="40.9886020" lon="-3.2997920">
        <ele>918.0</ele>
        <time>2020-09-29T14:39:00Z</time>
      </trkpt>
      <trkpt lat="40.9885530" lon="-3.2997930">
        <ele>919.0</ele>
        <time>2020-09-29T14:39:01Z</time>
      </trkpt>
      <trkpt lat="40.9885270" lon="-3.2997970">
        <ele>919.0</ele>
        <time>2020-09-29T14:39:02Z</time>
      </trkpt>
      <trkpt lat="40.9885270" lon="-3.2997970">
        <ele>919.0</ele>
        <time>2020-09-29T14:39:03Z</time>
      </trkpt>
      <trkpt lat="40.9884770" lon="-3.2997970">
        <ele>919.0</ele>
        <time>2020-09-29T14:39:04Z</time>
      </trkpt>
      <trkpt lat="40.9884530" lon="-3.2998000">
        <ele>919.0</ele>
        <time>2020-09-29T14:39:05Z</time>
      </trkpt>
      <trkpt lat="40.9884530" lon="-3.2998000">
        <ele>919.0</ele>
        <time>2020-09-29T14:39:06Z</time>
      </trkpt>
      <trkpt lat="40.9884050" lon="-3.2997980">
        <ele>920.0</ele>
        <time>2020-09-29T14:39:07Z</time>
      </trkpt>
      <trkpt lat="40.9884050" lon="-3.2997980">
        <ele>920.0</ele>
        <time>2020-09-29T14:39:08Z</time>
      </trkpt>
      <trkpt lat="40.9883600" lon="-3.2998050">
        <ele>920.0</ele>
        <time>2020-09-29T14:39:09Z</time>
      </trkpt>
      <trkpt lat="40.9883600" lon="-3.2998050">
        <ele>920.0</ele>
        <time>2020-09-29T14:39:10Z</time>
      </trkpt>
      <trkpt lat="40.9883150" lon="-3.2998150">
        <ele>921.0</ele>
        <time>2020-09-29T14:39:11Z</time>
      </trkpt>
      <trkpt lat="40.9883150" lon="-3.2998150">
        <ele>921.0</ele>
        <time>2020-09-29T14:39:12Z</time>
      </trkpt>
      <trkpt lat="40.9882670" lon="-3.2998130">
        <ele>921.0</ele>
        <time>2020-09-29T14:39:13Z</time>
      </trkpt>
      <trkpt lat="40.9882670" lon="-3.2998130">
        <ele>922.0</ele>
        <time>2020-09-29T14:39:14Z</time>
      </trkpt>
      <trkpt lat="40.9882200" lon="-3.2998180">
        <ele>922.0</ele>
        <time>2020-09-29T14:39:15Z</time>
      </trkpt>
      <trkpt lat="40.9882200" lon="-3.2998180">
        <ele>922.0</ele>
        <time>2020-09-29T14:39:16Z</time>
      </trkpt>
      <trkpt lat="40.9881750" lon="-3.2998130">
        <ele>922.0</ele>
        <time>2020-09-29T14:39:17Z</time>
      </trkpt>
      <trkpt lat="40.9881750" lon="-3.2998130">
        <ele>922.0</ele>
        <time>2020-09-29T14:39:18Z</time>
      </trkpt>
      <trkpt lat="40.9881270" lon="-3.2998200">
        <ele>922.0</ele>
        <time>2020-09-29T14:39:19Z</time>
      </trkpt>
      <trkpt lat="40.9881270" lon="-3.2998200">
        <ele>923.0</ele>
        <time>2020-09-29T14:39:20Z</time>
      </trkpt>
      <trkpt lat="40.9880830" lon="-3.2998200">
        <ele>923.0</ele>
        <time>2020-09-29T14:39:21Z</time>
      </trkpt>
      <trkpt lat="40.9880830" lon="-3.2998200">
        <ele>923.0</ele>
        <time>2020-09-29T14:39:22Z</time>
      </trkpt>
      <trkpt lat="40.9880380" lon="-3.2998230">
        <ele>923.0</ele>
        <time>2020-09-29T14:39:23Z</time>
      </trkpt>
      <trkpt lat="40.9880380" lon="-3.2998230">
        <ele>924.0</ele>
        <time>2020-09-29T14:39:24Z</time>
      </trkpt>
      <trkpt lat="40.9879850" lon="-3.2998270">
        <ele>924.0</ele>
        <time>2020-09-29T14:39:25Z</time>
      </trkpt>
      <trkpt lat="40.9879850" lon="-3.2998270">
        <ele>924.0</ele>
        <time>2020-09-29T14:39:26Z</time>
      </trkpt>
      <trkpt lat="40.9879370" lon="-3.2998380">
        <ele>924.0</ele>
        <time>2020-09-29T14:39:27Z</time>
      </trkpt>
      <trkpt lat="40.9879370" lon="-3.2998380">
        <ele>925.0</ele>
        <time>2020-09-29T14:39:28Z</time>
      </trkpt>
      <trkpt lat="40.9878950" lon="-3.2998650">
        <ele>925.0</ele>
        <time>2020-09-29T14:39:29Z</time>
      </trkpt>
      <trkpt lat="40.9878950" lon="-3.2998650">
        <ele>925.0</ele>
        <time>2020-09-29T14:39:30Z</time>
      </trkpt>
      <trkpt lat="40.9878570" lon="-3.2999000">
        <ele>925.0</ele>
        <time>2020-09-29T14:39:31Z</time>
      </trkpt>
      <trkpt lat="40.9878380" lon="-3.2999150">
        <ele>926.0</ele>
        <time>2020-09-29T14:39:32Z</time>
      </trkpt>
      <trkpt lat="40.9878380" lon="-3.2999150">
        <ele>926.0</ele>
        <time>2020-09-29T14:39:33Z</time>
      </trkpt>
      <trkpt lat="40.9878030" lon="-3.2999480">
        <ele>926.0</ele>
        <time>2020-09-29T14:39:34Z</time>
      </trkpt>
      <trkpt lat="40.9877830" lon="-3.2999650">
        <ele>926.0</ele>
        <time>2020-09-29T14:39:35Z</time>
      </trkpt>
      <trkpt lat="40.9877830" lon="-3.2999650">
        <ele>927.0</ele>
        <time>2020-09-29T14:39:36Z</time>
      </trkpt>
      <trkpt lat="40.9877400" lon="-3.2999770">
        <ele>927.0</ele>
        <time>2020-09-29T14:39:37Z</time>
      </trkpt>
      <trkpt lat="40.9877400" lon="-3.2999770">
        <ele>927.0</ele>
        <time>2020-09-29T14:39:38Z</time>
      </trkpt>
      <trkpt lat="40.9876870" lon="-3.2999730">
        <ele>927.0</ele>
        <time>2020-09-29T14:39:39Z</time>
      </trkpt>
      <trkpt lat="40.9876870" lon="-3.2999730">
        <ele>928.0</ele>
        <time>2020-09-29T14:39:40Z</time>
      </trkpt>
      <trkpt lat="40.9876300" lon="-3.2999630">
        <ele>928.0</ele>
        <time>2020-09-29T14:39:41Z</time>
      </trkpt>
      <trkpt lat="40.9876300" lon="-3.2999630">
        <ele>929.0</ele>
        <time>2020-09-29T14:39:42Z</time>
      </trkpt>
      <trkpt lat="40.9875880" lon="-3.2999270">
        <ele>929.0</ele>
        <time>2020-09-29T14:39:43Z</time>
      </trkpt>
      <trkpt lat="40.9875880" lon="-3.2999270">
        <ele>929.0</ele>
        <time>2020-09-29T14:39:44Z</time>
      </trkpt>
      <trkpt lat="40.9875520" lon="-3.2998930">
        <ele>929.0</ele>
        <time>2020-09-29T14:39:45Z</time>
      </trkpt>
      <trkpt lat="40.9875330" lon="-3.2998780">
        <ele>930.0</ele>
        <time>2020-09-29T14:39:46Z</time>
      </trkpt>
      <trkpt lat="40.9875330" lon="-3.2998780">
        <ele>930.0</ele>
        <time>2020-09-29T14:39:47Z</time>
      </trkpt>
      <trkpt lat="40.9875050" lon="-3.2998420">
        <ele>930.0</ele>
        <time>2020-09-29T14:39:48Z</time>
      </trkpt>
      <trkpt lat="40.9875050" lon="-3.2998420">
        <ele>931.0</ele>
        <time>2020-09-29T14:39:49Z</time>
      </trkpt>
      <trkpt lat="40.9874750" lon="-3.2998100">
        <ele>931.0</ele>
        <time>2020-09-29T14:39:50Z</time>
      </trkpt>
      <trkpt lat="40.9874750" lon="-3.2998100">
        <ele>932.0</ele>
        <time>2020-09-29T14:39:51Z</time>
      </trkpt>
      <trkpt lat="40.9874400" lon="-3.2997730">
        <ele>932.0</ele>
        <time>2020-09-29T14:39:52Z</time>
      </trkpt>
      <trkpt lat="40.9874220" lon="-3.2997530">
        <ele>932.0</ele>
        <time>2020-09-29T14:39:53Z</time>
      </trkpt>
      <trkpt lat="40.9874220" lon="-3.2997530">
        <ele>932.0</ele>
        <time>2020-09-29T14:39:54Z</time>
      </trkpt>
      <trkpt lat="40.9873850" lon="-3.2997180">
        <ele>933.0</ele>
        <time>2020-09-29T14:39:55Z</time>
      </trkpt>
      <trkpt lat="40.9873850" lon="-3.2997180">
        <ele>933.0</ele>
        <time>2020-09-29T14:39:56Z</time>
      </trkpt>
      <trkpt lat="40.9873430" lon="-3.2996850">
        <ele>933.0</ele>
        <time>2020-09-29T14:39:57Z</time>
      </trkpt>
      <trkpt lat="40.9873430" lon="-3.2996850">
        <ele>933.0</ele>
        <time>2020-09-29T14:39:58Z</time>
      </trkpt>
      <trkpt lat="40.9873000" lon="-3.2996600">
        <ele>933.0</ele>
        <time>2020-09-29T14:39:59Z</time>
      </trkpt>
      <trkpt lat="40.9872800" lon="-3.2996480">
        <ele>933.0</ele>
        <time>2020-09-29T14:40:00Z</time>
      </trkpt>
      <trkpt lat="40.9872800" lon="-3.2996480">
        <ele>933.0</ele>
        <time>2020-09-29T14:40:01Z</time>
      </trkpt>
      <trkpt lat="40.9872380" lon="-3.2996320">
        <ele>933.0</ele>
        <time>2020-09-29T14:40:02Z</time>
      </trkpt>
      <trkpt lat="40.9872380" lon="-3.2996320">
        <ele>934.0</ele>
        <time>2020-09-29T14:40:03Z</time>
      </trkpt>
      <trkpt lat="40.9871970" lon="-3.2996080">
        <ele>934.0</ele>
        <time>2020-09-29T14:40:04Z</time>
      </trkpt>
      <trkpt lat="40.9871970" lon="-3.2996080">
        <ele>934.0</ele>
        <time>2020-09-29T14:40:05Z</time>
      </trkpt>
      <trkpt lat="40.9871580" lon="-3.2995830">
        <ele>934.0</ele>
        <time>2020-09-29T14:40:06Z</time>
      </trkpt>
      <trkpt lat="40.9871380" lon="-3.2995770">
        <ele>935.0</ele>
        <time>2020-09-29T14:40:07Z</time>
      </trkpt>
      <trkpt lat="40.9871380" lon="-3.2995770">
        <ele>935.0</ele>
        <time>2020-09-29T14:40:08Z</time>
      </trkpt>
      <trkpt lat="40.9871000" lon="-3.2995680">
        <ele>935.0</ele>
        <time>2020-09-29T14:40:09Z</time>
      </trkpt>
      <trkpt lat="40.9871000" lon="-3.2995680">
        <ele>935.0</ele>
        <time>2020-09-29T14:40:10Z</time>
      </trkpt>
      <trkpt lat="40.9870570" lon="-3.2995770">
        <ele>936.0</ele>
        <time>2020-09-29T14:40:11Z</time>
      </trkpt>
      <trkpt lat="40.9870570" lon="-3.2995770">
        <ele>936.0</ele>
        <time>2020-09-29T14:40:12Z</time>
      </trkpt>
      <trkpt lat="40.9870180" lon="-3.2995850">
        <ele>936.0</ele>
        <time>2020-09-29T14:40:13Z</time>
      </trkpt>
      <trkpt lat="40.9870030" lon="-3.2995880">
        <ele>936.0</ele>
        <time>2020-09-29T14:40:14Z</time>
      </trkpt>
      <trkpt lat="40.9869800" lon="-3.2995920">
        <ele>937.0</ele>
        <time>2020-09-29T14:40:15Z</time>
      </trkpt>
      <trkpt lat="40.9869800" lon="-3.2995920">
        <ele>937.0</ele>
        <time>2020-09-29T14:40:16Z</time>
      </trkpt>
      <trkpt lat="40.9869320" lon="-3.2995970">
        <ele>937.0</ele>
        <time>2020-09-29T14:40:17Z</time>
      </trkpt>
      <trkpt lat="40.9869080" lon="-3.2995930">
        <ele>937.0</ele>
        <time>2020-09-29T14:40:18Z</time>
      </trkpt>
      <trkpt lat="40.9869080" lon="-3.2995930">
        <ele>938.0</ele>
        <time>2020-09-29T14:40:19Z</time>
      </trkpt>
      <trkpt lat="40.9868650" lon="-3.2995980">
        <ele>938.0</ele>
        <time>2020-09-29T14:40:20Z</time>
      </trkpt>
      <trkpt lat="40.9868650" lon="-3.2995980">
        <ele>938.0</ele>
        <time>2020-09-29T14:40:21Z</time>
      </trkpt>
      <trkpt lat="40.9868150" lon="-3.2996120">
        <ele>938.0</ele>
        <time>2020-09-29T14:40:22Z</time>
      </trkpt>
      <trkpt lat="40.9868150" lon="-3.2996120">
        <ele>939.0</ele>
        <time>2020-09-29T14:40:23Z</time>
      </trkpt>
      <trkpt lat="40.9867730" lon="-3.2996220">
        <ele>939.0</ele>
        <time>2020-09-29T14:40:24Z</time>
      </trkpt>
      <trkpt lat="40.9867530" lon="-3.2996270">
        <ele>939.0</ele>
        <time>2020-09-29T14:40:25Z</time>
      </trkpt>
      <trkpt lat="40.9867530" lon="-3.2996270">
        <ele>940.0</ele>
        <time>2020-09-29T14:40:26Z</time>
      </trkpt>
      <trkpt lat="40.9867150" lon="-3.2996430">
        <ele>940.0</ele>
        <time>2020-09-29T14:40:27Z</time>
      </trkpt>
      <trkpt lat="40.9867150" lon="-3.2996430">
        <ele>940.0</ele>
        <time>2020-09-29T14:40:28Z</time>
      </trkpt>
      <trkpt lat="40.9866730" lon="-3.2996580">
        <ele>940.0</ele>
        <time>2020-09-29T14:40:29Z</time>
      </trkpt>
      <trkpt lat="40.9866730" lon="-3.2996580">
        <ele>940.0</ele>
        <time>2020-09-29T14:40:30Z</time>
      </trkpt>
      <trkpt lat="40.9866330" lon="-3.2996720">
        <ele>940.0</ele>
        <time>2020-09-29T14:40:31Z</time>
      </trkpt>
      <trkpt lat="40.9866330" lon="-3.2996720">
        <ele>940.0</ele>
        <time>2020-09-29T14:40:32Z</time>
      </trkpt>
      <trkpt lat="40.9865850" lon="-3.2996800">
        <ele>940.0</ele>
        <time>2020-09-29T14:40:33Z</time>
      </trkpt>
      <trkpt lat="40.9865620" lon="-3.2996850">
        <ele>940.0</ele>
        <time>2020-09-29T14:40:34Z</time>
      </trkpt>
      <trkpt lat="40.9865620" lon="-3.2996850">
        <ele>942.0</ele>
        <time>2020-09-29T14:40:35Z</time>
      </trkpt>
      <trkpt lat="40.9865180" lon="-3.2996970">
        <ele>942.0</ele>
        <time>2020-09-29T14:40:36Z</time>
      </trkpt>
      <trkpt lat="40.9865180" lon="-3.2996970">
        <ele>942.0</ele>
        <time>2020-09-29T14:40:37Z</time>
      </trkpt>
      <trkpt lat="40.9864800" lon="-3.2997150">
        <ele>942.0</ele>
        <time>2020-09-29T14:40:38Z</time>
      </trkpt>
      <trkpt lat="40.9864800" lon="-3.2997150">
        <ele>942.0</ele>
        <time>2020-09-29T14:40:39Z</time>
      </trkpt>
      <trkpt lat="40.9864380" lon="-3.2997400">
        <ele>942.0</ele>
        <time>2020-09-29T14:40:40Z</time>
      </trkpt>
      <trkpt lat="40.9864270" lon="-3.2997550">
        <ele>942.0</ele>
        <time>2020-09-29T14:40:41Z</time>
      </trkpt>
      <trkpt lat="40.9864270" lon="-3.2997550">
        <ele>942.0</ele>
        <time>2020-09-29T14:40:42Z</time>
      </trkpt>
      <trkpt lat="40.9864070" lon="-3.2998030">
        <ele>944.0</ele>
        <time>2020-09-29T14:40:43Z</time>
      </trkpt>
      <trkpt lat="40.9864070" lon="-3.2998030">
        <ele>944.0</ele>
        <time>2020-09-29T14:40:44Z</time>
      </trkpt>
      <trkpt lat="40.9863670" lon="-3.2998370">
        <ele>944.0</ele>
        <time>2020-09-29T14:40:45Z</time>
      </trkpt>
      <trkpt lat="40.9863670" lon="-3.2998370">
        <ele>944.0</ele>
        <time>2020-09-29T14:40:46Z</time>
      </trkpt>
      <trkpt lat="40.9863280" lon="-3.2998700">
        <ele>945.0</ele>
        <time>2020-09-29T14:40:47Z</time>
      </trkpt>
      <trkpt lat="40.9863120" lon="-3.2998880">
        <ele>945.0</ele>
        <time>2020-09-29T14:40:48Z</time>
      </trkpt>
      <trkpt lat="40.9863120" lon="-3.2998880">
        <ele>945.0</ele>
        <time>2020-09-29T14:40:49Z</time>
      </trkpt>
      <trkpt lat="40.9862820" lon="-3.2999350">
        <ele>945.0</ele>
        <time>2020-09-29T14:40:50Z</time>
      </trkpt>
      <trkpt lat="40.9862820" lon="-3.2999350">
        <ele>946.0</ele>
        <time>2020-09-29T14:40:51Z</time>
      </trkpt>
      <trkpt lat="40.9862500" lon="-3.2999870">
        <ele>946.0</ele>
        <time>2020-09-29T14:40:52Z</time>
      </trkpt>
      <trkpt lat="40.9862500" lon="-3.2999870">
        <ele>946.0</ele>
        <time>2020-09-29T14:40:53Z</time>
      </trkpt>
      <trkpt lat="40.9862230" lon="-3.3000370">
        <ele>946.0</ele>
        <time>2020-09-29T14:40:54Z</time>
      </trkpt>
      <trkpt lat="40.9862230" lon="-3.3000370">
        <ele>947.0</ele>
        <time>2020-09-29T14:40:55Z</time>
      </trkpt>
      <trkpt lat="40.9861970" lon="-3.3000900">
        <ele>947.0</ele>
        <time>2020-09-29T14:40:56Z</time>
      </trkpt>
      <trkpt lat="40.9861820" lon="-3.3001170">
        <ele>947.0</ele>
        <time>2020-09-29T14:40:57Z</time>
      </trkpt>
      <trkpt lat="40.9861820" lon="-3.3001170">
        <ele>947.0</ele>
        <time>2020-09-29T14:40:58Z</time>
      </trkpt>
      <trkpt lat="40.9861520" lon="-3.3001630">
        <ele>948.0</ele>
        <time>2020-09-29T14:40:59Z</time>
      </trkpt>
      <trkpt lat="40.9861520" lon="-3.3001630">
        <ele>948.0</ele>
        <time>2020-09-29T14:41:00Z</time>
      </trkpt>
      <trkpt lat="40.9861280" lon="-3.3002130">
        <ele>948.0</ele>
        <time>2020-09-29T14:41:01Z</time>
      </trkpt>
      <trkpt lat="40.9861280" lon="-3.3002130">
        <ele>949.0</ele>
        <time>2020-09-29T14:41:02Z</time>
      </trkpt>
      <trkpt lat="40.9861150" lon="-3.3002770">
        <ele>949.0</ele>
        <time>2020-09-29T14:41:03Z</time>
      </trkpt>
      <trkpt lat="40.9861080" lon="-3.3003100">
        <ele>949.0</ele>
        <time>2020-09-29T14:41:04Z</time>
      </trkpt>
      <trkpt lat="40.9861080" lon="-3.3003100">
        <ele>949.0</ele>
        <time>2020-09-29T14:41:05Z</time>
      </trkpt>
      <trkpt lat="40.9860800" lon="-3.3003730">
        <ele>950.0</ele>
        <time>2020-09-29T14:41:06Z</time>
      </trkpt>
      <trkpt lat="40.9860800" lon="-3.3003730">
        <ele>950.0</ele>
        <time>2020-09-29T14:41:07Z</time>
      </trkpt>
      <trkpt lat="40.9860580" lon="-3.3004380">
        <ele>950.0</ele>
        <time>2020-09-29T14:41:08Z</time>
      </trkpt>
      <trkpt lat="40.9860580" lon="-3.3004380">
        <ele>950.0</ele>
        <time>2020-09-29T14:41:09Z</time>
      </trkpt>
      <trkpt lat="40.9860400" lon="-3.3005050">
        <ele>950.0</ele>
        <time>2020-09-29T14:41:10Z</time>
      </trkpt>
      <trkpt lat="40.9860400" lon="-3.3005050">
        <ele>950.0</ele>
        <time>2020-09-29T14:41:11Z</time>
      </trkpt>
      <trkpt lat="40.9860180" lon="-3.3005700">
        <ele>951.0</ele>
        <time>2020-09-29T14:41:12Z</time>
      </trkpt>
      <trkpt lat="40.9859970" lon="-3.3005930">
        <ele>951.0</ele>
        <time>2020-09-29T14:41:13Z</time>
      </trkpt>
      <trkpt lat="40.9859970" lon="-3.3005930">
        <ele>951.0</ele>
        <time>2020-09-29T14:41:14Z</time>
      </trkpt>
      <trkpt lat="40.9859630" lon="-3.3006530">
        <ele>951.0</ele>
        <time>2020-09-29T14:41:15Z</time>
      </trkpt>
      <trkpt lat="40.9859630" lon="-3.3006530">
        <ele>952.0</ele>
        <time>2020-09-29T14:41:16Z</time>
      </trkpt>
      <trkpt lat="40.9859380" lon="-3.3007080">
        <ele>952.0</ele>
        <time>2020-09-29T14:41:17Z</time>
      </trkpt>
      <trkpt lat="40.9859380" lon="-3.3007080">
        <ele>952.0</ele>
        <time>2020-09-29T14:41:18Z</time>
      </trkpt>
      <trkpt lat="40.9859100" lon="-3.3007650">
        <ele>952.0</ele>
        <time>2020-09-29T14:41:19Z</time>
      </trkpt>
      <trkpt lat="40.9859100" lon="-3.3007650">
        <ele>952.0</ele>
        <time>2020-09-29T14:41:20Z</time>
      </trkpt>
      <trkpt lat="40.9858950" lon="-3.3008230">
        <ele>952.0</ele>
        <time>2020-09-29T14:41:21Z</time>
      </trkpt>
      <trkpt lat="40.9858830" lon="-3.3008530">
        <ele>952.0</ele>
        <time>2020-09-29T14:41:22Z</time>
      </trkpt>
      <trkpt lat="40.9858830" lon="-3.3008530">
        <ele>952.0</ele>
        <time>2020-09-29T14:41:23Z</time>
      </trkpt>
      <trkpt lat="40.9858680" lon="-3.3009120">
        <ele>952.0</ele>
        <time>2020-09-29T14:41:24Z</time>
      </trkpt>
      <trkpt lat="40.9858680" lon="-3.3009120">
        <ele>952.0</ele>
        <time>2020-09-29T14:41:25Z</time>
      </trkpt>
      <trkpt lat="40.9858480" lon="-3.3009680">
        <ele>952.0</ele>
        <time>2020-09-29T14:41:26Z</time>
      </trkpt>
      <trkpt lat="40.9858480" lon="-3.3009680">
        <ele>952.0</ele>
        <time>2020-09-29T14:41:27Z</time>
      </trkpt>
      <trkpt lat="40.9858250" lon="-3.3010280">
        <ele>953.0</ele>
        <time>2020-09-29T14:41:28Z</time>
      </trkpt>
      <trkpt lat="40.9858150" lon="-3.3010570">
        <ele>953.0</ele>
        <time>2020-09-29T14:41:29Z</time>
      </trkpt>
      <trkpt lat="40.9858150" lon="-3.3010570">
        <ele>953.0</ele>
        <time>2020-09-29T14:41:30Z</time>
      </trkpt>
      <trkpt lat="40.9857950" lon="-3.3011100">
        <ele>953.0</ele>
        <time>2020-09-29T14:41:31Z</time>
      </trkpt>
      <trkpt lat="40.9857950" lon="-3.3011100">
        <ele>953.0</ele>
        <time>2020-09-29T14:41:32Z</time>
      </trkpt>
      <trkpt lat="40.9857680" lon="-3.3011680">
        <ele>953.0</ele>
        <time>2020-09-29T14:41:33Z</time>
      </trkpt>
      <trkpt lat="40.9857570" lon="-3.3011970">
        <ele>954.0</ele>
        <time>2020-09-29T14:41:34Z</time>
      </trkpt>
      <trkpt lat="40.9857470" lon="-3.3012250">
        <ele>954.0</ele>
        <time>2020-09-29T14:41:35Z</time>
      </trkpt>
      <trkpt lat="40.9857470" lon="-3.3012250">
        <ele>954.0</ele>
        <time>2020-09-29T14:41:36Z</time>
      </trkpt>
      <trkpt lat="40.9857280" lon="-3.3012870">
        <ele>954.0</ele>
        <time>2020-09-29T14:41:37Z</time>
      </trkpt>
      <trkpt lat="40.9857280" lon="-3.3012870">
        <ele>954.0</ele>
        <time>2020-09-29T14:41:38Z</time>
      </trkpt>
      <trkpt lat="40.9857030" lon="-3.3013500">
        <ele>955.0</ele>
        <time>2020-09-29T14:41:39Z</time>
      </trkpt>
      <trkpt lat="40.9856900" lon="-3.3013830">
        <ele>955.0</ele>
        <time>2020-09-29T14:41:40Z</time>
      </trkpt>
      <trkpt lat="40.9856900" lon="-3.3013830">
        <ele>955.0</ele>
        <time>2020-09-29T14:41:41Z</time>
      </trkpt>
      <trkpt lat="40.9856700" lon="-3.3014550">
        <ele>955.0</ele>
        <time>2020-09-29T14:41:42Z</time>
      </trkpt>
      <trkpt lat="40.9856700" lon="-3.3014550">
        <ele>955.0</ele>
        <time>2020-09-29T14:41:43Z</time>
      </trkpt>
      <trkpt lat="40.9856530" lon="-3.3015200">
        <ele>955.0</ele>
        <time>2020-09-29T14:41:44Z</time>
      </trkpt>
      <trkpt lat="40.9856420" lon="-3.3015500">
        <ele>955.0</ele>
        <time>2020-09-29T14:41:45Z</time>
      </trkpt>
      <trkpt lat="40.9856420" lon="-3.3015500">
        <ele>955.0</ele>
        <time>2020-09-29T14:41:46Z</time>
      </trkpt>
      <trkpt lat="40.9856230" lon="-3.3016130">
        <ele>955.0</ele>
        <time>2020-09-29T14:41:47Z</time>
      </trkpt>
      <trkpt lat="40.9856230" lon="-3.3016130">
        <ele>955.0</ele>
        <time>2020-09-29T14:41:48Z</time>
      </trkpt>
      <trkpt lat="40.9856000" lon="-3.3016800">
        <ele>956.0</ele>
        <time>2020-09-29T14:41:49Z</time>
      </trkpt>
      <trkpt lat="40.9856000" lon="-3.3016800">
        <ele>956.0</ele>
        <time>2020-09-29T14:41:50Z</time>
      </trkpt>
      <trkpt lat="40.9855770" lon="-3.3017520">
        <ele>956.0</ele>
        <time>2020-09-29T14:41:51Z</time>
      </trkpt>
      <trkpt lat="40.9855770" lon="-3.3017520">
        <ele>956.0</ele>
        <time>2020-09-29T14:41:52Z</time>
      </trkpt>
      <trkpt lat="40.9855530" lon="-3.3018200">
        <ele>956.0</ele>
        <time>2020-09-29T14:41:53Z</time>
      </trkpt>
      <trkpt lat="40.9855380" lon="-3.3018500">
        <ele>956.0</ele>
        <time>2020-09-29T14:41:54Z</time>
      </trkpt>
      <trkpt lat="40.9855380" lon="-3.3018500">
        <ele>957.0</ele>
        <time>2020-09-29T14:41:55Z</time>
      </trkpt>
      <trkpt lat="40.9854970" lon="-3.3018980">
        <ele>957.0</ele>
        <time>2020-09-29T14:41:56Z</time>
      </trkpt>
      <trkpt lat="40.9854970" lon="-3.3018980">
        <ele>957.0</ele>
        <time>2020-09-29T14:41:57Z</time>
      </trkpt>
      <trkpt lat="40.9854530" lon="-3.3019420">
        <ele>957.0</ele>
        <time>2020-09-29T14:41:58Z</time>
      </trkpt>
      <trkpt lat="40.9854530" lon="-3.3019420">
        <ele>958.0</ele>
        <time>2020-09-29T14:41:59Z</time>
      </trkpt>
      <trkpt lat="40.9854180" lon="-3.3019800">
        <ele>958.0</ele>
        <time>2020-09-29T14:42:00Z</time>
      </trkpt>
      <trkpt lat="40.9854180" lon="-3.3019800">
        <ele>958.0</ele>
        <time>2020-09-29T14:42:01Z</time>
      </trkpt>
      <trkpt lat="40.9853670" lon="-3.3020100">
        <ele>958.0</ele>
        <time>2020-09-29T14:42:02Z</time>
      </trkpt>
      <trkpt lat="40.9853670" lon="-3.3020100">
        <ele>959.0</ele>
        <time>2020-09-29T14:42:03Z</time>
      </trkpt>
      <trkpt lat="40.9853150" lon="-3.3020430">
        <ele>959.0</ele>
        <time>2020-09-29T14:42:04Z</time>
      </trkpt>
      <trkpt lat="40.9853150" lon="-3.3020430">
        <ele>959.0</ele>
        <time>2020-09-29T14:42:05Z</time>
      </trkpt>
      <trkpt lat="40.9852620" lon="-3.3020650">
        <ele>959.0</ele>
        <time>2020-09-29T14:42:06Z</time>
      </trkpt>
      <trkpt lat="40.9852330" lon="-3.3020730">
        <ele>959.0</ele>
        <time>2020-09-29T14:42:07Z</time>
      </trkpt>
      <trkpt lat="40.9852330" lon="-3.3020730">
        <ele>959.0</ele>
        <time>2020-09-29T14:42:08Z</time>
      </trkpt>
      <trkpt lat="40.9851870" lon="-3.3020930">
        <ele>960.0</ele>
        <time>2020-09-29T14:42:09Z</time>
      </trkpt>
      <trkpt lat="40.9851620" lon="-3.3021050">
        <ele>960.0</ele>
        <time>2020-09-29T14:42:10Z</time>
      </trkpt>
      <trkpt lat="40.9851620" lon="-3.3021050">
        <ele>961.0</ele>
        <time>2020-09-29T14:42:11Z</time>
      </trkpt>
      <trkpt lat="40.9851080" lon="-3.3021220">
        <ele>961.0</ele>
        <time>2020-09-29T14:42:12Z</time>
      </trkpt>
      <trkpt lat="40.9850830" lon="-3.3021370">
        <ele>961.0</ele>
        <time>2020-09-29T14:42:13Z</time>
      </trkpt>
      <trkpt lat="40.9850830" lon="-3.3021370">
        <ele>962.0</ele>
        <time>2020-09-29T14:42:14Z</time>
      </trkpt>
      <trkpt lat="40.9850250" lon="-3.3021700">
        <ele>962.0</ele>
        <time>2020-09-29T14:42:15Z</time>
      </trkpt>
      <trkpt lat="40.9849950" lon="-3.3021880">
        <ele>962.0</ele>
        <time>2020-09-29T14:42:16Z</time>
      </trkpt>
      <trkpt lat="40.9849950" lon="-3.3021880">
        <ele>962.0</ele>
        <time>2020-09-29T14:42:17Z</time>
      </trkpt>
      <trkpt lat="40.9849530" lon="-3.3022220">
        <ele>962.0</ele>
        <time>2020-09-29T14:42:18Z</time>
      </trkpt>
      <trkpt lat="40.9849530" lon="-3.3022220">
        <ele>963.0</ele>
        <time>2020-09-29T14:42:19Z</time>
      </trkpt>
      <trkpt lat="40.9849120" lon="-3.3022580">
        <ele>963.0</ele>
        <time>2020-09-29T14:42:20Z</time>
      </trkpt>
      <trkpt lat="40.9848930" lon="-3.3022820">
        <ele>963.0</ele>
        <time>2020-09-29T14:42:21Z</time>
      </trkpt>
      <trkpt lat="40.9848930" lon="-3.3022820">
        <ele>963.0</ele>
        <time>2020-09-29T14:42:22Z</time>
      </trkpt>
      <trkpt lat="40.9848620" lon="-3.3023270">
        <ele>964.0</ele>
        <time>2020-09-29T14:42:23Z</time>
      </trkpt>
      <trkpt lat="40.9848450" lon="-3.3023500">
        <ele>964.0</ele>
        <time>2020-09-29T14:42:24Z</time>
      </trkpt>
      <trkpt lat="40.9848450" lon="-3.3023500">
        <ele>964.0</ele>
        <time>2020-09-29T14:42:25Z</time>
      </trkpt>
      <trkpt lat="40.9848180" lon="-3.3024000">
        <ele>964.0</ele>
        <time>2020-09-29T14:42:26Z</time>
      </trkpt>
      <trkpt lat="40.9848180" lon="-3.3024000">
        <ele>965.0</ele>
        <time>2020-09-29T14:42:27Z</time>
      </trkpt>
      <trkpt lat="40.9847930" lon="-3.3024620">
        <ele>965.0</ele>
        <time>2020-09-29T14:42:28Z</time>
      </trkpt>
      <trkpt lat="40.9847930" lon="-3.3024620">
        <ele>965.0</ele>
        <time>2020-09-29T14:42:29Z</time>
      </trkpt>
      <trkpt lat="40.9847770" lon="-3.3025370">
        <ele>965.0</ele>
        <time>2020-09-29T14:42:30Z</time>
      </trkpt>
      <trkpt lat="40.9847770" lon="-3.3025370">
        <ele>965.0</ele>
        <time>2020-09-29T14:42:31Z</time>
      </trkpt>
      <trkpt lat="40.9847620" lon="-3.3026170">
        <ele>965.0</ele>
        <time>2020-09-29T14:42:32Z</time>
      </trkpt>
      <trkpt lat="40.9847620" lon="-3.3026170">
        <ele>966.0</ele>
        <time>2020-09-29T14:42:33Z</time>
      </trkpt>
      <trkpt lat="40.9847450" lon="-3.3027050">
        <ele>966.0</ele>
        <time>2020-09-29T14:42:34Z</time>
      </trkpt>
      <trkpt lat="40.9847380" lon="-3.3027530">
        <ele>966.0</ele>
        <time>2020-09-29T14:42:35Z</time>
      </trkpt>
      <trkpt lat="40.9847380" lon="-3.3027530">
        <ele>966.0</ele>
        <time>2020-09-29T14:42:36Z</time>
      </trkpt>
      <trkpt lat="40.9847300" lon="-3.3028520">
        <ele>966.0</ele>
        <time>2020-09-29T14:42:37Z</time>
      </trkpt>
      <trkpt lat="40.9847300" lon="-3.3028520">
        <ele>966.0</ele>
        <time>2020-09-29T14:42:38Z</time>
      </trkpt>
      <trkpt lat="40.9847180" lon="-3.3029450">
        <ele>966.0</ele>
        <time>2020-09-29T14:42:39Z</time>
      </trkpt>
      <trkpt lat="40.9847080" lon="-3.3029920">
        <ele>966.0</ele>
        <time>2020-09-29T14:42:40Z</time>
      </trkpt>
      <trkpt lat="40.9847080" lon="-3.3029920">
        <ele>966.0</ele>
        <time>2020-09-29T14:42:41Z</time>
      </trkpt>
      <trkpt lat="40.9846980" lon="-3.3030950">
        <ele>966.0</ele>
        <time>2020-09-29T14:42:42Z</time>
      </trkpt>
      <trkpt lat="40.9846980" lon="-3.3030950">
        <ele>966.0</ele>
        <time>2020-09-29T14:42:43Z</time>
      </trkpt>
      <trkpt lat="40.9846800" lon="-3.3031970">
        <ele>966.0</ele>
        <time>2020-09-29T14:42:44Z</time>
      </trkpt>
      <trkpt lat="40.9846800" lon="-3.3031970">
        <ele>966.0</ele>
        <time>2020-09-29T14:42:45Z</time>
      </trkpt>
      <trkpt lat="40.9846500" lon="-3.3032930">
        <ele>966.0</ele>
        <time>2020-09-29T14:42:46Z</time>
      </trkpt>
      <trkpt lat="40.9846500" lon="-3.3032930">
        <ele>967.0</ele>
        <time>2020-09-29T14:42:47Z</time>
      </trkpt>
      <trkpt lat="40.9846200" lon="-3.3033870">
        <ele>967.0</ele>
        <time>2020-09-29T14:42:48Z</time>
      </trkpt>
      <trkpt lat="40.9846070" lon="-3.3034320">
        <ele>967.0</ele>
        <time>2020-09-29T14:42:49Z</time>
      </trkpt>
      <trkpt lat="40.9846070" lon="-3.3034320">
        <ele>967.0</ele>
        <time>2020-09-29T14:42:50Z</time>
      </trkpt>
      <trkpt lat="40.9845650" lon="-3.3035000">
        <ele>967.0</ele>
        <time>2020-09-29T14:42:51Z</time>
      </trkpt>
      <trkpt lat="40.9845650" lon="-3.3035000">
        <ele>968.0</ele>
        <time>2020-09-29T14:42:52Z</time>
      </trkpt>
      <trkpt lat="40.9844920" lon="-3.3035380">
        <ele>968.0</ele>
        <time>2020-09-29T14:42:53Z</time>
      </trkpt>
      <trkpt lat="40.9844920" lon="-3.3035380">
        <ele>968.0</ele>
        <time>2020-09-29T14:42:54Z</time>
      </trkpt>
      <trkpt lat="40.9844250" lon="-3.3035170">
        <ele>968.0</ele>
        <time>2020-09-29T14:42:55Z</time>
      </trkpt>
      <trkpt lat="40.9843980" lon="-3.3034950">
        <ele>969.0</ele>
        <time>2020-09-29T14:42:56Z</time>
      </trkpt>
      <trkpt lat="40.9843980" lon="-3.3034950">
        <ele>969.0</ele>
        <time>2020-09-29T14:42:57Z</time>
      </trkpt>
      <trkpt lat="40.9843430" lon="-3.3034430">
        <ele>969.0</ele>
        <time>2020-09-29T14:42:58Z</time>
      </trkpt>
      <trkpt lat="40.9843430" lon="-3.3034430">
        <ele>969.0</ele>
        <time>2020-09-29T14:42:59Z</time>
      </trkpt>
      <trkpt lat="40.9842950" lon="-3.3033970">
        <ele>969.0</ele>
        <time>2020-09-29T14:43:00Z</time>
      </trkpt>
      <trkpt lat="40.9842950" lon="-3.3033970">
        <ele>969.0</ele>
        <time>2020-09-29T14:43:01Z</time>
      </trkpt>
      <trkpt lat="40.9842380" lon="-3.3033600">
        <ele>970.0</ele>
        <time>2020-09-29T14:43:02Z</time>
      </trkpt>
      <trkpt lat="40.9842380" lon="-3.3033600">
        <ele>970.0</ele>
        <time>2020-09-29T14:43:03Z</time>
      </trkpt>
      <trkpt lat="40.9841820" lon="-3.3033300">
        <ele>970.0</ele>
        <time>2020-09-29T14:43:04Z</time>
      </trkpt>
      <trkpt lat="40.9841530" lon="-3.3033130">
        <ele>970.0</ele>
        <time>2020-09-29T14:43:05Z</time>
      </trkpt>
      <trkpt lat="40.9841530" lon="-3.3033130">
        <ele>971.0</ele>
        <time>2020-09-29T14:43:06Z</time>
      </trkpt>
      <trkpt lat="40.9840970" lon="-3.3032870">
        <ele>971.0</ele>
        <time>2020-09-29T14:43:07Z</time>
      </trkpt>
      <trkpt lat="40.9840970" lon="-3.3032870">
        <ele>971.0</ele>
        <time>2020-09-29T14:43:08Z</time>
      </trkpt>
      <trkpt lat="40.9840370" lon="-3.3032670">
        <ele>971.0</ele>
        <time>2020-09-29T14:43:09Z</time>
      </trkpt>
      <trkpt lat="40.9840370" lon="-3.3032670">
        <ele>971.0</ele>
        <time>2020-09-29T14:43:10Z</time>
      </trkpt>
      <trkpt lat="40.9839770" lon="-3.3032580">
        <ele>972.0</ele>
        <time>2020-09-29T14:43:11Z</time>
      </trkpt>
      <trkpt lat="40.9839430" lon="-3.3032520">
        <ele>972.0</ele>
        <time>2020-09-29T14:43:12Z</time>
      </trkpt>
      <trkpt lat="40.9839430" lon="-3.3032520">
        <ele>972.0</ele>
        <time>2020-09-29T14:43:13Z</time>
      </trkpt>
      <trkpt lat="40.9838720" lon="-3.3032530">
        <ele>972.0</ele>
        <time>2020-09-29T14:43:14Z</time>
      </trkpt>
      <trkpt lat="40.9838720" lon="-3.3032530">
        <ele>973.0</ele>
        <time>2020-09-29T14:43:15Z</time>
      </trkpt>
      <trkpt lat="40.9838070" lon="-3.3032520">
        <ele>973.0</ele>
        <time>2020-09-29T14:43:16Z</time>
      </trkpt>
      <trkpt lat="40.9838070" lon="-3.3032520">
        <ele>974.0</ele>
        <time>2020-09-29T14:43:17Z</time>
      </trkpt>
      <trkpt lat="40.9837370" lon="-3.3032480">
        <ele>974.0</ele>
        <time>2020-09-29T14:43:18Z</time>
      </trkpt>
      <trkpt lat="40.9837370" lon="-3.3032480">
        <ele>974.0</ele>
        <time>2020-09-29T14:43:19Z</time>
      </trkpt>
      <trkpt lat="40.9836700" lon="-3.3032530">
        <ele>974.0</ele>
        <time>2020-09-29T14:43:20Z</time>
      </trkpt>
      <trkpt lat="40.9836370" lon="-3.3032530">
        <ele>975.0</ele>
        <time>2020-09-29T14:43:21Z</time>
      </trkpt>
      <trkpt lat="40.9836370" lon="-3.3032530">
        <ele>975.0</ele>
        <time>2020-09-29T14:43:22Z</time>
      </trkpt>
      <trkpt lat="40.9835680" lon="-3.3032550">
        <ele>975.0</ele>
        <time>2020-09-29T14:43:23Z</time>
      </trkpt>
      <trkpt lat="40.9835680" lon="-3.3032550">
        <ele>975.0</ele>
        <time>2020-09-29T14:43:24Z</time>
      </trkpt>
      <trkpt lat="40.9835020" lon="-3.3032670">
        <ele>975.0</ele>
        <time>2020-09-29T14:43:25Z</time>
      </trkpt>
      <trkpt lat="40.9835020" lon="-3.3032670">
        <ele>976.0</ele>
        <time>2020-09-29T14:43:26Z</time>
      </trkpt>
      <trkpt lat="40.9834350" lon="-3.3032730">
        <ele>976.0</ele>
        <time>2020-09-29T14:43:27Z</time>
      </trkpt>
      <trkpt lat="40.9834020" lon="-3.3032770">
        <ele>976.0</ele>
        <time>2020-09-29T14:43:28Z</time>
      </trkpt>
      <trkpt lat="40.9834020" lon="-3.3032770">
        <ele>976.0</ele>
        <time>2020-09-29T14:43:29Z</time>
      </trkpt>
      <trkpt lat="40.9833320" lon="-3.3033020">
        <ele>977.0</ele>
        <time>2020-09-29T14:43:30Z</time>
      </trkpt>
      <trkpt lat="40.9833320" lon="-3.3033020">
        <ele>977.0</ele>
        <time>2020-09-29T14:43:31Z</time>
      </trkpt>
      <trkpt lat="40.9832650" lon="-3.3033400">
        <ele>977.0</ele>
        <time>2020-09-29T14:43:32Z</time>
      </trkpt>
      <trkpt lat="40.9832650" lon="-3.3033400">
        <ele>977.0</ele>
        <time>2020-09-29T14:43:33Z</time>
      </trkpt>
      <trkpt lat="40.9832150" lon="-3.3033670">
        <ele>977.0</ele>
        <time>2020-09-29T14:43:34Z</time>
      </trkpt>
      <trkpt lat="40.9832150" lon="-3.3033670">
        <ele>977.0</ele>
        <time>2020-09-29T14:43:35Z</time>
      </trkpt>
      <trkpt lat="40.9831920" lon="-3.3033800">
        <ele>977.0</ele>
        <time>2020-09-29T14:43:36Z</time>
      </trkpt>
      <trkpt lat="40.9831920" lon="-3.3033800">
        <ele>977.0</ele>
        <time>2020-09-29T14:43:37Z</time>
      </trkpt>
      <trkpt lat="40.9831950" lon="-3.3033780">
        <ele>977.0</ele>
        <time>2020-09-29T14:44:25Z</time>
      </trkpt>
      <trkpt lat="40.9831950" lon="-3.3033780">
        <ele>977.0</ele>
        <time>2020-09-29T14:44:26Z</time>
      </trkpt>
      <trkpt lat="40.9831730" lon="-3.3034580">
        <ele>976.0</ele>
        <time>2020-09-29T14:44:27Z</time>
      </trkpt>
      <trkpt lat="40.9831730" lon="-3.3034580">
        <ele>976.0</ele>
        <time>2020-09-29T14:44:28Z</time>
      </trkpt>
      <trkpt lat="40.9831050" lon="-3.3035580">
        <ele>976.0</ele>
        <time>2020-09-29T14:44:29Z</time>
      </trkpt>
      <trkpt lat="40.9831050" lon="-3.3035580">
        <ele>976.0</ele>
        <time>2020-09-29T14:44:30Z</time>
      </trkpt>
      <trkpt lat="40.9830170" lon="-3.3036670">
        <ele>975.0</ele>
        <time>2020-09-29T14:44:31Z</time>
      </trkpt>
      <trkpt lat="40.9830170" lon="-3.3036670">
        <ele>975.0</ele>
        <time>2020-09-29T14:44:32Z</time>
      </trkpt>
      <trkpt lat="40.9828920" lon="-3.3037220">
        <ele>974.0</ele>
        <time>2020-09-29T14:44:33Z</time>
      </trkpt>
      <trkpt lat="40.9828250" lon="-3.3037250">
        <ele>974.0</ele>
        <time>2020-09-29T14:44:34Z</time>
      </trkpt>
      <trkpt lat="40.9828250" lon="-3.3037250">
        <ele>973.0</ele>
        <time>2020-09-29T14:44:35Z</time>
      </trkpt>
      <trkpt lat="40.9826800" lon="-3.3037200">
        <ele>973.0</ele>
        <time>2020-09-29T14:44:36Z</time>
      </trkpt>
      <trkpt lat="40.9826000" lon="-3.3037150">
        <ele>972.0</ele>
        <time>2020-09-29T14:44:37Z</time>
      </trkpt>
      <trkpt lat="40.9826000" lon="-3.3037150">
        <ele>972.0</ele>
        <time>2020-09-29T14:44:38Z</time>
      </trkpt>
      <trkpt lat="40.9824350" lon="-3.3037150">
        <ele>971.0</ele>
        <time>2020-09-29T14:44:39Z</time>
      </trkpt>
      <trkpt lat="40.9823550" lon="-3.3037170">
        <ele>971.0</ele>
        <time>2020-09-29T14:44:40Z</time>
      </trkpt>
      <trkpt lat="40.9823550" lon="-3.3037170">
        <ele>969.0</ele>
        <time>2020-09-29T14:44:41Z</time>
      </trkpt>
      <trkpt lat="40.9821980" lon="-3.3037200">
        <ele>969.0</ele>
        <time>2020-09-29T14:44:42Z</time>
      </trkpt>
      <trkpt lat="40.9821270" lon="-3.3037250">
        <ele>968.0</ele>
        <time>2020-09-29T14:44:43Z</time>
      </trkpt>
      <trkpt lat="40.9821270" lon="-3.3037250">
        <ele>968.0</ele>
        <time>2020-09-29T14:44:44Z</time>
      </trkpt>
      <trkpt lat="40.9819830" lon="-3.3037880">
        <ele>966.0</ele>
        <time>2020-09-29T14:44:45Z</time>
      </trkpt>
      <trkpt lat="40.9819830" lon="-3.3037880">
        <ele>966.0</ele>
        <time>2020-09-29T14:44:46Z</time>
      </trkpt>
      <trkpt lat="40.9818420" lon="-3.3038880">
        <ele>965.0</ele>
        <time>2020-09-29T14:44:47Z</time>
      </trkpt>
      <trkpt lat="40.9817720" lon="-3.3039470">
        <ele>965.0</ele>
        <time>2020-09-29T14:44:48Z</time>
      </trkpt>
      <trkpt lat="40.9817720" lon="-3.3039470">
        <ele>964.0</ele>
        <time>2020-09-29T14:44:49Z</time>
      </trkpt>
      <trkpt lat="40.9816380" lon="-3.3040750">
        <ele>964.0</ele>
        <time>2020-09-29T14:44:50Z</time>
      </trkpt>
      <trkpt lat="40.9816380" lon="-3.3040750">
        <ele>962.0</ele>
        <time>2020-09-29T14:44:51Z</time>
      </trkpt>
      <trkpt lat="40.9815280" lon="-3.3042400">
        <ele>962.0</ele>
        <time>2020-09-29T14:44:52Z</time>
      </trkpt>
      <trkpt lat="40.9815280" lon="-3.3042400">
        <ele>961.0</ele>
        <time>2020-09-29T14:44:53Z</time>
      </trkpt>
      <trkpt lat="40.9814280" lon="-3.3044220">
        <ele>959.0</ele>
        <time>2020-09-29T14:44:54Z</time>
      </trkpt>
      <trkpt lat="40.9814280" lon="-3.3044220">
        <ele>959.0</ele>
        <time>2020-09-29T14:44:55Z</time>
      </trkpt>
      <trkpt lat="40.9813250" lon="-3.3045680">
        <ele>959.0</ele>
        <time>2020-09-29T14:44:56Z</time>
      </trkpt>
      <trkpt lat="40.9812580" lon="-3.3046170">
        <ele>957.0</ele>
        <time>2020-09-29T14:44:57Z</time>
      </trkpt>
      <trkpt lat="40.9812580" lon="-3.3046170">
        <ele>957.0</ele>
        <time>2020-09-29T14:44:58Z</time>
      </trkpt>
      <trkpt lat="40.9811000" lon="-3.3046750">
        <ele>955.0</ele>
        <time>2020-09-29T14:44:59Z</time>
      </trkpt>
      <trkpt lat="40.9811000" lon="-3.3046750">
        <ele>954.0</ele>
        <time>2020-09-29T14:45:00Z</time>
      </trkpt>
      <trkpt lat="40.9809250" lon="-3.3046750">
        <ele>954.0</ele>
        <time>2020-09-29T14:45:01Z</time>
      </trkpt>
      <trkpt lat="40.9809250" lon="-3.3046750">
        <ele>953.0</ele>
        <time>2020-09-29T14:45:02Z</time>
      </trkpt>
      <trkpt lat="40.9807420" lon="-3.3046550">
        <ele>953.0</ele>
        <time>2020-09-29T14:45:03Z</time>
      </trkpt>
      <trkpt lat="40.9806480" lon="-3.3046530">
        <ele>951.0</ele>
        <time>2020-09-29T14:45:04Z</time>
      </trkpt>
      <trkpt lat="40.9805530" lon="-3.3046650">
        <ele>951.0</ele>
        <time>2020-09-29T14:45:05Z</time>
      </trkpt>
      <trkpt lat="40.9805530" lon="-3.3046650">
        <ele>951.0</ele>
        <time>2020-09-29T14:45:06Z</time>
      </trkpt>
      <trkpt lat="40.9803620" lon="-3.3047230">
        <ele>951.0</ele>
        <time>2020-09-29T14:45:07Z</time>
      </trkpt>
      <trkpt lat="40.9803620" lon="-3.3047230">
        <ele>949.0</ele>
        <time>2020-09-29T14:45:08Z</time>
      </trkpt>
      <trkpt lat="40.9801770" lon="-3.3048300">
        <ele>949.0</ele>
        <time>2020-09-29T14:45:09Z</time>
      </trkpt>
      <trkpt lat="40.9800970" lon="-3.3048920">
        <ele>948.0</ele>
        <time>2020-09-29T14:45:10Z</time>
      </trkpt>
      <trkpt lat="40.9800970" lon="-3.3048920">
        <ele>948.0</ele>
        <time>2020-09-29T14:45:11Z</time>
      </trkpt>
      <trkpt lat="40.9799700" lon="-3.3050250">
        <ele>947.0</ele>
        <time>2020-09-29T14:45:12Z</time>
      </trkpt>
      <trkpt lat="40.9799130" lon="-3.3050820">
        <ele>947.0</ele>
        <time>2020-09-29T14:45:13Z</time>
      </trkpt>
      <trkpt lat="40.9799130" lon="-3.3050820">
        <ele>945.0</ele>
        <time>2020-09-29T14:45:14Z</time>
      </trkpt>
      <trkpt lat="40.9797800" lon="-3.3051100">
        <ele>945.0</ele>
        <time>2020-09-29T14:45:15Z</time>
      </trkpt>
      <trkpt lat="40.9797800" lon="-3.3051100">
        <ele>944.0</ele>
        <time>2020-09-29T14:45:16Z</time>
      </trkpt>
      <trkpt lat="40.9796580" lon="-3.3049950">
        <ele>944.0</ele>
        <time>2020-09-29T14:45:17Z</time>
      </trkpt>
      <trkpt lat="40.9796580" lon="-3.3049950">
        <ele>943.0</ele>
        <time>2020-09-29T14:45:18Z</time>
      </trkpt>
      <trkpt lat="40.9795570" lon="-3.3048250">
        <ele>943.0</ele>
        <time>2020-09-29T14:45:19Z</time>
      </trkpt>
      <trkpt lat="40.9794970" lon="-3.3047430">
        <ele>942.0</ele>
        <time>2020-09-29T14:45:20Z</time>
      </trkpt>
      <trkpt lat="40.9794970" lon="-3.3047430">
        <ele>942.0</ele>
        <time>2020-09-29T14:45:21Z</time>
      </trkpt>
      <trkpt lat="40.9793530" lon="-3.3045900">
        <ele>941.0</ele>
        <time>2020-09-29T14:45:22Z</time>
      </trkpt>
      <trkpt lat="40.9793530" lon="-3.3045900">
        <ele>941.0</ele>
        <time>2020-09-29T14:45:23Z</time>
      </trkpt>
      <trkpt lat="40.9792020" lon="-3.3044320">
        <ele>940.0</ele>
        <time>2020-09-29T14:45:24Z</time>
      </trkpt>
      <trkpt lat="40.9792020" lon="-3.3044320">
        <ele>940.0</ele>
        <time>2020-09-29T14:45:25Z</time>
      </trkpt>
      <trkpt lat="40.9790450" lon="-3.3042630">
        <ele>939.0</ele>
        <time>2020-09-29T14:45:26Z</time>
      </trkpt>
      <trkpt lat="40.9790450" lon="-3.3042630">
        <ele>939.0</ele>
        <time>2020-09-29T14:45:27Z</time>
      </trkpt>
      <trkpt lat="40.9788850" lon="-3.3040780">
        <ele>937.0</ele>
        <time>2020-09-29T14:45:28Z</time>
      </trkpt>
      <trkpt lat="40.9788030" lon="-3.3039820">
        <ele>936.0</ele>
        <time>2020-09-29T14:45:29Z</time>
      </trkpt>
      <trkpt lat="40.9788030" lon="-3.3039820">
        <ele>936.0</ele>
        <time>2020-09-29T14:45:30Z</time>
      </trkpt>
      <trkpt lat="40.9786350" lon="-3.3037850">
        <ele>934.0</ele>
        <time>2020-09-29T14:45:31Z</time>
      </trkpt>
      <trkpt lat="40.9786350" lon="-3.3037850">
        <ele>934.0</ele>
        <time>2020-09-29T14:45:32Z</time>
      </trkpt>
      <trkpt lat="40.9784670" lon="-3.3035830">
        <ele>934.0</ele>
        <time>2020-09-29T14:45:33Z</time>
      </trkpt>
      <trkpt lat="40.9784670" lon="-3.3035830">
        <ele>932.0</ele>
        <time>2020-09-29T14:45:34Z</time>
      </trkpt>
      <trkpt lat="40.9783100" lon="-3.3033820">
        <ele>930.0</ele>
        <time>2020-09-29T14:45:35Z</time>
      </trkpt>
      <trkpt lat="40.9782330" lon="-3.3032920">
        <ele>930.0</ele>
        <time>2020-09-29T14:45:36Z</time>
      </trkpt>
      <trkpt lat="40.9782330" lon="-3.3032920">
        <ele>928.0</ele>
        <time>2020-09-29T14:45:37Z</time>
      </trkpt>
      <trkpt lat="40.9780600" lon="-3.3031350">
        <ele>928.0</ele>
        <time>2020-09-29T14:45:38Z</time>
      </trkpt>
      <trkpt lat="40.9780600" lon="-3.3031350">
        <ele>926.0</ele>
        <time>2020-09-29T14:45:39Z</time>
      </trkpt>
      <trkpt lat="40.9778750" lon="-3.3029930">
        <ele>926.0</ele>
        <time>2020-09-29T14:45:40Z</time>
      </trkpt>
      <trkpt lat="40.9778750" lon="-3.3029930">
        <ele>924.0</ele>
        <time>2020-09-29T14:45:41Z</time>
      </trkpt>
      <trkpt lat="40.9777000" lon="-3.3028650">
        <ele>924.0</ele>
        <time>2020-09-29T14:45:42Z</time>
      </trkpt>
      <trkpt lat="40.9777000" lon="-3.3028650">
        <ele>922.0</ele>
        <time>2020-09-29T14:45:43Z</time>
      </trkpt>
      <trkpt lat="40.9775330" lon="-3.3027280">
        <ele>922.0</ele>
        <time>2020-09-29T14:45:44Z</time>
      </trkpt>
      <trkpt lat="40.9775330" lon="-3.3027280">
        <ele>920.0</ele>
        <time>2020-09-29T14:45:45Z</time>
      </trkpt>
      <trkpt lat="40.9773820" lon="-3.3025680">
        <ele>920.0</ele>
        <time>2020-09-29T14:45:46Z</time>
      </trkpt>
      <trkpt lat="40.9773820" lon="-3.3025680">
        <ele>918.0</ele>
        <time>2020-09-29T14:45:47Z</time>
      </trkpt>
      <trkpt lat="40.9772600" lon="-3.3023880">
        <ele>918.0</ele>
        <time>2020-09-29T14:45:48Z</time>
      </trkpt>
      <trkpt lat="40.9772020" lon="-3.3023130">
        <ele>916.0</ele>
        <time>2020-09-29T14:45:49Z</time>
      </trkpt>
      <trkpt lat="40.9772020" lon="-3.3023130">
        <ele>916.0</ele>
        <time>2020-09-29T14:45:50Z</time>
      </trkpt>
      <trkpt lat="40.9770780" lon="-3.3022200">
        <ele>915.0</ele>
        <time>2020-09-29T14:45:51Z</time>
      </trkpt>
      <trkpt lat="40.9770050" lon="-3.3021950">
        <ele>915.0</ele>
        <time>2020-09-29T14:45:52Z</time>
      </trkpt>
      <trkpt lat="40.9769280" lon="-3.3021930">
        <ele>914.0</ele>
        <time>2020-09-29T14:45:53Z</time>
      </trkpt>
      <trkpt lat="40.9769280" lon="-3.3021930">
        <ele>914.0</ele>
        <time>2020-09-29T14:45:54Z</time>
      </trkpt>
      <trkpt lat="40.9767720" lon="-3.3022620">
        <ele>912.0</ele>
        <time>2020-09-29T14:45:55Z</time>
      </trkpt>
      <trkpt lat="40.9767720" lon="-3.3022620">
        <ele>912.0</ele>
        <time>2020-09-29T14:45:56Z</time>
      </trkpt>
      <trkpt lat="40.9766080" lon="-3.3023600">
        <ele>911.0</ele>
        <time>2020-09-29T14:45:57Z</time>
      </trkpt>
      <trkpt lat="40.9765280" lon="-3.3024150">
        <ele>911.0</ele>
        <time>2020-09-29T14:45:58Z</time>
      </trkpt>
      <trkpt lat="40.9764550" lon="-3.3024750">
        <ele>911.0</ele>
        <time>2020-09-29T14:45:59Z</time>
      </trkpt>
      <trkpt lat="40.9763930" lon="-3.3025520">
        <ele>910.0</ele>
        <time>2020-09-29T14:46:00Z</time>
      </trkpt>
      <trkpt lat="40.9763570" lon="-3.3026480">
        <ele>910.0</ele>
        <time>2020-09-29T14:46:01Z</time>
      </trkpt>
      <trkpt lat="40.9763570" lon="-3.3026480">
        <ele>909.0</ele>
        <time>2020-09-29T14:46:02Z</time>
      </trkpt>
      <trkpt lat="40.9763370" lon="-3.3028700">
        <ele>909.0</ele>
        <time>2020-09-29T14:46:03Z</time>
      </trkpt>
      <trkpt lat="40.9763320" lon="-3.3029780">
        <ele>908.0</ele>
        <time>2020-09-29T14:46:04Z</time>
      </trkpt>
      <trkpt lat="40.9763150" lon="-3.3030770">
        <ele>908.0</ele>
        <time>2020-09-29T14:46:05Z</time>
      </trkpt>
      <trkpt lat="40.9763150" lon="-3.3030770">
        <ele>908.0</ele>
        <time>2020-09-29T14:46:06Z</time>
      </trkpt>
      <trkpt lat="40.9762250" lon="-3.3032170">
        <ele>908.0</ele>
        <time>2020-09-29T14:46:07Z</time>
      </trkpt>
      <trkpt lat="40.9762250" lon="-3.3032170">
        <ele>908.0</ele>
        <time>2020-09-29T14:46:08Z</time>
      </trkpt>
      <trkpt lat="40.9760970" lon="-3.3032300">
        <ele>908.0</ele>
        <time>2020-09-29T14:46:09Z</time>
      </trkpt>
      <trkpt lat="40.9760970" lon="-3.3032300">
        <ele>908.0</ele>
        <time>2020-09-29T14:46:10Z</time>
      </trkpt>
      <trkpt lat="40.9759970" lon="-3.3031420">
        <ele>908.0</ele>
        <time>2020-09-29T14:46:11Z</time>
      </trkpt>
      <trkpt lat="40.9759970" lon="-3.3031420">
        <ele>908.0</ele>
        <time>2020-09-29T14:46:12Z</time>
      </trkpt>
      <trkpt lat="40.9759150" lon="-3.3030330">
        <ele>908.0</ele>
        <time>2020-09-29T14:46:13Z</time>
      </trkpt>
      <trkpt lat="40.9759150" lon="-3.3030330">
        <ele>908.0</ele>
        <time>2020-09-29T14:46:14Z</time>
      </trkpt>
      <trkpt lat="40.9758130" lon="-3.3029470">
        <ele>908.0</ele>
        <time>2020-09-29T14:46:15Z</time>
      </trkpt>
      <trkpt lat="40.9757580" lon="-3.3029180">
        <ele>908.0</ele>
        <time>2020-09-29T14:46:16Z</time>
      </trkpt>
      <trkpt lat="40.9757580" lon="-3.3029180">
        <ele>908.0</ele>
        <time>2020-09-29T14:46:17Z</time>
      </trkpt>
      <trkpt lat="40.9756470" lon="-3.3028980">
        <ele>908.0</ele>
        <time>2020-09-29T14:46:18Z</time>
      </trkpt>
      <trkpt lat="40.9755930" lon="-3.3029030">
        <ele>908.0</ele>
        <time>2020-09-29T14:46:19Z</time>
      </trkpt>
      <trkpt lat="40.9755930" lon="-3.3029030">
        <ele>908.0</ele>
        <time>2020-09-29T14:46:20Z</time>
      </trkpt>
      <trkpt lat="40.9754950" lon="-3.3029400">
        <ele>908.0</ele>
        <time>2020-09-29T14:46:21Z</time>
      </trkpt>
      <trkpt lat="40.9754950" lon="-3.3029400">
        <ele>909.0</ele>
        <time>2020-09-29T14:46:22Z</time>
      </trkpt>
      <trkpt lat="40.9754030" lon="-3.3029680">
        <ele>909.0</ele>
        <time>2020-09-29T14:46:23Z</time>
      </trkpt>
      <trkpt lat="40.9754030" lon="-3.3029680">
        <ele>909.0</ele>
        <time>2020-09-29T14:46:24Z</time>
      </trkpt>
      <trkpt lat="40.9753180" lon="-3.3029900">
        <ele>909.0</ele>
        <time>2020-09-29T14:46:25Z</time>
      </trkpt>
      <trkpt lat="40.9753180" lon="-3.3029900">
        <ele>909.0</ele>
        <time>2020-09-29T14:46:26Z</time>
      </trkpt>
      <trkpt lat="40.9752400" lon="-3.3030170">
        <ele>909.0</ele>
        <time>2020-09-29T14:46:27Z</time>
      </trkpt>
      <trkpt lat="40.9752020" lon="-3.3030330">
        <ele>910.0</ele>
        <time>2020-09-29T14:46:28Z</time>
      </trkpt>
      <trkpt lat="40.9752020" lon="-3.3030330">
        <ele>910.0</ele>
        <time>2020-09-29T14:46:29Z</time>
      </trkpt>
      <trkpt lat="40.9751250" lon="-3.3030700">
        <ele>911.0</ele>
        <time>2020-09-29T14:46:30Z</time>
      </trkpt>
      <trkpt lat="40.9751250" lon="-3.3030700">
        <ele>911.0</ele>
        <time>2020-09-29T14:46:31Z</time>
      </trkpt>
      <trkpt lat="40.9750550" lon="-3.3031270">
        <ele>911.0</ele>
        <time>2020-09-29T14:46:32Z</time>
      </trkpt>
      <trkpt lat="40.9750200" lon="-3.3031570">
        <ele>911.0</ele>
        <time>2020-09-29T14:46:33Z</time>
      </trkpt>
      <trkpt lat="40.9750200" lon="-3.3031570">
        <ele>911.0</ele>
        <time>2020-09-29T14:46:34Z</time>
      </trkpt>
      <trkpt lat="40.9749530" lon="-3.3032230">
        <ele>911.0</ele>
        <time>2020-09-29T14:46:35Z</time>
      </trkpt>
      <trkpt lat="40.9749530" lon="-3.3032230">
        <ele>912.0</ele>
        <time>2020-09-29T14:46:36Z</time>
      </trkpt>
      <trkpt lat="40.9748920" lon="-3.3033000">
        <ele>912.0</ele>
        <time>2020-09-29T14:46:37Z</time>
      </trkpt>
      <trkpt lat="40.9748920" lon="-3.3033000">
        <ele>912.0</ele>
        <time>2020-09-29T14:46:38Z</time>
      </trkpt>
      <trkpt lat="40.9748280" lon="-3.3033800">
        <ele>912.0</ele>
        <time>2020-09-29T14:46:39Z</time>
      </trkpt>
      <trkpt lat="40.9748280" lon="-3.3033800">
        <ele>912.0</ele>
        <time>2020-09-29T14:46:40Z</time>
      </trkpt>
      <trkpt lat="40.9747700" lon="-3.3034750">
        <ele>912.0</ele>
        <time>2020-09-29T14:46:41Z</time>
      </trkpt>
      <trkpt lat="40.9747330" lon="-3.3035230">
        <ele>912.0</ele>
        <time>2020-09-29T14:46:42Z</time>
      </trkpt>
      <trkpt lat="40.9747330" lon="-3.3035230">
        <ele>912.0</ele>
        <time>2020-09-29T14:46:43Z</time>
      </trkpt>
      <trkpt lat="40.9746580" lon="-3.3036180">
        <ele>912.0</ele>
        <time>2020-09-29T14:46:44Z</time>
      </trkpt>
      <trkpt lat="40.9746580" lon="-3.3036180">
        <ele>912.0</ele>
        <time>2020-09-29T14:46:45Z</time>
      </trkpt>
      <trkpt lat="40.9745850" lon="-3.3037170">
        <ele>912.0</ele>
        <time>2020-09-29T14:46:46Z</time>
      </trkpt>
      <trkpt lat="40.9745850" lon="-3.3037170">
        <ele>912.0</ele>
        <time>2020-09-29T14:46:47Z</time>
      </trkpt>
      <trkpt lat="40.9745130" lon="-3.3038080">
        <ele>912.0</ele>
        <time>2020-09-29T14:46:48Z</time>
      </trkpt>
      <trkpt lat="40.9744800" lon="-3.3038580">
        <ele>912.0</ele>
        <time>2020-09-29T14:46:49Z</time>
      </trkpt>
      <trkpt lat="40.9744800" lon="-3.3038580">
        <ele>912.0</ele>
        <time>2020-09-29T14:46:50Z</time>
      </trkpt>
      <trkpt lat="40.9744280" lon="-3.3039730">
        <ele>912.0</ele>
        <time>2020-09-29T14:46:51Z</time>
      </trkpt>
      <trkpt lat="40.9744280" lon="-3.3039730">
        <ele>912.0</ele>
        <time>2020-09-29T14:46:52Z</time>
      </trkpt>
      <trkpt lat="40.9744020" lon="-3.3041000">
        <ele>912.0</ele>
        <time>2020-09-29T14:46:53Z</time>
      </trkpt>
      <trkpt lat="40.9744020" lon="-3.3041000">
        <ele>912.0</ele>
        <time>2020-09-29T14:46:54Z</time>
      </trkpt>
      <trkpt lat="40.9744020" lon="-3.3042350">
        <ele>912.0</ele>
        <time>2020-09-29T14:46:55Z</time>
      </trkpt>
      <trkpt lat="40.9744080" lon="-3.3043050">
        <ele>912.0</ele>
        <time>2020-09-29T14:46:56Z</time>
      </trkpt>
      <trkpt lat="40.9744180" lon="-3.3043720">
        <ele>912.0</ele>
        <time>2020-09-29T14:46:57Z</time>
      </trkpt>
      <trkpt lat="40.9744180" lon="-3.3043720">
        <ele>912.0</ele>
        <time>2020-09-29T14:46:58Z</time>
      </trkpt>
      <trkpt lat="40.9744570" lon="-3.3044970">
        <ele>912.0</ele>
        <time>2020-09-29T14:46:59Z</time>
      </trkpt>
      <trkpt lat="40.9744570" lon="-3.3044970">
        <ele>912.0</ele>
        <time>2020-09-29T14:47:00Z</time>
      </trkpt>
      <trkpt lat="40.9745100" lon="-3.3046170">
        <ele>912.0</ele>
        <time>2020-09-29T14:47:01Z</time>
      </trkpt>
      <trkpt lat="40.9745100" lon="-3.3046170">
        <ele>912.0</ele>
        <time>2020-09-29T14:47:02Z</time>
      </trkpt>
      <trkpt lat="40.9745330" lon="-3.3047500">
        <ele>912.0</ele>
        <time>2020-09-29T14:47:03Z</time>
      </trkpt>
      <trkpt lat="40.9745150" lon="-3.3048150">
        <ele>912.0</ele>
        <time>2020-09-29T14:47:04Z</time>
      </trkpt>
      <trkpt lat="40.9745150" lon="-3.3048150">
        <ele>912.0</ele>
        <time>2020-09-29T14:47:05Z</time>
      </trkpt>
      <trkpt lat="40.9744400" lon="-3.3049050">
        <ele>912.0</ele>
        <time>2020-09-29T14:47:06Z</time>
      </trkpt>
      <trkpt lat="40.9743970" lon="-3.3049430">
        <ele>912.0</ele>
        <time>2020-09-29T14:47:07Z</time>
      </trkpt>
      <trkpt lat="40.9743970" lon="-3.3049430">
        <ele>912.0</ele>
        <time>2020-09-29T14:47:08Z</time>
      </trkpt>
      <trkpt lat="40.9743120" lon="-3.3050220">
        <ele>912.0</ele>
        <time>2020-09-29T14:47:09Z</time>
      </trkpt>
      <trkpt lat="40.9743120" lon="-3.3050220">
        <ele>912.0</ele>
        <time>2020-09-29T14:47:10Z</time>
      </trkpt>
      <trkpt lat="40.9742380" lon="-3.3051100">
        <ele>912.0</ele>
        <time>2020-09-29T14:47:11Z</time>
      </trkpt>
      <trkpt lat="40.9742000" lon="-3.3051600">
        <ele>912.0</ele>
        <time>2020-09-29T14:47:12Z</time>
      </trkpt>
      <trkpt lat="40.9742000" lon="-3.3051600">
        <ele>912.0</ele>
        <time>2020-09-29T14:47:13Z</time>
      </trkpt>
      <trkpt lat="40.9741230" lon="-3.3052650">
        <ele>912.0</ele>
        <time>2020-09-29T14:47:14Z</time>
      </trkpt>
      <trkpt lat="40.9741230" lon="-3.3052650">
        <ele>912.0</ele>
        <time>2020-09-29T14:47:15Z</time>
      </trkpt>
      <trkpt lat="40.9740530" lon="-3.3053930">
        <ele>912.0</ele>
        <time>2020-09-29T14:47:16Z</time>
      </trkpt>
      <trkpt lat="40.9740530" lon="-3.3053930">
        <ele>912.0</ele>
        <time>2020-09-29T14:47:17Z</time>
      </trkpt>
      <trkpt lat="40.9740230" lon="-3.3055380">
        <ele>912.0</ele>
        <time>2020-09-29T14:47:18Z</time>
      </trkpt>
      <trkpt lat="40.9740230" lon="-3.3055380">
        <ele>912.0</ele>
        <time>2020-09-29T14:47:19Z</time>
      </trkpt>
      <trkpt lat="40.9740450" lon="-3.3057000">
        <ele>912.0</ele>
        <time>2020-09-29T14:47:20Z</time>
      </trkpt>
      <trkpt lat="40.9740450" lon="-3.3057000">
        <ele>912.0</ele>
        <time>2020-09-29T14:47:21Z</time>
      </trkpt>
      <trkpt lat="40.9741020" lon="-3.3058570">
        <ele>912.0</ele>
        <time>2020-09-29T14:47:22Z</time>
      </trkpt>
      <trkpt lat="40.9741300" lon="-3.3059370">
        <ele>912.0</ele>
        <time>2020-09-29T14:47:23Z</time>
      </trkpt>
      <trkpt lat="40.9741300" lon="-3.3059370">
        <ele>912.0</ele>
        <time>2020-09-29T14:47:24Z</time>
      </trkpt>
      <trkpt lat="40.9741620" lon="-3.3061030">
        <ele>912.0</ele>
        <time>2020-09-29T14:47:25Z</time>
      </trkpt>
      <trkpt lat="40.9741620" lon="-3.3061030">
        <ele>911.0</ele>
        <time>2020-09-29T14:47:26Z</time>
      </trkpt>
      <trkpt lat="40.9741480" lon="-3.3062700">
        <ele>911.0</ele>
        <time>2020-09-29T14:47:27Z</time>
      </trkpt>
      <trkpt lat="40.9741250" lon="-3.3063470">
        <ele>911.0</ele>
        <time>2020-09-29T14:47:28Z</time>
      </trkpt>
      <trkpt lat="40.9741250" lon="-3.3063470">
        <ele>911.0</ele>
        <time>2020-09-29T14:47:29Z</time>
      </trkpt>
      <trkpt lat="40.9740480" lon="-3.3064870">
        <ele>911.0</ele>
        <time>2020-09-29T14:47:30Z</time>
      </trkpt>
      <trkpt lat="40.9740480" lon="-3.3064870">
        <ele>911.0</ele>
        <time>2020-09-29T14:47:31Z</time>
      </trkpt>
      <trkpt lat="40.9739580" lon="-3.3066200">
        <ele>911.0</ele>
        <time>2020-09-29T14:47:32Z</time>
      </trkpt>
      <trkpt lat="40.9739580" lon="-3.3066200">
        <ele>911.0</ele>
        <time>2020-09-29T14:47:33Z</time>
      </trkpt>
      <trkpt lat="40.9738880" lon="-3.3067800">
        <ele>910.0</ele>
        <time>2020-09-29T14:47:34Z</time>
      </trkpt>
      <trkpt lat="40.9738880" lon="-3.3067800">
        <ele>910.0</ele>
        <time>2020-09-29T14:47:35Z</time>
      </trkpt>
      <trkpt lat="40.9738820" lon="-3.3069620">
        <ele>910.0</ele>
        <time>2020-09-29T14:47:36Z</time>
      </trkpt>
      <trkpt lat="40.9738820" lon="-3.3069620">
        <ele>910.0</ele>
        <time>2020-09-29T14:47:37Z</time>
      </trkpt>
      <trkpt lat="40.9739400" lon="-3.3071370">
        <ele>910.0</ele>
        <time>2020-09-29T14:47:38Z</time>
      </trkpt>
      <trkpt lat="40.9739900" lon="-3.3072080">
        <ele>910.0</ele>
        <time>2020-09-29T14:47:39Z</time>
      </trkpt>
      <trkpt lat="40.9739900" lon="-3.3072080">
        <ele>909.0</ele>
        <time>2020-09-29T14:47:40Z</time>
      </trkpt>
      <trkpt lat="40.9741170" lon="-3.3073180">
        <ele>909.0</ele>
        <time>2020-09-29T14:47:41Z</time>
      </trkpt>
      <trkpt lat="40.9741170" lon="-3.3073180">
        <ele>909.0</ele>
        <time>2020-09-29T14:47:42Z</time>
      </trkpt>
      <trkpt lat="40.9742250" lon="-3.3074580">
        <ele>909.0</ele>
        <time>2020-09-29T14:47:43Z</time>
      </trkpt>
      <trkpt lat="40.9742250" lon="-3.3074580">
        <ele>908.0</ele>
        <time>2020-09-29T14:47:44Z</time>
      </trkpt>
      <trkpt lat="40.9742830" lon="-3.3076570">
        <ele>908.0</ele>
        <time>2020-09-29T14:47:45Z</time>
      </trkpt>
      <trkpt lat="40.9742830" lon="-3.3076570">
        <ele>908.0</ele>
        <time>2020-09-29T14:47:46Z</time>
      </trkpt>
      <trkpt lat="40.9742850" lon="-3.3078600">
        <ele>908.0</ele>
        <time>2020-09-29T14:47:47Z</time>
      </trkpt>
      <trkpt lat="40.9742850" lon="-3.3078600">
        <ele>906.0</ele>
        <time>2020-09-29T14:47:48Z</time>
      </trkpt>
      <trkpt lat="40.9742500" lon="-3.3080800">
        <ele>906.0</ele>
        <time>2020-09-29T14:47:49Z</time>
      </trkpt>
      <trkpt lat="40.9742500" lon="-3.3080800">
        <ele>905.0</ele>
        <time>2020-09-29T14:47:50Z</time>
      </trkpt>
      <trkpt lat="40.9742130" lon="-3.3083100">
        <ele>905.0</ele>
        <time>2020-09-29T14:47:51Z</time>
      </trkpt>
      <trkpt lat="40.9742130" lon="-3.3083100">
        <ele>905.0</ele>
        <time>2020-09-29T14:47:52Z</time>
      </trkpt>
      <trkpt lat="40.9741730" lon="-3.3085520">
        <ele>903.0</ele>
        <time>2020-09-29T14:47:53Z</time>
      </trkpt>
      <trkpt lat="40.9741550" lon="-3.3086780">
        <ele>903.0</ele>
        <time>2020-09-29T14:47:54Z</time>
      </trkpt>
      <trkpt lat="40.9741400" lon="-3.3088000">
        <ele>902.0</ele>
        <time>2020-09-29T14:47:55Z</time>
      </trkpt>
      <trkpt lat="40.9741400" lon="-3.3088000">
        <ele>902.0</ele>
        <time>2020-09-29T14:47:56Z</time>
      </trkpt>
      <trkpt lat="40.9741070" lon="-3.3090230">
        <ele>902.0</ele>
        <time>2020-09-29T14:47:57Z</time>
      </trkpt>
      <trkpt lat="40.9740830" lon="-3.3091200">
        <ele>901.0</ele>
        <time>2020-09-29T14:47:58Z</time>
      </trkpt>
      <trkpt lat="40.9740350" lon="-3.3091820">
        <ele>901.0</ele>
        <time>2020-09-29T14:47:59Z</time>
      </trkpt>
      <trkpt lat="40.9740350" lon="-3.3091820">
        <ele>900.0</ele>
        <time>2020-09-29T14:48:00Z</time>
      </trkpt>
      <trkpt lat="40.9739050" lon="-3.3092230">
        <ele>898.0</ele>
        <time>2020-09-29T14:48:01Z</time>
      </trkpt>
      <trkpt lat="40.9739050" lon="-3.3092230">
        <ele>898.0</ele>
        <time>2020-09-29T14:48:02Z</time>
      </trkpt>
      <trkpt lat="40.9737630" lon="-3.3091880">
        <ele>898.0</ele>
        <time>2020-09-29T14:48:03Z</time>
      </trkpt>
      <trkpt lat="40.9737630" lon="-3.3091880">
        <ele>898.0</ele>
        <time>2020-09-29T14:48:04Z</time>
      </trkpt>
      <trkpt lat="40.9736580" lon="-3.3090980">
        <ele>898.0</ele>
        <time>2020-09-29T14:48:05Z</time>
      </trkpt>
      <trkpt lat="40.9736580" lon="-3.3090980">
        <ele>898.0</ele>
        <time>2020-09-29T14:48:06Z</time>
      </trkpt>
      <trkpt lat="40.9735880" lon="-3.3089680">
        <ele>898.0</ele>
        <time>2020-09-29T14:48:07Z</time>
      </trkpt>
      <trkpt lat="40.9735680" lon="-3.3088970">
        <ele>898.0</ele>
        <time>2020-09-29T14:48:08Z</time>
      </trkpt>
      <trkpt lat="40.9735680" lon="-3.3088970">
        <ele>898.0</ele>
        <time>2020-09-29T14:48:09Z</time>
      </trkpt>
      <trkpt lat="40.9735350" lon="-3.3087530">
        <ele>898.0</ele>
        <time>2020-09-29T14:48:10Z</time>
      </trkpt>
      <trkpt lat="40.9735200" lon="-3.3086830">
        <ele>898.0</ele>
        <time>2020-09-29T14:48:11Z</time>
      </trkpt>
      <trkpt lat="40.9735200" lon="-3.3086830">
        <ele>898.0</ele>
        <time>2020-09-29T14:48:12Z</time>
      </trkpt>
      <trkpt lat="40.9734780" lon="-3.3085470">
        <ele>898.0</ele>
        <time>2020-09-29T14:48:13Z</time>
      </trkpt>
      <trkpt lat="40.9734780" lon="-3.3085470">
        <ele>898.0</ele>
        <time>2020-09-29T14:48:14Z</time>
      </trkpt>
      <trkpt lat="40.9734100" lon="-3.3084380">
        <ele>898.0</ele>
        <time>2020-09-29T14:48:15Z</time>
      </trkpt>
      <trkpt lat="40.9733650" lon="-3.3083980">
        <ele>898.0</ele>
        <time>2020-09-29T14:48:16Z</time>
      </trkpt>
      <trkpt lat="40.9733650" lon="-3.3083980">
        <ele>898.0</ele>
        <time>2020-09-29T14:48:17Z</time>
      </trkpt>
      <trkpt lat="40.9732780" lon="-3.3083170">
        <ele>898.0</ele>
        <time>2020-09-29T14:48:18Z</time>
      </trkpt>
      <trkpt lat="40.9732780" lon="-3.3083170">
        <ele>899.0</ele>
        <time>2020-09-29T14:48:19Z</time>
      </trkpt>
      <trkpt lat="40.9731970" lon="-3.3082200">
        <ele>899.0</ele>
        <time>2020-09-29T14:48:20Z</time>
      </trkpt>
      <trkpt lat="40.9731580" lon="-3.3081650">
        <ele>899.0</ele>
        <time>2020-09-29T14:48:21Z</time>
      </trkpt>
      <trkpt lat="40.9731580" lon="-3.3081650">
        <ele>899.0</ele>
        <time>2020-09-29T14:48:22Z</time>
      </trkpt>
      <trkpt lat="40.9730920" lon="-3.3080420">
        <ele>899.0</ele>
        <time>2020-09-29T14:48:23Z</time>
      </trkpt>
      <trkpt lat="40.9730920" lon="-3.3080420">
        <ele>899.0</ele>
        <time>2020-09-29T14:48:24Z</time>
      </trkpt>
      <trkpt lat="40.9730170" lon="-3.3079330">
        <ele>899.0</ele>
        <time>2020-09-29T14:48:25Z</time>
      </trkpt>
      <trkpt lat="40.9730170" lon="-3.3079330">
        <ele>899.0</ele>
        <time>2020-09-29T14:48:26Z</time>
      </trkpt>
      <trkpt lat="40.9729120" lon="-3.3078950">
        <ele>900.0</ele>
        <time>2020-09-29T14:48:27Z</time>
      </trkpt>
      <trkpt lat="40.9729120" lon="-3.3078950">
        <ele>900.0</ele>
        <time>2020-09-29T14:48:28Z</time>
      </trkpt>
      <trkpt lat="40.9728020" lon="-3.3079200">
        <ele>900.0</ele>
        <time>2020-09-29T14:48:29Z</time>
      </trkpt>
      <trkpt lat="40.9727450" lon="-3.3079450">
        <ele>900.0</ele>
        <time>2020-09-29T14:48:30Z</time>
      </trkpt>
      <trkpt lat="40.9727450" lon="-3.3079450">
        <ele>900.0</ele>
        <time>2020-09-29T14:48:31Z</time>
      </trkpt>
      <trkpt lat="40.9726350" lon="-3.3079850">
        <ele>900.0</ele>
        <time>2020-09-29T14:48:32Z</time>
      </trkpt>
      <trkpt lat="40.9726350" lon="-3.3079850">
        <ele>900.0</ele>
        <time>2020-09-29T14:48:33Z</time>
      </trkpt>
      <trkpt lat="40.9725120" lon="-3.3079780">
        <ele>900.0</ele>
        <time>2020-09-29T14:48:34Z</time>
      </trkpt>
      <trkpt lat="40.9724650" lon="-3.3079430">
        <ele>900.0</ele>
        <time>2020-09-29T14:48:35Z</time>
      </trkpt>
      <trkpt lat="40.9724650" lon="-3.3079430">
        <ele>900.0</ele>
        <time>2020-09-29T14:48:36Z</time>
      </trkpt>
      <trkpt lat="40.9723950" lon="-3.3078330">
        <ele>900.0</ele>
        <time>2020-09-29T14:48:37Z</time>
      </trkpt>
      <trkpt lat="40.9723950" lon="-3.3078330">
        <ele>900.0</ele>
        <time>2020-09-29T14:48:38Z</time>
      </trkpt>
      <trkpt lat="40.9723470" lon="-3.3077020">
        <ele>900.0</ele>
        <time>2020-09-29T14:48:39Z</time>
      </trkpt>
      <trkpt lat="40.9723200" lon="-3.3076330">
        <ele>900.0</ele>
        <time>2020-09-29T14:48:40Z</time>
      </trkpt>
      <trkpt lat="40.9723200" lon="-3.3076330">
        <ele>900.0</ele>
        <time>2020-09-29T14:48:41Z</time>
      </trkpt>
      <trkpt lat="40.9722680" lon="-3.3074930">
        <ele>900.0</ele>
        <time>2020-09-29T14:48:42Z</time>
      </trkpt>
      <trkpt lat="40.9722420" lon="-3.3074180">
        <ele>900.0</ele>
        <time>2020-09-29T14:48:43Z</time>
      </trkpt>
      <trkpt lat="40.9722420" lon="-3.3074180">
        <ele>900.0</ele>
        <time>2020-09-29T14:48:44Z</time>
      </trkpt>
      <trkpt lat="40.9721780" lon="-3.3072750">
        <ele>900.0</ele>
        <time>2020-09-29T14:48:45Z</time>
      </trkpt>
      <trkpt lat="40.9721780" lon="-3.3072750">
        <ele>900.0</ele>
        <time>2020-09-29T14:48:46Z</time>
      </trkpt>
      <trkpt lat="40.9720880" lon="-3.3071650">
        <ele>900.0</ele>
        <time>2020-09-29T14:48:47Z</time>
      </trkpt>
      <trkpt lat="40.9720880" lon="-3.3071650">
        <ele>900.0</ele>
        <time>2020-09-29T14:48:48Z</time>
      </trkpt>
      <trkpt lat="40.9719730" lon="-3.3071000">
        <ele>900.0</ele>
        <time>2020-09-29T14:48:49Z</time>
      </trkpt>
      <trkpt lat="40.9719730" lon="-3.3071000">
        <ele>900.0</ele>
        <time>2020-09-29T14:48:50Z</time>
      </trkpt>
      <trkpt lat="40.9718530" lon="-3.3070630">
        <ele>900.0</ele>
        <time>2020-09-29T14:48:51Z</time>
      </trkpt>
      <trkpt lat="40.9717920" lon="-3.3070480">
        <ele>900.0</ele>
        <time>2020-09-29T14:48:52Z</time>
      </trkpt>
      <trkpt lat="40.9717920" lon="-3.3070480">
        <ele>900.0</ele>
        <time>2020-09-29T14:48:53Z</time>
      </trkpt>
      <trkpt lat="40.9716700" lon="-3.3070000">
        <ele>900.0</ele>
        <time>2020-09-29T14:48:54Z</time>
      </trkpt>
      <trkpt lat="40.9716170" lon="-3.3069500">
        <ele>899.0</ele>
        <time>2020-09-29T14:48:55Z</time>
      </trkpt>
      <trkpt lat="40.9716170" lon="-3.3069500">
        <ele>899.0</ele>
        <time>2020-09-29T14:48:56Z</time>
      </trkpt>
      <trkpt lat="40.9715370" lon="-3.3068170">
        <ele>899.0</ele>
        <time>2020-09-29T14:48:57Z</time>
      </trkpt>
      <trkpt lat="40.9715370" lon="-3.3068170">
        <ele>899.0</ele>
        <time>2020-09-29T14:48:58Z</time>
      </trkpt>
      <trkpt lat="40.9714720" lon="-3.3066650">
        <ele>899.0</ele>
        <time>2020-09-29T14:48:59Z</time>
      </trkpt>
      <trkpt lat="40.9714720" lon="-3.3066650">
        <ele>899.0</ele>
        <time>2020-09-29T14:49:00Z</time>
      </trkpt>
      <trkpt lat="40.9713900" lon="-3.3065320">
        <ele>899.0</ele>
        <time>2020-09-29T14:49:01Z</time>
      </trkpt>
      <trkpt lat="40.9713900" lon="-3.3065320">
        <ele>899.0</ele>
        <time>2020-09-29T14:49:02Z</time>
      </trkpt>
      <trkpt lat="40.9712680" lon="-3.3064570">
        <ele>899.0</ele>
        <time>2020-09-29T14:49:03Z</time>
      </trkpt>
      <trkpt lat="40.9712000" lon="-3.3064600">
        <ele>899.0</ele>
        <time>2020-09-29T14:49:04Z</time>
      </trkpt>
      <trkpt lat="40.9712000" lon="-3.3064600">
        <ele>899.0</ele>
        <time>2020-09-29T14:49:05Z</time>
      </trkpt>
      <trkpt lat="40.9710730" lon="-3.3065130">
        <ele>899.0</ele>
        <time>2020-09-29T14:49:06Z</time>
      </trkpt>
      <trkpt lat="40.9710150" lon="-3.3065570">
        <ele>899.0</ele>
        <time>2020-09-29T14:49:07Z</time>
      </trkpt>
      <trkpt lat="40.9710150" lon="-3.3065570">
        <ele>899.0</ele>
        <time>2020-09-29T14:49:08Z</time>
      </trkpt>
      <trkpt lat="40.9709130" lon="-3.3066700">
        <ele>899.0</ele>
        <time>2020-09-29T14:49:09Z</time>
      </trkpt>
      <trkpt lat="40.9708630" lon="-3.3067350">
        <ele>899.0</ele>
        <time>2020-09-29T14:49:10Z</time>
      </trkpt>
      <trkpt lat="40.9708630" lon="-3.3067350">
        <ele>899.0</ele>
        <time>2020-09-29T14:49:11Z</time>
      </trkpt>
      <trkpt lat="40.9707700" lon="-3.3068680">
        <ele>899.0</ele>
        <time>2020-09-29T14:49:12Z</time>
      </trkpt>
      <trkpt lat="40.9707700" lon="-3.3068680">
        <ele>899.0</ele>
        <time>2020-09-29T14:49:13Z</time>
      </trkpt>
      <trkpt lat="40.9706730" lon="-3.3070000">
        <ele>899.0</ele>
        <time>2020-09-29T14:49:14Z</time>
      </trkpt>
      <trkpt lat="40.9706300" lon="-3.3070670">
        <ele>899.0</ele>
        <time>2020-09-29T14:49:15Z</time>
      </trkpt>
      <trkpt lat="40.9706300" lon="-3.3070670">
        <ele>899.0</ele>
        <time>2020-09-29T14:49:16Z</time>
      </trkpt>
      <trkpt lat="40.9705400" lon="-3.3071950">
        <ele>899.0</ele>
        <time>2020-09-29T14:49:17Z</time>
      </trkpt>
      <trkpt lat="40.9705400" lon="-3.3071950">
        <ele>899.0</ele>
        <time>2020-09-29T14:49:18Z</time>
      </trkpt>
      <trkpt lat="40.9704450" lon="-3.3073230">
        <ele>899.0</ele>
        <time>2020-09-29T14:49:19Z</time>
      </trkpt>
      <trkpt lat="40.9704450" lon="-3.3073230">
        <ele>899.0</ele>
        <time>2020-09-29T14:49:20Z</time>
      </trkpt>
      <trkpt lat="40.9703480" lon="-3.3074530">
        <ele>899.0</ele>
        <time>2020-09-29T14:49:21Z</time>
      </trkpt>
      <trkpt lat="40.9703070" lon="-3.3075200">
        <ele>899.0</ele>
        <time>2020-09-29T14:49:22Z</time>
      </trkpt>
      <trkpt lat="40.9703070" lon="-3.3075200">
        <ele>899.0</ele>
        <time>2020-09-29T14:49:23Z</time>
      </trkpt>
      <trkpt lat="40.9702230" lon="-3.3076430">
        <ele>899.0</ele>
        <time>2020-09-29T14:49:24Z</time>
      </trkpt>
      <trkpt lat="40.9702230" lon="-3.3076430">
        <ele>899.0</ele>
        <time>2020-09-29T14:49:25Z</time>
      </trkpt>
      <trkpt lat="40.9701520" lon="-3.3077630">
        <ele>899.0</ele>
        <time>2020-09-29T14:49:26Z</time>
      </trkpt>
      <trkpt lat="40.9701200" lon="-3.3078200">
        <ele>899.0</ele>
        <time>2020-09-29T14:49:27Z</time>
      </trkpt>
      <trkpt lat="40.9701200" lon="-3.3078200">
        <ele>899.0</ele>
        <time>2020-09-29T14:49:28Z</time>
      </trkpt>
      <trkpt lat="40.9700780" lon="-3.3079330">
        <ele>899.0</ele>
        <time>2020-09-29T14:49:29Z</time>
      </trkpt>
      <trkpt lat="40.9700670" lon="-3.3079930">
        <ele>899.0</ele>
        <time>2020-09-29T14:49:30Z</time>
      </trkpt>
      <trkpt lat="40.9700550" lon="-3.3080520">
        <ele>899.0</ele>
        <time>2020-09-29T14:49:31Z</time>
      </trkpt>
      <trkpt lat="40.9700550" lon="-3.3080520">
        <ele>900.0</ele>
        <time>2020-09-29T14:49:32Z</time>
      </trkpt>
      <trkpt lat="40.9700250" lon="-3.3081700">
        <ele>900.0</ele>
        <time>2020-09-29T14:49:33Z</time>
      </trkpt>
      <trkpt lat="40.9700250" lon="-3.3081700">
        <ele>900.0</ele>
        <time>2020-09-29T14:49:34Z</time>
      </trkpt>
      <trkpt lat="40.9699750" lon="-3.3082720">
        <ele>900.0</ele>
        <time>2020-09-29T14:49:35Z</time>
      </trkpt>
      <trkpt lat="40.9699450" lon="-3.3083170">
        <ele>900.0</ele>
        <time>2020-09-29T14:49:36Z</time>
      </trkpt>
      <trkpt lat="40.9699450" lon="-3.3083170">
        <ele>900.0</ele>
        <time>2020-09-29T14:49:37Z</time>
      </trkpt>
      <trkpt lat="40.9698700" lon="-3.3083850">
        <ele>901.0</ele>
        <time>2020-09-29T14:49:38Z</time>
      </trkpt>
      <trkpt lat="40.9698700" lon="-3.3083850">
        <ele>901.0</ele>
        <time>2020-09-29T14:49:39Z</time>
      </trkpt>
      <trkpt lat="40.9697830" lon="-3.3084320">
        <ele>901.0</ele>
        <time>2020-09-29T14:49:40Z</time>
      </trkpt>
      <trkpt lat="40.9697830" lon="-3.3084320">
        <ele>901.0</ele>
        <time>2020-09-29T14:49:41Z</time>
      </trkpt>
      <trkpt lat="40.9696970" lon="-3.3084830">
        <ele>901.0</ele>
        <time>2020-09-29T14:49:42Z</time>
      </trkpt>
      <trkpt lat="40.9696530" lon="-3.3085070">
        <ele>901.0</ele>
        <time>2020-09-29T14:49:43Z</time>
      </trkpt>
      <trkpt lat="40.9696530" lon="-3.3085070">
        <ele>901.0</ele>
        <time>2020-09-29T14:49:44Z</time>
      </trkpt>
      <trkpt lat="40.9695720" lon="-3.3085730">
        <ele>901.0</ele>
        <time>2020-09-29T14:49:45Z</time>
      </trkpt>
      <trkpt lat="40.9695350" lon="-3.3086180">
        <ele>901.0</ele>
        <time>2020-09-29T14:49:46Z</time>
      </trkpt>
      <trkpt lat="40.9695350" lon="-3.3086180">
        <ele>902.0</ele>
        <time>2020-09-29T14:49:47Z</time>
      </trkpt>
      <trkpt lat="40.9694900" lon="-3.3087330">
        <ele>902.0</ele>
        <time>2020-09-29T14:49:48Z</time>
      </trkpt>
      <trkpt lat="40.9694820" lon="-3.3087970">
        <ele>902.0</ele>
        <time>2020-09-29T14:49:49Z</time>
      </trkpt>
      <trkpt lat="40.9694820" lon="-3.3087970">
        <ele>902.0</ele>
        <time>2020-09-29T14:49:50Z</time>
      </trkpt>
      <trkpt lat="40.9694780" lon="-3.3089320">
        <ele>902.0</ele>
        <time>2020-09-29T14:49:51Z</time>
      </trkpt>
      <trkpt lat="40.9694800" lon="-3.3090020">
        <ele>902.0</ele>
        <time>2020-09-29T14:49:52Z</time>
      </trkpt>
      <trkpt lat="40.9694800" lon="-3.3090020">
        <ele>902.0</ele>
        <time>2020-09-29T14:49:53Z</time>
      </trkpt>
      <trkpt lat="40.9694530" lon="-3.3091300">
        <ele>902.0</ele>
        <time>2020-09-29T14:49:54Z</time>
      </trkpt>
      <trkpt lat="40.9694220" lon="-3.3091770">
        <ele>902.0</ele>
        <time>2020-09-29T14:49:55Z</time>
      </trkpt>
      <trkpt lat="40.9693780" lon="-3.3092080">
        <ele>902.0</ele>
        <time>2020-09-29T14:49:56Z</time>
      </trkpt>
      <trkpt lat="40.9693780" lon="-3.3092080">
        <ele>902.0</ele>
        <time>2020-09-29T14:49:57Z</time>
      </trkpt>
      <trkpt lat="40.9692750" lon="-3.3092030">
        <ele>902.0</ele>
        <time>2020-09-29T14:49:58Z</time>
      </trkpt>
      <trkpt lat="40.9692750" lon="-3.3092030">
        <ele>902.0</ele>
        <time>2020-09-29T14:49:59Z</time>
      </trkpt>
      <trkpt lat="40.9691820" lon="-3.3091270">
        <ele>902.0</ele>
        <time>2020-09-29T14:50:00Z</time>
      </trkpt>
      <trkpt lat="40.9691420" lon="-3.3090730">
        <ele>902.0</ele>
        <time>2020-09-29T14:50:01Z</time>
      </trkpt>
      <trkpt lat="40.9691420" lon="-3.3090730">
        <ele>902.0</ele>
        <time>2020-09-29T14:50:02Z</time>
      </trkpt>
      <trkpt lat="40.9690630" lon="-3.3089700">
        <ele>902.0</ele>
        <time>2020-09-29T14:50:03Z</time>
      </trkpt>
      <trkpt lat="40.9690630" lon="-3.3089700">
        <ele>902.0</ele>
        <time>2020-09-29T14:50:04Z</time>
      </trkpt>
      <trkpt lat="40.9689930" lon="-3.3088620">
        <ele>902.0</ele>
        <time>2020-09-29T14:50:05Z</time>
      </trkpt>
      <trkpt lat="40.9689930" lon="-3.3088620">
        <ele>902.0</ele>
        <time>2020-09-29T14:50:06Z</time>
      </trkpt>
      <trkpt lat="40.9689170" lon="-3.3087620">
        <ele>902.0</ele>
        <time>2020-09-29T14:50:07Z</time>
      </trkpt>
      <trkpt lat="40.9688780" lon="-3.3087120">
        <ele>902.0</ele>
        <time>2020-09-29T14:50:08Z</time>
      </trkpt>
      <trkpt lat="40.9688780" lon="-3.3087120">
        <ele>902.0</ele>
        <time>2020-09-29T14:50:09Z</time>
      </trkpt>
      <trkpt lat="40.9687970" lon="-3.3086250">
        <ele>902.0</ele>
        <time>2020-09-29T14:50:10Z</time>
      </trkpt>
      <trkpt lat="40.9687970" lon="-3.3086250">
        <ele>902.0</ele>
        <time>2020-09-29T14:50:11Z</time>
      </trkpt>
      <trkpt lat="40.9687070" lon="-3.3085650">
        <ele>902.0</ele>
        <time>2020-09-29T14:50:12Z</time>
      </trkpt>
      <trkpt lat="40.9686570" lon="-3.3085400">
        <ele>902.0</ele>
        <time>2020-09-29T14:50:13Z</time>
      </trkpt>
      <trkpt lat="40.9686570" lon="-3.3085400">
        <ele>902.0</ele>
        <time>2020-09-29T14:50:14Z</time>
      </trkpt>
      <trkpt lat="40.9685600" lon="-3.3085020">
        <ele>902.0</ele>
        <time>2020-09-29T14:50:15Z</time>
      </trkpt>
      <trkpt lat="40.9685100" lon="-3.3084880">
        <ele>902.0</ele>
        <time>2020-09-29T14:50:16Z</time>
      </trkpt>
      <trkpt lat="40.9685100" lon="-3.3084880">
        <ele>902.0</ele>
        <time>2020-09-29T14:50:17Z</time>
      </trkpt>
      <trkpt lat="40.9684100" lon="-3.3084720">
        <ele>902.0</ele>
        <time>2020-09-29T14:50:18Z</time>
      </trkpt>
      <trkpt lat="40.9684100" lon="-3.3084720">
        <ele>902.0</ele>
        <time>2020-09-29T14:50:19Z</time>
      </trkpt>
      <trkpt lat="40.9683080" lon="-3.3084550">
        <ele>902.0</ele>
        <time>2020-09-29T14:50:20Z</time>
      </trkpt>
      <trkpt lat="40.9682570" lon="-3.3084500">
        <ele>902.0</ele>
        <time>2020-09-29T14:50:21Z</time>
      </trkpt>
      <trkpt lat="40.9682570" lon="-3.3084500">
        <ele>903.0</ele>
        <time>2020-09-29T14:50:22Z</time>
      </trkpt>
      <trkpt lat="40.9681530" lon="-3.3084420">
        <ele>903.0</ele>
        <time>2020-09-29T14:50:23Z</time>
      </trkpt>
      <trkpt lat="40.9681030" lon="-3.3084380">
        <ele>903.0</ele>
        <time>2020-09-29T14:50:24Z</time>
      </trkpt>
      <trkpt lat="40.9680520" lon="-3.3084350">
        <ele>903.0</ele>
        <time>2020-09-29T14:50:25Z</time>
      </trkpt>
      <trkpt lat="40.9680520" lon="-3.3084350">
        <ele>903.0</ele>
        <time>2020-09-29T14:50:26Z</time>
      </trkpt>
      <trkpt lat="40.9679550" lon="-3.3084200">
        <ele>903.0</ele>
        <time>2020-09-29T14:50:27Z</time>
      </trkpt>
      <trkpt lat="40.9679070" lon="-3.3084150">
        <ele>903.0</ele>
        <time>2020-09-29T14:50:28Z</time>
      </trkpt>
      <trkpt lat="40.9679070" lon="-3.3084150">
        <ele>904.0</ele>
        <time>2020-09-29T14:50:29Z</time>
      </trkpt>
      <trkpt lat="40.9678170" lon="-3.3084020">
        <ele>904.0</ele>
        <time>2020-09-29T14:50:30Z</time>
      </trkpt>
      <trkpt lat="40.9677750" lon="-3.3083950">
        <ele>904.0</ele>
        <time>2020-09-29T14:50:31Z</time>
      </trkpt>
      <trkpt lat="40.9677750" lon="-3.3083950">
        <ele>904.0</ele>
        <time>2020-09-29T14:50:32Z</time>
      </trkpt>
      <trkpt lat="40.9676920" lon="-3.3083780">
        <ele>905.0</ele>
        <time>2020-09-29T14:50:33Z</time>
      </trkpt>
      <trkpt lat="40.9676500" lon="-3.3083730">
        <ele>905.0</ele>
        <time>2020-09-29T14:50:34Z</time>
      </trkpt>
      <trkpt lat="40.9676500" lon="-3.3083730">
        <ele>905.0</ele>
        <time>2020-09-29T14:50:35Z</time>
      </trkpt>
      <trkpt lat="40.9675680" lon="-3.3083650">
        <ele>905.0</ele>
        <time>2020-09-29T14:50:36Z</time>
      </trkpt>
      <trkpt lat="40.9675270" lon="-3.3083630">
        <ele>906.0</ele>
        <time>2020-09-29T14:50:37Z</time>
      </trkpt>
      <trkpt lat="40.9675270" lon="-3.3083630">
        <ele>906.0</ele>
        <time>2020-09-29T14:50:38Z</time>
      </trkpt>
      <trkpt lat="40.9674470" lon="-3.3083570">
        <ele>906.0</ele>
        <time>2020-09-29T14:50:39Z</time>
      </trkpt>
      <trkpt lat="40.9674470" lon="-3.3083570">
        <ele>906.0</ele>
        <time>2020-09-29T14:50:40Z</time>
      </trkpt>
      <trkpt lat="40.9673650" lon="-3.3083530">
        <ele>907.0</ele>
        <time>2020-09-29T14:50:41Z</time>
      </trkpt>
      <trkpt lat="40.9673650" lon="-3.3083530">
        <ele>907.0</ele>
        <time>2020-09-29T14:50:42Z</time>
      </trkpt>
      <trkpt lat="40.9672800" lon="-3.3083570">
        <ele>907.0</ele>
        <time>2020-09-29T14:50:43Z</time>
      </trkpt>
      <trkpt lat="40.9672800" lon="-3.3083570">
        <ele>907.0</ele>
        <time>2020-09-29T14:50:44Z</time>
      </trkpt>
      <trkpt lat="40.9671880" lon="-3.3083700">
        <ele>908.0</ele>
        <time>2020-09-29T14:50:45Z</time>
      </trkpt>
      <trkpt lat="40.9671880" lon="-3.3083700">
        <ele>908.0</ele>
        <time>2020-09-29T14:50:46Z</time>
      </trkpt>
      <trkpt lat="40.9671020" lon="-3.3083780">
        <ele>908.0</ele>
        <time>2020-09-29T14:50:47Z</time>
      </trkpt>
      <trkpt lat="40.9670600" lon="-3.3083830">
        <ele>908.0</ele>
        <time>2020-09-29T14:50:48Z</time>
      </trkpt>
      <trkpt lat="40.9670170" lon="-3.3083920">
        <ele>908.0</ele>
        <time>2020-09-29T14:50:49Z</time>
      </trkpt>
      <trkpt lat="40.9670170" lon="-3.3083920">
        <ele>908.0</ele>
        <time>2020-09-29T14:50:50Z</time>
      </trkpt>
      <trkpt lat="40.9669300" lon="-3.3084070">
        <ele>908.0</ele>
        <time>2020-09-29T14:50:51Z</time>
      </trkpt>
      <trkpt lat="40.9669300" lon="-3.3084070">
        <ele>908.0</ele>
        <time>2020-09-29T14:50:52Z</time>
      </trkpt>
      <trkpt lat="40.9668430" lon="-3.3084230">
        <ele>908.0</ele>
        <time>2020-09-29T14:50:53Z</time>
      </trkpt>
      <trkpt lat="40.9668430" lon="-3.3084230">
        <ele>908.0</ele>
        <time>2020-09-29T14:50:54Z</time>
      </trkpt>
      <trkpt lat="40.9667570" lon="-3.3084400">
        <ele>908.0</ele>
        <time>2020-09-29T14:50:55Z</time>
      </trkpt>
      <trkpt lat="40.9667570" lon="-3.3084400">
        <ele>908.0</ele>
        <time>2020-09-29T14:50:56Z</time>
      </trkpt>
      <trkpt lat="40.9666670" lon="-3.3084620">
        <ele>908.0</ele>
        <time>2020-09-29T14:50:57Z</time>
      </trkpt>
      <trkpt lat="40.9666230" lon="-3.3084720">
        <ele>908.0</ele>
        <time>2020-09-29T14:50:58Z</time>
      </trkpt>
      <trkpt lat="40.9666230" lon="-3.3084720">
        <ele>908.0</ele>
        <time>2020-09-29T14:50:59Z</time>
      </trkpt>
      <trkpt lat="40.9665320" lon="-3.3084950">
        <ele>908.0</ele>
        <time>2020-09-29T14:51:00Z</time>
      </trkpt>
      <trkpt lat="40.9664850" lon="-3.3085080">
        <ele>908.0</ele>
        <time>2020-09-29T14:51:01Z</time>
      </trkpt>
      <trkpt lat="40.9664850" lon="-3.3085080">
        <ele>908.0</ele>
        <time>2020-09-29T14:51:02Z</time>
      </trkpt>
      <trkpt lat="40.9663930" lon="-3.3085350">
        <ele>908.0</ele>
        <time>2020-09-29T14:51:03Z</time>
      </trkpt>
      <trkpt lat="40.9663930" lon="-3.3085350">
        <ele>908.0</ele>
        <time>2020-09-29T14:51:04Z</time>
      </trkpt>
      <trkpt lat="40.9663070" lon="-3.3085650">
        <ele>908.0</ele>
        <time>2020-09-29T14:51:05Z</time>
      </trkpt>
      <trkpt lat="40.9663070" lon="-3.3085650">
        <ele>908.0</ele>
        <time>2020-09-29T14:51:06Z</time>
      </trkpt>
      <trkpt lat="40.9662250" lon="-3.3085920">
        <ele>908.0</ele>
        <time>2020-09-29T14:51:07Z</time>
      </trkpt>
      <trkpt lat="40.9662250" lon="-3.3085920">
        <ele>908.0</ele>
        <time>2020-09-29T14:51:08Z</time>
      </trkpt>
      <trkpt lat="40.9661520" lon="-3.3086150">
        <ele>908.0</ele>
        <time>2020-09-29T14:51:09Z</time>
      </trkpt>
      <trkpt lat="40.9661520" lon="-3.3086150">
        <ele>909.0</ele>
        <time>2020-09-29T14:51:10Z</time>
      </trkpt>
      <trkpt lat="40.9660870" lon="-3.3086330">
        <ele>909.0</ele>
        <time>2020-09-29T14:51:11Z</time>
      </trkpt>
      <trkpt lat="40.9660870" lon="-3.3086330">
        <ele>909.0</ele>
        <time>2020-09-29T14:51:12Z</time>
      </trkpt>
      <trkpt lat="40.9660300" lon="-3.3086600">
        <ele>909.0</ele>
        <time>2020-09-29T14:51:13Z</time>
      </trkpt>
      <trkpt lat="40.9660300" lon="-3.3086600">
        <ele>910.0</ele>
        <time>2020-09-29T14:51:14Z</time>
      </trkpt>
      <trkpt lat="40.9659720" lon="-3.3086780">
        <ele>910.0</ele>
        <time>2020-09-29T14:51:15Z</time>
      </trkpt>
      <trkpt lat="40.9659720" lon="-3.3086780">
        <ele>910.0</ele>
        <time>2020-09-29T14:51:16Z</time>
      </trkpt>
      <trkpt lat="40.9659170" lon="-3.3086980">
        <ele>910.0</ele>
        <time>2020-09-29T14:51:17Z</time>
      </trkpt>
      <trkpt lat="40.9658900" lon="-3.3087070">
        <ele>911.0</ele>
        <time>2020-09-29T14:51:18Z</time>
      </trkpt>
      <trkpt lat="40.9658900" lon="-3.3087070">
        <ele>911.0</ele>
        <time>2020-09-29T14:51:19Z</time>
      </trkpt>
      <trkpt lat="40.9658380" lon="-3.3087230">
        <ele>911.0</ele>
        <time>2020-09-29T14:51:20Z</time>
      </trkpt>
      <trkpt lat="40.9658130" lon="-3.3087320">
        <ele>911.0</ele>
        <time>2020-09-29T14:51:21Z</time>
      </trkpt>
      <trkpt lat="40.9658130" lon="-3.3087320">
        <ele>912.0</ele>
        <time>2020-09-29T14:51:22Z</time>
      </trkpt>
      <trkpt lat="40.9657650" lon="-3.3087430">
        <ele>912.0</ele>
        <time>2020-09-29T14:51:23Z</time>
      </trkpt>
      <trkpt lat="40.9657650" lon="-3.3087430">
        <ele>912.0</ele>
        <time>2020-09-29T14:51:24Z</time>
      </trkpt>
      <trkpt lat="40.9657170" lon="-3.3087620">
        <ele>912.0</ele>
        <time>2020-09-29T14:51:25Z</time>
      </trkpt>
      <trkpt lat="40.9657170" lon="-3.3087620">
        <ele>913.0</ele>
        <time>2020-09-29T14:51:26Z</time>
      </trkpt>
      <trkpt lat="40.9656670" lon="-3.3087770">
        <ele>913.0</ele>
        <time>2020-09-29T14:51:27Z</time>
      </trkpt>
      <trkpt lat="40.9656670" lon="-3.3087770">
        <ele>913.0</ele>
        <time>2020-09-29T14:51:28Z</time>
      </trkpt>
      <trkpt lat="40.9656180" lon="-3.3087900">
        <ele>913.0</ele>
        <time>2020-09-29T14:51:29Z</time>
      </trkpt>
      <trkpt lat="40.9656180" lon="-3.3087900">
        <ele>914.0</ele>
        <time>2020-09-29T14:51:30Z</time>
      </trkpt>
      <trkpt lat="40.9655700" lon="-3.3088030">
        <ele>914.0</ele>
        <time>2020-09-29T14:51:31Z</time>
      </trkpt>
      <trkpt lat="40.9655700" lon="-3.3088030">
        <ele>914.0</ele>
        <time>2020-09-29T14:51:32Z</time>
      </trkpt>
      <trkpt lat="40.9655220" lon="-3.3088220">
        <ele>914.0</ele>
        <time>2020-09-29T14:51:33Z</time>
      </trkpt>
      <trkpt lat="40.9655220" lon="-3.3088220">
        <ele>915.0</ele>
        <time>2020-09-29T14:51:34Z</time>
      </trkpt>
      <trkpt lat="40.9654730" lon="-3.3088330">
        <ele>915.0</ele>
        <time>2020-09-29T14:51:35Z</time>
      </trkpt>
      <trkpt lat="40.9654730" lon="-3.3088330">
        <ele>915.0</ele>
        <time>2020-09-29T14:51:36Z</time>
      </trkpt>
      <trkpt lat="40.9654220" lon="-3.3088400">
        <ele>915.0</ele>
        <time>2020-09-29T14:51:37Z</time>
      </trkpt>
      <trkpt lat="40.9654220" lon="-3.3088400">
        <ele>915.0</ele>
        <time>2020-09-29T14:51:38Z</time>
      </trkpt>
      <trkpt lat="40.9653700" lon="-3.3088480">
        <ele>915.0</ele>
        <time>2020-09-29T14:51:39Z</time>
      </trkpt>
      <trkpt lat="40.9653700" lon="-3.3088480">
        <ele>915.0</ele>
        <time>2020-09-29T14:51:40Z</time>
      </trkpt>
      <trkpt lat="40.9653180" lon="-3.3088500">
        <ele>916.0</ele>
        <time>2020-09-29T14:51:41Z</time>
      </trkpt>
      <trkpt lat="40.9652920" lon="-3.3088470">
        <ele>916.0</ele>
        <time>2020-09-29T14:51:42Z</time>
      </trkpt>
      <trkpt lat="40.9652650" lon="-3.3088400">
        <ele>916.0</ele>
        <time>2020-09-29T14:51:43Z</time>
      </trkpt>
      <trkpt lat="40.9652650" lon="-3.3088400">
        <ele>916.0</ele>
        <time>2020-09-29T14:51:44Z</time>
      </trkpt>
      <trkpt lat="40.9652150" lon="-3.3088220">
        <ele>917.0</ele>
        <time>2020-09-29T14:51:45Z</time>
      </trkpt>
      <trkpt lat="40.9652150" lon="-3.3088220">
        <ele>917.0</ele>
        <time>2020-09-29T14:51:46Z</time>
      </trkpt>
      <trkpt lat="40.9651650" lon="-3.3087950">
        <ele>917.0</ele>
        <time>2020-09-29T14:51:47Z</time>
      </trkpt>
      <trkpt lat="40.9651650" lon="-3.3087950">
        <ele>917.0</ele>
        <time>2020-09-29T14:51:48Z</time>
      </trkpt>
      <trkpt lat="40.9651170" lon="-3.3087570">
        <ele>918.0</ele>
        <time>2020-09-29T14:51:49Z</time>
      </trkpt>
      <trkpt lat="40.9651170" lon="-3.3087570">
        <ele>918.0</ele>
        <time>2020-09-29T14:51:50Z</time>
      </trkpt>
      <trkpt lat="40.9650700" lon="-3.3087130">
        <ele>918.0</ele>
        <time>2020-09-29T14:51:51Z</time>
      </trkpt>
      <trkpt lat="40.9650530" lon="-3.3086830">
        <ele>918.0</ele>
        <time>2020-09-29T14:51:52Z</time>
      </trkpt>
      <trkpt lat="40.9650530" lon="-3.3086830">
        <ele>919.0</ele>
        <time>2020-09-29T14:51:53Z</time>
      </trkpt>
      <trkpt lat="40.9650320" lon="-3.3086150">
        <ele>919.0</ele>
        <time>2020-09-29T14:51:54Z</time>
      </trkpt>
      <trkpt lat="40.9650280" lon="-3.3085800">
        <ele>919.0</ele>
        <time>2020-09-29T14:51:55Z</time>
      </trkpt>
      <trkpt lat="40.9650280" lon="-3.3085800">
        <ele>919.0</ele>
        <time>2020-09-29T14:51:56Z</time>
      </trkpt>
      <trkpt lat="40.9650380" lon="-3.3085100">
        <ele>920.0</ele>
        <time>2020-09-29T14:51:57Z</time>
      </trkpt>
      <trkpt lat="40.9650380" lon="-3.3085100">
        <ele>920.0</ele>
        <time>2020-09-29T14:51:58Z</time>
      </trkpt>
      <trkpt lat="40.9650620" lon="-3.3084450">
        <ele>920.0</ele>
        <time>2020-09-29T14:51:59Z</time>
      </trkpt>
      <trkpt lat="40.9650770" lon="-3.3084150">
        <ele>920.0</ele>
        <time>2020-09-29T14:52:00Z</time>
      </trkpt>
      <trkpt lat="40.9650930" lon="-3.3083850">
        <ele>920.0</ele>
        <time>2020-09-29T14:52:01Z</time>
      </trkpt>
      <trkpt lat="40.9650930" lon="-3.3083850">
        <ele>920.0</ele>
        <time>2020-09-29T14:52:02Z</time>
      </trkpt>
      <trkpt lat="40.9651230" lon="-3.3083250">
        <ele>922.0</ele>
        <time>2020-09-29T14:52:03Z</time>
      </trkpt>
      <trkpt lat="40.9651230" lon="-3.3083250">
        <ele>922.0</ele>
        <time>2020-09-29T14:52:04Z</time>
      </trkpt>
      <trkpt lat="40.9651550" lon="-3.3082650">
        <ele>922.0</ele>
        <time>2020-09-29T14:52:05Z</time>
      </trkpt>
      <trkpt lat="40.9651550" lon="-3.3082650">
        <ele>922.0</ele>
        <time>2020-09-29T14:52:06Z</time>
      </trkpt>
      <trkpt lat="40.9651900" lon="-3.3082120">
        <ele>922.0</ele>
        <time>2020-09-29T14:52:07Z</time>
      </trkpt>
      <trkpt lat="40.9651900" lon="-3.3082120">
        <ele>922.0</ele>
        <time>2020-09-29T14:52:08Z</time>
      </trkpt>
      <trkpt lat="40.9652250" lon="-3.3081600">
        <ele>922.0</ele>
        <time>2020-09-29T14:52:09Z</time>
      </trkpt>
      <trkpt lat="40.9652250" lon="-3.3081600">
        <ele>922.0</ele>
        <time>2020-09-29T14:52:10Z</time>
      </trkpt>
      <trkpt lat="40.9652580" lon="-3.3081050">
        <ele>923.0</ele>
        <time>2020-09-29T14:52:11Z</time>
      </trkpt>
      <trkpt lat="40.9652580" lon="-3.3081050">
        <ele>923.0</ele>
        <time>2020-09-29T14:52:12Z</time>
      </trkpt>
      <trkpt lat="40.9652930" lon="-3.3080520">
        <ele>923.0</ele>
        <time>2020-09-29T14:52:13Z</time>
      </trkpt>
      <trkpt lat="40.9652930" lon="-3.3080520">
        <ele>923.0</ele>
        <time>2020-09-29T14:52:14Z</time>
      </trkpt>
      <trkpt lat="40.9653250" lon="-3.3079980">
        <ele>923.0</ele>
        <time>2020-09-29T14:52:15Z</time>
      </trkpt>
      <trkpt lat="40.9653250" lon="-3.3079980">
        <ele>924.0</ele>
        <time>2020-09-29T14:52:16Z</time>
      </trkpt>
      <trkpt lat="40.9653580" lon="-3.3079450">
        <ele>924.0</ele>
        <time>2020-09-29T14:52:17Z</time>
      </trkpt>
      <trkpt lat="40.9653730" lon="-3.3079170">
        <ele>924.0</ele>
        <time>2020-09-29T14:52:18Z</time>
      </trkpt>
      <trkpt lat="40.9653730" lon="-3.3079170">
        <ele>924.0</ele>
        <time>2020-09-29T14:52:19Z</time>
      </trkpt>
      <trkpt lat="40.9654000" lon="-3.3078570">
        <ele>925.0</ele>
        <time>2020-09-29T14:52:20Z</time>
      </trkpt>
      <trkpt lat="40.9654120" lon="-3.3078270">
        <ele>925.0</ele>
        <time>2020-09-29T14:52:21Z</time>
      </trkpt>
      <trkpt lat="40.9654180" lon="-3.3077930">
        <ele>925.0</ele>
        <time>2020-09-29T14:52:22Z</time>
      </trkpt>
      <trkpt lat="40.9654180" lon="-3.3077930">
        <ele>925.0</ele>
        <time>2020-09-29T14:52:23Z</time>
      </trkpt>
      <trkpt lat="40.9654180" lon="-3.3077250">
        <ele>926.0</ele>
        <time>2020-09-29T14:52:24Z</time>
      </trkpt>
      <trkpt lat="40.9654150" lon="-3.3076920">
        <ele>926.0</ele>
        <time>2020-09-29T14:52:25Z</time>
      </trkpt>
      <trkpt lat="40.9654150" lon="-3.3076920">
        <ele>926.0</ele>
        <time>2020-09-29T14:52:26Z</time>
      </trkpt>
      <trkpt lat="40.9654000" lon="-3.3076270">
        <ele>926.0</ele>
        <time>2020-09-29T14:52:27Z</time>
      </trkpt>
      <trkpt lat="40.9654000" lon="-3.3076270">
        <ele>926.0</ele>
        <time>2020-09-29T14:52:28Z</time>
      </trkpt>
      <trkpt lat="40.9653730" lon="-3.3075680">
        <ele>926.0</ele>
        <time>2020-09-29T14:52:29Z</time>
      </trkpt>
      <trkpt lat="40.9653730" lon="-3.3075680">
        <ele>928.0</ele>
        <time>2020-09-29T14:52:30Z</time>
      </trkpt>
      <trkpt lat="40.9653320" lon="-3.3075250">
        <ele>928.0</ele>
        <time>2020-09-29T14:52:31Z</time>
      </trkpt>
      <trkpt lat="40.9653320" lon="-3.3075250">
        <ele>928.0</ele>
        <time>2020-09-29T14:52:32Z</time>
      </trkpt>
      <trkpt lat="40.9652830" lon="-3.3074870">
        <ele>928.0</ele>
        <time>2020-09-29T14:52:33Z</time>
      </trkpt>
      <trkpt lat="40.9652830" lon="-3.3074870">
        <ele>928.0</ele>
        <time>2020-09-29T14:52:34Z</time>
      </trkpt>
      <trkpt lat="40.9652350" lon="-3.3074720">
        <ele>928.0</ele>
        <time>2020-09-29T14:52:35Z</time>
      </trkpt>
      <trkpt lat="40.9652100" lon="-3.3074720">
        <ele>928.0</ele>
        <time>2020-09-29T14:52:36Z</time>
      </trkpt>
      <trkpt lat="40.9651830" lon="-3.3074770">
        <ele>928.0</ele>
        <time>2020-09-29T14:52:37Z</time>
      </trkpt>
      <trkpt lat="40.9651830" lon="-3.3074770">
        <ele>930.0</ele>
        <time>2020-09-29T14:52:38Z</time>
      </trkpt>
      <trkpt lat="40.9651370" lon="-3.3075030">
        <ele>930.0</ele>
        <time>2020-09-29T14:52:39Z</time>
      </trkpt>
      <trkpt lat="40.9651370" lon="-3.3075030">
        <ele>930.0</ele>
        <time>2020-09-29T14:52:40Z</time>
      </trkpt>
      <trkpt lat="40.9650900" lon="-3.3075380">
        <ele>930.0</ele>
        <time>2020-09-29T14:52:41Z</time>
      </trkpt>
      <trkpt lat="40.9650680" lon="-3.3075620">
        <ele>931.0</ele>
        <time>2020-09-29T14:52:42Z</time>
      </trkpt>
      <trkpt lat="40.9650500" lon="-3.3075880">
        <ele>931.0</ele>
        <time>2020-09-29T14:52:43Z</time>
      </trkpt>
      <trkpt lat="40.9650500" lon="-3.3075880">
        <ele>931.0</ele>
        <time>2020-09-29T14:52:44Z</time>
      </trkpt>
      <trkpt lat="40.9650150" lon="-3.3076470">
        <ele>931.0</ele>
        <time>2020-09-29T14:52:45Z</time>
      </trkpt>
      <trkpt lat="40.9650150" lon="-3.3076470">
        <ele>932.0</ele>
        <time>2020-09-29T14:52:46Z</time>
      </trkpt>
      <trkpt lat="40.9649830" lon="-3.3077080">
        <ele>932.0</ele>
        <time>2020-09-29T14:52:47Z</time>
      </trkpt>
      <trkpt lat="40.9649680" lon="-3.3077380">
        <ele>932.0</ele>
        <time>2020-09-29T14:52:48Z</time>
      </trkpt>
      <trkpt lat="40.9649680" lon="-3.3077380">
        <ele>932.0</ele>
        <time>2020-09-29T14:52:49Z</time>
      </trkpt>
      <trkpt lat="40.9649400" lon="-3.3077950">
        <ele>933.0</ele>
        <time>2020-09-29T14:52:50Z</time>
      </trkpt>
      <trkpt lat="40.9649250" lon="-3.3078250">
        <ele>933.0</ele>
        <time>2020-09-29T14:52:51Z</time>
      </trkpt>
      <trkpt lat="40.9649250" lon="-3.3078250">
        <ele>933.0</ele>
        <time>2020-09-29T14:52:52Z</time>
      </trkpt>
      <trkpt lat="40.9648970" lon="-3.3078830">
        <ele>933.0</ele>
        <time>2020-09-29T14:52:53Z</time>
      </trkpt>
      <trkpt lat="40.9648970" lon="-3.3078830">
        <ele>934.0</ele>
        <time>2020-09-29T14:52:54Z</time>
      </trkpt>
      <trkpt lat="40.9648680" lon="-3.3079430">
        <ele>934.0</ele>
        <time>2020-09-29T14:52:55Z</time>
      </trkpt>
      <trkpt lat="40.9648680" lon="-3.3079430">
        <ele>934.0</ele>
        <time>2020-09-29T14:52:56Z</time>
      </trkpt>
      <trkpt lat="40.9648370" lon="-3.3080050">
        <ele>934.0</ele>
        <time>2020-09-29T14:52:57Z</time>
      </trkpt>
      <trkpt lat="40.9648230" lon="-3.3080350">
        <ele>934.0</ele>
        <time>2020-09-29T14:52:58Z</time>
      </trkpt>
      <trkpt lat="40.9648230" lon="-3.3080350">
        <ele>934.0</ele>
        <time>2020-09-29T14:52:59Z</time>
      </trkpt>
      <trkpt lat="40.9647930" lon="-3.3080980">
        <ele>935.0</ele>
        <time>2020-09-29T14:53:00Z</time>
      </trkpt>
      <trkpt lat="40.9647780" lon="-3.3081270">
        <ele>935.0</ele>
        <time>2020-09-29T14:53:01Z</time>
      </trkpt>
      <trkpt lat="40.9647780" lon="-3.3081270">
        <ele>935.0</ele>
        <time>2020-09-29T14:53:02Z</time>
      </trkpt>
      <trkpt lat="40.9647480" lon="-3.3081880">
        <ele>935.0</ele>
        <time>2020-09-29T14:53:03Z</time>
      </trkpt>
      <trkpt lat="40.9647480" lon="-3.3081880">
        <ele>935.0</ele>
        <time>2020-09-29T14:53:04Z</time>
      </trkpt>
      <trkpt lat="40.9647130" lon="-3.3082480">
        <ele>935.0</ele>
        <time>2020-09-29T14:53:05Z</time>
      </trkpt>
      <trkpt lat="40.9647130" lon="-3.3082480">
        <ele>935.0</ele>
        <time>2020-09-29T14:53:06Z</time>
      </trkpt>
      <trkpt lat="40.9646820" lon="-3.3083150">
        <ele>935.0</ele>
        <time>2020-09-29T14:53:07Z</time>
      </trkpt>
      <trkpt lat="40.9646820" lon="-3.3083150">
        <ele>935.0</ele>
        <time>2020-09-29T14:53:08Z</time>
      </trkpt>
      <trkpt lat="40.9646480" lon="-3.3083820">
        <ele>935.0</ele>
        <time>2020-09-29T14:53:09Z</time>
      </trkpt>
      <trkpt lat="40.9646320" lon="-3.3084130">
        <ele>935.0</ele>
        <time>2020-09-29T14:53:10Z</time>
      </trkpt>
      <trkpt lat="40.9646320" lon="-3.3084130">
        <ele>935.0</ele>
        <time>2020-09-29T14:53:11Z</time>
      </trkpt>
      <trkpt lat="40.9645980" lon="-3.3084730">
        <ele>936.0</ele>
        <time>2020-09-29T14:53:12Z</time>
      </trkpt>
      <trkpt lat="40.9645980" lon="-3.3084730">
        <ele>936.0</ele>
        <time>2020-09-29T14:53:13Z</time>
      </trkpt>
      <trkpt lat="40.9645650" lon="-3.3085380">
        <ele>936.0</ele>
        <time>2020-09-29T14:53:14Z</time>
      </trkpt>
      <trkpt lat="40.9645650" lon="-3.3085380">
        <ele>936.0</ele>
        <time>2020-09-29T14:53:15Z</time>
      </trkpt>
      <trkpt lat="40.9645250" lon="-3.3086070">
        <ele>936.0</ele>
        <time>2020-09-29T14:53:16Z</time>
      </trkpt>
      <trkpt lat="40.9645070" lon="-3.3086420">
        <ele>936.0</ele>
        <time>2020-09-29T14:53:17Z</time>
      </trkpt>
      <trkpt lat="40.9645070" lon="-3.3086420">
        <ele>937.0</ele>
        <time>2020-09-29T14:53:18Z</time>
      </trkpt>
      <trkpt lat="40.9644720" lon="-3.3087120">
        <ele>937.0</ele>
        <time>2020-09-29T14:53:19Z</time>
      </trkpt>
      <trkpt lat="40.9644720" lon="-3.3087120">
        <ele>937.0</ele>
        <time>2020-09-29T14:53:20Z</time>
      </trkpt>
      <trkpt lat="40.9644380" lon="-3.3087870">
        <ele>937.0</ele>
        <time>2020-09-29T14:53:21Z</time>
      </trkpt>
      <trkpt lat="40.9644380" lon="-3.3087870">
        <ele>937.0</ele>
        <time>2020-09-29T14:53:22Z</time>
      </trkpt>
      <trkpt lat="40.9644020" lon="-3.3088570">
        <ele>937.0</ele>
        <time>2020-09-29T14:53:23Z</time>
      </trkpt>
      <trkpt lat="40.9643800" lon="-3.3088930">
        <ele>937.0</ele>
        <time>2020-09-29T14:53:24Z</time>
      </trkpt>
      <trkpt lat="40.9643800" lon="-3.3088930">
        <ele>937.0</ele>
        <time>2020-09-29T14:53:25Z</time>
      </trkpt>
      <trkpt lat="40.9643430" lon="-3.3089700">
        <ele>937.0</ele>
        <time>2020-09-29T14:53:26Z</time>
      </trkpt>
      <trkpt lat="40.9643430" lon="-3.3089700">
        <ele>937.0</ele>
        <time>2020-09-29T14:53:27Z</time>
      </trkpt>
      <trkpt lat="40.9643050" lon="-3.3090480">
        <ele>937.0</ele>
        <time>2020-09-29T14:53:28Z</time>
      </trkpt>
      <trkpt lat="40.9643050" lon="-3.3090480">
        <ele>937.0</ele>
        <time>2020-09-29T14:53:29Z</time>
      </trkpt>
      <trkpt lat="40.9642670" lon="-3.3091230">
        <ele>937.0</ele>
        <time>2020-09-29T14:53:30Z</time>
      </trkpt>
      <trkpt lat="40.9642670" lon="-3.3091230">
        <ele>937.0</ele>
        <time>2020-09-29T14:53:31Z</time>
      </trkpt>
      <trkpt lat="40.9642320" lon="-3.3092030">
        <ele>937.0</ele>
        <time>2020-09-29T14:53:32Z</time>
      </trkpt>
      <trkpt lat="40.9642120" lon="-3.3092430">
        <ele>937.0</ele>
        <time>2020-09-29T14:53:33Z</time>
      </trkpt>
      <trkpt lat="40.9642120" lon="-3.3092430">
        <ele>937.0</ele>
        <time>2020-09-29T14:53:34Z</time>
      </trkpt>
      <trkpt lat="40.9641700" lon="-3.3093230">
        <ele>937.0</ele>
        <time>2020-09-29T14:53:35Z</time>
      </trkpt>
      <trkpt lat="40.9641700" lon="-3.3093230">
        <ele>938.0</ele>
        <time>2020-09-29T14:53:36Z</time>
      </trkpt>
      <trkpt lat="40.9641320" lon="-3.3094070">
        <ele>938.0</ele>
        <time>2020-09-29T14:53:37Z</time>
      </trkpt>
      <trkpt lat="40.9641320" lon="-3.3094070">
        <ele>938.0</ele>
        <time>2020-09-29T14:53:38Z</time>
      </trkpt>
      <trkpt lat="40.9641020" lon="-3.3094950">
        <ele>938.0</ele>
        <time>2020-09-29T14:53:39Z</time>
      </trkpt>
      <trkpt lat="40.9641020" lon="-3.3094950">
        <ele>938.0</ele>
        <time>2020-09-29T14:53:40Z</time>
      </trkpt>
      <trkpt lat="40.9640820" lon="-3.3095850">
        <ele>938.0</ele>
        <time>2020-09-29T14:53:41Z</time>
      </trkpt>
      <trkpt lat="40.9640730" lon="-3.3096350">
        <ele>938.0</ele>
        <time>2020-09-29T14:53:42Z</time>
      </trkpt>
      <trkpt lat="40.9640730" lon="-3.3096350">
        <ele>939.0</ele>
        <time>2020-09-29T14:53:43Z</time>
      </trkpt>
      <trkpt lat="40.9640700" lon="-3.3097430">
        <ele>939.0</ele>
        <time>2020-09-29T14:53:44Z</time>
      </trkpt>
      <trkpt lat="40.9640700" lon="-3.3097430">
        <ele>939.0</ele>
        <time>2020-09-29T14:53:45Z</time>
      </trkpt>
      <trkpt lat="40.9640830" lon="-3.3098600">
        <ele>939.0</ele>
        <time>2020-09-29T14:53:46Z</time>
      </trkpt>
      <trkpt lat="40.9640830" lon="-3.3098600">
        <ele>939.0</ele>
        <time>2020-09-29T14:53:47Z</time>
      </trkpt>
      <trkpt lat="40.9641070" lon="-3.3099780">
        <ele>939.0</ele>
        <time>2020-09-29T14:53:48Z</time>
      </trkpt>
      <trkpt lat="40.9641070" lon="-3.3099780">
        <ele>939.0</ele>
        <time>2020-09-29T14:53:49Z</time>
      </trkpt>
      <trkpt lat="40.9641480" lon="-3.3101030">
        <ele>939.0</ele>
        <time>2020-09-29T14:53:50Z</time>
      </trkpt>
      <trkpt lat="40.9641480" lon="-3.3101030">
        <ele>939.0</ele>
        <time>2020-09-29T14:53:51Z</time>
      </trkpt>
      <trkpt lat="40.9642030" lon="-3.3102450">
        <ele>939.0</ele>
        <time>2020-09-29T14:53:52Z</time>
      </trkpt>
      <trkpt lat="40.9642030" lon="-3.3102450">
        <ele>939.0</ele>
        <time>2020-09-29T14:53:53Z</time>
      </trkpt>
      <trkpt lat="40.9642480" lon="-3.3104180">
        <ele>939.0</ele>
        <time>2020-09-29T14:53:54Z</time>
      </trkpt>
      <trkpt lat="40.9642580" lon="-3.3105100">
        <ele>939.0</ele>
        <time>2020-09-29T14:53:55Z</time>
      </trkpt>
      <trkpt lat="40.9642580" lon="-3.3105100">
        <ele>937.0</ele>
        <time>2020-09-29T14:53:56Z</time>
      </trkpt>
      <trkpt lat="40.9642200" lon="-3.3106880">
        <ele>937.0</ele>
        <time>2020-09-29T14:53:57Z</time>
      </trkpt>
      <trkpt lat="40.9642200" lon="-3.3106880">
        <ele>937.0</ele>
        <time>2020-09-29T14:53:58Z</time>
      </trkpt>
      <trkpt lat="40.9640920" lon="-3.3107700">
        <ele>936.0</ele>
        <time>2020-09-29T14:53:59Z</time>
      </trkpt>
      <trkpt lat="40.9640920" lon="-3.3107700">
        <ele>936.0</ele>
        <time>2020-09-29T14:54:00Z</time>
      </trkpt>
      <trkpt lat="40.9639300" lon="-3.3107380">
        <ele>936.0</ele>
        <time>2020-09-29T14:54:01Z</time>
      </trkpt>
      <trkpt lat="40.9639300" lon="-3.3107380">
        <ele>936.0</ele>
        <time>2020-09-29T14:54:02Z</time>
      </trkpt>
      <trkpt lat="40.9637720" lon="-3.3106450">
        <ele>935.0</ele>
        <time>2020-09-29T14:54:03Z</time>
      </trkpt>
      <trkpt lat="40.9637720" lon="-3.3106450">
        <ele>935.0</ele>
        <time>2020-09-29T14:54:04Z</time>
      </trkpt>
      <trkpt lat="40.9636020" lon="-3.3105250">
        <ele>934.0</ele>
        <time>2020-09-29T14:54:05Z</time>
      </trkpt>
      <trkpt lat="40.9636020" lon="-3.3105250">
        <ele>934.0</ele>
        <time>2020-09-29T14:54:06Z</time>
      </trkpt>
      <trkpt lat="40.9634220" lon="-3.3103880">
        <ele>933.0</ele>
        <time>2020-09-29T14:54:07Z</time>
      </trkpt>
      <trkpt lat="40.9634220" lon="-3.3103880">
        <ele>933.0</ele>
        <time>2020-09-29T14:54:08Z</time>
      </trkpt>
      <trkpt lat="40.9632380" lon="-3.3102480">
        <ele>931.0</ele>
        <time>2020-09-29T14:54:09Z</time>
      </trkpt>
      <trkpt lat="40.9632380" lon="-3.3102480">
        <ele>931.0</ele>
        <time>2020-09-29T14:54:10Z</time>
      </trkpt>
      <trkpt lat="40.9630480" lon="-3.3101050">
        <ele>930.0</ele>
        <time>2020-09-29T14:54:11Z</time>
      </trkpt>
      <trkpt lat="40.9630480" lon="-3.3101050">
        <ele>930.0</ele>
        <time>2020-09-29T14:54:12Z</time>
      </trkpt>
      <trkpt lat="40.9628570" lon="-3.3099570">
        <ele>928.0</ele>
        <time>2020-09-29T14:54:13Z</time>
      </trkpt>
      <trkpt lat="40.9628570" lon="-3.3099570">
        <ele>928.0</ele>
        <time>2020-09-29T14:54:14Z</time>
      </trkpt>
      <trkpt lat="40.9626680" lon="-3.3098130">
        <ele>925.0</ele>
        <time>2020-09-29T14:54:15Z</time>
      </trkpt>
      <trkpt lat="40.9625800" lon="-3.3097470">
        <ele>925.0</ele>
        <time>2020-09-29T14:54:16Z</time>
      </trkpt>
      <trkpt lat="40.9625800" lon="-3.3097470">
        <ele>924.0</ele>
        <time>2020-09-29T14:54:17Z</time>
      </trkpt>
      <trkpt lat="40.9624220" lon="-3.3096520">
        <ele>924.0</ele>
        <time>2020-09-29T14:54:18Z</time>
      </trkpt>
      <trkpt lat="40.9623470" lon="-3.3096470">
        <ele>922.0</ele>
        <time>2020-09-29T14:54:19Z</time>
      </trkpt>
      <trkpt lat="40.9623470" lon="-3.3096470">
        <ele>922.0</ele>
        <time>2020-09-29T14:54:20Z</time>
      </trkpt>
      <trkpt lat="40.9622550" lon="-3.3097750">
        <ele>920.0</ele>
        <time>2020-09-29T14:54:21Z</time>
      </trkpt>
      <trkpt lat="40.9622550" lon="-3.3097750">
        <ele>920.0</ele>
        <time>2020-09-29T14:54:22Z</time>
      </trkpt>
      <trkpt lat="40.9623120" lon="-3.3099630">
        <ele>918.0</ele>
        <time>2020-09-29T14:54:23Z</time>
      </trkpt>
      <trkpt lat="40.9623120" lon="-3.3099630">
        <ele>918.0</ele>
        <time>2020-09-29T14:54:24Z</time>
      </trkpt>
      <trkpt lat="40.9624530" lon="-3.3101050">
        <ele>917.0</ele>
        <time>2020-09-29T14:54:25Z</time>
      </trkpt>
      <trkpt lat="40.9624530" lon="-3.3101050">
        <ele>917.0</ele>
        <time>2020-09-29T14:54:26Z</time>
      </trkpt>
      <trkpt lat="40.9625970" lon="-3.3102370">
        <ele>915.0</ele>
        <time>2020-09-29T14:54:27Z</time>
      </trkpt>
      <trkpt lat="40.9625970" lon="-3.3102370">
        <ele>915.0</ele>
        <time>2020-09-29T14:54:28Z</time>
      </trkpt>
      <trkpt lat="40.9626520" lon="-3.3104030">
        <ele>913.0</ele>
        <time>2020-09-29T14:54:29Z</time>
      </trkpt>
      <trkpt lat="40.9626350" lon="-3.3104970">
        <ele>913.0</ele>
        <time>2020-09-29T14:54:30Z</time>
      </trkpt>
      <trkpt lat="40.9626350" lon="-3.3104970">
        <ele>911.0</ele>
        <time>2020-09-29T14:54:31Z</time>
      </trkpt>
      <trkpt lat="40.9625230" lon="-3.3106170">
        <ele>911.0</ele>
        <time>2020-09-29T14:54:32Z</time>
      </trkpt>
      <trkpt lat="40.9624450" lon="-3.3106300">
        <ele>910.0</ele>
        <time>2020-09-29T14:54:33Z</time>
      </trkpt>
      <trkpt lat="40.9624450" lon="-3.3106300">
        <ele>910.0</ele>
        <time>2020-09-29T14:54:34Z</time>
      </trkpt>
      <trkpt lat="40.9622770" lon="-3.3106270">
        <ele>909.0</ele>
        <time>2020-09-29T14:54:35Z</time>
      </trkpt>
      <trkpt lat="40.9622770" lon="-3.3106270">
        <ele>906.0</ele>
        <time>2020-09-29T14:54:36Z</time>
      </trkpt>
      <trkpt lat="40.9620980" lon="-3.3105900">
        <ele>906.0</ele>
        <time>2020-09-29T14:54:37Z</time>
      </trkpt>
      <trkpt lat="40.9620980" lon="-3.3105900">
        <ele>906.0</ele>
        <time>2020-09-29T14:54:38Z</time>
      </trkpt>
      <trkpt lat="40.9619080" lon="-3.3105550">
        <ele>906.0</ele>
        <time>2020-09-29T14:54:39Z</time>
      </trkpt>
      <trkpt lat="40.9618120" lon="-3.3105600">
        <ele>906.0</ele>
        <time>2020-09-29T14:54:40Z</time>
      </trkpt>
      <trkpt lat="40.9618120" lon="-3.3105600">
        <ele>906.0</ele>
        <time>2020-09-29T14:54:41Z</time>
      </trkpt>
      <trkpt lat="40.9616100" lon="-3.3106070">
        <ele>906.0</ele>
        <time>2020-09-29T14:54:42Z</time>
      </trkpt>
      <trkpt lat="40.9615080" lon="-3.3106330">
        <ele>906.0</ele>
        <time>2020-09-29T14:54:43Z</time>
      </trkpt>
      <trkpt lat="40.9614030" lon="-3.3106570">
        <ele>905.0</ele>
        <time>2020-09-29T14:54:44Z</time>
      </trkpt>
      <trkpt lat="40.9614030" lon="-3.3106570">
        <ele>905.0</ele>
        <time>2020-09-29T14:54:45Z</time>
      </trkpt>
      <trkpt lat="40.9611870" lon="-3.3107030">
        <ele>904.0</ele>
        <time>2020-09-29T14:54:46Z</time>
      </trkpt>
      <trkpt lat="40.9611870" lon="-3.3107030">
        <ele>904.0</ele>
        <time>2020-09-29T14:54:47Z</time>
      </trkpt>
      <trkpt lat="40.9609650" lon="-3.3107620">
        <ele>902.0</ele>
        <time>2020-09-29T14:54:48Z</time>
      </trkpt>
      <trkpt lat="40.9608530" lon="-3.3107920">
        <ele>902.0</ele>
        <time>2020-09-29T14:54:49Z</time>
      </trkpt>
      <trkpt lat="40.9608530" lon="-3.3107920">
        <ele>901.0</ele>
        <time>2020-09-29T14:54:50Z</time>
      </trkpt>
      <trkpt lat="40.9606300" lon="-3.3108550">
        <ele>901.0</ele>
        <time>2020-09-29T14:54:51Z</time>
      </trkpt>
      <trkpt lat="40.9606300" lon="-3.3108550">
        <ele>900.0</ele>
        <time>2020-09-29T14:54:52Z</time>
      </trkpt>
      <trkpt lat="40.9604080" lon="-3.3109120">
        <ele>900.0</ele>
        <time>2020-09-29T14:54:53Z</time>
      </trkpt>
      <trkpt lat="40.9604080" lon="-3.3109120">
        <ele>899.0</ele>
        <time>2020-09-29T14:54:54Z</time>
      </trkpt>
      <trkpt lat="40.9601830" lon="-3.3109630">
        <ele>899.0</ele>
        <time>2020-09-29T14:54:55Z</time>
      </trkpt>
      <trkpt lat="40.9601830" lon="-3.3109630">
        <ele>898.0</ele>
        <time>2020-09-29T14:54:56Z</time>
      </trkpt>
      <trkpt lat="40.9599630" lon="-3.3109970">
        <ele>898.0</ele>
        <time>2020-09-29T14:54:57Z</time>
      </trkpt>
      <trkpt lat="40.9599630" lon="-3.3109970">
        <ele>896.0</ele>
        <time>2020-09-29T14:54:58Z</time>
      </trkpt>
      <trkpt lat="40.9597550" lon="-3.3109700">
        <ele>896.0</ele>
        <time>2020-09-29T14:54:59Z</time>
      </trkpt>
      <trkpt lat="40.9597550" lon="-3.3109700">
        <ele>896.0</ele>
        <time>2020-09-29T14:55:00Z</time>
      </trkpt>
      <trkpt lat="40.9595720" lon="-3.3108880">
        <ele>896.0</ele>
        <time>2020-09-29T14:55:01Z</time>
      </trkpt>
      <trkpt lat="40.9595720" lon="-3.3108880">
        <ele>896.0</ele>
        <time>2020-09-29T14:55:02Z</time>
      </trkpt>
      <trkpt lat="40.9594030" lon="-3.3108020">
        <ele>896.0</ele>
        <time>2020-09-29T14:55:03Z</time>
      </trkpt>
      <trkpt lat="40.9594030" lon="-3.3108020">
        <ele>896.0</ele>
        <time>2020-09-29T14:55:04Z</time>
      </trkpt>
      <trkpt lat="40.9592420" lon="-3.3107200">
        <ele>896.0</ele>
        <time>2020-09-29T14:55:05Z</time>
      </trkpt>
      <trkpt lat="40.9591650" lon="-3.3106800">
        <ele>896.0</ele>
        <time>2020-09-29T14:55:06Z</time>
      </trkpt>
      <trkpt lat="40.9590880" lon="-3.3106400">
        <ele>896.0</ele>
        <time>2020-09-29T14:55:07Z</time>
      </trkpt>
      <trkpt lat="40.9590880" lon="-3.3106400">
        <ele>896.0</ele>
        <time>2020-09-29T14:55:08Z</time>
      </trkpt>
      <trkpt lat="40.9589400" lon="-3.3105570">
        <ele>896.0</ele>
        <time>2020-09-29T14:55:09Z</time>
      </trkpt>
      <trkpt lat="40.9589400" lon="-3.3105570">
        <ele>896.0</ele>
        <time>2020-09-29T14:55:10Z</time>
      </trkpt>
      <trkpt lat="40.9587950" lon="-3.3104780">
        <ele>896.0</ele>
        <time>2020-09-29T14:55:11Z</time>
      </trkpt>
      <trkpt lat="40.9587950" lon="-3.3104780">
        <ele>895.0</ele>
        <time>2020-09-29T14:55:12Z</time>
      </trkpt>
      <trkpt lat="40.9586480" lon="-3.3104080">
        <ele>895.0</ele>
        <time>2020-09-29T14:55:13Z</time>
      </trkpt>
      <trkpt lat="40.9586480" lon="-3.3104080">
        <ele>895.0</ele>
        <time>2020-09-29T14:55:14Z</time>
      </trkpt>
      <trkpt lat="40.9585130" lon="-3.3103300">
        <ele>895.0</ele>
        <time>2020-09-29T14:55:15Z</time>
      </trkpt>
      <trkpt lat="40.9584470" lon="-3.3102930">
        <ele>895.0</ele>
        <time>2020-09-29T14:55:16Z</time>
      </trkpt>
      <trkpt lat="40.9584470" lon="-3.3102930">
        <ele>895.0</ele>
        <time>2020-09-29T14:55:17Z</time>
      </trkpt>
      <trkpt lat="40.9583130" lon="-3.3102280">
        <ele>895.0</ele>
        <time>2020-09-29T14:55:18Z</time>
      </trkpt>
      <trkpt lat="40.9583130" lon="-3.3102280">
        <ele>895.0</ele>
        <time>2020-09-29T14:55:19Z</time>
      </trkpt>
      <trkpt lat="40.9581870" lon="-3.3101720">
        <ele>896.0</ele>
        <time>2020-09-29T14:55:20Z</time>
      </trkpt>
      <trkpt lat="40.9581250" lon="-3.3101500">
        <ele>896.0</ele>
        <time>2020-09-29T14:55:21Z</time>
      </trkpt>
      <trkpt lat="40.9581250" lon="-3.3101500">
        <ele>896.0</ele>
        <time>2020-09-29T14:55:22Z</time>
      </trkpt>
      <trkpt lat="40.9580050" lon="-3.3101280">
        <ele>896.0</ele>
        <time>2020-09-29T14:55:23Z</time>
      </trkpt>
      <trkpt lat="40.9580050" lon="-3.3101280">
        <ele>896.0</ele>
        <time>2020-09-29T14:55:24Z</time>
      </trkpt>
      <trkpt lat="40.9578830" lon="-3.3101180">
        <ele>896.0</ele>
        <time>2020-09-29T14:55:25Z</time>
      </trkpt>
      <trkpt lat="40.9578830" lon="-3.3101180">
        <ele>896.0</ele>
        <time>2020-09-29T14:55:26Z</time>
      </trkpt>
      <trkpt lat="40.9577670" lon="-3.3101230">
        <ele>896.0</ele>
        <time>2020-09-29T14:55:27Z</time>
      </trkpt>
      <trkpt lat="40.9577100" lon="-3.3101400">
        <ele>896.0</ele>
        <time>2020-09-29T14:55:28Z</time>
      </trkpt>
      <trkpt lat="40.9577100" lon="-3.3101400">
        <ele>896.0</ele>
        <time>2020-09-29T14:55:29Z</time>
      </trkpt>
      <trkpt lat="40.9576020" lon="-3.3101970">
        <ele>896.0</ele>
        <time>2020-09-29T14:55:30Z</time>
      </trkpt>
      <trkpt lat="40.9575500" lon="-3.3102320">
        <ele>896.0</ele>
        <time>2020-09-29T14:55:31Z</time>
      </trkpt>
      <trkpt lat="40.9575500" lon="-3.3102320">
        <ele>897.0</ele>
        <time>2020-09-29T14:55:32Z</time>
      </trkpt>
      <trkpt lat="40.9574480" lon="-3.3103030">
        <ele>897.0</ele>
        <time>2020-09-29T14:55:33Z</time>
      </trkpt>
      <trkpt lat="40.9574000" lon="-3.3103420">
        <ele>897.0</ele>
        <time>2020-09-29T14:55:34Z</time>
      </trkpt>
      <trkpt lat="40.9574000" lon="-3.3103420">
        <ele>897.0</ele>
        <time>2020-09-29T14:55:35Z</time>
      </trkpt>
      <trkpt lat="40.9573030" lon="-3.3104180">
        <ele>897.0</ele>
        <time>2020-09-29T14:55:36Z</time>
      </trkpt>
      <trkpt lat="40.9572550" lon="-3.3104600">
        <ele>897.0</ele>
        <time>2020-09-29T14:55:37Z</time>
      </trkpt>
      <trkpt lat="40.9572550" lon="-3.3104600">
        <ele>897.0</ele>
        <time>2020-09-29T14:55:38Z</time>
      </trkpt>
      <trkpt lat="40.9571630" lon="-3.3105480">
        <ele>897.0</ele>
        <time>2020-09-29T14:55:39Z</time>
      </trkpt>
      <trkpt lat="40.9571630" lon="-3.3105480">
        <ele>897.0</ele>
        <time>2020-09-29T14:55:40Z</time>
      </trkpt>
      <trkpt lat="40.9570780" lon="-3.3106420">
        <ele>898.0</ele>
        <time>2020-09-29T14:55:41Z</time>
      </trkpt>
      <trkpt lat="40.9570780" lon="-3.3106420">
        <ele>898.0</ele>
        <time>2020-09-29T14:55:42Z</time>
      </trkpt>
      <trkpt lat="40.9569950" lon="-3.3107420">
        <ele>898.0</ele>
        <time>2020-09-29T14:55:43Z</time>
      </trkpt>
      <trkpt lat="40.9569550" lon="-3.3107920">
        <ele>898.0</ele>
        <time>2020-09-29T14:55:44Z</time>
      </trkpt>
      <trkpt lat="40.9569550" lon="-3.3107920">
        <ele>898.0</ele>
        <time>2020-09-29T14:55:45Z</time>
      </trkpt>
      <trkpt lat="40.9568730" lon="-3.3108980">
        <ele>898.0</ele>
        <time>2020-09-29T14:55:46Z</time>
      </trkpt>
      <trkpt lat="40.9568730" lon="-3.3108980">
        <ele>898.0</ele>
        <time>2020-09-29T14:55:47Z</time>
      </trkpt>
      <trkpt lat="40.9567950" lon="-3.3110130">
        <ele>898.0</ele>
        <time>2020-09-29T14:55:48Z</time>
      </trkpt>
      <trkpt lat="40.9567950" lon="-3.3110130">
        <ele>898.0</ele>
        <time>2020-09-29T14:55:49Z</time>
      </trkpt>
      <trkpt lat="40.9567230" lon="-3.3111400">
        <ele>898.0</ele>
        <time>2020-09-29T14:55:50Z</time>
      </trkpt>
      <trkpt lat="40.9567230" lon="-3.3111400">
        <ele>898.0</ele>
        <time>2020-09-29T14:55:51Z</time>
      </trkpt>
      <trkpt lat="40.9566580" lon="-3.3112780">
        <ele>898.0</ele>
        <time>2020-09-29T14:55:52Z</time>
      </trkpt>
      <trkpt lat="40.9566580" lon="-3.3112780">
        <ele>898.0</ele>
        <time>2020-09-29T14:55:53Z</time>
      </trkpt>
      <trkpt lat="40.9566270" lon="-3.3114350">
        <ele>898.0</ele>
        <time>2020-09-29T14:55:54Z</time>
      </trkpt>
      <trkpt lat="40.9566230" lon="-3.3115180">
        <ele>898.0</ele>
        <time>2020-09-29T14:55:55Z</time>
      </trkpt>
      <trkpt lat="40.9566230" lon="-3.3115180">
        <ele>898.0</ele>
        <time>2020-09-29T14:55:56Z</time>
      </trkpt>
      <trkpt lat="40.9566220" lon="-3.3116870">
        <ele>898.0</ele>
        <time>2020-09-29T14:55:57Z</time>
      </trkpt>
      <trkpt lat="40.9566180" lon="-3.3117700">
        <ele>898.0</ele>
        <time>2020-09-29T14:55:58Z</time>
      </trkpt>
      <trkpt lat="40.9566180" lon="-3.3117700">
        <ele>898.0</ele>
        <time>2020-09-29T14:55:59Z</time>
      </trkpt>
      <trkpt lat="40.9565970" lon="-3.3119280">
        <ele>898.0</ele>
        <time>2020-09-29T14:56:00Z</time>
      </trkpt>
      <trkpt lat="40.9565970" lon="-3.3119280">
        <ele>898.0</ele>
        <time>2020-09-29T14:56:01Z</time>
      </trkpt>
      <trkpt lat="40.9565400" lon="-3.3120670">
        <ele>898.0</ele>
        <time>2020-09-29T14:56:02Z</time>
      </trkpt>
      <trkpt lat="40.9565400" lon="-3.3120670">
        <ele>898.0</ele>
        <time>2020-09-29T14:56:03Z</time>
      </trkpt>
      <trkpt lat="40.9564620" lon="-3.3121920">
        <ele>899.0</ele>
        <time>2020-09-29T14:56:04Z</time>
      </trkpt>
      <trkpt lat="40.9564180" lon="-3.3122530">
        <ele>899.0</ele>
        <time>2020-09-29T14:56:05Z</time>
      </trkpt>
      <trkpt lat="40.9564180" lon="-3.3122530">
        <ele>899.0</ele>
        <time>2020-09-29T14:56:06Z</time>
      </trkpt>
      <trkpt lat="40.9563330" lon="-3.3123730">
        <ele>899.0</ele>
        <time>2020-09-29T14:56:07Z</time>
      </trkpt>
      <trkpt lat="40.9563330" lon="-3.3123730">
        <ele>899.0</ele>
        <time>2020-09-29T14:56:08Z</time>
      </trkpt>
      <trkpt lat="40.9562500" lon="-3.3124950">
        <ele>899.0</ele>
        <time>2020-09-29T14:56:09Z</time>
      </trkpt>
      <trkpt lat="40.9562500" lon="-3.3124950">
        <ele>899.0</ele>
        <time>2020-09-29T14:56:10Z</time>
      </trkpt>
      <trkpt lat="40.9561680" lon="-3.3126230">
        <ele>899.0</ele>
        <time>2020-09-29T14:56:11Z</time>
      </trkpt>
      <trkpt lat="40.9561680" lon="-3.3126230">
        <ele>899.0</ele>
        <time>2020-09-29T14:56:12Z</time>
      </trkpt>
      <trkpt lat="40.9560900" lon="-3.3127550">
        <ele>899.0</ele>
        <time>2020-09-29T14:56:13Z</time>
      </trkpt>
      <trkpt lat="40.9560900" lon="-3.3127550">
        <ele>899.0</ele>
        <time>2020-09-29T14:56:14Z</time>
      </trkpt>
      <trkpt lat="40.9560100" lon="-3.3128920">
        <ele>899.0</ele>
        <time>2020-09-29T14:56:15Z</time>
      </trkpt>
      <trkpt lat="40.9559680" lon="-3.3129620">
        <ele>899.0</ele>
        <time>2020-09-29T14:56:16Z</time>
      </trkpt>
      <trkpt lat="40.9559680" lon="-3.3129620">
        <ele>899.0</ele>
        <time>2020-09-29T14:56:17Z</time>
      </trkpt>
      <trkpt lat="40.9558850" lon="-3.3131120">
        <ele>899.0</ele>
        <time>2020-09-29T14:56:18Z</time>
      </trkpt>
      <trkpt lat="40.9558850" lon="-3.3131120">
        <ele>899.0</ele>
        <time>2020-09-29T14:56:19Z</time>
      </trkpt>
      <trkpt lat="40.9558120" lon="-3.3132900">
        <ele>899.0</ele>
        <time>2020-09-29T14:56:20Z</time>
      </trkpt>
      <trkpt lat="40.9558120" lon="-3.3132900">
        <ele>899.0</ele>
        <time>2020-09-29T14:56:21Z</time>
      </trkpt>
      <trkpt lat="40.9557420" lon="-3.3134720">
        <ele>899.0</ele>
        <time>2020-09-29T14:56:22Z</time>
      </trkpt>
      <trkpt lat="40.9557420" lon="-3.3134720">
        <ele>899.0</ele>
        <time>2020-09-29T14:56:23Z</time>
      </trkpt>
      <trkpt lat="40.9556620" lon="-3.3136430">
        <ele>898.0</ele>
        <time>2020-09-29T14:56:24Z</time>
      </trkpt>
      <trkpt lat="40.9556080" lon="-3.3137130">
        <ele>898.0</ele>
        <time>2020-09-29T14:56:25Z</time>
      </trkpt>
      <trkpt lat="40.9556080" lon="-3.3137130">
        <ele>898.0</ele>
        <time>2020-09-29T14:56:26Z</time>
      </trkpt>
      <trkpt lat="40.9554720" lon="-3.3137820">
        <ele>898.0</ele>
        <time>2020-09-29T14:56:27Z</time>
      </trkpt>
      <trkpt lat="40.9554720" lon="-3.3137820">
        <ele>898.0</ele>
        <time>2020-09-29T14:56:28Z</time>
      </trkpt>
      <trkpt lat="40.9553370" lon="-3.3137380">
        <ele>898.0</ele>
        <time>2020-09-29T14:56:29Z</time>
      </trkpt>
      <trkpt lat="40.9553370" lon="-3.3137380">
        <ele>898.0</ele>
        <time>2020-09-29T14:56:30Z</time>
      </trkpt>
      <trkpt lat="40.9552430" lon="-3.3136250">
        <ele>898.0</ele>
        <time>2020-09-29T14:56:31Z</time>
      </trkpt>
      <trkpt lat="40.9552430" lon="-3.3136250">
        <ele>898.0</ele>
        <time>2020-09-29T14:56:32Z</time>
      </trkpt>
      <trkpt lat="40.9551770" lon="-3.3134830">
        <ele>898.0</ele>
        <time>2020-09-29T14:56:33Z</time>
      </trkpt>
      <trkpt lat="40.9551770" lon="-3.3134830">
        <ele>898.0</ele>
        <time>2020-09-29T14:56:34Z</time>
      </trkpt>
      <trkpt lat="40.9550980" lon="-3.3133420">
        <ele>898.0</ele>
        <time>2020-09-29T14:56:35Z</time>
      </trkpt>
      <trkpt lat="40.9550520" lon="-3.3132770">
        <ele>898.0</ele>
        <time>2020-09-29T14:56:36Z</time>
      </trkpt>
      <trkpt lat="40.9550520" lon="-3.3132770">
        <ele>898.0</ele>
        <time>2020-09-29T14:56:37Z</time>
      </trkpt>
      <trkpt lat="40.9549250" lon="-3.3131900">
        <ele>898.0</ele>
        <time>2020-09-29T14:56:38Z</time>
      </trkpt>
      <trkpt lat="40.9549250" lon="-3.3131900">
        <ele>898.0</ele>
        <time>2020-09-29T14:56:39Z</time>
      </trkpt>
      <trkpt lat="40.9547830" lon="-3.3131900">
        <ele>898.0</ele>
        <time>2020-09-29T14:56:40Z</time>
      </trkpt>
      <trkpt lat="40.9547830" lon="-3.3131900">
        <ele>898.0</ele>
        <time>2020-09-29T14:56:41Z</time>
      </trkpt>
      <trkpt lat="40.9546370" lon="-3.3132100">
        <ele>897.0</ele>
        <time>2020-09-29T14:56:42Z</time>
      </trkpt>
      <trkpt lat="40.9546370" lon="-3.3132100">
        <ele>897.0</ele>
        <time>2020-09-29T14:56:43Z</time>
      </trkpt>
      <trkpt lat="40.9544900" lon="-3.3132050">
        <ele>897.0</ele>
        <time>2020-09-29T14:56:44Z</time>
      </trkpt>
      <trkpt lat="40.9544180" lon="-3.3131950">
        <ele>897.0</ele>
        <time>2020-09-29T14:56:45Z</time>
      </trkpt>
      <trkpt lat="40.9544180" lon="-3.3131950">
        <ele>897.0</ele>
        <time>2020-09-29T14:56:46Z</time>
      </trkpt>
      <trkpt lat="40.9542770" lon="-3.3131630">
        <ele>897.0</ele>
        <time>2020-09-29T14:56:47Z</time>
      </trkpt>
      <trkpt lat="40.9542770" lon="-3.3131630">
        <ele>897.0</ele>
        <time>2020-09-29T14:56:48Z</time>
      </trkpt>
      <trkpt lat="40.9541450" lon="-3.3131170">
        <ele>897.0</ele>
        <time>2020-09-29T14:56:49Z</time>
      </trkpt>
      <trkpt lat="40.9541450" lon="-3.3131170">
        <ele>897.0</ele>
        <time>2020-09-29T14:56:50Z</time>
      </trkpt>
      <trkpt lat="40.9540230" lon="-3.3130470">
        <ele>897.0</ele>
        <time>2020-09-29T14:56:51Z</time>
      </trkpt>
      <trkpt lat="40.9539670" lon="-3.3129980">
        <ele>897.0</ele>
        <time>2020-09-29T14:56:52Z</time>
      </trkpt>
      <trkpt lat="40.9539670" lon="-3.3129980">
        <ele>897.0</ele>
        <time>2020-09-29T14:56:53Z</time>
      </trkpt>
      <trkpt lat="40.9538620" lon="-3.3128970">
        <ele>897.0</ele>
        <time>2020-09-29T14:56:54Z</time>
      </trkpt>
      <trkpt lat="40.9538100" lon="-3.3128450">
        <ele>897.0</ele>
        <time>2020-09-29T14:56:55Z</time>
      </trkpt>
      <trkpt lat="40.9538100" lon="-3.3128450">
        <ele>897.0</ele>
        <time>2020-09-29T14:56:56Z</time>
      </trkpt>
      <trkpt lat="40.9537030" lon="-3.3127480">
        <ele>897.0</ele>
        <time>2020-09-29T14:56:57Z</time>
      </trkpt>
      <trkpt lat="40.9536500" lon="-3.3127000">
        <ele>897.0</ele>
        <time>2020-09-29T14:56:58Z</time>
      </trkpt>
      <trkpt lat="40.9536500" lon="-3.3127000">
        <ele>897.0</ele>
        <time>2020-09-29T14:56:59Z</time>
      </trkpt>
      <trkpt lat="40.9535400" lon="-3.3126100">
        <ele>897.0</ele>
        <time>2020-09-29T14:57:00Z</time>
      </trkpt>
      <trkpt lat="40.9534830" lon="-3.3125700">
        <ele>897.0</ele>
        <time>2020-09-29T14:57:01Z</time>
      </trkpt>
      <trkpt lat="40.9534830" lon="-3.3125700">
        <ele>897.0</ele>
        <time>2020-09-29T14:57:02Z</time>
      </trkpt>
      <trkpt lat="40.9533620" lon="-3.3125100">
        <ele>897.0</ele>
        <time>2020-09-29T14:57:03Z</time>
      </trkpt>
      <trkpt lat="40.9532980" lon="-3.3124880">
        <ele>897.0</ele>
        <time>2020-09-29T14:57:04Z</time>
      </trkpt>
      <trkpt lat="40.9532980" lon="-3.3124880">
        <ele>897.0</ele>
        <time>2020-09-29T14:57:05Z</time>
      </trkpt>
      <trkpt lat="40.9531670" lon="-3.3124970">
        <ele>897.0</ele>
        <time>2020-09-29T14:57:06Z</time>
      </trkpt>
      <trkpt lat="40.9531050" lon="-3.3125320">
        <ele>897.0</ele>
        <time>2020-09-29T14:57:07Z</time>
      </trkpt>
      <trkpt lat="40.9531050" lon="-3.3125320">
        <ele>897.0</ele>
        <time>2020-09-29T14:57:08Z</time>
      </trkpt>
      <trkpt lat="40.9529870" lon="-3.3126230">
        <ele>897.0</ele>
        <time>2020-09-29T14:57:09Z</time>
      </trkpt>
      <trkpt lat="40.9529220" lon="-3.3126500">
        <ele>897.0</ele>
        <time>2020-09-29T14:57:10Z</time>
      </trkpt>
      <trkpt lat="40.9529220" lon="-3.3126500">
        <ele>897.0</ele>
        <time>2020-09-29T14:57:11Z</time>
      </trkpt>
      <trkpt lat="40.9527880" lon="-3.3126470">
        <ele>897.0</ele>
        <time>2020-09-29T14:57:12Z</time>
      </trkpt>
      <trkpt lat="40.9527880" lon="-3.3126470">
        <ele>897.0</ele>
        <time>2020-09-29T14:57:13Z</time>
      </trkpt>
      <trkpt lat="40.9526680" lon="-3.3125800">
        <ele>897.0</ele>
        <time>2020-09-29T14:57:14Z</time>
      </trkpt>
      <trkpt lat="40.9526680" lon="-3.3125800">
        <ele>897.0</ele>
        <time>2020-09-29T14:57:15Z</time>
      </trkpt>
      <trkpt lat="40.9525620" lon="-3.3124920">
        <ele>897.0</ele>
        <time>2020-09-29T14:57:16Z</time>
      </trkpt>
      <trkpt lat="40.9525120" lon="-3.3124420">
        <ele>897.0</ele>
        <time>2020-09-29T14:57:17Z</time>
      </trkpt>
      <trkpt lat="40.9525120" lon="-3.3124420">
        <ele>898.0</ele>
        <time>2020-09-29T14:57:18Z</time>
      </trkpt>
      <trkpt lat="40.9524130" lon="-3.3123570">
        <ele>898.0</ele>
        <time>2020-09-29T14:57:19Z</time>
      </trkpt>
      <trkpt lat="40.9524130" lon="-3.3123570">
        <ele>898.0</ele>
        <time>2020-09-29T14:57:20Z</time>
      </trkpt>
      <trkpt lat="40.9523230" lon="-3.3122930">
        <ele>898.0</ele>
        <time>2020-09-29T14:57:21Z</time>
      </trkpt>
      <trkpt lat="40.9522770" lon="-3.3122680">
        <ele>898.0</ele>
        <time>2020-09-29T14:57:22Z</time>
      </trkpt>
      <trkpt lat="40.9522770" lon="-3.3122680">
        <ele>898.0</ele>
        <time>2020-09-29T14:57:23Z</time>
      </trkpt>
      <trkpt lat="40.9521820" lon="-3.3122250">
        <ele>899.0</ele>
        <time>2020-09-29T14:57:24Z</time>
      </trkpt>
      <trkpt lat="40.9521370" lon="-3.3122080">
        <ele>899.0</ele>
        <time>2020-09-29T14:57:25Z</time>
      </trkpt>
      <trkpt lat="40.9521370" lon="-3.3122080">
        <ele>899.0</ele>
        <time>2020-09-29T14:57:26Z</time>
      </trkpt>
      <trkpt lat="40.9520470" lon="-3.3122000">
        <ele>899.0</ele>
        <time>2020-09-29T14:57:27Z</time>
      </trkpt>
      <trkpt lat="40.9520020" lon="-3.3122070">
        <ele>900.0</ele>
        <time>2020-09-29T14:57:28Z</time>
      </trkpt>
      <trkpt lat="40.9520020" lon="-3.3122070">
        <ele>900.0</ele>
        <time>2020-09-29T14:57:29Z</time>
      </trkpt>
      <trkpt lat="40.9519070" lon="-3.3122180">
        <ele>900.0</ele>
        <time>2020-09-29T14:57:30Z</time>
      </trkpt>
      <trkpt lat="40.9518620" lon="-3.3122230">
        <ele>900.0</ele>
        <time>2020-09-29T14:57:31Z</time>
      </trkpt>
      <trkpt lat="40.9518620" lon="-3.3122230">
        <ele>901.0</ele>
        <time>2020-09-29T14:57:32Z</time>
      </trkpt>
      <trkpt lat="40.9517650" lon="-3.3122370">
        <ele>901.0</ele>
        <time>2020-09-29T14:57:33Z</time>
      </trkpt>
      <trkpt lat="40.9517180" lon="-3.3122520">
        <ele>901.0</ele>
        <time>2020-09-29T14:57:34Z</time>
      </trkpt>
      <trkpt lat="40.9517180" lon="-3.3122520">
        <ele>902.0</ele>
        <time>2020-09-29T14:57:35Z</time>
      </trkpt>
      <trkpt lat="40.9516230" lon="-3.3122780">
        <ele>902.0</ele>
        <time>2020-09-29T14:57:36Z</time>
      </trkpt>
      <trkpt lat="40.9516230" lon="-3.3122780">
        <ele>902.0</ele>
        <time>2020-09-29T14:57:37Z</time>
      </trkpt>
      <trkpt lat="40.9515320" lon="-3.3123200">
        <ele>902.0</ele>
        <time>2020-09-29T14:57:38Z</time>
      </trkpt>
      <trkpt lat="40.9515320" lon="-3.3123200">
        <ele>902.0</ele>
        <time>2020-09-29T14:57:39Z</time>
      </trkpt>
      <trkpt lat="40.9514450" lon="-3.3123780">
        <ele>902.0</ele>
        <time>2020-09-29T14:57:40Z</time>
      </trkpt>
      <trkpt lat="40.9514120" lon="-3.3124220">
        <ele>902.0</ele>
        <time>2020-09-29T14:57:41Z</time>
      </trkpt>
      <trkpt lat="40.9514120" lon="-3.3124220">
        <ele>902.0</ele>
        <time>2020-09-29T14:57:42Z</time>
      </trkpt>
      <trkpt lat="40.9513600" lon="-3.3125370">
        <ele>902.0</ele>
        <time>2020-09-29T14:57:43Z</time>
      </trkpt>
      <trkpt lat="40.9513600" lon="-3.3125370">
        <ele>902.0</ele>
        <time>2020-09-29T14:57:44Z</time>
      </trkpt>
      <trkpt lat="40.9513130" lon="-3.3126630">
        <ele>902.0</ele>
        <time>2020-09-29T14:57:45Z</time>
      </trkpt>
      <trkpt lat="40.9513130" lon="-3.3126630">
        <ele>902.0</ele>
        <time>2020-09-29T14:57:46Z</time>
      </trkpt>
      <trkpt lat="40.9512670" lon="-3.3127980">
        <ele>902.0</ele>
        <time>2020-09-29T14:57:47Z</time>
      </trkpt>
      <trkpt lat="40.9512670" lon="-3.3127980">
        <ele>902.0</ele>
        <time>2020-09-29T14:57:48Z</time>
      </trkpt>
      <trkpt lat="40.9512330" lon="-3.3129420">
        <ele>902.0</ele>
        <time>2020-09-29T14:57:49Z</time>
      </trkpt>
      <trkpt lat="40.9512330" lon="-3.3129420">
        <ele>902.0</ele>
        <time>2020-09-29T14:57:50Z</time>
      </trkpt>
      <trkpt lat="40.9512230" lon="-3.3130980">
        <ele>902.0</ele>
        <time>2020-09-29T14:57:51Z</time>
      </trkpt>
      <trkpt lat="40.9512230" lon="-3.3130980">
        <ele>902.0</ele>
        <time>2020-09-29T14:57:52Z</time>
      </trkpt>
      <trkpt lat="40.9512220" lon="-3.3132620">
        <ele>902.0</ele>
        <time>2020-09-29T14:57:53Z</time>
      </trkpt>
      <trkpt lat="40.9512220" lon="-3.3133500">
        <ele>902.0</ele>
        <time>2020-09-29T14:57:54Z</time>
      </trkpt>
      <trkpt lat="40.9512220" lon="-3.3133500">
        <ele>902.0</ele>
        <time>2020-09-29T14:57:55Z</time>
      </trkpt>
      <trkpt lat="40.9512300" lon="-3.3135180">
        <ele>902.0</ele>
        <time>2020-09-29T14:57:56Z</time>
      </trkpt>
      <trkpt lat="40.9512300" lon="-3.3135180">
        <ele>902.0</ele>
        <time>2020-09-29T14:57:57Z</time>
      </trkpt>
      <trkpt lat="40.9512420" lon="-3.3136950">
        <ele>902.0</ele>
        <time>2020-09-29T14:57:58Z</time>
      </trkpt>
      <trkpt lat="40.9512420" lon="-3.3136950">
        <ele>902.0</ele>
        <time>2020-09-29T14:57:59Z</time>
      </trkpt>
      <trkpt lat="40.9512520" lon="-3.3138900">
        <ele>902.0</ele>
        <time>2020-09-29T14:58:00Z</time>
      </trkpt>
      <trkpt lat="40.9512520" lon="-3.3138900">
        <ele>902.0</ele>
        <time>2020-09-29T14:58:01Z</time>
      </trkpt>
      <trkpt lat="40.9512580" lon="-3.3141070">
        <ele>902.0</ele>
        <time>2020-09-29T14:58:02Z</time>
      </trkpt>
      <trkpt lat="40.9512630" lon="-3.3142200">
        <ele>900.0</ele>
        <time>2020-09-29T14:58:03Z</time>
      </trkpt>
      <trkpt lat="40.9512630" lon="-3.3142200">
        <ele>900.0</ele>
        <time>2020-09-29T14:58:04Z</time>
      </trkpt>
      <trkpt lat="40.9512870" lon="-3.3144580">
        <ele>899.0</ele>
        <time>2020-09-29T14:58:05Z</time>
      </trkpt>
      <trkpt lat="40.9512870" lon="-3.3144580">
        <ele>899.0</ele>
        <time>2020-09-29T14:58:06Z</time>
      </trkpt>
      <trkpt lat="40.9513320" lon="-3.3146850">
        <ele>898.0</ele>
        <time>2020-09-29T14:58:07Z</time>
      </trkpt>
      <trkpt lat="40.9513680" lon="-3.3147830">
        <ele>898.0</ele>
        <time>2020-09-29T14:58:08Z</time>
      </trkpt>
      <trkpt lat="40.9513680" lon="-3.3147830">
        <ele>896.0</ele>
        <time>2020-09-29T14:58:09Z</time>
      </trkpt>
      <trkpt lat="40.9514380" lon="-3.3149670">
        <ele>895.0</ele>
        <time>2020-09-29T14:58:10Z</time>
      </trkpt>
      <trkpt lat="40.9514380" lon="-3.3149670">
        <ele>895.0</ele>
        <time>2020-09-29T14:58:11Z</time>
      </trkpt>
      <trkpt lat="40.9514650" lon="-3.3151420">
        <ele>894.0</ele>
        <time>2020-09-29T14:58:12Z</time>
      </trkpt>
      <trkpt lat="40.9514650" lon="-3.3151420">
        <ele>894.0</ele>
        <time>2020-09-29T14:58:13Z</time>
      </trkpt>
      <trkpt lat="40.9514000" lon="-3.3153130">
        <ele>892.0</ele>
        <time>2020-09-29T14:58:14Z</time>
      </trkpt>
      <trkpt lat="40.9514000" lon="-3.3153130">
        <ele>892.0</ele>
        <time>2020-09-29T14:58:15Z</time>
      </trkpt>
      <trkpt lat="40.9512880" lon="-3.3154800">
        <ele>891.0</ele>
        <time>2020-09-29T14:58:16Z</time>
      </trkpt>
      <trkpt lat="40.9512880" lon="-3.3154800">
        <ele>891.0</ele>
        <time>2020-09-29T14:58:17Z</time>
      </trkpt>
      <trkpt lat="40.9511570" lon="-3.3156230">
        <ele>890.0</ele>
        <time>2020-09-29T14:58:18Z</time>
      </trkpt>
      <trkpt lat="40.9510750" lon="-3.3156720">
        <ele>890.0</ele>
        <time>2020-09-29T14:58:19Z</time>
      </trkpt>
      <trkpt lat="40.9510750" lon="-3.3156720">
        <ele>889.0</ele>
        <time>2020-09-29T14:58:20Z</time>
      </trkpt>
      <trkpt lat="40.9508880" lon="-3.3157280">
        <ele>889.0</ele>
        <time>2020-09-29T14:58:21Z</time>
      </trkpt>
      <trkpt lat="40.9508880" lon="-3.3157280">
        <ele>888.0</ele>
        <time>2020-09-29T14:58:22Z</time>
      </trkpt>
      <trkpt lat="40.9506930" lon="-3.3157850">
        <ele>888.0</ele>
        <time>2020-09-29T14:58:23Z</time>
      </trkpt>
      <trkpt lat="40.9506930" lon="-3.3157850">
        <ele>888.0</ele>
        <time>2020-09-29T14:58:24Z</time>
      </trkpt>
      <trkpt lat="40.9504950" lon="-3.3158480">
        <ele>885.0</ele>
        <time>2020-09-29T14:58:25Z</time>
      </trkpt>
      <trkpt lat="40.9504950" lon="-3.3158480">
        <ele>885.0</ele>
        <time>2020-09-29T14:58:26Z</time>
      </trkpt>
      <trkpt lat="40.9503050" lon="-3.3159150">
        <ele>884.0</ele>
        <time>2020-09-29T14:58:27Z</time>
      </trkpt>
      <trkpt lat="40.9502200" lon="-3.3159470">
        <ele>884.0</ele>
        <time>2020-09-29T14:58:28Z</time>
      </trkpt>
      <trkpt lat="40.9502200" lon="-3.3159470">
        <ele>882.0</ele>
        <time>2020-09-29T14:58:29Z</time>
      </trkpt>
      <trkpt lat="40.9500770" lon="-3.3159870">
        <ele>882.0</ele>
        <time>2020-09-29T14:58:30Z</time>
      </trkpt>
      <trkpt lat="40.9500180" lon="-3.3159800">
        <ele>880.0</ele>
        <time>2020-09-29T14:58:31Z</time>
      </trkpt>
      <trkpt lat="40.9500180" lon="-3.3159800">
        <ele>880.0</ele>
        <time>2020-09-29T14:58:32Z</time>
      </trkpt>
      <trkpt lat="40.9499400" lon="-3.3158750">
        <ele>878.0</ele>
        <time>2020-09-29T14:58:33Z</time>
      </trkpt>
      <trkpt lat="40.9499400" lon="-3.3158750">
        <ele>878.0</ele>
        <time>2020-09-29T14:58:34Z</time>
      </trkpt>
      <trkpt lat="40.9499030" lon="-3.3157070">
        <ele>877.0</ele>
        <time>2020-09-29T14:58:35Z</time>
      </trkpt>
      <trkpt lat="40.9499030" lon="-3.3157070">
        <ele>877.0</ele>
        <time>2020-09-29T14:58:36Z</time>
      </trkpt>
      <trkpt lat="40.9499380" lon="-3.3155480">
        <ele>876.0</ele>
        <time>2020-09-29T14:58:37Z</time>
      </trkpt>
      <trkpt lat="40.9499380" lon="-3.3155480">
        <ele>876.0</ele>
        <time>2020-09-29T14:58:38Z</time>
      </trkpt>
      <trkpt lat="40.9500470" lon="-3.3154580">
        <ele>876.0</ele>
        <time>2020-09-29T14:58:39Z</time>
      </trkpt>
      <trkpt lat="40.9501100" lon="-3.3154150">
        <ele>875.0</ele>
        <time>2020-09-29T14:58:40Z</time>
      </trkpt>
      <trkpt lat="40.9501100" lon="-3.3154150">
        <ele>875.0</ele>
        <time>2020-09-29T14:58:41Z</time>
      </trkpt>
      <trkpt lat="40.9502470" lon="-3.3153370">
        <ele>875.0</ele>
        <time>2020-09-29T14:58:42Z</time>
      </trkpt>
      <trkpt lat="40.9502470" lon="-3.3153370">
        <ele>875.0</ele>
        <time>2020-09-29T14:58:43Z</time>
      </trkpt>
      <trkpt lat="40.9503880" lon="-3.3152500">
        <ele>874.0</ele>
        <time>2020-09-29T14:58:44Z</time>
      </trkpt>
      <trkpt lat="40.9503880" lon="-3.3152500">
        <ele>873.0</ele>
        <time>2020-09-29T14:58:45Z</time>
      </trkpt>
      <trkpt lat="40.9504700" lon="-3.3151130">
        <ele>873.0</ele>
        <time>2020-09-29T14:58:46Z</time>
      </trkpt>
      <trkpt lat="40.9504700" lon="-3.3151130">
        <ele>872.0</ele>
        <time>2020-09-29T14:58:47Z</time>
      </trkpt>
      <trkpt lat="40.9504200" lon="-3.3149730">
        <ele>872.0</ele>
        <time>2020-09-29T14:58:48Z</time>
      </trkpt>
      <trkpt lat="40.9504200" lon="-3.3149730">
        <ele>871.0</ele>
        <time>2020-09-29T14:58:49Z</time>
      </trkpt>
      <trkpt lat="40.9502830" lon="-3.3149250">
        <ele>871.0</ele>
        <time>2020-09-29T14:58:50Z</time>
      </trkpt>
      <trkpt lat="40.9502830" lon="-3.3149250">
        <ele>870.0</ele>
        <time>2020-09-29T14:58:51Z</time>
      </trkpt>
      <trkpt lat="40.9501270" lon="-3.3149070">
        <ele>870.0</ele>
        <time>2020-09-29T14:58:52Z</time>
      </trkpt>
      <trkpt lat="40.9500400" lon="-3.3148950">
        <ele>869.0</ele>
        <time>2020-09-29T14:58:53Z</time>
      </trkpt>
      <trkpt lat="40.9500400" lon="-3.3148950">
        <ele>869.0</ele>
        <time>2020-09-29T14:58:54Z</time>
      </trkpt>
      <trkpt lat="40.9498550" lon="-3.3148930">
        <ele>868.0</ele>
        <time>2020-09-29T14:58:55Z</time>
      </trkpt>
      <trkpt lat="40.9498550" lon="-3.3148930">
        <ele>868.0</ele>
        <time>2020-09-29T14:58:56Z</time>
      </trkpt>
      <trkpt lat="40.9496680" lon="-3.3149370">
        <ele>867.0</ele>
        <time>2020-09-29T14:58:57Z</time>
      </trkpt>
      <trkpt lat="40.9495680" lon="-3.3149750">
        <ele>867.0</ele>
        <time>2020-09-29T14:58:58Z</time>
      </trkpt>
      <trkpt lat="40.9495680" lon="-3.3149750">
        <ele>866.0</ele>
        <time>2020-09-29T14:58:59Z</time>
      </trkpt>
      <trkpt lat="40.9493650" lon="-3.3150600">
        <ele>866.0</ele>
        <time>2020-09-29T14:59:00Z</time>
      </trkpt>
      <trkpt lat="40.9492630" lon="-3.3151080">
        <ele>864.0</ele>
        <time>2020-09-29T14:59:01Z</time>
      </trkpt>
      <trkpt lat="40.9492630" lon="-3.3151080">
        <ele>864.0</ele>
        <time>2020-09-29T14:59:02Z</time>
      </trkpt>
      <trkpt lat="40.9490650" lon="-3.3151950">
        <ele>862.0</ele>
        <time>2020-09-29T14:59:03Z</time>
      </trkpt>
      <trkpt lat="40.9490650" lon="-3.3151950">
        <ele>862.0</ele>
        <time>2020-09-29T14:59:04Z</time>
      </trkpt>
      <trkpt lat="40.9488770" lon="-3.3153020">
        <ele>860.0</ele>
        <time>2020-09-29T14:59:05Z</time>
      </trkpt>
      <trkpt lat="40.9487820" lon="-3.3153750">
        <ele>860.0</ele>
        <time>2020-09-29T14:59:06Z</time>
      </trkpt>
      <trkpt lat="40.9486980" lon="-3.3154730">
        <ele>859.0</ele>
        <time>2020-09-29T14:59:07Z</time>
      </trkpt>
      <trkpt lat="40.9486980" lon="-3.3154730">
        <ele>859.0</ele>
        <time>2020-09-29T14:59:08Z</time>
      </trkpt>
      <trkpt lat="40.9485480" lon="-3.3156950">
        <ele>857.0</ele>
        <time>2020-09-29T14:59:09Z</time>
      </trkpt>
      <trkpt lat="40.9485480" lon="-3.3156950">
        <ele>857.0</ele>
        <time>2020-09-29T14:59:10Z</time>
      </trkpt>
      <trkpt lat="40.9484250" lon="-3.3159150">
        <ele>855.0</ele>
        <time>2020-09-29T14:59:11Z</time>
      </trkpt>
      <trkpt lat="40.9483830" lon="-3.3160250">
        <ele>855.0</ele>
        <time>2020-09-29T14:59:12Z</time>
      </trkpt>
      <trkpt lat="40.9483830" lon="-3.3160250">
        <ele>852.0</ele>
        <time>2020-09-29T14:59:13Z</time>
      </trkpt>
      <trkpt lat="40.9483300" lon="-3.3162600">
        <ele>852.0</ele>
        <time>2020-09-29T14:59:14Z</time>
      </trkpt>
      <trkpt lat="40.9483300" lon="-3.3162600">
        <ele>851.0</ele>
        <time>2020-09-29T14:59:15Z</time>
      </trkpt>
      <trkpt lat="40.9483130" lon="-3.3165130">
        <ele>851.0</ele>
        <time>2020-09-29T14:59:16Z</time>
      </trkpt>
      <trkpt lat="40.9483130" lon="-3.3165130">
        <ele>849.0</ele>
        <time>2020-09-29T14:59:17Z</time>
      </trkpt>
      <trkpt lat="40.9483080" lon="-3.3167750">
        <ele>849.0</ele>
        <time>2020-09-29T14:59:18Z</time>
      </trkpt>
      <trkpt lat="40.9483080" lon="-3.3167750">
        <ele>848.0</ele>
        <time>2020-09-29T14:59:19Z</time>
      </trkpt>
      <trkpt lat="40.9483200" lon="-3.3170000">
        <ele>848.0</ele>
        <time>2020-09-29T14:59:20Z</time>
      </trkpt>
      <trkpt lat="40.9483200" lon="-3.3170000">
        <ele>846.0</ele>
        <time>2020-09-29T14:59:21Z</time>
      </trkpt>
      <trkpt lat="40.9483670" lon="-3.3171800">
        <ele>844.0</ele>
        <time>2020-09-29T14:59:22Z</time>
      </trkpt>
      <trkpt lat="40.9484180" lon="-3.3172200">
        <ele>844.0</ele>
        <time>2020-09-29T14:59:23Z</time>
      </trkpt>
      <trkpt lat="40.9484180" lon="-3.3172200">
        <ele>843.0</ele>
        <time>2020-09-29T14:59:24Z</time>
      </trkpt>
      <trkpt lat="40.9485570" lon="-3.3172650">
        <ele>843.0</ele>
        <time>2020-09-29T14:59:25Z</time>
      </trkpt>
      <trkpt lat="40.9485570" lon="-3.3172650">
        <ele>842.0</ele>
        <time>2020-09-29T14:59:26Z</time>
      </trkpt>
      <trkpt lat="40.9487120" lon="-3.3172620">
        <ele>842.0</ele>
        <time>2020-09-29T14:59:27Z</time>
      </trkpt>
      <trkpt lat="40.9487120" lon="-3.3172620">
        <ele>840.0</ele>
        <time>2020-09-29T14:59:28Z</time>
      </trkpt>
      <trkpt lat="40.9488520" lon="-3.3172450">
        <ele>840.0</ele>
        <time>2020-09-29T14:59:29Z</time>
      </trkpt>
      <trkpt lat="40.9488520" lon="-3.3172450">
        <ele>839.0</ele>
        <time>2020-09-29T14:59:30Z</time>
      </trkpt>
      <trkpt lat="40.9489930" lon="-3.3172370">
        <ele>839.0</ele>
        <time>2020-09-29T14:59:31Z</time>
      </trkpt>
      <trkpt lat="40.9489930" lon="-3.3172370">
        <ele>837.0</ele>
        <time>2020-09-29T14:59:32Z</time>
      </trkpt>
      <trkpt lat="40.9491680" lon="-3.3172130">
        <ele>837.0</ele>
        <time>2020-09-29T14:59:33Z</time>
      </trkpt>
      <trkpt lat="40.9491680" lon="-3.3172130">
        <ele>835.0</ele>
        <time>2020-09-29T14:59:34Z</time>
      </trkpt>
      <trkpt lat="40.9493400" lon="-3.3172180">
        <ele>835.0</ele>
        <time>2020-09-29T14:59:35Z</time>
      </trkpt>
      <trkpt lat="40.9493400" lon="-3.3172180">
        <ele>833.0</ele>
        <time>2020-09-29T14:59:36Z</time>
      </trkpt>
      <trkpt lat="40.9495050" lon="-3.3172430">
        <ele>833.0</ele>
        <time>2020-09-29T14:59:37Z</time>
      </trkpt>
      <trkpt lat="40.9495050" lon="-3.3172430">
        <ele>832.0</ele>
        <time>2020-09-29T14:59:38Z</time>
      </trkpt>
      <trkpt lat="40.9496680" lon="-3.3172800">
        <ele>832.0</ele>
        <time>2020-09-29T14:59:39Z</time>
      </trkpt>
      <trkpt lat="40.9496680" lon="-3.3172800">
        <ele>830.0</ele>
        <time>2020-09-29T14:59:40Z</time>
      </trkpt>
      <trkpt lat="40.9498200" lon="-3.3173320">
        <ele>830.0</ele>
        <time>2020-09-29T14:59:41Z</time>
      </trkpt>
      <trkpt lat="40.9498200" lon="-3.3173320">
        <ele>828.0</ele>
        <time>2020-09-29T14:59:42Z</time>
      </trkpt>
      <trkpt lat="40.9499420" lon="-3.3174080">
        <ele>828.0</ele>
        <time>2020-09-29T14:59:43Z</time>
      </trkpt>
      <trkpt lat="40.9500130" lon="-3.3174330">
        <ele>827.0</ele>
        <time>2020-09-29T14:59:44Z</time>
      </trkpt>
      <trkpt lat="40.9500130" lon="-3.3174330">
        <ele>827.0</ele>
        <time>2020-09-29T14:59:45Z</time>
      </trkpt>
      <trkpt lat="40.9501200" lon="-3.3175130">
        <ele>825.0</ele>
        <time>2020-09-29T14:59:46Z</time>
      </trkpt>
      <trkpt lat="40.9501200" lon="-3.3175130">
        <ele>825.0</ele>
        <time>2020-09-29T14:59:47Z</time>
      </trkpt>
      <trkpt lat="40.9501900" lon="-3.3176200">
        <ele>823.0</ele>
        <time>2020-09-29T14:59:48Z</time>
      </trkpt>
      <trkpt lat="40.9502130" lon="-3.3176650">
        <ele>823.0</ele>
        <time>2020-09-29T14:59:49Z</time>
      </trkpt>
      <trkpt lat="40.9502130" lon="-3.3176650">
        <ele>822.0</ele>
        <time>2020-09-29T14:59:50Z</time>
      </trkpt>
      <trkpt lat="40.9502520" lon="-3.3177330">
        <ele>822.0</ele>
        <time>2020-09-29T14:59:51Z</time>
      </trkpt>
      <trkpt lat="40.9502720" lon="-3.3177580">
        <ele>821.0</ele>
        <time>2020-09-29T14:59:52Z</time>
      </trkpt>
      <trkpt lat="40.9502720" lon="-3.3177580">
        <ele>821.0</ele>
        <time>2020-09-29T14:59:53Z</time>
      </trkpt>
      <trkpt lat="40.9503180" lon="-3.3178180">
        <ele>821.0</ele>
        <time>2020-09-29T14:59:54Z</time>
      </trkpt>
      <trkpt lat="40.9503450" lon="-3.3178530">
        <ele>821.0</ele>
        <time>2020-09-29T14:59:55Z</time>
      </trkpt>
      <trkpt lat="40.9503450" lon="-3.3178530">
        <ele>821.0</ele>
        <time>2020-09-29T14:59:56Z</time>
      </trkpt>
      <trkpt lat="40.9504000" lon="-3.3178980">
        <ele>820.0</ele>
        <time>2020-09-29T14:59:57Z</time>
      </trkpt>
      <trkpt lat="40.9504000" lon="-3.3178980">
        <ele>820.0</ele>
        <time>2020-09-29T14:59:58Z</time>
      </trkpt>
      <trkpt lat="40.9504600" lon="-3.3179380">
        <ele>820.0</ele>
        <time>2020-09-29T14:59:59Z</time>
      </trkpt>
      <trkpt lat="40.9504600" lon="-3.3179380">
        <ele>820.0</ele>
        <time>2020-09-29T15:00:00Z</time>
      </trkpt>
      <trkpt lat="40.9505400" lon="-3.3179700">
        <ele>820.0</ele>
        <time>2020-09-29T15:00:01Z</time>
      </trkpt>
      <trkpt lat="40.9505870" lon="-3.3179900">
        <ele>820.0</ele>
        <time>2020-09-29T15:00:02Z</time>
      </trkpt>
      <trkpt lat="40.9505870" lon="-3.3179900">
        <ele>819.0</ele>
        <time>2020-09-29T15:00:03Z</time>
      </trkpt>
      <trkpt lat="40.9506720" lon="-3.3180480">
        <ele>819.0</ele>
        <time>2020-09-29T15:00:04Z</time>
      </trkpt>
      <trkpt lat="40.9506720" lon="-3.3180480">
        <ele>818.0</ele>
        <time>2020-09-29T15:00:05Z</time>
      </trkpt>
      <trkpt lat="40.9507430" lon="-3.3181370">
        <ele>818.0</ele>
        <time>2020-09-29T15:00:06Z</time>
      </trkpt>
      <trkpt lat="40.9507430" lon="-3.3181370">
        <ele>817.0</ele>
        <time>2020-09-29T15:00:07Z</time>
      </trkpt>
      <trkpt lat="40.9507700" lon="-3.3182230">
        <ele>817.0</ele>
        <time>2020-09-29T15:00:08Z</time>
      </trkpt>
      <trkpt lat="40.9507700" lon="-3.3182230">
        <ele>816.0</ele>
        <time>2020-09-29T15:00:09Z</time>
      </trkpt>
      <trkpt lat="40.9507930" lon="-3.3182480">
        <ele>816.0</ele>
        <time>2020-09-29T15:00:10Z</time>
      </trkpt>
      <trkpt lat="40.9507930" lon="-3.3182480">
        <ele>816.0</ele>
        <time>2020-09-29T15:00:11Z</time>
      </trkpt>
      <trkpt lat="40.9508130" lon="-3.3182220">
        <ele>816.0</ele>
        <time>2020-09-29T15:00:12Z</time>
      </trkpt>
      <trkpt lat="40.9508080" lon="-3.3181950">
        <ele>816.0</ele>
        <time>2020-09-29T15:00:13Z</time>
      </trkpt>
      <trkpt lat="40.9508080" lon="-3.3181950">
        <ele>816.0</ele>
        <time>2020-09-29T15:00:14Z</time>
      </trkpt>
      <trkpt lat="40.9507700" lon="-3.3181530">
        <ele>816.0</ele>
        <time>2020-09-29T15:00:15Z</time>
      </trkpt>
      <trkpt lat="40.9507480" lon="-3.3181330">
        <ele>816.0</ele>
        <time>2020-09-29T15:00:16Z</time>
      </trkpt>
      <trkpt lat="40.9507480" lon="-3.3181330">
        <ele>816.0</ele>
        <time>2020-09-29T15:00:17Z</time>
      </trkpt>
      <trkpt lat="40.9507050" lon="-3.3180820">
        <ele>816.0</ele>
        <time>2020-09-29T15:00:18Z</time>
      </trkpt>
      <trkpt lat="40.9507050" lon="-3.3180820">
        <ele>816.0</ele>
        <time>2020-09-29T15:00:19Z</time>
      </trkpt>
      <trkpt lat="40.9506570" lon="-3.3180430">
        <ele>816.0</ele>
        <time>2020-09-29T15:00:20Z</time>
      </trkpt>
      <trkpt lat="40.9506570" lon="-3.3180430">
        <ele>816.0</ele>
        <time>2020-09-29T15:00:21Z</time>
      </trkpt>
      <trkpt lat="40.9506020" lon="-3.3180050">
        <ele>816.0</ele>
        <time>2020-09-29T15:00:22Z</time>
      </trkpt>
      <trkpt lat="40.9505700" lon="-3.3179880">
        <ele>816.0</ele>
        <time>2020-09-29T15:00:23Z</time>
      </trkpt>
      <trkpt lat="40.9505700" lon="-3.3179880">
        <ele>816.0</ele>
        <time>2020-09-29T15:00:24Z</time>
      </trkpt>
      <trkpt lat="40.9505120" lon="-3.3179520">
        <ele>816.0</ele>
        <time>2020-09-29T15:00:25Z</time>
      </trkpt>
      <trkpt lat="40.9505120" lon="-3.3179520">
        <ele>816.0</ele>
        <time>2020-09-29T15:00:26Z</time>
      </trkpt>
      <trkpt lat="40.9504520" lon="-3.3179150">
        <ele>817.0</ele>
        <time>2020-09-29T15:00:27Z</time>
      </trkpt>
      <trkpt lat="40.9504520" lon="-3.3179150">
        <ele>817.0</ele>
        <time>2020-09-29T15:00:28Z</time>
      </trkpt>
      <trkpt lat="40.9503930" lon="-3.3178850">
        <ele>817.0</ele>
        <time>2020-09-29T15:00:29Z</time>
      </trkpt>
      <trkpt lat="40.9503930" lon="-3.3178850">
        <ele>817.0</ele>
        <time>2020-09-29T15:00:30Z</time>
      </trkpt>
      <trkpt lat="40.9503320" lon="-3.3178450">
        <ele>818.0</ele>
        <time>2020-09-29T15:00:31Z</time>
      </trkpt>
      <trkpt lat="40.9503320" lon="-3.3178450">
        <ele>818.0</ele>
        <time>2020-09-29T15:00:32Z</time>
      </trkpt>
      <trkpt lat="40.9502800" lon="-3.3177880">
        <ele>818.0</ele>
        <time>2020-09-29T15:00:33Z</time>
      </trkpt>
      <trkpt lat="40.9502550" lon="-3.3177550">
        <ele>818.0</ele>
        <time>2020-09-29T15:00:34Z</time>
      </trkpt>
      <trkpt lat="40.9502550" lon="-3.3177550">
        <ele>819.0</ele>
        <time>2020-09-29T15:00:35Z</time>
      </trkpt>
      <trkpt lat="40.9502180" lon="-3.3176970">
        <ele>819.0</ele>
        <time>2020-09-29T15:00:36Z</time>
      </trkpt>
      <trkpt lat="40.9502180" lon="-3.3176970">
        <ele>819.0</ele>
        <time>2020-09-29T15:00:37Z</time>
      </trkpt>
      <trkpt lat="40.9501780" lon="-3.3176480">
        <ele>819.0</ele>
        <time>2020-09-29T15:00:38Z</time>
      </trkpt>
      <trkpt lat="40.9501570" lon="-3.3176400">
        <ele>820.0</ele>
        <time>2020-09-29T15:00:39Z</time>
      </trkpt>
      <trkpt lat="40.9501570" lon="-3.3176400">
        <ele>820.0</ele>
        <time>2020-09-29T15:00:40Z</time>
      </trkpt>
      <trkpt lat="40.9501480" lon="-3.3176430">
        <ele>820.0</ele>
        <time>2020-09-29T15:00:41Z</time>
      </trkpt>
      <trkpt lat="40.9501480" lon="-3.3176430">
        <ele>820.0</ele>
        <time>2020-09-29T15:00:42Z</time>
      </trkpt>
      <trkpt lat="40.9501470" lon="-3.3176420">
        <ele>820.0</ele>
        <time>2020-09-29T15:00:43Z</time>
      </trkpt>
      <trkpt lat="40.9501470" lon="-3.3176420">
        <ele>820.0</ele>
        <time>2020-09-29T15:01:50Z</time>
      </trkpt>
      <trkpt lat="40.9501430" lon="-3.3176930">
        <ele>820.0</ele>
        <time>2020-09-29T15:01:51Z</time>
      </trkpt>
      <trkpt lat="40.9501430" lon="-3.3176930">
        <ele>820.0</ele>
        <time>2020-09-29T15:01:52Z</time>
      </trkpt>
      <trkpt lat="40.9501570" lon="-3.3177000">
        <ele>821.0</ele>
        <time>2020-09-29T15:01:55Z</time>
      </trkpt>
      <trkpt lat="40.9501880" lon="-3.3177280">
        <ele>821.0</ele>
        <time>2020-09-29T15:01:56Z</time>
      </trkpt>
      <trkpt lat="40.9502150" lon="-3.3177450">
        <ele>821.0</ele>
        <time>2020-09-29T15:01:57Z</time>
      </trkpt>
      <trkpt lat="40.9502550" lon="-3.3177750">
        <ele>821.0</ele>
        <time>2020-09-29T15:01:58Z</time>
      </trkpt>
      <trkpt lat="40.9502550" lon="-3.3177750">
        <ele>821.0</ele>
        <time>2020-09-29T15:01:59Z</time>
      </trkpt>
      <trkpt lat="40.9503170" lon="-3.3178320">
        <ele>821.0</ele>
        <time>2020-09-29T15:02:00Z</time>
      </trkpt>
      <trkpt lat="40.9503170" lon="-3.3178320">
        <ele>821.0</ele>
        <time>2020-09-29T15:02:01Z</time>
      </trkpt>
      <trkpt lat="40.9503820" lon="-3.3178780">
        <ele>821.0</ele>
        <time>2020-09-29T15:02:02Z</time>
      </trkpt>
      <trkpt lat="40.9503820" lon="-3.3178780">
        <ele>821.0</ele>
        <time>2020-09-29T15:02:03Z</time>
      </trkpt>
      <trkpt lat="40.9504530" lon="-3.3179200">
        <ele>821.0</ele>
        <time>2020-09-29T15:02:04Z</time>
      </trkpt>
      <trkpt lat="40.9504530" lon="-3.3179200">
        <ele>821.0</ele>
        <time>2020-09-29T15:02:05Z</time>
      </trkpt>
      <trkpt lat="40.9505470" lon="-3.3179720">
        <ele>820.0</ele>
        <time>2020-09-29T15:02:06Z</time>
      </trkpt>
      <trkpt lat="40.9505950" lon="-3.3180070">
        <ele>820.0</ele>
        <time>2020-09-29T15:02:07Z</time>
      </trkpt>
      <trkpt lat="40.9505950" lon="-3.3180070">
        <ele>819.0</ele>
        <time>2020-09-29T15:02:08Z</time>
      </trkpt>
      <trkpt lat="40.9506870" lon="-3.3180800">
        <ele>819.0</ele>
        <time>2020-09-29T15:02:09Z</time>
      </trkpt>
      <trkpt lat="40.9506870" lon="-3.3180800">
        <ele>818.0</ele>
        <time>2020-09-29T15:02:10Z</time>
      </trkpt>
      <trkpt lat="40.9507530" lon="-3.3181570">
        <ele>818.0</ele>
        <time>2020-09-29T15:02:11Z</time>
      </trkpt>
      <trkpt lat="40.9507530" lon="-3.3181570">
        <ele>817.0</ele>
        <time>2020-09-29T15:02:12Z</time>
      </trkpt>
      <trkpt lat="40.9507720" lon="-3.3182130">
        <ele>817.0</ele>
        <time>2020-09-29T15:02:13Z</time>
      </trkpt>
      <trkpt lat="40.9507720" lon="-3.3182130">
        <ele>817.0</ele>
        <time>2020-09-29T15:02:14Z</time>
      </trkpt>
      <trkpt lat="40.9507600" lon="-3.3182570">
        <ele>817.0</ele>
        <time>2020-09-29T15:02:15Z</time>
      </trkpt>
      <trkpt lat="40.9507600" lon="-3.3182570">
        <ele>817.0</ele>
        <time>2020-09-29T15:02:16Z</time>
      </trkpt>
      <trkpt lat="40.9507350" lon="-3.3183150">
        <ele>817.0</ele>
        <time>2020-09-29T15:02:17Z</time>
      </trkpt>
      <trkpt lat="40.9507200" lon="-3.3183480">
        <ele>817.0</ele>
        <time>2020-09-29T15:02:18Z</time>
      </trkpt>
      <trkpt lat="40.9507200" lon="-3.3183480">
        <ele>817.0</ele>
        <time>2020-09-29T15:02:19Z</time>
      </trkpt>
      <trkpt lat="40.9506700" lon="-3.3184180">
        <ele>817.0</ele>
        <time>2020-09-29T15:02:20Z</time>
      </trkpt>
      <trkpt lat="40.9506700" lon="-3.3184180">
        <ele>817.0</ele>
        <time>2020-09-29T15:02:21Z</time>
      </trkpt>
      <trkpt lat="40.9506170" lon="-3.3184780">
        <ele>817.0</ele>
        <time>2020-09-29T15:02:22Z</time>
      </trkpt>
      <trkpt lat="40.9506170" lon="-3.3184780">
        <ele>817.0</ele>
        <time>2020-09-29T15:02:23Z</time>
      </trkpt>
      <trkpt lat="40.9505670" lon="-3.3185180">
        <ele>817.0</ele>
        <time>2020-09-29T15:02:24Z</time>
      </trkpt>
      <trkpt lat="40.9505670" lon="-3.3185180">
        <ele>817.0</ele>
        <time>2020-09-29T15:02:25Z</time>
      </trkpt>
      <trkpt lat="40.9505250" lon="-3.3185530">
        <ele>817.0</ele>
        <time>2020-09-29T15:02:26Z</time>
      </trkpt>
      <trkpt lat="40.9505250" lon="-3.3185530">
        <ele>817.0</ele>
        <time>2020-09-29T15:02:27Z</time>
      </trkpt>
      <trkpt lat="40.9504880" lon="-3.3186070">
        <ele>817.0</ele>
        <time>2020-09-29T15:02:28Z</time>
      </trkpt>
      <trkpt lat="40.9504880" lon="-3.3186070">
        <ele>817.0</ele>
        <time>2020-09-29T15:02:29Z</time>
      </trkpt>
      <trkpt lat="40.9504420" lon="-3.3186550">
        <ele>817.0</ele>
        <time>2020-09-29T15:02:30Z</time>
      </trkpt>
      <trkpt lat="40.9504170" lon="-3.3186730">
        <ele>817.0</ele>
        <time>2020-09-29T15:02:31Z</time>
      </trkpt>
      <trkpt lat="40.9504170" lon="-3.3186730">
        <ele>817.0</ele>
        <time>2020-09-29T15:02:32Z</time>
      </trkpt>
      <trkpt lat="40.9503700" lon="-3.3187220">
        <ele>817.0</ele>
        <time>2020-09-29T15:02:33Z</time>
      </trkpt>
      <trkpt lat="40.9503450" lon="-3.3187500">
        <ele>817.0</ele>
        <time>2020-09-29T15:02:34Z</time>
      </trkpt>
      <trkpt lat="40.9503450" lon="-3.3187500">
        <ele>818.0</ele>
        <time>2020-09-29T15:02:35Z</time>
      </trkpt>
      <trkpt lat="40.9502930" lon="-3.3188020">
        <ele>818.0</ele>
        <time>2020-09-29T15:02:36Z</time>
      </trkpt>
      <trkpt lat="40.9502670" lon="-3.3188270">
        <ele>818.0</ele>
        <time>2020-09-29T15:02:37Z</time>
      </trkpt>
      <trkpt lat="40.9502670" lon="-3.3188270">
        <ele>819.0</ele>
        <time>2020-09-29T15:02:38Z</time>
      </trkpt>
      <trkpt lat="40.9502150" lon="-3.3188670">
        <ele>819.0</ele>
        <time>2020-09-29T15:02:39Z</time>
      </trkpt>
      <trkpt lat="40.9502150" lon="-3.3188670">
        <ele>819.0</ele>
        <time>2020-09-29T15:02:40Z</time>
      </trkpt>
      <trkpt lat="40.9501630" lon="-3.3189070">
        <ele>819.0</ele>
        <time>2020-09-29T15:02:41Z</time>
      </trkpt>
      <trkpt lat="40.9501350" lon="-3.3189180">
        <ele>821.0</ele>
        <time>2020-09-29T15:02:42Z</time>
      </trkpt>
      <trkpt lat="40.9501350" lon="-3.3189180">
        <ele>821.0</ele>
        <time>2020-09-29T15:02:43Z</time>
      </trkpt>
      <trkpt lat="40.9500770" lon="-3.3189370">
        <ele>821.0</ele>
        <time>2020-09-29T15:02:44Z</time>
      </trkpt>
      <trkpt lat="40.9500770" lon="-3.3189370">
        <ele>821.0</ele>
        <time>2020-09-29T15:02:45Z</time>
      </trkpt>
      <trkpt lat="40.9500270" lon="-3.3189580">
        <ele>822.0</ele>
        <time>2020-09-29T15:02:46Z</time>
      </trkpt>
      <trkpt lat="40.9500000" lon="-3.3189650">
        <ele>822.0</ele>
        <time>2020-09-29T15:02:47Z</time>
      </trkpt>
      <trkpt lat="40.9500000" lon="-3.3189650">
        <ele>822.0</ele>
        <time>2020-09-29T15:02:48Z</time>
      </trkpt>
      <trkpt lat="40.9499450" lon="-3.3189780">
        <ele>822.0</ele>
        <time>2020-09-29T15:02:49Z</time>
      </trkpt>
      <trkpt lat="40.9499180" lon="-3.3189830">
        <ele>823.0</ele>
        <time>2020-09-29T15:02:50Z</time>
      </trkpt>
      <trkpt lat="40.9499180" lon="-3.3189830">
        <ele>823.0</ele>
        <time>2020-09-29T15:02:51Z</time>
      </trkpt>
      <trkpt lat="40.9498570" lon="-3.3189980">
        <ele>823.0</ele>
        <time>2020-09-29T15:02:52Z</time>
      </trkpt>
      <trkpt lat="40.9498570" lon="-3.3189980">
        <ele>823.0</ele>
        <time>2020-09-29T15:02:53Z</time>
      </trkpt>
      <trkpt lat="40.9497930" lon="-3.3190180">
        <ele>823.0</ele>
        <time>2020-09-29T15:02:54Z</time>
      </trkpt>
      <trkpt lat="40.9497620" lon="-3.3190300">
        <ele>823.0</ele>
        <time>2020-09-29T15:02:55Z</time>
      </trkpt>
      <trkpt lat="40.9497620" lon="-3.3190300">
        <ele>824.0</ele>
        <time>2020-09-29T15:02:56Z</time>
      </trkpt>
      <trkpt lat="40.9497050" lon="-3.3190550">
        <ele>824.0</ele>
        <time>2020-09-29T15:02:57Z</time>
      </trkpt>
      <trkpt lat="40.9496820" lon="-3.3190630">
        <ele>824.0</ele>
        <time>2020-09-29T15:02:58Z</time>
      </trkpt>
      <trkpt lat="40.9496820" lon="-3.3190630">
        <ele>824.0</ele>
        <time>2020-09-29T15:02:59Z</time>
      </trkpt>
      <trkpt lat="40.9496330" lon="-3.3190770">
        <ele>825.0</ele>
        <time>2020-09-29T15:03:00Z</time>
      </trkpt>
      <trkpt lat="40.9496330" lon="-3.3190770">
        <ele>825.0</ele>
        <time>2020-09-29T15:03:01Z</time>
      </trkpt>
      <trkpt lat="40.9495930" lon="-3.3190880">
        <ele>825.0</ele>
        <time>2020-09-29T15:03:02Z</time>
      </trkpt>
      <trkpt lat="40.9495930" lon="-3.3190880">
        <ele>825.0</ele>
        <time>2020-09-29T15:03:03Z</time>
      </trkpt>
      <trkpt lat="40.9495350" lon="-3.3191120">
        <ele>826.0</ele>
        <time>2020-09-29T15:03:04Z</time>
      </trkpt>
      <trkpt lat="40.9495350" lon="-3.3191120">
        <ele>826.0</ele>
        <time>2020-09-29T15:03:05Z</time>
      </trkpt>
      <trkpt lat="40.9494800" lon="-3.3191270">
        <ele>826.0</ele>
        <time>2020-09-29T15:03:06Z</time>
      </trkpt>
      <trkpt lat="40.9494800" lon="-3.3191270">
        <ele>826.0</ele>
        <time>2020-09-29T15:03:07Z</time>
      </trkpt>
      <trkpt lat="40.9494230" lon="-3.3191330">
        <ele>826.0</ele>
        <time>2020-09-29T15:03:08Z</time>
      </trkpt>
      <trkpt lat="40.9494230" lon="-3.3191330">
        <ele>826.0</ele>
        <time>2020-09-29T15:03:09Z</time>
      </trkpt>
      <trkpt lat="40.9493770" lon="-3.3191400">
        <ele>826.0</ele>
        <time>2020-09-29T15:03:10Z</time>
      </trkpt>
      <trkpt lat="40.9493770" lon="-3.3191400">
        <ele>826.0</ele>
        <time>2020-09-29T15:03:11Z</time>
      </trkpt>
      <trkpt lat="40.9493300" lon="-3.3191480">
        <ele>826.0</ele>
        <time>2020-09-29T15:03:12Z</time>
      </trkpt>
      <trkpt lat="40.9493300" lon="-3.3191480">
        <ele>827.0</ele>
        <time>2020-09-29T15:03:13Z</time>
      </trkpt>
      <trkpt lat="40.9492780" lon="-3.3191520">
        <ele>827.0</ele>
        <time>2020-09-29T15:03:14Z</time>
      </trkpt>
      <trkpt lat="40.9492780" lon="-3.3191520">
        <ele>827.0</ele>
        <time>2020-09-29T15:03:15Z</time>
      </trkpt>
      <trkpt lat="40.9492270" lon="-3.3191500">
        <ele>827.0</ele>
        <time>2020-09-29T15:03:16Z</time>
      </trkpt>
      <trkpt lat="40.9492270" lon="-3.3191500">
        <ele>828.0</ele>
        <time>2020-09-29T15:03:17Z</time>
      </trkpt>
      <trkpt lat="40.9491820" lon="-3.3191480">
        <ele>828.0</ele>
        <time>2020-09-29T15:03:18Z</time>
      </trkpt>
      <trkpt lat="40.9491580" lon="-3.3191450">
        <ele>828.0</ele>
        <time>2020-09-29T15:03:19Z</time>
      </trkpt>
      <trkpt lat="40.9491580" lon="-3.3191450">
        <ele>828.0</ele>
        <time>2020-09-29T15:03:20Z</time>
      </trkpt>
      <trkpt lat="40.9491150" lon="-3.3191380">
        <ele>828.0</ele>
        <time>2020-09-29T15:03:21Z</time>
      </trkpt>
      <trkpt lat="40.9491150" lon="-3.3191380">
        <ele>828.0</ele>
        <time>2020-09-29T15:03:22Z</time>
      </trkpt>
      <trkpt lat="40.9490600" lon="-3.3191300">
        <ele>828.0</ele>
        <time>2020-09-29T15:03:23Z</time>
      </trkpt>
      <trkpt lat="40.9490600" lon="-3.3191300">
        <ele>828.0</ele>
        <time>2020-09-29T15:03:24Z</time>
      </trkpt>
      <trkpt lat="40.9490080" lon="-3.3191180">
        <ele>828.0</ele>
        <time>2020-09-29T15:03:25Z</time>
      </trkpt>
      <trkpt lat="40.9489850" lon="-3.3191180">
        <ele>829.0</ele>
        <time>2020-09-29T15:03:26Z</time>
      </trkpt>
      <trkpt lat="40.9489850" lon="-3.3191180">
        <ele>829.0</ele>
        <time>2020-09-29T15:03:27Z</time>
      </trkpt>
      <trkpt lat="40.9489380" lon="-3.3191200">
        <ele>829.0</ele>
        <time>2020-09-29T15:03:28Z</time>
      </trkpt>
      <trkpt lat="40.9489130" lon="-3.3191250">
        <ele>829.0</ele>
        <time>2020-09-29T15:03:29Z</time>
      </trkpt>
      <trkpt lat="40.9489130" lon="-3.3191250">
        <ele>830.0</ele>
        <time>2020-09-29T15:03:30Z</time>
      </trkpt>
      <trkpt lat="40.9488700" lon="-3.3191370">
        <ele>830.0</ele>
        <time>2020-09-29T15:03:31Z</time>
      </trkpt>
      <trkpt lat="40.9488470" lon="-3.3191400">
        <ele>830.0</ele>
        <time>2020-09-29T15:03:32Z</time>
      </trkpt>
      <trkpt lat="40.9488470" lon="-3.3191400">
        <ele>830.0</ele>
        <time>2020-09-29T15:03:33Z</time>
      </trkpt>
      <trkpt lat="40.9488000" lon="-3.3191380">
        <ele>831.0</ele>
        <time>2020-09-29T15:03:34Z</time>
      </trkpt>
      <trkpt lat="40.9487770" lon="-3.3191400">
        <ele>831.0</ele>
        <time>2020-09-29T15:03:35Z</time>
      </trkpt>
      <trkpt lat="40.9487770" lon="-3.3191400">
        <ele>831.0</ele>
        <time>2020-09-29T15:03:36Z</time>
      </trkpt>
      <trkpt lat="40.9487320" lon="-3.3191520">
        <ele>831.0</ele>
        <time>2020-09-29T15:03:37Z</time>
      </trkpt>
      <trkpt lat="40.9487080" lon="-3.3191500">
        <ele>832.0</ele>
        <time>2020-09-29T15:03:38Z</time>
      </trkpt>
      <trkpt lat="40.9487080" lon="-3.3191500">
        <ele>832.0</ele>
        <time>2020-09-29T15:03:39Z</time>
      </trkpt>
      <trkpt lat="40.9486600" lon="-3.3191480">
        <ele>832.0</ele>
        <time>2020-09-29T15:03:40Z</time>
      </trkpt>
      <trkpt lat="40.9486600" lon="-3.3191480">
        <ele>832.0</ele>
        <time>2020-09-29T15:03:41Z</time>
      </trkpt>
      <trkpt lat="40.9486150" lon="-3.3191500">
        <ele>833.0</ele>
        <time>2020-09-29T15:03:42Z</time>
      </trkpt>
      <trkpt lat="40.9485900" lon="-3.3191500">
        <ele>833.0</ele>
        <time>2020-09-29T15:03:43Z</time>
      </trkpt>
      <trkpt lat="40.9485630" lon="-3.3191480">
        <ele>833.0</ele>
        <time>2020-09-29T15:03:44Z</time>
      </trkpt>
      <trkpt lat="40.9485630" lon="-3.3191480">
        <ele>833.0</ele>
        <time>2020-09-29T15:03:45Z</time>
      </trkpt>
      <trkpt lat="40.9485120" lon="-3.3191470">
        <ele>834.0</ele>
        <time>2020-09-29T15:03:46Z</time>
      </trkpt>
      <trkpt lat="40.9485120" lon="-3.3191470">
        <ele>835.0</ele>
        <time>2020-09-29T15:03:47Z</time>
      </trkpt>
      <trkpt lat="40.9484700" lon="-3.3191500">
        <ele>835.0</ele>
        <time>2020-09-29T15:03:48Z</time>
      </trkpt>
      <trkpt lat="40.9484470" lon="-3.3191500">
        <ele>835.0</ele>
        <time>2020-09-29T15:03:49Z</time>
      </trkpt>
      <trkpt lat="40.9484470" lon="-3.3191500">
        <ele>835.0</ele>
        <time>2020-09-29T15:03:50Z</time>
      </trkpt>
      <trkpt lat="40.9483980" lon="-3.3191470">
        <ele>836.0</ele>
        <time>2020-09-29T15:03:51Z</time>
      </trkpt>
      <trkpt lat="40.9483980" lon="-3.3191470">
        <ele>836.0</ele>
        <time>2020-09-29T15:03:52Z</time>
      </trkpt>
      <trkpt lat="40.9483550" lon="-3.3191470">
        <ele>836.0</ele>
        <time>2020-09-29T15:03:53Z</time>
      </trkpt>
      <trkpt lat="40.9483320" lon="-3.3191550">
        <ele>836.0</ele>
        <time>2020-09-29T15:03:54Z</time>
      </trkpt>
      <trkpt lat="40.9483320" lon="-3.3191550">
        <ele>837.0</ele>
        <time>2020-09-29T15:03:55Z</time>
      </trkpt>
      <trkpt lat="40.9482870" lon="-3.3191720">
        <ele>837.0</ele>
        <time>2020-09-29T15:03:56Z</time>
      </trkpt>
      <trkpt lat="40.9482870" lon="-3.3191720">
        <ele>837.0</ele>
        <time>2020-09-29T15:03:57Z</time>
      </trkpt>
      <trkpt lat="40.9482370" lon="-3.3191800">
        <ele>837.0</ele>
        <time>2020-09-29T15:03:58Z</time>
      </trkpt>
      <trkpt lat="40.9482370" lon="-3.3191800">
        <ele>838.0</ele>
        <time>2020-09-29T15:03:59Z</time>
      </trkpt>
      <trkpt lat="40.9481880" lon="-3.3191880">
        <ele>838.0</ele>
        <time>2020-09-29T15:04:00Z</time>
      </trkpt>
      <trkpt lat="40.9481880" lon="-3.3191880">
        <ele>838.0</ele>
        <time>2020-09-29T15:04:01Z</time>
      </trkpt>
      <trkpt lat="40.9481600" lon="-3.3192100">
        <ele>838.0</ele>
        <time>2020-09-29T15:04:02Z</time>
      </trkpt>
      <trkpt lat="40.9481600" lon="-3.3192100">
        <ele>838.0</ele>
        <time>2020-09-29T15:04:03Z</time>
      </trkpt>
      <trkpt lat="40.9481170" lon="-3.3192200">
        <ele>838.0</ele>
        <time>2020-09-29T15:04:04Z</time>
      </trkpt>
      <trkpt lat="40.9481170" lon="-3.3192200">
        <ele>839.0</ele>
        <time>2020-09-29T15:04:05Z</time>
      </trkpt>
      <trkpt lat="40.9480720" lon="-3.3192330">
        <ele>839.0</ele>
        <time>2020-09-29T15:04:06Z</time>
      </trkpt>
      <trkpt lat="40.9480720" lon="-3.3192330">
        <ele>839.0</ele>
        <time>2020-09-29T15:04:07Z</time>
      </trkpt>
      <trkpt lat="40.9480230" lon="-3.3192520">
        <ele>839.0</ele>
        <time>2020-09-29T15:04:08Z</time>
      </trkpt>
      <trkpt lat="40.9480230" lon="-3.3192520">
        <ele>840.0</ele>
        <time>2020-09-29T15:04:09Z</time>
      </trkpt>
      <trkpt lat="40.9479820" lon="-3.3192870">
        <ele>840.0</ele>
        <time>2020-09-29T15:04:10Z</time>
      </trkpt>
      <trkpt lat="40.9479820" lon="-3.3192870">
        <ele>840.0</ele>
        <time>2020-09-29T15:04:11Z</time>
      </trkpt>
      <trkpt lat="40.9479620" lon="-3.3193370">
        <ele>840.0</ele>
        <time>2020-09-29T15:04:12Z</time>
      </trkpt>
      <trkpt lat="40.9479620" lon="-3.3193370">
        <ele>841.0</ele>
        <time>2020-09-29T15:04:13Z</time>
      </trkpt>
      <trkpt lat="40.9479700" lon="-3.3193880">
        <ele>841.0</ele>
        <time>2020-09-29T15:04:14Z</time>
      </trkpt>
      <trkpt lat="40.9479830" lon="-3.3194080">
        <ele>841.0</ele>
        <time>2020-09-29T15:04:15Z</time>
      </trkpt>
      <trkpt lat="40.9479830" lon="-3.3194080">
        <ele>841.0</ele>
        <time>2020-09-29T15:04:16Z</time>
      </trkpt>
      <trkpt lat="40.9480180" lon="-3.3194470">
        <ele>842.0</ele>
        <time>2020-09-29T15:04:17Z</time>
      </trkpt>
      <trkpt lat="40.9480180" lon="-3.3194470">
        <ele>842.0</ele>
        <time>2020-09-29T15:04:18Z</time>
      </trkpt>
      <trkpt lat="40.9480650" lon="-3.3194630">
        <ele>842.0</ele>
        <time>2020-09-29T15:04:19Z</time>
      </trkpt>
      <trkpt lat="40.9480650" lon="-3.3194630">
        <ele>842.0</ele>
        <time>2020-09-29T15:04:20Z</time>
      </trkpt>
      <trkpt lat="40.9481100" lon="-3.3194600">
        <ele>842.0</ele>
        <time>2020-09-29T15:04:21Z</time>
      </trkpt>
      <trkpt lat="40.9481100" lon="-3.3194600">
        <ele>843.0</ele>
        <time>2020-09-29T15:04:22Z</time>
      </trkpt>
      <trkpt lat="40.9481600" lon="-3.3194520">
        <ele>843.0</ele>
        <time>2020-09-29T15:04:23Z</time>
      </trkpt>
      <trkpt lat="40.9481600" lon="-3.3194520">
        <ele>843.0</ele>
        <time>2020-09-29T15:04:24Z</time>
      </trkpt>
      <trkpt lat="40.9482080" lon="-3.3194380">
        <ele>843.0</ele>
        <time>2020-09-29T15:04:25Z</time>
      </trkpt>
      <trkpt lat="40.9482330" lon="-3.3194350">
        <ele>844.0</ele>
        <time>2020-09-29T15:04:26Z</time>
      </trkpt>
      <trkpt lat="40.9482330" lon="-3.3194350">
        <ele>844.0</ele>
        <time>2020-09-29T15:04:27Z</time>
      </trkpt>
      <trkpt lat="40.9482820" lon="-3.3194200">
        <ele>844.0</ele>
        <time>2020-09-29T15:04:28Z</time>
      </trkpt>
      <trkpt lat="40.9482820" lon="-3.3194200">
        <ele>844.0</ele>
        <time>2020-09-29T15:04:29Z</time>
      </trkpt>
      <trkpt lat="40.9483280" lon="-3.3194100">
        <ele>844.0</ele>
        <time>2020-09-29T15:04:30Z</time>
      </trkpt>
      <trkpt lat="40.9483280" lon="-3.3194100">
        <ele>844.0</ele>
        <time>2020-09-29T15:04:31Z</time>
      </trkpt>
      <trkpt lat="40.9483830" lon="-3.3194170">
        <ele>844.0</ele>
        <time>2020-09-29T15:04:32Z</time>
      </trkpt>
      <trkpt lat="40.9483830" lon="-3.3194170">
        <ele>844.0</ele>
        <time>2020-09-29T15:04:33Z</time>
      </trkpt>
      <trkpt lat="40.9484430" lon="-3.3194380">
        <ele>844.0</ele>
        <time>2020-09-29T15:04:34Z</time>
      </trkpt>
      <trkpt lat="40.9484430" lon="-3.3194380">
        <ele>844.0</ele>
        <time>2020-09-29T15:04:35Z</time>
      </trkpt>
      <trkpt lat="40.9485000" lon="-3.3194470">
        <ele>844.0</ele>
        <time>2020-09-29T15:04:36Z</time>
      </trkpt>
      <trkpt lat="40.9485000" lon="-3.3194470">
        <ele>844.0</ele>
        <time>2020-09-29T15:04:37Z</time>
      </trkpt>
      <trkpt lat="40.9485470" lon="-3.3194450">
        <ele>845.0</ele>
        <time>2020-09-29T15:04:38Z</time>
      </trkpt>
      <trkpt lat="40.9485470" lon="-3.3194450">
        <ele>845.0</ele>
        <time>2020-09-29T15:04:39Z</time>
      </trkpt>
      <trkpt lat="40.9486030" lon="-3.3194620">
        <ele>845.0</ele>
        <time>2020-09-29T15:04:40Z</time>
      </trkpt>
      <trkpt lat="40.9486030" lon="-3.3194620">
        <ele>845.0</ele>
        <time>2020-09-29T15:04:41Z</time>
      </trkpt>
      <trkpt lat="40.9486530" lon="-3.3194750">
        <ele>845.0</ele>
        <time>2020-09-29T15:04:42Z</time>
      </trkpt>
      <trkpt lat="40.9486530" lon="-3.3194750">
        <ele>845.0</ele>
        <time>2020-09-29T15:04:43Z</time>
      </trkpt>
      <trkpt lat="40.9487070" lon="-3.3194900">
        <ele>846.0</ele>
        <time>2020-09-29T15:04:44Z</time>
      </trkpt>
      <trkpt lat="40.9487070" lon="-3.3194900">
        <ele>846.0</ele>
        <time>2020-09-29T15:04:45Z</time>
      </trkpt>
      <trkpt lat="40.9487650" lon="-3.3195030">
        <ele>846.0</ele>
        <time>2020-09-29T15:04:46Z</time>
      </trkpt>
      <trkpt lat="40.9487650" lon="-3.3195030">
        <ele>846.0</ele>
        <time>2020-09-29T15:04:47Z</time>
      </trkpt>
      <trkpt lat="40.9488180" lon="-3.3195230">
        <ele>847.0</ele>
        <time>2020-09-29T15:04:48Z</time>
      </trkpt>
      <trkpt lat="40.9488180" lon="-3.3195230">
        <ele>847.0</ele>
        <time>2020-09-29T15:04:49Z</time>
      </trkpt>
      <trkpt lat="40.9488700" lon="-3.3195480">
        <ele>847.0</ele>
        <time>2020-09-29T15:04:50Z</time>
      </trkpt>
      <trkpt lat="40.9488700" lon="-3.3195480">
        <ele>847.0</ele>
        <time>2020-09-29T15:04:51Z</time>
      </trkpt>
      <trkpt lat="40.9489250" lon="-3.3195680">
        <ele>848.0</ele>
        <time>2020-09-29T15:04:52Z</time>
      </trkpt>
      <trkpt lat="40.9489250" lon="-3.3195680">
        <ele>848.0</ele>
        <time>2020-09-29T15:04:53Z</time>
      </trkpt>
      <trkpt lat="40.9489680" lon="-3.3195970">
        <ele>848.0</ele>
        <time>2020-09-29T15:04:54Z</time>
      </trkpt>
      <trkpt lat="40.9489880" lon="-3.3196100">
        <ele>848.0</ele>
        <time>2020-09-29T15:04:55Z</time>
      </trkpt>
      <trkpt lat="40.9489880" lon="-3.3196100">
        <ele>849.0</ele>
        <time>2020-09-29T15:04:56Z</time>
      </trkpt>
      <trkpt lat="40.9490300" lon="-3.3196350">
        <ele>849.0</ele>
        <time>2020-09-29T15:04:57Z</time>
      </trkpt>
      <trkpt lat="40.9490300" lon="-3.3196350">
        <ele>850.0</ele>
        <time>2020-09-29T15:04:58Z</time>
      </trkpt>
      <trkpt lat="40.9490800" lon="-3.3196570">
        <ele>850.0</ele>
        <time>2020-09-29T15:04:59Z</time>
      </trkpt>
      <trkpt lat="40.9490800" lon="-3.3196570">
        <ele>850.0</ele>
        <time>2020-09-29T15:05:00Z</time>
      </trkpt>
      <trkpt lat="40.9491220" lon="-3.3196730">
        <ele>851.0</ele>
        <time>2020-09-29T15:05:01Z</time>
      </trkpt>
      <trkpt lat="40.9491480" lon="-3.3196780">
        <ele>851.0</ele>
        <time>2020-09-29T15:05:02Z</time>
      </trkpt>
      <trkpt lat="40.9491480" lon="-3.3196780">
        <ele>852.0</ele>
        <time>2020-09-29T15:05:03Z</time>
      </trkpt>
      <trkpt lat="40.9492050" lon="-3.3197000">
        <ele>852.0</ele>
        <time>2020-09-29T15:05:04Z</time>
      </trkpt>
      <trkpt lat="40.9492050" lon="-3.3197000">
        <ele>852.0</ele>
        <time>2020-09-29T15:05:05Z</time>
      </trkpt>
      <trkpt lat="40.9492630" lon="-3.3197080">
        <ele>852.0</ele>
        <time>2020-09-29T15:05:06Z</time>
      </trkpt>
      <trkpt lat="40.9492920" lon="-3.3197030">
        <ele>853.0</ele>
        <time>2020-09-29T15:05:07Z</time>
      </trkpt>
      <trkpt lat="40.9492920" lon="-3.3197030">
        <ele>853.0</ele>
        <time>2020-09-29T15:05:08Z</time>
      </trkpt>
      <trkpt lat="40.9493400" lon="-3.3196920">
        <ele>854.0</ele>
        <time>2020-09-29T15:05:09Z</time>
      </trkpt>
      <trkpt lat="40.9493630" lon="-3.3196870">
        <ele>854.0</ele>
        <time>2020-09-29T15:05:10Z</time>
      </trkpt>
      <trkpt lat="40.9493630" lon="-3.3196870">
        <ele>854.0</ele>
        <time>2020-09-29T15:05:11Z</time>
      </trkpt>
      <trkpt lat="40.9494150" lon="-3.3196750">
        <ele>854.0</ele>
        <time>2020-09-29T15:05:12Z</time>
      </trkpt>
      <trkpt lat="40.9494150" lon="-3.3196750">
        <ele>855.0</ele>
        <time>2020-09-29T15:05:13Z</time>
      </trkpt>
      <trkpt lat="40.9494620" lon="-3.3196720">
        <ele>855.0</ele>
        <time>2020-09-29T15:05:14Z</time>
      </trkpt>
      <trkpt lat="40.9494620" lon="-3.3196720">
        <ele>855.0</ele>
        <time>2020-09-29T15:05:15Z</time>
      </trkpt>
      <trkpt lat="40.9494980" lon="-3.3196630">
        <ele>855.0</ele>
        <time>2020-09-29T15:05:16Z</time>
      </trkpt>
      <trkpt lat="40.9494980" lon="-3.3196630">
        <ele>857.0</ele>
        <time>2020-09-29T15:05:17Z</time>
      </trkpt>
      <trkpt lat="40.9495400" lon="-3.3196920">
        <ele>857.0</ele>
        <time>2020-09-29T15:05:18Z</time>
      </trkpt>
      <trkpt lat="40.9495630" lon="-3.3197100">
        <ele>857.0</ele>
        <time>2020-09-29T15:05:19Z</time>
      </trkpt>
      <trkpt lat="40.9495630" lon="-3.3197100">
        <ele>857.0</ele>
        <time>2020-09-29T15:05:20Z</time>
      </trkpt>
      <trkpt lat="40.9496100" lon="-3.3197550">
        <ele>857.0</ele>
        <time>2020-09-29T15:05:21Z</time>
      </trkpt>
      <trkpt lat="40.9496100" lon="-3.3197550">
        <ele>857.0</ele>
        <time>2020-09-29T15:05:22Z</time>
      </trkpt>
      <trkpt lat="40.9496450" lon="-3.3198180">
        <ele>857.0</ele>
        <time>2020-09-29T15:05:23Z</time>
      </trkpt>
      <trkpt lat="40.9496450" lon="-3.3198180">
        <ele>857.0</ele>
        <time>2020-09-29T15:05:24Z</time>
      </trkpt>
      <trkpt lat="40.9496680" lon="-3.3198880">
        <ele>857.0</ele>
        <time>2020-09-29T15:05:25Z</time>
      </trkpt>
      <trkpt lat="40.9496750" lon="-3.3199220">
        <ele>857.0</ele>
        <time>2020-09-29T15:05:26Z</time>
      </trkpt>
      <trkpt lat="40.9496880" lon="-3.3199880">
        <ele>857.0</ele>
        <time>2020-09-29T15:05:27Z</time>
      </trkpt>
      <trkpt lat="40.9496880" lon="-3.3199880">
        <ele>857.0</ele>
        <time>2020-09-29T15:05:28Z</time>
      </trkpt>
      <trkpt lat="40.9496980" lon="-3.3200200">
        <ele>857.0</ele>
        <time>2020-09-29T15:05:29Z</time>
      </trkpt>
      <trkpt lat="40.9496980" lon="-3.3200200">
        <ele>857.0</ele>
        <time>2020-09-29T15:05:30Z</time>
      </trkpt>
      <trkpt lat="40.9497130" lon="-3.3200830">
        <ele>858.0</ele>
        <time>2020-09-29T15:05:31Z</time>
      </trkpt>
      <trkpt lat="40.9497200" lon="-3.3201150">
        <ele>858.0</ele>
        <time>2020-09-29T15:05:32Z</time>
      </trkpt>
      <trkpt lat="40.9497200" lon="-3.3201150">
        <ele>858.0</ele>
        <time>2020-09-29T15:05:33Z</time>
      </trkpt>
      <trkpt lat="40.9497370" lon="-3.3201780">
        <ele>858.0</ele>
        <time>2020-09-29T15:05:34Z</time>
      </trkpt>
      <trkpt lat="40.9497450" lon="-3.3202100">
        <ele>858.0</ele>
        <time>2020-09-29T15:05:35Z</time>
      </trkpt>
      <trkpt lat="40.9497450" lon="-3.3202100">
        <ele>859.0</ele>
        <time>2020-09-29T15:05:36Z</time>
      </trkpt>
      <trkpt lat="40.9497580" lon="-3.3202630">
        <ele>859.0</ele>
        <time>2020-09-29T15:05:37Z</time>
      </trkpt>
      <trkpt lat="40.9497580" lon="-3.3202630">
        <ele>859.0</ele>
        <time>2020-09-29T15:05:38Z</time>
      </trkpt>
      <trkpt lat="40.9497730" lon="-3.3203150">
        <ele>859.0</ele>
        <time>2020-09-29T15:05:39Z</time>
      </trkpt>
      <trkpt lat="40.9497800" lon="-3.3203430">
        <ele>859.0</ele>
        <time>2020-09-29T15:05:40Z</time>
      </trkpt>
      <trkpt lat="40.9497800" lon="-3.3203430">
        <ele>860.0</ele>
        <time>2020-09-29T15:05:41Z</time>
      </trkpt>
      <trkpt lat="40.9497920" lon="-3.3204050">
        <ele>860.0</ele>
        <time>2020-09-29T15:05:42Z</time>
      </trkpt>
      <trkpt lat="40.9497980" lon="-3.3204370">
        <ele>860.0</ele>
        <time>2020-09-29T15:05:43Z</time>
      </trkpt>
      <trkpt lat="40.9498050" lon="-3.3204680">
        <ele>860.0</ele>
        <time>2020-09-29T15:05:44Z</time>
      </trkpt>
      <trkpt lat="40.9498050" lon="-3.3204680">
        <ele>861.0</ele>
        <time>2020-09-29T15:05:45Z</time>
      </trkpt>
      <trkpt lat="40.9498220" lon="-3.3205350">
        <ele>861.0</ele>
        <time>2020-09-29T15:05:46Z</time>
      </trkpt>
      <trkpt lat="40.9498220" lon="-3.3205350">
        <ele>861.0</ele>
        <time>2020-09-29T15:05:47Z</time>
      </trkpt>
      <trkpt lat="40.9498350" lon="-3.3206020">
        <ele>861.0</ele>
        <time>2020-09-29T15:05:48Z</time>
      </trkpt>
      <trkpt lat="40.9498350" lon="-3.3206020">
        <ele>862.0</ele>
        <time>2020-09-29T15:05:49Z</time>
      </trkpt>
      <trkpt lat="40.9498450" lon="-3.3206720">
        <ele>862.0</ele>
        <time>2020-09-29T15:05:50Z</time>
      </trkpt>
      <trkpt lat="40.9498450" lon="-3.3206720">
        <ele>862.0</ele>
        <time>2020-09-29T15:05:51Z</time>
      </trkpt>
      <trkpt lat="40.9498570" lon="-3.3207370">
        <ele>862.0</ele>
        <time>2020-09-29T15:05:52Z</time>
      </trkpt>
      <trkpt lat="40.9498570" lon="-3.3207370">
        <ele>863.0</ele>
        <time>2020-09-29T15:05:53Z</time>
      </trkpt>
      <trkpt lat="40.9498680" lon="-3.3208000">
        <ele>863.0</ele>
        <time>2020-09-29T15:05:54Z</time>
      </trkpt>
      <trkpt lat="40.9498680" lon="-3.3208000">
        <ele>863.0</ele>
        <time>2020-09-29T15:05:55Z</time>
      </trkpt>
      <trkpt lat="40.9498780" lon="-3.3208630">
        <ele>863.0</ele>
        <time>2020-09-29T15:05:56Z</time>
      </trkpt>
      <trkpt lat="40.9498780" lon="-3.3208630">
        <ele>864.0</ele>
        <time>2020-09-29T15:05:57Z</time>
      </trkpt>
      <trkpt lat="40.9498880" lon="-3.3209250">
        <ele>864.0</ele>
        <time>2020-09-29T15:05:58Z</time>
      </trkpt>
      <trkpt lat="40.9498880" lon="-3.3209250">
        <ele>864.0</ele>
        <time>2020-09-29T15:05:59Z</time>
      </trkpt>
      <trkpt lat="40.9499000" lon="-3.3209850">
        <ele>864.0</ele>
        <time>2020-09-29T15:06:00Z</time>
      </trkpt>
      <trkpt lat="40.9499000" lon="-3.3209850">
        <ele>865.0</ele>
        <time>2020-09-29T15:06:01Z</time>
      </trkpt>
      <trkpt lat="40.9499100" lon="-3.3210520">
        <ele>865.0</ele>
        <time>2020-09-29T15:06:02Z</time>
      </trkpt>
      <trkpt lat="40.9499100" lon="-3.3210520">
        <ele>865.0</ele>
        <time>2020-09-29T15:06:03Z</time>
      </trkpt>
      <trkpt lat="40.9499130" lon="-3.3211180">
        <ele>865.0</ele>
        <time>2020-09-29T15:06:04Z</time>
      </trkpt>
      <trkpt lat="40.9499130" lon="-3.3211180">
        <ele>866.0</ele>
        <time>2020-09-29T15:06:05Z</time>
      </trkpt>
      <trkpt lat="40.9499130" lon="-3.3211850">
        <ele>866.0</ele>
        <time>2020-09-29T15:06:06Z</time>
      </trkpt>
      <trkpt lat="40.9499130" lon="-3.3211850">
        <ele>866.0</ele>
        <time>2020-09-29T15:06:07Z</time>
      </trkpt>
      <trkpt lat="40.9499130" lon="-3.3212500">
        <ele>866.0</ele>
        <time>2020-09-29T15:06:08Z</time>
      </trkpt>
      <trkpt lat="40.9499130" lon="-3.3212500">
        <ele>867.0</ele>
        <time>2020-09-29T15:06:09Z</time>
      </trkpt>
      <trkpt lat="40.9499080" lon="-3.3213120">
        <ele>867.0</ele>
        <time>2020-09-29T15:06:10Z</time>
      </trkpt>
      <trkpt lat="40.9499050" lon="-3.3213430">
        <ele>867.0</ele>
        <time>2020-09-29T15:06:11Z</time>
      </trkpt>
      <trkpt lat="40.9499050" lon="-3.3213430">
        <ele>869.0</ele>
        <time>2020-09-29T15:06:12Z</time>
      </trkpt>
      <trkpt lat="40.9499000" lon="-3.3214080">
        <ele>869.0</ele>
        <time>2020-09-29T15:06:13Z</time>
      </trkpt>
      <trkpt lat="40.9499000" lon="-3.3214400">
        <ele>869.0</ele>
        <time>2020-09-29T15:06:14Z</time>
      </trkpt>
      <trkpt lat="40.9499000" lon="-3.3214400">
        <ele>869.0</ele>
        <time>2020-09-29T15:06:15Z</time>
      </trkpt>
      <trkpt lat="40.9499020" lon="-3.3215030">
        <ele>870.0</ele>
        <time>2020-09-29T15:06:16Z</time>
      </trkpt>
      <trkpt lat="40.9499020" lon="-3.3215030">
        <ele>870.0</ele>
        <time>2020-09-29T15:06:17Z</time>
      </trkpt>
      <trkpt lat="40.9499030" lon="-3.3215670">
        <ele>870.0</ele>
        <time>2020-09-29T15:06:18Z</time>
      </trkpt>
      <trkpt lat="40.9499030" lon="-3.3215670">
        <ele>870.0</ele>
        <time>2020-09-29T15:06:19Z</time>
      </trkpt>
      <trkpt lat="40.9498930" lon="-3.3216250">
        <ele>871.0</ele>
        <time>2020-09-29T15:06:20Z</time>
      </trkpt>
      <trkpt lat="40.9498930" lon="-3.3216250">
        <ele>871.0</ele>
        <time>2020-09-29T15:06:21Z</time>
      </trkpt>
      <trkpt lat="40.9498830" lon="-3.3216870">
        <ele>871.0</ele>
        <time>2020-09-29T15:06:22Z</time>
      </trkpt>
      <trkpt lat="40.9498830" lon="-3.3216870">
        <ele>871.0</ele>
        <time>2020-09-29T15:06:23Z</time>
      </trkpt>
      <trkpt lat="40.9498780" lon="-3.3217520">
        <ele>872.0</ele>
        <time>2020-09-29T15:06:24Z</time>
      </trkpt>
      <trkpt lat="40.9498770" lon="-3.3217850">
        <ele>872.0</ele>
        <time>2020-09-29T15:06:25Z</time>
      </trkpt>
      <trkpt lat="40.9498750" lon="-3.3218170">
        <ele>872.0</ele>
        <time>2020-09-29T15:06:26Z</time>
      </trkpt>
      <trkpt lat="40.9498750" lon="-3.3218170">
        <ele>872.0</ele>
        <time>2020-09-29T15:06:27Z</time>
      </trkpt>
      <trkpt lat="40.9498700" lon="-3.3218800">
        <ele>873.0</ele>
        <time>2020-09-29T15:06:28Z</time>
      </trkpt>
      <trkpt lat="40.9498680" lon="-3.3219100">
        <ele>873.0</ele>
        <time>2020-09-29T15:06:29Z</time>
      </trkpt>
      <trkpt lat="40.9498680" lon="-3.3219100">
        <ele>873.0</ele>
        <time>2020-09-29T15:06:30Z</time>
      </trkpt>
      <trkpt lat="40.9498700" lon="-3.3219730">
        <ele>873.0</ele>
        <time>2020-09-29T15:06:31Z</time>
      </trkpt>
      <trkpt lat="40.9498700" lon="-3.3219730">
        <ele>874.0</ele>
        <time>2020-09-29T15:06:32Z</time>
      </trkpt>
      <trkpt lat="40.9498750" lon="-3.3220400">
        <ele>874.0</ele>
        <time>2020-09-29T15:06:33Z</time>
      </trkpt>
      <trkpt lat="40.9498750" lon="-3.3220400">
        <ele>874.0</ele>
        <time>2020-09-29T15:06:34Z</time>
      </trkpt>
      <trkpt lat="40.9498820" lon="-3.3221030">
        <ele>874.0</ele>
        <time>2020-09-29T15:06:35Z</time>
      </trkpt>
      <trkpt lat="40.9498820" lon="-3.3221370">
        <ele>875.0</ele>
        <time>2020-09-29T15:06:36Z</time>
      </trkpt>
      <trkpt lat="40.9498820" lon="-3.3221370">
        <ele>875.0</ele>
        <time>2020-09-29T15:06:37Z</time>
      </trkpt>
      <trkpt lat="40.9498850" lon="-3.3221970">
        <ele>875.0</ele>
        <time>2020-09-29T15:06:38Z</time>
      </trkpt>
      <trkpt lat="40.9498850" lon="-3.3221970">
        <ele>875.0</ele>
        <time>2020-09-29T15:06:39Z</time>
      </trkpt>
      <trkpt lat="40.9499050" lon="-3.3222580">
        <ele>875.0</ele>
        <time>2020-09-29T15:06:40Z</time>
      </trkpt>
      <trkpt lat="40.9499050" lon="-3.3222580">
        <ele>875.0</ele>
        <time>2020-09-29T15:06:41Z</time>
      </trkpt>
      <trkpt lat="40.9499270" lon="-3.3223220">
        <ele>875.0</ele>
        <time>2020-09-29T15:06:42Z</time>
      </trkpt>
      <trkpt lat="40.9499350" lon="-3.3223550">
        <ele>875.0</ele>
        <time>2020-09-29T15:06:43Z</time>
      </trkpt>
      <trkpt lat="40.9499470" lon="-3.3223870">
        <ele>876.0</ele>
        <time>2020-09-29T15:06:44Z</time>
      </trkpt>
      <trkpt lat="40.9499470" lon="-3.3223870">
        <ele>876.0</ele>
        <time>2020-09-29T15:06:45Z</time>
      </trkpt>
      <trkpt lat="40.9499650" lon="-3.3224520">
        <ele>876.0</ele>
        <time>2020-09-29T15:06:46Z</time>
      </trkpt>
      <trkpt lat="40.9499700" lon="-3.3224830">
        <ele>877.0</ele>
        <time>2020-09-29T15:06:47Z</time>
      </trkpt>
      <trkpt lat="40.9499700" lon="-3.3224830">
        <ele>877.0</ele>
        <time>2020-09-29T15:06:48Z</time>
      </trkpt>
      <trkpt lat="40.9499820" lon="-3.3225470">
        <ele>877.0</ele>
        <time>2020-09-29T15:06:49Z</time>
      </trkpt>
      <trkpt lat="40.9499850" lon="-3.3225780">
        <ele>877.0</ele>
        <time>2020-09-29T15:06:50Z</time>
      </trkpt>
      <trkpt lat="40.9499850" lon="-3.3225780">
        <ele>878.0</ele>
        <time>2020-09-29T15:06:51Z</time>
      </trkpt>
      <trkpt lat="40.9499870" lon="-3.3226400">
        <ele>878.0</ele>
        <time>2020-09-29T15:06:52Z</time>
      </trkpt>
      <trkpt lat="40.9499830" lon="-3.3226670">
        <ele>878.0</ele>
        <time>2020-09-29T15:06:53Z</time>
      </trkpt>
      <trkpt lat="40.9499770" lon="-3.3226950">
        <ele>878.0</ele>
        <time>2020-09-29T15:06:54Z</time>
      </trkpt>
      <trkpt lat="40.9499770" lon="-3.3226950">
        <ele>879.0</ele>
        <time>2020-09-29T15:06:55Z</time>
      </trkpt>
      <trkpt lat="40.9499600" lon="-3.3227580">
        <ele>879.0</ele>
        <time>2020-09-29T15:06:56Z</time>
      </trkpt>
      <trkpt lat="40.9499600" lon="-3.3227580">
        <ele>879.0</ele>
        <time>2020-09-29T15:06:57Z</time>
      </trkpt>
      <trkpt lat="40.9499380" lon="-3.3228200">
        <ele>880.0</ele>
        <time>2020-09-29T15:06:58Z</time>
      </trkpt>
      <trkpt lat="40.9499300" lon="-3.3228500">
        <ele>880.0</ele>
        <time>2020-09-29T15:06:59Z</time>
      </trkpt>
      <trkpt lat="40.9499300" lon="-3.3228500">
        <ele>880.0</ele>
        <time>2020-09-29T15:07:00Z</time>
      </trkpt>
      <trkpt lat="40.9499080" lon="-3.3229100">
        <ele>880.0</ele>
        <time>2020-09-29T15:07:01Z</time>
      </trkpt>
      <trkpt lat="40.9499080" lon="-3.3229100">
        <ele>881.0</ele>
        <time>2020-09-29T15:07:02Z</time>
      </trkpt>
      <trkpt lat="40.9498750" lon="-3.3229570">
        <ele>881.0</ele>
        <time>2020-09-29T15:07:03Z</time>
      </trkpt>
      <trkpt lat="40.9498750" lon="-3.3229570">
        <ele>881.0</ele>
        <time>2020-09-29T15:07:04Z</time>
      </trkpt>
      <trkpt lat="40.9498470" lon="-3.3230020">
        <ele>881.0</ele>
        <time>2020-09-29T15:07:05Z</time>
      </trkpt>
      <trkpt lat="40.9498300" lon="-3.3230270">
        <ele>882.0</ele>
        <time>2020-09-29T15:07:06Z</time>
      </trkpt>
      <trkpt lat="40.9498300" lon="-3.3230270">
        <ele>882.0</ele>
        <time>2020-09-29T15:07:07Z</time>
      </trkpt>
      <trkpt lat="40.9497950" lon="-3.3230730">
        <ele>882.0</ele>
        <time>2020-09-29T15:07:08Z</time>
      </trkpt>
      <trkpt lat="40.9497950" lon="-3.3230730">
        <ele>882.0</ele>
        <time>2020-09-29T15:07:09Z</time>
      </trkpt>
      <trkpt lat="40.9497570" lon="-3.3231100">
        <ele>883.0</ele>
        <time>2020-09-29T15:07:10Z</time>
      </trkpt>
      <trkpt lat="40.9497570" lon="-3.3231100">
        <ele>883.0</ele>
        <time>2020-09-29T15:07:11Z</time>
      </trkpt>
      <trkpt lat="40.9497070" lon="-3.3231350">
        <ele>883.0</ele>
        <time>2020-09-29T15:07:12Z</time>
      </trkpt>
      <trkpt lat="40.9496820" lon="-3.3231470">
        <ele>883.0</ele>
        <time>2020-09-29T15:07:13Z</time>
      </trkpt>
      <trkpt lat="40.9496820" lon="-3.3231470">
        <ele>883.0</ele>
        <time>2020-09-29T15:07:14Z</time>
      </trkpt>
      <trkpt lat="40.9496280" lon="-3.3231680">
        <ele>884.0</ele>
        <time>2020-09-29T15:07:15Z</time>
      </trkpt>
      <trkpt lat="40.9496280" lon="-3.3231680">
        <ele>884.0</ele>
        <time>2020-09-29T15:07:16Z</time>
      </trkpt>
      <trkpt lat="40.9495770" lon="-3.3231800">
        <ele>884.0</ele>
        <time>2020-09-29T15:07:17Z</time>
      </trkpt>
      <trkpt lat="40.9495530" lon="-3.3231720">
        <ele>884.0</ele>
        <time>2020-09-29T15:07:18Z</time>
      </trkpt>
      <trkpt lat="40.9495320" lon="-3.3231570">
        <ele>885.0</ele>
        <time>2020-09-29T15:07:19Z</time>
      </trkpt>
      <trkpt lat="40.9495130" lon="-3.3231380">
        <ele>885.0</ele>
        <time>2020-09-29T15:07:20Z</time>
      </trkpt>
      <trkpt lat="40.9495130" lon="-3.3231380">
        <ele>885.0</ele>
        <time>2020-09-29T15:07:21Z</time>
      </trkpt>
      <trkpt lat="40.9494820" lon="-3.3231030">
        <ele>885.0</ele>
        <time>2020-09-29T15:07:22Z</time>
      </trkpt>
      <trkpt lat="40.9494670" lon="-3.3230920">
        <ele>885.0</ele>
        <time>2020-09-29T15:07:23Z</time>
      </trkpt>
      <trkpt lat="40.9494670" lon="-3.3230920">
        <ele>885.0</ele>
        <time>2020-09-29T15:07:24Z</time>
      </trkpt>
      <trkpt lat="40.9494520" lon="-3.3230630">
        <ele>885.0</ele>
        <time>2020-09-29T15:07:25Z</time>
      </trkpt>
      <trkpt lat="40.9494450" lon="-3.3230470">
        <ele>886.0</ele>
        <time>2020-09-29T15:07:26Z</time>
      </trkpt>
      <trkpt lat="40.9494450" lon="-3.3230470">
        <ele>886.0</ele>
        <time>2020-09-29T15:07:27Z</time>
      </trkpt>
      <trkpt lat="40.9494320" lon="-3.3230180">
        <ele>886.0</ele>
        <time>2020-09-29T15:07:28Z</time>
      </trkpt>
      <trkpt lat="40.9494330" lon="-3.3230080">
        <ele>886.0</ele>
        <time>2020-09-29T15:07:29Z</time>
      </trkpt>
      <trkpt lat="40.9494330" lon="-3.3230080">
        <ele>886.0</ele>
        <time>2020-09-29T15:07:30Z</time>
      </trkpt>
      <trkpt lat="40.9494350" lon="-3.3229970">
        <ele>886.0</ele>
        <time>2020-09-29T15:07:31Z</time>
      </trkpt>
      <trkpt lat="40.9494350" lon="-3.3229900">
        <ele>886.0</ele>
        <time>2020-09-29T15:07:32Z</time>
      </trkpt>
      <trkpt lat="40.9494350" lon="-3.3229900">
        <ele>886.0</ele>
        <time>2020-09-29T15:07:33Z</time>
      </trkpt>
      <trkpt lat="40.9494370" lon="-3.3229850">
        <ele>886.0</ele>
        <time>2020-09-29T15:07:34Z</time>
      </trkpt>
      <trkpt lat="40.9494370" lon="-3.3229850">
        <ele>886.0</ele>
        <time>2020-09-29T15:07:59Z</time>
      </trkpt>
      <trkpt lat="40.9494280" lon="-3.3229350">
        <ele>886.0</ele>
        <time>2020-09-29T15:08:00Z</time>
      </trkpt>
      <trkpt lat="40.9494280" lon="-3.3229200">
        <ele>887.0</ele>
        <time>2020-09-29T15:08:01Z</time>
      </trkpt>
      <trkpt lat="40.9494280" lon="-3.3229030">
        <ele>887.0</ele>
        <time>2020-09-29T15:08:02Z</time>
      </trkpt>
      <trkpt lat="40.9494280" lon="-3.3229030">
        <ele>887.0</ele>
        <time>2020-09-29T15:08:03Z</time>
      </trkpt>
      <trkpt lat="40.9494170" lon="-3.3228670">
        <ele>887.0</ele>
        <time>2020-09-29T15:08:04Z</time>
      </trkpt>
      <trkpt lat="40.9494170" lon="-3.3228670">
        <ele>887.0</ele>
        <time>2020-09-29T15:08:05Z</time>
      </trkpt>
      <trkpt lat="40.9494080" lon="-3.3228220">
        <ele>887.0</ele>
        <time>2020-09-29T15:08:06Z</time>
      </trkpt>
      <trkpt lat="40.9494080" lon="-3.3228220">
        <ele>887.0</ele>
        <time>2020-09-29T15:08:07Z</time>
      </trkpt>
      <trkpt lat="40.9493980" lon="-3.3227720">
        <ele>888.0</ele>
        <time>2020-09-29T15:08:08Z</time>
      </trkpt>
      <trkpt lat="40.9493980" lon="-3.3227720">
        <ele>888.0</ele>
        <time>2020-09-29T15:08:09Z</time>
      </trkpt>
      <trkpt lat="40.9493920" lon="-3.3227180">
        <ele>888.0</ele>
        <time>2020-09-29T15:08:10Z</time>
      </trkpt>
      <trkpt lat="40.9493920" lon="-3.3227180">
        <ele>888.0</ele>
        <time>2020-09-29T15:08:11Z</time>
      </trkpt>
      <trkpt lat="40.9493870" lon="-3.3226800">
        <ele>888.0</ele>
        <time>2020-09-29T15:08:12Z</time>
      </trkpt>
      <trkpt lat="40.9493870" lon="-3.3226800">
        <ele>888.0</ele>
        <time>2020-09-29T15:08:13Z</time>
      </trkpt>
      <trkpt lat="40.9493770" lon="-3.3226400">
        <ele>889.0</ele>
        <time>2020-09-29T15:08:14Z</time>
      </trkpt>
      <trkpt lat="40.9493770" lon="-3.3226400">
        <ele>889.0</ele>
        <time>2020-09-29T15:08:15Z</time>
      </trkpt>
      <trkpt lat="40.9493670" lon="-3.3225950">
        <ele>889.0</ele>
        <time>2020-09-29T15:08:16Z</time>
      </trkpt>
      <trkpt lat="40.9493620" lon="-3.3225730">
        <ele>889.0</ele>
        <time>2020-09-29T15:08:17Z</time>
      </trkpt>
      <trkpt lat="40.9493620" lon="-3.3225730">
        <ele>889.0</ele>
        <time>2020-09-29T15:08:18Z</time>
      </trkpt>
      <trkpt lat="40.9493570" lon="-3.3225400">
        <ele>889.0</ele>
        <time>2020-09-29T15:08:19Z</time>
      </trkpt>
      <trkpt lat="40.9493570" lon="-3.3225400">
        <ele>889.0</ele>
        <time>2020-09-29T15:08:20Z</time>
      </trkpt>
      <trkpt lat="40.9493500" lon="-3.3225020">
        <ele>889.0</ele>
        <time>2020-09-29T15:08:21Z</time>
      </trkpt>
      <trkpt lat="40.9493450" lon="-3.3224830">
        <ele>889.0</ele>
        <time>2020-09-29T15:08:22Z</time>
      </trkpt>
      <trkpt lat="40.9493450" lon="-3.3224830">
        <ele>889.0</ele>
        <time>2020-09-29T15:08:23Z</time>
      </trkpt>
      <trkpt lat="40.9493400" lon="-3.3224330">
        <ele>890.0</ele>
        <time>2020-09-29T15:08:24Z</time>
      </trkpt>
      <trkpt lat="40.9493400" lon="-3.3224330">
        <ele>890.0</ele>
        <time>2020-09-29T15:08:25Z</time>
      </trkpt>
      <trkpt lat="40.9493300" lon="-3.3223720">
        <ele>890.0</ele>
        <time>2020-09-29T15:08:26Z</time>
      </trkpt>
      <trkpt lat="40.9493300" lon="-3.3223720">
        <ele>890.0</ele>
        <time>2020-09-29T15:08:27Z</time>
      </trkpt>
      <trkpt lat="40.9493170" lon="-3.3223080">
        <ele>890.0</ele>
        <time>2020-09-29T15:08:28Z</time>
      </trkpt>
      <trkpt lat="40.9493170" lon="-3.3223080">
        <ele>890.0</ele>
        <time>2020-09-29T15:08:29Z</time>
      </trkpt>
      <trkpt lat="40.9493050" lon="-3.3222470">
        <ele>891.0</ele>
        <time>2020-09-29T15:08:30Z</time>
      </trkpt>
      <trkpt lat="40.9492980" lon="-3.3222170">
        <ele>891.0</ele>
        <time>2020-09-29T15:08:31Z</time>
      </trkpt>
      <trkpt lat="40.9492980" lon="-3.3222170">
        <ele>891.0</ele>
        <time>2020-09-29T15:08:32Z</time>
      </trkpt>
      <trkpt lat="40.9492820" lon="-3.3221580">
        <ele>891.0</ele>
        <time>2020-09-29T15:08:33Z</time>
      </trkpt>
      <trkpt lat="40.9492820" lon="-3.3221580">
        <ele>891.0</ele>
        <time>2020-09-29T15:08:34Z</time>
      </trkpt>
      <trkpt lat="40.9492670" lon="-3.3221070">
        <ele>892.0</ele>
        <time>2020-09-29T15:08:35Z</time>
      </trkpt>
      <trkpt lat="40.9492570" lon="-3.3220870">
        <ele>892.0</ele>
        <time>2020-09-29T15:08:36Z</time>
      </trkpt>
      <trkpt lat="40.9492570" lon="-3.3220870">
        <ele>892.0</ele>
        <time>2020-09-29T15:08:37Z</time>
      </trkpt>
      <trkpt lat="40.9492380" lon="-3.3220430">
        <ele>892.0</ele>
        <time>2020-09-29T15:08:38Z</time>
      </trkpt>
      <trkpt lat="40.9492380" lon="-3.3220430">
        <ele>892.0</ele>
        <time>2020-09-29T15:08:39Z</time>
      </trkpt>
      <trkpt lat="40.9492330" lon="-3.3219980">
        <ele>892.0</ele>
        <time>2020-09-29T15:08:40Z</time>
      </trkpt>
      <trkpt lat="40.9492300" lon="-3.3219780">
        <ele>893.0</ele>
        <time>2020-09-29T15:08:41Z</time>
      </trkpt>
      <trkpt lat="40.9492300" lon="-3.3219780">
        <ele>893.0</ele>
        <time>2020-09-29T15:08:42Z</time>
      </trkpt>
      <trkpt lat="40.9492200" lon="-3.3219250">
        <ele>894.0</ele>
        <time>2020-09-29T15:08:43Z</time>
      </trkpt>
      <trkpt lat="40.9492220" lon="-3.3219000">
        <ele>894.0</ele>
        <time>2020-09-29T15:08:44Z</time>
      </trkpt>
      <trkpt lat="40.9492220" lon="-3.3219000">
        <ele>894.0</ele>
        <time>2020-09-29T15:08:45Z</time>
      </trkpt>
      <trkpt lat="40.9492220" lon="-3.3218450">
        <ele>894.0</ele>
        <time>2020-09-29T15:08:46Z</time>
      </trkpt>
      <trkpt lat="40.9492220" lon="-3.3218450">
        <ele>895.0</ele>
        <time>2020-09-29T15:08:47Z</time>
      </trkpt>
      <trkpt lat="40.9492100" lon="-3.3217920">
        <ele>895.0</ele>
        <time>2020-09-29T15:08:48Z</time>
      </trkpt>
      <trkpt lat="40.9492100" lon="-3.3217920">
        <ele>895.0</ele>
        <time>2020-09-29T15:08:49Z</time>
      </trkpt>
      <trkpt lat="40.9492000" lon="-3.3217380">
        <ele>895.0</ele>
        <time>2020-09-29T15:08:50Z</time>
      </trkpt>
      <trkpt lat="40.9492000" lon="-3.3217380">
        <ele>895.0</ele>
        <time>2020-09-29T15:08:51Z</time>
      </trkpt>
      <trkpt lat="40.9491820" lon="-3.3216830">
        <ele>895.0</ele>
        <time>2020-09-29T15:08:52Z</time>
      </trkpt>
      <trkpt lat="40.9491770" lon="-3.3216570">
        <ele>896.0</ele>
        <time>2020-09-29T15:08:53Z</time>
      </trkpt>
      <trkpt lat="40.9491770" lon="-3.3216570">
        <ele>896.0</ele>
        <time>2020-09-29T15:08:54Z</time>
      </trkpt>
      <trkpt lat="40.9491620" lon="-3.3216070">
        <ele>896.0</ele>
        <time>2020-09-29T15:08:55Z</time>
      </trkpt>
      <trkpt lat="40.9491550" lon="-3.3215770">
        <ele>896.0</ele>
        <time>2020-09-29T15:08:56Z</time>
      </trkpt>
      <trkpt lat="40.9491550" lon="-3.3215770">
        <ele>897.0</ele>
        <time>2020-09-29T15:08:57Z</time>
      </trkpt>
      <trkpt lat="40.9491420" lon="-3.3215230">
        <ele>897.0</ele>
        <time>2020-09-29T15:08:58Z</time>
      </trkpt>
      <trkpt lat="40.9491420" lon="-3.3215230">
        <ele>897.0</ele>
        <time>2020-09-29T15:08:59Z</time>
      </trkpt>
      <trkpt lat="40.9491250" lon="-3.3214730">
        <ele>897.0</ele>
        <time>2020-09-29T15:09:00Z</time>
      </trkpt>
      <trkpt lat="40.9491250" lon="-3.3214730">
        <ele>898.0</ele>
        <time>2020-09-29T15:09:01Z</time>
      </trkpt>
      <trkpt lat="40.9491150" lon="-3.3214320">
        <ele>898.0</ele>
        <time>2020-09-29T15:09:02Z</time>
      </trkpt>
      <trkpt lat="40.9491150" lon="-3.3214320">
        <ele>898.0</ele>
        <time>2020-09-29T15:09:03Z</time>
      </trkpt>
      <trkpt lat="40.9490970" lon="-3.3213770">
        <ele>898.0</ele>
        <time>2020-09-29T15:09:04Z</time>
      </trkpt>
      <trkpt lat="40.9490970" lon="-3.3213770">
        <ele>898.0</ele>
        <time>2020-09-29T15:09:05Z</time>
      </trkpt>
      <trkpt lat="40.9490670" lon="-3.3213180">
        <ele>898.0</ele>
        <time>2020-09-29T15:09:06Z</time>
      </trkpt>
      <trkpt lat="40.9490670" lon="-3.3213180">
        <ele>898.0</ele>
        <time>2020-09-29T15:09:07Z</time>
      </trkpt>
      <trkpt lat="40.9490470" lon="-3.3212620">
        <ele>898.0</ele>
        <time>2020-09-29T15:09:08Z</time>
      </trkpt>
      <trkpt lat="40.9490470" lon="-3.3212620">
        <ele>899.0</ele>
        <time>2020-09-29T15:09:09Z</time>
      </trkpt>
      <trkpt lat="40.9490180" lon="-3.3212080">
        <ele>899.0</ele>
        <time>2020-09-29T15:09:10Z</time>
      </trkpt>
      <trkpt lat="40.9490180" lon="-3.3212080">
        <ele>899.0</ele>
        <time>2020-09-29T15:09:11Z</time>
      </trkpt>
      <trkpt lat="40.9489780" lon="-3.3211620">
        <ele>900.0</ele>
        <time>2020-09-29T15:09:12Z</time>
      </trkpt>
      <trkpt lat="40.9489780" lon="-3.3211620">
        <ele>900.0</ele>
        <time>2020-09-29T15:09:13Z</time>
      </trkpt>
      <trkpt lat="40.9489430" lon="-3.3211270">
        <ele>900.0</ele>
        <time>2020-09-29T15:09:14Z</time>
      </trkpt>
      <trkpt lat="40.9489200" lon="-3.3211120">
        <ele>900.0</ele>
        <time>2020-09-29T15:09:15Z</time>
      </trkpt>
      <trkpt lat="40.9489200" lon="-3.3211120">
        <ele>901.0</ele>
        <time>2020-09-29T15:09:16Z</time>
      </trkpt>
      <trkpt lat="40.9488700" lon="-3.3210850">
        <ele>901.0</ele>
        <time>2020-09-29T15:09:17Z</time>
      </trkpt>
      <trkpt lat="40.9488700" lon="-3.3210850">
        <ele>901.0</ele>
        <time>2020-09-29T15:09:18Z</time>
      </trkpt>
      <trkpt lat="40.9488170" lon="-3.3210680">
        <ele>901.0</ele>
        <time>2020-09-29T15:09:19Z</time>
      </trkpt>
      <trkpt lat="40.9487920" lon="-3.3210620">
        <ele>901.0</ele>
        <time>2020-09-29T15:09:20Z</time>
      </trkpt>
      <trkpt lat="40.9487650" lon="-3.3210570">
        <ele>901.0</ele>
        <time>2020-09-29T15:09:21Z</time>
      </trkpt>
      <trkpt lat="40.9487650" lon="-3.3210570">
        <ele>902.0</ele>
        <time>2020-09-29T15:09:22Z</time>
      </trkpt>
      <trkpt lat="40.9487150" lon="-3.3210500">
        <ele>902.0</ele>
        <time>2020-09-29T15:09:23Z</time>
      </trkpt>
      <trkpt lat="40.9487150" lon="-3.3210500">
        <ele>902.0</ele>
        <time>2020-09-29T15:09:24Z</time>
      </trkpt>
      <trkpt lat="40.9486650" lon="-3.3210470">
        <ele>902.0</ele>
        <time>2020-09-29T15:09:25Z</time>
      </trkpt>
      <trkpt lat="40.9486650" lon="-3.3210470">
        <ele>902.0</ele>
        <time>2020-09-29T15:09:26Z</time>
      </trkpt>
      <trkpt lat="40.9486150" lon="-3.3210370">
        <ele>902.0</ele>
        <time>2020-09-29T15:09:27Z</time>
      </trkpt>
      <trkpt lat="40.9486150" lon="-3.3210370">
        <ele>904.0</ele>
        <time>2020-09-29T15:09:28Z</time>
      </trkpt>
      <trkpt lat="40.9485680" lon="-3.3210220">
        <ele>904.0</ele>
        <time>2020-09-29T15:09:29Z</time>
      </trkpt>
      <trkpt lat="40.9485680" lon="-3.3210220">
        <ele>904.0</ele>
        <time>2020-09-29T15:09:30Z</time>
      </trkpt>
      <trkpt lat="40.9485200" lon="-3.3210130">
        <ele>904.0</ele>
        <time>2020-09-29T15:09:31Z</time>
      </trkpt>
      <trkpt lat="40.9484970" lon="-3.3210070">
        <ele>904.0</ele>
        <time>2020-09-29T15:09:32Z</time>
      </trkpt>
      <trkpt lat="40.9484970" lon="-3.3210070">
        <ele>904.0</ele>
        <time>2020-09-29T15:09:33Z</time>
      </trkpt>
      <trkpt lat="40.9484480" lon="-3.3209980">
        <ele>904.0</ele>
        <time>2020-09-29T15:09:34Z</time>
      </trkpt>
      <trkpt lat="40.9484480" lon="-3.3209980">
        <ele>904.0</ele>
        <time>2020-09-29T15:09:35Z</time>
      </trkpt>
      <trkpt lat="40.9484000" lon="-3.3209900">
        <ele>904.0</ele>
        <time>2020-09-29T15:09:36Z</time>
      </trkpt>
      <trkpt lat="40.9484000" lon="-3.3209900">
        <ele>904.0</ele>
        <time>2020-09-29T15:09:37Z</time>
      </trkpt>
      <trkpt lat="40.9483520" lon="-3.3209800">
        <ele>905.0</ele>
        <time>2020-09-29T15:09:38Z</time>
      </trkpt>
      <trkpt lat="40.9483520" lon="-3.3209800">
        <ele>905.0</ele>
        <time>2020-09-29T15:09:39Z</time>
      </trkpt>
      <trkpt lat="40.9483050" lon="-3.3209670">
        <ele>905.0</ele>
        <time>2020-09-29T15:09:40Z</time>
      </trkpt>
      <trkpt lat="40.9483050" lon="-3.3209670">
        <ele>905.0</ele>
        <time>2020-09-29T15:09:41Z</time>
      </trkpt>
      <trkpt lat="40.9482580" lon="-3.3209550">
        <ele>906.0</ele>
        <time>2020-09-29T15:09:42Z</time>
      </trkpt>
      <trkpt lat="40.9482580" lon="-3.3209550">
        <ele>906.0</ele>
        <time>2020-09-29T15:09:43Z</time>
      </trkpt>
      <trkpt lat="40.9482120" lon="-3.3209450">
        <ele>906.0</ele>
        <time>2020-09-29T15:09:44Z</time>
      </trkpt>
      <trkpt lat="40.9482120" lon="-3.3209450">
        <ele>906.0</ele>
        <time>2020-09-29T15:09:45Z</time>
      </trkpt>
      <trkpt lat="40.9481630" lon="-3.3209400">
        <ele>906.0</ele>
        <time>2020-09-29T15:09:46Z</time>
      </trkpt>
      <trkpt lat="40.9481630" lon="-3.3209400">
        <ele>906.0</ele>
        <time>2020-09-29T15:09:47Z</time>
      </trkpt>
      <trkpt lat="40.9481150" lon="-3.3209300">
        <ele>907.0</ele>
        <time>2020-09-29T15:09:48Z</time>
      </trkpt>
      <trkpt lat="40.9481150" lon="-3.3209300">
        <ele>907.0</ele>
        <time>2020-09-29T15:09:49Z</time>
      </trkpt>
      <trkpt lat="40.9480700" lon="-3.3209170">
        <ele>907.0</ele>
        <time>2020-09-29T15:09:50Z</time>
      </trkpt>
      <trkpt lat="40.9480320" lon="-3.3209000">
        <ele>907.0</ele>
        <time>2020-09-29T15:09:51Z</time>
      </trkpt>
      <trkpt lat="40.9480320" lon="-3.3209000">
        <ele>908.0</ele>
        <time>2020-09-29T15:09:52Z</time>
      </trkpt>
      <trkpt lat="40.9480100" lon="-3.3208920">
        <ele>908.0</ele>
        <time>2020-09-29T15:09:53Z</time>
      </trkpt>
      <trkpt lat="40.9480100" lon="-3.3208920">
        <ele>909.0</ele>
        <time>2020-09-29T15:09:54Z</time>
      </trkpt>
      <trkpt lat="40.9479600" lon="-3.3208800">
        <ele>909.0</ele>
        <time>2020-09-29T15:09:55Z</time>
      </trkpt>
      <trkpt lat="40.9479330" lon="-3.3208770">
        <ele>909.0</ele>
        <time>2020-09-29T15:09:56Z</time>
      </trkpt>
      <trkpt lat="40.9479330" lon="-3.3208770">
        <ele>909.0</ele>
        <time>2020-09-29T15:09:57Z</time>
      </trkpt>
      <trkpt lat="40.9478820" lon="-3.3208750">
        <ele>910.0</ele>
        <time>2020-09-29T15:09:58Z</time>
      </trkpt>
      <trkpt lat="40.9478820" lon="-3.3208750">
        <ele>910.0</ele>
        <time>2020-09-29T15:09:59Z</time>
      </trkpt>
      <trkpt lat="40.9478330" lon="-3.3208700">
        <ele>910.0</ele>
        <time>2020-09-29T15:10:00Z</time>
      </trkpt>
      <trkpt lat="40.9478330" lon="-3.3208700">
        <ele>910.0</ele>
        <time>2020-09-29T15:10:01Z</time>
      </trkpt>
      <trkpt lat="40.9477900" lon="-3.3208620">
        <ele>910.0</ele>
        <time>2020-09-29T15:10:02Z</time>
      </trkpt>
      <trkpt lat="40.9477900" lon="-3.3208620">
        <ele>910.0</ele>
        <time>2020-09-29T15:10:03Z</time>
      </trkpt>
      <trkpt lat="40.9477420" lon="-3.3208530">
        <ele>910.0</ele>
        <time>2020-09-29T15:10:04Z</time>
      </trkpt>
      <trkpt lat="40.9477420" lon="-3.3208530">
        <ele>910.0</ele>
        <time>2020-09-29T15:10:05Z</time>
      </trkpt>
      <trkpt lat="40.9476880" lon="-3.3208430">
        <ele>911.0</ele>
        <time>2020-09-29T15:10:06Z</time>
      </trkpt>
      <trkpt lat="40.9476880" lon="-3.3208430">
        <ele>911.0</ele>
        <time>2020-09-29T15:10:07Z</time>
      </trkpt>
      <trkpt lat="40.9476420" lon="-3.3208270">
        <ele>911.0</ele>
        <time>2020-09-29T15:10:08Z</time>
      </trkpt>
      <trkpt lat="40.9476420" lon="-3.3208270">
        <ele>911.0</ele>
        <time>2020-09-29T15:10:09Z</time>
      </trkpt>
      <trkpt lat="40.9475920" lon="-3.3208170">
        <ele>912.0</ele>
        <time>2020-09-29T15:10:10Z</time>
      </trkpt>
      <trkpt lat="40.9475670" lon="-3.3208150">
        <ele>912.0</ele>
        <time>2020-09-29T15:10:11Z</time>
      </trkpt>
      <trkpt lat="40.9475670" lon="-3.3208150">
        <ele>912.0</ele>
        <time>2020-09-29T15:10:12Z</time>
      </trkpt>
      <trkpt lat="40.9475150" lon="-3.3208120">
        <ele>912.0</ele>
        <time>2020-09-29T15:10:13Z</time>
      </trkpt>
      <trkpt lat="40.9475150" lon="-3.3208120">
        <ele>912.0</ele>
        <time>2020-09-29T15:10:14Z</time>
      </trkpt>
      <trkpt lat="40.9474680" lon="-3.3208050">
        <ele>912.0</ele>
        <time>2020-09-29T15:10:15Z</time>
      </trkpt>
      <trkpt lat="40.9474420" lon="-3.3208030">
        <ele>913.0</ele>
        <time>2020-09-29T15:10:16Z</time>
      </trkpt>
      <trkpt lat="40.9474420" lon="-3.3208030">
        <ele>913.0</ele>
        <time>2020-09-29T15:10:17Z</time>
      </trkpt>
      <trkpt lat="40.9473870" lon="-3.3207900">
        <ele>913.0</ele>
        <time>2020-09-29T15:10:18Z</time>
      </trkpt>
      <trkpt lat="40.9473870" lon="-3.3207900">
        <ele>913.0</ele>
        <time>2020-09-29T15:10:19Z</time>
      </trkpt>
      <trkpt lat="40.9473370" lon="-3.3207720">
        <ele>914.0</ele>
        <time>2020-09-29T15:10:20Z</time>
      </trkpt>
      <trkpt lat="40.9473370" lon="-3.3207720">
        <ele>914.0</ele>
        <time>2020-09-29T15:10:21Z</time>
      </trkpt>
      <trkpt lat="40.9472900" lon="-3.3207500">
        <ele>914.0</ele>
        <time>2020-09-29T15:10:22Z</time>
      </trkpt>
      <trkpt lat="40.9472900" lon="-3.3207500">
        <ele>914.0</ele>
        <time>2020-09-29T15:10:23Z</time>
      </trkpt>
      <trkpt lat="40.9472380" lon="-3.3207330">
        <ele>914.0</ele>
        <time>2020-09-29T15:10:24Z</time>
      </trkpt>
      <trkpt lat="40.9472130" lon="-3.3207230">
        <ele>914.0</ele>
        <time>2020-09-29T15:10:25Z</time>
      </trkpt>
      <trkpt lat="40.9472130" lon="-3.3207230">
        <ele>914.0</ele>
        <time>2020-09-29T15:10:26Z</time>
      </trkpt>
      <trkpt lat="40.9471600" lon="-3.3206970">
        <ele>914.0</ele>
        <time>2020-09-29T15:10:27Z</time>
      </trkpt>
      <trkpt lat="40.9471600" lon="-3.3206970">
        <ele>914.0</ele>
        <time>2020-09-29T15:10:28Z</time>
      </trkpt>
      <trkpt lat="40.9471070" lon="-3.3206670">
        <ele>914.0</ele>
        <time>2020-09-29T15:10:29Z</time>
      </trkpt>
      <trkpt lat="40.9470800" lon="-3.3206520">
        <ele>914.0</ele>
        <time>2020-09-29T15:10:30Z</time>
      </trkpt>
      <trkpt lat="40.9470800" lon="-3.3206520">
        <ele>914.0</ele>
        <time>2020-09-29T15:10:31Z</time>
      </trkpt>
      <trkpt lat="40.9470250" lon="-3.3206150">
        <ele>916.0</ele>
        <time>2020-09-29T15:10:32Z</time>
      </trkpt>
      <trkpt lat="40.9470250" lon="-3.3206150">
        <ele>916.0</ele>
        <time>2020-09-29T15:10:33Z</time>
      </trkpt>
      <trkpt lat="40.9469670" lon="-3.3205880">
        <ele>916.0</ele>
        <time>2020-09-29T15:10:34Z</time>
      </trkpt>
      <trkpt lat="40.9469350" lon="-3.3205720">
        <ele>916.0</ele>
        <time>2020-09-29T15:10:35Z</time>
      </trkpt>
      <trkpt lat="40.9469350" lon="-3.3205720">
        <ele>916.0</ele>
        <time>2020-09-29T15:10:36Z</time>
      </trkpt>
      <trkpt lat="40.9468720" lon="-3.3205470">
        <ele>916.0</ele>
        <time>2020-09-29T15:10:37Z</time>
      </trkpt>
      <trkpt lat="40.9468380" lon="-3.3205400">
        <ele>916.0</ele>
        <time>2020-09-29T15:10:38Z</time>
      </trkpt>
      <trkpt lat="40.9468380" lon="-3.3205400">
        <ele>916.0</ele>
        <time>2020-09-29T15:10:39Z</time>
      </trkpt>
      <trkpt lat="40.9467600" lon="-3.3205480">
        <ele>916.0</ele>
        <time>2020-09-29T15:10:40Z</time>
      </trkpt>
      <trkpt lat="40.9467600" lon="-3.3205480">
        <ele>916.0</ele>
        <time>2020-09-29T15:10:41Z</time>
      </trkpt>
      <trkpt lat="40.9466720" lon="-3.3205750">
        <ele>915.0</ele>
        <time>2020-09-29T15:10:42Z</time>
      </trkpt>
      <trkpt lat="40.9466720" lon="-3.3205750">
        <ele>915.0</ele>
        <time>2020-09-29T15:10:43Z</time>
      </trkpt>
      <trkpt lat="40.9465670" lon="-3.3206170">
        <ele>915.0</ele>
        <time>2020-09-29T15:10:44Z</time>
      </trkpt>
      <trkpt lat="40.9465100" lon="-3.3206430">
        <ele>915.0</ele>
        <time>2020-09-29T15:10:45Z</time>
      </trkpt>
      <trkpt lat="40.9465100" lon="-3.3206430">
        <ele>914.0</ele>
        <time>2020-09-29T15:10:46Z</time>
      </trkpt>
      <trkpt lat="40.9463950" lon="-3.3207020">
        <ele>914.0</ele>
        <time>2020-09-29T15:10:47Z</time>
      </trkpt>
      <trkpt lat="40.9463350" lon="-3.3207320">
        <ele>913.0</ele>
        <time>2020-09-29T15:10:48Z</time>
      </trkpt>
      <trkpt lat="40.9463350" lon="-3.3207320">
        <ele>913.0</ele>
        <time>2020-09-29T15:10:49Z</time>
      </trkpt>
      <trkpt lat="40.9462170" lon="-3.3207870">
        <ele>913.0</ele>
        <time>2020-09-29T15:10:50Z</time>
      </trkpt>
      <trkpt lat="40.9461030" lon="-3.3208430">
        <ele>913.0</ele>
        <time>2020-09-29T15:10:51Z</time>
      </trkpt>
      <trkpt lat="40.9461030" lon="-3.3208430">
        <ele>913.0</ele>
        <time>2020-09-29T15:10:52Z</time>
      </trkpt>
      <trkpt lat="40.9461030" lon="-3.3208430">
        <ele>913.0</ele>
        <time>2020-09-29T15:10:53Z</time>
      </trkpt>
      <trkpt lat="40.9459920" lon="-3.3208970">
        <ele>912.0</ele>
        <time>2020-09-29T15:10:54Z</time>
      </trkpt>
      <trkpt lat="40.9459920" lon="-3.3208970">
        <ele>912.0</ele>
        <time>2020-09-29T15:10:55Z</time>
      </trkpt>
      <trkpt lat="40.9458830" lon="-3.3209450">
        <ele>912.0</ele>
        <time>2020-09-29T15:10:56Z</time>
      </trkpt>
      <trkpt lat="40.9458300" lon="-3.3209670">
        <ele>912.0</ele>
        <time>2020-09-29T15:10:57Z</time>
      </trkpt>
      <trkpt lat="40.9458300" lon="-3.3209670">
        <ele>912.0</ele>
        <time>2020-09-29T15:10:58Z</time>
      </trkpt>
      <trkpt lat="40.9457230" lon="-3.3210170">
        <ele>912.0</ele>
        <time>2020-09-29T15:10:59Z</time>
      </trkpt>
      <trkpt lat="40.9457230" lon="-3.3210170">
        <ele>912.0</ele>
        <time>2020-09-29T15:11:00Z</time>
      </trkpt>
      <trkpt lat="40.9456180" lon="-3.3210700">
        <ele>912.0</ele>
        <time>2020-09-29T15:11:01Z</time>
      </trkpt>
      <trkpt lat="40.9455630" lon="-3.3210920">
        <ele>912.0</ele>
        <time>2020-09-29T15:11:02Z</time>
      </trkpt>
      <trkpt lat="40.9455630" lon="-3.3210920">
        <ele>912.0</ele>
        <time>2020-09-29T15:11:03Z</time>
      </trkpt>
      <trkpt lat="40.9454600" lon="-3.3211520">
        <ele>912.0</ele>
        <time>2020-09-29T15:11:04Z</time>
      </trkpt>
      <trkpt lat="40.9454600" lon="-3.3211520">
        <ele>911.0</ele>
        <time>2020-09-29T15:11:05Z</time>
      </trkpt>
      <trkpt lat="40.9453630" lon="-3.3212220">
        <ele>911.0</ele>
        <time>2020-09-29T15:11:06Z</time>
      </trkpt>
      <trkpt lat="40.9453630" lon="-3.3212220">
        <ele>911.0</ele>
        <time>2020-09-29T15:11:07Z</time>
      </trkpt>
      <trkpt lat="40.9452670" lon="-3.3213050">
        <ele>911.0</ele>
        <time>2020-09-29T15:11:08Z</time>
      </trkpt>
      <trkpt lat="40.9452670" lon="-3.3213050">
        <ele>911.0</ele>
        <time>2020-09-29T15:11:09Z</time>
      </trkpt>
      <trkpt lat="40.9451630" lon="-3.3214020">
        <ele>911.0</ele>
        <time>2020-09-29T15:11:10Z</time>
      </trkpt>
      <trkpt lat="40.9451630" lon="-3.3214020">
        <ele>910.0</ele>
        <time>2020-09-29T15:11:11Z</time>
      </trkpt>
      <trkpt lat="40.9450480" lon="-3.3214950">
        <ele>910.0</ele>
        <time>2020-09-29T15:11:12Z</time>
      </trkpt>
      <trkpt lat="40.9450480" lon="-3.3214950">
        <ele>909.0</ele>
        <time>2020-09-29T15:11:13Z</time>
      </trkpt>
      <trkpt lat="40.9449080" lon="-3.3215400">
        <ele>909.0</ele>
        <time>2020-09-29T15:11:14Z</time>
      </trkpt>
      <trkpt lat="40.9449080" lon="-3.3215400">
        <ele>908.0</ele>
        <time>2020-09-29T15:11:15Z</time>
      </trkpt>
      <trkpt lat="40.9447530" lon="-3.3215370">
        <ele>908.0</ele>
        <time>2020-09-29T15:11:16Z</time>
      </trkpt>
      <trkpt lat="40.9446800" lon="-3.3215370">
        <ele>908.0</ele>
        <time>2020-09-29T15:11:17Z</time>
      </trkpt>
      <trkpt lat="40.9446800" lon="-3.3215370">
        <ele>908.0</ele>
        <time>2020-09-29T15:11:18Z</time>
      </trkpt>
      <trkpt lat="40.9445470" lon="-3.3215630">
        <ele>907.0</ele>
        <time>2020-09-29T15:11:19Z</time>
      </trkpt>
      <trkpt lat="40.9444870" lon="-3.3215920">
        <ele>907.0</ele>
        <time>2020-09-29T15:11:20Z</time>
      </trkpt>
      <trkpt lat="40.9444870" lon="-3.3215920">
        <ele>906.0</ele>
        <time>2020-09-29T15:11:21Z</time>
      </trkpt>
      <trkpt lat="40.9443820" lon="-3.3216950">
        <ele>906.0</ele>
        <time>2020-09-29T15:11:22Z</time>
      </trkpt>
      <trkpt lat="40.9443350" lon="-3.3217620">
        <ele>905.0</ele>
        <time>2020-09-29T15:11:23Z</time>
      </trkpt>
      <trkpt lat="40.9443350" lon="-3.3217620">
        <ele>905.0</ele>
        <time>2020-09-29T15:11:24Z</time>
      </trkpt>
      <trkpt lat="40.9442420" lon="-3.3219100">
        <ele>904.0</ele>
        <time>2020-09-29T15:11:25Z</time>
      </trkpt>
      <trkpt lat="40.9441980" lon="-3.3219850">
        <ele>904.0</ele>
        <time>2020-09-29T15:11:26Z</time>
      </trkpt>
      <trkpt lat="40.9441980" lon="-3.3219850">
        <ele>903.0</ele>
        <time>2020-09-29T15:11:27Z</time>
      </trkpt>
      <trkpt lat="40.9441530" lon="-3.3221530">
        <ele>903.0</ele>
        <time>2020-09-29T15:11:28Z</time>
      </trkpt>
      <trkpt lat="40.9441530" lon="-3.3221530">
        <ele>902.0</ele>
        <time>2020-09-29T15:11:29Z</time>
      </trkpt>
      <trkpt lat="40.9441630" lon="-3.3223300">
        <ele>902.0</ele>
        <time>2020-09-29T15:11:30Z</time>
      </trkpt>
      <trkpt lat="40.9441820" lon="-3.3224150">
        <ele>902.0</ele>
        <time>2020-09-29T15:11:31Z</time>
      </trkpt>
      <trkpt lat="40.9441820" lon="-3.3224150">
        <ele>902.0</ele>
        <time>2020-09-29T15:11:32Z</time>
      </trkpt>
      <trkpt lat="40.9442300" lon="-3.3225780">
        <ele>901.0</ele>
        <time>2020-09-29T15:11:33Z</time>
      </trkpt>
      <trkpt lat="40.9442300" lon="-3.3225780">
        <ele>901.0</ele>
        <time>2020-09-29T15:11:34Z</time>
      </trkpt>
      <trkpt lat="40.9442720" lon="-3.3227450">
        <ele>901.0</ele>
        <time>2020-09-29T15:11:35Z</time>
      </trkpt>
      <trkpt lat="40.9442720" lon="-3.3227450">
        <ele>900.0</ele>
        <time>2020-09-29T15:11:36Z</time>
      </trkpt>
      <trkpt lat="40.9442770" lon="-3.3229170">
        <ele>900.0</ele>
        <time>2020-09-29T15:11:37Z</time>
      </trkpt>
      <trkpt lat="40.9442530" lon="-3.3229900">
        <ele>900.0</ele>
        <time>2020-09-29T15:11:38Z</time>
      </trkpt>
      <trkpt lat="40.9442530" lon="-3.3229900">
        <ele>900.0</ele>
        <time>2020-09-29T15:11:39Z</time>
      </trkpt>
      <trkpt lat="40.9441820" lon="-3.3231000">
        <ele>900.0</ele>
        <time>2020-09-29T15:11:40Z</time>
      </trkpt>
      <trkpt lat="40.9441820" lon="-3.3231000">
        <ele>900.0</ele>
        <time>2020-09-29T15:11:41Z</time>
      </trkpt>
      <trkpt lat="40.9441000" lon="-3.3231850">
        <ele>900.0</ele>
        <time>2020-09-29T15:11:42Z</time>
      </trkpt>
      <trkpt lat="40.9441000" lon="-3.3231850">
        <ele>900.0</ele>
        <time>2020-09-29T15:11:43Z</time>
      </trkpt>
      <trkpt lat="40.9440200" lon="-3.3232680">
        <ele>900.0</ele>
        <time>2020-09-29T15:11:44Z</time>
      </trkpt>
      <trkpt lat="40.9440200" lon="-3.3232680">
        <ele>900.0</ele>
        <time>2020-09-29T15:11:45Z</time>
      </trkpt>
      <trkpt lat="40.9439370" lon="-3.3233470">
        <ele>900.0</ele>
        <time>2020-09-29T15:11:46Z</time>
      </trkpt>
      <trkpt lat="40.9439370" lon="-3.3233470">
        <ele>900.0</ele>
        <time>2020-09-29T15:11:47Z</time>
      </trkpt>
      <trkpt lat="40.9438530" lon="-3.3234280">
        <ele>900.0</ele>
        <time>2020-09-29T15:11:48Z</time>
      </trkpt>
      <trkpt lat="40.9438130" lon="-3.3234720">
        <ele>900.0</ele>
        <time>2020-09-29T15:11:49Z</time>
      </trkpt>
      <trkpt lat="40.9438130" lon="-3.3234720">
        <ele>901.0</ele>
        <time>2020-09-29T15:11:50Z</time>
      </trkpt>
      <trkpt lat="40.9437300" lon="-3.3235570">
        <ele>901.0</ele>
        <time>2020-09-29T15:11:51Z</time>
      </trkpt>
      <trkpt lat="40.9436880" lon="-3.3235970">
        <ele>901.0</ele>
        <time>2020-09-29T15:11:52Z</time>
      </trkpt>
      <trkpt lat="40.9436880" lon="-3.3235970">
        <ele>901.0</ele>
        <time>2020-09-29T15:11:53Z</time>
      </trkpt>
      <trkpt lat="40.9436000" lon="-3.3236680">
        <ele>901.0</ele>
        <time>2020-09-29T15:11:54Z</time>
      </trkpt>
      <trkpt lat="40.9436000" lon="-3.3236680">
        <ele>901.0</ele>
        <time>2020-09-29T15:11:55Z</time>
      </trkpt>
      <trkpt lat="40.9435100" lon="-3.3237350">
        <ele>901.0</ele>
        <time>2020-09-29T15:11:56Z</time>
      </trkpt>
      <trkpt lat="40.9434650" lon="-3.3237670">
        <ele>901.0</ele>
        <time>2020-09-29T15:11:57Z</time>
      </trkpt>
      <trkpt lat="40.9434650" lon="-3.3237670">
        <ele>901.0</ele>
        <time>2020-09-29T15:11:58Z</time>
      </trkpt>
      <trkpt lat="40.9433720" lon="-3.3238280">
        <ele>901.0</ele>
        <time>2020-09-29T15:11:59Z</time>
      </trkpt>
      <trkpt lat="40.9433720" lon="-3.3238280">
        <ele>901.0</ele>
        <time>2020-09-29T15:12:00Z</time>
      </trkpt>
      <trkpt lat="40.9432750" lon="-3.3238820">
        <ele>901.0</ele>
        <time>2020-09-29T15:12:01Z</time>
      </trkpt>
      <trkpt lat="40.9432270" lon="-3.3239030">
        <ele>901.0</ele>
        <time>2020-09-29T15:12:02Z</time>
      </trkpt>
      <trkpt lat="40.9432270" lon="-3.3239030">
        <ele>901.0</ele>
        <time>2020-09-29T15:12:03Z</time>
      </trkpt>
      <trkpt lat="40.9431250" lon="-3.3239400">
        <ele>901.0</ele>
        <time>2020-09-29T15:12:04Z</time>
      </trkpt>
      <trkpt lat="40.9431250" lon="-3.3239400">
        <ele>901.0</ele>
        <time>2020-09-29T15:12:05Z</time>
      </trkpt>
      <trkpt lat="40.9430250" lon="-3.3239730">
        <ele>901.0</ele>
        <time>2020-09-29T15:12:06Z</time>
      </trkpt>
      <trkpt lat="40.9430250" lon="-3.3239730">
        <ele>901.0</ele>
        <time>2020-09-29T15:12:07Z</time>
      </trkpt>
      <trkpt lat="40.9429270" lon="-3.3240120">
        <ele>901.0</ele>
        <time>2020-09-29T15:12:08Z</time>
      </trkpt>
      <trkpt lat="40.9429270" lon="-3.3240120">
        <ele>901.0</ele>
        <time>2020-09-29T15:12:09Z</time>
      </trkpt>
      <trkpt lat="40.9428250" lon="-3.3240500">
        <ele>901.0</ele>
        <time>2020-09-29T15:12:10Z</time>
      </trkpt>
      <trkpt lat="40.9428250" lon="-3.3240500">
        <ele>901.0</ele>
        <time>2020-09-29T15:12:11Z</time>
      </trkpt>
      <trkpt lat="40.9427320" lon="-3.3241030">
        <ele>902.0</ele>
        <time>2020-09-29T15:12:12Z</time>
      </trkpt>
      <trkpt lat="40.9426870" lon="-3.3241330">
        <ele>902.0</ele>
        <time>2020-09-29T15:12:13Z</time>
      </trkpt>
      <trkpt lat="40.9426470" lon="-3.3241670">
        <ele>902.0</ele>
        <time>2020-09-29T15:12:14Z</time>
      </trkpt>
      <trkpt lat="40.9426470" lon="-3.3241670">
        <ele>902.0</ele>
        <time>2020-09-29T15:12:15Z</time>
      </trkpt>
      <trkpt lat="40.9425630" lon="-3.3242370">
        <ele>902.0</ele>
        <time>2020-09-29T15:12:16Z</time>
      </trkpt>
      <trkpt lat="40.9425220" lon="-3.3242700">
        <ele>902.0</ele>
        <time>2020-09-29T15:12:17Z</time>
      </trkpt>
      <trkpt lat="40.9425220" lon="-3.3242700">
        <ele>902.0</ele>
        <time>2020-09-29T15:12:18Z</time>
      </trkpt>
      <trkpt lat="40.9424400" lon="-3.3243380">
        <ele>902.0</ele>
        <time>2020-09-29T15:12:19Z</time>
      </trkpt>
      <trkpt lat="40.9424000" lon="-3.3243750">
        <ele>902.0</ele>
        <time>2020-09-29T15:12:20Z</time>
      </trkpt>
      <trkpt lat="40.9424000" lon="-3.3243750">
        <ele>902.0</ele>
        <time>2020-09-29T15:12:21Z</time>
      </trkpt>
      <trkpt lat="40.9423230" lon="-3.3244520">
        <ele>902.0</ele>
        <time>2020-09-29T15:12:22Z</time>
      </trkpt>
      <trkpt lat="40.9422850" lon="-3.3244870">
        <ele>902.0</ele>
        <time>2020-09-29T15:12:23Z</time>
      </trkpt>
      <trkpt lat="40.9422850" lon="-3.3244870">
        <ele>902.0</ele>
        <time>2020-09-29T15:12:24Z</time>
      </trkpt>
      <trkpt lat="40.9422050" lon="-3.3245530">
        <ele>903.0</ele>
        <time>2020-09-29T15:12:25Z</time>
      </trkpt>
      <trkpt lat="40.9421650" lon="-3.3245880">
        <ele>903.0</ele>
        <time>2020-09-29T15:12:26Z</time>
      </trkpt>
      <trkpt lat="40.9421650" lon="-3.3245880">
        <ele>903.0</ele>
        <time>2020-09-29T15:12:27Z</time>
      </trkpt>
      <trkpt lat="40.9420880" lon="-3.3246620">
        <ele>903.0</ele>
        <time>2020-09-29T15:12:28Z</time>
      </trkpt>
      <trkpt lat="40.9420880" lon="-3.3246620">
        <ele>903.0</ele>
        <time>2020-09-29T15:12:29Z</time>
      </trkpt>
      <trkpt lat="40.9420180" lon="-3.3247420">
        <ele>903.0</ele>
        <time>2020-09-29T15:12:30Z</time>
      </trkpt>
      <trkpt lat="40.9420180" lon="-3.3247420">
        <ele>903.0</ele>
        <time>2020-09-29T15:12:31Z</time>
      </trkpt>
      <trkpt lat="40.9419620" lon="-3.3248430">
        <ele>903.0</ele>
        <time>2020-09-29T15:12:32Z</time>
      </trkpt>
      <trkpt lat="40.9419620" lon="-3.3248430">
        <ele>903.0</ele>
        <time>2020-09-29T15:12:33Z</time>
      </trkpt>
      <trkpt lat="40.9419280" lon="-3.3249670">
        <ele>903.0</ele>
        <time>2020-09-29T15:12:34Z</time>
      </trkpt>
      <trkpt lat="40.9419180" lon="-3.3250320">
        <ele>903.0</ele>
        <time>2020-09-29T15:12:35Z</time>
      </trkpt>
      <trkpt lat="40.9419180" lon="-3.3250320">
        <ele>903.0</ele>
        <time>2020-09-29T15:12:36Z</time>
      </trkpt>
      <trkpt lat="40.9419220" lon="-3.3251670">
        <ele>903.0</ele>
        <time>2020-09-29T15:12:37Z</time>
      </trkpt>
      <trkpt lat="40.9419350" lon="-3.3252350">
        <ele>903.0</ele>
        <time>2020-09-29T15:12:38Z</time>
      </trkpt>
      <trkpt lat="40.9419350" lon="-3.3252350">
        <ele>903.0</ele>
        <time>2020-09-29T15:12:39Z</time>
      </trkpt>
      <trkpt lat="40.9419900" lon="-3.3253630">
        <ele>903.0</ele>
        <time>2020-09-29T15:12:40Z</time>
      </trkpt>
      <trkpt lat="40.9420220" lon="-3.3254250">
        <ele>903.0</ele>
        <time>2020-09-29T15:12:41Z</time>
      </trkpt>
      <trkpt lat="40.9420220" lon="-3.3254250">
        <ele>903.0</ele>
        <time>2020-09-29T15:12:42Z</time>
      </trkpt>
      <trkpt lat="40.9420920" lon="-3.3255480">
        <ele>903.0</ele>
        <time>2020-09-29T15:12:43Z</time>
      </trkpt>
      <trkpt lat="40.9421270" lon="-3.3256080">
        <ele>903.0</ele>
        <time>2020-09-29T15:12:44Z</time>
      </trkpt>
      <trkpt lat="40.9421270" lon="-3.3256080">
        <ele>903.0</ele>
        <time>2020-09-29T15:12:45Z</time>
      </trkpt>
      <trkpt lat="40.9421980" lon="-3.3257280">
        <ele>903.0</ele>
        <time>2020-09-29T15:12:46Z</time>
      </trkpt>
      <trkpt lat="40.9422330" lon="-3.3257820">
        <ele>903.0</ele>
        <time>2020-09-29T15:12:47Z</time>
      </trkpt>
      <trkpt lat="40.9422330" lon="-3.3257820">
        <ele>902.0</ele>
        <time>2020-09-29T15:12:48Z</time>
      </trkpt>
      <trkpt lat="40.9423080" lon="-3.3258880">
        <ele>902.0</ele>
        <time>2020-09-29T15:12:49Z</time>
      </trkpt>
      <trkpt lat="40.9423080" lon="-3.3258880">
        <ele>902.0</ele>
        <time>2020-09-29T15:12:50Z</time>
      </trkpt>
      <trkpt lat="40.9423830" lon="-3.3259980">
        <ele>902.0</ele>
        <time>2020-09-29T15:12:51Z</time>
      </trkpt>
      <trkpt lat="40.9423830" lon="-3.3259980">
        <ele>902.0</ele>
        <time>2020-09-29T15:12:52Z</time>
      </trkpt>
      <trkpt lat="40.9424600" lon="-3.3260970">
        <ele>902.0</ele>
        <time>2020-09-29T15:12:53Z</time>
      </trkpt>
      <trkpt lat="40.9424980" lon="-3.3261420">
        <ele>902.0</ele>
        <time>2020-09-29T15:12:54Z</time>
      </trkpt>
      <trkpt lat="40.9424980" lon="-3.3261420">
        <ele>902.0</ele>
        <time>2020-09-29T15:12:55Z</time>
      </trkpt>
      <trkpt lat="40.9425700" lon="-3.3262330">
        <ele>902.0</ele>
        <time>2020-09-29T15:12:56Z</time>
      </trkpt>
      <trkpt lat="40.9425700" lon="-3.3262330">
        <ele>902.0</ele>
        <time>2020-09-29T15:12:57Z</time>
      </trkpt>
      <trkpt lat="40.9426320" lon="-3.3263250">
        <ele>902.0</ele>
        <time>2020-09-29T15:12:58Z</time>
      </trkpt>
      <trkpt lat="40.9426320" lon="-3.3263250">
        <ele>902.0</ele>
        <time>2020-09-29T15:12:59Z</time>
      </trkpt>
      <trkpt lat="40.9426950" lon="-3.3264100">
        <ele>902.0</ele>
        <time>2020-09-29T15:13:00Z</time>
      </trkpt>
      <trkpt lat="40.9427270" lon="-3.3264570">
        <ele>902.0</ele>
        <time>2020-09-29T15:13:01Z</time>
      </trkpt>
      <trkpt lat="40.9427270" lon="-3.3264570">
        <ele>901.0</ele>
        <time>2020-09-29T15:13:02Z</time>
      </trkpt>
      <trkpt lat="40.9427950" lon="-3.3265520">
        <ele>901.0</ele>
        <time>2020-09-29T15:13:03Z</time>
      </trkpt>
      <trkpt lat="40.9427950" lon="-3.3265520">
        <ele>901.0</ele>
        <time>2020-09-29T15:13:04Z</time>
      </trkpt>
      <trkpt lat="40.9428680" lon="-3.3266450">
        <ele>901.0</ele>
        <time>2020-09-29T15:13:05Z</time>
      </trkpt>
      <trkpt lat="40.9429070" lon="-3.3266930">
        <ele>901.0</ele>
        <time>2020-09-29T15:13:06Z</time>
      </trkpt>
      <trkpt lat="40.9429070" lon="-3.3266930">
        <ele>901.0</ele>
        <time>2020-09-29T15:13:07Z</time>
      </trkpt>
      <trkpt lat="40.9429780" lon="-3.3267950">
        <ele>901.0</ele>
        <time>2020-09-29T15:13:08Z</time>
      </trkpt>
      <trkpt lat="40.9429780" lon="-3.3267950">
        <ele>901.0</ele>
        <time>2020-09-29T15:13:09Z</time>
      </trkpt>
      <trkpt lat="40.9430380" lon="-3.3269150">
        <ele>901.0</ele>
        <time>2020-09-29T15:13:10Z</time>
      </trkpt>
      <trkpt lat="40.9430380" lon="-3.3269150">
        <ele>901.0</ele>
        <time>2020-09-29T15:13:11Z</time>
      </trkpt>
      <trkpt lat="40.9430720" lon="-3.3270480">
        <ele>901.0</ele>
        <time>2020-09-29T15:13:12Z</time>
      </trkpt>
      <trkpt lat="40.9430780" lon="-3.3271170">
        <ele>901.0</ele>
        <time>2020-09-29T15:13:13Z</time>
      </trkpt>
      <trkpt lat="40.9430800" lon="-3.3271830">
        <ele>901.0</ele>
        <time>2020-09-29T15:13:14Z</time>
      </trkpt>
      <trkpt lat="40.9430800" lon="-3.3271830">
        <ele>901.0</ele>
        <time>2020-09-29T15:13:15Z</time>
      </trkpt>
      <trkpt lat="40.9430720" lon="-3.3273180">
        <ele>901.0</ele>
        <time>2020-09-29T15:13:16Z</time>
      </trkpt>
      <trkpt lat="40.9430720" lon="-3.3273180">
        <ele>901.0</ele>
        <time>2020-09-29T15:13:17Z</time>
      </trkpt>
      <trkpt lat="40.9430330" lon="-3.3274470">
        <ele>901.0</ele>
        <time>2020-09-29T15:13:18Z</time>
      </trkpt>
      <trkpt lat="40.9430330" lon="-3.3274470">
        <ele>901.0</ele>
        <time>2020-09-29T15:13:19Z</time>
      </trkpt>
      <trkpt lat="40.9429580" lon="-3.3275450">
        <ele>901.0</ele>
        <time>2020-09-29T15:13:20Z</time>
      </trkpt>
      <trkpt lat="40.9429580" lon="-3.3275450">
        <ele>901.0</ele>
        <time>2020-09-29T15:13:21Z</time>
      </trkpt>
      <trkpt lat="40.9428600" lon="-3.3275920">
        <ele>901.0</ele>
        <time>2020-09-29T15:13:22Z</time>
      </trkpt>
      <trkpt lat="40.9428600" lon="-3.3275920">
        <ele>901.0</ele>
        <time>2020-09-29T15:13:23Z</time>
      </trkpt>
      <trkpt lat="40.9427550" lon="-3.3276030">
        <ele>901.0</ele>
        <time>2020-09-29T15:13:24Z</time>
      </trkpt>
      <trkpt lat="40.9427550" lon="-3.3276030">
        <ele>901.0</ele>
        <time>2020-09-29T15:13:25Z</time>
      </trkpt>
      <trkpt lat="40.9426480" lon="-3.3275880">
        <ele>901.0</ele>
        <time>2020-09-29T15:13:26Z</time>
      </trkpt>
      <trkpt lat="40.9426480" lon="-3.3275880">
        <ele>901.0</ele>
        <time>2020-09-29T15:13:27Z</time>
      </trkpt>
      <trkpt lat="40.9425450" lon="-3.3275480">
        <ele>901.0</ele>
        <time>2020-09-29T15:13:28Z</time>
      </trkpt>
      <trkpt lat="40.9424930" lon="-3.3275220">
        <ele>901.0</ele>
        <time>2020-09-29T15:13:29Z</time>
      </trkpt>
      <trkpt lat="40.9424930" lon="-3.3275220">
        <ele>901.0</ele>
        <time>2020-09-29T15:13:30Z</time>
      </trkpt>
      <trkpt lat="40.9423950" lon="-3.3274620">
        <ele>901.0</ele>
        <time>2020-09-29T15:13:31Z</time>
      </trkpt>
      <trkpt lat="40.9423470" lon="-3.3274330">
        <ele>901.0</ele>
        <time>2020-09-29T15:13:32Z</time>
      </trkpt>
      <trkpt lat="40.9423470" lon="-3.3274330">
        <ele>901.0</ele>
        <time>2020-09-29T15:13:33Z</time>
      </trkpt>
      <trkpt lat="40.9422480" lon="-3.3273730">
        <ele>901.0</ele>
        <time>2020-09-29T15:13:34Z</time>
      </trkpt>
      <trkpt lat="40.9422020" lon="-3.3273430">
        <ele>901.0</ele>
        <time>2020-09-29T15:13:35Z</time>
      </trkpt>
      <trkpt lat="40.9422020" lon="-3.3273430">
        <ele>901.0</ele>
        <time>2020-09-29T15:13:36Z</time>
      </trkpt>
      <trkpt lat="40.9421080" lon="-3.3272780">
        <ele>901.0</ele>
        <time>2020-09-29T15:13:37Z</time>
      </trkpt>
      <trkpt lat="40.9420620" lon="-3.3272430">
        <ele>901.0</ele>
        <time>2020-09-29T15:13:38Z</time>
      </trkpt>
      <trkpt lat="40.9420620" lon="-3.3272430">
        <ele>901.0</ele>
        <time>2020-09-29T15:13:39Z</time>
      </trkpt>
      <trkpt lat="40.9419670" lon="-3.3271850">
        <ele>901.0</ele>
        <time>2020-09-29T15:13:40Z</time>
      </trkpt>
      <trkpt lat="40.9419670" lon="-3.3271850">
        <ele>901.0</ele>
        <time>2020-09-29T15:13:41Z</time>
      </trkpt>
      <trkpt lat="40.9418720" lon="-3.3271270">
        <ele>901.0</ele>
        <time>2020-09-29T15:13:42Z</time>
      </trkpt>
      <trkpt lat="40.9418250" lon="-3.3270950">
        <ele>901.0</ele>
        <time>2020-09-29T15:13:43Z</time>
      </trkpt>
      <trkpt lat="40.9418250" lon="-3.3270950">
        <ele>901.0</ele>
        <time>2020-09-29T15:13:44Z</time>
      </trkpt>
      <trkpt lat="40.9417320" lon="-3.3270430">
        <ele>901.0</ele>
        <time>2020-09-29T15:13:45Z</time>
      </trkpt>
      <trkpt lat="40.9416820" lon="-3.3270170">
        <ele>901.0</ele>
        <time>2020-09-29T15:13:46Z</time>
      </trkpt>
      <trkpt lat="40.9416820" lon="-3.3270170">
        <ele>901.0</ele>
        <time>2020-09-29T15:13:47Z</time>
      </trkpt>
      <trkpt lat="40.9415770" lon="-3.3269670">
        <ele>901.0</ele>
        <time>2020-09-29T15:13:48Z</time>
      </trkpt>
      <trkpt lat="40.9415220" lon="-3.3269420">
        <ele>901.0</ele>
        <time>2020-09-29T15:13:49Z</time>
      </trkpt>
      <trkpt lat="40.9414670" lon="-3.3269150">
        <ele>901.0</ele>
        <time>2020-09-29T15:13:50Z</time>
      </trkpt>
      <trkpt lat="40.9414670" lon="-3.3269150">
        <ele>901.0</ele>
        <time>2020-09-29T15:13:51Z</time>
      </trkpt>
      <trkpt lat="40.9413550" lon="-3.3268570">
        <ele>901.0</ele>
        <time>2020-09-29T15:13:52Z</time>
      </trkpt>
      <trkpt lat="40.9413000" lon="-3.3268230">
        <ele>901.0</ele>
        <time>2020-09-29T15:13:53Z</time>
      </trkpt>
      <trkpt lat="40.9413000" lon="-3.3268230">
        <ele>901.0</ele>
        <time>2020-09-29T15:13:54Z</time>
      </trkpt>
      <trkpt lat="40.9412030" lon="-3.3267530">
        <ele>901.0</ele>
        <time>2020-09-29T15:13:55Z</time>
      </trkpt>
      <trkpt lat="40.9411550" lon="-3.3267200">
        <ele>901.0</ele>
        <time>2020-09-29T15:13:56Z</time>
      </trkpt>
      <trkpt lat="40.9411550" lon="-3.3267200">
        <ele>901.0</ele>
        <time>2020-09-29T15:13:57Z</time>
      </trkpt>
      <trkpt lat="40.9410570" lon="-3.3266700">
        <ele>901.0</ele>
        <time>2020-09-29T15:13:58Z</time>
      </trkpt>
      <trkpt lat="40.9410070" lon="-3.3266530">
        <ele>901.0</ele>
        <time>2020-09-29T15:13:59Z</time>
      </trkpt>
      <trkpt lat="40.9410070" lon="-3.3266530">
        <ele>901.0</ele>
        <time>2020-09-29T15:14:00Z</time>
      </trkpt>
      <trkpt lat="40.9409020" lon="-3.3266500">
        <ele>901.0</ele>
        <time>2020-09-29T15:14:01Z</time>
      </trkpt>
      <trkpt lat="40.9409020" lon="-3.3266500">
        <ele>901.0</ele>
        <time>2020-09-29T15:14:02Z</time>
      </trkpt>
      <trkpt lat="40.9408070" lon="-3.3267030">
        <ele>902.0</ele>
        <time>2020-09-29T15:14:03Z</time>
      </trkpt>
      <trkpt lat="40.9407680" lon="-3.3267450">
        <ele>902.0</ele>
        <time>2020-09-29T15:14:04Z</time>
      </trkpt>
      <trkpt lat="40.9407300" lon="-3.3267930">
        <ele>902.0</ele>
        <time>2020-09-29T15:14:05Z</time>
      </trkpt>
      <trkpt lat="40.9407300" lon="-3.3267930">
        <ele>902.0</ele>
        <time>2020-09-29T15:14:06Z</time>
      </trkpt>
      <trkpt lat="40.9406570" lon="-3.3268980">
        <ele>902.0</ele>
        <time>2020-09-29T15:14:07Z</time>
      </trkpt>
      <trkpt lat="40.9406170" lon="-3.3269520">
        <ele>902.0</ele>
        <time>2020-09-29T15:14:08Z</time>
      </trkpt>
      <trkpt lat="40.9406170" lon="-3.3269520">
        <ele>901.0</ele>
        <time>2020-09-29T15:14:09Z</time>
      </trkpt>
      <trkpt lat="40.9405380" lon="-3.3270630">
        <ele>901.0</ele>
        <time>2020-09-29T15:14:10Z</time>
      </trkpt>
      <trkpt lat="40.9404970" lon="-3.3271200">
        <ele>901.0</ele>
        <time>2020-09-29T15:14:11Z</time>
      </trkpt>
      <trkpt lat="40.9404970" lon="-3.3271200">
        <ele>901.0</ele>
        <time>2020-09-29T15:14:12Z</time>
      </trkpt>
      <trkpt lat="40.9404130" lon="-3.3272370">
        <ele>901.0</ele>
        <time>2020-09-29T15:14:13Z</time>
      </trkpt>
      <trkpt lat="40.9403700" lon="-3.3272930">
        <ele>901.0</ele>
        <time>2020-09-29T15:14:14Z</time>
      </trkpt>
      <trkpt lat="40.9403700" lon="-3.3272930">
        <ele>901.0</ele>
        <time>2020-09-29T15:14:15Z</time>
      </trkpt>
      <trkpt lat="40.9402920" lon="-3.3274080">
        <ele>901.0</ele>
        <time>2020-09-29T15:14:16Z</time>
      </trkpt>
      <trkpt lat="40.9402920" lon="-3.3274080">
        <ele>901.0</ele>
        <time>2020-09-29T15:14:17Z</time>
      </trkpt>
      <trkpt lat="40.9402180" lon="-3.3275230">
        <ele>901.0</ele>
        <time>2020-09-29T15:14:18Z</time>
      </trkpt>
      <trkpt lat="40.9402180" lon="-3.3275230">
        <ele>901.0</ele>
        <time>2020-09-29T15:14:19Z</time>
      </trkpt>
      <trkpt lat="40.9401580" lon="-3.3276450">
        <ele>901.0</ele>
        <time>2020-09-29T15:14:20Z</time>
      </trkpt>
      <trkpt lat="40.9401420" lon="-3.3277130">
        <ele>901.0</ele>
        <time>2020-09-29T15:14:21Z</time>
      </trkpt>
      <trkpt lat="40.9401420" lon="-3.3277130">
        <ele>901.0</ele>
        <time>2020-09-29T15:14:22Z</time>
      </trkpt>
      <trkpt lat="40.9401420" lon="-3.3278600">
        <ele>901.0</ele>
        <time>2020-09-29T15:14:23Z</time>
      </trkpt>
      <trkpt lat="40.9401420" lon="-3.3278600">
        <ele>901.0</ele>
        <time>2020-09-29T15:14:24Z</time>
      </trkpt>
      <trkpt lat="40.9401650" lon="-3.3280150">
        <ele>901.0</ele>
        <time>2020-09-29T15:14:25Z</time>
      </trkpt>
      <trkpt lat="40.9401800" lon="-3.3280900">
        <ele>901.0</ele>
        <time>2020-09-29T15:14:26Z</time>
      </trkpt>
      <trkpt lat="40.9401800" lon="-3.3280900">
        <ele>901.0</ele>
        <time>2020-09-29T15:14:27Z</time>
      </trkpt>
      <trkpt lat="40.9402080" lon="-3.3282480">
        <ele>901.0</ele>
        <time>2020-09-29T15:14:28Z</time>
      </trkpt>
      <trkpt lat="40.9402230" lon="-3.3283320">
        <ele>901.0</ele>
        <time>2020-09-29T15:14:29Z</time>
      </trkpt>
      <trkpt lat="40.9402230" lon="-3.3283320">
        <ele>901.0</ele>
        <time>2020-09-29T15:14:30Z</time>
      </trkpt>
      <trkpt lat="40.9402530" lon="-3.3285000">
        <ele>901.0</ele>
        <time>2020-09-29T15:14:31Z</time>
      </trkpt>
      <trkpt lat="40.9402530" lon="-3.3285000">
        <ele>901.0</ele>
        <time>2020-09-29T15:14:32Z</time>
      </trkpt>
      <trkpt lat="40.9402770" lon="-3.3286700">
        <ele>900.0</ele>
        <time>2020-09-29T15:14:33Z</time>
      </trkpt>
      <trkpt lat="40.9402880" lon="-3.3287530">
        <ele>900.0</ele>
        <time>2020-09-29T15:14:34Z</time>
      </trkpt>
      <trkpt lat="40.9402880" lon="-3.3287530">
        <ele>900.0</ele>
        <time>2020-09-29T15:14:35Z</time>
      </trkpt>
      <trkpt lat="40.9403220" lon="-3.3289170">
        <ele>900.0</ele>
        <time>2020-09-29T15:14:36Z</time>
      </trkpt>
      <trkpt lat="40.9403220" lon="-3.3289170">
        <ele>900.0</ele>
        <time>2020-09-29T15:14:37Z</time>
      </trkpt>
      <trkpt lat="40.9403450" lon="-3.3290700">
        <ele>900.0</ele>
        <time>2020-09-29T15:14:38Z</time>
      </trkpt>
      <trkpt lat="40.9403450" lon="-3.3290700">
        <ele>900.0</ele>
        <time>2020-09-29T15:14:39Z</time>
      </trkpt>
      <trkpt lat="40.9403770" lon="-3.3292170">
        <ele>900.0</ele>
        <time>2020-09-29T15:14:40Z</time>
      </trkpt>
      <trkpt lat="40.9403770" lon="-3.3292170">
        <ele>900.0</ele>
        <time>2020-09-29T15:14:41Z</time>
      </trkpt>
      <trkpt lat="40.9404320" lon="-3.3293580">
        <ele>900.0</ele>
        <time>2020-09-29T15:14:42Z</time>
      </trkpt>
      <trkpt lat="40.9404320" lon="-3.3293580">
        <ele>900.0</ele>
        <time>2020-09-29T15:14:43Z</time>
      </trkpt>
      <trkpt lat="40.9405050" lon="-3.3294870">
        <ele>900.0</ele>
        <time>2020-09-29T15:14:44Z</time>
      </trkpt>
      <trkpt lat="40.9405050" lon="-3.3294870">
        <ele>900.0</ele>
        <time>2020-09-29T15:14:45Z</time>
      </trkpt>
      <trkpt lat="40.9405920" lon="-3.3296030">
        <ele>899.0</ele>
        <time>2020-09-29T15:14:46Z</time>
      </trkpt>
      <trkpt lat="40.9406300" lon="-3.3296720">
        <ele>899.0</ele>
        <time>2020-09-29T15:14:47Z</time>
      </trkpt>
      <trkpt lat="40.9406300" lon="-3.3296720">
        <ele>899.0</ele>
        <time>2020-09-29T15:14:48Z</time>
      </trkpt>
      <trkpt lat="40.9406650" lon="-3.3298400">
        <ele>899.0</ele>
        <time>2020-09-29T15:14:49Z</time>
      </trkpt>
      <trkpt lat="40.9406400" lon="-3.3299280">
        <ele>899.0</ele>
        <time>2020-09-29T15:14:50Z</time>
      </trkpt>
      <trkpt lat="40.9405500" lon="-3.3300350">
        <ele>899.0</ele>
        <time>2020-09-29T15:14:51Z</time>
      </trkpt>
      <trkpt lat="40.9405500" lon="-3.3300350">
        <ele>899.0</ele>
        <time>2020-09-29T15:14:52Z</time>
      </trkpt>
      <trkpt lat="40.9404900" lon="-3.3300430">
        <ele>899.0</ele>
        <time>2020-09-29T15:14:53Z</time>
      </trkpt>
      <trkpt lat="40.9404900" lon="-3.3300430">
        <ele>899.0</ele>
        <time>2020-09-29T15:14:54Z</time>
      </trkpt>
      <trkpt lat="40.9403750" lon="-3.3300530">
        <ele>899.0</ele>
        <time>2020-09-29T15:14:55Z</time>
      </trkpt>
      <trkpt lat="40.9403200" lon="-3.3300600">
        <ele>899.0</ele>
        <time>2020-09-29T15:14:56Z</time>
      </trkpt>
      <trkpt lat="40.9403200" lon="-3.3300600">
        <ele>899.0</ele>
        <time>2020-09-29T15:14:57Z</time>
      </trkpt>
      <trkpt lat="40.9402270" lon="-3.3300970">
        <ele>899.0</ele>
        <time>2020-09-29T15:14:58Z</time>
      </trkpt>
      <trkpt lat="40.9402270" lon="-3.3300970">
        <ele>899.0</ele>
        <time>2020-09-29T15:14:59Z</time>
      </trkpt>
      <trkpt lat="40.9401620" lon="-3.3301700">
        <ele>900.0</ele>
        <time>2020-09-29T15:15:00Z</time>
      </trkpt>
      <trkpt lat="40.9401620" lon="-3.3301700">
        <ele>900.0</ele>
        <time>2020-09-29T15:15:01Z</time>
      </trkpt>
      <trkpt lat="40.9401130" lon="-3.3302600">
        <ele>900.0</ele>
        <time>2020-09-29T15:15:02Z</time>
      </trkpt>
      <trkpt lat="40.9401130" lon="-3.3302600">
        <ele>901.0</ele>
        <time>2020-09-29T15:15:03Z</time>
      </trkpt>
      <trkpt lat="40.9400720" lon="-3.3303600">
        <ele>901.0</ele>
        <time>2020-09-29T15:15:04Z</time>
      </trkpt>
      <trkpt lat="40.9400720" lon="-3.3303600">
        <ele>902.0</ele>
        <time>2020-09-29T15:15:05Z</time>
      </trkpt>
      <trkpt lat="40.9400350" lon="-3.3304630">
        <ele>902.0</ele>
        <time>2020-09-29T15:15:06Z</time>
      </trkpt>
      <trkpt lat="40.9400350" lon="-3.3304630">
        <ele>902.0</ele>
        <time>2020-09-29T15:15:07Z</time>
      </trkpt>
      <trkpt lat="40.9399950" lon="-3.3305650">
        <ele>902.0</ele>
        <time>2020-09-29T15:15:08Z</time>
      </trkpt>
      <trkpt lat="40.9399950" lon="-3.3305650">
        <ele>903.0</ele>
        <time>2020-09-29T15:15:09Z</time>
      </trkpt>
      <trkpt lat="40.9399530" lon="-3.3306630">
        <ele>903.0</ele>
        <time>2020-09-29T15:15:10Z</time>
      </trkpt>
      <trkpt lat="40.9399530" lon="-3.3306630">
        <ele>903.0</ele>
        <time>2020-09-29T15:15:11Z</time>
      </trkpt>
      <trkpt lat="40.9399130" lon="-3.3307670">
        <ele>903.0</ele>
        <time>2020-09-29T15:15:12Z</time>
      </trkpt>
      <trkpt lat="40.9399130" lon="-3.3307670">
        <ele>904.0</ele>
        <time>2020-09-29T15:15:13Z</time>
      </trkpt>
      <trkpt lat="40.9398720" lon="-3.3308670">
        <ele>904.0</ele>
        <time>2020-09-29T15:15:14Z</time>
      </trkpt>
      <trkpt lat="40.9398720" lon="-3.3308670">
        <ele>904.0</ele>
        <time>2020-09-29T15:15:15Z</time>
      </trkpt>
      <trkpt lat="40.9398150" lon="-3.3309580">
        <ele>904.0</ele>
        <time>2020-09-29T15:15:16Z</time>
      </trkpt>
      <trkpt lat="40.9398150" lon="-3.3309580">
        <ele>904.0</ele>
        <time>2020-09-29T15:15:17Z</time>
      </trkpt>
      <trkpt lat="40.9397330" lon="-3.3310180">
        <ele>904.0</ele>
        <time>2020-09-29T15:15:18Z</time>
      </trkpt>
      <trkpt lat="40.9397330" lon="-3.3310180">
        <ele>904.0</ele>
        <time>2020-09-29T15:15:19Z</time>
      </trkpt>
      <trkpt lat="40.9396430" lon="-3.3310070">
        <ele>904.0</ele>
        <time>2020-09-29T15:15:20Z</time>
      </trkpt>
      <trkpt lat="40.9396430" lon="-3.3310070">
        <ele>904.0</ele>
        <time>2020-09-29T15:15:21Z</time>
      </trkpt>
      <trkpt lat="40.9395720" lon="-3.3309480">
        <ele>904.0</ele>
        <time>2020-09-29T15:15:22Z</time>
      </trkpt>
      <trkpt lat="40.9395720" lon="-3.3309480">
        <ele>905.0</ele>
        <time>2020-09-29T15:15:23Z</time>
      </trkpt>
      <trkpt lat="40.9395130" lon="-3.3308620">
        <ele>905.0</ele>
        <time>2020-09-29T15:15:24Z</time>
      </trkpt>
      <trkpt lat="40.9394870" lon="-3.3308150">
        <ele>905.0</ele>
        <time>2020-09-29T15:15:25Z</time>
      </trkpt>
      <trkpt lat="40.9394580" lon="-3.3307680">
        <ele>905.0</ele>
        <time>2020-09-29T15:15:26Z</time>
      </trkpt>
      <trkpt lat="40.9394580" lon="-3.3307680">
        <ele>905.0</ele>
        <time>2020-09-29T15:15:27Z</time>
      </trkpt>
      <trkpt lat="40.9394000" lon="-3.3306700">
        <ele>905.0</ele>
        <time>2020-09-29T15:15:28Z</time>
      </trkpt>
      <trkpt lat="40.9394000" lon="-3.3306700">
        <ele>906.0</ele>
        <time>2020-09-29T15:15:29Z</time>
      </trkpt>
      <trkpt lat="40.9393380" lon="-3.3305720">
        <ele>906.0</ele>
        <time>2020-09-29T15:15:30Z</time>
      </trkpt>
      <trkpt lat="40.9393380" lon="-3.3305720">
        <ele>906.0</ele>
        <time>2020-09-29T15:15:31Z</time>
      </trkpt>
      <trkpt lat="40.9392780" lon="-3.3304720">
        <ele>906.0</ele>
        <time>2020-09-29T15:15:32Z</time>
      </trkpt>
      <trkpt lat="40.9392780" lon="-3.3304720">
        <ele>906.0</ele>
        <time>2020-09-29T15:15:33Z</time>
      </trkpt>
      <trkpt lat="40.9392070" lon="-3.3303800">
        <ele>906.0</ele>
        <time>2020-09-29T15:15:34Z</time>
      </trkpt>
      <trkpt lat="40.9391650" lon="-3.3303480">
        <ele>906.0</ele>
        <time>2020-09-29T15:15:35Z</time>
      </trkpt>
      <trkpt lat="40.9391650" lon="-3.3303480">
        <ele>906.0</ele>
        <time>2020-09-29T15:15:36Z</time>
      </trkpt>
      <trkpt lat="40.9390630" lon="-3.3303330">
        <ele>906.0</ele>
        <time>2020-09-29T15:15:37Z</time>
      </trkpt>
      <trkpt lat="40.9390180" lon="-3.3303620">
        <ele>906.0</ele>
        <time>2020-09-29T15:15:38Z</time>
      </trkpt>
      <trkpt lat="40.9390180" lon="-3.3303620">
        <ele>906.0</ele>
        <time>2020-09-29T15:15:39Z</time>
      </trkpt>
      <trkpt lat="40.9389580" lon="-3.3304670">
        <ele>906.0</ele>
        <time>2020-09-29T15:15:40Z</time>
      </trkpt>
      <trkpt lat="40.9389420" lon="-3.3305300">
        <ele>906.0</ele>
        <time>2020-09-29T15:15:41Z</time>
      </trkpt>
      <trkpt lat="40.9389420" lon="-3.3305300">
        <ele>906.0</ele>
        <time>2020-09-29T15:15:42Z</time>
      </trkpt>
      <trkpt lat="40.9389130" lon="-3.3306600">
        <ele>906.0</ele>
        <time>2020-09-29T15:15:43Z</time>
      </trkpt>
      <trkpt lat="40.9388900" lon="-3.3307200">
        <ele>906.0</ele>
        <time>2020-09-29T15:15:44Z</time>
      </trkpt>
      <trkpt lat="40.9388900" lon="-3.3307200">
        <ele>906.0</ele>
        <time>2020-09-29T15:15:45Z</time>
      </trkpt>
      <trkpt lat="40.9388130" lon="-3.3308150">
        <ele>906.0</ele>
        <time>2020-09-29T15:15:46Z</time>
      </trkpt>
      <trkpt lat="40.9387650" lon="-3.3308280">
        <ele>906.0</ele>
        <time>2020-09-29T15:15:47Z</time>
      </trkpt>
      <trkpt lat="40.9387650" lon="-3.3308280">
        <ele>906.0</ele>
        <time>2020-09-29T15:15:48Z</time>
      </trkpt>
      <trkpt lat="40.9386670" lon="-3.3308100">
        <ele>906.0</ele>
        <time>2020-09-29T15:15:49Z</time>
      </trkpt>
      <trkpt lat="40.9386250" lon="-3.3307880">
        <ele>906.0</ele>
        <time>2020-09-29T15:15:50Z</time>
      </trkpt>
      <trkpt lat="40.9386250" lon="-3.3307880">
        <ele>906.0</ele>
        <time>2020-09-29T15:15:51Z</time>
      </trkpt>
      <trkpt lat="40.9385400" lon="-3.3307330">
        <ele>906.0</ele>
        <time>2020-09-29T15:15:52Z</time>
      </trkpt>
      <trkpt lat="40.9385000" lon="-3.3307020">
        <ele>906.0</ele>
        <time>2020-09-29T15:15:53Z</time>
      </trkpt>
      <trkpt lat="40.9385000" lon="-3.3307020">
        <ele>906.0</ele>
        <time>2020-09-29T15:15:54Z</time>
      </trkpt>
      <trkpt lat="40.9384180" lon="-3.3306520">
        <ele>906.0</ele>
        <time>2020-09-29T15:15:55Z</time>
      </trkpt>
      <trkpt lat="40.9383770" lon="-3.3306300">
        <ele>906.0</ele>
        <time>2020-09-29T15:15:56Z</time>
      </trkpt>
      <trkpt lat="40.9383770" lon="-3.3306300">
        <ele>906.0</ele>
        <time>2020-09-29T15:15:57Z</time>
      </trkpt>
      <trkpt lat="40.9382920" lon="-3.3305880">
        <ele>906.0</ele>
        <time>2020-09-29T15:15:58Z</time>
      </trkpt>
      <trkpt lat="40.9382480" lon="-3.3305680">
        <ele>906.0</ele>
        <time>2020-09-29T15:15:59Z</time>
      </trkpt>
      <trkpt lat="40.9382030" lon="-3.3305500">
        <ele>906.0</ele>
        <time>2020-09-29T15:16:00Z</time>
      </trkpt>
      <trkpt lat="40.9382030" lon="-3.3305500">
        <ele>907.0</ele>
        <time>2020-09-29T15:16:01Z</time>
      </trkpt>
      <trkpt lat="40.9381120" lon="-3.3305430">
        <ele>907.0</ele>
        <time>2020-09-29T15:16:02Z</time>
      </trkpt>
      <trkpt lat="40.9381120" lon="-3.3305430">
        <ele>907.0</ele>
        <time>2020-09-29T15:16:03Z</time>
      </trkpt>
      <trkpt lat="40.9380170" lon="-3.3305700">
        <ele>907.0</ele>
        <time>2020-09-29T15:16:04Z</time>
      </trkpt>
      <trkpt lat="40.9379730" lon="-3.3305920">
        <ele>908.0</ele>
        <time>2020-09-29T15:16:05Z</time>
      </trkpt>
      <trkpt lat="40.9379730" lon="-3.3305920">
        <ele>908.0</ele>
        <time>2020-09-29T15:16:06Z</time>
      </trkpt>
      <trkpt lat="40.9378920" lon="-3.3306420">
        <ele>908.0</ele>
        <time>2020-09-29T15:16:07Z</time>
      </trkpt>
      <trkpt lat="40.9378520" lon="-3.3306620">
        <ele>908.0</ele>
        <time>2020-09-29T15:16:08Z</time>
      </trkpt>
      <trkpt lat="40.9378520" lon="-3.3306620">
        <ele>909.0</ele>
        <time>2020-09-29T15:16:09Z</time>
      </trkpt>
      <trkpt lat="40.9377770" lon="-3.3306720">
        <ele>909.0</ele>
        <time>2020-09-29T15:16:10Z</time>
      </trkpt>
      <trkpt lat="40.9377770" lon="-3.3306720">
        <ele>909.0</ele>
        <time>2020-09-29T15:16:11Z</time>
      </trkpt>
      <trkpt lat="40.9377070" lon="-3.3306370">
        <ele>909.0</ele>
        <time>2020-09-29T15:16:12Z</time>
      </trkpt>
      <trkpt lat="40.9377070" lon="-3.3306370">
        <ele>910.0</ele>
        <time>2020-09-29T15:16:13Z</time>
      </trkpt>
      <trkpt lat="40.9376430" lon="-3.3305730">
        <ele>910.0</ele>
        <time>2020-09-29T15:16:14Z</time>
      </trkpt>
      <trkpt lat="40.9376430" lon="-3.3305730">
        <ele>910.0</ele>
        <time>2020-09-29T15:16:15Z</time>
      </trkpt>
      <trkpt lat="40.9375950" lon="-3.3304930">
        <ele>910.0</ele>
        <time>2020-09-29T15:16:16Z</time>
      </trkpt>
      <trkpt lat="40.9375950" lon="-3.3304930">
        <ele>911.0</ele>
        <time>2020-09-29T15:16:17Z</time>
      </trkpt>
      <trkpt lat="40.9375550" lon="-3.3304080">
        <ele>911.0</ele>
        <time>2020-09-29T15:16:18Z</time>
      </trkpt>
      <trkpt lat="40.9375320" lon="-3.3303670">
        <ele>912.0</ele>
        <time>2020-09-29T15:16:19Z</time>
      </trkpt>
      <trkpt lat="40.9375120" lon="-3.3303220">
        <ele>912.0</ele>
        <time>2020-09-29T15:16:20Z</time>
      </trkpt>
      <trkpt lat="40.9375120" lon="-3.3303220">
        <ele>912.0</ele>
        <time>2020-09-29T15:16:21Z</time>
      </trkpt>
      <trkpt lat="40.9374700" lon="-3.3302370">
        <ele>912.0</ele>
        <time>2020-09-29T15:16:22Z</time>
      </trkpt>
      <trkpt lat="40.9374400" lon="-3.3302030">
        <ele>912.0</ele>
        <time>2020-09-29T15:16:23Z</time>
      </trkpt>
      <trkpt lat="40.9374400" lon="-3.3302030">
        <ele>912.0</ele>
        <time>2020-09-29T15:16:24Z</time>
      </trkpt>
      <trkpt lat="40.9373730" lon="-3.3301430">
        <ele>912.0</ele>
        <time>2020-09-29T15:16:25Z</time>
      </trkpt>
      <trkpt lat="40.9373370" lon="-3.3301280">
        <ele>912.0</ele>
        <time>2020-09-29T15:16:26Z</time>
      </trkpt>
      <trkpt lat="40.9373370" lon="-3.3301280">
        <ele>912.0</ele>
        <time>2020-09-29T15:16:27Z</time>
      </trkpt>
      <trkpt lat="40.9372620" lon="-3.3301500">
        <ele>912.0</ele>
        <time>2020-09-29T15:16:28Z</time>
      </trkpt>
      <trkpt lat="40.9372620" lon="-3.3301500">
        <ele>912.0</ele>
        <time>2020-09-29T15:16:29Z</time>
      </trkpt>
      <trkpt lat="40.9372030" lon="-3.3302300">
        <ele>912.0</ele>
        <time>2020-09-29T15:16:30Z</time>
      </trkpt>
      <trkpt lat="40.9372030" lon="-3.3302300">
        <ele>912.0</ele>
        <time>2020-09-29T15:16:31Z</time>
      </trkpt>
      <trkpt lat="40.9371600" lon="-3.3303470">
        <ele>912.0</ele>
        <time>2020-09-29T15:16:32Z</time>
      </trkpt>
      <trkpt lat="40.9371600" lon="-3.3303470">
        <ele>912.0</ele>
        <time>2020-09-29T15:16:33Z</time>
      </trkpt>
      <trkpt lat="40.9371250" lon="-3.3304820">
        <ele>912.0</ele>
        <time>2020-09-29T15:16:34Z</time>
      </trkpt>
      <trkpt lat="40.9371050" lon="-3.3305550">
        <ele>912.0</ele>
        <time>2020-09-29T15:16:35Z</time>
      </trkpt>
      <trkpt lat="40.9371050" lon="-3.3305550">
        <ele>912.0</ele>
        <time>2020-09-29T15:16:36Z</time>
      </trkpt>
      <trkpt lat="40.9370630" lon="-3.3307100">
        <ele>912.0</ele>
        <time>2020-09-29T15:16:37Z</time>
      </trkpt>
      <trkpt lat="40.9370630" lon="-3.3307100">
        <ele>912.0</ele>
        <time>2020-09-29T15:16:38Z</time>
      </trkpt>
      <trkpt lat="40.9370270" lon="-3.3308680">
        <ele>912.0</ele>
        <time>2020-09-29T15:16:39Z</time>
      </trkpt>
      <trkpt lat="40.9370270" lon="-3.3308680">
        <ele>911.0</ele>
        <time>2020-09-29T15:16:40Z</time>
      </trkpt>
      <trkpt lat="40.9369650" lon="-3.3310200">
        <ele>911.0</ele>
        <time>2020-09-29T15:16:41Z</time>
      </trkpt>
      <trkpt lat="40.9369220" lon="-3.3310920">
        <ele>911.0</ele>
        <time>2020-09-29T15:16:42Z</time>
      </trkpt>
      <trkpt lat="40.9369220" lon="-3.3310920">
        <ele>911.0</ele>
        <time>2020-09-29T15:16:43Z</time>
      </trkpt>
      <trkpt lat="40.9368070" lon="-3.3311950">
        <ele>910.0</ele>
        <time>2020-09-29T15:16:44Z</time>
      </trkpt>
      <trkpt lat="40.9368070" lon="-3.3311950">
        <ele>910.0</ele>
        <time>2020-09-29T15:16:45Z</time>
      </trkpt>
      <trkpt lat="40.9366720" lon="-3.3312700">
        <ele>910.0</ele>
        <time>2020-09-29T15:16:46Z</time>
      </trkpt>
      <trkpt lat="40.9366720" lon="-3.3312700">
        <ele>910.0</ele>
        <time>2020-09-29T15:16:47Z</time>
      </trkpt>
      <trkpt lat="40.9365580" lon="-3.3314020">
        <ele>909.0</ele>
        <time>2020-09-29T15:16:48Z</time>
      </trkpt>
      <trkpt lat="40.9365580" lon="-3.3314020">
        <ele>909.0</ele>
        <time>2020-09-29T15:16:49Z</time>
      </trkpt>
      <trkpt lat="40.9365180" lon="-3.3316070">
        <ele>908.0</ele>
        <time>2020-09-29T15:16:50Z</time>
      </trkpt>
      <trkpt lat="40.9365180" lon="-3.3316070">
        <ele>908.0</ele>
        <time>2020-09-29T15:16:51Z</time>
      </trkpt>
      <trkpt lat="40.9365300" lon="-3.3318430">
        <ele>907.0</ele>
        <time>2020-09-29T15:16:52Z</time>
      </trkpt>
      <trkpt lat="40.9365520" lon="-3.3319650">
        <ele>907.0</ele>
        <time>2020-09-29T15:16:53Z</time>
      </trkpt>
      <trkpt lat="40.9365520" lon="-3.3319650">
        <ele>906.0</ele>
        <time>2020-09-29T15:16:54Z</time>
      </trkpt>
      <trkpt lat="40.9365920" lon="-3.3321970">
        <ele>906.0</ele>
        <time>2020-09-29T15:16:55Z</time>
      </trkpt>
      <trkpt lat="40.9366080" lon="-3.3323100">
        <ele>906.0</ele>
        <time>2020-09-29T15:16:56Z</time>
      </trkpt>
      <trkpt lat="40.9366080" lon="-3.3323100">
        <ele>906.0</ele>
        <time>2020-09-29T15:16:57Z</time>
      </trkpt>
      <trkpt lat="40.9366380" lon="-3.3325300">
        <ele>905.0</ele>
        <time>2020-09-29T15:16:58Z</time>
      </trkpt>
      <trkpt lat="40.9366380" lon="-3.3325300">
        <ele>905.0</ele>
        <time>2020-09-29T15:16:59Z</time>
      </trkpt>
      <trkpt lat="40.9366680" lon="-3.3327370">
        <ele>905.0</ele>
        <time>2020-09-29T15:17:00Z</time>
      </trkpt>
      <trkpt lat="40.9366680" lon="-3.3327370">
        <ele>905.0</ele>
        <time>2020-09-29T15:17:01Z</time>
      </trkpt>
      <trkpt lat="40.9366950" lon="-3.3329350">
        <ele>905.0</ele>
        <time>2020-09-29T15:17:02Z</time>
      </trkpt>
      <trkpt lat="40.9366950" lon="-3.3329350">
        <ele>905.0</ele>
        <time>2020-09-29T15:17:03Z</time>
      </trkpt>
      <trkpt lat="40.9367250" lon="-3.3331250">
        <ele>905.0</ele>
        <time>2020-09-29T15:17:04Z</time>
      </trkpt>
      <trkpt lat="40.9367250" lon="-3.3331250">
        <ele>905.0</ele>
        <time>2020-09-29T15:17:05Z</time>
      </trkpt>
      <trkpt lat="40.9367650" lon="-3.3332980">
        <ele>905.0</ele>
        <time>2020-09-29T15:17:06Z</time>
      </trkpt>
      <trkpt lat="40.9367650" lon="-3.3332980">
        <ele>905.0</ele>
        <time>2020-09-29T15:17:07Z</time>
      </trkpt>
      <trkpt lat="40.9368100" lon="-3.3334670">
        <ele>905.0</ele>
        <time>2020-09-29T15:17:08Z</time>
      </trkpt>
      <trkpt lat="40.9368100" lon="-3.3334670">
        <ele>905.0</ele>
        <time>2020-09-29T15:17:09Z</time>
      </trkpt>
      <trkpt lat="40.9368550" lon="-3.3336300">
        <ele>905.0</ele>
        <time>2020-09-29T15:17:10Z</time>
      </trkpt>
      <trkpt lat="40.9368550" lon="-3.3336300">
        <ele>905.0</ele>
        <time>2020-09-29T15:17:11Z</time>
      </trkpt>
      <trkpt lat="40.9369020" lon="-3.3337830">
        <ele>905.0</ele>
        <time>2020-09-29T15:17:12Z</time>
      </trkpt>
      <trkpt lat="40.9369020" lon="-3.3337830">
        <ele>905.0</ele>
        <time>2020-09-29T15:17:13Z</time>
      </trkpt>
      <trkpt lat="40.9369520" lon="-3.3339330">
        <ele>905.0</ele>
        <time>2020-09-29T15:17:14Z</time>
      </trkpt>
      <trkpt lat="40.9369520" lon="-3.3339330">
        <ele>905.0</ele>
        <time>2020-09-29T15:17:15Z</time>
      </trkpt>
      <trkpt lat="40.9369900" lon="-3.3340850">
        <ele>905.0</ele>
        <time>2020-09-29T15:17:16Z</time>
      </trkpt>
      <trkpt lat="40.9369900" lon="-3.3340850">
        <ele>905.0</ele>
        <time>2020-09-29T15:17:17Z</time>
      </trkpt>
      <trkpt lat="40.9370020" lon="-3.3342500">
        <ele>905.0</ele>
        <time>2020-09-29T15:17:18Z</time>
      </trkpt>
      <trkpt lat="40.9370020" lon="-3.3342500">
        <ele>905.0</ele>
        <time>2020-09-29T15:17:19Z</time>
      </trkpt>
      <trkpt lat="40.9369780" lon="-3.3344130">
        <ele>905.0</ele>
        <time>2020-09-29T15:17:20Z</time>
      </trkpt>
      <trkpt lat="40.9369780" lon="-3.3344130">
        <ele>905.0</ele>
        <time>2020-09-29T15:17:21Z</time>
      </trkpt>
      <trkpt lat="40.9368980" lon="-3.3345570">
        <ele>905.0</ele>
        <time>2020-09-29T15:17:22Z</time>
      </trkpt>
      <trkpt lat="40.9368530" lon="-3.3346200">
        <ele>905.0</ele>
        <time>2020-09-29T15:17:23Z</time>
      </trkpt>
      <trkpt lat="40.9368530" lon="-3.3346200">
        <ele>905.0</ele>
        <time>2020-09-29T15:17:24Z</time>
      </trkpt>
      <trkpt lat="40.9367670" lon="-3.3347380">
        <ele>905.0</ele>
        <time>2020-09-29T15:17:25Z</time>
      </trkpt>
      <trkpt lat="40.9367220" lon="-3.3347980">
        <ele>904.0</ele>
        <time>2020-09-29T15:17:26Z</time>
      </trkpt>
      <trkpt lat="40.9367220" lon="-3.3347980">
        <ele>904.0</ele>
        <time>2020-09-29T15:17:27Z</time>
      </trkpt>
      <trkpt lat="40.9366370" lon="-3.3349130">
        <ele>904.0</ele>
        <time>2020-09-29T15:17:28Z</time>
      </trkpt>
      <trkpt lat="40.9365980" lon="-3.3349770">
        <ele>904.0</ele>
        <time>2020-09-29T15:17:29Z</time>
      </trkpt>
      <trkpt lat="40.9365670" lon="-3.3350470">
        <ele>904.0</ele>
        <time>2020-09-29T15:17:30Z</time>
      </trkpt>
      <trkpt lat="40.9365670" lon="-3.3350470">
        <ele>904.0</ele>
        <time>2020-09-29T15:17:31Z</time>
      </trkpt>
      <trkpt lat="40.9365330" lon="-3.3351980">
        <ele>903.0</ele>
        <time>2020-09-29T15:17:32Z</time>
      </trkpt>
      <trkpt lat="40.9365330" lon="-3.3351980">
        <ele>903.0</ele>
        <time>2020-09-29T15:17:33Z</time>
      </trkpt>
      <trkpt lat="40.9365500" lon="-3.3353430">
        <ele>903.0</ele>
        <time>2020-09-29T15:17:34Z</time>
      </trkpt>
      <trkpt lat="40.9365500" lon="-3.3353430">
        <ele>903.0</ele>
        <time>2020-09-29T15:17:35Z</time>
      </trkpt>
      <trkpt lat="40.9366130" lon="-3.3354800">
        <ele>903.0</ele>
        <time>2020-09-29T15:17:36Z</time>
      </trkpt>
      <trkpt lat="40.9366500" lon="-3.3355530">
        <ele>902.0</ele>
        <time>2020-09-29T15:17:37Z</time>
      </trkpt>
      <trkpt lat="40.9366500" lon="-3.3355530">
        <ele>902.0</ele>
        <time>2020-09-29T15:17:38Z</time>
      </trkpt>
      <trkpt lat="40.9367130" lon="-3.3357120">
        <ele>902.0</ele>
        <time>2020-09-29T15:17:39Z</time>
      </trkpt>
      <trkpt lat="40.9367130" lon="-3.3357120">
        <ele>902.0</ele>
        <time>2020-09-29T15:17:40Z</time>
      </trkpt>
      <trkpt lat="40.9367870" lon="-3.3358620">
        <ele>901.0</ele>
        <time>2020-09-29T15:17:41Z</time>
      </trkpt>
      <trkpt lat="40.9367870" lon="-3.3358620">
        <ele>901.0</ele>
        <time>2020-09-29T15:17:42Z</time>
      </trkpt>
      <trkpt lat="40.9368550" lon="-3.3360120">
        <ele>901.0</ele>
        <time>2020-09-29T15:17:43Z</time>
      </trkpt>
      <trkpt lat="40.9368880" lon="-3.3360830">
        <ele>901.0</ele>
        <time>2020-09-29T15:17:44Z</time>
      </trkpt>
      <trkpt lat="40.9368880" lon="-3.3360830">
        <ele>901.0</ele>
        <time>2020-09-29T15:17:45Z</time>
      </trkpt>
      <trkpt lat="40.9369580" lon="-3.3362150">
        <ele>901.0</ele>
        <time>2020-09-29T15:17:46Z</time>
      </trkpt>
      <trkpt lat="40.9369580" lon="-3.3362150">
        <ele>902.0</ele>
        <time>2020-09-29T15:17:47Z</time>
      </trkpt>
      <trkpt lat="40.9370280" lon="-3.3363180">
        <ele>902.0</ele>
        <time>2020-09-29T15:17:48Z</time>
      </trkpt>
      <trkpt lat="40.9370280" lon="-3.3363180">
        <ele>903.0</ele>
        <time>2020-09-29T15:17:49Z</time>
      </trkpt>
      <trkpt lat="40.9370880" lon="-3.3364030">
        <ele>903.0</ele>
        <time>2020-09-29T15:17:50Z</time>
      </trkpt>
      <trkpt lat="40.9370880" lon="-3.3364030">
        <ele>903.0</ele>
        <time>2020-09-29T15:17:51Z</time>
      </trkpt>
      <trkpt lat="40.9371150" lon="-3.3364870">
        <ele>903.0</ele>
        <time>2020-09-29T15:17:52Z</time>
      </trkpt>
      <trkpt lat="40.9371150" lon="-3.3364870">
        <ele>904.0</ele>
        <time>2020-09-29T15:17:53Z</time>
      </trkpt>
      <trkpt lat="40.9371100" lon="-3.3365700">
        <ele>904.0</ele>
        <time>2020-09-29T15:17:54Z</time>
      </trkpt>
      <trkpt lat="40.9371100" lon="-3.3365700">
        <ele>904.0</ele>
        <time>2020-09-29T15:17:55Z</time>
      </trkpt>
      <trkpt lat="40.9370880" lon="-3.3366370">
        <ele>904.0</ele>
        <time>2020-09-29T15:17:56Z</time>
      </trkpt>
      <trkpt lat="40.9370880" lon="-3.3366370">
        <ele>905.0</ele>
        <time>2020-09-29T15:17:57Z</time>
      </trkpt>
      <trkpt lat="40.9370530" lon="-3.3366780">
        <ele>905.0</ele>
        <time>2020-09-29T15:17:58Z</time>
      </trkpt>
      <trkpt lat="40.9370530" lon="-3.3366780">
        <ele>905.0</ele>
        <time>2020-09-29T15:17:59Z</time>
      </trkpt>
      <trkpt lat="40.9370050" lon="-3.3367220">
        <ele>905.0</ele>
        <time>2020-09-29T15:18:00Z</time>
      </trkpt>
      <trkpt lat="40.9369770" lon="-3.3367370">
        <ele>906.0</ele>
        <time>2020-09-29T15:18:01Z</time>
      </trkpt>
      <trkpt lat="40.9369500" lon="-3.3367550">
        <ele>906.0</ele>
        <time>2020-09-29T15:18:02Z</time>
      </trkpt>
      <trkpt lat="40.9369500" lon="-3.3367550">
        <ele>906.0</ele>
        <time>2020-09-29T15:18:03Z</time>
      </trkpt>
      <trkpt lat="40.9369030" lon="-3.3368030">
        <ele>906.0</ele>
        <time>2020-09-29T15:18:04Z</time>
      </trkpt>
      <trkpt lat="40.9369030" lon="-3.3368030">
        <ele>908.0</ele>
        <time>2020-09-29T15:18:05Z</time>
      </trkpt>
      <trkpt lat="40.9368550" lon="-3.3368470">
        <ele>908.0</ele>
        <time>2020-09-29T15:18:06Z</time>
      </trkpt>
      <trkpt lat="40.9368550" lon="-3.3368470">
        <ele>908.0</ele>
        <time>2020-09-29T15:18:07Z</time>
      </trkpt>
      <trkpt lat="40.9368120" lon="-3.3368850">
        <ele>908.0</ele>
        <time>2020-09-29T15:18:08Z</time>
      </trkpt>
      <trkpt lat="40.9368120" lon="-3.3368850">
        <ele>909.0</ele>
        <time>2020-09-29T15:18:09Z</time>
      </trkpt>
      <trkpt lat="40.9367750" lon="-3.3369350">
        <ele>909.0</ele>
        <time>2020-09-29T15:18:10Z</time>
      </trkpt>
      <trkpt lat="40.9367750" lon="-3.3369350">
        <ele>909.0</ele>
        <time>2020-09-29T15:18:11Z</time>
      </trkpt>
      <trkpt lat="40.9367320" lon="-3.3369830">
        <ele>909.0</ele>
        <time>2020-09-29T15:18:12Z</time>
      </trkpt>
      <trkpt lat="40.9367320" lon="-3.3369830">
        <ele>909.0</ele>
        <time>2020-09-29T15:18:13Z</time>
      </trkpt>
      <trkpt lat="40.9366920" lon="-3.3370380">
        <ele>910.0</ele>
        <time>2020-09-29T15:18:14Z</time>
      </trkpt>
      <trkpt lat="40.9366920" lon="-3.3370380">
        <ele>910.0</ele>
        <time>2020-09-29T15:18:15Z</time>
      </trkpt>
      <trkpt lat="40.9366500" lon="-3.3370850">
        <ele>910.0</ele>
        <time>2020-09-29T15:18:16Z</time>
      </trkpt>
      <trkpt lat="40.9366500" lon="-3.3370850">
        <ele>910.0</ele>
        <time>2020-09-29T15:18:17Z</time>
      </trkpt>
      <trkpt lat="40.9366000" lon="-3.3371270">
        <ele>910.0</ele>
        <time>2020-09-29T15:18:18Z</time>
      </trkpt>
      <trkpt lat="40.9366000" lon="-3.3371270">
        <ele>910.0</ele>
        <time>2020-09-29T15:18:19Z</time>
      </trkpt>
      <trkpt lat="40.9365430" lon="-3.3371470">
        <ele>911.0</ele>
        <time>2020-09-29T15:18:20Z</time>
      </trkpt>
      <trkpt lat="40.9365430" lon="-3.3371470">
        <ele>911.0</ele>
        <time>2020-09-29T15:18:21Z</time>
      </trkpt>
      <trkpt lat="40.9364800" lon="-3.3371570">
        <ele>911.0</ele>
        <time>2020-09-29T15:18:22Z</time>
      </trkpt>
      <trkpt lat="40.9364800" lon="-3.3371570">
        <ele>911.0</ele>
        <time>2020-09-29T15:18:23Z</time>
      </trkpt>
      <trkpt lat="40.9364180" lon="-3.3371480">
        <ele>911.0</ele>
        <time>2020-09-29T15:18:24Z</time>
      </trkpt>
      <trkpt lat="40.9364180" lon="-3.3371480">
        <ele>911.0</ele>
        <time>2020-09-29T15:18:25Z</time>
      </trkpt>
      <trkpt lat="40.9363600" lon="-3.3371430">
        <ele>912.0</ele>
        <time>2020-09-29T15:18:26Z</time>
      </trkpt>
      <trkpt lat="40.9363600" lon="-3.3371430">
        <ele>912.0</ele>
        <time>2020-09-29T15:18:27Z</time>
      </trkpt>
      <trkpt lat="40.9363070" lon="-3.3371580">
        <ele>912.0</ele>
        <time>2020-09-29T15:18:28Z</time>
      </trkpt>
      <trkpt lat="40.9362820" lon="-3.3371720">
        <ele>912.0</ele>
        <time>2020-09-29T15:18:29Z</time>
      </trkpt>
      <trkpt lat="40.9362820" lon="-3.3371720">
        <ele>912.0</ele>
        <time>2020-09-29T15:18:30Z</time>
      </trkpt>
      <trkpt lat="40.9362350" lon="-3.3372080">
        <ele>912.0</ele>
        <time>2020-09-29T15:18:31Z</time>
      </trkpt>
      <trkpt lat="40.9362170" lon="-3.3372330">
        <ele>912.0</ele>
        <time>2020-09-29T15:18:32Z</time>
      </trkpt>
      <trkpt lat="40.9362170" lon="-3.3372330">
        <ele>912.0</ele>
        <time>2020-09-29T15:18:33Z</time>
      </trkpt>
      <trkpt lat="40.9361850" lon="-3.3372920">
        <ele>913.0</ele>
        <time>2020-09-29T15:18:34Z</time>
      </trkpt>
      <trkpt lat="40.9361720" lon="-3.3373220">
        <ele>913.0</ele>
        <time>2020-09-29T15:18:35Z</time>
      </trkpt>
      <trkpt lat="40.9361720" lon="-3.3373220">
        <ele>913.0</ele>
        <time>2020-09-29T15:18:36Z</time>
      </trkpt>
      <trkpt lat="40.9361430" lon="-3.3373880">
        <ele>913.0</ele>
        <time>2020-09-29T15:18:37Z</time>
      </trkpt>
      <trkpt lat="40.9361320" lon="-3.3374250">
        <ele>913.0</ele>
        <time>2020-09-29T15:18:38Z</time>
      </trkpt>
      <trkpt lat="40.9361320" lon="-3.3374250">
        <ele>913.0</ele>
        <time>2020-09-29T15:18:39Z</time>
      </trkpt>
      <trkpt lat="40.9361020" lon="-3.3374930">
        <ele>914.0</ele>
        <time>2020-09-29T15:18:40Z</time>
      </trkpt>
      <trkpt lat="40.9360870" lon="-3.3375280">
        <ele>914.0</ele>
        <time>2020-09-29T15:18:41Z</time>
      </trkpt>
      <trkpt lat="40.9360870" lon="-3.3375280">
        <ele>914.0</ele>
        <time>2020-09-29T15:18:42Z</time>
      </trkpt>
      <trkpt lat="40.9360550" lon="-3.3375920">
        <ele>914.0</ele>
        <time>2020-09-29T15:18:43Z</time>
      </trkpt>
      <trkpt lat="40.9360400" lon="-3.3376220">
        <ele>914.0</ele>
        <time>2020-09-29T15:18:44Z</time>
      </trkpt>
      <trkpt lat="40.9360400" lon="-3.3376220">
        <ele>914.0</ele>
        <time>2020-09-29T15:18:45Z</time>
      </trkpt>
      <trkpt lat="40.9360080" lon="-3.3376830">
        <ele>914.0</ele>
        <time>2020-09-29T15:18:46Z</time>
      </trkpt>
      <trkpt lat="40.9359920" lon="-3.3377170">
        <ele>914.0</ele>
        <time>2020-09-29T15:18:47Z</time>
      </trkpt>
      <trkpt lat="40.9359920" lon="-3.3377170">
        <ele>914.0</ele>
        <time>2020-09-29T15:18:48Z</time>
      </trkpt>
      <trkpt lat="40.9359600" lon="-3.3377780">
        <ele>914.0</ele>
        <time>2020-09-29T15:18:49Z</time>
      </trkpt>
      <trkpt lat="40.9359450" lon="-3.3378100">
        <ele>915.0</ele>
        <time>2020-09-29T15:18:50Z</time>
      </trkpt>
      <trkpt lat="40.9359450" lon="-3.3378100">
        <ele>915.0</ele>
        <time>2020-09-29T15:18:51Z</time>
      </trkpt>
      <trkpt lat="40.9359130" lon="-3.3378780">
        <ele>915.0</ele>
        <time>2020-09-29T15:18:52Z</time>
      </trkpt>
      <trkpt lat="40.9359130" lon="-3.3378780">
        <ele>915.0</ele>
        <time>2020-09-29T15:18:53Z</time>
      </trkpt>
      <trkpt lat="40.9358880" lon="-3.3379480">
        <ele>915.0</ele>
        <time>2020-09-29T15:18:54Z</time>
      </trkpt>
      <trkpt lat="40.9358880" lon="-3.3379480">
        <ele>915.0</ele>
        <time>2020-09-29T15:18:55Z</time>
      </trkpt>
      <trkpt lat="40.9358630" lon="-3.3380170">
        <ele>915.0</ele>
        <time>2020-09-29T15:18:56Z</time>
      </trkpt>
      <trkpt lat="40.9358630" lon="-3.3380170">
        <ele>915.0</ele>
        <time>2020-09-29T15:18:57Z</time>
      </trkpt>
      <trkpt lat="40.9358450" lon="-3.3380870">
        <ele>916.0</ele>
        <time>2020-09-29T15:18:58Z</time>
      </trkpt>
      <trkpt lat="40.9358330" lon="-3.3381220">
        <ele>916.0</ele>
        <time>2020-09-29T15:18:59Z</time>
      </trkpt>
      <trkpt lat="40.9358330" lon="-3.3381220">
        <ele>916.0</ele>
        <time>2020-09-29T15:19:00Z</time>
      </trkpt>
      <trkpt lat="40.9358150" lon="-3.3381970">
        <ele>916.0</ele>
        <time>2020-09-29T15:19:01Z</time>
      </trkpt>
      <trkpt lat="40.9358030" lon="-3.3382350">
        <ele>916.0</ele>
        <time>2020-09-29T15:19:02Z</time>
      </trkpt>
      <trkpt lat="40.9358030" lon="-3.3382350">
        <ele>916.0</ele>
        <time>2020-09-29T15:19:03Z</time>
      </trkpt>
      <trkpt lat="40.9357750" lon="-3.3383070">
        <ele>917.0</ele>
        <time>2020-09-29T15:19:04Z</time>
      </trkpt>
      <trkpt lat="40.9357750" lon="-3.3383070">
        <ele>917.0</ele>
        <time>2020-09-29T15:19:05Z</time>
      </trkpt>
      <trkpt lat="40.9357520" lon="-3.3383780">
        <ele>917.0</ele>
        <time>2020-09-29T15:19:06Z</time>
      </trkpt>
      <trkpt lat="40.9357520" lon="-3.3383780">
        <ele>917.0</ele>
        <time>2020-09-29T15:19:07Z</time>
      </trkpt>
      <trkpt lat="40.9357330" lon="-3.3384500">
        <ele>917.0</ele>
        <time>2020-09-29T15:19:08Z</time>
      </trkpt>
      <trkpt lat="40.9357330" lon="-3.3384500">
        <ele>917.0</ele>
        <time>2020-09-29T15:19:09Z</time>
      </trkpt>
      <trkpt lat="40.9357080" lon="-3.3385250">
        <ele>917.0</ele>
        <time>2020-09-29T15:19:10Z</time>
      </trkpt>
      <trkpt lat="40.9357080" lon="-3.3385250">
        <ele>917.0</ele>
        <time>2020-09-29T15:19:11Z</time>
      </trkpt>
      <trkpt lat="40.9356870" lon="-3.3385970">
        <ele>918.0</ele>
        <time>2020-09-29T15:19:12Z</time>
      </trkpt>
      <trkpt lat="40.9356730" lon="-3.3386330">
        <ele>918.0</ele>
        <time>2020-09-29T15:19:13Z</time>
      </trkpt>
      <trkpt lat="40.9356630" lon="-3.3386680">
        <ele>918.0</ele>
        <time>2020-09-29T15:19:14Z</time>
      </trkpt>
      <trkpt lat="40.9356630" lon="-3.3386680">
        <ele>918.0</ele>
        <time>2020-09-29T15:19:15Z</time>
      </trkpt>
      <trkpt lat="40.9356420" lon="-3.3387400">
        <ele>918.0</ele>
        <time>2020-09-29T15:19:16Z</time>
      </trkpt>
      <trkpt lat="40.9356420" lon="-3.3387400">
        <ele>918.0</ele>
        <time>2020-09-29T15:19:17Z</time>
      </trkpt>
      <trkpt lat="40.9356220" lon="-3.3388100">
        <ele>918.0</ele>
        <time>2020-09-29T15:19:18Z</time>
      </trkpt>
      <trkpt lat="40.9356120" lon="-3.3388450">
        <ele>918.0</ele>
        <time>2020-09-29T15:19:19Z</time>
      </trkpt>
      <trkpt lat="40.9356120" lon="-3.3388450">
        <ele>918.0</ele>
        <time>2020-09-29T15:19:20Z</time>
      </trkpt>
      <trkpt lat="40.9355930" lon="-3.3389170">
        <ele>918.0</ele>
        <time>2020-09-29T15:19:21Z</time>
      </trkpt>
      <trkpt lat="40.9355930" lon="-3.3389170">
        <ele>918.0</ele>
        <time>2020-09-29T15:19:22Z</time>
      </trkpt>
      <trkpt lat="40.9355780" lon="-3.3389900">
        <ele>918.0</ele>
        <time>2020-09-29T15:19:23Z</time>
      </trkpt>
      <trkpt lat="40.9355780" lon="-3.3389900">
        <ele>918.0</ele>
        <time>2020-09-29T15:19:24Z</time>
      </trkpt>
      <trkpt lat="40.9355680" lon="-3.3390670">
        <ele>918.0</ele>
        <time>2020-09-29T15:19:25Z</time>
      </trkpt>
      <trkpt lat="40.9355650" lon="-3.3391050">
        <ele>918.0</ele>
        <time>2020-09-29T15:19:26Z</time>
      </trkpt>
      <trkpt lat="40.9355650" lon="-3.3391050">
        <ele>918.0</ele>
        <time>2020-09-29T15:19:27Z</time>
      </trkpt>
      <trkpt lat="40.9355570" lon="-3.3391830">
        <ele>918.0</ele>
        <time>2020-09-29T15:19:28Z</time>
      </trkpt>
      <trkpt lat="40.9355570" lon="-3.3391830">
        <ele>918.0</ele>
        <time>2020-09-29T15:19:29Z</time>
      </trkpt>
      <trkpt lat="40.9355520" lon="-3.3392630">
        <ele>918.0</ele>
        <time>2020-09-29T15:19:30Z</time>
      </trkpt>
      <trkpt lat="40.9355520" lon="-3.3392630">
        <ele>919.0</ele>
        <time>2020-09-29T15:19:31Z</time>
      </trkpt>
      <trkpt lat="40.9355520" lon="-3.3393430">
        <ele>919.0</ele>
        <time>2020-09-29T15:19:32Z</time>
      </trkpt>
      <trkpt lat="40.9355520" lon="-3.3393430">
        <ele>919.0</ele>
        <time>2020-09-29T15:19:33Z</time>
      </trkpt>
      <trkpt lat="40.9355520" lon="-3.3394250">
        <ele>919.0</ele>
        <time>2020-09-29T15:19:34Z</time>
      </trkpt>
      <trkpt lat="40.9355470" lon="-3.3394650">
        <ele>919.0</ele>
        <time>2020-09-29T15:19:35Z</time>
      </trkpt>
      <trkpt lat="40.9355470" lon="-3.3394650">
        <ele>919.0</ele>
        <time>2020-09-29T15:19:36Z</time>
      </trkpt>
      <trkpt lat="40.9355250" lon="-3.3395400">
        <ele>919.0</ele>
        <time>2020-09-29T15:19:37Z</time>
      </trkpt>
      <trkpt lat="40.9355080" lon="-3.3395730">
        <ele>919.0</ele>
        <time>2020-09-29T15:19:38Z</time>
      </trkpt>
      <trkpt lat="40.9355080" lon="-3.3395730">
        <ele>920.0</ele>
        <time>2020-09-29T15:19:39Z</time>
      </trkpt>
      <trkpt lat="40.9354580" lon="-3.3396180">
        <ele>920.0</ele>
        <time>2020-09-29T15:19:40Z</time>
      </trkpt>
      <trkpt lat="40.9354580" lon="-3.3396180">
        <ele>920.0</ele>
        <time>2020-09-29T15:19:41Z</time>
      </trkpt>
      <trkpt lat="40.9353950" lon="-3.3396400">
        <ele>920.0</ele>
        <time>2020-09-29T15:19:42Z</time>
      </trkpt>
      <trkpt lat="40.9353950" lon="-3.3396400">
        <ele>920.0</ele>
        <time>2020-09-29T15:19:43Z</time>
      </trkpt>
      <trkpt lat="40.9353320" lon="-3.3396520">
        <ele>920.0</ele>
        <time>2020-09-29T15:19:44Z</time>
      </trkpt>
      <trkpt lat="40.9353320" lon="-3.3396520">
        <ele>920.0</ele>
        <time>2020-09-29T15:19:45Z</time>
      </trkpt>
      <trkpt lat="40.9352650" lon="-3.3396420">
        <ele>920.0</ele>
        <time>2020-09-29T15:19:46Z</time>
      </trkpt>
      <trkpt lat="40.9352350" lon="-3.3396270">
        <ele>920.0</ele>
        <time>2020-09-29T15:19:47Z</time>
      </trkpt>
      <trkpt lat="40.9352350" lon="-3.3396270">
        <ele>920.0</ele>
        <time>2020-09-29T15:19:48Z</time>
      </trkpt>
      <trkpt lat="40.9351830" lon="-3.3395850">
        <ele>920.0</ele>
        <time>2020-09-29T15:19:49Z</time>
      </trkpt>
      <trkpt lat="40.9351670" lon="-3.3395520">
        <ele>921.0</ele>
        <time>2020-09-29T15:19:50Z</time>
      </trkpt>
      <trkpt lat="40.9351670" lon="-3.3395520">
        <ele>921.0</ele>
        <time>2020-09-29T15:19:51Z</time>
      </trkpt>
      <trkpt lat="40.9351480" lon="-3.3394800">
        <ele>921.0</ele>
        <time>2020-09-29T15:19:52Z</time>
      </trkpt>
      <trkpt lat="40.9351480" lon="-3.3394800">
        <ele>921.0</ele>
        <time>2020-09-29T15:19:53Z</time>
      </trkpt>
      <trkpt lat="40.9351370" lon="-3.3394050">
        <ele>922.0</ele>
        <time>2020-09-29T15:19:54Z</time>
      </trkpt>
      <trkpt lat="40.9351370" lon="-3.3394050">
        <ele>922.0</ele>
        <time>2020-09-29T15:19:55Z</time>
      </trkpt>
      <trkpt lat="40.9351320" lon="-3.3393250">
        <ele>922.0</ele>
        <time>2020-09-29T15:19:56Z</time>
      </trkpt>
      <trkpt lat="40.9351320" lon="-3.3393250">
        <ele>922.0</ele>
        <time>2020-09-29T15:19:57Z</time>
      </trkpt>
      <trkpt lat="40.9351230" lon="-3.3392500">
        <ele>923.0</ele>
        <time>2020-09-29T15:19:58Z</time>
      </trkpt>
      <trkpt lat="40.9351230" lon="-3.3392500">
        <ele>923.0</ele>
        <time>2020-09-29T15:19:59Z</time>
      </trkpt>
      <trkpt lat="40.9351170" lon="-3.3391780">
        <ele>923.0</ele>
        <time>2020-09-29T15:20:00Z</time>
      </trkpt>
      <trkpt lat="40.9351170" lon="-3.3391780">
        <ele>923.0</ele>
        <time>2020-09-29T15:20:01Z</time>
      </trkpt>
      <trkpt lat="40.9351080" lon="-3.3391080">
        <ele>924.0</ele>
        <time>2020-09-29T15:20:02Z</time>
      </trkpt>
      <trkpt lat="40.9351080" lon="-3.3391080">
        <ele>924.0</ele>
        <time>2020-09-29T15:20:03Z</time>
      </trkpt>
      <trkpt lat="40.9350930" lon="-3.3390420">
        <ele>924.0</ele>
        <time>2020-09-29T15:20:04Z</time>
      </trkpt>
      <trkpt lat="40.9350930" lon="-3.3390420">
        <ele>926.0</ele>
        <time>2020-09-29T15:20:05Z</time>
      </trkpt>
      <trkpt lat="40.9350780" lon="-3.3389770">
        <ele>926.0</ele>
        <time>2020-09-29T15:20:06Z</time>
      </trkpt>
      <trkpt lat="40.9350780" lon="-3.3389770">
        <ele>926.0</ele>
        <time>2020-09-29T15:20:07Z</time>
      </trkpt>
      <trkpt lat="40.9350620" lon="-3.3389120">
        <ele>926.0</ele>
        <time>2020-09-29T15:20:08Z</time>
      </trkpt>
      <trkpt lat="40.9350620" lon="-3.3389120">
        <ele>926.0</ele>
        <time>2020-09-29T15:20:09Z</time>
      </trkpt>
      <trkpt lat="40.9350380" lon="-3.3388470">
        <ele>926.0</ele>
        <time>2020-09-29T15:20:10Z</time>
      </trkpt>
      <trkpt lat="40.9350380" lon="-3.3388470">
        <ele>928.0</ele>
        <time>2020-09-29T15:20:11Z</time>
      </trkpt>
      <trkpt lat="40.9350150" lon="-3.3387850">
        <ele>928.0</ele>
        <time>2020-09-29T15:20:12Z</time>
      </trkpt>
      <trkpt lat="40.9350150" lon="-3.3387850">
        <ele>928.0</ele>
        <time>2020-09-29T15:20:13Z</time>
      </trkpt>
      <trkpt lat="40.9349850" lon="-3.3387320">
        <ele>928.0</ele>
        <time>2020-09-29T15:20:14Z</time>
      </trkpt>
      <trkpt lat="40.9349850" lon="-3.3387320">
        <ele>928.0</ele>
        <time>2020-09-29T15:20:15Z</time>
      </trkpt>
      <trkpt lat="40.9349520" lon="-3.3386830">
        <ele>929.0</ele>
        <time>2020-09-29T15:20:16Z</time>
      </trkpt>
      <trkpt lat="40.9349520" lon="-3.3386830">
        <ele>929.0</ele>
        <time>2020-09-29T15:20:17Z</time>
      </trkpt>
      <trkpt lat="40.9349120" lon="-3.3386420">
        <ele>929.0</ele>
        <time>2020-09-29T15:20:18Z</time>
      </trkpt>
      <trkpt lat="40.9349120" lon="-3.3386420">
        <ele>929.0</ele>
        <time>2020-09-29T15:20:19Z</time>
      </trkpt>
      <trkpt lat="40.9348700" lon="-3.3386070">
        <ele>930.0</ele>
        <time>2020-09-29T15:20:20Z</time>
      </trkpt>
      <trkpt lat="40.9348700" lon="-3.3386070">
        <ele>930.0</ele>
        <time>2020-09-29T15:20:21Z</time>
      </trkpt>
      <trkpt lat="40.9348180" lon="-3.3385830">
        <ele>931.0</ele>
        <time>2020-09-29T15:20:22Z</time>
      </trkpt>
      <trkpt lat="40.9348180" lon="-3.3385830">
        <ele>931.0</ele>
        <time>2020-09-29T15:20:23Z</time>
      </trkpt>
      <trkpt lat="40.9347680" lon="-3.3385650">
        <ele>931.0</ele>
        <time>2020-09-29T15:20:24Z</time>
      </trkpt>
      <trkpt lat="40.9347430" lon="-3.3385550">
        <ele>931.0</ele>
        <time>2020-09-29T15:20:25Z</time>
      </trkpt>
      <trkpt lat="40.9347200" lon="-3.3385470">
        <ele>931.0</ele>
        <time>2020-09-29T15:20:26Z</time>
      </trkpt>
      <trkpt lat="40.9347200" lon="-3.3385470">
        <ele>931.0</ele>
        <time>2020-09-29T15:20:27Z</time>
      </trkpt>
      <trkpt lat="40.9346720" lon="-3.3385280">
        <ele>931.0</ele>
        <time>2020-09-29T15:20:28Z</time>
      </trkpt>
      <trkpt lat="40.9346720" lon="-3.3385280">
        <ele>931.0</ele>
        <time>2020-09-29T15:20:29Z</time>
      </trkpt>
      <trkpt lat="40.9346230" lon="-3.3385100">
        <ele>932.0</ele>
        <time>2020-09-29T15:20:30Z</time>
      </trkpt>
      <trkpt lat="40.9346230" lon="-3.3385100">
        <ele>932.0</ele>
        <time>2020-09-29T15:20:31Z</time>
      </trkpt>
      <trkpt lat="40.9345770" lon="-3.3384950">
        <ele>932.0</ele>
        <time>2020-09-29T15:20:32Z</time>
      </trkpt>
      <trkpt lat="40.9345770" lon="-3.3384950">
        <ele>932.0</ele>
        <time>2020-09-29T15:20:33Z</time>
      </trkpt>
      <trkpt lat="40.9345300" lon="-3.3384730">
        <ele>933.0</ele>
        <time>2020-09-29T15:20:34Z</time>
      </trkpt>
      <trkpt lat="40.9345300" lon="-3.3384730">
        <ele>933.0</ele>
        <time>2020-09-29T15:20:35Z</time>
      </trkpt>
      <trkpt lat="40.9344870" lon="-3.3384480">
        <ele>933.0</ele>
        <time>2020-09-29T15:20:36Z</time>
      </trkpt>
      <trkpt lat="40.9344870" lon="-3.3384480">
        <ele>933.0</ele>
        <time>2020-09-29T15:20:37Z</time>
      </trkpt>
      <trkpt lat="40.9344450" lon="-3.3384250">
        <ele>935.0</ele>
        <time>2020-09-29T15:20:38Z</time>
      </trkpt>
      <trkpt lat="40.9344450" lon="-3.3384250">
        <ele>935.0</ele>
        <time>2020-09-29T15:20:39Z</time>
      </trkpt>
      <trkpt lat="40.9344100" lon="-3.3383900">
        <ele>935.0</ele>
        <time>2020-09-29T15:20:40Z</time>
      </trkpt>
      <trkpt lat="40.9344100" lon="-3.3383900">
        <ele>935.0</ele>
        <time>2020-09-29T15:20:41Z</time>
      </trkpt>
      <trkpt lat="40.9343770" lon="-3.3383570">
        <ele>936.0</ele>
        <time>2020-09-29T15:20:42Z</time>
      </trkpt>
      <trkpt lat="40.9343770" lon="-3.3383570">
        <ele>936.0</ele>
        <time>2020-09-29T15:20:43Z</time>
      </trkpt>
      <trkpt lat="40.9343400" lon="-3.3383280">
        <ele>936.0</ele>
        <time>2020-09-29T15:20:44Z</time>
      </trkpt>
      <trkpt lat="40.9343400" lon="-3.3383280">
        <ele>936.0</ele>
        <time>2020-09-29T15:20:45Z</time>
      </trkpt>
      <trkpt lat="40.9343080" lon="-3.3382980">
        <ele>936.0</ele>
        <time>2020-09-29T15:20:46Z</time>
      </trkpt>
      <trkpt lat="40.9343080" lon="-3.3382980">
        <ele>936.0</ele>
        <time>2020-09-29T15:20:47Z</time>
      </trkpt>
      <trkpt lat="40.9342750" lon="-3.3382670">
        <ele>937.0</ele>
        <time>2020-09-29T15:20:48Z</time>
      </trkpt>
      <trkpt lat="40.9342600" lon="-3.3382500">
        <ele>937.0</ele>
        <time>2020-09-29T15:20:49Z</time>
      </trkpt>
      <trkpt lat="40.9342600" lon="-3.3382500">
        <ele>938.0</ele>
        <time>2020-09-29T15:20:50Z</time>
      </trkpt>
      <trkpt lat="40.9342270" lon="-3.3382230">
        <ele>938.0</ele>
        <time>2020-09-29T15:20:51Z</time>
      </trkpt>
      <trkpt lat="40.9342270" lon="-3.3382230">
        <ele>938.0</ele>
        <time>2020-09-29T15:20:52Z</time>
      </trkpt>
      <trkpt lat="40.9341900" lon="-3.3381880">
        <ele>938.0</ele>
        <time>2020-09-29T15:20:53Z</time>
      </trkpt>
      <trkpt lat="40.9341700" lon="-3.3381670">
        <ele>938.0</ele>
        <time>2020-09-29T15:20:54Z</time>
      </trkpt>
      <trkpt lat="40.9341520" lon="-3.3381470">
        <ele>938.0</ele>
        <time>2020-09-29T15:20:55Z</time>
      </trkpt>
      <trkpt lat="40.9341520" lon="-3.3381470">
        <ele>939.0</ele>
        <time>2020-09-29T15:20:56Z</time>
      </trkpt>
      <trkpt lat="40.9341070" lon="-3.3381180">
        <ele>939.0</ele>
        <time>2020-09-29T15:20:57Z</time>
      </trkpt>
      <trkpt lat="40.9341070" lon="-3.3381180">
        <ele>939.0</ele>
        <time>2020-09-29T15:20:58Z</time>
      </trkpt>
      <trkpt lat="40.9340630" lon="-3.3380950">
        <ele>939.0</ele>
        <time>2020-09-29T15:20:59Z</time>
      </trkpt>
      <trkpt lat="40.9340630" lon="-3.3380950">
        <ele>940.0</ele>
        <time>2020-09-29T15:21:00Z</time>
      </trkpt>
      <trkpt lat="40.9340250" lon="-3.3380770">
        <ele>940.0</ele>
        <time>2020-09-29T15:21:01Z</time>
      </trkpt>
      <trkpt lat="40.9340070" lon="-3.3380730">
        <ele>940.0</ele>
        <time>2020-09-29T15:21:02Z</time>
      </trkpt>
      <trkpt lat="40.9340070" lon="-3.3380730">
        <ele>940.0</ele>
        <time>2020-09-29T15:21:03Z</time>
      </trkpt>
      <trkpt lat="40.9339650" lon="-3.3380650">
        <ele>940.0</ele>
        <time>2020-09-29T15:21:04Z</time>
      </trkpt>
      <trkpt lat="40.9339470" lon="-3.3380580">
        <ele>940.0</ele>
        <time>2020-09-29T15:21:05Z</time>
      </trkpt>
      <trkpt lat="40.9339470" lon="-3.3380580">
        <ele>941.0</ele>
        <time>2020-09-29T15:21:06Z</time>
      </trkpt>
      <trkpt lat="40.9339070" lon="-3.3380470">
        <ele>941.0</ele>
        <time>2020-09-29T15:21:07Z</time>
      </trkpt>
      <trkpt lat="40.9338870" lon="-3.3380450">
        <ele>941.0</ele>
        <time>2020-09-29T15:21:08Z</time>
      </trkpt>
      <trkpt lat="40.9338870" lon="-3.3380450">
        <ele>941.0</ele>
        <time>2020-09-29T15:21:09Z</time>
      </trkpt>
      <trkpt lat="40.9338430" lon="-3.3380350">
        <ele>942.0</ele>
        <time>2020-09-29T15:21:10Z</time>
      </trkpt>
      <trkpt lat="40.9338430" lon="-3.3380350">
        <ele>942.0</ele>
        <time>2020-09-29T15:21:11Z</time>
      </trkpt>
      <trkpt lat="40.9338030" lon="-3.3380150">
        <ele>942.0</ele>
        <time>2020-09-29T15:21:12Z</time>
      </trkpt>
      <trkpt lat="40.9337830" lon="-3.3380050">
        <ele>942.0</ele>
        <time>2020-09-29T15:21:13Z</time>
      </trkpt>
      <trkpt lat="40.9337830" lon="-3.3380050">
        <ele>942.0</ele>
        <time>2020-09-29T15:21:14Z</time>
      </trkpt>
      <trkpt lat="40.9337400" lon="-3.3379850">
        <ele>943.0</ele>
        <time>2020-09-29T15:21:15Z</time>
      </trkpt>
      <trkpt lat="40.9337220" lon="-3.3379700">
        <ele>943.0</ele>
        <time>2020-09-29T15:21:16Z</time>
      </trkpt>
      <trkpt lat="40.9337220" lon="-3.3379700">
        <ele>943.0</ele>
        <time>2020-09-29T15:21:17Z</time>
      </trkpt>
      <trkpt lat="40.9336870" lon="-3.3379350">
        <ele>943.0</ele>
        <time>2020-09-29T15:21:18Z</time>
      </trkpt>
      <trkpt lat="40.9336870" lon="-3.3379350">
        <ele>943.0</ele>
        <time>2020-09-29T15:21:19Z</time>
      </trkpt>
      <trkpt lat="40.9336530" lon="-3.3379030">
        <ele>943.0</ele>
        <time>2020-09-29T15:21:20Z</time>
      </trkpt>
      <trkpt lat="40.9336530" lon="-3.3379030">
        <ele>944.0</ele>
        <time>2020-09-29T15:21:21Z</time>
      </trkpt>
      <trkpt lat="40.9336250" lon="-3.3378700">
        <ele>944.0</ele>
        <time>2020-09-29T15:21:22Z</time>
      </trkpt>
      <trkpt lat="40.9336100" lon="-3.3378530">
        <ele>944.0</ele>
        <time>2020-09-29T15:21:23Z</time>
      </trkpt>
      <trkpt lat="40.9336100" lon="-3.3378530">
        <ele>944.0</ele>
        <time>2020-09-29T15:21:24Z</time>
      </trkpt>
      <trkpt lat="40.9335820" lon="-3.3378170">
        <ele>945.0</ele>
        <time>2020-09-29T15:21:25Z</time>
      </trkpt>
      <trkpt lat="40.9335670" lon="-3.3377970">
        <ele>945.0</ele>
        <time>2020-09-29T15:21:26Z</time>
      </trkpt>
      <trkpt lat="40.9335670" lon="-3.3377970">
        <ele>945.0</ele>
        <time>2020-09-29T15:21:27Z</time>
      </trkpt>
      <trkpt lat="40.9335350" lon="-3.3377580">
        <ele>945.0</ele>
        <time>2020-09-29T15:21:28Z</time>
      </trkpt>
      <trkpt lat="40.9335350" lon="-3.3377580">
        <ele>946.0</ele>
        <time>2020-09-29T15:21:29Z</time>
      </trkpt>
      <trkpt lat="40.9335020" lon="-3.3377180">
        <ele>946.0</ele>
        <time>2020-09-29T15:21:30Z</time>
      </trkpt>
      <trkpt lat="40.9335020" lon="-3.3377180">
        <ele>946.0</ele>
        <time>2020-09-29T15:21:31Z</time>
      </trkpt>
      <trkpt lat="40.9334670" lon="-3.3376780">
        <ele>946.0</ele>
        <time>2020-09-29T15:21:32Z</time>
      </trkpt>
      <trkpt lat="40.9334670" lon="-3.3376780">
        <ele>947.0</ele>
        <time>2020-09-29T15:21:33Z</time>
      </trkpt>
      <trkpt lat="40.9334320" lon="-3.3376450">
        <ele>947.0</ele>
        <time>2020-09-29T15:21:34Z</time>
      </trkpt>
      <trkpt lat="40.9334320" lon="-3.3376450">
        <ele>947.0</ele>
        <time>2020-09-29T15:21:35Z</time>
      </trkpt>
      <trkpt lat="40.9333950" lon="-3.3376150">
        <ele>947.0</ele>
        <time>2020-09-29T15:21:36Z</time>
      </trkpt>
      <trkpt lat="40.9333750" lon="-3.3376000">
        <ele>949.0</ele>
        <time>2020-09-29T15:21:37Z</time>
      </trkpt>
      <trkpt lat="40.9333550" lon="-3.3375850">
        <ele>949.0</ele>
        <time>2020-09-29T15:21:38Z</time>
      </trkpt>
      <trkpt lat="40.9333550" lon="-3.3375850">
        <ele>949.0</ele>
        <time>2020-09-29T15:21:39Z</time>
      </trkpt>
      <trkpt lat="40.9333150" lon="-3.3375580">
        <ele>949.0</ele>
        <time>2020-09-29T15:21:40Z</time>
      </trkpt>
      <trkpt lat="40.9333150" lon="-3.3375580">
        <ele>949.0</ele>
        <time>2020-09-29T15:21:41Z</time>
      </trkpt>
      <trkpt lat="40.9332770" lon="-3.3375270">
        <ele>949.0</ele>
        <time>2020-09-29T15:21:42Z</time>
      </trkpt>
      <trkpt lat="40.9332770" lon="-3.3375270">
        <ele>949.0</ele>
        <time>2020-09-29T15:21:43Z</time>
      </trkpt>
      <trkpt lat="40.9332400" lon="-3.3374950">
        <ele>949.0</ele>
        <time>2020-09-29T15:21:44Z</time>
      </trkpt>
      <trkpt lat="40.9332400" lon="-3.3374950">
        <ele>949.0</ele>
        <time>2020-09-29T15:21:45Z</time>
      </trkpt>
      <trkpt lat="40.9332030" lon="-3.3374620">
        <ele>950.0</ele>
        <time>2020-09-29T15:21:46Z</time>
      </trkpt>
      <trkpt lat="40.9331870" lon="-3.3374430">
        <ele>950.0</ele>
        <time>2020-09-29T15:21:47Z</time>
      </trkpt>
      <trkpt lat="40.9331870" lon="-3.3374430">
        <ele>950.0</ele>
        <time>2020-09-29T15:21:48Z</time>
      </trkpt>
      <trkpt lat="40.9331570" lon="-3.3374000">
        <ele>950.0</ele>
        <time>2020-09-29T15:21:49Z</time>
      </trkpt>
      <trkpt lat="40.9331400" lon="-3.3373770">
        <ele>951.0</ele>
        <time>2020-09-29T15:21:50Z</time>
      </trkpt>
      <trkpt lat="40.9331400" lon="-3.3373770">
        <ele>951.0</ele>
        <time>2020-09-29T15:21:51Z</time>
      </trkpt>
      <trkpt lat="40.9331070" lon="-3.3373280">
        <ele>951.0</ele>
        <time>2020-09-29T15:21:52Z</time>
      </trkpt>
      <trkpt lat="40.9330920" lon="-3.3372970">
        <ele>951.0</ele>
        <time>2020-09-29T15:21:53Z</time>
      </trkpt>
      <trkpt lat="40.9330920" lon="-3.3372970">
        <ele>951.0</ele>
        <time>2020-09-29T15:21:54Z</time>
      </trkpt>
      <trkpt lat="40.9330680" lon="-3.3372300">
        <ele>952.0</ele>
        <time>2020-09-29T15:21:55Z</time>
      </trkpt>
      <trkpt lat="40.9330630" lon="-3.3371870">
        <ele>952.0</ele>
        <time>2020-09-29T15:21:56Z</time>
      </trkpt>
      <trkpt lat="40.9330630" lon="-3.3371870">
        <ele>952.0</ele>
        <time>2020-09-29T15:21:57Z</time>
      </trkpt>
      <trkpt lat="40.9330480" lon="-3.3370850">
        <ele>952.0</ele>
        <time>2020-09-29T15:21:58Z</time>
      </trkpt>
      <trkpt lat="40.9330430" lon="-3.3370220">
        <ele>952.0</ele>
        <time>2020-09-29T15:21:59Z</time>
      </trkpt>
      <trkpt lat="40.9330430" lon="-3.3370220">
        <ele>952.0</ele>
        <time>2020-09-29T15:22:00Z</time>
      </trkpt>
      <trkpt lat="40.9330420" lon="-3.3368720">
        <ele>951.0</ele>
        <time>2020-09-29T15:22:01Z</time>
      </trkpt>
      <trkpt lat="40.9330450" lon="-3.3367880">
        <ele>951.0</ele>
        <time>2020-09-29T15:22:02Z</time>
      </trkpt>
      <trkpt lat="40.9330450" lon="-3.3367880">
        <ele>950.0</ele>
        <time>2020-09-29T15:22:03Z</time>
      </trkpt>
      <trkpt lat="40.9330480" lon="-3.3366130">
        <ele>950.0</ele>
        <time>2020-09-29T15:22:04Z</time>
      </trkpt>
      <trkpt lat="40.9330400" lon="-3.3365280">
        <ele>949.0</ele>
        <time>2020-09-29T15:22:05Z</time>
      </trkpt>
      <trkpt lat="40.9330400" lon="-3.3365280">
        <ele>949.0</ele>
        <time>2020-09-29T15:22:06Z</time>
      </trkpt>
      <trkpt lat="40.9329900" lon="-3.3363870">
        <ele>948.0</ele>
        <time>2020-09-29T15:22:07Z</time>
      </trkpt>
      <trkpt lat="40.9329470" lon="-3.3363330">
        <ele>948.0</ele>
        <time>2020-09-29T15:22:08Z</time>
      </trkpt>
      <trkpt lat="40.9329470" lon="-3.3363330">
        <ele>946.0</ele>
        <time>2020-09-29T15:22:09Z</time>
      </trkpt>
      <trkpt lat="40.9328250" lon="-3.3363020">
        <ele>946.0</ele>
        <time>2020-09-29T15:22:10Z</time>
      </trkpt>
      <trkpt lat="40.9328250" lon="-3.3363020">
        <ele>945.0</ele>
        <time>2020-09-29T15:22:11Z</time>
      </trkpt>
      <trkpt lat="40.9326850" lon="-3.3363370">
        <ele>945.0</ele>
        <time>2020-09-29T15:22:12Z</time>
      </trkpt>
      <trkpt lat="40.9326120" lon="-3.3363520">
        <ele>944.0</ele>
        <time>2020-09-29T15:22:13Z</time>
      </trkpt>
      <trkpt lat="40.9325330" lon="-3.3363550">
        <ele>944.0</ele>
        <time>2020-09-29T15:22:14Z</time>
      </trkpt>
      <trkpt lat="40.9325330" lon="-3.3363550">
        <ele>942.0</ele>
        <time>2020-09-29T15:22:15Z</time>
      </trkpt>
      <trkpt lat="40.9323680" lon="-3.3363230">
        <ele>942.0</ele>
        <time>2020-09-29T15:22:16Z</time>
      </trkpt>
      <trkpt lat="40.9323680" lon="-3.3363230">
        <ele>941.0</ele>
        <time>2020-09-29T15:22:17Z</time>
      </trkpt>
      <trkpt lat="40.9321870" lon="-3.3362730">
        <ele>941.0</ele>
        <time>2020-09-29T15:22:18Z</time>
      </trkpt>
      <trkpt lat="40.9321870" lon="-3.3362730">
        <ele>939.0</ele>
        <time>2020-09-29T15:22:19Z</time>
      </trkpt>
      <trkpt lat="40.9320170" lon="-3.3362150">
        <ele>939.0</ele>
        <time>2020-09-29T15:22:20Z</time>
      </trkpt>
      <trkpt lat="40.9320170" lon="-3.3362150">
        <ele>938.0</ele>
        <time>2020-09-29T15:22:21Z</time>
      </trkpt>
      <trkpt lat="40.9318820" lon="-3.3361720">
        <ele>938.0</ele>
        <time>2020-09-29T15:22:22Z</time>
      </trkpt>
      <trkpt lat="40.9318820" lon="-3.3361720">
        <ele>936.0</ele>
        <time>2020-09-29T15:22:23Z</time>
      </trkpt>
      <trkpt lat="40.9317600" lon="-3.3361800">
        <ele>936.0</ele>
        <time>2020-09-29T15:22:24Z</time>
      </trkpt>
      <trkpt lat="40.9317600" lon="-3.3361800">
        <ele>935.0</ele>
        <time>2020-09-29T15:22:25Z</time>
      </trkpt>
      <trkpt lat="40.9316500" lon="-3.3362420">
        <ele>933.0</ele>
        <time>2020-09-29T15:22:26Z</time>
      </trkpt>
      <trkpt lat="40.9316500" lon="-3.3362420">
        <ele>933.0</ele>
        <time>2020-09-29T15:22:27Z</time>
      </trkpt>
      <trkpt lat="40.9315480" lon="-3.3363530">
        <ele>932.0</ele>
        <time>2020-09-29T15:22:28Z</time>
      </trkpt>
      <trkpt lat="40.9314970" lon="-3.3364250">
        <ele>932.0</ele>
        <time>2020-09-29T15:22:29Z</time>
      </trkpt>
      <trkpt lat="40.9314970" lon="-3.3364250">
        <ele>930.0</ele>
        <time>2020-09-29T15:22:30Z</time>
      </trkpt>
      <trkpt lat="40.9313920" lon="-3.3365700">
        <ele>930.0</ele>
        <time>2020-09-29T15:22:31Z</time>
      </trkpt>
      <trkpt lat="40.9313370" lon="-3.3366430">
        <ele>929.0</ele>
        <time>2020-09-29T15:22:32Z</time>
      </trkpt>
      <trkpt lat="40.9313370" lon="-3.3366430">
        <ele>929.0</ele>
        <time>2020-09-29T15:22:33Z</time>
      </trkpt>
      <trkpt lat="40.9312170" lon="-3.3367920">
        <ele>927.0</ele>
        <time>2020-09-29T15:22:34Z</time>
      </trkpt>
      <trkpt lat="40.9312170" lon="-3.3367920">
        <ele>927.0</ele>
        <time>2020-09-29T15:22:35Z</time>
      </trkpt>
      <trkpt lat="40.9310770" lon="-3.3369380">
        <ele>925.0</ele>
        <time>2020-09-29T15:22:36Z</time>
      </trkpt>
      <trkpt lat="40.9310770" lon="-3.3369380">
        <ele>925.0</ele>
        <time>2020-09-29T15:22:37Z</time>
      </trkpt>
      <trkpt lat="40.9309320" lon="-3.3370920">
        <ele>924.0</ele>
        <time>2020-09-29T15:22:38Z</time>
      </trkpt>
      <trkpt lat="40.9309320" lon="-3.3370920">
        <ele>924.0</ele>
        <time>2020-09-29T15:22:39Z</time>
      </trkpt>
      <trkpt lat="40.9307880" lon="-3.3372370">
        <ele>922.0</ele>
        <time>2020-09-29T15:22:40Z</time>
      </trkpt>
      <trkpt lat="40.9307880" lon="-3.3372370">
        <ele>922.0</ele>
        <time>2020-09-29T15:22:41Z</time>
      </trkpt>
      <trkpt lat="40.9306480" lon="-3.3373800">
        <ele>920.0</ele>
        <time>2020-09-29T15:22:42Z</time>
      </trkpt>
      <trkpt lat="40.9306480" lon="-3.3373800">
        <ele>920.0</ele>
        <time>2020-09-29T15:22:43Z</time>
      </trkpt>
      <trkpt lat="40.9305220" lon="-3.3375330">
        <ele>917.0</ele>
        <time>2020-09-29T15:22:44Z</time>
      </trkpt>
      <trkpt lat="40.9305220" lon="-3.3375330">
        <ele>917.0</ele>
        <time>2020-09-29T15:22:45Z</time>
      </trkpt>
      <trkpt lat="40.9304030" lon="-3.3376920">
        <ele>916.0</ele>
        <time>2020-09-29T15:22:46Z</time>
      </trkpt>
      <trkpt lat="40.9304030" lon="-3.3376920">
        <ele>916.0</ele>
        <time>2020-09-29T15:22:47Z</time>
      </trkpt>
      <trkpt lat="40.9302800" lon="-3.3378230">
        <ele>915.0</ele>
        <time>2020-09-29T15:22:48Z</time>
      </trkpt>
      <trkpt lat="40.9302800" lon="-3.3378230">
        <ele>915.0</ele>
        <time>2020-09-29T15:22:49Z</time>
      </trkpt>
      <trkpt lat="40.9301500" lon="-3.3379280">
        <ele>913.0</ele>
        <time>2020-09-29T15:22:50Z</time>
      </trkpt>
      <trkpt lat="40.9301500" lon="-3.3379280">
        <ele>913.0</ele>
        <time>2020-09-29T15:22:51Z</time>
      </trkpt>
      <trkpt lat="40.9300330" lon="-3.3380170">
        <ele>911.0</ele>
        <time>2020-09-29T15:22:52Z</time>
      </trkpt>
      <trkpt lat="40.9300330" lon="-3.3380170">
        <ele>911.0</ele>
        <time>2020-09-29T15:22:53Z</time>
      </trkpt>
      <trkpt lat="40.9299400" lon="-3.3381480">
        <ele>910.0</ele>
        <time>2020-09-29T15:22:54Z</time>
      </trkpt>
      <trkpt lat="40.9299400" lon="-3.3381480">
        <ele>910.0</ele>
        <time>2020-09-29T15:22:55Z</time>
      </trkpt>
      <trkpt lat="40.9298630" lon="-3.3383150">
        <ele>909.0</ele>
        <time>2020-09-29T15:22:56Z</time>
      </trkpt>
      <trkpt lat="40.9298630" lon="-3.3383150">
        <ele>909.0</ele>
        <time>2020-09-29T15:22:57Z</time>
      </trkpt>
      <trkpt lat="40.9297870" lon="-3.3384920">
        <ele>907.0</ele>
        <time>2020-09-29T15:22:58Z</time>
      </trkpt>
      <trkpt lat="40.9297450" lon="-3.3385820">
        <ele>907.0</ele>
        <time>2020-09-29T15:22:59Z</time>
      </trkpt>
      <trkpt lat="40.9297450" lon="-3.3385820">
        <ele>906.0</ele>
        <time>2020-09-29T15:23:00Z</time>
      </trkpt>
      <trkpt lat="40.9296650" lon="-3.3387530">
        <ele>906.0</ele>
        <time>2020-09-29T15:23:01Z</time>
      </trkpt>
      <trkpt lat="40.9296270" lon="-3.3388350">
        <ele>905.0</ele>
        <time>2020-09-29T15:23:02Z</time>
      </trkpt>
      <trkpt lat="40.9296270" lon="-3.3388350">
        <ele>903.0</ele>
        <time>2020-09-29T15:23:03Z</time>
      </trkpt>
      <trkpt lat="40.9295500" lon="-3.3389780">
        <ele>903.0</ele>
        <time>2020-09-29T15:23:04Z</time>
      </trkpt>
      <trkpt lat="40.9295500" lon="-3.3389780">
        <ele>902.0</ele>
        <time>2020-09-29T15:23:05Z</time>
      </trkpt>
      <trkpt lat="40.9294630" lon="-3.3391050">
        <ele>902.0</ele>
        <time>2020-09-29T15:23:06Z</time>
      </trkpt>
      <trkpt lat="40.9294630" lon="-3.3391050">
        <ele>901.0</ele>
        <time>2020-09-29T15:23:07Z</time>
      </trkpt>
      <trkpt lat="40.9293580" lon="-3.3392330">
        <ele>901.0</ele>
        <time>2020-09-29T15:23:08Z</time>
      </trkpt>
      <trkpt lat="40.9293580" lon="-3.3392330">
        <ele>900.0</ele>
        <time>2020-09-29T15:23:09Z</time>
      </trkpt>
      <trkpt lat="40.9292300" lon="-3.3393670">
        <ele>900.0</ele>
        <time>2020-09-29T15:23:10Z</time>
      </trkpt>
      <trkpt lat="40.9292300" lon="-3.3393670">
        <ele>899.0</ele>
        <time>2020-09-29T15:23:11Z</time>
      </trkpt>
      <trkpt lat="40.9291030" lon="-3.3395180">
        <ele>899.0</ele>
        <time>2020-09-29T15:23:12Z</time>
      </trkpt>
      <trkpt lat="40.9291030" lon="-3.3395180">
        <ele>898.0</ele>
        <time>2020-09-29T15:23:13Z</time>
      </trkpt>
      <trkpt lat="40.9289850" lon="-3.3396800">
        <ele>898.0</ele>
        <time>2020-09-29T15:23:14Z</time>
      </trkpt>
      <trkpt lat="40.9289850" lon="-3.3396800">
        <ele>897.0</ele>
        <time>2020-09-29T15:23:15Z</time>
      </trkpt>
      <trkpt lat="40.9288820" lon="-3.3398520">
        <ele>897.0</ele>
        <time>2020-09-29T15:23:16Z</time>
      </trkpt>
      <trkpt lat="40.9288820" lon="-3.3398520">
        <ele>897.0</ele>
        <time>2020-09-29T15:23:17Z</time>
      </trkpt>
      <trkpt lat="40.9287770" lon="-3.3400230">
        <ele>897.0</ele>
        <time>2020-09-29T15:23:18Z</time>
      </trkpt>
      <trkpt lat="40.9287200" lon="-3.3401130">
        <ele>897.0</ele>
        <time>2020-09-29T15:23:19Z</time>
      </trkpt>
      <trkpt lat="40.9286630" lon="-3.3402070">
        <ele>896.0</ele>
        <time>2020-09-29T15:23:20Z</time>
      </trkpt>
      <trkpt lat="40.9286630" lon="-3.3402070">
        <ele>896.0</ele>
        <time>2020-09-29T15:23:21Z</time>
      </trkpt>
      <trkpt lat="40.9285480" lon="-3.3404020">
        <ele>895.0</ele>
        <time>2020-09-29T15:23:22Z</time>
      </trkpt>
      <trkpt lat="40.9284880" lon="-3.3405020">
        <ele>895.0</ele>
        <time>2020-09-29T15:23:23Z</time>
      </trkpt>
      <trkpt lat="40.9284880" lon="-3.3405020">
        <ele>894.0</ele>
        <time>2020-09-29T15:23:24Z</time>
      </trkpt>
      <trkpt lat="40.9283630" lon="-3.3407070">
        <ele>894.0</ele>
        <time>2020-09-29T15:23:25Z</time>
      </trkpt>
      <trkpt lat="40.9283630" lon="-3.3407070">
        <ele>892.0</ele>
        <time>2020-09-29T15:23:26Z</time>
      </trkpt>
      <trkpt lat="40.9282380" lon="-3.3409150">
        <ele>892.0</ele>
        <time>2020-09-29T15:23:27Z</time>
      </trkpt>
      <trkpt lat="40.9282380" lon="-3.3409150">
        <ele>891.0</ele>
        <time>2020-09-29T15:23:28Z</time>
      </trkpt>
      <trkpt lat="40.9281300" lon="-3.3410950">
        <ele>891.0</ele>
        <time>2020-09-29T15:23:29Z</time>
      </trkpt>
      <trkpt lat="40.9280800" lon="-3.3411770">
        <ele>890.0</ele>
        <time>2020-09-29T15:23:30Z</time>
      </trkpt>
      <trkpt lat="40.9280800" lon="-3.3411770">
        <ele>890.0</ele>
        <time>2020-09-29T15:23:31Z</time>
      </trkpt>
      <trkpt lat="40.9279850" lon="-3.3413420">
        <ele>889.0</ele>
        <time>2020-09-29T15:23:32Z</time>
      </trkpt>
      <trkpt lat="40.9279850" lon="-3.3413420">
        <ele>889.0</ele>
        <time>2020-09-29T15:23:33Z</time>
      </trkpt>
      <trkpt lat="40.9278770" lon="-3.3415030">
        <ele>888.0</ele>
        <time>2020-09-29T15:23:34Z</time>
      </trkpt>
      <trkpt lat="40.9278200" lon="-3.3415900">
        <ele>888.0</ele>
        <time>2020-09-29T15:23:35Z</time>
      </trkpt>
      <trkpt lat="40.9278200" lon="-3.3415900">
        <ele>886.0</ele>
        <time>2020-09-29T15:23:36Z</time>
      </trkpt>
      <trkpt lat="40.9277030" lon="-3.3417670">
        <ele>886.0</ele>
        <time>2020-09-29T15:23:37Z</time>
      </trkpt>
      <trkpt lat="40.9276420" lon="-3.3418570">
        <ele>885.0</ele>
        <time>2020-09-29T15:23:38Z</time>
      </trkpt>
      <trkpt lat="40.9276420" lon="-3.3418570">
        <ele>883.0</ele>
        <time>2020-09-29T15:23:39Z</time>
      </trkpt>
      <trkpt lat="40.9275170" lon="-3.3420470">
        <ele>883.0</ele>
        <time>2020-09-29T15:23:40Z</time>
      </trkpt>
      <trkpt lat="40.9275170" lon="-3.3420470">
        <ele>882.0</ele>
        <time>2020-09-29T15:23:41Z</time>
      </trkpt>
      <trkpt lat="40.9273920" lon="-3.3422370">
        <ele>882.0</ele>
        <time>2020-09-29T15:23:42Z</time>
      </trkpt>
      <trkpt lat="40.9273920" lon="-3.3422370">
        <ele>880.0</ele>
        <time>2020-09-29T15:23:43Z</time>
      </trkpt>
      <trkpt lat="40.9272730" lon="-3.3424250">
        <ele>880.0</ele>
        <time>2020-09-29T15:23:44Z</time>
      </trkpt>
      <trkpt lat="40.9272730" lon="-3.3424250">
        <ele>879.0</ele>
        <time>2020-09-29T15:23:45Z</time>
      </trkpt>
      <trkpt lat="40.9271600" lon="-3.3426050">
        <ele>879.0</ele>
        <time>2020-09-29T15:23:46Z</time>
      </trkpt>
      <trkpt lat="40.9271600" lon="-3.3426050">
        <ele>878.0</ele>
        <time>2020-09-29T15:23:47Z</time>
      </trkpt>
      <trkpt lat="40.9270380" lon="-3.3427670">
        <ele>878.0</ele>
        <time>2020-09-29T15:23:48Z</time>
      </trkpt>
      <trkpt lat="40.9270380" lon="-3.3427670">
        <ele>876.0</ele>
        <time>2020-09-29T15:23:49Z</time>
      </trkpt>
      <trkpt lat="40.9269130" lon="-3.3429300">
        <ele>876.0</ele>
        <time>2020-09-29T15:23:50Z</time>
      </trkpt>
      <trkpt lat="40.9269130" lon="-3.3429300">
        <ele>875.0</ele>
        <time>2020-09-29T15:23:51Z</time>
      </trkpt>
      <trkpt lat="40.9267920" lon="-3.3431050">
        <ele>875.0</ele>
        <time>2020-09-29T15:23:52Z</time>
      </trkpt>
      <trkpt lat="40.9267300" lon="-3.3431920">
        <ele>874.0</ele>
        <time>2020-09-29T15:23:53Z</time>
      </trkpt>
      <trkpt lat="40.9267300" lon="-3.3431920">
        <ele>874.0</ele>
        <time>2020-09-29T15:23:54Z</time>
      </trkpt>
      <trkpt lat="40.9266080" lon="-3.3433570">
        <ele>873.0</ele>
        <time>2020-09-29T15:23:55Z</time>
      </trkpt>
      <trkpt lat="40.9265470" lon="-3.3434400">
        <ele>873.0</ele>
        <time>2020-09-29T15:23:56Z</time>
      </trkpt>
      <trkpt lat="40.9265470" lon="-3.3434400">
        <ele>871.0</ele>
        <time>2020-09-29T15:23:57Z</time>
      </trkpt>
      <trkpt lat="40.9264250" lon="-3.3436030">
        <ele>871.0</ele>
        <time>2020-09-29T15:23:58Z</time>
      </trkpt>
      <trkpt lat="40.9264250" lon="-3.3436030">
        <ele>870.0</ele>
        <time>2020-09-29T15:23:59Z</time>
      </trkpt>
      <trkpt lat="40.9262880" lon="-3.3437600">
        <ele>870.0</ele>
        <time>2020-09-29T15:24:00Z</time>
      </trkpt>
      <trkpt lat="40.9262880" lon="-3.3437600">
        <ele>868.0</ele>
        <time>2020-09-29T15:24:01Z</time>
      </trkpt>
      <trkpt lat="40.9261400" lon="-3.3438970">
        <ele>868.0</ele>
        <time>2020-09-29T15:24:02Z</time>
      </trkpt>
      <trkpt lat="40.9260650" lon="-3.3439600">
        <ele>866.0</ele>
        <time>2020-09-29T15:24:03Z</time>
      </trkpt>
      <trkpt lat="40.9260650" lon="-3.3439600">
        <ele>866.0</ele>
        <time>2020-09-29T15:24:04Z</time>
      </trkpt>
      <trkpt lat="40.9259220" lon="-3.3440820">
        <ele>864.0</ele>
        <time>2020-09-29T15:24:05Z</time>
      </trkpt>
      <trkpt lat="40.9259220" lon="-3.3440820">
        <ele>864.0</ele>
        <time>2020-09-29T15:24:06Z</time>
      </trkpt>
      <trkpt lat="40.9257900" lon="-3.3442020">
        <ele>862.0</ele>
        <time>2020-09-29T15:24:07Z</time>
      </trkpt>
      <trkpt lat="40.9257900" lon="-3.3442020">
        <ele>862.0</ele>
        <time>2020-09-29T15:24:08Z</time>
      </trkpt>
      <trkpt lat="40.9256930" lon="-3.3443020">
        <ele>861.0</ele>
        <time>2020-09-29T15:24:09Z</time>
      </trkpt>
      <trkpt lat="40.9256520" lon="-3.3443470">
        <ele>861.0</ele>
        <time>2020-09-29T15:24:10Z</time>
      </trkpt>
      <trkpt lat="40.9256520" lon="-3.3443470">
        <ele>859.0</ele>
        <time>2020-09-29T15:24:11Z</time>
      </trkpt>
      <trkpt lat="40.9255430" lon="-3.3444300">
        <ele>859.0</ele>
        <time>2020-09-29T15:24:12Z</time>
      </trkpt>
      <trkpt lat="40.9255430" lon="-3.3444300">
        <ele>858.0</ele>
        <time>2020-09-29T15:24:13Z</time>
      </trkpt>
      <trkpt lat="40.9254270" lon="-3.3445200">
        <ele>857.0</ele>
        <time>2020-09-29T15:24:14Z</time>
      </trkpt>
      <trkpt lat="40.9254270" lon="-3.3445200">
        <ele>857.0</ele>
        <time>2020-09-29T15:24:15Z</time>
      </trkpt>
      <trkpt lat="40.9253100" lon="-3.3446130">
        <ele>855.0</ele>
        <time>2020-09-29T15:24:16Z</time>
      </trkpt>
      <trkpt lat="40.9253100" lon="-3.3446130">
        <ele>855.0</ele>
        <time>2020-09-29T15:24:17Z</time>
      </trkpt>
      <trkpt lat="40.9251850" lon="-3.3446950">
        <ele>854.0</ele>
        <time>2020-09-29T15:24:18Z</time>
      </trkpt>
      <trkpt lat="40.9251850" lon="-3.3446950">
        <ele>854.0</ele>
        <time>2020-09-29T15:24:19Z</time>
      </trkpt>
      <trkpt lat="40.9250520" lon="-3.3447730">
        <ele>853.0</ele>
        <time>2020-09-29T15:24:20Z</time>
      </trkpt>
      <trkpt lat="40.9250520" lon="-3.3447730">
        <ele>853.0</ele>
        <time>2020-09-29T15:24:21Z</time>
      </trkpt>
      <trkpt lat="40.9249080" lon="-3.3448500">
        <ele>852.0</ele>
        <time>2020-09-29T15:24:22Z</time>
      </trkpt>
      <trkpt lat="40.9248330" lon="-3.3448850">
        <ele>852.0</ele>
        <time>2020-09-29T15:24:23Z</time>
      </trkpt>
      <trkpt lat="40.9248330" lon="-3.3448850">
        <ele>851.0</ele>
        <time>2020-09-29T15:24:24Z</time>
      </trkpt>
      <trkpt lat="40.9246870" lon="-3.3449500">
        <ele>851.0</ele>
        <time>2020-09-29T15:24:25Z</time>
      </trkpt>
      <trkpt lat="40.9246130" lon="-3.3449780">
        <ele>849.0</ele>
        <time>2020-09-29T15:24:26Z</time>
      </trkpt>
      <trkpt lat="40.9246130" lon="-3.3449780">
        <ele>849.0</ele>
        <time>2020-09-29T15:24:27Z</time>
      </trkpt>
      <trkpt lat="40.9244570" lon="-3.3450180">
        <ele>848.0</ele>
        <time>2020-09-29T15:24:28Z</time>
      </trkpt>
      <trkpt lat="40.9244570" lon="-3.3450180">
        <ele>848.0</ele>
        <time>2020-09-29T15:24:29Z</time>
      </trkpt>
      <trkpt lat="40.9243000" lon="-3.3450520">
        <ele>846.0</ele>
        <time>2020-09-29T15:24:30Z</time>
      </trkpt>
      <trkpt lat="40.9242250" lon="-3.3450730">
        <ele>846.0</ele>
        <time>2020-09-29T15:24:31Z</time>
      </trkpt>
      <trkpt lat="40.9242250" lon="-3.3450730">
        <ele>844.0</ele>
        <time>2020-09-29T15:24:32Z</time>
      </trkpt>
      <trkpt lat="40.9240830" lon="-3.3451580">
        <ele>844.0</ele>
        <time>2020-09-29T15:24:33Z</time>
      </trkpt>
      <trkpt lat="40.9240170" lon="-3.3452150">
        <ele>843.0</ele>
        <time>2020-09-29T15:24:34Z</time>
      </trkpt>
      <trkpt lat="40.9240170" lon="-3.3452150">
        <ele>843.0</ele>
        <time>2020-09-29T15:24:35Z</time>
      </trkpt>
      <trkpt lat="40.9238800" lon="-3.3453320">
        <ele>841.0</ele>
        <time>2020-09-29T15:24:36Z</time>
      </trkpt>
      <trkpt lat="40.9238120" lon="-3.3453830">
        <ele>841.0</ele>
        <time>2020-09-29T15:24:37Z</time>
      </trkpt>
      <trkpt lat="40.9238120" lon="-3.3453830">
        <ele>839.0</ele>
        <time>2020-09-29T15:24:38Z</time>
      </trkpt>
      <trkpt lat="40.9236720" lon="-3.3454530">
        <ele>839.0</ele>
        <time>2020-09-29T15:24:39Z</time>
      </trkpt>
      <trkpt lat="40.9236720" lon="-3.3454530">
        <ele>837.0</ele>
        <time>2020-09-29T15:24:40Z</time>
      </trkpt>
      <trkpt lat="40.9235280" lon="-3.3454500">
        <ele>837.0</ele>
        <time>2020-09-29T15:24:41Z</time>
      </trkpt>
      <trkpt lat="40.9235280" lon="-3.3454500">
        <ele>836.0</ele>
        <time>2020-09-29T15:24:42Z</time>
      </trkpt>
      <trkpt lat="40.9233720" lon="-3.3454150">
        <ele>836.0</ele>
        <time>2020-09-29T15:24:43Z</time>
      </trkpt>
      <trkpt lat="40.9232900" lon="-3.3453930">
        <ele>834.0</ele>
        <time>2020-09-29T15:24:44Z</time>
      </trkpt>
      <trkpt lat="40.9232900" lon="-3.3453930">
        <ele>834.0</ele>
        <time>2020-09-29T15:24:45Z</time>
      </trkpt>
      <trkpt lat="40.9231170" lon="-3.3453480">
        <ele>833.0</ele>
        <time>2020-09-29T15:24:46Z</time>
      </trkpt>
      <trkpt lat="40.9231170" lon="-3.3453480">
        <ele>833.0</ele>
        <time>2020-09-29T15:24:47Z</time>
      </trkpt>
      <trkpt lat="40.9229350" lon="-3.3453100">
        <ele>831.0</ele>
        <time>2020-09-29T15:24:48Z</time>
      </trkpt>
      <trkpt lat="40.9229350" lon="-3.3453100">
        <ele>831.0</ele>
        <time>2020-09-29T15:24:49Z</time>
      </trkpt>
      <trkpt lat="40.9227570" lon="-3.3452700">
        <ele>830.0</ele>
        <time>2020-09-29T15:24:50Z</time>
      </trkpt>
      <trkpt lat="40.9227570" lon="-3.3452700">
        <ele>828.0</ele>
        <time>2020-09-29T15:24:51Z</time>
      </trkpt>
      <trkpt lat="40.9225870" lon="-3.3452350">
        <ele>828.0</ele>
        <time>2020-09-29T15:24:52Z</time>
      </trkpt>
      <trkpt lat="40.9225120" lon="-3.3452280">
        <ele>826.0</ele>
        <time>2020-09-29T15:24:53Z</time>
      </trkpt>
      <trkpt lat="40.9225120" lon="-3.3452280">
        <ele>826.0</ele>
        <time>2020-09-29T15:24:54Z</time>
      </trkpt>
      <trkpt lat="40.9223580" lon="-3.3452570">
        <ele>825.0</ele>
        <time>2020-09-29T15:24:55Z</time>
      </trkpt>
      <trkpt lat="40.9223580" lon="-3.3452570">
        <ele>825.0</ele>
        <time>2020-09-29T15:24:56Z</time>
      </trkpt>
      <trkpt lat="40.9221930" lon="-3.3453370">
        <ele>823.0</ele>
        <time>2020-09-29T15:24:57Z</time>
      </trkpt>
      <trkpt lat="40.9221930" lon="-3.3453370">
        <ele>823.0</ele>
        <time>2020-09-29T15:24:58Z</time>
      </trkpt>
      <trkpt lat="40.9220080" lon="-3.3454320">
        <ele>821.0</ele>
        <time>2020-09-29T15:24:59Z</time>
      </trkpt>
      <trkpt lat="40.9219130" lon="-3.3454800">
        <ele>821.0</ele>
        <time>2020-09-29T15:25:00Z</time>
      </trkpt>
      <trkpt lat="40.9219130" lon="-3.3454800">
        <ele>819.0</ele>
        <time>2020-09-29T15:25:01Z</time>
      </trkpt>
      <trkpt lat="40.9217250" lon="-3.3455780">
        <ele>819.0</ele>
        <time>2020-09-29T15:25:02Z</time>
      </trkpt>
      <trkpt lat="40.9217250" lon="-3.3455780">
        <ele>817.0</ele>
        <time>2020-09-29T15:25:03Z</time>
      </trkpt>
      <trkpt lat="40.9215350" lon="-3.3456730">
        <ele>817.0</ele>
        <time>2020-09-29T15:25:04Z</time>
      </trkpt>
      <trkpt lat="40.9214420" lon="-3.3457220">
        <ele>816.0</ele>
        <time>2020-09-29T15:25:05Z</time>
      </trkpt>
      <trkpt lat="40.9214420" lon="-3.3457220">
        <ele>816.0</ele>
        <time>2020-09-29T15:25:06Z</time>
      </trkpt>
      <trkpt lat="40.9212680" lon="-3.3458130">
        <ele>814.0</ele>
        <time>2020-09-29T15:25:07Z</time>
      </trkpt>
      <trkpt lat="40.9212680" lon="-3.3458130">
        <ele>814.0</ele>
        <time>2020-09-29T15:25:08Z</time>
      </trkpt>
      <trkpt lat="40.9211330" lon="-3.3459100">
        <ele>812.0</ele>
        <time>2020-09-29T15:25:09Z</time>
      </trkpt>
      <trkpt lat="40.9210880" lon="-3.3459720">
        <ele>812.0</ele>
        <time>2020-09-29T15:25:10Z</time>
      </trkpt>
      <trkpt lat="40.9210880" lon="-3.3459720">
        <ele>811.0</ele>
        <time>2020-09-29T15:25:11Z</time>
      </trkpt>
      <trkpt lat="40.9210550" lon="-3.3461130">
        <ele>811.0</ele>
        <time>2020-09-29T15:25:12Z</time>
      </trkpt>
      <trkpt lat="40.9210550" lon="-3.3461130">
        <ele>811.0</ele>
        <time>2020-09-29T15:25:13Z</time>
      </trkpt>
      <trkpt lat="40.9210470" lon="-3.3462750">
        <ele>810.0</ele>
        <time>2020-09-29T15:25:14Z</time>
      </trkpt>
      <trkpt lat="40.9210470" lon="-3.3462750">
        <ele>810.0</ele>
        <time>2020-09-29T15:25:15Z</time>
      </trkpt>
      <trkpt lat="40.9209980" lon="-3.3464050">
        <ele>810.0</ele>
        <time>2020-09-29T15:25:16Z</time>
      </trkpt>
      <trkpt lat="40.9209520" lon="-3.3464370">
        <ele>810.0</ele>
        <time>2020-09-29T15:25:17Z</time>
      </trkpt>
      <trkpt lat="40.9209520" lon="-3.3464370">
        <ele>809.0</ele>
        <time>2020-09-29T15:25:18Z</time>
      </trkpt>
      <trkpt lat="40.9208530" lon="-3.3464670">
        <ele>809.0</ele>
        <time>2020-09-29T15:25:19Z</time>
      </trkpt>
      <trkpt lat="40.9208020" lon="-3.3464770">
        <ele>809.0</ele>
        <time>2020-09-29T15:25:20Z</time>
      </trkpt>
      <trkpt lat="40.9208020" lon="-3.3464770">
        <ele>809.0</ele>
        <time>2020-09-29T15:25:21Z</time>
      </trkpt>
      <trkpt lat="40.9206980" lon="-3.3464870">
        <ele>809.0</ele>
        <time>2020-09-29T15:25:22Z</time>
      </trkpt>
      <trkpt lat="40.9206980" lon="-3.3464870">
        <ele>809.0</ele>
        <time>2020-09-29T15:25:23Z</time>
      </trkpt>
      <trkpt lat="40.9205970" lon="-3.3464970">
        <ele>809.0</ele>
        <time>2020-09-29T15:25:24Z</time>
      </trkpt>
      <trkpt lat="40.9205970" lon="-3.3464970">
        <ele>808.0</ele>
        <time>2020-09-29T15:25:25Z</time>
      </trkpt>
      <trkpt lat="40.9204950" lon="-3.3465020">
        <ele>808.0</ele>
        <time>2020-09-29T15:25:26Z</time>
      </trkpt>
      <trkpt lat="40.9204950" lon="-3.3465020">
        <ele>808.0</ele>
        <time>2020-09-29T15:25:27Z</time>
      </trkpt>
      <trkpt lat="40.9203950" lon="-3.3465230">
        <ele>808.0</ele>
        <time>2020-09-29T15:25:28Z</time>
      </trkpt>
      <trkpt lat="40.9203950" lon="-3.3465230">
        <ele>808.0</ele>
        <time>2020-09-29T15:25:29Z</time>
      </trkpt>
      <trkpt lat="40.9202900" lon="-3.3465370">
        <ele>808.0</ele>
        <time>2020-09-29T15:25:30Z</time>
      </trkpt>
      <trkpt lat="40.9202900" lon="-3.3465370">
        <ele>808.0</ele>
        <time>2020-09-29T15:25:31Z</time>
      </trkpt>
      <trkpt lat="40.9201850" lon="-3.3465520">
        <ele>808.0</ele>
        <time>2020-09-29T15:25:32Z</time>
      </trkpt>
      <trkpt lat="40.9201850" lon="-3.3465520">
        <ele>808.0</ele>
        <time>2020-09-29T15:25:33Z</time>
      </trkpt>
      <trkpt lat="40.9200830" lon="-3.3465670">
        <ele>808.0</ele>
        <time>2020-09-29T15:25:34Z</time>
      </trkpt>
      <trkpt lat="40.9200330" lon="-3.3465780">
        <ele>808.0</ele>
        <time>2020-09-29T15:25:35Z</time>
      </trkpt>
      <trkpt lat="40.9200330" lon="-3.3465780">
        <ele>808.0</ele>
        <time>2020-09-29T15:25:36Z</time>
      </trkpt>
      <trkpt lat="40.9199320" lon="-3.3466170">
        <ele>808.0</ele>
        <time>2020-09-29T15:25:37Z</time>
      </trkpt>
      <trkpt lat="40.9198830" lon="-3.3466450">
        <ele>808.0</ele>
        <time>2020-09-29T15:25:38Z</time>
      </trkpt>
      <trkpt lat="40.9198830" lon="-3.3466450">
        <ele>808.0</ele>
        <time>2020-09-29T15:25:39Z</time>
      </trkpt>
      <trkpt lat="40.9197950" lon="-3.3467180">
        <ele>808.0</ele>
        <time>2020-09-29T15:25:40Z</time>
      </trkpt>
      <trkpt lat="40.9197530" lon="-3.3467620">
        <ele>808.0</ele>
        <time>2020-09-29T15:25:41Z</time>
      </trkpt>
      <trkpt lat="40.9197530" lon="-3.3467620">
        <ele>808.0</ele>
        <time>2020-09-29T15:25:42Z</time>
      </trkpt>
      <trkpt lat="40.9196780" lon="-3.3468650">
        <ele>808.0</ele>
        <time>2020-09-29T15:25:43Z</time>
      </trkpt>
      <trkpt lat="40.9196780" lon="-3.3468650">
        <ele>808.0</ele>
        <time>2020-09-29T15:25:44Z</time>
      </trkpt>
      <trkpt lat="40.9196100" lon="-3.3469770">
        <ele>808.0</ele>
        <time>2020-09-29T15:25:45Z</time>
      </trkpt>
      <trkpt lat="40.9195800" lon="-3.3470370">
        <ele>808.0</ele>
        <time>2020-09-29T15:25:46Z</time>
      </trkpt>
      <trkpt lat="40.9195550" lon="-3.3470950">
        <ele>808.0</ele>
        <time>2020-09-29T15:25:47Z</time>
      </trkpt>
      <trkpt lat="40.9195550" lon="-3.3470950">
        <ele>807.0</ele>
        <time>2020-09-29T15:25:48Z</time>
      </trkpt>
      <trkpt lat="40.9194970" lon="-3.3471980">
        <ele>807.0</ele>
        <time>2020-09-29T15:25:49Z</time>
      </trkpt>
      <trkpt lat="40.9194970" lon="-3.3471980">
        <ele>807.0</ele>
        <time>2020-09-29T15:25:50Z</time>
      </trkpt>
      <trkpt lat="40.9194350" lon="-3.3472730">
        <ele>807.0</ele>
        <time>2020-09-29T15:25:51Z</time>
      </trkpt>
      <trkpt lat="40.9194350" lon="-3.3472730">
        <ele>807.0</ele>
        <time>2020-09-29T15:25:52Z</time>
      </trkpt>
      <trkpt lat="40.9193850" lon="-3.3473580">
        <ele>807.0</ele>
        <time>2020-09-29T15:25:53Z</time>
      </trkpt>
      <trkpt lat="40.9193850" lon="-3.3473580">
        <ele>807.0</ele>
        <time>2020-09-29T15:25:54Z</time>
      </trkpt>
      <trkpt lat="40.9193320" lon="-3.3474520">
        <ele>807.0</ele>
        <time>2020-09-29T15:25:55Z</time>
      </trkpt>
      <trkpt lat="40.9193050" lon="-3.3474970">
        <ele>807.0</ele>
        <time>2020-09-29T15:25:56Z</time>
      </trkpt>
      <trkpt lat="40.9193050" lon="-3.3474970">
        <ele>807.0</ele>
        <time>2020-09-29T15:25:57Z</time>
      </trkpt>
      <trkpt lat="40.9192580" lon="-3.3475880">
        <ele>807.0</ele>
        <time>2020-09-29T15:25:58Z</time>
      </trkpt>
      <trkpt lat="40.9192350" lon="-3.3476370">
        <ele>807.0</ele>
        <time>2020-09-29T15:25:59Z</time>
      </trkpt>
      <trkpt lat="40.9192350" lon="-3.3476370">
        <ele>808.0</ele>
        <time>2020-09-29T15:26:00Z</time>
      </trkpt>
      <trkpt lat="40.9191820" lon="-3.3477250">
        <ele>808.0</ele>
        <time>2020-09-29T15:26:01Z</time>
      </trkpt>
      <trkpt lat="40.9191580" lon="-3.3477650">
        <ele>808.0</ele>
        <time>2020-09-29T15:26:02Z</time>
      </trkpt>
      <trkpt lat="40.9191580" lon="-3.3477650">
        <ele>809.0</ele>
        <time>2020-09-29T15:26:03Z</time>
      </trkpt>
      <trkpt lat="40.9191080" lon="-3.3478400">
        <ele>809.0</ele>
        <time>2020-09-29T15:26:04Z</time>
      </trkpt>
      <trkpt lat="40.9191080" lon="-3.3478400">
        <ele>809.0</ele>
        <time>2020-09-29T15:26:05Z</time>
      </trkpt>
      <trkpt lat="40.9190620" lon="-3.3479150">
        <ele>809.0</ele>
        <time>2020-09-29T15:26:06Z</time>
      </trkpt>
      <trkpt lat="40.9190620" lon="-3.3479150">
        <ele>809.0</ele>
        <time>2020-09-29T15:26:07Z</time>
      </trkpt>
      <trkpt lat="40.9190230" lon="-3.3479920">
        <ele>809.0</ele>
        <time>2020-09-29T15:26:08Z</time>
      </trkpt>
      <trkpt lat="40.9190230" lon="-3.3479920">
        <ele>810.0</ele>
        <time>2020-09-29T15:26:09Z</time>
      </trkpt>
      <trkpt lat="40.9189880" lon="-3.3480630">
        <ele>810.0</ele>
        <time>2020-09-29T15:26:10Z</time>
      </trkpt>
      <trkpt lat="40.9189880" lon="-3.3480630">
        <ele>810.0</ele>
        <time>2020-09-29T15:26:11Z</time>
      </trkpt>
      <trkpt lat="40.9189570" lon="-3.3481270">
        <ele>810.0</ele>
        <time>2020-09-29T15:26:12Z</time>
      </trkpt>
      <trkpt lat="40.9189570" lon="-3.3481270">
        <ele>811.0</ele>
        <time>2020-09-29T15:26:13Z</time>
      </trkpt>
      <trkpt lat="40.9189280" lon="-3.3481830">
        <ele>811.0</ele>
        <time>2020-09-29T15:26:14Z</time>
      </trkpt>
      <trkpt lat="40.9189130" lon="-3.3482120">
        <ele>811.0</ele>
        <time>2020-09-29T15:26:15Z</time>
      </trkpt>
      <trkpt lat="40.9189130" lon="-3.3482120">
        <ele>811.0</ele>
        <time>2020-09-29T15:26:16Z</time>
      </trkpt>
      <trkpt lat="40.9188830" lon="-3.3482630">
        <ele>812.0</ele>
        <time>2020-09-29T15:26:17Z</time>
      </trkpt>
      <trkpt lat="40.9188830" lon="-3.3482630">
        <ele>812.0</ele>
        <time>2020-09-29T15:26:18Z</time>
      </trkpt>
      <trkpt lat="40.9188630" lon="-3.3483230">
        <ele>812.0</ele>
        <time>2020-09-29T15:26:19Z</time>
      </trkpt>
      <trkpt lat="40.9188530" lon="-3.3483530">
        <ele>812.0</ele>
        <time>2020-09-29T15:26:20Z</time>
      </trkpt>
      <trkpt lat="40.9188530" lon="-3.3483530">
        <ele>813.0</ele>
        <time>2020-09-29T15:26:21Z</time>
      </trkpt>
      <trkpt lat="40.9188330" lon="-3.3484200">
        <ele>813.0</ele>
        <time>2020-09-29T15:26:22Z</time>
      </trkpt>
      <trkpt lat="40.9188230" lon="-3.3484550">
        <ele>813.0</ele>
        <time>2020-09-29T15:26:23Z</time>
      </trkpt>
      <trkpt lat="40.9188080" lon="-3.3484870">
        <ele>813.0</ele>
        <time>2020-09-29T15:26:24Z</time>
      </trkpt>
      <trkpt lat="40.9188080" lon="-3.3484870">
        <ele>813.0</ele>
        <time>2020-09-29T15:26:25Z</time>
      </trkpt>
      <trkpt lat="40.9187820" lon="-3.3485520">
        <ele>813.0</ele>
        <time>2020-09-29T15:26:26Z</time>
      </trkpt>
      <trkpt lat="40.9187820" lon="-3.3485520">
        <ele>814.0</ele>
        <time>2020-09-29T15:26:27Z</time>
      </trkpt>
      <trkpt lat="40.9187570" lon="-3.3486120">
        <ele>814.0</ele>
        <time>2020-09-29T15:26:28Z</time>
      </trkpt>
      <trkpt lat="40.9187570" lon="-3.3486120">
        <ele>814.0</ele>
        <time>2020-09-29T15:26:29Z</time>
      </trkpt>
      <trkpt lat="40.9187370" lon="-3.3486750">
        <ele>814.0</ele>
        <time>2020-09-29T15:26:30Z</time>
      </trkpt>
      <trkpt lat="40.9187230" lon="-3.3487100">
        <ele>814.0</ele>
        <time>2020-09-29T15:26:31Z</time>
      </trkpt>
      <trkpt lat="40.9187230" lon="-3.3487100">
        <ele>814.0</ele>
        <time>2020-09-29T15:26:32Z</time>
      </trkpt>
      <trkpt lat="40.9187050" lon="-3.3487730">
        <ele>815.0</ele>
        <time>2020-09-29T15:26:33Z</time>
      </trkpt>
      <trkpt lat="40.9187050" lon="-3.3487730">
        <ele>815.0</ele>
        <time>2020-09-29T15:26:34Z</time>
      </trkpt>
      <trkpt lat="40.9186830" lon="-3.3488320">
        <ele>815.0</ele>
        <time>2020-09-29T15:26:35Z</time>
      </trkpt>
      <trkpt lat="40.9186700" lon="-3.3488620">
        <ele>815.0</ele>
        <time>2020-09-29T15:26:36Z</time>
      </trkpt>
      <trkpt lat="40.9186700" lon="-3.3488620">
        <ele>815.0</ele>
        <time>2020-09-29T15:26:37Z</time>
      </trkpt>
      <trkpt lat="40.9186400" lon="-3.3489180">
        <ele>816.0</ele>
        <time>2020-09-29T15:26:38Z</time>
      </trkpt>
      <trkpt lat="40.9186400" lon="-3.3489180">
        <ele>816.0</ele>
        <time>2020-09-29T15:26:39Z</time>
      </trkpt>
      <trkpt lat="40.9186070" lon="-3.3489720">
        <ele>816.0</ele>
        <time>2020-09-29T15:26:40Z</time>
      </trkpt>
      <trkpt lat="40.9186070" lon="-3.3489720">
        <ele>816.0</ele>
        <time>2020-09-29T15:26:41Z</time>
      </trkpt>
      <trkpt lat="40.9185750" lon="-3.3490270">
        <ele>816.0</ele>
        <time>2020-09-29T15:26:42Z</time>
      </trkpt>
      <trkpt lat="40.9185550" lon="-3.3490530">
        <ele>817.0</ele>
        <time>2020-09-29T15:26:43Z</time>
      </trkpt>
      <trkpt lat="40.9185370" lon="-3.3490800">
        <ele>817.0</ele>
        <time>2020-09-29T15:26:44Z</time>
      </trkpt>
      <trkpt lat="40.9185370" lon="-3.3490800">
        <ele>817.0</ele>
        <time>2020-09-29T15:26:45Z</time>
      </trkpt>
      <trkpt lat="40.9185000" lon="-3.3491320">
        <ele>817.0</ele>
        <time>2020-09-29T15:26:46Z</time>
      </trkpt>
      <trkpt lat="40.9184830" lon="-3.3491580">
        <ele>818.0</ele>
        <time>2020-09-29T15:26:47Z</time>
      </trkpt>
      <trkpt lat="40.9184830" lon="-3.3491580">
        <ele>818.0</ele>
        <time>2020-09-29T15:26:48Z</time>
      </trkpt>
      <trkpt lat="40.9184550" lon="-3.3492050">
        <ele>818.0</ele>
        <time>2020-09-29T15:26:49Z</time>
      </trkpt>
      <trkpt lat="40.9184370" lon="-3.3492280">
        <ele>818.0</ele>
        <time>2020-09-29T15:26:50Z</time>
      </trkpt>
      <trkpt lat="40.9184370" lon="-3.3492280">
        <ele>819.0</ele>
        <time>2020-09-29T15:26:51Z</time>
      </trkpt>
      <trkpt lat="40.9184070" lon="-3.3492720">
        <ele>819.0</ele>
        <time>2020-09-29T15:26:52Z</time>
      </trkpt>
      <trkpt lat="40.9184070" lon="-3.3492720">
        <ele>819.0</ele>
        <time>2020-09-29T15:26:53Z</time>
      </trkpt>
      <trkpt lat="40.9183750" lon="-3.3493170">
        <ele>819.0</ele>
        <time>2020-09-29T15:26:54Z</time>
      </trkpt>
      <trkpt lat="40.9183750" lon="-3.3493170">
        <ele>820.0</ele>
        <time>2020-09-29T15:26:55Z</time>
      </trkpt>
      <trkpt lat="40.9183450" lon="-3.3493730">
        <ele>820.0</ele>
        <time>2020-09-29T15:26:56Z</time>
      </trkpt>
      <trkpt lat="40.9183450" lon="-3.3493730">
        <ele>820.0</ele>
        <time>2020-09-29T15:26:57Z</time>
      </trkpt>
      <trkpt lat="40.9183080" lon="-3.3494230">
        <ele>820.0</ele>
        <time>2020-09-29T15:26:58Z</time>
      </trkpt>
      <trkpt lat="40.9183080" lon="-3.3494230">
        <ele>821.0</ele>
        <time>2020-09-29T15:26:59Z</time>
      </trkpt>
      <trkpt lat="40.9182730" lon="-3.3494730">
        <ele>821.0</ele>
        <time>2020-09-29T15:27:00Z</time>
      </trkpt>
      <trkpt lat="40.9182570" lon="-3.3495020">
        <ele>821.0</ele>
        <time>2020-09-29T15:27:01Z</time>
      </trkpt>
      <trkpt lat="40.9182380" lon="-3.3495280">
        <ele>821.0</ele>
        <time>2020-09-29T15:27:02Z</time>
      </trkpt>
      <trkpt lat="40.9182380" lon="-3.3495280">
        <ele>822.0</ele>
        <time>2020-09-29T15:27:03Z</time>
      </trkpt>
      <trkpt lat="40.9182000" lon="-3.3495670">
        <ele>822.0</ele>
        <time>2020-09-29T15:27:04Z</time>
      </trkpt>
      <trkpt lat="40.9181770" lon="-3.3495850">
        <ele>822.0</ele>
        <time>2020-09-29T15:27:05Z</time>
      </trkpt>
      <trkpt lat="40.9181770" lon="-3.3495850">
        <ele>822.0</ele>
        <time>2020-09-29T15:27:06Z</time>
      </trkpt>
      <trkpt lat="40.9181300" lon="-3.3496170">
        <ele>823.0</ele>
        <time>2020-09-29T15:27:07Z</time>
      </trkpt>
      <trkpt lat="40.9181070" lon="-3.3496280">
        <ele>823.0</ele>
        <time>2020-09-29T15:27:08Z</time>
      </trkpt>
      <trkpt lat="40.9181070" lon="-3.3496280">
        <ele>823.0</ele>
        <time>2020-09-29T15:27:09Z</time>
      </trkpt>
      <trkpt lat="40.9180570" lon="-3.3496450">
        <ele>823.0</ele>
        <time>2020-09-29T15:27:10Z</time>
      </trkpt>
      <trkpt lat="40.9180280" lon="-3.3496530">
        <ele>824.0</ele>
        <time>2020-09-29T15:27:11Z</time>
      </trkpt>
      <trkpt lat="40.9180280" lon="-3.3496530">
        <ele>824.0</ele>
        <time>2020-09-29T15:27:12Z</time>
      </trkpt>
      <trkpt lat="40.9179800" lon="-3.3496780">
        <ele>824.0</ele>
        <time>2020-09-29T15:27:13Z</time>
      </trkpt>
      <trkpt lat="40.9179800" lon="-3.3496780">
        <ele>825.0</ele>
        <time>2020-09-29T15:27:14Z</time>
      </trkpt>
      <trkpt lat="40.9179330" lon="-3.3497080">
        <ele>825.0</ele>
        <time>2020-09-29T15:27:15Z</time>
      </trkpt>
      <trkpt lat="40.9179330" lon="-3.3497080">
        <ele>825.0</ele>
        <time>2020-09-29T15:27:16Z</time>
      </trkpt>
      <trkpt lat="40.9178830" lon="-3.3497330">
        <ele>825.0</ele>
        <time>2020-09-29T15:27:17Z</time>
      </trkpt>
      <trkpt lat="40.9178830" lon="-3.3497330">
        <ele>826.0</ele>
        <time>2020-09-29T15:27:18Z</time>
      </trkpt>
      <trkpt lat="40.9178320" lon="-3.3497570">
        <ele>826.0</ele>
        <time>2020-09-29T15:27:19Z</time>
      </trkpt>
      <trkpt lat="40.9178320" lon="-3.3497570">
        <ele>826.0</ele>
        <time>2020-09-29T15:27:20Z</time>
      </trkpt>
      <trkpt lat="40.9177820" lon="-3.3497780">
        <ele>826.0</ele>
        <time>2020-09-29T15:27:21Z</time>
      </trkpt>
      <trkpt lat="40.9177820" lon="-3.3497780">
        <ele>827.0</ele>
        <time>2020-09-29T15:27:22Z</time>
      </trkpt>
      <trkpt lat="40.9177300" lon="-3.3498020">
        <ele>827.0</ele>
        <time>2020-09-29T15:27:23Z</time>
      </trkpt>
      <trkpt lat="40.9177050" lon="-3.3498130">
        <ele>827.0</ele>
        <time>2020-09-29T15:27:24Z</time>
      </trkpt>
      <trkpt lat="40.9177050" lon="-3.3498130">
        <ele>827.0</ele>
        <time>2020-09-29T15:27:25Z</time>
      </trkpt>
      <trkpt lat="40.9176550" lon="-3.3498430">
        <ele>827.0</ele>
        <time>2020-09-29T15:27:26Z</time>
      </trkpt>
      <trkpt lat="40.9176550" lon="-3.3498430">
        <ele>827.0</ele>
        <time>2020-09-29T15:27:27Z</time>
      </trkpt>
      <trkpt lat="40.9176030" lon="-3.3498770">
        <ele>828.0</ele>
        <time>2020-09-29T15:27:28Z</time>
      </trkpt>
      <trkpt lat="40.9176030" lon="-3.3498770">
        <ele>828.0</ele>
        <time>2020-09-29T15:27:29Z</time>
      </trkpt>
      <trkpt lat="40.9175550" lon="-3.3499100">
        <ele>828.0</ele>
        <time>2020-09-29T15:27:30Z</time>
      </trkpt>
      <trkpt lat="40.9175550" lon="-3.3499100">
        <ele>828.0</ele>
        <time>2020-09-29T15:27:31Z</time>
      </trkpt>
      <trkpt lat="40.9175170" lon="-3.3499680">
        <ele>828.0</ele>
        <time>2020-09-29T15:27:32Z</time>
      </trkpt>
      <trkpt lat="40.9175170" lon="-3.3499680">
        <ele>828.0</ele>
        <time>2020-09-29T15:27:33Z</time>
      </trkpt>
      <trkpt lat="40.9174870" lon="-3.3500370">
        <ele>828.0</ele>
        <time>2020-09-29T15:27:34Z</time>
      </trkpt>
      <trkpt lat="40.9174870" lon="-3.3500370">
        <ele>828.0</ele>
        <time>2020-09-29T15:27:35Z</time>
      </trkpt>
      <trkpt lat="40.9174650" lon="-3.3501170">
        <ele>828.0</ele>
        <time>2020-09-29T15:27:36Z</time>
      </trkpt>
      <trkpt lat="40.9174650" lon="-3.3501170">
        <ele>828.0</ele>
        <time>2020-09-29T15:27:37Z</time>
      </trkpt>
      <trkpt lat="40.9174530" lon="-3.3502000">
        <ele>828.0</ele>
        <time>2020-09-29T15:27:38Z</time>
      </trkpt>
      <trkpt lat="40.9174500" lon="-3.3502420">
        <ele>828.0</ele>
        <time>2020-09-29T15:27:39Z</time>
      </trkpt>
      <trkpt lat="40.9174500" lon="-3.3502420">
        <ele>828.0</ele>
        <time>2020-09-29T15:27:40Z</time>
      </trkpt>
      <trkpt lat="40.9174420" lon="-3.3503270">
        <ele>828.0</ele>
        <time>2020-09-29T15:27:41Z</time>
      </trkpt>
      <trkpt lat="40.9174420" lon="-3.3503270">
        <ele>828.0</ele>
        <time>2020-09-29T15:27:42Z</time>
      </trkpt>
      <trkpt lat="40.9174350" lon="-3.3504150">
        <ele>828.0</ele>
        <time>2020-09-29T15:27:43Z</time>
      </trkpt>
      <trkpt lat="40.9174350" lon="-3.3504150">
        <ele>828.0</ele>
        <time>2020-09-29T15:27:44Z</time>
      </trkpt>
      <trkpt lat="40.9174300" lon="-3.3504980">
        <ele>828.0</ele>
        <time>2020-09-29T15:27:45Z</time>
      </trkpt>
      <trkpt lat="40.9174270" lon="-3.3505400">
        <ele>828.0</ele>
        <time>2020-09-29T15:27:46Z</time>
      </trkpt>
      <trkpt lat="40.9174220" lon="-3.3505820">
        <ele>828.0</ele>
        <time>2020-09-29T15:27:47Z</time>
      </trkpt>
      <trkpt lat="40.9174220" lon="-3.3505820">
        <ele>829.0</ele>
        <time>2020-09-29T15:27:48Z</time>
      </trkpt>
      <trkpt lat="40.9174150" lon="-3.3506650">
        <ele>829.0</ele>
        <time>2020-09-29T15:27:49Z</time>
      </trkpt>
      <trkpt lat="40.9174150" lon="-3.3506650">
        <ele>829.0</ele>
        <time>2020-09-29T15:27:50Z</time>
      </trkpt>
      <trkpt lat="40.9174100" lon="-3.3507430">
        <ele>829.0</ele>
        <time>2020-09-29T15:27:51Z</time>
      </trkpt>
      <trkpt lat="40.9174100" lon="-3.3507430">
        <ele>829.0</ele>
        <time>2020-09-29T15:27:52Z</time>
      </trkpt>
      <trkpt lat="40.9174050" lon="-3.3508170">
        <ele>829.0</ele>
        <time>2020-09-29T15:27:53Z</time>
      </trkpt>
      <trkpt lat="40.9174030" lon="-3.3508530">
        <ele>829.0</ele>
        <time>2020-09-29T15:27:54Z</time>
      </trkpt>
      <trkpt lat="40.9174030" lon="-3.3508530">
        <ele>830.0</ele>
        <time>2020-09-29T15:27:55Z</time>
      </trkpt>
      <trkpt lat="40.9173980" lon="-3.3509280">
        <ele>830.0</ele>
        <time>2020-09-29T15:27:56Z</time>
      </trkpt>
      <trkpt lat="40.9173980" lon="-3.3509280">
        <ele>830.0</ele>
        <time>2020-09-29T15:27:57Z</time>
      </trkpt>
      <trkpt lat="40.9173950" lon="-3.3510050">
        <ele>830.0</ele>
        <time>2020-09-29T15:27:58Z</time>
      </trkpt>
      <trkpt lat="40.9173950" lon="-3.3510050">
        <ele>830.0</ele>
        <time>2020-09-29T15:27:59Z</time>
      </trkpt>
      <trkpt lat="40.9174020" lon="-3.3510820">
        <ele>830.0</ele>
        <time>2020-09-29T15:28:00Z</time>
      </trkpt>
      <trkpt lat="40.9174020" lon="-3.3511220">
        <ele>831.0</ele>
        <time>2020-09-29T15:28:01Z</time>
      </trkpt>
      <trkpt lat="40.9174020" lon="-3.3511220">
        <ele>831.0</ele>
        <time>2020-09-29T15:28:02Z</time>
      </trkpt>
      <trkpt lat="40.9174030" lon="-3.3511980">
        <ele>831.0</ele>
        <time>2020-09-29T15:28:03Z</time>
      </trkpt>
      <trkpt lat="40.9174030" lon="-3.3511980">
        <ele>831.0</ele>
        <time>2020-09-29T15:28:04Z</time>
      </trkpt>
      <trkpt lat="40.9174070" lon="-3.3512730">
        <ele>831.0</ele>
        <time>2020-09-29T15:28:05Z</time>
      </trkpt>
      <trkpt lat="40.9174070" lon="-3.3512730">
        <ele>831.0</ele>
        <time>2020-09-29T15:28:06Z</time>
      </trkpt>
      <trkpt lat="40.9174150" lon="-3.3513530">
        <ele>832.0</ele>
        <time>2020-09-29T15:28:07Z</time>
      </trkpt>
      <trkpt lat="40.9174170" lon="-3.3513920">
        <ele>832.0</ele>
        <time>2020-09-29T15:28:08Z</time>
      </trkpt>
      <trkpt lat="40.9174170" lon="-3.3513920">
        <ele>832.0</ele>
        <time>2020-09-29T15:28:09Z</time>
      </trkpt>
      <trkpt lat="40.9174130" lon="-3.3514620">
        <ele>832.0</ele>
        <time>2020-09-29T15:28:10Z</time>
      </trkpt>
      <trkpt lat="40.9174150" lon="-3.3514930">
        <ele>834.0</ele>
        <time>2020-09-29T15:28:11Z</time>
      </trkpt>
      <trkpt lat="40.9174150" lon="-3.3514930">
        <ele>834.0</ele>
        <time>2020-09-29T15:28:12Z</time>
      </trkpt>
      <trkpt lat="40.9174150" lon="-3.3515600">
        <ele>834.0</ele>
        <time>2020-09-29T15:28:13Z</time>
      </trkpt>
      <trkpt lat="40.9174150" lon="-3.3515600">
        <ele>834.0</ele>
        <time>2020-09-29T15:28:14Z</time>
      </trkpt>
      <trkpt lat="40.9174170" lon="-3.3516230">
        <ele>835.0</ele>
        <time>2020-09-29T15:28:15Z</time>
      </trkpt>
      <trkpt lat="40.9174170" lon="-3.3516230">
        <ele>835.0</ele>
        <time>2020-09-29T15:28:16Z</time>
      </trkpt>
      <trkpt lat="40.9174170" lon="-3.3516900">
        <ele>835.0</ele>
        <time>2020-09-29T15:28:17Z</time>
      </trkpt>
      <trkpt lat="40.9174170" lon="-3.3516900">
        <ele>835.0</ele>
        <time>2020-09-29T15:28:18Z</time>
      </trkpt>
      <trkpt lat="40.9174180" lon="-3.3517550">
        <ele>836.0</ele>
        <time>2020-09-29T15:28:19Z</time>
      </trkpt>
      <trkpt lat="40.9174170" lon="-3.3517900">
        <ele>836.0</ele>
        <time>2020-09-29T15:28:20Z</time>
      </trkpt>
      <trkpt lat="40.9174150" lon="-3.3518230">
        <ele>836.0</ele>
        <time>2020-09-29T15:28:21Z</time>
      </trkpt>
      <trkpt lat="40.9174150" lon="-3.3518230">
        <ele>836.0</ele>
        <time>2020-09-29T15:28:22Z</time>
      </trkpt>
      <trkpt lat="40.9174070" lon="-3.3518930">
        <ele>838.0</ele>
        <time>2020-09-29T15:28:23Z</time>
      </trkpt>
      <trkpt lat="40.9174000" lon="-3.3519250">
        <ele>838.0</ele>
        <time>2020-09-29T15:28:24Z</time>
      </trkpt>
      <trkpt lat="40.9174000" lon="-3.3519250">
        <ele>838.0</ele>
        <time>2020-09-29T15:28:25Z</time>
      </trkpt>
      <trkpt lat="40.9173800" lon="-3.3519870">
        <ele>839.0</ele>
        <time>2020-09-29T15:28:26Z</time>
      </trkpt>
      <trkpt lat="40.9173800" lon="-3.3519870">
        <ele>839.0</ele>
        <time>2020-09-29T15:28:27Z</time>
      </trkpt>
      <trkpt lat="40.9173480" lon="-3.3520430">
        <ele>839.0</ele>
        <time>2020-09-29T15:28:28Z</time>
      </trkpt>
      <trkpt lat="40.9173280" lon="-3.3520670">
        <ele>839.0</ele>
        <time>2020-09-29T15:28:29Z</time>
      </trkpt>
      <trkpt lat="40.9173280" lon="-3.3520670">
        <ele>840.0</ele>
        <time>2020-09-29T15:28:30Z</time>
      </trkpt>
      <trkpt lat="40.9172800" lon="-3.3521030">
        <ele>840.0</ele>
        <time>2020-09-29T15:28:31Z</time>
      </trkpt>
      <trkpt lat="40.9172520" lon="-3.3521130">
        <ele>840.0</ele>
        <time>2020-09-29T15:28:32Z</time>
      </trkpt>
      <trkpt lat="40.9172520" lon="-3.3521130">
        <ele>840.0</ele>
        <time>2020-09-29T15:28:33Z</time>
      </trkpt>
      <trkpt lat="40.9171950" lon="-3.3521230">
        <ele>841.0</ele>
        <time>2020-09-29T15:28:34Z</time>
      </trkpt>
      <trkpt lat="40.9171650" lon="-3.3521230">
        <ele>841.0</ele>
        <time>2020-09-29T15:28:35Z</time>
      </trkpt>
      <trkpt lat="40.9171650" lon="-3.3521230">
        <ele>841.0</ele>
        <time>2020-09-29T15:28:36Z</time>
      </trkpt>
      <trkpt lat="40.9171020" lon="-3.3521120">
        <ele>841.0</ele>
        <time>2020-09-29T15:28:37Z</time>
      </trkpt>
      <trkpt lat="40.9171020" lon="-3.3521120">
        <ele>842.0</ele>
        <time>2020-09-29T15:28:38Z</time>
      </trkpt>
      <trkpt lat="40.9170420" lon="-3.3520930">
        <ele>842.0</ele>
        <time>2020-09-29T15:28:39Z</time>
      </trkpt>
      <trkpt lat="40.9170420" lon="-3.3520930">
        <ele>842.0</ele>
        <time>2020-09-29T15:28:40Z</time>
      </trkpt>
      <trkpt lat="40.9169820" lon="-3.3520700">
        <ele>842.0</ele>
        <time>2020-09-29T15:28:41Z</time>
      </trkpt>
      <trkpt lat="40.9169820" lon="-3.3520700">
        <ele>842.0</ele>
        <time>2020-09-29T15:28:42Z</time>
      </trkpt>
      <trkpt lat="40.9169250" lon="-3.3520570">
        <ele>842.0</ele>
        <time>2020-09-29T15:28:43Z</time>
      </trkpt>
      <trkpt lat="40.9168970" lon="-3.3520530">
        <ele>842.0</ele>
        <time>2020-09-29T15:28:44Z</time>
      </trkpt>
      <trkpt lat="40.9168970" lon="-3.3520530">
        <ele>842.0</ele>
        <time>2020-09-29T15:28:45Z</time>
      </trkpt>
      <trkpt lat="40.9168380" lon="-3.3520730">
        <ele>842.0</ele>
        <time>2020-09-29T15:28:46Z</time>
      </trkpt>
      <trkpt lat="40.9168380" lon="-3.3520730">
        <ele>842.0</ele>
        <time>2020-09-29T15:28:47Z</time>
      </trkpt>
      <trkpt lat="40.9167880" lon="-3.3521270">
        <ele>842.0</ele>
        <time>2020-09-29T15:28:48Z</time>
      </trkpt>
      <trkpt lat="40.9167880" lon="-3.3521270">
        <ele>842.0</ele>
        <time>2020-09-29T15:28:49Z</time>
      </trkpt>
      <trkpt lat="40.9167370" lon="-3.3521930">
        <ele>842.0</ele>
        <time>2020-09-29T15:28:50Z</time>
      </trkpt>
      <trkpt lat="40.9167370" lon="-3.3521930">
        <ele>842.0</ele>
        <time>2020-09-29T15:28:51Z</time>
      </trkpt>
      <trkpt lat="40.9166730" lon="-3.3522750">
        <ele>842.0</ele>
        <time>2020-09-29T15:28:52Z</time>
      </trkpt>
      <trkpt lat="40.9166350" lon="-3.3523180">
        <ele>842.0</ele>
        <time>2020-09-29T15:28:53Z</time>
      </trkpt>
      <trkpt lat="40.9166350" lon="-3.3523180">
        <ele>842.0</ele>
        <time>2020-09-29T15:28:54Z</time>
      </trkpt>
      <trkpt lat="40.9165550" lon="-3.3524200">
        <ele>842.0</ele>
        <time>2020-09-29T15:28:55Z</time>
      </trkpt>
      <trkpt lat="40.9165550" lon="-3.3524200">
        <ele>842.0</ele>
        <time>2020-09-29T15:28:56Z</time>
      </trkpt>
      <trkpt lat="40.9164770" lon="-3.3525550">
        <ele>841.0</ele>
        <time>2020-09-29T15:28:57Z</time>
      </trkpt>
      <trkpt lat="40.9164400" lon="-3.3526350">
        <ele>841.0</ele>
        <time>2020-09-29T15:28:58Z</time>
      </trkpt>
      <trkpt lat="40.9164400" lon="-3.3526350">
        <ele>841.0</ele>
        <time>2020-09-29T15:28:59Z</time>
      </trkpt>
      <trkpt lat="40.9163780" lon="-3.3528100">
        <ele>841.0</ele>
        <time>2020-09-29T15:29:00Z</time>
      </trkpt>
      <trkpt lat="40.9163780" lon="-3.3528100">
        <ele>840.0</ele>
        <time>2020-09-29T15:29:01Z</time>
      </trkpt>
      <trkpt lat="40.9163180" lon="-3.3530080">
        <ele>839.0</ele>
        <time>2020-09-29T15:29:02Z</time>
      </trkpt>
      <trkpt lat="40.9163180" lon="-3.3530080">
        <ele>839.0</ele>
        <time>2020-09-29T15:29:03Z</time>
      </trkpt>
      <trkpt lat="40.9162370" lon="-3.3532050">
        <ele>838.0</ele>
        <time>2020-09-29T15:29:04Z</time>
      </trkpt>
      <trkpt lat="40.9162370" lon="-3.3532050">
        <ele>838.0</ele>
        <time>2020-09-29T15:29:05Z</time>
      </trkpt>
      <trkpt lat="40.9160950" lon="-3.3533580">
        <ele>837.0</ele>
        <time>2020-09-29T15:29:06Z</time>
      </trkpt>
      <trkpt lat="40.9160080" lon="-3.3534050">
        <ele>837.0</ele>
        <time>2020-09-29T15:29:07Z</time>
      </trkpt>
      <trkpt lat="40.9160080" lon="-3.3534050">
        <ele>836.0</ele>
        <time>2020-09-29T15:29:08Z</time>
      </trkpt>
      <trkpt lat="40.9158100" lon="-3.3534680">
        <ele>836.0</ele>
        <time>2020-09-29T15:29:09Z</time>
      </trkpt>
      <trkpt lat="40.9158100" lon="-3.3534680">
        <ele>834.0</ele>
        <time>2020-09-29T15:29:10Z</time>
      </trkpt>
      <trkpt lat="40.9156030" lon="-3.3535250">
        <ele>834.0</ele>
        <time>2020-09-29T15:29:11Z</time>
      </trkpt>
      <trkpt lat="40.9156030" lon="-3.3535250">
        <ele>833.0</ele>
        <time>2020-09-29T15:29:12Z</time>
      </trkpt>
      <trkpt lat="40.9153850" lon="-3.3535750">
        <ele>833.0</ele>
        <time>2020-09-29T15:29:13Z</time>
      </trkpt>
      <trkpt lat="40.9152720" lon="-3.3536000">
        <ele>831.0</ele>
        <time>2020-09-29T15:29:14Z</time>
      </trkpt>
      <trkpt lat="40.9152720" lon="-3.3536000">
        <ele>831.0</ele>
        <time>2020-09-29T15:29:15Z</time>
      </trkpt>
      <trkpt lat="40.9150430" lon="-3.3536620">
        <ele>829.0</ele>
        <time>2020-09-29T15:29:16Z</time>
      </trkpt>
      <trkpt lat="40.9150430" lon="-3.3536620">
        <ele>829.0</ele>
        <time>2020-09-29T15:29:17Z</time>
      </trkpt>
      <trkpt lat="40.9148050" lon="-3.3537250">
        <ele>828.0</ele>
        <time>2020-09-29T15:29:18Z</time>
      </trkpt>
      <trkpt lat="40.9148050" lon="-3.3537250">
        <ele>828.0</ele>
        <time>2020-09-29T15:29:19Z</time>
      </trkpt>
      <trkpt lat="40.9145600" lon="-3.3537870">
        <ele>826.0</ele>
        <time>2020-09-29T15:29:20Z</time>
      </trkpt>
      <trkpt lat="40.9145600" lon="-3.3537870">
        <ele>826.0</ele>
        <time>2020-09-29T15:29:21Z</time>
      </trkpt>
      <trkpt lat="40.9143100" lon="-3.3538470">
        <ele>825.0</ele>
        <time>2020-09-29T15:29:22Z</time>
      </trkpt>
      <trkpt lat="40.9143100" lon="-3.3538470">
        <ele>825.0</ele>
        <time>2020-09-29T15:29:23Z</time>
      </trkpt>
      <trkpt lat="40.9140500" lon="-3.3538920">
        <ele>823.0</ele>
        <time>2020-09-29T15:29:24Z</time>
      </trkpt>
      <trkpt lat="40.9140500" lon="-3.3538920">
        <ele>823.0</ele>
        <time>2020-09-29T15:29:25Z</time>
      </trkpt>
      <trkpt lat="40.9137870" lon="-3.3538920">
        <ele>823.0</ele>
        <time>2020-09-29T15:29:26Z</time>
      </trkpt>
      <trkpt lat="40.9137870" lon="-3.3538920">
        <ele>821.0</ele>
        <time>2020-09-29T15:29:27Z</time>
      </trkpt>
      <trkpt lat="40.9135270" lon="-3.3538350">
        <ele>821.0</ele>
        <time>2020-09-29T15:29:28Z</time>
      </trkpt>
      <trkpt lat="40.9134000" lon="-3.3537970">
        <ele>819.0</ele>
        <time>2020-09-29T15:29:29Z</time>
      </trkpt>
      <trkpt lat="40.9134000" lon="-3.3537970">
        <ele>819.0</ele>
        <time>2020-09-29T15:29:30Z</time>
      </trkpt>
      <trkpt lat="40.9131470" lon="-3.3537200">
        <ele>817.0</ele>
        <time>2020-09-29T15:29:31Z</time>
      </trkpt>
      <trkpt lat="40.9131470" lon="-3.3537200">
        <ele>817.0</ele>
        <time>2020-09-29T15:29:32Z</time>
      </trkpt>
      <trkpt lat="40.9128950" lon="-3.3536470">
        <ele>815.0</ele>
        <time>2020-09-29T15:29:33Z</time>
      </trkpt>
      <trkpt lat="40.9128950" lon="-3.3536470">
        <ele>815.0</ele>
        <time>2020-09-29T15:29:34Z</time>
      </trkpt>
      <trkpt lat="40.9126470" lon="-3.3535550">
        <ele>814.0</ele>
        <time>2020-09-29T15:29:35Z</time>
      </trkpt>
      <trkpt lat="40.9125270" lon="-3.3534930">
        <ele>814.0</ele>
        <time>2020-09-29T15:29:36Z</time>
      </trkpt>
      <trkpt lat="40.9125270" lon="-3.3534930">
        <ele>813.0</ele>
        <time>2020-09-29T15:29:37Z</time>
      </trkpt>
      <trkpt lat="40.9122980" lon="-3.3533350">
        <ele>811.0</ele>
        <time>2020-09-29T15:29:38Z</time>
      </trkpt>
      <trkpt lat="40.9122980" lon="-3.3533350">
        <ele>811.0</ele>
        <time>2020-09-29T15:29:39Z</time>
      </trkpt>
      <trkpt lat="40.9120780" lon="-3.3531470">
        <ele>809.0</ele>
        <time>2020-09-29T15:29:40Z</time>
      </trkpt>
      <trkpt lat="40.9120780" lon="-3.3531470">
        <ele>809.0</ele>
        <time>2020-09-29T15:29:41Z</time>
      </trkpt>
      <trkpt lat="40.9118620" lon="-3.3529530">
        <ele>808.0</ele>
        <time>2020-09-29T15:29:42Z</time>
      </trkpt>
      <trkpt lat="40.9118620" lon="-3.3529530">
        <ele>808.0</ele>
        <time>2020-09-29T15:29:43Z</time>
      </trkpt>
      <trkpt lat="40.9116480" lon="-3.3527570">
        <ele>806.0</ele>
        <time>2020-09-29T15:29:44Z</time>
      </trkpt>
      <trkpt lat="40.9116480" lon="-3.3527570">
        <ele>806.0</ele>
        <time>2020-09-29T15:29:45Z</time>
      </trkpt>
      <trkpt lat="40.9114430" lon="-3.3525620">
        <ele>805.0</ele>
        <time>2020-09-29T15:29:46Z</time>
      </trkpt>
      <trkpt lat="40.9114430" lon="-3.3525620">
        <ele>805.0</ele>
        <time>2020-09-29T15:29:47Z</time>
      </trkpt>
      <trkpt lat="40.9112520" lon="-3.3523820">
        <ele>805.0</ele>
        <time>2020-09-29T15:29:48Z</time>
      </trkpt>
      <trkpt lat="40.9112520" lon="-3.3523820">
        <ele>805.0</ele>
        <time>2020-09-29T15:29:49Z</time>
      </trkpt>
      <trkpt lat="40.9110630" lon="-3.3522300">
        <ele>805.0</ele>
        <time>2020-09-29T15:29:50Z</time>
      </trkpt>
      <trkpt lat="40.9110630" lon="-3.3522300">
        <ele>805.0</ele>
        <time>2020-09-29T15:29:51Z</time>
      </trkpt>
      <trkpt lat="40.9108720" lon="-3.3520930">
        <ele>805.0</ele>
        <time>2020-09-29T15:29:52Z</time>
      </trkpt>
      <trkpt lat="40.9107730" lon="-3.3520270">
        <ele>803.0</ele>
        <time>2020-09-29T15:29:53Z</time>
      </trkpt>
      <trkpt lat="40.9106730" lon="-3.3519600">
        <ele>803.0</ele>
        <time>2020-09-29T15:29:54Z</time>
      </trkpt>
      <trkpt lat="40.9106730" lon="-3.3519600">
        <ele>802.0</ele>
        <time>2020-09-29T15:29:55Z</time>
      </trkpt>
      <trkpt lat="40.9104750" lon="-3.3518180">
        <ele>802.0</ele>
        <time>2020-09-29T15:29:56Z</time>
      </trkpt>
      <trkpt lat="40.9103750" lon="-3.3517470">
        <ele>801.0</ele>
        <time>2020-09-29T15:29:57Z</time>
      </trkpt>
      <trkpt lat="40.9103750" lon="-3.3517470">
        <ele>801.0</ele>
        <time>2020-09-29T15:29:58Z</time>
      </trkpt>
      <trkpt lat="40.9101730" lon="-3.3516030">
        <ele>800.0</ele>
        <time>2020-09-29T15:29:59Z</time>
      </trkpt>
      <trkpt lat="40.9101730" lon="-3.3516030">
        <ele>800.0</ele>
        <time>2020-09-29T15:30:00Z</time>
      </trkpt>
      <trkpt lat="40.9099630" lon="-3.3514650">
        <ele>799.0</ele>
        <time>2020-09-29T15:30:01Z</time>
      </trkpt>
      <trkpt lat="40.9099630" lon="-3.3514650">
        <ele>799.0</ele>
        <time>2020-09-29T15:30:02Z</time>
      </trkpt>
      <trkpt lat="40.9097450" lon="-3.3513480">
        <ele>798.0</ele>
        <time>2020-09-29T15:30:03Z</time>
      </trkpt>
      <trkpt lat="40.9096280" lon="-3.3513200">
        <ele>798.0</ele>
        <time>2020-09-29T15:30:04Z</time>
      </trkpt>
      <trkpt lat="40.9096280" lon="-3.3513200">
        <ele>797.0</ele>
        <time>2020-09-29T15:30:05Z</time>
      </trkpt>
      <trkpt lat="40.9093920" lon="-3.3513170">
        <ele>797.0</ele>
        <time>2020-09-29T15:30:06Z</time>
      </trkpt>
      <trkpt lat="40.9093920" lon="-3.3513170">
        <ele>796.0</ele>
        <time>2020-09-29T15:30:07Z</time>
      </trkpt>
      <trkpt lat="40.9091620" lon="-3.3513480">
        <ele>796.0</ele>
        <time>2020-09-29T15:30:08Z</time>
      </trkpt>
      <trkpt lat="40.9091620" lon="-3.3513480">
        <ele>795.0</ele>
        <time>2020-09-29T15:30:09Z</time>
      </trkpt>
      <trkpt lat="40.9089400" lon="-3.3513920">
        <ele>795.0</ele>
        <time>2020-09-29T15:30:10Z</time>
      </trkpt>
      <trkpt lat="40.9089400" lon="-3.3513920">
        <ele>795.0</ele>
        <time>2020-09-29T15:30:11Z</time>
      </trkpt>
      <trkpt lat="40.9087280" lon="-3.3514370">
        <ele>795.0</ele>
        <time>2020-09-29T15:30:12Z</time>
      </trkpt>
      <trkpt lat="40.9087280" lon="-3.3514370">
        <ele>795.0</ele>
        <time>2020-09-29T15:30:13Z</time>
      </trkpt>
      <trkpt lat="40.9085230" lon="-3.3514780">
        <ele>794.0</ele>
        <time>2020-09-29T15:30:14Z</time>
      </trkpt>
      <trkpt lat="40.9085230" lon="-3.3514780">
        <ele>794.0</ele>
        <time>2020-09-29T15:30:15Z</time>
      </trkpt>
      <trkpt lat="40.9083250" lon="-3.3515220">
        <ele>794.0</ele>
        <time>2020-09-29T15:30:16Z</time>
      </trkpt>
      <trkpt lat="40.9083250" lon="-3.3515220">
        <ele>794.0</ele>
        <time>2020-09-29T15:30:17Z</time>
      </trkpt>
      <trkpt lat="40.9081330" lon="-3.3515600">
        <ele>794.0</ele>
        <time>2020-09-29T15:30:18Z</time>
      </trkpt>
      <trkpt lat="40.9080400" lon="-3.3515800">
        <ele>793.0</ele>
        <time>2020-09-29T15:30:19Z</time>
      </trkpt>
      <trkpt lat="40.9079470" lon="-3.3516000">
        <ele>793.0</ele>
        <time>2020-09-29T15:30:20Z</time>
      </trkpt>
      <trkpt lat="40.9079470" lon="-3.3516000">
        <ele>793.0</ele>
        <time>2020-09-29T15:30:21Z</time>
      </trkpt>
      <trkpt lat="40.9077600" lon="-3.3516380">
        <ele>793.0</ele>
        <time>2020-09-29T15:30:22Z</time>
      </trkpt>
      <trkpt lat="40.9077600" lon="-3.3516380">
        <ele>792.0</ele>
        <time>2020-09-29T15:30:23Z</time>
      </trkpt>
      <trkpt lat="40.9075730" lon="-3.3516780">
        <ele>792.0</ele>
        <time>2020-09-29T15:30:24Z</time>
      </trkpt>
      <trkpt lat="40.9075730" lon="-3.3516780">
        <ele>792.0</ele>
        <time>2020-09-29T15:30:25Z</time>
      </trkpt>
      <trkpt lat="40.9073880" lon="-3.3517250">
        <ele>792.0</ele>
        <time>2020-09-29T15:30:26Z</time>
      </trkpt>
      <trkpt lat="40.9073880" lon="-3.3517250">
        <ele>792.0</ele>
        <time>2020-09-29T15:30:27Z</time>
      </trkpt>
      <trkpt lat="40.9072100" lon="-3.3517820">
        <ele>792.0</ele>
        <time>2020-09-29T15:30:28Z</time>
      </trkpt>
      <trkpt lat="40.9072100" lon="-3.3517820">
        <ele>791.0</ele>
        <time>2020-09-29T15:30:29Z</time>
      </trkpt>
      <trkpt lat="40.9070330" lon="-3.3518430">
        <ele>791.0</ele>
        <time>2020-09-29T15:30:30Z</time>
      </trkpt>
      <trkpt lat="40.9069470" lon="-3.3518770">
        <ele>788.0</ele>
        <time>2020-09-29T15:30:31Z</time>
      </trkpt>
      <trkpt lat="40.9069470" lon="-3.3518770">
        <ele>788.0</ele>
        <time>2020-09-29T15:30:32Z</time>
      </trkpt>
      <trkpt lat="40.9067750" lon="-3.3519500">
        <ele>789.0</ele>
        <time>2020-09-29T15:30:33Z</time>
      </trkpt>
      <trkpt lat="40.9066900" lon="-3.3519900">
        <ele>789.0</ele>
        <time>2020-09-29T15:30:34Z</time>
      </trkpt>
      <trkpt lat="40.9066900" lon="-3.3519900">
        <ele>789.0</ele>
        <time>2020-09-29T15:30:35Z</time>
      </trkpt>
      <trkpt lat="40.9065230" lon="-3.3520670">
        <ele>789.0</ele>
        <time>2020-09-29T15:30:36Z</time>
      </trkpt>
      <trkpt lat="40.9064400" lon="-3.3521030">
        <ele>789.0</ele>
        <time>2020-09-29T15:30:37Z</time>
      </trkpt>
      <trkpt lat="40.9063570" lon="-3.3521370">
        <ele>789.0</ele>
        <time>2020-09-29T15:30:38Z</time>
      </trkpt>
      <trkpt lat="40.9063570" lon="-3.3521370">
        <ele>789.0</ele>
        <time>2020-09-29T15:30:39Z</time>
      </trkpt>
      <trkpt lat="40.9061930" lon="-3.3522030">
        <ele>789.0</ele>
        <time>2020-09-29T15:30:40Z</time>
      </trkpt>
      <trkpt lat="40.9061930" lon="-3.3522030">
        <ele>790.0</ele>
        <time>2020-09-29T15:30:41Z</time>
      </trkpt>
      <trkpt lat="40.9060320" lon="-3.3522620">
        <ele>790.0</ele>
        <time>2020-09-29T15:30:42Z</time>
      </trkpt>
      <trkpt lat="40.9060320" lon="-3.3522620">
        <ele>790.0</ele>
        <time>2020-09-29T15:30:43Z</time>
      </trkpt>
      <trkpt lat="40.9058680" lon="-3.3523000">
        <ele>790.0</ele>
        <time>2020-09-29T15:30:44Z</time>
      </trkpt>
      <trkpt lat="40.9058680" lon="-3.3523000">
        <ele>790.0</ele>
        <time>2020-09-29T15:30:45Z</time>
      </trkpt>
      <trkpt lat="40.9057080" lon="-3.3523270">
        <ele>790.0</ele>
        <time>2020-09-29T15:30:46Z</time>
      </trkpt>
      <trkpt lat="40.9057080" lon="-3.3523270">
        <ele>790.0</ele>
        <time>2020-09-29T15:30:47Z</time>
      </trkpt>
      <trkpt lat="40.9055470" lon="-3.3523480">
        <ele>790.0</ele>
        <time>2020-09-29T15:30:48Z</time>
      </trkpt>
      <trkpt lat="40.9055470" lon="-3.3523480">
        <ele>790.0</ele>
        <time>2020-09-29T15:30:49Z</time>
      </trkpt>
      <trkpt lat="40.9053850" lon="-3.3523720">
        <ele>789.0</ele>
        <time>2020-09-29T15:30:50Z</time>
      </trkpt>
      <trkpt lat="40.9053850" lon="-3.3523720">
        <ele>789.0</ele>
        <time>2020-09-29T15:30:51Z</time>
      </trkpt>
      <trkpt lat="40.9052230" lon="-3.3523980">
        <ele>789.0</ele>
        <time>2020-09-29T15:30:52Z</time>
      </trkpt>
      <trkpt lat="40.9051400" lon="-3.3524120">
        <ele>789.0</ele>
        <time>2020-09-29T15:30:53Z</time>
      </trkpt>
      <trkpt lat="40.9050570" lon="-3.3524270">
        <ele>789.0</ele>
        <time>2020-09-29T15:30:54Z</time>
      </trkpt>
      <trkpt lat="40.9049720" lon="-3.3524420">
        <ele>789.0</ele>
        <time>2020-09-29T15:30:55Z</time>
      </trkpt>
      <trkpt lat="40.9049720" lon="-3.3524420">
        <ele>787.0</ele>
        <time>2020-09-29T15:30:56Z</time>
      </trkpt>
      <trkpt lat="40.9048020" lon="-3.3524680">
        <ele>787.0</ele>
        <time>2020-09-29T15:30:57Z</time>
      </trkpt>
      <trkpt lat="40.9047170" lon="-3.3524850">
        <ele>787.0</ele>
        <time>2020-09-29T15:30:58Z</time>
      </trkpt>
      <trkpt lat="40.9046300" lon="-3.3525020">
        <ele>787.0</ele>
        <time>2020-09-29T15:30:59Z</time>
      </trkpt>
      <trkpt lat="40.9046300" lon="-3.3525020">
        <ele>787.0</ele>
        <time>2020-09-29T15:31:00Z</time>
      </trkpt>
      <trkpt lat="40.9044570" lon="-3.3525330">
        <ele>787.0</ele>
        <time>2020-09-29T15:31:01Z</time>
      </trkpt>
      <trkpt lat="40.9044570" lon="-3.3525330">
        <ele>787.0</ele>
        <time>2020-09-29T15:31:02Z</time>
      </trkpt>
      <trkpt lat="40.9042820" lon="-3.3525620">
        <ele>786.0</ele>
        <time>2020-09-29T15:31:03Z</time>
      </trkpt>
      <trkpt lat="40.9042820" lon="-3.3525620">
        <ele>786.0</ele>
        <time>2020-09-29T15:31:04Z</time>
      </trkpt>
      <trkpt lat="40.9041070" lon="-3.3525950">
        <ele>786.0</ele>
        <time>2020-09-29T15:31:05Z</time>
      </trkpt>
      <trkpt lat="40.9041070" lon="-3.3525950">
        <ele>786.0</ele>
        <time>2020-09-29T15:31:06Z</time>
      </trkpt>
      <trkpt lat="40.9039350" lon="-3.3526220">
        <ele>786.0</ele>
        <time>2020-09-29T15:31:07Z</time>
      </trkpt>
      <trkpt lat="40.9038520" lon="-3.3526370">
        <ele>786.0</ele>
        <time>2020-09-29T15:31:08Z</time>
      </trkpt>
      <trkpt lat="40.9038520" lon="-3.3526370">
        <ele>785.0</ele>
        <time>2020-09-29T15:31:09Z</time>
      </trkpt>
      <trkpt lat="40.9036870" lon="-3.3526670">
        <ele>785.0</ele>
        <time>2020-09-29T15:31:10Z</time>
      </trkpt>
      <trkpt lat="40.9036050" lon="-3.3526820">
        <ele>785.0</ele>
        <time>2020-09-29T15:31:11Z</time>
      </trkpt>
      <trkpt lat="40.9036050" lon="-3.3526820">
        <ele>785.0</ele>
        <time>2020-09-29T15:31:12Z</time>
      </trkpt>
      <trkpt lat="40.9034430" lon="-3.3527150">
        <ele>784.0</ele>
        <time>2020-09-29T15:31:13Z</time>
      </trkpt>
      <trkpt lat="40.9033630" lon="-3.3527320">
        <ele>784.0</ele>
        <time>2020-09-29T15:31:14Z</time>
      </trkpt>
      <trkpt lat="40.9032830" lon="-3.3527500">
        <ele>784.0</ele>
        <time>2020-09-29T15:31:15Z</time>
      </trkpt>
      <trkpt lat="40.9032830" lon="-3.3527500">
        <ele>784.0</ele>
        <time>2020-09-29T15:31:16Z</time>
      </trkpt>
      <trkpt lat="40.9031280" lon="-3.3527980">
        <ele>783.0</ele>
        <time>2020-09-29T15:31:17Z</time>
      </trkpt>
      <trkpt lat="40.9030500" lon="-3.3528280">
        <ele>783.0</ele>
        <time>2020-09-29T15:31:18Z</time>
      </trkpt>
      <trkpt lat="40.9030500" lon="-3.3528280">
        <ele>783.0</ele>
        <time>2020-09-29T15:31:19Z</time>
      </trkpt>
      <trkpt lat="40.9029000" lon="-3.3529120">
        <ele>783.0</ele>
        <time>2020-09-29T15:31:20Z</time>
      </trkpt>
      <trkpt lat="40.9029000" lon="-3.3529120">
        <ele>782.0</ele>
        <time>2020-09-29T15:31:21Z</time>
      </trkpt>
      <trkpt lat="40.9027500" lon="-3.3530030">
        <ele>782.0</ele>
        <time>2020-09-29T15:31:22Z</time>
      </trkpt>
      <trkpt lat="40.9026770" lon="-3.3530530">
        <ele>782.0</ele>
        <time>2020-09-29T15:31:23Z</time>
      </trkpt>
      <trkpt lat="40.9026770" lon="-3.3530530">
        <ele>782.0</ele>
        <time>2020-09-29T15:31:24Z</time>
      </trkpt>
      <trkpt lat="40.9025270" lon="-3.3531600">
        <ele>781.0</ele>
        <time>2020-09-29T15:31:25Z</time>
      </trkpt>
      <trkpt lat="40.9024520" lon="-3.3532130">
        <ele>780.0</ele>
        <time>2020-09-29T15:31:26Z</time>
      </trkpt>
      <trkpt lat="40.9024520" lon="-3.3532130">
        <ele>780.0</ele>
        <time>2020-09-29T15:31:27Z</time>
      </trkpt>
      <trkpt lat="40.9023020" lon="-3.3533250">
        <ele>780.0</ele>
        <time>2020-09-29T15:31:28Z</time>
      </trkpt>
      <trkpt lat="40.9023020" lon="-3.3533250">
        <ele>780.0</ele>
        <time>2020-09-29T15:31:29Z</time>
      </trkpt>
      <trkpt lat="40.9021480" lon="-3.3534400">
        <ele>779.0</ele>
        <time>2020-09-29T15:31:30Z</time>
      </trkpt>
      <trkpt lat="40.9021480" lon="-3.3534400">
        <ele>779.0</ele>
        <time>2020-09-29T15:31:31Z</time>
      </trkpt>
      <trkpt lat="40.9019870" lon="-3.3535520">
        <ele>778.0</ele>
        <time>2020-09-29T15:31:32Z</time>
      </trkpt>
      <trkpt lat="40.9019870" lon="-3.3535520">
        <ele>778.0</ele>
        <time>2020-09-29T15:31:33Z</time>
      </trkpt>
      <trkpt lat="40.9018250" lon="-3.3536680">
        <ele>778.0</ele>
        <time>2020-09-29T15:31:34Z</time>
      </trkpt>
      <trkpt lat="40.9018250" lon="-3.3536680">
        <ele>778.0</ele>
        <time>2020-09-29T15:31:35Z</time>
      </trkpt>
      <trkpt lat="40.9016680" lon="-3.3537880">
        <ele>777.0</ele>
        <time>2020-09-29T15:31:36Z</time>
      </trkpt>
      <trkpt lat="40.9015880" lon="-3.3538450">
        <ele>777.0</ele>
        <time>2020-09-29T15:31:37Z</time>
      </trkpt>
      <trkpt lat="40.9015080" lon="-3.3539000">
        <ele>776.0</ele>
        <time>2020-09-29T15:31:38Z</time>
      </trkpt>
      <trkpt lat="40.9015080" lon="-3.3539000">
        <ele>776.0</ele>
        <time>2020-09-29T15:31:39Z</time>
      </trkpt>
      <trkpt lat="40.9013520" lon="-3.3540100">
        <ele>775.0</ele>
        <time>2020-09-29T15:31:40Z</time>
      </trkpt>
      <trkpt lat="40.9012750" lon="-3.3540650">
        <ele>775.0</ele>
        <time>2020-09-29T15:31:41Z</time>
      </trkpt>
      <trkpt lat="40.9012750" lon="-3.3540650">
        <ele>775.0</ele>
        <time>2020-09-29T15:31:42Z</time>
      </trkpt>
      <trkpt lat="40.9011280" lon="-3.3541680">
        <ele>775.0</ele>
        <time>2020-09-29T15:31:43Z</time>
      </trkpt>
      <trkpt lat="40.9010600" lon="-3.3542180">
        <ele>775.0</ele>
        <time>2020-09-29T15:31:44Z</time>
      </trkpt>
      <trkpt lat="40.9010600" lon="-3.3542180">
        <ele>775.0</ele>
        <time>2020-09-29T15:31:45Z</time>
      </trkpt>
      <trkpt lat="40.9009250" lon="-3.3543100">
        <ele>775.0</ele>
        <time>2020-09-29T15:31:46Z</time>
      </trkpt>
      <trkpt lat="40.9008620" lon="-3.3543570">
        <ele>775.0</ele>
        <time>2020-09-29T15:31:47Z</time>
      </trkpt>
      <trkpt lat="40.9007980" lon="-3.3544050">
        <ele>775.0</ele>
        <time>2020-09-29T15:31:48Z</time>
      </trkpt>
      <trkpt lat="40.9007980" lon="-3.3544050">
        <ele>775.0</ele>
        <time>2020-09-29T15:31:49Z</time>
      </trkpt>
      <trkpt lat="40.9006720" lon="-3.3544970">
        <ele>775.0</ele>
        <time>2020-09-29T15:31:50Z</time>
      </trkpt>
      <trkpt lat="40.9006720" lon="-3.3544970">
        <ele>775.0</ele>
        <time>2020-09-29T15:31:51Z</time>
      </trkpt>
      <trkpt lat="40.9005470" lon="-3.3545830">
        <ele>775.0</ele>
        <time>2020-09-29T15:31:52Z</time>
      </trkpt>
      <trkpt lat="40.9004870" lon="-3.3546300">
        <ele>775.0</ele>
        <time>2020-09-29T15:31:53Z</time>
      </trkpt>
      <trkpt lat="40.9004870" lon="-3.3546300">
        <ele>775.0</ele>
        <time>2020-09-29T15:31:54Z</time>
      </trkpt>
      <trkpt lat="40.9003650" lon="-3.3547130">
        <ele>775.0</ele>
        <time>2020-09-29T15:31:55Z</time>
      </trkpt>
      <trkpt lat="40.9003020" lon="-3.3547580">
        <ele>775.0</ele>
        <time>2020-09-29T15:31:56Z</time>
      </trkpt>
      <trkpt lat="40.9003020" lon="-3.3547580">
        <ele>774.0</ele>
        <time>2020-09-29T15:31:57Z</time>
      </trkpt>
      <trkpt lat="40.9001800" lon="-3.3548530">
        <ele>774.0</ele>
        <time>2020-09-29T15:31:58Z</time>
      </trkpt>
      <trkpt lat="40.9001200" lon="-3.3549000">
        <ele>774.0</ele>
        <time>2020-09-29T15:31:59Z</time>
      </trkpt>
      <trkpt lat="40.9000620" lon="-3.3549450">
        <ele>774.0</ele>
        <time>2020-09-29T15:32:00Z</time>
      </trkpt>
      <trkpt lat="40.9000620" lon="-3.3549450">
        <ele>774.0</ele>
        <time>2020-09-29T15:32:01Z</time>
      </trkpt>
      <trkpt lat="40.8999430" lon="-3.3550270">
        <ele>774.0</ele>
        <time>2020-09-29T15:32:02Z</time>
      </trkpt>
      <trkpt lat="40.8999430" lon="-3.3550270">
        <ele>774.0</ele>
        <time>2020-09-29T15:32:03Z</time>
      </trkpt>
      <trkpt lat="40.8998230" lon="-3.3551100">
        <ele>774.0</ele>
        <time>2020-09-29T15:32:04Z</time>
      </trkpt>
      <trkpt lat="40.8997670" lon="-3.3551550">
        <ele>774.0</ele>
        <time>2020-09-29T15:32:05Z</time>
      </trkpt>
      <trkpt lat="40.8997670" lon="-3.3551550">
        <ele>775.0</ele>
        <time>2020-09-29T15:32:06Z</time>
      </trkpt>
      <trkpt lat="40.8996530" lon="-3.3552370">
        <ele>775.0</ele>
        <time>2020-09-29T15:32:07Z</time>
      </trkpt>
      <trkpt lat="40.8995980" lon="-3.3552750">
        <ele>775.0</ele>
        <time>2020-09-29T15:32:08Z</time>
      </trkpt>
      <trkpt lat="40.8995980" lon="-3.3552750">
        <ele>775.0</ele>
        <time>2020-09-29T15:32:09Z</time>
      </trkpt>
      <trkpt lat="40.8994900" lon="-3.3553470">
        <ele>776.0</ele>
        <time>2020-09-29T15:32:10Z</time>
      </trkpt>
      <trkpt lat="40.8994900" lon="-3.3553470">
        <ele>776.0</ele>
        <time>2020-09-29T15:32:11Z</time>
      </trkpt>
      <trkpt lat="40.8993900" lon="-3.3554200">
        <ele>776.0</ele>
        <time>2020-09-29T15:32:12Z</time>
      </trkpt>
      <trkpt lat="40.8993400" lon="-3.3554550">
        <ele>776.0</ele>
        <time>2020-09-29T15:32:13Z</time>
      </trkpt>
      <trkpt lat="40.8993400" lon="-3.3554550">
        <ele>777.0</ele>
        <time>2020-09-29T15:32:14Z</time>
      </trkpt>
      <trkpt lat="40.8992420" lon="-3.3555120">
        <ele>777.0</ele>
        <time>2020-09-29T15:32:15Z</time>
      </trkpt>
      <trkpt lat="40.8992420" lon="-3.3555120">
        <ele>777.0</ele>
        <time>2020-09-29T15:32:16Z</time>
      </trkpt>
      <trkpt lat="40.8991430" lon="-3.3555630">
        <ele>777.0</ele>
        <time>2020-09-29T15:32:17Z</time>
      </trkpt>
      <trkpt lat="40.8991430" lon="-3.3555630">
        <ele>777.0</ele>
        <time>2020-09-29T15:32:18Z</time>
      </trkpt>
      <trkpt lat="40.8990420" lon="-3.3556050">
        <ele>777.0</ele>
        <time>2020-09-29T15:32:19Z</time>
      </trkpt>
      <trkpt lat="40.8989880" lon="-3.3556230">
        <ele>777.0</ele>
        <time>2020-09-29T15:32:20Z</time>
      </trkpt>
      <trkpt lat="40.8989880" lon="-3.3556230">
        <ele>777.0</ele>
        <time>2020-09-29T15:32:21Z</time>
      </trkpt>
      <trkpt lat="40.8988820" lon="-3.3556530">
        <ele>777.0</ele>
        <time>2020-09-29T15:32:22Z</time>
      </trkpt>
      <trkpt lat="40.8988280" lon="-3.3556700">
        <ele>777.0</ele>
        <time>2020-09-29T15:32:23Z</time>
      </trkpt>
      <trkpt lat="40.8988280" lon="-3.3556700">
        <ele>777.0</ele>
        <time>2020-09-29T15:32:24Z</time>
      </trkpt>
      <trkpt lat="40.8987220" lon="-3.3557050">
        <ele>777.0</ele>
        <time>2020-09-29T15:32:25Z</time>
      </trkpt>
      <trkpt lat="40.8987220" lon="-3.3557050">
        <ele>777.0</ele>
        <time>2020-09-29T15:32:26Z</time>
      </trkpt>
      <trkpt lat="40.8986120" lon="-3.3557280">
        <ele>777.0</ele>
        <time>2020-09-29T15:32:27Z</time>
      </trkpt>
      <trkpt lat="40.8985550" lon="-3.3557420">
        <ele>777.0</ele>
        <time>2020-09-29T15:32:28Z</time>
      </trkpt>
      <trkpt lat="40.8985550" lon="-3.3557420">
        <ele>778.0</ele>
        <time>2020-09-29T15:32:29Z</time>
      </trkpt>
      <trkpt lat="40.8984430" lon="-3.3557770">
        <ele>778.0</ele>
        <time>2020-09-29T15:32:30Z</time>
      </trkpt>
      <trkpt lat="40.8983870" lon="-3.3557930">
        <ele>778.0</ele>
        <time>2020-09-29T15:32:31Z</time>
      </trkpt>
      <trkpt lat="40.8983280" lon="-3.3558100">
        <ele>778.0</ele>
        <time>2020-09-29T15:32:32Z</time>
      </trkpt>
      <trkpt lat="40.8983280" lon="-3.3558100">
        <ele>778.0</ele>
        <time>2020-09-29T15:32:33Z</time>
      </trkpt>
      <trkpt lat="40.8982100" lon="-3.3558450">
        <ele>778.0</ele>
        <time>2020-09-29T15:32:34Z</time>
      </trkpt>
      <trkpt lat="40.8981520" lon="-3.3558600">
        <ele>778.0</ele>
        <time>2020-09-29T15:32:35Z</time>
      </trkpt>
      <trkpt lat="40.8981520" lon="-3.3558600">
        <ele>778.0</ele>
        <time>2020-09-29T15:32:36Z</time>
      </trkpt>
      <trkpt lat="40.8980330" lon="-3.3558900">
        <ele>778.0</ele>
        <time>2020-09-29T15:32:37Z</time>
      </trkpt>
      <trkpt lat="40.8980330" lon="-3.3558900">
        <ele>778.0</ele>
        <time>2020-09-29T15:32:38Z</time>
      </trkpt>
      <trkpt lat="40.8979150" lon="-3.3559200">
        <ele>778.0</ele>
        <time>2020-09-29T15:32:39Z</time>
      </trkpt>
      <trkpt lat="40.8979150" lon="-3.3559200">
        <ele>778.0</ele>
        <time>2020-09-29T15:32:40Z</time>
      </trkpt>
      <trkpt lat="40.8977950" lon="-3.3559520">
        <ele>778.0</ele>
        <time>2020-09-29T15:32:41Z</time>
      </trkpt>
      <trkpt lat="40.8977350" lon="-3.3559670">
        <ele>778.0</ele>
        <time>2020-09-29T15:32:42Z</time>
      </trkpt>
      <trkpt lat="40.8977350" lon="-3.3559670">
        <ele>778.0</ele>
        <time>2020-09-29T15:32:43Z</time>
      </trkpt>
      <trkpt lat="40.8976170" lon="-3.3560000">
        <ele>778.0</ele>
        <time>2020-09-29T15:32:44Z</time>
      </trkpt>
      <trkpt lat="40.8976170" lon="-3.3560000">
        <ele>778.0</ele>
        <time>2020-09-29T15:32:45Z</time>
      </trkpt>
      <trkpt lat="40.8974970" lon="-3.3560330">
        <ele>778.0</ele>
        <time>2020-09-29T15:32:46Z</time>
      </trkpt>
      <trkpt lat="40.8974970" lon="-3.3560330">
        <ele>778.0</ele>
        <time>2020-09-29T15:32:47Z</time>
      </trkpt>
      <trkpt lat="40.8973750" lon="-3.3560700">
        <ele>778.0</ele>
        <time>2020-09-29T15:32:48Z</time>
      </trkpt>
      <trkpt lat="40.8973750" lon="-3.3560700">
        <ele>778.0</ele>
        <time>2020-09-29T15:32:49Z</time>
      </trkpt>
      <trkpt lat="40.8972550" lon="-3.3561050">
        <ele>778.0</ele>
        <time>2020-09-29T15:32:50Z</time>
      </trkpt>
      <trkpt lat="40.8972550" lon="-3.3561050">
        <ele>778.0</ele>
        <time>2020-09-29T15:32:51Z</time>
      </trkpt>
      <trkpt lat="40.8971350" lon="-3.3561350">
        <ele>778.0</ele>
        <time>2020-09-29T15:32:52Z</time>
      </trkpt>
      <trkpt lat="40.8970750" lon="-3.3561520">
        <ele>778.0</ele>
        <time>2020-09-29T15:32:53Z</time>
      </trkpt>
      <trkpt lat="40.8970750" lon="-3.3561520">
        <ele>778.0</ele>
        <time>2020-09-29T15:32:54Z</time>
      </trkpt>
      <trkpt lat="40.8969530" lon="-3.3561850">
        <ele>778.0</ele>
        <time>2020-09-29T15:32:55Z</time>
      </trkpt>
      <trkpt lat="40.8968920" lon="-3.3562020">
        <ele>778.0</ele>
        <time>2020-09-29T15:32:56Z</time>
      </trkpt>
      <trkpt lat="40.8968920" lon="-3.3562020">
        <ele>778.0</ele>
        <time>2020-09-29T15:32:57Z</time>
      </trkpt>
      <trkpt lat="40.8967680" lon="-3.3562380">
        <ele>778.0</ele>
        <time>2020-09-29T15:32:58Z</time>
      </trkpt>
      <trkpt lat="40.8967120" lon="-3.3562680">
        <ele>778.0</ele>
        <time>2020-09-29T15:32:59Z</time>
      </trkpt>
      <trkpt lat="40.8966550" lon="-3.3563030">
        <ele>778.0</ele>
        <time>2020-09-29T15:33:00Z</time>
      </trkpt>
      <trkpt lat="40.8966000" lon="-3.3563420">
        <ele>778.0</ele>
        <time>2020-09-29T15:33:01Z</time>
      </trkpt>
      <trkpt lat="40.8966000" lon="-3.3563420">
        <ele>778.0</ele>
        <time>2020-09-29T15:33:02Z</time>
      </trkpt>
      <trkpt lat="40.8964930" lon="-3.3564250">
        <ele>778.0</ele>
        <time>2020-09-29T15:33:03Z</time>
      </trkpt>
      <trkpt lat="40.8964930" lon="-3.3564250">
        <ele>778.0</ele>
        <time>2020-09-29T15:33:04Z</time>
      </trkpt>
      <trkpt lat="40.8963900" lon="-3.3565130">
        <ele>778.0</ele>
        <time>2020-09-29T15:33:05Z</time>
      </trkpt>
      <trkpt lat="40.8963900" lon="-3.3565130">
        <ele>778.0</ele>
        <time>2020-09-29T15:33:06Z</time>
      </trkpt>
      <trkpt lat="40.8962920" lon="-3.3566050">
        <ele>778.0</ele>
        <time>2020-09-29T15:33:07Z</time>
      </trkpt>
      <trkpt lat="40.8962420" lon="-3.3566550">
        <ele>778.0</ele>
        <time>2020-09-29T15:33:08Z</time>
      </trkpt>
      <trkpt lat="40.8961900" lon="-3.3567000">
        <ele>778.0</ele>
        <time>2020-09-29T15:33:09Z</time>
      </trkpt>
      <trkpt lat="40.8961900" lon="-3.3567000">
        <ele>778.0</ele>
        <time>2020-09-29T15:33:10Z</time>
      </trkpt>
      <trkpt lat="40.8960830" lon="-3.3567950">
        <ele>778.0</ele>
        <time>2020-09-29T15:33:11Z</time>
      </trkpt>
      <trkpt lat="40.8960830" lon="-3.3567950">
        <ele>778.0</ele>
        <time>2020-09-29T15:33:12Z</time>
      </trkpt>
      <trkpt lat="40.8959780" lon="-3.3568930">
        <ele>778.0</ele>
        <time>2020-09-29T15:33:13Z</time>
      </trkpt>
      <trkpt lat="40.8959250" lon="-3.3569450">
        <ele>777.0</ele>
        <time>2020-09-29T15:33:14Z</time>
      </trkpt>
      <trkpt lat="40.8959250" lon="-3.3569450">
        <ele>777.0</ele>
        <time>2020-09-29T15:33:15Z</time>
      </trkpt>
      <trkpt lat="40.8958200" lon="-3.3570530">
        <ele>777.0</ele>
        <time>2020-09-29T15:33:16Z</time>
      </trkpt>
      <trkpt lat="40.8958200" lon="-3.3570530">
        <ele>777.0</ele>
        <time>2020-09-29T15:33:17Z</time>
      </trkpt>
      <trkpt lat="40.8957200" lon="-3.3571720">
        <ele>777.0</ele>
        <time>2020-09-29T15:33:18Z</time>
      </trkpt>
      <trkpt lat="40.8957200" lon="-3.3571720">
        <ele>777.0</ele>
        <time>2020-09-29T15:33:19Z</time>
      </trkpt>
      <trkpt lat="40.8956220" lon="-3.3573020">
        <ele>777.0</ele>
        <time>2020-09-29T15:33:20Z</time>
      </trkpt>
      <trkpt lat="40.8956220" lon="-3.3573020">
        <ele>777.0</ele>
        <time>2020-09-29T15:33:21Z</time>
      </trkpt>
      <trkpt lat="40.8955270" lon="-3.3574330">
        <ele>777.0</ele>
        <time>2020-09-29T15:33:22Z</time>
      </trkpt>
      <trkpt lat="40.8954780" lon="-3.3575000">
        <ele>777.0</ele>
        <time>2020-09-29T15:33:23Z</time>
      </trkpt>
      <trkpt lat="40.8954780" lon="-3.3575000">
        <ele>777.0</ele>
        <time>2020-09-29T15:33:24Z</time>
      </trkpt>
      <trkpt lat="40.8953800" lon="-3.3576350">
        <ele>777.0</ele>
        <time>2020-09-29T15:33:25Z</time>
      </trkpt>
      <trkpt lat="40.8953800" lon="-3.3576350">
        <ele>776.0</ele>
        <time>2020-09-29T15:33:26Z</time>
      </trkpt>
      <trkpt lat="40.8952830" lon="-3.3577720">
        <ele>776.0</ele>
        <time>2020-09-29T15:33:27Z</time>
      </trkpt>
      <trkpt lat="40.8952830" lon="-3.3577720">
        <ele>776.0</ele>
        <time>2020-09-29T15:33:28Z</time>
      </trkpt>
      <trkpt lat="40.8951920" lon="-3.3579100">
        <ele>776.0</ele>
        <time>2020-09-29T15:33:29Z</time>
      </trkpt>
      <trkpt lat="40.8951430" lon="-3.3579770">
        <ele>776.0</ele>
        <time>2020-09-29T15:33:30Z</time>
      </trkpt>
      <trkpt lat="40.8951430" lon="-3.3579770">
        <ele>776.0</ele>
        <time>2020-09-29T15:33:31Z</time>
      </trkpt>
      <trkpt lat="40.8950450" lon="-3.3581120">
        <ele>776.0</ele>
        <time>2020-09-29T15:33:32Z</time>
      </trkpt>
      <trkpt lat="40.8950450" lon="-3.3581120">
        <ele>776.0</ele>
        <time>2020-09-29T15:33:33Z</time>
      </trkpt>
      <trkpt lat="40.8949480" lon="-3.3582430">
        <ele>776.0</ele>
        <time>2020-09-29T15:33:34Z</time>
      </trkpt>
      <trkpt lat="40.8949480" lon="-3.3582430">
        <ele>776.0</ele>
        <time>2020-09-29T15:33:35Z</time>
      </trkpt>
      <trkpt lat="40.8948550" lon="-3.3583830">
        <ele>776.0</ele>
        <time>2020-09-29T15:33:36Z</time>
      </trkpt>
      <trkpt lat="40.8948550" lon="-3.3583830">
        <ele>776.0</ele>
        <time>2020-09-29T15:33:37Z</time>
      </trkpt>
      <trkpt lat="40.8947600" lon="-3.3585170">
        <ele>776.0</ele>
        <time>2020-09-29T15:33:38Z</time>
      </trkpt>
      <trkpt lat="40.8947600" lon="-3.3585170">
        <ele>776.0</ele>
        <time>2020-09-29T15:33:39Z</time>
      </trkpt>
      <trkpt lat="40.8946680" lon="-3.3586470">
        <ele>776.0</ele>
        <time>2020-09-29T15:33:40Z</time>
      </trkpt>
      <trkpt lat="40.8946220" lon="-3.3587120">
        <ele>776.0</ele>
        <time>2020-09-29T15:33:41Z</time>
      </trkpt>
      <trkpt lat="40.8946220" lon="-3.3587120">
        <ele>776.0</ele>
        <time>2020-09-29T15:33:42Z</time>
      </trkpt>
      <trkpt lat="40.8945270" lon="-3.3588380">
        <ele>776.0</ele>
        <time>2020-09-29T15:33:43Z</time>
      </trkpt>
      <trkpt lat="40.8945270" lon="-3.3588380">
        <ele>776.0</ele>
        <time>2020-09-29T15:33:44Z</time>
      </trkpt>
      <trkpt lat="40.8944330" lon="-3.3589650">
        <ele>776.0</ele>
        <time>2020-09-29T15:33:45Z</time>
      </trkpt>
      <trkpt lat="40.8944330" lon="-3.3589650">
        <ele>776.0</ele>
        <time>2020-09-29T15:33:46Z</time>
      </trkpt>
      <trkpt lat="40.8943430" lon="-3.3590950">
        <ele>776.0</ele>
        <time>2020-09-29T15:33:47Z</time>
      </trkpt>
      <trkpt lat="40.8942970" lon="-3.3591570">
        <ele>775.0</ele>
        <time>2020-09-29T15:33:48Z</time>
      </trkpt>
      <trkpt lat="40.8942970" lon="-3.3591570">
        <ele>775.0</ele>
        <time>2020-09-29T15:33:49Z</time>
      </trkpt>
      <trkpt lat="40.8942030" lon="-3.3592800">
        <ele>775.0</ele>
        <time>2020-09-29T15:33:50Z</time>
      </trkpt>
      <trkpt lat="40.8942030" lon="-3.3592800">
        <ele>775.0</ele>
        <time>2020-09-29T15:33:51Z</time>
      </trkpt>
      <trkpt lat="40.8941100" lon="-3.3594070">
        <ele>775.0</ele>
        <time>2020-09-29T15:33:52Z</time>
      </trkpt>
      <trkpt lat="40.8941100" lon="-3.3594070">
        <ele>775.0</ele>
        <time>2020-09-29T15:33:53Z</time>
      </trkpt>
      <trkpt lat="40.8940180" lon="-3.3595370">
        <ele>775.0</ele>
        <time>2020-09-29T15:33:54Z</time>
      </trkpt>
      <trkpt lat="40.8940180" lon="-3.3595370">
        <ele>775.0</ele>
        <time>2020-09-29T15:33:55Z</time>
      </trkpt>
      <trkpt lat="40.8939230" lon="-3.3596630">
        <ele>775.0</ele>
        <time>2020-09-29T15:33:56Z</time>
      </trkpt>
      <trkpt lat="40.8939230" lon="-3.3596630">
        <ele>775.0</ele>
        <time>2020-09-29T15:33:57Z</time>
      </trkpt>
      <trkpt lat="40.8938300" lon="-3.3597920">
        <ele>775.0</ele>
        <time>2020-09-29T15:33:58Z</time>
      </trkpt>
      <trkpt lat="40.8938300" lon="-3.3597920">
        <ele>775.0</ele>
        <time>2020-09-29T15:33:59Z</time>
      </trkpt>
      <trkpt lat="40.8937370" lon="-3.3599230">
        <ele>775.0</ele>
        <time>2020-09-29T15:34:00Z</time>
      </trkpt>
      <trkpt lat="40.8937370" lon="-3.3599230">
        <ele>775.0</ele>
        <time>2020-09-29T15:34:01Z</time>
      </trkpt>
      <trkpt lat="40.8936420" lon="-3.3600530">
        <ele>775.0</ele>
        <time>2020-09-29T15:34:02Z</time>
      </trkpt>
      <trkpt lat="40.8935930" lon="-3.3601170">
        <ele>775.0</ele>
        <time>2020-09-29T15:34:03Z</time>
      </trkpt>
      <trkpt lat="40.8935930" lon="-3.3601170">
        <ele>775.0</ele>
        <time>2020-09-29T15:34:04Z</time>
      </trkpt>
      <trkpt lat="40.8934930" lon="-3.3602470">
        <ele>775.0</ele>
        <time>2020-09-29T15:34:05Z</time>
      </trkpt>
      <trkpt lat="40.8934930" lon="-3.3602470">
        <ele>774.0</ele>
        <time>2020-09-29T15:34:06Z</time>
      </trkpt>
      <trkpt lat="40.8933950" lon="-3.3603800">
        <ele>774.0</ele>
        <time>2020-09-29T15:34:07Z</time>
      </trkpt>
      <trkpt lat="40.8933450" lon="-3.3604450">
        <ele>774.0</ele>
        <time>2020-09-29T15:34:08Z</time>
      </trkpt>
      <trkpt lat="40.8933450" lon="-3.3604450">
        <ele>774.0</ele>
        <time>2020-09-29T15:34:09Z</time>
      </trkpt>
      <trkpt lat="40.8932470" lon="-3.3605770">
        <ele>774.0</ele>
        <time>2020-09-29T15:34:10Z</time>
      </trkpt>
      <trkpt lat="40.8931980" lon="-3.3606450">
        <ele>774.0</ele>
        <time>2020-09-29T15:34:11Z</time>
      </trkpt>
      <trkpt lat="40.8931980" lon="-3.3606450">
        <ele>774.0</ele>
        <time>2020-09-29T15:34:12Z</time>
      </trkpt>
      <trkpt lat="40.8931020" lon="-3.3607780">
        <ele>774.0</ele>
        <time>2020-09-29T15:34:13Z</time>
      </trkpt>
      <trkpt lat="40.8931020" lon="-3.3607780">
        <ele>774.0</ele>
        <time>2020-09-29T15:34:14Z</time>
      </trkpt>
      <trkpt lat="40.8930030" lon="-3.3609100">
        <ele>774.0</ele>
        <time>2020-09-29T15:34:15Z</time>
      </trkpt>
      <trkpt lat="40.8930030" lon="-3.3609100">
        <ele>774.0</ele>
        <time>2020-09-29T15:34:16Z</time>
      </trkpt>
      <trkpt lat="40.8929120" lon="-3.3610470">
        <ele>774.0</ele>
        <time>2020-09-29T15:34:17Z</time>
      </trkpt>
      <trkpt lat="40.8928650" lon="-3.3611170">
        <ele>774.0</ele>
        <time>2020-09-29T15:34:18Z</time>
      </trkpt>
      <trkpt lat="40.8928650" lon="-3.3611170">
        <ele>774.0</ele>
        <time>2020-09-29T15:34:19Z</time>
      </trkpt>
      <trkpt lat="40.8927680" lon="-3.3612520">
        <ele>774.0</ele>
        <time>2020-09-29T15:34:20Z</time>
      </trkpt>
      <trkpt lat="40.8927680" lon="-3.3612520">
        <ele>774.0</ele>
        <time>2020-09-29T15:34:21Z</time>
      </trkpt>
      <trkpt lat="40.8926680" lon="-3.3613880">
        <ele>774.0</ele>
        <time>2020-09-29T15:34:22Z</time>
      </trkpt>
      <trkpt lat="40.8926680" lon="-3.3613880">
        <ele>774.0</ele>
        <time>2020-09-29T15:34:23Z</time>
      </trkpt>
      <trkpt lat="40.8925800" lon="-3.3615330">
        <ele>774.0</ele>
        <time>2020-09-29T15:34:24Z</time>
      </trkpt>
      <trkpt lat="40.8925350" lon="-3.3616050">
        <ele>774.0</ele>
        <time>2020-09-29T15:34:25Z</time>
      </trkpt>
      <trkpt lat="40.8925350" lon="-3.3616050">
        <ele>774.0</ele>
        <time>2020-09-29T15:34:26Z</time>
      </trkpt>
      <trkpt lat="40.8924500" lon="-3.3617480">
        <ele>774.0</ele>
        <time>2020-09-29T15:34:27Z</time>
      </trkpt>
      <trkpt lat="40.8924500" lon="-3.3617480">
        <ele>774.0</ele>
        <time>2020-09-29T15:34:28Z</time>
      </trkpt>
      <trkpt lat="40.8923580" lon="-3.3618880">
        <ele>774.0</ele>
        <time>2020-09-29T15:34:29Z</time>
      </trkpt>
      <trkpt lat="40.8923580" lon="-3.3618880">
        <ele>774.0</ele>
        <time>2020-09-29T15:34:30Z</time>
      </trkpt>
      <trkpt lat="40.8922700" lon="-3.3620320">
        <ele>774.0</ele>
        <time>2020-09-29T15:34:31Z</time>
      </trkpt>
      <trkpt lat="40.8922700" lon="-3.3620320">
        <ele>774.0</ele>
        <time>2020-09-29T15:34:32Z</time>
      </trkpt>
      <trkpt lat="40.8921800" lon="-3.3621720">
        <ele>774.0</ele>
        <time>2020-09-29T15:34:33Z</time>
      </trkpt>
      <trkpt lat="40.8921800" lon="-3.3621720">
        <ele>774.0</ele>
        <time>2020-09-29T15:34:34Z</time>
      </trkpt>
      <trkpt lat="40.8920850" lon="-3.3623070">
        <ele>774.0</ele>
        <time>2020-09-29T15:34:35Z</time>
      </trkpt>
      <trkpt lat="40.8920400" lon="-3.3623770">
        <ele>774.0</ele>
        <time>2020-09-29T15:34:36Z</time>
      </trkpt>
      <trkpt lat="40.8920400" lon="-3.3623770">
        <ele>774.0</ele>
        <time>2020-09-29T15:34:37Z</time>
      </trkpt>
      <trkpt lat="40.8919450" lon="-3.3625150">
        <ele>774.0</ele>
        <time>2020-09-29T15:34:38Z</time>
      </trkpt>
      <trkpt lat="40.8919450" lon="-3.3625150">
        <ele>774.0</ele>
        <time>2020-09-29T15:34:39Z</time>
      </trkpt>
      <trkpt lat="40.8918480" lon="-3.3626500">
        <ele>774.0</ele>
        <time>2020-09-29T15:34:40Z</time>
      </trkpt>
      <trkpt lat="40.8918000" lon="-3.3627180">
        <ele>774.0</ele>
        <time>2020-09-29T15:34:41Z</time>
      </trkpt>
      <trkpt lat="40.8918000" lon="-3.3627180">
        <ele>774.0</ele>
        <time>2020-09-29T15:34:42Z</time>
      </trkpt>
      <trkpt lat="40.8917070" lon="-3.3628570">
        <ele>774.0</ele>
        <time>2020-09-29T15:34:43Z</time>
      </trkpt>
      <trkpt lat="40.8916580" lon="-3.3629230">
        <ele>774.0</ele>
        <time>2020-09-29T15:34:44Z</time>
      </trkpt>
      <trkpt lat="40.8916150" lon="-3.3629920">
        <ele>774.0</ele>
        <time>2020-09-29T15:34:45Z</time>
      </trkpt>
      <trkpt lat="40.8916150" lon="-3.3629920">
        <ele>774.0</ele>
        <time>2020-09-29T15:34:46Z</time>
      </trkpt>
      <trkpt lat="40.8915230" lon="-3.3631300">
        <ele>774.0</ele>
        <time>2020-09-29T15:34:47Z</time>
      </trkpt>
      <trkpt lat="40.8915230" lon="-3.3631300">
        <ele>774.0</ele>
        <time>2020-09-29T15:34:48Z</time>
      </trkpt>
      <trkpt lat="40.8914320" lon="-3.3632670">
        <ele>774.0</ele>
        <time>2020-09-29T15:34:49Z</time>
      </trkpt>
      <trkpt lat="40.8913880" lon="-3.3633370">
        <ele>774.0</ele>
        <time>2020-09-29T15:34:50Z</time>
      </trkpt>
      <trkpt lat="40.8913880" lon="-3.3633370">
        <ele>774.0</ele>
        <time>2020-09-29T15:34:51Z</time>
      </trkpt>
      <trkpt lat="40.8912980" lon="-3.3634800">
        <ele>773.0</ele>
        <time>2020-09-29T15:34:52Z</time>
      </trkpt>
      <trkpt lat="40.8912550" lon="-3.3635520">
        <ele>773.0</ele>
        <time>2020-09-29T15:34:53Z</time>
      </trkpt>
      <trkpt lat="40.8912100" lon="-3.3636220">
        <ele>773.0</ele>
        <time>2020-09-29T15:34:54Z</time>
      </trkpt>
      <trkpt lat="40.8912100" lon="-3.3636220">
        <ele>773.0</ele>
        <time>2020-09-29T15:34:55Z</time>
      </trkpt>
      <trkpt lat="40.8911180" lon="-3.3637600">
        <ele>773.0</ele>
        <time>2020-09-29T15:34:56Z</time>
      </trkpt>
      <trkpt lat="40.8911180" lon="-3.3637600">
        <ele>773.0</ele>
        <time>2020-09-29T15:34:57Z</time>
      </trkpt>
      <trkpt lat="40.8910320" lon="-3.3638980">
        <ele>773.0</ele>
        <time>2020-09-29T15:34:58Z</time>
      </trkpt>
      <trkpt lat="40.8909880" lon="-3.3639630">
        <ele>773.0</ele>
        <time>2020-09-29T15:34:59Z</time>
      </trkpt>
      <trkpt lat="40.8909880" lon="-3.3639630">
        <ele>773.0</ele>
        <time>2020-09-29T15:35:00Z</time>
      </trkpt>
      <trkpt lat="40.8909000" lon="-3.3640970">
        <ele>773.0</ele>
        <time>2020-09-29T15:35:01Z</time>
      </trkpt>
      <trkpt lat="40.8909000" lon="-3.3640970">
        <ele>773.0</ele>
        <time>2020-09-29T15:35:02Z</time>
      </trkpt>
      <trkpt lat="40.8908100" lon="-3.3642300">
        <ele>773.0</ele>
        <time>2020-09-29T15:35:03Z</time>
      </trkpt>
      <trkpt lat="40.8908100" lon="-3.3642300">
        <ele>773.0</ele>
        <time>2020-09-29T15:35:04Z</time>
      </trkpt>
      <trkpt lat="40.8907180" lon="-3.3643580">
        <ele>773.0</ele>
        <time>2020-09-29T15:35:05Z</time>
      </trkpt>
      <trkpt lat="40.8906750" lon="-3.3644230">
        <ele>773.0</ele>
        <time>2020-09-29T15:35:06Z</time>
      </trkpt>
      <trkpt lat="40.8906750" lon="-3.3644230">
        <ele>772.0</ele>
        <time>2020-09-29T15:35:07Z</time>
      </trkpt>
      <trkpt lat="40.8905920" lon="-3.3645570">
        <ele>772.0</ele>
        <time>2020-09-29T15:35:08Z</time>
      </trkpt>
      <trkpt lat="40.8905920" lon="-3.3645570">
        <ele>772.0</ele>
        <time>2020-09-29T15:35:09Z</time>
      </trkpt>
      <trkpt lat="40.8905050" lon="-3.3646880">
        <ele>772.0</ele>
        <time>2020-09-29T15:35:10Z</time>
      </trkpt>
      <trkpt lat="40.8904620" lon="-3.3647550">
        <ele>772.0</ele>
        <time>2020-09-29T15:35:11Z</time>
      </trkpt>
      <trkpt lat="40.8904620" lon="-3.3647550">
        <ele>772.0</ele>
        <time>2020-09-29T15:35:12Z</time>
      </trkpt>
      <trkpt lat="40.8903720" lon="-3.3648850">
        <ele>772.0</ele>
        <time>2020-09-29T15:35:13Z</time>
      </trkpt>
      <trkpt lat="40.8903720" lon="-3.3648850">
        <ele>772.0</ele>
        <time>2020-09-29T15:35:14Z</time>
      </trkpt>
      <trkpt lat="40.8902820" lon="-3.3650180">
        <ele>772.0</ele>
        <time>2020-09-29T15:35:15Z</time>
      </trkpt>
      <trkpt lat="40.8902820" lon="-3.3650180">
        <ele>772.0</ele>
        <time>2020-09-29T15:35:16Z</time>
      </trkpt>
      <trkpt lat="40.8901970" lon="-3.3651500">
        <ele>772.0</ele>
        <time>2020-09-29T15:35:17Z</time>
      </trkpt>
      <trkpt lat="40.8901530" lon="-3.3652130">
        <ele>772.0</ele>
        <time>2020-09-29T15:35:18Z</time>
      </trkpt>
      <trkpt lat="40.8901530" lon="-3.3652130">
        <ele>771.0</ele>
        <time>2020-09-29T15:35:19Z</time>
      </trkpt>
      <trkpt lat="40.8900580" lon="-3.3653400">
        <ele>771.0</ele>
        <time>2020-09-29T15:35:20Z</time>
      </trkpt>
      <trkpt lat="40.8900580" lon="-3.3653400">
        <ele>771.0</ele>
        <time>2020-09-29T15:35:21Z</time>
      </trkpt>
      <trkpt lat="40.8899370" lon="-3.3654450">
        <ele>771.0</ele>
        <time>2020-09-29T15:35:22Z</time>
      </trkpt>
      <trkpt lat="40.8899370" lon="-3.3654450">
        <ele>771.0</ele>
        <time>2020-09-29T15:35:23Z</time>
      </trkpt>
      <trkpt lat="40.8898000" lon="-3.3655350">
        <ele>771.0</ele>
        <time>2020-09-29T15:35:24Z</time>
      </trkpt>
      <trkpt lat="40.8897300" lon="-3.3655830">
        <ele>771.0</ele>
        <time>2020-09-29T15:35:25Z</time>
      </trkpt>
      <trkpt lat="40.8896620" lon="-3.3656320">
        <ele>771.0</ele>
        <time>2020-09-29T15:35:26Z</time>
      </trkpt>
      <trkpt lat="40.8896620" lon="-3.3656320">
        <ele>771.0</ele>
        <time>2020-09-29T15:35:27Z</time>
      </trkpt>
      <trkpt lat="40.8895230" lon="-3.3657320">
        <ele>771.0</ele>
        <time>2020-09-29T15:35:28Z</time>
      </trkpt>
      <trkpt lat="40.8895230" lon="-3.3657320">
        <ele>770.0</ele>
        <time>2020-09-29T15:35:29Z</time>
      </trkpt>
      <trkpt lat="40.8893930" lon="-3.3658330">
        <ele>770.0</ele>
        <time>2020-09-29T15:35:30Z</time>
      </trkpt>
      <trkpt lat="40.8893930" lon="-3.3658330">
        <ele>770.0</ele>
        <time>2020-09-29T15:35:31Z</time>
      </trkpt>
      <trkpt lat="40.8892670" lon="-3.3659270">
        <ele>770.0</ele>
        <time>2020-09-29T15:35:32Z</time>
      </trkpt>
      <trkpt lat="40.8892670" lon="-3.3659270">
        <ele>770.0</ele>
        <time>2020-09-29T15:35:33Z</time>
      </trkpt>
      <trkpt lat="40.8891480" lon="-3.3660170">
        <ele>770.0</ele>
        <time>2020-09-29T15:35:34Z</time>
      </trkpt>
      <trkpt lat="40.8890930" lon="-3.3660570">
        <ele>770.0</ele>
        <time>2020-09-29T15:35:35Z</time>
      </trkpt>
      <trkpt lat="40.8890930" lon="-3.3660570">
        <ele>770.0</ele>
        <time>2020-09-29T15:35:36Z</time>
      </trkpt>
      <trkpt lat="40.8889870" lon="-3.3661300">
        <ele>770.0</ele>
        <time>2020-09-29T15:35:37Z</time>
      </trkpt>
      <trkpt lat="40.8889870" lon="-3.3661300">
        <ele>771.0</ele>
        <time>2020-09-29T15:35:38Z</time>
      </trkpt>
      <trkpt lat="40.8888800" lon="-3.3661880">
        <ele>771.0</ele>
        <time>2020-09-29T15:35:39Z</time>
      </trkpt>
      <trkpt lat="40.8888250" lon="-3.3662170">
        <ele>771.0</ele>
        <time>2020-09-29T15:35:40Z</time>
      </trkpt>
      <trkpt lat="40.8888250" lon="-3.3662170">
        <ele>771.0</ele>
        <time>2020-09-29T15:35:41Z</time>
      </trkpt>
      <trkpt lat="40.8887130" lon="-3.3662720">
        <ele>771.0</ele>
        <time>2020-09-29T15:35:42Z</time>
      </trkpt>
      <trkpt lat="40.8887130" lon="-3.3662720">
        <ele>771.0</ele>
        <time>2020-09-29T15:35:43Z</time>
      </trkpt>
      <trkpt lat="40.8885970" lon="-3.3663370">
        <ele>771.0</ele>
        <time>2020-09-29T15:35:44Z</time>
      </trkpt>
      <trkpt lat="40.8885970" lon="-3.3663370">
        <ele>771.0</ele>
        <time>2020-09-29T15:35:45Z</time>
      </trkpt>
      <trkpt lat="40.8884820" lon="-3.3664170">
        <ele>771.0</ele>
        <time>2020-09-29T15:35:46Z</time>
      </trkpt>
      <trkpt lat="40.8884820" lon="-3.3664170">
        <ele>771.0</ele>
        <time>2020-09-29T15:35:47Z</time>
      </trkpt>
      <trkpt lat="40.8883770" lon="-3.3665130">
        <ele>771.0</ele>
        <time>2020-09-29T15:35:48Z</time>
      </trkpt>
      <trkpt lat="40.8883250" lon="-3.3665630">
        <ele>771.0</ele>
        <time>2020-09-29T15:35:49Z</time>
      </trkpt>
      <trkpt lat="40.8883250" lon="-3.3665630">
        <ele>771.0</ele>
        <time>2020-09-29T15:35:50Z</time>
      </trkpt>
      <trkpt lat="40.8882250" lon="-3.3666670">
        <ele>771.0</ele>
        <time>2020-09-29T15:35:51Z</time>
      </trkpt>
      <trkpt lat="40.8882250" lon="-3.3666670">
        <ele>771.0</ele>
        <time>2020-09-29T15:35:52Z</time>
      </trkpt>
      <trkpt lat="40.8881230" lon="-3.3667720">
        <ele>771.0</ele>
        <time>2020-09-29T15:35:53Z</time>
      </trkpt>
      <trkpt lat="40.8880750" lon="-3.3668230">
        <ele>771.0</ele>
        <time>2020-09-29T15:35:54Z</time>
      </trkpt>
      <trkpt lat="40.8880750" lon="-3.3668230">
        <ele>771.0</ele>
        <time>2020-09-29T15:35:55Z</time>
      </trkpt>
      <trkpt lat="40.8879730" lon="-3.3669250">
        <ele>771.0</ele>
        <time>2020-09-29T15:35:56Z</time>
      </trkpt>
      <trkpt lat="40.8879730" lon="-3.3669250">
        <ele>771.0</ele>
        <time>2020-09-29T15:35:57Z</time>
      </trkpt>
      <trkpt lat="40.8878770" lon="-3.3670320">
        <ele>771.0</ele>
        <time>2020-09-29T15:35:58Z</time>
      </trkpt>
      <trkpt lat="40.8878770" lon="-3.3670320">
        <ele>771.0</ele>
        <time>2020-09-29T15:35:59Z</time>
      </trkpt>
      <trkpt lat="40.8877780" lon="-3.3671330">
        <ele>771.0</ele>
        <time>2020-09-29T15:36:00Z</time>
      </trkpt>
      <trkpt lat="40.8877780" lon="-3.3671330">
        <ele>771.0</ele>
        <time>2020-09-29T15:36:01Z</time>
      </trkpt>
      <trkpt lat="40.8876780" lon="-3.3672330">
        <ele>771.0</ele>
        <time>2020-09-29T15:36:02Z</time>
      </trkpt>
      <trkpt lat="40.8876780" lon="-3.3672330">
        <ele>771.0</ele>
        <time>2020-09-29T15:36:03Z</time>
      </trkpt>
      <trkpt lat="40.8875780" lon="-3.3673330">
        <ele>771.0</ele>
        <time>2020-09-29T15:36:04Z</time>
      </trkpt>
      <trkpt lat="40.8875780" lon="-3.3673330">
        <ele>771.0</ele>
        <time>2020-09-29T15:36:05Z</time>
      </trkpt>
      <trkpt lat="40.8874770" lon="-3.3674370">
        <ele>771.0</ele>
        <time>2020-09-29T15:36:06Z</time>
      </trkpt>
      <trkpt lat="40.8874770" lon="-3.3674370">
        <ele>771.0</ele>
        <time>2020-09-29T15:36:07Z</time>
      </trkpt>
      <trkpt lat="40.8873720" lon="-3.3675350">
        <ele>771.0</ele>
        <time>2020-09-29T15:36:08Z</time>
      </trkpt>
      <trkpt lat="40.8873720" lon="-3.3675350">
        <ele>771.0</ele>
        <time>2020-09-29T15:36:09Z</time>
      </trkpt>
      <trkpt lat="40.8872650" lon="-3.3676330">
        <ele>771.0</ele>
        <time>2020-09-29T15:36:10Z</time>
      </trkpt>
      <trkpt lat="40.8872130" lon="-3.3676820">
        <ele>771.0</ele>
        <time>2020-09-29T15:36:11Z</time>
      </trkpt>
      <trkpt lat="40.8872130" lon="-3.3676820">
        <ele>771.0</ele>
        <time>2020-09-29T15:36:12Z</time>
      </trkpt>
      <trkpt lat="40.8870920" lon="-3.3677470">
        <ele>771.0</ele>
        <time>2020-09-29T15:36:13Z</time>
      </trkpt>
      <trkpt lat="40.8870250" lon="-3.3677500">
        <ele>771.0</ele>
        <time>2020-09-29T15:36:14Z</time>
      </trkpt>
      <trkpt lat="40.8870250" lon="-3.3677500">
        <ele>771.0</ele>
        <time>2020-09-29T15:36:15Z</time>
      </trkpt>
      <trkpt lat="40.8868900" lon="-3.3677270">
        <ele>770.0</ele>
        <time>2020-09-29T15:36:16Z</time>
      </trkpt>
      <trkpt lat="40.8868280" lon="-3.3677000">
        <ele>770.0</ele>
        <time>2020-09-29T15:36:17Z</time>
      </trkpt>
      <trkpt lat="40.8868280" lon="-3.3677000">
        <ele>770.0</ele>
        <time>2020-09-29T15:36:18Z</time>
      </trkpt>
      <trkpt lat="40.8867070" lon="-3.3676430">
        <ele>770.0</ele>
        <time>2020-09-29T15:36:19Z</time>
      </trkpt>
      <trkpt lat="40.8866450" lon="-3.3676150">
        <ele>769.0</ele>
        <time>2020-09-29T15:36:20Z</time>
      </trkpt>
      <trkpt lat="40.8866450" lon="-3.3676150">
        <ele>769.0</ele>
        <time>2020-09-29T15:36:21Z</time>
      </trkpt>
      <trkpt lat="40.8865220" lon="-3.3675530">
        <ele>769.0</ele>
        <time>2020-09-29T15:36:22Z</time>
      </trkpt>
      <trkpt lat="40.8864600" lon="-3.3675200">
        <ele>769.0</ele>
        <time>2020-09-29T15:36:23Z</time>
      </trkpt>
      <trkpt lat="40.8864600" lon="-3.3675200">
        <ele>769.0</ele>
        <time>2020-09-29T15:36:24Z</time>
      </trkpt>
      <trkpt lat="40.8863380" lon="-3.3674500">
        <ele>769.0</ele>
        <time>2020-09-29T15:36:25Z</time>
      </trkpt>
      <trkpt lat="40.8862770" lon="-3.3674170">
        <ele>768.0</ele>
        <time>2020-09-29T15:36:26Z</time>
      </trkpt>
      <trkpt lat="40.8862770" lon="-3.3674170">
        <ele>768.0</ele>
        <time>2020-09-29T15:36:27Z</time>
      </trkpt>
      <trkpt lat="40.8861530" lon="-3.3673470">
        <ele>767.0</ele>
        <time>2020-09-29T15:36:28Z</time>
      </trkpt>
      <trkpt lat="40.8860950" lon="-3.3673070">
        <ele>767.0</ele>
        <time>2020-09-29T15:36:29Z</time>
      </trkpt>
      <trkpt lat="40.8860950" lon="-3.3673070">
        <ele>767.0</ele>
        <time>2020-09-29T15:36:30Z</time>
      </trkpt>
      <trkpt lat="40.8859780" lon="-3.3672230">
        <ele>767.0</ele>
        <time>2020-09-29T15:36:31Z</time>
      </trkpt>
      <trkpt lat="40.8859150" lon="-3.3672000">
        <ele>767.0</ele>
        <time>2020-09-29T15:36:32Z</time>
      </trkpt>
      <trkpt lat="40.8859150" lon="-3.3672000">
        <ele>767.0</ele>
        <time>2020-09-29T15:36:33Z</time>
      </trkpt>
      <trkpt lat="40.8857880" lon="-3.3672300">
        <ele>767.0</ele>
        <time>2020-09-29T15:36:34Z</time>
      </trkpt>
      <trkpt lat="40.8857880" lon="-3.3672300">
        <ele>767.0</ele>
        <time>2020-09-29T15:36:35Z</time>
      </trkpt>
      <trkpt lat="40.8856980" lon="-3.3673500">
        <ele>767.0</ele>
        <time>2020-09-29T15:36:36Z</time>
      </trkpt>
      <trkpt lat="40.8856600" lon="-3.3674150">
        <ele>767.0</ele>
        <time>2020-09-29T15:36:37Z</time>
      </trkpt>
      <trkpt lat="40.8856200" lon="-3.3674770">
        <ele>767.0</ele>
        <time>2020-09-29T15:36:38Z</time>
      </trkpt>
      <trkpt lat="40.8856200" lon="-3.3674770">
        <ele>767.0</ele>
        <time>2020-09-29T15:36:39Z</time>
      </trkpt>
      <trkpt lat="40.8855430" lon="-3.3675980">
        <ele>767.0</ele>
        <time>2020-09-29T15:36:40Z</time>
      </trkpt>
      <trkpt lat="40.8855430" lon="-3.3675980">
        <ele>767.0</ele>
        <time>2020-09-29T15:36:41Z</time>
      </trkpt>
      <trkpt lat="40.8854680" lon="-3.3677180">
        <ele>767.0</ele>
        <time>2020-09-29T15:36:42Z</time>
      </trkpt>
      <trkpt lat="40.8854680" lon="-3.3677180">
        <ele>767.0</ele>
        <time>2020-09-29T15:36:43Z</time>
      </trkpt>
      <trkpt lat="40.8853920" lon="-3.3678380">
        <ele>767.0</ele>
        <time>2020-09-29T15:36:44Z</time>
      </trkpt>
      <trkpt lat="40.8853920" lon="-3.3678380">
        <ele>767.0</ele>
        <time>2020-09-29T15:36:45Z</time>
      </trkpt>
      <trkpt lat="40.8853100" lon="-3.3679570">
        <ele>767.0</ele>
        <time>2020-09-29T15:36:46Z</time>
      </trkpt>
      <trkpt lat="40.8853100" lon="-3.3679570">
        <ele>767.0</ele>
        <time>2020-09-29T15:36:47Z</time>
      </trkpt>
      <trkpt lat="40.8852300" lon="-3.3680780">
        <ele>767.0</ele>
        <time>2020-09-29T15:36:48Z</time>
      </trkpt>
      <trkpt lat="40.8852300" lon="-3.3680780">
        <ele>767.0</ele>
        <time>2020-09-29T15:36:49Z</time>
      </trkpt>
      <trkpt lat="40.8851470" lon="-3.3682020">
        <ele>767.0</ele>
        <time>2020-09-29T15:36:50Z</time>
      </trkpt>
      <trkpt lat="40.8850620" lon="-3.3683300">
        <ele>767.0</ele>
        <time>2020-09-29T15:36:51Z</time>
      </trkpt>
      <trkpt lat="40.8850620" lon="-3.3683300">
        <ele>767.0</ele>
        <time>2020-09-29T15:36:52Z</time>
      </trkpt>
      <trkpt lat="40.8850190" lon="-3.3683940">
        <ele>768.0</ele>
        <time>2020-09-29T15:36:53Z</time>
      </trkpt>
      <trkpt lat="40.8849750" lon="-3.3684570">
        <ele>768.0</ele>
        <time>2020-09-29T15:36:54Z</time>
      </trkpt>
      <trkpt lat="40.8849300" lon="-3.3685200">
        <ele>768.0</ele>
        <time>2020-09-29T15:36:55Z</time>
      </trkpt>
      <trkpt lat="40.8849300" lon="-3.3685200">
        <ele>768.0</ele>
        <time>2020-09-29T15:36:56Z</time>
      </trkpt>
      <trkpt lat="40.8848380" lon="-3.3686550">
        <ele>768.0</ele>
        <time>2020-09-29T15:36:57Z</time>
      </trkpt>
      <trkpt lat="40.8848380" lon="-3.3686550">
        <ele>768.0</ele>
        <time>2020-09-29T15:36:58Z</time>
      </trkpt>
      <trkpt lat="40.8847450" lon="-3.3687880">
        <ele>768.0</ele>
        <time>2020-09-29T15:36:59Z</time>
      </trkpt>
      <trkpt lat="40.8847450" lon="-3.3687880">
        <ele>767.0</ele>
        <time>2020-09-29T15:37:00Z</time>
      </trkpt>
      <trkpt lat="40.8846550" lon="-3.3689200">
        <ele>767.0</ele>
        <time>2020-09-29T15:37:01Z</time>
      </trkpt>
      <trkpt lat="40.8846550" lon="-3.3689200">
        <ele>767.0</ele>
        <time>2020-09-29T15:37:02Z</time>
      </trkpt>
      <trkpt lat="40.8845670" lon="-3.3690550">
        <ele>767.0</ele>
        <time>2020-09-29T15:37:03Z</time>
      </trkpt>
      <trkpt lat="40.8845250" lon="-3.3691230">
        <ele>767.0</ele>
        <time>2020-09-29T15:37:04Z</time>
      </trkpt>
      <trkpt lat="40.8845250" lon="-3.3691230">
        <ele>767.0</ele>
        <time>2020-09-29T15:37:05Z</time>
      </trkpt>
      <trkpt lat="40.8844350" lon="-3.3692550">
        <ele>767.0</ele>
        <time>2020-09-29T15:37:06Z</time>
      </trkpt>
      <trkpt lat="40.8844350" lon="-3.3692550">
        <ele>767.0</ele>
        <time>2020-09-29T15:37:07Z</time>
      </trkpt>
      <trkpt lat="40.8843450" lon="-3.3693850">
        <ele>767.0</ele>
        <time>2020-09-29T15:37:08Z</time>
      </trkpt>
      <trkpt lat="40.8843450" lon="-3.3693850">
        <ele>767.0</ele>
        <time>2020-09-29T15:37:09Z</time>
      </trkpt>
      <trkpt lat="40.8842570" lon="-3.3695170">
        <ele>767.0</ele>
        <time>2020-09-29T15:37:10Z</time>
      </trkpt>
      <trkpt lat="40.8842570" lon="-3.3695170">
        <ele>767.0</ele>
        <time>2020-09-29T15:37:11Z</time>
      </trkpt>
      <trkpt lat="40.8841670" lon="-3.3696450">
        <ele>767.0</ele>
        <time>2020-09-29T15:37:12Z</time>
      </trkpt>
      <trkpt lat="40.8841670" lon="-3.3696450">
        <ele>767.0</ele>
        <time>2020-09-29T15:37:13Z</time>
      </trkpt>
      <trkpt lat="40.8840770" lon="-3.3697750">
        <ele>767.0</ele>
        <time>2020-09-29T15:37:14Z</time>
      </trkpt>
      <trkpt lat="40.8840770" lon="-3.3697750">
        <ele>767.0</ele>
        <time>2020-09-29T15:37:15Z</time>
      </trkpt>
      <trkpt lat="40.8839900" lon="-3.3699100">
        <ele>767.0</ele>
        <time>2020-09-29T15:37:16Z</time>
      </trkpt>
      <trkpt lat="40.8839470" lon="-3.3699780">
        <ele>766.0</ele>
        <time>2020-09-29T15:37:17Z</time>
      </trkpt>
      <trkpt lat="40.8839470" lon="-3.3699780">
        <ele>766.0</ele>
        <time>2020-09-29T15:37:18Z</time>
      </trkpt>
      <trkpt lat="40.8838550" lon="-3.3701100">
        <ele>766.0</ele>
        <time>2020-09-29T15:37:19Z</time>
      </trkpt>
      <trkpt lat="40.8838550" lon="-3.3701100">
        <ele>766.0</ele>
        <time>2020-09-29T15:37:20Z</time>
      </trkpt>
      <trkpt lat="40.8837630" lon="-3.3702420">
        <ele>766.0</ele>
        <time>2020-09-29T15:37:21Z</time>
      </trkpt>
      <trkpt lat="40.8837630" lon="-3.3702420">
        <ele>766.0</ele>
        <time>2020-09-29T15:37:22Z</time>
      </trkpt>
      <trkpt lat="40.8836720" lon="-3.3703750">
        <ele>766.0</ele>
        <time>2020-09-29T15:37:23Z</time>
      </trkpt>
      <trkpt lat="40.8836720" lon="-3.3703750">
        <ele>766.0</ele>
        <time>2020-09-29T15:37:24Z</time>
      </trkpt>
      <trkpt lat="40.8835780" lon="-3.3705100">
        <ele>766.0</ele>
        <time>2020-09-29T15:37:25Z</time>
      </trkpt>
      <trkpt lat="40.8835320" lon="-3.3705770">
        <ele>766.0</ele>
        <time>2020-09-29T15:37:26Z</time>
      </trkpt>
      <trkpt lat="40.8834850" lon="-3.3706430">
        <ele>766.0</ele>
        <time>2020-09-29T15:37:27Z</time>
      </trkpt>
      <trkpt lat="40.8834850" lon="-3.3706430">
        <ele>766.0</ele>
        <time>2020-09-29T15:37:28Z</time>
      </trkpt>
      <trkpt lat="40.8833920" lon="-3.3707770">
        <ele>766.0</ele>
        <time>2020-09-29T15:37:29Z</time>
      </trkpt>
      <trkpt lat="40.8833920" lon="-3.3707770">
        <ele>766.0</ele>
        <time>2020-09-29T15:37:30Z</time>
      </trkpt>
      <trkpt lat="40.8833030" lon="-3.3709130">
        <ele>766.0</ele>
        <time>2020-09-29T15:37:31Z</time>
      </trkpt>
      <trkpt lat="40.8832570" lon="-3.3709820">
        <ele>766.0</ele>
        <time>2020-09-29T15:37:32Z</time>
      </trkpt>
      <trkpt lat="40.8832570" lon="-3.3709820">
        <ele>766.0</ele>
        <time>2020-09-29T15:37:33Z</time>
      </trkpt>
      <trkpt lat="40.8831630" lon="-3.3711180">
        <ele>766.0</ele>
        <time>2020-09-29T15:37:34Z</time>
      </trkpt>
      <trkpt lat="40.8831630" lon="-3.3711180">
        <ele>766.0</ele>
        <time>2020-09-29T15:37:35Z</time>
      </trkpt>
      <trkpt lat="40.8830700" lon="-3.3712550">
        <ele>766.0</ele>
        <time>2020-09-29T15:37:36Z</time>
      </trkpt>
      <trkpt lat="40.8830700" lon="-3.3712550">
        <ele>766.0</ele>
        <time>2020-09-29T15:37:37Z</time>
      </trkpt>
      <trkpt lat="40.8829750" lon="-3.3713900">
        <ele>766.0</ele>
        <time>2020-09-29T15:37:38Z</time>
      </trkpt>
      <trkpt lat="40.8829250" lon="-3.3714570">
        <ele>766.0</ele>
        <time>2020-09-29T15:37:39Z</time>
      </trkpt>
      <trkpt lat="40.8829250" lon="-3.3714570">
        <ele>766.0</ele>
        <time>2020-09-29T15:37:40Z</time>
      </trkpt>
      <trkpt lat="40.8828330" lon="-3.3715900">
        <ele>766.0</ele>
        <time>2020-09-29T15:37:41Z</time>
      </trkpt>
      <trkpt lat="40.8828330" lon="-3.3715900">
        <ele>766.0</ele>
        <time>2020-09-29T15:37:42Z</time>
      </trkpt>
      <trkpt lat="40.8827430" lon="-3.3717230">
        <ele>766.0</ele>
        <time>2020-09-29T15:37:43Z</time>
      </trkpt>
      <trkpt lat="40.8827430" lon="-3.3717230">
        <ele>766.0</ele>
        <time>2020-09-29T15:37:44Z</time>
      </trkpt>
      <trkpt lat="40.8826520" lon="-3.3718570">
        <ele>766.0</ele>
        <time>2020-09-29T15:37:45Z</time>
      </trkpt>
      <trkpt lat="40.8826520" lon="-3.3718570">
        <ele>766.0</ele>
        <time>2020-09-29T15:37:46Z</time>
      </trkpt>
      <trkpt lat="40.8825600" lon="-3.3719900">
        <ele>766.0</ele>
        <time>2020-09-29T15:37:47Z</time>
      </trkpt>
      <trkpt lat="40.8825150" lon="-3.3720580">
        <ele>766.0</ele>
        <time>2020-09-29T15:37:48Z</time>
      </trkpt>
      <trkpt lat="40.8824700" lon="-3.3721270">
        <ele>766.0</ele>
        <time>2020-09-29T15:37:49Z</time>
      </trkpt>
      <trkpt lat="40.8824330" lon="-3.3721920">
        <ele>766.0</ele>
        <time>2020-09-29T15:37:50Z</time>
      </trkpt>
      <trkpt lat="40.8824330" lon="-3.3721920">
        <ele>766.0</ele>
        <time>2020-09-29T15:37:51Z</time>
      </trkpt>
      <trkpt lat="40.8823420" lon="-3.3723220">
        <ele>766.0</ele>
        <time>2020-09-29T15:37:52Z</time>
      </trkpt>
      <trkpt lat="40.8822970" lon="-3.3723900">
        <ele>766.0</ele>
        <time>2020-09-29T15:37:53Z</time>
      </trkpt>
      <trkpt lat="40.8822600" lon="-3.3724620">
        <ele>766.0</ele>
        <time>2020-09-29T15:37:54Z</time>
      </trkpt>
      <trkpt lat="40.8822600" lon="-3.3724620">
        <ele>766.0</ele>
        <time>2020-09-29T15:37:55Z</time>
      </trkpt>
      <trkpt lat="40.8821970" lon="-3.3726270">
        <ele>766.0</ele>
        <time>2020-09-29T15:37:56Z</time>
      </trkpt>
      <trkpt lat="40.8821970" lon="-3.3726270">
        <ele>766.0</ele>
        <time>2020-09-29T15:37:57Z</time>
      </trkpt>
      <trkpt lat="40.8821500" lon="-3.3727930">
        <ele>766.0</ele>
        <time>2020-09-29T15:37:58Z</time>
      </trkpt>
      <trkpt lat="40.8821320" lon="-3.3728770">
        <ele>766.0</ele>
        <time>2020-09-29T15:37:59Z</time>
      </trkpt>
      <trkpt lat="40.8821320" lon="-3.3728770">
        <ele>766.0</ele>
        <time>2020-09-29T15:38:00Z</time>
      </trkpt>
      <trkpt lat="40.8821000" lon="-3.3730420">
        <ele>766.0</ele>
        <time>2020-09-29T15:38:01Z</time>
      </trkpt>
      <trkpt lat="40.8821000" lon="-3.3730420">
        <ele>766.0</ele>
        <time>2020-09-29T15:38:02Z</time>
      </trkpt>
      <trkpt lat="40.8820680" lon="-3.3732070">
        <ele>766.0</ele>
        <time>2020-09-29T15:38:03Z</time>
      </trkpt>
      <trkpt lat="40.8820530" lon="-3.3732870">
        <ele>766.0</ele>
        <time>2020-09-29T15:38:04Z</time>
      </trkpt>
      <trkpt lat="40.8820530" lon="-3.3732870">
        <ele>766.0</ele>
        <time>2020-09-29T15:38:05Z</time>
      </trkpt>
      <trkpt lat="40.8820250" lon="-3.3734500">
        <ele>766.0</ele>
        <time>2020-09-29T15:38:06Z</time>
      </trkpt>
      <trkpt lat="40.8820080" lon="-3.3735330">
        <ele>766.0</ele>
        <time>2020-09-29T15:38:07Z</time>
      </trkpt>
      <trkpt lat="40.8819950" lon="-3.3736150">
        <ele>766.0</ele>
        <time>2020-09-29T15:38:08Z</time>
      </trkpt>
      <trkpt lat="40.8819950" lon="-3.3736150">
        <ele>766.0</ele>
        <time>2020-09-29T15:38:09Z</time>
      </trkpt>
      <trkpt lat="40.8819650" lon="-3.3737820">
        <ele>766.0</ele>
        <time>2020-09-29T15:38:10Z</time>
      </trkpt>
      <trkpt lat="40.8819480" lon="-3.3738620">
        <ele>766.0</ele>
        <time>2020-09-29T15:38:11Z</time>
      </trkpt>
      <trkpt lat="40.8819480" lon="-3.3738620">
        <ele>766.0</ele>
        <time>2020-09-29T15:38:12Z</time>
      </trkpt>
      <trkpt lat="40.8819180" lon="-3.3740220">
        <ele>768.0</ele>
        <time>2020-09-29T15:38:13Z</time>
      </trkpt>
      <trkpt lat="40.8819050" lon="-3.3741050">
        <ele>768.0</ele>
        <time>2020-09-29T15:38:14Z</time>
      </trkpt>
      <trkpt lat="40.8819050" lon="-3.3741050">
        <ele>768.0</ele>
        <time>2020-09-29T15:38:15Z</time>
      </trkpt>
      <trkpt lat="40.8818770" lon="-3.3742720">
        <ele>768.0</ele>
        <time>2020-09-29T15:38:16Z</time>
      </trkpt>
      <trkpt lat="40.8818770" lon="-3.3742720">
        <ele>768.0</ele>
        <time>2020-09-29T15:38:17Z</time>
      </trkpt>
      <trkpt lat="40.8818480" lon="-3.3744370">
        <ele>768.0</ele>
        <time>2020-09-29T15:38:18Z</time>
      </trkpt>
      <trkpt lat="40.8818480" lon="-3.3744370">
        <ele>768.0</ele>
        <time>2020-09-29T15:38:19Z</time>
      </trkpt>
      <trkpt lat="40.8818150" lon="-3.3746020">
        <ele>768.0</ele>
        <time>2020-09-29T15:38:20Z</time>
      </trkpt>
      <trkpt lat="40.8818150" lon="-3.3746020">
        <ele>768.0</ele>
        <time>2020-09-29T15:38:21Z</time>
      </trkpt>
      <trkpt lat="40.8817800" lon="-3.3747630">
        <ele>768.0</ele>
        <time>2020-09-29T15:38:22Z</time>
      </trkpt>
      <trkpt lat="40.8817630" lon="-3.3748430">
        <ele>768.0</ele>
        <time>2020-09-29T15:38:23Z</time>
      </trkpt>
      <trkpt lat="40.8817630" lon="-3.3748430">
        <ele>768.0</ele>
        <time>2020-09-29T15:38:24Z</time>
      </trkpt>
      <trkpt lat="40.8817170" lon="-3.3750030">
        <ele>768.0</ele>
        <time>2020-09-29T15:38:25Z</time>
      </trkpt>
      <trkpt lat="40.8816870" lon="-3.3750770">
        <ele>768.0</ele>
        <time>2020-09-29T15:38:26Z</time>
      </trkpt>
      <trkpt lat="40.8816870" lon="-3.3750770">
        <ele>768.0</ele>
        <time>2020-09-29T15:38:27Z</time>
      </trkpt>
      <trkpt lat="40.8816130" lon="-3.3752120">
        <ele>768.0</ele>
        <time>2020-09-29T15:38:28Z</time>
      </trkpt>
      <trkpt lat="40.8816130" lon="-3.3752120">
        <ele>768.0</ele>
        <time>2020-09-29T15:38:29Z</time>
      </trkpt>
      <trkpt lat="40.8815280" lon="-3.3753420">
        <ele>768.0</ele>
        <time>2020-09-29T15:38:30Z</time>
      </trkpt>
      <trkpt lat="40.8814830" lon="-3.3754020">
        <ele>768.0</ele>
        <time>2020-09-29T15:38:31Z</time>
      </trkpt>
      <trkpt lat="40.8814830" lon="-3.3754020">
        <ele>768.0</ele>
        <time>2020-09-29T15:38:32Z</time>
      </trkpt>
      <trkpt lat="40.8813920" lon="-3.3755100">
        <ele>768.0</ele>
        <time>2020-09-29T15:38:33Z</time>
      </trkpt>
      <trkpt lat="40.8813920" lon="-3.3755100">
        <ele>768.0</ele>
        <time>2020-09-29T15:38:34Z</time>
      </trkpt>
      <trkpt lat="40.8813000" lon="-3.3756180">
        <ele>768.0</ele>
        <time>2020-09-29T15:38:35Z</time>
      </trkpt>
      <trkpt lat="40.8812550" lon="-3.3756730">
        <ele>768.0</ele>
        <time>2020-09-29T15:38:36Z</time>
      </trkpt>
      <trkpt lat="40.8812550" lon="-3.3756730">
        <ele>768.0</ele>
        <time>2020-09-29T15:38:37Z</time>
      </trkpt>
      <trkpt lat="40.8811600" lon="-3.3757780">
        <ele>768.0</ele>
        <time>2020-09-29T15:38:38Z</time>
      </trkpt>
      <trkpt lat="40.8811600" lon="-3.3757780">
        <ele>768.0</ele>
        <time>2020-09-29T15:38:39Z</time>
      </trkpt>
      <trkpt lat="40.8810550" lon="-3.3758670">
        <ele>768.0</ele>
        <time>2020-09-29T15:38:40Z</time>
      </trkpt>
      <trkpt lat="40.8810550" lon="-3.3758670">
        <ele>769.0</ele>
        <time>2020-09-29T15:38:41Z</time>
      </trkpt>
      <trkpt lat="40.8809400" lon="-3.3759200">
        <ele>769.0</ele>
        <time>2020-09-29T15:38:42Z</time>
      </trkpt>
      <trkpt lat="40.8809400" lon="-3.3759200">
        <ele>769.0</ele>
        <time>2020-09-29T15:38:43Z</time>
      </trkpt>
      <trkpt lat="40.8808220" lon="-3.3759520">
        <ele>769.0</ele>
        <time>2020-09-29T15:38:44Z</time>
      </trkpt>
      <trkpt lat="40.8808220" lon="-3.3759520">
        <ele>769.0</ele>
        <time>2020-09-29T15:38:45Z</time>
      </trkpt>
      <trkpt lat="40.8807000" lon="-3.3759770">
        <ele>769.0</ele>
        <time>2020-09-29T15:38:46Z</time>
      </trkpt>
      <trkpt lat="40.8806380" lon="-3.3759870">
        <ele>769.0</ele>
        <time>2020-09-29T15:38:47Z</time>
      </trkpt>
      <trkpt lat="40.8805770" lon="-3.3759950">
        <ele>769.0</ele>
        <time>2020-09-29T15:38:48Z</time>
      </trkpt>
      <trkpt lat="40.8805770" lon="-3.3759950">
        <ele>770.0</ele>
        <time>2020-09-29T15:38:49Z</time>
      </trkpt>
      <trkpt lat="40.8804550" lon="-3.3760170">
        <ele>770.0</ele>
        <time>2020-09-29T15:38:50Z</time>
      </trkpt>
      <trkpt lat="40.8804550" lon="-3.3760170">
        <ele>770.0</ele>
        <time>2020-09-29T15:38:51Z</time>
      </trkpt>
      <trkpt lat="40.8803330" lon="-3.3760380">
        <ele>770.0</ele>
        <time>2020-09-29T15:38:52Z</time>
      </trkpt>
      <trkpt lat="40.8803330" lon="-3.3760380">
        <ele>770.0</ele>
        <time>2020-09-29T15:38:53Z</time>
      </trkpt>
      <trkpt lat="40.8802100" lon="-3.3760570">
        <ele>770.0</ele>
        <time>2020-09-29T15:38:54Z</time>
      </trkpt>
      <trkpt lat="40.8802100" lon="-3.3760570">
        <ele>770.0</ele>
        <time>2020-09-29T15:38:55Z</time>
      </trkpt>
      <trkpt lat="40.8800920" lon="-3.3760830">
        <ele>770.0</ele>
        <time>2020-09-29T15:38:56Z</time>
      </trkpt>
      <trkpt lat="40.8800920" lon="-3.3760830">
        <ele>769.0</ele>
        <time>2020-09-29T15:38:57Z</time>
      </trkpt>
      <trkpt lat="40.8799730" lon="-3.3761100">
        <ele>769.0</ele>
        <time>2020-09-29T15:38:58Z</time>
      </trkpt>
      <trkpt lat="40.8799130" lon="-3.3761220">
        <ele>769.0</ele>
        <time>2020-09-29T15:38:59Z</time>
      </trkpt>
      <trkpt lat="40.8799130" lon="-3.3761220">
        <ele>769.0</ele>
        <time>2020-09-29T15:39:00Z</time>
      </trkpt>
      <trkpt lat="40.8797900" lon="-3.3761520">
        <ele>769.0</ele>
        <time>2020-09-29T15:39:01Z</time>
      </trkpt>
      <trkpt lat="40.8797900" lon="-3.3761520">
        <ele>769.0</ele>
        <time>2020-09-29T15:39:02Z</time>
      </trkpt>
      <trkpt lat="40.8796680" lon="-3.3761880">
        <ele>769.0</ele>
        <time>2020-09-29T15:39:03Z</time>
      </trkpt>
      <trkpt lat="40.8796680" lon="-3.3761880">
        <ele>769.0</ele>
        <time>2020-09-29T15:39:04Z</time>
      </trkpt>
      <trkpt lat="40.8795570" lon="-3.3762500">
        <ele>769.0</ele>
        <time>2020-09-29T15:39:05Z</time>
      </trkpt>
      <trkpt lat="40.8795050" lon="-3.3762920">
        <ele>769.0</ele>
        <time>2020-09-29T15:39:06Z</time>
      </trkpt>
      <trkpt lat="40.8795050" lon="-3.3762920">
        <ele>769.0</ele>
        <time>2020-09-29T15:39:07Z</time>
      </trkpt>
      <trkpt lat="40.8794100" lon="-3.3763830">
        <ele>769.0</ele>
        <time>2020-09-29T15:39:08Z</time>
      </trkpt>
      <trkpt lat="40.8794100" lon="-3.3763830">
        <ele>769.0</ele>
        <time>2020-09-29T15:39:09Z</time>
      </trkpt>
      <trkpt lat="40.8793200" lon="-3.3764920">
        <ele>769.0</ele>
        <time>2020-09-29T15:39:10Z</time>
      </trkpt>
      <trkpt lat="40.8793200" lon="-3.3764920">
        <ele>769.0</ele>
        <time>2020-09-29T15:39:11Z</time>
      </trkpt>
      <trkpt lat="40.8792280" lon="-3.3766030">
        <ele>769.0</ele>
        <time>2020-09-29T15:39:12Z</time>
      </trkpt>
      <trkpt lat="40.8792280" lon="-3.3766030">
        <ele>769.0</ele>
        <time>2020-09-29T15:39:13Z</time>
      </trkpt>
      <trkpt lat="40.8791420" lon="-3.3767200">
        <ele>769.0</ele>
        <time>2020-09-29T15:39:14Z</time>
      </trkpt>
      <trkpt lat="40.8791420" lon="-3.3767200">
        <ele>769.0</ele>
        <time>2020-09-29T15:39:15Z</time>
      </trkpt>
      <trkpt lat="40.8790630" lon="-3.3768530">
        <ele>769.0</ele>
        <time>2020-09-29T15:39:16Z</time>
      </trkpt>
      <trkpt lat="40.8790270" lon="-3.3769220">
        <ele>769.0</ele>
        <time>2020-09-29T15:39:17Z</time>
      </trkpt>
      <trkpt lat="40.8790270" lon="-3.3769220">
        <ele>769.0</ele>
        <time>2020-09-29T15:39:18Z</time>
      </trkpt>
      <trkpt lat="40.8789630" lon="-3.3770650">
        <ele>769.0</ele>
        <time>2020-09-29T15:39:19Z</time>
      </trkpt>
      <trkpt lat="40.8789630" lon="-3.3770650">
        <ele>769.0</ele>
        <time>2020-09-29T15:39:20Z</time>
      </trkpt>
      <trkpt lat="40.8789000" lon="-3.3772100">
        <ele>769.0</ele>
        <time>2020-09-29T15:39:21Z</time>
      </trkpt>
      <trkpt lat="40.8788680" lon="-3.3772820">
        <ele>769.0</ele>
        <time>2020-09-29T15:39:22Z</time>
      </trkpt>
      <trkpt lat="40.8788680" lon="-3.3772820">
        <ele>769.0</ele>
        <time>2020-09-29T15:39:23Z</time>
      </trkpt>
      <trkpt lat="40.8788070" lon="-3.3774300">
        <ele>769.0</ele>
        <time>2020-09-29T15:39:24Z</time>
      </trkpt>
      <trkpt lat="40.8788070" lon="-3.3774300">
        <ele>769.0</ele>
        <time>2020-09-29T15:39:25Z</time>
      </trkpt>
      <trkpt lat="40.8787470" lon="-3.3775770">
        <ele>769.0</ele>
        <time>2020-09-29T15:39:26Z</time>
      </trkpt>
      <trkpt lat="40.8787470" lon="-3.3775770">
        <ele>769.0</ele>
        <time>2020-09-29T15:39:27Z</time>
      </trkpt>
      <trkpt lat="40.8786800" lon="-3.3777180">
        <ele>769.0</ele>
        <time>2020-09-29T15:39:28Z</time>
      </trkpt>
      <trkpt lat="40.8786800" lon="-3.3777180">
        <ele>769.0</ele>
        <time>2020-09-29T15:39:29Z</time>
      </trkpt>
      <trkpt lat="40.8786150" lon="-3.3778630">
        <ele>769.0</ele>
        <time>2020-09-29T15:39:30Z</time>
      </trkpt>
      <trkpt lat="40.8786150" lon="-3.3778630">
        <ele>769.0</ele>
        <time>2020-09-29T15:39:31Z</time>
      </trkpt>
      <trkpt lat="40.8785520" lon="-3.3780100">
        <ele>769.0</ele>
        <time>2020-09-29T15:39:32Z</time>
      </trkpt>
      <trkpt lat="40.8785520" lon="-3.3780100">
        <ele>769.0</ele>
        <time>2020-09-29T15:39:33Z</time>
      </trkpt>
      <trkpt lat="40.8784880" lon="-3.3781580">
        <ele>769.0</ele>
        <time>2020-09-29T15:39:34Z</time>
      </trkpt>
      <trkpt lat="40.8784570" lon="-3.3782330">
        <ele>769.0</ele>
        <time>2020-09-29T15:39:35Z</time>
      </trkpt>
      <trkpt lat="40.8784570" lon="-3.3782330">
        <ele>769.0</ele>
        <time>2020-09-29T15:39:36Z</time>
      </trkpt>
      <trkpt lat="40.8783900" lon="-3.3783830">
        <ele>769.0</ele>
        <time>2020-09-29T15:39:37Z</time>
      </trkpt>
      <trkpt lat="40.8783550" lon="-3.3784550">
        <ele>769.0</ele>
        <time>2020-09-29T15:39:38Z</time>
      </trkpt>
      <trkpt lat="40.8783550" lon="-3.3784550">
        <ele>769.0</ele>
        <time>2020-09-29T15:39:39Z</time>
      </trkpt>
      <trkpt lat="40.8782880" lon="-3.3786020">
        <ele>769.0</ele>
        <time>2020-09-29T15:39:40Z</time>
      </trkpt>
      <trkpt lat="40.8782880" lon="-3.3786020">
        <ele>769.0</ele>
        <time>2020-09-29T15:39:41Z</time>
      </trkpt>
      <trkpt lat="40.8782230" lon="-3.3787450">
        <ele>769.0</ele>
        <time>2020-09-29T15:39:42Z</time>
      </trkpt>
      <trkpt lat="40.8782230" lon="-3.3787450">
        <ele>769.0</ele>
        <time>2020-09-29T15:39:43Z</time>
      </trkpt>
      <trkpt lat="40.8781620" lon="-3.3788850">
        <ele>769.0</ele>
        <time>2020-09-29T15:39:44Z</time>
      </trkpt>
      <trkpt lat="40.8781620" lon="-3.3788850">
        <ele>769.0</ele>
        <time>2020-09-29T15:39:45Z</time>
      </trkpt>
      <trkpt lat="40.8781000" lon="-3.3790180">
        <ele>769.0</ele>
        <time>2020-09-29T15:39:46Z</time>
      </trkpt>
      <trkpt lat="40.8781000" lon="-3.3790180">
        <ele>769.0</ele>
        <time>2020-09-29T15:39:47Z</time>
      </trkpt>
      <trkpt lat="40.8780300" lon="-3.3791430">
        <ele>769.0</ele>
        <time>2020-09-29T15:39:48Z</time>
      </trkpt>
      <trkpt lat="40.8780300" lon="-3.3791430">
        <ele>769.0</ele>
        <time>2020-09-29T15:39:49Z</time>
      </trkpt>
      <trkpt lat="40.8779500" lon="-3.3792550">
        <ele>769.0</ele>
        <time>2020-09-29T15:39:50Z</time>
      </trkpt>
      <trkpt lat="40.8779500" lon="-3.3792550">
        <ele>769.0</ele>
        <time>2020-09-29T15:39:51Z</time>
      </trkpt>
      <trkpt lat="40.8778550" lon="-3.3793470">
        <ele>769.0</ele>
        <time>2020-09-29T15:39:52Z</time>
      </trkpt>
      <trkpt lat="40.8778050" lon="-3.3793880">
        <ele>769.0</ele>
        <time>2020-09-29T15:39:53Z</time>
      </trkpt>
      <trkpt lat="40.8777530" lon="-3.3794270">
        <ele>769.0</ele>
        <time>2020-09-29T15:39:54Z</time>
      </trkpt>
      <trkpt lat="40.8777530" lon="-3.3794270">
        <ele>769.0</ele>
        <time>2020-09-29T15:39:55Z</time>
      </trkpt>
      <trkpt lat="40.8776500" lon="-3.3794970">
        <ele>769.0</ele>
        <time>2020-09-29T15:39:56Z</time>
      </trkpt>
      <trkpt lat="40.8776500" lon="-3.3794970">
        <ele>769.0</ele>
        <time>2020-09-29T15:39:57Z</time>
      </trkpt>
      <trkpt lat="40.8775430" lon="-3.3795650">
        <ele>769.0</ele>
        <time>2020-09-29T15:39:58Z</time>
      </trkpt>
      <trkpt lat="40.8774900" lon="-3.3796000">
        <ele>769.0</ele>
        <time>2020-09-29T15:39:59Z</time>
      </trkpt>
      <trkpt lat="40.8774900" lon="-3.3796000">
        <ele>769.0</ele>
        <time>2020-09-29T15:40:00Z</time>
      </trkpt>
      <trkpt lat="40.8773830" lon="-3.3796650">
        <ele>769.0</ele>
        <time>2020-09-29T15:40:01Z</time>
      </trkpt>
      <trkpt lat="40.8773300" lon="-3.3796970">
        <ele>770.0</ele>
        <time>2020-09-29T15:40:02Z</time>
      </trkpt>
      <trkpt lat="40.8773300" lon="-3.3796970">
        <ele>770.0</ele>
        <time>2020-09-29T15:40:03Z</time>
      </trkpt>
      <trkpt lat="40.8772250" lon="-3.3797600">
        <ele>770.0</ele>
        <time>2020-09-29T15:40:04Z</time>
      </trkpt>
      <trkpt lat="40.8772250" lon="-3.3797600">
        <ele>770.0</ele>
        <time>2020-09-29T15:40:05Z</time>
      </trkpt>
      <trkpt lat="40.8771200" lon="-3.3798270">
        <ele>770.0</ele>
        <time>2020-09-29T15:40:06Z</time>
      </trkpt>
      <trkpt lat="40.8771200" lon="-3.3798270">
        <ele>770.0</ele>
        <time>2020-09-29T15:40:07Z</time>
      </trkpt>
      <trkpt lat="40.8770150" lon="-3.3798930">
        <ele>770.0</ele>
        <time>2020-09-29T15:40:08Z</time>
      </trkpt>
      <trkpt lat="40.8770150" lon="-3.3798930">
        <ele>770.0</ele>
        <time>2020-09-29T15:40:09Z</time>
      </trkpt>
      <trkpt lat="40.8769130" lon="-3.3799620">
        <ele>770.0</ele>
        <time>2020-09-29T15:40:10Z</time>
      </trkpt>
      <trkpt lat="40.8768620" lon="-3.3799950">
        <ele>770.0</ele>
        <time>2020-09-29T15:40:11Z</time>
      </trkpt>
      <trkpt lat="40.8768620" lon="-3.3799950">
        <ele>770.0</ele>
        <time>2020-09-29T15:40:12Z</time>
      </trkpt>
      <trkpt lat="40.8767570" lon="-3.3800620">
        <ele>770.0</ele>
        <time>2020-09-29T15:40:13Z</time>
      </trkpt>
      <trkpt lat="40.8767050" lon="-3.3800950">
        <ele>770.0</ele>
        <time>2020-09-29T15:40:14Z</time>
      </trkpt>
      <trkpt lat="40.8767050" lon="-3.3800950">
        <ele>770.0</ele>
        <time>2020-09-29T15:40:15Z</time>
      </trkpt>
      <trkpt lat="40.8766030" lon="-3.3801630">
        <ele>770.0</ele>
        <time>2020-09-29T15:40:16Z</time>
      </trkpt>
      <trkpt lat="40.8765550" lon="-3.3802050">
        <ele>770.0</ele>
        <time>2020-09-29T15:40:17Z</time>
      </trkpt>
      <trkpt lat="40.8765550" lon="-3.3802050">
        <ele>770.0</ele>
        <time>2020-09-29T15:40:18Z</time>
      </trkpt>
      <trkpt lat="40.8764670" lon="-3.3802980">
        <ele>770.0</ele>
        <time>2020-09-29T15:40:19Z</time>
      </trkpt>
      <trkpt lat="40.8764230" lon="-3.3803500">
        <ele>770.0</ele>
        <time>2020-09-29T15:40:20Z</time>
      </trkpt>
      <trkpt lat="40.8764230" lon="-3.3803500">
        <ele>770.0</ele>
        <time>2020-09-29T15:40:21Z</time>
      </trkpt>
      <trkpt lat="40.8763450" lon="-3.3804620">
        <ele>770.0</ele>
        <time>2020-09-29T15:40:22Z</time>
      </trkpt>
      <trkpt lat="40.8763450" lon="-3.3804620">
        <ele>770.0</ele>
        <time>2020-09-29T15:40:23Z</time>
      </trkpt>
      <trkpt lat="40.8762700" lon="-3.3805750">
        <ele>770.0</ele>
        <time>2020-09-29T15:40:24Z</time>
      </trkpt>
      <trkpt lat="40.8762700" lon="-3.3805750">
        <ele>770.0</ele>
        <time>2020-09-29T15:40:25Z</time>
      </trkpt>
      <trkpt lat="40.8761920" lon="-3.3806880">
        <ele>770.0</ele>
        <time>2020-09-29T15:40:26Z</time>
      </trkpt>
      <trkpt lat="40.8761920" lon="-3.3806880">
        <ele>770.0</ele>
        <time>2020-09-29T15:40:27Z</time>
      </trkpt>
      <trkpt lat="40.8761130" lon="-3.3807980">
        <ele>770.0</ele>
        <time>2020-09-29T15:40:28Z</time>
      </trkpt>
      <trkpt lat="40.8760750" lon="-3.3808530">
        <ele>770.0</ele>
        <time>2020-09-29T15:40:29Z</time>
      </trkpt>
      <trkpt lat="40.8760350" lon="-3.3809080">
        <ele>770.0</ele>
        <time>2020-09-29T15:40:30Z</time>
      </trkpt>
      <trkpt lat="40.8760350" lon="-3.3809080">
        <ele>770.0</ele>
        <time>2020-09-29T15:40:31Z</time>
      </trkpt>
      <trkpt lat="40.8759580" lon="-3.3810220">
        <ele>770.0</ele>
        <time>2020-09-29T15:40:32Z</time>
      </trkpt>
      <trkpt lat="40.8759220" lon="-3.3810800">
        <ele>770.0</ele>
        <time>2020-09-29T15:40:33Z</time>
      </trkpt>
      <trkpt lat="40.8759220" lon="-3.3810800">
        <ele>771.0</ele>
        <time>2020-09-29T15:40:34Z</time>
      </trkpt>
      <trkpt lat="40.8758430" lon="-3.3811930">
        <ele>771.0</ele>
        <time>2020-09-29T15:40:35Z</time>
      </trkpt>
      <trkpt lat="40.8758430" lon="-3.3811930">
        <ele>771.0</ele>
        <time>2020-09-29T15:40:36Z</time>
      </trkpt>
      <trkpt lat="40.8757680" lon="-3.3813070">
        <ele>771.0</ele>
        <time>2020-09-29T15:40:37Z</time>
      </trkpt>
      <trkpt lat="40.8757680" lon="-3.3813070">
        <ele>771.0</ele>
        <time>2020-09-29T15:40:38Z</time>
      </trkpt>
      <trkpt lat="40.8756900" lon="-3.3814200">
        <ele>771.0</ele>
        <time>2020-09-29T15:40:39Z</time>
      </trkpt>
      <trkpt lat="40.8756520" lon="-3.3814780">
        <ele>771.0</ele>
        <time>2020-09-29T15:40:40Z</time>
      </trkpt>
      <trkpt lat="40.8756520" lon="-3.3814780">
        <ele>771.0</ele>
        <time>2020-09-29T15:40:41Z</time>
      </trkpt>
      <trkpt lat="40.8755750" lon="-3.3815970">
        <ele>771.0</ele>
        <time>2020-09-29T15:40:42Z</time>
      </trkpt>
      <trkpt lat="40.8755750" lon="-3.3815970">
        <ele>771.0</ele>
        <time>2020-09-29T15:40:43Z</time>
      </trkpt>
      <trkpt lat="40.8755000" lon="-3.3817180">
        <ele>771.0</ele>
        <time>2020-09-29T15:40:44Z</time>
      </trkpt>
      <trkpt lat="40.8755000" lon="-3.3817180">
        <ele>771.0</ele>
        <time>2020-09-29T15:40:45Z</time>
      </trkpt>
      <trkpt lat="40.8754280" lon="-3.3818430">
        <ele>771.0</ele>
        <time>2020-09-29T15:40:46Z</time>
      </trkpt>
      <trkpt lat="40.8754280" lon="-3.3818430">
        <ele>771.0</ele>
        <time>2020-09-29T15:40:47Z</time>
      </trkpt>
      <trkpt lat="40.8753600" lon="-3.3819780">
        <ele>771.0</ele>
        <time>2020-09-29T15:40:48Z</time>
      </trkpt>
      <trkpt lat="40.8753600" lon="-3.3819780">
        <ele>771.0</ele>
        <time>2020-09-29T15:40:49Z</time>
      </trkpt>
      <trkpt lat="40.8752920" lon="-3.3821130">
        <ele>771.0</ele>
        <time>2020-09-29T15:40:50Z</time>
      </trkpt>
      <trkpt lat="40.8752920" lon="-3.3821130">
        <ele>771.0</ele>
        <time>2020-09-29T15:40:51Z</time>
      </trkpt>
      <trkpt lat="40.8752230" lon="-3.3822530">
        <ele>771.0</ele>
        <time>2020-09-29T15:40:52Z</time>
      </trkpt>
      <trkpt lat="40.8751900" lon="-3.3823220">
        <ele>771.0</ele>
        <time>2020-09-29T15:40:53Z</time>
      </trkpt>
      <trkpt lat="40.8751570" lon="-3.3823920">
        <ele>771.0</ele>
        <time>2020-09-29T15:40:54Z</time>
      </trkpt>
      <trkpt lat="40.8751570" lon="-3.3823920">
        <ele>771.0</ele>
        <time>2020-09-29T15:40:55Z</time>
      </trkpt>
      <trkpt lat="40.8750920" lon="-3.3825320">
        <ele>771.0</ele>
        <time>2020-09-29T15:40:56Z</time>
      </trkpt>
      <trkpt lat="40.8750920" lon="-3.3825320">
        <ele>771.0</ele>
        <time>2020-09-29T15:40:57Z</time>
      </trkpt>
      <trkpt lat="40.8750270" lon="-3.3826730">
        <ele>771.0</ele>
        <time>2020-09-29T15:40:58Z</time>
      </trkpt>
      <trkpt lat="40.8749920" lon="-3.3827420">
        <ele>771.0</ele>
        <time>2020-09-29T15:40:59Z</time>
      </trkpt>
      <trkpt lat="40.8749580" lon="-3.3828100">
        <ele>771.0</ele>
        <time>2020-09-29T15:41:00Z</time>
      </trkpt>
      <trkpt lat="40.8749580" lon="-3.3828100">
        <ele>771.0</ele>
        <time>2020-09-29T15:41:01Z</time>
      </trkpt>
      <trkpt lat="40.8748920" lon="-3.3829520">
        <ele>771.0</ele>
        <time>2020-09-29T15:41:02Z</time>
      </trkpt>
      <trkpt lat="40.8748920" lon="-3.3829520">
        <ele>770.0</ele>
        <time>2020-09-29T15:41:03Z</time>
      </trkpt>
      <trkpt lat="40.8748230" lon="-3.3830930">
        <ele>770.0</ele>
        <time>2020-09-29T15:41:04Z</time>
      </trkpt>
      <trkpt lat="40.8748230" lon="-3.3830930">
        <ele>770.0</ele>
        <time>2020-09-29T15:41:05Z</time>
      </trkpt>
      <trkpt lat="40.8747550" lon="-3.3832380">
        <ele>770.0</ele>
        <time>2020-09-29T15:41:06Z</time>
      </trkpt>
      <trkpt lat="40.8747220" lon="-3.3833100">
        <ele>770.0</ele>
        <time>2020-09-29T15:41:07Z</time>
      </trkpt>
      <trkpt lat="40.8747220" lon="-3.3833100">
        <ele>770.0</ele>
        <time>2020-09-29T15:41:08Z</time>
      </trkpt>
      <trkpt lat="40.8746520" lon="-3.3834520">
        <ele>770.0</ele>
        <time>2020-09-29T15:41:09Z</time>
      </trkpt>
      <trkpt lat="40.8746520" lon="-3.3834520">
        <ele>770.0</ele>
        <time>2020-09-29T15:41:10Z</time>
      </trkpt>
      <trkpt lat="40.8745830" lon="-3.3835950">
        <ele>770.0</ele>
        <time>2020-09-29T15:41:11Z</time>
      </trkpt>
      <trkpt lat="40.8745500" lon="-3.3836670">
        <ele>770.0</ele>
        <time>2020-09-29T15:41:12Z</time>
      </trkpt>
      <trkpt lat="40.8745500" lon="-3.3836670">
        <ele>770.0</ele>
        <time>2020-09-29T15:41:13Z</time>
      </trkpt>
      <trkpt lat="40.8744780" lon="-3.3838100">
        <ele>770.0</ele>
        <time>2020-09-29T15:41:14Z</time>
      </trkpt>
      <trkpt lat="40.8744780" lon="-3.3838100">
        <ele>770.0</ele>
        <time>2020-09-29T15:41:15Z</time>
      </trkpt>
      <trkpt lat="40.8744070" lon="-3.3839580">
        <ele>770.0</ele>
        <time>2020-09-29T15:41:16Z</time>
      </trkpt>
      <trkpt lat="40.8744070" lon="-3.3839580">
        <ele>770.0</ele>
        <time>2020-09-29T15:41:17Z</time>
      </trkpt>
      <trkpt lat="40.8743320" lon="-3.3841100">
        <ele>770.0</ele>
        <time>2020-09-29T15:41:18Z</time>
      </trkpt>
      <trkpt lat="40.8743320" lon="-3.3841100">
        <ele>770.0</ele>
        <time>2020-09-29T15:41:19Z</time>
      </trkpt>
      <trkpt lat="40.8742520" lon="-3.3842680">
        <ele>770.0</ele>
        <time>2020-09-29T15:41:20Z</time>
      </trkpt>
      <trkpt lat="40.8742520" lon="-3.3842680">
        <ele>770.0</ele>
        <time>2020-09-29T15:41:21Z</time>
      </trkpt>
      <trkpt lat="40.8741730" lon="-3.3844280">
        <ele>770.0</ele>
        <time>2020-09-29T15:41:22Z</time>
      </trkpt>
      <trkpt lat="40.8741350" lon="-3.3845100">
        <ele>769.0</ele>
        <time>2020-09-29T15:41:23Z</time>
      </trkpt>
      <trkpt lat="40.8741350" lon="-3.3845100">
        <ele>769.0</ele>
        <time>2020-09-29T15:41:24Z</time>
      </trkpt>
      <trkpt lat="40.8740570" lon="-3.3846750">
        <ele>769.0</ele>
        <time>2020-09-29T15:41:25Z</time>
      </trkpt>
      <trkpt lat="40.8740180" lon="-3.3847570">
        <ele>769.0</ele>
        <time>2020-09-29T15:41:26Z</time>
      </trkpt>
      <trkpt lat="40.8740180" lon="-3.3847570">
        <ele>769.0</ele>
        <time>2020-09-29T15:41:27Z</time>
      </trkpt>
      <trkpt lat="40.8739380" lon="-3.3849230">
        <ele>769.0</ele>
        <time>2020-09-29T15:41:28Z</time>
      </trkpt>
      <trkpt lat="40.8739380" lon="-3.3849230">
        <ele>769.0</ele>
        <time>2020-09-29T15:41:29Z</time>
      </trkpt>
      <trkpt lat="40.8738570" lon="-3.3850920">
        <ele>769.0</ele>
        <time>2020-09-29T15:41:30Z</time>
      </trkpt>
      <trkpt lat="40.8738150" lon="-3.3851750">
        <ele>769.0</ele>
        <time>2020-09-29T15:41:31Z</time>
      </trkpt>
      <trkpt lat="40.8737730" lon="-3.3852580">
        <ele>769.0</ele>
        <time>2020-09-29T15:41:32Z</time>
      </trkpt>
      <trkpt lat="40.8737730" lon="-3.3852580">
        <ele>769.0</ele>
        <time>2020-09-29T15:41:33Z</time>
      </trkpt>
      <trkpt lat="40.8736920" lon="-3.3854220">
        <ele>769.0</ele>
        <time>2020-09-29T15:41:34Z</time>
      </trkpt>
      <trkpt lat="40.8736920" lon="-3.3854220">
        <ele>769.0</ele>
        <time>2020-09-29T15:41:35Z</time>
      </trkpt>
      <trkpt lat="40.8736100" lon="-3.3855880">
        <ele>769.0</ele>
        <time>2020-09-29T15:41:36Z</time>
      </trkpt>
      <trkpt lat="40.8736100" lon="-3.3855880">
        <ele>769.0</ele>
        <time>2020-09-29T15:41:37Z</time>
      </trkpt>
      <trkpt lat="40.8735300" lon="-3.3857580">
        <ele>769.0</ele>
        <time>2020-09-29T15:41:38Z</time>
      </trkpt>
      <trkpt lat="40.8734900" lon="-3.3858420">
        <ele>769.0</ele>
        <time>2020-09-29T15:41:39Z</time>
      </trkpt>
      <trkpt lat="40.8734900" lon="-3.3858420">
        <ele>768.0</ele>
        <time>2020-09-29T15:41:40Z</time>
      </trkpt>
      <trkpt lat="40.8734080" lon="-3.3860070">
        <ele>768.0</ele>
        <time>2020-09-29T15:41:41Z</time>
      </trkpt>
      <trkpt lat="40.8734080" lon="-3.3860070">
        <ele>768.0</ele>
        <time>2020-09-29T15:41:42Z</time>
      </trkpt>
      <trkpt lat="40.8733270" lon="-3.3861630">
        <ele>768.0</ele>
        <time>2020-09-29T15:41:43Z</time>
      </trkpt>
      <trkpt lat="40.8732870" lon="-3.3862400">
        <ele>768.0</ele>
        <time>2020-09-29T15:41:44Z</time>
      </trkpt>
      <trkpt lat="40.8732870" lon="-3.3862400">
        <ele>768.0</ele>
        <time>2020-09-29T15:41:45Z</time>
      </trkpt>
      <trkpt lat="40.8732170" lon="-3.3863920">
        <ele>768.0</ele>
        <time>2020-09-29T15:41:46Z</time>
      </trkpt>
      <trkpt lat="40.8732170" lon="-3.3863920">
        <ele>768.0</ele>
        <time>2020-09-29T15:41:47Z</time>
      </trkpt>
      <trkpt lat="40.8731500" lon="-3.3865450">
        <ele>768.0</ele>
        <time>2020-09-29T15:41:48Z</time>
      </trkpt>
      <trkpt lat="40.8731500" lon="-3.3865450">
        <ele>768.0</ele>
        <time>2020-09-29T15:41:49Z</time>
      </trkpt>
      <trkpt lat="40.8730730" lon="-3.3866920">
        <ele>769.0</ele>
        <time>2020-09-29T15:41:50Z</time>
      </trkpt>
      <trkpt lat="40.8730730" lon="-3.3866920">
        <ele>769.0</ele>
        <time>2020-09-29T15:41:51Z</time>
      </trkpt>
      <trkpt lat="40.8730000" lon="-3.3868420">
        <ele>769.0</ele>
        <time>2020-09-29T15:41:52Z</time>
      </trkpt>
      <trkpt lat="40.8729620" lon="-3.3869150">
        <ele>769.0</ele>
        <time>2020-09-29T15:41:53Z</time>
      </trkpt>
      <trkpt lat="40.8729620" lon="-3.3869150">
        <ele>769.0</ele>
        <time>2020-09-29T15:41:54Z</time>
      </trkpt>
      <trkpt lat="40.8728950" lon="-3.3870720">
        <ele>769.0</ele>
        <time>2020-09-29T15:41:55Z</time>
      </trkpt>
      <trkpt lat="40.8728700" lon="-3.3871520">
        <ele>769.0</ele>
        <time>2020-09-29T15:41:56Z</time>
      </trkpt>
      <trkpt lat="40.8728700" lon="-3.3871520">
        <ele>769.0</ele>
        <time>2020-09-29T15:41:57Z</time>
      </trkpt>
      <trkpt lat="40.8728320" lon="-3.3873130">
        <ele>769.0</ele>
        <time>2020-09-29T15:41:58Z</time>
      </trkpt>
      <trkpt lat="40.8728320" lon="-3.3873130">
        <ele>769.0</ele>
        <time>2020-09-29T15:41:59Z</time>
      </trkpt>
      <trkpt lat="40.8728030" lon="-3.3874870">
        <ele>769.0</ele>
        <time>2020-09-29T15:42:00Z</time>
      </trkpt>
      <trkpt lat="40.8728030" lon="-3.3874870">
        <ele>769.0</ele>
        <time>2020-09-29T15:42:01Z</time>
      </trkpt>
      <trkpt lat="40.8727780" lon="-3.3876680">
        <ele>769.0</ele>
        <time>2020-09-29T15:42:02Z</time>
      </trkpt>
      <trkpt lat="40.8727780" lon="-3.3876680">
        <ele>769.0</ele>
        <time>2020-09-29T15:42:03Z</time>
      </trkpt>
      <trkpt lat="40.8727570" lon="-3.3878470">
        <ele>769.0</ele>
        <time>2020-09-29T15:42:04Z</time>
      </trkpt>
      <trkpt lat="40.8727570" lon="-3.3878470">
        <ele>769.0</ele>
        <time>2020-09-29T15:42:05Z</time>
      </trkpt>
      <trkpt lat="40.8727320" lon="-3.3880280">
        <ele>769.0</ele>
        <time>2020-09-29T15:42:06Z</time>
      </trkpt>
      <trkpt lat="40.8727320" lon="-3.3880280">
        <ele>769.0</ele>
        <time>2020-09-29T15:42:07Z</time>
      </trkpt>
      <trkpt lat="40.8727100" lon="-3.3882080">
        <ele>769.0</ele>
        <time>2020-09-29T15:42:08Z</time>
      </trkpt>
      <trkpt lat="40.8727100" lon="-3.3882080">
        <ele>769.0</ele>
        <time>2020-09-29T15:42:09Z</time>
      </trkpt>
      <trkpt lat="40.8726870" lon="-3.3883880">
        <ele>769.0</ele>
        <time>2020-09-29T15:42:10Z</time>
      </trkpt>
      <trkpt lat="40.8726700" lon="-3.3884770">
        <ele>769.0</ele>
        <time>2020-09-29T15:42:11Z</time>
      </trkpt>
      <trkpt lat="40.8726700" lon="-3.3884770">
        <ele>769.0</ele>
        <time>2020-09-29T15:42:12Z</time>
      </trkpt>
      <trkpt lat="40.8726180" lon="-3.3886380">
        <ele>769.0</ele>
        <time>2020-09-29T15:42:13Z</time>
      </trkpt>
      <trkpt lat="40.8725830" lon="-3.3887170">
        <ele>769.0</ele>
        <time>2020-09-29T15:42:14Z</time>
      </trkpt>
      <trkpt lat="40.8725830" lon="-3.3887170">
        <ele>769.0</ele>
        <time>2020-09-29T15:42:15Z</time>
      </trkpt>
      <trkpt lat="40.8724900" lon="-3.3888530">
        <ele>769.0</ele>
        <time>2020-09-29T15:42:16Z</time>
      </trkpt>
      <trkpt lat="40.8724900" lon="-3.3888530">
        <ele>769.0</ele>
        <time>2020-09-29T15:42:17Z</time>
      </trkpt>
      <trkpt lat="40.8723820" lon="-3.3889670">
        <ele>769.0</ele>
        <time>2020-09-29T15:42:18Z</time>
      </trkpt>
      <trkpt lat="40.8723820" lon="-3.3889670">
        <ele>769.0</ele>
        <time>2020-09-29T15:42:19Z</time>
      </trkpt>
      <trkpt lat="40.8722730" lon="-3.3890850">
        <ele>769.0</ele>
        <time>2020-09-29T15:42:20Z</time>
      </trkpt>
      <trkpt lat="40.8722730" lon="-3.3890850">
        <ele>769.0</ele>
        <time>2020-09-29T15:42:21Z</time>
      </trkpt>
      <trkpt lat="40.8721680" lon="-3.3892030">
        <ele>769.0</ele>
        <time>2020-09-29T15:42:22Z</time>
      </trkpt>
      <trkpt lat="40.8721680" lon="-3.3892030">
        <ele>769.0</ele>
        <time>2020-09-29T15:42:23Z</time>
      </trkpt>
      <trkpt lat="40.8720650" lon="-3.3893270">
        <ele>769.0</ele>
        <time>2020-09-29T15:42:24Z</time>
      </trkpt>
      <trkpt lat="40.8720650" lon="-3.3893270">
        <ele>769.0</ele>
        <time>2020-09-29T15:42:25Z</time>
      </trkpt>
      <trkpt lat="40.8719650" lon="-3.3894500">
        <ele>769.0</ele>
        <time>2020-09-29T15:42:26Z</time>
      </trkpt>
      <trkpt lat="40.8719650" lon="-3.3894500">
        <ele>769.0</ele>
        <time>2020-09-29T15:42:27Z</time>
      </trkpt>
      <trkpt lat="40.8718630" lon="-3.3895700">
        <ele>769.0</ele>
        <time>2020-09-29T15:42:28Z</time>
      </trkpt>
      <trkpt lat="40.8718630" lon="-3.3895700">
        <ele>769.0</ele>
        <time>2020-09-29T15:42:29Z</time>
      </trkpt>
      <trkpt lat="40.8717720" lon="-3.3897050">
        <ele>769.0</ele>
        <time>2020-09-29T15:42:30Z</time>
      </trkpt>
      <trkpt lat="40.8717720" lon="-3.3897050">
        <ele>769.0</ele>
        <time>2020-09-29T15:42:31Z</time>
      </trkpt>
      <trkpt lat="40.8717000" lon="-3.3898620">
        <ele>769.0</ele>
        <time>2020-09-29T15:42:32Z</time>
      </trkpt>
      <trkpt lat="40.8717000" lon="-3.3898620">
        <ele>769.0</ele>
        <time>2020-09-29T15:42:33Z</time>
      </trkpt>
      <trkpt lat="40.8716420" lon="-3.3900300">
        <ele>768.0</ele>
        <time>2020-09-29T15:42:34Z</time>
      </trkpt>
      <trkpt lat="40.8716170" lon="-3.3901180">
        <ele>768.0</ele>
        <time>2020-09-29T15:42:35Z</time>
      </trkpt>
      <trkpt lat="40.8716170" lon="-3.3901180">
        <ele>768.0</ele>
        <time>2020-09-29T15:42:36Z</time>
      </trkpt>
      <trkpt lat="40.8715620" lon="-3.3902950">
        <ele>768.0</ele>
        <time>2020-09-29T15:42:37Z</time>
      </trkpt>
      <trkpt lat="40.8715330" lon="-3.3903820">
        <ele>768.0</ele>
        <time>2020-09-29T15:42:38Z</time>
      </trkpt>
      <trkpt lat="40.8715330" lon="-3.3903820">
        <ele>768.0</ele>
        <time>2020-09-29T15:42:39Z</time>
      </trkpt>
      <trkpt lat="40.8714770" lon="-3.3905500">
        <ele>768.0</ele>
        <time>2020-09-29T15:42:40Z</time>
      </trkpt>
      <trkpt lat="40.8714520" lon="-3.3906380">
        <ele>768.0</ele>
        <time>2020-09-29T15:42:41Z</time>
      </trkpt>
      <trkpt lat="40.8714520" lon="-3.3906380">
        <ele>768.0</ele>
        <time>2020-09-29T15:42:42Z</time>
      </trkpt>
      <trkpt lat="40.8714000" lon="-3.3908100">
        <ele>768.0</ele>
        <time>2020-09-29T15:42:43Z</time>
      </trkpt>
      <trkpt lat="40.8714000" lon="-3.3908100">
        <ele>768.0</ele>
        <time>2020-09-29T15:42:44Z</time>
      </trkpt>
      <trkpt lat="40.8713500" lon="-3.3909820">
        <ele>768.0</ele>
        <time>2020-09-29T15:42:45Z</time>
      </trkpt>
      <trkpt lat="40.8713500" lon="-3.3909820">
        <ele>768.0</ele>
        <time>2020-09-29T15:42:46Z</time>
      </trkpt>
      <trkpt lat="40.8713000" lon="-3.3911480">
        <ele>768.0</ele>
        <time>2020-09-29T15:42:47Z</time>
      </trkpt>
      <trkpt lat="40.8713000" lon="-3.3911480">
        <ele>768.0</ele>
        <time>2020-09-29T15:42:48Z</time>
      </trkpt>
      <trkpt lat="40.8712600" lon="-3.3913150">
        <ele>768.0</ele>
        <time>2020-09-29T15:42:49Z</time>
      </trkpt>
      <trkpt lat="40.8712330" lon="-3.3913900">
        <ele>768.0</ele>
        <time>2020-09-29T15:42:50Z</time>
      </trkpt>
      <trkpt lat="40.8712330" lon="-3.3913900">
        <ele>768.0</ele>
        <time>2020-09-29T15:42:51Z</time>
      </trkpt>
      <trkpt lat="40.8711820" lon="-3.3915370">
        <ele>768.0</ele>
        <time>2020-09-29T15:42:52Z</time>
      </trkpt>
      <trkpt lat="40.8711820" lon="-3.3915370">
        <ele>768.0</ele>
        <time>2020-09-29T15:42:53Z</time>
      </trkpt>
      <trkpt lat="40.8711350" lon="-3.3916820">
        <ele>768.0</ele>
        <time>2020-09-29T15:42:54Z</time>
      </trkpt>
      <trkpt lat="40.8711100" lon="-3.3917500">
        <ele>768.0</ele>
        <time>2020-09-29T15:42:55Z</time>
      </trkpt>
      <trkpt lat="40.8710850" lon="-3.3918220">
        <ele>768.0</ele>
        <time>2020-09-29T15:42:56Z</time>
      </trkpt>
      <trkpt lat="40.8710850" lon="-3.3918220">
        <ele>768.0</ele>
        <time>2020-09-29T15:42:57Z</time>
      </trkpt>
      <trkpt lat="40.8710350" lon="-3.3919720">
        <ele>768.0</ele>
        <time>2020-09-29T15:42:58Z</time>
      </trkpt>
      <trkpt lat="40.8710100" lon="-3.3920480">
        <ele>768.0</ele>
        <time>2020-09-29T15:42:59Z</time>
      </trkpt>
      <trkpt lat="40.8710100" lon="-3.3920480">
        <ele>768.0</ele>
        <time>2020-09-29T15:43:00Z</time>
      </trkpt>
      <trkpt lat="40.8709620" lon="-3.3922020">
        <ele>768.0</ele>
        <time>2020-09-29T15:43:01Z</time>
      </trkpt>
      <trkpt lat="40.8709370" lon="-3.3922770">
        <ele>768.0</ele>
        <time>2020-09-29T15:43:02Z</time>
      </trkpt>
      <trkpt lat="40.8709370" lon="-3.3922770">
        <ele>768.0</ele>
        <time>2020-09-29T15:43:03Z</time>
      </trkpt>
      <trkpt lat="40.8708900" lon="-3.3924220">
        <ele>768.0</ele>
        <time>2020-09-29T15:43:04Z</time>
      </trkpt>
      <trkpt lat="40.8708900" lon="-3.3924220">
        <ele>768.0</ele>
        <time>2020-09-29T15:43:05Z</time>
      </trkpt>
      <trkpt lat="40.8708450" lon="-3.3925620">
        <ele>768.0</ele>
        <time>2020-09-29T15:43:06Z</time>
      </trkpt>
      <trkpt lat="40.8708450" lon="-3.3925620">
        <ele>768.0</ele>
        <time>2020-09-29T15:43:07Z</time>
      </trkpt>
      <trkpt lat="40.8707980" lon="-3.3927050">
        <ele>768.0</ele>
        <time>2020-09-29T15:43:08Z</time>
      </trkpt>
      <trkpt lat="40.8707980" lon="-3.3927050">
        <ele>768.0</ele>
        <time>2020-09-29T15:43:09Z</time>
      </trkpt>
      <trkpt lat="40.8707500" lon="-3.3928450">
        <ele>768.0</ele>
        <time>2020-09-29T15:43:10Z</time>
      </trkpt>
      <trkpt lat="40.8707500" lon="-3.3928450">
        <ele>768.0</ele>
        <time>2020-09-29T15:43:11Z</time>
      </trkpt>
      <trkpt lat="40.8706980" lon="-3.3929830">
        <ele>768.0</ele>
        <time>2020-09-29T15:43:12Z</time>
      </trkpt>
      <trkpt lat="40.8706770" lon="-3.3930530">
        <ele>769.0</ele>
        <time>2020-09-29T15:43:13Z</time>
      </trkpt>
      <trkpt lat="40.8706570" lon="-3.3931220">
        <ele>769.0</ele>
        <time>2020-09-29T15:43:14Z</time>
      </trkpt>
      <trkpt lat="40.8706570" lon="-3.3931220">
        <ele>769.0</ele>
        <time>2020-09-29T15:43:15Z</time>
      </trkpt>
      <trkpt lat="40.8706150" lon="-3.3932530">
        <ele>769.0</ele>
        <time>2020-09-29T15:43:16Z</time>
      </trkpt>
      <trkpt lat="40.8705920" lon="-3.3933170">
        <ele>769.0</ele>
        <time>2020-09-29T15:43:17Z</time>
      </trkpt>
      <trkpt lat="40.8705920" lon="-3.3933170">
        <ele>769.0</ele>
        <time>2020-09-29T15:43:18Z</time>
      </trkpt>
      <trkpt lat="40.8705470" lon="-3.3934350">
        <ele>769.0</ele>
        <time>2020-09-29T15:43:19Z</time>
      </trkpt>
      <trkpt lat="40.8705270" lon="-3.3934950">
        <ele>769.0</ele>
        <time>2020-09-29T15:43:20Z</time>
      </trkpt>
      <trkpt lat="40.8705270" lon="-3.3934950">
        <ele>769.0</ele>
        <time>2020-09-29T15:43:21Z</time>
      </trkpt>
      <trkpt lat="40.8704850" lon="-3.3936180">
        <ele>769.0</ele>
        <time>2020-09-29T15:43:22Z</time>
      </trkpt>
      <trkpt lat="40.8704850" lon="-3.3936180">
        <ele>769.0</ele>
        <time>2020-09-29T15:43:23Z</time>
      </trkpt>
      <trkpt lat="40.8704450" lon="-3.3937370">
        <ele>769.0</ele>
        <time>2020-09-29T15:43:24Z</time>
      </trkpt>
      <trkpt lat="40.8704250" lon="-3.3937950">
        <ele>769.0</ele>
        <time>2020-09-29T15:43:25Z</time>
      </trkpt>
      <trkpt lat="40.8704250" lon="-3.3937950">
        <ele>770.0</ele>
        <time>2020-09-29T15:43:26Z</time>
      </trkpt>
      <trkpt lat="40.8703850" lon="-3.3939150">
        <ele>770.0</ele>
        <time>2020-09-29T15:43:27Z</time>
      </trkpt>
      <trkpt lat="40.8703850" lon="-3.3939150">
        <ele>770.0</ele>
        <time>2020-09-29T15:43:28Z</time>
      </trkpt>
      <trkpt lat="40.8703500" lon="-3.3940270">
        <ele>770.0</ele>
        <time>2020-09-29T15:43:29Z</time>
      </trkpt>
      <trkpt lat="40.8703500" lon="-3.3940270">
        <ele>770.0</ele>
        <time>2020-09-29T15:43:30Z</time>
      </trkpt>
      <trkpt lat="40.8703200" lon="-3.3941400">
        <ele>770.0</ele>
        <time>2020-09-29T15:43:31Z</time>
      </trkpt>
      <trkpt lat="40.8703080" lon="-3.3941950">
        <ele>771.0</ele>
        <time>2020-09-29T15:43:32Z</time>
      </trkpt>
      <trkpt lat="40.8703080" lon="-3.3941950">
        <ele>771.0</ele>
        <time>2020-09-29T15:43:33Z</time>
      </trkpt>
      <trkpt lat="40.8702850" lon="-3.3943050">
        <ele>771.0</ele>
        <time>2020-09-29T15:43:34Z</time>
      </trkpt>
      <trkpt lat="40.8702750" lon="-3.3943570">
        <ele>771.0</ele>
        <time>2020-09-29T15:43:35Z</time>
      </trkpt>
      <trkpt lat="40.8702750" lon="-3.3943570">
        <ele>771.0</ele>
        <time>2020-09-29T15:43:36Z</time>
      </trkpt>
      <trkpt lat="40.8702580" lon="-3.3944700">
        <ele>771.0</ele>
        <time>2020-09-29T15:43:37Z</time>
      </trkpt>
      <trkpt lat="40.8702520" lon="-3.3945280">
        <ele>772.0</ele>
        <time>2020-09-29T15:43:38Z</time>
      </trkpt>
      <trkpt lat="40.8702520" lon="-3.3945280">
        <ele>772.0</ele>
        <time>2020-09-29T15:43:39Z</time>
      </trkpt>
      <trkpt lat="40.8702420" lon="-3.3946430">
        <ele>772.0</ele>
        <time>2020-09-29T15:43:40Z</time>
      </trkpt>
      <trkpt lat="40.8702420" lon="-3.3946430">
        <ele>772.0</ele>
        <time>2020-09-29T15:43:41Z</time>
      </trkpt>
      <trkpt lat="40.8702330" lon="-3.3947570">
        <ele>772.0</ele>
        <time>2020-09-29T15:43:42Z</time>
      </trkpt>
      <trkpt lat="40.8702330" lon="-3.3947570">
        <ele>772.0</ele>
        <time>2020-09-29T15:43:43Z</time>
      </trkpt>
      <trkpt lat="40.8702250" lon="-3.3948720">
        <ele>772.0</ele>
        <time>2020-09-29T15:43:44Z</time>
      </trkpt>
      <trkpt lat="40.8702180" lon="-3.3949300">
        <ele>772.0</ele>
        <time>2020-09-29T15:43:45Z</time>
      </trkpt>
      <trkpt lat="40.8702180" lon="-3.3949300">
        <ele>773.0</ele>
        <time>2020-09-29T15:43:46Z</time>
      </trkpt>
      <trkpt lat="40.8702080" lon="-3.3950480">
        <ele>773.0</ele>
        <time>2020-09-29T15:43:47Z</time>
      </trkpt>
      <trkpt lat="40.8702080" lon="-3.3950480">
        <ele>773.0</ele>
        <time>2020-09-29T15:43:48Z</time>
      </trkpt>
      <trkpt lat="40.8701980" lon="-3.3951680">
        <ele>773.0</ele>
        <time>2020-09-29T15:43:49Z</time>
      </trkpt>
      <trkpt lat="40.8701980" lon="-3.3951680">
        <ele>773.0</ele>
        <time>2020-09-29T15:43:50Z</time>
      </trkpt>
      <trkpt lat="40.8701920" lon="-3.3952980">
        <ele>773.0</ele>
        <time>2020-09-29T15:43:51Z</time>
      </trkpt>
      <trkpt lat="40.8701920" lon="-3.3952980">
        <ele>773.0</ele>
        <time>2020-09-29T15:43:52Z</time>
      </trkpt>
      <trkpt lat="40.8701820" lon="-3.3954170">
        <ele>773.0</ele>
        <time>2020-09-29T15:43:53Z</time>
      </trkpt>
      <trkpt lat="40.8701780" lon="-3.3954770">
        <ele>774.0</ele>
        <time>2020-09-29T15:43:54Z</time>
      </trkpt>
      <trkpt lat="40.8701780" lon="-3.3954770">
        <ele>774.0</ele>
        <time>2020-09-29T15:43:55Z</time>
      </trkpt>
      <trkpt lat="40.8701680" lon="-3.3955950">
        <ele>774.0</ele>
        <time>2020-09-29T15:43:56Z</time>
      </trkpt>
      <trkpt lat="40.8701680" lon="-3.3955950">
        <ele>774.0</ele>
        <time>2020-09-29T15:43:57Z</time>
      </trkpt>
      <trkpt lat="40.8701630" lon="-3.3957080">
        <ele>774.0</ele>
        <time>2020-09-29T15:43:58Z</time>
      </trkpt>
      <trkpt lat="40.8701630" lon="-3.3957080">
        <ele>774.0</ele>
        <time>2020-09-29T15:43:59Z</time>
      </trkpt>
      <trkpt lat="40.8701550" lon="-3.3958200">
        <ele>774.0</ele>
        <time>2020-09-29T15:44:00Z</time>
      </trkpt>
      <trkpt lat="40.8701500" lon="-3.3958750">
        <ele>775.0</ele>
        <time>2020-09-29T15:44:01Z</time>
      </trkpt>
      <trkpt lat="40.8701500" lon="-3.3958750">
        <ele>775.0</ele>
        <time>2020-09-29T15:44:02Z</time>
      </trkpt>
      <trkpt lat="40.8701380" lon="-3.3959850">
        <ele>775.0</ele>
        <time>2020-09-29T15:44:03Z</time>
      </trkpt>
      <trkpt lat="40.8701380" lon="-3.3959850">
        <ele>775.0</ele>
        <time>2020-09-29T15:44:04Z</time>
      </trkpt>
      <trkpt lat="40.8701270" lon="-3.3960980">
        <ele>775.0</ele>
        <time>2020-09-29T15:44:05Z</time>
      </trkpt>
      <trkpt lat="40.8701220" lon="-3.3961570">
        <ele>775.0</ele>
        <time>2020-09-29T15:44:06Z</time>
      </trkpt>
      <trkpt lat="40.8701220" lon="-3.3961570">
        <ele>776.0</ele>
        <time>2020-09-29T15:44:07Z</time>
      </trkpt>
      <trkpt lat="40.8701120" lon="-3.3962750">
        <ele>776.0</ele>
        <time>2020-09-29T15:44:08Z</time>
      </trkpt>
      <trkpt lat="40.8701080" lon="-3.3963330">
        <ele>776.0</ele>
        <time>2020-09-29T15:44:09Z</time>
      </trkpt>
      <trkpt lat="40.8701080" lon="-3.3963330">
        <ele>776.0</ele>
        <time>2020-09-29T15:44:10Z</time>
      </trkpt>
      <trkpt lat="40.8700980" lon="-3.3964520">
        <ele>776.0</ele>
        <time>2020-09-29T15:44:11Z</time>
      </trkpt>
      <trkpt lat="40.8700980" lon="-3.3964520">
        <ele>776.0</ele>
        <time>2020-09-29T15:44:12Z</time>
      </trkpt>
      <trkpt lat="40.8700880" lon="-3.3965680">
        <ele>776.0</ele>
        <time>2020-09-29T15:44:13Z</time>
      </trkpt>
      <trkpt lat="40.8700830" lon="-3.3966250">
        <ele>776.0</ele>
        <time>2020-09-29T15:44:14Z</time>
      </trkpt>
      <trkpt lat="40.8700830" lon="-3.3966250">
        <ele>776.0</ele>
        <time>2020-09-29T15:44:15Z</time>
      </trkpt>
      <trkpt lat="40.8700720" lon="-3.3967370">
        <ele>776.0</ele>
        <time>2020-09-29T15:44:16Z</time>
      </trkpt>
      <trkpt lat="40.8700670" lon="-3.3967930">
        <ele>776.0</ele>
        <time>2020-09-29T15:44:17Z</time>
      </trkpt>
      <trkpt lat="40.8700670" lon="-3.3967930">
        <ele>777.0</ele>
        <time>2020-09-29T15:44:18Z</time>
      </trkpt>
      <trkpt lat="40.8700580" lon="-3.3969130">
        <ele>777.0</ele>
        <time>2020-09-29T15:44:19Z</time>
      </trkpt>
      <trkpt lat="40.8700530" lon="-3.3969720">
        <ele>777.0</ele>
        <time>2020-09-29T15:44:20Z</time>
      </trkpt>
      <trkpt lat="40.8700530" lon="-3.3969720">
        <ele>777.0</ele>
        <time>2020-09-29T15:44:21Z</time>
      </trkpt>
      <trkpt lat="40.8700430" lon="-3.3970980">
        <ele>777.0</ele>
        <time>2020-09-29T15:44:22Z</time>
      </trkpt>
      <trkpt lat="40.8700430" lon="-3.3970980">
        <ele>777.0</ele>
        <time>2020-09-29T15:44:23Z</time>
      </trkpt>
      <trkpt lat="40.8700320" lon="-3.3972230">
        <ele>778.0</ele>
        <time>2020-09-29T15:44:24Z</time>
      </trkpt>
      <trkpt lat="40.8700320" lon="-3.3972230">
        <ele>778.0</ele>
        <time>2020-09-29T15:44:25Z</time>
      </trkpt>
      <trkpt lat="40.8700200" lon="-3.3973380">
        <ele>778.0</ele>
        <time>2020-09-29T15:44:26Z</time>
      </trkpt>
      <trkpt lat="40.8700200" lon="-3.3973380">
        <ele>778.0</ele>
        <time>2020-09-29T15:44:27Z</time>
      </trkpt>
      <trkpt lat="40.8700100" lon="-3.3974520">
        <ele>778.0</ele>
        <time>2020-09-29T15:44:28Z</time>
      </trkpt>
      <trkpt lat="40.8700100" lon="-3.3974520">
        <ele>778.0</ele>
        <time>2020-09-29T15:44:29Z</time>
      </trkpt>
      <trkpt lat="40.8699970" lon="-3.3975650">
        <ele>779.0</ele>
        <time>2020-09-29T15:44:30Z</time>
      </trkpt>
      <trkpt lat="40.8699880" lon="-3.3976220">
        <ele>779.0</ele>
        <time>2020-09-29T15:44:31Z</time>
      </trkpt>
      <trkpt lat="40.8699820" lon="-3.3976800">
        <ele>779.0</ele>
        <time>2020-09-29T15:44:32Z</time>
      </trkpt>
      <trkpt lat="40.8699780" lon="-3.3977380">
        <ele>780.0</ele>
        <time>2020-09-29T15:44:33Z</time>
      </trkpt>
      <trkpt lat="40.8699780" lon="-3.3977380">
        <ele>780.0</ele>
        <time>2020-09-29T15:44:34Z</time>
      </trkpt>
      <trkpt lat="40.8699670" lon="-3.3978550">
        <ele>780.0</ele>
        <time>2020-09-29T15:44:35Z</time>
      </trkpt>
      <trkpt lat="40.8699670" lon="-3.3978550">
        <ele>780.0</ele>
        <time>2020-09-29T15:44:36Z</time>
      </trkpt>
      <trkpt lat="40.8699580" lon="-3.3979700">
        <ele>780.0</ele>
        <time>2020-09-29T15:44:37Z</time>
      </trkpt>
      <trkpt lat="40.8699570" lon="-3.3980270">
        <ele>780.0</ele>
        <time>2020-09-29T15:44:38Z</time>
      </trkpt>
      <trkpt lat="40.8699570" lon="-3.3980270">
        <ele>781.0</ele>
        <time>2020-09-29T15:44:39Z</time>
      </trkpt>
      <trkpt lat="40.8699470" lon="-3.3981420">
        <ele>781.0</ele>
        <time>2020-09-29T15:44:40Z</time>
      </trkpt>
      <trkpt lat="40.8699470" lon="-3.3981420">
        <ele>781.0</ele>
        <time>2020-09-29T15:44:41Z</time>
      </trkpt>
      <trkpt lat="40.8699380" lon="-3.3982570">
        <ele>781.0</ele>
        <time>2020-09-29T15:44:42Z</time>
      </trkpt>
      <trkpt lat="40.8699380" lon="-3.3982570">
        <ele>781.0</ele>
        <time>2020-09-29T15:44:43Z</time>
      </trkpt>
      <trkpt lat="40.8699330" lon="-3.3983720">
        <ele>781.0</ele>
        <time>2020-09-29T15:44:44Z</time>
      </trkpt>
      <trkpt lat="40.8699330" lon="-3.3983720">
        <ele>781.0</ele>
        <time>2020-09-29T15:44:45Z</time>
      </trkpt>
      <trkpt lat="40.8699220" lon="-3.3984820">
        <ele>781.0</ele>
        <time>2020-09-29T15:44:46Z</time>
      </trkpt>
      <trkpt lat="40.8699220" lon="-3.3984820">
        <ele>781.0</ele>
        <time>2020-09-29T15:44:47Z</time>
      </trkpt>
      <trkpt lat="40.8699120" lon="-3.3985920">
        <ele>781.0</ele>
        <time>2020-09-29T15:44:48Z</time>
      </trkpt>
      <trkpt lat="40.8699070" lon="-3.3986480">
        <ele>781.0</ele>
        <time>2020-09-29T15:44:49Z</time>
      </trkpt>
      <trkpt lat="40.8699020" lon="-3.3987050">
        <ele>781.0</ele>
        <time>2020-09-29T15:44:50Z</time>
      </trkpt>
      <trkpt lat="40.8699020" lon="-3.3987050">
        <ele>781.0</ele>
        <time>2020-09-29T15:44:51Z</time>
      </trkpt>
      <trkpt lat="40.8698880" lon="-3.3988100">
        <ele>782.0</ele>
        <time>2020-09-29T15:44:52Z</time>
      </trkpt>
      <trkpt lat="40.8698830" lon="-3.3988630">
        <ele>782.0</ele>
        <time>2020-09-29T15:44:53Z</time>
      </trkpt>
      <trkpt lat="40.8698780" lon="-3.3989200">
        <ele>782.0</ele>
        <time>2020-09-29T15:44:54Z</time>
      </trkpt>
      <trkpt lat="40.8698700" lon="-3.3989800">
        <ele>782.0</ele>
        <time>2020-09-29T15:44:55Z</time>
      </trkpt>
      <trkpt lat="40.8698700" lon="-3.3989800">
        <ele>782.0</ele>
        <time>2020-09-29T15:44:56Z</time>
      </trkpt>
      <trkpt lat="40.8698550" lon="-3.3991020">
        <ele>782.0</ele>
        <time>2020-09-29T15:44:57Z</time>
      </trkpt>
      <trkpt lat="40.8698470" lon="-3.3991620">
        <ele>782.0</ele>
        <time>2020-09-29T15:44:58Z</time>
      </trkpt>
      <trkpt lat="40.8698470" lon="-3.3991620">
        <ele>782.0</ele>
        <time>2020-09-29T15:44:59Z</time>
      </trkpt>
      <trkpt lat="40.8698280" lon="-3.3992830">
        <ele>783.0</ele>
        <time>2020-09-29T15:45:00Z</time>
      </trkpt>
      <trkpt lat="40.8698200" lon="-3.3993480">
        <ele>783.0</ele>
        <time>2020-09-29T15:45:01Z</time>
      </trkpt>
      <trkpt lat="40.8698130" lon="-3.3994130">
        <ele>783.0</ele>
        <time>2020-09-29T15:45:02Z</time>
      </trkpt>
      <trkpt lat="40.8698130" lon="-3.3994130">
        <ele>783.0</ele>
        <time>2020-09-29T15:45:03Z</time>
      </trkpt>
      <trkpt lat="40.8697950" lon="-3.3995430">
        <ele>783.0</ele>
        <time>2020-09-29T15:45:04Z</time>
      </trkpt>
      <trkpt lat="40.8697830" lon="-3.3996070">
        <ele>783.0</ele>
        <time>2020-09-29T15:45:05Z</time>
      </trkpt>
      <trkpt lat="40.8697830" lon="-3.3996070">
        <ele>783.0</ele>
        <time>2020-09-29T15:45:06Z</time>
      </trkpt>
      <trkpt lat="40.8697680" lon="-3.3997380">
        <ele>783.0</ele>
        <time>2020-09-29T15:45:07Z</time>
      </trkpt>
      <trkpt lat="40.8697620" lon="-3.3998080">
        <ele>783.0</ele>
        <time>2020-09-29T15:45:08Z</time>
      </trkpt>
      <trkpt lat="40.8697620" lon="-3.3998080">
        <ele>783.0</ele>
        <time>2020-09-29T15:45:09Z</time>
      </trkpt>
      <trkpt lat="40.8697370" lon="-3.3999550">
        <ele>783.0</ele>
        <time>2020-09-29T15:45:10Z</time>
      </trkpt>
      <trkpt lat="40.8697370" lon="-3.3999550">
        <ele>783.0</ele>
        <time>2020-09-29T15:45:11Z</time>
      </trkpt>
      <trkpt lat="40.8697100" lon="-3.4001050">
        <ele>783.0</ele>
        <time>2020-09-29T15:45:12Z</time>
      </trkpt>
      <trkpt lat="40.8696970" lon="-3.4001800">
        <ele>783.0</ele>
        <time>2020-09-29T15:45:13Z</time>
      </trkpt>
      <trkpt lat="40.8696820" lon="-3.4002600">
        <ele>783.0</ele>
        <time>2020-09-29T15:45:14Z</time>
      </trkpt>
      <trkpt lat="40.8696820" lon="-3.4002600">
        <ele>783.0</ele>
        <time>2020-09-29T15:45:15Z</time>
      </trkpt>
      <trkpt lat="40.8696400" lon="-3.4004220">
        <ele>783.0</ele>
        <time>2020-09-29T15:45:16Z</time>
      </trkpt>
      <trkpt lat="40.8696150" lon="-3.4005020">
        <ele>783.0</ele>
        <time>2020-09-29T15:45:17Z</time>
      </trkpt>
      <trkpt lat="40.8695900" lon="-3.4005800">
        <ele>783.0</ele>
        <time>2020-09-29T15:45:18Z</time>
      </trkpt>
      <trkpt lat="40.8695900" lon="-3.4005800">
        <ele>782.0</ele>
        <time>2020-09-29T15:45:19Z</time>
      </trkpt>
      <trkpt lat="40.8695350" lon="-3.4007370">
        <ele>782.0</ele>
        <time>2020-09-29T15:45:20Z</time>
      </trkpt>
      <trkpt lat="40.8695350" lon="-3.4007370">
        <ele>781.0</ele>
        <time>2020-09-29T15:45:21Z</time>
      </trkpt>
      <trkpt lat="40.8694720" lon="-3.4009030">
        <ele>781.0</ele>
        <time>2020-09-29T15:45:22Z</time>
      </trkpt>
      <trkpt lat="40.8694720" lon="-3.4009030">
        <ele>781.0</ele>
        <time>2020-09-29T15:45:23Z</time>
      </trkpt>
      <trkpt lat="40.8694070" lon="-3.4010820">
        <ele>781.0</ele>
        <time>2020-09-29T15:45:24Z</time>
      </trkpt>
      <trkpt lat="40.8693700" lon="-3.4011720">
        <ele>780.0</ele>
        <time>2020-09-29T15:45:25Z</time>
      </trkpt>
      <trkpt lat="40.8693700" lon="-3.4011720">
        <ele>780.0</ele>
        <time>2020-09-29T15:45:26Z</time>
      </trkpt>
      <trkpt lat="40.8692970" lon="-3.4013550">
        <ele>779.0</ele>
        <time>2020-09-29T15:45:27Z</time>
      </trkpt>
      <trkpt lat="40.8692970" lon="-3.4013550">
        <ele>779.0</ele>
        <time>2020-09-29T15:45:28Z</time>
      </trkpt>
      <trkpt lat="40.8692270" lon="-3.4015500">
        <ele>779.0</ele>
        <time>2020-09-29T15:45:29Z</time>
      </trkpt>
      <trkpt lat="40.8692270" lon="-3.4015500">
        <ele>779.0</ele>
        <time>2020-09-29T15:45:30Z</time>
      </trkpt>
      <trkpt lat="40.8691530" lon="-3.4017370">
        <ele>778.0</ele>
        <time>2020-09-29T15:45:31Z</time>
      </trkpt>
      <trkpt lat="40.8691180" lon="-3.4018250">
        <ele>778.0</ele>
        <time>2020-09-29T15:45:32Z</time>
      </trkpt>
      <trkpt lat="40.8691180" lon="-3.4018250">
        <ele>778.0</ele>
        <time>2020-09-29T15:45:33Z</time>
      </trkpt>
      <trkpt lat="40.8690470" lon="-3.4020020">
        <ele>778.0</ele>
        <time>2020-09-29T15:45:34Z</time>
      </trkpt>
      <trkpt lat="40.8690470" lon="-3.4020020">
        <ele>778.0</ele>
        <time>2020-09-29T15:45:35Z</time>
      </trkpt>
      <trkpt lat="40.8689780" lon="-3.4021700">
        <ele>778.0</ele>
        <time>2020-09-29T15:45:36Z</time>
      </trkpt>
      <trkpt lat="40.8689470" lon="-3.4022520">
        <ele>778.0</ele>
        <time>2020-09-29T15:45:37Z</time>
      </trkpt>
      <trkpt lat="40.8689470" lon="-3.4022520">
        <ele>778.0</ele>
        <time>2020-09-29T15:45:38Z</time>
      </trkpt>
      <trkpt lat="40.8688850" lon="-3.4024150">
        <ele>778.0</ele>
        <time>2020-09-29T15:45:39Z</time>
      </trkpt>
      <trkpt lat="40.8688850" lon="-3.4024150">
        <ele>778.0</ele>
        <time>2020-09-29T15:45:40Z</time>
      </trkpt>
      <trkpt lat="40.8688220" lon="-3.4025730">
        <ele>778.0</ele>
        <time>2020-09-29T15:45:41Z</time>
      </trkpt>
      <trkpt lat="40.8688220" lon="-3.4025730">
        <ele>778.0</ele>
        <time>2020-09-29T15:45:42Z</time>
      </trkpt>
      <trkpt lat="40.8687550" lon="-3.4027320">
        <ele>778.0</ele>
        <time>2020-09-29T15:45:43Z</time>
      </trkpt>
      <trkpt lat="40.8687250" lon="-3.4028100">
        <ele>778.0</ele>
        <time>2020-09-29T15:45:44Z</time>
      </trkpt>
      <trkpt lat="40.8687250" lon="-3.4028100">
        <ele>778.0</ele>
        <time>2020-09-29T15:45:45Z</time>
      </trkpt>
      <trkpt lat="40.8686680" lon="-3.4029680">
        <ele>778.0</ele>
        <time>2020-09-29T15:45:46Z</time>
      </trkpt>
      <trkpt lat="40.8686680" lon="-3.4029680">
        <ele>778.0</ele>
        <time>2020-09-29T15:45:47Z</time>
      </trkpt>
      <trkpt lat="40.8686030" lon="-3.4031230">
        <ele>778.0</ele>
        <time>2020-09-29T15:45:48Z</time>
      </trkpt>
      <trkpt lat="40.8686030" lon="-3.4031230">
        <ele>778.0</ele>
        <time>2020-09-29T15:45:49Z</time>
      </trkpt>
      <trkpt lat="40.8685480" lon="-3.4032820">
        <ele>778.0</ele>
        <time>2020-09-29T15:45:50Z</time>
      </trkpt>
      <trkpt lat="40.8685480" lon="-3.4032820">
        <ele>778.0</ele>
        <time>2020-09-29T15:45:51Z</time>
      </trkpt>
      <trkpt lat="40.8684920" lon="-3.4034450">
        <ele>778.0</ele>
        <time>2020-09-29T15:45:52Z</time>
      </trkpt>
      <trkpt lat="40.8684620" lon="-3.4035280">
        <ele>778.0</ele>
        <time>2020-09-29T15:45:53Z</time>
      </trkpt>
      <trkpt lat="40.8684620" lon="-3.4035280">
        <ele>778.0</ele>
        <time>2020-09-29T15:45:54Z</time>
      </trkpt>
      <trkpt lat="40.8684030" lon="-3.4036850">
        <ele>778.0</ele>
        <time>2020-09-29T15:45:55Z</time>
      </trkpt>
      <trkpt lat="40.8683750" lon="-3.4037630">
        <ele>778.0</ele>
        <time>2020-09-29T15:45:56Z</time>
      </trkpt>
      <trkpt lat="40.8683750" lon="-3.4037630">
        <ele>778.0</ele>
        <time>2020-09-29T15:45:57Z</time>
      </trkpt>
      <trkpt lat="40.8683230" lon="-3.4039080">
        <ele>778.0</ele>
        <time>2020-09-29T15:45:58Z</time>
      </trkpt>
      <trkpt lat="40.8682950" lon="-3.4039880">
        <ele>778.0</ele>
        <time>2020-09-29T15:45:59Z</time>
      </trkpt>
      <trkpt lat="40.8682950" lon="-3.4039880">
        <ele>778.0</ele>
        <time>2020-09-29T15:46:00Z</time>
      </trkpt>
      <trkpt lat="40.8682370" lon="-3.4041480">
        <ele>778.0</ele>
        <time>2020-09-29T15:46:01Z</time>
      </trkpt>
      <trkpt lat="40.8682370" lon="-3.4041480">
        <ele>779.0</ele>
        <time>2020-09-29T15:46:02Z</time>
      </trkpt>
      <trkpt lat="40.8681780" lon="-3.4043030">
        <ele>779.0</ele>
        <time>2020-09-29T15:46:03Z</time>
      </trkpt>
      <trkpt lat="40.8681500" lon="-3.4043800">
        <ele>779.0</ele>
        <time>2020-09-29T15:46:04Z</time>
      </trkpt>
      <trkpt lat="40.8681500" lon="-3.4043800">
        <ele>779.0</ele>
        <time>2020-09-29T15:46:05Z</time>
      </trkpt>
      <trkpt lat="40.8680930" lon="-3.4045250">
        <ele>779.0</ele>
        <time>2020-09-29T15:46:06Z</time>
      </trkpt>
      <trkpt lat="40.8680650" lon="-3.4045980">
        <ele>779.0</ele>
        <time>2020-09-29T15:46:07Z</time>
      </trkpt>
      <trkpt lat="40.8680650" lon="-3.4045980">
        <ele>779.0</ele>
        <time>2020-09-29T15:46:08Z</time>
      </trkpt>
      <trkpt lat="40.8680080" lon="-3.4047380">
        <ele>779.0</ele>
        <time>2020-09-29T15:46:09Z</time>
      </trkpt>
      <trkpt lat="40.8680080" lon="-3.4047380">
        <ele>780.0</ele>
        <time>2020-09-29T15:46:10Z</time>
      </trkpt>
      <trkpt lat="40.8679550" lon="-3.4048780">
        <ele>780.0</ele>
        <time>2020-09-29T15:46:11Z</time>
      </trkpt>
      <trkpt lat="40.8679550" lon="-3.4048780">
        <ele>780.0</ele>
        <time>2020-09-29T15:46:12Z</time>
      </trkpt>
      <trkpt lat="40.8679020" lon="-3.4050170">
        <ele>780.0</ele>
        <time>2020-09-29T15:46:13Z</time>
      </trkpt>
      <trkpt lat="40.8678730" lon="-3.4050870">
        <ele>780.0</ele>
        <time>2020-09-29T15:46:14Z</time>
      </trkpt>
      <trkpt lat="40.8678730" lon="-3.4050870">
        <ele>780.0</ele>
        <time>2020-09-29T15:46:15Z</time>
      </trkpt>
      <trkpt lat="40.8678220" lon="-3.4052270">
        <ele>780.0</ele>
        <time>2020-09-29T15:46:16Z</time>
      </trkpt>
      <trkpt lat="40.8678220" lon="-3.4052270">
        <ele>780.0</ele>
        <time>2020-09-29T15:46:17Z</time>
      </trkpt>
      <trkpt lat="40.8677680" lon="-3.4053600">
        <ele>781.0</ele>
        <time>2020-09-29T15:46:18Z</time>
      </trkpt>
      <trkpt lat="40.8677680" lon="-3.4053600">
        <ele>781.0</ele>
        <time>2020-09-29T15:46:19Z</time>
      </trkpt>
      <trkpt lat="40.8677170" lon="-3.4054950">
        <ele>781.0</ele>
        <time>2020-09-29T15:46:20Z</time>
      </trkpt>
      <trkpt lat="40.8677170" lon="-3.4054950">
        <ele>781.0</ele>
        <time>2020-09-29T15:46:21Z</time>
      </trkpt>
      <trkpt lat="40.8676650" lon="-3.4056320">
        <ele>781.0</ele>
        <time>2020-09-29T15:46:22Z</time>
      </trkpt>
      <trkpt lat="40.8676650" lon="-3.4056320">
        <ele>782.0</ele>
        <time>2020-09-29T15:46:23Z</time>
      </trkpt>
      <trkpt lat="40.8676130" lon="-3.4057650">
        <ele>782.0</ele>
        <time>2020-09-29T15:46:24Z</time>
      </trkpt>
      <trkpt lat="40.8676130" lon="-3.4057650">
        <ele>782.0</ele>
        <time>2020-09-29T15:46:25Z</time>
      </trkpt>
      <trkpt lat="40.8675650" lon="-3.4058950">
        <ele>782.0</ele>
        <time>2020-09-29T15:46:26Z</time>
      </trkpt>
      <trkpt lat="40.8675650" lon="-3.4058950">
        <ele>782.0</ele>
        <time>2020-09-29T15:46:27Z</time>
      </trkpt>
      <trkpt lat="40.8675150" lon="-3.4060300">
        <ele>782.0</ele>
        <time>2020-09-29T15:46:28Z</time>
      </trkpt>
      <trkpt lat="40.8674900" lon="-3.4060930">
        <ele>782.0</ele>
        <time>2020-09-29T15:46:29Z</time>
      </trkpt>
      <trkpt lat="40.8674900" lon="-3.4060930">
        <ele>782.0</ele>
        <time>2020-09-29T15:46:30Z</time>
      </trkpt>
      <trkpt lat="40.8674420" lon="-3.4062250">
        <ele>782.0</ele>
        <time>2020-09-29T15:46:31Z</time>
      </trkpt>
      <trkpt lat="40.8674420" lon="-3.4062250">
        <ele>782.0</ele>
        <time>2020-09-29T15:46:32Z</time>
      </trkpt>
      <trkpt lat="40.8673920" lon="-3.4063550">
        <ele>782.0</ele>
        <time>2020-09-29T15:46:33Z</time>
      </trkpt>
      <trkpt lat="40.8673920" lon="-3.4063550">
        <ele>782.0</ele>
        <time>2020-09-29T15:46:34Z</time>
      </trkpt>
      <trkpt lat="40.8673430" lon="-3.4064870">
        <ele>782.0</ele>
        <time>2020-09-29T15:46:35Z</time>
      </trkpt>
      <trkpt lat="40.8673430" lon="-3.4064870">
        <ele>782.0</ele>
        <time>2020-09-29T15:46:36Z</time>
      </trkpt>
      <trkpt lat="40.8672920" lon="-3.4066180">
        <ele>782.0</ele>
        <time>2020-09-29T15:46:37Z</time>
      </trkpt>
      <trkpt lat="40.8672630" lon="-3.4066870">
        <ele>782.0</ele>
        <time>2020-09-29T15:46:38Z</time>
      </trkpt>
      <trkpt lat="40.8672630" lon="-3.4066870">
        <ele>782.0</ele>
        <time>2020-09-29T15:46:39Z</time>
      </trkpt>
      <trkpt lat="40.8672000" lon="-3.4068220">
        <ele>782.0</ele>
        <time>2020-09-29T15:46:40Z</time>
      </trkpt>
      <trkpt lat="40.8671670" lon="-3.4068900">
        <ele>782.0</ele>
        <time>2020-09-29T15:46:41Z</time>
      </trkpt>
      <trkpt lat="40.8671330" lon="-3.4069580">
        <ele>782.0</ele>
        <time>2020-09-29T15:46:42Z</time>
      </trkpt>
      <trkpt lat="40.8671330" lon="-3.4069580">
        <ele>782.0</ele>
        <time>2020-09-29T15:46:43Z</time>
      </trkpt>
      <trkpt lat="40.8670650" lon="-3.4071030">
        <ele>782.0</ele>
        <time>2020-09-29T15:46:44Z</time>
      </trkpt>
      <trkpt lat="40.8670650" lon="-3.4071030">
        <ele>782.0</ele>
        <time>2020-09-29T15:46:45Z</time>
      </trkpt>
      <trkpt lat="40.8669870" lon="-3.4072550">
        <ele>782.0</ele>
        <time>2020-09-29T15:46:46Z</time>
      </trkpt>
      <trkpt lat="40.8669870" lon="-3.4072550">
        <ele>782.0</ele>
        <time>2020-09-29T15:46:47Z</time>
      </trkpt>
      <trkpt lat="40.8669080" lon="-3.4074170">
        <ele>782.0</ele>
        <time>2020-09-29T15:46:48Z</time>
      </trkpt>
      <trkpt lat="40.8669080" lon="-3.4074170">
        <ele>782.0</ele>
        <time>2020-09-29T15:46:49Z</time>
      </trkpt>
      <trkpt lat="40.8668280" lon="-3.4075800">
        <ele>782.0</ele>
        <time>2020-09-29T15:46:50Z</time>
      </trkpt>
      <trkpt lat="40.8668280" lon="-3.4075800">
        <ele>782.0</ele>
        <time>2020-09-29T15:46:51Z</time>
      </trkpt>
      <trkpt lat="40.8667470" lon="-3.4077400">
        <ele>782.0</ele>
        <time>2020-09-29T15:46:52Z</time>
      </trkpt>
      <trkpt lat="40.8667030" lon="-3.4078230">
        <ele>782.0</ele>
        <time>2020-09-29T15:46:53Z</time>
      </trkpt>
      <trkpt lat="40.8666620" lon="-3.4079080">
        <ele>781.0</ele>
        <time>2020-09-29T15:46:54Z</time>
      </trkpt>
      <trkpt lat="40.8666620" lon="-3.4079080">
        <ele>781.0</ele>
        <time>2020-09-29T15:46:55Z</time>
      </trkpt>
      <trkpt lat="40.8665770" lon="-3.4080770">
        <ele>781.0</ele>
        <time>2020-09-29T15:46:56Z</time>
      </trkpt>
      <trkpt lat="40.8665770" lon="-3.4080770">
        <ele>779.0</ele>
        <time>2020-09-29T15:46:57Z</time>
      </trkpt>
      <trkpt lat="40.8664920" lon="-3.4082480">
        <ele>779.0</ele>
        <time>2020-09-29T15:46:58Z</time>
      </trkpt>
      <trkpt lat="40.8664500" lon="-3.4083330">
        <ele>778.0</ele>
        <time>2020-09-29T15:46:59Z</time>
      </trkpt>
      <trkpt lat="40.8664500" lon="-3.4083330">
        <ele>778.0</ele>
        <time>2020-09-29T15:47:00Z</time>
      </trkpt>
      <trkpt lat="40.8663630" lon="-3.4085050">
        <ele>778.0</ele>
        <time>2020-09-29T15:47:01Z</time>
      </trkpt>
      <trkpt lat="40.8663200" lon="-3.4085920">
        <ele>778.0</ele>
        <time>2020-09-29T15:47:02Z</time>
      </trkpt>
      <trkpt lat="40.8663200" lon="-3.4085920">
        <ele>777.0</ele>
        <time>2020-09-29T15:47:03Z</time>
      </trkpt>
      <trkpt lat="40.8662300" lon="-3.4087650">
        <ele>777.0</ele>
        <time>2020-09-29T15:47:04Z</time>
      </trkpt>
      <trkpt lat="40.8662300" lon="-3.4087650">
        <ele>777.0</ele>
        <time>2020-09-29T15:47:05Z</time>
      </trkpt>
      <trkpt lat="40.8661430" lon="-3.4089470">
        <ele>777.0</ele>
        <time>2020-09-29T15:47:06Z</time>
      </trkpt>
      <trkpt lat="40.8660980" lon="-3.4090370">
        <ele>776.0</ele>
        <time>2020-09-29T15:47:07Z</time>
      </trkpt>
      <trkpt lat="40.8660550" lon="-3.4091270">
        <ele>776.0</ele>
        <time>2020-09-29T15:47:08Z</time>
      </trkpt>
      <trkpt lat="40.8660550" lon="-3.4091270">
        <ele>776.0</ele>
        <time>2020-09-29T15:47:09Z</time>
      </trkpt>
      <trkpt lat="40.8659650" lon="-3.4093050">
        <ele>776.0</ele>
        <time>2020-09-29T15:47:10Z</time>
      </trkpt>
      <trkpt lat="40.8659650" lon="-3.4093050">
        <ele>775.0</ele>
        <time>2020-09-29T15:47:11Z</time>
      </trkpt>
      <trkpt lat="40.8658800" lon="-3.4094900">
        <ele>775.0</ele>
        <time>2020-09-29T15:47:12Z</time>
      </trkpt>
      <trkpt lat="40.8658450" lon="-3.4095880">
        <ele>775.0</ele>
        <time>2020-09-29T15:47:13Z</time>
      </trkpt>
      <trkpt lat="40.8658450" lon="-3.4095880">
        <ele>775.0</ele>
        <time>2020-09-29T15:47:14Z</time>
      </trkpt>
      <trkpt lat="40.8657880" lon="-3.4097970">
        <ele>774.0</ele>
        <time>2020-09-29T15:47:15Z</time>
      </trkpt>
      <trkpt lat="40.8657880" lon="-3.4097970">
        <ele>774.0</ele>
        <time>2020-09-29T15:47:16Z</time>
      </trkpt>
      <trkpt lat="40.8657420" lon="-3.4100130">
        <ele>773.0</ele>
        <time>2020-09-29T15:47:17Z</time>
      </trkpt>
      <trkpt lat="40.8657230" lon="-3.4101270">
        <ele>773.0</ele>
        <time>2020-09-29T15:47:18Z</time>
      </trkpt>
      <trkpt lat="40.8657070" lon="-3.4102400">
        <ele>772.0</ele>
        <time>2020-09-29T15:47:19Z</time>
      </trkpt>
      <trkpt lat="40.8657070" lon="-3.4102400">
        <ele>772.0</ele>
        <time>2020-09-29T15:47:20Z</time>
      </trkpt>
      <trkpt lat="40.8656770" lon="-3.4104730">
        <ele>771.0</ele>
        <time>2020-09-29T15:47:21Z</time>
      </trkpt>
      <trkpt lat="40.8656770" lon="-3.4104730">
        <ele>771.0</ele>
        <time>2020-09-29T15:47:22Z</time>
      </trkpt>
      <trkpt lat="40.8656470" lon="-3.4107080">
        <ele>771.0</ele>
        <time>2020-09-29T15:47:23Z</time>
      </trkpt>
      <trkpt lat="40.8656300" lon="-3.4108270">
        <ele>771.0</ele>
        <time>2020-09-29T15:47:24Z</time>
      </trkpt>
      <trkpt lat="40.8656300" lon="-3.4108270">
        <ele>771.0</ele>
        <time>2020-09-29T15:47:25Z</time>
      </trkpt>
      <trkpt lat="40.8655970" lon="-3.4110670">
        <ele>771.0</ele>
        <time>2020-09-29T15:47:26Z</time>
      </trkpt>
      <trkpt lat="40.8655970" lon="-3.4110670">
        <ele>770.0</ele>
        <time>2020-09-29T15:47:27Z</time>
      </trkpt>
      <trkpt lat="40.8655600" lon="-3.4113080">
        <ele>770.0</ele>
        <time>2020-09-29T15:47:28Z</time>
      </trkpt>
      <trkpt lat="40.8655600" lon="-3.4113080">
        <ele>770.0</ele>
        <time>2020-09-29T15:47:29Z</time>
      </trkpt>
      <trkpt lat="40.8655230" lon="-3.4115480">
        <ele>770.0</ele>
        <time>2020-09-29T15:47:30Z</time>
      </trkpt>
      <trkpt lat="40.8655230" lon="-3.4115480">
        <ele>768.0</ele>
        <time>2020-09-29T15:47:31Z</time>
      </trkpt>
      <trkpt lat="40.8654870" lon="-3.4117900">
        <ele>768.0</ele>
        <time>2020-09-29T15:47:32Z</time>
      </trkpt>
      <trkpt lat="40.8654870" lon="-3.4117900">
        <ele>768.0</ele>
        <time>2020-09-29T15:47:33Z</time>
      </trkpt>
      <trkpt lat="40.8654520" lon="-3.4120320">
        <ele>768.0</ele>
        <time>2020-09-29T15:47:34Z</time>
      </trkpt>
      <trkpt lat="40.8654330" lon="-3.4121530">
        <ele>768.0</ele>
        <time>2020-09-29T15:47:35Z</time>
      </trkpt>
      <trkpt lat="40.8654330" lon="-3.4121530">
        <ele>768.0</ele>
        <time>2020-09-29T15:47:36Z</time>
      </trkpt>
      <trkpt lat="40.8654000" lon="-3.4123970">
        <ele>766.0</ele>
        <time>2020-09-29T15:47:37Z</time>
      </trkpt>
      <trkpt lat="40.8653830" lon="-3.4125200">
        <ele>766.0</ele>
        <time>2020-09-29T15:47:38Z</time>
      </trkpt>
      <trkpt lat="40.8653830" lon="-3.4125200">
        <ele>765.0</ele>
        <time>2020-09-29T15:47:39Z</time>
      </trkpt>
      <trkpt lat="40.8653520" lon="-3.4127650">
        <ele>765.0</ele>
        <time>2020-09-29T15:47:40Z</time>
      </trkpt>
      <trkpt lat="40.8653350" lon="-3.4128900">
        <ele>764.0</ele>
        <time>2020-09-29T15:47:41Z</time>
      </trkpt>
      <trkpt lat="40.8653350" lon="-3.4128900">
        <ele>764.0</ele>
        <time>2020-09-29T15:47:42Z</time>
      </trkpt>
      <trkpt lat="40.8653030" lon="-3.4131400">
        <ele>763.0</ele>
        <time>2020-09-29T15:47:43Z</time>
      </trkpt>
      <trkpt lat="40.8652850" lon="-3.4132650">
        <ele>763.0</ele>
        <time>2020-09-29T15:47:44Z</time>
      </trkpt>
      <trkpt lat="40.8652850" lon="-3.4132650">
        <ele>763.0</ele>
        <time>2020-09-29T15:47:45Z</time>
      </trkpt>
      <trkpt lat="40.8652470" lon="-3.4135120">
        <ele>763.0</ele>
        <time>2020-09-29T15:47:46Z</time>
      </trkpt>
      <trkpt lat="40.8652470" lon="-3.4135120">
        <ele>762.0</ele>
        <time>2020-09-29T15:47:47Z</time>
      </trkpt>
      <trkpt lat="40.8652170" lon="-3.4137580">
        <ele>762.0</ele>
        <time>2020-09-29T15:47:48Z</time>
      </trkpt>
      <trkpt lat="40.8652170" lon="-3.4137580">
        <ele>761.0</ele>
        <time>2020-09-29T15:47:49Z</time>
      </trkpt>
      <trkpt lat="40.8651850" lon="-3.4140070">
        <ele>761.0</ele>
        <time>2020-09-29T15:47:50Z</time>
      </trkpt>
      <trkpt lat="40.8651850" lon="-3.4140070">
        <ele>761.0</ele>
        <time>2020-09-29T15:47:51Z</time>
      </trkpt>
      <trkpt lat="40.8651520" lon="-3.4142570">
        <ele>761.0</ele>
        <time>2020-09-29T15:47:52Z</time>
      </trkpt>
      <trkpt lat="40.8651520" lon="-3.4142570">
        <ele>759.0</ele>
        <time>2020-09-29T15:47:53Z</time>
      </trkpt>
      <trkpt lat="40.8651130" lon="-3.4145080">
        <ele>759.0</ele>
        <time>2020-09-29T15:47:54Z</time>
      </trkpt>
      <trkpt lat="40.8651130" lon="-3.4145080">
        <ele>759.0</ele>
        <time>2020-09-29T15:47:55Z</time>
      </trkpt>
      <trkpt lat="40.8650800" lon="-3.4147580">
        <ele>759.0</ele>
        <time>2020-09-29T15:47:56Z</time>
      </trkpt>
      <trkpt lat="40.8650800" lon="-3.4147580">
        <ele>759.0</ele>
        <time>2020-09-29T15:47:57Z</time>
      </trkpt>
      <trkpt lat="40.8650430" lon="-3.4150000">
        <ele>759.0</ele>
        <time>2020-09-29T15:47:58Z</time>
      </trkpt>
      <trkpt lat="40.8650430" lon="-3.4150000">
        <ele>759.0</ele>
        <time>2020-09-29T15:47:59Z</time>
      </trkpt>
      <trkpt lat="40.8650100" lon="-3.4152280">
        <ele>759.0</ele>
        <time>2020-09-29T15:48:00Z</time>
      </trkpt>
      <trkpt lat="40.8649970" lon="-3.4153400">
        <ele>759.0</ele>
        <time>2020-09-29T15:48:01Z</time>
      </trkpt>
      <trkpt lat="40.8649970" lon="-3.4153400">
        <ele>759.0</ele>
        <time>2020-09-29T15:48:02Z</time>
      </trkpt>
      <trkpt lat="40.8649720" lon="-3.4155580">
        <ele>759.0</ele>
        <time>2020-09-29T15:48:03Z</time>
      </trkpt>
      <trkpt lat="40.8649720" lon="-3.4155580">
        <ele>759.0</ele>
        <time>2020-09-29T15:48:04Z</time>
      </trkpt>
      <trkpt lat="40.8649450" lon="-3.4157700">
        <ele>759.0</ele>
        <time>2020-09-29T15:48:05Z</time>
      </trkpt>
      <trkpt lat="40.8649450" lon="-3.4157700">
        <ele>759.0</ele>
        <time>2020-09-29T15:48:06Z</time>
      </trkpt>
      <trkpt lat="40.8649180" lon="-3.4159750">
        <ele>759.0</ele>
        <time>2020-09-29T15:48:07Z</time>
      </trkpt>
      <trkpt lat="40.8649180" lon="-3.4159750">
        <ele>759.0</ele>
        <time>2020-09-29T15:48:08Z</time>
      </trkpt>
      <trkpt lat="40.8648920" lon="-3.4161770">
        <ele>759.0</ele>
        <time>2020-09-29T15:48:09Z</time>
      </trkpt>
      <trkpt lat="40.8648920" lon="-3.4161770">
        <ele>759.0</ele>
        <time>2020-09-29T15:48:10Z</time>
      </trkpt>
      <trkpt lat="40.8648670" lon="-3.4163770">
        <ele>759.0</ele>
        <time>2020-09-29T15:48:11Z</time>
      </trkpt>
      <trkpt lat="40.8648530" lon="-3.4164770">
        <ele>759.0</ele>
        <time>2020-09-29T15:48:12Z</time>
      </trkpt>
      <trkpt lat="40.8648530" lon="-3.4164770">
        <ele>759.0</ele>
        <time>2020-09-29T15:48:13Z</time>
      </trkpt>
      <trkpt lat="40.8648350" lon="-3.4166850">
        <ele>759.0</ele>
        <time>2020-09-29T15:48:14Z</time>
      </trkpt>
      <trkpt lat="40.8648350" lon="-3.4166850">
        <ele>759.0</ele>
        <time>2020-09-29T15:48:15Z</time>
      </trkpt>
      <trkpt lat="40.8648280" lon="-3.4169000">
        <ele>759.0</ele>
        <time>2020-09-29T15:48:16Z</time>
      </trkpt>
      <trkpt lat="40.8648280" lon="-3.4169000">
        <ele>758.0</ele>
        <time>2020-09-29T15:48:17Z</time>
      </trkpt>
      <trkpt lat="40.8648350" lon="-3.4171180">
        <ele>758.0</ele>
        <time>2020-09-29T15:48:18Z</time>
      </trkpt>
      <trkpt lat="40.8648400" lon="-3.4172300">
        <ele>758.0</ele>
        <time>2020-09-29T15:48:19Z</time>
      </trkpt>
      <trkpt lat="40.8648480" lon="-3.4173400">
        <ele>758.0</ele>
        <time>2020-09-29T15:48:20Z</time>
      </trkpt>
      <trkpt lat="40.8648480" lon="-3.4173400">
        <ele>757.0</ele>
        <time>2020-09-29T15:48:21Z</time>
      </trkpt>
      <trkpt lat="40.8648580" lon="-3.4175580">
        <ele>757.0</ele>
        <time>2020-09-29T15:48:22Z</time>
      </trkpt>
      <trkpt lat="40.8648580" lon="-3.4175580">
        <ele>757.0</ele>
        <time>2020-09-29T15:48:23Z</time>
      </trkpt>
      <trkpt lat="40.8648680" lon="-3.4177780">
        <ele>757.0</ele>
        <time>2020-09-29T15:48:24Z</time>
      </trkpt>
      <trkpt lat="40.8648680" lon="-3.4177780">
        <ele>757.0</ele>
        <time>2020-09-29T15:48:25Z</time>
      </trkpt>
      <trkpt lat="40.8648780" lon="-3.4180000">
        <ele>757.0</ele>
        <time>2020-09-29T15:48:26Z</time>
      </trkpt>
      <trkpt lat="40.8648780" lon="-3.4180000">
        <ele>756.0</ele>
        <time>2020-09-29T15:48:27Z</time>
      </trkpt>
      <trkpt lat="40.8648880" lon="-3.4182230">
        <ele>756.0</ele>
        <time>2020-09-29T15:48:28Z</time>
      </trkpt>
      <trkpt lat="40.8648880" lon="-3.4182230">
        <ele>756.0</ele>
        <time>2020-09-29T15:48:29Z</time>
      </trkpt>
      <trkpt lat="40.8648980" lon="-3.4184500">
        <ele>756.0</ele>
        <time>2020-09-29T15:48:30Z</time>
      </trkpt>
      <trkpt lat="40.8648980" lon="-3.4184500">
        <ele>754.0</ele>
        <time>2020-09-29T15:48:31Z</time>
      </trkpt>
      <trkpt lat="40.8649080" lon="-3.4186770">
        <ele>754.0</ele>
        <time>2020-09-29T15:48:32Z</time>
      </trkpt>
      <trkpt lat="40.8649080" lon="-3.4186770">
        <ele>753.0</ele>
        <time>2020-09-29T15:48:33Z</time>
      </trkpt>
      <trkpt lat="40.8649150" lon="-3.4189020">
        <ele>753.0</ele>
        <time>2020-09-29T15:48:34Z</time>
      </trkpt>
      <trkpt lat="40.8649180" lon="-3.4190150">
        <ele>753.0</ele>
        <time>2020-09-29T15:48:35Z</time>
      </trkpt>
      <trkpt lat="40.8649180" lon="-3.4190150">
        <ele>753.0</ele>
        <time>2020-09-29T15:48:36Z</time>
      </trkpt>
      <trkpt lat="40.8649230" lon="-3.4192450">
        <ele>753.0</ele>
        <time>2020-09-29T15:48:37Z</time>
      </trkpt>
      <trkpt lat="40.8649230" lon="-3.4192450">
        <ele>752.0</ele>
        <time>2020-09-29T15:48:38Z</time>
      </trkpt>
      <trkpt lat="40.8649330" lon="-3.4194770">
        <ele>752.0</ele>
        <time>2020-09-29T15:48:39Z</time>
      </trkpt>
      <trkpt lat="40.8649330" lon="-3.4194770">
        <ele>752.0</ele>
        <time>2020-09-29T15:48:40Z</time>
      </trkpt>
      <trkpt lat="40.8649430" lon="-3.4197100">
        <ele>752.0</ele>
        <time>2020-09-29T15:48:41Z</time>
      </trkpt>
      <trkpt lat="40.8649430" lon="-3.4197100">
        <ele>750.0</ele>
        <time>2020-09-29T15:48:42Z</time>
      </trkpt>
      <trkpt lat="40.8649570" lon="-3.4199480">
        <ele>750.0</ele>
        <time>2020-09-29T15:48:43Z</time>
      </trkpt>
      <trkpt lat="40.8649620" lon="-3.4200680">
        <ele>750.0</ele>
        <time>2020-09-29T15:48:44Z</time>
      </trkpt>
      <trkpt lat="40.8649620" lon="-3.4200680">
        <ele>749.0</ele>
        <time>2020-09-29T15:48:45Z</time>
      </trkpt>
      <trkpt lat="40.8649730" lon="-3.4203080">
        <ele>749.0</ele>
        <time>2020-09-29T15:48:46Z</time>
      </trkpt>
      <trkpt lat="40.8649730" lon="-3.4203080">
        <ele>749.0</ele>
        <time>2020-09-29T15:48:47Z</time>
      </trkpt>
      <trkpt lat="40.8649830" lon="-3.4205530">
        <ele>749.0</ele>
        <time>2020-09-29T15:48:48Z</time>
      </trkpt>
      <trkpt lat="40.8649880" lon="-3.4206750">
        <ele>748.0</ele>
        <time>2020-09-29T15:48:49Z</time>
      </trkpt>
      <trkpt lat="40.8649880" lon="-3.4206750">
        <ele>748.0</ele>
        <time>2020-09-29T15:48:50Z</time>
      </trkpt>
      <trkpt lat="40.8649970" lon="-3.4209200">
        <ele>748.0</ele>
        <time>2020-09-29T15:48:51Z</time>
      </trkpt>
      <trkpt lat="40.8649970" lon="-3.4209200">
        <ele>748.0</ele>
        <time>2020-09-29T15:48:52Z</time>
      </trkpt>
      <trkpt lat="40.8650050" lon="-3.4211620">
        <ele>747.0</ele>
        <time>2020-09-29T15:48:53Z</time>
      </trkpt>
      <trkpt lat="40.8650050" lon="-3.4211620">
        <ele>747.0</ele>
        <time>2020-09-29T15:48:54Z</time>
      </trkpt>
      <trkpt lat="40.8650170" lon="-3.4213920">
        <ele>747.0</ele>
        <time>2020-09-29T15:48:55Z</time>
      </trkpt>
      <trkpt lat="40.8650170" lon="-3.4213920">
        <ele>747.0</ele>
        <time>2020-09-29T15:48:56Z</time>
      </trkpt>
      <trkpt lat="40.8650220" lon="-3.4216080">
        <ele>747.0</ele>
        <time>2020-09-29T15:48:57Z</time>
      </trkpt>
      <trkpt lat="40.8650230" lon="-3.4217130">
        <ele>747.0</ele>
        <time>2020-09-29T15:48:58Z</time>
      </trkpt>
      <trkpt lat="40.8650230" lon="-3.4217130">
        <ele>747.0</ele>
        <time>2020-09-29T15:48:59Z</time>
      </trkpt>
      <trkpt lat="40.8650220" lon="-3.4219170">
        <ele>747.0</ele>
        <time>2020-09-29T15:49:00Z</time>
      </trkpt>
      <trkpt lat="40.8650170" lon="-3.4220180">
        <ele>747.0</ele>
        <time>2020-09-29T15:49:01Z</time>
      </trkpt>
      <trkpt lat="40.8650170" lon="-3.4220180">
        <ele>747.0</ele>
        <time>2020-09-29T15:49:02Z</time>
      </trkpt>
      <trkpt lat="40.8650080" lon="-3.4222180">
        <ele>747.0</ele>
        <time>2020-09-29T15:49:03Z</time>
      </trkpt>
      <trkpt lat="40.8650080" lon="-3.4222180">
        <ele>747.0</ele>
        <time>2020-09-29T15:49:04Z</time>
      </trkpt>
      <trkpt lat="40.8650120" lon="-3.4224130">
        <ele>747.0</ele>
        <time>2020-09-29T15:49:05Z</time>
      </trkpt>
      <trkpt lat="40.8650120" lon="-3.4224130">
        <ele>747.0</ele>
        <time>2020-09-29T15:49:06Z</time>
      </trkpt>
      <trkpt lat="40.8649980" lon="-3.4226200">
        <ele>747.0</ele>
        <time>2020-09-29T15:49:07Z</time>
      </trkpt>
      <trkpt lat="40.8649920" lon="-3.4227220">
        <ele>747.0</ele>
        <time>2020-09-29T15:49:08Z</time>
      </trkpt>
      <trkpt lat="40.8649920" lon="-3.4227220">
        <ele>747.0</ele>
        <time>2020-09-29T15:49:09Z</time>
      </trkpt>
      <trkpt lat="40.8649800" lon="-3.4229300">
        <ele>747.0</ele>
        <time>2020-09-29T15:49:10Z</time>
      </trkpt>
      <trkpt lat="40.8649730" lon="-3.4230330">
        <ele>747.0</ele>
        <time>2020-09-29T15:49:11Z</time>
      </trkpt>
      <trkpt lat="40.8649730" lon="-3.4230330">
        <ele>747.0</ele>
        <time>2020-09-29T15:49:12Z</time>
      </trkpt>
      <trkpt lat="40.8649570" lon="-3.4232380">
        <ele>747.0</ele>
        <time>2020-09-29T15:49:13Z</time>
      </trkpt>
      <trkpt lat="40.8649470" lon="-3.4233400">
        <ele>747.0</ele>
        <time>2020-09-29T15:49:14Z</time>
      </trkpt>
      <trkpt lat="40.8649470" lon="-3.4233400">
        <ele>746.0</ele>
        <time>2020-09-29T15:49:15Z</time>
      </trkpt>
      <trkpt lat="40.8649300" lon="-3.4235420">
        <ele>746.0</ele>
        <time>2020-09-29T15:49:16Z</time>
      </trkpt>
      <trkpt lat="40.8649300" lon="-3.4235420">
        <ele>746.0</ele>
        <time>2020-09-29T15:49:17Z</time>
      </trkpt>
      <trkpt lat="40.8649200" lon="-3.4237500">
        <ele>746.0</ele>
        <time>2020-09-29T15:49:18Z</time>
      </trkpt>
      <trkpt lat="40.8649200" lon="-3.4237500">
        <ele>746.0</ele>
        <time>2020-09-29T15:49:19Z</time>
      </trkpt>
      <trkpt lat="40.8648970" lon="-3.4239550">
        <ele>746.0</ele>
        <time>2020-09-29T15:49:20Z</time>
      </trkpt>
      <trkpt lat="40.8648970" lon="-3.4239550">
        <ele>746.0</ele>
        <time>2020-09-29T15:49:21Z</time>
      </trkpt>
      <trkpt lat="40.8648570" lon="-3.4241530">
        <ele>746.0</ele>
        <time>2020-09-29T15:49:22Z</time>
      </trkpt>
      <trkpt lat="40.8648570" lon="-3.4241530">
        <ele>746.0</ele>
        <time>2020-09-29T15:49:23Z</time>
      </trkpt>
      <trkpt lat="40.8648130" lon="-3.4243520">
        <ele>746.0</ele>
        <time>2020-09-29T15:49:24Z</time>
      </trkpt>
      <trkpt lat="40.8648130" lon="-3.4243520">
        <ele>746.0</ele>
        <time>2020-09-29T15:49:25Z</time>
      </trkpt>
      <trkpt lat="40.8647670" lon="-3.4245500">
        <ele>746.0</ele>
        <time>2020-09-29T15:49:26Z</time>
      </trkpt>
      <trkpt lat="40.8647670" lon="-3.4245500">
        <ele>746.0</ele>
        <time>2020-09-29T15:49:27Z</time>
      </trkpt>
      <trkpt lat="40.8647150" lon="-3.4247520">
        <ele>745.0</ele>
        <time>2020-09-29T15:49:28Z</time>
      </trkpt>
      <trkpt lat="40.8647150" lon="-3.4247520">
        <ele>745.0</ele>
        <time>2020-09-29T15:49:29Z</time>
      </trkpt>
      <trkpt lat="40.8646670" lon="-3.4249500">
        <ele>745.0</ele>
        <time>2020-09-29T15:49:30Z</time>
      </trkpt>
      <trkpt lat="40.8646670" lon="-3.4249500">
        <ele>745.0</ele>
        <time>2020-09-29T15:49:31Z</time>
      </trkpt>
      <trkpt lat="40.8646320" lon="-3.4251570">
        <ele>744.0</ele>
        <time>2020-09-29T15:49:32Z</time>
      </trkpt>
      <trkpt lat="40.8646320" lon="-3.4251570">
        <ele>744.0</ele>
        <time>2020-09-29T15:49:33Z</time>
      </trkpt>
      <trkpt lat="40.8646120" lon="-3.4253630">
        <ele>744.0</ele>
        <time>2020-09-29T15:49:34Z</time>
      </trkpt>
      <trkpt lat="40.8646120" lon="-3.4253630">
        <ele>744.0</ele>
        <time>2020-09-29T15:49:35Z</time>
      </trkpt>
      <trkpt lat="40.8645920" lon="-3.4255620">
        <ele>743.0</ele>
        <time>2020-09-29T15:49:36Z</time>
      </trkpt>
      <trkpt lat="40.8645900" lon="-3.4256680">
        <ele>743.0</ele>
        <time>2020-09-29T15:49:37Z</time>
      </trkpt>
      <trkpt lat="40.8645900" lon="-3.4256680">
        <ele>743.0</ele>
        <time>2020-09-29T15:49:38Z</time>
      </trkpt>
      <trkpt lat="40.8645880" lon="-3.4258850">
        <ele>743.0</ele>
        <time>2020-09-29T15:49:39Z</time>
      </trkpt>
      <trkpt lat="40.8645880" lon="-3.4258850">
        <ele>742.0</ele>
        <time>2020-09-29T15:49:40Z</time>
      </trkpt>
      <trkpt lat="40.8645830" lon="-3.4260980">
        <ele>742.0</ele>
        <time>2020-09-29T15:49:41Z</time>
      </trkpt>
      <trkpt lat="40.8645830" lon="-3.4260980">
        <ele>742.0</ele>
        <time>2020-09-29T15:49:42Z</time>
      </trkpt>
      <trkpt lat="40.8645750" lon="-3.4263100">
        <ele>742.0</ele>
        <time>2020-09-29T15:49:43Z</time>
      </trkpt>
      <trkpt lat="40.8645670" lon="-3.4264130">
        <ele>741.0</ele>
        <time>2020-09-29T15:49:44Z</time>
      </trkpt>
      <trkpt lat="40.8645670" lon="-3.4264130">
        <ele>741.0</ele>
        <time>2020-09-29T15:49:45Z</time>
      </trkpt>
      <trkpt lat="40.8645430" lon="-3.4266220">
        <ele>741.0</ele>
        <time>2020-09-29T15:49:46Z</time>
      </trkpt>
      <trkpt lat="40.8645430" lon="-3.4266220">
        <ele>741.0</ele>
        <time>2020-09-29T15:49:47Z</time>
      </trkpt>
      <trkpt lat="40.8644980" lon="-3.4268200">
        <ele>741.0</ele>
        <time>2020-09-29T15:49:48Z</time>
      </trkpt>
      <trkpt lat="40.8644980" lon="-3.4268200">
        <ele>741.0</ele>
        <time>2020-09-29T15:49:49Z</time>
      </trkpt>
      <trkpt lat="40.8644230" lon="-3.4270070">
        <ele>741.0</ele>
        <time>2020-09-29T15:49:50Z</time>
      </trkpt>
      <trkpt lat="40.8644230" lon="-3.4270070">
        <ele>741.0</ele>
        <time>2020-09-29T15:49:51Z</time>
      </trkpt>
      <trkpt lat="40.8643370" lon="-3.4271880">
        <ele>741.0</ele>
        <time>2020-09-29T15:49:52Z</time>
      </trkpt>
      <trkpt lat="40.8642930" lon="-3.4272800">
        <ele>741.0</ele>
        <time>2020-09-29T15:49:53Z</time>
      </trkpt>
      <trkpt lat="40.8642930" lon="-3.4272800">
        <ele>741.0</ele>
        <time>2020-09-29T15:49:54Z</time>
      </trkpt>
      <trkpt lat="40.8642050" lon="-3.4274550">
        <ele>741.0</ele>
        <time>2020-09-29T15:49:55Z</time>
      </trkpt>
      <trkpt lat="40.8642050" lon="-3.4274550">
        <ele>741.0</ele>
        <time>2020-09-29T15:49:56Z</time>
      </trkpt>
      <trkpt lat="40.8641170" lon="-3.4276320">
        <ele>741.0</ele>
        <time>2020-09-29T15:49:57Z</time>
      </trkpt>
      <trkpt lat="40.8641170" lon="-3.4276320">
        <ele>741.0</ele>
        <time>2020-09-29T15:49:58Z</time>
      </trkpt>
      <trkpt lat="40.8640300" lon="-3.4278100">
        <ele>740.0</ele>
        <time>2020-09-29T15:49:59Z</time>
      </trkpt>
      <trkpt lat="40.8640300" lon="-3.4278100">
        <ele>740.0</ele>
        <time>2020-09-29T15:50:00Z</time>
      </trkpt>
      <trkpt lat="40.8639450" lon="-3.4279900">
        <ele>740.0</ele>
        <time>2020-09-29T15:50:01Z</time>
      </trkpt>
      <trkpt lat="40.8639080" lon="-3.4280820">
        <ele>740.0</ele>
        <time>2020-09-29T15:50:02Z</time>
      </trkpt>
      <trkpt lat="40.8639080" lon="-3.4280820">
        <ele>740.0</ele>
        <time>2020-09-29T15:50:03Z</time>
      </trkpt>
      <trkpt lat="40.8638480" lon="-3.4282800">
        <ele>740.0</ele>
        <time>2020-09-29T15:50:04Z</time>
      </trkpt>
      <trkpt lat="40.8638300" lon="-3.4283830">
        <ele>739.0</ele>
        <time>2020-09-29T15:50:05Z</time>
      </trkpt>
      <trkpt lat="40.8638300" lon="-3.4283830">
        <ele>739.0</ele>
        <time>2020-09-29T15:50:06Z</time>
      </trkpt>
      <trkpt lat="40.8638180" lon="-3.4285950">
        <ele>739.0</ele>
        <time>2020-09-29T15:50:07Z</time>
      </trkpt>
      <trkpt lat="40.8638220" lon="-3.4287000">
        <ele>739.0</ele>
        <time>2020-09-29T15:50:08Z</time>
      </trkpt>
      <trkpt lat="40.8638220" lon="-3.4287000">
        <ele>739.0</ele>
        <time>2020-09-29T15:50:09Z</time>
      </trkpt>
      <trkpt lat="40.8638320" lon="-3.4289120">
        <ele>739.0</ele>
        <time>2020-09-29T15:50:10Z</time>
      </trkpt>
      <trkpt lat="40.8638380" lon="-3.4290180">
        <ele>738.0</ele>
        <time>2020-09-29T15:50:11Z</time>
      </trkpt>
      <trkpt lat="40.8638380" lon="-3.4290180">
        <ele>738.0</ele>
        <time>2020-09-29T15:50:12Z</time>
      </trkpt>
      <trkpt lat="40.8638530" lon="-3.4292320">
        <ele>738.0</ele>
        <time>2020-09-29T15:50:13Z</time>
      </trkpt>
      <trkpt lat="40.8638600" lon="-3.4293400">
        <ele>738.0</ele>
        <time>2020-09-29T15:50:14Z</time>
      </trkpt>
      <trkpt lat="40.8638600" lon="-3.4293400">
        <ele>738.0</ele>
        <time>2020-09-29T15:50:15Z</time>
      </trkpt>
      <trkpt lat="40.8638750" lon="-3.4295580">
        <ele>738.0</ele>
        <time>2020-09-29T15:50:16Z</time>
      </trkpt>
      <trkpt lat="40.8638750" lon="-3.4295580">
        <ele>738.0</ele>
        <time>2020-09-29T15:50:17Z</time>
      </trkpt>
      <trkpt lat="40.8638880" lon="-3.4297770">
        <ele>737.0</ele>
        <time>2020-09-29T15:50:18Z</time>
      </trkpt>
      <trkpt lat="40.8638880" lon="-3.4297770">
        <ele>737.0</ele>
        <time>2020-09-29T15:50:19Z</time>
      </trkpt>
      <trkpt lat="40.8639000" lon="-3.4299970">
        <ele>737.0</ele>
        <time>2020-09-29T15:50:20Z</time>
      </trkpt>
      <trkpt lat="40.8639000" lon="-3.4299970">
        <ele>737.0</ele>
        <time>2020-09-29T15:50:21Z</time>
      </trkpt>
      <trkpt lat="40.8639130" lon="-3.4302130">
        <ele>737.0</ele>
        <time>2020-09-29T15:50:22Z</time>
      </trkpt>
      <trkpt lat="40.8639130" lon="-3.4302130">
        <ele>737.0</ele>
        <time>2020-09-29T15:50:23Z</time>
      </trkpt>
      <trkpt lat="40.8639280" lon="-3.4304320">
        <ele>737.0</ele>
        <time>2020-09-29T15:50:24Z</time>
      </trkpt>
      <trkpt lat="40.8639350" lon="-3.4305400">
        <ele>737.0</ele>
        <time>2020-09-29T15:50:25Z</time>
      </trkpt>
      <trkpt lat="40.8639350" lon="-3.4305400">
        <ele>737.0</ele>
        <time>2020-09-29T15:50:26Z</time>
      </trkpt>
      <trkpt lat="40.8639450" lon="-3.4307570">
        <ele>737.0</ele>
        <time>2020-09-29T15:50:27Z</time>
      </trkpt>
      <trkpt lat="40.8639480" lon="-3.4308630">
        <ele>737.0</ele>
        <time>2020-09-29T15:50:28Z</time>
      </trkpt>
      <trkpt lat="40.8639480" lon="-3.4308630">
        <ele>737.0</ele>
        <time>2020-09-29T15:50:29Z</time>
      </trkpt>
      <trkpt lat="40.8639570" lon="-3.4310770">
        <ele>737.0</ele>
        <time>2020-09-29T15:50:30Z</time>
      </trkpt>
      <trkpt lat="40.8639630" lon="-3.4311820">
        <ele>737.0</ele>
        <time>2020-09-29T15:50:31Z</time>
      </trkpt>
      <trkpt lat="40.8639630" lon="-3.4311820">
        <ele>737.0</ele>
        <time>2020-09-29T15:50:32Z</time>
      </trkpt>
      <trkpt lat="40.8639800" lon="-3.4313930">
        <ele>737.0</ele>
        <time>2020-09-29T15:50:33Z</time>
      </trkpt>
      <trkpt lat="40.8639800" lon="-3.4313930">
        <ele>736.0</ele>
        <time>2020-09-29T15:50:34Z</time>
      </trkpt>
      <trkpt lat="40.8639950" lon="-3.4316070">
        <ele>736.0</ele>
        <time>2020-09-29T15:50:35Z</time>
      </trkpt>
      <trkpt lat="40.8640030" lon="-3.4317130">
        <ele>736.0</ele>
        <time>2020-09-29T15:50:36Z</time>
      </trkpt>
      <trkpt lat="40.8640030" lon="-3.4317130">
        <ele>736.0</ele>
        <time>2020-09-29T15:50:37Z</time>
      </trkpt>
      <trkpt lat="40.8640130" lon="-3.4319280">
        <ele>735.0</ele>
        <time>2020-09-29T15:50:38Z</time>
      </trkpt>
      <trkpt lat="40.8640130" lon="-3.4319280">
        <ele>735.0</ele>
        <time>2020-09-29T15:50:39Z</time>
      </trkpt>
      <trkpt lat="40.8640250" lon="-3.4321450">
        <ele>735.0</ele>
        <time>2020-09-29T15:50:40Z</time>
      </trkpt>
      <trkpt lat="40.8640300" lon="-3.4322520">
        <ele>735.0</ele>
        <time>2020-09-29T15:50:41Z</time>
      </trkpt>
      <trkpt lat="40.8640300" lon="-3.4322520">
        <ele>735.0</ele>
        <time>2020-09-29T15:50:42Z</time>
      </trkpt>
      <trkpt lat="40.8640430" lon="-3.4324670">
        <ele>735.0</ele>
        <time>2020-09-29T15:50:43Z</time>
      </trkpt>
      <trkpt lat="40.8640500" lon="-3.4325750">
        <ele>735.0</ele>
        <time>2020-09-29T15:50:44Z</time>
      </trkpt>
      <trkpt lat="40.8640500" lon="-3.4325750">
        <ele>735.0</ele>
        <time>2020-09-29T15:50:45Z</time>
      </trkpt>
      <trkpt lat="40.8640620" lon="-3.4327900">
        <ele>734.0</ele>
        <time>2020-09-29T15:50:46Z</time>
      </trkpt>
      <trkpt lat="40.8640680" lon="-3.4328970">
        <ele>734.0</ele>
        <time>2020-09-29T15:50:47Z</time>
      </trkpt>
      <trkpt lat="40.8640680" lon="-3.4328970">
        <ele>734.0</ele>
        <time>2020-09-29T15:50:48Z</time>
      </trkpt>
      <trkpt lat="40.8640800" lon="-3.4331080">
        <ele>734.0</ele>
        <time>2020-09-29T15:50:49Z</time>
      </trkpt>
      <trkpt lat="40.8640800" lon="-3.4331080">
        <ele>734.0</ele>
        <time>2020-09-29T15:50:50Z</time>
      </trkpt>
      <trkpt lat="40.8640900" lon="-3.4333220">
        <ele>734.0</ele>
        <time>2020-09-29T15:50:51Z</time>
      </trkpt>
      <trkpt lat="40.8640970" lon="-3.4334280">
        <ele>734.0</ele>
        <time>2020-09-29T15:50:52Z</time>
      </trkpt>
      <trkpt lat="40.8640970" lon="-3.4334280">
        <ele>733.0</ele>
        <time>2020-09-29T15:50:53Z</time>
      </trkpt>
      <trkpt lat="40.8641070" lon="-3.4336370">
        <ele>733.0</ele>
        <time>2020-09-29T15:50:54Z</time>
      </trkpt>
      <trkpt lat="40.8641070" lon="-3.4336370">
        <ele>733.0</ele>
        <time>2020-09-29T15:50:55Z</time>
      </trkpt>
      <trkpt lat="40.8641180" lon="-3.4338480">
        <ele>733.0</ele>
        <time>2020-09-29T15:50:56Z</time>
      </trkpt>
      <trkpt lat="40.8641180" lon="-3.4338480">
        <ele>733.0</ele>
        <time>2020-09-29T15:50:57Z</time>
      </trkpt>
      <trkpt lat="40.8641350" lon="-3.4340530">
        <ele>733.0</ele>
        <time>2020-09-29T15:50:58Z</time>
      </trkpt>
      <trkpt lat="40.8641470" lon="-3.4341570">
        <ele>733.0</ele>
        <time>2020-09-29T15:50:59Z</time>
      </trkpt>
      <trkpt lat="40.8641470" lon="-3.4341570">
        <ele>733.0</ele>
        <time>2020-09-29T15:51:00Z</time>
      </trkpt>
      <trkpt lat="40.8641770" lon="-3.4343570">
        <ele>733.0</ele>
        <time>2020-09-29T15:51:01Z</time>
      </trkpt>
      <trkpt lat="40.8641770" lon="-3.4343570">
        <ele>733.0</ele>
        <time>2020-09-29T15:51:02Z</time>
      </trkpt>
      <trkpt lat="40.8642120" lon="-3.4345550">
        <ele>733.0</ele>
        <time>2020-09-29T15:51:03Z</time>
      </trkpt>
      <trkpt lat="40.8642120" lon="-3.4345550">
        <ele>733.0</ele>
        <time>2020-09-29T15:51:04Z</time>
      </trkpt>
      <trkpt lat="40.8642500" lon="-3.4347430">
        <ele>733.0</ele>
        <time>2020-09-29T15:51:05Z</time>
      </trkpt>
      <trkpt lat="40.8642500" lon="-3.4347430">
        <ele>733.0</ele>
        <time>2020-09-29T15:51:06Z</time>
      </trkpt>
      <trkpt lat="40.8642930" lon="-3.4349230">
        <ele>733.0</ele>
        <time>2020-09-29T15:51:07Z</time>
      </trkpt>
      <trkpt lat="40.8643180" lon="-3.4350120">
        <ele>733.0</ele>
        <time>2020-09-29T15:51:08Z</time>
      </trkpt>
      <trkpt lat="40.8643180" lon="-3.4350120">
        <ele>733.0</ele>
        <time>2020-09-29T15:51:09Z</time>
      </trkpt>
      <trkpt lat="40.8643730" lon="-3.4351850">
        <ele>733.0</ele>
        <time>2020-09-29T15:51:10Z</time>
      </trkpt>
      <trkpt lat="40.8643730" lon="-3.4351850">
        <ele>733.0</ele>
        <time>2020-09-29T15:51:11Z</time>
      </trkpt>
      <trkpt lat="40.8644350" lon="-3.4353470">
        <ele>733.0</ele>
        <time>2020-09-29T15:51:12Z</time>
      </trkpt>
      <trkpt lat="40.8644720" lon="-3.4354250">
        <ele>733.0</ele>
        <time>2020-09-29T15:51:13Z</time>
      </trkpt>
      <trkpt lat="40.8644720" lon="-3.4354250">
        <ele>733.0</ele>
        <time>2020-09-29T15:51:14Z</time>
      </trkpt>
      <trkpt lat="40.8645430" lon="-3.4355780">
        <ele>733.0</ele>
        <time>2020-09-29T15:51:15Z</time>
      </trkpt>
      <trkpt lat="40.8645800" lon="-3.4356530">
        <ele>733.0</ele>
        <time>2020-09-29T15:51:16Z</time>
      </trkpt>
      <trkpt lat="40.8645800" lon="-3.4356530">
        <ele>733.0</ele>
        <time>2020-09-29T15:51:17Z</time>
      </trkpt>
      <trkpt lat="40.8646570" lon="-3.4357950">
        <ele>733.0</ele>
        <time>2020-09-29T15:51:18Z</time>
      </trkpt>
      <trkpt lat="40.8646930" lon="-3.4358650">
        <ele>733.0</ele>
        <time>2020-09-29T15:51:19Z</time>
      </trkpt>
      <trkpt lat="40.8646930" lon="-3.4358650">
        <ele>733.0</ele>
        <time>2020-09-29T15:51:20Z</time>
      </trkpt>
      <trkpt lat="40.8647670" lon="-3.4360000">
        <ele>733.0</ele>
        <time>2020-09-29T15:51:21Z</time>
      </trkpt>
      <trkpt lat="40.8647670" lon="-3.4360000">
        <ele>733.0</ele>
        <time>2020-09-29T15:51:22Z</time>
      </trkpt>
      <trkpt lat="40.8648400" lon="-3.4361380">
        <ele>733.0</ele>
        <time>2020-09-29T15:51:23Z</time>
      </trkpt>
      <trkpt lat="40.8648770" lon="-3.4362080">
        <ele>733.0</ele>
        <time>2020-09-29T15:51:24Z</time>
      </trkpt>
      <trkpt lat="40.8648770" lon="-3.4362080">
        <ele>733.0</ele>
        <time>2020-09-29T15:51:25Z</time>
      </trkpt>
      <trkpt lat="40.8649500" lon="-3.4363430">
        <ele>733.0</ele>
        <time>2020-09-29T15:51:26Z</time>
      </trkpt>
      <trkpt lat="40.8649500" lon="-3.4363430">
        <ele>733.0</ele>
        <time>2020-09-29T15:51:27Z</time>
      </trkpt>
      <trkpt lat="40.8650200" lon="-3.4364770">
        <ele>733.0</ele>
        <time>2020-09-29T15:51:28Z</time>
      </trkpt>
      <trkpt lat="40.8650200" lon="-3.4364770">
        <ele>734.0</ele>
        <time>2020-09-29T15:51:29Z</time>
      </trkpt>
      <trkpt lat="40.8650900" lon="-3.4366120">
        <ele>734.0</ele>
        <time>2020-09-29T15:51:30Z</time>
      </trkpt>
      <trkpt lat="40.8650900" lon="-3.4366120">
        <ele>734.0</ele>
        <time>2020-09-29T15:51:31Z</time>
      </trkpt>
      <trkpt lat="40.8651620" lon="-3.4367420">
        <ele>734.0</ele>
        <time>2020-09-29T15:51:32Z</time>
      </trkpt>
      <trkpt lat="40.8651620" lon="-3.4367420">
        <ele>734.0</ele>
        <time>2020-09-29T15:51:33Z</time>
      </trkpt>
      <trkpt lat="40.8652300" lon="-3.4368780">
        <ele>734.0</ele>
        <time>2020-09-29T15:51:34Z</time>
      </trkpt>
      <trkpt lat="40.8652650" lon="-3.4369470">
        <ele>734.0</ele>
        <time>2020-09-29T15:51:35Z</time>
      </trkpt>
      <trkpt lat="40.8652650" lon="-3.4369470">
        <ele>734.0</ele>
        <time>2020-09-29T15:51:36Z</time>
      </trkpt>
      <trkpt lat="40.8653370" lon="-3.4370830">
        <ele>734.0</ele>
        <time>2020-09-29T15:51:37Z</time>
      </trkpt>
      <trkpt lat="40.8653370" lon="-3.4370830">
        <ele>734.0</ele>
        <time>2020-09-29T15:51:38Z</time>
      </trkpt>
      <trkpt lat="40.8654120" lon="-3.4372130">
        <ele>734.0</ele>
        <time>2020-09-29T15:51:39Z</time>
      </trkpt>
      <trkpt lat="40.8654470" lon="-3.4372800">
        <ele>734.0</ele>
        <time>2020-09-29T15:51:40Z</time>
      </trkpt>
      <trkpt lat="40.8654470" lon="-3.4372800">
        <ele>734.0</ele>
        <time>2020-09-29T15:51:41Z</time>
      </trkpt>
      <trkpt lat="40.8655180" lon="-3.4374130">
        <ele>734.0</ele>
        <time>2020-09-29T15:51:42Z</time>
      </trkpt>
      <trkpt lat="40.8655180" lon="-3.4374130">
        <ele>734.0</ele>
        <time>2020-09-29T15:51:43Z</time>
      </trkpt>
      <trkpt lat="40.8655880" lon="-3.4375430">
        <ele>734.0</ele>
        <time>2020-09-29T15:51:44Z</time>
      </trkpt>
      <trkpt lat="40.8655880" lon="-3.4375430">
        <ele>734.0</ele>
        <time>2020-09-29T15:51:45Z</time>
      </trkpt>
      <trkpt lat="40.8656620" lon="-3.4376670">
        <ele>734.0</ele>
        <time>2020-09-29T15:51:46Z</time>
      </trkpt>
      <trkpt lat="40.8656950" lon="-3.4377320">
        <ele>734.0</ele>
        <time>2020-09-29T15:51:47Z</time>
      </trkpt>
      <trkpt lat="40.8656950" lon="-3.4377320">
        <ele>734.0</ele>
        <time>2020-09-29T15:51:48Z</time>
      </trkpt>
      <trkpt lat="40.8657650" lon="-3.4378620">
        <ele>734.0</ele>
        <time>2020-09-29T15:51:49Z</time>
      </trkpt>
      <trkpt lat="40.8658000" lon="-3.4379250">
        <ele>734.0</ele>
        <time>2020-09-29T15:51:50Z</time>
      </trkpt>
      <trkpt lat="40.8658000" lon="-3.4379250">
        <ele>734.0</ele>
        <time>2020-09-29T15:51:51Z</time>
      </trkpt>
      <trkpt lat="40.8658700" lon="-3.4380520">
        <ele>734.0</ele>
        <time>2020-09-29T15:51:52Z</time>
      </trkpt>
      <trkpt lat="40.8659030" lon="-3.4381150">
        <ele>734.0</ele>
        <time>2020-09-29T15:51:53Z</time>
      </trkpt>
      <trkpt lat="40.8659030" lon="-3.4381150">
        <ele>734.0</ele>
        <time>2020-09-29T15:51:54Z</time>
      </trkpt>
      <trkpt lat="40.8659720" lon="-3.4382450">
        <ele>734.0</ele>
        <time>2020-09-29T15:51:55Z</time>
      </trkpt>
      <trkpt lat="40.8660070" lon="-3.4383080">
        <ele>735.0</ele>
        <time>2020-09-29T15:51:56Z</time>
      </trkpt>
      <trkpt lat="40.8660070" lon="-3.4383080">
        <ele>735.0</ele>
        <time>2020-09-29T15:51:57Z</time>
      </trkpt>
      <trkpt lat="40.8660770" lon="-3.4384380">
        <ele>735.0</ele>
        <time>2020-09-29T15:51:58Z</time>
      </trkpt>
      <trkpt lat="40.8660770" lon="-3.4384380">
        <ele>735.0</ele>
        <time>2020-09-29T15:51:59Z</time>
      </trkpt>
      <trkpt lat="40.8661500" lon="-3.4385680">
        <ele>735.0</ele>
        <time>2020-09-29T15:52:00Z</time>
      </trkpt>
      <trkpt lat="40.8661500" lon="-3.4385680">
        <ele>735.0</ele>
        <time>2020-09-29T15:52:01Z</time>
      </trkpt>
      <trkpt lat="40.8662230" lon="-3.4387020">
        <ele>735.0</ele>
        <time>2020-09-29T15:52:02Z</time>
      </trkpt>
      <trkpt lat="40.8662600" lon="-3.4387680">
        <ele>735.0</ele>
        <time>2020-09-29T15:52:03Z</time>
      </trkpt>
      <trkpt lat="40.8662980" lon="-3.4388350">
        <ele>735.0</ele>
        <time>2020-09-29T15:52:04Z</time>
      </trkpt>
      <trkpt lat="40.8662980" lon="-3.4388350">
        <ele>735.0</ele>
        <time>2020-09-29T15:52:05Z</time>
      </trkpt>
      <trkpt lat="40.8663800" lon="-3.4389680">
        <ele>735.0</ele>
        <time>2020-09-29T15:52:06Z</time>
      </trkpt>
      <trkpt lat="40.8664220" lon="-3.4390350">
        <ele>735.0</ele>
        <time>2020-09-29T15:52:07Z</time>
      </trkpt>
      <trkpt lat="40.8664650" lon="-3.4391050">
        <ele>735.0</ele>
        <time>2020-09-29T15:52:08Z</time>
      </trkpt>
      <trkpt lat="40.8664650" lon="-3.4391050">
        <ele>735.0</ele>
        <time>2020-09-29T15:52:09Z</time>
      </trkpt>
      <trkpt lat="40.8665530" lon="-3.4392370">
        <ele>735.0</ele>
        <time>2020-09-29T15:52:10Z</time>
      </trkpt>
      <trkpt lat="40.8666000" lon="-3.4393020">
        <ele>735.0</ele>
        <time>2020-09-29T15:52:11Z</time>
      </trkpt>
      <trkpt lat="40.8666000" lon="-3.4393020">
        <ele>735.0</ele>
        <time>2020-09-29T15:52:12Z</time>
      </trkpt>
      <trkpt lat="40.8666920" lon="-3.4394300">
        <ele>735.0</ele>
        <time>2020-09-29T15:52:13Z</time>
      </trkpt>
      <trkpt lat="40.8667380" lon="-3.4394950">
        <ele>735.0</ele>
        <time>2020-09-29T15:52:14Z</time>
      </trkpt>
      <trkpt lat="40.8667380" lon="-3.4394950">
        <ele>735.0</ele>
        <time>2020-09-29T15:52:15Z</time>
      </trkpt>
      <trkpt lat="40.8668350" lon="-3.4396270">
        <ele>735.0</ele>
        <time>2020-09-29T15:52:16Z</time>
      </trkpt>
      <trkpt lat="40.8668350" lon="-3.4396270">
        <ele>735.0</ele>
        <time>2020-09-29T15:52:17Z</time>
      </trkpt>
      <trkpt lat="40.8669350" lon="-3.4397550">
        <ele>735.0</ele>
        <time>2020-09-29T15:52:18Z</time>
      </trkpt>
      <trkpt lat="40.8669850" lon="-3.4398180">
        <ele>735.0</ele>
        <time>2020-09-29T15:52:19Z</time>
      </trkpt>
      <trkpt lat="40.8669850" lon="-3.4398180">
        <ele>735.0</ele>
        <time>2020-09-29T15:52:20Z</time>
      </trkpt>
      <trkpt lat="40.8670880" lon="-3.4399500">
        <ele>734.0</ele>
        <time>2020-09-29T15:52:21Z</time>
      </trkpt>
      <trkpt lat="40.8670880" lon="-3.4399500">
        <ele>734.0</ele>
        <time>2020-09-29T15:52:22Z</time>
      </trkpt>
      <trkpt lat="40.8671830" lon="-3.4400930">
        <ele>734.0</ele>
        <time>2020-09-29T15:52:23Z</time>
      </trkpt>
      <trkpt lat="40.8671830" lon="-3.4400930">
        <ele>734.0</ele>
        <time>2020-09-29T15:52:24Z</time>
      </trkpt>
      <trkpt lat="40.8672870" lon="-3.4402330">
        <ele>734.0</ele>
        <time>2020-09-29T15:52:25Z</time>
      </trkpt>
      <trkpt lat="40.8673400" lon="-3.4403070">
        <ele>734.0</ele>
        <time>2020-09-29T15:52:26Z</time>
      </trkpt>
      <trkpt lat="40.8673400" lon="-3.4403070">
        <ele>734.0</ele>
        <time>2020-09-29T15:52:27Z</time>
      </trkpt>
      <trkpt lat="40.8674480" lon="-3.4404550">
        <ele>734.0</ele>
        <time>2020-09-29T15:52:28Z</time>
      </trkpt>
      <trkpt lat="40.8674480" lon="-3.4404550">
        <ele>734.0</ele>
        <time>2020-09-29T15:52:29Z</time>
      </trkpt>
      <trkpt lat="40.8675550" lon="-3.4406030">
        <ele>734.0</ele>
        <time>2020-09-29T15:52:30Z</time>
      </trkpt>
      <trkpt lat="40.8675550" lon="-3.4406030">
        <ele>732.0</ele>
        <time>2020-09-29T15:52:31Z</time>
      </trkpt>
      <trkpt lat="40.8676650" lon="-3.4407500">
        <ele>732.0</ele>
        <time>2020-09-29T15:52:32Z</time>
      </trkpt>
      <trkpt lat="40.8676650" lon="-3.4407500">
        <ele>732.0</ele>
        <time>2020-09-29T15:52:33Z</time>
      </trkpt>
      <trkpt lat="40.8677730" lon="-3.4409030">
        <ele>732.0</ele>
        <time>2020-09-29T15:52:34Z</time>
      </trkpt>
      <trkpt lat="40.8678270" lon="-3.4409770">
        <ele>732.0</ele>
        <time>2020-09-29T15:52:35Z</time>
      </trkpt>
      <trkpt lat="40.8678270" lon="-3.4409770">
        <ele>732.0</ele>
        <time>2020-09-29T15:52:36Z</time>
      </trkpt>
      <trkpt lat="40.8679400" lon="-3.4411220">
        <ele>732.0</ele>
        <time>2020-09-29T15:52:37Z</time>
      </trkpt>
      <trkpt lat="40.8680000" lon="-3.4411920">
        <ele>732.0</ele>
        <time>2020-09-29T15:52:38Z</time>
      </trkpt>
      <trkpt lat="40.8680000" lon="-3.4411920">
        <ele>731.0</ele>
        <time>2020-09-29T15:52:39Z</time>
      </trkpt>
      <trkpt lat="40.8681230" lon="-3.4413250">
        <ele>731.0</ele>
        <time>2020-09-29T15:52:40Z</time>
      </trkpt>
      <trkpt lat="40.8681880" lon="-3.4413870">
        <ele>731.0</ele>
        <time>2020-09-29T15:52:41Z</time>
      </trkpt>
      <trkpt lat="40.8681880" lon="-3.4413870">
        <ele>731.0</ele>
        <time>2020-09-29T15:52:42Z</time>
      </trkpt>
      <trkpt lat="40.8683220" lon="-3.4415000">
        <ele>730.0</ele>
        <time>2020-09-29T15:52:43Z</time>
      </trkpt>
      <trkpt lat="40.8683880" lon="-3.4415550">
        <ele>730.0</ele>
        <time>2020-09-29T15:52:44Z</time>
      </trkpt>
      <trkpt lat="40.8683880" lon="-3.4415550">
        <ele>730.0</ele>
        <time>2020-09-29T15:52:45Z</time>
      </trkpt>
      <trkpt lat="40.8685230" lon="-3.4416720">
        <ele>730.0</ele>
        <time>2020-09-29T15:52:46Z</time>
      </trkpt>
      <trkpt lat="40.8685230" lon="-3.4416720">
        <ele>730.0</ele>
        <time>2020-09-29T15:52:47Z</time>
      </trkpt>
      <trkpt lat="40.8686580" lon="-3.4417850">
        <ele>730.0</ele>
        <time>2020-09-29T15:52:48Z</time>
      </trkpt>
      <trkpt lat="40.8686580" lon="-3.4417850">
        <ele>729.0</ele>
        <time>2020-09-29T15:52:49Z</time>
      </trkpt>
      <trkpt lat="40.8687970" lon="-3.4419030">
        <ele>729.0</ele>
        <time>2020-09-29T15:52:50Z</time>
      </trkpt>
      <trkpt lat="40.8687970" lon="-3.4419030">
        <ele>729.0</ele>
        <time>2020-09-29T15:52:51Z</time>
      </trkpt>
      <trkpt lat="40.8689380" lon="-3.4420250">
        <ele>729.0</ele>
        <time>2020-09-29T15:52:52Z</time>
      </trkpt>
      <trkpt lat="40.8690100" lon="-3.4420870">
        <ele>729.0</ele>
        <time>2020-09-29T15:52:53Z</time>
      </trkpt>
      <trkpt lat="40.8690100" lon="-3.4420870">
        <ele>729.0</ele>
        <time>2020-09-29T15:52:54Z</time>
      </trkpt>
      <trkpt lat="40.8691530" lon="-3.4422100">
        <ele>729.0</ele>
        <time>2020-09-29T15:52:55Z</time>
      </trkpt>
      <trkpt lat="40.8691530" lon="-3.4422100">
        <ele>728.0</ele>
        <time>2020-09-29T15:52:56Z</time>
      </trkpt>
      <trkpt lat="40.8692970" lon="-3.4423330">
        <ele>728.0</ele>
        <time>2020-09-29T15:52:57Z</time>
      </trkpt>
      <trkpt lat="40.8692970" lon="-3.4423330">
        <ele>728.0</ele>
        <time>2020-09-29T15:52:58Z</time>
      </trkpt>
      <trkpt lat="40.8694420" lon="-3.4424520">
        <ele>728.0</ele>
        <time>2020-09-29T15:52:59Z</time>
      </trkpt>
      <trkpt lat="40.8694420" lon="-3.4424520">
        <ele>727.0</ele>
        <time>2020-09-29T15:53:00Z</time>
      </trkpt>
      <trkpt lat="40.8695820" lon="-3.4425750">
        <ele>727.0</ele>
        <time>2020-09-29T15:53:01Z</time>
      </trkpt>
      <trkpt lat="40.8696520" lon="-3.4426350">
        <ele>727.0</ele>
        <time>2020-09-29T15:53:02Z</time>
      </trkpt>
      <trkpt lat="40.8696520" lon="-3.4426350">
        <ele>727.0</ele>
        <time>2020-09-29T15:53:03Z</time>
      </trkpt>
      <trkpt lat="40.8697880" lon="-3.4427580">
        <ele>727.0</ele>
        <time>2020-09-29T15:53:04Z</time>
      </trkpt>
      <trkpt lat="40.8698580" lon="-3.4428200">
        <ele>727.0</ele>
        <time>2020-09-29T15:53:05Z</time>
      </trkpt>
      <trkpt lat="40.8698580" lon="-3.4428200">
        <ele>727.0</ele>
        <time>2020-09-29T15:53:06Z</time>
      </trkpt>
      <trkpt lat="40.8699950" lon="-3.4429370">
        <ele>727.0</ele>
        <time>2020-09-29T15:53:07Z</time>
      </trkpt>
      <trkpt lat="40.8699950" lon="-3.4429370">
        <ele>727.0</ele>
        <time>2020-09-29T15:53:08Z</time>
      </trkpt>
      <trkpt lat="40.8701320" lon="-3.4430530">
        <ele>727.0</ele>
        <time>2020-09-29T15:53:09Z</time>
      </trkpt>
      <trkpt lat="40.8702020" lon="-3.4431120">
        <ele>727.0</ele>
        <time>2020-09-29T15:53:10Z</time>
      </trkpt>
      <trkpt lat="40.8702020" lon="-3.4431120">
        <ele>727.0</ele>
        <time>2020-09-29T15:53:11Z</time>
      </trkpt>
      <trkpt lat="40.8703380" lon="-3.4432280">
        <ele>727.0</ele>
        <time>2020-09-29T15:53:12Z</time>
      </trkpt>
      <trkpt lat="40.8704070" lon="-3.4432870">
        <ele>727.0</ele>
        <time>2020-09-29T15:53:13Z</time>
      </trkpt>
      <trkpt lat="40.8704070" lon="-3.4432870">
        <ele>727.0</ele>
        <time>2020-09-29T15:53:14Z</time>
      </trkpt>
      <trkpt lat="40.8705420" lon="-3.4434050">
        <ele>727.0</ele>
        <time>2020-09-29T15:53:15Z</time>
      </trkpt>
      <trkpt lat="40.8706080" lon="-3.4434650">
        <ele>727.0</ele>
        <time>2020-09-29T15:53:16Z</time>
      </trkpt>
      <trkpt lat="40.8706080" lon="-3.4434650">
        <ele>727.0</ele>
        <time>2020-09-29T15:53:17Z</time>
      </trkpt>
      <trkpt lat="40.8707500" lon="-3.4435720">
        <ele>727.0</ele>
        <time>2020-09-29T15:53:18Z</time>
      </trkpt>
      <trkpt lat="40.8707500" lon="-3.4435720">
        <ele>727.0</ele>
        <time>2020-09-29T15:53:19Z</time>
      </trkpt>
      <trkpt lat="40.8708900" lon="-3.4436850">
        <ele>727.0</ele>
        <time>2020-09-29T15:53:20Z</time>
      </trkpt>
      <trkpt lat="40.8708900" lon="-3.4436850">
        <ele>727.0</ele>
        <time>2020-09-29T15:53:21Z</time>
      </trkpt>
      <trkpt lat="40.8710280" lon="-3.4438020">
        <ele>727.0</ele>
        <time>2020-09-29T15:53:22Z</time>
      </trkpt>
      <trkpt lat="40.8710970" lon="-3.4438620">
        <ele>727.0</ele>
        <time>2020-09-29T15:53:23Z</time>
      </trkpt>
      <trkpt lat="40.8710970" lon="-3.4438620">
        <ele>726.0</ele>
        <time>2020-09-29T15:53:24Z</time>
      </trkpt>
      <trkpt lat="40.8712330" lon="-3.4439830">
        <ele>726.0</ele>
        <time>2020-09-29T15:53:25Z</time>
      </trkpt>
      <trkpt lat="40.8713030" lon="-3.4440420">
        <ele>726.0</ele>
        <time>2020-09-29T15:53:26Z</time>
      </trkpt>
      <trkpt lat="40.8713030" lon="-3.4440420">
        <ele>726.0</ele>
        <time>2020-09-29T15:53:27Z</time>
      </trkpt>
      <trkpt lat="40.8714420" lon="-3.4441600">
        <ele>726.0</ele>
        <time>2020-09-29T15:53:28Z</time>
      </trkpt>
      <trkpt lat="40.8714420" lon="-3.4441600">
        <ele>725.0</ele>
        <time>2020-09-29T15:53:29Z</time>
      </trkpt>
      <trkpt lat="40.8715800" lon="-3.4442770">
        <ele>725.0</ele>
        <time>2020-09-29T15:53:30Z</time>
      </trkpt>
      <trkpt lat="40.8715800" lon="-3.4442770">
        <ele>725.0</ele>
        <time>2020-09-29T15:53:31Z</time>
      </trkpt>
      <trkpt lat="40.8717170" lon="-3.4443920">
        <ele>725.0</ele>
        <time>2020-09-29T15:53:32Z</time>
      </trkpt>
      <trkpt lat="40.8717170" lon="-3.4443920">
        <ele>725.0</ele>
        <time>2020-09-29T15:53:33Z</time>
      </trkpt>
      <trkpt lat="40.8718530" lon="-3.4445070">
        <ele>725.0</ele>
        <time>2020-09-29T15:53:34Z</time>
      </trkpt>
      <trkpt lat="40.8719220" lon="-3.4445680">
        <ele>725.0</ele>
        <time>2020-09-29T15:53:35Z</time>
      </trkpt>
      <trkpt lat="40.8719220" lon="-3.4445680">
        <ele>725.0</ele>
        <time>2020-09-29T15:53:36Z</time>
      </trkpt>
      <trkpt lat="40.8720550" lon="-3.4446900">
        <ele>725.0</ele>
        <time>2020-09-29T15:53:37Z</time>
      </trkpt>
      <trkpt lat="40.8721230" lon="-3.4447470">
        <ele>725.0</ele>
        <time>2020-09-29T15:53:38Z</time>
      </trkpt>
      <trkpt lat="40.8721230" lon="-3.4447470">
        <ele>724.0</ele>
        <time>2020-09-29T15:53:39Z</time>
      </trkpt>
      <trkpt lat="40.8722620" lon="-3.4448630">
        <ele>724.0</ele>
        <time>2020-09-29T15:53:40Z</time>
      </trkpt>
      <trkpt lat="40.8723280" lon="-3.4449230">
        <ele>724.0</ele>
        <time>2020-09-29T15:53:41Z</time>
      </trkpt>
      <trkpt lat="40.8723280" lon="-3.4449230">
        <ele>724.0</ele>
        <time>2020-09-29T15:53:42Z</time>
      </trkpt>
      <trkpt lat="40.8724620" lon="-3.4450430">
        <ele>724.0</ele>
        <time>2020-09-29T15:53:43Z</time>
      </trkpt>
      <trkpt lat="40.8725250" lon="-3.4451000">
        <ele>724.0</ele>
        <time>2020-09-29T15:53:44Z</time>
      </trkpt>
      <trkpt lat="40.8725250" lon="-3.4451000">
        <ele>724.0</ele>
        <time>2020-09-29T15:53:45Z</time>
      </trkpt>
      <trkpt lat="40.8726530" lon="-3.4452080">
        <ele>724.0</ele>
        <time>2020-09-29T15:53:46Z</time>
      </trkpt>
      <trkpt lat="40.8727170" lon="-3.4452600">
        <ele>724.0</ele>
        <time>2020-09-29T15:53:47Z</time>
      </trkpt>
      <trkpt lat="40.8727780" lon="-3.4453120">
        <ele>723.0</ele>
        <time>2020-09-29T15:53:48Z</time>
      </trkpt>
      <trkpt lat="40.8727780" lon="-3.4453120">
        <ele>723.0</ele>
        <time>2020-09-29T15:53:49Z</time>
      </trkpt>
      <trkpt lat="40.8728970" lon="-3.4454220">
        <ele>723.0</ele>
        <time>2020-09-29T15:53:50Z</time>
      </trkpt>
      <trkpt lat="40.8728970" lon="-3.4454220">
        <ele>723.0</ele>
        <time>2020-09-29T15:53:51Z</time>
      </trkpt>
      <trkpt lat="40.8730200" lon="-3.4455230">
        <ele>723.0</ele>
        <time>2020-09-29T15:53:52Z</time>
      </trkpt>
      <trkpt lat="40.8730830" lon="-3.4455750">
        <ele>723.0</ele>
        <time>2020-09-29T15:53:53Z</time>
      </trkpt>
      <trkpt lat="40.8730830" lon="-3.4455750">
        <ele>723.0</ele>
        <time>2020-09-29T15:53:54Z</time>
      </trkpt>
      <trkpt lat="40.8732080" lon="-3.4456830">
        <ele>723.0</ele>
        <time>2020-09-29T15:53:55Z</time>
      </trkpt>
      <trkpt lat="40.8732680" lon="-3.4457380">
        <ele>722.0</ele>
        <time>2020-09-29T15:53:56Z</time>
      </trkpt>
      <trkpt lat="40.8732680" lon="-3.4457380">
        <ele>722.0</ele>
        <time>2020-09-29T15:53:57Z</time>
      </trkpt>
      <trkpt lat="40.8733950" lon="-3.4458420">
        <ele>722.0</ele>
        <time>2020-09-29T15:53:58Z</time>
      </trkpt>
      <trkpt lat="40.8734580" lon="-3.4458950">
        <ele>722.0</ele>
        <time>2020-09-29T15:53:59Z</time>
      </trkpt>
      <trkpt lat="40.8734580" lon="-3.4458950">
        <ele>722.0</ele>
        <time>2020-09-29T15:54:00Z</time>
      </trkpt>
      <trkpt lat="40.8735830" lon="-3.4460020">
        <ele>722.0</ele>
        <time>2020-09-29T15:54:01Z</time>
      </trkpt>
      <trkpt lat="40.8735830" lon="-3.4460020">
        <ele>722.0</ele>
        <time>2020-09-29T15:54:02Z</time>
      </trkpt>
      <trkpt lat="40.8737100" lon="-3.4461100">
        <ele>722.0</ele>
        <time>2020-09-29T15:54:03Z</time>
      </trkpt>
      <trkpt lat="40.8737750" lon="-3.4461650">
        <ele>722.0</ele>
        <time>2020-09-29T15:54:04Z</time>
      </trkpt>
      <trkpt lat="40.8738400" lon="-3.4462200">
        <ele>722.0</ele>
        <time>2020-09-29T15:54:05Z</time>
      </trkpt>
      <trkpt lat="40.8738400" lon="-3.4462200">
        <ele>722.0</ele>
        <time>2020-09-29T15:54:06Z</time>
      </trkpt>
      <trkpt lat="40.8739680" lon="-3.4463350">
        <ele>722.0</ele>
        <time>2020-09-29T15:54:07Z</time>
      </trkpt>
      <trkpt lat="40.8740350" lon="-3.4463920">
        <ele>721.0</ele>
        <time>2020-09-29T15:54:08Z</time>
      </trkpt>
      <trkpt lat="40.8740350" lon="-3.4463920">
        <ele>721.0</ele>
        <time>2020-09-29T15:54:09Z</time>
      </trkpt>
      <trkpt lat="40.8741670" lon="-3.4465050">
        <ele>721.0</ele>
        <time>2020-09-29T15:54:10Z</time>
      </trkpt>
      <trkpt lat="40.8741670" lon="-3.4465050">
        <ele>721.0</ele>
        <time>2020-09-29T15:54:11Z</time>
      </trkpt>
      <trkpt lat="40.8742980" lon="-3.4466180">
        <ele>720.0</ele>
        <time>2020-09-29T15:54:12Z</time>
      </trkpt>
      <trkpt lat="40.8742980" lon="-3.4466180">
        <ele>720.0</ele>
        <time>2020-09-29T15:54:13Z</time>
      </trkpt>
      <trkpt lat="40.8744320" lon="-3.4467300">
        <ele>720.0</ele>
        <time>2020-09-29T15:54:14Z</time>
      </trkpt>
      <trkpt lat="40.8744320" lon="-3.4467300">
        <ele>720.0</ele>
        <time>2020-09-29T15:54:15Z</time>
      </trkpt>
      <trkpt lat="40.8745630" lon="-3.4468400">
        <ele>720.0</ele>
        <time>2020-09-29T15:54:16Z</time>
      </trkpt>
      <trkpt lat="40.8746320" lon="-3.4468950">
        <ele>720.0</ele>
        <time>2020-09-29T15:54:17Z</time>
      </trkpt>
      <trkpt lat="40.8746320" lon="-3.4468950">
        <ele>720.0</ele>
        <time>2020-09-29T15:54:18Z</time>
      </trkpt>
      <trkpt lat="40.8747630" lon="-3.4470120">
        <ele>720.0</ele>
        <time>2020-09-29T15:54:19Z</time>
      </trkpt>
      <trkpt lat="40.8747630" lon="-3.4470120">
        <ele>720.0</ele>
        <time>2020-09-29T15:54:20Z</time>
      </trkpt>
      <trkpt lat="40.8748970" lon="-3.4471200">
        <ele>720.0</ele>
        <time>2020-09-29T15:54:21Z</time>
      </trkpt>
      <trkpt lat="40.8749630" lon="-3.4471750">
        <ele>718.0</ele>
        <time>2020-09-29T15:54:22Z</time>
      </trkpt>
      <trkpt lat="40.8749630" lon="-3.4471750">
        <ele>718.0</ele>
        <time>2020-09-29T15:54:23Z</time>
      </trkpt>
      <trkpt lat="40.8750980" lon="-3.4472850">
        <ele>718.0</ele>
        <time>2020-09-29T15:54:24Z</time>
      </trkpt>
      <trkpt lat="40.8750980" lon="-3.4472850">
        <ele>718.0</ele>
        <time>2020-09-29T15:54:25Z</time>
      </trkpt>
      <trkpt lat="40.8752350" lon="-3.4473900">
        <ele>718.0</ele>
        <time>2020-09-29T15:54:26Z</time>
      </trkpt>
      <trkpt lat="40.8752350" lon="-3.4473900">
        <ele>718.0</ele>
        <time>2020-09-29T15:54:27Z</time>
      </trkpt>
      <trkpt lat="40.8753750" lon="-3.4475000">
        <ele>717.0</ele>
        <time>2020-09-29T15:54:28Z</time>
      </trkpt>
      <trkpt lat="40.8754450" lon="-3.4475570">
        <ele>717.0</ele>
        <time>2020-09-29T15:54:29Z</time>
      </trkpt>
      <trkpt lat="40.8754450" lon="-3.4475570">
        <ele>717.0</ele>
        <time>2020-09-29T15:54:30Z</time>
      </trkpt>
      <trkpt lat="40.8755830" lon="-3.4476700">
        <ele>717.0</ele>
        <time>2020-09-29T15:54:31Z</time>
      </trkpt>
      <trkpt lat="40.8755830" lon="-3.4476700">
        <ele>717.0</ele>
        <time>2020-09-29T15:54:32Z</time>
      </trkpt>
      <trkpt lat="40.8757220" lon="-3.4477770">
        <ele>717.0</ele>
        <time>2020-09-29T15:54:33Z</time>
      </trkpt>
      <trkpt lat="40.8757220" lon="-3.4477770">
        <ele>716.0</ele>
        <time>2020-09-29T15:54:34Z</time>
      </trkpt>
      <trkpt lat="40.8758570" lon="-3.4478830">
        <ele>716.0</ele>
        <time>2020-09-29T15:54:35Z</time>
      </trkpt>
      <trkpt lat="40.8759200" lon="-3.4479380">
        <ele>716.0</ele>
        <time>2020-09-29T15:54:36Z</time>
      </trkpt>
      <trkpt lat="40.8759200" lon="-3.4479380">
        <ele>716.0</ele>
        <time>2020-09-29T15:54:37Z</time>
      </trkpt>
      <trkpt lat="40.8760470" lon="-3.4480470">
        <ele>716.0</ele>
        <time>2020-09-29T15:54:38Z</time>
      </trkpt>
      <trkpt lat="40.8760470" lon="-3.4480470">
        <ele>716.0</ele>
        <time>2020-09-29T15:54:39Z</time>
      </trkpt>
      <trkpt lat="40.8761680" lon="-3.4481430">
        <ele>716.0</ele>
        <time>2020-09-29T15:54:40Z</time>
      </trkpt>
      <trkpt lat="40.8761680" lon="-3.4481430">
        <ele>716.0</ele>
        <time>2020-09-29T15:54:41Z</time>
      </trkpt>
      <trkpt lat="40.8762930" lon="-3.4482420">
        <ele>716.0</ele>
        <time>2020-09-29T15:54:42Z</time>
      </trkpt>
      <trkpt lat="40.8763530" lon="-3.4482900">
        <ele>716.0</ele>
        <time>2020-09-29T15:54:43Z</time>
      </trkpt>
      <trkpt lat="40.8763530" lon="-3.4482900">
        <ele>716.0</ele>
        <time>2020-09-29T15:54:44Z</time>
      </trkpt>
      <trkpt lat="40.8764650" lon="-3.4483830">
        <ele>716.0</ele>
        <time>2020-09-29T15:54:45Z</time>
      </trkpt>
      <trkpt lat="40.8765180" lon="-3.4484280">
        <ele>716.0</ele>
        <time>2020-09-29T15:54:46Z</time>
      </trkpt>
      <trkpt lat="40.8765180" lon="-3.4484280">
        <ele>716.0</ele>
        <time>2020-09-29T15:54:47Z</time>
      </trkpt>
      <trkpt lat="40.8766170" lon="-3.4485150">
        <ele>716.0</ele>
        <time>2020-09-29T15:54:48Z</time>
      </trkpt>
      <trkpt lat="40.8766720" lon="-3.4485550">
        <ele>716.0</ele>
        <time>2020-09-29T15:54:49Z</time>
      </trkpt>
      <trkpt lat="40.8766720" lon="-3.4485550">
        <ele>716.0</ele>
        <time>2020-09-29T15:54:50Z</time>
      </trkpt>
      <trkpt lat="40.8767970" lon="-3.4486650">
        <ele>716.0</ele>
        <time>2020-09-29T15:54:51Z</time>
      </trkpt>
      <trkpt lat="40.8767970" lon="-3.4486650">
        <ele>716.0</ele>
        <time>2020-09-29T15:54:52Z</time>
      </trkpt>
      <trkpt lat="40.8767970" lon="-3.4486650">
        <ele>716.0</ele>
        <time>2020-09-29T15:54:53Z</time>
      </trkpt>
      <trkpt lat="40.8768270" lon="-3.4487500">
        <ele>716.0</ele>
        <time>2020-09-29T15:54:54Z</time>
      </trkpt>
      <trkpt lat="40.8768270" lon="-3.4487500">
        <ele>716.0</ele>
        <time>2020-09-29T15:54:55Z</time>
      </trkpt>
      <trkpt lat="40.8768230" lon="-3.4488620">
        <ele>716.0</ele>
        <time>2020-09-29T15:54:56Z</time>
      </trkpt>
      <trkpt lat="40.8768230" lon="-3.4488620">
        <ele>716.0</ele>
        <time>2020-09-29T15:54:57Z</time>
      </trkpt>
      <trkpt lat="40.8767680" lon="-3.4489800">
        <ele>716.0</ele>
        <time>2020-09-29T15:54:58Z</time>
      </trkpt>
      <trkpt lat="40.8767370" lon="-3.4490480">
        <ele>716.0</ele>
        <time>2020-09-29T15:54:59Z</time>
      </trkpt>
      <trkpt lat="40.8767370" lon="-3.4490480">
        <ele>716.0</ele>
        <time>2020-09-29T15:55:00Z</time>
      </trkpt>
      <trkpt lat="40.8766700" lon="-3.4492070">
        <ele>716.0</ele>
        <time>2020-09-29T15:55:01Z</time>
      </trkpt>
      <trkpt lat="40.8766380" lon="-3.4492870">
        <ele>716.0</ele>
        <time>2020-09-29T15:55:02Z</time>
      </trkpt>
      <trkpt lat="40.8766380" lon="-3.4492870">
        <ele>716.0</ele>
        <time>2020-09-29T15:55:03Z</time>
      </trkpt>
      <trkpt lat="40.8765620" lon="-3.4494530">
        <ele>716.0</ele>
        <time>2020-09-29T15:55:04Z</time>
      </trkpt>
      <trkpt lat="40.8765170" lon="-3.4495320">
        <ele>716.0</ele>
        <time>2020-09-29T15:55:05Z</time>
      </trkpt>
      <trkpt lat="40.8765170" lon="-3.4495320">
        <ele>715.0</ele>
        <time>2020-09-29T15:55:06Z</time>
      </trkpt>
      <trkpt lat="40.8764320" lon="-3.4496930">
        <ele>715.0</ele>
        <time>2020-09-29T15:55:07Z</time>
      </trkpt>
      <trkpt lat="40.8763900" lon="-3.4497780">
        <ele>715.0</ele>
        <time>2020-09-29T15:55:08Z</time>
      </trkpt>
      <trkpt lat="40.8763900" lon="-3.4497780">
        <ele>715.0</ele>
        <time>2020-09-29T15:55:09Z</time>
      </trkpt>
      <trkpt lat="40.8763020" lon="-3.4499470">
        <ele>715.0</ele>
        <time>2020-09-29T15:55:10Z</time>
      </trkpt>
      <trkpt lat="40.8763020" lon="-3.4499470">
        <ele>715.0</ele>
        <time>2020-09-29T15:55:11Z</time>
      </trkpt>
      <trkpt lat="40.8762150" lon="-3.4501120">
        <ele>714.0</ele>
        <time>2020-09-29T15:55:12Z</time>
      </trkpt>
      <trkpt lat="40.8762150" lon="-3.4501120">
        <ele>714.0</ele>
        <time>2020-09-29T15:55:13Z</time>
      </trkpt>
      <trkpt lat="40.8761270" lon="-3.4502730">
        <ele>714.0</ele>
        <time>2020-09-29T15:55:14Z</time>
      </trkpt>
      <trkpt lat="40.8761270" lon="-3.4502730">
        <ele>714.0</ele>
        <time>2020-09-29T15:55:15Z</time>
      </trkpt>
      <trkpt lat="40.8760480" lon="-3.4504370">
        <ele>714.0</ele>
        <time>2020-09-29T15:55:16Z</time>
      </trkpt>
      <trkpt lat="40.8760480" lon="-3.4504370">
        <ele>714.0</ele>
        <time>2020-09-29T15:55:17Z</time>
      </trkpt>
      <trkpt lat="40.8759700" lon="-3.4505980">
        <ele>714.0</ele>
        <time>2020-09-29T15:55:18Z</time>
      </trkpt>
      <trkpt lat="40.8759300" lon="-3.4506780">
        <ele>714.0</ele>
        <time>2020-09-29T15:55:19Z</time>
      </trkpt>
      <trkpt lat="40.8758870" lon="-3.4507580">
        <ele>714.0</ele>
        <time>2020-09-29T15:55:20Z</time>
      </trkpt>
      <trkpt lat="40.8758870" lon="-3.4507580">
        <ele>714.0</ele>
        <time>2020-09-29T15:55:21Z</time>
      </trkpt>
      <trkpt lat="40.8758020" lon="-3.4509170">
        <ele>714.0</ele>
        <time>2020-09-29T15:55:22Z</time>
      </trkpt>
      <trkpt lat="40.8758020" lon="-3.4509170">
        <ele>714.0</ele>
        <time>2020-09-29T15:55:23Z</time>
      </trkpt>
      <trkpt lat="40.8757150" lon="-3.4510780">
        <ele>714.0</ele>
        <time>2020-09-29T15:55:24Z</time>
      </trkpt>
      <trkpt lat="40.8757150" lon="-3.4510780">
        <ele>714.0</ele>
        <time>2020-09-29T15:55:25Z</time>
      </trkpt>
      <trkpt lat="40.8756320" lon="-3.4512380">
        <ele>714.0</ele>
        <time>2020-09-29T15:55:26Z</time>
      </trkpt>
      <trkpt lat="40.8756320" lon="-3.4512380">
        <ele>714.0</ele>
        <time>2020-09-29T15:55:27Z</time>
      </trkpt>
      <trkpt lat="40.8755470" lon="-3.4513970">
        <ele>714.0</ele>
        <time>2020-09-29T15:55:28Z</time>
      </trkpt>
      <trkpt lat="40.8755100" lon="-3.4514730">
        <ele>714.0</ele>
        <time>2020-09-29T15:55:29Z</time>
      </trkpt>
      <trkpt lat="40.8755100" lon="-3.4514730">
        <ele>714.0</ele>
        <time>2020-09-29T15:55:30Z</time>
      </trkpt>
      <trkpt lat="40.8754300" lon="-3.4516370">
        <ele>714.0</ele>
        <time>2020-09-29T15:55:31Z</time>
      </trkpt>
      <trkpt lat="40.8754300" lon="-3.4516370">
        <ele>714.0</ele>
        <time>2020-09-29T15:55:32Z</time>
      </trkpt>
      <trkpt lat="40.8753480" lon="-3.4517980">
        <ele>714.0</ele>
        <time>2020-09-29T15:55:33Z</time>
      </trkpt>
      <trkpt lat="40.8753480" lon="-3.4517980">
        <ele>714.0</ele>
        <time>2020-09-29T15:55:34Z</time>
      </trkpt>
      <trkpt lat="40.8752620" lon="-3.4519500">
        <ele>714.0</ele>
        <time>2020-09-29T15:55:35Z</time>
      </trkpt>
      <trkpt lat="40.8752620" lon="-3.4519500">
        <ele>714.0</ele>
        <time>2020-09-29T15:55:36Z</time>
      </trkpt>
      <trkpt lat="40.8751770" lon="-3.4521030">
        <ele>714.0</ele>
        <time>2020-09-29T15:55:37Z</time>
      </trkpt>
      <trkpt lat="40.8751770" lon="-3.4521030">
        <ele>714.0</ele>
        <time>2020-09-29T15:55:38Z</time>
      </trkpt>
      <trkpt lat="40.8750950" lon="-3.4522630">
        <ele>713.0</ele>
        <time>2020-09-29T15:55:39Z</time>
      </trkpt>
      <trkpt lat="40.8750570" lon="-3.4523430">
        <ele>713.0</ele>
        <time>2020-09-29T15:55:40Z</time>
      </trkpt>
      <trkpt lat="40.8750570" lon="-3.4523430">
        <ele>713.0</ele>
        <time>2020-09-29T15:55:41Z</time>
      </trkpt>
      <trkpt lat="40.8749820" lon="-3.4525070">
        <ele>713.0</ele>
        <time>2020-09-29T15:55:42Z</time>
      </trkpt>
      <trkpt lat="40.8749450" lon="-3.4525900">
        <ele>713.0</ele>
        <time>2020-09-29T15:55:43Z</time>
      </trkpt>
      <trkpt lat="40.8749120" lon="-3.4526730">
        <ele>713.0</ele>
        <time>2020-09-29T15:55:44Z</time>
      </trkpt>
      <trkpt lat="40.8749120" lon="-3.4526730">
        <ele>713.0</ele>
        <time>2020-09-29T15:55:45Z</time>
      </trkpt>
      <trkpt lat="40.8748420" lon="-3.4528420">
        <ele>713.0</ele>
        <time>2020-09-29T15:55:46Z</time>
      </trkpt>
      <trkpt lat="40.8748000" lon="-3.4529270">
        <ele>713.0</ele>
        <time>2020-09-29T15:55:47Z</time>
      </trkpt>
      <trkpt lat="40.8748000" lon="-3.4529270">
        <ele>713.0</ele>
        <time>2020-09-29T15:55:48Z</time>
      </trkpt>
      <trkpt lat="40.8747250" lon="-3.4530880">
        <ele>713.0</ele>
        <time>2020-09-29T15:55:49Z</time>
      </trkpt>
      <trkpt lat="40.8746900" lon="-3.4531680">
        <ele>713.0</ele>
        <time>2020-09-29T15:55:50Z</time>
      </trkpt>
      <trkpt lat="40.8746900" lon="-3.4531680">
        <ele>713.0</ele>
        <time>2020-09-29T15:55:51Z</time>
      </trkpt>
      <trkpt lat="40.8746250" lon="-3.4533280">
        <ele>713.0</ele>
        <time>2020-09-29T15:55:52Z</time>
      </trkpt>
      <trkpt lat="40.8745970" lon="-3.4534080">
        <ele>713.0</ele>
        <time>2020-09-29T15:55:53Z</time>
      </trkpt>
      <trkpt lat="40.8745970" lon="-3.4534080">
        <ele>713.0</ele>
        <time>2020-09-29T15:55:54Z</time>
      </trkpt>
      <trkpt lat="40.8745370" lon="-3.4535650">
        <ele>713.0</ele>
        <time>2020-09-29T15:55:55Z</time>
      </trkpt>
      <trkpt lat="40.8745080" lon="-3.4536430">
        <ele>714.0</ele>
        <time>2020-09-29T15:55:56Z</time>
      </trkpt>
      <trkpt lat="40.8745080" lon="-3.4536430">
        <ele>714.0</ele>
        <time>2020-09-29T15:55:57Z</time>
      </trkpt>
      <trkpt lat="40.8744480" lon="-3.4538050">
        <ele>714.0</ele>
        <time>2020-09-29T15:55:58Z</time>
      </trkpt>
      <trkpt lat="40.8744480" lon="-3.4538050">
        <ele>714.0</ele>
        <time>2020-09-29T15:55:59Z</time>
      </trkpt>
      <trkpt lat="40.8743980" lon="-3.4539620">
        <ele>714.0</ele>
        <time>2020-09-29T15:56:00Z</time>
      </trkpt>
      <trkpt lat="40.8743680" lon="-3.4540500">
        <ele>714.0</ele>
        <time>2020-09-29T15:56:01Z</time>
      </trkpt>
      <trkpt lat="40.8743380" lon="-3.4541320">
        <ele>714.0</ele>
        <time>2020-09-29T15:56:02Z</time>
      </trkpt>
      <trkpt lat="40.8743380" lon="-3.4541320">
        <ele>714.0</ele>
        <time>2020-09-29T15:56:03Z</time>
      </trkpt>
      <trkpt lat="40.8742750" lon="-3.4542780">
        <ele>714.0</ele>
        <time>2020-09-29T15:56:04Z</time>
      </trkpt>
      <trkpt lat="40.8742470" lon="-3.4543530">
        <ele>714.0</ele>
        <time>2020-09-29T15:56:05Z</time>
      </trkpt>
      <trkpt lat="40.8742470" lon="-3.4543530">
        <ele>714.0</ele>
        <time>2020-09-29T15:56:06Z</time>
      </trkpt>
      <trkpt lat="40.8741900" lon="-3.4545030">
        <ele>714.0</ele>
        <time>2020-09-29T15:56:07Z</time>
      </trkpt>
      <trkpt lat="40.8741570" lon="-3.4545780">
        <ele>714.0</ele>
        <time>2020-09-29T15:56:08Z</time>
      </trkpt>
      <trkpt lat="40.8741570" lon="-3.4545780">
        <ele>714.0</ele>
        <time>2020-09-29T15:56:09Z</time>
      </trkpt>
      <trkpt lat="40.8740920" lon="-3.4547370">
        <ele>714.0</ele>
        <time>2020-09-29T15:56:10Z</time>
      </trkpt>
      <trkpt lat="40.8740580" lon="-3.4548150">
        <ele>714.0</ele>
        <time>2020-09-29T15:56:11Z</time>
      </trkpt>
      <trkpt lat="40.8740580" lon="-3.4548150">
        <ele>714.0</ele>
        <time>2020-09-29T15:56:12Z</time>
      </trkpt>
      <trkpt lat="40.8739900" lon="-3.4549730">
        <ele>714.0</ele>
        <time>2020-09-29T15:56:13Z</time>
      </trkpt>
      <trkpt lat="40.8739600" lon="-3.4550500">
        <ele>714.0</ele>
        <time>2020-09-29T15:56:14Z</time>
      </trkpt>
      <trkpt lat="40.8739600" lon="-3.4550500">
        <ele>714.0</ele>
        <time>2020-09-29T15:56:15Z</time>
      </trkpt>
      <trkpt lat="40.8739020" lon="-3.4552020">
        <ele>714.0</ele>
        <time>2020-09-29T15:56:16Z</time>
      </trkpt>
      <trkpt lat="40.8738770" lon="-3.4552750">
        <ele>714.0</ele>
        <time>2020-09-29T15:56:17Z</time>
      </trkpt>
      <trkpt lat="40.8738770" lon="-3.4552750">
        <ele>714.0</ele>
        <time>2020-09-29T15:56:18Z</time>
      </trkpt>
      <trkpt lat="40.8738230" lon="-3.4554250">
        <ele>714.0</ele>
        <time>2020-09-29T15:56:19Z</time>
      </trkpt>
      <trkpt lat="40.8738230" lon="-3.4554250">
        <ele>714.0</ele>
        <time>2020-09-29T15:56:20Z</time>
      </trkpt>
      <trkpt lat="40.8737570" lon="-3.4555870">
        <ele>714.0</ele>
        <time>2020-09-29T15:56:21Z</time>
      </trkpt>
      <trkpt lat="40.8737570" lon="-3.4555870">
        <ele>714.0</ele>
        <time>2020-09-29T15:56:22Z</time>
      </trkpt>
      <trkpt lat="40.8736930" lon="-3.4557450">
        <ele>714.0</ele>
        <time>2020-09-29T15:56:23Z</time>
      </trkpt>
      <trkpt lat="40.8736930" lon="-3.4557450">
        <ele>715.0</ele>
        <time>2020-09-29T15:56:24Z</time>
      </trkpt>
      <trkpt lat="40.8736380" lon="-3.4558980">
        <ele>715.0</ele>
        <time>2020-09-29T15:56:25Z</time>
      </trkpt>
      <trkpt lat="40.8736380" lon="-3.4558980">
        <ele>715.0</ele>
        <time>2020-09-29T15:56:26Z</time>
      </trkpt>
      <trkpt lat="40.8735800" lon="-3.4560450">
        <ele>715.0</ele>
        <time>2020-09-29T15:56:27Z</time>
      </trkpt>
      <trkpt lat="40.8735800" lon="-3.4560450">
        <ele>715.0</ele>
        <time>2020-09-29T15:56:28Z</time>
      </trkpt>
      <trkpt lat="40.8735250" lon="-3.4561900">
        <ele>715.0</ele>
        <time>2020-09-29T15:56:29Z</time>
      </trkpt>
      <trkpt lat="40.8734970" lon="-3.4562650">
        <ele>715.0</ele>
        <time>2020-09-29T15:56:30Z</time>
      </trkpt>
      <trkpt lat="40.8734970" lon="-3.4562650">
        <ele>715.0</ele>
        <time>2020-09-29T15:56:31Z</time>
      </trkpt>
      <trkpt lat="40.8734400" lon="-3.4564180">
        <ele>715.0</ele>
        <time>2020-09-29T15:56:32Z</time>
      </trkpt>
      <trkpt lat="40.8734400" lon="-3.4564180">
        <ele>715.0</ele>
        <time>2020-09-29T15:56:33Z</time>
      </trkpt>
      <trkpt lat="40.8733800" lon="-3.4565730">
        <ele>715.0</ele>
        <time>2020-09-29T15:56:34Z</time>
      </trkpt>
      <trkpt lat="40.8733480" lon="-3.4566530">
        <ele>715.0</ele>
        <time>2020-09-29T15:56:35Z</time>
      </trkpt>
      <trkpt lat="40.8733480" lon="-3.4566530">
        <ele>715.0</ele>
        <time>2020-09-29T15:56:36Z</time>
      </trkpt>
      <trkpt lat="40.8732850" lon="-3.4568050">
        <ele>715.0</ele>
        <time>2020-09-29T15:56:37Z</time>
      </trkpt>
      <trkpt lat="40.8732850" lon="-3.4568050">
        <ele>715.0</ele>
        <time>2020-09-29T15:56:38Z</time>
      </trkpt>
      <trkpt lat="40.8732220" lon="-3.4569550">
        <ele>715.0</ele>
        <time>2020-09-29T15:56:39Z</time>
      </trkpt>
      <trkpt lat="40.8732220" lon="-3.4569550">
        <ele>715.0</ele>
        <time>2020-09-29T15:56:40Z</time>
      </trkpt>
      <trkpt lat="40.8731580" lon="-3.4571030">
        <ele>715.0</ele>
        <time>2020-09-29T15:56:41Z</time>
      </trkpt>
      <trkpt lat="40.8731580" lon="-3.4571030">
        <ele>715.0</ele>
        <time>2020-09-29T15:56:42Z</time>
      </trkpt>
      <trkpt lat="40.8731000" lon="-3.4572550">
        <ele>715.0</ele>
        <time>2020-09-29T15:56:43Z</time>
      </trkpt>
      <trkpt lat="40.8730650" lon="-3.4573280">
        <ele>715.0</ele>
        <time>2020-09-29T15:56:44Z</time>
      </trkpt>
      <trkpt lat="40.8730650" lon="-3.4573280">
        <ele>715.0</ele>
        <time>2020-09-29T15:56:45Z</time>
      </trkpt>
      <trkpt lat="40.8729870" lon="-3.4574850">
        <ele>715.0</ele>
        <time>2020-09-29T15:56:46Z</time>
      </trkpt>
      <trkpt lat="40.8729870" lon="-3.4574850">
        <ele>715.0</ele>
        <time>2020-09-29T15:56:47Z</time>
      </trkpt>
      <trkpt lat="40.8729200" lon="-3.4576350">
        <ele>715.0</ele>
        <time>2020-09-29T15:56:48Z</time>
      </trkpt>
      <trkpt lat="40.8729200" lon="-3.4576350">
        <ele>715.0</ele>
        <time>2020-09-29T15:56:49Z</time>
      </trkpt>
      <trkpt lat="40.8728480" lon="-3.4577700">
        <ele>715.0</ele>
        <time>2020-09-29T15:56:50Z</time>
      </trkpt>
      <trkpt lat="40.8728480" lon="-3.4577700">
        <ele>715.0</ele>
        <time>2020-09-29T15:56:51Z</time>
      </trkpt>
      <trkpt lat="40.8727700" lon="-3.4579050">
        <ele>715.0</ele>
        <time>2020-09-29T15:56:52Z</time>
      </trkpt>
      <trkpt lat="40.8727300" lon="-3.4579700">
        <ele>715.0</ele>
        <time>2020-09-29T15:56:53Z</time>
      </trkpt>
      <trkpt lat="40.8727300" lon="-3.4579700">
        <ele>715.0</ele>
        <time>2020-09-29T15:56:54Z</time>
      </trkpt>
      <trkpt lat="40.8726480" lon="-3.4581000">
        <ele>715.0</ele>
        <time>2020-09-29T15:56:55Z</time>
      </trkpt>
      <trkpt lat="40.8726050" lon="-3.4581720">
        <ele>715.0</ele>
        <time>2020-09-29T15:56:56Z</time>
      </trkpt>
      <trkpt lat="40.8726050" lon="-3.4581720">
        <ele>715.0</ele>
        <time>2020-09-29T15:56:57Z</time>
      </trkpt>
      <trkpt lat="40.8725220" lon="-3.4583130">
        <ele>715.0</ele>
        <time>2020-09-29T15:56:58Z</time>
      </trkpt>
      <trkpt lat="40.8725220" lon="-3.4583130">
        <ele>715.0</ele>
        <time>2020-09-29T15:56:59Z</time>
      </trkpt>
      <trkpt lat="40.8724420" lon="-3.4584530">
        <ele>715.0</ele>
        <time>2020-09-29T15:57:00Z</time>
      </trkpt>
      <trkpt lat="40.8724420" lon="-3.4584530">
        <ele>715.0</ele>
        <time>2020-09-29T15:57:01Z</time>
      </trkpt>
      <trkpt lat="40.8723650" lon="-3.4585920">
        <ele>715.0</ele>
        <time>2020-09-29T15:57:02Z</time>
      </trkpt>
      <trkpt lat="40.8723650" lon="-3.4585920">
        <ele>715.0</ele>
        <time>2020-09-29T15:57:03Z</time>
      </trkpt>
      <trkpt lat="40.8722930" lon="-3.4587350">
        <ele>715.0</ele>
        <time>2020-09-29T15:57:04Z</time>
      </trkpt>
      <trkpt lat="40.8722930" lon="-3.4587350">
        <ele>715.0</ele>
        <time>2020-09-29T15:57:05Z</time>
      </trkpt>
      <trkpt lat="40.8722230" lon="-3.4588850">
        <ele>715.0</ele>
        <time>2020-09-29T15:57:06Z</time>
      </trkpt>
      <trkpt lat="40.8722230" lon="-3.4588850">
        <ele>715.0</ele>
        <time>2020-09-29T15:57:07Z</time>
      </trkpt>
      <trkpt lat="40.8721530" lon="-3.4590350">
        <ele>715.0</ele>
        <time>2020-09-29T15:57:08Z</time>
      </trkpt>
      <trkpt lat="40.8721530" lon="-3.4590350">
        <ele>715.0</ele>
        <time>2020-09-29T15:57:09Z</time>
      </trkpt>
      <trkpt lat="40.8720820" lon="-3.4591880">
        <ele>715.0</ele>
        <time>2020-09-29T15:57:10Z</time>
      </trkpt>
      <trkpt lat="40.8720430" lon="-3.4592650">
        <ele>715.0</ele>
        <time>2020-09-29T15:57:11Z</time>
      </trkpt>
      <trkpt lat="40.8720430" lon="-3.4592650">
        <ele>715.0</ele>
        <time>2020-09-29T15:57:12Z</time>
      </trkpt>
      <trkpt lat="40.8719700" lon="-3.4594250">
        <ele>715.0</ele>
        <time>2020-09-29T15:57:13Z</time>
      </trkpt>
      <trkpt lat="40.8719330" lon="-3.4595050">
        <ele>715.0</ele>
        <time>2020-09-29T15:57:14Z</time>
      </trkpt>
      <trkpt lat="40.8719330" lon="-3.4595050">
        <ele>715.0</ele>
        <time>2020-09-29T15:57:15Z</time>
      </trkpt>
      <trkpt lat="40.8718600" lon="-3.4596620">
        <ele>715.0</ele>
        <time>2020-09-29T15:57:16Z</time>
      </trkpt>
      <trkpt lat="40.8718600" lon="-3.4596620">
        <ele>715.0</ele>
        <time>2020-09-29T15:57:17Z</time>
      </trkpt>
      <trkpt lat="40.8717880" lon="-3.4598120">
        <ele>715.0</ele>
        <time>2020-09-29T15:57:18Z</time>
      </trkpt>
      <trkpt lat="40.8717880" lon="-3.4598120">
        <ele>715.0</ele>
        <time>2020-09-29T15:57:19Z</time>
      </trkpt>
      <trkpt lat="40.8717130" lon="-3.4599600">
        <ele>715.0</ele>
        <time>2020-09-29T15:57:20Z</time>
      </trkpt>
      <trkpt lat="40.8717130" lon="-3.4599600">
        <ele>715.0</ele>
        <time>2020-09-29T15:57:21Z</time>
      </trkpt>
      <trkpt lat="40.8716370" lon="-3.4601080">
        <ele>715.0</ele>
        <time>2020-09-29T15:57:22Z</time>
      </trkpt>
      <trkpt lat="40.8715980" lon="-3.4601800">
        <ele>715.0</ele>
        <time>2020-09-29T15:57:23Z</time>
      </trkpt>
      <trkpt lat="40.8715980" lon="-3.4601800">
        <ele>715.0</ele>
        <time>2020-09-29T15:57:24Z</time>
      </trkpt>
      <trkpt lat="40.8715200" lon="-3.4603330">
        <ele>715.0</ele>
        <time>2020-09-29T15:57:25Z</time>
      </trkpt>
      <trkpt lat="40.8714820" lon="-3.4604080">
        <ele>715.0</ele>
        <time>2020-09-29T15:57:26Z</time>
      </trkpt>
      <trkpt lat="40.8714430" lon="-3.4604820">
        <ele>715.0</ele>
        <time>2020-09-29T15:57:27Z</time>
      </trkpt>
      <trkpt lat="40.8714430" lon="-3.4604820">
        <ele>714.0</ele>
        <time>2020-09-29T15:57:28Z</time>
      </trkpt>
      <trkpt lat="40.8713600" lon="-3.4606280">
        <ele>714.0</ele>
        <time>2020-09-29T15:57:29Z</time>
      </trkpt>
      <trkpt lat="40.8713600" lon="-3.4606280">
        <ele>714.0</ele>
        <time>2020-09-29T15:57:30Z</time>
      </trkpt>
      <trkpt lat="40.8712820" lon="-3.4607770">
        <ele>714.0</ele>
        <time>2020-09-29T15:57:31Z</time>
      </trkpt>
      <trkpt lat="40.8712380" lon="-3.4608530">
        <ele>714.0</ele>
        <time>2020-09-29T15:57:32Z</time>
      </trkpt>
      <trkpt lat="40.8712380" lon="-3.4608530">
        <ele>714.0</ele>
        <time>2020-09-29T15:57:33Z</time>
      </trkpt>
      <trkpt lat="40.8711550" lon="-3.4610030">
        <ele>714.0</ele>
        <time>2020-09-29T15:57:34Z</time>
      </trkpt>
      <trkpt lat="40.8711550" lon="-3.4610030">
        <ele>714.0</ele>
        <time>2020-09-29T15:57:35Z</time>
      </trkpt>
      <trkpt lat="40.8710670" lon="-3.4611550">
        <ele>714.0</ele>
        <time>2020-09-29T15:57:36Z</time>
      </trkpt>
      <trkpt lat="40.8710670" lon="-3.4611550">
        <ele>714.0</ele>
        <time>2020-09-29T15:57:37Z</time>
      </trkpt>
      <trkpt lat="40.8709780" lon="-3.4613070">
        <ele>714.0</ele>
        <time>2020-09-29T15:57:38Z</time>
      </trkpt>
      <trkpt lat="40.8709780" lon="-3.4613070">
        <ele>714.0</ele>
        <time>2020-09-29T15:57:39Z</time>
      </trkpt>
      <trkpt lat="40.8708970" lon="-3.4614550">
        <ele>714.0</ele>
        <time>2020-09-29T15:57:40Z</time>
      </trkpt>
      <trkpt lat="40.8708520" lon="-3.4615280">
        <ele>714.0</ele>
        <time>2020-09-29T15:57:41Z</time>
      </trkpt>
      <trkpt lat="40.8708520" lon="-3.4615280">
        <ele>714.0</ele>
        <time>2020-09-29T15:57:42Z</time>
      </trkpt>
      <trkpt lat="40.8707650" lon="-3.4616750">
        <ele>714.0</ele>
        <time>2020-09-29T15:57:43Z</time>
      </trkpt>
      <trkpt lat="40.8707220" lon="-3.4617500">
        <ele>714.0</ele>
        <time>2020-09-29T15:57:44Z</time>
      </trkpt>
      <trkpt lat="40.8706800" lon="-3.4618230">
        <ele>714.0</ele>
        <time>2020-09-29T15:57:45Z</time>
      </trkpt>
      <trkpt lat="40.8706800" lon="-3.4618230">
        <ele>714.0</ele>
        <time>2020-09-29T15:57:46Z</time>
      </trkpt>
      <trkpt lat="40.8705970" lon="-3.4619770">
        <ele>714.0</ele>
        <time>2020-09-29T15:57:47Z</time>
      </trkpt>
      <trkpt lat="40.8705550" lon="-3.4620480">
        <ele>714.0</ele>
        <time>2020-09-29T15:57:48Z</time>
      </trkpt>
      <trkpt lat="40.8705550" lon="-3.4620480">
        <ele>714.0</ele>
        <time>2020-09-29T15:57:49Z</time>
      </trkpt>
      <trkpt lat="40.8704730" lon="-3.4621980">
        <ele>714.0</ele>
        <time>2020-09-29T15:57:50Z</time>
      </trkpt>
      <trkpt lat="40.8704730" lon="-3.4621980">
        <ele>714.0</ele>
        <time>2020-09-29T15:57:51Z</time>
      </trkpt>
      <trkpt lat="40.8704000" lon="-3.4623500">
        <ele>714.0</ele>
        <time>2020-09-29T15:57:52Z</time>
      </trkpt>
      <trkpt lat="40.8703630" lon="-3.4624300">
        <ele>714.0</ele>
        <time>2020-09-29T15:57:53Z</time>
      </trkpt>
      <trkpt lat="40.8703630" lon="-3.4624300">
        <ele>714.0</ele>
        <time>2020-09-29T15:57:54Z</time>
      </trkpt>
      <trkpt lat="40.8702950" lon="-3.4625900">
        <ele>714.0</ele>
        <time>2020-09-29T15:57:55Z</time>
      </trkpt>
      <trkpt lat="40.8702950" lon="-3.4625900">
        <ele>714.0</ele>
        <time>2020-09-29T15:57:56Z</time>
      </trkpt>
      <trkpt lat="40.8702230" lon="-3.4627400">
        <ele>714.0</ele>
        <time>2020-09-29T15:57:57Z</time>
      </trkpt>
      <trkpt lat="40.8701880" lon="-3.4628180">
        <ele>714.0</ele>
        <time>2020-09-29T15:57:58Z</time>
      </trkpt>
      <trkpt lat="40.8701880" lon="-3.4628180">
        <ele>714.0</ele>
        <time>2020-09-29T15:57:59Z</time>
      </trkpt>
      <trkpt lat="40.8701170" lon="-3.4629800">
        <ele>714.0</ele>
        <time>2020-09-29T15:58:00Z</time>
      </trkpt>
      <trkpt lat="40.8700800" lon="-3.4630580">
        <ele>714.0</ele>
        <time>2020-09-29T15:58:01Z</time>
      </trkpt>
      <trkpt lat="40.8700800" lon="-3.4630580">
        <ele>714.0</ele>
        <time>2020-09-29T15:58:02Z</time>
      </trkpt>
      <trkpt lat="40.8700080" lon="-3.4632170">
        <ele>714.0</ele>
        <time>2020-09-29T15:58:03Z</time>
      </trkpt>
      <trkpt lat="40.8699780" lon="-3.4632970">
        <ele>714.0</ele>
        <time>2020-09-29T15:58:04Z</time>
      </trkpt>
      <trkpt lat="40.8699780" lon="-3.4632970">
        <ele>714.0</ele>
        <time>2020-09-29T15:58:05Z</time>
      </trkpt>
      <trkpt lat="40.8699150" lon="-3.4634530">
        <ele>714.0</ele>
        <time>2020-09-29T15:58:06Z</time>
      </trkpt>
      <trkpt lat="40.8699150" lon="-3.4634530">
        <ele>714.0</ele>
        <time>2020-09-29T15:58:07Z</time>
      </trkpt>
      <trkpt lat="40.8698480" lon="-3.4636070">
        <ele>714.0</ele>
        <time>2020-09-29T15:58:08Z</time>
      </trkpt>
      <trkpt lat="40.8698480" lon="-3.4636070">
        <ele>714.0</ele>
        <time>2020-09-29T15:58:09Z</time>
      </trkpt>
      <trkpt lat="40.8697800" lon="-3.4637620">
        <ele>714.0</ele>
        <time>2020-09-29T15:58:10Z</time>
      </trkpt>
      <trkpt lat="40.8697450" lon="-3.4638380">
        <ele>714.0</ele>
        <time>2020-09-29T15:58:11Z</time>
      </trkpt>
      <trkpt lat="40.8697450" lon="-3.4638380">
        <ele>714.0</ele>
        <time>2020-09-29T15:58:12Z</time>
      </trkpt>
      <trkpt lat="40.8696830" lon="-3.4639980">
        <ele>713.0</ele>
        <time>2020-09-29T15:58:13Z</time>
      </trkpt>
      <trkpt lat="40.8696830" lon="-3.4639980">
        <ele>713.0</ele>
        <time>2020-09-29T15:58:14Z</time>
      </trkpt>
      <trkpt lat="40.8696180" lon="-3.4641530">
        <ele>713.0</ele>
        <time>2020-09-29T15:58:15Z</time>
      </trkpt>
      <trkpt lat="40.8696180" lon="-3.4641530">
        <ele>713.0</ele>
        <time>2020-09-29T15:58:16Z</time>
      </trkpt>
      <trkpt lat="40.8695480" lon="-3.4643030">
        <ele>713.0</ele>
        <time>2020-09-29T15:58:17Z</time>
      </trkpt>
      <trkpt lat="40.8695120" lon="-3.4643820">
        <ele>713.0</ele>
        <time>2020-09-29T15:58:18Z</time>
      </trkpt>
      <trkpt lat="40.8694770" lon="-3.4644600">
        <ele>713.0</ele>
        <time>2020-09-29T15:58:19Z</time>
      </trkpt>
      <trkpt lat="40.8694420" lon="-3.4645380">
        <ele>713.0</ele>
        <time>2020-09-29T15:58:20Z</time>
      </trkpt>
      <trkpt lat="40.8694420" lon="-3.4645380">
        <ele>713.0</ele>
        <time>2020-09-29T15:58:21Z</time>
      </trkpt>
      <trkpt lat="40.8693730" lon="-3.4646970">
        <ele>713.0</ele>
        <time>2020-09-29T15:58:22Z</time>
      </trkpt>
      <trkpt lat="40.8693730" lon="-3.4646970">
        <ele>713.0</ele>
        <time>2020-09-29T15:58:23Z</time>
      </trkpt>
      <trkpt lat="40.8693080" lon="-3.4648520">
        <ele>713.0</ele>
        <time>2020-09-29T15:58:24Z</time>
      </trkpt>
      <trkpt lat="40.8693080" lon="-3.4648520">
        <ele>713.0</ele>
        <time>2020-09-29T15:58:25Z</time>
      </trkpt>
      <trkpt lat="40.8692420" lon="-3.4650080">
        <ele>713.0</ele>
        <time>2020-09-29T15:58:26Z</time>
      </trkpt>
      <trkpt lat="40.8692080" lon="-3.4650830">
        <ele>713.0</ele>
        <time>2020-09-29T15:58:27Z</time>
      </trkpt>
      <trkpt lat="40.8692080" lon="-3.4650830">
        <ele>713.0</ele>
        <time>2020-09-29T15:58:28Z</time>
      </trkpt>
      <trkpt lat="40.8691470" lon="-3.4652330">
        <ele>713.0</ele>
        <time>2020-09-29T15:58:29Z</time>
      </trkpt>
      <trkpt lat="40.8691470" lon="-3.4652330">
        <ele>713.0</ele>
        <time>2020-09-29T15:58:30Z</time>
      </trkpt>
      <trkpt lat="40.8690800" lon="-3.4653800">
        <ele>713.0</ele>
        <time>2020-09-29T15:58:31Z</time>
      </trkpt>
      <trkpt lat="40.8690470" lon="-3.4654530">
        <ele>713.0</ele>
        <time>2020-09-29T15:58:32Z</time>
      </trkpt>
      <trkpt lat="40.8690470" lon="-3.4654530">
        <ele>713.0</ele>
        <time>2020-09-29T15:58:33Z</time>
      </trkpt>
      <trkpt lat="40.8689820" lon="-3.4655980">
        <ele>713.0</ele>
        <time>2020-09-29T15:58:34Z</time>
      </trkpt>
      <trkpt lat="40.8689820" lon="-3.4655980">
        <ele>713.0</ele>
        <time>2020-09-29T15:58:35Z</time>
      </trkpt>
      <trkpt lat="40.8689170" lon="-3.4657380">
        <ele>713.0</ele>
        <time>2020-09-29T15:58:36Z</time>
      </trkpt>
      <trkpt lat="40.8689170" lon="-3.4657380">
        <ele>713.0</ele>
        <time>2020-09-29T15:58:37Z</time>
      </trkpt>
      <trkpt lat="40.8688450" lon="-3.4658820">
        <ele>713.0</ele>
        <time>2020-09-29T15:58:38Z</time>
      </trkpt>
      <trkpt lat="40.8688450" lon="-3.4658820">
        <ele>713.0</ele>
        <time>2020-09-29T15:58:39Z</time>
      </trkpt>
      <trkpt lat="40.8687720" lon="-3.4660270">
        <ele>713.0</ele>
        <time>2020-09-29T15:58:40Z</time>
      </trkpt>
      <trkpt lat="40.8687720" lon="-3.4660270">
        <ele>713.0</ele>
        <time>2020-09-29T15:58:41Z</time>
      </trkpt>
      <trkpt lat="40.8686930" lon="-3.4661730">
        <ele>713.0</ele>
        <time>2020-09-29T15:58:42Z</time>
      </trkpt>
      <trkpt lat="40.8686550" lon="-3.4662480">
        <ele>713.0</ele>
        <time>2020-09-29T15:58:43Z</time>
      </trkpt>
      <trkpt lat="40.8686130" lon="-3.4663230">
        <ele>713.0</ele>
        <time>2020-09-29T15:58:44Z</time>
      </trkpt>
      <trkpt lat="40.8686130" lon="-3.4663230">
        <ele>713.0</ele>
        <time>2020-09-29T15:58:45Z</time>
      </trkpt>
      <trkpt lat="40.8685330" lon="-3.4664730">
        <ele>713.0</ele>
        <time>2020-09-29T15:58:46Z</time>
      </trkpt>
      <trkpt lat="40.8684950" lon="-3.4665470">
        <ele>713.0</ele>
        <time>2020-09-29T15:58:47Z</time>
      </trkpt>
      <trkpt lat="40.8684950" lon="-3.4665470">
        <ele>713.0</ele>
        <time>2020-09-29T15:58:48Z</time>
      </trkpt>
      <trkpt lat="40.8684150" lon="-3.4666920">
        <ele>713.0</ele>
        <time>2020-09-29T15:58:49Z</time>
      </trkpt>
      <trkpt lat="40.8683750" lon="-3.4667620">
        <ele>713.0</ele>
        <time>2020-09-29T15:58:50Z</time>
      </trkpt>
      <trkpt lat="40.8683750" lon="-3.4667620">
        <ele>713.0</ele>
        <time>2020-09-29T15:58:51Z</time>
      </trkpt>
      <trkpt lat="40.8682950" lon="-3.4669080">
        <ele>713.0</ele>
        <time>2020-09-29T15:58:52Z</time>
      </trkpt>
      <trkpt lat="40.8682550" lon="-3.4669830">
        <ele>712.0</ele>
        <time>2020-09-29T15:58:53Z</time>
      </trkpt>
      <trkpt lat="40.8682180" lon="-3.4670580">
        <ele>712.0</ele>
        <time>2020-09-29T15:58:54Z</time>
      </trkpt>
      <trkpt lat="40.8682180" lon="-3.4670580">
        <ele>712.0</ele>
        <time>2020-09-29T15:58:55Z</time>
      </trkpt>
      <trkpt lat="40.8681420" lon="-3.4672070">
        <ele>712.0</ele>
        <time>2020-09-29T15:58:56Z</time>
      </trkpt>
      <trkpt lat="40.8681420" lon="-3.4672070">
        <ele>712.0</ele>
        <time>2020-09-29T15:58:57Z</time>
      </trkpt>
      <trkpt lat="40.8680650" lon="-3.4673570">
        <ele>712.0</ele>
        <time>2020-09-29T15:58:58Z</time>
      </trkpt>
      <trkpt lat="40.8680270" lon="-3.4674300">
        <ele>712.0</ele>
        <time>2020-09-29T15:58:59Z</time>
      </trkpt>
      <trkpt lat="40.8680270" lon="-3.4674300">
        <ele>712.0</ele>
        <time>2020-09-29T15:59:00Z</time>
      </trkpt>
      <trkpt lat="40.8679500" lon="-3.4675750">
        <ele>712.0</ele>
        <time>2020-09-29T15:59:01Z</time>
      </trkpt>
      <trkpt lat="40.8679070" lon="-3.4676430">
        <ele>712.0</ele>
        <time>2020-09-29T15:59:02Z</time>
      </trkpt>
      <trkpt lat="40.8679070" lon="-3.4676430">
        <ele>712.0</ele>
        <time>2020-09-29T15:59:03Z</time>
      </trkpt>
      <trkpt lat="40.8678280" lon="-3.4677880">
        <ele>712.0</ele>
        <time>2020-09-29T15:59:04Z</time>
      </trkpt>
      <trkpt lat="40.8678280" lon="-3.4677880">
        <ele>712.0</ele>
        <time>2020-09-29T15:59:05Z</time>
      </trkpt>
      <trkpt lat="40.8677570" lon="-3.4679330">
        <ele>711.0</ele>
        <time>2020-09-29T15:59:06Z</time>
      </trkpt>
      <trkpt lat="40.8677570" lon="-3.4679330">
        <ele>711.0</ele>
        <time>2020-09-29T15:59:07Z</time>
      </trkpt>
      <trkpt lat="40.8676850" lon="-3.4680720">
        <ele>711.0</ele>
        <time>2020-09-29T15:59:08Z</time>
      </trkpt>
      <trkpt lat="40.8676850" lon="-3.4680720">
        <ele>711.0</ele>
        <time>2020-09-29T15:59:09Z</time>
      </trkpt>
      <trkpt lat="40.8676120" lon="-3.4682150">
        <ele>711.0</ele>
        <time>2020-09-29T15:59:10Z</time>
      </trkpt>
      <trkpt lat="40.8676120" lon="-3.4682150">
        <ele>711.0</ele>
        <time>2020-09-29T15:59:11Z</time>
      </trkpt>
      <trkpt lat="40.8675350" lon="-3.4683470">
        <ele>711.0</ele>
        <time>2020-09-29T15:59:12Z</time>
      </trkpt>
      <trkpt lat="40.8675350" lon="-3.4683470">
        <ele>711.0</ele>
        <time>2020-09-29T15:59:13Z</time>
      </trkpt>
      <trkpt lat="40.8674580" lon="-3.4684850">
        <ele>711.0</ele>
        <time>2020-09-29T15:59:14Z</time>
      </trkpt>
      <trkpt lat="40.8674580" lon="-3.4684850">
        <ele>711.0</ele>
        <time>2020-09-29T15:59:15Z</time>
      </trkpt>
      <trkpt lat="40.8673850" lon="-3.4686230">
        <ele>711.0</ele>
        <time>2020-09-29T15:59:16Z</time>
      </trkpt>
      <trkpt lat="40.8673500" lon="-3.4686900">
        <ele>711.0</ele>
        <time>2020-09-29T15:59:17Z</time>
      </trkpt>
      <trkpt lat="40.8673500" lon="-3.4686900">
        <ele>711.0</ele>
        <time>2020-09-29T15:59:18Z</time>
      </trkpt>
      <trkpt lat="40.8672700" lon="-3.4688220">
        <ele>711.0</ele>
        <time>2020-09-29T15:59:19Z</time>
      </trkpt>
      <trkpt lat="40.8672320" lon="-3.4688900">
        <ele>711.0</ele>
        <time>2020-09-29T15:59:20Z</time>
      </trkpt>
      <trkpt lat="40.8672320" lon="-3.4688900">
        <ele>711.0</ele>
        <time>2020-09-29T15:59:21Z</time>
      </trkpt>
      <trkpt lat="40.8671500" lon="-3.4690250">
        <ele>711.0</ele>
        <time>2020-09-29T15:59:22Z</time>
      </trkpt>
      <trkpt lat="40.8671500" lon="-3.4690250">
        <ele>711.0</ele>
        <time>2020-09-29T15:59:23Z</time>
      </trkpt>
      <trkpt lat="40.8670650" lon="-3.4691570">
        <ele>711.0</ele>
        <time>2020-09-29T15:59:24Z</time>
      </trkpt>
      <trkpt lat="40.8670650" lon="-3.4691570">
        <ele>711.0</ele>
        <time>2020-09-29T15:59:25Z</time>
      </trkpt>
      <trkpt lat="40.8669850" lon="-3.4692900">
        <ele>711.0</ele>
        <time>2020-09-29T15:59:26Z</time>
      </trkpt>
      <trkpt lat="40.8669500" lon="-3.4693620">
        <ele>711.0</ele>
        <time>2020-09-29T15:59:27Z</time>
      </trkpt>
      <trkpt lat="40.8669500" lon="-3.4693620">
        <ele>711.0</ele>
        <time>2020-09-29T15:59:28Z</time>
      </trkpt>
      <trkpt lat="40.8668700" lon="-3.4695030">
        <ele>711.0</ele>
        <time>2020-09-29T15:59:29Z</time>
      </trkpt>
      <trkpt lat="40.8668300" lon="-3.4695770">
        <ele>711.0</ele>
        <time>2020-09-29T15:59:30Z</time>
      </trkpt>
      <trkpt lat="40.8668300" lon="-3.4695770">
        <ele>711.0</ele>
        <time>2020-09-29T15:59:31Z</time>
      </trkpt>
      <trkpt lat="40.8667500" lon="-3.4697280">
        <ele>711.0</ele>
        <time>2020-09-29T15:59:32Z</time>
      </trkpt>
      <trkpt lat="40.8667500" lon="-3.4697280">
        <ele>711.0</ele>
        <time>2020-09-29T15:59:33Z</time>
      </trkpt>
      <trkpt lat="40.8666720" lon="-3.4698720">
        <ele>711.0</ele>
        <time>2020-09-29T15:59:34Z</time>
      </trkpt>
      <trkpt lat="40.8666720" lon="-3.4698720">
        <ele>711.0</ele>
        <time>2020-09-29T15:59:35Z</time>
      </trkpt>
      <trkpt lat="40.8665930" lon="-3.4700120">
        <ele>711.0</ele>
        <time>2020-09-29T15:59:36Z</time>
      </trkpt>
      <trkpt lat="40.8665930" lon="-3.4700120">
        <ele>711.0</ele>
        <time>2020-09-29T15:59:37Z</time>
      </trkpt>
      <trkpt lat="40.8665180" lon="-3.4701470">
        <ele>711.0</ele>
        <time>2020-09-29T15:59:38Z</time>
      </trkpt>
      <trkpt lat="40.8665180" lon="-3.4701470">
        <ele>711.0</ele>
        <time>2020-09-29T15:59:39Z</time>
      </trkpt>
      <trkpt lat="40.8664430" lon="-3.4702850">
        <ele>711.0</ele>
        <time>2020-09-29T15:59:40Z</time>
      </trkpt>
      <trkpt lat="40.8664430" lon="-3.4702850">
        <ele>711.0</ele>
        <time>2020-09-29T15:59:41Z</time>
      </trkpt>
      <trkpt lat="40.8663680" lon="-3.4704170">
        <ele>711.0</ele>
        <time>2020-09-29T15:59:42Z</time>
      </trkpt>
      <trkpt lat="40.8663320" lon="-3.4704800">
        <ele>711.0</ele>
        <time>2020-09-29T15:59:43Z</time>
      </trkpt>
      <trkpt lat="40.8662980" lon="-3.4705470">
        <ele>711.0</ele>
        <time>2020-09-29T15:59:44Z</time>
      </trkpt>
      <trkpt lat="40.8662980" lon="-3.4705470">
        <ele>712.0</ele>
        <time>2020-09-29T15:59:45Z</time>
      </trkpt>
      <trkpt lat="40.8662280" lon="-3.4706770">
        <ele>712.0</ele>
        <time>2020-09-29T15:59:46Z</time>
      </trkpt>
      <trkpt lat="40.8662280" lon="-3.4706770">
        <ele>712.0</ele>
        <time>2020-09-29T15:59:47Z</time>
      </trkpt>
      <trkpt lat="40.8661550" lon="-3.4708030">
        <ele>712.0</ele>
        <time>2020-09-29T15:59:48Z</time>
      </trkpt>
      <trkpt lat="40.8661550" lon="-3.4708030">
        <ele>712.0</ele>
        <time>2020-09-29T15:59:49Z</time>
      </trkpt>
      <trkpt lat="40.8660800" lon="-3.4709230">
        <ele>712.0</ele>
        <time>2020-09-29T15:59:50Z</time>
      </trkpt>
      <trkpt lat="40.8660100" lon="-3.4710550">
        <ele>712.0</ele>
        <time>2020-09-29T15:59:51Z</time>
      </trkpt>
      <trkpt lat="40.8660100" lon="-3.4710550">
        <ele>712.0</ele>
        <time>2020-09-29T15:59:52Z</time>
      </trkpt>
      <trkpt lat="40.8659730" lon="-3.4711270">
        <ele>713.0</ele>
        <time>2020-09-29T15:59:53Z</time>
      </trkpt>
      <trkpt lat="40.8659350" lon="-3.4711950">
        <ele>713.0</ele>
        <time>2020-09-29T15:59:54Z</time>
      </trkpt>
      <trkpt lat="40.8659350" lon="-3.4711950">
        <ele>713.0</ele>
        <time>2020-09-29T15:59:55Z</time>
      </trkpt>
      <trkpt lat="40.8658530" lon="-3.4713270">
        <ele>713.0</ele>
        <time>2020-09-29T15:59:56Z</time>
      </trkpt>
      <trkpt lat="40.8658530" lon="-3.4713270">
        <ele>713.0</ele>
        <time>2020-09-29T15:59:57Z</time>
      </trkpt>
      <trkpt lat="40.8657730" lon="-3.4714620">
        <ele>713.0</ele>
        <time>2020-09-29T15:59:58Z</time>
      </trkpt>
      <trkpt lat="40.8657730" lon="-3.4714620">
        <ele>713.0</ele>
        <time>2020-09-29T15:59:59Z</time>
      </trkpt>
      <trkpt lat="40.8656950" lon="-3.4716020">
        <ele>713.0</ele>
        <time>2020-09-29T16:00:00Z</time>
      </trkpt>
      <trkpt lat="40.8656950" lon="-3.4716020">
        <ele>713.0</ele>
        <time>2020-09-29T16:00:01Z</time>
      </trkpt>
      <trkpt lat="40.8656150" lon="-3.4717370">
        <ele>713.0</ele>
        <time>2020-09-29T16:00:02Z</time>
      </trkpt>
      <trkpt lat="40.8656150" lon="-3.4717370">
        <ele>713.0</ele>
        <time>2020-09-29T16:00:03Z</time>
      </trkpt>
      <trkpt lat="40.8655370" lon="-3.4718720">
        <ele>713.0</ele>
        <time>2020-09-29T16:00:04Z</time>
      </trkpt>
      <trkpt lat="40.8655370" lon="-3.4718720">
        <ele>714.0</ele>
        <time>2020-09-29T16:00:05Z</time>
      </trkpt>
      <trkpt lat="40.8654570" lon="-3.4720030">
        <ele>714.0</ele>
        <time>2020-09-29T16:00:06Z</time>
      </trkpt>
      <trkpt lat="40.8654180" lon="-3.4720700">
        <ele>714.0</ele>
        <time>2020-09-29T16:00:07Z</time>
      </trkpt>
      <trkpt lat="40.8653880" lon="-3.4721420">
        <ele>714.0</ele>
        <time>2020-09-29T16:00:08Z</time>
      </trkpt>
      <trkpt lat="40.8653880" lon="-3.4721420">
        <ele>714.0</ele>
        <time>2020-09-29T16:00:09Z</time>
      </trkpt>
      <trkpt lat="40.8653230" lon="-3.4722770">
        <ele>714.0</ele>
        <time>2020-09-29T16:00:10Z</time>
      </trkpt>
      <trkpt lat="40.8652870" lon="-3.4723420">
        <ele>714.0</ele>
        <time>2020-09-29T16:00:11Z</time>
      </trkpt>
      <trkpt lat="40.8652870" lon="-3.4723420">
        <ele>714.0</ele>
        <time>2020-09-29T16:00:12Z</time>
      </trkpt>
      <trkpt lat="40.8652150" lon="-3.4724770">
        <ele>714.0</ele>
        <time>2020-09-29T16:00:13Z</time>
      </trkpt>
      <trkpt lat="40.8651820" lon="-3.4725430">
        <ele>715.0</ele>
        <time>2020-09-29T16:00:14Z</time>
      </trkpt>
      <trkpt lat="40.8651820" lon="-3.4725430">
        <ele>715.0</ele>
        <time>2020-09-29T16:00:15Z</time>
      </trkpt>
      <trkpt lat="40.8651020" lon="-3.4726670">
        <ele>715.0</ele>
        <time>2020-09-29T16:00:16Z</time>
      </trkpt>
      <trkpt lat="40.8651020" lon="-3.4726670">
        <ele>715.0</ele>
        <time>2020-09-29T16:00:17Z</time>
      </trkpt>
      <trkpt lat="40.8650130" lon="-3.4727680">
        <ele>715.0</ele>
        <time>2020-09-29T16:00:18Z</time>
      </trkpt>
      <trkpt lat="40.8649620" lon="-3.4728050">
        <ele>715.0</ele>
        <time>2020-09-29T16:00:19Z</time>
      </trkpt>
      <trkpt lat="40.8649620" lon="-3.4728050">
        <ele>716.0</ele>
        <time>2020-09-29T16:00:20Z</time>
      </trkpt>
      <trkpt lat="40.8648500" lon="-3.4728780">
        <ele>716.0</ele>
        <time>2020-09-29T16:00:21Z</time>
      </trkpt>
      <trkpt lat="40.8648500" lon="-3.4728780">
        <ele>716.0</ele>
        <time>2020-09-29T16:00:22Z</time>
      </trkpt>
      <trkpt lat="40.8647350" lon="-3.4729570">
        <ele>716.0</ele>
        <time>2020-09-29T16:00:23Z</time>
      </trkpt>
      <trkpt lat="40.8646800" lon="-3.4730000">
        <ele>716.0</ele>
        <time>2020-09-29T16:00:24Z</time>
      </trkpt>
      <trkpt lat="40.8646800" lon="-3.4730000">
        <ele>716.0</ele>
        <time>2020-09-29T16:00:25Z</time>
      </trkpt>
      <trkpt lat="40.8645650" lon="-3.4730780">
        <ele>716.0</ele>
        <time>2020-09-29T16:00:26Z</time>
      </trkpt>
      <trkpt lat="40.8645650" lon="-3.4730780">
        <ele>716.0</ele>
        <time>2020-09-29T16:00:27Z</time>
      </trkpt>
      <trkpt lat="40.8644530" lon="-3.4731600">
        <ele>716.0</ele>
        <time>2020-09-29T16:00:28Z</time>
      </trkpt>
      <trkpt lat="40.8644530" lon="-3.4731600">
        <ele>716.0</ele>
        <time>2020-09-29T16:00:29Z</time>
      </trkpt>
      <trkpt lat="40.8643470" lon="-3.4732430">
        <ele>716.0</ele>
        <time>2020-09-29T16:00:30Z</time>
      </trkpt>
      <trkpt lat="40.8643470" lon="-3.4732430">
        <ele>716.0</ele>
        <time>2020-09-29T16:00:31Z</time>
      </trkpt>
      <trkpt lat="40.8642470" lon="-3.4733370">
        <ele>716.0</ele>
        <time>2020-09-29T16:00:32Z</time>
      </trkpt>
      <trkpt lat="40.8642470" lon="-3.4733370">
        <ele>716.0</ele>
        <time>2020-09-29T16:00:33Z</time>
      </trkpt>
      <trkpt lat="40.8641550" lon="-3.4734370">
        <ele>716.0</ele>
        <time>2020-09-29T16:00:34Z</time>
      </trkpt>
      <trkpt lat="40.8641550" lon="-3.4734370">
        <ele>716.0</ele>
        <time>2020-09-29T16:00:35Z</time>
      </trkpt>
      <trkpt lat="40.8640680" lon="-3.4735480">
        <ele>717.0</ele>
        <time>2020-09-29T16:00:36Z</time>
      </trkpt>
      <trkpt lat="40.8640680" lon="-3.4735480">
        <ele>717.0</ele>
        <time>2020-09-29T16:00:37Z</time>
      </trkpt>
      <trkpt lat="40.8639820" lon="-3.4736630">
        <ele>717.0</ele>
        <time>2020-09-29T16:00:38Z</time>
      </trkpt>
      <trkpt lat="40.8639820" lon="-3.4736630">
        <ele>717.0</ele>
        <time>2020-09-29T16:00:39Z</time>
      </trkpt>
      <trkpt lat="40.8638950" lon="-3.4737730">
        <ele>717.0</ele>
        <time>2020-09-29T16:00:40Z</time>
      </trkpt>
      <trkpt lat="40.8638950" lon="-3.4737730">
        <ele>717.0</ele>
        <time>2020-09-29T16:00:41Z</time>
      </trkpt>
      <trkpt lat="40.8638020" lon="-3.4738900">
        <ele>717.0</ele>
        <time>2020-09-29T16:00:42Z</time>
      </trkpt>
      <trkpt lat="40.8638020" lon="-3.4738900">
        <ele>717.0</ele>
        <time>2020-09-29T16:00:43Z</time>
      </trkpt>
      <trkpt lat="40.8637050" lon="-3.4740130">
        <ele>717.0</ele>
        <time>2020-09-29T16:00:44Z</time>
      </trkpt>
      <trkpt lat="40.8637050" lon="-3.4740130">
        <ele>717.0</ele>
        <time>2020-09-29T16:00:45Z</time>
      </trkpt>
      <trkpt lat="40.8636070" lon="-3.4741380">
        <ele>717.0</ele>
        <time>2020-09-29T16:00:46Z</time>
      </trkpt>
      <trkpt lat="40.8635570" lon="-3.4742000">
        <ele>717.0</ele>
        <time>2020-09-29T16:00:47Z</time>
      </trkpt>
      <trkpt lat="40.8635050" lon="-3.4742620">
        <ele>717.0</ele>
        <time>2020-09-29T16:00:48Z</time>
      </trkpt>
      <trkpt lat="40.8635050" lon="-3.4742620">
        <ele>716.0</ele>
        <time>2020-09-29T16:00:49Z</time>
      </trkpt>
      <trkpt lat="40.8634080" lon="-3.4743900">
        <ele>716.0</ele>
        <time>2020-09-29T16:00:50Z</time>
      </trkpt>
      <trkpt lat="40.8634080" lon="-3.4743900">
        <ele>716.0</ele>
        <time>2020-09-29T16:00:51Z</time>
      </trkpt>
      <trkpt lat="40.8633120" lon="-3.4745180">
        <ele>716.0</ele>
        <time>2020-09-29T16:00:52Z</time>
      </trkpt>
      <trkpt lat="40.8633120" lon="-3.4745180">
        <ele>716.0</ele>
        <time>2020-09-29T16:00:53Z</time>
      </trkpt>
      <trkpt lat="40.8632100" lon="-3.4746450">
        <ele>716.0</ele>
        <time>2020-09-29T16:00:54Z</time>
      </trkpt>
      <trkpt lat="40.8631580" lon="-3.4747070">
        <ele>716.0</ele>
        <time>2020-09-29T16:00:55Z</time>
      </trkpt>
      <trkpt lat="40.8631080" lon="-3.4747720">
        <ele>716.0</ele>
        <time>2020-09-29T16:00:56Z</time>
      </trkpt>
      <trkpt lat="40.8631080" lon="-3.4747720">
        <ele>716.0</ele>
        <time>2020-09-29T16:00:57Z</time>
      </trkpt>
      <trkpt lat="40.8630100" lon="-3.4748980">
        <ele>716.0</ele>
        <time>2020-09-29T16:00:58Z</time>
      </trkpt>
      <trkpt lat="40.8630100" lon="-3.4748980">
        <ele>716.0</ele>
        <time>2020-09-29T16:00:59Z</time>
      </trkpt>
      <trkpt lat="40.8629100" lon="-3.4750220">
        <ele>716.0</ele>
        <time>2020-09-29T16:01:00Z</time>
      </trkpt>
      <trkpt lat="40.8629100" lon="-3.4750220">
        <ele>716.0</ele>
        <time>2020-09-29T16:01:01Z</time>
      </trkpt>
      <trkpt lat="40.8628130" lon="-3.4751470">
        <ele>716.0</ele>
        <time>2020-09-29T16:01:02Z</time>
      </trkpt>
      <trkpt lat="40.8628130" lon="-3.4751470">
        <ele>716.0</ele>
        <time>2020-09-29T16:01:03Z</time>
      </trkpt>
      <trkpt lat="40.8627130" lon="-3.4752650">
        <ele>716.0</ele>
        <time>2020-09-29T16:01:04Z</time>
      </trkpt>
      <trkpt lat="40.8627130" lon="-3.4752650">
        <ele>716.0</ele>
        <time>2020-09-29T16:01:05Z</time>
      </trkpt>
      <trkpt lat="40.8626170" lon="-3.4753850">
        <ele>716.0</ele>
        <time>2020-09-29T16:01:06Z</time>
      </trkpt>
      <trkpt lat="40.8625680" lon="-3.4754470">
        <ele>716.0</ele>
        <time>2020-09-29T16:01:07Z</time>
      </trkpt>
      <trkpt lat="40.8625680" lon="-3.4754470">
        <ele>716.0</ele>
        <time>2020-09-29T16:01:08Z</time>
      </trkpt>
      <trkpt lat="40.8624730" lon="-3.4755680">
        <ele>716.0</ele>
        <time>2020-09-29T16:01:09Z</time>
      </trkpt>
      <trkpt lat="40.8624730" lon="-3.4755680">
        <ele>716.0</ele>
        <time>2020-09-29T16:01:10Z</time>
      </trkpt>
      <trkpt lat="40.8623780" lon="-3.4756950">
        <ele>716.0</ele>
        <time>2020-09-29T16:01:11Z</time>
      </trkpt>
      <trkpt lat="40.8623780" lon="-3.4756950">
        <ele>716.0</ele>
        <time>2020-09-29T16:01:12Z</time>
      </trkpt>
      <trkpt lat="40.8622770" lon="-3.4758180">
        <ele>716.0</ele>
        <time>2020-09-29T16:01:13Z</time>
      </trkpt>
      <trkpt lat="40.8622250" lon="-3.4758780">
        <ele>716.0</ele>
        <time>2020-09-29T16:01:14Z</time>
      </trkpt>
      <trkpt lat="40.8622250" lon="-3.4758780">
        <ele>716.0</ele>
        <time>2020-09-29T16:01:15Z</time>
      </trkpt>
      <trkpt lat="40.8621250" lon="-3.4760070">
        <ele>716.0</ele>
        <time>2020-09-29T16:01:16Z</time>
      </trkpt>
      <trkpt lat="40.8621250" lon="-3.4760070">
        <ele>716.0</ele>
        <time>2020-09-29T16:01:17Z</time>
      </trkpt>
      <trkpt lat="40.8620220" lon="-3.4761350">
        <ele>716.0</ele>
        <time>2020-09-29T16:01:18Z</time>
      </trkpt>
      <trkpt lat="40.8620220" lon="-3.4761350">
        <ele>716.0</ele>
        <time>2020-09-29T16:01:19Z</time>
      </trkpt>
      <trkpt lat="40.8619180" lon="-3.4762630">
        <ele>716.0</ele>
        <time>2020-09-29T16:01:20Z</time>
      </trkpt>
      <trkpt lat="40.8619180" lon="-3.4762630">
        <ele>716.0</ele>
        <time>2020-09-29T16:01:21Z</time>
      </trkpt>
      <trkpt lat="40.8618170" lon="-3.4763930">
        <ele>716.0</ele>
        <time>2020-09-29T16:01:22Z</time>
      </trkpt>
      <trkpt lat="40.8617650" lon="-3.4764600">
        <ele>716.0</ele>
        <time>2020-09-29T16:01:23Z</time>
      </trkpt>
      <trkpt lat="40.8617650" lon="-3.4764600">
        <ele>716.0</ele>
        <time>2020-09-29T16:01:24Z</time>
      </trkpt>
      <trkpt lat="40.8616680" lon="-3.4765870">
        <ele>716.0</ele>
        <time>2020-09-29T16:01:25Z</time>
      </trkpt>
      <trkpt lat="40.8616680" lon="-3.4765870">
        <ele>716.0</ele>
        <time>2020-09-29T16:01:26Z</time>
      </trkpt>
      <trkpt lat="40.8615750" lon="-3.4767100">
        <ele>716.0</ele>
        <time>2020-09-29T16:01:27Z</time>
      </trkpt>
      <trkpt lat="40.8615750" lon="-3.4767100">
        <ele>716.0</ele>
        <time>2020-09-29T16:01:28Z</time>
      </trkpt>
      <trkpt lat="40.8614780" lon="-3.4768320">
        <ele>716.0</ele>
        <time>2020-09-29T16:01:29Z</time>
      </trkpt>
      <trkpt lat="40.8614320" lon="-3.4768920">
        <ele>716.0</ele>
        <time>2020-09-29T16:01:30Z</time>
      </trkpt>
      <trkpt lat="40.8614320" lon="-3.4768920">
        <ele>716.0</ele>
        <time>2020-09-29T16:01:31Z</time>
      </trkpt>
      <trkpt lat="40.8613420" lon="-3.4770050">
        <ele>716.0</ele>
        <time>2020-09-29T16:01:32Z</time>
      </trkpt>
      <trkpt lat="40.8613420" lon="-3.4770050">
        <ele>716.0</ele>
        <time>2020-09-29T16:01:33Z</time>
      </trkpt>
      <trkpt lat="40.8612500" lon="-3.4771200">
        <ele>716.0</ele>
        <time>2020-09-29T16:01:34Z</time>
      </trkpt>
      <trkpt lat="40.8612020" lon="-3.4771730">
        <ele>716.0</ele>
        <time>2020-09-29T16:01:35Z</time>
      </trkpt>
      <trkpt lat="40.8611520" lon="-3.4772320">
        <ele>716.0</ele>
        <time>2020-09-29T16:01:36Z</time>
      </trkpt>
      <trkpt lat="40.8611520" lon="-3.4772320">
        <ele>716.0</ele>
        <time>2020-09-29T16:01:37Z</time>
      </trkpt>
      <trkpt lat="40.8610520" lon="-3.4773470">
        <ele>716.0</ele>
        <time>2020-09-29T16:01:38Z</time>
      </trkpt>
      <trkpt lat="40.8610050" lon="-3.4774080">
        <ele>716.0</ele>
        <time>2020-09-29T16:01:39Z</time>
      </trkpt>
      <trkpt lat="40.8610050" lon="-3.4774080">
        <ele>716.0</ele>
        <time>2020-09-29T16:01:40Z</time>
      </trkpt>
      <trkpt lat="40.8609100" lon="-3.4775330">
        <ele>716.0</ele>
        <time>2020-09-29T16:01:41Z</time>
      </trkpt>
      <trkpt lat="40.8609100" lon="-3.4775330">
        <ele>716.0</ele>
        <time>2020-09-29T16:01:42Z</time>
      </trkpt>
      <trkpt lat="40.8608120" lon="-3.4776550">
        <ele>716.0</ele>
        <time>2020-09-29T16:01:43Z</time>
      </trkpt>
      <trkpt lat="40.8607620" lon="-3.4777150">
        <ele>716.0</ele>
        <time>2020-09-29T16:01:44Z</time>
      </trkpt>
      <trkpt lat="40.8607620" lon="-3.4777150">
        <ele>716.0</ele>
        <time>2020-09-29T16:01:45Z</time>
      </trkpt>
      <trkpt lat="40.8606650" lon="-3.4778420">
        <ele>716.0</ele>
        <time>2020-09-29T16:01:46Z</time>
      </trkpt>
      <trkpt lat="40.8606650" lon="-3.4778420">
        <ele>716.0</ele>
        <time>2020-09-29T16:01:47Z</time>
      </trkpt>
      <trkpt lat="40.8605720" lon="-3.4779620">
        <ele>716.0</ele>
        <time>2020-09-29T16:01:48Z</time>
      </trkpt>
      <trkpt lat="40.8605720" lon="-3.4779620">
        <ele>716.0</ele>
        <time>2020-09-29T16:01:49Z</time>
      </trkpt>
      <trkpt lat="40.8604770" lon="-3.4780820">
        <ele>716.0</ele>
        <time>2020-09-29T16:01:50Z</time>
      </trkpt>
      <trkpt lat="40.8604280" lon="-3.4781430">
        <ele>716.0</ele>
        <time>2020-09-29T16:01:51Z</time>
      </trkpt>
      <trkpt lat="40.8604280" lon="-3.4781430">
        <ele>716.0</ele>
        <time>2020-09-29T16:01:52Z</time>
      </trkpt>
      <trkpt lat="40.8603350" lon="-3.4782630">
        <ele>716.0</ele>
        <time>2020-09-29T16:01:53Z</time>
      </trkpt>
      <trkpt lat="40.8602900" lon="-3.4783200">
        <ele>716.0</ele>
        <time>2020-09-29T16:01:54Z</time>
      </trkpt>
      <trkpt lat="40.8602450" lon="-3.4783770">
        <ele>716.0</ele>
        <time>2020-09-29T16:01:55Z</time>
      </trkpt>
      <trkpt lat="40.8602450" lon="-3.4783770">
        <ele>716.0</ele>
        <time>2020-09-29T16:01:56Z</time>
      </trkpt>
      <trkpt lat="40.8601570" lon="-3.4784920">
        <ele>716.0</ele>
        <time>2020-09-29T16:01:57Z</time>
      </trkpt>
      <trkpt lat="40.8601570" lon="-3.4784920">
        <ele>716.0</ele>
        <time>2020-09-29T16:01:58Z</time>
      </trkpt>
      <trkpt lat="40.8600700" lon="-3.4786020">
        <ele>716.0</ele>
        <time>2020-09-29T16:01:59Z</time>
      </trkpt>
      <trkpt lat="40.8600700" lon="-3.4786020">
        <ele>716.0</ele>
        <time>2020-09-29T16:02:00Z</time>
      </trkpt>
      <trkpt lat="40.8599850" lon="-3.4787100">
        <ele>716.0</ele>
        <time>2020-09-29T16:02:01Z</time>
      </trkpt>
      <trkpt lat="40.8599420" lon="-3.4787620">
        <ele>716.0</ele>
        <time>2020-09-29T16:02:02Z</time>
      </trkpt>
      <trkpt lat="40.8599420" lon="-3.4787620">
        <ele>716.0</ele>
        <time>2020-09-29T16:02:03Z</time>
      </trkpt>
      <trkpt lat="40.8598630" lon="-3.4788630">
        <ele>716.0</ele>
        <time>2020-09-29T16:02:04Z</time>
      </trkpt>
      <trkpt lat="40.8598630" lon="-3.4788630">
        <ele>716.0</ele>
        <time>2020-09-29T16:02:05Z</time>
      </trkpt>
      <trkpt lat="40.8597750" lon="-3.4789730">
        <ele>716.0</ele>
        <time>2020-09-29T16:02:06Z</time>
      </trkpt>
      <trkpt lat="40.8597750" lon="-3.4789730">
        <ele>716.0</ele>
        <time>2020-09-29T16:02:07Z</time>
      </trkpt>
      <trkpt lat="40.8596880" lon="-3.4790870">
        <ele>716.0</ele>
        <time>2020-09-29T16:02:08Z</time>
      </trkpt>
      <trkpt lat="40.8596880" lon="-3.4790870">
        <ele>716.0</ele>
        <time>2020-09-29T16:02:09Z</time>
      </trkpt>
      <trkpt lat="40.8596000" lon="-3.4791980">
        <ele>716.0</ele>
        <time>2020-09-29T16:02:10Z</time>
      </trkpt>
      <trkpt lat="40.8595550" lon="-3.4792530">
        <ele>716.0</ele>
        <time>2020-09-29T16:02:11Z</time>
      </trkpt>
      <trkpt lat="40.8595550" lon="-3.4792530">
        <ele>717.0</ele>
        <time>2020-09-29T16:02:12Z</time>
      </trkpt>
      <trkpt lat="40.8594680" lon="-3.4793600">
        <ele>717.0</ele>
        <time>2020-09-29T16:02:13Z</time>
      </trkpt>
      <trkpt lat="40.8594250" lon="-3.4794130">
        <ele>717.0</ele>
        <time>2020-09-29T16:02:14Z</time>
      </trkpt>
      <trkpt lat="40.8594250" lon="-3.4794130">
        <ele>717.0</ele>
        <time>2020-09-29T16:02:15Z</time>
      </trkpt>
      <trkpt lat="40.8593400" lon="-3.4795250">
        <ele>717.0</ele>
        <time>2020-09-29T16:02:16Z</time>
      </trkpt>
      <trkpt lat="40.8593400" lon="-3.4795250">
        <ele>717.0</ele>
        <time>2020-09-29T16:02:17Z</time>
      </trkpt>
      <trkpt lat="40.8592550" lon="-3.4796330">
        <ele>717.0</ele>
        <time>2020-09-29T16:02:18Z</time>
      </trkpt>
      <trkpt lat="40.8592150" lon="-3.4796850">
        <ele>717.0</ele>
        <time>2020-09-29T16:02:19Z</time>
      </trkpt>
      <trkpt lat="40.8591750" lon="-3.4797330">
        <ele>718.0</ele>
        <time>2020-09-29T16:02:20Z</time>
      </trkpt>
      <trkpt lat="40.8591750" lon="-3.4797330">
        <ele>718.0</ele>
        <time>2020-09-29T16:02:21Z</time>
      </trkpt>
      <trkpt lat="40.8590980" lon="-3.4798330">
        <ele>718.0</ele>
        <time>2020-09-29T16:02:22Z</time>
      </trkpt>
      <trkpt lat="40.8590980" lon="-3.4798330">
        <ele>718.0</ele>
        <time>2020-09-29T16:02:23Z</time>
      </trkpt>
      <trkpt lat="40.8590180" lon="-3.4799270">
        <ele>718.0</ele>
        <time>2020-09-29T16:02:24Z</time>
      </trkpt>
      <trkpt lat="40.8590180" lon="-3.4799270">
        <ele>718.0</ele>
        <time>2020-09-29T16:02:25Z</time>
      </trkpt>
      <trkpt lat="40.8589420" lon="-3.4800230">
        <ele>718.0</ele>
        <time>2020-09-29T16:02:26Z</time>
      </trkpt>
      <trkpt lat="40.8589420" lon="-3.4800230">
        <ele>718.0</ele>
        <time>2020-09-29T16:02:27Z</time>
      </trkpt>
      <trkpt lat="40.8588670" lon="-3.4801180">
        <ele>719.0</ele>
        <time>2020-09-29T16:02:28Z</time>
      </trkpt>
      <trkpt lat="40.8588670" lon="-3.4801180">
        <ele>719.0</ele>
        <time>2020-09-29T16:02:29Z</time>
      </trkpt>
      <trkpt lat="40.8587930" lon="-3.4802150">
        <ele>719.0</ele>
        <time>2020-09-29T16:02:30Z</time>
      </trkpt>
      <trkpt lat="40.8587550" lon="-3.4802620">
        <ele>719.0</ele>
        <time>2020-09-29T16:02:31Z</time>
      </trkpt>
      <trkpt lat="40.8587550" lon="-3.4802620">
        <ele>719.0</ele>
        <time>2020-09-29T16:02:32Z</time>
      </trkpt>
      <trkpt lat="40.8586800" lon="-3.4803550">
        <ele>719.0</ele>
        <time>2020-09-29T16:02:33Z</time>
      </trkpt>
      <trkpt lat="40.8586470" lon="-3.4804000">
        <ele>719.0</ele>
        <time>2020-09-29T16:02:34Z</time>
      </trkpt>
      <trkpt lat="40.8586470" lon="-3.4804000">
        <ele>720.0</ele>
        <time>2020-09-29T16:02:35Z</time>
      </trkpt>
      <trkpt lat="40.8585720" lon="-3.4804950">
        <ele>720.0</ele>
        <time>2020-09-29T16:02:36Z</time>
      </trkpt>
      <trkpt lat="40.8585720" lon="-3.4804950">
        <ele>720.0</ele>
        <time>2020-09-29T16:02:37Z</time>
      </trkpt>
      <trkpt lat="40.8584980" lon="-3.4805920">
        <ele>720.0</ele>
        <time>2020-09-29T16:02:38Z</time>
      </trkpt>
      <trkpt lat="40.8584980" lon="-3.4805920">
        <ele>720.0</ele>
        <time>2020-09-29T16:02:39Z</time>
      </trkpt>
      <trkpt lat="40.8584220" lon="-3.4806870">
        <ele>720.0</ele>
        <time>2020-09-29T16:02:40Z</time>
      </trkpt>
      <trkpt lat="40.8584220" lon="-3.4806870">
        <ele>720.0</ele>
        <time>2020-09-29T16:02:41Z</time>
      </trkpt>
      <trkpt lat="40.8583480" lon="-3.4807800">
        <ele>720.0</ele>
        <time>2020-09-29T16:02:42Z</time>
      </trkpt>
      <trkpt lat="40.8583480" lon="-3.4807800">
        <ele>720.0</ele>
        <time>2020-09-29T16:02:43Z</time>
      </trkpt>
      <trkpt lat="40.8582750" lon="-3.4808750">
        <ele>720.0</ele>
        <time>2020-09-29T16:02:44Z</time>
      </trkpt>
      <trkpt lat="40.8582750" lon="-3.4808750">
        <ele>720.0</ele>
        <time>2020-09-29T16:02:45Z</time>
      </trkpt>
      <trkpt lat="40.8582020" lon="-3.4809750">
        <ele>720.0</ele>
        <time>2020-09-29T16:02:46Z</time>
      </trkpt>
      <trkpt lat="40.8582020" lon="-3.4809750">
        <ele>720.0</ele>
        <time>2020-09-29T16:02:47Z</time>
      </trkpt>
      <trkpt lat="40.8581280" lon="-3.4810720">
        <ele>720.0</ele>
        <time>2020-09-29T16:02:48Z</time>
      </trkpt>
      <trkpt lat="40.8581280" lon="-3.4810720">
        <ele>720.0</ele>
        <time>2020-09-29T16:02:49Z</time>
      </trkpt>
      <trkpt lat="40.8580500" lon="-3.4811670">
        <ele>720.0</ele>
        <time>2020-09-29T16:02:50Z</time>
      </trkpt>
      <trkpt lat="40.8580500" lon="-3.4811670">
        <ele>720.0</ele>
        <time>2020-09-29T16:02:51Z</time>
      </trkpt>
      <trkpt lat="40.8579730" lon="-3.4812620">
        <ele>720.0</ele>
        <time>2020-09-29T16:02:52Z</time>
      </trkpt>
      <trkpt lat="40.8579730" lon="-3.4812620">
        <ele>721.0</ele>
        <time>2020-09-29T16:02:53Z</time>
      </trkpt>
      <trkpt lat="40.8578970" lon="-3.4813580">
        <ele>721.0</ele>
        <time>2020-09-29T16:02:54Z</time>
      </trkpt>
      <trkpt lat="40.8578970" lon="-3.4813580">
        <ele>721.0</ele>
        <time>2020-09-29T16:02:55Z</time>
      </trkpt>
      <trkpt lat="40.8578180" lon="-3.4814530">
        <ele>721.0</ele>
        <time>2020-09-29T16:02:56Z</time>
      </trkpt>
      <trkpt lat="40.8578180" lon="-3.4814530">
        <ele>721.0</ele>
        <time>2020-09-29T16:02:57Z</time>
      </trkpt>
      <trkpt lat="40.8577380" lon="-3.4815470">
        <ele>721.0</ele>
        <time>2020-09-29T16:02:58Z</time>
      </trkpt>
      <trkpt lat="40.8577000" lon="-3.4815930">
        <ele>721.0</ele>
        <time>2020-09-29T16:02:59Z</time>
      </trkpt>
      <trkpt lat="40.8577000" lon="-3.4815930">
        <ele>721.0</ele>
        <time>2020-09-29T16:03:00Z</time>
      </trkpt>
      <trkpt lat="40.8576230" lon="-3.4816800">
        <ele>722.0</ele>
        <time>2020-09-29T16:03:01Z</time>
      </trkpt>
      <trkpt lat="40.8576230" lon="-3.4816800">
        <ele>722.0</ele>
        <time>2020-09-29T16:03:02Z</time>
      </trkpt>
      <trkpt lat="40.8575520" lon="-3.4817750">
        <ele>722.0</ele>
        <time>2020-09-29T16:03:03Z</time>
      </trkpt>
      <trkpt lat="40.8575520" lon="-3.4817750">
        <ele>722.0</ele>
        <time>2020-09-29T16:03:04Z</time>
      </trkpt>
      <trkpt lat="40.8574830" lon="-3.4818620">
        <ele>722.0</ele>
        <time>2020-09-29T16:03:05Z</time>
      </trkpt>
      <trkpt lat="40.8574470" lon="-3.4819070">
        <ele>722.0</ele>
        <time>2020-09-29T16:03:06Z</time>
      </trkpt>
      <trkpt lat="40.8574470" lon="-3.4819070">
        <ele>722.0</ele>
        <time>2020-09-29T16:03:07Z</time>
      </trkpt>
      <trkpt lat="40.8573750" lon="-3.4819980">
        <ele>722.0</ele>
        <time>2020-09-29T16:03:08Z</time>
      </trkpt>
      <trkpt lat="40.8573750" lon="-3.4819980">
        <ele>722.0</ele>
        <time>2020-09-29T16:03:09Z</time>
      </trkpt>
      <trkpt lat="40.8572980" lon="-3.4820920">
        <ele>723.0</ele>
        <time>2020-09-29T16:03:10Z</time>
      </trkpt>
      <trkpt lat="40.8572980" lon="-3.4820920">
        <ele>723.0</ele>
        <time>2020-09-29T16:03:11Z</time>
      </trkpt>
      <trkpt lat="40.8572180" lon="-3.4821830">
        <ele>723.0</ele>
        <time>2020-09-29T16:03:12Z</time>
      </trkpt>
      <trkpt lat="40.8571800" lon="-3.4822320">
        <ele>723.0</ele>
        <time>2020-09-29T16:03:13Z</time>
      </trkpt>
      <trkpt lat="40.8571420" lon="-3.4822800">
        <ele>723.0</ele>
        <time>2020-09-29T16:03:14Z</time>
      </trkpt>
      <trkpt lat="40.8571420" lon="-3.4822800">
        <ele>723.0</ele>
        <time>2020-09-29T16:03:15Z</time>
      </trkpt>
      <trkpt lat="40.8570680" lon="-3.4823780">
        <ele>723.0</ele>
        <time>2020-09-29T16:03:16Z</time>
      </trkpt>
      <trkpt lat="40.8570320" lon="-3.4824250">
        <ele>723.0</ele>
        <time>2020-09-29T16:03:17Z</time>
      </trkpt>
      <trkpt lat="40.8570320" lon="-3.4824250">
        <ele>723.0</ele>
        <time>2020-09-29T16:03:18Z</time>
      </trkpt>
      <trkpt lat="40.8569580" lon="-3.4825230">
        <ele>723.0</ele>
        <time>2020-09-29T16:03:19Z</time>
      </trkpt>
      <trkpt lat="40.8569200" lon="-3.4825720">
        <ele>724.0</ele>
        <time>2020-09-29T16:03:20Z</time>
      </trkpt>
      <trkpt lat="40.8568800" lon="-3.4826150">
        <ele>724.0</ele>
        <time>2020-09-29T16:03:21Z</time>
      </trkpt>
      <trkpt lat="40.8568800" lon="-3.4826150">
        <ele>724.0</ele>
        <time>2020-09-29T16:03:22Z</time>
      </trkpt>
      <trkpt lat="40.8568070" lon="-3.4827080">
        <ele>724.0</ele>
        <time>2020-09-29T16:03:23Z</time>
      </trkpt>
      <trkpt lat="40.8568070" lon="-3.4827080">
        <ele>724.0</ele>
        <time>2020-09-29T16:03:24Z</time>
      </trkpt>
      <trkpt lat="40.8567250" lon="-3.4828070">
        <ele>724.0</ele>
        <time>2020-09-29T16:03:25Z</time>
      </trkpt>
      <trkpt lat="40.8566850" lon="-3.4828530">
        <ele>724.0</ele>
        <time>2020-09-29T16:03:26Z</time>
      </trkpt>
      <trkpt lat="40.8566850" lon="-3.4828530">
        <ele>724.0</ele>
        <time>2020-09-29T16:03:27Z</time>
      </trkpt>
      <trkpt lat="40.8566080" lon="-3.4829480">
        <ele>724.0</ele>
        <time>2020-09-29T16:03:28Z</time>
      </trkpt>
      <trkpt lat="40.8566080" lon="-3.4829480">
        <ele>724.0</ele>
        <time>2020-09-29T16:03:29Z</time>
      </trkpt>
      <trkpt lat="40.8565350" lon="-3.4830430">
        <ele>724.0</ele>
        <time>2020-09-29T16:03:30Z</time>
      </trkpt>
      <trkpt lat="40.8565350" lon="-3.4830430">
        <ele>724.0</ele>
        <time>2020-09-29T16:03:31Z</time>
      </trkpt>
      <trkpt lat="40.8564650" lon="-3.4831370">
        <ele>724.0</ele>
        <time>2020-09-29T16:03:32Z</time>
      </trkpt>
      <trkpt lat="40.8564650" lon="-3.4831370">
        <ele>724.0</ele>
        <time>2020-09-29T16:03:33Z</time>
      </trkpt>
      <trkpt lat="40.8563900" lon="-3.4832270">
        <ele>724.0</ele>
        <time>2020-09-29T16:03:34Z</time>
      </trkpt>
      <trkpt lat="40.8563900" lon="-3.4832270">
        <ele>724.0</ele>
        <time>2020-09-29T16:03:35Z</time>
      </trkpt>
      <trkpt lat="40.8563200" lon="-3.4833270">
        <ele>724.0</ele>
        <time>2020-09-29T16:03:36Z</time>
      </trkpt>
      <trkpt lat="40.8563200" lon="-3.4833270">
        <ele>724.0</ele>
        <time>2020-09-29T16:03:37Z</time>
      </trkpt>
      <trkpt lat="40.8562470" lon="-3.4834220">
        <ele>724.0</ele>
        <time>2020-09-29T16:03:38Z</time>
      </trkpt>
      <trkpt lat="40.8562470" lon="-3.4834220">
        <ele>724.0</ele>
        <time>2020-09-29T16:03:39Z</time>
      </trkpt>
      <trkpt lat="40.8561720" lon="-3.4835150">
        <ele>725.0</ele>
        <time>2020-09-29T16:03:40Z</time>
      </trkpt>
      <trkpt lat="40.8561720" lon="-3.4835150">
        <ele>725.0</ele>
        <time>2020-09-29T16:03:41Z</time>
      </trkpt>
      <trkpt lat="40.8560920" lon="-3.4836070">
        <ele>725.0</ele>
        <time>2020-09-29T16:03:42Z</time>
      </trkpt>
      <trkpt lat="40.8560920" lon="-3.4836070">
        <ele>725.0</ele>
        <time>2020-09-29T16:03:43Z</time>
      </trkpt>
      <trkpt lat="40.8560150" lon="-3.4836950">
        <ele>725.0</ele>
        <time>2020-09-29T16:03:44Z</time>
      </trkpt>
      <trkpt lat="40.8560150" lon="-3.4836950">
        <ele>725.0</ele>
        <time>2020-09-29T16:03:45Z</time>
      </trkpt>
      <trkpt lat="40.8559430" lon="-3.4837920">
        <ele>725.0</ele>
        <time>2020-09-29T16:03:46Z</time>
      </trkpt>
      <trkpt lat="40.8559430" lon="-3.4837920">
        <ele>725.0</ele>
        <time>2020-09-29T16:03:47Z</time>
      </trkpt>
      <trkpt lat="40.8558680" lon="-3.4838870">
        <ele>725.0</ele>
        <time>2020-09-29T16:03:48Z</time>
      </trkpt>
      <trkpt lat="40.8558270" lon="-3.4839350">
        <ele>725.0</ele>
        <time>2020-09-29T16:03:49Z</time>
      </trkpt>
      <trkpt lat="40.8558270" lon="-3.4839350">
        <ele>725.0</ele>
        <time>2020-09-29T16:03:50Z</time>
      </trkpt>
      <trkpt lat="40.8557480" lon="-3.4840280">
        <ele>725.0</ele>
        <time>2020-09-29T16:03:51Z</time>
      </trkpt>
      <trkpt lat="40.8557480" lon="-3.4840280">
        <ele>725.0</ele>
        <time>2020-09-29T16:03:52Z</time>
      </trkpt>
      <trkpt lat="40.8556670" lon="-3.4841320">
        <ele>725.0</ele>
        <time>2020-09-29T16:03:53Z</time>
      </trkpt>
      <trkpt lat="40.8556230" lon="-3.4841830">
        <ele>725.0</ele>
        <time>2020-09-29T16:03:54Z</time>
      </trkpt>
      <trkpt lat="40.8556230" lon="-3.4841830">
        <ele>725.0</ele>
        <time>2020-09-29T16:03:55Z</time>
      </trkpt>
      <trkpt lat="40.8555350" lon="-3.4842880">
        <ele>725.0</ele>
        <time>2020-09-29T16:03:56Z</time>
      </trkpt>
      <trkpt lat="40.8555350" lon="-3.4842880">
        <ele>725.0</ele>
        <time>2020-09-29T16:03:57Z</time>
      </trkpt>
      <trkpt lat="40.8554500" lon="-3.4844000">
        <ele>725.0</ele>
        <time>2020-09-29T16:03:58Z</time>
      </trkpt>
      <trkpt lat="40.8554500" lon="-3.4844000">
        <ele>725.0</ele>
        <time>2020-09-29T16:03:59Z</time>
      </trkpt>
      <trkpt lat="40.8553650" lon="-3.4845100">
        <ele>725.0</ele>
        <time>2020-09-29T16:04:00Z</time>
      </trkpt>
      <trkpt lat="40.8553230" lon="-3.4845670">
        <ele>725.0</ele>
        <time>2020-09-29T16:04:01Z</time>
      </trkpt>
      <trkpt lat="40.8552800" lon="-3.4846220">
        <ele>725.0</ele>
        <time>2020-09-29T16:04:02Z</time>
      </trkpt>
      <trkpt lat="40.8552800" lon="-3.4846220">
        <ele>725.0</ele>
        <time>2020-09-29T16:04:03Z</time>
      </trkpt>
      <trkpt lat="40.8551930" lon="-3.4847370">
        <ele>725.0</ele>
        <time>2020-09-29T16:04:04Z</time>
      </trkpt>
      <trkpt lat="40.8551500" lon="-3.4847930">
        <ele>725.0</ele>
        <time>2020-09-29T16:04:05Z</time>
      </trkpt>
      <trkpt lat="40.8551500" lon="-3.4847930">
        <ele>725.0</ele>
        <time>2020-09-29T16:04:06Z</time>
      </trkpt>
      <trkpt lat="40.8550680" lon="-3.4849030">
        <ele>725.0</ele>
        <time>2020-09-29T16:04:07Z</time>
      </trkpt>
      <trkpt lat="40.8550680" lon="-3.4849030">
        <ele>725.0</ele>
        <time>2020-09-29T16:04:08Z</time>
      </trkpt>
      <trkpt lat="40.8549850" lon="-3.4850120">
        <ele>725.0</ele>
        <time>2020-09-29T16:04:09Z</time>
      </trkpt>
      <trkpt lat="40.8549850" lon="-3.4850120">
        <ele>725.0</ele>
        <time>2020-09-29T16:04:10Z</time>
      </trkpt>
      <trkpt lat="40.8548920" lon="-3.4851250">
        <ele>725.0</ele>
        <time>2020-09-29T16:04:11Z</time>
      </trkpt>
      <trkpt lat="40.8548920" lon="-3.4851250">
        <ele>725.0</ele>
        <time>2020-09-29T16:04:12Z</time>
      </trkpt>
      <trkpt lat="40.8547950" lon="-3.4852370">
        <ele>725.0</ele>
        <time>2020-09-29T16:04:13Z</time>
      </trkpt>
      <trkpt lat="40.8547450" lon="-3.4852950">
        <ele>725.0</ele>
        <time>2020-09-29T16:04:14Z</time>
      </trkpt>
      <trkpt lat="40.8547450" lon="-3.4852950">
        <ele>725.0</ele>
        <time>2020-09-29T16:04:15Z</time>
      </trkpt>
      <trkpt lat="40.8546500" lon="-3.4854050">
        <ele>725.0</ele>
        <time>2020-09-29T16:04:16Z</time>
      </trkpt>
      <trkpt lat="40.8546500" lon="-3.4854050">
        <ele>725.0</ele>
        <time>2020-09-29T16:04:17Z</time>
      </trkpt>
      <trkpt lat="40.8545630" lon="-3.4855250">
        <ele>725.0</ele>
        <time>2020-09-29T16:04:18Z</time>
      </trkpt>
      <trkpt lat="40.8545630" lon="-3.4855250">
        <ele>725.0</ele>
        <time>2020-09-29T16:04:19Z</time>
      </trkpt>
      <trkpt lat="40.8544720" lon="-3.4856470">
        <ele>725.0</ele>
        <time>2020-09-29T16:04:20Z</time>
      </trkpt>
      <trkpt lat="40.8544720" lon="-3.4856470">
        <ele>725.0</ele>
        <time>2020-09-29T16:04:21Z</time>
      </trkpt>
      <trkpt lat="40.8543750" lon="-3.4857700">
        <ele>725.0</ele>
        <time>2020-09-29T16:04:22Z</time>
      </trkpt>
      <trkpt lat="40.8543750" lon="-3.4857700">
        <ele>725.0</ele>
        <time>2020-09-29T16:04:23Z</time>
      </trkpt>
      <trkpt lat="40.8542720" lon="-3.4858970">
        <ele>724.0</ele>
        <time>2020-09-29T16:04:24Z</time>
      </trkpt>
      <trkpt lat="40.8542720" lon="-3.4858970">
        <ele>724.0</ele>
        <time>2020-09-29T16:04:25Z</time>
      </trkpt>
      <trkpt lat="40.8541700" lon="-3.4860280">
        <ele>724.0</ele>
        <time>2020-09-29T16:04:26Z</time>
      </trkpt>
      <trkpt lat="40.8541700" lon="-3.4860280">
        <ele>724.0</ele>
        <time>2020-09-29T16:04:27Z</time>
      </trkpt>
      <trkpt lat="40.8540620" lon="-3.4861580">
        <ele>723.0</ele>
        <time>2020-09-29T16:04:28Z</time>
      </trkpt>
      <trkpt lat="40.8540620" lon="-3.4861580">
        <ele>723.0</ele>
        <time>2020-09-29T16:04:29Z</time>
      </trkpt>
      <trkpt lat="40.8539580" lon="-3.4862920">
        <ele>723.0</ele>
        <time>2020-09-29T16:04:30Z</time>
      </trkpt>
      <trkpt lat="40.8539580" lon="-3.4862920">
        <ele>723.0</ele>
        <time>2020-09-29T16:04:31Z</time>
      </trkpt>
      <trkpt lat="40.8538530" lon="-3.4864250">
        <ele>722.0</ele>
        <time>2020-09-29T16:04:32Z</time>
      </trkpt>
      <trkpt lat="40.8538530" lon="-3.4864250">
        <ele>722.0</ele>
        <time>2020-09-29T16:04:33Z</time>
      </trkpt>
      <trkpt lat="40.8537450" lon="-3.4865520">
        <ele>722.0</ele>
        <time>2020-09-29T16:04:34Z</time>
      </trkpt>
      <trkpt lat="40.8536930" lon="-3.4866170">
        <ele>722.0</ele>
        <time>2020-09-29T16:04:35Z</time>
      </trkpt>
      <trkpt lat="40.8536930" lon="-3.4866170">
        <ele>722.0</ele>
        <time>2020-09-29T16:04:36Z</time>
      </trkpt>
      <trkpt lat="40.8535920" lon="-3.4867480">
        <ele>722.0</ele>
        <time>2020-09-29T16:04:37Z</time>
      </trkpt>
      <trkpt lat="40.8535420" lon="-3.4868130">
        <ele>721.0</ele>
        <time>2020-09-29T16:04:38Z</time>
      </trkpt>
      <trkpt lat="40.8535420" lon="-3.4868130">
        <ele>721.0</ele>
        <time>2020-09-29T16:04:39Z</time>
      </trkpt>
      <trkpt lat="40.8534430" lon="-3.4869380">
        <ele>721.0</ele>
        <time>2020-09-29T16:04:40Z</time>
      </trkpt>
      <trkpt lat="40.8534430" lon="-3.4869380">
        <ele>721.0</ele>
        <time>2020-09-29T16:04:41Z</time>
      </trkpt>
      <trkpt lat="40.8533350" lon="-3.4870580">
        <ele>721.0</ele>
        <time>2020-09-29T16:04:42Z</time>
      </trkpt>
      <trkpt lat="40.8533350" lon="-3.4870580">
        <ele>721.0</ele>
        <time>2020-09-29T16:04:43Z</time>
      </trkpt>
      <trkpt lat="40.8532420" lon="-3.4871830">
        <ele>721.0</ele>
        <time>2020-09-29T16:04:44Z</time>
      </trkpt>
      <trkpt lat="40.8532420" lon="-3.4871830">
        <ele>721.0</ele>
        <time>2020-09-29T16:04:45Z</time>
      </trkpt>
      <trkpt lat="40.8531450" lon="-3.4873100">
        <ele>721.0</ele>
        <time>2020-09-29T16:04:46Z</time>
      </trkpt>
      <trkpt lat="40.8531450" lon="-3.4873100">
        <ele>721.0</ele>
        <time>2020-09-29T16:04:47Z</time>
      </trkpt>
      <trkpt lat="40.8530430" lon="-3.4874420">
        <ele>721.0</ele>
        <time>2020-09-29T16:04:48Z</time>
      </trkpt>
      <trkpt lat="40.8530430" lon="-3.4874420">
        <ele>721.0</ele>
        <time>2020-09-29T16:04:49Z</time>
      </trkpt>
      <trkpt lat="40.8529400" lon="-3.4875800">
        <ele>721.0</ele>
        <time>2020-09-29T16:04:50Z</time>
      </trkpt>
      <trkpt lat="40.8529400" lon="-3.4875800">
        <ele>721.0</ele>
        <time>2020-09-29T16:04:51Z</time>
      </trkpt>
      <trkpt lat="40.8528350" lon="-3.4877170">
        <ele>721.0</ele>
        <time>2020-09-29T16:04:52Z</time>
      </trkpt>
      <trkpt lat="40.8527800" lon="-3.4877820">
        <ele>721.0</ele>
        <time>2020-09-29T16:04:53Z</time>
      </trkpt>
      <trkpt lat="40.8527800" lon="-3.4877820">
        <ele>720.0</ele>
        <time>2020-09-29T16:04:54Z</time>
      </trkpt>
      <trkpt lat="40.8526770" lon="-3.4879100">
        <ele>720.0</ele>
        <time>2020-09-29T16:04:55Z</time>
      </trkpt>
      <trkpt lat="40.8526230" lon="-3.4879770">
        <ele>720.0</ele>
        <time>2020-09-29T16:04:56Z</time>
      </trkpt>
      <trkpt lat="40.8526230" lon="-3.4879770">
        <ele>720.0</ele>
        <time>2020-09-29T16:04:57Z</time>
      </trkpt>
      <trkpt lat="40.8525220" lon="-3.4881050">
        <ele>720.0</ele>
        <time>2020-09-29T16:04:58Z</time>
      </trkpt>
      <trkpt lat="40.8525220" lon="-3.4881050">
        <ele>720.0</ele>
        <time>2020-09-29T16:04:59Z</time>
      </trkpt>
      <trkpt lat="40.8524230" lon="-3.4882350">
        <ele>720.0</ele>
        <time>2020-09-29T16:05:00Z</time>
      </trkpt>
      <trkpt lat="40.8523720" lon="-3.4883020">
        <ele>720.0</ele>
        <time>2020-09-29T16:05:01Z</time>
      </trkpt>
      <trkpt lat="40.8523230" lon="-3.4883650">
        <ele>719.0</ele>
        <time>2020-09-29T16:05:02Z</time>
      </trkpt>
      <trkpt lat="40.8523230" lon="-3.4883650">
        <ele>719.0</ele>
        <time>2020-09-29T16:05:03Z</time>
      </trkpt>
      <trkpt lat="40.8522250" lon="-3.4884920">
        <ele>719.0</ele>
        <time>2020-09-29T16:05:04Z</time>
      </trkpt>
      <trkpt lat="40.8521750" lon="-3.4885570">
        <ele>719.0</ele>
        <time>2020-09-29T16:05:05Z</time>
      </trkpt>
      <trkpt lat="40.8521750" lon="-3.4885570">
        <ele>719.0</ele>
        <time>2020-09-29T16:05:06Z</time>
      </trkpt>
      <trkpt lat="40.8520720" lon="-3.4886880">
        <ele>719.0</ele>
        <time>2020-09-29T16:05:07Z</time>
      </trkpt>
      <trkpt lat="40.8520200" lon="-3.4887530">
        <ele>718.0</ele>
        <time>2020-09-29T16:05:08Z</time>
      </trkpt>
      <trkpt lat="40.8520200" lon="-3.4887530">
        <ele>718.0</ele>
        <time>2020-09-29T16:05:09Z</time>
      </trkpt>
      <trkpt lat="40.8519280" lon="-3.4888820">
        <ele>718.0</ele>
        <time>2020-09-29T16:05:10Z</time>
      </trkpt>
      <trkpt lat="40.8519280" lon="-3.4888820">
        <ele>718.0</ele>
        <time>2020-09-29T16:05:11Z</time>
      </trkpt>
      <trkpt lat="40.8518320" lon="-3.4890170">
        <ele>718.0</ele>
        <time>2020-09-29T16:05:12Z</time>
      </trkpt>
      <trkpt lat="40.8518320" lon="-3.4890170">
        <ele>718.0</ele>
        <time>2020-09-29T16:05:13Z</time>
      </trkpt>
      <trkpt lat="40.8517280" lon="-3.4891470">
        <ele>717.0</ele>
        <time>2020-09-29T16:05:14Z</time>
      </trkpt>
      <trkpt lat="40.8517280" lon="-3.4891470">
        <ele>717.0</ele>
        <time>2020-09-29T16:05:15Z</time>
      </trkpt>
      <trkpt lat="40.8516250" lon="-3.4892780">
        <ele>717.0</ele>
        <time>2020-09-29T16:05:16Z</time>
      </trkpt>
      <trkpt lat="40.8515730" lon="-3.4893430">
        <ele>717.0</ele>
        <time>2020-09-29T16:05:17Z</time>
      </trkpt>
      <trkpt lat="40.8515730" lon="-3.4893430">
        <ele>717.0</ele>
        <time>2020-09-29T16:05:18Z</time>
      </trkpt>
      <trkpt lat="40.8514730" lon="-3.4894730">
        <ele>717.0</ele>
        <time>2020-09-29T16:05:19Z</time>
      </trkpt>
      <trkpt lat="40.8514220" lon="-3.4895400">
        <ele>717.0</ele>
        <time>2020-09-29T16:05:20Z</time>
      </trkpt>
      <trkpt lat="40.8514220" lon="-3.4895400">
        <ele>717.0</ele>
        <time>2020-09-29T16:05:21Z</time>
      </trkpt>
      <trkpt lat="40.8513150" lon="-3.4896680">
        <ele>717.0</ele>
        <time>2020-09-29T16:05:22Z</time>
      </trkpt>
      <trkpt lat="40.8512630" lon="-3.4897320">
        <ele>717.0</ele>
        <time>2020-09-29T16:05:23Z</time>
      </trkpt>
      <trkpt lat="40.8512630" lon="-3.4897320">
        <ele>717.0</ele>
        <time>2020-09-29T16:05:24Z</time>
      </trkpt>
      <trkpt lat="40.8511600" lon="-3.4898570">
        <ele>717.0</ele>
        <time>2020-09-29T16:05:25Z</time>
      </trkpt>
      <trkpt lat="40.8511120" lon="-3.4899220">
        <ele>717.0</ele>
        <time>2020-09-29T16:05:26Z</time>
      </trkpt>
      <trkpt lat="40.8511120" lon="-3.4899220">
        <ele>717.0</ele>
        <time>2020-09-29T16:05:27Z</time>
      </trkpt>
      <trkpt lat="40.8510080" lon="-3.4900550">
        <ele>716.0</ele>
        <time>2020-09-29T16:05:28Z</time>
      </trkpt>
      <trkpt lat="40.8510080" lon="-3.4900550">
        <ele>716.0</ele>
        <time>2020-09-29T16:05:29Z</time>
      </trkpt>
      <trkpt lat="40.8509030" lon="-3.4901870">
        <ele>716.0</ele>
        <time>2020-09-29T16:05:30Z</time>
      </trkpt>
      <trkpt lat="40.8509030" lon="-3.4901870">
        <ele>716.0</ele>
        <time>2020-09-29T16:05:31Z</time>
      </trkpt>
      <trkpt lat="40.8508020" lon="-3.4903170">
        <ele>716.0</ele>
        <time>2020-09-29T16:05:32Z</time>
      </trkpt>
      <trkpt lat="40.8508020" lon="-3.4903170">
        <ele>716.0</ele>
        <time>2020-09-29T16:05:33Z</time>
      </trkpt>
      <trkpt lat="40.8507020" lon="-3.4904450">
        <ele>716.0</ele>
        <time>2020-09-29T16:05:34Z</time>
      </trkpt>
      <trkpt lat="40.8507020" lon="-3.4904450">
        <ele>716.0</ele>
        <time>2020-09-29T16:05:35Z</time>
      </trkpt>
      <trkpt lat="40.8505980" lon="-3.4905720">
        <ele>716.0</ele>
        <time>2020-09-29T16:05:36Z</time>
      </trkpt>
      <trkpt lat="40.8505980" lon="-3.4905720">
        <ele>716.0</ele>
        <time>2020-09-29T16:05:37Z</time>
      </trkpt>
      <trkpt lat="40.8504980" lon="-3.4907000">
        <ele>716.0</ele>
        <time>2020-09-29T16:05:38Z</time>
      </trkpt>
      <trkpt lat="40.8504980" lon="-3.4907000">
        <ele>716.0</ele>
        <time>2020-09-29T16:05:39Z</time>
      </trkpt>
      <trkpt lat="40.8503980" lon="-3.4908250">
        <ele>716.0</ele>
        <time>2020-09-29T16:05:40Z</time>
      </trkpt>
      <trkpt lat="40.8503980" lon="-3.4908250">
        <ele>716.0</ele>
        <time>2020-09-29T16:05:41Z</time>
      </trkpt>
      <trkpt lat="40.8503000" lon="-3.4909520">
        <ele>716.0</ele>
        <time>2020-09-29T16:05:42Z</time>
      </trkpt>
      <trkpt lat="40.8502520" lon="-3.4910170">
        <ele>716.0</ele>
        <time>2020-09-29T16:05:43Z</time>
      </trkpt>
      <trkpt lat="40.8502030" lon="-3.4910750">
        <ele>716.0</ele>
        <time>2020-09-29T16:05:44Z</time>
      </trkpt>
      <trkpt lat="40.8502030" lon="-3.4910750">
        <ele>716.0</ele>
        <time>2020-09-29T16:05:45Z</time>
      </trkpt>
      <trkpt lat="40.8501120" lon="-3.4911930">
        <ele>716.0</ele>
        <time>2020-09-29T16:05:46Z</time>
      </trkpt>
      <trkpt lat="40.8500670" lon="-3.4912500">
        <ele>716.0</ele>
        <time>2020-09-29T16:05:47Z</time>
      </trkpt>
      <trkpt lat="40.8500670" lon="-3.4912500">
        <ele>716.0</ele>
        <time>2020-09-29T16:05:48Z</time>
      </trkpt>
      <trkpt lat="40.8499750" lon="-3.4913620">
        <ele>716.0</ele>
        <time>2020-09-29T16:05:49Z</time>
      </trkpt>
      <trkpt lat="40.8499320" lon="-3.4914170">
        <ele>716.0</ele>
        <time>2020-09-29T16:05:50Z</time>
      </trkpt>
      <trkpt lat="40.8499320" lon="-3.4914170">
        <ele>716.0</ele>
        <time>2020-09-29T16:05:51Z</time>
      </trkpt>
      <trkpt lat="40.8498430" lon="-3.4915300">
        <ele>716.0</ele>
        <time>2020-09-29T16:05:52Z</time>
      </trkpt>
      <trkpt lat="40.8498000" lon="-3.4915850">
        <ele>716.0</ele>
        <time>2020-09-29T16:05:53Z</time>
      </trkpt>
      <trkpt lat="40.8498000" lon="-3.4915850">
        <ele>716.0</ele>
        <time>2020-09-29T16:05:54Z</time>
      </trkpt>
      <trkpt lat="40.8497120" lon="-3.4916930">
        <ele>717.0</ele>
        <time>2020-09-29T16:05:55Z</time>
      </trkpt>
      <trkpt lat="40.8496670" lon="-3.4917470">
        <ele>717.0</ele>
        <time>2020-09-29T16:05:56Z</time>
      </trkpt>
      <trkpt lat="40.8496670" lon="-3.4917470">
        <ele>717.0</ele>
        <time>2020-09-29T16:05:57Z</time>
      </trkpt>
      <trkpt lat="40.8495780" lon="-3.4918570">
        <ele>717.0</ele>
        <time>2020-09-29T16:05:58Z</time>
      </trkpt>
      <trkpt lat="40.8495780" lon="-3.4918570">
        <ele>717.0</ele>
        <time>2020-09-29T16:05:59Z</time>
      </trkpt>
      <trkpt lat="40.8494920" lon="-3.4919680">
        <ele>717.0</ele>
        <time>2020-09-29T16:06:00Z</time>
      </trkpt>
      <trkpt lat="40.8494920" lon="-3.4919680">
        <ele>717.0</ele>
        <time>2020-09-29T16:06:01Z</time>
      </trkpt>
      <trkpt lat="40.8494050" lon="-3.4920830">
        <ele>717.0</ele>
        <time>2020-09-29T16:06:02Z</time>
      </trkpt>
      <trkpt lat="40.8494050" lon="-3.4920830">
        <ele>717.0</ele>
        <time>2020-09-29T16:06:03Z</time>
      </trkpt>
      <trkpt lat="40.8493180" lon="-3.4921920">
        <ele>717.0</ele>
        <time>2020-09-29T16:06:04Z</time>
      </trkpt>
      <trkpt lat="40.8493180" lon="-3.4921920">
        <ele>718.0</ele>
        <time>2020-09-29T16:06:05Z</time>
      </trkpt>
      <trkpt lat="40.8492380" lon="-3.4922930">
        <ele>718.0</ele>
        <time>2020-09-29T16:06:06Z</time>
      </trkpt>
      <trkpt lat="40.8492380" lon="-3.4922930">
        <ele>718.0</ele>
        <time>2020-09-29T16:06:07Z</time>
      </trkpt>
      <trkpt lat="40.8491670" lon="-3.4923850">
        <ele>718.0</ele>
        <time>2020-09-29T16:06:08Z</time>
      </trkpt>
      <trkpt lat="40.8491670" lon="-3.4923850">
        <ele>718.0</ele>
        <time>2020-09-29T16:06:09Z</time>
      </trkpt>
      <trkpt lat="40.8490930" lon="-3.4924780">
        <ele>718.0</ele>
        <time>2020-09-29T16:06:10Z</time>
      </trkpt>
      <trkpt lat="40.8490930" lon="-3.4924780">
        <ele>718.0</ele>
        <time>2020-09-29T16:06:11Z</time>
      </trkpt>
      <trkpt lat="40.8490200" lon="-3.4925680">
        <ele>718.0</ele>
        <time>2020-09-29T16:06:12Z</time>
      </trkpt>
      <trkpt lat="40.8490200" lon="-3.4925680">
        <ele>719.0</ele>
        <time>2020-09-29T16:06:13Z</time>
      </trkpt>
      <trkpt lat="40.8489450" lon="-3.4926630">
        <ele>719.0</ele>
        <time>2020-09-29T16:06:14Z</time>
      </trkpt>
      <trkpt lat="40.8489450" lon="-3.4926630">
        <ele>719.0</ele>
        <time>2020-09-29T16:06:15Z</time>
      </trkpt>
      <trkpt lat="40.8488720" lon="-3.4927480">
        <ele>719.0</ele>
        <time>2020-09-29T16:06:16Z</time>
      </trkpt>
      <trkpt lat="40.8488720" lon="-3.4927480">
        <ele>719.0</ele>
        <time>2020-09-29T16:06:17Z</time>
      </trkpt>
      <trkpt lat="40.8488020" lon="-3.4928370">
        <ele>719.0</ele>
        <time>2020-09-29T16:06:18Z</time>
      </trkpt>
      <trkpt lat="40.8487680" lon="-3.4928820">
        <ele>719.0</ele>
        <time>2020-09-29T16:06:19Z</time>
      </trkpt>
      <trkpt lat="40.8487680" lon="-3.4928820">
        <ele>719.0</ele>
        <time>2020-09-29T16:06:20Z</time>
      </trkpt>
      <trkpt lat="40.8486980" lon="-3.4929720">
        <ele>719.0</ele>
        <time>2020-09-29T16:06:21Z</time>
      </trkpt>
      <trkpt lat="40.8486630" lon="-3.4930170">
        <ele>719.0</ele>
        <time>2020-09-29T16:06:22Z</time>
      </trkpt>
      <trkpt lat="40.8486630" lon="-3.4930170">
        <ele>719.0</ele>
        <time>2020-09-29T16:06:23Z</time>
      </trkpt>
      <trkpt lat="40.8485930" lon="-3.4931080">
        <ele>719.0</ele>
        <time>2020-09-29T16:06:24Z</time>
      </trkpt>
      <trkpt lat="40.8485930" lon="-3.4931080">
        <ele>720.0</ele>
        <time>2020-09-29T16:06:25Z</time>
      </trkpt>
      <trkpt lat="40.8485220" lon="-3.4931920">
        <ele>720.0</ele>
        <time>2020-09-29T16:06:26Z</time>
      </trkpt>
      <trkpt lat="40.8485220" lon="-3.4931920">
        <ele>720.0</ele>
        <time>2020-09-29T16:06:27Z</time>
      </trkpt>
      <trkpt lat="40.8484530" lon="-3.4932830">
        <ele>720.0</ele>
        <time>2020-09-29T16:06:28Z</time>
      </trkpt>
      <trkpt lat="40.8484220" lon="-3.4933300">
        <ele>720.0</ele>
        <time>2020-09-29T16:06:29Z</time>
      </trkpt>
      <trkpt lat="40.8484220" lon="-3.4933300">
        <ele>720.0</ele>
        <time>2020-09-29T16:06:30Z</time>
      </trkpt>
      <trkpt lat="40.8483550" lon="-3.4934120">
        <ele>721.0</ele>
        <time>2020-09-29T16:06:31Z</time>
      </trkpt>
      <trkpt lat="40.8483230" lon="-3.4934480">
        <ele>721.0</ele>
        <time>2020-09-29T16:06:32Z</time>
      </trkpt>
      <trkpt lat="40.8483230" lon="-3.4934480">
        <ele>721.0</ele>
        <time>2020-09-29T16:06:33Z</time>
      </trkpt>
      <trkpt lat="40.8482620" lon="-3.4935250">
        <ele>721.0</ele>
        <time>2020-09-29T16:06:34Z</time>
      </trkpt>
      <trkpt lat="40.8482280" lon="-3.4935630">
        <ele>721.0</ele>
        <time>2020-09-29T16:06:35Z</time>
      </trkpt>
      <trkpt lat="40.8481950" lon="-3.4936050">
        <ele>721.0</ele>
        <time>2020-09-29T16:06:36Z</time>
      </trkpt>
      <trkpt lat="40.8481950" lon="-3.4936050">
        <ele>721.0</ele>
        <time>2020-09-29T16:06:37Z</time>
      </trkpt>
      <trkpt lat="40.8481300" lon="-3.4936880">
        <ele>721.0</ele>
        <time>2020-09-29T16:06:38Z</time>
      </trkpt>
      <trkpt lat="40.8481300" lon="-3.4936880">
        <ele>722.0</ele>
        <time>2020-09-29T16:06:39Z</time>
      </trkpt>
      <trkpt lat="40.8480650" lon="-3.4937680">
        <ele>722.0</ele>
        <time>2020-09-29T16:06:40Z</time>
      </trkpt>
      <trkpt lat="40.8480650" lon="-3.4937680">
        <ele>722.0</ele>
        <time>2020-09-29T16:06:41Z</time>
      </trkpt>
      <trkpt lat="40.8480030" lon="-3.4938500">
        <ele>722.0</ele>
        <time>2020-09-29T16:06:42Z</time>
      </trkpt>
      <trkpt lat="40.8480030" lon="-3.4938500">
        <ele>722.0</ele>
        <time>2020-09-29T16:06:43Z</time>
      </trkpt>
      <trkpt lat="40.8479400" lon="-3.4939350">
        <ele>722.0</ele>
        <time>2020-09-29T16:06:44Z</time>
      </trkpt>
      <trkpt lat="40.8479400" lon="-3.4939350">
        <ele>722.0</ele>
        <time>2020-09-29T16:06:45Z</time>
      </trkpt>
      <trkpt lat="40.8478730" lon="-3.4940180">
        <ele>723.0</ele>
        <time>2020-09-29T16:06:46Z</time>
      </trkpt>
      <trkpt lat="40.8478400" lon="-3.4940580">
        <ele>723.0</ele>
        <time>2020-09-29T16:06:47Z</time>
      </trkpt>
      <trkpt lat="40.8478400" lon="-3.4940580">
        <ele>723.0</ele>
        <time>2020-09-29T16:06:48Z</time>
      </trkpt>
      <trkpt lat="40.8477770" lon="-3.4941430">
        <ele>723.0</ele>
        <time>2020-09-29T16:06:49Z</time>
      </trkpt>
      <trkpt lat="40.8477470" lon="-3.4941850">
        <ele>723.0</ele>
        <time>2020-09-29T16:06:50Z</time>
      </trkpt>
      <trkpt lat="40.8477470" lon="-3.4941850">
        <ele>723.0</ele>
        <time>2020-09-29T16:06:51Z</time>
      </trkpt>
      <trkpt lat="40.8476800" lon="-3.4942670">
        <ele>724.0</ele>
        <time>2020-09-29T16:06:52Z</time>
      </trkpt>
      <trkpt lat="40.8476800" lon="-3.4942670">
        <ele>724.0</ele>
        <time>2020-09-29T16:06:53Z</time>
      </trkpt>
      <trkpt lat="40.8476150" lon="-3.4943520">
        <ele>724.0</ele>
        <time>2020-09-29T16:06:54Z</time>
      </trkpt>
      <trkpt lat="40.8476150" lon="-3.4943520">
        <ele>724.0</ele>
        <time>2020-09-29T16:06:55Z</time>
      </trkpt>
      <trkpt lat="40.8475500" lon="-3.4944350">
        <ele>724.0</ele>
        <time>2020-09-29T16:06:56Z</time>
      </trkpt>
      <trkpt lat="40.8475500" lon="-3.4944350">
        <ele>724.0</ele>
        <time>2020-09-29T16:06:57Z</time>
      </trkpt>
      <trkpt lat="40.8474880" lon="-3.4945080">
        <ele>724.0</ele>
        <time>2020-09-29T16:06:58Z</time>
      </trkpt>
      <trkpt lat="40.8474880" lon="-3.4945080">
        <ele>724.0</ele>
        <time>2020-09-29T16:06:59Z</time>
      </trkpt>
      <trkpt lat="40.8474270" lon="-3.4945880">
        <ele>724.0</ele>
        <time>2020-09-29T16:07:00Z</time>
      </trkpt>
      <trkpt lat="40.8473950" lon="-3.4946300">
        <ele>725.0</ele>
        <time>2020-09-29T16:07:01Z</time>
      </trkpt>
      <trkpt lat="40.8473620" lon="-3.4946730">
        <ele>725.0</ele>
        <time>2020-09-29T16:07:02Z</time>
      </trkpt>
      <trkpt lat="40.8473620" lon="-3.4946730">
        <ele>725.0</ele>
        <time>2020-09-29T16:07:03Z</time>
      </trkpt>
      <trkpt lat="40.8472950" lon="-3.4947570">
        <ele>725.0</ele>
        <time>2020-09-29T16:07:04Z</time>
      </trkpt>
      <trkpt lat="40.8472950" lon="-3.4947570">
        <ele>725.0</ele>
        <time>2020-09-29T16:07:05Z</time>
      </trkpt>
      <trkpt lat="40.8472300" lon="-3.4948400">
        <ele>725.0</ele>
        <time>2020-09-29T16:07:06Z</time>
      </trkpt>
      <trkpt lat="40.8471930" lon="-3.4948830">
        <ele>725.0</ele>
        <time>2020-09-29T16:07:07Z</time>
      </trkpt>
      <trkpt lat="40.8471580" lon="-3.4949280">
        <ele>725.0</ele>
        <time>2020-09-29T16:07:08Z</time>
      </trkpt>
      <trkpt lat="40.8471580" lon="-3.4949280">
        <ele>725.0</ele>
        <time>2020-09-29T16:07:09Z</time>
      </trkpt>
      <trkpt lat="40.8470920" lon="-3.4950180">
        <ele>725.0</ele>
        <time>2020-09-29T16:07:10Z</time>
      </trkpt>
      <trkpt lat="40.8470920" lon="-3.4950180">
        <ele>725.0</ele>
        <time>2020-09-29T16:07:11Z</time>
      </trkpt>
      <trkpt lat="40.8470180" lon="-3.4951050">
        <ele>725.0</ele>
        <time>2020-09-29T16:07:12Z</time>
      </trkpt>
      <trkpt lat="40.8470180" lon="-3.4951050">
        <ele>726.0</ele>
        <time>2020-09-29T16:07:13Z</time>
      </trkpt>
      <trkpt lat="40.8469500" lon="-3.4951930">
        <ele>726.0</ele>
        <time>2020-09-29T16:07:14Z</time>
      </trkpt>
      <trkpt lat="40.8469500" lon="-3.4951930">
        <ele>726.0</ele>
        <time>2020-09-29T16:07:15Z</time>
      </trkpt>
      <trkpt lat="40.8468780" lon="-3.4952870">
        <ele>726.0</ele>
        <time>2020-09-29T16:07:16Z</time>
      </trkpt>
      <trkpt lat="40.8468430" lon="-3.4953320">
        <ele>726.0</ele>
        <time>2020-09-29T16:07:17Z</time>
      </trkpt>
      <trkpt lat="40.8468430" lon="-3.4953320">
        <ele>727.0</ele>
        <time>2020-09-29T16:07:18Z</time>
      </trkpt>
      <trkpt lat="40.8467730" lon="-3.4954250">
        <ele>727.0</ele>
        <time>2020-09-29T16:07:19Z</time>
      </trkpt>
      <trkpt lat="40.8467730" lon="-3.4954250">
        <ele>727.0</ele>
        <time>2020-09-29T16:07:20Z</time>
      </trkpt>
      <trkpt lat="40.8467000" lon="-3.4955130">
        <ele>727.0</ele>
        <time>2020-09-29T16:07:21Z</time>
      </trkpt>
      <trkpt lat="40.8466630" lon="-3.4955600">
        <ele>728.0</ele>
        <time>2020-09-29T16:07:22Z</time>
      </trkpt>
      <trkpt lat="40.8466630" lon="-3.4955600">
        <ele>728.0</ele>
        <time>2020-09-29T16:07:23Z</time>
      </trkpt>
      <trkpt lat="40.8465920" lon="-3.4956500">
        <ele>728.0</ele>
        <time>2020-09-29T16:07:24Z</time>
      </trkpt>
      <trkpt lat="40.8465920" lon="-3.4956500">
        <ele>728.0</ele>
        <time>2020-09-29T16:07:25Z</time>
      </trkpt>
      <trkpt lat="40.8465180" lon="-3.4957370">
        <ele>728.0</ele>
        <time>2020-09-29T16:07:26Z</time>
      </trkpt>
      <trkpt lat="40.8465180" lon="-3.4957370">
        <ele>728.0</ele>
        <time>2020-09-29T16:07:27Z</time>
      </trkpt>
      <trkpt lat="40.8464430" lon="-3.4958230">
        <ele>729.0</ele>
        <time>2020-09-29T16:07:28Z</time>
      </trkpt>
      <trkpt lat="40.8464430" lon="-3.4958230">
        <ele>729.0</ele>
        <time>2020-09-29T16:07:29Z</time>
      </trkpt>
      <trkpt lat="40.8463720" lon="-3.4959100">
        <ele>729.0</ele>
        <time>2020-09-29T16:07:30Z</time>
      </trkpt>
      <trkpt lat="40.8463720" lon="-3.4959100">
        <ele>729.0</ele>
        <time>2020-09-29T16:07:31Z</time>
      </trkpt>
      <trkpt lat="40.8463020" lon="-3.4960030">
        <ele>729.0</ele>
        <time>2020-09-29T16:07:32Z</time>
      </trkpt>
      <trkpt lat="40.8463020" lon="-3.4960030">
        <ele>729.0</ele>
        <time>2020-09-29T16:07:33Z</time>
      </trkpt>
      <trkpt lat="40.8462280" lon="-3.4960950">
        <ele>729.0</ele>
        <time>2020-09-29T16:07:34Z</time>
      </trkpt>
      <trkpt lat="40.8461950" lon="-3.4961370">
        <ele>729.0</ele>
        <time>2020-09-29T16:07:35Z</time>
      </trkpt>
      <trkpt lat="40.8461950" lon="-3.4961370">
        <ele>730.0</ele>
        <time>2020-09-29T16:07:36Z</time>
      </trkpt>
      <trkpt lat="40.8461270" lon="-3.4962150">
        <ele>730.0</ele>
        <time>2020-09-29T16:07:37Z</time>
      </trkpt>
      <trkpt lat="40.8460930" lon="-3.4962570">
        <ele>730.0</ele>
        <time>2020-09-29T16:07:38Z</time>
      </trkpt>
      <trkpt lat="40.8460930" lon="-3.4962570">
        <ele>730.0</ele>
        <time>2020-09-29T16:07:39Z</time>
      </trkpt>
      <trkpt lat="40.8460270" lon="-3.4963480">
        <ele>730.0</ele>
        <time>2020-09-29T16:07:40Z</time>
      </trkpt>
      <trkpt lat="40.8460270" lon="-3.4963480">
        <ele>730.0</ele>
        <time>2020-09-29T16:07:41Z</time>
      </trkpt>
      <trkpt lat="40.8459570" lon="-3.4964420">
        <ele>730.0</ele>
        <time>2020-09-29T16:07:42Z</time>
      </trkpt>
      <trkpt lat="40.8459200" lon="-3.4964880">
        <ele>730.0</ele>
        <time>2020-09-29T16:07:43Z</time>
      </trkpt>
      <trkpt lat="40.8458830" lon="-3.4965330">
        <ele>731.0</ele>
        <time>2020-09-29T16:07:44Z</time>
      </trkpt>
      <trkpt lat="40.8458830" lon="-3.4965330">
        <ele>731.0</ele>
        <time>2020-09-29T16:07:45Z</time>
      </trkpt>
      <trkpt lat="40.8458080" lon="-3.4966280">
        <ele>731.0</ele>
        <time>2020-09-29T16:07:46Z</time>
      </trkpt>
      <trkpt lat="40.8458080" lon="-3.4966280">
        <ele>731.0</ele>
        <time>2020-09-29T16:07:47Z</time>
      </trkpt>
      <trkpt lat="40.8457330" lon="-3.4967270">
        <ele>731.0</ele>
        <time>2020-09-29T16:07:48Z</time>
      </trkpt>
      <trkpt lat="40.8456980" lon="-3.4967730">
        <ele>731.0</ele>
        <time>2020-09-29T16:07:49Z</time>
      </trkpt>
      <trkpt lat="40.8456980" lon="-3.4967730">
        <ele>731.0</ele>
        <time>2020-09-29T16:07:50Z</time>
      </trkpt>
      <trkpt lat="40.8456220" lon="-3.4968630">
        <ele>731.0</ele>
        <time>2020-09-29T16:07:51Z</time>
      </trkpt>
      <trkpt lat="40.8456220" lon="-3.4968630">
        <ele>731.0</ele>
        <time>2020-09-29T16:07:52Z</time>
      </trkpt>
      <trkpt lat="40.8455450" lon="-3.4969530">
        <ele>732.0</ele>
        <time>2020-09-29T16:07:53Z</time>
      </trkpt>
      <trkpt lat="40.8455450" lon="-3.4969530">
        <ele>732.0</ele>
        <time>2020-09-29T16:07:54Z</time>
      </trkpt>
      <trkpt lat="40.8454720" lon="-3.4970500">
        <ele>732.0</ele>
        <time>2020-09-29T16:07:55Z</time>
      </trkpt>
      <trkpt lat="40.8454720" lon="-3.4970500">
        <ele>732.0</ele>
        <time>2020-09-29T16:07:56Z</time>
      </trkpt>
      <trkpt lat="40.8453970" lon="-3.4971480">
        <ele>732.0</ele>
        <time>2020-09-29T16:07:57Z</time>
      </trkpt>
      <trkpt lat="40.8453970" lon="-3.4971480">
        <ele>732.0</ele>
        <time>2020-09-29T16:07:58Z</time>
      </trkpt>
      <trkpt lat="40.8453230" lon="-3.4972450">
        <ele>732.0</ele>
        <time>2020-09-29T16:07:59Z</time>
      </trkpt>
      <trkpt lat="40.8452850" lon="-3.4972950">
        <ele>732.0</ele>
        <time>2020-09-29T16:08:00Z</time>
      </trkpt>
      <trkpt lat="40.8452850" lon="-3.4972950">
        <ele>732.0</ele>
        <time>2020-09-29T16:08:01Z</time>
      </trkpt>
      <trkpt lat="40.8452070" lon="-3.4973880">
        <ele>732.0</ele>
        <time>2020-09-29T16:08:02Z</time>
      </trkpt>
      <trkpt lat="40.8452070" lon="-3.4973880">
        <ele>732.0</ele>
        <time>2020-09-29T16:08:03Z</time>
      </trkpt>
      <trkpt lat="40.8451300" lon="-3.4974800">
        <ele>732.0</ele>
        <time>2020-09-29T16:08:04Z</time>
      </trkpt>
      <trkpt lat="40.8451300" lon="-3.4974800">
        <ele>732.0</ele>
        <time>2020-09-29T16:08:05Z</time>
      </trkpt>
      <trkpt lat="40.8450550" lon="-3.4975770">
        <ele>732.0</ele>
        <time>2020-09-29T16:08:06Z</time>
      </trkpt>
      <trkpt lat="40.8450550" lon="-3.4975770">
        <ele>733.0</ele>
        <time>2020-09-29T16:08:07Z</time>
      </trkpt>
      <trkpt lat="40.8449770" lon="-3.4976720">
        <ele>733.0</ele>
        <time>2020-09-29T16:08:08Z</time>
      </trkpt>
      <trkpt lat="40.8449770" lon="-3.4976720">
        <ele>733.0</ele>
        <time>2020-09-29T16:08:09Z</time>
      </trkpt>
      <trkpt lat="40.8449020" lon="-3.4977670">
        <ele>733.0</ele>
        <time>2020-09-29T16:08:10Z</time>
      </trkpt>
      <trkpt lat="40.8449020" lon="-3.4977670">
        <ele>733.0</ele>
        <time>2020-09-29T16:08:11Z</time>
      </trkpt>
      <trkpt lat="40.8448400" lon="-3.4978630">
        <ele>733.0</ele>
        <time>2020-09-29T16:08:12Z</time>
      </trkpt>
      <trkpt lat="40.8448400" lon="-3.4978630">
        <ele>734.0</ele>
        <time>2020-09-29T16:08:13Z</time>
      </trkpt>
      <trkpt lat="40.8447670" lon="-3.4979620">
        <ele>734.0</ele>
        <time>2020-09-29T16:08:14Z</time>
      </trkpt>
      <trkpt lat="40.8447280" lon="-3.4980180">
        <ele>734.0</ele>
        <time>2020-09-29T16:08:15Z</time>
      </trkpt>
      <trkpt lat="40.8447280" lon="-3.4980180">
        <ele>734.0</ele>
        <time>2020-09-29T16:08:16Z</time>
      </trkpt>
      <trkpt lat="40.8446630" lon="-3.4981430">
        <ele>734.0</ele>
        <time>2020-09-29T16:08:17Z</time>
      </trkpt>
      <trkpt lat="40.8446630" lon="-3.4981430">
        <ele>734.0</ele>
        <time>2020-09-29T16:08:18Z</time>
      </trkpt>
      <trkpt lat="40.8446020" lon="-3.4982700">
        <ele>734.0</ele>
        <time>2020-09-29T16:08:19Z</time>
      </trkpt>
      <trkpt lat="40.8445700" lon="-3.4983330">
        <ele>734.0</ele>
        <time>2020-09-29T16:08:20Z</time>
      </trkpt>
      <trkpt lat="40.8445700" lon="-3.4983330">
        <ele>734.0</ele>
        <time>2020-09-29T16:08:21Z</time>
      </trkpt>
      <trkpt lat="40.8445070" lon="-3.4984650">
        <ele>734.0</ele>
        <time>2020-09-29T16:08:22Z</time>
      </trkpt>
      <trkpt lat="40.8445070" lon="-3.4984650">
        <ele>734.0</ele>
        <time>2020-09-29T16:08:23Z</time>
      </trkpt>
      <trkpt lat="40.8444450" lon="-3.4985980">
        <ele>734.0</ele>
        <time>2020-09-29T16:08:24Z</time>
      </trkpt>
      <trkpt lat="40.8444450" lon="-3.4985980">
        <ele>734.0</ele>
        <time>2020-09-29T16:08:25Z</time>
      </trkpt>
      <trkpt lat="40.8443850" lon="-3.4987370">
        <ele>734.0</ele>
        <time>2020-09-29T16:08:26Z</time>
      </trkpt>
      <trkpt lat="40.8443850" lon="-3.4987370">
        <ele>734.0</ele>
        <time>2020-09-29T16:08:27Z</time>
      </trkpt>
      <trkpt lat="40.8443230" lon="-3.4988720">
        <ele>734.0</ele>
        <time>2020-09-29T16:08:28Z</time>
      </trkpt>
      <trkpt lat="40.8443230" lon="-3.4988720">
        <ele>734.0</ele>
        <time>2020-09-29T16:08:29Z</time>
      </trkpt>
      <trkpt lat="40.8442620" lon="-3.4990080">
        <ele>734.0</ele>
        <time>2020-09-29T16:08:30Z</time>
      </trkpt>
      <trkpt lat="40.8442620" lon="-3.4990080">
        <ele>734.0</ele>
        <time>2020-09-29T16:08:31Z</time>
      </trkpt>
      <trkpt lat="40.8441980" lon="-3.4991430">
        <ele>734.0</ele>
        <time>2020-09-29T16:08:32Z</time>
      </trkpt>
      <trkpt lat="40.8441980" lon="-3.4991430">
        <ele>734.0</ele>
        <time>2020-09-29T16:08:33Z</time>
      </trkpt>
      <trkpt lat="40.8441420" lon="-3.4992800">
        <ele>734.0</ele>
        <time>2020-09-29T16:08:34Z</time>
      </trkpt>
      <trkpt lat="40.8441150" lon="-3.4993500">
        <ele>734.0</ele>
        <time>2020-09-29T16:08:35Z</time>
      </trkpt>
      <trkpt lat="40.8441150" lon="-3.4993500">
        <ele>734.0</ele>
        <time>2020-09-29T16:08:36Z</time>
      </trkpt>
      <trkpt lat="40.8440530" lon="-3.4994870">
        <ele>734.0</ele>
        <time>2020-09-29T16:08:37Z</time>
      </trkpt>
      <trkpt lat="40.8440220" lon="-3.4995550">
        <ele>734.0</ele>
        <time>2020-09-29T16:08:38Z</time>
      </trkpt>
      <trkpt lat="40.8440220" lon="-3.4995550">
        <ele>735.0</ele>
        <time>2020-09-29T16:08:39Z</time>
      </trkpt>
      <trkpt lat="40.8439600" lon="-3.4996930">
        <ele>735.0</ele>
        <time>2020-09-29T16:08:40Z</time>
      </trkpt>
      <trkpt lat="40.8439600" lon="-3.4996930">
        <ele>735.0</ele>
        <time>2020-09-29T16:08:41Z</time>
      </trkpt>
      <trkpt lat="40.8438980" lon="-3.4998300">
        <ele>735.0</ele>
        <time>2020-09-29T16:08:42Z</time>
      </trkpt>
      <trkpt lat="40.8438980" lon="-3.4998300">
        <ele>735.0</ele>
        <time>2020-09-29T16:08:43Z</time>
      </trkpt>
      <trkpt lat="40.8438350" lon="-3.4999630">
        <ele>735.0</ele>
        <time>2020-09-29T16:08:44Z</time>
      </trkpt>
      <trkpt lat="40.8438350" lon="-3.4999630">
        <ele>735.0</ele>
        <time>2020-09-29T16:08:45Z</time>
      </trkpt>
      <trkpt lat="40.8437730" lon="-3.5000980">
        <ele>735.0</ele>
        <time>2020-09-29T16:08:46Z</time>
      </trkpt>
      <trkpt lat="40.8437730" lon="-3.5000980">
        <ele>736.0</ele>
        <time>2020-09-29T16:08:47Z</time>
      </trkpt>
      <trkpt lat="40.8437180" lon="-3.5002370">
        <ele>736.0</ele>
        <time>2020-09-29T16:08:48Z</time>
      </trkpt>
      <trkpt lat="40.8436930" lon="-3.5003070">
        <ele>736.0</ele>
        <time>2020-09-29T16:08:49Z</time>
      </trkpt>
      <trkpt lat="40.8436680" lon="-3.5003720">
        <ele>736.0</ele>
        <time>2020-09-29T16:08:50Z</time>
      </trkpt>
      <trkpt lat="40.8436680" lon="-3.5003720">
        <ele>736.0</ele>
        <time>2020-09-29T16:08:51Z</time>
      </trkpt>
      <trkpt lat="40.8436220" lon="-3.5005030">
        <ele>736.0</ele>
        <time>2020-09-29T16:08:52Z</time>
      </trkpt>
      <trkpt lat="40.8435970" lon="-3.5005630">
        <ele>736.0</ele>
        <time>2020-09-29T16:08:53Z</time>
      </trkpt>
      <trkpt lat="40.8435970" lon="-3.5005630">
        <ele>736.0</ele>
        <time>2020-09-29T16:08:54Z</time>
      </trkpt>
      <trkpt lat="40.8435570" lon="-3.5006900">
        <ele>737.0</ele>
        <time>2020-09-29T16:08:55Z</time>
      </trkpt>
      <trkpt lat="40.8435370" lon="-3.5007550">
        <ele>737.0</ele>
        <time>2020-09-29T16:08:56Z</time>
      </trkpt>
      <trkpt lat="40.8435370" lon="-3.5007550">
        <ele>737.0</ele>
        <time>2020-09-29T16:08:57Z</time>
      </trkpt>
      <trkpt lat="40.8434970" lon="-3.5008880">
        <ele>737.0</ele>
        <time>2020-09-29T16:08:58Z</time>
      </trkpt>
      <trkpt lat="40.8434970" lon="-3.5008880">
        <ele>737.0</ele>
        <time>2020-09-29T16:08:59Z</time>
      </trkpt>
      <trkpt lat="40.8434570" lon="-3.5010180">
        <ele>737.0</ele>
        <time>2020-09-29T16:09:00Z</time>
      </trkpt>
      <trkpt lat="40.8434570" lon="-3.5010180">
        <ele>737.0</ele>
        <time>2020-09-29T16:09:01Z</time>
      </trkpt>
      <trkpt lat="40.8434130" lon="-3.5011450">
        <ele>737.0</ele>
        <time>2020-09-29T16:09:02Z</time>
      </trkpt>
      <trkpt lat="40.8434130" lon="-3.5011450">
        <ele>737.0</ele>
        <time>2020-09-29T16:09:03Z</time>
      </trkpt>
      <trkpt lat="40.8433730" lon="-3.5012720">
        <ele>737.0</ele>
        <time>2020-09-29T16:09:04Z</time>
      </trkpt>
      <trkpt lat="40.8433730" lon="-3.5012720">
        <ele>737.0</ele>
        <time>2020-09-29T16:09:05Z</time>
      </trkpt>
      <trkpt lat="40.8433300" lon="-3.5013930">
        <ele>737.0</ele>
        <time>2020-09-29T16:09:06Z</time>
      </trkpt>
      <trkpt lat="40.8433300" lon="-3.5013930">
        <ele>737.0</ele>
        <time>2020-09-29T16:09:07Z</time>
      </trkpt>
      <trkpt lat="40.8432870" lon="-3.5015130">
        <ele>738.0</ele>
        <time>2020-09-29T16:09:08Z</time>
      </trkpt>
      <trkpt lat="40.8432870" lon="-3.5015130">
        <ele>738.0</ele>
        <time>2020-09-29T16:09:09Z</time>
      </trkpt>
      <trkpt lat="40.8432480" lon="-3.5016330">
        <ele>738.0</ele>
        <time>2020-09-29T16:09:10Z</time>
      </trkpt>
      <trkpt lat="40.8432270" lon="-3.5016930">
        <ele>738.0</ele>
        <time>2020-09-29T16:09:11Z</time>
      </trkpt>
      <trkpt lat="40.8432270" lon="-3.5016930">
        <ele>738.0</ele>
        <time>2020-09-29T16:09:12Z</time>
      </trkpt>
      <trkpt lat="40.8431800" lon="-3.5018030">
        <ele>738.0</ele>
        <time>2020-09-29T16:09:13Z</time>
      </trkpt>
      <trkpt lat="40.8431530" lon="-3.5018600">
        <ele>738.0</ele>
        <time>2020-09-29T16:09:14Z</time>
      </trkpt>
      <trkpt lat="40.8431530" lon="-3.5018600">
        <ele>738.0</ele>
        <time>2020-09-29T16:09:15Z</time>
      </trkpt>
      <trkpt lat="40.8431130" lon="-3.5019780">
        <ele>738.0</ele>
        <time>2020-09-29T16:09:16Z</time>
      </trkpt>
      <trkpt lat="40.8431130" lon="-3.5019780">
        <ele>738.0</ele>
        <time>2020-09-29T16:09:17Z</time>
      </trkpt>
      <trkpt lat="40.8430630" lon="-3.5020970">
        <ele>738.0</ele>
        <time>2020-09-29T16:09:18Z</time>
      </trkpt>
      <trkpt lat="40.8430420" lon="-3.5021550">
        <ele>739.0</ele>
        <time>2020-09-29T16:09:19Z</time>
      </trkpt>
      <trkpt lat="40.8430170" lon="-3.5022130">
        <ele>739.0</ele>
        <time>2020-09-29T16:09:20Z</time>
      </trkpt>
      <trkpt lat="40.8430170" lon="-3.5022130">
        <ele>739.0</ele>
        <time>2020-09-29T16:09:21Z</time>
      </trkpt>
      <trkpt lat="40.8429720" lon="-3.5023330">
        <ele>739.0</ele>
        <time>2020-09-29T16:09:22Z</time>
      </trkpt>
      <trkpt lat="40.8429720" lon="-3.5023330">
        <ele>739.0</ele>
        <time>2020-09-29T16:09:23Z</time>
      </trkpt>
      <trkpt lat="40.8429220" lon="-3.5024520">
        <ele>739.0</ele>
        <time>2020-09-29T16:09:24Z</time>
      </trkpt>
      <trkpt lat="40.8429220" lon="-3.5024520">
        <ele>739.0</ele>
        <time>2020-09-29T16:09:25Z</time>
      </trkpt>
      <trkpt lat="40.8428700" lon="-3.5025720">
        <ele>739.0</ele>
        <time>2020-09-29T16:09:26Z</time>
      </trkpt>
      <trkpt lat="40.8428700" lon="-3.5025720">
        <ele>739.0</ele>
        <time>2020-09-29T16:09:27Z</time>
      </trkpt>
      <trkpt lat="40.8428150" lon="-3.5026900">
        <ele>739.0</ele>
        <time>2020-09-29T16:09:28Z</time>
      </trkpt>
      <trkpt lat="40.8427900" lon="-3.5027480">
        <ele>739.0</ele>
        <time>2020-09-29T16:09:29Z</time>
      </trkpt>
      <trkpt lat="40.8427650" lon="-3.5028080">
        <ele>739.0</ele>
        <time>2020-09-29T16:09:30Z</time>
      </trkpt>
      <trkpt lat="40.8427650" lon="-3.5028080">
        <ele>740.0</ele>
        <time>2020-09-29T16:09:31Z</time>
      </trkpt>
      <trkpt lat="40.8427150" lon="-3.5029230">
        <ele>740.0</ele>
        <time>2020-09-29T16:09:32Z</time>
      </trkpt>
      <trkpt lat="40.8427150" lon="-3.5029230">
        <ele>740.0</ele>
        <time>2020-09-29T16:09:33Z</time>
      </trkpt>
      <trkpt lat="40.8426620" lon="-3.5030420">
        <ele>740.0</ele>
        <time>2020-09-29T16:09:34Z</time>
      </trkpt>
      <trkpt lat="40.8426620" lon="-3.5030420">
        <ele>740.0</ele>
        <time>2020-09-29T16:09:35Z</time>
      </trkpt>
      <trkpt lat="40.8426070" lon="-3.5031570">
        <ele>740.0</ele>
        <time>2020-09-29T16:09:36Z</time>
      </trkpt>
      <trkpt lat="40.8426070" lon="-3.5031570">
        <ele>741.0</ele>
        <time>2020-09-29T16:09:37Z</time>
      </trkpt>
      <trkpt lat="40.8425530" lon="-3.5032700">
        <ele>741.0</ele>
        <time>2020-09-29T16:09:38Z</time>
      </trkpt>
      <trkpt lat="40.8425530" lon="-3.5032700">
        <ele>741.0</ele>
        <time>2020-09-29T16:09:39Z</time>
      </trkpt>
      <trkpt lat="40.8424980" lon="-3.5033830">
        <ele>741.0</ele>
        <time>2020-09-29T16:09:40Z</time>
      </trkpt>
      <trkpt lat="40.8424980" lon="-3.5033830">
        <ele>741.0</ele>
        <time>2020-09-29T16:09:41Z</time>
      </trkpt>
      <trkpt lat="40.8424430" lon="-3.5034970">
        <ele>741.0</ele>
        <time>2020-09-29T16:09:42Z</time>
      </trkpt>
      <trkpt lat="40.8424150" lon="-3.5035550">
        <ele>741.0</ele>
        <time>2020-09-29T16:09:43Z</time>
      </trkpt>
      <trkpt lat="40.8424150" lon="-3.5035550">
        <ele>741.0</ele>
        <time>2020-09-29T16:09:44Z</time>
      </trkpt>
      <trkpt lat="40.8423580" lon="-3.5036720">
        <ele>741.0</ele>
        <time>2020-09-29T16:09:45Z</time>
      </trkpt>
      <trkpt lat="40.8423280" lon="-3.5037370">
        <ele>741.0</ele>
        <time>2020-09-29T16:09:46Z</time>
      </trkpt>
      <trkpt lat="40.8423280" lon="-3.5037370">
        <ele>741.0</ele>
        <time>2020-09-29T16:09:47Z</time>
      </trkpt>
      <trkpt lat="40.8422680" lon="-3.5038630">
        <ele>741.0</ele>
        <time>2020-09-29T16:09:48Z</time>
      </trkpt>
      <trkpt lat="40.8422680" lon="-3.5038630">
        <ele>741.0</ele>
        <time>2020-09-29T16:09:49Z</time>
      </trkpt>
      <trkpt lat="40.8422050" lon="-3.5039870">
        <ele>741.0</ele>
        <time>2020-09-29T16:09:50Z</time>
      </trkpt>
      <trkpt lat="40.8422050" lon="-3.5039870">
        <ele>741.0</ele>
        <time>2020-09-29T16:09:51Z</time>
      </trkpt>
      <trkpt lat="40.8421500" lon="-3.5041120">
        <ele>741.0</ele>
        <time>2020-09-29T16:09:52Z</time>
      </trkpt>
      <trkpt lat="40.8421500" lon="-3.5041120">
        <ele>741.0</ele>
        <time>2020-09-29T16:09:53Z</time>
      </trkpt>
      <trkpt lat="40.8420920" lon="-3.5042370">
        <ele>741.0</ele>
        <time>2020-09-29T16:09:54Z</time>
      </trkpt>
      <trkpt lat="40.8420920" lon="-3.5042370">
        <ele>741.0</ele>
        <time>2020-09-29T16:09:55Z</time>
      </trkpt>
      <trkpt lat="40.8420320" lon="-3.5043650">
        <ele>741.0</ele>
        <time>2020-09-29T16:09:56Z</time>
      </trkpt>
      <trkpt lat="40.8420320" lon="-3.5043650">
        <ele>741.0</ele>
        <time>2020-09-29T16:09:57Z</time>
      </trkpt>
      <trkpt lat="40.8419670" lon="-3.5044980">
        <ele>741.0</ele>
        <time>2020-09-29T16:09:58Z</time>
      </trkpt>
      <trkpt lat="40.8419670" lon="-3.5044980">
        <ele>741.0</ele>
        <time>2020-09-29T16:09:59Z</time>
      </trkpt>
      <trkpt lat="40.8419050" lon="-3.5046350">
        <ele>741.0</ele>
        <time>2020-09-29T16:10:00Z</time>
      </trkpt>
      <trkpt lat="40.8419050" lon="-3.5046350">
        <ele>740.0</ele>
        <time>2020-09-29T16:10:01Z</time>
      </trkpt>
      <trkpt lat="40.8418430" lon="-3.5047780">
        <ele>740.0</ele>
        <time>2020-09-29T16:10:02Z</time>
      </trkpt>
      <trkpt lat="40.8418430" lon="-3.5047780">
        <ele>740.0</ele>
        <time>2020-09-29T16:10:03Z</time>
      </trkpt>
      <trkpt lat="40.8417770" lon="-3.5049230">
        <ele>740.0</ele>
        <time>2020-09-29T16:10:04Z</time>
      </trkpt>
      <trkpt lat="40.8417770" lon="-3.5049230">
        <ele>740.0</ele>
        <time>2020-09-29T16:10:05Z</time>
      </trkpt>
      <trkpt lat="40.8417080" lon="-3.5050720">
        <ele>740.0</ele>
        <time>2020-09-29T16:10:06Z</time>
      </trkpt>
      <trkpt lat="40.8417080" lon="-3.5050720">
        <ele>740.0</ele>
        <time>2020-09-29T16:10:07Z</time>
      </trkpt>
      <trkpt lat="40.8416370" lon="-3.5052250">
        <ele>740.0</ele>
        <time>2020-09-29T16:10:08Z</time>
      </trkpt>
      <trkpt lat="40.8416370" lon="-3.5052250">
        <ele>740.0</ele>
        <time>2020-09-29T16:10:09Z</time>
      </trkpt>
      <trkpt lat="40.8415580" lon="-3.5053830">
        <ele>739.0</ele>
        <time>2020-09-29T16:10:10Z</time>
      </trkpt>
      <trkpt lat="40.8415580" lon="-3.5053830">
        <ele>739.0</ele>
        <time>2020-09-29T16:10:11Z</time>
      </trkpt>
      <trkpt lat="40.8414800" lon="-3.5055480">
        <ele>739.0</ele>
        <time>2020-09-29T16:10:12Z</time>
      </trkpt>
      <trkpt lat="40.8414800" lon="-3.5055480">
        <ele>739.0</ele>
        <time>2020-09-29T16:10:13Z</time>
      </trkpt>
      <trkpt lat="40.8414070" lon="-3.5057050">
        <ele>739.0</ele>
        <time>2020-09-29T16:10:14Z</time>
      </trkpt>
      <trkpt lat="40.8414070" lon="-3.5057050">
        <ele>739.0</ele>
        <time>2020-09-29T16:10:15Z</time>
      </trkpt>
      <trkpt lat="40.8413400" lon="-3.5058480">
        <ele>739.0</ele>
        <time>2020-09-29T16:10:16Z</time>
      </trkpt>
      <trkpt lat="40.8413400" lon="-3.5058480">
        <ele>739.0</ele>
        <time>2020-09-29T16:10:17Z</time>
      </trkpt>
      <trkpt lat="40.8412770" lon="-3.5060020">
        <ele>739.0</ele>
        <time>2020-09-29T16:10:18Z</time>
      </trkpt>
      <trkpt lat="40.8412770" lon="-3.5060020">
        <ele>739.0</ele>
        <time>2020-09-29T16:10:19Z</time>
      </trkpt>
      <trkpt lat="40.8412070" lon="-3.5061480">
        <ele>739.0</ele>
        <time>2020-09-29T16:10:20Z</time>
      </trkpt>
      <trkpt lat="40.8412070" lon="-3.5061480">
        <ele>739.0</ele>
        <time>2020-09-29T16:10:21Z</time>
      </trkpt>
      <trkpt lat="40.8411300" lon="-3.5062970">
        <ele>739.0</ele>
        <time>2020-09-29T16:10:22Z</time>
      </trkpt>
      <trkpt lat="40.8411300" lon="-3.5062970">
        <ele>739.0</ele>
        <time>2020-09-29T16:10:23Z</time>
      </trkpt>
      <trkpt lat="40.8410580" lon="-3.5064430">
        <ele>739.0</ele>
        <time>2020-09-29T16:10:24Z</time>
      </trkpt>
      <trkpt lat="40.8410250" lon="-3.5065120">
        <ele>739.0</ele>
        <time>2020-09-29T16:10:25Z</time>
      </trkpt>
      <trkpt lat="40.8409920" lon="-3.5065830">
        <ele>739.0</ele>
        <time>2020-09-29T16:10:26Z</time>
      </trkpt>
      <trkpt lat="40.8409920" lon="-3.5065830">
        <ele>739.0</ele>
        <time>2020-09-29T16:10:27Z</time>
      </trkpt>
      <trkpt lat="40.8409300" lon="-3.5067230">
        <ele>739.0</ele>
        <time>2020-09-29T16:10:28Z</time>
      </trkpt>
      <trkpt lat="40.8409020" lon="-3.5067920">
        <ele>740.0</ele>
        <time>2020-09-29T16:10:29Z</time>
      </trkpt>
      <trkpt lat="40.8408700" lon="-3.5068600">
        <ele>740.0</ele>
        <time>2020-09-29T16:10:30Z</time>
      </trkpt>
      <trkpt lat="40.8408700" lon="-3.5068600">
        <ele>740.0</ele>
        <time>2020-09-29T16:10:31Z</time>
      </trkpt>
      <trkpt lat="40.8408070" lon="-3.5070000">
        <ele>740.0</ele>
        <time>2020-09-29T16:10:32Z</time>
      </trkpt>
      <trkpt lat="40.8408070" lon="-3.5070000">
        <ele>740.0</ele>
        <time>2020-09-29T16:10:33Z</time>
      </trkpt>
      <trkpt lat="40.8407420" lon="-3.5071420">
        <ele>740.0</ele>
        <time>2020-09-29T16:10:34Z</time>
      </trkpt>
      <trkpt lat="40.8407420" lon="-3.5071420">
        <ele>740.0</ele>
        <time>2020-09-29T16:10:35Z</time>
      </trkpt>
      <trkpt lat="40.8406850" lon="-3.5072820">
        <ele>740.0</ele>
        <time>2020-09-29T16:10:36Z</time>
      </trkpt>
      <trkpt lat="40.8406850" lon="-3.5072820">
        <ele>740.0</ele>
        <time>2020-09-29T16:10:37Z</time>
      </trkpt>
      <trkpt lat="40.8406270" lon="-3.5074170">
        <ele>740.0</ele>
        <time>2020-09-29T16:10:38Z</time>
      </trkpt>
      <trkpt lat="40.8406270" lon="-3.5074170">
        <ele>741.0</ele>
        <time>2020-09-29T16:10:39Z</time>
      </trkpt>
      <trkpt lat="40.8405670" lon="-3.5075550">
        <ele>741.0</ele>
        <time>2020-09-29T16:10:40Z</time>
      </trkpt>
      <trkpt lat="40.8405670" lon="-3.5075550">
        <ele>741.0</ele>
        <time>2020-09-29T16:10:41Z</time>
      </trkpt>
      <trkpt lat="40.8405130" lon="-3.5076970">
        <ele>741.0</ele>
        <time>2020-09-29T16:10:42Z</time>
      </trkpt>
      <trkpt lat="40.8405130" lon="-3.5076970">
        <ele>741.0</ele>
        <time>2020-09-29T16:10:43Z</time>
      </trkpt>
      <trkpt lat="40.8404570" lon="-3.5078400">
        <ele>741.0</ele>
        <time>2020-09-29T16:10:44Z</time>
      </trkpt>
      <trkpt lat="40.8404570" lon="-3.5078400">
        <ele>742.0</ele>
        <time>2020-09-29T16:10:45Z</time>
      </trkpt>
      <trkpt lat="40.8404020" lon="-3.5079850">
        <ele>742.0</ele>
        <time>2020-09-29T16:10:46Z</time>
      </trkpt>
      <trkpt lat="40.8403780" lon="-3.5080520">
        <ele>742.0</ele>
        <time>2020-09-29T16:10:47Z</time>
      </trkpt>
      <trkpt lat="40.8403780" lon="-3.5080520">
        <ele>742.0</ele>
        <time>2020-09-29T16:10:48Z</time>
      </trkpt>
      <trkpt lat="40.8403250" lon="-3.5081920">
        <ele>742.0</ele>
        <time>2020-09-29T16:10:49Z</time>
      </trkpt>
      <trkpt lat="40.8402980" lon="-3.5082620">
        <ele>742.0</ele>
        <time>2020-09-29T16:10:50Z</time>
      </trkpt>
      <trkpt lat="40.8402980" lon="-3.5082620">
        <ele>742.0</ele>
        <time>2020-09-29T16:10:51Z</time>
      </trkpt>
      <trkpt lat="40.8402450" lon="-3.5084080">
        <ele>742.0</ele>
        <time>2020-09-29T16:10:52Z</time>
      </trkpt>
      <trkpt lat="40.8402450" lon="-3.5084080">
        <ele>742.0</ele>
        <time>2020-09-29T16:10:53Z</time>
      </trkpt>
      <trkpt lat="40.8401920" lon="-3.5085520">
        <ele>742.0</ele>
        <time>2020-09-29T16:10:54Z</time>
      </trkpt>
      <trkpt lat="40.8401920" lon="-3.5085520">
        <ele>742.0</ele>
        <time>2020-09-29T16:10:55Z</time>
      </trkpt>
      <trkpt lat="40.8401350" lon="-3.5086920">
        <ele>742.0</ele>
        <time>2020-09-29T16:10:56Z</time>
      </trkpt>
      <trkpt lat="40.8401350" lon="-3.5086920">
        <ele>742.0</ele>
        <time>2020-09-29T16:10:57Z</time>
      </trkpt>
      <trkpt lat="40.8400830" lon="-3.5088300">
        <ele>742.0</ele>
        <time>2020-09-29T16:10:58Z</time>
      </trkpt>
      <trkpt lat="40.8400830" lon="-3.5088300">
        <ele>742.0</ele>
        <time>2020-09-29T16:10:59Z</time>
      </trkpt>
      <trkpt lat="40.8400280" lon="-3.5089670">
        <ele>742.0</ele>
        <time>2020-09-29T16:11:00Z</time>
      </trkpt>
      <trkpt lat="40.8400000" lon="-3.5090370">
        <ele>743.0</ele>
        <time>2020-09-29T16:11:01Z</time>
      </trkpt>
      <trkpt lat="40.8400000" lon="-3.5090370">
        <ele>743.0</ele>
        <time>2020-09-29T16:11:02Z</time>
      </trkpt>
      <trkpt lat="40.8399500" lon="-3.5091770">
        <ele>743.0</ele>
        <time>2020-09-29T16:11:03Z</time>
      </trkpt>
      <trkpt lat="40.8399500" lon="-3.5091770">
        <ele>743.0</ele>
        <time>2020-09-29T16:11:04Z</time>
      </trkpt>
      <trkpt lat="40.8398980" lon="-3.5093180">
        <ele>743.0</ele>
        <time>2020-09-29T16:11:05Z</time>
      </trkpt>
      <trkpt lat="40.8398720" lon="-3.5093880">
        <ele>743.0</ele>
        <time>2020-09-29T16:11:06Z</time>
      </trkpt>
      <trkpt lat="40.8398720" lon="-3.5093880">
        <ele>744.0</ele>
        <time>2020-09-29T16:11:07Z</time>
      </trkpt>
      <trkpt lat="40.8398200" lon="-3.5095300">
        <ele>744.0</ele>
        <time>2020-09-29T16:11:08Z</time>
      </trkpt>
      <trkpt lat="40.8398200" lon="-3.5095300">
        <ele>744.0</ele>
        <time>2020-09-29T16:11:09Z</time>
      </trkpt>
      <trkpt lat="40.8397670" lon="-3.5096770">
        <ele>744.0</ele>
        <time>2020-09-29T16:11:10Z</time>
      </trkpt>
      <trkpt lat="40.8397380" lon="-3.5097470">
        <ele>744.0</ele>
        <time>2020-09-29T16:11:11Z</time>
      </trkpt>
      <trkpt lat="40.8397380" lon="-3.5097470">
        <ele>744.0</ele>
        <time>2020-09-29T16:11:12Z</time>
      </trkpt>
      <trkpt lat="40.8396820" lon="-3.5098880">
        <ele>745.0</ele>
        <time>2020-09-29T16:11:13Z</time>
      </trkpt>
      <trkpt lat="40.8396530" lon="-3.5099580">
        <ele>745.0</ele>
        <time>2020-09-29T16:11:14Z</time>
      </trkpt>
      <trkpt lat="40.8396530" lon="-3.5099580">
        <ele>745.0</ele>
        <time>2020-09-29T16:11:15Z</time>
      </trkpt>
      <trkpt lat="40.8396050" lon="-3.5101070">
        <ele>745.0</ele>
        <time>2020-09-29T16:11:16Z</time>
      </trkpt>
      <trkpt lat="40.8396050" lon="-3.5101070">
        <ele>745.0</ele>
        <time>2020-09-29T16:11:17Z</time>
      </trkpt>
      <trkpt lat="40.8395580" lon="-3.5102570">
        <ele>745.0</ele>
        <time>2020-09-29T16:11:18Z</time>
      </trkpt>
      <trkpt lat="40.8395580" lon="-3.5102570">
        <ele>746.0</ele>
        <time>2020-09-29T16:11:19Z</time>
      </trkpt>
      <trkpt lat="40.8395020" lon="-3.5103930">
        <ele>746.0</ele>
        <time>2020-09-29T16:11:20Z</time>
      </trkpt>
      <trkpt lat="40.8395020" lon="-3.5103930">
        <ele>746.0</ele>
        <time>2020-09-29T16:11:21Z</time>
      </trkpt>
      <trkpt lat="40.8394530" lon="-3.5105280">
        <ele>746.0</ele>
        <time>2020-09-29T16:11:22Z</time>
      </trkpt>
      <trkpt lat="40.8394530" lon="-3.5105280">
        <ele>746.0</ele>
        <time>2020-09-29T16:11:23Z</time>
      </trkpt>
      <trkpt lat="40.8394070" lon="-3.5106600">
        <ele>746.0</ele>
        <time>2020-09-29T16:11:24Z</time>
      </trkpt>
      <trkpt lat="40.8394070" lon="-3.5106600">
        <ele>746.0</ele>
        <time>2020-09-29T16:11:25Z</time>
      </trkpt>
      <trkpt lat="40.8393620" lon="-3.5107870">
        <ele>746.0</ele>
        <time>2020-09-29T16:11:26Z</time>
      </trkpt>
      <trkpt lat="40.8393620" lon="-3.5107870">
        <ele>747.0</ele>
        <time>2020-09-29T16:11:27Z</time>
      </trkpt>
      <trkpt lat="40.8393150" lon="-3.5109150">
        <ele>747.0</ele>
        <time>2020-09-29T16:11:28Z</time>
      </trkpt>
      <trkpt lat="40.8392930" lon="-3.5109800">
        <ele>747.0</ele>
        <time>2020-09-29T16:11:29Z</time>
      </trkpt>
      <trkpt lat="40.8392930" lon="-3.5109800">
        <ele>747.0</ele>
        <time>2020-09-29T16:11:30Z</time>
      </trkpt>
      <trkpt lat="40.8392430" lon="-3.5111000">
        <ele>747.0</ele>
        <time>2020-09-29T16:11:31Z</time>
      </trkpt>
      <trkpt lat="40.8392200" lon="-3.5111620">
        <ele>747.0</ele>
        <time>2020-09-29T16:11:32Z</time>
      </trkpt>
      <trkpt lat="40.8391970" lon="-3.5112220">
        <ele>747.0</ele>
        <time>2020-09-29T16:11:33Z</time>
      </trkpt>
      <trkpt lat="40.8391970" lon="-3.5112220">
        <ele>748.0</ele>
        <time>2020-09-29T16:11:34Z</time>
      </trkpt>
      <trkpt lat="40.8391530" lon="-3.5113430">
        <ele>748.0</ele>
        <time>2020-09-29T16:11:35Z</time>
      </trkpt>
      <trkpt lat="40.8391530" lon="-3.5113430">
        <ele>748.0</ele>
        <time>2020-09-29T16:11:36Z</time>
      </trkpt>
      <trkpt lat="40.8391070" lon="-3.5114620">
        <ele>748.0</ele>
        <time>2020-09-29T16:11:37Z</time>
      </trkpt>
      <trkpt lat="40.8391070" lon="-3.5114620">
        <ele>748.0</ele>
        <time>2020-09-29T16:11:38Z</time>
      </trkpt>
      <trkpt lat="40.8390620" lon="-3.5115830">
        <ele>748.0</ele>
        <time>2020-09-29T16:11:39Z</time>
      </trkpt>
      <trkpt lat="40.8390620" lon="-3.5115830">
        <ele>748.0</ele>
        <time>2020-09-29T16:11:40Z</time>
      </trkpt>
      <trkpt lat="40.8390180" lon="-3.5117050">
        <ele>748.0</ele>
        <time>2020-09-29T16:11:41Z</time>
      </trkpt>
      <trkpt lat="40.8390180" lon="-3.5117050">
        <ele>748.0</ele>
        <time>2020-09-29T16:11:42Z</time>
      </trkpt>
      <trkpt lat="40.8389700" lon="-3.5118250">
        <ele>748.0</ele>
        <time>2020-09-29T16:11:43Z</time>
      </trkpt>
      <trkpt lat="40.8389470" lon="-3.5118850">
        <ele>749.0</ele>
        <time>2020-09-29T16:11:44Z</time>
      </trkpt>
      <trkpt lat="40.8389470" lon="-3.5118850">
        <ele>749.0</ele>
        <time>2020-09-29T16:11:45Z</time>
      </trkpt>
      <trkpt lat="40.8388920" lon="-3.5120020">
        <ele>749.0</ele>
        <time>2020-09-29T16:11:46Z</time>
      </trkpt>
      <trkpt lat="40.8388620" lon="-3.5120600">
        <ele>749.0</ele>
        <time>2020-09-29T16:11:47Z</time>
      </trkpt>
      <trkpt lat="40.8388620" lon="-3.5120600">
        <ele>749.0</ele>
        <time>2020-09-29T16:11:48Z</time>
      </trkpt>
      <trkpt lat="40.8388080" lon="-3.5121720">
        <ele>749.0</ele>
        <time>2020-09-29T16:11:49Z</time>
      </trkpt>
      <trkpt lat="40.8387800" lon="-3.5122250">
        <ele>749.0</ele>
        <time>2020-09-29T16:11:50Z</time>
      </trkpt>
      <trkpt lat="40.8387800" lon="-3.5122250">
        <ele>749.0</ele>
        <time>2020-09-29T16:11:51Z</time>
      </trkpt>
      <trkpt lat="40.8387170" lon="-3.5123380">
        <ele>749.0</ele>
        <time>2020-09-29T16:11:52Z</time>
      </trkpt>
      <trkpt lat="40.8386850" lon="-3.5123950">
        <ele>749.0</ele>
        <time>2020-09-29T16:11:53Z</time>
      </trkpt>
      <trkpt lat="40.8386850" lon="-3.5123950">
        <ele>749.0</ele>
        <time>2020-09-29T16:11:54Z</time>
      </trkpt>
      <trkpt lat="40.8386170" lon="-3.5125050">
        <ele>749.0</ele>
        <time>2020-09-29T16:11:55Z</time>
      </trkpt>
      <trkpt lat="40.8385850" lon="-3.5125580">
        <ele>750.0</ele>
        <time>2020-09-29T16:11:56Z</time>
      </trkpt>
      <trkpt lat="40.8385850" lon="-3.5125580">
        <ele>750.0</ele>
        <time>2020-09-29T16:11:57Z</time>
      </trkpt>
      <trkpt lat="40.8385200" lon="-3.5126720">
        <ele>750.0</ele>
        <time>2020-09-29T16:11:58Z</time>
      </trkpt>
      <trkpt lat="40.8385200" lon="-3.5126720">
        <ele>750.0</ele>
        <time>2020-09-29T16:11:59Z</time>
      </trkpt>
      <trkpt lat="40.8384570" lon="-3.5127830">
        <ele>750.0</ele>
        <time>2020-09-29T16:12:00Z</time>
      </trkpt>
      <trkpt lat="40.8384270" lon="-3.5128400">
        <ele>750.0</ele>
        <time>2020-09-29T16:12:01Z</time>
      </trkpt>
      <trkpt lat="40.8384270" lon="-3.5128400">
        <ele>750.0</ele>
        <time>2020-09-29T16:12:02Z</time>
      </trkpt>
      <trkpt lat="40.8383670" lon="-3.5129570">
        <ele>750.0</ele>
        <time>2020-09-29T16:12:03Z</time>
      </trkpt>
      <trkpt lat="40.8383670" lon="-3.5129570">
        <ele>750.0</ele>
        <time>2020-09-29T16:12:04Z</time>
      </trkpt>
      <trkpt lat="40.8383120" lon="-3.5130780">
        <ele>750.0</ele>
        <time>2020-09-29T16:12:05Z</time>
      </trkpt>
      <trkpt lat="40.8383120" lon="-3.5130780">
        <ele>750.0</ele>
        <time>2020-09-29T16:12:06Z</time>
      </trkpt>
      <trkpt lat="40.8382630" lon="-3.5131950">
        <ele>751.0</ele>
        <time>2020-09-29T16:12:07Z</time>
      </trkpt>
      <trkpt lat="40.8382630" lon="-3.5131950">
        <ele>751.0</ele>
        <time>2020-09-29T16:12:08Z</time>
      </trkpt>
      <trkpt lat="40.8382130" lon="-3.5133130">
        <ele>751.0</ele>
        <time>2020-09-29T16:12:09Z</time>
      </trkpt>
      <trkpt lat="40.8382130" lon="-3.5133130">
        <ele>751.0</ele>
        <time>2020-09-29T16:12:10Z</time>
      </trkpt>
      <trkpt lat="40.8381630" lon="-3.5134300">
        <ele>751.0</ele>
        <time>2020-09-29T16:12:11Z</time>
      </trkpt>
      <trkpt lat="40.8381630" lon="-3.5134300">
        <ele>751.0</ele>
        <time>2020-09-29T16:12:12Z</time>
      </trkpt>
      <trkpt lat="40.8381180" lon="-3.5135450">
        <ele>751.0</ele>
        <time>2020-09-29T16:12:13Z</time>
      </trkpt>
      <trkpt lat="40.8380970" lon="-3.5136030">
        <ele>751.0</ele>
        <time>2020-09-29T16:12:14Z</time>
      </trkpt>
      <trkpt lat="40.8380970" lon="-3.5136030">
        <ele>752.0</ele>
        <time>2020-09-29T16:12:15Z</time>
      </trkpt>
      <trkpt lat="40.8380520" lon="-3.5137180">
        <ele>752.0</ele>
        <time>2020-09-29T16:12:16Z</time>
      </trkpt>
      <trkpt lat="40.8380300" lon="-3.5137770">
        <ele>752.0</ele>
        <time>2020-09-29T16:12:17Z</time>
      </trkpt>
      <trkpt lat="40.8380300" lon="-3.5137770">
        <ele>752.0</ele>
        <time>2020-09-29T16:12:18Z</time>
      </trkpt>
      <trkpt lat="40.8379880" lon="-3.5138870">
        <ele>752.0</ele>
        <time>2020-09-29T16:12:19Z</time>
      </trkpt>
      <trkpt lat="40.8379880" lon="-3.5138870">
        <ele>752.0</ele>
        <time>2020-09-29T16:12:20Z</time>
      </trkpt>
      <trkpt lat="40.8379430" lon="-3.5140030">
        <ele>752.0</ele>
        <time>2020-09-29T16:12:21Z</time>
      </trkpt>
      <trkpt lat="40.8379220" lon="-3.5140620">
        <ele>752.0</ele>
        <time>2020-09-29T16:12:22Z</time>
      </trkpt>
      <trkpt lat="40.8379220" lon="-3.5140620">
        <ele>752.0</ele>
        <time>2020-09-29T16:12:23Z</time>
      </trkpt>
      <trkpt lat="40.8378770" lon="-3.5141830">
        <ele>752.0</ele>
        <time>2020-09-29T16:12:24Z</time>
      </trkpt>
      <trkpt lat="40.8378530" lon="-3.5142430">
        <ele>752.0</ele>
        <time>2020-09-29T16:12:25Z</time>
      </trkpt>
      <trkpt lat="40.8378300" lon="-3.5143030">
        <ele>752.0</ele>
        <time>2020-09-29T16:12:26Z</time>
      </trkpt>
      <trkpt lat="40.8378300" lon="-3.5143030">
        <ele>753.0</ele>
        <time>2020-09-29T16:12:27Z</time>
      </trkpt>
      <trkpt lat="40.8377830" lon="-3.5144180">
        <ele>753.0</ele>
        <time>2020-09-29T16:12:28Z</time>
      </trkpt>
      <trkpt lat="40.8377830" lon="-3.5144180">
        <ele>753.0</ele>
        <time>2020-09-29T16:12:29Z</time>
      </trkpt>
      <trkpt lat="40.8377400" lon="-3.5145350">
        <ele>753.0</ele>
        <time>2020-09-29T16:12:30Z</time>
      </trkpt>
      <trkpt lat="40.8377400" lon="-3.5145350">
        <ele>753.0</ele>
        <time>2020-09-29T16:12:31Z</time>
      </trkpt>
      <trkpt lat="40.8376980" lon="-3.5146530">
        <ele>753.0</ele>
        <time>2020-09-29T16:12:32Z</time>
      </trkpt>
      <trkpt lat="40.8376980" lon="-3.5146530">
        <ele>754.0</ele>
        <time>2020-09-29T16:12:33Z</time>
      </trkpt>
      <trkpt lat="40.8376520" lon="-3.5147720">
        <ele>754.0</ele>
        <time>2020-09-29T16:12:34Z</time>
      </trkpt>
      <trkpt lat="40.8376320" lon="-3.5148320">
        <ele>754.0</ele>
        <time>2020-09-29T16:12:35Z</time>
      </trkpt>
      <trkpt lat="40.8376320" lon="-3.5148320">
        <ele>754.0</ele>
        <time>2020-09-29T16:12:36Z</time>
      </trkpt>
      <trkpt lat="40.8375850" lon="-3.5149470">
        <ele>754.0</ele>
        <time>2020-09-29T16:12:37Z</time>
      </trkpt>
      <trkpt lat="40.8375620" lon="-3.5150050">
        <ele>754.0</ele>
        <time>2020-09-29T16:12:38Z</time>
      </trkpt>
      <trkpt lat="40.8375620" lon="-3.5150050">
        <ele>754.0</ele>
        <time>2020-09-29T16:12:39Z</time>
      </trkpt>
      <trkpt lat="40.8375130" lon="-3.5151200">
        <ele>755.0</ele>
        <time>2020-09-29T16:12:40Z</time>
      </trkpt>
      <trkpt lat="40.8375130" lon="-3.5151200">
        <ele>755.0</ele>
        <time>2020-09-29T16:12:41Z</time>
      </trkpt>
      <trkpt lat="40.8374700" lon="-3.5152350">
        <ele>755.0</ele>
        <time>2020-09-29T16:12:42Z</time>
      </trkpt>
      <trkpt lat="40.8374700" lon="-3.5152350">
        <ele>755.0</ele>
        <time>2020-09-29T16:12:43Z</time>
      </trkpt>
      <trkpt lat="40.8374220" lon="-3.5153520">
        <ele>755.0</ele>
        <time>2020-09-29T16:12:44Z</time>
      </trkpt>
      <trkpt lat="40.8374220" lon="-3.5153520">
        <ele>755.0</ele>
        <time>2020-09-29T16:12:45Z</time>
      </trkpt>
      <trkpt lat="40.8373750" lon="-3.5154700">
        <ele>756.0</ele>
        <time>2020-09-29T16:12:46Z</time>
      </trkpt>
      <trkpt lat="40.8373750" lon="-3.5154700">
        <ele>756.0</ele>
        <time>2020-09-29T16:12:47Z</time>
      </trkpt>
      <trkpt lat="40.8373280" lon="-3.5155900">
        <ele>756.0</ele>
        <time>2020-09-29T16:12:48Z</time>
      </trkpt>
      <trkpt lat="40.8373280" lon="-3.5155900">
        <ele>756.0</ele>
        <time>2020-09-29T16:12:49Z</time>
      </trkpt>
      <trkpt lat="40.8372800" lon="-3.5157080">
        <ele>756.0</ele>
        <time>2020-09-29T16:12:50Z</time>
      </trkpt>
      <trkpt lat="40.8372800" lon="-3.5157080">
        <ele>756.0</ele>
        <time>2020-09-29T16:12:51Z</time>
      </trkpt>
      <trkpt lat="40.8372270" lon="-3.5158200">
        <ele>757.0</ele>
        <time>2020-09-29T16:12:52Z</time>
      </trkpt>
      <trkpt lat="40.8372000" lon="-3.5158800">
        <ele>757.0</ele>
        <time>2020-09-29T16:12:53Z</time>
      </trkpt>
      <trkpt lat="40.8371730" lon="-3.5159370">
        <ele>757.0</ele>
        <time>2020-09-29T16:12:54Z</time>
      </trkpt>
      <trkpt lat="40.8371730" lon="-3.5159370">
        <ele>757.0</ele>
        <time>2020-09-29T16:12:55Z</time>
      </trkpt>
      <trkpt lat="40.8371150" lon="-3.5160480">
        <ele>757.0</ele>
        <time>2020-09-29T16:12:56Z</time>
      </trkpt>
      <trkpt lat="40.8371150" lon="-3.5160480">
        <ele>757.0</ele>
        <time>2020-09-29T16:12:57Z</time>
      </trkpt>
      <trkpt lat="40.8370600" lon="-3.5161670">
        <ele>757.0</ele>
        <time>2020-09-29T16:12:58Z</time>
      </trkpt>
      <trkpt lat="40.8370600" lon="-3.5161670">
        <ele>757.0</ele>
        <time>2020-09-29T16:12:59Z</time>
      </trkpt>
      <trkpt lat="40.8369950" lon="-3.5162780">
        <ele>757.0</ele>
        <time>2020-09-29T16:13:00Z</time>
      </trkpt>
      <trkpt lat="40.8369620" lon="-3.5163370">
        <ele>757.0</ele>
        <time>2020-09-29T16:13:01Z</time>
      </trkpt>
      <trkpt lat="40.8369330" lon="-3.5163980">
        <ele>757.0</ele>
        <time>2020-09-29T16:13:02Z</time>
      </trkpt>
      <trkpt lat="40.8369330" lon="-3.5163980">
        <ele>757.0</ele>
        <time>2020-09-29T16:13:03Z</time>
      </trkpt>
      <trkpt lat="40.8368750" lon="-3.5165220">
        <ele>757.0</ele>
        <time>2020-09-29T16:13:04Z</time>
      </trkpt>
      <trkpt lat="40.8368450" lon="-3.5165820">
        <ele>757.0</ele>
        <time>2020-09-29T16:13:05Z</time>
      </trkpt>
      <trkpt lat="40.8368450" lon="-3.5165820">
        <ele>757.0</ele>
        <time>2020-09-29T16:13:06Z</time>
      </trkpt>
      <trkpt lat="40.8367900" lon="-3.5167030">
        <ele>757.0</ele>
        <time>2020-09-29T16:13:07Z</time>
      </trkpt>
      <trkpt lat="40.8367900" lon="-3.5167030">
        <ele>757.0</ele>
        <time>2020-09-29T16:13:08Z</time>
      </trkpt>
      <trkpt lat="40.8367300" lon="-3.5168250">
        <ele>757.0</ele>
        <time>2020-09-29T16:13:09Z</time>
      </trkpt>
      <trkpt lat="40.8367300" lon="-3.5168250">
        <ele>757.0</ele>
        <time>2020-09-29T16:13:10Z</time>
      </trkpt>
      <trkpt lat="40.8366730" lon="-3.5169470">
        <ele>757.0</ele>
        <time>2020-09-29T16:13:11Z</time>
      </trkpt>
      <trkpt lat="40.8366730" lon="-3.5169470">
        <ele>757.0</ele>
        <time>2020-09-29T16:13:12Z</time>
      </trkpt>
      <trkpt lat="40.8366080" lon="-3.5170680">
        <ele>757.0</ele>
        <time>2020-09-29T16:13:13Z</time>
      </trkpt>
      <trkpt lat="40.8365750" lon="-3.5171300">
        <ele>757.0</ele>
        <time>2020-09-29T16:13:14Z</time>
      </trkpt>
      <trkpt lat="40.8365750" lon="-3.5171300">
        <ele>757.0</ele>
        <time>2020-09-29T16:13:15Z</time>
      </trkpt>
      <trkpt lat="40.8365130" lon="-3.5172500">
        <ele>758.0</ele>
        <time>2020-09-29T16:13:16Z</time>
      </trkpt>
      <trkpt lat="40.8365130" lon="-3.5172500">
        <ele>758.0</ele>
        <time>2020-09-29T16:13:17Z</time>
      </trkpt>
      <trkpt lat="40.8364570" lon="-3.5173720">
        <ele>758.0</ele>
        <time>2020-09-29T16:13:18Z</time>
      </trkpt>
      <trkpt lat="40.8364570" lon="-3.5173720">
        <ele>758.0</ele>
        <time>2020-09-29T16:13:19Z</time>
      </trkpt>
      <trkpt lat="40.8363930" lon="-3.5174970">
        <ele>758.0</ele>
        <time>2020-09-29T16:13:20Z</time>
      </trkpt>
      <trkpt lat="40.8363930" lon="-3.5174970">
        <ele>758.0</ele>
        <time>2020-09-29T16:13:21Z</time>
      </trkpt>
      <trkpt lat="40.8363320" lon="-3.5176220">
        <ele>758.0</ele>
        <time>2020-09-29T16:13:22Z</time>
      </trkpt>
      <trkpt lat="40.8363000" lon="-3.5176850">
        <ele>758.0</ele>
        <time>2020-09-29T16:13:23Z</time>
      </trkpt>
      <trkpt lat="40.8363000" lon="-3.5176850">
        <ele>758.0</ele>
        <time>2020-09-29T16:13:24Z</time>
      </trkpt>
      <trkpt lat="40.8362350" lon="-3.5178130">
        <ele>758.0</ele>
        <time>2020-09-29T16:13:25Z</time>
      </trkpt>
      <trkpt lat="40.8362030" lon="-3.5178780">
        <ele>758.0</ele>
        <time>2020-09-29T16:13:26Z</time>
      </trkpt>
      <trkpt lat="40.8362030" lon="-3.5178780">
        <ele>758.0</ele>
        <time>2020-09-29T16:13:27Z</time>
      </trkpt>
      <trkpt lat="40.8361380" lon="-3.5180050">
        <ele>758.0</ele>
        <time>2020-09-29T16:13:28Z</time>
      </trkpt>
      <trkpt lat="40.8361380" lon="-3.5180050">
        <ele>758.0</ele>
        <time>2020-09-29T16:13:29Z</time>
      </trkpt>
      <trkpt lat="40.8360720" lon="-3.5181280">
        <ele>758.0</ele>
        <time>2020-09-29T16:13:30Z</time>
      </trkpt>
      <trkpt lat="40.8360400" lon="-3.5181900">
        <ele>758.0</ele>
        <time>2020-09-29T16:13:31Z</time>
      </trkpt>
      <trkpt lat="40.8360080" lon="-3.5182550">
        <ele>758.0</ele>
        <time>2020-09-29T16:13:32Z</time>
      </trkpt>
      <trkpt lat="40.8360080" lon="-3.5182550">
        <ele>758.0</ele>
        <time>2020-09-29T16:13:33Z</time>
      </trkpt>
      <trkpt lat="40.8359450" lon="-3.5183850">
        <ele>758.0</ele>
        <time>2020-09-29T16:13:34Z</time>
      </trkpt>
      <trkpt lat="40.8359450" lon="-3.5183850">
        <ele>758.0</ele>
        <time>2020-09-29T16:13:35Z</time>
      </trkpt>
      <trkpt lat="40.8358750" lon="-3.5185170">
        <ele>758.0</ele>
        <time>2020-09-29T16:13:36Z</time>
      </trkpt>
      <trkpt lat="40.8358750" lon="-3.5185170">
        <ele>758.0</ele>
        <time>2020-09-29T16:13:37Z</time>
      </trkpt>
      <trkpt lat="40.8358020" lon="-3.5186520">
        <ele>758.0</ele>
        <time>2020-09-29T16:13:38Z</time>
      </trkpt>
      <trkpt lat="40.8358020" lon="-3.5186520">
        <ele>758.0</ele>
        <time>2020-09-29T16:13:39Z</time>
      </trkpt>
      <trkpt lat="40.8357320" lon="-3.5187900">
        <ele>758.0</ele>
        <time>2020-09-29T16:13:40Z</time>
      </trkpt>
      <trkpt lat="40.8356950" lon="-3.5188530">
        <ele>758.0</ele>
        <time>2020-09-29T16:13:41Z</time>
      </trkpt>
      <trkpt lat="40.8356570" lon="-3.5189180">
        <ele>758.0</ele>
        <time>2020-09-29T16:13:42Z</time>
      </trkpt>
      <trkpt lat="40.8356570" lon="-3.5189180">
        <ele>758.0</ele>
        <time>2020-09-29T16:13:43Z</time>
      </trkpt>
      <trkpt lat="40.8355780" lon="-3.5190450">
        <ele>758.0</ele>
        <time>2020-09-29T16:13:44Z</time>
      </trkpt>
      <trkpt lat="40.8355780" lon="-3.5190450">
        <ele>758.0</ele>
        <time>2020-09-29T16:13:45Z</time>
      </trkpt>
      <trkpt lat="40.8355020" lon="-3.5191650">
        <ele>758.0</ele>
        <time>2020-09-29T16:13:46Z</time>
      </trkpt>
      <trkpt lat="40.8354580" lon="-3.5192280">
        <ele>758.0</ele>
        <time>2020-09-29T16:13:47Z</time>
      </trkpt>
      <trkpt lat="40.8354170" lon="-3.5192950">
        <ele>758.0</ele>
        <time>2020-09-29T16:13:48Z</time>
      </trkpt>
      <trkpt lat="40.8354170" lon="-3.5192950">
        <ele>758.0</ele>
        <time>2020-09-29T16:13:49Z</time>
      </trkpt>
      <trkpt lat="40.8353280" lon="-3.5194230">
        <ele>758.0</ele>
        <time>2020-09-29T16:13:50Z</time>
      </trkpt>
      <trkpt lat="40.8353280" lon="-3.5194230">
        <ele>758.0</ele>
        <time>2020-09-29T16:13:51Z</time>
      </trkpt>
      <trkpt lat="40.8352450" lon="-3.5195420">
        <ele>758.0</ele>
        <time>2020-09-29T16:13:52Z</time>
      </trkpt>
      <trkpt lat="40.8352450" lon="-3.5195420">
        <ele>758.0</ele>
        <time>2020-09-29T16:13:53Z</time>
      </trkpt>
      <trkpt lat="40.8351600" lon="-3.5196620">
        <ele>758.0</ele>
        <time>2020-09-29T16:13:54Z</time>
      </trkpt>
      <trkpt lat="40.8351180" lon="-3.5197220">
        <ele>758.0</ele>
        <time>2020-09-29T16:13:55Z</time>
      </trkpt>
      <trkpt lat="40.8351180" lon="-3.5197220">
        <ele>758.0</ele>
        <time>2020-09-29T16:13:56Z</time>
      </trkpt>
      <trkpt lat="40.8350280" lon="-3.5198370">
        <ele>758.0</ele>
        <time>2020-09-29T16:13:57Z</time>
      </trkpt>
      <trkpt lat="40.8350280" lon="-3.5198370">
        <ele>758.0</ele>
        <time>2020-09-29T16:13:58Z</time>
      </trkpt>
      <trkpt lat="40.8349330" lon="-3.5199500">
        <ele>757.0</ele>
        <time>2020-09-29T16:13:59Z</time>
      </trkpt>
      <trkpt lat="40.8349330" lon="-3.5199500">
        <ele>757.0</ele>
        <time>2020-09-29T16:14:00Z</time>
      </trkpt>
      <trkpt lat="40.8348370" lon="-3.5200550">
        <ele>757.0</ele>
        <time>2020-09-29T16:14:01Z</time>
      </trkpt>
      <trkpt lat="40.8348370" lon="-3.5200550">
        <ele>757.0</ele>
        <time>2020-09-29T16:14:02Z</time>
      </trkpt>
      <trkpt lat="40.8347370" lon="-3.5201630">
        <ele>757.0</ele>
        <time>2020-09-29T16:14:03Z</time>
      </trkpt>
      <trkpt lat="40.8347370" lon="-3.5201630">
        <ele>757.0</ele>
        <time>2020-09-29T16:14:04Z</time>
      </trkpt>
      <trkpt lat="40.8346350" lon="-3.5202670">
        <ele>757.0</ele>
        <time>2020-09-29T16:14:05Z</time>
      </trkpt>
      <trkpt lat="40.8345830" lon="-3.5203150">
        <ele>757.0</ele>
        <time>2020-09-29T16:14:06Z</time>
      </trkpt>
      <trkpt lat="40.8345830" lon="-3.5203150">
        <ele>756.0</ele>
        <time>2020-09-29T16:14:07Z</time>
      </trkpt>
      <trkpt lat="40.8344770" lon="-3.5204150">
        <ele>756.0</ele>
        <time>2020-09-29T16:14:08Z</time>
      </trkpt>
      <trkpt lat="40.8344770" lon="-3.5204150">
        <ele>756.0</ele>
        <time>2020-09-29T16:14:09Z</time>
      </trkpt>
      <trkpt lat="40.8343700" lon="-3.5205080">
        <ele>756.0</ele>
        <time>2020-09-29T16:14:10Z</time>
      </trkpt>
      <trkpt lat="40.8343700" lon="-3.5205080">
        <ele>756.0</ele>
        <time>2020-09-29T16:14:11Z</time>
      </trkpt>
      <trkpt lat="40.8342630" lon="-3.5205980">
        <ele>756.0</ele>
        <time>2020-09-29T16:14:12Z</time>
      </trkpt>
      <trkpt lat="40.8342630" lon="-3.5205980">
        <ele>756.0</ele>
        <time>2020-09-29T16:14:13Z</time>
      </trkpt>
      <trkpt lat="40.8341620" lon="-3.5206920">
        <ele>756.0</ele>
        <time>2020-09-29T16:14:14Z</time>
      </trkpt>
      <trkpt lat="40.8341620" lon="-3.5206920">
        <ele>756.0</ele>
        <time>2020-09-29T16:14:15Z</time>
      </trkpt>
      <trkpt lat="40.8340570" lon="-3.5207830">
        <ele>756.0</ele>
        <time>2020-09-29T16:14:16Z</time>
      </trkpt>
      <trkpt lat="40.8340030" lon="-3.5208280">
        <ele>756.0</ele>
        <time>2020-09-29T16:14:17Z</time>
      </trkpt>
      <trkpt lat="40.8340030" lon="-3.5208280">
        <ele>756.0</ele>
        <time>2020-09-29T16:14:18Z</time>
      </trkpt>
      <trkpt lat="40.8338970" lon="-3.5209180">
        <ele>756.0</ele>
        <time>2020-09-29T16:14:19Z</time>
      </trkpt>
      <trkpt lat="40.8338450" lon="-3.5209630">
        <ele>756.0</ele>
        <time>2020-09-29T16:14:20Z</time>
      </trkpt>
      <trkpt lat="40.8338450" lon="-3.5209630">
        <ele>755.0</ele>
        <time>2020-09-29T16:14:21Z</time>
      </trkpt>
      <trkpt lat="40.8337370" lon="-3.5210470">
        <ele>755.0</ele>
        <time>2020-09-29T16:14:22Z</time>
      </trkpt>
      <trkpt lat="40.8337370" lon="-3.5210470">
        <ele>755.0</ele>
        <time>2020-09-29T16:14:23Z</time>
      </trkpt>
      <trkpt lat="40.8336370" lon="-3.5211400">
        <ele>755.0</ele>
        <time>2020-09-29T16:14:24Z</time>
      </trkpt>
      <trkpt lat="40.8336370" lon="-3.5211400">
        <ele>755.0</ele>
        <time>2020-09-29T16:14:25Z</time>
      </trkpt>
      <trkpt lat="40.8335300" lon="-3.5212230">
        <ele>755.0</ele>
        <time>2020-09-29T16:14:26Z</time>
      </trkpt>
      <trkpt lat="40.8335300" lon="-3.5212230">
        <ele>755.0</ele>
        <time>2020-09-29T16:14:27Z</time>
      </trkpt>
      <trkpt lat="40.8334250" lon="-3.5213050">
        <ele>755.0</ele>
        <time>2020-09-29T16:14:28Z</time>
      </trkpt>
      <trkpt lat="40.8333750" lon="-3.5213470">
        <ele>755.0</ele>
        <time>2020-09-29T16:14:29Z</time>
      </trkpt>
      <trkpt lat="40.8333280" lon="-3.5213900">
        <ele>755.0</ele>
        <time>2020-09-29T16:14:30Z</time>
      </trkpt>
      <trkpt lat="40.8333280" lon="-3.5213900">
        <ele>755.0</ele>
        <time>2020-09-29T16:14:31Z</time>
      </trkpt>
      <trkpt lat="40.8332270" lon="-3.5214730">
        <ele>755.0</ele>
        <time>2020-09-29T16:14:32Z</time>
      </trkpt>
      <trkpt lat="40.8332270" lon="-3.5214730">
        <ele>755.0</ele>
        <time>2020-09-29T16:14:33Z</time>
      </trkpt>
      <trkpt lat="40.8331280" lon="-3.5215600">
        <ele>755.0</ele>
        <time>2020-09-29T16:14:34Z</time>
      </trkpt>
      <trkpt lat="40.8331280" lon="-3.5215600">
        <ele>755.0</ele>
        <time>2020-09-29T16:14:35Z</time>
      </trkpt>
      <trkpt lat="40.8330300" lon="-3.5216550">
        <ele>755.0</ele>
        <time>2020-09-29T16:14:36Z</time>
      </trkpt>
      <trkpt lat="40.8330300" lon="-3.5216550">
        <ele>755.0</ele>
        <time>2020-09-29T16:14:37Z</time>
      </trkpt>
      <trkpt lat="40.8329380" lon="-3.5217520">
        <ele>755.0</ele>
        <time>2020-09-29T16:14:38Z</time>
      </trkpt>
      <trkpt lat="40.8329380" lon="-3.5217520">
        <ele>755.0</ele>
        <time>2020-09-29T16:14:39Z</time>
      </trkpt>
      <trkpt lat="40.8328480" lon="-3.5218530">
        <ele>755.0</ele>
        <time>2020-09-29T16:14:40Z</time>
      </trkpt>
      <trkpt lat="40.8328480" lon="-3.5218530">
        <ele>755.0</ele>
        <time>2020-09-29T16:14:41Z</time>
      </trkpt>
      <trkpt lat="40.8327600" lon="-3.5219630">
        <ele>755.0</ele>
        <time>2020-09-29T16:14:42Z</time>
      </trkpt>
      <trkpt lat="40.8327180" lon="-3.5220200">
        <ele>755.0</ele>
        <time>2020-09-29T16:14:43Z</time>
      </trkpt>
      <trkpt lat="40.8327180" lon="-3.5220200">
        <ele>755.0</ele>
        <time>2020-09-29T16:14:44Z</time>
      </trkpt>
      <trkpt lat="40.8326370" lon="-3.5221400">
        <ele>755.0</ele>
        <time>2020-09-29T16:14:45Z</time>
      </trkpt>
      <trkpt lat="40.8326370" lon="-3.5221400">
        <ele>755.0</ele>
        <time>2020-09-29T16:14:46Z</time>
      </trkpt>
      <trkpt lat="40.8325580" lon="-3.5222550">
        <ele>755.0</ele>
        <time>2020-09-29T16:14:47Z</time>
      </trkpt>
      <trkpt lat="40.8325580" lon="-3.5222550">
        <ele>755.0</ele>
        <time>2020-09-29T16:14:48Z</time>
      </trkpt>
      <trkpt lat="40.8324880" lon="-3.5223720">
        <ele>755.0</ele>
        <time>2020-09-29T16:14:49Z</time>
      </trkpt>
      <trkpt lat="40.8324530" lon="-3.5224280">
        <ele>755.0</ele>
        <time>2020-09-29T16:14:50Z</time>
      </trkpt>
      <trkpt lat="40.8324530" lon="-3.5224280">
        <ele>755.0</ele>
        <time>2020-09-29T16:14:51Z</time>
      </trkpt>
      <trkpt lat="40.8323830" lon="-3.5225480">
        <ele>755.0</ele>
        <time>2020-09-29T16:14:52Z</time>
      </trkpt>
      <trkpt lat="40.8323830" lon="-3.5225480">
        <ele>755.0</ele>
        <time>2020-09-29T16:14:53Z</time>
      </trkpt>
      <trkpt lat="40.8323080" lon="-3.5226680">
        <ele>754.0</ele>
        <time>2020-09-29T16:14:54Z</time>
      </trkpt>
      <trkpt lat="40.8322700" lon="-3.5227300">
        <ele>754.0</ele>
        <time>2020-09-29T16:14:55Z</time>
      </trkpt>
      <trkpt lat="40.8322320" lon="-3.5227950">
        <ele>754.0</ele>
        <time>2020-09-29T16:14:56Z</time>
      </trkpt>
      <trkpt lat="40.8322320" lon="-3.5227950">
        <ele>754.0</ele>
        <time>2020-09-29T16:14:57Z</time>
      </trkpt>
      <trkpt lat="40.8321530" lon="-3.5229250">
        <ele>754.0</ele>
        <time>2020-09-29T16:14:58Z</time>
      </trkpt>
      <trkpt lat="40.8321130" lon="-3.5229920">
        <ele>754.0</ele>
        <time>2020-09-29T16:14:59Z</time>
      </trkpt>
      <trkpt lat="40.8321130" lon="-3.5229920">
        <ele>754.0</ele>
        <time>2020-09-29T16:15:00Z</time>
      </trkpt>
      <trkpt lat="40.8320350" lon="-3.5231200">
        <ele>754.0</ele>
        <time>2020-09-29T16:15:01Z</time>
      </trkpt>
      <trkpt lat="40.8319970" lon="-3.5231830">
        <ele>753.0</ele>
        <time>2020-09-29T16:15:02Z</time>
      </trkpt>
      <trkpt lat="40.8319970" lon="-3.5231830">
        <ele>753.0</ele>
        <time>2020-09-29T16:15:03Z</time>
      </trkpt>
      <trkpt lat="40.8319220" lon="-3.5233130">
        <ele>753.0</ele>
        <time>2020-09-29T16:15:04Z</time>
      </trkpt>
      <trkpt lat="40.8318820" lon="-3.5233770">
        <ele>753.0</ele>
        <time>2020-09-29T16:15:05Z</time>
      </trkpt>
      <trkpt lat="40.8318820" lon="-3.5233770">
        <ele>753.0</ele>
        <time>2020-09-29T16:15:06Z</time>
      </trkpt>
      <trkpt lat="40.8317980" lon="-3.5235120">
        <ele>753.0</ele>
        <time>2020-09-29T16:15:07Z</time>
      </trkpt>
      <trkpt lat="40.8317580" lon="-3.5235820">
        <ele>752.0</ele>
        <time>2020-09-29T16:15:08Z</time>
      </trkpt>
      <trkpt lat="40.8317580" lon="-3.5235820">
        <ele>752.0</ele>
        <time>2020-09-29T16:15:09Z</time>
      </trkpt>
      <trkpt lat="40.8316750" lon="-3.5237200">
        <ele>752.0</ele>
        <time>2020-09-29T16:15:10Z</time>
      </trkpt>
      <trkpt lat="40.8316750" lon="-3.5237200">
        <ele>752.0</ele>
        <time>2020-09-29T16:15:11Z</time>
      </trkpt>
      <trkpt lat="40.8315900" lon="-3.5238550">
        <ele>752.0</ele>
        <time>2020-09-29T16:15:12Z</time>
      </trkpt>
      <trkpt lat="40.8315470" lon="-3.5239270">
        <ele>752.0</ele>
        <time>2020-09-29T16:15:13Z</time>
      </trkpt>
      <trkpt lat="40.8315070" lon="-3.5240000">
        <ele>752.0</ele>
        <time>2020-09-29T16:15:14Z</time>
      </trkpt>
      <trkpt lat="40.8315070" lon="-3.5240000">
        <ele>752.0</ele>
        <time>2020-09-29T16:15:15Z</time>
      </trkpt>
      <trkpt lat="40.8314170" lon="-3.5241430">
        <ele>752.0</ele>
        <time>2020-09-29T16:15:16Z</time>
      </trkpt>
      <trkpt lat="40.8314170" lon="-3.5241430">
        <ele>752.0</ele>
        <time>2020-09-29T16:15:17Z</time>
      </trkpt>
      <trkpt lat="40.8313320" lon="-3.5242820">
        <ele>751.0</ele>
        <time>2020-09-29T16:15:18Z</time>
      </trkpt>
      <trkpt lat="40.8313320" lon="-3.5242820">
        <ele>751.0</ele>
        <time>2020-09-29T16:15:19Z</time>
      </trkpt>
      <trkpt lat="40.8312520" lon="-3.5244150">
        <ele>751.0</ele>
        <time>2020-09-29T16:15:20Z</time>
      </trkpt>
      <trkpt lat="40.8312520" lon="-3.5244150">
        <ele>751.0</ele>
        <time>2020-09-29T16:15:21Z</time>
      </trkpt>
      <trkpt lat="40.8311680" lon="-3.5245500">
        <ele>751.0</ele>
        <time>2020-09-29T16:15:22Z</time>
      </trkpt>
      <trkpt lat="40.8311680" lon="-3.5245500">
        <ele>751.0</ele>
        <time>2020-09-29T16:15:23Z</time>
      </trkpt>
      <trkpt lat="40.8310830" lon="-3.5246880">
        <ele>751.0</ele>
        <time>2020-09-29T16:15:24Z</time>
      </trkpt>
      <trkpt lat="40.8310830" lon="-3.5246880">
        <ele>751.0</ele>
        <time>2020-09-29T16:15:25Z</time>
      </trkpt>
      <trkpt lat="40.8310030" lon="-3.5248270">
        <ele>751.0</ele>
        <time>2020-09-29T16:15:26Z</time>
      </trkpt>
      <trkpt lat="40.8309620" lon="-3.5248930">
        <ele>751.0</ele>
        <time>2020-09-29T16:15:27Z</time>
      </trkpt>
      <trkpt lat="40.8309620" lon="-3.5248930">
        <ele>751.0</ele>
        <time>2020-09-29T16:15:28Z</time>
      </trkpt>
      <trkpt lat="40.8308780" lon="-3.5250280">
        <ele>751.0</ele>
        <time>2020-09-29T16:15:29Z</time>
      </trkpt>
      <trkpt lat="40.8308780" lon="-3.5250280">
        <ele>751.0</ele>
        <time>2020-09-29T16:15:30Z</time>
      </trkpt>
      <trkpt lat="40.8307970" lon="-3.5251670">
        <ele>751.0</ele>
        <time>2020-09-29T16:15:31Z</time>
      </trkpt>
      <trkpt lat="40.8307550" lon="-3.5252330">
        <ele>750.0</ele>
        <time>2020-09-29T16:15:32Z</time>
      </trkpt>
      <trkpt lat="40.8307130" lon="-3.5253000">
        <ele>750.0</ele>
        <time>2020-09-29T16:15:33Z</time>
      </trkpt>
      <trkpt lat="40.8307130" lon="-3.5253000">
        <ele>750.0</ele>
        <time>2020-09-29T16:15:34Z</time>
      </trkpt>
      <trkpt lat="40.8306320" lon="-3.5254400">
        <ele>750.0</ele>
        <time>2020-09-29T16:15:35Z</time>
      </trkpt>
      <trkpt lat="40.8306320" lon="-3.5254400">
        <ele>750.0</ele>
        <time>2020-09-29T16:15:36Z</time>
      </trkpt>
      <trkpt lat="40.8305470" lon="-3.5255770">
        <ele>750.0</ele>
        <time>2020-09-29T16:15:37Z</time>
      </trkpt>
      <trkpt lat="40.8305470" lon="-3.5255770">
        <ele>750.0</ele>
        <time>2020-09-29T16:15:38Z</time>
      </trkpt>
      <trkpt lat="40.8304620" lon="-3.5257170">
        <ele>750.0</ele>
        <time>2020-09-29T16:15:39Z</time>
      </trkpt>
      <trkpt lat="40.8304620" lon="-3.5257170">
        <ele>750.0</ele>
        <time>2020-09-29T16:15:40Z</time>
      </trkpt>
      <trkpt lat="40.8303750" lon="-3.5258550">
        <ele>750.0</ele>
        <time>2020-09-29T16:15:41Z</time>
      </trkpt>
      <trkpt lat="40.8303750" lon="-3.5258550">
        <ele>750.0</ele>
        <time>2020-09-29T16:15:42Z</time>
      </trkpt>
      <trkpt lat="40.8302900" lon="-3.5259980">
        <ele>750.0</ele>
        <time>2020-09-29T16:15:43Z</time>
      </trkpt>
      <trkpt lat="40.8302470" lon="-3.5260700">
        <ele>750.0</ele>
        <time>2020-09-29T16:15:44Z</time>
      </trkpt>
      <trkpt lat="40.8302470" lon="-3.5260700">
        <ele>750.0</ele>
        <time>2020-09-29T16:15:45Z</time>
      </trkpt>
      <trkpt lat="40.8301620" lon="-3.5262070">
        <ele>750.0</ele>
        <time>2020-09-29T16:15:46Z</time>
      </trkpt>
      <trkpt lat="40.8301620" lon="-3.5262070">
        <ele>750.0</ele>
        <time>2020-09-29T16:15:47Z</time>
      </trkpt>
      <trkpt lat="40.8300780" lon="-3.5263430">
        <ele>750.0</ele>
        <time>2020-09-29T16:15:48Z</time>
      </trkpt>
      <trkpt lat="40.8300370" lon="-3.5264120">
        <ele>750.0</ele>
        <time>2020-09-29T16:15:49Z</time>
      </trkpt>
      <trkpt lat="40.8300370" lon="-3.5264120">
        <ele>750.0</ele>
        <time>2020-09-29T16:15:50Z</time>
      </trkpt>
      <trkpt lat="40.8299550" lon="-3.5265470">
        <ele>750.0</ele>
        <time>2020-09-29T16:15:51Z</time>
      </trkpt>
      <trkpt lat="40.8299550" lon="-3.5265470">
        <ele>750.0</ele>
        <time>2020-09-29T16:15:52Z</time>
      </trkpt>
      <trkpt lat="40.8298720" lon="-3.5266800">
        <ele>750.0</ele>
        <time>2020-09-29T16:15:53Z</time>
      </trkpt>
      <trkpt lat="40.8298280" lon="-3.5267470">
        <ele>750.0</ele>
        <time>2020-09-29T16:15:54Z</time>
      </trkpt>
      <trkpt lat="40.8298280" lon="-3.5267470">
        <ele>750.0</ele>
        <time>2020-09-29T16:15:55Z</time>
      </trkpt>
      <trkpt lat="40.8297470" lon="-3.5268780">
        <ele>750.0</ele>
        <time>2020-09-29T16:15:56Z</time>
      </trkpt>
      <trkpt lat="40.8297470" lon="-3.5268780">
        <ele>750.0</ele>
        <time>2020-09-29T16:15:57Z</time>
      </trkpt>
      <trkpt lat="40.8296680" lon="-3.5270080">
        <ele>750.0</ele>
        <time>2020-09-29T16:15:58Z</time>
      </trkpt>
      <trkpt lat="40.8296280" lon="-3.5270720">
        <ele>750.0</ele>
        <time>2020-09-29T16:15:59Z</time>
      </trkpt>
      <trkpt lat="40.8296280" lon="-3.5270720">
        <ele>750.0</ele>
        <time>2020-09-29T16:16:00Z</time>
      </trkpt>
      <trkpt lat="40.8295550" lon="-3.5271980">
        <ele>750.0</ele>
        <time>2020-09-29T16:16:01Z</time>
      </trkpt>
      <trkpt lat="40.8295220" lon="-3.5272620">
        <ele>750.0</ele>
        <time>2020-09-29T16:16:02Z</time>
      </trkpt>
      <trkpt lat="40.8295220" lon="-3.5272620">
        <ele>750.0</ele>
        <time>2020-09-29T16:16:03Z</time>
      </trkpt>
      <trkpt lat="40.8294530" lon="-3.5273950">
        <ele>750.0</ele>
        <time>2020-09-29T16:16:04Z</time>
      </trkpt>
      <trkpt lat="40.8294220" lon="-3.5274580">
        <ele>750.0</ele>
        <time>2020-09-29T16:16:05Z</time>
      </trkpt>
      <trkpt lat="40.8294220" lon="-3.5274580">
        <ele>750.0</ele>
        <time>2020-09-29T16:16:06Z</time>
      </trkpt>
      <trkpt lat="40.8293520" lon="-3.5275950">
        <ele>750.0</ele>
        <time>2020-09-29T16:16:07Z</time>
      </trkpt>
      <trkpt lat="40.8293520" lon="-3.5275950">
        <ele>750.0</ele>
        <time>2020-09-29T16:16:08Z</time>
      </trkpt>
      <trkpt lat="40.8292800" lon="-3.5277400">
        <ele>750.0</ele>
        <time>2020-09-29T16:16:09Z</time>
      </trkpt>
      <trkpt lat="40.8292470" lon="-3.5278150">
        <ele>750.0</ele>
        <time>2020-09-29T16:16:10Z</time>
      </trkpt>
      <trkpt lat="40.8292470" lon="-3.5278150">
        <ele>750.0</ele>
        <time>2020-09-29T16:16:11Z</time>
      </trkpt>
      <trkpt lat="40.8291800" lon="-3.5279720">
        <ele>750.0</ele>
        <time>2020-09-29T16:16:12Z</time>
      </trkpt>
      <trkpt lat="40.8291800" lon="-3.5279720">
        <ele>750.0</ele>
        <time>2020-09-29T16:16:13Z</time>
      </trkpt>
      <trkpt lat="40.8291080" lon="-3.5281350">
        <ele>750.0</ele>
        <time>2020-09-29T16:16:14Z</time>
      </trkpt>
      <trkpt lat="40.8291080" lon="-3.5281350">
        <ele>750.0</ele>
        <time>2020-09-29T16:16:15Z</time>
      </trkpt>
      <trkpt lat="40.8290350" lon="-3.5283020">
        <ele>749.0</ele>
        <time>2020-09-29T16:16:16Z</time>
      </trkpt>
      <trkpt lat="40.8290350" lon="-3.5283020">
        <ele>749.0</ele>
        <time>2020-09-29T16:16:17Z</time>
      </trkpt>
      <trkpt lat="40.8289650" lon="-3.5284670">
        <ele>749.0</ele>
        <time>2020-09-29T16:16:18Z</time>
      </trkpt>
      <trkpt lat="40.8289650" lon="-3.5284670">
        <ele>749.0</ele>
        <time>2020-09-29T16:16:19Z</time>
      </trkpt>
      <trkpt lat="40.8288900" lon="-3.5286280">
        <ele>749.0</ele>
        <time>2020-09-29T16:16:20Z</time>
      </trkpt>
      <trkpt lat="40.8288900" lon="-3.5286280">
        <ele>749.0</ele>
        <time>2020-09-29T16:16:21Z</time>
      </trkpt>
      <trkpt lat="40.8288170" lon="-3.5287850">
        <ele>749.0</ele>
        <time>2020-09-29T16:16:22Z</time>
      </trkpt>
      <trkpt lat="40.8287830" lon="-3.5288670">
        <ele>749.0</ele>
        <time>2020-09-29T16:16:23Z</time>
      </trkpt>
      <trkpt lat="40.8287830" lon="-3.5288670">
        <ele>749.0</ele>
        <time>2020-09-29T16:16:24Z</time>
      </trkpt>
      <trkpt lat="40.8287150" lon="-3.5290280">
        <ele>749.0</ele>
        <time>2020-09-29T16:16:25Z</time>
      </trkpt>
      <trkpt lat="40.8286820" lon="-3.5291070">
        <ele>749.0</ele>
        <time>2020-09-29T16:16:26Z</time>
      </trkpt>
      <trkpt lat="40.8286820" lon="-3.5291070">
        <ele>749.0</ele>
        <time>2020-09-29T16:16:27Z</time>
      </trkpt>
      <trkpt lat="40.8286130" lon="-3.5292600">
        <ele>749.0</ele>
        <time>2020-09-29T16:16:28Z</time>
      </trkpt>
      <trkpt lat="40.8285820" lon="-3.5293400">
        <ele>749.0</ele>
        <time>2020-09-29T16:16:29Z</time>
      </trkpt>
      <trkpt lat="40.8285820" lon="-3.5293400">
        <ele>749.0</ele>
        <time>2020-09-29T16:16:30Z</time>
      </trkpt>
      <trkpt lat="40.8285170" lon="-3.5294930">
        <ele>749.0</ele>
        <time>2020-09-29T16:16:31Z</time>
      </trkpt>
      <trkpt lat="40.8284900" lon="-3.5295700">
        <ele>749.0</ele>
        <time>2020-09-29T16:16:32Z</time>
      </trkpt>
      <trkpt lat="40.8284900" lon="-3.5295700">
        <ele>749.0</ele>
        <time>2020-09-29T16:16:33Z</time>
      </trkpt>
      <trkpt lat="40.8284250" lon="-3.5297150">
        <ele>749.0</ele>
        <time>2020-09-29T16:16:34Z</time>
      </trkpt>
      <trkpt lat="40.8284250" lon="-3.5297150">
        <ele>749.0</ele>
        <time>2020-09-29T16:16:35Z</time>
      </trkpt>
      <trkpt lat="40.8283620" lon="-3.5298700">
        <ele>749.0</ele>
        <time>2020-09-29T16:16:36Z</time>
      </trkpt>
      <trkpt lat="40.8283620" lon="-3.5298700">
        <ele>749.0</ele>
        <time>2020-09-29T16:16:37Z</time>
      </trkpt>
      <trkpt lat="40.8282980" lon="-3.5300200">
        <ele>749.0</ele>
        <time>2020-09-29T16:16:38Z</time>
      </trkpt>
      <trkpt lat="40.8282630" lon="-3.5300930">
        <ele>749.0</ele>
        <time>2020-09-29T16:16:39Z</time>
      </trkpt>
      <trkpt lat="40.8282630" lon="-3.5300930">
        <ele>749.0</ele>
        <time>2020-09-29T16:16:40Z</time>
      </trkpt>
      <trkpt lat="40.8281950" lon="-3.5302400">
        <ele>749.0</ele>
        <time>2020-09-29T16:16:41Z</time>
      </trkpt>
      <trkpt lat="40.8281620" lon="-3.5303120">
        <ele>749.0</ele>
        <time>2020-09-29T16:16:42Z</time>
      </trkpt>
      <trkpt lat="40.8281620" lon="-3.5303120">
        <ele>749.0</ele>
        <time>2020-09-29T16:16:43Z</time>
      </trkpt>
      <trkpt lat="40.8280930" lon="-3.5304580">
        <ele>749.0</ele>
        <time>2020-09-29T16:16:44Z</time>
      </trkpt>
      <trkpt lat="40.8280930" lon="-3.5304580">
        <ele>749.0</ele>
        <time>2020-09-29T16:16:45Z</time>
      </trkpt>
      <trkpt lat="40.8280230" lon="-3.5306030">
        <ele>749.0</ele>
        <time>2020-09-29T16:16:46Z</time>
      </trkpt>
      <trkpt lat="40.8280230" lon="-3.5306030">
        <ele>749.0</ele>
        <time>2020-09-29T16:16:47Z</time>
      </trkpt>
      <trkpt lat="40.8279580" lon="-3.5307530">
        <ele>749.0</ele>
        <time>2020-09-29T16:16:48Z</time>
      </trkpt>
      <trkpt lat="40.8279580" lon="-3.5307530">
        <ele>749.0</ele>
        <time>2020-09-29T16:16:49Z</time>
      </trkpt>
      <trkpt lat="40.8278920" lon="-3.5308980">
        <ele>749.0</ele>
        <time>2020-09-29T16:16:50Z</time>
      </trkpt>
      <trkpt lat="40.8278920" lon="-3.5308980">
        <ele>749.0</ele>
        <time>2020-09-29T16:16:51Z</time>
      </trkpt>
      <trkpt lat="40.8278120" lon="-3.5310830">
        <ele>749.0</ele>
        <time>2020-09-29T16:16:52Z</time>
      </trkpt>
      <trkpt lat="40.8277960" lon="-3.5311210">
        <ele>749.0</ele>
        <time>2020-09-29T16:16:53Z</time>
      </trkpt>
      <trkpt lat="40.8277650" lon="-3.5311970">
        <ele>749.0</ele>
        <time>2020-09-29T16:16:54Z</time>
      </trkpt>
      <trkpt lat="40.8277400" lon="-3.5312800">
        <ele>749.0</ele>
        <time>2020-09-29T16:16:55Z</time>
      </trkpt>
      <trkpt lat="40.8277180" lon="-3.5313630">
        <ele>749.0</ele>
        <time>2020-09-29T16:16:56Z</time>
      </trkpt>
      <trkpt lat="40.8277180" lon="-3.5313630">
        <ele>749.0</ele>
        <time>2020-09-29T16:16:57Z</time>
      </trkpt>
      <trkpt lat="40.8276970" lon="-3.5315420">
        <ele>749.0</ele>
        <time>2020-09-29T16:16:58Z</time>
      </trkpt>
      <trkpt lat="40.8276970" lon="-3.5315420">
        <ele>749.0</ele>
        <time>2020-09-29T16:16:59Z</time>
      </trkpt>
      <trkpt lat="40.8276780" lon="-3.5317330">
        <ele>749.0</ele>
        <time>2020-09-29T16:17:00Z</time>
      </trkpt>
      <trkpt lat="40.8276780" lon="-3.5317330">
        <ele>749.0</ele>
        <time>2020-09-29T16:17:01Z</time>
      </trkpt>
      <trkpt lat="40.8276600" lon="-3.5319350">
        <ele>749.0</ele>
        <time>2020-09-29T16:17:02Z</time>
      </trkpt>
      <trkpt lat="40.8276600" lon="-3.5319350">
        <ele>748.0</ele>
        <time>2020-09-29T16:17:03Z</time>
      </trkpt>
      <trkpt lat="40.8276430" lon="-3.5321500">
        <ele>748.0</ele>
        <time>2020-09-29T16:17:04Z</time>
      </trkpt>
      <trkpt lat="40.8276430" lon="-3.5321500">
        <ele>747.0</ele>
        <time>2020-09-29T16:17:05Z</time>
      </trkpt>
      <trkpt lat="40.8276300" lon="-3.5323750">
        <ele>747.0</ele>
        <time>2020-09-29T16:17:06Z</time>
      </trkpt>
      <trkpt lat="40.8276300" lon="-3.5323750">
        <ele>747.0</ele>
        <time>2020-09-29T16:17:07Z</time>
      </trkpt>
      <trkpt lat="40.8276100" lon="-3.5326080">
        <ele>747.0</ele>
        <time>2020-09-29T16:17:08Z</time>
      </trkpt>
      <trkpt lat="40.8276100" lon="-3.5326080">
        <ele>746.0</ele>
        <time>2020-09-29T16:17:09Z</time>
      </trkpt>
      <trkpt lat="40.8275900" lon="-3.5328500">
        <ele>746.0</ele>
        <time>2020-09-29T16:17:10Z</time>
      </trkpt>
      <trkpt lat="40.8275900" lon="-3.5328500">
        <ele>745.0</ele>
        <time>2020-09-29T16:17:11Z</time>
      </trkpt>
      <trkpt lat="40.8275700" lon="-3.5331000">
        <ele>745.0</ele>
        <time>2020-09-29T16:17:12Z</time>
      </trkpt>
      <trkpt lat="40.8275700" lon="-3.5331000">
        <ele>745.0</ele>
        <time>2020-09-29T16:17:13Z</time>
      </trkpt>
      <trkpt lat="40.8275500" lon="-3.5333570">
        <ele>745.0</ele>
        <time>2020-09-29T16:17:14Z</time>
      </trkpt>
      <trkpt lat="40.8275500" lon="-3.5333570">
        <ele>743.0</ele>
        <time>2020-09-29T16:17:15Z</time>
      </trkpt>
      <trkpt lat="40.8275280" lon="-3.5336130">
        <ele>743.0</ele>
        <time>2020-09-29T16:17:16Z</time>
      </trkpt>
      <trkpt lat="40.8275280" lon="-3.5336130">
        <ele>743.0</ele>
        <time>2020-09-29T16:17:17Z</time>
      </trkpt>
      <trkpt lat="40.8275100" lon="-3.5338530">
        <ele>743.0</ele>
        <time>2020-09-29T16:17:18Z</time>
      </trkpt>
      <trkpt lat="40.8275100" lon="-3.5338530">
        <ele>742.0</ele>
        <time>2020-09-29T16:17:19Z</time>
      </trkpt>
      <trkpt lat="40.8274950" lon="-3.5340720">
        <ele>742.0</ele>
        <time>2020-09-29T16:17:20Z</time>
      </trkpt>
      <trkpt lat="40.8274950" lon="-3.5340720">
        <ele>741.0</ele>
        <time>2020-09-29T16:17:21Z</time>
      </trkpt>
      <trkpt lat="40.8274820" lon="-3.5342520">
        <ele>741.0</ele>
        <time>2020-09-29T16:17:22Z</time>
      </trkpt>
      <trkpt lat="40.8274820" lon="-3.5342520">
        <ele>740.0</ele>
        <time>2020-09-29T16:17:23Z</time>
      </trkpt>
      <trkpt lat="40.8274770" lon="-3.5343500">
        <ele>740.0</ele>
        <time>2020-09-29T16:17:24Z</time>
      </trkpt>
      <trkpt lat="40.8274770" lon="-3.5343500">
        <ele>740.0</ele>
        <time>2020-09-29T16:17:25Z</time>
      </trkpt>
      <trkpt lat="40.8274800" lon="-3.5343880">
        <ele>740.0</ele>
        <time>2020-09-29T16:17:26Z</time>
      </trkpt>
      <trkpt lat="40.8274800" lon="-3.5343880">
        <ele>739.0</ele>
        <time>2020-09-29T16:17:27Z</time>
      </trkpt>
      <trkpt lat="40.8274920" lon="-3.5343980">
        <ele>739.0</ele>
        <time>2020-09-29T16:17:28Z</time>
      </trkpt>
      <trkpt lat="40.8274920" lon="-3.5343980">
        <ele>739.0</ele>
        <time>2020-09-29T16:17:29Z</time>
      </trkpt>
      <trkpt lat="40.8275020" lon="-3.5343950">
        <ele>739.0</ele>
        <time>2020-09-29T16:30:45Z</time>
      </trkpt>
      <trkpt lat="40.8274600" lon="-3.5342720">
        <ele>739.0</ele>
        <time>2020-09-29T16:30:46Z</time>
      </trkpt>
      <trkpt lat="40.8274600" lon="-3.5342720">
        <ele>739.0</ele>
        <time>2020-09-29T16:30:47Z</time>
      </trkpt>
      <trkpt lat="40.8274730" lon="-3.5342850">
        <ele>739.0</ele>
        <time>2020-09-29T16:30:48Z</time>
      </trkpt>
      <trkpt lat="40.8274730" lon="-3.5342850">
        <ele>739.0</ele>
        <time>2020-09-29T16:31:04Z</time>
      </trkpt>
      <trkpt lat="40.8274730" lon="-3.5342850">
        <ele>739.0</ele>
        <time>2020-09-29T16:31:05Z</time>
      </trkpt>
      <trkpt lat="40.8274830" lon="-3.5344370">
        <ele>739.0</ele>
        <time>2020-09-29T16:31:06Z</time>
      </trkpt>
      <trkpt lat="40.8274830" lon="-3.5344370">
        <ele>739.0</ele>
        <time>2020-09-29T16:31:07Z</time>
      </trkpt>
      <trkpt lat="40.8274750" lon="-3.5345200">
        <ele>739.0</ele>
        <time>2020-09-29T16:31:08Z</time>
      </trkpt>
      <trkpt lat="40.8274750" lon="-3.5345200">
        <ele>739.0</ele>
        <time>2020-09-29T16:31:09Z</time>
      </trkpt>
      <trkpt lat="40.8274700" lon="-3.5346130">
        <ele>739.0</ele>
        <time>2020-09-29T16:31:10Z</time>
      </trkpt>
      <trkpt lat="40.8274700" lon="-3.5346130">
        <ele>739.0</ele>
        <time>2020-09-29T16:31:11Z</time>
      </trkpt>
      <trkpt lat="40.8274380" lon="-3.5346780">
        <ele>739.0</ele>
        <time>2020-09-29T16:31:12Z</time>
      </trkpt>
      <trkpt lat="40.8274380" lon="-3.5346780">
        <ele>739.0</ele>
        <time>2020-09-29T16:31:13Z</time>
      </trkpt>
      <trkpt lat="40.8274070" lon="-3.5346570">
        <ele>739.0</ele>
        <time>2020-09-29T16:31:14Z</time>
      </trkpt>
      <trkpt lat="40.8274070" lon="-3.5346570">
        <ele>739.0</ele>
        <time>2020-09-29T16:31:15Z</time>
      </trkpt>
      <trkpt lat="40.8273650" lon="-3.5346030">
        <ele>739.0</ele>
        <time>2020-09-29T16:31:16Z</time>
      </trkpt>
      <trkpt lat="40.8273650" lon="-3.5346030">
        <ele>738.0</ele>
        <time>2020-09-29T16:31:17Z</time>
      </trkpt>
      <trkpt lat="40.8272930" lon="-3.5345930">
        <ele>738.0</ele>
        <time>2020-09-29T16:31:18Z</time>
      </trkpt>
      <trkpt lat="40.8272930" lon="-3.5345930">
        <ele>738.0</ele>
        <time>2020-09-29T16:31:19Z</time>
      </trkpt>
      <trkpt lat="40.8271950" lon="-3.5345980">
        <ele>738.0</ele>
        <time>2020-09-29T16:31:20Z</time>
      </trkpt>
      <trkpt lat="40.8271000" lon="-3.5346070">
        <ele>738.0</ele>
        <time>2020-09-29T16:31:21Z</time>
      </trkpt>
      <trkpt lat="40.8271000" lon="-3.5346070">
        <ele>738.0</ele>
        <time>2020-09-29T16:31:22Z</time>
      </trkpt>
      <trkpt lat="40.8270680" lon="-3.5345970">
        <ele>738.0</ele>
        <time>2020-09-29T16:31:23Z</time>
      </trkpt>
      <trkpt lat="40.8270350" lon="-3.5345880">
        <ele>738.0</ele>
        <time>2020-09-29T16:31:24Z</time>
      </trkpt>
      <trkpt lat="40.8270350" lon="-3.5345880">
        <ele>738.0</ele>
        <time>2020-09-29T16:31:25Z</time>
      </trkpt>
      <trkpt lat="40.8269970" lon="-3.5345750">
        <ele>738.0</ele>
        <time>2020-09-29T16:31:26Z</time>
      </trkpt>
      <trkpt lat="40.8269970" lon="-3.5345750">
        <ele>738.0</ele>
        <time>2020-09-29T16:31:27Z</time>
      </trkpt>
      <trkpt lat="40.8269730" lon="-3.5345750">
        <ele>738.0</ele>
        <time>2020-09-29T16:31:28Z</time>
      </trkpt>
      <trkpt lat="40.8269580" lon="-3.5345830">
        <ele>738.0</ele>
        <time>2020-09-29T16:31:29Z</time>
      </trkpt>
      <trkpt lat="40.8269580" lon="-3.5345830">
        <ele>738.0</ele>
        <time>2020-09-29T16:31:30Z</time>
      </trkpt>
      <trkpt lat="40.8269450" lon="-3.5345820">
        <ele>738.0</ele>
        <time>2020-09-29T16:31:31Z</time>
      </trkpt>
      <trkpt lat="40.8269400" lon="-3.5345800">
        <ele>738.0</ele>
        <time>2020-09-29T16:31:32Z</time>
      </trkpt>
      <trkpt lat="40.8269670" lon="-3.5345530">
        <ele>738.0</ele>
        <time>2020-09-29T16:32:39Z</time>
      </trkpt>
      <trkpt lat="40.8269670" lon="-3.5345530">
        <ele>738.0</ele>
        <time>2020-09-29T16:32:40Z</time>
      </trkpt>
      <trkpt lat="40.8269670" lon="-3.5345530">
        <ele>738.0</ele>
        <time>2020-09-29T16:32:41Z</time>
      </trkpt>
      <trkpt lat="40.8269520" lon="-3.5345650">
        <ele>738.0</ele>
        <time>2020-09-29T16:32:42Z</time>
      </trkpt>
      <trkpt lat="40.8269620" lon="-3.5345620">
        <ele>737.0</ele>
        <time>2020-09-29T16:32:43Z</time>
      </trkpt>
      <trkpt lat="40.8269620" lon="-3.5345620">
        <ele>737.0</ele>
        <time>2020-09-29T16:32:44Z</time>
      </trkpt>
      <trkpt lat="40.8269750" lon="-3.5345520">
        <ele>737.0</ele>
        <time>2020-09-29T16:32:45Z</time>
      </trkpt>
      <trkpt lat="40.8269750" lon="-3.5345520">
        <ele>737.0</ele>
        <time>2020-09-29T16:32:46Z</time>
      </trkpt>
      <trkpt lat="40.8269820" lon="-3.5345450">
        <ele>737.0</ele>
        <time>2020-09-29T16:32:47Z</time>
      </trkpt>
      <trkpt lat="40.8269820" lon="-3.5345450">
        <ele>737.0</ele>
        <time>2020-09-29T16:32:48Z</time>
      </trkpt>
      <trkpt lat="40.8269800" lon="-3.5345420">
        <ele>737.0</ele>
        <time>2020-09-29T16:32:49Z</time>
      </trkpt>
      <trkpt lat="40.8269620" lon="-3.5345570">
        <ele>737.0</ele>
        <time>2020-09-29T16:37:56Z</time>
      </trkpt>
      <trkpt lat="40.8269630" lon="-3.5345670">
        <ele>737.0</ele>
        <time>2020-09-29T16:37:57Z</time>
      </trkpt>
      <trkpt lat="40.8269630" lon="-3.5345670">
        <ele>737.0</ele>
        <time>2020-09-29T16:37:58Z</time>
      </trkpt>
      <trkpt lat="40.8269730" lon="-3.5345750">
        <ele>737.0</ele>
        <time>2020-09-29T16:37:59Z</time>
      </trkpt>
      <trkpt lat="40.8269730" lon="-3.5345750">
        <ele>737.0</ele>
        <time>2020-09-29T16:38:00Z</time>
      </trkpt>
      <trkpt lat="40.8269780" lon="-3.5345830">
        <ele>736.0</ele>
        <time>2020-09-29T16:38:01Z</time>
      </trkpt>
      <trkpt lat="40.8269780" lon="-3.5345830">
        <ele>736.0</ele>
        <time>2020-09-29T16:38:02Z</time>
      </trkpt>
      <trkpt lat="40.8269750" lon="-3.5346030">
        <ele>736.0</ele>
        <time>2020-09-29T16:38:03Z</time>
      </trkpt>
      <trkpt lat="40.8269750" lon="-3.5346030">
        <ele>736.0</ele>
        <time>2020-09-29T16:38:04Z</time>
      </trkpt>
      <trkpt lat="40.8269530" lon="-3.5346420">
        <ele>736.0</ele>
        <time>2020-09-29T16:38:05Z</time>
      </trkpt>
      <trkpt lat="40.8269530" lon="-3.5346420">
        <ele>736.0</ele>
        <time>2020-09-29T16:38:06Z</time>
      </trkpt>
      <trkpt lat="40.8269200" lon="-3.5347080">
        <ele>736.0</ele>
        <time>2020-09-29T16:38:07Z</time>
      </trkpt>
      <trkpt lat="40.8269200" lon="-3.5347080">
        <ele>736.0</ele>
        <time>2020-09-29T16:38:08Z</time>
      </trkpt>
      <trkpt lat="40.8268600" lon="-3.5346800">
        <ele>736.0</ele>
        <time>2020-09-29T16:38:09Z</time>
      </trkpt>
      <trkpt lat="40.8268270" lon="-3.5346430">
        <ele>736.0</ele>
        <time>2020-09-29T16:38:10Z</time>
      </trkpt>
      <trkpt lat="40.8268270" lon="-3.5346430">
        <ele>736.0</ele>
        <time>2020-09-29T16:38:11Z</time>
      </trkpt>
      <trkpt lat="40.8267430" lon="-3.5345600">
        <ele>736.0</ele>
        <time>2020-09-29T16:38:12Z</time>
      </trkpt>
      <trkpt lat="40.8266900" lon="-3.5345230">
        <ele>736.0</ele>
        <time>2020-09-29T16:38:13Z</time>
      </trkpt>
      <trkpt lat="40.8266900" lon="-3.5345230">
        <ele>736.0</ele>
        <time>2020-09-29T16:38:14Z</time>
      </trkpt>
      <trkpt lat="40.8265880" lon="-3.5344600">
        <ele>736.0</ele>
        <time>2020-09-29T16:38:15Z</time>
      </trkpt>
      <trkpt lat="40.8265880" lon="-3.5344600">
        <ele>736.0</ele>
        <time>2020-09-29T16:38:16Z</time>
      </trkpt>
      <trkpt lat="40.8265050" lon="-3.5344020">
        <ele>736.0</ele>
        <time>2020-09-29T16:38:17Z</time>
      </trkpt>
      <trkpt lat="40.8264570" lon="-3.5343770">
        <ele>736.0</ele>
        <time>2020-09-29T16:38:18Z</time>
      </trkpt>
      <trkpt lat="40.8264250" lon="-3.5343430">
        <ele>736.0</ele>
        <time>2020-09-29T16:38:19Z</time>
      </trkpt>
      <trkpt lat="40.8264250" lon="-3.5343430">
        <ele>736.0</ele>
        <time>2020-09-29T16:38:20Z</time>
      </trkpt>
      <trkpt lat="40.8263550" lon="-3.5342850">
        <ele>736.0</ele>
        <time>2020-09-29T16:38:21Z</time>
      </trkpt>
      <trkpt lat="40.8263550" lon="-3.5342850">
        <ele>735.0</ele>
        <time>2020-09-29T16:38:22Z</time>
      </trkpt>
      <trkpt lat="40.8262820" lon="-3.5342270">
        <ele>735.0</ele>
        <time>2020-09-29T16:38:23Z</time>
      </trkpt>
      <trkpt lat="40.8262820" lon="-3.5342270">
        <ele>735.0</ele>
        <time>2020-09-29T16:38:24Z</time>
      </trkpt>
      <trkpt lat="40.8261930" lon="-3.5341650">
        <ele>735.0</ele>
        <time>2020-09-29T16:38:25Z</time>
      </trkpt>
      <trkpt lat="40.8261930" lon="-3.5341650">
        <ele>735.0</ele>
        <time>2020-09-29T16:38:26Z</time>
      </trkpt>
      <trkpt lat="40.8261930" lon="-3.5341650">
        <ele>735.0</ele>
        <time>2020-09-29T16:38:27Z</time>
      </trkpt>
      <trkpt lat="40.8261030" lon="-3.5341170">
        <ele>734.0</ele>
        <time>2020-09-29T16:38:28Z</time>
      </trkpt>
      <trkpt lat="40.8260150" lon="-3.5340780">
        <ele>734.0</ele>
        <time>2020-09-29T16:38:29Z</time>
      </trkpt>
      <trkpt lat="40.8260150" lon="-3.5340780">
        <ele>734.0</ele>
        <time>2020-09-29T16:38:30Z</time>
      </trkpt>
      <trkpt lat="40.8259230" lon="-3.5340320">
        <ele>734.0</ele>
        <time>2020-09-29T16:38:31Z</time>
      </trkpt>
      <trkpt lat="40.8259230" lon="-3.5340320">
        <ele>734.0</ele>
        <time>2020-09-29T16:38:32Z</time>
      </trkpt>
      <trkpt lat="40.8258250" lon="-3.5339930">
        <ele>734.0</ele>
        <time>2020-09-29T16:38:33Z</time>
      </trkpt>
      <trkpt lat="40.8257750" lon="-3.5339750">
        <ele>734.0</ele>
        <time>2020-09-29T16:38:34Z</time>
      </trkpt>
      <trkpt lat="40.8257270" lon="-3.5339580">
        <ele>734.0</ele>
        <time>2020-09-29T16:38:35Z</time>
      </trkpt>
      <trkpt lat="40.8257270" lon="-3.5339580">
        <ele>734.0</ele>
        <time>2020-09-29T16:38:36Z</time>
      </trkpt>
      <trkpt lat="40.8256230" lon="-3.5339250">
        <ele>734.0</ele>
        <time>2020-09-29T16:38:37Z</time>
      </trkpt>
      <trkpt lat="40.8256230" lon="-3.5339250">
        <ele>734.0</ele>
        <time>2020-09-29T16:38:38Z</time>
      </trkpt>
      <trkpt lat="40.8255370" lon="-3.5339030">
        <ele>734.0</ele>
        <time>2020-09-29T16:38:39Z</time>
      </trkpt>
      <trkpt lat="40.8255370" lon="-3.5339030">
        <ele>734.0</ele>
        <time>2020-09-29T16:38:40Z</time>
      </trkpt>
      <trkpt lat="40.8254350" lon="-3.5339000">
        <ele>734.0</ele>
        <time>2020-09-29T16:38:41Z</time>
      </trkpt>
      <trkpt lat="40.8254350" lon="-3.5339000">
        <ele>734.0</ele>
        <time>2020-09-29T16:38:42Z</time>
      </trkpt>
      <trkpt lat="40.8253350" lon="-3.5339050">
        <ele>734.0</ele>
        <time>2020-09-29T16:38:43Z</time>
      </trkpt>
      <trkpt lat="40.8253350" lon="-3.5339050">
        <ele>734.0</ele>
        <time>2020-09-29T16:38:44Z</time>
      </trkpt>
      <trkpt lat="40.8252370" lon="-3.5339200">
        <ele>734.0</ele>
        <time>2020-09-29T16:38:45Z</time>
      </trkpt>
      <trkpt lat="40.8252370" lon="-3.5339200">
        <ele>734.0</ele>
        <time>2020-09-29T16:38:46Z</time>
      </trkpt>
      <trkpt lat="40.8251470" lon="-3.5339470">
        <ele>734.0</ele>
        <time>2020-09-29T16:38:47Z</time>
      </trkpt>
      <trkpt lat="40.8251080" lon="-3.5339680">
        <ele>733.0</ele>
        <time>2020-09-29T16:38:48Z</time>
      </trkpt>
      <trkpt lat="40.8250750" lon="-3.5339950">
        <ele>733.0</ele>
        <time>2020-09-29T16:38:49Z</time>
      </trkpt>
      <trkpt lat="40.8250750" lon="-3.5339950">
        <ele>733.0</ele>
        <time>2020-09-29T16:38:50Z</time>
      </trkpt>
      <trkpt lat="40.8249900" lon="-3.5340520">
        <ele>733.0</ele>
        <time>2020-09-29T16:38:51Z</time>
      </trkpt>
      <trkpt lat="40.8249900" lon="-3.5340520">
        <ele>733.0</ele>
        <time>2020-09-29T16:38:52Z</time>
      </trkpt>
      <trkpt lat="40.8248970" lon="-3.5341080">
        <ele>733.0</ele>
        <time>2020-09-29T16:38:53Z</time>
      </trkpt>
      <trkpt lat="40.8248970" lon="-3.5341080">
        <ele>733.0</ele>
        <time>2020-09-29T16:38:54Z</time>
      </trkpt>
      <trkpt lat="40.8248030" lon="-3.5341570">
        <ele>733.0</ele>
        <time>2020-09-29T16:38:55Z</time>
      </trkpt>
      <trkpt lat="40.8248030" lon="-3.5341570">
        <ele>733.0</ele>
        <time>2020-09-29T16:38:56Z</time>
      </trkpt>
      <trkpt lat="40.8248030" lon="-3.5341570">
        <ele>733.0</ele>
        <time>2020-09-29T16:38:57Z</time>
      </trkpt>
      <trkpt lat="40.8247180" lon="-3.5341950">
        <ele>733.0</ele>
        <time>2020-09-29T16:38:58Z</time>
      </trkpt>
      <trkpt lat="40.8246380" lon="-3.5342430">
        <ele>732.0</ele>
        <time>2020-09-29T16:38:59Z</time>
      </trkpt>
      <trkpt lat="40.8246380" lon="-3.5342430">
        <ele>732.0</ele>
        <time>2020-09-29T16:39:00Z</time>
      </trkpt>
      <trkpt lat="40.8245570" lon="-3.5342980">
        <ele>732.0</ele>
        <time>2020-09-29T16:39:01Z</time>
      </trkpt>
      <trkpt lat="40.8245570" lon="-3.5342980">
        <ele>732.0</ele>
        <time>2020-09-29T16:39:02Z</time>
      </trkpt>
      <trkpt lat="40.8244720" lon="-3.5343770">
        <ele>732.0</ele>
        <time>2020-09-29T16:39:03Z</time>
      </trkpt>
      <trkpt lat="40.8244720" lon="-3.5343770">
        <ele>732.0</ele>
        <time>2020-09-29T16:39:04Z</time>
      </trkpt>
      <trkpt lat="40.8243920" lon="-3.5344670">
        <ele>732.0</ele>
        <time>2020-09-29T16:39:05Z</time>
      </trkpt>
      <trkpt lat="40.8243920" lon="-3.5344670">
        <ele>732.0</ele>
        <time>2020-09-29T16:39:06Z</time>
      </trkpt>
      <trkpt lat="40.8243220" lon="-3.5345580">
        <ele>732.0</ele>
        <time>2020-09-29T16:39:07Z</time>
      </trkpt>
      <trkpt lat="40.8243220" lon="-3.5345580">
        <ele>732.0</ele>
        <time>2020-09-29T16:39:08Z</time>
      </trkpt>
      <trkpt lat="40.8242470" lon="-3.5346680">
        <ele>732.0</ele>
        <time>2020-09-29T16:39:09Z</time>
      </trkpt>
      <trkpt lat="40.8242470" lon="-3.5346680">
        <ele>732.0</ele>
        <time>2020-09-29T16:39:10Z</time>
      </trkpt>
      <trkpt lat="40.8241580" lon="-3.5347680">
        <ele>731.0</ele>
        <time>2020-09-29T16:39:11Z</time>
      </trkpt>
      <trkpt lat="40.8241580" lon="-3.5347680">
        <ele>731.0</ele>
        <time>2020-09-29T16:39:12Z</time>
      </trkpt>
      <trkpt lat="40.8240820" lon="-3.5348650">
        <ele>731.0</ele>
        <time>2020-09-29T16:39:13Z</time>
      </trkpt>
      <trkpt lat="40.8240820" lon="-3.5348650">
        <ele>731.0</ele>
        <time>2020-09-29T16:39:14Z</time>
      </trkpt>
      <trkpt lat="40.8240030" lon="-3.5349670">
        <ele>730.0</ele>
        <time>2020-09-29T16:39:15Z</time>
      </trkpt>
      <trkpt lat="40.8239630" lon="-3.5350230">
        <ele>730.0</ele>
        <time>2020-09-29T16:39:16Z</time>
      </trkpt>
      <trkpt lat="40.8239630" lon="-3.5350230">
        <ele>730.0</ele>
        <time>2020-09-29T16:39:17Z</time>
      </trkpt>
      <trkpt lat="40.8238700" lon="-3.5351230">
        <ele>730.0</ele>
        <time>2020-09-29T16:39:18Z</time>
      </trkpt>
      <trkpt lat="40.8238250" lon="-3.5351650">
        <ele>730.0</ele>
        <time>2020-09-29T16:39:19Z</time>
      </trkpt>
      <trkpt lat="40.8238250" lon="-3.5351650">
        <ele>730.0</ele>
        <time>2020-09-29T16:39:20Z</time>
      </trkpt>
      <trkpt lat="40.8237400" lon="-3.5352400">
        <ele>730.0</ele>
        <time>2020-09-29T16:39:21Z</time>
      </trkpt>
      <trkpt lat="40.8236950" lon="-3.5352720">
        <ele>730.0</ele>
        <time>2020-09-29T16:39:22Z</time>
      </trkpt>
      <trkpt lat="40.8236950" lon="-3.5352720">
        <ele>730.0</ele>
        <time>2020-09-29T16:39:23Z</time>
      </trkpt>
      <trkpt lat="40.8235920" lon="-3.5353180">
        <ele>730.0</ele>
        <time>2020-09-29T16:39:24Z</time>
      </trkpt>
      <trkpt lat="40.8235920" lon="-3.5353180">
        <ele>730.0</ele>
        <time>2020-09-29T16:39:25Z</time>
      </trkpt>
      <trkpt lat="40.8234880" lon="-3.5353420">
        <ele>730.0</ele>
        <time>2020-09-29T16:39:26Z</time>
      </trkpt>
      <trkpt lat="40.8234880" lon="-3.5353420">
        <ele>730.0</ele>
        <time>2020-09-29T16:39:27Z</time>
      </trkpt>
      <trkpt lat="40.8233750" lon="-3.5353570">
        <ele>730.0</ele>
        <time>2020-09-29T16:39:28Z</time>
      </trkpt>
      <trkpt lat="40.8233750" lon="-3.5353570">
        <ele>730.0</ele>
        <time>2020-09-29T16:39:29Z</time>
      </trkpt>
      <trkpt lat="40.8232720" lon="-3.5353630">
        <ele>730.0</ele>
        <time>2020-09-29T16:39:30Z</time>
      </trkpt>
      <trkpt lat="40.8232230" lon="-3.5353650">
        <ele>730.0</ele>
        <time>2020-09-29T16:39:31Z</time>
      </trkpt>
      <trkpt lat="40.8232230" lon="-3.5353650">
        <ele>730.0</ele>
        <time>2020-09-29T16:39:32Z</time>
      </trkpt>
      <trkpt lat="40.8231150" lon="-3.5353870">
        <ele>730.0</ele>
        <time>2020-09-29T16:39:33Z</time>
      </trkpt>
      <trkpt lat="40.8230600" lon="-3.5354050">
        <ele>730.0</ele>
        <time>2020-09-29T16:39:34Z</time>
      </trkpt>
      <trkpt lat="40.8230600" lon="-3.5354050">
        <ele>730.0</ele>
        <time>2020-09-29T16:39:35Z</time>
      </trkpt>
      <trkpt lat="40.8229420" lon="-3.5354420">
        <ele>730.0</ele>
        <time>2020-09-29T16:39:36Z</time>
      </trkpt>
      <trkpt lat="40.8228870" lon="-3.5354620">
        <ele>730.0</ele>
        <time>2020-09-29T16:39:37Z</time>
      </trkpt>
      <trkpt lat="40.8228870" lon="-3.5354620">
        <ele>730.0</ele>
        <time>2020-09-29T16:39:38Z</time>
      </trkpt>
      <trkpt lat="40.8227720" lon="-3.5355150">
        <ele>729.0</ele>
        <time>2020-09-29T16:39:39Z</time>
      </trkpt>
      <trkpt lat="40.8227130" lon="-3.5355520">
        <ele>729.0</ele>
        <time>2020-09-29T16:39:40Z</time>
      </trkpt>
      <trkpt lat="40.8227130" lon="-3.5355520">
        <ele>729.0</ele>
        <time>2020-09-29T16:39:41Z</time>
      </trkpt>
      <trkpt lat="40.8226580" lon="-3.5355870">
        <ele>729.0</ele>
        <time>2020-09-29T16:39:42Z</time>
      </trkpt>
      <trkpt lat="40.8225420" lon="-3.5356430">
        <ele>729.0</ele>
        <time>2020-09-29T16:39:43Z</time>
      </trkpt>
      <trkpt lat="40.8225420" lon="-3.5356430">
        <ele>729.0</ele>
        <time>2020-09-29T16:39:44Z</time>
      </trkpt>
      <trkpt lat="40.8224220" lon="-3.5357020">
        <ele>729.0</ele>
        <time>2020-09-29T16:39:45Z</time>
      </trkpt>
      <trkpt lat="40.8223580" lon="-3.5357300">
        <ele>729.0</ele>
        <time>2020-09-29T16:39:46Z</time>
      </trkpt>
      <trkpt lat="40.8222970" lon="-3.5357570">
        <ele>729.0</ele>
        <time>2020-09-29T16:39:47Z</time>
      </trkpt>
      <trkpt lat="40.8222970" lon="-3.5357570">
        <ele>729.0</ele>
        <time>2020-09-29T16:39:48Z</time>
      </trkpt>
      <trkpt lat="40.8221700" lon="-3.5358080">
        <ele>729.0</ele>
        <time>2020-09-29T16:39:49Z</time>
      </trkpt>
      <trkpt lat="40.8221700" lon="-3.5358080">
        <ele>729.0</ele>
        <time>2020-09-29T16:39:50Z</time>
      </trkpt>
      <trkpt lat="40.8220450" lon="-3.5358680">
        <ele>729.0</ele>
        <time>2020-09-29T16:39:51Z</time>
      </trkpt>
      <trkpt lat="40.8219820" lon="-3.5358980">
        <ele>729.0</ele>
        <time>2020-09-29T16:39:52Z</time>
      </trkpt>
      <trkpt lat="40.8219820" lon="-3.5358980">
        <ele>729.0</ele>
        <time>2020-09-29T16:39:53Z</time>
      </trkpt>
      <trkpt lat="40.8218550" lon="-3.5359550">
        <ele>729.0</ele>
        <time>2020-09-29T16:39:54Z</time>
      </trkpt>
      <trkpt lat="40.8217930" lon="-3.5359780">
        <ele>728.0</ele>
        <time>2020-09-29T16:39:55Z</time>
      </trkpt>
      <trkpt lat="40.8217930" lon="-3.5359780">
        <ele>728.0</ele>
        <time>2020-09-29T16:39:56Z</time>
      </trkpt>
      <trkpt lat="40.8216670" lon="-3.5360400">
        <ele>728.0</ele>
        <time>2020-09-29T16:39:57Z</time>
      </trkpt>
      <trkpt lat="40.8216080" lon="-3.5360770">
        <ele>728.0</ele>
        <time>2020-09-29T16:39:58Z</time>
      </trkpt>
      <trkpt lat="40.8215480" lon="-3.5361020">
        <ele>728.0</ele>
        <time>2020-09-29T16:39:59Z</time>
      </trkpt>
      <trkpt lat="40.8215480" lon="-3.5361020">
        <ele>728.0</ele>
        <time>2020-09-29T16:40:00Z</time>
      </trkpt>
      <trkpt lat="40.8214870" lon="-3.5361270">
        <ele>728.0</ele>
        <time>2020-09-29T16:40:01Z</time>
      </trkpt>
      <trkpt lat="40.8213620" lon="-3.5362020">
        <ele>728.0</ele>
        <time>2020-09-29T16:40:02Z</time>
      </trkpt>
      <trkpt lat="40.8213620" lon="-3.5362020">
        <ele>728.0</ele>
        <time>2020-09-29T16:40:03Z</time>
      </trkpt>
      <trkpt lat="40.8212470" lon="-3.5362880">
        <ele>728.0</ele>
        <time>2020-09-29T16:40:04Z</time>
      </trkpt>
      <trkpt lat="40.8212470" lon="-3.5362880">
        <ele>728.0</ele>
        <time>2020-09-29T16:40:05Z</time>
      </trkpt>
      <trkpt lat="40.8211350" lon="-3.5363680">
        <ele>728.0</ele>
        <time>2020-09-29T16:40:06Z</time>
      </trkpt>
      <trkpt lat="40.8210800" lon="-3.5364120">
        <ele>728.0</ele>
        <time>2020-09-29T16:40:07Z</time>
      </trkpt>
      <trkpt lat="40.8210800" lon="-3.5364120">
        <ele>729.0</ele>
        <time>2020-09-29T16:40:08Z</time>
      </trkpt>
      <trkpt lat="40.8209720" lon="-3.5365050">
        <ele>729.0</ele>
        <time>2020-09-29T16:40:09Z</time>
      </trkpt>
      <trkpt lat="40.8209720" lon="-3.5365050">
        <ele>729.0</ele>
        <time>2020-09-29T16:40:10Z</time>
      </trkpt>
      <trkpt lat="40.8208600" lon="-3.5365950">
        <ele>729.0</ele>
        <time>2020-09-29T16:40:11Z</time>
      </trkpt>
      <trkpt lat="40.8208600" lon="-3.5365950">
        <ele>729.0</ele>
        <time>2020-09-29T16:40:12Z</time>
      </trkpt>
      <trkpt lat="40.8207450" lon="-3.5366850">
        <ele>729.0</ele>
        <time>2020-09-29T16:40:13Z</time>
      </trkpt>
      <trkpt lat="40.8207450" lon="-3.5366850">
        <ele>729.0</ele>
        <time>2020-09-29T16:40:14Z</time>
      </trkpt>
      <trkpt lat="40.8206300" lon="-3.5367700">
        <ele>729.0</ele>
        <time>2020-09-29T16:40:15Z</time>
      </trkpt>
      <trkpt lat="40.8206300" lon="-3.5367700">
        <ele>729.0</ele>
        <time>2020-09-29T16:40:16Z</time>
      </trkpt>
      <trkpt lat="40.8205170" lon="-3.5368480">
        <ele>729.0</ele>
        <time>2020-09-29T16:40:17Z</time>
      </trkpt>
      <trkpt lat="40.8205170" lon="-3.5368480">
        <ele>729.0</ele>
        <time>2020-09-29T16:40:18Z</time>
      </trkpt>
      <trkpt lat="40.8204030" lon="-3.5369080">
        <ele>729.0</ele>
        <time>2020-09-29T16:40:19Z</time>
      </trkpt>
      <trkpt lat="40.8204030" lon="-3.5369080">
        <ele>730.0</ele>
        <time>2020-09-29T16:40:20Z</time>
      </trkpt>
      <trkpt lat="40.8203020" lon="-3.5369470">
        <ele>730.0</ele>
        <time>2020-09-29T16:40:21Z</time>
      </trkpt>
      <trkpt lat="40.8203020" lon="-3.5369470">
        <ele>730.0</ele>
        <time>2020-09-29T16:40:22Z</time>
      </trkpt>
      <trkpt lat="40.8202100" lon="-3.5369870">
        <ele>730.0</ele>
        <time>2020-09-29T16:40:23Z</time>
      </trkpt>
      <trkpt lat="40.8202100" lon="-3.5369870">
        <ele>730.0</ele>
        <time>2020-09-29T16:40:24Z</time>
      </trkpt>
      <trkpt lat="40.8201680" lon="-3.5370120">
        <ele>730.0</ele>
        <time>2020-09-29T16:40:25Z</time>
      </trkpt>
      <trkpt lat="40.8200700" lon="-3.5370570">
        <ele>730.0</ele>
        <time>2020-09-29T16:40:26Z</time>
      </trkpt>
      <trkpt lat="40.8200180" lon="-3.5370800">
        <ele>730.0</ele>
        <time>2020-09-29T16:40:27Z</time>
      </trkpt>
      <trkpt lat="40.8200180" lon="-3.5370800">
        <ele>730.0</ele>
        <time>2020-09-29T16:40:28Z</time>
      </trkpt>
      <trkpt lat="40.8199050" lon="-3.5371250">
        <ele>730.0</ele>
        <time>2020-09-29T16:40:29Z</time>
      </trkpt>
      <trkpt lat="40.8199050" lon="-3.5371250">
        <ele>730.0</ele>
        <time>2020-09-29T16:40:30Z</time>
      </trkpt>
      <trkpt lat="40.8197880" lon="-3.5371630">
        <ele>730.0</ele>
        <time>2020-09-29T16:40:31Z</time>
      </trkpt>
      <trkpt lat="40.8197880" lon="-3.5371630">
        <ele>730.0</ele>
        <time>2020-09-29T16:40:32Z</time>
      </trkpt>
      <trkpt lat="40.8196650" lon="-3.5371950">
        <ele>730.0</ele>
        <time>2020-09-29T16:40:33Z</time>
      </trkpt>
      <trkpt lat="40.8196650" lon="-3.5371950">
        <ele>730.0</ele>
        <time>2020-09-29T16:40:34Z</time>
      </trkpt>
      <trkpt lat="40.8195370" lon="-3.5372180">
        <ele>730.0</ele>
        <time>2020-09-29T16:40:35Z</time>
      </trkpt>
      <trkpt lat="40.8194700" lon="-3.5372320">
        <ele>730.0</ele>
        <time>2020-09-29T16:40:36Z</time>
      </trkpt>
      <trkpt lat="40.8194030" lon="-3.5372430">
        <ele>730.0</ele>
        <time>2020-09-29T16:40:37Z</time>
      </trkpt>
      <trkpt lat="40.8194030" lon="-3.5372430">
        <ele>730.0</ele>
        <time>2020-09-29T16:40:38Z</time>
      </trkpt>
      <trkpt lat="40.8192750" lon="-3.5372750">
        <ele>730.0</ele>
        <time>2020-09-29T16:40:39Z</time>
      </trkpt>
      <trkpt lat="40.8192100" lon="-3.5372900">
        <ele>730.0</ele>
        <time>2020-09-29T16:40:40Z</time>
      </trkpt>
      <trkpt lat="40.8192100" lon="-3.5372900">
        <ele>730.0</ele>
        <time>2020-09-29T16:40:41Z</time>
      </trkpt>
      <trkpt lat="40.8190880" lon="-3.5373120">
        <ele>730.0</ele>
        <time>2020-09-29T16:40:42Z</time>
      </trkpt>
      <trkpt lat="40.8190270" lon="-3.5373280">
        <ele>730.0</ele>
        <time>2020-09-29T16:40:43Z</time>
      </trkpt>
      <trkpt lat="40.8190270" lon="-3.5373280">
        <ele>730.0</ele>
        <time>2020-09-29T16:40:44Z</time>
      </trkpt>
      <trkpt lat="40.8189030" lon="-3.5373680">
        <ele>730.0</ele>
        <time>2020-09-29T16:40:45Z</time>
      </trkpt>
      <trkpt lat="40.8188430" lon="-3.5373830">
        <ele>730.0</ele>
        <time>2020-09-29T16:40:46Z</time>
      </trkpt>
      <trkpt lat="40.8188430" lon="-3.5373830">
        <ele>730.0</ele>
        <time>2020-09-29T16:40:47Z</time>
      </trkpt>
      <trkpt lat="40.8187170" lon="-3.5374150">
        <ele>730.0</ele>
        <time>2020-09-29T16:40:48Z</time>
      </trkpt>
      <trkpt lat="40.8186550" lon="-3.5374330">
        <ele>730.0</ele>
        <time>2020-09-29T16:40:49Z</time>
      </trkpt>
      <trkpt lat="40.8185930" lon="-3.5374500">
        <ele>730.0</ele>
        <time>2020-09-29T16:40:50Z</time>
      </trkpt>
      <trkpt lat="40.8185930" lon="-3.5374500">
        <ele>730.0</ele>
        <time>2020-09-29T16:40:51Z</time>
      </trkpt>
      <trkpt lat="40.8184680" lon="-3.5374800">
        <ele>730.0</ele>
        <time>2020-09-29T16:40:52Z</time>
      </trkpt>
      <trkpt lat="40.8184680" lon="-3.5374800">
        <ele>730.0</ele>
        <time>2020-09-29T16:40:53Z</time>
      </trkpt>
      <trkpt lat="40.8183470" lon="-3.5375080">
        <ele>730.0</ele>
        <time>2020-09-29T16:40:54Z</time>
      </trkpt>
      <trkpt lat="40.8183470" lon="-3.5375080">
        <ele>730.0</ele>
        <time>2020-09-29T16:40:55Z</time>
      </trkpt>
      <trkpt lat="40.8182200" lon="-3.5375420">
        <ele>730.0</ele>
        <time>2020-09-29T16:40:56Z</time>
      </trkpt>
      <trkpt lat="40.8182200" lon="-3.5375420">
        <ele>730.0</ele>
        <time>2020-09-29T16:40:57Z</time>
      </trkpt>
      <trkpt lat="40.8180870" lon="-3.5375700">
        <ele>729.0</ele>
        <time>2020-09-29T16:40:58Z</time>
      </trkpt>
      <trkpt lat="40.8180870" lon="-3.5375700">
        <ele>729.0</ele>
        <time>2020-09-29T16:40:59Z</time>
      </trkpt>
      <trkpt lat="40.8179550" lon="-3.5376070">
        <ele>729.0</ele>
        <time>2020-09-29T16:41:00Z</time>
      </trkpt>
      <trkpt lat="40.8178900" lon="-3.5376270">
        <ele>729.0</ele>
        <time>2020-09-29T16:41:01Z</time>
      </trkpt>
      <trkpt lat="40.8178900" lon="-3.5376270">
        <ele>729.0</ele>
        <time>2020-09-29T16:41:02Z</time>
      </trkpt>
      <trkpt lat="40.8177530" lon="-3.5376620">
        <ele>729.0</ele>
        <time>2020-09-29T16:41:03Z</time>
      </trkpt>
      <trkpt lat="40.8177530" lon="-3.5376620">
        <ele>729.0</ele>
        <time>2020-09-29T16:41:04Z</time>
      </trkpt>
      <trkpt lat="40.8176150" lon="-3.5376950">
        <ele>729.0</ele>
        <time>2020-09-29T16:41:05Z</time>
      </trkpt>
      <trkpt lat="40.8176150" lon="-3.5376950">
        <ele>728.0</ele>
        <time>2020-09-29T16:41:06Z</time>
      </trkpt>
      <trkpt lat="40.8176150" lon="-3.5376950">
        <ele>728.0</ele>
        <time>2020-09-29T16:41:07Z</time>
      </trkpt>
      <trkpt lat="40.8174770" lon="-3.5377270">
        <ele>728.0</ele>
        <time>2020-09-29T16:41:08Z</time>
      </trkpt>
      <trkpt lat="40.8173380" lon="-3.5377580">
        <ele>728.0</ele>
        <time>2020-09-29T16:41:09Z</time>
      </trkpt>
      <trkpt lat="40.8172700" lon="-3.5377750">
        <ele>728.0</ele>
        <time>2020-09-29T16:41:10Z</time>
      </trkpt>
      <trkpt lat="40.8172700" lon="-3.5377750">
        <ele>728.0</ele>
        <time>2020-09-29T16:41:11Z</time>
      </trkpt>
      <trkpt lat="40.8171300" lon="-3.5378180">
        <ele>728.0</ele>
        <time>2020-09-29T16:41:12Z</time>
      </trkpt>
      <trkpt lat="40.8171300" lon="-3.5378180">
        <ele>727.0</ele>
        <time>2020-09-29T16:41:13Z</time>
      </trkpt>
      <trkpt lat="40.8169930" lon="-3.5378600">
        <ele>727.0</ele>
        <time>2020-09-29T16:41:14Z</time>
      </trkpt>
      <trkpt lat="40.8169230" lon="-3.5378820">
        <ele>727.0</ele>
        <time>2020-09-29T16:41:15Z</time>
      </trkpt>
      <trkpt lat="40.8169230" lon="-3.5378820">
        <ele>727.0</ele>
        <time>2020-09-29T16:41:16Z</time>
      </trkpt>
      <trkpt lat="40.8167870" lon="-3.5379220">
        <ele>727.0</ele>
        <time>2020-09-29T16:41:17Z</time>
      </trkpt>
      <trkpt lat="40.8167870" lon="-3.5379220">
        <ele>727.0</ele>
        <time>2020-09-29T16:41:18Z</time>
      </trkpt>
      <trkpt lat="40.8166680" lon="-3.5379970">
        <ele>727.0</ele>
        <time>2020-09-29T16:41:19Z</time>
      </trkpt>
      <trkpt lat="40.8166680" lon="-3.5379970">
        <ele>727.0</ele>
        <time>2020-09-29T16:41:20Z</time>
      </trkpt>
      <trkpt lat="40.8165870" lon="-3.5381220">
        <ele>727.0</ele>
        <time>2020-09-29T16:41:21Z</time>
      </trkpt>
      <trkpt lat="40.8165870" lon="-3.5381220">
        <ele>726.0</ele>
        <time>2020-09-29T16:41:22Z</time>
      </trkpt>
      <trkpt lat="40.8164980" lon="-3.5382270">
        <ele>726.0</ele>
        <time>2020-09-29T16:41:23Z</time>
      </trkpt>
      <trkpt lat="40.8164980" lon="-3.5382270">
        <ele>726.0</ele>
        <time>2020-09-29T16:41:24Z</time>
      </trkpt>
      <trkpt lat="40.8164430" lon="-3.5382580">
        <ele>726.0</ele>
        <time>2020-09-29T16:41:25Z</time>
      </trkpt>
      <trkpt lat="40.8163170" lon="-3.5382700">
        <ele>726.0</ele>
        <time>2020-09-29T16:41:26Z</time>
      </trkpt>
      <trkpt lat="40.8163170" lon="-3.5382700">
        <ele>726.0</ele>
        <time>2020-09-29T16:41:27Z</time>
      </trkpt>
      <trkpt lat="40.8161820" lon="-3.5382630">
        <ele>725.0</ele>
        <time>2020-09-29T16:41:28Z</time>
      </trkpt>
      <trkpt lat="40.8161100" lon="-3.5382600">
        <ele>725.0</ele>
        <time>2020-09-29T16:41:29Z</time>
      </trkpt>
      <trkpt lat="40.8161100" lon="-3.5382600">
        <ele>725.0</ele>
        <time>2020-09-29T16:41:30Z</time>
      </trkpt>
      <trkpt lat="40.8159670" lon="-3.5382550">
        <ele>725.0</ele>
        <time>2020-09-29T16:41:31Z</time>
      </trkpt>
      <trkpt lat="40.8159670" lon="-3.5382550">
        <ele>725.0</ele>
        <time>2020-09-29T16:41:32Z</time>
      </trkpt>
      <trkpt lat="40.8158170" lon="-3.5382550">
        <ele>725.0</ele>
        <time>2020-09-29T16:41:33Z</time>
      </trkpt>
      <trkpt lat="40.8157420" lon="-3.5382600">
        <ele>725.0</ele>
        <time>2020-09-29T16:41:34Z</time>
      </trkpt>
      <trkpt lat="40.8157420" lon="-3.5382600">
        <ele>725.0</ele>
        <time>2020-09-29T16:41:35Z</time>
      </trkpt>
      <trkpt lat="40.8155920" lon="-3.5382650">
        <ele>725.0</ele>
        <time>2020-09-29T16:41:36Z</time>
      </trkpt>
      <trkpt lat="40.8155920" lon="-3.5382650">
        <ele>725.0</ele>
        <time>2020-09-29T16:41:37Z</time>
      </trkpt>
      <trkpt lat="40.8154370" lon="-3.5382850">
        <ele>724.0</ele>
        <time>2020-09-29T16:41:38Z</time>
      </trkpt>
      <trkpt lat="40.8154370" lon="-3.5382850">
        <ele>724.0</ele>
        <time>2020-09-29T16:41:39Z</time>
      </trkpt>
      <trkpt lat="40.8152830" lon="-3.5383130">
        <ele>724.0</ele>
        <time>2020-09-29T16:41:40Z</time>
      </trkpt>
      <trkpt lat="40.8152030" lon="-3.5383320">
        <ele>724.0</ele>
        <time>2020-09-29T16:41:41Z</time>
      </trkpt>
      <trkpt lat="40.8152030" lon="-3.5383320">
        <ele>723.0</ele>
        <time>2020-09-29T16:41:42Z</time>
      </trkpt>
      <trkpt lat="40.8150370" lon="-3.5383680">
        <ele>723.0</ele>
        <time>2020-09-29T16:41:43Z</time>
      </trkpt>
      <trkpt lat="40.8150370" lon="-3.5383680">
        <ele>722.0</ele>
        <time>2020-09-29T16:41:44Z</time>
      </trkpt>
      <trkpt lat="40.8148650" lon="-3.5384130">
        <ele>722.0</ele>
        <time>2020-09-29T16:41:45Z</time>
      </trkpt>
      <trkpt lat="40.8148650" lon="-3.5384130">
        <ele>721.0</ele>
        <time>2020-09-29T16:41:46Z</time>
      </trkpt>
      <trkpt lat="40.8146900" lon="-3.5384600">
        <ele>721.0</ele>
        <time>2020-09-29T16:41:47Z</time>
      </trkpt>
      <trkpt lat="40.8145980" lon="-3.5384850">
        <ele>721.0</ele>
        <time>2020-09-29T16:41:48Z</time>
      </trkpt>
      <trkpt lat="40.8145050" lon="-3.5385080">
        <ele>721.0</ele>
        <time>2020-09-29T16:41:49Z</time>
      </trkpt>
      <trkpt lat="40.8145050" lon="-3.5385080">
        <ele>720.0</ele>
        <time>2020-09-29T16:41:50Z</time>
      </trkpt>
      <trkpt lat="40.8143150" lon="-3.5385500">
        <ele>720.0</ele>
        <time>2020-09-29T16:41:51Z</time>
      </trkpt>
      <trkpt lat="40.8143150" lon="-3.5385500">
        <ele>719.0</ele>
        <time>2020-09-29T16:41:52Z</time>
      </trkpt>
      <trkpt lat="40.8141180" lon="-3.5385970">
        <ele>719.0</ele>
        <time>2020-09-29T16:41:53Z</time>
      </trkpt>
      <trkpt lat="40.8141180" lon="-3.5385970">
        <ele>717.0</ele>
        <time>2020-09-29T16:41:54Z</time>
      </trkpt>
      <trkpt lat="40.8139200" lon="-3.5386480">
        <ele>717.0</ele>
        <time>2020-09-29T16:41:55Z</time>
      </trkpt>
      <trkpt lat="40.8139200" lon="-3.5386480">
        <ele>716.0</ele>
        <time>2020-09-29T16:41:56Z</time>
      </trkpt>
      <trkpt lat="40.8137220" lon="-3.5386920">
        <ele>716.0</ele>
        <time>2020-09-29T16:41:57Z</time>
      </trkpt>
      <trkpt lat="40.8136250" lon="-3.5387150">
        <ele>716.0</ele>
        <time>2020-09-29T16:41:58Z</time>
      </trkpt>
      <trkpt lat="40.8136250" lon="-3.5387150">
        <ele>716.0</ele>
        <time>2020-09-29T16:41:59Z</time>
      </trkpt>
      <trkpt lat="40.8134330" lon="-3.5387630">
        <ele>715.0</ele>
        <time>2020-09-29T16:42:00Z</time>
      </trkpt>
      <trkpt lat="40.8133370" lon="-3.5387870">
        <ele>715.0</ele>
        <time>2020-09-29T16:42:01Z</time>
      </trkpt>
      <trkpt lat="40.8133370" lon="-3.5387870">
        <ele>715.0</ele>
        <time>2020-09-29T16:42:02Z</time>
      </trkpt>
      <trkpt lat="40.8133370" lon="-3.5387870">
        <ele>715.0</ele>
        <time>2020-09-29T16:42:03Z</time>
      </trkpt>
      <trkpt lat="40.8131470" lon="-3.5388330">
        <ele>714.0</ele>
        <time>2020-09-29T16:42:04Z</time>
      </trkpt>
      <trkpt lat="40.8129550" lon="-3.5388820">
        <ele>714.0</ele>
        <time>2020-09-29T16:42:05Z</time>
      </trkpt>
      <trkpt lat="40.8129550" lon="-3.5388820">
        <ele>714.0</ele>
        <time>2020-09-29T16:42:06Z</time>
      </trkpt>
      <trkpt lat="40.8127630" lon="-3.5389330">
        <ele>714.0</ele>
        <time>2020-09-29T16:42:07Z</time>
      </trkpt>
      <trkpt lat="40.8127630" lon="-3.5389330">
        <ele>713.0</ele>
        <time>2020-09-29T16:42:08Z</time>
      </trkpt>
      <trkpt lat="40.8125750" lon="-3.5389830">
        <ele>713.0</ele>
        <time>2020-09-29T16:42:09Z</time>
      </trkpt>
      <trkpt lat="40.8124800" lon="-3.5390070">
        <ele>713.0</ele>
        <time>2020-09-29T16:42:10Z</time>
      </trkpt>
      <trkpt lat="40.8124800" lon="-3.5390070">
        <ele>713.0</ele>
        <time>2020-09-29T16:42:11Z</time>
      </trkpt>
      <trkpt lat="40.8122900" lon="-3.5390530">
        <ele>712.0</ele>
        <time>2020-09-29T16:42:12Z</time>
      </trkpt>
      <trkpt lat="40.8121970" lon="-3.5390800">
        <ele>712.0</ele>
        <time>2020-09-29T16:42:13Z</time>
      </trkpt>
      <trkpt lat="40.8121970" lon="-3.5390800">
        <ele>712.0</ele>
        <time>2020-09-29T16:42:14Z</time>
      </trkpt>
      <trkpt lat="40.8120120" lon="-3.5391330">
        <ele>712.0</ele>
        <time>2020-09-29T16:42:15Z</time>
      </trkpt>
      <trkpt lat="40.8120120" lon="-3.5391330">
        <ele>712.0</ele>
        <time>2020-09-29T16:42:16Z</time>
      </trkpt>
      <trkpt lat="40.8118320" lon="-3.5391830">
        <ele>712.0</ele>
        <time>2020-09-29T16:42:17Z</time>
      </trkpt>
      <trkpt lat="40.8117420" lon="-3.5392030">
        <ele>712.0</ele>
        <time>2020-09-29T16:42:18Z</time>
      </trkpt>
      <trkpt lat="40.8116520" lon="-3.5392220">
        <ele>712.0</ele>
        <time>2020-09-29T16:42:19Z</time>
      </trkpt>
      <trkpt lat="40.8116520" lon="-3.5392220">
        <ele>712.0</ele>
        <time>2020-09-29T16:42:20Z</time>
      </trkpt>
      <trkpt lat="40.8114770" lon="-3.5392600">
        <ele>712.0</ele>
        <time>2020-09-29T16:42:21Z</time>
      </trkpt>
      <trkpt lat="40.8114770" lon="-3.5392600">
        <ele>712.0</ele>
        <time>2020-09-29T16:42:22Z</time>
      </trkpt>
      <trkpt lat="40.8112970" lon="-3.5393030">
        <ele>712.0</ele>
        <time>2020-09-29T16:42:23Z</time>
      </trkpt>
      <trkpt lat="40.8112970" lon="-3.5393030">
        <ele>712.0</ele>
        <time>2020-09-29T16:42:24Z</time>
      </trkpt>
      <trkpt lat="40.8112070" lon="-3.5393280">
        <ele>712.0</ele>
        <time>2020-09-29T16:42:25Z</time>
      </trkpt>
      <trkpt lat="40.8110330" lon="-3.5393780">
        <ele>711.0</ele>
        <time>2020-09-29T16:42:26Z</time>
      </trkpt>
      <trkpt lat="40.8110330" lon="-3.5393780">
        <ele>711.0</ele>
        <time>2020-09-29T16:42:27Z</time>
      </trkpt>
      <trkpt lat="40.8108620" lon="-3.5394200">
        <ele>711.0</ele>
        <time>2020-09-29T16:42:28Z</time>
      </trkpt>
      <trkpt lat="40.8108620" lon="-3.5394200">
        <ele>711.0</ele>
        <time>2020-09-29T16:42:29Z</time>
      </trkpt>
      <trkpt lat="40.8106950" lon="-3.5394600">
        <ele>711.0</ele>
        <time>2020-09-29T16:42:30Z</time>
      </trkpt>
      <trkpt lat="40.8106130" lon="-3.5394830">
        <ele>711.0</ele>
        <time>2020-09-29T16:42:31Z</time>
      </trkpt>
      <trkpt lat="40.8106130" lon="-3.5394830">
        <ele>711.0</ele>
        <time>2020-09-29T16:42:32Z</time>
      </trkpt>
      <trkpt lat="40.8104470" lon="-3.5395250">
        <ele>711.0</ele>
        <time>2020-09-29T16:42:33Z</time>
      </trkpt>
      <trkpt lat="40.8104470" lon="-3.5395250">
        <ele>711.0</ele>
        <time>2020-09-29T16:42:34Z</time>
      </trkpt>
      <trkpt lat="40.8102850" lon="-3.5395770">
        <ele>711.0</ele>
        <time>2020-09-29T16:42:35Z</time>
      </trkpt>
      <trkpt lat="40.8102850" lon="-3.5395770">
        <ele>711.0</ele>
        <time>2020-09-29T16:42:36Z</time>
      </trkpt>
      <trkpt lat="40.8101250" lon="-3.5396270">
        <ele>711.0</ele>
        <time>2020-09-29T16:42:37Z</time>
      </trkpt>
      <trkpt lat="40.8101250" lon="-3.5396270">
        <ele>711.0</ele>
        <time>2020-09-29T16:42:38Z</time>
      </trkpt>
      <trkpt lat="40.8099680" lon="-3.5396700">
        <ele>711.0</ele>
        <time>2020-09-29T16:42:39Z</time>
      </trkpt>
      <trkpt lat="40.8099680" lon="-3.5396700">
        <ele>711.0</ele>
        <time>2020-09-29T16:42:40Z</time>
      </trkpt>
      <trkpt lat="40.8098170" lon="-3.5397000">
        <ele>711.0</ele>
        <time>2020-09-29T16:42:41Z</time>
      </trkpt>
      <trkpt lat="40.8097430" lon="-3.5397120">
        <ele>711.0</ele>
        <time>2020-09-29T16:42:42Z</time>
      </trkpt>
      <trkpt lat="40.8097430" lon="-3.5397120">
        <ele>711.0</ele>
        <time>2020-09-29T16:42:43Z</time>
      </trkpt>
      <trkpt lat="40.8095970" lon="-3.5397320">
        <ele>711.0</ele>
        <time>2020-09-29T16:42:44Z</time>
      </trkpt>
      <trkpt lat="40.8095970" lon="-3.5397320">
        <ele>711.0</ele>
        <time>2020-09-29T16:42:45Z</time>
      </trkpt>
      <trkpt lat="40.8094520" lon="-3.5397420">
        <ele>711.0</ele>
        <time>2020-09-29T16:42:46Z</time>
      </trkpt>
      <trkpt lat="40.8094520" lon="-3.5397420">
        <ele>712.0</ele>
        <time>2020-09-29T16:42:47Z</time>
      </trkpt>
      <trkpt lat="40.8093080" lon="-3.5397420">
        <ele>712.0</ele>
        <time>2020-09-29T16:42:48Z</time>
      </trkpt>
      <trkpt lat="40.8093080" lon="-3.5397420">
        <ele>712.0</ele>
        <time>2020-09-29T16:42:49Z</time>
      </trkpt>
      <trkpt lat="40.8091670" lon="-3.5397270">
        <ele>712.0</ele>
        <time>2020-09-29T16:42:50Z</time>
      </trkpt>
      <trkpt lat="40.8090950" lon="-3.5397150">
        <ele>712.0</ele>
        <time>2020-09-29T16:42:51Z</time>
      </trkpt>
      <trkpt lat="40.8090950" lon="-3.5397150">
        <ele>712.0</ele>
        <time>2020-09-29T16:42:52Z</time>
      </trkpt>
      <trkpt lat="40.8089550" lon="-3.5396880">
        <ele>712.0</ele>
        <time>2020-09-29T16:42:53Z</time>
      </trkpt>
      <trkpt lat="40.8089550" lon="-3.5396880">
        <ele>712.0</ele>
        <time>2020-09-29T16:42:54Z</time>
      </trkpt>
      <trkpt lat="40.8088130" lon="-3.5396530">
        <ele>712.0</ele>
        <time>2020-09-29T16:42:55Z</time>
      </trkpt>
      <trkpt lat="40.8088130" lon="-3.5396530">
        <ele>712.0</ele>
        <time>2020-09-29T16:42:56Z</time>
      </trkpt>
      <trkpt lat="40.8086700" lon="-3.5396100">
        <ele>712.0</ele>
        <time>2020-09-29T16:42:57Z</time>
      </trkpt>
      <trkpt lat="40.8086000" lon="-3.5395880">
        <ele>712.0</ele>
        <time>2020-09-29T16:42:58Z</time>
      </trkpt>
      <trkpt lat="40.8086000" lon="-3.5395880">
        <ele>712.0</ele>
        <time>2020-09-29T16:42:59Z</time>
      </trkpt>
      <trkpt lat="40.8084630" lon="-3.5395370">
        <ele>712.0</ele>
        <time>2020-09-29T16:43:00Z</time>
      </trkpt>
      <trkpt lat="40.8083930" lon="-3.5395150">
        <ele>712.0</ele>
        <time>2020-09-29T16:43:01Z</time>
      </trkpt>
      <trkpt lat="40.8083930" lon="-3.5395150">
        <ele>712.0</ele>
        <time>2020-09-29T16:43:02Z</time>
      </trkpt>
      <trkpt lat="40.8082570" lon="-3.5394700">
        <ele>712.0</ele>
        <time>2020-09-29T16:43:03Z</time>
      </trkpt>
      <trkpt lat="40.8082570" lon="-3.5394700">
        <ele>712.0</ele>
        <time>2020-09-29T16:43:04Z</time>
      </trkpt>
      <trkpt lat="40.8081170" lon="-3.5394220">
        <ele>712.0</ele>
        <time>2020-09-29T16:43:05Z</time>
      </trkpt>
      <trkpt lat="40.8081170" lon="-3.5394220">
        <ele>712.0</ele>
        <time>2020-09-29T16:43:06Z</time>
      </trkpt>
      <trkpt lat="40.8079730" lon="-3.5393800">
        <ele>712.0</ele>
        <time>2020-09-29T16:43:07Z</time>
      </trkpt>
      <trkpt lat="40.8079730" lon="-3.5393800">
        <ele>712.0</ele>
        <time>2020-09-29T16:43:08Z</time>
      </trkpt>
      <trkpt lat="40.8078330" lon="-3.5393350">
        <ele>712.0</ele>
        <time>2020-09-29T16:43:09Z</time>
      </trkpt>
      <trkpt lat="40.8078330" lon="-3.5393350">
        <ele>712.0</ele>
        <time>2020-09-29T16:43:10Z</time>
      </trkpt>
      <trkpt lat="40.8076920" lon="-3.5392880">
        <ele>712.0</ele>
        <time>2020-09-29T16:43:11Z</time>
      </trkpt>
      <trkpt lat="40.8076920" lon="-3.5392880">
        <ele>712.0</ele>
        <time>2020-09-29T16:43:12Z</time>
      </trkpt>
      <trkpt lat="40.8076920" lon="-3.5392880">
        <ele>712.0</ele>
        <time>2020-09-29T16:43:13Z</time>
      </trkpt>
      <trkpt lat="40.8075450" lon="-3.5392470">
        <ele>711.0</ele>
        <time>2020-09-29T16:43:14Z</time>
      </trkpt>
      <trkpt lat="40.8074000" lon="-3.5392000">
        <ele>711.0</ele>
        <time>2020-09-29T16:43:15Z</time>
      </trkpt>
      <trkpt lat="40.8073250" lon="-3.5391770">
        <ele>711.0</ele>
        <time>2020-09-29T16:43:16Z</time>
      </trkpt>
      <trkpt lat="40.8073250" lon="-3.5391770">
        <ele>711.0</ele>
        <time>2020-09-29T16:43:17Z</time>
      </trkpt>
      <trkpt lat="40.8071820" lon="-3.5391230">
        <ele>711.0</ele>
        <time>2020-09-29T16:43:18Z</time>
      </trkpt>
      <trkpt lat="40.8071100" lon="-3.5390970">
        <ele>711.0</ele>
        <time>2020-09-29T16:43:19Z</time>
      </trkpt>
      <trkpt lat="40.8071100" lon="-3.5390970">
        <ele>711.0</ele>
        <time>2020-09-29T16:43:20Z</time>
      </trkpt>
      <trkpt lat="40.8069670" lon="-3.5390470">
        <ele>711.0</ele>
        <time>2020-09-29T16:43:21Z</time>
      </trkpt>
      <trkpt lat="40.8069670" lon="-3.5390470">
        <ele>711.0</ele>
        <time>2020-09-29T16:43:22Z</time>
      </trkpt>
      <trkpt lat="40.8068220" lon="-3.5389980">
        <ele>711.0</ele>
        <time>2020-09-29T16:43:23Z</time>
      </trkpt>
      <trkpt lat="40.8068220" lon="-3.5389980">
        <ele>711.0</ele>
        <time>2020-09-29T16:43:24Z</time>
      </trkpt>
      <trkpt lat="40.8066770" lon="-3.5389550">
        <ele>711.0</ele>
        <time>2020-09-29T16:43:25Z</time>
      </trkpt>
      <trkpt lat="40.8066770" lon="-3.5389550">
        <ele>711.0</ele>
        <time>2020-09-29T16:43:26Z</time>
      </trkpt>
      <trkpt lat="40.8065370" lon="-3.5389120">
        <ele>711.0</ele>
        <time>2020-09-29T16:43:27Z</time>
      </trkpt>
      <trkpt lat="40.8064670" lon="-3.5388900">
        <ele>710.0</ele>
        <time>2020-09-29T16:43:28Z</time>
      </trkpt>
      <trkpt lat="40.8064670" lon="-3.5388900">
        <ele>710.0</ele>
        <time>2020-09-29T16:43:29Z</time>
      </trkpt>
      <trkpt lat="40.8063270" lon="-3.5388480">
        <ele>710.0</ele>
        <time>2020-09-29T16:43:30Z</time>
      </trkpt>
      <trkpt lat="40.8062570" lon="-3.5388250">
        <ele>710.0</ele>
        <time>2020-09-29T16:43:31Z</time>
      </trkpt>
      <trkpt lat="40.8061880" lon="-3.5388030">
        <ele>710.0</ele>
        <time>2020-09-29T16:43:32Z</time>
      </trkpt>
      <trkpt lat="40.8061880" lon="-3.5388030">
        <ele>710.0</ele>
        <time>2020-09-29T16:43:33Z</time>
      </trkpt>
      <trkpt lat="40.8060480" lon="-3.5387570">
        <ele>710.0</ele>
        <time>2020-09-29T16:43:34Z</time>
      </trkpt>
      <trkpt lat="40.8060480" lon="-3.5387570">
        <ele>710.0</ele>
        <time>2020-09-29T16:43:35Z</time>
      </trkpt>
      <trkpt lat="40.8059030" lon="-3.5387080">
        <ele>710.0</ele>
        <time>2020-09-29T16:43:36Z</time>
      </trkpt>
      <trkpt lat="40.8059030" lon="-3.5387080">
        <ele>710.0</ele>
        <time>2020-09-29T16:43:37Z</time>
      </trkpt>
      <trkpt lat="40.8057630" lon="-3.5386620">
        <ele>710.0</ele>
        <time>2020-09-29T16:43:38Z</time>
      </trkpt>
      <trkpt lat="40.8056930" lon="-3.5386380">
        <ele>710.0</ele>
        <time>2020-09-29T16:43:39Z</time>
      </trkpt>
      <trkpt lat="40.8056930" lon="-3.5386380">
        <ele>710.0</ele>
        <time>2020-09-29T16:43:40Z</time>
      </trkpt>
      <trkpt lat="40.8056930" lon="-3.5386380">
        <ele>710.0</ele>
        <time>2020-09-29T16:43:41Z</time>
      </trkpt>
      <trkpt lat="40.8054900" lon="-3.5385700">
        <ele>710.0</ele>
        <time>2020-09-29T16:43:42Z</time>
      </trkpt>
      <trkpt lat="40.8054230" lon="-3.5385480">
        <ele>710.0</ele>
        <time>2020-09-29T16:43:43Z</time>
      </trkpt>
      <trkpt lat="40.8053550" lon="-3.5385250">
        <ele>710.0</ele>
        <time>2020-09-29T16:43:44Z</time>
      </trkpt>
      <trkpt lat="40.8053550" lon="-3.5385250">
        <ele>710.0</ele>
        <time>2020-09-29T16:43:45Z</time>
      </trkpt>
      <trkpt lat="40.8052200" lon="-3.5384830">
        <ele>710.0</ele>
        <time>2020-09-29T16:43:46Z</time>
      </trkpt>
      <trkpt lat="40.8052200" lon="-3.5384830">
        <ele>710.0</ele>
        <time>2020-09-29T16:43:47Z</time>
      </trkpt>
      <trkpt lat="40.8050870" lon="-3.5384400">
        <ele>710.0</ele>
        <time>2020-09-29T16:43:48Z</time>
      </trkpt>
      <trkpt lat="40.8050170" lon="-3.5384170">
        <ele>710.0</ele>
        <time>2020-09-29T16:43:49Z</time>
      </trkpt>
      <trkpt lat="40.8050170" lon="-3.5384170">
        <ele>710.0</ele>
        <time>2020-09-29T16:43:50Z</time>
      </trkpt>
      <trkpt lat="40.8050170" lon="-3.5384170">
        <ele>709.0</ele>
        <time>2020-09-29T16:43:51Z</time>
      </trkpt>
      <trkpt lat="40.8048780" lon="-3.5383700">
        <ele>709.0</ele>
        <time>2020-09-29T16:43:52Z</time>
      </trkpt>
      <trkpt lat="40.8047380" lon="-3.5383220">
        <ele>709.0</ele>
        <time>2020-09-29T16:43:53Z</time>
      </trkpt>
      <trkpt lat="40.8047380" lon="-3.5383220">
        <ele>709.0</ele>
        <time>2020-09-29T16:43:54Z</time>
      </trkpt>
      <trkpt lat="40.8046030" lon="-3.5382770">
        <ele>709.0</ele>
        <time>2020-09-29T16:43:55Z</time>
      </trkpt>
      <trkpt lat="40.8046030" lon="-3.5382770">
        <ele>709.0</ele>
        <time>2020-09-29T16:43:56Z</time>
      </trkpt>
      <trkpt lat="40.8044650" lon="-3.5382330">
        <ele>709.0</ele>
        <time>2020-09-29T16:43:57Z</time>
      </trkpt>
      <trkpt lat="40.8044650" lon="-3.5382330">
        <ele>709.0</ele>
        <time>2020-09-29T16:43:58Z</time>
      </trkpt>
      <trkpt lat="40.8043280" lon="-3.5381900">
        <ele>709.0</ele>
        <time>2020-09-29T16:43:59Z</time>
      </trkpt>
      <trkpt lat="40.8043280" lon="-3.5381900">
        <ele>709.0</ele>
        <time>2020-09-29T16:44:00Z</time>
      </trkpt>
      <trkpt lat="40.8041870" lon="-3.5381470">
        <ele>709.0</ele>
        <time>2020-09-29T16:44:01Z</time>
      </trkpt>
      <trkpt lat="40.8041870" lon="-3.5381470">
        <ele>709.0</ele>
        <time>2020-09-29T16:44:02Z</time>
      </trkpt>
      <trkpt lat="40.8040430" lon="-3.5381020">
        <ele>709.0</ele>
        <time>2020-09-29T16:44:03Z</time>
      </trkpt>
      <trkpt lat="40.8040430" lon="-3.5381020">
        <ele>709.0</ele>
        <time>2020-09-29T16:44:04Z</time>
      </trkpt>
      <trkpt lat="40.8039030" lon="-3.5380580">
        <ele>709.0</ele>
        <time>2020-09-29T16:44:05Z</time>
      </trkpt>
      <trkpt lat="40.8039030" lon="-3.5380580">
        <ele>709.0</ele>
        <time>2020-09-29T16:44:06Z</time>
      </trkpt>
      <trkpt lat="40.8037570" lon="-3.5380170">
        <ele>709.0</ele>
        <time>2020-09-29T16:44:07Z</time>
      </trkpt>
      <trkpt lat="40.8036830" lon="-3.5379930">
        <ele>708.0</ele>
        <time>2020-09-29T16:44:08Z</time>
      </trkpt>
      <trkpt lat="40.8036830" lon="-3.5379930">
        <ele>708.0</ele>
        <time>2020-09-29T16:44:09Z</time>
      </trkpt>
      <trkpt lat="40.8035400" lon="-3.5379430">
        <ele>708.0</ele>
        <time>2020-09-29T16:44:10Z</time>
      </trkpt>
      <trkpt lat="40.8035400" lon="-3.5379430">
        <ele>708.0</ele>
        <time>2020-09-29T16:44:11Z</time>
      </trkpt>
      <trkpt lat="40.8033980" lon="-3.5378970">
        <ele>708.0</ele>
        <time>2020-09-29T16:44:12Z</time>
      </trkpt>
      <trkpt lat="40.8033280" lon="-3.5378750">
        <ele>708.0</ele>
        <time>2020-09-29T16:44:13Z</time>
      </trkpt>
      <trkpt lat="40.8033280" lon="-3.5378750">
        <ele>708.0</ele>
        <time>2020-09-29T16:44:14Z</time>
      </trkpt>
      <trkpt lat="40.8031870" lon="-3.5378280">
        <ele>708.0</ele>
        <time>2020-09-29T16:44:15Z</time>
      </trkpt>
      <trkpt lat="40.8031870" lon="-3.5378280">
        <ele>708.0</ele>
        <time>2020-09-29T16:44:16Z</time>
      </trkpt>
      <trkpt lat="40.8030500" lon="-3.5377830">
        <ele>708.0</ele>
        <time>2020-09-29T16:44:17Z</time>
      </trkpt>
      <trkpt lat="40.8030500" lon="-3.5377830">
        <ele>708.0</ele>
        <time>2020-09-29T16:44:18Z</time>
      </trkpt>
      <trkpt lat="40.8029170" lon="-3.5377380">
        <ele>708.0</ele>
        <time>2020-09-29T16:44:19Z</time>
      </trkpt>
      <trkpt lat="40.8029170" lon="-3.5377380">
        <ele>708.0</ele>
        <time>2020-09-29T16:44:20Z</time>
      </trkpt>
      <trkpt lat="40.8027830" lon="-3.5376970">
        <ele>708.0</ele>
        <time>2020-09-29T16:44:21Z</time>
      </trkpt>
      <trkpt lat="40.8027180" lon="-3.5376730">
        <ele>708.0</ele>
        <time>2020-09-29T16:44:22Z</time>
      </trkpt>
      <trkpt lat="40.8027180" lon="-3.5376730">
        <ele>708.0</ele>
        <time>2020-09-29T16:44:23Z</time>
      </trkpt>
      <trkpt lat="40.8025870" lon="-3.5376300">
        <ele>708.0</ele>
        <time>2020-09-29T16:44:24Z</time>
      </trkpt>
      <trkpt lat="40.8025870" lon="-3.5376300">
        <ele>708.0</ele>
        <time>2020-09-29T16:44:25Z</time>
      </trkpt>
      <trkpt lat="40.8024570" lon="-3.5375880">
        <ele>707.0</ele>
        <time>2020-09-29T16:44:26Z</time>
      </trkpt>
      <trkpt lat="40.8024570" lon="-3.5375880">
        <ele>707.0</ele>
        <time>2020-09-29T16:44:27Z</time>
      </trkpt>
      <trkpt lat="40.8024570" lon="-3.5375880">
        <ele>707.0</ele>
        <time>2020-09-29T16:44:28Z</time>
      </trkpt>
      <trkpt lat="40.8022620" lon="-3.5375220">
        <ele>707.0</ele>
        <time>2020-09-29T16:44:29Z</time>
      </trkpt>
      <trkpt lat="40.8022620" lon="-3.5375220">
        <ele>707.0</ele>
        <time>2020-09-29T16:44:30Z</time>
      </trkpt>
      <trkpt lat="40.8021280" lon="-3.5374770">
        <ele>707.0</ele>
        <time>2020-09-29T16:44:31Z</time>
      </trkpt>
      <trkpt lat="40.8021280" lon="-3.5374770">
        <ele>707.0</ele>
        <time>2020-09-29T16:44:32Z</time>
      </trkpt>
      <trkpt lat="40.8019950" lon="-3.5374350">
        <ele>707.0</ele>
        <time>2020-09-29T16:44:33Z</time>
      </trkpt>
      <trkpt lat="40.8019280" lon="-3.5374150">
        <ele>707.0</ele>
        <time>2020-09-29T16:44:34Z</time>
      </trkpt>
      <trkpt lat="40.8018600" lon="-3.5373930">
        <ele>707.0</ele>
        <time>2020-09-29T16:44:35Z</time>
      </trkpt>
      <trkpt lat="40.8017900" lon="-3.5373720">
        <ele>707.0</ele>
        <time>2020-09-29T16:44:36Z</time>
      </trkpt>
      <trkpt lat="40.8017900" lon="-3.5373720">
        <ele>707.0</ele>
        <time>2020-09-29T16:44:37Z</time>
      </trkpt>
      <trkpt lat="40.8016580" lon="-3.5373250">
        <ele>707.0</ele>
        <time>2020-09-29T16:44:38Z</time>
      </trkpt>
      <trkpt lat="40.8016580" lon="-3.5373250">
        <ele>707.0</ele>
        <time>2020-09-29T16:44:39Z</time>
      </trkpt>
      <trkpt lat="40.8015330" lon="-3.5372850">
        <ele>707.0</ele>
        <time>2020-09-29T16:44:40Z</time>
      </trkpt>
      <trkpt lat="40.8015330" lon="-3.5372850">
        <ele>707.0</ele>
        <time>2020-09-29T16:44:41Z</time>
      </trkpt>
      <trkpt lat="40.8014030" lon="-3.5372400">
        <ele>707.0</ele>
        <time>2020-09-29T16:44:42Z</time>
      </trkpt>
      <trkpt lat="40.8013370" lon="-3.5372180">
        <ele>707.0</ele>
        <time>2020-09-29T16:44:43Z</time>
      </trkpt>
      <trkpt lat="40.8013370" lon="-3.5372180">
        <ele>707.0</ele>
        <time>2020-09-29T16:44:44Z</time>
      </trkpt>
      <trkpt lat="40.8012070" lon="-3.5371770">
        <ele>707.0</ele>
        <time>2020-09-29T16:44:45Z</time>
      </trkpt>
      <trkpt lat="40.8012070" lon="-3.5371770">
        <ele>707.0</ele>
        <time>2020-09-29T16:44:46Z</time>
      </trkpt>
      <trkpt lat="40.8010730" lon="-3.5371330">
        <ele>707.0</ele>
        <time>2020-09-29T16:44:47Z</time>
      </trkpt>
      <trkpt lat="40.8010070" lon="-3.5371120">
        <ele>707.0</ele>
        <time>2020-09-29T16:44:48Z</time>
      </trkpt>
      <trkpt lat="40.8010070" lon="-3.5371120">
        <ele>707.0</ele>
        <time>2020-09-29T16:44:49Z</time>
      </trkpt>
      <trkpt lat="40.8008750" lon="-3.5370700">
        <ele>707.0</ele>
        <time>2020-09-29T16:44:50Z</time>
      </trkpt>
      <trkpt lat="40.8008750" lon="-3.5370700">
        <ele>707.0</ele>
        <time>2020-09-29T16:44:51Z</time>
      </trkpt>
      <trkpt lat="40.8007400" lon="-3.5370250">
        <ele>707.0</ele>
        <time>2020-09-29T16:44:52Z</time>
      </trkpt>
      <trkpt lat="40.8006750" lon="-3.5370030">
        <ele>707.0</ele>
        <time>2020-09-29T16:44:53Z</time>
      </trkpt>
      <trkpt lat="40.8006750" lon="-3.5370030">
        <ele>706.0</ele>
        <time>2020-09-29T16:44:54Z</time>
      </trkpt>
      <trkpt lat="40.8005430" lon="-3.5369620">
        <ele>706.0</ele>
        <time>2020-09-29T16:44:55Z</time>
      </trkpt>
      <trkpt lat="40.8004770" lon="-3.5369420">
        <ele>706.0</ele>
        <time>2020-09-29T16:44:56Z</time>
      </trkpt>
      <trkpt lat="40.8004770" lon="-3.5369420">
        <ele>706.0</ele>
        <time>2020-09-29T16:44:57Z</time>
      </trkpt>
      <trkpt lat="40.8003430" lon="-3.5369000">
        <ele>706.0</ele>
        <time>2020-09-29T16:44:58Z</time>
      </trkpt>
      <trkpt lat="40.8003430" lon="-3.5369000">
        <ele>706.0</ele>
        <time>2020-09-29T16:44:59Z</time>
      </trkpt>
      <trkpt lat="40.8002100" lon="-3.5368530">
        <ele>706.0</ele>
        <time>2020-09-29T16:45:00Z</time>
      </trkpt>
      <trkpt lat="40.8002100" lon="-3.5368530">
        <ele>706.0</ele>
        <time>2020-09-29T16:45:01Z</time>
      </trkpt>
      <trkpt lat="40.8000770" lon="-3.5368080">
        <ele>706.0</ele>
        <time>2020-09-29T16:45:02Z</time>
      </trkpt>
      <trkpt lat="40.8000770" lon="-3.5368080">
        <ele>706.0</ele>
        <time>2020-09-29T16:45:03Z</time>
      </trkpt>
      <trkpt lat="40.7999470" lon="-3.5367670">
        <ele>706.0</ele>
        <time>2020-09-29T16:45:04Z</time>
      </trkpt>
      <trkpt lat="40.7999470" lon="-3.5367670">
        <ele>706.0</ele>
        <time>2020-09-29T16:45:05Z</time>
      </trkpt>
      <trkpt lat="40.7998170" lon="-3.5367250">
        <ele>706.0</ele>
        <time>2020-09-29T16:45:06Z</time>
      </trkpt>
      <trkpt lat="40.7998170" lon="-3.5367250">
        <ele>706.0</ele>
        <time>2020-09-29T16:45:07Z</time>
      </trkpt>
      <trkpt lat="40.7996850" lon="-3.5366830">
        <ele>706.0</ele>
        <time>2020-09-29T16:45:08Z</time>
      </trkpt>
      <trkpt lat="40.7996850" lon="-3.5366830">
        <ele>706.0</ele>
        <time>2020-09-29T16:45:09Z</time>
      </trkpt>
      <trkpt lat="40.7995550" lon="-3.5366400">
        <ele>706.0</ele>
        <time>2020-09-29T16:45:10Z</time>
      </trkpt>
      <trkpt lat="40.7995550" lon="-3.5366400">
        <ele>706.0</ele>
        <time>2020-09-29T16:45:11Z</time>
      </trkpt>
      <trkpt lat="40.7994230" lon="-3.5365980">
        <ele>706.0</ele>
        <time>2020-09-29T16:45:12Z</time>
      </trkpt>
      <trkpt lat="40.7994230" lon="-3.5365980">
        <ele>705.0</ele>
        <time>2020-09-29T16:45:13Z</time>
      </trkpt>
      <trkpt lat="40.7992900" lon="-3.5365520">
        <ele>705.0</ele>
        <time>2020-09-29T16:45:14Z</time>
      </trkpt>
      <trkpt lat="40.7992250" lon="-3.5365250">
        <ele>705.0</ele>
        <time>2020-09-29T16:45:15Z</time>
      </trkpt>
      <trkpt lat="40.7991620" lon="-3.5365030">
        <ele>705.0</ele>
        <time>2020-09-29T16:45:16Z</time>
      </trkpt>
      <trkpt lat="40.7991620" lon="-3.5365030">
        <ele>705.0</ele>
        <time>2020-09-29T16:45:17Z</time>
      </trkpt>
      <trkpt lat="40.7991620" lon="-3.5365030">
        <ele>705.0</ele>
        <time>2020-09-29T16:45:18Z</time>
      </trkpt>
      <trkpt lat="40.7990300" lon="-3.5364580">
        <ele>705.0</ele>
        <time>2020-09-29T16:45:19Z</time>
      </trkpt>
      <trkpt lat="40.7988950" lon="-3.5364150">
        <ele>705.0</ele>
        <time>2020-09-29T16:45:20Z</time>
      </trkpt>
      <trkpt lat="40.7988270" lon="-3.5363930">
        <ele>705.0</ele>
        <time>2020-09-29T16:45:21Z</time>
      </trkpt>
      <trkpt lat="40.7988270" lon="-3.5363930">
        <ele>705.0</ele>
        <time>2020-09-29T16:45:22Z</time>
      </trkpt>
      <trkpt lat="40.7986900" lon="-3.5363500">
        <ele>704.0</ele>
        <time>2020-09-29T16:45:23Z</time>
      </trkpt>
      <trkpt lat="40.7986900" lon="-3.5363500">
        <ele>704.0</ele>
        <time>2020-09-29T16:45:24Z</time>
      </trkpt>
      <trkpt lat="40.7985550" lon="-3.5363050">
        <ele>704.0</ele>
        <time>2020-09-29T16:45:25Z</time>
      </trkpt>
      <trkpt lat="40.7985550" lon="-3.5363050">
        <ele>704.0</ele>
        <time>2020-09-29T16:45:26Z</time>
      </trkpt>
      <trkpt lat="40.7984180" lon="-3.5362600">
        <ele>704.0</ele>
        <time>2020-09-29T16:45:27Z</time>
      </trkpt>
      <trkpt lat="40.7983530" lon="-3.5362400">
        <ele>704.0</ele>
        <time>2020-09-29T16:45:28Z</time>
      </trkpt>
      <trkpt lat="40.7983530" lon="-3.5362400">
        <ele>704.0</ele>
        <time>2020-09-29T16:45:29Z</time>
      </trkpt>
      <trkpt lat="40.7982180" lon="-3.5361950">
        <ele>704.0</ele>
        <time>2020-09-29T16:45:30Z</time>
      </trkpt>
      <trkpt lat="40.7981520" lon="-3.5361730">
        <ele>704.0</ele>
        <time>2020-09-29T16:45:31Z</time>
      </trkpt>
      <trkpt lat="40.7981520" lon="-3.5361730">
        <ele>704.0</ele>
        <time>2020-09-29T16:45:32Z</time>
      </trkpt>
      <trkpt lat="40.7980180" lon="-3.5361320">
        <ele>704.0</ele>
        <time>2020-09-29T16:45:33Z</time>
      </trkpt>
      <trkpt lat="40.7980180" lon="-3.5361320">
        <ele>704.0</ele>
        <time>2020-09-29T16:45:34Z</time>
      </trkpt>
      <trkpt lat="40.7978820" lon="-3.5360850">
        <ele>704.0</ele>
        <time>2020-09-29T16:45:35Z</time>
      </trkpt>
      <trkpt lat="40.7978820" lon="-3.5360850">
        <ele>704.0</ele>
        <time>2020-09-29T16:45:36Z</time>
      </trkpt>
      <trkpt lat="40.7977430" lon="-3.5360420">
        <ele>704.0</ele>
        <time>2020-09-29T16:45:37Z</time>
      </trkpt>
      <trkpt lat="40.7976750" lon="-3.5360200">
        <ele>704.0</ele>
        <time>2020-09-29T16:45:38Z</time>
      </trkpt>
      <trkpt lat="40.7976750" lon="-3.5360200">
        <ele>703.0</ele>
        <time>2020-09-29T16:45:39Z</time>
      </trkpt>
      <trkpt lat="40.7975370" lon="-3.5359750">
        <ele>703.0</ele>
        <time>2020-09-29T16:45:40Z</time>
      </trkpt>
      <trkpt lat="40.7975370" lon="-3.5359750">
        <ele>703.0</ele>
        <time>2020-09-29T16:45:41Z</time>
      </trkpt>
      <trkpt lat="40.7974000" lon="-3.5359320">
        <ele>703.0</ele>
        <time>2020-09-29T16:45:42Z</time>
      </trkpt>
      <trkpt lat="40.7973320" lon="-3.5359100">
        <ele>703.0</ele>
        <time>2020-09-29T16:45:43Z</time>
      </trkpt>
      <trkpt lat="40.7973320" lon="-3.5359100">
        <ele>703.0</ele>
        <time>2020-09-29T16:45:44Z</time>
      </trkpt>
      <trkpt lat="40.7971970" lon="-3.5358700">
        <ele>703.0</ele>
        <time>2020-09-29T16:45:45Z</time>
      </trkpt>
      <trkpt lat="40.7971970" lon="-3.5358700">
        <ele>703.0</ele>
        <time>2020-09-29T16:45:46Z</time>
      </trkpt>
      <trkpt lat="40.7970580" lon="-3.5358300">
        <ele>703.0</ele>
        <time>2020-09-29T16:45:47Z</time>
      </trkpt>
      <trkpt lat="40.7970580" lon="-3.5358300">
        <ele>703.0</ele>
        <time>2020-09-29T16:45:48Z</time>
      </trkpt>
      <trkpt lat="40.7969180" lon="-3.5357830">
        <ele>703.0</ele>
        <time>2020-09-29T16:45:49Z</time>
      </trkpt>
      <trkpt lat="40.7969180" lon="-3.5357830">
        <ele>703.0</ele>
        <time>2020-09-29T16:45:50Z</time>
      </trkpt>
      <trkpt lat="40.7967780" lon="-3.5357380">
        <ele>703.0</ele>
        <time>2020-09-29T16:45:51Z</time>
      </trkpt>
      <trkpt lat="40.7967100" lon="-3.5357170">
        <ele>703.0</ele>
        <time>2020-09-29T16:45:52Z</time>
      </trkpt>
      <trkpt lat="40.7967100" lon="-3.5357170">
        <ele>703.0</ele>
        <time>2020-09-29T16:45:53Z</time>
      </trkpt>
      <trkpt lat="40.7965750" lon="-3.5356720">
        <ele>703.0</ele>
        <time>2020-09-29T16:45:54Z</time>
      </trkpt>
      <trkpt lat="40.7965750" lon="-3.5356720">
        <ele>703.0</ele>
        <time>2020-09-29T16:45:55Z</time>
      </trkpt>
      <trkpt lat="40.7964380" lon="-3.5356250">
        <ele>703.0</ele>
        <time>2020-09-29T16:45:56Z</time>
      </trkpt>
      <trkpt lat="40.7964380" lon="-3.5356250">
        <ele>703.0</ele>
        <time>2020-09-29T16:45:57Z</time>
      </trkpt>
      <trkpt lat="40.7963000" lon="-3.5355800">
        <ele>703.0</ele>
        <time>2020-09-29T16:45:58Z</time>
      </trkpt>
      <trkpt lat="40.7963000" lon="-3.5355800">
        <ele>703.0</ele>
        <time>2020-09-29T16:45:59Z</time>
      </trkpt>
      <trkpt lat="40.7961650" lon="-3.5355370">
        <ele>703.0</ele>
        <time>2020-09-29T16:46:00Z</time>
      </trkpt>
      <trkpt lat="40.7960970" lon="-3.5355150">
        <ele>703.0</ele>
        <time>2020-09-29T16:46:01Z</time>
      </trkpt>
      <trkpt lat="40.7960970" lon="-3.5355150">
        <ele>703.0</ele>
        <time>2020-09-29T16:46:02Z</time>
      </trkpt>
      <trkpt lat="40.7959670" lon="-3.5354720">
        <ele>703.0</ele>
        <time>2020-09-29T16:46:03Z</time>
      </trkpt>
      <trkpt lat="40.7959670" lon="-3.5354720">
        <ele>703.0</ele>
        <time>2020-09-29T16:46:04Z</time>
      </trkpt>
      <trkpt lat="40.7958350" lon="-3.5354250">
        <ele>703.0</ele>
        <time>2020-09-29T16:46:05Z</time>
      </trkpt>
      <trkpt lat="40.7958350" lon="-3.5354250">
        <ele>703.0</ele>
        <time>2020-09-29T16:46:06Z</time>
      </trkpt>
      <trkpt lat="40.7957030" lon="-3.5353830">
        <ele>703.0</ele>
        <time>2020-09-29T16:46:07Z</time>
      </trkpt>
      <trkpt lat="40.7957030" lon="-3.5353830">
        <ele>703.0</ele>
        <time>2020-09-29T16:46:08Z</time>
      </trkpt>
      <trkpt lat="40.7955700" lon="-3.5353400">
        <ele>703.0</ele>
        <time>2020-09-29T16:46:09Z</time>
      </trkpt>
      <trkpt lat="40.7955700" lon="-3.5353400">
        <ele>703.0</ele>
        <time>2020-09-29T16:46:10Z</time>
      </trkpt>
      <trkpt lat="40.7954370" lon="-3.5352970">
        <ele>703.0</ele>
        <time>2020-09-29T16:46:11Z</time>
      </trkpt>
      <trkpt lat="40.7953700" lon="-3.5352750">
        <ele>703.0</ele>
        <time>2020-09-29T16:46:12Z</time>
      </trkpt>
      <trkpt lat="40.7953030" lon="-3.5352530">
        <ele>703.0</ele>
        <time>2020-09-29T16:46:13Z</time>
      </trkpt>
      <trkpt lat="40.7953030" lon="-3.5352530">
        <ele>703.0</ele>
        <time>2020-09-29T16:46:14Z</time>
      </trkpt>
      <trkpt lat="40.7951720" lon="-3.5352080">
        <ele>703.0</ele>
        <time>2020-09-29T16:46:15Z</time>
      </trkpt>
      <trkpt lat="40.7951720" lon="-3.5352080">
        <ele>703.0</ele>
        <time>2020-09-29T16:46:16Z</time>
      </trkpt>
      <trkpt lat="40.7950380" lon="-3.5351620">
        <ele>703.0</ele>
        <time>2020-09-29T16:46:17Z</time>
      </trkpt>
      <trkpt lat="40.7949700" lon="-3.5351380">
        <ele>703.0</ele>
        <time>2020-09-29T16:46:18Z</time>
      </trkpt>
      <trkpt lat="40.7949020" lon="-3.5351150">
        <ele>703.0</ele>
        <time>2020-09-29T16:46:19Z</time>
      </trkpt>
      <trkpt lat="40.7949020" lon="-3.5351150">
        <ele>703.0</ele>
        <time>2020-09-29T16:46:20Z</time>
      </trkpt>
      <trkpt lat="40.7947670" lon="-3.5350700">
        <ele>703.0</ele>
        <time>2020-09-29T16:46:21Z</time>
      </trkpt>
      <trkpt lat="40.7947670" lon="-3.5350700">
        <ele>703.0</ele>
        <time>2020-09-29T16:46:22Z</time>
      </trkpt>
      <trkpt lat="40.7946300" lon="-3.5350250">
        <ele>703.0</ele>
        <time>2020-09-29T16:46:23Z</time>
      </trkpt>
      <trkpt lat="40.7946300" lon="-3.5350250">
        <ele>703.0</ele>
        <time>2020-09-29T16:46:24Z</time>
      </trkpt>
      <trkpt lat="40.7944880" lon="-3.5349820">
        <ele>703.0</ele>
        <time>2020-09-29T16:46:25Z</time>
      </trkpt>
      <trkpt lat="40.7944170" lon="-3.5349600">
        <ele>702.0</ele>
        <time>2020-09-29T16:46:26Z</time>
      </trkpt>
      <trkpt lat="40.7944170" lon="-3.5349600">
        <ele>702.0</ele>
        <time>2020-09-29T16:46:27Z</time>
      </trkpt>
      <trkpt lat="40.7944170" lon="-3.5349600">
        <ele>702.0</ele>
        <time>2020-09-29T16:46:28Z</time>
      </trkpt>
      <trkpt lat="40.7942770" lon="-3.5349180">
        <ele>702.0</ele>
        <time>2020-09-29T16:46:29Z</time>
      </trkpt>
      <trkpt lat="40.7941400" lon="-3.5348700">
        <ele>702.0</ele>
        <time>2020-09-29T16:46:30Z</time>
      </trkpt>
      <trkpt lat="40.7941400" lon="-3.5348700">
        <ele>702.0</ele>
        <time>2020-09-29T16:46:31Z</time>
      </trkpt>
      <trkpt lat="40.7939980" lon="-3.5348230">
        <ele>702.0</ele>
        <time>2020-09-29T16:46:32Z</time>
      </trkpt>
      <trkpt lat="40.7939980" lon="-3.5348230">
        <ele>702.0</ele>
        <time>2020-09-29T16:46:33Z</time>
      </trkpt>
      <trkpt lat="40.7938580" lon="-3.5347770">
        <ele>702.0</ele>
        <time>2020-09-29T16:46:34Z</time>
      </trkpt>
      <trkpt lat="40.7937880" lon="-3.5347550">
        <ele>702.0</ele>
        <time>2020-09-29T16:46:35Z</time>
      </trkpt>
      <trkpt lat="40.7937880" lon="-3.5347550">
        <ele>702.0</ele>
        <time>2020-09-29T16:46:36Z</time>
      </trkpt>
      <trkpt lat="40.7936480" lon="-3.5347080">
        <ele>702.0</ele>
        <time>2020-09-29T16:46:37Z</time>
      </trkpt>
      <trkpt lat="40.7936480" lon="-3.5347080">
        <ele>702.0</ele>
        <time>2020-09-29T16:46:38Z</time>
      </trkpt>
      <trkpt lat="40.7935070" lon="-3.5346620">
        <ele>702.0</ele>
        <time>2020-09-29T16:46:39Z</time>
      </trkpt>
      <trkpt lat="40.7935070" lon="-3.5346620">
        <ele>702.0</ele>
        <time>2020-09-29T16:46:40Z</time>
      </trkpt>
      <trkpt lat="40.7935070" lon="-3.5346620">
        <ele>702.0</ele>
        <time>2020-09-29T16:46:41Z</time>
      </trkpt>
      <trkpt lat="40.7933680" lon="-3.5346170">
        <ele>702.0</ele>
        <time>2020-09-29T16:46:42Z</time>
      </trkpt>
      <trkpt lat="40.7932300" lon="-3.5345720">
        <ele>702.0</ele>
        <time>2020-09-29T16:46:43Z</time>
      </trkpt>
      <trkpt lat="40.7932300" lon="-3.5345720">
        <ele>702.0</ele>
        <time>2020-09-29T16:46:44Z</time>
      </trkpt>
      <trkpt lat="40.7930920" lon="-3.5345270">
        <ele>701.0</ele>
        <time>2020-09-29T16:46:45Z</time>
      </trkpt>
      <trkpt lat="40.7930920" lon="-3.5345270">
        <ele>701.0</ele>
        <time>2020-09-29T16:46:46Z</time>
      </trkpt>
      <trkpt lat="40.7929520" lon="-3.5344820">
        <ele>701.0</ele>
        <time>2020-09-29T16:46:47Z</time>
      </trkpt>
      <trkpt lat="40.7929520" lon="-3.5344820">
        <ele>701.0</ele>
        <time>2020-09-29T16:46:48Z</time>
      </trkpt>
      <trkpt lat="40.7928100" lon="-3.5344330">
        <ele>701.0</ele>
        <time>2020-09-29T16:46:49Z</time>
      </trkpt>
      <trkpt lat="40.7928100" lon="-3.5344330">
        <ele>701.0</ele>
        <time>2020-09-29T16:46:50Z</time>
      </trkpt>
      <trkpt lat="40.7926680" lon="-3.5343870">
        <ele>701.0</ele>
        <time>2020-09-29T16:46:51Z</time>
      </trkpt>
      <trkpt lat="40.7926680" lon="-3.5343870">
        <ele>701.0</ele>
        <time>2020-09-29T16:46:52Z</time>
      </trkpt>
      <trkpt lat="40.7925270" lon="-3.5343420">
        <ele>701.0</ele>
        <time>2020-09-29T16:46:53Z</time>
      </trkpt>
      <trkpt lat="40.7925270" lon="-3.5343420">
        <ele>701.0</ele>
        <time>2020-09-29T16:46:54Z</time>
      </trkpt>
      <trkpt lat="40.7923830" lon="-3.5342950">
        <ele>701.0</ele>
        <time>2020-09-29T16:46:55Z</time>
      </trkpt>
      <trkpt lat="40.7923830" lon="-3.5342950">
        <ele>700.0</ele>
        <time>2020-09-29T16:46:56Z</time>
      </trkpt>
      <trkpt lat="40.7922400" lon="-3.5342480">
        <ele>700.0</ele>
        <time>2020-09-29T16:46:57Z</time>
      </trkpt>
      <trkpt lat="40.7921680" lon="-3.5342230">
        <ele>700.0</ele>
        <time>2020-09-29T16:46:58Z</time>
      </trkpt>
      <trkpt lat="40.7921680" lon="-3.5342230">
        <ele>700.0</ele>
        <time>2020-09-29T16:46:59Z</time>
      </trkpt>
      <trkpt lat="40.7920250" lon="-3.5341750">
        <ele>700.0</ele>
        <time>2020-09-29T16:47:00Z</time>
      </trkpt>
      <trkpt lat="40.7919520" lon="-3.5341530">
        <ele>700.0</ele>
        <time>2020-09-29T16:47:01Z</time>
      </trkpt>
      <trkpt lat="40.7919520" lon="-3.5341530">
        <ele>700.0</ele>
        <time>2020-09-29T16:47:02Z</time>
      </trkpt>
      <trkpt lat="40.7918070" lon="-3.5341080">
        <ele>700.0</ele>
        <time>2020-09-29T16:47:03Z</time>
      </trkpt>
      <trkpt lat="40.7917350" lon="-3.5340850">
        <ele>699.0</ele>
        <time>2020-09-29T16:47:04Z</time>
      </trkpt>
      <trkpt lat="40.7917350" lon="-3.5340850">
        <ele>699.0</ele>
        <time>2020-09-29T16:47:05Z</time>
      </trkpt>
      <trkpt lat="40.7915920" lon="-3.5340400">
        <ele>699.0</ele>
        <time>2020-09-29T16:47:06Z</time>
      </trkpt>
      <trkpt lat="40.7915200" lon="-3.5340180">
        <ele>699.0</ele>
        <time>2020-09-29T16:47:07Z</time>
      </trkpt>
      <trkpt lat="40.7915200" lon="-3.5340180">
        <ele>699.0</ele>
        <time>2020-09-29T16:47:08Z</time>
      </trkpt>
      <trkpt lat="40.7913750" lon="-3.5339730">
        <ele>699.0</ele>
        <time>2020-09-29T16:47:09Z</time>
      </trkpt>
      <trkpt lat="40.7913750" lon="-3.5339730">
        <ele>699.0</ele>
        <time>2020-09-29T16:47:10Z</time>
      </trkpt>
      <trkpt lat="40.7912320" lon="-3.5339250">
        <ele>699.0</ele>
        <time>2020-09-29T16:47:11Z</time>
      </trkpt>
      <trkpt lat="40.7912320" lon="-3.5339250">
        <ele>699.0</ele>
        <time>2020-09-29T16:47:12Z</time>
      </trkpt>
      <trkpt lat="40.7910850" lon="-3.5338780">
        <ele>699.0</ele>
        <time>2020-09-29T16:47:13Z</time>
      </trkpt>
      <trkpt lat="40.7910120" lon="-3.5338550">
        <ele>699.0</ele>
        <time>2020-09-29T16:47:14Z</time>
      </trkpt>
      <trkpt lat="40.7910120" lon="-3.5338550">
        <ele>699.0</ele>
        <time>2020-09-29T16:47:15Z</time>
      </trkpt>
      <trkpt lat="40.7908650" lon="-3.5338070">
        <ele>699.0</ele>
        <time>2020-09-29T16:47:16Z</time>
      </trkpt>
      <trkpt lat="40.7907930" lon="-3.5337820">
        <ele>699.0</ele>
        <time>2020-09-29T16:47:17Z</time>
      </trkpt>
      <trkpt lat="40.7907200" lon="-3.5337580">
        <ele>699.0</ele>
        <time>2020-09-29T16:47:18Z</time>
      </trkpt>
      <trkpt lat="40.7907200" lon="-3.5337580">
        <ele>699.0</ele>
        <time>2020-09-29T16:47:19Z</time>
      </trkpt>
      <trkpt lat="40.7905780" lon="-3.5337100">
        <ele>699.0</ele>
        <time>2020-09-29T16:47:20Z</time>
      </trkpt>
      <trkpt lat="40.7905080" lon="-3.5336850">
        <ele>699.0</ele>
        <time>2020-09-29T16:47:21Z</time>
      </trkpt>
      <trkpt lat="40.7905080" lon="-3.5336850">
        <ele>699.0</ele>
        <time>2020-09-29T16:47:22Z</time>
      </trkpt>
      <trkpt lat="40.7903670" lon="-3.5336380">
        <ele>699.0</ele>
        <time>2020-09-29T16:47:23Z</time>
      </trkpt>
      <trkpt lat="40.7903670" lon="-3.5336380">
        <ele>699.0</ele>
        <time>2020-09-29T16:47:24Z</time>
      </trkpt>
      <trkpt lat="40.7902280" lon="-3.5335870">
        <ele>699.0</ele>
        <time>2020-09-29T16:47:25Z</time>
      </trkpt>
      <trkpt lat="40.7902280" lon="-3.5335870">
        <ele>699.0</ele>
        <time>2020-09-29T16:47:26Z</time>
      </trkpt>
      <trkpt lat="40.7900930" lon="-3.5335330">
        <ele>699.0</ele>
        <time>2020-09-29T16:47:27Z</time>
      </trkpt>
      <trkpt lat="40.7900250" lon="-3.5335020">
        <ele>699.0</ele>
        <time>2020-09-29T16:47:28Z</time>
      </trkpt>
      <trkpt lat="40.7900250" lon="-3.5335020">
        <ele>699.0</ele>
        <time>2020-09-29T16:47:29Z</time>
      </trkpt>
      <trkpt lat="40.7898880" lon="-3.5334350">
        <ele>699.0</ele>
        <time>2020-09-29T16:47:30Z</time>
      </trkpt>
      <trkpt lat="40.7898880" lon="-3.5334350">
        <ele>699.0</ele>
        <time>2020-09-29T16:47:31Z</time>
      </trkpt>
      <trkpt lat="40.7897550" lon="-3.5333580">
        <ele>699.0</ele>
        <time>2020-09-29T16:47:32Z</time>
      </trkpt>
      <trkpt lat="40.7897550" lon="-3.5333580">
        <ele>699.0</ele>
        <time>2020-09-29T16:47:33Z</time>
      </trkpt>
      <trkpt lat="40.7896250" lon="-3.5332800">
        <ele>699.0</ele>
        <time>2020-09-29T16:47:34Z</time>
      </trkpt>
      <trkpt lat="40.7895600" lon="-3.5332370">
        <ele>698.0</ele>
        <time>2020-09-29T16:47:35Z</time>
      </trkpt>
      <trkpt lat="40.7895600" lon="-3.5332370">
        <ele>698.0</ele>
        <time>2020-09-29T16:47:36Z</time>
      </trkpt>
      <trkpt lat="40.7894320" lon="-3.5331470">
        <ele>698.0</ele>
        <time>2020-09-29T16:47:37Z</time>
      </trkpt>
      <trkpt lat="40.7894320" lon="-3.5331470">
        <ele>698.0</ele>
        <time>2020-09-29T16:47:38Z</time>
      </trkpt>
      <trkpt lat="40.7893020" lon="-3.5330530">
        <ele>698.0</ele>
        <time>2020-09-29T16:47:39Z</time>
      </trkpt>
      <trkpt lat="40.7893020" lon="-3.5330530">
        <ele>698.0</ele>
        <time>2020-09-29T16:47:40Z</time>
      </trkpt>
      <trkpt lat="40.7891700" lon="-3.5329620">
        <ele>698.0</ele>
        <time>2020-09-29T16:47:41Z</time>
      </trkpt>
      <trkpt lat="40.7891700" lon="-3.5329620">
        <ele>698.0</ele>
        <time>2020-09-29T16:47:42Z</time>
      </trkpt>
      <trkpt lat="40.7890350" lon="-3.5328800">
        <ele>698.0</ele>
        <time>2020-09-29T16:47:43Z</time>
      </trkpt>
      <trkpt lat="40.7890350" lon="-3.5328800">
        <ele>698.0</ele>
        <time>2020-09-29T16:47:44Z</time>
      </trkpt>
      <trkpt lat="40.7890350" lon="-3.5328800">
        <ele>698.0</ele>
        <time>2020-09-29T16:47:45Z</time>
      </trkpt>
      <trkpt lat="40.7889050" lon="-3.5327950">
        <ele>698.0</ele>
        <time>2020-09-29T16:47:46Z</time>
      </trkpt>
      <trkpt lat="40.7887720" lon="-3.5327150">
        <ele>698.0</ele>
        <time>2020-09-29T16:47:47Z</time>
      </trkpt>
      <trkpt lat="40.7887050" lon="-3.5326780">
        <ele>698.0</ele>
        <time>2020-09-29T16:47:48Z</time>
      </trkpt>
      <trkpt lat="40.7887050" lon="-3.5326780">
        <ele>698.0</ele>
        <time>2020-09-29T16:47:49Z</time>
      </trkpt>
      <trkpt lat="40.7885680" lon="-3.5326130">
        <ele>698.0</ele>
        <time>2020-09-29T16:47:50Z</time>
      </trkpt>
      <trkpt lat="40.7885680" lon="-3.5326130">
        <ele>698.0</ele>
        <time>2020-09-29T16:47:51Z</time>
      </trkpt>
      <trkpt lat="40.7884270" lon="-3.5325520">
        <ele>698.0</ele>
        <time>2020-09-29T16:47:52Z</time>
      </trkpt>
      <trkpt lat="40.7883570" lon="-3.5325220">
        <ele>697.0</ele>
        <time>2020-09-29T16:47:53Z</time>
      </trkpt>
      <trkpt lat="40.7883570" lon="-3.5325220">
        <ele>697.0</ele>
        <time>2020-09-29T16:47:54Z</time>
      </trkpt>
      <trkpt lat="40.7882130" lon="-3.5324680">
        <ele>697.0</ele>
        <time>2020-09-29T16:47:55Z</time>
      </trkpt>
      <trkpt lat="40.7882130" lon="-3.5324680">
        <ele>697.0</ele>
        <time>2020-09-29T16:47:56Z</time>
      </trkpt>
      <trkpt lat="40.7880700" lon="-3.5324170">
        <ele>697.0</ele>
        <time>2020-09-29T16:47:57Z</time>
      </trkpt>
      <trkpt lat="40.7880700" lon="-3.5324170">
        <ele>697.0</ele>
        <time>2020-09-29T16:47:58Z</time>
      </trkpt>
      <trkpt lat="40.7879230" lon="-3.5323680">
        <ele>697.0</ele>
        <time>2020-09-29T16:47:59Z</time>
      </trkpt>
      <trkpt lat="40.7879230" lon="-3.5323680">
        <ele>697.0</ele>
        <time>2020-09-29T16:48:00Z</time>
      </trkpt>
      <trkpt lat="40.7877770" lon="-3.5323170">
        <ele>697.0</ele>
        <time>2020-09-29T16:48:01Z</time>
      </trkpt>
      <trkpt lat="40.7877770" lon="-3.5323170">
        <ele>697.0</ele>
        <time>2020-09-29T16:48:02Z</time>
      </trkpt>
      <trkpt lat="40.7876330" lon="-3.5322680">
        <ele>697.0</ele>
        <time>2020-09-29T16:48:03Z</time>
      </trkpt>
      <trkpt lat="40.7876330" lon="-3.5322680">
        <ele>697.0</ele>
        <time>2020-09-29T16:48:04Z</time>
      </trkpt>
      <trkpt lat="40.7874900" lon="-3.5322200">
        <ele>697.0</ele>
        <time>2020-09-29T16:48:05Z</time>
      </trkpt>
      <trkpt lat="40.7874900" lon="-3.5322200">
        <ele>696.0</ele>
        <time>2020-09-29T16:48:06Z</time>
      </trkpt>
      <trkpt lat="40.7873450" lon="-3.5321670">
        <ele>696.0</ele>
        <time>2020-09-29T16:48:07Z</time>
      </trkpt>
      <trkpt lat="40.7873450" lon="-3.5321670">
        <ele>696.0</ele>
        <time>2020-09-29T16:48:08Z</time>
      </trkpt>
      <trkpt lat="40.7871970" lon="-3.5321150">
        <ele>696.0</ele>
        <time>2020-09-29T16:48:09Z</time>
      </trkpt>
      <trkpt lat="40.7871230" lon="-3.5320900">
        <ele>696.0</ele>
        <time>2020-09-29T16:48:10Z</time>
      </trkpt>
      <trkpt lat="40.7870500" lon="-3.5320670">
        <ele>696.0</ele>
        <time>2020-09-29T16:48:11Z</time>
      </trkpt>
      <trkpt lat="40.7870500" lon="-3.5320670">
        <ele>696.0</ele>
        <time>2020-09-29T16:48:12Z</time>
      </trkpt>
      <trkpt lat="40.7869070" lon="-3.5320180">
        <ele>696.0</ele>
        <time>2020-09-29T16:48:13Z</time>
      </trkpt>
      <trkpt lat="40.7869070" lon="-3.5320180">
        <ele>696.0</ele>
        <time>2020-09-29T16:48:14Z</time>
      </trkpt>
      <trkpt lat="40.7867630" lon="-3.5319700">
        <ele>696.0</ele>
        <time>2020-09-29T16:48:15Z</time>
      </trkpt>
      <trkpt lat="40.7866930" lon="-3.5319450">
        <ele>696.0</ele>
        <time>2020-09-29T16:48:16Z</time>
      </trkpt>
      <trkpt lat="40.7866930" lon="-3.5319450">
        <ele>696.0</ele>
        <time>2020-09-29T16:48:17Z</time>
      </trkpt>
      <trkpt lat="40.7865500" lon="-3.5318950">
        <ele>696.0</ele>
        <time>2020-09-29T16:48:18Z</time>
      </trkpt>
      <trkpt lat="40.7865500" lon="-3.5318950">
        <ele>696.0</ele>
        <time>2020-09-29T16:48:19Z</time>
      </trkpt>
      <trkpt lat="40.7864100" lon="-3.5318450">
        <ele>696.0</ele>
        <time>2020-09-29T16:48:20Z</time>
      </trkpt>
      <trkpt lat="40.7864100" lon="-3.5318450">
        <ele>696.0</ele>
        <time>2020-09-29T16:48:21Z</time>
      </trkpt>
      <trkpt lat="40.7862700" lon="-3.5317920">
        <ele>696.0</ele>
        <time>2020-09-29T16:48:22Z</time>
      </trkpt>
      <trkpt lat="40.7862700" lon="-3.5317920">
        <ele>696.0</ele>
        <time>2020-09-29T16:48:23Z</time>
      </trkpt>
      <trkpt lat="40.7861350" lon="-3.5317330">
        <ele>696.0</ele>
        <time>2020-09-29T16:48:24Z</time>
      </trkpt>
      <trkpt lat="40.7861350" lon="-3.5317330">
        <ele>696.0</ele>
        <time>2020-09-29T16:48:25Z</time>
      </trkpt>
      <trkpt lat="40.7859900" lon="-3.5316830">
        <ele>696.0</ele>
        <time>2020-09-29T16:48:26Z</time>
      </trkpt>
      <trkpt lat="40.7859900" lon="-3.5316830">
        <ele>696.0</ele>
        <time>2020-09-29T16:48:27Z</time>
      </trkpt>
      <trkpt lat="40.7858430" lon="-3.5316330">
        <ele>696.0</ele>
        <time>2020-09-29T16:48:28Z</time>
      </trkpt>
      <trkpt lat="40.7857700" lon="-3.5316120">
        <ele>696.0</ele>
        <time>2020-09-29T16:48:29Z</time>
      </trkpt>
      <trkpt lat="40.7857700" lon="-3.5316120">
        <ele>696.0</ele>
        <time>2020-09-29T16:48:30Z</time>
      </trkpt>
      <trkpt lat="40.7856220" lon="-3.5315620">
        <ele>696.0</ele>
        <time>2020-09-29T16:48:31Z</time>
      </trkpt>
      <trkpt lat="40.7856220" lon="-3.5315620">
        <ele>696.0</ele>
        <time>2020-09-29T16:48:32Z</time>
      </trkpt>
      <trkpt lat="40.7854720" lon="-3.5315130">
        <ele>696.0</ele>
        <time>2020-09-29T16:48:33Z</time>
      </trkpt>
      <trkpt lat="40.7853970" lon="-3.5314880">
        <ele>696.0</ele>
        <time>2020-09-29T16:48:34Z</time>
      </trkpt>
      <trkpt lat="40.7853970" lon="-3.5314880">
        <ele>696.0</ele>
        <time>2020-09-29T16:48:35Z</time>
      </trkpt>
      <trkpt lat="40.7852430" lon="-3.5314380">
        <ele>696.0</ele>
        <time>2020-09-29T16:48:36Z</time>
      </trkpt>
      <trkpt lat="40.7852430" lon="-3.5314380">
        <ele>696.0</ele>
        <time>2020-09-29T16:48:37Z</time>
      </trkpt>
      <trkpt lat="40.7850930" lon="-3.5313850">
        <ele>695.0</ele>
        <time>2020-09-29T16:48:38Z</time>
      </trkpt>
      <trkpt lat="40.7850930" lon="-3.5313850">
        <ele>695.0</ele>
        <time>2020-09-29T16:48:39Z</time>
      </trkpt>
      <trkpt lat="40.7849430" lon="-3.5313330">
        <ele>695.0</ele>
        <time>2020-09-29T16:48:40Z</time>
      </trkpt>
      <trkpt lat="40.7848680" lon="-3.5313100">
        <ele>695.0</ele>
        <time>2020-09-29T16:48:41Z</time>
      </trkpt>
      <trkpt lat="40.7848680" lon="-3.5313100">
        <ele>695.0</ele>
        <time>2020-09-29T16:48:42Z</time>
      </trkpt>
      <trkpt lat="40.7847180" lon="-3.5312570">
        <ele>695.0</ele>
        <time>2020-09-29T16:48:43Z</time>
      </trkpt>
      <trkpt lat="40.7847180" lon="-3.5312570">
        <ele>695.0</ele>
        <time>2020-09-29T16:48:44Z</time>
      </trkpt>
      <trkpt lat="40.7845700" lon="-3.5312050">
        <ele>695.0</ele>
        <time>2020-09-29T16:48:45Z</time>
      </trkpt>
      <trkpt lat="40.7845700" lon="-3.5312050">
        <ele>694.0</ele>
        <time>2020-09-29T16:48:46Z</time>
      </trkpt>
      <trkpt lat="40.7844250" lon="-3.5311530">
        <ele>694.0</ele>
        <time>2020-09-29T16:48:47Z</time>
      </trkpt>
      <trkpt lat="40.7844250" lon="-3.5311530">
        <ele>694.0</ele>
        <time>2020-09-29T16:48:48Z</time>
      </trkpt>
      <trkpt lat="40.7842800" lon="-3.5311030">
        <ele>694.0</ele>
        <time>2020-09-29T16:48:49Z</time>
      </trkpt>
      <trkpt lat="40.7842070" lon="-3.5310770">
        <ele>694.0</ele>
        <time>2020-09-29T16:48:50Z</time>
      </trkpt>
      <trkpt lat="40.7842070" lon="-3.5310770">
        <ele>694.0</ele>
        <time>2020-09-29T16:48:51Z</time>
      </trkpt>
      <trkpt lat="40.7840620" lon="-3.5310230">
        <ele>694.0</ele>
        <time>2020-09-29T16:48:52Z</time>
      </trkpt>
      <trkpt lat="40.7839880" lon="-3.5309970">
        <ele>694.0</ele>
        <time>2020-09-29T16:48:53Z</time>
      </trkpt>
      <trkpt lat="40.7839880" lon="-3.5309970">
        <ele>694.0</ele>
        <time>2020-09-29T16:48:54Z</time>
      </trkpt>
      <trkpt lat="40.7838470" lon="-3.5309470">
        <ele>694.0</ele>
        <time>2020-09-29T16:48:55Z</time>
      </trkpt>
      <trkpt lat="40.7838470" lon="-3.5309470">
        <ele>694.0</ele>
        <time>2020-09-29T16:48:56Z</time>
      </trkpt>
      <trkpt lat="40.7837020" lon="-3.5308950">
        <ele>694.0</ele>
        <time>2020-09-29T16:48:57Z</time>
      </trkpt>
      <trkpt lat="40.7837020" lon="-3.5308950">
        <ele>694.0</ele>
        <time>2020-09-29T16:48:58Z</time>
      </trkpt>
      <trkpt lat="40.7835580" lon="-3.5308450">
        <ele>694.0</ele>
        <time>2020-09-29T16:48:59Z</time>
      </trkpt>
      <trkpt lat="40.7834870" lon="-3.5308180">
        <ele>693.0</ele>
        <time>2020-09-29T16:49:00Z</time>
      </trkpt>
      <trkpt lat="40.7834150" lon="-3.5307930">
        <ele>693.0</ele>
        <time>2020-09-29T16:49:01Z</time>
      </trkpt>
      <trkpt lat="40.7834150" lon="-3.5307930">
        <ele>693.0</ele>
        <time>2020-09-29T16:49:02Z</time>
      </trkpt>
      <trkpt lat="40.7832720" lon="-3.5307430">
        <ele>693.0</ele>
        <time>2020-09-29T16:49:03Z</time>
      </trkpt>
      <trkpt lat="40.7832720" lon="-3.5307430">
        <ele>693.0</ele>
        <time>2020-09-29T16:49:04Z</time>
      </trkpt>
      <trkpt lat="40.7831280" lon="-3.5306930">
        <ele>693.0</ele>
        <time>2020-09-29T16:49:05Z</time>
      </trkpt>
      <trkpt lat="40.7831280" lon="-3.5306930">
        <ele>693.0</ele>
        <time>2020-09-29T16:49:06Z</time>
      </trkpt>
      <trkpt lat="40.7829800" lon="-3.5306400">
        <ele>693.0</ele>
        <time>2020-09-29T16:49:07Z</time>
      </trkpt>
      <trkpt lat="40.7829800" lon="-3.5306400">
        <ele>692.0</ele>
        <time>2020-09-29T16:49:08Z</time>
      </trkpt>
      <trkpt lat="40.7828320" lon="-3.5305880">
        <ele>692.0</ele>
        <time>2020-09-29T16:49:09Z</time>
      </trkpt>
      <trkpt lat="40.7827570" lon="-3.5305620">
        <ele>692.0</ele>
        <time>2020-09-29T16:49:10Z</time>
      </trkpt>
      <trkpt lat="40.7827570" lon="-3.5305620">
        <ele>692.0</ele>
        <time>2020-09-29T16:49:11Z</time>
      </trkpt>
      <trkpt lat="40.7826030" lon="-3.5305100">
        <ele>692.0</ele>
        <time>2020-09-29T16:49:12Z</time>
      </trkpt>
      <trkpt lat="40.7825250" lon="-3.5304830">
        <ele>691.0</ele>
        <time>2020-09-29T16:49:13Z</time>
      </trkpt>
      <trkpt lat="40.7825250" lon="-3.5304830">
        <ele>691.0</ele>
        <time>2020-09-29T16:49:14Z</time>
      </trkpt>
      <trkpt lat="40.7823700" lon="-3.5304320">
        <ele>691.0</ele>
        <time>2020-09-29T16:49:15Z</time>
      </trkpt>
      <trkpt lat="40.7823700" lon="-3.5304320">
        <ele>691.0</ele>
        <time>2020-09-29T16:49:16Z</time>
      </trkpt>
      <trkpt lat="40.7822100" lon="-3.5303750">
        <ele>691.0</ele>
        <time>2020-09-29T16:49:17Z</time>
      </trkpt>
      <trkpt lat="40.7822100" lon="-3.5303750">
        <ele>691.0</ele>
        <time>2020-09-29T16:49:18Z</time>
      </trkpt>
      <trkpt lat="40.7820520" lon="-3.5303200">
        <ele>691.0</ele>
        <time>2020-09-29T16:49:19Z</time>
      </trkpt>
      <trkpt lat="40.7820520" lon="-3.5303200">
        <ele>691.0</ele>
        <time>2020-09-29T16:49:20Z</time>
      </trkpt>
      <trkpt lat="40.7818970" lon="-3.5302650">
        <ele>691.0</ele>
        <time>2020-09-29T16:49:21Z</time>
      </trkpt>
      <trkpt lat="40.7818970" lon="-3.5302650">
        <ele>691.0</ele>
        <time>2020-09-29T16:49:22Z</time>
      </trkpt>
      <trkpt lat="40.7817400" lon="-3.5302080">
        <ele>691.0</ele>
        <time>2020-09-29T16:49:23Z</time>
      </trkpt>
      <trkpt lat="40.7816600" lon="-3.5301820">
        <ele>691.0</ele>
        <time>2020-09-29T16:49:24Z</time>
      </trkpt>
      <trkpt lat="40.7816600" lon="-3.5301820">
        <ele>691.0</ele>
        <time>2020-09-29T16:49:25Z</time>
      </trkpt>
      <trkpt lat="40.7815020" lon="-3.5301280">
        <ele>691.0</ele>
        <time>2020-09-29T16:49:26Z</time>
      </trkpt>
      <trkpt lat="40.7814220" lon="-3.5301020">
        <ele>690.0</ele>
        <time>2020-09-29T16:49:27Z</time>
      </trkpt>
      <trkpt lat="40.7814220" lon="-3.5301020">
        <ele>690.0</ele>
        <time>2020-09-29T16:49:28Z</time>
      </trkpt>
      <trkpt lat="40.7812630" lon="-3.5300450">
        <ele>690.0</ele>
        <time>2020-09-29T16:49:29Z</time>
      </trkpt>
      <trkpt lat="40.7812630" lon="-3.5300450">
        <ele>690.0</ele>
        <time>2020-09-29T16:49:30Z</time>
      </trkpt>
      <trkpt lat="40.7811070" lon="-3.5299920">
        <ele>690.0</ele>
        <time>2020-09-29T16:49:31Z</time>
      </trkpt>
      <trkpt lat="40.7811070" lon="-3.5299920">
        <ele>690.0</ele>
        <time>2020-09-29T16:49:32Z</time>
      </trkpt>
      <trkpt lat="40.7809480" lon="-3.5299400">
        <ele>690.0</ele>
        <time>2020-09-29T16:49:33Z</time>
      </trkpt>
      <trkpt lat="40.7809480" lon="-3.5299400">
        <ele>690.0</ele>
        <time>2020-09-29T16:49:34Z</time>
      </trkpt>
      <trkpt lat="40.7808700" lon="-3.5299120">
        <ele>689.0</ele>
        <time>2020-09-29T16:49:35Z</time>
      </trkpt>
      <trkpt lat="40.7807120" lon="-3.5298570">
        <ele>689.0</ele>
        <time>2020-09-29T16:49:36Z</time>
      </trkpt>
      <trkpt lat="40.7806320" lon="-3.5298280">
        <ele>689.0</ele>
        <time>2020-09-29T16:49:37Z</time>
      </trkpt>
      <trkpt lat="40.7806320" lon="-3.5298280">
        <ele>689.0</ele>
        <time>2020-09-29T16:49:38Z</time>
      </trkpt>
      <trkpt lat="40.7804720" lon="-3.5297720">
        <ele>688.0</ele>
        <time>2020-09-29T16:49:39Z</time>
      </trkpt>
      <trkpt lat="40.7804720" lon="-3.5297720">
        <ele>688.0</ele>
        <time>2020-09-29T16:49:40Z</time>
      </trkpt>
      <trkpt lat="40.7803120" lon="-3.5297120">
        <ele>688.0</ele>
        <time>2020-09-29T16:49:41Z</time>
      </trkpt>
      <trkpt lat="40.7803120" lon="-3.5297120">
        <ele>688.0</ele>
        <time>2020-09-29T16:49:42Z</time>
      </trkpt>
      <trkpt lat="40.7801500" lon="-3.5296550">
        <ele>688.0</ele>
        <time>2020-09-29T16:49:43Z</time>
      </trkpt>
      <trkpt lat="40.7801500" lon="-3.5296550">
        <ele>688.0</ele>
        <time>2020-09-29T16:49:44Z</time>
      </trkpt>
      <trkpt lat="40.7799880" lon="-3.5296000">
        <ele>687.0</ele>
        <time>2020-09-29T16:49:45Z</time>
      </trkpt>
      <trkpt lat="40.7799880" lon="-3.5296000">
        <ele>687.0</ele>
        <time>2020-09-29T16:49:46Z</time>
      </trkpt>
      <trkpt lat="40.7798250" lon="-3.5295420">
        <ele>687.0</ele>
        <time>2020-09-29T16:49:47Z</time>
      </trkpt>
      <trkpt lat="40.7798250" lon="-3.5295420">
        <ele>687.0</ele>
        <time>2020-09-29T16:49:48Z</time>
      </trkpt>
      <trkpt lat="40.7796670" lon="-3.5294850">
        <ele>687.0</ele>
        <time>2020-09-29T16:49:49Z</time>
      </trkpt>
      <trkpt lat="40.7796670" lon="-3.5294850">
        <ele>687.0</ele>
        <time>2020-09-29T16:49:50Z</time>
      </trkpt>
      <trkpt lat="40.7795100" lon="-3.5294300">
        <ele>687.0</ele>
        <time>2020-09-29T16:49:51Z</time>
      </trkpt>
      <trkpt lat="40.7795100" lon="-3.5294300">
        <ele>687.0</ele>
        <time>2020-09-29T16:49:52Z</time>
      </trkpt>
      <trkpt lat="40.7793550" lon="-3.5293730">
        <ele>687.0</ele>
        <time>2020-09-29T16:49:53Z</time>
      </trkpt>
      <trkpt lat="40.7793550" lon="-3.5293730">
        <ele>687.0</ele>
        <time>2020-09-29T16:49:54Z</time>
      </trkpt>
      <trkpt lat="40.7792030" lon="-3.5293130">
        <ele>687.0</ele>
        <time>2020-09-29T16:49:55Z</time>
      </trkpt>
      <trkpt lat="40.7792030" lon="-3.5293130">
        <ele>687.0</ele>
        <time>2020-09-29T16:49:56Z</time>
      </trkpt>
      <trkpt lat="40.7790470" lon="-3.5292520">
        <ele>687.0</ele>
        <time>2020-09-29T16:49:57Z</time>
      </trkpt>
      <trkpt lat="40.7790470" lon="-3.5292520">
        <ele>687.0</ele>
        <time>2020-09-29T16:49:58Z</time>
      </trkpt>
      <trkpt lat="40.7788920" lon="-3.5291850">
        <ele>687.0</ele>
        <time>2020-09-29T16:49:59Z</time>
      </trkpt>
      <trkpt lat="40.7788920" lon="-3.5291850">
        <ele>687.0</ele>
        <time>2020-09-29T16:50:00Z</time>
      </trkpt>
      <trkpt lat="40.7787380" lon="-3.5291170">
        <ele>687.0</ele>
        <time>2020-09-29T16:50:01Z</time>
      </trkpt>
      <trkpt lat="40.7787380" lon="-3.5291170">
        <ele>687.0</ele>
        <time>2020-09-29T16:50:02Z</time>
      </trkpt>
      <trkpt lat="40.7785870" lon="-3.5290380">
        <ele>686.0</ele>
        <time>2020-09-29T16:50:03Z</time>
      </trkpt>
      <trkpt lat="40.7785870" lon="-3.5290380">
        <ele>686.0</ele>
        <time>2020-09-29T16:50:04Z</time>
      </trkpt>
      <trkpt lat="40.7784350" lon="-3.5289550">
        <ele>686.0</ele>
        <time>2020-09-29T16:50:05Z</time>
      </trkpt>
      <trkpt lat="40.7784350" lon="-3.5289550">
        <ele>686.0</ele>
        <time>2020-09-29T16:50:06Z</time>
      </trkpt>
      <trkpt lat="40.7782820" lon="-3.5288650">
        <ele>686.0</ele>
        <time>2020-09-29T16:50:07Z</time>
      </trkpt>
      <trkpt lat="40.7782820" lon="-3.5288650">
        <ele>686.0</ele>
        <time>2020-09-29T16:50:08Z</time>
      </trkpt>
      <trkpt lat="40.7781330" lon="-3.5287680">
        <ele>685.0</ele>
        <time>2020-09-29T16:50:09Z</time>
      </trkpt>
      <trkpt lat="40.7780580" lon="-3.5287180">
        <ele>685.0</ele>
        <time>2020-09-29T16:50:10Z</time>
      </trkpt>
      <trkpt lat="40.7780580" lon="-3.5287180">
        <ele>685.0</ele>
        <time>2020-09-29T16:50:11Z</time>
      </trkpt>
      <trkpt lat="40.7779120" lon="-3.5286170">
        <ele>685.0</ele>
        <time>2020-09-29T16:50:12Z</time>
      </trkpt>
      <trkpt lat="40.7778400" lon="-3.5285620">
        <ele>684.0</ele>
        <time>2020-09-29T16:50:13Z</time>
      </trkpt>
      <trkpt lat="40.7778400" lon="-3.5285620">
        <ele>684.0</ele>
        <time>2020-09-29T16:50:14Z</time>
      </trkpt>
      <trkpt lat="40.7776980" lon="-3.5284480">
        <ele>684.0</ele>
        <time>2020-09-29T16:50:15Z</time>
      </trkpt>
      <trkpt lat="40.7776980" lon="-3.5284480">
        <ele>684.0</ele>
        <time>2020-09-29T16:50:16Z</time>
      </trkpt>
      <trkpt lat="40.7775620" lon="-3.5283330">
        <ele>684.0</ele>
        <time>2020-09-29T16:50:17Z</time>
      </trkpt>
      <trkpt lat="40.7774920" lon="-3.5282730">
        <ele>684.0</ele>
        <time>2020-09-29T16:50:18Z</time>
      </trkpt>
      <trkpt lat="40.7774230" lon="-3.5282150">
        <ele>684.0</ele>
        <time>2020-09-29T16:50:19Z</time>
      </trkpt>
      <trkpt lat="40.7774230" lon="-3.5282150">
        <ele>684.0</ele>
        <time>2020-09-29T16:50:20Z</time>
      </trkpt>
      <trkpt lat="40.7774230" lon="-3.5282150">
        <ele>683.0</ele>
        <time>2020-09-29T16:50:21Z</time>
      </trkpt>
      <trkpt lat="40.7772900" lon="-3.5280880">
        <ele>683.0</ele>
        <time>2020-09-29T16:50:22Z</time>
      </trkpt>
      <trkpt lat="40.7771620" lon="-3.5279600">
        <ele>683.0</ele>
        <time>2020-09-29T16:50:23Z</time>
      </trkpt>
      <trkpt lat="40.7771620" lon="-3.5279600">
        <ele>683.0</ele>
        <time>2020-09-29T16:50:24Z</time>
      </trkpt>
      <trkpt lat="40.7770320" lon="-3.5278270">
        <ele>683.0</ele>
        <time>2020-09-29T16:50:25Z</time>
      </trkpt>
      <trkpt lat="40.7770320" lon="-3.5278270">
        <ele>683.0</ele>
        <time>2020-09-29T16:50:26Z</time>
      </trkpt>
      <trkpt lat="40.7769080" lon="-3.5276900">
        <ele>683.0</ele>
        <time>2020-09-29T16:50:27Z</time>
      </trkpt>
      <trkpt lat="40.7768480" lon="-3.5276180">
        <ele>683.0</ele>
        <time>2020-09-29T16:50:28Z</time>
      </trkpt>
      <trkpt lat="40.7768480" lon="-3.5276180">
        <ele>683.0</ele>
        <time>2020-09-29T16:50:29Z</time>
      </trkpt>
      <trkpt lat="40.7767320" lon="-3.5274730">
        <ele>682.0</ele>
        <time>2020-09-29T16:50:30Z</time>
      </trkpt>
      <trkpt lat="40.7766730" lon="-3.5273980">
        <ele>682.0</ele>
        <time>2020-09-29T16:50:31Z</time>
      </trkpt>
      <trkpt lat="40.7766730" lon="-3.5273980">
        <ele>682.0</ele>
        <time>2020-09-29T16:50:32Z</time>
      </trkpt>
      <trkpt lat="40.7765600" lon="-3.5272520">
        <ele>682.0</ele>
        <time>2020-09-29T16:50:33Z</time>
      </trkpt>
      <trkpt lat="40.7765080" lon="-3.5271800">
        <ele>682.0</ele>
        <time>2020-09-29T16:50:34Z</time>
      </trkpt>
      <trkpt lat="40.7765080" lon="-3.5271800">
        <ele>682.0</ele>
        <time>2020-09-29T16:50:35Z</time>
      </trkpt>
      <trkpt lat="40.7764050" lon="-3.5270330">
        <ele>682.0</ele>
        <time>2020-09-29T16:50:36Z</time>
      </trkpt>
      <trkpt lat="40.7763550" lon="-3.5269570">
        <ele>682.0</ele>
        <time>2020-09-29T16:50:37Z</time>
      </trkpt>
      <trkpt lat="40.7763550" lon="-3.5269570">
        <ele>682.0</ele>
        <time>2020-09-29T16:50:38Z</time>
      </trkpt>
      <trkpt lat="40.7762620" lon="-3.5267980">
        <ele>683.0</ele>
        <time>2020-09-29T16:50:39Z</time>
      </trkpt>
      <trkpt lat="40.7762620" lon="-3.5267980">
        <ele>683.0</ele>
        <time>2020-09-29T16:50:40Z</time>
      </trkpt>
      <trkpt lat="40.7761700" lon="-3.5266400">
        <ele>683.0</ele>
        <time>2020-09-29T16:50:41Z</time>
      </trkpt>
      <trkpt lat="40.7761700" lon="-3.5266400">
        <ele>683.0</ele>
        <time>2020-09-29T16:50:42Z</time>
      </trkpt>
      <trkpt lat="40.7761270" lon="-3.5265630">
        <ele>683.0</ele>
        <time>2020-09-29T16:50:43Z</time>
      </trkpt>
      <trkpt lat="40.7760380" lon="-3.5264020">
        <ele>683.0</ele>
        <time>2020-09-29T16:50:44Z</time>
      </trkpt>
      <trkpt lat="40.7760380" lon="-3.5264020">
        <ele>683.0</ele>
        <time>2020-09-29T16:50:45Z</time>
      </trkpt>
      <trkpt lat="40.7759480" lon="-3.5262400">
        <ele>683.0</ele>
        <time>2020-09-29T16:50:46Z</time>
      </trkpt>
      <trkpt lat="40.7759480" lon="-3.5262400">
        <ele>683.0</ele>
        <time>2020-09-29T16:50:47Z</time>
      </trkpt>
      <trkpt lat="40.7758630" lon="-3.5260780">
        <ele>683.0</ele>
        <time>2020-09-29T16:50:48Z</time>
      </trkpt>
      <trkpt lat="40.7758230" lon="-3.5259970">
        <ele>683.0</ele>
        <time>2020-09-29T16:50:49Z</time>
      </trkpt>
      <trkpt lat="40.7758230" lon="-3.5259970">
        <ele>683.0</ele>
        <time>2020-09-29T16:50:50Z</time>
      </trkpt>
      <trkpt lat="40.7757470" lon="-3.5258280">
        <ele>683.0</ele>
        <time>2020-09-29T16:50:51Z</time>
      </trkpt>
      <trkpt lat="40.7757470" lon="-3.5258280">
        <ele>683.0</ele>
        <time>2020-09-29T16:50:52Z</time>
      </trkpt>
      <trkpt lat="40.7756700" lon="-3.5256620">
        <ele>683.0</ele>
        <time>2020-09-29T16:50:53Z</time>
      </trkpt>
      <trkpt lat="40.7756700" lon="-3.5256620">
        <ele>683.0</ele>
        <time>2020-09-29T16:50:54Z</time>
      </trkpt>
      <trkpt lat="40.7755970" lon="-3.5254950">
        <ele>683.0</ele>
        <time>2020-09-29T16:50:55Z</time>
      </trkpt>
      <trkpt lat="40.7755580" lon="-3.5254070">
        <ele>683.0</ele>
        <time>2020-09-29T16:50:56Z</time>
      </trkpt>
      <trkpt lat="40.7755580" lon="-3.5254070">
        <ele>683.0</ele>
        <time>2020-09-29T16:50:57Z</time>
      </trkpt>
      <trkpt lat="40.7754970" lon="-3.5252320">
        <ele>683.0</ele>
        <time>2020-09-29T16:50:58Z</time>
      </trkpt>
      <trkpt lat="40.7754970" lon="-3.5252320">
        <ele>683.0</ele>
        <time>2020-09-29T16:50:59Z</time>
      </trkpt>
      <trkpt lat="40.7754380" lon="-3.5250520">
        <ele>683.0</ele>
        <time>2020-09-29T16:51:00Z</time>
      </trkpt>
      <trkpt lat="40.7754050" lon="-3.5249620">
        <ele>683.0</ele>
        <time>2020-09-29T16:51:01Z</time>
      </trkpt>
      <trkpt lat="40.7754050" lon="-3.5249620">
        <ele>683.0</ele>
        <time>2020-09-29T16:51:02Z</time>
      </trkpt>
      <trkpt lat="40.7753380" lon="-3.5247770">
        <ele>683.0</ele>
        <time>2020-09-29T16:51:03Z</time>
      </trkpt>
      <trkpt lat="40.7753050" lon="-3.5246850">
        <ele>683.0</ele>
        <time>2020-09-29T16:51:04Z</time>
      </trkpt>
      <trkpt lat="40.7753050" lon="-3.5246850">
        <ele>683.0</ele>
        <time>2020-09-29T16:51:05Z</time>
      </trkpt>
      <trkpt lat="40.7752400" lon="-3.5244980">
        <ele>683.0</ele>
        <time>2020-09-29T16:51:06Z</time>
      </trkpt>
      <trkpt lat="40.7752070" lon="-3.5244050">
        <ele>682.0</ele>
        <time>2020-09-29T16:51:07Z</time>
      </trkpt>
      <trkpt lat="40.7752070" lon="-3.5244050">
        <ele>682.0</ele>
        <time>2020-09-29T16:51:08Z</time>
      </trkpt>
      <trkpt lat="40.7751400" lon="-3.5242200">
        <ele>682.0</ele>
        <time>2020-09-29T16:51:09Z</time>
      </trkpt>
      <trkpt lat="40.7751400" lon="-3.5242200">
        <ele>682.0</ele>
        <time>2020-09-29T16:51:10Z</time>
      </trkpt>
      <trkpt lat="40.7750730" lon="-3.5240320">
        <ele>682.0</ele>
        <time>2020-09-29T16:51:11Z</time>
      </trkpt>
      <trkpt lat="40.7750730" lon="-3.5240320">
        <ele>682.0</ele>
        <time>2020-09-29T16:51:12Z</time>
      </trkpt>
      <trkpt lat="40.7750080" lon="-3.5238450">
        <ele>682.0</ele>
        <time>2020-09-29T16:51:13Z</time>
      </trkpt>
      <trkpt lat="40.7750080" lon="-3.5238450">
        <ele>682.0</ele>
        <time>2020-09-29T16:51:14Z</time>
      </trkpt>
      <trkpt lat="40.7749500" lon="-3.5236570">
        <ele>682.0</ele>
        <time>2020-09-29T16:51:15Z</time>
      </trkpt>
      <trkpt lat="40.7749500" lon="-3.5236570">
        <ele>682.0</ele>
        <time>2020-09-29T16:51:16Z</time>
      </trkpt>
      <trkpt lat="40.7748930" lon="-3.5234720">
        <ele>682.0</ele>
        <time>2020-09-29T16:51:17Z</time>
      </trkpt>
      <trkpt lat="40.7748620" lon="-3.5233780">
        <ele>682.0</ele>
        <time>2020-09-29T16:51:18Z</time>
      </trkpt>
      <trkpt lat="40.7748300" lon="-3.5232850">
        <ele>682.0</ele>
        <time>2020-09-29T16:51:19Z</time>
      </trkpt>
      <trkpt lat="40.7748300" lon="-3.5232850">
        <ele>682.0</ele>
        <time>2020-09-29T16:51:20Z</time>
      </trkpt>
      <trkpt lat="40.7747600" lon="-3.5230970">
        <ele>682.0</ele>
        <time>2020-09-29T16:51:21Z</time>
      </trkpt>
      <trkpt lat="40.7747600" lon="-3.5230970">
        <ele>682.0</ele>
        <time>2020-09-29T16:51:22Z</time>
      </trkpt>
      <trkpt lat="40.7746920" lon="-3.5229120">
        <ele>682.0</ele>
        <time>2020-09-29T16:51:23Z</time>
      </trkpt>
      <trkpt lat="40.7746920" lon="-3.5229120">
        <ele>682.0</ele>
        <time>2020-09-29T16:51:24Z</time>
      </trkpt>
      <trkpt lat="40.7746300" lon="-3.5227280">
        <ele>682.0</ele>
        <time>2020-09-29T16:51:25Z</time>
      </trkpt>
      <trkpt lat="40.7746300" lon="-3.5227280">
        <ele>682.0</ele>
        <time>2020-09-29T16:51:26Z</time>
      </trkpt>
      <trkpt lat="40.7746300" lon="-3.5227280">
        <ele>682.0</ele>
        <time>2020-09-29T16:51:27Z</time>
      </trkpt>
      <trkpt lat="40.7745620" lon="-3.5225470">
        <ele>682.0</ele>
        <time>2020-09-29T16:51:28Z</time>
      </trkpt>
      <trkpt lat="40.7744950" lon="-3.5223600">
        <ele>682.0</ele>
        <time>2020-09-29T16:51:29Z</time>
      </trkpt>
      <trkpt lat="40.7744630" lon="-3.5222700">
        <ele>682.0</ele>
        <time>2020-09-29T16:51:30Z</time>
      </trkpt>
      <trkpt lat="40.7744630" lon="-3.5222700">
        <ele>682.0</ele>
        <time>2020-09-29T16:51:31Z</time>
      </trkpt>
      <trkpt lat="40.7743920" lon="-3.5220870">
        <ele>682.0</ele>
        <time>2020-09-29T16:51:32Z</time>
      </trkpt>
      <trkpt lat="40.7743920" lon="-3.5220870">
        <ele>682.0</ele>
        <time>2020-09-29T16:51:33Z</time>
      </trkpt>
      <trkpt lat="40.7743170" lon="-3.5218840">
        <ele>682.0</ele>
        <time>2020-09-29T16:51:34Z</time>
      </trkpt>
      <trkpt lat="40.7743090" lon="-3.5218620">
        <ele>682.0</ele>
        <time>2020-09-29T16:51:35Z</time>
      </trkpt>
      <trkpt lat="40.7742920" lon="-3.5218170">
        <ele>682.0</ele>
        <time>2020-09-29T16:51:36Z</time>
      </trkpt>
      <trkpt lat="40.7742280" lon="-3.5216380">
        <ele>682.0</ele>
        <time>2020-09-29T16:51:37Z</time>
      </trkpt>
      <trkpt lat="40.7742280" lon="-3.5216380">
        <ele>682.0</ele>
        <time>2020-09-29T16:51:38Z</time>
      </trkpt>
      <trkpt lat="40.7741670" lon="-3.5214600">
        <ele>682.0</ele>
        <time>2020-09-29T16:51:39Z</time>
      </trkpt>
      <trkpt lat="40.7741670" lon="-3.5214600">
        <ele>682.0</ele>
        <time>2020-09-29T16:51:40Z</time>
      </trkpt>
      <trkpt lat="40.7741000" lon="-3.5212830">
        <ele>682.0</ele>
        <time>2020-09-29T16:51:41Z</time>
      </trkpt>
      <trkpt lat="40.7741000" lon="-3.5212830">
        <ele>682.0</ele>
        <time>2020-09-29T16:51:42Z</time>
      </trkpt>
      <trkpt lat="40.7740330" lon="-3.5211030">
        <ele>682.0</ele>
        <time>2020-09-29T16:51:43Z</time>
      </trkpt>
      <trkpt lat="40.7740330" lon="-3.5211030">
        <ele>682.0</ele>
        <time>2020-09-29T16:51:44Z</time>
      </trkpt>
      <trkpt lat="40.7739700" lon="-3.5209150">
        <ele>682.0</ele>
        <time>2020-09-29T16:51:45Z</time>
      </trkpt>
      <trkpt lat="40.7739370" lon="-3.5208180">
        <ele>682.0</ele>
        <time>2020-09-29T16:51:46Z</time>
      </trkpt>
      <trkpt lat="40.7739370" lon="-3.5208180">
        <ele>682.0</ele>
        <time>2020-09-29T16:51:47Z</time>
      </trkpt>
      <trkpt lat="40.7738650" lon="-3.5206170">
        <ele>682.0</ele>
        <time>2020-09-29T16:51:48Z</time>
      </trkpt>
      <trkpt lat="40.7738650" lon="-3.5206170">
        <ele>681.0</ele>
        <time>2020-09-29T16:51:49Z</time>
      </trkpt>
      <trkpt lat="40.7737870" lon="-3.5204130">
        <ele>681.0</ele>
        <time>2020-09-29T16:51:50Z</time>
      </trkpt>
      <trkpt lat="40.7737450" lon="-3.5203070">
        <ele>680.0</ele>
        <time>2020-09-29T16:51:51Z</time>
      </trkpt>
      <trkpt lat="40.7737450" lon="-3.5203070">
        <ele>680.0</ele>
        <time>2020-09-29T16:51:52Z</time>
      </trkpt>
      <trkpt lat="40.7736670" lon="-3.5200950">
        <ele>680.0</ele>
        <time>2020-09-29T16:51:53Z</time>
      </trkpt>
      <trkpt lat="40.7736670" lon="-3.5200950">
        <ele>680.0</ele>
        <time>2020-09-29T16:51:54Z</time>
      </trkpt>
      <trkpt lat="40.7735880" lon="-3.5198800">
        <ele>679.0</ele>
        <time>2020-09-29T16:51:55Z</time>
      </trkpt>
      <trkpt lat="40.7735880" lon="-3.5198800">
        <ele>679.0</ele>
        <time>2020-09-29T16:51:56Z</time>
      </trkpt>
      <trkpt lat="40.7735070" lon="-3.5196620">
        <ele>679.0</ele>
        <time>2020-09-29T16:51:57Z</time>
      </trkpt>
      <trkpt lat="40.7735070" lon="-3.5196620">
        <ele>679.0</ele>
        <time>2020-09-29T16:51:58Z</time>
      </trkpt>
      <trkpt lat="40.7734250" lon="-3.5194350">
        <ele>677.0</ele>
        <time>2020-09-29T16:51:59Z</time>
      </trkpt>
      <trkpt lat="40.7733870" lon="-3.5193230">
        <ele>677.0</ele>
        <time>2020-09-29T16:52:00Z</time>
      </trkpt>
      <trkpt lat="40.7733870" lon="-3.5193230">
        <ele>677.0</ele>
        <time>2020-09-29T16:52:01Z</time>
      </trkpt>
      <trkpt lat="40.7733480" lon="-3.5192120">
        <ele>677.0</ele>
        <time>2020-09-29T16:52:02Z</time>
      </trkpt>
      <trkpt lat="40.7732750" lon="-3.5189900">
        <ele>677.0</ele>
        <time>2020-09-29T16:52:03Z</time>
      </trkpt>
      <trkpt lat="40.7732370" lon="-3.5188800">
        <ele>677.0</ele>
        <time>2020-09-29T16:52:04Z</time>
      </trkpt>
      <trkpt lat="40.7732370" lon="-3.5188800">
        <ele>677.0</ele>
        <time>2020-09-29T16:52:05Z</time>
      </trkpt>
      <trkpt lat="40.7731580" lon="-3.5186650">
        <ele>677.0</ele>
        <time>2020-09-29T16:52:06Z</time>
      </trkpt>
      <trkpt lat="40.7731180" lon="-3.5185550">
        <ele>677.0</ele>
        <time>2020-09-29T16:52:07Z</time>
      </trkpt>
      <trkpt lat="40.7731180" lon="-3.5185550">
        <ele>677.0</ele>
        <time>2020-09-29T16:52:08Z</time>
      </trkpt>
      <trkpt lat="40.7730330" lon="-3.5183450">
        <ele>677.0</ele>
        <time>2020-09-29T16:52:09Z</time>
      </trkpt>
      <trkpt lat="40.7730330" lon="-3.5183450">
        <ele>677.0</ele>
        <time>2020-09-29T16:52:10Z</time>
      </trkpt>
      <trkpt lat="40.7729430" lon="-3.5181400">
        <ele>677.0</ele>
        <time>2020-09-29T16:52:11Z</time>
      </trkpt>
      <trkpt lat="40.7729430" lon="-3.5181400">
        <ele>676.0</ele>
        <time>2020-09-29T16:52:12Z</time>
      </trkpt>
      <trkpt lat="40.7728550" lon="-3.5179450">
        <ele>676.0</ele>
        <time>2020-09-29T16:52:13Z</time>
      </trkpt>
      <trkpt lat="40.7728550" lon="-3.5179450">
        <ele>676.0</ele>
        <time>2020-09-29T16:52:14Z</time>
      </trkpt>
      <trkpt lat="40.7727680" lon="-3.5177520">
        <ele>676.0</ele>
        <time>2020-09-29T16:52:15Z</time>
      </trkpt>
      <trkpt lat="40.7727680" lon="-3.5177520">
        <ele>676.0</ele>
        <time>2020-09-29T16:52:16Z</time>
      </trkpt>
      <trkpt lat="40.7726870" lon="-3.5175580">
        <ele>676.0</ele>
        <time>2020-09-29T16:52:17Z</time>
      </trkpt>
      <trkpt lat="40.7726420" lon="-3.5174630">
        <ele>675.0</ele>
        <time>2020-09-29T16:52:18Z</time>
      </trkpt>
      <trkpt lat="40.7726420" lon="-3.5174630">
        <ele>675.0</ele>
        <time>2020-09-29T16:52:19Z</time>
      </trkpt>
      <trkpt lat="40.7725500" lon="-3.5172720">
        <ele>675.0</ele>
        <time>2020-09-29T16:52:20Z</time>
      </trkpt>
      <trkpt lat="40.7725020" lon="-3.5171750">
        <ele>675.0</ele>
        <time>2020-09-29T16:52:21Z</time>
      </trkpt>
      <trkpt lat="40.7725020" lon="-3.5171750">
        <ele>675.0</ele>
        <time>2020-09-29T16:52:22Z</time>
      </trkpt>
      <trkpt lat="40.7724100" lon="-3.5169830">
        <ele>675.0</ele>
        <time>2020-09-29T16:52:23Z</time>
      </trkpt>
      <trkpt lat="40.7723650" lon="-3.5168850">
        <ele>675.0</ele>
        <time>2020-09-29T16:52:24Z</time>
      </trkpt>
      <trkpt lat="40.7723180" lon="-3.5167850">
        <ele>675.0</ele>
        <time>2020-09-29T16:52:25Z</time>
      </trkpt>
      <trkpt lat="40.7723180" lon="-3.5167850">
        <ele>675.0</ele>
        <time>2020-09-29T16:52:26Z</time>
      </trkpt>
      <trkpt lat="40.7722220" lon="-3.5165880">
        <ele>675.0</ele>
        <time>2020-09-29T16:52:27Z</time>
      </trkpt>
      <trkpt lat="40.7721770" lon="-3.5164920">
        <ele>675.0</ele>
        <time>2020-09-29T16:52:28Z</time>
      </trkpt>
      <trkpt lat="40.7721330" lon="-3.5164000">
        <ele>675.0</ele>
        <time>2020-09-29T16:52:29Z</time>
      </trkpt>
      <trkpt lat="40.7721330" lon="-3.5164000">
        <ele>675.0</ele>
        <time>2020-09-29T16:52:30Z</time>
      </trkpt>
      <trkpt lat="40.7720450" lon="-3.5162080">
        <ele>675.0</ele>
        <time>2020-09-29T16:52:31Z</time>
      </trkpt>
      <trkpt lat="40.7720450" lon="-3.5162080">
        <ele>675.0</ele>
        <time>2020-09-29T16:52:32Z</time>
      </trkpt>
      <trkpt lat="40.7719520" lon="-3.5160180">
        <ele>675.0</ele>
        <time>2020-09-29T16:52:33Z</time>
      </trkpt>
      <trkpt lat="40.7719520" lon="-3.5160180">
        <ele>675.0</ele>
        <time>2020-09-29T16:52:34Z</time>
      </trkpt>
      <trkpt lat="40.7718600" lon="-3.5158350">
        <ele>675.0</ele>
        <time>2020-09-29T16:52:35Z</time>
      </trkpt>
      <trkpt lat="40.7718600" lon="-3.5158350">
        <ele>675.0</ele>
        <time>2020-09-29T16:52:36Z</time>
      </trkpt>
      <trkpt lat="40.7717680" lon="-3.5156470">
        <ele>675.0</ele>
        <time>2020-09-29T16:52:37Z</time>
      </trkpt>
      <trkpt lat="40.7717680" lon="-3.5156470">
        <ele>675.0</ele>
        <time>2020-09-29T16:52:38Z</time>
      </trkpt>
      <trkpt lat="40.7716750" lon="-3.5154570">
        <ele>675.0</ele>
        <time>2020-09-29T16:52:39Z</time>
      </trkpt>
      <trkpt lat="40.7716280" lon="-3.5153630">
        <ele>675.0</ele>
        <time>2020-09-29T16:52:40Z</time>
      </trkpt>
      <trkpt lat="40.7716280" lon="-3.5153630">
        <ele>675.0</ele>
        <time>2020-09-29T16:52:41Z</time>
      </trkpt>
      <trkpt lat="40.7715380" lon="-3.5151700">
        <ele>675.0</ele>
        <time>2020-09-29T16:52:42Z</time>
      </trkpt>
      <trkpt lat="40.7714980" lon="-3.5150780">
        <ele>675.0</ele>
        <time>2020-09-29T16:52:43Z</time>
      </trkpt>
      <trkpt lat="40.7714980" lon="-3.5150780">
        <ele>675.0</ele>
        <time>2020-09-29T16:52:44Z</time>
      </trkpt>
      <trkpt lat="40.7714080" lon="-3.5148930">
        <ele>675.0</ele>
        <time>2020-09-29T16:52:45Z</time>
      </trkpt>
      <trkpt lat="40.7714080" lon="-3.5148930">
        <ele>675.0</ele>
        <time>2020-09-29T16:52:46Z</time>
      </trkpt>
      <trkpt lat="40.7713170" lon="-3.5147170">
        <ele>675.0</ele>
        <time>2020-09-29T16:52:47Z</time>
      </trkpt>
      <trkpt lat="40.7713170" lon="-3.5147170">
        <ele>675.0</ele>
        <time>2020-09-29T16:52:48Z</time>
      </trkpt>
      <trkpt lat="40.7712280" lon="-3.5145370">
        <ele>675.0</ele>
        <time>2020-09-29T16:52:49Z</time>
      </trkpt>
      <trkpt lat="40.7712280" lon="-3.5145370">
        <ele>675.0</ele>
        <time>2020-09-29T16:52:50Z</time>
      </trkpt>
      <trkpt lat="40.7711370" lon="-3.5143630">
        <ele>675.0</ele>
        <time>2020-09-29T16:52:51Z</time>
      </trkpt>
      <trkpt lat="40.7711370" lon="-3.5143630">
        <ele>675.0</ele>
        <time>2020-09-29T16:52:52Z</time>
      </trkpt>
      <trkpt lat="40.7710450" lon="-3.5141870">
        <ele>675.0</ele>
        <time>2020-09-29T16:52:53Z</time>
      </trkpt>
      <trkpt lat="40.7710450" lon="-3.5141870">
        <ele>675.0</ele>
        <time>2020-09-29T16:52:54Z</time>
      </trkpt>
      <trkpt lat="40.7709470" lon="-3.5140150">
        <ele>675.0</ele>
        <time>2020-09-29T16:52:55Z</time>
      </trkpt>
      <trkpt lat="40.7709470" lon="-3.5140150">
        <ele>675.0</ele>
        <time>2020-09-29T16:52:56Z</time>
      </trkpt>
      <trkpt lat="40.7708500" lon="-3.5138520">
        <ele>675.0</ele>
        <time>2020-09-29T16:52:57Z</time>
      </trkpt>
      <trkpt lat="40.7708050" lon="-3.5137700">
        <ele>675.0</ele>
        <time>2020-09-29T16:52:58Z</time>
      </trkpt>
      <trkpt lat="40.7707580" lon="-3.5136920">
        <ele>675.0</ele>
        <time>2020-09-29T16:52:59Z</time>
      </trkpt>
      <trkpt lat="40.7707580" lon="-3.5136920">
        <ele>675.0</ele>
        <time>2020-09-29T16:53:00Z</time>
      </trkpt>
      <trkpt lat="40.7706530" lon="-3.5135370">
        <ele>675.0</ele>
        <time>2020-09-29T16:53:01Z</time>
      </trkpt>
      <trkpt lat="40.7706530" lon="-3.5135370">
        <ele>675.0</ele>
        <time>2020-09-29T16:53:02Z</time>
      </trkpt>
      <trkpt lat="40.7705430" lon="-3.5133830">
        <ele>675.0</ele>
        <time>2020-09-29T16:53:03Z</time>
      </trkpt>
      <trkpt lat="40.7705430" lon="-3.5133830">
        <ele>675.0</ele>
        <time>2020-09-29T16:53:04Z</time>
      </trkpt>
      <trkpt lat="40.7704370" lon="-3.5132400">
        <ele>675.0</ele>
        <time>2020-09-29T16:53:05Z</time>
      </trkpt>
      <trkpt lat="40.7703850" lon="-3.5131700">
        <ele>675.0</ele>
        <time>2020-09-29T16:53:06Z</time>
      </trkpt>
      <trkpt lat="40.7703850" lon="-3.5131700">
        <ele>675.0</ele>
        <time>2020-09-29T16:53:07Z</time>
      </trkpt>
      <trkpt lat="40.7702770" lon="-3.5130300">
        <ele>675.0</ele>
        <time>2020-09-29T16:53:08Z</time>
      </trkpt>
      <trkpt lat="40.7702770" lon="-3.5130300">
        <ele>675.0</ele>
        <time>2020-09-29T16:53:09Z</time>
      </trkpt>
      <trkpt lat="40.7701650" lon="-3.5128950">
        <ele>675.0</ele>
        <time>2020-09-29T16:53:10Z</time>
      </trkpt>
      <trkpt lat="40.7701130" lon="-3.5128270">
        <ele>675.0</ele>
        <time>2020-09-29T16:53:11Z</time>
      </trkpt>
      <trkpt lat="40.7701130" lon="-3.5128270">
        <ele>675.0</ele>
        <time>2020-09-29T16:53:12Z</time>
      </trkpt>
      <trkpt lat="40.7700100" lon="-3.5126920">
        <ele>675.0</ele>
        <time>2020-09-29T16:53:13Z</time>
      </trkpt>
      <trkpt lat="40.7700100" lon="-3.5126920">
        <ele>675.0</ele>
        <time>2020-09-29T16:53:14Z</time>
      </trkpt>
      <trkpt lat="40.7700100" lon="-3.5126920">
        <ele>675.0</ele>
        <time>2020-09-29T16:53:15Z</time>
      </trkpt>
      <trkpt lat="40.7699100" lon="-3.5125650">
        <ele>676.0</ele>
        <time>2020-09-29T16:53:16Z</time>
      </trkpt>
      <trkpt lat="40.7698220" lon="-3.5124470">
        <ele>676.0</ele>
        <time>2020-09-29T16:53:17Z</time>
      </trkpt>
      <trkpt lat="40.7698220" lon="-3.5124470">
        <ele>676.0</ele>
        <time>2020-09-29T16:53:18Z</time>
      </trkpt>
      <trkpt lat="40.7697320" lon="-3.5123320">
        <ele>676.0</ele>
        <time>2020-09-29T16:53:19Z</time>
      </trkpt>
      <trkpt lat="40.7697320" lon="-3.5123320">
        <ele>676.0</ele>
        <time>2020-09-29T16:53:20Z</time>
      </trkpt>
      <trkpt lat="40.7696430" lon="-3.5122120">
        <ele>676.0</ele>
        <time>2020-09-29T16:53:21Z</time>
      </trkpt>
      <trkpt lat="40.7695970" lon="-3.5121530">
        <ele>677.0</ele>
        <time>2020-09-29T16:53:22Z</time>
      </trkpt>
      <trkpt lat="40.7695970" lon="-3.5121530">
        <ele>677.0</ele>
        <time>2020-09-29T16:53:23Z</time>
      </trkpt>
      <trkpt lat="40.7695020" lon="-3.5120320">
        <ele>677.0</ele>
        <time>2020-09-29T16:53:24Z</time>
      </trkpt>
      <trkpt lat="40.7695020" lon="-3.5120320">
        <ele>677.0</ele>
        <time>2020-09-29T16:53:25Z</time>
      </trkpt>
      <trkpt lat="40.7694070" lon="-3.5119100">
        <ele>677.0</ele>
        <time>2020-09-29T16:53:26Z</time>
      </trkpt>
      <trkpt lat="40.7693580" lon="-3.5118500">
        <ele>677.0</ele>
        <time>2020-09-29T16:53:27Z</time>
      </trkpt>
      <trkpt lat="40.7693580" lon="-3.5118500">
        <ele>677.0</ele>
        <time>2020-09-29T16:53:28Z</time>
      </trkpt>
      <trkpt lat="40.7692630" lon="-3.5117300">
        <ele>677.0</ele>
        <time>2020-09-29T16:53:29Z</time>
      </trkpt>
      <trkpt lat="40.7692170" lon="-3.5116700">
        <ele>677.0</ele>
        <time>2020-09-29T16:53:30Z</time>
      </trkpt>
      <trkpt lat="40.7691680" lon="-3.5116080">
        <ele>677.0</ele>
        <time>2020-09-29T16:53:31Z</time>
      </trkpt>
      <trkpt lat="40.7691680" lon="-3.5116080">
        <ele>677.0</ele>
        <time>2020-09-29T16:53:32Z</time>
      </trkpt>
      <trkpt lat="40.7690700" lon="-3.5114870">
        <ele>677.0</ele>
        <time>2020-09-29T16:53:33Z</time>
      </trkpt>
      <trkpt lat="40.7690700" lon="-3.5114870">
        <ele>677.0</ele>
        <time>2020-09-29T16:53:34Z</time>
      </trkpt>
      <trkpt lat="40.7689700" lon="-3.5113650">
        <ele>677.0</ele>
        <time>2020-09-29T16:53:35Z</time>
      </trkpt>
      <trkpt lat="40.7689700" lon="-3.5113650">
        <ele>677.0</ele>
        <time>2020-09-29T16:53:36Z</time>
      </trkpt>
      <trkpt lat="40.7688700" lon="-3.5112380">
        <ele>677.0</ele>
        <time>2020-09-29T16:53:37Z</time>
      </trkpt>
      <trkpt lat="40.7688700" lon="-3.5112380">
        <ele>677.0</ele>
        <time>2020-09-29T16:53:38Z</time>
      </trkpt>
      <trkpt lat="40.7687670" lon="-3.5111050">
        <ele>677.0</ele>
        <time>2020-09-29T16:53:39Z</time>
      </trkpt>
      <trkpt lat="40.7687670" lon="-3.5111050">
        <ele>677.0</ele>
        <time>2020-09-29T16:53:40Z</time>
      </trkpt>
      <trkpt lat="40.7686670" lon="-3.5109800">
        <ele>677.0</ele>
        <time>2020-09-29T16:53:41Z</time>
      </trkpt>
      <trkpt lat="40.7686670" lon="-3.5109800">
        <ele>677.0</ele>
        <time>2020-09-29T16:53:42Z</time>
      </trkpt>
      <trkpt lat="40.7685630" lon="-3.5108530">
        <ele>677.0</ele>
        <time>2020-09-29T16:53:43Z</time>
      </trkpt>
      <trkpt lat="40.7685630" lon="-3.5108530">
        <ele>677.0</ele>
        <time>2020-09-29T16:53:44Z</time>
      </trkpt>
      <trkpt lat="40.7684620" lon="-3.5107270">
        <ele>677.0</ele>
        <time>2020-09-29T16:53:45Z</time>
      </trkpt>
      <trkpt lat="40.7684620" lon="-3.5107270">
        <ele>677.0</ele>
        <time>2020-09-29T16:53:46Z</time>
      </trkpt>
      <trkpt lat="40.7683550" lon="-3.5106000">
        <ele>677.0</ele>
        <time>2020-09-29T16:53:47Z</time>
      </trkpt>
      <trkpt lat="40.7683000" lon="-3.5105350">
        <ele>677.0</ele>
        <time>2020-09-29T16:53:48Z</time>
      </trkpt>
      <trkpt lat="40.7683000" lon="-3.5105350">
        <ele>677.0</ele>
        <time>2020-09-29T16:53:49Z</time>
      </trkpt>
      <trkpt lat="40.7681880" lon="-3.5104120">
        <ele>677.0</ele>
        <time>2020-09-29T16:53:50Z</time>
      </trkpt>
      <trkpt lat="40.7681880" lon="-3.5104120">
        <ele>677.0</ele>
        <time>2020-09-29T16:53:51Z</time>
      </trkpt>
      <trkpt lat="40.7680770" lon="-3.5102870">
        <ele>677.0</ele>
        <time>2020-09-29T16:53:52Z</time>
      </trkpt>
      <trkpt lat="40.7680280" lon="-3.5102220">
        <ele>677.0</ele>
        <time>2020-09-29T16:53:53Z</time>
      </trkpt>
      <trkpt lat="40.7679770" lon="-3.5101580">
        <ele>677.0</ele>
        <time>2020-09-29T16:53:54Z</time>
      </trkpt>
      <trkpt lat="40.7679770" lon="-3.5101580">
        <ele>677.0</ele>
        <time>2020-09-29T16:53:55Z</time>
      </trkpt>
      <trkpt lat="40.7678750" lon="-3.5100250">
        <ele>677.0</ele>
        <time>2020-09-29T16:53:56Z</time>
      </trkpt>
      <trkpt lat="40.7678750" lon="-3.5100250">
        <ele>677.0</ele>
        <time>2020-09-29T16:53:57Z</time>
      </trkpt>
      <trkpt lat="40.7677730" lon="-3.5098880">
        <ele>677.0</ele>
        <time>2020-09-29T16:53:58Z</time>
      </trkpt>
      <trkpt lat="40.7677730" lon="-3.5098880">
        <ele>677.0</ele>
        <time>2020-09-29T16:53:59Z</time>
      </trkpt>
      <trkpt lat="40.7676770" lon="-3.5097550">
        <ele>677.0</ele>
        <time>2020-09-29T16:54:00Z</time>
      </trkpt>
      <trkpt lat="40.7676770" lon="-3.5097550">
        <ele>677.0</ele>
        <time>2020-09-29T16:54:01Z</time>
      </trkpt>
      <trkpt lat="40.7675780" lon="-3.5096200">
        <ele>677.0</ele>
        <time>2020-09-29T16:54:02Z</time>
      </trkpt>
      <trkpt lat="40.7675780" lon="-3.5096200">
        <ele>677.0</ele>
        <time>2020-09-29T16:54:03Z</time>
      </trkpt>
      <trkpt lat="40.7674850" lon="-3.5094800">
        <ele>677.0</ele>
        <time>2020-09-29T16:54:04Z</time>
      </trkpt>
      <trkpt lat="40.7674330" lon="-3.5094100">
        <ele>677.0</ele>
        <time>2020-09-29T16:54:05Z</time>
      </trkpt>
      <trkpt lat="40.7674330" lon="-3.5094100">
        <ele>677.0</ele>
        <time>2020-09-29T16:54:06Z</time>
      </trkpt>
      <trkpt lat="40.7673380" lon="-3.5092700">
        <ele>677.0</ele>
        <time>2020-09-29T16:54:07Z</time>
      </trkpt>
      <trkpt lat="40.7673380" lon="-3.5092700">
        <ele>677.0</ele>
        <time>2020-09-29T16:54:08Z</time>
      </trkpt>
      <trkpt lat="40.7672250" lon="-3.5091470">
        <ele>677.0</ele>
        <time>2020-09-29T16:54:09Z</time>
      </trkpt>
      <trkpt lat="40.7672250" lon="-3.5091470">
        <ele>677.0</ele>
        <time>2020-09-29T16:54:10Z</time>
      </trkpt>
      <trkpt lat="40.7670920" lon="-3.5090850">
        <ele>677.0</ele>
        <time>2020-09-29T16:54:11Z</time>
      </trkpt>
      <trkpt lat="40.7670300" lon="-3.5090520">
        <ele>677.0</ele>
        <time>2020-09-29T16:54:12Z</time>
      </trkpt>
      <trkpt lat="40.7670300" lon="-3.5090520">
        <ele>677.0</ele>
        <time>2020-09-29T16:54:13Z</time>
      </trkpt>
      <trkpt lat="40.7669170" lon="-3.5089400">
        <ele>677.0</ele>
        <time>2020-09-29T16:54:14Z</time>
      </trkpt>
      <trkpt lat="40.7669170" lon="-3.5089400">
        <ele>677.0</ele>
        <time>2020-09-29T16:54:15Z</time>
      </trkpt>
      <trkpt lat="40.7668530" lon="-3.5087680">
        <ele>677.0</ele>
        <time>2020-09-29T16:54:16Z</time>
      </trkpt>
      <trkpt lat="40.7668300" lon="-3.5086780">
        <ele>677.0</ele>
        <time>2020-09-29T16:54:17Z</time>
      </trkpt>
      <trkpt lat="40.7668300" lon="-3.5086780">
        <ele>677.0</ele>
        <time>2020-09-29T16:54:18Z</time>
      </trkpt>
      <trkpt lat="40.7667420" lon="-3.5085280">
        <ele>677.0</ele>
        <time>2020-09-29T16:54:19Z</time>
      </trkpt>
      <trkpt lat="40.7667420" lon="-3.5085280">
        <ele>677.0</ele>
        <time>2020-09-29T16:54:20Z</time>
      </trkpt>
      <trkpt lat="40.7666270" lon="-3.5084000">
        <ele>677.0</ele>
        <time>2020-09-29T16:54:21Z</time>
      </trkpt>
      <trkpt lat="40.7665700" lon="-3.5083400">
        <ele>677.0</ele>
        <time>2020-09-29T16:54:22Z</time>
      </trkpt>
      <trkpt lat="40.7665700" lon="-3.5083400">
        <ele>677.0</ele>
        <time>2020-09-29T16:54:23Z</time>
      </trkpt>
      <trkpt lat="40.7664570" lon="-3.5082120">
        <ele>677.0</ele>
        <time>2020-09-29T16:54:24Z</time>
      </trkpt>
      <trkpt lat="40.7664570" lon="-3.5082120">
        <ele>677.0</ele>
        <time>2020-09-29T16:54:25Z</time>
      </trkpt>
      <trkpt lat="40.7663450" lon="-3.5080800">
        <ele>677.0</ele>
        <time>2020-09-29T16:54:26Z</time>
      </trkpt>
      <trkpt lat="40.7663450" lon="-3.5080800">
        <ele>677.0</ele>
        <time>2020-09-29T16:54:27Z</time>
      </trkpt>
      <trkpt lat="40.7662400" lon="-3.5079480">
        <ele>677.0</ele>
        <time>2020-09-29T16:54:28Z</time>
      </trkpt>
      <trkpt lat="40.7662400" lon="-3.5079480">
        <ele>677.0</ele>
        <time>2020-09-29T16:54:29Z</time>
      </trkpt>
      <trkpt lat="40.7661350" lon="-3.5078150">
        <ele>677.0</ele>
        <time>2020-09-29T16:54:30Z</time>
      </trkpt>
      <trkpt lat="40.7661350" lon="-3.5078150">
        <ele>677.0</ele>
        <time>2020-09-29T16:54:31Z</time>
      </trkpt>
      <trkpt lat="40.7660280" lon="-3.5076830">
        <ele>677.0</ele>
        <time>2020-09-29T16:54:32Z</time>
      </trkpt>
      <trkpt lat="40.7660280" lon="-3.5076830">
        <ele>677.0</ele>
        <time>2020-09-29T16:54:33Z</time>
      </trkpt>
      <trkpt lat="40.7659230" lon="-3.5075500">
        <ele>677.0</ele>
        <time>2020-09-29T16:54:34Z</time>
      </trkpt>
      <trkpt lat="40.7658720" lon="-3.5074820">
        <ele>677.0</ele>
        <time>2020-09-29T16:54:35Z</time>
      </trkpt>
      <trkpt lat="40.7658200" lon="-3.5074130">
        <ele>677.0</ele>
        <time>2020-09-29T16:54:36Z</time>
      </trkpt>
      <trkpt lat="40.7658200" lon="-3.5074130">
        <ele>677.0</ele>
        <time>2020-09-29T16:54:37Z</time>
      </trkpt>
      <trkpt lat="40.7657170" lon="-3.5072780">
        <ele>677.0</ele>
        <time>2020-09-29T16:54:38Z</time>
      </trkpt>
      <trkpt lat="40.7657170" lon="-3.5072780">
        <ele>677.0</ele>
        <time>2020-09-29T16:54:39Z</time>
      </trkpt>
      <trkpt lat="40.7656130" lon="-3.5071450">
        <ele>677.0</ele>
        <time>2020-09-29T16:54:40Z</time>
      </trkpt>
      <trkpt lat="40.7655620" lon="-3.5070780">
        <ele>677.0</ele>
        <time>2020-09-29T16:54:41Z</time>
      </trkpt>
      <trkpt lat="40.7655620" lon="-3.5070780">
        <ele>677.0</ele>
        <time>2020-09-29T16:54:42Z</time>
      </trkpt>
      <trkpt lat="40.7654570" lon="-3.5069430">
        <ele>677.0</ele>
        <time>2020-09-29T16:54:43Z</time>
      </trkpt>
      <trkpt lat="40.7654570" lon="-3.5069430">
        <ele>677.0</ele>
        <time>2020-09-29T16:54:44Z</time>
      </trkpt>
      <trkpt lat="40.7653520" lon="-3.5068100">
        <ele>677.0</ele>
        <time>2020-09-29T16:54:45Z</time>
      </trkpt>
      <trkpt lat="40.7653520" lon="-3.5068100">
        <ele>677.0</ele>
        <time>2020-09-29T16:54:46Z</time>
      </trkpt>
      <trkpt lat="40.7652970" lon="-3.5067450">
        <ele>677.0</ele>
        <time>2020-09-29T16:54:47Z</time>
      </trkpt>
      <trkpt lat="40.7651820" lon="-3.5066130">
        <ele>677.0</ele>
        <time>2020-09-29T16:54:48Z</time>
      </trkpt>
      <trkpt lat="40.7651230" lon="-3.5065500">
        <ele>677.0</ele>
        <time>2020-09-29T16:54:49Z</time>
      </trkpt>
      <trkpt lat="40.7651230" lon="-3.5065500">
        <ele>677.0</ele>
        <time>2020-09-29T16:54:50Z</time>
      </trkpt>
      <trkpt lat="40.7650120" lon="-3.5064200">
        <ele>677.0</ele>
        <time>2020-09-29T16:54:51Z</time>
      </trkpt>
      <trkpt lat="40.7649580" lon="-3.5063550">
        <ele>677.0</ele>
        <time>2020-09-29T16:54:52Z</time>
      </trkpt>
      <trkpt lat="40.7649580" lon="-3.5063550">
        <ele>677.0</ele>
        <time>2020-09-29T16:54:53Z</time>
      </trkpt>
      <trkpt lat="40.7648530" lon="-3.5062250">
        <ele>677.0</ele>
        <time>2020-09-29T16:54:54Z</time>
      </trkpt>
      <trkpt lat="40.7648020" lon="-3.5061580">
        <ele>677.0</ele>
        <time>2020-09-29T16:54:55Z</time>
      </trkpt>
      <trkpt lat="40.7647470" lon="-3.5060920">
        <ele>677.0</ele>
        <time>2020-09-29T16:54:56Z</time>
      </trkpt>
      <trkpt lat="40.7647470" lon="-3.5060920">
        <ele>677.0</ele>
        <time>2020-09-29T16:54:57Z</time>
      </trkpt>
      <trkpt lat="40.7646400" lon="-3.5059580">
        <ele>677.0</ele>
        <time>2020-09-29T16:54:58Z</time>
      </trkpt>
      <trkpt lat="40.7645850" lon="-3.5058900">
        <ele>677.0</ele>
        <time>2020-09-29T16:54:59Z</time>
      </trkpt>
      <trkpt lat="40.7645850" lon="-3.5058900">
        <ele>677.0</ele>
        <time>2020-09-29T16:55:00Z</time>
      </trkpt>
      <trkpt lat="40.7644770" lon="-3.5057500">
        <ele>677.0</ele>
        <time>2020-09-29T16:55:01Z</time>
      </trkpt>
      <trkpt lat="40.7644770" lon="-3.5057500">
        <ele>677.0</ele>
        <time>2020-09-29T16:55:02Z</time>
      </trkpt>
      <trkpt lat="40.7643700" lon="-3.5056100">
        <ele>677.0</ele>
        <time>2020-09-29T16:55:03Z</time>
      </trkpt>
      <trkpt lat="40.7643700" lon="-3.5056100">
        <ele>677.0</ele>
        <time>2020-09-29T16:55:04Z</time>
      </trkpt>
      <trkpt lat="40.7642630" lon="-3.5054750">
        <ele>677.0</ele>
        <time>2020-09-29T16:55:05Z</time>
      </trkpt>
      <trkpt lat="40.7642630" lon="-3.5054750">
        <ele>677.0</ele>
        <time>2020-09-29T16:55:06Z</time>
      </trkpt>
      <trkpt lat="40.7641370" lon="-3.5053650">
        <ele>677.0</ele>
        <time>2020-09-29T16:55:07Z</time>
      </trkpt>
      <trkpt lat="40.7641370" lon="-3.5053650">
        <ele>677.0</ele>
        <time>2020-09-29T16:55:08Z</time>
      </trkpt>
      <trkpt lat="40.7641370" lon="-3.5053650">
        <ele>677.0</ele>
        <time>2020-09-29T16:55:09Z</time>
      </trkpt>
      <trkpt lat="40.7640000" lon="-3.5053020">
        <ele>677.0</ele>
        <time>2020-09-29T16:55:10Z</time>
      </trkpt>
      <trkpt lat="40.7638570" lon="-3.5052880">
        <ele>677.0</ele>
        <time>2020-09-29T16:55:11Z</time>
      </trkpt>
      <trkpt lat="40.7637850" lon="-3.5052950">
        <ele>677.0</ele>
        <time>2020-09-29T16:55:12Z</time>
      </trkpt>
      <trkpt lat="40.7637850" lon="-3.5052950">
        <ele>677.0</ele>
        <time>2020-09-29T16:55:13Z</time>
      </trkpt>
      <trkpt lat="40.7636420" lon="-3.5053220">
        <ele>677.0</ele>
        <time>2020-09-29T16:55:14Z</time>
      </trkpt>
      <trkpt lat="40.7636420" lon="-3.5053220">
        <ele>677.0</ele>
        <time>2020-09-29T16:55:15Z</time>
      </trkpt>
      <trkpt lat="40.7634980" lon="-3.5053430">
        <ele>677.0</ele>
        <time>2020-09-29T16:55:16Z</time>
      </trkpt>
      <trkpt lat="40.7634980" lon="-3.5053430">
        <ele>677.0</ele>
        <time>2020-09-29T16:55:17Z</time>
      </trkpt>
      <trkpt lat="40.7633570" lon="-3.5053720">
        <ele>677.0</ele>
        <time>2020-09-29T16:55:18Z</time>
      </trkpt>
      <trkpt lat="40.7632870" lon="-3.5053830">
        <ele>677.0</ele>
        <time>2020-09-29T16:55:19Z</time>
      </trkpt>
      <trkpt lat="40.7632870" lon="-3.5053830">
        <ele>677.0</ele>
        <time>2020-09-29T16:55:20Z</time>
      </trkpt>
      <trkpt lat="40.7631470" lon="-3.5054100">
        <ele>677.0</ele>
        <time>2020-09-29T16:55:21Z</time>
      </trkpt>
      <trkpt lat="40.7630770" lon="-3.5054230">
        <ele>677.0</ele>
        <time>2020-09-29T16:55:22Z</time>
      </trkpt>
      <trkpt lat="40.7630070" lon="-3.5054350">
        <ele>677.0</ele>
        <time>2020-09-29T16:55:23Z</time>
      </trkpt>
      <trkpt lat="40.7630070" lon="-3.5054350">
        <ele>677.0</ele>
        <time>2020-09-29T16:55:24Z</time>
      </trkpt>
      <trkpt lat="40.7628650" lon="-3.5054580">
        <ele>677.0</ele>
        <time>2020-09-29T16:55:25Z</time>
      </trkpt>
      <trkpt lat="40.7628650" lon="-3.5054580">
        <ele>677.0</ele>
        <time>2020-09-29T16:55:26Z</time>
      </trkpt>
      <trkpt lat="40.7627220" lon="-3.5054770">
        <ele>677.0</ele>
        <time>2020-09-29T16:55:27Z</time>
      </trkpt>
      <trkpt lat="40.7626500" lon="-3.5054880">
        <ele>677.0</ele>
        <time>2020-09-29T16:55:28Z</time>
      </trkpt>
      <trkpt lat="40.7626500" lon="-3.5054880">
        <ele>677.0</ele>
        <time>2020-09-29T16:55:29Z</time>
      </trkpt>
      <trkpt lat="40.7625120" lon="-3.5055080">
        <ele>677.0</ele>
        <time>2020-09-29T16:55:30Z</time>
      </trkpt>
      <trkpt lat="40.7625120" lon="-3.5055080">
        <ele>677.0</ele>
        <time>2020-09-29T16:55:31Z</time>
      </trkpt>
      <trkpt lat="40.7623750" lon="-3.5055220">
        <ele>677.0</ele>
        <time>2020-09-29T16:55:32Z</time>
      </trkpt>
      <trkpt lat="40.7623750" lon="-3.5055220">
        <ele>677.0</ele>
        <time>2020-09-29T16:55:33Z</time>
      </trkpt>
      <trkpt lat="40.7622430" lon="-3.5055380">
        <ele>677.0</ele>
        <time>2020-09-29T16:55:34Z</time>
      </trkpt>
      <trkpt lat="40.7622430" lon="-3.5055380">
        <ele>677.0</ele>
        <time>2020-09-29T16:55:35Z</time>
      </trkpt>
      <trkpt lat="40.7621100" lon="-3.5055520">
        <ele>677.0</ele>
        <time>2020-09-29T16:55:36Z</time>
      </trkpt>
      <trkpt lat="40.7620450" lon="-3.5055600">
        <ele>677.0</ele>
        <time>2020-09-29T16:55:37Z</time>
      </trkpt>
      <trkpt lat="40.7620450" lon="-3.5055600">
        <ele>677.0</ele>
        <time>2020-09-29T16:55:38Z</time>
      </trkpt>
      <trkpt lat="40.7619120" lon="-3.5055800">
        <ele>677.0</ele>
        <time>2020-09-29T16:55:39Z</time>
      </trkpt>
      <trkpt lat="40.7618450" lon="-3.5055870">
        <ele>677.0</ele>
        <time>2020-09-29T16:55:40Z</time>
      </trkpt>
      <trkpt lat="40.7618450" lon="-3.5055870">
        <ele>677.0</ele>
        <time>2020-09-29T16:55:41Z</time>
      </trkpt>
      <trkpt lat="40.7617180" lon="-3.5056050">
        <ele>677.0</ele>
        <time>2020-09-29T16:55:42Z</time>
      </trkpt>
      <trkpt lat="40.7616550" lon="-3.5056130">
        <ele>677.0</ele>
        <time>2020-09-29T16:55:43Z</time>
      </trkpt>
      <trkpt lat="40.7615900" lon="-3.5056200">
        <ele>677.0</ele>
        <time>2020-09-29T16:55:44Z</time>
      </trkpt>
      <trkpt lat="40.7615900" lon="-3.5056200">
        <ele>677.0</ele>
        <time>2020-09-29T16:55:45Z</time>
      </trkpt>
      <trkpt lat="40.7614620" lon="-3.5056420">
        <ele>677.0</ele>
        <time>2020-09-29T16:55:46Z</time>
      </trkpt>
      <trkpt lat="40.7614620" lon="-3.5056420">
        <ele>677.0</ele>
        <time>2020-09-29T16:55:47Z</time>
      </trkpt>
      <trkpt lat="40.7613350" lon="-3.5056680">
        <ele>677.0</ele>
        <time>2020-09-29T16:55:48Z</time>
      </trkpt>
      <trkpt lat="40.7613350" lon="-3.5056680">
        <ele>677.0</ele>
        <time>2020-09-29T16:55:49Z</time>
      </trkpt>
      <trkpt lat="40.7612050" lon="-3.5056900">
        <ele>677.0</ele>
        <time>2020-09-29T16:55:50Z</time>
      </trkpt>
      <trkpt lat="40.7612050" lon="-3.5056900">
        <ele>677.0</ele>
        <time>2020-09-29T16:55:51Z</time>
      </trkpt>
      <trkpt lat="40.7610730" lon="-3.5057070">
        <ele>677.0</ele>
        <time>2020-09-29T16:55:52Z</time>
      </trkpt>
      <trkpt lat="40.7610080" lon="-3.5057150">
        <ele>677.0</ele>
        <time>2020-09-29T16:55:53Z</time>
      </trkpt>
      <trkpt lat="40.7610080" lon="-3.5057150">
        <ele>677.0</ele>
        <time>2020-09-29T16:55:54Z</time>
      </trkpt>
      <trkpt lat="40.7608780" lon="-3.5057320">
        <ele>677.0</ele>
        <time>2020-09-29T16:55:55Z</time>
      </trkpt>
      <trkpt lat="40.7608780" lon="-3.5057320">
        <ele>677.0</ele>
        <time>2020-09-29T16:55:56Z</time>
      </trkpt>
      <trkpt lat="40.7607500" lon="-3.5057480">
        <ele>677.0</ele>
        <time>2020-09-29T16:55:57Z</time>
      </trkpt>
      <trkpt lat="40.7606830" lon="-3.5057570">
        <ele>677.0</ele>
        <time>2020-09-29T16:55:58Z</time>
      </trkpt>
      <trkpt lat="40.7606830" lon="-3.5057570">
        <ele>677.0</ele>
        <time>2020-09-29T16:55:59Z</time>
      </trkpt>
      <trkpt lat="40.7605530" lon="-3.5057730">
        <ele>677.0</ele>
        <time>2020-09-29T16:56:00Z</time>
      </trkpt>
      <trkpt lat="40.7604870" lon="-3.5057820">
        <ele>677.0</ele>
        <time>2020-09-29T16:56:01Z</time>
      </trkpt>
      <trkpt lat="40.7604870" lon="-3.5057820">
        <ele>677.0</ele>
        <time>2020-09-29T16:56:02Z</time>
      </trkpt>
      <trkpt lat="40.7603570" lon="-3.5058030">
        <ele>677.0</ele>
        <time>2020-09-29T16:56:03Z</time>
      </trkpt>
      <trkpt lat="40.7602900" lon="-3.5058150">
        <ele>677.0</ele>
        <time>2020-09-29T16:56:04Z</time>
      </trkpt>
      <trkpt lat="40.7602900" lon="-3.5058150">
        <ele>676.0</ele>
        <time>2020-09-29T16:56:05Z</time>
      </trkpt>
      <trkpt lat="40.7601600" lon="-3.5058330">
        <ele>676.0</ele>
        <time>2020-09-29T16:56:06Z</time>
      </trkpt>
      <trkpt lat="40.7601600" lon="-3.5058330">
        <ele>676.0</ele>
        <time>2020-09-29T16:56:07Z</time>
      </trkpt>
      <trkpt lat="40.7600300" lon="-3.5058480">
        <ele>676.0</ele>
        <time>2020-09-29T16:56:08Z</time>
      </trkpt>
      <trkpt lat="40.7599650" lon="-3.5058550">
        <ele>676.0</ele>
        <time>2020-09-29T16:56:09Z</time>
      </trkpt>
      <trkpt lat="40.7599650" lon="-3.5058550">
        <ele>676.0</ele>
        <time>2020-09-29T16:56:10Z</time>
      </trkpt>
      <trkpt lat="40.7598380" lon="-3.5058750">
        <ele>676.0</ele>
        <time>2020-09-29T16:56:11Z</time>
      </trkpt>
      <trkpt lat="40.7598380" lon="-3.5058750">
        <ele>676.0</ele>
        <time>2020-09-29T16:56:12Z</time>
      </trkpt>
      <trkpt lat="40.7597120" lon="-3.5058970">
        <ele>676.0</ele>
        <time>2020-09-29T16:56:13Z</time>
      </trkpt>
      <trkpt lat="40.7597120" lon="-3.5058970">
        <ele>676.0</ele>
        <time>2020-09-29T16:56:14Z</time>
      </trkpt>
      <trkpt lat="40.7595880" lon="-3.5059170">
        <ele>676.0</ele>
        <time>2020-09-29T16:56:15Z</time>
      </trkpt>
      <trkpt lat="40.7595270" lon="-3.5059250">
        <ele>676.0</ele>
        <time>2020-09-29T16:56:16Z</time>
      </trkpt>
      <trkpt lat="40.7595270" lon="-3.5059250">
        <ele>676.0</ele>
        <time>2020-09-29T16:56:17Z</time>
      </trkpt>
      <trkpt lat="40.7593980" lon="-3.5059420">
        <ele>676.0</ele>
        <time>2020-09-29T16:56:18Z</time>
      </trkpt>
      <trkpt lat="40.7593350" lon="-3.5059500">
        <ele>676.0</ele>
        <time>2020-09-29T16:56:19Z</time>
      </trkpt>
      <trkpt lat="40.7593350" lon="-3.5059500">
        <ele>676.0</ele>
        <time>2020-09-29T16:56:20Z</time>
      </trkpt>
      <trkpt lat="40.7592070" lon="-3.5059680">
        <ele>676.0</ele>
        <time>2020-09-29T16:56:21Z</time>
      </trkpt>
      <trkpt lat="40.7591430" lon="-3.5059770">
        <ele>676.0</ele>
        <time>2020-09-29T16:56:22Z</time>
      </trkpt>
      <trkpt lat="40.7591430" lon="-3.5059770">
        <ele>676.0</ele>
        <time>2020-09-29T16:56:23Z</time>
      </trkpt>
      <trkpt lat="40.7590180" lon="-3.5059970">
        <ele>676.0</ele>
        <time>2020-09-29T16:56:24Z</time>
      </trkpt>
      <trkpt lat="40.7590180" lon="-3.5059970">
        <ele>676.0</ele>
        <time>2020-09-29T16:56:25Z</time>
      </trkpt>
      <trkpt lat="40.7588880" lon="-3.5060130">
        <ele>676.0</ele>
        <time>2020-09-29T16:56:26Z</time>
      </trkpt>
      <trkpt lat="40.7588230" lon="-3.5060230">
        <ele>676.0</ele>
        <time>2020-09-29T16:56:27Z</time>
      </trkpt>
      <trkpt lat="40.7588230" lon="-3.5060230">
        <ele>676.0</ele>
        <time>2020-09-29T16:56:28Z</time>
      </trkpt>
      <trkpt lat="40.7586930" lon="-3.5060400">
        <ele>676.0</ele>
        <time>2020-09-29T16:56:29Z</time>
      </trkpt>
      <trkpt lat="40.7586930" lon="-3.5060400">
        <ele>676.0</ele>
        <time>2020-09-29T16:56:30Z</time>
      </trkpt>
      <trkpt lat="40.7585650" lon="-3.5060600">
        <ele>676.0</ele>
        <time>2020-09-29T16:56:31Z</time>
      </trkpt>
      <trkpt lat="40.7585650" lon="-3.5060600">
        <ele>676.0</ele>
        <time>2020-09-29T16:56:32Z</time>
      </trkpt>
      <trkpt lat="40.7584350" lon="-3.5060800">
        <ele>676.0</ele>
        <time>2020-09-29T16:56:33Z</time>
      </trkpt>
      <trkpt lat="40.7583700" lon="-3.5060880">
        <ele>676.0</ele>
        <time>2020-09-29T16:56:34Z</time>
      </trkpt>
      <trkpt lat="40.7583700" lon="-3.5060880">
        <ele>676.0</ele>
        <time>2020-09-29T16:56:35Z</time>
      </trkpt>
      <trkpt lat="40.7582330" lon="-3.5061070">
        <ele>676.0</ele>
        <time>2020-09-29T16:56:36Z</time>
      </trkpt>
      <trkpt lat="40.7582330" lon="-3.5061070">
        <ele>676.0</ele>
        <time>2020-09-29T16:56:37Z</time>
      </trkpt>
      <trkpt lat="40.7580970" lon="-3.5061200">
        <ele>676.0</ele>
        <time>2020-09-29T16:56:38Z</time>
      </trkpt>
      <trkpt lat="40.7580280" lon="-3.5061280">
        <ele>676.0</ele>
        <time>2020-09-29T16:56:39Z</time>
      </trkpt>
      <trkpt lat="40.7579620" lon="-3.5061380">
        <ele>676.0</ele>
        <time>2020-09-29T16:56:40Z</time>
      </trkpt>
      <trkpt lat="40.7579620" lon="-3.5061380">
        <ele>676.0</ele>
        <time>2020-09-29T16:56:41Z</time>
      </trkpt>
      <trkpt lat="40.7578280" lon="-3.5061580">
        <ele>676.0</ele>
        <time>2020-09-29T16:56:42Z</time>
      </trkpt>
      <trkpt lat="40.7577620" lon="-3.5061720">
        <ele>676.0</ele>
        <time>2020-09-29T16:56:43Z</time>
      </trkpt>
      <trkpt lat="40.7577620" lon="-3.5061720">
        <ele>676.0</ele>
        <time>2020-09-29T16:56:44Z</time>
      </trkpt>
      <trkpt lat="40.7576280" lon="-3.5061900">
        <ele>676.0</ele>
        <time>2020-09-29T16:56:45Z</time>
      </trkpt>
      <trkpt lat="40.7576280" lon="-3.5061900">
        <ele>676.0</ele>
        <time>2020-09-29T16:56:46Z</time>
      </trkpt>
      <trkpt lat="40.7574930" lon="-3.5062120">
        <ele>676.0</ele>
        <time>2020-09-29T16:56:47Z</time>
      </trkpt>
      <trkpt lat="40.7574280" lon="-3.5062180">
        <ele>676.0</ele>
        <time>2020-09-29T16:56:48Z</time>
      </trkpt>
      <trkpt lat="40.7574280" lon="-3.5062180">
        <ele>676.0</ele>
        <time>2020-09-29T16:56:49Z</time>
      </trkpt>
      <trkpt lat="40.7572930" lon="-3.5062370">
        <ele>676.0</ele>
        <time>2020-09-29T16:56:50Z</time>
      </trkpt>
      <trkpt lat="40.7572280" lon="-3.5062470">
        <ele>676.0</ele>
        <time>2020-09-29T16:56:51Z</time>
      </trkpt>
      <trkpt lat="40.7572280" lon="-3.5062470">
        <ele>676.0</ele>
        <time>2020-09-29T16:56:52Z</time>
      </trkpt>
      <trkpt lat="40.7570950" lon="-3.5062680">
        <ele>676.0</ele>
        <time>2020-09-29T16:56:53Z</time>
      </trkpt>
      <trkpt lat="40.7570270" lon="-3.5062750">
        <ele>676.0</ele>
        <time>2020-09-29T16:56:54Z</time>
      </trkpt>
      <trkpt lat="40.7570270" lon="-3.5062750">
        <ele>676.0</ele>
        <time>2020-09-29T16:56:55Z</time>
      </trkpt>
      <trkpt lat="40.7568920" lon="-3.5062920">
        <ele>676.0</ele>
        <time>2020-09-29T16:56:56Z</time>
      </trkpt>
      <trkpt lat="40.7568230" lon="-3.5063020">
        <ele>676.0</ele>
        <time>2020-09-29T16:56:57Z</time>
      </trkpt>
      <trkpt lat="40.7568230" lon="-3.5063020">
        <ele>676.0</ele>
        <time>2020-09-29T16:56:58Z</time>
      </trkpt>
      <trkpt lat="40.7566900" lon="-3.5063250">
        <ele>676.0</ele>
        <time>2020-09-29T16:56:59Z</time>
      </trkpt>
      <trkpt lat="40.7566900" lon="-3.5063250">
        <ele>676.0</ele>
        <time>2020-09-29T16:57:00Z</time>
      </trkpt>
      <trkpt lat="40.7565570" lon="-3.5063400">
        <ele>676.0</ele>
        <time>2020-09-29T16:57:01Z</time>
      </trkpt>
      <trkpt lat="40.7565570" lon="-3.5063400">
        <ele>676.0</ele>
        <time>2020-09-29T16:57:02Z</time>
      </trkpt>
      <trkpt lat="40.7564250" lon="-3.5063630">
        <ele>676.0</ele>
        <time>2020-09-29T16:57:03Z</time>
      </trkpt>
      <trkpt lat="40.7564250" lon="-3.5063630">
        <ele>676.0</ele>
        <time>2020-09-29T16:57:04Z</time>
      </trkpt>
      <trkpt lat="40.7562900" lon="-3.5063870">
        <ele>676.0</ele>
        <time>2020-09-29T16:57:05Z</time>
      </trkpt>
      <trkpt lat="40.7562200" lon="-3.5063970">
        <ele>676.0</ele>
        <time>2020-09-29T16:57:06Z</time>
      </trkpt>
      <trkpt lat="40.7562200" lon="-3.5063970">
        <ele>676.0</ele>
        <time>2020-09-29T16:57:07Z</time>
      </trkpt>
      <trkpt lat="40.7560820" lon="-3.5064120">
        <ele>676.0</ele>
        <time>2020-09-29T16:57:08Z</time>
      </trkpt>
      <trkpt lat="40.7560130" lon="-3.5064230">
        <ele>676.0</ele>
        <time>2020-09-29T16:57:09Z</time>
      </trkpt>
      <trkpt lat="40.7559430" lon="-3.5064330">
        <ele>676.0</ele>
        <time>2020-09-29T16:57:10Z</time>
      </trkpt>
      <trkpt lat="40.7559430" lon="-3.5064330">
        <ele>676.0</ele>
        <time>2020-09-29T16:57:11Z</time>
      </trkpt>
      <trkpt lat="40.7558050" lon="-3.5064530">
        <ele>676.0</ele>
        <time>2020-09-29T16:57:12Z</time>
      </trkpt>
      <trkpt lat="40.7557370" lon="-3.5064630">
        <ele>676.0</ele>
        <time>2020-09-29T16:57:13Z</time>
      </trkpt>
      <trkpt lat="40.7557370" lon="-3.5064630">
        <ele>676.0</ele>
        <time>2020-09-29T16:57:14Z</time>
      </trkpt>
      <trkpt lat="40.7555980" lon="-3.5064830">
        <ele>676.0</ele>
        <time>2020-09-29T16:57:15Z</time>
      </trkpt>
      <trkpt lat="40.7555980" lon="-3.5064830">
        <ele>676.0</ele>
        <time>2020-09-29T16:57:16Z</time>
      </trkpt>
      <trkpt lat="40.7554600" lon="-3.5065030">
        <ele>676.0</ele>
        <time>2020-09-29T16:57:17Z</time>
      </trkpt>
      <trkpt lat="40.7554600" lon="-3.5065030">
        <ele>676.0</ele>
        <time>2020-09-29T16:57:18Z</time>
      </trkpt>
      <trkpt lat="40.7553230" lon="-3.5065230">
        <ele>676.0</ele>
        <time>2020-09-29T16:57:19Z</time>
      </trkpt>
      <trkpt lat="40.7553230" lon="-3.5065230">
        <ele>676.0</ele>
        <time>2020-09-29T16:57:20Z</time>
      </trkpt>
      <trkpt lat="40.7551930" lon="-3.5065380">
        <ele>676.0</ele>
        <time>2020-09-29T16:57:21Z</time>
      </trkpt>
      <trkpt lat="40.7551930" lon="-3.5065380">
        <ele>676.0</ele>
        <time>2020-09-29T16:57:22Z</time>
      </trkpt>
      <trkpt lat="40.7550650" lon="-3.5065550">
        <ele>676.0</ele>
        <time>2020-09-29T16:57:23Z</time>
      </trkpt>
      <trkpt lat="40.7550020" lon="-3.5065650">
        <ele>676.0</ele>
        <time>2020-09-29T16:57:24Z</time>
      </trkpt>
      <trkpt lat="40.7550020" lon="-3.5065650">
        <ele>676.0</ele>
        <time>2020-09-29T16:57:25Z</time>
      </trkpt>
      <trkpt lat="40.7548720" lon="-3.5065830">
        <ele>676.0</ele>
        <time>2020-09-29T16:57:26Z</time>
      </trkpt>
      <trkpt lat="40.7548720" lon="-3.5065830">
        <ele>676.0</ele>
        <time>2020-09-29T16:57:27Z</time>
      </trkpt>
      <trkpt lat="40.7547430" lon="-3.5066070">
        <ele>676.0</ele>
        <time>2020-09-29T16:57:28Z</time>
      </trkpt>
      <trkpt lat="40.7546770" lon="-3.5066150">
        <ele>676.0</ele>
        <time>2020-09-29T16:57:29Z</time>
      </trkpt>
      <trkpt lat="40.7546770" lon="-3.5066150">
        <ele>676.0</ele>
        <time>2020-09-29T16:57:30Z</time>
      </trkpt>
      <trkpt lat="40.7545420" lon="-3.5066330">
        <ele>676.0</ele>
        <time>2020-09-29T16:57:31Z</time>
      </trkpt>
      <trkpt lat="40.7545420" lon="-3.5066330">
        <ele>676.0</ele>
        <time>2020-09-29T16:57:32Z</time>
      </trkpt>
      <trkpt lat="40.7544050" lon="-3.5066520">
        <ele>676.0</ele>
        <time>2020-09-29T16:57:33Z</time>
      </trkpt>
      <trkpt lat="40.7544050" lon="-3.5066520">
        <ele>676.0</ele>
        <time>2020-09-29T16:57:34Z</time>
      </trkpt>
      <trkpt lat="40.7542620" lon="-3.5066720">
        <ele>676.0</ele>
        <time>2020-09-29T16:57:35Z</time>
      </trkpt>
      <trkpt lat="40.7542620" lon="-3.5066720">
        <ele>676.0</ele>
        <time>2020-09-29T16:57:36Z</time>
      </trkpt>
      <trkpt lat="40.7541250" lon="-3.5066920">
        <ele>676.0</ele>
        <time>2020-09-29T16:57:37Z</time>
      </trkpt>
      <trkpt lat="40.7541250" lon="-3.5066920">
        <ele>676.0</ele>
        <time>2020-09-29T16:57:38Z</time>
      </trkpt>
      <trkpt lat="40.7539870" lon="-3.5067100">
        <ele>676.0</ele>
        <time>2020-09-29T16:57:39Z</time>
      </trkpt>
      <trkpt lat="40.7539870" lon="-3.5067100">
        <ele>676.0</ele>
        <time>2020-09-29T16:57:40Z</time>
      </trkpt>
      <trkpt lat="40.7538480" lon="-3.5067330">
        <ele>676.0</ele>
        <time>2020-09-29T16:57:41Z</time>
      </trkpt>
      <trkpt lat="40.7538480" lon="-3.5067330">
        <ele>676.0</ele>
        <time>2020-09-29T16:57:42Z</time>
      </trkpt>
      <trkpt lat="40.7537120" lon="-3.5067580">
        <ele>676.0</ele>
        <time>2020-09-29T16:57:43Z</time>
      </trkpt>
      <trkpt lat="40.7537120" lon="-3.5067580">
        <ele>676.0</ele>
        <time>2020-09-29T16:57:44Z</time>
      </trkpt>
      <trkpt lat="40.7535680" lon="-3.5067780">
        <ele>676.0</ele>
        <time>2020-09-29T16:57:45Z</time>
      </trkpt>
      <trkpt lat="40.7535680" lon="-3.5067780">
        <ele>676.0</ele>
        <time>2020-09-29T16:57:46Z</time>
      </trkpt>
      <trkpt lat="40.7534280" lon="-3.5068020">
        <ele>676.0</ele>
        <time>2020-09-29T16:57:47Z</time>
      </trkpt>
      <trkpt lat="40.7534280" lon="-3.5068020">
        <ele>676.0</ele>
        <time>2020-09-29T16:57:48Z</time>
      </trkpt>
      <trkpt lat="40.7532870" lon="-3.5068270">
        <ele>676.0</ele>
        <time>2020-09-29T16:57:49Z</time>
      </trkpt>
      <trkpt lat="40.7532870" lon="-3.5068270">
        <ele>676.0</ele>
        <time>2020-09-29T16:57:50Z</time>
      </trkpt>
      <trkpt lat="40.7531450" lon="-3.5068500">
        <ele>676.0</ele>
        <time>2020-09-29T16:57:51Z</time>
      </trkpt>
      <trkpt lat="40.7531450" lon="-3.5068500">
        <ele>676.0</ele>
        <time>2020-09-29T16:57:52Z</time>
      </trkpt>
      <trkpt lat="40.7530020" lon="-3.5068700">
        <ele>676.0</ele>
        <time>2020-09-29T16:57:53Z</time>
      </trkpt>
      <trkpt lat="40.7530020" lon="-3.5068700">
        <ele>675.0</ele>
        <time>2020-09-29T16:57:54Z</time>
      </trkpt>
      <trkpt lat="40.7528470" lon="-3.5068830">
        <ele>675.0</ele>
        <time>2020-09-29T16:57:55Z</time>
      </trkpt>
      <trkpt lat="40.7528470" lon="-3.5068830">
        <ele>675.0</ele>
        <time>2020-09-29T16:57:56Z</time>
      </trkpt>
      <trkpt lat="40.7526920" lon="-3.5069000">
        <ele>675.0</ele>
        <time>2020-09-29T16:57:57Z</time>
      </trkpt>
      <trkpt lat="40.7526170" lon="-3.5069100">
        <ele>675.0</ele>
        <time>2020-09-29T16:57:58Z</time>
      </trkpt>
      <trkpt lat="40.7525380" lon="-3.5069220">
        <ele>675.0</ele>
        <time>2020-09-29T16:57:59Z</time>
      </trkpt>
      <trkpt lat="40.7525380" lon="-3.5069220">
        <ele>675.0</ele>
        <time>2020-09-29T16:58:00Z</time>
      </trkpt>
      <trkpt lat="40.7523800" lon="-3.5069420">
        <ele>675.0</ele>
        <time>2020-09-29T16:58:01Z</time>
      </trkpt>
      <trkpt lat="40.7523800" lon="-3.5069420">
        <ele>674.0</ele>
        <time>2020-09-29T16:58:02Z</time>
      </trkpt>
      <trkpt lat="40.7522220" lon="-3.5069600">
        <ele>674.0</ele>
        <time>2020-09-29T16:58:03Z</time>
      </trkpt>
      <trkpt lat="40.7522220" lon="-3.5069600">
        <ele>674.0</ele>
        <time>2020-09-29T16:58:04Z</time>
      </trkpt>
      <trkpt lat="40.7520670" lon="-3.5069820">
        <ele>674.0</ele>
        <time>2020-09-29T16:58:05Z</time>
      </trkpt>
      <trkpt lat="40.7519900" lon="-3.5069920">
        <ele>674.0</ele>
        <time>2020-09-29T16:58:06Z</time>
      </trkpt>
      <trkpt lat="40.7519900" lon="-3.5069920">
        <ele>674.0</ele>
        <time>2020-09-29T16:58:07Z</time>
      </trkpt>
      <trkpt lat="40.7518350" lon="-3.5070120">
        <ele>674.0</ele>
        <time>2020-09-29T16:58:08Z</time>
      </trkpt>
      <trkpt lat="40.7518350" lon="-3.5070120">
        <ele>674.0</ele>
        <time>2020-09-29T16:58:09Z</time>
      </trkpt>
      <trkpt lat="40.7516800" lon="-3.5070320">
        <ele>674.0</ele>
        <time>2020-09-29T16:58:10Z</time>
      </trkpt>
      <trkpt lat="40.7516030" lon="-3.5070420">
        <ele>674.0</ele>
        <time>2020-09-29T16:58:11Z</time>
      </trkpt>
      <trkpt lat="40.7516030" lon="-3.5070420">
        <ele>673.0</ele>
        <time>2020-09-29T16:58:12Z</time>
      </trkpt>
      <trkpt lat="40.7514480" lon="-3.5070580">
        <ele>673.0</ele>
        <time>2020-09-29T16:58:13Z</time>
      </trkpt>
      <trkpt lat="40.7514480" lon="-3.5070580">
        <ele>673.0</ele>
        <time>2020-09-29T16:58:14Z</time>
      </trkpt>
      <trkpt lat="40.7512930" lon="-3.5070820">
        <ele>673.0</ele>
        <time>2020-09-29T16:58:15Z</time>
      </trkpt>
      <trkpt lat="40.7512170" lon="-3.5070930">
        <ele>673.0</ele>
        <time>2020-09-29T16:58:16Z</time>
      </trkpt>
      <trkpt lat="40.7511400" lon="-3.5071030">
        <ele>673.0</ele>
        <time>2020-09-29T16:58:17Z</time>
      </trkpt>
      <trkpt lat="40.7511400" lon="-3.5071030">
        <ele>673.0</ele>
        <time>2020-09-29T16:58:18Z</time>
      </trkpt>
      <trkpt lat="40.7509780" lon="-3.5071270">
        <ele>673.0</ele>
        <time>2020-09-29T16:58:19Z</time>
      </trkpt>
      <trkpt lat="40.7509780" lon="-3.5071270">
        <ele>673.0</ele>
        <time>2020-09-29T16:58:20Z</time>
      </trkpt>
      <trkpt lat="40.7508270" lon="-3.5071450">
        <ele>673.0</ele>
        <time>2020-09-29T16:58:21Z</time>
      </trkpt>
      <trkpt lat="40.7508270" lon="-3.5071450">
        <ele>673.0</ele>
        <time>2020-09-29T16:58:22Z</time>
      </trkpt>
      <trkpt lat="40.7508270" lon="-3.5071450">
        <ele>673.0</ele>
        <time>2020-09-29T16:58:23Z</time>
      </trkpt>
      <trkpt lat="40.7506670" lon="-3.5071630">
        <ele>673.0</ele>
        <time>2020-09-29T16:58:24Z</time>
      </trkpt>
      <trkpt lat="40.7505100" lon="-3.5071880">
        <ele>673.0</ele>
        <time>2020-09-29T16:58:25Z</time>
      </trkpt>
      <trkpt lat="40.7505100" lon="-3.5071880">
        <ele>673.0</ele>
        <time>2020-09-29T16:58:26Z</time>
      </trkpt>
      <trkpt lat="40.7503570" lon="-3.5072120">
        <ele>673.0</ele>
        <time>2020-09-29T16:58:27Z</time>
      </trkpt>
      <trkpt lat="40.7502820" lon="-3.5072230">
        <ele>673.0</ele>
        <time>2020-09-29T16:58:28Z</time>
      </trkpt>
      <trkpt lat="40.7502050" lon="-3.5072330">
        <ele>673.0</ele>
        <time>2020-09-29T16:58:29Z</time>
      </trkpt>
      <trkpt lat="40.7502050" lon="-3.5072330">
        <ele>673.0</ele>
        <time>2020-09-29T16:58:30Z</time>
      </trkpt>
      <trkpt lat="40.7500530" lon="-3.5072550">
        <ele>673.0</ele>
        <time>2020-09-29T16:58:31Z</time>
      </trkpt>
      <trkpt lat="40.7500530" lon="-3.5072550">
        <ele>673.0</ele>
        <time>2020-09-29T16:58:32Z</time>
      </trkpt>
      <trkpt lat="40.7499020" lon="-3.5072770">
        <ele>673.0</ele>
        <time>2020-09-29T16:58:33Z</time>
      </trkpt>
      <trkpt lat="40.7499020" lon="-3.5072770">
        <ele>673.0</ele>
        <time>2020-09-29T16:58:34Z</time>
      </trkpt>
      <trkpt lat="40.7497500" lon="-3.5072980">
        <ele>673.0</ele>
        <time>2020-09-29T16:58:35Z</time>
      </trkpt>
      <trkpt lat="40.7497500" lon="-3.5072980">
        <ele>673.0</ele>
        <time>2020-09-29T16:58:36Z</time>
      </trkpt>
      <trkpt lat="40.7495980" lon="-3.5073230">
        <ele>673.0</ele>
        <time>2020-09-29T16:58:37Z</time>
      </trkpt>
      <trkpt lat="40.7495980" lon="-3.5073230">
        <ele>673.0</ele>
        <time>2020-09-29T16:58:38Z</time>
      </trkpt>
      <trkpt lat="40.7494420" lon="-3.5073430">
        <ele>673.0</ele>
        <time>2020-09-29T16:58:39Z</time>
      </trkpt>
      <trkpt lat="40.7494420" lon="-3.5073430">
        <ele>673.0</ele>
        <time>2020-09-29T16:58:40Z</time>
      </trkpt>
      <trkpt lat="40.7492850" lon="-3.5073680">
        <ele>673.0</ele>
        <time>2020-09-29T16:58:41Z</time>
      </trkpt>
      <trkpt lat="40.7492080" lon="-3.5073800">
        <ele>673.0</ele>
        <time>2020-09-29T16:58:42Z</time>
      </trkpt>
      <trkpt lat="40.7492080" lon="-3.5073800">
        <ele>673.0</ele>
        <time>2020-09-29T16:58:43Z</time>
      </trkpt>
      <trkpt lat="40.7490570" lon="-3.5074020">
        <ele>673.0</ele>
        <time>2020-09-29T16:58:44Z</time>
      </trkpt>
      <trkpt lat="40.7490570" lon="-3.5074020">
        <ele>673.0</ele>
        <time>2020-09-29T16:58:45Z</time>
      </trkpt>
      <trkpt lat="40.7488980" lon="-3.5074250">
        <ele>673.0</ele>
        <time>2020-09-29T16:58:46Z</time>
      </trkpt>
      <trkpt lat="40.7488180" lon="-3.5074350">
        <ele>672.0</ele>
        <time>2020-09-29T16:58:47Z</time>
      </trkpt>
      <trkpt lat="40.7488180" lon="-3.5074350">
        <ele>672.0</ele>
        <time>2020-09-29T16:58:48Z</time>
      </trkpt>
      <trkpt lat="40.7486600" lon="-3.5074570">
        <ele>672.0</ele>
        <time>2020-09-29T16:58:49Z</time>
      </trkpt>
      <trkpt lat="40.7486600" lon="-3.5074570">
        <ele>672.0</ele>
        <time>2020-09-29T16:58:50Z</time>
      </trkpt>
      <trkpt lat="40.7485070" lon="-3.5074830">
        <ele>672.0</ele>
        <time>2020-09-29T16:58:51Z</time>
      </trkpt>
      <trkpt lat="40.7485070" lon="-3.5074830">
        <ele>672.0</ele>
        <time>2020-09-29T16:58:52Z</time>
      </trkpt>
      <trkpt lat="40.7483570" lon="-3.5075100">
        <ele>672.0</ele>
        <time>2020-09-29T16:58:53Z</time>
      </trkpt>
      <trkpt lat="40.7483570" lon="-3.5075100">
        <ele>672.0</ele>
        <time>2020-09-29T16:58:54Z</time>
      </trkpt>
      <trkpt lat="40.7481980" lon="-3.5075330">
        <ele>672.0</ele>
        <time>2020-09-29T16:58:55Z</time>
      </trkpt>
      <trkpt lat="40.7481980" lon="-3.5075330">
        <ele>672.0</ele>
        <time>2020-09-29T16:58:56Z</time>
      </trkpt>
      <trkpt lat="40.7480380" lon="-3.5075530">
        <ele>672.0</ele>
        <time>2020-09-29T16:58:57Z</time>
      </trkpt>
      <trkpt lat="40.7479580" lon="-3.5075620">
        <ele>672.0</ele>
        <time>2020-09-29T16:58:58Z</time>
      </trkpt>
      <trkpt lat="40.7479580" lon="-3.5075620">
        <ele>672.0</ele>
        <time>2020-09-29T16:58:59Z</time>
      </trkpt>
      <trkpt lat="40.7478070" lon="-3.5075900">
        <ele>672.0</ele>
        <time>2020-09-29T16:59:00Z</time>
      </trkpt>
      <trkpt lat="40.7478070" lon="-3.5075900">
        <ele>672.0</ele>
        <time>2020-09-29T16:59:01Z</time>
      </trkpt>
      <trkpt lat="40.7476500" lon="-3.5076100">
        <ele>671.0</ele>
        <time>2020-09-29T16:59:02Z</time>
      </trkpt>
      <trkpt lat="40.7476500" lon="-3.5076100">
        <ele>671.0</ele>
        <time>2020-09-29T16:59:03Z</time>
      </trkpt>
      <trkpt lat="40.7474880" lon="-3.5076320">
        <ele>671.0</ele>
        <time>2020-09-29T16:59:04Z</time>
      </trkpt>
      <trkpt lat="40.7474070" lon="-3.5076400">
        <ele>671.0</ele>
        <time>2020-09-29T16:59:05Z</time>
      </trkpt>
      <trkpt lat="40.7474070" lon="-3.5076400">
        <ele>671.0</ele>
        <time>2020-09-29T16:59:06Z</time>
      </trkpt>
      <trkpt lat="40.7472480" lon="-3.5076630">
        <ele>671.0</ele>
        <time>2020-09-29T16:59:07Z</time>
      </trkpt>
      <trkpt lat="40.7472480" lon="-3.5076630">
        <ele>671.0</ele>
        <time>2020-09-29T16:59:08Z</time>
      </trkpt>
      <trkpt lat="40.7470900" lon="-3.5076880">
        <ele>671.0</ele>
        <time>2020-09-29T16:59:09Z</time>
      </trkpt>
      <trkpt lat="40.7470120" lon="-3.5077030">
        <ele>671.0</ele>
        <time>2020-09-29T16:59:10Z</time>
      </trkpt>
      <trkpt lat="40.7470120" lon="-3.5077030">
        <ele>671.0</ele>
        <time>2020-09-29T16:59:11Z</time>
      </trkpt>
      <trkpt lat="40.7468670" lon="-3.5077700">
        <ele>670.0</ele>
        <time>2020-09-29T16:59:12Z</time>
      </trkpt>
      <trkpt lat="40.7468020" lon="-3.5078100">
        <ele>670.0</ele>
        <time>2020-09-29T16:59:13Z</time>
      </trkpt>
      <trkpt lat="40.7468020" lon="-3.5078100">
        <ele>670.0</ele>
        <time>2020-09-29T16:59:14Z</time>
      </trkpt>
      <trkpt lat="40.7466750" lon="-3.5078150">
        <ele>670.0</ele>
        <time>2020-09-29T16:59:15Z</time>
      </trkpt>
      <trkpt lat="40.7466130" lon="-3.5077930">
        <ele>670.0</ele>
        <time>2020-09-29T16:59:16Z</time>
      </trkpt>
      <trkpt lat="40.7466130" lon="-3.5077930">
        <ele>670.0</ele>
        <time>2020-09-29T16:59:17Z</time>
      </trkpt>
      <trkpt lat="40.7464630" lon="-3.5077880">
        <ele>670.0</ele>
        <time>2020-09-29T16:59:18Z</time>
      </trkpt>
      <trkpt lat="40.7464630" lon="-3.5077880">
        <ele>670.0</ele>
        <time>2020-09-29T16:59:19Z</time>
      </trkpt>
      <trkpt lat="40.7463100" lon="-3.5078100">
        <ele>670.0</ele>
        <time>2020-09-29T16:59:20Z</time>
      </trkpt>
      <trkpt lat="40.7463100" lon="-3.5078100">
        <ele>670.0</ele>
        <time>2020-09-29T16:59:21Z</time>
      </trkpt>
      <trkpt lat="40.7461580" lon="-3.5078220">
        <ele>670.0</ele>
        <time>2020-09-29T16:59:22Z</time>
      </trkpt>
      <trkpt lat="40.7460820" lon="-3.5078280">
        <ele>670.0</ele>
        <time>2020-09-29T16:59:23Z</time>
      </trkpt>
      <trkpt lat="40.7460820" lon="-3.5078280">
        <ele>670.0</ele>
        <time>2020-09-29T16:59:24Z</time>
      </trkpt>
      <trkpt lat="40.7460040" lon="-3.5078390">
        <ele>670.0</ele>
        <time>2020-09-29T16:59:25Z</time>
      </trkpt>
      <trkpt lat="40.7459260" lon="-3.5078500">
        <ele>670.0</ele>
        <time>2020-09-29T16:59:26Z</time>
      </trkpt>
      <trkpt lat="40.7457700" lon="-3.5078720">
        <ele>670.0</ele>
        <time>2020-09-29T16:59:27Z</time>
      </trkpt>
      <trkpt lat="40.7457700" lon="-3.5078720">
        <ele>670.0</ele>
        <time>2020-09-29T16:59:28Z</time>
      </trkpt>
      <trkpt lat="40.7456150" lon="-3.5078900">
        <ele>670.0</ele>
        <time>2020-09-29T16:59:29Z</time>
      </trkpt>
      <trkpt lat="40.7455370" lon="-3.5079020">
        <ele>670.0</ele>
        <time>2020-09-29T16:59:30Z</time>
      </trkpt>
      <trkpt lat="40.7454620" lon="-3.5079130">
        <ele>669.0</ele>
        <time>2020-09-29T16:59:31Z</time>
      </trkpt>
      <trkpt lat="40.7454620" lon="-3.5079130">
        <ele>669.0</ele>
        <time>2020-09-29T16:59:32Z</time>
      </trkpt>
      <trkpt lat="40.7453050" lon="-3.5079400">
        <ele>669.0</ele>
        <time>2020-09-29T16:59:33Z</time>
      </trkpt>
      <trkpt lat="40.7453050" lon="-3.5079400">
        <ele>669.0</ele>
        <time>2020-09-29T16:59:34Z</time>
      </trkpt>
      <trkpt lat="40.7451480" lon="-3.5079630">
        <ele>669.0</ele>
        <time>2020-09-29T16:59:35Z</time>
      </trkpt>
      <trkpt lat="40.7451480" lon="-3.5079630">
        <ele>669.0</ele>
        <time>2020-09-29T16:59:36Z</time>
      </trkpt>
      <trkpt lat="40.7449900" lon="-3.5079920">
        <ele>670.0</ele>
        <time>2020-09-29T16:59:37Z</time>
      </trkpt>
      <trkpt lat="40.7449900" lon="-3.5079920">
        <ele>670.0</ele>
        <time>2020-09-29T16:59:38Z</time>
      </trkpt>
      <trkpt lat="40.7448420" lon="-3.5080220">
        <ele>670.0</ele>
        <time>2020-09-29T16:59:39Z</time>
      </trkpt>
      <trkpt lat="40.7447680" lon="-3.5080350">
        <ele>670.0</ele>
        <time>2020-09-29T16:59:40Z</time>
      </trkpt>
      <trkpt lat="40.7447680" lon="-3.5080350">
        <ele>671.0</ele>
        <time>2020-09-29T16:59:41Z</time>
      </trkpt>
      <trkpt lat="40.7446220" lon="-3.5080630">
        <ele>671.0</ele>
        <time>2020-09-29T16:59:42Z</time>
      </trkpt>
      <trkpt lat="40.7445500" lon="-3.5080820">
        <ele>671.0</ele>
        <time>2020-09-29T16:59:43Z</time>
      </trkpt>
      <trkpt lat="40.7445500" lon="-3.5080820">
        <ele>671.0</ele>
        <time>2020-09-29T16:59:44Z</time>
      </trkpt>
      <trkpt lat="40.7444080" lon="-3.5081320">
        <ele>671.0</ele>
        <time>2020-09-29T16:59:45Z</time>
      </trkpt>
      <trkpt lat="40.7444080" lon="-3.5081320">
        <ele>671.0</ele>
        <time>2020-09-29T16:59:46Z</time>
      </trkpt>
      <trkpt lat="40.7442480" lon="-3.5081730">
        <ele>671.0</ele>
        <time>2020-09-29T16:59:47Z</time>
      </trkpt>
      <trkpt lat="40.7442480" lon="-3.5081730">
        <ele>671.0</ele>
        <time>2020-09-29T16:59:48Z</time>
      </trkpt>
      <trkpt lat="40.7440970" lon="-3.5082080">
        <ele>672.0</ele>
        <time>2020-09-29T16:59:49Z</time>
      </trkpt>
      <trkpt lat="40.7440970" lon="-3.5082080">
        <ele>672.0</ele>
        <time>2020-09-29T16:59:50Z</time>
      </trkpt>
      <trkpt lat="40.7439450" lon="-3.5082530">
        <ele>672.0</ele>
        <time>2020-09-29T16:59:51Z</time>
      </trkpt>
      <trkpt lat="40.7438730" lon="-3.5082750">
        <ele>672.0</ele>
        <time>2020-09-29T16:59:52Z</time>
      </trkpt>
      <trkpt lat="40.7438000" lon="-3.5082950">
        <ele>672.0</ele>
        <time>2020-09-29T16:59:53Z</time>
      </trkpt>
      <trkpt lat="40.7438000" lon="-3.5082950">
        <ele>672.0</ele>
        <time>2020-09-29T16:59:54Z</time>
      </trkpt>
      <trkpt lat="40.7436400" lon="-3.5083220">
        <ele>671.0</ele>
        <time>2020-09-29T16:59:55Z</time>
      </trkpt>
      <trkpt lat="40.7436400" lon="-3.5083220">
        <ele>671.0</ele>
        <time>2020-09-29T16:59:56Z</time>
      </trkpt>
      <trkpt lat="40.7434780" lon="-3.5083550">
        <ele>671.0</ele>
        <time>2020-09-29T16:59:57Z</time>
      </trkpt>
      <trkpt lat="40.7434780" lon="-3.5083550">
        <ele>671.0</ele>
        <time>2020-09-29T16:59:58Z</time>
      </trkpt>
      <trkpt lat="40.7433150" lon="-3.5083830">
        <ele>671.0</ele>
        <time>2020-09-29T16:59:59Z</time>
      </trkpt>
      <trkpt lat="40.7432350" lon="-3.5083930">
        <ele>671.0</ele>
        <time>2020-09-29T17:00:00Z</time>
      </trkpt>
      <trkpt lat="40.7432350" lon="-3.5083930">
        <ele>671.0</ele>
        <time>2020-09-29T17:00:01Z</time>
      </trkpt>
      <trkpt lat="40.7430800" lon="-3.5084300">
        <ele>671.0</ele>
        <time>2020-09-29T17:00:02Z</time>
      </trkpt>
      <trkpt lat="40.7430800" lon="-3.5084300">
        <ele>671.0</ele>
        <time>2020-09-29T17:00:03Z</time>
      </trkpt>
      <trkpt lat="40.7429270" lon="-3.5084700">
        <ele>670.0</ele>
        <time>2020-09-29T17:00:04Z</time>
      </trkpt>
      <trkpt lat="40.7429270" lon="-3.5084700">
        <ele>670.0</ele>
        <time>2020-09-29T17:00:05Z</time>
      </trkpt>
      <trkpt lat="40.7427820" lon="-3.5085170">
        <ele>670.0</ele>
        <time>2020-09-29T17:00:06Z</time>
      </trkpt>
      <trkpt lat="40.7427100" lon="-3.5085580">
        <ele>670.0</ele>
        <time>2020-09-29T17:00:07Z</time>
      </trkpt>
      <trkpt lat="40.7427100" lon="-3.5085580">
        <ele>670.0</ele>
        <time>2020-09-29T17:00:08Z</time>
      </trkpt>
      <trkpt lat="40.7425780" lon="-3.5086250">
        <ele>670.0</ele>
        <time>2020-09-29T17:00:09Z</time>
      </trkpt>
      <trkpt lat="40.7425780" lon="-3.5086250">
        <ele>670.0</ele>
        <time>2020-09-29T17:00:10Z</time>
      </trkpt>
      <trkpt lat="40.7425100" lon="-3.5086270">
        <ele>670.0</ele>
        <time>2020-09-29T17:00:11Z</time>
      </trkpt>
      <trkpt lat="40.7423680" lon="-3.5085980">
        <ele>670.0</ele>
        <time>2020-09-29T17:00:12Z</time>
      </trkpt>
      <trkpt lat="40.7422950" lon="-3.5086030">
        <ele>670.0</ele>
        <time>2020-09-29T17:00:13Z</time>
      </trkpt>
      <trkpt lat="40.7422950" lon="-3.5086030">
        <ele>670.0</ele>
        <time>2020-09-29T17:00:14Z</time>
      </trkpt>
      <trkpt lat="40.7421470" lon="-3.5086370">
        <ele>670.0</ele>
        <time>2020-09-29T17:00:15Z</time>
      </trkpt>
      <trkpt lat="40.7421470" lon="-3.5086370">
        <ele>670.0</ele>
        <time>2020-09-29T17:00:16Z</time>
      </trkpt>
      <trkpt lat="40.7419930" lon="-3.5086750">
        <ele>670.0</ele>
        <time>2020-09-29T17:00:17Z</time>
      </trkpt>
      <trkpt lat="40.7419930" lon="-3.5086750">
        <ele>670.0</ele>
        <time>2020-09-29T17:00:18Z</time>
      </trkpt>
      <trkpt lat="40.7418400" lon="-3.5087120">
        <ele>670.0</ele>
        <time>2020-09-29T17:00:19Z</time>
      </trkpt>
      <trkpt lat="40.7418400" lon="-3.5087120">
        <ele>670.0</ele>
        <time>2020-09-29T17:00:20Z</time>
      </trkpt>
      <trkpt lat="40.7416830" lon="-3.5087570">
        <ele>670.0</ele>
        <time>2020-09-29T17:00:21Z</time>
      </trkpt>
      <trkpt lat="40.7416830" lon="-3.5087570">
        <ele>670.0</ele>
        <time>2020-09-29T17:00:22Z</time>
      </trkpt>
      <trkpt lat="40.7415250" lon="-3.5087950">
        <ele>670.0</ele>
        <time>2020-09-29T17:00:23Z</time>
      </trkpt>
      <trkpt lat="40.7415250" lon="-3.5087950">
        <ele>669.0</ele>
        <time>2020-09-29T17:00:24Z</time>
      </trkpt>
      <trkpt lat="40.7413630" lon="-3.5088220">
        <ele>669.0</ele>
        <time>2020-09-29T17:00:25Z</time>
      </trkpt>
      <trkpt lat="40.7413630" lon="-3.5088220">
        <ele>669.0</ele>
        <time>2020-09-29T17:00:26Z</time>
      </trkpt>
      <trkpt lat="40.7411970" lon="-3.5088570">
        <ele>669.0</ele>
        <time>2020-09-29T17:00:27Z</time>
      </trkpt>
      <trkpt lat="40.7411170" lon="-3.5088770">
        <ele>669.0</ele>
        <time>2020-09-29T17:00:28Z</time>
      </trkpt>
      <trkpt lat="40.7410370" lon="-3.5088980">
        <ele>669.0</ele>
        <time>2020-09-29T17:00:29Z</time>
      </trkpt>
      <trkpt lat="40.7410370" lon="-3.5088980">
        <ele>669.0</ele>
        <time>2020-09-29T17:00:30Z</time>
      </trkpt>
      <trkpt lat="40.7410370" lon="-3.5088980">
        <ele>669.0</ele>
        <time>2020-09-29T17:00:31Z</time>
      </trkpt>
      <trkpt lat="40.7408820" lon="-3.5089370">
        <ele>669.0</ele>
        <time>2020-09-29T17:00:32Z</time>
      </trkpt>
      <trkpt lat="40.7407230" lon="-3.5089720">
        <ele>669.0</ele>
        <time>2020-09-29T17:00:33Z</time>
      </trkpt>
      <trkpt lat="40.7407230" lon="-3.5089720">
        <ele>669.0</ele>
        <time>2020-09-29T17:00:34Z</time>
      </trkpt>
      <trkpt lat="40.7405630" lon="-3.5090120">
        <ele>669.0</ele>
        <time>2020-09-29T17:00:35Z</time>
      </trkpt>
      <trkpt lat="40.7405630" lon="-3.5090120">
        <ele>669.0</ele>
        <time>2020-09-29T17:00:36Z</time>
      </trkpt>
      <trkpt lat="40.7404000" lon="-3.5090450">
        <ele>669.0</ele>
        <time>2020-09-29T17:00:37Z</time>
      </trkpt>
      <trkpt lat="40.7404000" lon="-3.5090450">
        <ele>669.0</ele>
        <time>2020-09-29T17:00:38Z</time>
      </trkpt>
      <trkpt lat="40.7402380" lon="-3.5090780">
        <ele>668.0</ele>
        <time>2020-09-29T17:00:39Z</time>
      </trkpt>
      <trkpt lat="40.7402380" lon="-3.5090780">
        <ele>668.0</ele>
        <time>2020-09-29T17:00:40Z</time>
      </trkpt>
      <trkpt lat="40.7400770" lon="-3.5091120">
        <ele>668.0</ele>
        <time>2020-09-29T17:00:41Z</time>
      </trkpt>
      <trkpt lat="40.7400770" lon="-3.5091120">
        <ele>668.0</ele>
        <time>2020-09-29T17:00:42Z</time>
      </trkpt>
      <trkpt lat="40.7399130" lon="-3.5091530">
        <ele>668.0</ele>
        <time>2020-09-29T17:00:43Z</time>
      </trkpt>
      <trkpt lat="40.7399130" lon="-3.5091530">
        <ele>668.0</ele>
        <time>2020-09-29T17:00:44Z</time>
      </trkpt>
      <trkpt lat="40.7397480" lon="-3.5091920">
        <ele>668.0</ele>
        <time>2020-09-29T17:00:45Z</time>
      </trkpt>
      <trkpt lat="40.7397480" lon="-3.5091920">
        <ele>668.0</ele>
        <time>2020-09-29T17:00:46Z</time>
      </trkpt>
      <trkpt lat="40.7395830" lon="-3.5092280">
        <ele>668.0</ele>
        <time>2020-09-29T17:00:47Z</time>
      </trkpt>
      <trkpt lat="40.7395830" lon="-3.5092280">
        <ele>668.0</ele>
        <time>2020-09-29T17:00:48Z</time>
      </trkpt>
      <trkpt lat="40.7394230" lon="-3.5092800">
        <ele>668.0</ele>
        <time>2020-09-29T17:00:49Z</time>
      </trkpt>
      <trkpt lat="40.7394230" lon="-3.5092800">
        <ele>668.0</ele>
        <time>2020-09-29T17:00:50Z</time>
      </trkpt>
      <trkpt lat="40.7392580" lon="-3.5093330">
        <ele>667.0</ele>
        <time>2020-09-29T17:00:51Z</time>
      </trkpt>
      <trkpt lat="40.7392580" lon="-3.5093330">
        <ele>667.0</ele>
        <time>2020-09-29T17:00:52Z</time>
      </trkpt>
      <trkpt lat="40.7390930" lon="-3.5093800">
        <ele>667.0</ele>
        <time>2020-09-29T17:00:53Z</time>
      </trkpt>
      <trkpt lat="40.7390930" lon="-3.5093800">
        <ele>667.0</ele>
        <time>2020-09-29T17:00:54Z</time>
      </trkpt>
      <trkpt lat="40.7389350" lon="-3.5094280">
        <ele>667.0</ele>
        <time>2020-09-29T17:00:55Z</time>
      </trkpt>
      <trkpt lat="40.7389350" lon="-3.5094280">
        <ele>667.0</ele>
        <time>2020-09-29T17:00:56Z</time>
      </trkpt>
      <trkpt lat="40.7387770" lon="-3.5094830">
        <ele>667.0</ele>
        <time>2020-09-29T17:00:57Z</time>
      </trkpt>
      <trkpt lat="40.7387770" lon="-3.5094830">
        <ele>667.0</ele>
        <time>2020-09-29T17:00:58Z</time>
      </trkpt>
      <trkpt lat="40.7386330" lon="-3.5095630">
        <ele>667.0</ele>
        <time>2020-09-29T17:00:59Z</time>
      </trkpt>
      <trkpt lat="40.7386330" lon="-3.5095630">
        <ele>667.0</ele>
        <time>2020-09-29T17:01:00Z</time>
      </trkpt>
      <trkpt lat="40.7385100" lon="-3.5096780">
        <ele>667.0</ele>
        <time>2020-09-29T17:01:01Z</time>
      </trkpt>
      <trkpt lat="40.7385100" lon="-3.5096780">
        <ele>667.0</ele>
        <time>2020-09-29T17:01:02Z</time>
      </trkpt>
      <trkpt lat="40.7383650" lon="-3.5097450">
        <ele>667.0</ele>
        <time>2020-09-29T17:01:03Z</time>
      </trkpt>
      <trkpt lat="40.7382920" lon="-3.5097520">
        <ele>667.0</ele>
        <time>2020-09-29T17:01:04Z</time>
      </trkpt>
      <trkpt lat="40.7382920" lon="-3.5097520">
        <ele>667.0</ele>
        <time>2020-09-29T17:01:05Z</time>
      </trkpt>
      <trkpt lat="40.7381450" lon="-3.5096980">
        <ele>667.0</ele>
        <time>2020-09-29T17:01:06Z</time>
      </trkpt>
      <trkpt lat="40.7380700" lon="-3.5096620">
        <ele>667.0</ele>
        <time>2020-09-29T17:01:07Z</time>
      </trkpt>
      <trkpt lat="40.7380700" lon="-3.5096620">
        <ele>667.0</ele>
        <time>2020-09-29T17:01:08Z</time>
      </trkpt>
      <trkpt lat="40.7379220" lon="-3.5096220">
        <ele>667.0</ele>
        <time>2020-09-29T17:01:09Z</time>
      </trkpt>
      <trkpt lat="40.7379220" lon="-3.5096220">
        <ele>667.0</ele>
        <time>2020-09-29T17:01:10Z</time>
      </trkpt>
      <trkpt lat="40.7377720" lon="-3.5096380">
        <ele>667.0</ele>
        <time>2020-09-29T17:01:11Z</time>
      </trkpt>
      <trkpt lat="40.7377720" lon="-3.5096380">
        <ele>667.0</ele>
        <time>2020-09-29T17:01:12Z</time>
      </trkpt>
      <trkpt lat="40.7376230" lon="-3.5096720">
        <ele>667.0</ele>
        <time>2020-09-29T17:01:13Z</time>
      </trkpt>
      <trkpt lat="40.7376230" lon="-3.5096720">
        <ele>667.0</ele>
        <time>2020-09-29T17:01:14Z</time>
      </trkpt>
      <trkpt lat="40.7374730" lon="-3.5097000">
        <ele>667.0</ele>
        <time>2020-09-29T17:01:15Z</time>
      </trkpt>
      <trkpt lat="40.7374730" lon="-3.5097000">
        <ele>667.0</ele>
        <time>2020-09-29T17:01:16Z</time>
      </trkpt>
      <trkpt lat="40.7373220" lon="-3.5097300">
        <ele>667.0</ele>
        <time>2020-09-29T17:01:17Z</time>
      </trkpt>
      <trkpt lat="40.7373220" lon="-3.5097300">
        <ele>667.0</ele>
        <time>2020-09-29T17:01:18Z</time>
      </trkpt>
      <trkpt lat="40.7371670" lon="-3.5097580">
        <ele>667.0</ele>
        <time>2020-09-29T17:01:19Z</time>
      </trkpt>
      <trkpt lat="40.7371670" lon="-3.5097580">
        <ele>667.0</ele>
        <time>2020-09-29T17:01:20Z</time>
      </trkpt>
      <trkpt lat="40.7370130" lon="-3.5097920">
        <ele>667.0</ele>
        <time>2020-09-29T17:01:21Z</time>
      </trkpt>
      <trkpt lat="40.7369370" lon="-3.5098120">
        <ele>667.0</ele>
        <time>2020-09-29T17:01:22Z</time>
      </trkpt>
      <trkpt lat="40.7369370" lon="-3.5098120">
        <ele>667.0</ele>
        <time>2020-09-29T17:01:23Z</time>
      </trkpt>
      <trkpt lat="40.7367880" lon="-3.5098520">
        <ele>667.0</ele>
        <time>2020-09-29T17:01:24Z</time>
      </trkpt>
      <trkpt lat="40.7367130" lon="-3.5098700">
        <ele>667.0</ele>
        <time>2020-09-29T17:01:25Z</time>
      </trkpt>
      <trkpt lat="40.7367130" lon="-3.5098700">
        <ele>667.0</ele>
        <time>2020-09-29T17:01:26Z</time>
      </trkpt>
      <trkpt lat="40.7365600" lon="-3.5099050">
        <ele>667.0</ele>
        <time>2020-09-29T17:01:27Z</time>
      </trkpt>
      <trkpt lat="40.7364830" lon="-3.5099230">
        <ele>667.0</ele>
        <time>2020-09-29T17:01:28Z</time>
      </trkpt>
      <trkpt lat="40.7364830" lon="-3.5099230">
        <ele>667.0</ele>
        <time>2020-09-29T17:01:29Z</time>
      </trkpt>
      <trkpt lat="40.7363300" lon="-3.5099630">
        <ele>667.0</ele>
        <time>2020-09-29T17:01:30Z</time>
      </trkpt>
      <trkpt lat="40.7362570" lon="-3.5099820">
        <ele>667.0</ele>
        <time>2020-09-29T17:01:31Z</time>
      </trkpt>
      <trkpt lat="40.7362570" lon="-3.5099820">
        <ele>667.0</ele>
        <time>2020-09-29T17:01:32Z</time>
      </trkpt>
      <trkpt lat="40.7361100" lon="-3.5100150">
        <ele>667.0</ele>
        <time>2020-09-29T17:01:33Z</time>
      </trkpt>
      <trkpt lat="40.7361100" lon="-3.5100150">
        <ele>667.0</ele>
        <time>2020-09-29T17:01:34Z</time>
      </trkpt>
      <trkpt lat="40.7359600" lon="-3.5100430">
        <ele>667.0</ele>
        <time>2020-09-29T17:01:35Z</time>
      </trkpt>
      <trkpt lat="40.7359600" lon="-3.5100430">
        <ele>667.0</ele>
        <time>2020-09-29T17:01:36Z</time>
      </trkpt>
      <trkpt lat="40.7358080" lon="-3.5100720">
        <ele>667.0</ele>
        <time>2020-09-29T17:01:37Z</time>
      </trkpt>
      <trkpt lat="40.7358080" lon="-3.5100720">
        <ele>667.0</ele>
        <time>2020-09-29T17:01:38Z</time>
      </trkpt>
      <trkpt lat="40.7356530" lon="-3.5100980">
        <ele>667.0</ele>
        <time>2020-09-29T17:01:39Z</time>
      </trkpt>
      <trkpt lat="40.7355770" lon="-3.5101130">
        <ele>667.0</ele>
        <time>2020-09-29T17:01:40Z</time>
      </trkpt>
      <trkpt lat="40.7355770" lon="-3.5101130">
        <ele>667.0</ele>
        <time>2020-09-29T17:01:41Z</time>
      </trkpt>
      <trkpt lat="40.7354270" lon="-3.5101350">
        <ele>667.0</ele>
        <time>2020-09-29T17:01:42Z</time>
      </trkpt>
      <trkpt lat="40.7353400" lon="-3.5101520">
        <ele>667.0</ele>
        <time>2020-09-29T17:01:43Z</time>
      </trkpt>
      <trkpt lat="40.7353400" lon="-3.5101520">
        <ele>667.0</ele>
        <time>2020-09-29T17:01:44Z</time>
      </trkpt>
      <trkpt lat="40.7351830" lon="-3.5101720">
        <ele>667.0</ele>
        <time>2020-09-29T17:01:45Z</time>
      </trkpt>
      <trkpt lat="40.7351830" lon="-3.5101720">
        <ele>667.0</ele>
        <time>2020-09-29T17:01:46Z</time>
      </trkpt>
      <trkpt lat="40.7350280" lon="-3.5101920">
        <ele>667.0</ele>
        <time>2020-09-29T17:01:47Z</time>
      </trkpt>
      <trkpt lat="40.7349530" lon="-3.5101980">
        <ele>667.0</ele>
        <time>2020-09-29T17:01:48Z</time>
      </trkpt>
      <trkpt lat="40.7349530" lon="-3.5101980">
        <ele>667.0</ele>
        <time>2020-09-29T17:01:49Z</time>
      </trkpt>
      <trkpt lat="40.7348030" lon="-3.5102130">
        <ele>667.0</ele>
        <time>2020-09-29T17:01:50Z</time>
      </trkpt>
      <trkpt lat="40.7347270" lon="-3.5102200">
        <ele>666.0</ele>
        <time>2020-09-29T17:01:51Z</time>
      </trkpt>
      <trkpt lat="40.7347270" lon="-3.5102200">
        <ele>666.0</ele>
        <time>2020-09-29T17:01:52Z</time>
      </trkpt>
      <trkpt lat="40.7345750" lon="-3.5102320">
        <ele>666.0</ele>
        <time>2020-09-29T17:01:53Z</time>
      </trkpt>
      <trkpt lat="40.7345750" lon="-3.5102320">
        <ele>666.0</ele>
        <time>2020-09-29T17:01:54Z</time>
      </trkpt>
      <trkpt lat="40.7344250" lon="-3.5102400">
        <ele>666.0</ele>
        <time>2020-09-29T17:01:55Z</time>
      </trkpt>
      <trkpt lat="40.7344250" lon="-3.5102400">
        <ele>666.0</ele>
        <time>2020-09-29T17:01:56Z</time>
      </trkpt>
      <trkpt lat="40.7342800" lon="-3.5102480">
        <ele>666.0</ele>
        <time>2020-09-29T17:01:57Z</time>
      </trkpt>
      <trkpt lat="40.7342070" lon="-3.5102500">
        <ele>666.0</ele>
        <time>2020-09-29T17:01:58Z</time>
      </trkpt>
      <trkpt lat="40.7342070" lon="-3.5102500">
        <ele>666.0</ele>
        <time>2020-09-29T17:01:59Z</time>
      </trkpt>
      <trkpt lat="40.7340600" lon="-3.5102530">
        <ele>666.0</ele>
        <time>2020-09-29T17:02:00Z</time>
      </trkpt>
      <trkpt lat="40.7339850" lon="-3.5102570">
        <ele>666.0</ele>
        <time>2020-09-29T17:02:01Z</time>
      </trkpt>
      <trkpt lat="40.7339850" lon="-3.5102570">
        <ele>666.0</ele>
        <time>2020-09-29T17:02:02Z</time>
      </trkpt>
      <trkpt lat="40.7338380" lon="-3.5102620">
        <ele>666.0</ele>
        <time>2020-09-29T17:02:03Z</time>
      </trkpt>
      <trkpt lat="40.7338380" lon="-3.5102620">
        <ele>666.0</ele>
        <time>2020-09-29T17:02:04Z</time>
      </trkpt>
      <trkpt lat="40.7336920" lon="-3.5102680">
        <ele>666.0</ele>
        <time>2020-09-29T17:02:05Z</time>
      </trkpt>
      <trkpt lat="40.7336920" lon="-3.5102680">
        <ele>666.0</ele>
        <time>2020-09-29T17:02:06Z</time>
      </trkpt>
      <trkpt lat="40.7336920" lon="-3.5102680">
        <ele>666.0</ele>
        <time>2020-09-29T17:02:07Z</time>
      </trkpt>
      <trkpt lat="40.7335450" lon="-3.5102780">
        <ele>666.0</ele>
        <time>2020-09-29T17:02:08Z</time>
      </trkpt>
      <trkpt lat="40.7334000" lon="-3.5102830">
        <ele>666.0</ele>
        <time>2020-09-29T17:02:09Z</time>
      </trkpt>
      <trkpt lat="40.7333270" lon="-3.5102870">
        <ele>665.0</ele>
        <time>2020-09-29T17:02:10Z</time>
      </trkpt>
      <trkpt lat="40.7333270" lon="-3.5102870">
        <ele>665.0</ele>
        <time>2020-09-29T17:02:11Z</time>
      </trkpt>
      <trkpt lat="40.7331780" lon="-3.5102930">
        <ele>665.0</ele>
        <time>2020-09-29T17:02:12Z</time>
      </trkpt>
      <trkpt lat="40.7331780" lon="-3.5102930">
        <ele>665.0</ele>
        <time>2020-09-29T17:02:13Z</time>
      </trkpt>
      <trkpt lat="40.7330280" lon="-3.5102980">
        <ele>665.0</ele>
        <time>2020-09-29T17:02:14Z</time>
      </trkpt>
      <trkpt lat="40.7330280" lon="-3.5102980">
        <ele>665.0</ele>
        <time>2020-09-29T17:02:15Z</time>
      </trkpt>
      <trkpt lat="40.7328800" lon="-3.5103020">
        <ele>665.0</ele>
        <time>2020-09-29T17:02:16Z</time>
      </trkpt>
      <trkpt lat="40.7328800" lon="-3.5103020">
        <ele>665.0</ele>
        <time>2020-09-29T17:02:17Z</time>
      </trkpt>
      <trkpt lat="40.7327300" lon="-3.5103100">
        <ele>665.0</ele>
        <time>2020-09-29T17:02:18Z</time>
      </trkpt>
      <trkpt lat="40.7326570" lon="-3.5103150">
        <ele>665.0</ele>
        <time>2020-09-29T17:02:19Z</time>
      </trkpt>
      <trkpt lat="40.7326570" lon="-3.5103150">
        <ele>665.0</ele>
        <time>2020-09-29T17:02:20Z</time>
      </trkpt>
      <trkpt lat="40.7325120" lon="-3.5103220">
        <ele>665.0</ele>
        <time>2020-09-29T17:02:21Z</time>
      </trkpt>
      <trkpt lat="40.7325120" lon="-3.5103220">
        <ele>665.0</ele>
        <time>2020-09-29T17:02:22Z</time>
      </trkpt>
      <trkpt lat="40.7323630" lon="-3.5103280">
        <ele>665.0</ele>
        <time>2020-09-29T17:02:23Z</time>
      </trkpt>
      <trkpt lat="40.7323630" lon="-3.5103280">
        <ele>665.0</ele>
        <time>2020-09-29T17:02:24Z</time>
      </trkpt>
      <trkpt lat="40.7322170" lon="-3.5103400">
        <ele>665.0</ele>
        <time>2020-09-29T17:02:25Z</time>
      </trkpt>
      <trkpt lat="40.7322170" lon="-3.5103400">
        <ele>664.0</ele>
        <time>2020-09-29T17:02:26Z</time>
      </trkpt>
      <trkpt lat="40.7320670" lon="-3.5103480">
        <ele>664.0</ele>
        <time>2020-09-29T17:02:27Z</time>
      </trkpt>
      <trkpt lat="40.7320670" lon="-3.5103480">
        <ele>664.0</ele>
        <time>2020-09-29T17:02:28Z</time>
      </trkpt>
      <trkpt lat="40.7319920" lon="-3.5103550">
        <ele>664.0</ele>
        <time>2020-09-29T17:02:29Z</time>
      </trkpt>
      <trkpt lat="40.7318480" lon="-3.5103700">
        <ele>664.0</ele>
        <time>2020-09-29T17:02:30Z</time>
      </trkpt>
      <trkpt lat="40.7318480" lon="-3.5103700">
        <ele>664.0</ele>
        <time>2020-09-29T17:02:31Z</time>
      </trkpt>
      <trkpt lat="40.7317070" lon="-3.5103800">
        <ele>664.0</ele>
        <time>2020-09-29T17:02:32Z</time>
      </trkpt>
      <trkpt lat="40.7317070" lon="-3.5103800">
        <ele>665.0</ele>
        <time>2020-09-29T17:02:33Z</time>
      </trkpt>
      <trkpt lat="40.7315670" lon="-3.5103950">
        <ele>665.0</ele>
        <time>2020-09-29T17:02:34Z</time>
      </trkpt>
      <trkpt lat="40.7314980" lon="-3.5104050">
        <ele>665.0</ele>
        <time>2020-09-29T17:02:35Z</time>
      </trkpt>
      <trkpt lat="40.7314980" lon="-3.5104050">
        <ele>665.0</ele>
        <time>2020-09-29T17:02:36Z</time>
      </trkpt>
      <trkpt lat="40.7313630" lon="-3.5104250">
        <ele>665.0</ele>
        <time>2020-09-29T17:02:37Z</time>
      </trkpt>
      <trkpt lat="40.7313630" lon="-3.5104250">
        <ele>665.0</ele>
        <time>2020-09-29T17:02:38Z</time>
      </trkpt>
      <trkpt lat="40.7312250" lon="-3.5104520">
        <ele>665.0</ele>
        <time>2020-09-29T17:02:39Z</time>
      </trkpt>
      <trkpt lat="40.7312250" lon="-3.5104520">
        <ele>665.0</ele>
        <time>2020-09-29T17:02:40Z</time>
      </trkpt>
      <trkpt lat="40.7310830" lon="-3.5104700">
        <ele>665.0</ele>
        <time>2020-09-29T17:02:41Z</time>
      </trkpt>
      <trkpt lat="40.7310130" lon="-3.5104820">
        <ele>665.0</ele>
        <time>2020-09-29T17:02:42Z</time>
      </trkpt>
      <trkpt lat="40.7310130" lon="-3.5104820">
        <ele>665.0</ele>
        <time>2020-09-29T17:02:43Z</time>
      </trkpt>
      <trkpt lat="40.7308820" lon="-3.5105050">
        <ele>665.0</ele>
        <time>2020-09-29T17:02:44Z</time>
      </trkpt>
      <trkpt lat="40.7308820" lon="-3.5105050">
        <ele>665.0</ele>
        <time>2020-09-29T17:02:45Z</time>
      </trkpt>
      <trkpt lat="40.7308820" lon="-3.5105050">
        <ele>665.0</ele>
        <time>2020-09-29T17:02:46Z</time>
      </trkpt>
      <trkpt lat="40.7307450" lon="-3.5105270">
        <ele>665.0</ele>
        <time>2020-09-29T17:02:47Z</time>
      </trkpt>
      <trkpt lat="40.7306100" lon="-3.5105500">
        <ele>665.0</ele>
        <time>2020-09-29T17:02:48Z</time>
      </trkpt>
      <trkpt lat="40.7305420" lon="-3.5105600">
        <ele>665.0</ele>
        <time>2020-09-29T17:02:49Z</time>
      </trkpt>
      <trkpt lat="40.7305420" lon="-3.5105600">
        <ele>665.0</ele>
        <time>2020-09-29T17:02:50Z</time>
      </trkpt>
      <trkpt lat="40.7304030" lon="-3.5105820">
        <ele>665.0</ele>
        <time>2020-09-29T17:02:51Z</time>
      </trkpt>
      <trkpt lat="40.7304030" lon="-3.5105820">
        <ele>665.0</ele>
        <time>2020-09-29T17:02:52Z</time>
      </trkpt>
      <trkpt lat="40.7302680" lon="-3.5106070">
        <ele>665.0</ele>
        <time>2020-09-29T17:02:53Z</time>
      </trkpt>
      <trkpt lat="40.7302680" lon="-3.5106070">
        <ele>665.0</ele>
        <time>2020-09-29T17:02:54Z</time>
      </trkpt>
      <trkpt lat="40.7301320" lon="-3.5106280">
        <ele>665.0</ele>
        <time>2020-09-29T17:02:55Z</time>
      </trkpt>
      <trkpt lat="40.7301320" lon="-3.5106280">
        <ele>665.0</ele>
        <time>2020-09-29T17:02:56Z</time>
      </trkpt>
      <trkpt lat="40.7299950" lon="-3.5106500">
        <ele>665.0</ele>
        <time>2020-09-29T17:02:57Z</time>
      </trkpt>
      <trkpt lat="40.7299270" lon="-3.5106600">
        <ele>665.0</ele>
        <time>2020-09-29T17:02:58Z</time>
      </trkpt>
      <trkpt lat="40.7299270" lon="-3.5106600">
        <ele>665.0</ele>
        <time>2020-09-29T17:02:59Z</time>
      </trkpt>
      <trkpt lat="40.7297920" lon="-3.5106850">
        <ele>665.0</ele>
        <time>2020-09-29T17:03:00Z</time>
      </trkpt>
      <trkpt lat="40.7297920" lon="-3.5106850">
        <ele>665.0</ele>
        <time>2020-09-29T17:03:01Z</time>
      </trkpt>
      <trkpt lat="40.7296520" lon="-3.5107080">
        <ele>665.0</ele>
        <time>2020-09-29T17:03:02Z</time>
      </trkpt>
      <trkpt lat="40.7296520" lon="-3.5107080">
        <ele>665.0</ele>
        <time>2020-09-29T17:03:03Z</time>
      </trkpt>
      <trkpt lat="40.7295130" lon="-3.5107330">
        <ele>665.0</ele>
        <time>2020-09-29T17:03:04Z</time>
      </trkpt>
      <trkpt lat="40.7295130" lon="-3.5107330">
        <ele>665.0</ele>
        <time>2020-09-29T17:03:05Z</time>
      </trkpt>
      <trkpt lat="40.7293730" lon="-3.5107550">
        <ele>665.0</ele>
        <time>2020-09-29T17:03:06Z</time>
      </trkpt>
      <trkpt lat="40.7293030" lon="-3.5107670">
        <ele>665.0</ele>
        <time>2020-09-29T17:03:07Z</time>
      </trkpt>
      <trkpt lat="40.7293030" lon="-3.5107670">
        <ele>665.0</ele>
        <time>2020-09-29T17:03:08Z</time>
      </trkpt>
      <trkpt lat="40.7291630" lon="-3.5107930">
        <ele>665.0</ele>
        <time>2020-09-29T17:03:09Z</time>
      </trkpt>
      <trkpt lat="40.7291630" lon="-3.5107930">
        <ele>665.0</ele>
        <time>2020-09-29T17:03:10Z</time>
      </trkpt>
      <trkpt lat="40.7290220" lon="-3.5108250">
        <ele>665.0</ele>
        <time>2020-09-29T17:03:11Z</time>
      </trkpt>
      <trkpt lat="40.7289500" lon="-3.5108350">
        <ele>665.0</ele>
        <time>2020-09-29T17:03:12Z</time>
      </trkpt>
      <trkpt lat="40.7288780" lon="-3.5108450">
        <ele>665.0</ele>
        <time>2020-09-29T17:03:13Z</time>
      </trkpt>
      <trkpt lat="40.7288780" lon="-3.5108450">
        <ele>665.0</ele>
        <time>2020-09-29T17:03:14Z</time>
      </trkpt>
      <trkpt lat="40.7287370" lon="-3.5108670">
        <ele>665.0</ele>
        <time>2020-09-29T17:03:15Z</time>
      </trkpt>
      <trkpt lat="40.7286680" lon="-3.5108830">
        <ele>665.0</ele>
        <time>2020-09-29T17:03:16Z</time>
      </trkpt>
      <trkpt lat="40.7286680" lon="-3.5108830">
        <ele>665.0</ele>
        <time>2020-09-29T17:03:17Z</time>
      </trkpt>
      <trkpt lat="40.7285270" lon="-3.5109100">
        <ele>665.0</ele>
        <time>2020-09-29T17:03:18Z</time>
      </trkpt>
      <trkpt lat="40.7284550" lon="-3.5109250">
        <ele>665.0</ele>
        <time>2020-09-29T17:03:19Z</time>
      </trkpt>
      <trkpt lat="40.7284550" lon="-3.5109250">
        <ele>665.0</ele>
        <time>2020-09-29T17:03:20Z</time>
      </trkpt>
      <trkpt lat="40.7283170" lon="-3.5109570">
        <ele>665.0</ele>
        <time>2020-09-29T17:03:21Z</time>
      </trkpt>
      <trkpt lat="40.7283170" lon="-3.5109570">
        <ele>665.0</ele>
        <time>2020-09-29T17:03:22Z</time>
      </trkpt>
      <trkpt lat="40.7281770" lon="-3.5109880">
        <ele>665.0</ele>
        <time>2020-09-29T17:03:23Z</time>
      </trkpt>
      <trkpt lat="40.7281770" lon="-3.5109880">
        <ele>665.0</ele>
        <time>2020-09-29T17:03:24Z</time>
      </trkpt>
      <trkpt lat="40.7280370" lon="-3.5110170">
        <ele>665.0</ele>
        <time>2020-09-29T17:03:25Z</time>
      </trkpt>
      <trkpt lat="40.7280370" lon="-3.5110170">
        <ele>665.0</ele>
        <time>2020-09-29T17:03:26Z</time>
      </trkpt>
      <trkpt lat="40.7278970" lon="-3.5110470">
        <ele>665.0</ele>
        <time>2020-09-29T17:03:27Z</time>
      </trkpt>
      <trkpt lat="40.7278970" lon="-3.5110470">
        <ele>665.0</ele>
        <time>2020-09-29T17:03:28Z</time>
      </trkpt>
      <trkpt lat="40.7278970" lon="-3.5110470">
        <ele>665.0</ele>
        <time>2020-09-29T17:03:29Z</time>
      </trkpt>
      <trkpt lat="40.7277550" lon="-3.5110720">
        <ele>664.0</ele>
        <time>2020-09-29T17:03:30Z</time>
      </trkpt>
      <trkpt lat="40.7276150" lon="-3.5111020">
        <ele>664.0</ele>
        <time>2020-09-29T17:03:31Z</time>
      </trkpt>
      <trkpt lat="40.7275450" lon="-3.5111170">
        <ele>664.0</ele>
        <time>2020-09-29T17:03:32Z</time>
      </trkpt>
      <trkpt lat="40.7275450" lon="-3.5111170">
        <ele>664.0</ele>
        <time>2020-09-29T17:03:33Z</time>
      </trkpt>
      <trkpt lat="40.7274080" lon="-3.5111470">
        <ele>664.0</ele>
        <time>2020-09-29T17:03:34Z</time>
      </trkpt>
      <trkpt lat="40.7273380" lon="-3.5111620">
        <ele>664.0</ele>
        <time>2020-09-29T17:03:35Z</time>
      </trkpt>
      <trkpt lat="40.7272680" lon="-3.5111750">
        <ele>664.0</ele>
        <time>2020-09-29T17:03:36Z</time>
      </trkpt>
      <trkpt lat="40.7271980" lon="-3.5111900">
        <ele>664.0</ele>
        <time>2020-09-29T17:03:37Z</time>
      </trkpt>
      <trkpt lat="40.7271980" lon="-3.5111900">
        <ele>664.0</ele>
        <time>2020-09-29T17:03:38Z</time>
      </trkpt>
      <trkpt lat="40.7270570" lon="-3.5112150">
        <ele>664.0</ele>
        <time>2020-09-29T17:03:39Z</time>
      </trkpt>
      <trkpt lat="40.7270570" lon="-3.5112150">
        <ele>664.0</ele>
        <time>2020-09-29T17:03:40Z</time>
      </trkpt>
      <trkpt lat="40.7269130" lon="-3.5112480">
        <ele>664.0</ele>
        <time>2020-09-29T17:03:41Z</time>
      </trkpt>
      <trkpt lat="40.7269130" lon="-3.5112480">
        <ele>664.0</ele>
        <time>2020-09-29T17:03:42Z</time>
      </trkpt>
      <trkpt lat="40.7267780" lon="-3.5112800">
        <ele>665.0</ele>
        <time>2020-09-29T17:03:43Z</time>
      </trkpt>
      <trkpt lat="40.7267780" lon="-3.5112800">
        <ele>665.0</ele>
        <time>2020-09-29T17:03:44Z</time>
      </trkpt>
      <trkpt lat="40.7266450" lon="-3.5113070">
        <ele>665.0</ele>
        <time>2020-09-29T17:03:45Z</time>
      </trkpt>
      <trkpt lat="40.7265750" lon="-3.5113180">
        <ele>665.0</ele>
        <time>2020-09-29T17:03:46Z</time>
      </trkpt>
      <trkpt lat="40.7265750" lon="-3.5113180">
        <ele>665.0</ele>
        <time>2020-09-29T17:03:47Z</time>
      </trkpt>
      <trkpt lat="40.7264350" lon="-3.5113480">
        <ele>665.0</ele>
        <time>2020-09-29T17:03:48Z</time>
      </trkpt>
      <trkpt lat="40.7263650" lon="-3.5113630">
        <ele>665.0</ele>
        <time>2020-09-29T17:03:49Z</time>
      </trkpt>
      <trkpt lat="40.7263650" lon="-3.5113630">
        <ele>665.0</ele>
        <time>2020-09-29T17:03:50Z</time>
      </trkpt>
      <trkpt lat="40.7262300" lon="-3.5113900">
        <ele>666.0</ele>
        <time>2020-09-29T17:03:51Z</time>
      </trkpt>
      <trkpt lat="40.7262300" lon="-3.5113900">
        <ele>666.0</ele>
        <time>2020-09-29T17:03:52Z</time>
      </trkpt>
      <trkpt lat="40.7260980" lon="-3.5114180">
        <ele>666.0</ele>
        <time>2020-09-29T17:03:53Z</time>
      </trkpt>
      <trkpt lat="40.7260980" lon="-3.5114180">
        <ele>666.0</ele>
        <time>2020-09-29T17:03:54Z</time>
      </trkpt>
      <trkpt lat="40.7259620" lon="-3.5114400">
        <ele>666.0</ele>
        <time>2020-09-29T17:03:55Z</time>
      </trkpt>
      <trkpt lat="40.7259620" lon="-3.5114400">
        <ele>666.0</ele>
        <time>2020-09-29T17:03:56Z</time>
      </trkpt>
      <trkpt lat="40.7258220" lon="-3.5114580">
        <ele>666.0</ele>
        <time>2020-09-29T17:03:57Z</time>
      </trkpt>
      <trkpt lat="40.7258220" lon="-3.5114580">
        <ele>666.0</ele>
        <time>2020-09-29T17:03:58Z</time>
      </trkpt>
      <trkpt lat="40.7256850" lon="-3.5114820">
        <ele>666.0</ele>
        <time>2020-09-29T17:03:59Z</time>
      </trkpt>
      <trkpt lat="40.7256170" lon="-3.5114930">
        <ele>666.0</ele>
        <time>2020-09-29T17:04:00Z</time>
      </trkpt>
      <trkpt lat="40.7256170" lon="-3.5114930">
        <ele>666.0</ele>
        <time>2020-09-29T17:04:01Z</time>
      </trkpt>
      <trkpt lat="40.7254850" lon="-3.5115170">
        <ele>666.0</ele>
        <time>2020-09-29T17:04:02Z</time>
      </trkpt>
      <trkpt lat="40.7254850" lon="-3.5115170">
        <ele>667.0</ele>
        <time>2020-09-29T17:04:03Z</time>
      </trkpt>
      <trkpt lat="40.7253550" lon="-3.5115380">
        <ele>667.0</ele>
        <time>2020-09-29T17:04:04Z</time>
      </trkpt>
      <trkpt lat="40.7253550" lon="-3.5115380">
        <ele>667.0</ele>
        <time>2020-09-29T17:04:05Z</time>
      </trkpt>
      <trkpt lat="40.7252180" lon="-3.5115570">
        <ele>667.0</ele>
        <time>2020-09-29T17:04:06Z</time>
      </trkpt>
      <trkpt lat="40.7251530" lon="-3.5115680">
        <ele>667.0</ele>
        <time>2020-09-29T17:04:07Z</time>
      </trkpt>
      <trkpt lat="40.7251530" lon="-3.5115680">
        <ele>667.0</ele>
        <time>2020-09-29T17:04:08Z</time>
      </trkpt>
      <trkpt lat="40.7250220" lon="-3.5115880">
        <ele>667.0</ele>
        <time>2020-09-29T17:04:09Z</time>
      </trkpt>
      <trkpt lat="40.7249580" lon="-3.5115980">
        <ele>667.0</ele>
        <time>2020-09-29T17:04:10Z</time>
      </trkpt>
      <trkpt lat="40.7249580" lon="-3.5115980">
        <ele>667.0</ele>
        <time>2020-09-29T17:04:11Z</time>
      </trkpt>
      <trkpt lat="40.7248170" lon="-3.5116230">
        <ele>667.0</ele>
        <time>2020-09-29T17:04:12Z</time>
      </trkpt>
      <trkpt lat="40.7247470" lon="-3.5116330">
        <ele>668.0</ele>
        <time>2020-09-29T17:04:13Z</time>
      </trkpt>
      <trkpt lat="40.7247470" lon="-3.5116330">
        <ele>668.0</ele>
        <time>2020-09-29T17:04:14Z</time>
      </trkpt>
      <trkpt lat="40.7246100" lon="-3.5116530">
        <ele>668.0</ele>
        <time>2020-09-29T17:04:15Z</time>
      </trkpt>
      <trkpt lat="40.7246100" lon="-3.5116530">
        <ele>668.0</ele>
        <time>2020-09-29T17:04:16Z</time>
      </trkpt>
      <trkpt lat="40.7244750" lon="-3.5116750">
        <ele>668.0</ele>
        <time>2020-09-29T17:04:17Z</time>
      </trkpt>
      <trkpt lat="40.7244750" lon="-3.5116750">
        <ele>668.0</ele>
        <time>2020-09-29T17:04:18Z</time>
      </trkpt>
      <trkpt lat="40.7243350" lon="-3.5116900">
        <ele>668.0</ele>
        <time>2020-09-29T17:04:19Z</time>
      </trkpt>
      <trkpt lat="40.7243350" lon="-3.5116900">
        <ele>668.0</ele>
        <time>2020-09-29T17:04:20Z</time>
      </trkpt>
      <trkpt lat="40.7241980" lon="-3.5117100">
        <ele>668.0</ele>
        <time>2020-09-29T17:04:21Z</time>
      </trkpt>
      <trkpt lat="40.7241320" lon="-3.5117180">
        <ele>668.0</ele>
        <time>2020-09-29T17:04:22Z</time>
      </trkpt>
      <trkpt lat="40.7241320" lon="-3.5117180">
        <ele>668.0</ele>
        <time>2020-09-29T17:04:23Z</time>
      </trkpt>
      <trkpt lat="40.7239980" lon="-3.5117370">
        <ele>668.0</ele>
        <time>2020-09-29T17:04:24Z</time>
      </trkpt>
      <trkpt lat="40.7239330" lon="-3.5117470">
        <ele>668.0</ele>
        <time>2020-09-29T17:04:25Z</time>
      </trkpt>
      <trkpt lat="40.7239330" lon="-3.5117470">
        <ele>668.0</ele>
        <time>2020-09-29T17:04:26Z</time>
      </trkpt>
      <trkpt lat="40.7238020" lon="-3.5117670">
        <ele>668.0</ele>
        <time>2020-09-29T17:04:27Z</time>
      </trkpt>
      <trkpt lat="40.7238020" lon="-3.5117670">
        <ele>668.0</ele>
        <time>2020-09-29T17:04:28Z</time>
      </trkpt>
      <trkpt lat="40.7236820" lon="-3.5117880">
        <ele>668.0</ele>
        <time>2020-09-29T17:04:29Z</time>
      </trkpt>
      <trkpt lat="40.7236820" lon="-3.5117880">
        <ele>668.0</ele>
        <time>2020-09-29T17:04:30Z</time>
      </trkpt>
      <trkpt lat="40.7235630" lon="-3.5118050">
        <ele>668.0</ele>
        <time>2020-09-29T17:04:31Z</time>
      </trkpt>
      <trkpt lat="40.7235630" lon="-3.5118050">
        <ele>669.0</ele>
        <time>2020-09-29T17:04:32Z</time>
      </trkpt>
      <trkpt lat="40.7234420" lon="-3.5118220">
        <ele>669.0</ele>
        <time>2020-09-29T17:04:33Z</time>
      </trkpt>
      <trkpt lat="40.7233800" lon="-3.5118270">
        <ele>669.0</ele>
        <time>2020-09-29T17:04:34Z</time>
      </trkpt>
      <trkpt lat="40.7233800" lon="-3.5118270">
        <ele>669.0</ele>
        <time>2020-09-29T17:04:35Z</time>
      </trkpt>
      <trkpt lat="40.7232550" lon="-3.5118330">
        <ele>669.0</ele>
        <time>2020-09-29T17:04:36Z</time>
      </trkpt>
      <trkpt lat="40.7231930" lon="-3.5118350">
        <ele>669.0</ele>
        <time>2020-09-29T17:04:37Z</time>
      </trkpt>
      <trkpt lat="40.7231930" lon="-3.5118350">
        <ele>670.0</ele>
        <time>2020-09-29T17:04:38Z</time>
      </trkpt>
      <trkpt lat="40.7230650" lon="-3.5118380">
        <ele>670.0</ele>
        <time>2020-09-29T17:04:39Z</time>
      </trkpt>
      <trkpt lat="40.7230020" lon="-3.5118380">
        <ele>670.0</ele>
        <time>2020-09-29T17:04:40Z</time>
      </trkpt>
      <trkpt lat="40.7230020" lon="-3.5118380">
        <ele>670.0</ele>
        <time>2020-09-29T17:04:41Z</time>
      </trkpt>
      <trkpt lat="40.7228830" lon="-3.5118330">
        <ele>670.0</ele>
        <time>2020-09-29T17:04:42Z</time>
      </trkpt>
      <trkpt lat="40.7228150" lon="-3.5118350">
        <ele>670.0</ele>
        <time>2020-09-29T17:04:43Z</time>
      </trkpt>
      <trkpt lat="40.7228150" lon="-3.5118350">
        <ele>670.0</ele>
        <time>2020-09-29T17:04:44Z</time>
      </trkpt>
      <trkpt lat="40.7226820" lon="-3.5118250">
        <ele>670.0</ele>
        <time>2020-09-29T17:04:45Z</time>
      </trkpt>
      <trkpt lat="40.7226820" lon="-3.5118250">
        <ele>670.0</ele>
        <time>2020-09-29T17:04:46Z</time>
      </trkpt>
      <trkpt lat="40.7225520" lon="-3.5118120">
        <ele>670.0</ele>
        <time>2020-09-29T17:04:47Z</time>
      </trkpt>
      <trkpt lat="40.7224900" lon="-3.5118030">
        <ele>670.0</ele>
        <time>2020-09-29T17:04:48Z</time>
      </trkpt>
      <trkpt lat="40.7224900" lon="-3.5118030">
        <ele>670.0</ele>
        <time>2020-09-29T17:04:49Z</time>
      </trkpt>
      <trkpt lat="40.7223620" lon="-3.5117820">
        <ele>670.0</ele>
        <time>2020-09-29T17:04:50Z</time>
      </trkpt>
      <trkpt lat="40.7223620" lon="-3.5117820">
        <ele>671.0</ele>
        <time>2020-09-29T17:04:51Z</time>
      </trkpt>
      <trkpt lat="40.7222370" lon="-3.5117550">
        <ele>671.0</ele>
        <time>2020-09-29T17:04:52Z</time>
      </trkpt>
      <trkpt lat="40.7222370" lon="-3.5117550">
        <ele>671.0</ele>
        <time>2020-09-29T17:04:53Z</time>
      </trkpt>
      <trkpt lat="40.7221120" lon="-3.5117220">
        <ele>671.0</ele>
        <time>2020-09-29T17:04:54Z</time>
      </trkpt>
      <trkpt lat="40.7220500" lon="-3.5117020">
        <ele>671.0</ele>
        <time>2020-09-29T17:04:55Z</time>
      </trkpt>
      <trkpt lat="40.7220500" lon="-3.5117020">
        <ele>671.0</ele>
        <time>2020-09-29T17:04:56Z</time>
      </trkpt>
      <trkpt lat="40.7219320" lon="-3.5116620">
        <ele>671.0</ele>
        <time>2020-09-29T17:04:57Z</time>
      </trkpt>
      <trkpt lat="40.7218700" lon="-3.5116400">
        <ele>671.0</ele>
        <time>2020-09-29T17:04:58Z</time>
      </trkpt>
      <trkpt lat="40.7218100" lon="-3.5116180">
        <ele>671.0</ele>
        <time>2020-09-29T17:04:59Z</time>
      </trkpt>
      <trkpt lat="40.7218100" lon="-3.5116180">
        <ele>671.0</ele>
        <time>2020-09-29T17:05:00Z</time>
      </trkpt>
      <trkpt lat="40.7216920" lon="-3.5115770">
        <ele>671.0</ele>
        <time>2020-09-29T17:05:01Z</time>
      </trkpt>
      <trkpt lat="40.7216920" lon="-3.5115770">
        <ele>671.0</ele>
        <time>2020-09-29T17:05:02Z</time>
      </trkpt>
      <trkpt lat="40.7215730" lon="-3.5115320">
        <ele>671.0</ele>
        <time>2020-09-29T17:05:03Z</time>
      </trkpt>
      <trkpt lat="40.7215120" lon="-3.5115080">
        <ele>671.0</ele>
        <time>2020-09-29T17:05:04Z</time>
      </trkpt>
      <trkpt lat="40.7215120" lon="-3.5115080">
        <ele>671.0</ele>
        <time>2020-09-29T17:05:05Z</time>
      </trkpt>
      <trkpt lat="40.7213930" lon="-3.5114620">
        <ele>672.0</ele>
        <time>2020-09-29T17:05:06Z</time>
      </trkpt>
      <trkpt lat="40.7213350" lon="-3.5114350">
        <ele>672.0</ele>
        <time>2020-09-29T17:05:07Z</time>
      </trkpt>
      <trkpt lat="40.7213350" lon="-3.5114350">
        <ele>672.0</ele>
        <time>2020-09-29T17:05:08Z</time>
      </trkpt>
      <trkpt lat="40.7212180" lon="-3.5113880">
        <ele>672.0</ele>
        <time>2020-09-29T17:05:09Z</time>
      </trkpt>
      <trkpt lat="40.7212180" lon="-3.5113880">
        <ele>672.0</ele>
        <time>2020-09-29T17:05:10Z</time>
      </trkpt>
      <trkpt lat="40.7211030" lon="-3.5113350">
        <ele>672.0</ele>
        <time>2020-09-29T17:05:11Z</time>
      </trkpt>
      <trkpt lat="40.7210450" lon="-3.5113080">
        <ele>673.0</ele>
        <time>2020-09-29T17:05:12Z</time>
      </trkpt>
      <trkpt lat="40.7210450" lon="-3.5113080">
        <ele>673.0</ele>
        <time>2020-09-29T17:05:13Z</time>
      </trkpt>
      <trkpt lat="40.7209230" lon="-3.5112570">
        <ele>673.0</ele>
        <time>2020-09-29T17:05:14Z</time>
      </trkpt>
      <trkpt lat="40.7208630" lon="-3.5112300">
        <ele>673.0</ele>
        <time>2020-09-29T17:05:15Z</time>
      </trkpt>
      <trkpt lat="40.7208630" lon="-3.5112300">
        <ele>673.0</ele>
        <time>2020-09-29T17:05:16Z</time>
      </trkpt>
      <trkpt lat="40.7207430" lon="-3.5111780">
        <ele>673.0</ele>
        <time>2020-09-29T17:05:17Z</time>
      </trkpt>
      <trkpt lat="40.7207430" lon="-3.5111780">
        <ele>673.0</ele>
        <time>2020-09-29T17:05:18Z</time>
      </trkpt>
      <trkpt lat="40.7206230" lon="-3.5111320">
        <ele>673.0</ele>
        <time>2020-09-29T17:05:19Z</time>
      </trkpt>
      <trkpt lat="40.7206230" lon="-3.5111320">
        <ele>673.0</ele>
        <time>2020-09-29T17:05:20Z</time>
      </trkpt>
      <trkpt lat="40.7205000" lon="-3.5110800">
        <ele>673.0</ele>
        <time>2020-09-29T17:05:21Z</time>
      </trkpt>
      <trkpt lat="40.7204400" lon="-3.5110550">
        <ele>673.0</ele>
        <time>2020-09-29T17:05:22Z</time>
      </trkpt>
      <trkpt lat="40.7203770" lon="-3.5110300">
        <ele>673.0</ele>
        <time>2020-09-29T17:05:23Z</time>
      </trkpt>
      <trkpt lat="40.7203770" lon="-3.5110300">
        <ele>674.0</ele>
        <time>2020-09-29T17:05:24Z</time>
      </trkpt>
      <trkpt lat="40.7202550" lon="-3.5109820">
        <ele>674.0</ele>
        <time>2020-09-29T17:05:25Z</time>
      </trkpt>
      <trkpt lat="40.7202550" lon="-3.5109820">
        <ele>674.0</ele>
        <time>2020-09-29T17:05:26Z</time>
      </trkpt>
      <trkpt lat="40.7201320" lon="-3.5109380">
        <ele>674.0</ele>
        <time>2020-09-29T17:05:27Z</time>
      </trkpt>
      <trkpt lat="40.7200700" lon="-3.5109180">
        <ele>674.0</ele>
        <time>2020-09-29T17:05:28Z</time>
      </trkpt>
      <trkpt lat="40.7200700" lon="-3.5109180">
        <ele>675.0</ele>
        <time>2020-09-29T17:05:29Z</time>
      </trkpt>
      <trkpt lat="40.7199470" lon="-3.5108820">
        <ele>675.0</ele>
        <time>2020-09-29T17:05:30Z</time>
      </trkpt>
      <trkpt lat="40.7198850" lon="-3.5108630">
        <ele>675.0</ele>
        <time>2020-09-29T17:05:31Z</time>
      </trkpt>
      <trkpt lat="40.7198850" lon="-3.5108630">
        <ele>675.0</ele>
        <time>2020-09-29T17:05:32Z</time>
      </trkpt>
      <trkpt lat="40.7197600" lon="-3.5108330">
        <ele>675.0</ele>
        <time>2020-09-29T17:05:33Z</time>
      </trkpt>
      <trkpt lat="40.7197600" lon="-3.5108330">
        <ele>675.0</ele>
        <time>2020-09-29T17:05:34Z</time>
      </trkpt>
      <trkpt lat="40.7196350" lon="-3.5108070">
        <ele>675.0</ele>
        <time>2020-09-29T17:05:35Z</time>
      </trkpt>
      <trkpt lat="40.7196350" lon="-3.5108070">
        <ele>675.0</ele>
        <time>2020-09-29T17:05:36Z</time>
      </trkpt>
      <trkpt lat="40.7195100" lon="-3.5107850">
        <ele>676.0</ele>
        <time>2020-09-29T17:05:37Z</time>
      </trkpt>
      <trkpt lat="40.7194470" lon="-3.5107730">
        <ele>676.0</ele>
        <time>2020-09-29T17:05:38Z</time>
      </trkpt>
      <trkpt lat="40.7194470" lon="-3.5107730">
        <ele>676.0</ele>
        <time>2020-09-29T17:05:39Z</time>
      </trkpt>
      <trkpt lat="40.7193180" lon="-3.5107530">
        <ele>676.0</ele>
        <time>2020-09-29T17:05:40Z</time>
      </trkpt>
      <trkpt lat="40.7193180" lon="-3.5107530">
        <ele>676.0</ele>
        <time>2020-09-29T17:05:41Z</time>
      </trkpt>
      <trkpt lat="40.7191920" lon="-3.5107350">
        <ele>676.0</ele>
        <time>2020-09-29T17:05:42Z</time>
      </trkpt>
      <trkpt lat="40.7191300" lon="-3.5107250">
        <ele>676.0</ele>
        <time>2020-09-29T17:05:43Z</time>
      </trkpt>
      <trkpt lat="40.7190700" lon="-3.5107150">
        <ele>676.0</ele>
        <time>2020-09-29T17:05:44Z</time>
      </trkpt>
      <trkpt lat="40.7190700" lon="-3.5107150">
        <ele>676.0</ele>
        <time>2020-09-29T17:05:45Z</time>
      </trkpt>
      <trkpt lat="40.7189430" lon="-3.5106980">
        <ele>676.0</ele>
        <time>2020-09-29T17:05:46Z</time>
      </trkpt>
      <trkpt lat="40.7188800" lon="-3.5106900">
        <ele>676.0</ele>
        <time>2020-09-29T17:05:47Z</time>
      </trkpt>
      <trkpt lat="40.7188800" lon="-3.5106900">
        <ele>676.0</ele>
        <time>2020-09-29T17:05:48Z</time>
      </trkpt>
      <trkpt lat="40.7187550" lon="-3.5106750">
        <ele>676.0</ele>
        <time>2020-09-29T17:05:49Z</time>
      </trkpt>
      <trkpt lat="40.7187550" lon="-3.5106750">
        <ele>676.0</ele>
        <time>2020-09-29T17:05:50Z</time>
      </trkpt>
      <trkpt lat="40.7186300" lon="-3.5106600">
        <ele>676.0</ele>
        <time>2020-09-29T17:05:51Z</time>
      </trkpt>
      <trkpt lat="40.7185670" lon="-3.5106500">
        <ele>676.0</ele>
        <time>2020-09-29T17:05:52Z</time>
      </trkpt>
      <trkpt lat="40.7185670" lon="-3.5106500">
        <ele>676.0</ele>
        <time>2020-09-29T17:05:53Z</time>
      </trkpt>
      <trkpt lat="40.7184370" lon="-3.5106300">
        <ele>676.0</ele>
        <time>2020-09-29T17:05:54Z</time>
      </trkpt>
      <trkpt lat="40.7184370" lon="-3.5106300">
        <ele>676.0</ele>
        <time>2020-09-29T17:05:55Z</time>
      </trkpt>
      <trkpt lat="40.7183070" lon="-3.5106120">
        <ele>676.0</ele>
        <time>2020-09-29T17:05:56Z</time>
      </trkpt>
      <trkpt lat="40.7183070" lon="-3.5106120">
        <ele>677.0</ele>
        <time>2020-09-29T17:05:57Z</time>
      </trkpt>
      <trkpt lat="40.7181770" lon="-3.5105930">
        <ele>677.0</ele>
        <time>2020-09-29T17:05:58Z</time>
      </trkpt>
      <trkpt lat="40.7181770" lon="-3.5105930">
        <ele>677.0</ele>
        <time>2020-09-29T17:05:59Z</time>
      </trkpt>
      <trkpt lat="40.7180470" lon="-3.5105720">
        <ele>677.0</ele>
        <time>2020-09-29T17:06:00Z</time>
      </trkpt>
      <trkpt lat="40.7179780" lon="-3.5105630">
        <ele>677.0</ele>
        <time>2020-09-29T17:06:01Z</time>
      </trkpt>
      <trkpt lat="40.7179780" lon="-3.5105630">
        <ele>677.0</ele>
        <time>2020-09-29T17:06:02Z</time>
      </trkpt>
      <trkpt lat="40.7178450" lon="-3.5105400">
        <ele>677.0</ele>
        <time>2020-09-29T17:06:03Z</time>
      </trkpt>
      <trkpt lat="40.7178450" lon="-3.5105400">
        <ele>677.0</ele>
        <time>2020-09-29T17:06:04Z</time>
      </trkpt>
      <trkpt lat="40.7177030" lon="-3.5105200">
        <ele>677.0</ele>
        <time>2020-09-29T17:06:05Z</time>
      </trkpt>
      <trkpt lat="40.7177030" lon="-3.5105200">
        <ele>677.0</ele>
        <time>2020-09-29T17:06:06Z</time>
      </trkpt>
      <trkpt lat="40.7175650" lon="-3.5105030">
        <ele>677.0</ele>
        <time>2020-09-29T17:06:07Z</time>
      </trkpt>
      <trkpt lat="40.7175650" lon="-3.5105030">
        <ele>677.0</ele>
        <time>2020-09-29T17:06:08Z</time>
      </trkpt>
      <trkpt lat="40.7174280" lon="-3.5104830">
        <ele>677.0</ele>
        <time>2020-09-29T17:06:09Z</time>
      </trkpt>
      <trkpt lat="40.7174280" lon="-3.5104830">
        <ele>677.0</ele>
        <time>2020-09-29T17:06:10Z</time>
      </trkpt>
      <trkpt lat="40.7172900" lon="-3.5104650">
        <ele>677.0</ele>
        <time>2020-09-29T17:06:11Z</time>
      </trkpt>
      <trkpt lat="40.7172200" lon="-3.5104550">
        <ele>677.0</ele>
        <time>2020-09-29T17:06:12Z</time>
      </trkpt>
      <trkpt lat="40.7171500" lon="-3.5104450">
        <ele>677.0</ele>
        <time>2020-09-29T17:06:13Z</time>
      </trkpt>
      <trkpt lat="40.7171500" lon="-3.5104450">
        <ele>677.0</ele>
        <time>2020-09-29T17:06:14Z</time>
      </trkpt>
      <trkpt lat="40.7170100" lon="-3.5104220">
        <ele>677.0</ele>
        <time>2020-09-29T17:06:15Z</time>
      </trkpt>
      <trkpt lat="40.7170100" lon="-3.5104220">
        <ele>677.0</ele>
        <time>2020-09-29T17:06:16Z</time>
      </trkpt>
      <trkpt lat="40.7169400" lon="-3.5104100">
        <ele>677.0</ele>
        <time>2020-09-29T17:06:17Z</time>
      </trkpt>
      <trkpt lat="40.7167930" lon="-3.5103920">
        <ele>677.0</ele>
        <time>2020-09-29T17:06:18Z</time>
      </trkpt>
      <trkpt lat="40.7167930" lon="-3.5103920">
        <ele>677.0</ele>
        <time>2020-09-29T17:06:19Z</time>
      </trkpt>
      <trkpt lat="40.7166430" lon="-3.5103720">
        <ele>677.0</ele>
        <time>2020-09-29T17:06:20Z</time>
      </trkpt>
      <trkpt lat="40.7166430" lon="-3.5103720">
        <ele>677.0</ele>
        <time>2020-09-29T17:06:21Z</time>
      </trkpt>
      <trkpt lat="40.7164880" lon="-3.5103480">
        <ele>677.0</ele>
        <time>2020-09-29T17:06:22Z</time>
      </trkpt>
      <trkpt lat="40.7164880" lon="-3.5103480">
        <ele>676.0</ele>
        <time>2020-09-29T17:06:23Z</time>
      </trkpt>
      <trkpt lat="40.7163270" lon="-3.5103230">
        <ele>676.0</ele>
        <time>2020-09-29T17:06:24Z</time>
      </trkpt>
      <trkpt lat="40.7162430" lon="-3.5103100">
        <ele>676.0</ele>
        <time>2020-09-29T17:06:25Z</time>
      </trkpt>
      <trkpt lat="40.7162430" lon="-3.5103100">
        <ele>676.0</ele>
        <time>2020-09-29T17:06:26Z</time>
      </trkpt>
      <trkpt lat="40.7160770" lon="-3.5102800">
        <ele>675.0</ele>
        <time>2020-09-29T17:06:27Z</time>
      </trkpt>
      <trkpt lat="40.7159930" lon="-3.5102670">
        <ele>675.0</ele>
        <time>2020-09-29T17:06:28Z</time>
      </trkpt>
      <trkpt lat="40.7159930" lon="-3.5102670">
        <ele>674.0</ele>
        <time>2020-09-29T17:06:29Z</time>
      </trkpt>
      <trkpt lat="40.7158220" lon="-3.5102450">
        <ele>674.0</ele>
        <time>2020-09-29T17:06:30Z</time>
      </trkpt>
      <trkpt lat="40.7157330" lon="-3.5102370">
        <ele>674.0</ele>
        <time>2020-09-29T17:06:31Z</time>
      </trkpt>
      <trkpt lat="40.7156430" lon="-3.5102230">
        <ele>674.0</ele>
        <time>2020-09-29T17:06:32Z</time>
      </trkpt>
      <trkpt lat="40.7156430" lon="-3.5102230">
        <ele>673.0</ele>
        <time>2020-09-29T17:06:33Z</time>
      </trkpt>
      <trkpt lat="40.7154580" lon="-3.5101980">
        <ele>673.0</ele>
        <time>2020-09-29T17:06:34Z</time>
      </trkpt>
      <trkpt lat="40.7153650" lon="-3.5101830">
        <ele>673.0</ele>
        <time>2020-09-29T17:06:35Z</time>
      </trkpt>
      <trkpt lat="40.7153650" lon="-3.5101830">
        <ele>673.0</ele>
        <time>2020-09-29T17:06:36Z</time>
      </trkpt>
      <trkpt lat="40.7151770" lon="-3.5101570">
        <ele>672.0</ele>
        <time>2020-09-29T17:06:37Z</time>
      </trkpt>
      <trkpt lat="40.7151770" lon="-3.5101570">
        <ele>672.0</ele>
        <time>2020-09-29T17:06:38Z</time>
      </trkpt>
      <trkpt lat="40.7149830" lon="-3.5101280">
        <ele>671.0</ele>
        <time>2020-09-29T17:06:39Z</time>
      </trkpt>
      <trkpt lat="40.7149830" lon="-3.5101280">
        <ele>671.0</ele>
        <time>2020-09-29T17:06:40Z</time>
      </trkpt>
      <trkpt lat="40.7147920" lon="-3.5101020">
        <ele>671.0</ele>
        <time>2020-09-29T17:06:41Z</time>
      </trkpt>
      <trkpt lat="40.7146970" lon="-3.5100880">
        <ele>670.0</ele>
        <time>2020-09-29T17:06:42Z</time>
      </trkpt>
      <trkpt lat="40.7146970" lon="-3.5100880">
        <ele>670.0</ele>
        <time>2020-09-29T17:06:43Z</time>
      </trkpt>
      <trkpt lat="40.7145120" lon="-3.5100650">
        <ele>670.0</ele>
        <time>2020-09-29T17:06:44Z</time>
      </trkpt>
      <trkpt lat="40.7145120" lon="-3.5100650">
        <ele>670.0</ele>
        <time>2020-09-29T17:06:45Z</time>
      </trkpt>
      <trkpt lat="40.7143300" lon="-3.5100400">
        <ele>670.0</ele>
        <time>2020-09-29T17:06:46Z</time>
      </trkpt>
      <trkpt lat="40.7143300" lon="-3.5100400">
        <ele>670.0</ele>
        <time>2020-09-29T17:06:47Z</time>
      </trkpt>
      <trkpt lat="40.7141530" lon="-3.5100150">
        <ele>670.0</ele>
        <time>2020-09-29T17:06:48Z</time>
      </trkpt>
      <trkpt lat="40.7141530" lon="-3.5100150">
        <ele>670.0</ele>
        <time>2020-09-29T17:06:49Z</time>
      </trkpt>
      <trkpt lat="40.7139750" lon="-3.5099880">
        <ele>670.0</ele>
        <time>2020-09-29T17:06:50Z</time>
      </trkpt>
      <trkpt lat="40.7138880" lon="-3.5099750">
        <ele>670.0</ele>
        <time>2020-09-29T17:06:51Z</time>
      </trkpt>
      <trkpt lat="40.7138880" lon="-3.5099750">
        <ele>670.0</ele>
        <time>2020-09-29T17:06:52Z</time>
      </trkpt>
      <trkpt lat="40.7137130" lon="-3.5099450">
        <ele>670.0</ele>
        <time>2020-09-29T17:06:53Z</time>
      </trkpt>
      <trkpt lat="40.7137130" lon="-3.5099450">
        <ele>670.0</ele>
        <time>2020-09-29T17:06:54Z</time>
      </trkpt>
      <trkpt lat="40.7135380" lon="-3.5099220">
        <ele>670.0</ele>
        <time>2020-09-29T17:06:55Z</time>
      </trkpt>
      <trkpt lat="40.7135380" lon="-3.5099220">
        <ele>670.0</ele>
        <time>2020-09-29T17:06:56Z</time>
      </trkpt>
      <trkpt lat="40.7133650" lon="-3.5098980">
        <ele>670.0</ele>
        <time>2020-09-29T17:06:57Z</time>
      </trkpt>
      <trkpt lat="40.7132800" lon="-3.5098870">
        <ele>670.0</ele>
        <time>2020-09-29T17:06:58Z</time>
      </trkpt>
      <trkpt lat="40.7132800" lon="-3.5098870">
        <ele>670.0</ele>
        <time>2020-09-29T17:06:59Z</time>
      </trkpt>
      <trkpt lat="40.7131100" lon="-3.5098600">
        <ele>670.0</ele>
        <time>2020-09-29T17:07:00Z</time>
      </trkpt>
      <trkpt lat="40.7131100" lon="-3.5098600">
        <ele>670.0</ele>
        <time>2020-09-29T17:07:01Z</time>
      </trkpt>
      <trkpt lat="40.7129430" lon="-3.5098330">
        <ele>670.0</ele>
        <time>2020-09-29T17:07:02Z</time>
      </trkpt>
      <trkpt lat="40.7129430" lon="-3.5098330">
        <ele>670.0</ele>
        <time>2020-09-29T17:07:03Z</time>
      </trkpt>
      <trkpt lat="40.7127770" lon="-3.5098080">
        <ele>670.0</ele>
        <time>2020-09-29T17:07:04Z</time>
      </trkpt>
      <trkpt lat="40.7127770" lon="-3.5098080">
        <ele>670.0</ele>
        <time>2020-09-29T17:07:05Z</time>
      </trkpt>
      <trkpt lat="40.7126100" lon="-3.5097850">
        <ele>670.0</ele>
        <time>2020-09-29T17:07:06Z</time>
      </trkpt>
      <trkpt lat="40.7126100" lon="-3.5097850">
        <ele>670.0</ele>
        <time>2020-09-29T17:07:07Z</time>
      </trkpt>
      <trkpt lat="40.7124470" lon="-3.5097670">
        <ele>670.0</ele>
        <time>2020-09-29T17:07:08Z</time>
      </trkpt>
      <trkpt lat="40.7124470" lon="-3.5097670">
        <ele>670.0</ele>
        <time>2020-09-29T17:07:09Z</time>
      </trkpt>
      <trkpt lat="40.7122830" lon="-3.5097450">
        <ele>670.0</ele>
        <time>2020-09-29T17:07:10Z</time>
      </trkpt>
      <trkpt lat="40.7122000" lon="-3.5097350">
        <ele>670.0</ele>
        <time>2020-09-29T17:07:11Z</time>
      </trkpt>
      <trkpt lat="40.7122000" lon="-3.5097350">
        <ele>670.0</ele>
        <time>2020-09-29T17:07:12Z</time>
      </trkpt>
      <trkpt lat="40.7120370" lon="-3.5097170">
        <ele>670.0</ele>
        <time>2020-09-29T17:07:13Z</time>
      </trkpt>
      <trkpt lat="40.7120370" lon="-3.5097170">
        <ele>670.0</ele>
        <time>2020-09-29T17:07:14Z</time>
      </trkpt>
      <trkpt lat="40.7118820" lon="-3.5097030">
        <ele>670.0</ele>
        <time>2020-09-29T17:07:15Z</time>
      </trkpt>
      <trkpt lat="40.7118820" lon="-3.5097030">
        <ele>670.0</ele>
        <time>2020-09-29T17:07:16Z</time>
      </trkpt>
      <trkpt lat="40.7117320" lon="-3.5097050">
        <ele>670.0</ele>
        <time>2020-09-29T17:07:17Z</time>
      </trkpt>
      <trkpt lat="40.7117320" lon="-3.5097050">
        <ele>671.0</ele>
        <time>2020-09-29T17:07:18Z</time>
      </trkpt>
      <trkpt lat="40.7115830" lon="-3.5097070">
        <ele>671.0</ele>
        <time>2020-09-29T17:07:19Z</time>
      </trkpt>
      <trkpt lat="40.7115830" lon="-3.5097070">
        <ele>671.0</ele>
        <time>2020-09-29T17:07:20Z</time>
      </trkpt>
      <trkpt lat="40.7114450" lon="-3.5097130">
        <ele>672.0</ele>
        <time>2020-09-29T17:07:21Z</time>
      </trkpt>
      <trkpt lat="40.7113780" lon="-3.5097200">
        <ele>672.0</ele>
        <time>2020-09-29T17:07:22Z</time>
      </trkpt>
      <trkpt lat="40.7113130" lon="-3.5097300">
        <ele>672.0</ele>
        <time>2020-09-29T17:07:23Z</time>
      </trkpt>
      <trkpt lat="40.7113130" lon="-3.5097300">
        <ele>672.0</ele>
        <time>2020-09-29T17:07:24Z</time>
      </trkpt>
      <trkpt lat="40.7111850" lon="-3.5097430">
        <ele>673.0</ele>
        <time>2020-09-29T17:07:25Z</time>
      </trkpt>
      <trkpt lat="40.7111850" lon="-3.5097430">
        <ele>673.0</ele>
        <time>2020-09-29T17:07:26Z</time>
      </trkpt>
      <trkpt lat="40.7110630" lon="-3.5097570">
        <ele>673.0</ele>
        <time>2020-09-29T17:07:27Z</time>
      </trkpt>
      <trkpt lat="40.7110630" lon="-3.5097570">
        <ele>673.0</ele>
        <time>2020-09-29T17:07:28Z</time>
      </trkpt>
      <trkpt lat="40.7109420" lon="-3.5097650">
        <ele>673.0</ele>
        <time>2020-09-29T17:07:29Z</time>
      </trkpt>
      <trkpt lat="40.7108800" lon="-3.5097720">
        <ele>673.0</ele>
        <time>2020-09-29T17:07:30Z</time>
      </trkpt>
      <trkpt lat="40.7108800" lon="-3.5097720">
        <ele>673.0</ele>
        <time>2020-09-29T17:07:31Z</time>
      </trkpt>
      <trkpt lat="40.7107630" lon="-3.5097830">
        <ele>673.0</ele>
        <time>2020-09-29T17:07:32Z</time>
      </trkpt>
      <trkpt lat="40.7107630" lon="-3.5097830">
        <ele>674.0</ele>
        <time>2020-09-29T17:07:33Z</time>
      </trkpt>
      <trkpt lat="40.7106450" lon="-3.5097920">
        <ele>674.0</ele>
        <time>2020-09-29T17:07:34Z</time>
      </trkpt>
      <trkpt lat="40.7106450" lon="-3.5097920">
        <ele>674.0</ele>
        <time>2020-09-29T17:07:35Z</time>
      </trkpt>
      <trkpt lat="40.7105250" lon="-3.5098000">
        <ele>674.0</ele>
        <time>2020-09-29T17:07:36Z</time>
      </trkpt>
      <trkpt lat="40.7104600" lon="-3.5098070">
        <ele>674.0</ele>
        <time>2020-09-29T17:07:37Z</time>
      </trkpt>
      <trkpt lat="40.7104600" lon="-3.5098070">
        <ele>674.0</ele>
        <time>2020-09-29T17:07:38Z</time>
      </trkpt>
      <trkpt lat="40.7103320" lon="-3.5098150">
        <ele>674.0</ele>
        <time>2020-09-29T17:07:39Z</time>
      </trkpt>
      <trkpt lat="40.7103320" lon="-3.5098150">
        <ele>674.0</ele>
        <time>2020-09-29T17:07:40Z</time>
      </trkpt>
      <trkpt lat="40.7101930" lon="-3.5098250">
        <ele>674.0</ele>
        <time>2020-09-29T17:07:41Z</time>
      </trkpt>
      <trkpt lat="40.7101930" lon="-3.5098250">
        <ele>674.0</ele>
        <time>2020-09-29T17:07:42Z</time>
      </trkpt>
      <trkpt lat="40.7100600" lon="-3.5098380">
        <ele>675.0</ele>
        <time>2020-09-29T17:07:43Z</time>
      </trkpt>
      <trkpt lat="40.7100600" lon="-3.5098380">
        <ele>675.0</ele>
        <time>2020-09-29T17:07:44Z</time>
      </trkpt>
      <trkpt lat="40.7099230" lon="-3.5098420">
        <ele>675.0</ele>
        <time>2020-09-29T17:07:45Z</time>
      </trkpt>
      <trkpt lat="40.7099230" lon="-3.5098420">
        <ele>675.0</ele>
        <time>2020-09-29T17:07:46Z</time>
      </trkpt>
      <trkpt lat="40.7098500" lon="-3.5098430">
        <ele>675.0</ele>
        <time>2020-09-29T17:07:47Z</time>
      </trkpt>
      <trkpt lat="40.7097050" lon="-3.5098520">
        <ele>675.0</ele>
        <time>2020-09-29T17:07:48Z</time>
      </trkpt>
      <trkpt lat="40.7096330" lon="-3.5098550">
        <ele>675.0</ele>
        <time>2020-09-29T17:07:49Z</time>
      </trkpt>
      <trkpt lat="40.7096330" lon="-3.5098550">
        <ele>675.0</ele>
        <time>2020-09-29T17:07:50Z</time>
      </trkpt>
      <trkpt lat="40.7094870" lon="-3.5098670">
        <ele>675.0</ele>
        <time>2020-09-29T17:07:51Z</time>
      </trkpt>
      <trkpt lat="40.7094130" lon="-3.5098730">
        <ele>675.0</ele>
        <time>2020-09-29T17:07:52Z</time>
      </trkpt>
      <trkpt lat="40.7094130" lon="-3.5098730">
        <ele>675.0</ele>
        <time>2020-09-29T17:07:53Z</time>
      </trkpt>
      <trkpt lat="40.7092620" lon="-3.5098930">
        <ele>674.0</ele>
        <time>2020-09-29T17:07:54Z</time>
      </trkpt>
      <trkpt lat="40.7091880" lon="-3.5098970">
        <ele>674.0</ele>
        <time>2020-09-29T17:07:55Z</time>
      </trkpt>
      <trkpt lat="40.7091880" lon="-3.5098970">
        <ele>674.0</ele>
        <time>2020-09-29T17:07:56Z</time>
      </trkpt>
      <trkpt lat="40.7090430" lon="-3.5099080">
        <ele>674.0</ele>
        <time>2020-09-29T17:07:57Z</time>
      </trkpt>
      <trkpt lat="40.7090430" lon="-3.5099080">
        <ele>674.0</ele>
        <time>2020-09-29T17:07:58Z</time>
      </trkpt>
      <trkpt lat="40.7088950" lon="-3.5099200">
        <ele>674.0</ele>
        <time>2020-09-29T17:07:59Z</time>
      </trkpt>
      <trkpt lat="40.7088950" lon="-3.5099200">
        <ele>674.0</ele>
        <time>2020-09-29T17:08:00Z</time>
      </trkpt>
      <trkpt lat="40.7087520" lon="-3.5099320">
        <ele>674.0</ele>
        <time>2020-09-29T17:08:01Z</time>
      </trkpt>
      <trkpt lat="40.7087520" lon="-3.5099320">
        <ele>674.0</ele>
        <time>2020-09-29T17:08:02Z</time>
      </trkpt>
      <trkpt lat="40.7086030" lon="-3.5099430">
        <ele>674.0</ele>
        <time>2020-09-29T17:08:03Z</time>
      </trkpt>
      <trkpt lat="40.7086030" lon="-3.5099430">
        <ele>674.0</ele>
        <time>2020-09-29T17:08:04Z</time>
      </trkpt>
      <trkpt lat="40.7084570" lon="-3.5099530">
        <ele>674.0</ele>
        <time>2020-09-29T17:08:05Z</time>
      </trkpt>
      <trkpt lat="40.7083830" lon="-3.5099580">
        <ele>674.0</ele>
        <time>2020-09-29T17:08:06Z</time>
      </trkpt>
      <trkpt lat="40.7083830" lon="-3.5099580">
        <ele>674.0</ele>
        <time>2020-09-29T17:08:07Z</time>
      </trkpt>
      <trkpt lat="40.7083830" lon="-3.5099580">
        <ele>674.0</ele>
        <time>2020-09-29T17:08:08Z</time>
      </trkpt>
      <trkpt lat="40.7082370" lon="-3.5099700">
        <ele>674.0</ele>
        <time>2020-09-29T17:08:09Z</time>
      </trkpt>
      <trkpt lat="40.7080870" lon="-3.5099830">
        <ele>674.0</ele>
        <time>2020-09-29T17:08:10Z</time>
      </trkpt>
      <trkpt lat="40.7080120" lon="-3.5099900">
        <ele>674.0</ele>
        <time>2020-09-29T17:08:11Z</time>
      </trkpt>
      <trkpt lat="40.7080120" lon="-3.5099900">
        <ele>674.0</ele>
        <time>2020-09-29T17:08:12Z</time>
      </trkpt>
      <trkpt lat="40.7078570" lon="-3.5100000">
        <ele>674.0</ele>
        <time>2020-09-29T17:08:13Z</time>
      </trkpt>
      <trkpt lat="40.7078570" lon="-3.5100000">
        <ele>674.0</ele>
        <time>2020-09-29T17:08:14Z</time>
      </trkpt>
      <trkpt lat="40.7077100" lon="-3.5100080">
        <ele>674.0</ele>
        <time>2020-09-29T17:08:15Z</time>
      </trkpt>
      <trkpt lat="40.7076370" lon="-3.5100130">
        <ele>674.0</ele>
        <time>2020-09-29T17:08:16Z</time>
      </trkpt>
      <trkpt lat="40.7076370" lon="-3.5100130">
        <ele>674.0</ele>
        <time>2020-09-29T17:08:17Z</time>
      </trkpt>
      <trkpt lat="40.7074920" lon="-3.5100230">
        <ele>674.0</ele>
        <time>2020-09-29T17:08:18Z</time>
      </trkpt>
      <trkpt lat="40.7074200" lon="-3.5100300">
        <ele>674.0</ele>
        <time>2020-09-29T17:08:19Z</time>
      </trkpt>
      <trkpt lat="40.7074200" lon="-3.5100300">
        <ele>674.0</ele>
        <time>2020-09-29T17:08:20Z</time>
      </trkpt>
      <trkpt lat="40.7072750" lon="-3.5100420">
        <ele>674.0</ele>
        <time>2020-09-29T17:08:21Z</time>
      </trkpt>
      <trkpt lat="40.7072750" lon="-3.5100420">
        <ele>674.0</ele>
        <time>2020-09-29T17:08:22Z</time>
      </trkpt>
      <trkpt lat="40.7071300" lon="-3.5100500">
        <ele>674.0</ele>
        <time>2020-09-29T17:08:23Z</time>
      </trkpt>
      <trkpt lat="40.7070550" lon="-3.5100550">
        <ele>674.0</ele>
        <time>2020-09-29T17:08:24Z</time>
      </trkpt>
      <trkpt lat="40.7069820" lon="-3.5100620">
        <ele>673.0</ele>
        <time>2020-09-29T17:08:25Z</time>
      </trkpt>
      <trkpt lat="40.7069820" lon="-3.5100620">
        <ele>673.0</ele>
        <time>2020-09-29T17:08:26Z</time>
      </trkpt>
      <trkpt lat="40.7069820" lon="-3.5100620">
        <ele>673.0</ele>
        <time>2020-09-29T17:08:27Z</time>
      </trkpt>
      <trkpt lat="40.7068300" lon="-3.5100700">
        <ele>673.0</ele>
        <time>2020-09-29T17:08:28Z</time>
      </trkpt>
      <trkpt lat="40.7066770" lon="-3.5100850">
        <ele>673.0</ele>
        <time>2020-09-29T17:08:29Z</time>
      </trkpt>
      <trkpt lat="40.7066770" lon="-3.5100850">
        <ele>673.0</ele>
        <time>2020-09-29T17:08:30Z</time>
      </trkpt>
      <trkpt lat="40.7065200" lon="-3.5101020">
        <ele>673.0</ele>
        <time>2020-09-29T17:08:31Z</time>
      </trkpt>
      <trkpt lat="40.7065200" lon="-3.5101020">
        <ele>673.0</ele>
        <time>2020-09-29T17:08:32Z</time>
      </trkpt>
      <trkpt lat="40.7063650" lon="-3.5101120">
        <ele>673.0</ele>
        <time>2020-09-29T17:08:33Z</time>
      </trkpt>
      <trkpt lat="40.7062900" lon="-3.5101200">
        <ele>673.0</ele>
        <time>2020-09-29T17:08:34Z</time>
      </trkpt>
      <trkpt lat="40.7062130" lon="-3.5101270">
        <ele>673.0</ele>
        <time>2020-09-29T17:08:35Z</time>
      </trkpt>
      <trkpt lat="40.7062130" lon="-3.5101270">
        <ele>673.0</ele>
        <time>2020-09-29T17:08:36Z</time>
      </trkpt>
      <trkpt lat="40.7060620" lon="-3.5101380">
        <ele>673.0</ele>
        <time>2020-09-29T17:08:37Z</time>
      </trkpt>
      <trkpt lat="40.7060620" lon="-3.5101380">
        <ele>673.0</ele>
        <time>2020-09-29T17:08:38Z</time>
      </trkpt>
      <trkpt lat="40.7059120" lon="-3.5101500">
        <ele>673.0</ele>
        <time>2020-09-29T17:08:39Z</time>
      </trkpt>
      <trkpt lat="40.7059120" lon="-3.5101500">
        <ele>673.0</ele>
        <time>2020-09-29T17:08:40Z</time>
      </trkpt>
      <trkpt lat="40.7057620" lon="-3.5101630">
        <ele>673.0</ele>
        <time>2020-09-29T17:08:41Z</time>
      </trkpt>
      <trkpt lat="40.7057620" lon="-3.5101630">
        <ele>673.0</ele>
        <time>2020-09-29T17:08:42Z</time>
      </trkpt>
      <trkpt lat="40.7056080" lon="-3.5101730">
        <ele>673.0</ele>
        <time>2020-09-29T17:08:43Z</time>
      </trkpt>
      <trkpt lat="40.7056080" lon="-3.5101730">
        <ele>673.0</ele>
        <time>2020-09-29T17:08:44Z</time>
      </trkpt>
      <trkpt lat="40.7054480" lon="-3.5101820">
        <ele>673.0</ele>
        <time>2020-09-29T17:08:45Z</time>
      </trkpt>
      <trkpt lat="40.7053700" lon="-3.5101900">
        <ele>673.0</ele>
        <time>2020-09-29T17:08:46Z</time>
      </trkpt>
      <trkpt lat="40.7053700" lon="-3.5101900">
        <ele>673.0</ele>
        <time>2020-09-29T17:08:47Z</time>
      </trkpt>
      <trkpt lat="40.7053700" lon="-3.5101900">
        <ele>673.0</ele>
        <time>2020-09-29T17:08:48Z</time>
      </trkpt>
      <trkpt lat="40.7052170" lon="-3.5101980">
        <ele>673.0</ele>
        <time>2020-09-29T17:08:49Z</time>
      </trkpt>
      <trkpt lat="40.7050620" lon="-3.5102050">
        <ele>673.0</ele>
        <time>2020-09-29T17:08:50Z</time>
      </trkpt>
      <trkpt lat="40.7050620" lon="-3.5102050">
        <ele>673.0</ele>
        <time>2020-09-29T17:08:51Z</time>
      </trkpt>
      <trkpt lat="40.7049100" lon="-3.5102120">
        <ele>673.0</ele>
        <time>2020-09-29T17:08:52Z</time>
      </trkpt>
      <trkpt lat="40.7048350" lon="-3.5102130">
        <ele>673.0</ele>
        <time>2020-09-29T17:08:53Z</time>
      </trkpt>
      <trkpt lat="40.7048350" lon="-3.5102130">
        <ele>673.0</ele>
        <time>2020-09-29T17:08:54Z</time>
      </trkpt>
      <trkpt lat="40.7046800" lon="-3.5102080">
        <ele>673.0</ele>
        <time>2020-09-29T17:08:55Z</time>
      </trkpt>
      <trkpt lat="40.7046020" lon="-3.5102030">
        <ele>672.0</ele>
        <time>2020-09-29T17:08:56Z</time>
      </trkpt>
      <trkpt lat="40.7046020" lon="-3.5102030">
        <ele>672.0</ele>
        <time>2020-09-29T17:08:57Z</time>
      </trkpt>
      <trkpt lat="40.7044430" lon="-3.5101800">
        <ele>672.0</ele>
        <time>2020-09-29T17:08:58Z</time>
      </trkpt>
      <trkpt lat="40.7043630" lon="-3.5101630">
        <ele>672.0</ele>
        <time>2020-09-29T17:08:59Z</time>
      </trkpt>
      <trkpt lat="40.7043630" lon="-3.5101630">
        <ele>672.0</ele>
        <time>2020-09-29T17:09:00Z</time>
      </trkpt>
      <trkpt lat="40.7042080" lon="-3.5101250">
        <ele>672.0</ele>
        <time>2020-09-29T17:09:01Z</time>
      </trkpt>
      <trkpt lat="40.7042080" lon="-3.5101250">
        <ele>672.0</ele>
        <time>2020-09-29T17:09:02Z</time>
      </trkpt>
      <trkpt lat="40.7040520" lon="-3.5100830">
        <ele>672.0</ele>
        <time>2020-09-29T17:09:03Z</time>
      </trkpt>
      <trkpt lat="40.7040520" lon="-3.5100830">
        <ele>672.0</ele>
        <time>2020-09-29T17:09:04Z</time>
      </trkpt>
      <trkpt lat="40.7038920" lon="-3.5100350">
        <ele>672.0</ele>
        <time>2020-09-29T17:09:05Z</time>
      </trkpt>
      <trkpt lat="40.7038130" lon="-3.5100070">
        <ele>672.0</ele>
        <time>2020-09-29T17:09:06Z</time>
      </trkpt>
      <trkpt lat="40.7038130" lon="-3.5100070">
        <ele>672.0</ele>
        <time>2020-09-29T17:09:07Z</time>
      </trkpt>
      <trkpt lat="40.7036570" lon="-3.5099500">
        <ele>672.0</ele>
        <time>2020-09-29T17:09:08Z</time>
      </trkpt>
      <trkpt lat="40.7036570" lon="-3.5099500">
        <ele>672.0</ele>
        <time>2020-09-29T17:09:09Z</time>
      </trkpt>
      <trkpt lat="40.7035080" lon="-3.5098950">
        <ele>672.0</ele>
        <time>2020-09-29T17:09:10Z</time>
      </trkpt>
      <trkpt lat="40.7035080" lon="-3.5098950">
        <ele>672.0</ele>
        <time>2020-09-29T17:09:11Z</time>
      </trkpt>
      <trkpt lat="40.7033550" lon="-3.5098370">
        <ele>672.0</ele>
        <time>2020-09-29T17:09:12Z</time>
      </trkpt>
      <trkpt lat="40.7033550" lon="-3.5098370">
        <ele>672.0</ele>
        <time>2020-09-29T17:09:13Z</time>
      </trkpt>
      <trkpt lat="40.7031980" lon="-3.5097750">
        <ele>672.0</ele>
        <time>2020-09-29T17:09:14Z</time>
      </trkpt>
      <trkpt lat="40.7031980" lon="-3.5097750">
        <ele>672.0</ele>
        <time>2020-09-29T17:09:15Z</time>
      </trkpt>
      <trkpt lat="40.7030470" lon="-3.5097150">
        <ele>672.0</ele>
        <time>2020-09-29T17:09:16Z</time>
      </trkpt>
      <trkpt lat="40.7030470" lon="-3.5097150">
        <ele>672.0</ele>
        <time>2020-09-29T17:09:17Z</time>
      </trkpt>
      <trkpt lat="40.7028980" lon="-3.5096600">
        <ele>672.0</ele>
        <time>2020-09-29T17:09:18Z</time>
      </trkpt>
      <trkpt lat="40.7028980" lon="-3.5096600">
        <ele>672.0</ele>
        <time>2020-09-29T17:09:19Z</time>
      </trkpt>
      <trkpt lat="40.7027280" lon="-3.5096470">
        <ele>672.0</ele>
        <time>2020-09-29T17:09:20Z</time>
      </trkpt>
      <trkpt lat="40.7027280" lon="-3.5096470">
        <ele>672.0</ele>
        <time>2020-09-29T17:09:21Z</time>
      </trkpt>
      <trkpt lat="40.7025670" lon="-3.5096980">
        <ele>672.0</ele>
        <time>2020-09-29T17:09:22Z</time>
      </trkpt>
      <trkpt lat="40.7024880" lon="-3.5097170">
        <ele>672.0</ele>
        <time>2020-09-29T17:09:23Z</time>
      </trkpt>
      <trkpt lat="40.7024880" lon="-3.5097170">
        <ele>672.0</ele>
        <time>2020-09-29T17:09:24Z</time>
      </trkpt>
      <trkpt lat="40.7023380" lon="-3.5096920">
        <ele>672.0</ele>
        <time>2020-09-29T17:09:25Z</time>
      </trkpt>
      <trkpt lat="40.7023380" lon="-3.5096920">
        <ele>672.0</ele>
        <time>2020-09-29T17:09:26Z</time>
      </trkpt>
      <trkpt lat="40.7022000" lon="-3.5096050">
        <ele>672.0</ele>
        <time>2020-09-29T17:09:27Z</time>
      </trkpt>
      <trkpt lat="40.7021300" lon="-3.5095620">
        <ele>672.0</ele>
        <time>2020-09-29T17:09:28Z</time>
      </trkpt>
      <trkpt lat="40.7021300" lon="-3.5095620">
        <ele>672.0</ele>
        <time>2020-09-29T17:09:29Z</time>
      </trkpt>
      <trkpt lat="40.7019800" lon="-3.5095170">
        <ele>672.0</ele>
        <time>2020-09-29T17:09:30Z</time>
      </trkpt>
      <trkpt lat="40.7019030" lon="-3.5095170">
        <ele>672.0</ele>
        <time>2020-09-29T17:09:31Z</time>
      </trkpt>
      <trkpt lat="40.7019030" lon="-3.5095170">
        <ele>671.0</ele>
        <time>2020-09-29T17:09:32Z</time>
      </trkpt>
      <trkpt lat="40.7017420" lon="-3.5095250">
        <ele>671.0</ele>
        <time>2020-09-29T17:09:33Z</time>
      </trkpt>
      <trkpt lat="40.7017420" lon="-3.5095250">
        <ele>671.0</ele>
        <time>2020-09-29T17:09:34Z</time>
      </trkpt>
      <trkpt lat="40.7015850" lon="-3.5095350">
        <ele>671.0</ele>
        <time>2020-09-29T17:09:35Z</time>
      </trkpt>
      <trkpt lat="40.7015100" lon="-3.5095420">
        <ele>671.0</ele>
        <time>2020-09-29T17:09:36Z</time>
      </trkpt>
      <trkpt lat="40.7014330" lon="-3.5095480">
        <ele>671.0</ele>
        <time>2020-09-29T17:09:37Z</time>
      </trkpt>
      <trkpt lat="40.7014330" lon="-3.5095480">
        <ele>671.0</ele>
        <time>2020-09-29T17:09:38Z</time>
      </trkpt>
      <trkpt lat="40.7012730" lon="-3.5095530">
        <ele>671.0</ele>
        <time>2020-09-29T17:09:39Z</time>
      </trkpt>
      <trkpt lat="40.7011930" lon="-3.5095600">
        <ele>671.0</ele>
        <time>2020-09-29T17:09:40Z</time>
      </trkpt>
      <trkpt lat="40.7011930" lon="-3.5095600">
        <ele>671.0</ele>
        <time>2020-09-29T17:09:41Z</time>
      </trkpt>
      <trkpt lat="40.7010320" lon="-3.5095750">
        <ele>671.0</ele>
        <time>2020-09-29T17:09:42Z</time>
      </trkpt>
      <trkpt lat="40.7010320" lon="-3.5095750">
        <ele>671.0</ele>
        <time>2020-09-29T17:09:43Z</time>
      </trkpt>
      <trkpt lat="40.7009500" lon="-3.5095780">
        <ele>671.0</ele>
        <time>2020-09-29T17:09:44Z</time>
      </trkpt>
      <trkpt lat="40.7007880" lon="-3.5095880">
        <ele>671.0</ele>
        <time>2020-09-29T17:09:45Z</time>
      </trkpt>
      <trkpt lat="40.7007880" lon="-3.5095880">
        <ele>671.0</ele>
        <time>2020-09-29T17:09:46Z</time>
      </trkpt>
      <trkpt lat="40.7006300" lon="-3.5096030">
        <ele>671.0</ele>
        <time>2020-09-29T17:09:47Z</time>
      </trkpt>
      <trkpt lat="40.7006300" lon="-3.5096030">
        <ele>671.0</ele>
        <time>2020-09-29T17:09:48Z</time>
      </trkpt>
      <trkpt lat="40.7004720" lon="-3.5096170">
        <ele>671.0</ele>
        <time>2020-09-29T17:09:49Z</time>
      </trkpt>
      <trkpt lat="40.7004720" lon="-3.5096170">
        <ele>671.0</ele>
        <time>2020-09-29T17:09:50Z</time>
      </trkpt>
      <trkpt lat="40.7003220" lon="-3.5096220">
        <ele>671.0</ele>
        <time>2020-09-29T17:09:51Z</time>
      </trkpt>
      <trkpt lat="40.7003220" lon="-3.5096220">
        <ele>671.0</ele>
        <time>2020-09-29T17:09:52Z</time>
      </trkpt>
      <trkpt lat="40.7001720" lon="-3.5096350">
        <ele>671.0</ele>
        <time>2020-09-29T17:09:53Z</time>
      </trkpt>
      <trkpt lat="40.7000920" lon="-3.5096420">
        <ele>671.0</ele>
        <time>2020-09-29T17:09:54Z</time>
      </trkpt>
      <trkpt lat="40.7000100" lon="-3.5096430">
        <ele>671.0</ele>
        <time>2020-09-29T17:09:55Z</time>
      </trkpt>
      <trkpt lat="40.7000100" lon="-3.5096430">
        <ele>671.0</ele>
        <time>2020-09-29T17:09:56Z</time>
      </trkpt>
      <trkpt lat="40.6998530" lon="-3.5096530">
        <ele>671.0</ele>
        <time>2020-09-29T17:09:57Z</time>
      </trkpt>
      <trkpt lat="40.6998530" lon="-3.5096530">
        <ele>671.0</ele>
        <time>2020-09-29T17:09:58Z</time>
      </trkpt>
      <trkpt lat="40.6996980" lon="-3.5096650">
        <ele>671.0</ele>
        <time>2020-09-29T17:09:59Z</time>
      </trkpt>
      <trkpt lat="40.6996980" lon="-3.5096650">
        <ele>671.0</ele>
        <time>2020-09-29T17:10:00Z</time>
      </trkpt>
      <trkpt lat="40.6995430" lon="-3.5096720">
        <ele>671.0</ele>
        <time>2020-09-29T17:10:01Z</time>
      </trkpt>
      <trkpt lat="40.6995430" lon="-3.5096720">
        <ele>671.0</ele>
        <time>2020-09-29T17:10:02Z</time>
      </trkpt>
      <trkpt lat="40.6993870" lon="-3.5096800">
        <ele>671.0</ele>
        <time>2020-09-29T17:10:03Z</time>
      </trkpt>
      <trkpt lat="40.6993070" lon="-3.5096850">
        <ele>671.0</ele>
        <time>2020-09-29T17:10:04Z</time>
      </trkpt>
      <trkpt lat="40.6993070" lon="-3.5096850">
        <ele>671.0</ele>
        <time>2020-09-29T17:10:05Z</time>
      </trkpt>
      <trkpt lat="40.6991450" lon="-3.5096980">
        <ele>671.0</ele>
        <time>2020-09-29T17:10:06Z</time>
      </trkpt>
      <trkpt lat="40.6991450" lon="-3.5096980">
        <ele>671.0</ele>
        <time>2020-09-29T17:10:07Z</time>
      </trkpt>
      <trkpt lat="40.6989880" lon="-3.5097080">
        <ele>671.0</ele>
        <time>2020-09-29T17:10:08Z</time>
      </trkpt>
      <trkpt lat="40.6989080" lon="-3.5097130">
        <ele>671.0</ele>
        <time>2020-09-29T17:10:09Z</time>
      </trkpt>
      <trkpt lat="40.6989080" lon="-3.5097130">
        <ele>671.0</ele>
        <time>2020-09-29T17:10:10Z</time>
      </trkpt>
      <trkpt lat="40.6987500" lon="-3.5097230">
        <ele>671.0</ele>
        <time>2020-09-29T17:10:11Z</time>
      </trkpt>
      <trkpt lat="40.6987500" lon="-3.5097230">
        <ele>671.0</ele>
        <time>2020-09-29T17:10:12Z</time>
      </trkpt>
      <trkpt lat="40.6985880" lon="-3.5097350">
        <ele>671.0</ele>
        <time>2020-09-29T17:10:13Z</time>
      </trkpt>
      <trkpt lat="40.6985880" lon="-3.5097350">
        <ele>671.0</ele>
        <time>2020-09-29T17:10:14Z</time>
      </trkpt>
      <trkpt lat="40.6984230" lon="-3.5097450">
        <ele>671.0</ele>
        <time>2020-09-29T17:10:15Z</time>
      </trkpt>
      <trkpt lat="40.6984230" lon="-3.5097450">
        <ele>671.0</ele>
        <time>2020-09-29T17:10:16Z</time>
      </trkpt>
      <trkpt lat="40.6982570" lon="-3.5097570">
        <ele>671.0</ele>
        <time>2020-09-29T17:10:17Z</time>
      </trkpt>
      <trkpt lat="40.6982570" lon="-3.5097570">
        <ele>671.0</ele>
        <time>2020-09-29T17:10:18Z</time>
      </trkpt>
      <trkpt lat="40.6980950" lon="-3.5097700">
        <ele>671.0</ele>
        <time>2020-09-29T17:10:19Z</time>
      </trkpt>
      <trkpt lat="40.6980950" lon="-3.5097700">
        <ele>671.0</ele>
        <time>2020-09-29T17:10:20Z</time>
      </trkpt>
      <trkpt lat="40.6979350" lon="-3.5097820">
        <ele>671.0</ele>
        <time>2020-09-29T17:10:21Z</time>
      </trkpt>
      <trkpt lat="40.6979350" lon="-3.5097820">
        <ele>671.0</ele>
        <time>2020-09-29T17:10:22Z</time>
      </trkpt>
      <trkpt lat="40.6977720" lon="-3.5098070">
        <ele>671.0</ele>
        <time>2020-09-29T17:10:23Z</time>
      </trkpt>
      <trkpt lat="40.6976870" lon="-3.5098180">
        <ele>671.0</ele>
        <time>2020-09-29T17:10:24Z</time>
      </trkpt>
      <trkpt lat="40.6976870" lon="-3.5098180">
        <ele>671.0</ele>
        <time>2020-09-29T17:10:25Z</time>
      </trkpt>
      <trkpt lat="40.6975300" lon="-3.5098420">
        <ele>671.0</ele>
        <time>2020-09-29T17:10:26Z</time>
      </trkpt>
      <trkpt lat="40.6975300" lon="-3.5098420">
        <ele>671.0</ele>
        <time>2020-09-29T17:10:27Z</time>
      </trkpt>
      <trkpt lat="40.6973730" lon="-3.5098700">
        <ele>671.0</ele>
        <time>2020-09-29T17:10:28Z</time>
      </trkpt>
      <trkpt lat="40.6973730" lon="-3.5098700">
        <ele>671.0</ele>
        <time>2020-09-29T17:10:29Z</time>
      </trkpt>
      <trkpt lat="40.6972100" lon="-3.5099000">
        <ele>671.0</ele>
        <time>2020-09-29T17:10:30Z</time>
      </trkpt>
      <trkpt lat="40.6972100" lon="-3.5099000">
        <ele>671.0</ele>
        <time>2020-09-29T17:10:31Z</time>
      </trkpt>
      <trkpt lat="40.6971320" lon="-3.5099130">
        <ele>671.0</ele>
        <time>2020-09-29T17:10:32Z</time>
      </trkpt>
      <trkpt lat="40.6969830" lon="-3.5099400">
        <ele>671.0</ele>
        <time>2020-09-29T17:10:33Z</time>
      </trkpt>
      <trkpt lat="40.6969830" lon="-3.5099400">
        <ele>671.0</ele>
        <time>2020-09-29T17:10:34Z</time>
      </trkpt>
      <trkpt lat="40.6968270" lon="-3.5099670">
        <ele>671.0</ele>
        <time>2020-09-29T17:10:35Z</time>
      </trkpt>
      <trkpt lat="40.6967530" lon="-3.5099830">
        <ele>670.0</ele>
        <time>2020-09-29T17:10:36Z</time>
      </trkpt>
      <trkpt lat="40.6966780" lon="-3.5100000">
        <ele>670.0</ele>
        <time>2020-09-29T17:10:37Z</time>
      </trkpt>
      <trkpt lat="40.6966780" lon="-3.5100000">
        <ele>670.0</ele>
        <time>2020-09-29T17:10:38Z</time>
      </trkpt>
      <trkpt lat="40.6965250" lon="-3.5100250">
        <ele>670.0</ele>
        <time>2020-09-29T17:10:39Z</time>
      </trkpt>
      <trkpt lat="40.6965250" lon="-3.5100250">
        <ele>670.0</ele>
        <time>2020-09-29T17:10:40Z</time>
      </trkpt>
      <trkpt lat="40.6963770" lon="-3.5100530">
        <ele>670.0</ele>
        <time>2020-09-29T17:10:41Z</time>
      </trkpt>
      <trkpt lat="40.6963770" lon="-3.5100530">
        <ele>670.0</ele>
        <time>2020-09-29T17:10:42Z</time>
      </trkpt>
      <trkpt lat="40.6962250" lon="-3.5100850">
        <ele>670.0</ele>
        <time>2020-09-29T17:10:43Z</time>
      </trkpt>
      <trkpt lat="40.6962250" lon="-3.5100850">
        <ele>670.0</ele>
        <time>2020-09-29T17:10:44Z</time>
      </trkpt>
      <trkpt lat="40.6960670" lon="-3.5101230">
        <ele>670.0</ele>
        <time>2020-09-29T17:10:45Z</time>
      </trkpt>
      <trkpt lat="40.6959900" lon="-3.5101520">
        <ele>670.0</ele>
        <time>2020-09-29T17:10:46Z</time>
      </trkpt>
      <trkpt lat="40.6959900" lon="-3.5101520">
        <ele>670.0</ele>
        <time>2020-09-29T17:10:47Z</time>
      </trkpt>
      <trkpt lat="40.6958380" lon="-3.5102070">
        <ele>670.0</ele>
        <time>2020-09-29T17:10:48Z</time>
      </trkpt>
      <trkpt lat="40.6958380" lon="-3.5102070">
        <ele>670.0</ele>
        <time>2020-09-29T17:10:49Z</time>
      </trkpt>
      <trkpt lat="40.6956880" lon="-3.5102650">
        <ele>670.0</ele>
        <time>2020-09-29T17:10:50Z</time>
      </trkpt>
      <trkpt lat="40.6956880" lon="-3.5102650">
        <ele>670.0</ele>
        <time>2020-09-29T17:10:51Z</time>
      </trkpt>
      <trkpt lat="40.6955450" lon="-3.5103250">
        <ele>670.0</ele>
        <time>2020-09-29T17:10:52Z</time>
      </trkpt>
      <trkpt lat="40.6954750" lon="-3.5103550">
        <ele>670.0</ele>
        <time>2020-09-29T17:10:53Z</time>
      </trkpt>
      <trkpt lat="40.6954750" lon="-3.5103550">
        <ele>670.0</ele>
        <time>2020-09-29T17:10:54Z</time>
      </trkpt>
      <trkpt lat="40.6953250" lon="-3.5104220">
        <ele>670.0</ele>
        <time>2020-09-29T17:10:55Z</time>
      </trkpt>
      <trkpt lat="40.6953250" lon="-3.5104220">
        <ele>670.0</ele>
        <time>2020-09-29T17:10:56Z</time>
      </trkpt>
      <trkpt lat="40.6951850" lon="-3.5104920">
        <ele>670.0</ele>
        <time>2020-09-29T17:10:57Z</time>
      </trkpt>
      <trkpt lat="40.6951850" lon="-3.5104920">
        <ele>670.0</ele>
        <time>2020-09-29T17:10:58Z</time>
      </trkpt>
      <trkpt lat="40.6950430" lon="-3.5105500">
        <ele>670.0</ele>
        <time>2020-09-29T17:10:59Z</time>
      </trkpt>
      <trkpt lat="40.6950430" lon="-3.5105500">
        <ele>670.0</ele>
        <time>2020-09-29T17:11:00Z</time>
      </trkpt>
      <trkpt lat="40.6948930" lon="-3.5106000">
        <ele>670.0</ele>
        <time>2020-09-29T17:11:01Z</time>
      </trkpt>
      <trkpt lat="40.6948930" lon="-3.5106000">
        <ele>670.0</ele>
        <time>2020-09-29T17:11:02Z</time>
      </trkpt>
      <trkpt lat="40.6947450" lon="-3.5106470">
        <ele>670.0</ele>
        <time>2020-09-29T17:11:03Z</time>
      </trkpt>
      <trkpt lat="40.6947450" lon="-3.5106470">
        <ele>670.0</ele>
        <time>2020-09-29T17:11:04Z</time>
      </trkpt>
      <trkpt lat="40.6945920" lon="-3.5106820">
        <ele>670.0</ele>
        <time>2020-09-29T17:11:05Z</time>
      </trkpt>
      <trkpt lat="40.6945920" lon="-3.5106820">
        <ele>670.0</ele>
        <time>2020-09-29T17:11:06Z</time>
      </trkpt>
      <trkpt lat="40.6944430" lon="-3.5107100">
        <ele>670.0</ele>
        <time>2020-09-29T17:11:07Z</time>
      </trkpt>
      <trkpt lat="40.6944430" lon="-3.5107100">
        <ele>670.0</ele>
        <time>2020-09-29T17:11:08Z</time>
      </trkpt>
      <trkpt lat="40.6942880" lon="-3.5107250">
        <ele>670.0</ele>
        <time>2020-09-29T17:11:09Z</time>
      </trkpt>
      <trkpt lat="40.6942880" lon="-3.5107250">
        <ele>670.0</ele>
        <time>2020-09-29T17:11:10Z</time>
      </trkpt>
      <trkpt lat="40.6941330" lon="-3.5107280">
        <ele>670.0</ele>
        <time>2020-09-29T17:11:11Z</time>
      </trkpt>
      <trkpt lat="40.6941330" lon="-3.5107280">
        <ele>670.0</ele>
        <time>2020-09-29T17:11:12Z</time>
      </trkpt>
      <trkpt lat="40.6939730" lon="-3.5107350">
        <ele>670.0</ele>
        <time>2020-09-29T17:11:13Z</time>
      </trkpt>
      <trkpt lat="40.6939730" lon="-3.5107350">
        <ele>670.0</ele>
        <time>2020-09-29T17:11:14Z</time>
      </trkpt>
      <trkpt lat="40.6938130" lon="-3.5107400">
        <ele>670.0</ele>
        <time>2020-09-29T17:11:15Z</time>
      </trkpt>
      <trkpt lat="40.6938130" lon="-3.5107400">
        <ele>670.0</ele>
        <time>2020-09-29T17:11:16Z</time>
      </trkpt>
      <trkpt lat="40.6936480" lon="-3.5107430">
        <ele>670.0</ele>
        <time>2020-09-29T17:11:17Z</time>
      </trkpt>
      <trkpt lat="40.6935670" lon="-3.5107420">
        <ele>670.0</ele>
        <time>2020-09-29T17:11:18Z</time>
      </trkpt>
      <trkpt lat="40.6935670" lon="-3.5107420">
        <ele>670.0</ele>
        <time>2020-09-29T17:11:19Z</time>
      </trkpt>
      <trkpt lat="40.6934050" lon="-3.5107400">
        <ele>670.0</ele>
        <time>2020-09-29T17:11:20Z</time>
      </trkpt>
      <trkpt lat="40.6934050" lon="-3.5107400">
        <ele>670.0</ele>
        <time>2020-09-29T17:11:21Z</time>
      </trkpt>
      <trkpt lat="40.6932470" lon="-3.5107380">
        <ele>670.0</ele>
        <time>2020-09-29T17:11:22Z</time>
      </trkpt>
      <trkpt lat="40.6932470" lon="-3.5107380">
        <ele>670.0</ele>
        <time>2020-09-29T17:11:23Z</time>
      </trkpt>
      <trkpt lat="40.6930780" lon="-3.5107430">
        <ele>670.0</ele>
        <time>2020-09-29T17:11:24Z</time>
      </trkpt>
      <trkpt lat="40.6929950" lon="-3.5107420">
        <ele>670.0</ele>
        <time>2020-09-29T17:11:25Z</time>
      </trkpt>
      <trkpt lat="40.6929950" lon="-3.5107420">
        <ele>670.0</ele>
        <time>2020-09-29T17:11:26Z</time>
      </trkpt>
      <trkpt lat="40.6928280" lon="-3.5107420">
        <ele>670.0</ele>
        <time>2020-09-29T17:11:27Z</time>
      </trkpt>
      <trkpt lat="40.6928280" lon="-3.5107420">
        <ele>670.0</ele>
        <time>2020-09-29T17:11:28Z</time>
      </trkpt>
      <trkpt lat="40.6926680" lon="-3.5107450">
        <ele>670.0</ele>
        <time>2020-09-29T17:11:29Z</time>
      </trkpt>
      <trkpt lat="40.6926680" lon="-3.5107450">
        <ele>670.0</ele>
        <time>2020-09-29T17:11:30Z</time>
      </trkpt>
      <trkpt lat="40.6925100" lon="-3.5107450">
        <ele>670.0</ele>
        <time>2020-09-29T17:11:31Z</time>
      </trkpt>
      <trkpt lat="40.6925100" lon="-3.5107450">
        <ele>670.0</ele>
        <time>2020-09-29T17:11:32Z</time>
      </trkpt>
      <trkpt lat="40.6923480" lon="-3.5107430">
        <ele>669.0</ele>
        <time>2020-09-29T17:11:33Z</time>
      </trkpt>
      <trkpt lat="40.6923480" lon="-3.5107430">
        <ele>669.0</ele>
        <time>2020-09-29T17:11:34Z</time>
      </trkpt>
      <trkpt lat="40.6921770" lon="-3.5107450">
        <ele>669.0</ele>
        <time>2020-09-29T17:11:35Z</time>
      </trkpt>
      <trkpt lat="40.6921770" lon="-3.5107450">
        <ele>669.0</ele>
        <time>2020-09-29T17:11:36Z</time>
      </trkpt>
      <trkpt lat="40.6920050" lon="-3.5107500">
        <ele>669.0</ele>
        <time>2020-09-29T17:11:37Z</time>
      </trkpt>
      <trkpt lat="40.6920050" lon="-3.5107500">
        <ele>669.0</ele>
        <time>2020-09-29T17:11:38Z</time>
      </trkpt>
      <trkpt lat="40.6918330" lon="-3.5107520">
        <ele>669.0</ele>
        <time>2020-09-29T17:11:39Z</time>
      </trkpt>
      <trkpt lat="40.6918330" lon="-3.5107520">
        <ele>669.0</ele>
        <time>2020-09-29T17:11:40Z</time>
      </trkpt>
      <trkpt lat="40.6916670" lon="-3.5107500">
        <ele>669.0</ele>
        <time>2020-09-29T17:11:41Z</time>
      </trkpt>
      <trkpt lat="40.6916670" lon="-3.5107500">
        <ele>669.0</ele>
        <time>2020-09-29T17:11:42Z</time>
      </trkpt>
      <trkpt lat="40.6914980" lon="-3.5107500">
        <ele>669.0</ele>
        <time>2020-09-29T17:11:43Z</time>
      </trkpt>
      <trkpt lat="40.6914980" lon="-3.5107500">
        <ele>669.0</ele>
        <time>2020-09-29T17:11:44Z</time>
      </trkpt>
      <trkpt lat="40.6913280" lon="-3.5107530">
        <ele>669.0</ele>
        <time>2020-09-29T17:11:45Z</time>
      </trkpt>
      <trkpt lat="40.6913280" lon="-3.5107530">
        <ele>669.0</ele>
        <time>2020-09-29T17:11:46Z</time>
      </trkpt>
      <trkpt lat="40.6911570" lon="-3.5107580">
        <ele>669.0</ele>
        <time>2020-09-29T17:11:47Z</time>
      </trkpt>
      <trkpt lat="40.6911570" lon="-3.5107580">
        <ele>669.0</ele>
        <time>2020-09-29T17:11:48Z</time>
      </trkpt>
      <trkpt lat="40.6909830" lon="-3.5107600">
        <ele>668.0</ele>
        <time>2020-09-29T17:11:49Z</time>
      </trkpt>
      <trkpt lat="40.6909830" lon="-3.5107600">
        <ele>668.0</ele>
        <time>2020-09-29T17:11:50Z</time>
      </trkpt>
      <trkpt lat="40.6908100" lon="-3.5107600">
        <ele>668.0</ele>
        <time>2020-09-29T17:11:51Z</time>
      </trkpt>
      <trkpt lat="40.6908100" lon="-3.5107600">
        <ele>668.0</ele>
        <time>2020-09-29T17:11:52Z</time>
      </trkpt>
      <trkpt lat="40.6906350" lon="-3.5107600">
        <ele>668.0</ele>
        <time>2020-09-29T17:11:53Z</time>
      </trkpt>
      <trkpt lat="40.6905480" lon="-3.5107620">
        <ele>668.0</ele>
        <time>2020-09-29T17:11:54Z</time>
      </trkpt>
      <trkpt lat="40.6905480" lon="-3.5107620">
        <ele>668.0</ele>
        <time>2020-09-29T17:11:55Z</time>
      </trkpt>
      <trkpt lat="40.6903770" lon="-3.5107670">
        <ele>668.0</ele>
        <time>2020-09-29T17:11:56Z</time>
      </trkpt>
      <trkpt lat="40.6903770" lon="-3.5107670">
        <ele>668.0</ele>
        <time>2020-09-29T17:11:57Z</time>
      </trkpt>
      <trkpt lat="40.6902070" lon="-3.5107700">
        <ele>668.0</ele>
        <time>2020-09-29T17:11:58Z</time>
      </trkpt>
      <trkpt lat="40.6902070" lon="-3.5107700">
        <ele>668.0</ele>
        <time>2020-09-29T17:11:59Z</time>
      </trkpt>
      <trkpt lat="40.6900320" lon="-3.5107750">
        <ele>668.0</ele>
        <time>2020-09-29T17:12:00Z</time>
      </trkpt>
      <trkpt lat="40.6899450" lon="-3.5107750">
        <ele>668.0</ele>
        <time>2020-09-29T17:12:01Z</time>
      </trkpt>
      <trkpt lat="40.6899450" lon="-3.5107750">
        <ele>668.0</ele>
        <time>2020-09-29T17:12:02Z</time>
      </trkpt>
      <trkpt lat="40.6897730" lon="-3.5107750">
        <ele>668.0</ele>
        <time>2020-09-29T17:12:03Z</time>
      </trkpt>
      <trkpt lat="40.6897730" lon="-3.5107750">
        <ele>668.0</ele>
        <time>2020-09-29T17:12:04Z</time>
      </trkpt>
      <trkpt lat="40.6896050" lon="-3.5107750">
        <ele>668.0</ele>
        <time>2020-09-29T17:12:05Z</time>
      </trkpt>
      <trkpt lat="40.6896050" lon="-3.5107750">
        <ele>668.0</ele>
        <time>2020-09-29T17:12:06Z</time>
      </trkpt>
      <trkpt lat="40.6894320" lon="-3.5107750">
        <ele>668.0</ele>
        <time>2020-09-29T17:12:07Z</time>
      </trkpt>
      <trkpt lat="40.6894320" lon="-3.5107750">
        <ele>668.0</ele>
        <time>2020-09-29T17:12:08Z</time>
      </trkpt>
      <trkpt lat="40.6892580" lon="-3.5107780">
        <ele>668.0</ele>
        <time>2020-09-29T17:12:09Z</time>
      </trkpt>
      <trkpt lat="40.6892580" lon="-3.5107780">
        <ele>668.0</ele>
        <time>2020-09-29T17:12:10Z</time>
      </trkpt>
      <trkpt lat="40.6890920" lon="-3.5107800">
        <ele>668.0</ele>
        <time>2020-09-29T17:12:11Z</time>
      </trkpt>
      <trkpt lat="40.6890920" lon="-3.5107800">
        <ele>667.0</ele>
        <time>2020-09-29T17:12:12Z</time>
      </trkpt>
      <trkpt lat="40.6889250" lon="-3.5107830">
        <ele>667.0</ele>
        <time>2020-09-29T17:12:13Z</time>
      </trkpt>
      <trkpt lat="40.6889250" lon="-3.5107830">
        <ele>667.0</ele>
        <time>2020-09-29T17:12:14Z</time>
      </trkpt>
      <trkpt lat="40.6887580" lon="-3.5107870">
        <ele>667.0</ele>
        <time>2020-09-29T17:12:15Z</time>
      </trkpt>
      <trkpt lat="40.6887580" lon="-3.5107870">
        <ele>667.0</ele>
        <time>2020-09-29T17:12:16Z</time>
      </trkpt>
      <trkpt lat="40.6885930" lon="-3.5107880">
        <ele>667.0</ele>
        <time>2020-09-29T17:12:17Z</time>
      </trkpt>
      <trkpt lat="40.6885930" lon="-3.5107880">
        <ele>667.0</ele>
        <time>2020-09-29T17:12:18Z</time>
      </trkpt>
      <trkpt lat="40.6884280" lon="-3.5107930">
        <ele>667.0</ele>
        <time>2020-09-29T17:12:19Z</time>
      </trkpt>
      <trkpt lat="40.6884280" lon="-3.5107930">
        <ele>667.0</ele>
        <time>2020-09-29T17:12:20Z</time>
      </trkpt>
      <trkpt lat="40.6882620" lon="-3.5107920">
        <ele>667.0</ele>
        <time>2020-09-29T17:12:21Z</time>
      </trkpt>
      <trkpt lat="40.6882620" lon="-3.5107920">
        <ele>667.0</ele>
        <time>2020-09-29T17:12:22Z</time>
      </trkpt>
      <trkpt lat="40.6880950" lon="-3.5107930">
        <ele>667.0</ele>
        <time>2020-09-29T17:12:23Z</time>
      </trkpt>
      <trkpt lat="40.6880950" lon="-3.5107930">
        <ele>667.0</ele>
        <time>2020-09-29T17:12:24Z</time>
      </trkpt>
      <trkpt lat="40.6879270" lon="-3.5107970">
        <ele>667.0</ele>
        <time>2020-09-29T17:12:25Z</time>
      </trkpt>
      <trkpt lat="40.6879270" lon="-3.5107970">
        <ele>667.0</ele>
        <time>2020-09-29T17:12:26Z</time>
      </trkpt>
      <trkpt lat="40.6877600" lon="-3.5107980">
        <ele>667.0</ele>
        <time>2020-09-29T17:12:27Z</time>
      </trkpt>
      <trkpt lat="40.6877600" lon="-3.5107980">
        <ele>667.0</ele>
        <time>2020-09-29T17:12:28Z</time>
      </trkpt>
      <trkpt lat="40.6875900" lon="-3.5108000">
        <ele>667.0</ele>
        <time>2020-09-29T17:12:29Z</time>
      </trkpt>
      <trkpt lat="40.6875900" lon="-3.5108000">
        <ele>667.0</ele>
        <time>2020-09-29T17:12:30Z</time>
      </trkpt>
      <trkpt lat="40.6874230" lon="-3.5107980">
        <ele>667.0</ele>
        <time>2020-09-29T17:12:31Z</time>
      </trkpt>
      <trkpt lat="40.6874230" lon="-3.5107980">
        <ele>667.0</ele>
        <time>2020-09-29T17:12:32Z</time>
      </trkpt>
      <trkpt lat="40.6872570" lon="-3.5108020">
        <ele>667.0</ele>
        <time>2020-09-29T17:12:33Z</time>
      </trkpt>
      <trkpt lat="40.6871750" lon="-3.5108030">
        <ele>667.0</ele>
        <time>2020-09-29T17:12:34Z</time>
      </trkpt>
      <trkpt lat="40.6870950" lon="-3.5108050">
        <ele>667.0</ele>
        <time>2020-09-29T17:12:35Z</time>
      </trkpt>
      <trkpt lat="40.6870950" lon="-3.5108050">
        <ele>667.0</ele>
        <time>2020-09-29T17:12:36Z</time>
      </trkpt>
      <trkpt lat="40.6869300" lon="-3.5108070">
        <ele>667.0</ele>
        <time>2020-09-29T17:12:37Z</time>
      </trkpt>
      <trkpt lat="40.6869300" lon="-3.5108070">
        <ele>667.0</ele>
        <time>2020-09-29T17:12:38Z</time>
      </trkpt>
      <trkpt lat="40.6867650" lon="-3.5108070">
        <ele>667.0</ele>
        <time>2020-09-29T17:12:39Z</time>
      </trkpt>
      <trkpt lat="40.6866800" lon="-3.5108070">
        <ele>667.0</ele>
        <time>2020-09-29T17:12:40Z</time>
      </trkpt>
      <trkpt lat="40.6866800" lon="-3.5108070">
        <ele>667.0</ele>
        <time>2020-09-29T17:12:41Z</time>
      </trkpt>
      <trkpt lat="40.6865080" lon="-3.5108080">
        <ele>667.0</ele>
        <time>2020-09-29T17:12:42Z</time>
      </trkpt>
      <trkpt lat="40.6864250" lon="-3.5108100">
        <ele>667.0</ele>
        <time>2020-09-29T17:12:43Z</time>
      </trkpt>
      <trkpt lat="40.6864250" lon="-3.5108100">
        <ele>667.0</ele>
        <time>2020-09-29T17:12:44Z</time>
      </trkpt>
      <trkpt lat="40.6862550" lon="-3.5108120">
        <ele>667.0</ele>
        <time>2020-09-29T17:12:45Z</time>
      </trkpt>
      <trkpt lat="40.6862550" lon="-3.5108120">
        <ele>667.0</ele>
        <time>2020-09-29T17:12:46Z</time>
      </trkpt>
      <trkpt lat="40.6860880" lon="-3.5108120">
        <ele>667.0</ele>
        <time>2020-09-29T17:12:47Z</time>
      </trkpt>
      <trkpt lat="40.6860880" lon="-3.5108120">
        <ele>667.0</ele>
        <time>2020-09-29T17:12:48Z</time>
      </trkpt>
      <trkpt lat="40.6859200" lon="-3.5108120">
        <ele>667.0</ele>
        <time>2020-09-29T17:12:49Z</time>
      </trkpt>
      <trkpt lat="40.6859200" lon="-3.5108120">
        <ele>667.0</ele>
        <time>2020-09-29T17:12:50Z</time>
      </trkpt>
      <trkpt lat="40.6857520" lon="-3.5108130">
        <ele>667.0</ele>
        <time>2020-09-29T17:12:51Z</time>
      </trkpt>
      <trkpt lat="40.6857520" lon="-3.5108130">
        <ele>667.0</ele>
        <time>2020-09-29T17:12:52Z</time>
      </trkpt>
      <trkpt lat="40.6855850" lon="-3.5108150">
        <ele>667.0</ele>
        <time>2020-09-29T17:12:53Z</time>
      </trkpt>
      <trkpt lat="40.6855850" lon="-3.5108150">
        <ele>667.0</ele>
        <time>2020-09-29T17:12:54Z</time>
      </trkpt>
      <trkpt lat="40.6854170" lon="-3.5108180">
        <ele>667.0</ele>
        <time>2020-09-29T17:12:55Z</time>
      </trkpt>
      <trkpt lat="40.6854170" lon="-3.5108180">
        <ele>667.0</ele>
        <time>2020-09-29T17:12:56Z</time>
      </trkpt>
      <trkpt lat="40.6852480" lon="-3.5108200">
        <ele>667.0</ele>
        <time>2020-09-29T17:12:57Z</time>
      </trkpt>
      <trkpt lat="40.6852480" lon="-3.5108200">
        <ele>667.0</ele>
        <time>2020-09-29T17:12:58Z</time>
      </trkpt>
      <trkpt lat="40.6850820" lon="-3.5108220">
        <ele>667.0</ele>
        <time>2020-09-29T17:12:59Z</time>
      </trkpt>
      <trkpt lat="40.6850820" lon="-3.5108220">
        <ele>667.0</ele>
        <time>2020-09-29T17:13:00Z</time>
      </trkpt>
      <trkpt lat="40.6849120" lon="-3.5108230">
        <ele>667.0</ele>
        <time>2020-09-29T17:13:01Z</time>
      </trkpt>
      <trkpt lat="40.6849120" lon="-3.5108230">
        <ele>667.0</ele>
        <time>2020-09-29T17:13:02Z</time>
      </trkpt>
      <trkpt lat="40.6847400" lon="-3.5108250">
        <ele>667.0</ele>
        <time>2020-09-29T17:13:03Z</time>
      </trkpt>
      <trkpt lat="40.6846550" lon="-3.5108250">
        <ele>667.0</ele>
        <time>2020-09-29T17:13:04Z</time>
      </trkpt>
      <trkpt lat="40.6846550" lon="-3.5108250">
        <ele>667.0</ele>
        <time>2020-09-29T17:13:05Z</time>
      </trkpt>
      <trkpt lat="40.6844900" lon="-3.5108270">
        <ele>667.0</ele>
        <time>2020-09-29T17:13:06Z</time>
      </trkpt>
      <trkpt lat="40.6844050" lon="-3.5108270">
        <ele>667.0</ele>
        <time>2020-09-29T17:13:07Z</time>
      </trkpt>
      <trkpt lat="40.6844050" lon="-3.5108270">
        <ele>667.0</ele>
        <time>2020-09-29T17:13:08Z</time>
      </trkpt>
      <trkpt lat="40.6842330" lon="-3.5108300">
        <ele>666.0</ele>
        <time>2020-09-29T17:13:09Z</time>
      </trkpt>
      <trkpt lat="40.6842330" lon="-3.5108300">
        <ele>666.0</ele>
        <time>2020-09-29T17:13:10Z</time>
      </trkpt>
      <trkpt lat="40.6840670" lon="-3.5108320">
        <ele>666.0</ele>
        <time>2020-09-29T17:13:11Z</time>
      </trkpt>
      <trkpt lat="40.6839850" lon="-3.5108330">
        <ele>666.0</ele>
        <time>2020-09-29T17:13:12Z</time>
      </trkpt>
      <trkpt lat="40.6839850" lon="-3.5108330">
        <ele>666.0</ele>
        <time>2020-09-29T17:13:13Z</time>
      </trkpt>
      <trkpt lat="40.6838200" lon="-3.5108370">
        <ele>666.0</ele>
        <time>2020-09-29T17:13:14Z</time>
      </trkpt>
      <trkpt lat="40.6838200" lon="-3.5108370">
        <ele>666.0</ele>
        <time>2020-09-29T17:13:15Z</time>
      </trkpt>
      <trkpt lat="40.6836550" lon="-3.5108380">
        <ele>666.0</ele>
        <time>2020-09-29T17:13:16Z</time>
      </trkpt>
      <trkpt lat="40.6836550" lon="-3.5108380">
        <ele>666.0</ele>
        <time>2020-09-29T17:13:17Z</time>
      </trkpt>
      <trkpt lat="40.6834930" lon="-3.5108380">
        <ele>666.0</ele>
        <time>2020-09-29T17:13:18Z</time>
      </trkpt>
      <trkpt lat="40.6834130" lon="-3.5108380">
        <ele>666.0</ele>
        <time>2020-09-29T17:13:19Z</time>
      </trkpt>
      <trkpt lat="40.6834130" lon="-3.5108380">
        <ele>666.0</ele>
        <time>2020-09-29T17:13:20Z</time>
      </trkpt>
      <trkpt lat="40.6832530" lon="-3.5108420">
        <ele>666.0</ele>
        <time>2020-09-29T17:13:21Z</time>
      </trkpt>
      <trkpt lat="40.6832530" lon="-3.5108420">
        <ele>666.0</ele>
        <time>2020-09-29T17:13:22Z</time>
      </trkpt>
      <trkpt lat="40.6830950" lon="-3.5108400">
        <ele>666.0</ele>
        <time>2020-09-29T17:13:23Z</time>
      </trkpt>
      <trkpt lat="40.6830150" lon="-3.5108380">
        <ele>665.0</ele>
        <time>2020-09-29T17:13:24Z</time>
      </trkpt>
      <trkpt lat="40.6830150" lon="-3.5108380">
        <ele>665.0</ele>
        <time>2020-09-29T17:13:25Z</time>
      </trkpt>
      <trkpt lat="40.6828550" lon="-3.5108400">
        <ele>665.0</ele>
        <time>2020-09-29T17:13:26Z</time>
      </trkpt>
      <trkpt lat="40.6827750" lon="-3.5108400">
        <ele>665.0</ele>
        <time>2020-09-29T17:13:27Z</time>
      </trkpt>
      <trkpt lat="40.6827750" lon="-3.5108400">
        <ele>665.0</ele>
        <time>2020-09-29T17:13:28Z</time>
      </trkpt>
      <trkpt lat="40.6826150" lon="-3.5108420">
        <ele>665.0</ele>
        <time>2020-09-29T17:13:29Z</time>
      </trkpt>
      <trkpt lat="40.6826150" lon="-3.5108420">
        <ele>665.0</ele>
        <time>2020-09-29T17:13:30Z</time>
      </trkpt>
      <trkpt lat="40.6824580" lon="-3.5108420">
        <ele>665.0</ele>
        <time>2020-09-29T17:13:31Z</time>
      </trkpt>
      <trkpt lat="40.6824580" lon="-3.5108420">
        <ele>665.0</ele>
        <time>2020-09-29T17:13:32Z</time>
      </trkpt>
      <trkpt lat="40.6823020" lon="-3.5108420">
        <ele>665.0</ele>
        <time>2020-09-29T17:13:33Z</time>
      </trkpt>
      <trkpt lat="40.6823020" lon="-3.5108420">
        <ele>665.0</ele>
        <time>2020-09-29T17:13:34Z</time>
      </trkpt>
      <trkpt lat="40.6821420" lon="-3.5108430">
        <ele>665.0</ele>
        <time>2020-09-29T17:13:35Z</time>
      </trkpt>
      <trkpt lat="40.6821420" lon="-3.5108430">
        <ele>665.0</ele>
        <time>2020-09-29T17:13:36Z</time>
      </trkpt>
      <trkpt lat="40.6819830" lon="-3.5108430">
        <ele>665.0</ele>
        <time>2020-09-29T17:13:37Z</time>
      </trkpt>
      <trkpt lat="40.6819030" lon="-3.5108450">
        <ele>665.0</ele>
        <time>2020-09-29T17:13:38Z</time>
      </trkpt>
      <trkpt lat="40.6819030" lon="-3.5108450">
        <ele>665.0</ele>
        <time>2020-09-29T17:13:39Z</time>
      </trkpt>
      <trkpt lat="40.6817470" lon="-3.5108450">
        <ele>665.0</ele>
        <time>2020-09-29T17:13:40Z</time>
      </trkpt>
      <trkpt lat="40.6817470" lon="-3.5108450">
        <ele>665.0</ele>
        <time>2020-09-29T17:13:41Z</time>
      </trkpt>
      <trkpt lat="40.6815880" lon="-3.5108470">
        <ele>664.0</ele>
        <time>2020-09-29T17:13:42Z</time>
      </trkpt>
      <trkpt lat="40.6815120" lon="-3.5108470">
        <ele>664.0</ele>
        <time>2020-09-29T17:13:43Z</time>
      </trkpt>
      <trkpt lat="40.6815120" lon="-3.5108470">
        <ele>664.0</ele>
        <time>2020-09-29T17:13:44Z</time>
      </trkpt>
      <trkpt lat="40.6813530" lon="-3.5108450">
        <ele>664.0</ele>
        <time>2020-09-29T17:13:45Z</time>
      </trkpt>
      <trkpt lat="40.6813530" lon="-3.5108450">
        <ele>664.0</ele>
        <time>2020-09-29T17:13:46Z</time>
      </trkpt>
      <trkpt lat="40.6811930" lon="-3.5108450">
        <ele>664.0</ele>
        <time>2020-09-29T17:13:47Z</time>
      </trkpt>
      <trkpt lat="40.6811930" lon="-3.5108450">
        <ele>664.0</ele>
        <time>2020-09-29T17:13:48Z</time>
      </trkpt>
      <trkpt lat="40.6810370" lon="-3.5108480">
        <ele>664.0</ele>
        <time>2020-09-29T17:13:49Z</time>
      </trkpt>
      <trkpt lat="40.6810370" lon="-3.5108480">
        <ele>664.0</ele>
        <time>2020-09-29T17:13:50Z</time>
      </trkpt>
      <trkpt lat="40.6808780" lon="-3.5108520">
        <ele>664.0</ele>
        <time>2020-09-29T17:13:51Z</time>
      </trkpt>
      <trkpt lat="40.6807980" lon="-3.5108500">
        <ele>664.0</ele>
        <time>2020-09-29T17:13:52Z</time>
      </trkpt>
      <trkpt lat="40.6807980" lon="-3.5108500">
        <ele>664.0</ele>
        <time>2020-09-29T17:13:53Z</time>
      </trkpt>
      <trkpt lat="40.6806380" lon="-3.5108500">
        <ele>664.0</ele>
        <time>2020-09-29T17:13:54Z</time>
      </trkpt>
      <trkpt lat="40.6805570" lon="-3.5108500">
        <ele>664.0</ele>
        <time>2020-09-29T17:13:55Z</time>
      </trkpt>
      <trkpt lat="40.6805570" lon="-3.5108500">
        <ele>664.0</ele>
        <time>2020-09-29T17:13:56Z</time>
      </trkpt>
      <trkpt lat="40.6803980" lon="-3.5108500">
        <ele>664.0</ele>
        <time>2020-09-29T17:13:57Z</time>
      </trkpt>
      <trkpt lat="40.6803980" lon="-3.5108500">
        <ele>664.0</ele>
        <time>2020-09-29T17:13:58Z</time>
      </trkpt>
      <trkpt lat="40.6802430" lon="-3.5108500">
        <ele>664.0</ele>
        <time>2020-09-29T17:13:59Z</time>
      </trkpt>
      <trkpt lat="40.6802430" lon="-3.5108500">
        <ele>664.0</ele>
        <time>2020-09-29T17:14:00Z</time>
      </trkpt>
      <trkpt lat="40.6800850" lon="-3.5108500">
        <ele>664.0</ele>
        <time>2020-09-29T17:14:01Z</time>
      </trkpt>
      <trkpt lat="40.6800850" lon="-3.5108500">
        <ele>664.0</ele>
        <time>2020-09-29T17:14:02Z</time>
      </trkpt>
      <trkpt lat="40.6799330" lon="-3.5108520">
        <ele>664.0</ele>
        <time>2020-09-29T17:14:03Z</time>
      </trkpt>
      <trkpt lat="40.6799330" lon="-3.5108520">
        <ele>664.0</ele>
        <time>2020-09-29T17:14:04Z</time>
      </trkpt>
      <trkpt lat="40.6797730" lon="-3.5108520">
        <ele>664.0</ele>
        <time>2020-09-29T17:14:05Z</time>
      </trkpt>
      <trkpt lat="40.6797730" lon="-3.5108520">
        <ele>664.0</ele>
        <time>2020-09-29T17:14:06Z</time>
      </trkpt>
      <trkpt lat="40.6796180" lon="-3.5108550">
        <ele>664.0</ele>
        <time>2020-09-29T17:14:07Z</time>
      </trkpt>
      <trkpt lat="40.6795420" lon="-3.5108570">
        <ele>664.0</ele>
        <time>2020-09-29T17:14:08Z</time>
      </trkpt>
      <trkpt lat="40.6795420" lon="-3.5108570">
        <ele>664.0</ele>
        <time>2020-09-29T17:14:09Z</time>
      </trkpt>
      <trkpt lat="40.6793900" lon="-3.5108580">
        <ele>663.0</ele>
        <time>2020-09-29T17:14:10Z</time>
      </trkpt>
      <trkpt lat="40.6793900" lon="-3.5108580">
        <ele>663.0</ele>
        <time>2020-09-29T17:14:11Z</time>
      </trkpt>
      <trkpt lat="40.6792400" lon="-3.5108600">
        <ele>663.0</ele>
        <time>2020-09-29T17:14:12Z</time>
      </trkpt>
      <trkpt lat="40.6791620" lon="-3.5108600">
        <ele>663.0</ele>
        <time>2020-09-29T17:14:13Z</time>
      </trkpt>
      <trkpt lat="40.6791620" lon="-3.5108600">
        <ele>663.0</ele>
        <time>2020-09-29T17:14:14Z</time>
      </trkpt>
      <trkpt lat="40.6790030" lon="-3.5108630">
        <ele>663.0</ele>
        <time>2020-09-29T17:14:15Z</time>
      </trkpt>
      <trkpt lat="40.6790030" lon="-3.5108630">
        <ele>663.0</ele>
        <time>2020-09-29T17:14:16Z</time>
      </trkpt>
      <trkpt lat="40.6788450" lon="-3.5108620">
        <ele>663.0</ele>
        <time>2020-09-29T17:14:17Z</time>
      </trkpt>
      <trkpt lat="40.6787680" lon="-3.5108620">
        <ele>663.0</ele>
        <time>2020-09-29T17:14:18Z</time>
      </trkpt>
      <trkpt lat="40.6786920" lon="-3.5108630">
        <ele>663.0</ele>
        <time>2020-09-29T17:14:19Z</time>
      </trkpt>
      <trkpt lat="40.6786920" lon="-3.5108630">
        <ele>663.0</ele>
        <time>2020-09-29T17:14:20Z</time>
      </trkpt>
      <trkpt lat="40.6785370" lon="-3.5108620">
        <ele>663.0</ele>
        <time>2020-09-29T17:14:21Z</time>
      </trkpt>
      <trkpt lat="40.6785370" lon="-3.5108620">
        <ele>663.0</ele>
        <time>2020-09-29T17:14:22Z</time>
      </trkpt>
      <trkpt lat="40.6783800" lon="-3.5108620">
        <ele>663.0</ele>
        <time>2020-09-29T17:14:23Z</time>
      </trkpt>
      <trkpt lat="40.6783020" lon="-3.5108620">
        <ele>663.0</ele>
        <time>2020-09-29T17:14:24Z</time>
      </trkpt>
      <trkpt lat="40.6782220" lon="-3.5108620">
        <ele>663.0</ele>
        <time>2020-09-29T17:14:25Z</time>
      </trkpt>
      <trkpt lat="40.6782220" lon="-3.5108620">
        <ele>663.0</ele>
        <time>2020-09-29T17:14:26Z</time>
      </trkpt>
      <trkpt lat="40.6782220" lon="-3.5108620">
        <ele>663.0</ele>
        <time>2020-09-29T17:14:27Z</time>
      </trkpt>
      <trkpt lat="40.6780670" lon="-3.5108620">
        <ele>663.0</ele>
        <time>2020-09-29T17:14:28Z</time>
      </trkpt>
      <trkpt lat="40.6779100" lon="-3.5108650">
        <ele>663.0</ele>
        <time>2020-09-29T17:14:29Z</time>
      </trkpt>
      <trkpt lat="40.6779100" lon="-3.5108650">
        <ele>663.0</ele>
        <time>2020-09-29T17:14:30Z</time>
      </trkpt>
      <trkpt lat="40.6777530" lon="-3.5108670">
        <ele>663.0</ele>
        <time>2020-09-29T17:14:31Z</time>
      </trkpt>
      <trkpt lat="40.6777530" lon="-3.5108670">
        <ele>663.0</ele>
        <time>2020-09-29T17:14:32Z</time>
      </trkpt>
      <trkpt lat="40.6775950" lon="-3.5108670">
        <ele>663.0</ele>
        <time>2020-09-29T17:14:33Z</time>
      </trkpt>
      <trkpt lat="40.6775950" lon="-3.5108670">
        <ele>663.0</ele>
        <time>2020-09-29T17:14:34Z</time>
      </trkpt>
      <trkpt lat="40.6774370" lon="-3.5108670">
        <ele>663.0</ele>
        <time>2020-09-29T17:14:35Z</time>
      </trkpt>
      <trkpt lat="40.6774370" lon="-3.5108670">
        <ele>663.0</ele>
        <time>2020-09-29T17:14:36Z</time>
      </trkpt>
      <trkpt lat="40.6772770" lon="-3.5108670">
        <ele>663.0</ele>
        <time>2020-09-29T17:14:37Z</time>
      </trkpt>
      <trkpt lat="40.6772770" lon="-3.5108670">
        <ele>663.0</ele>
        <time>2020-09-29T17:14:38Z</time>
      </trkpt>
      <trkpt lat="40.6771170" lon="-3.5108600">
        <ele>663.0</ele>
        <time>2020-09-29T17:14:39Z</time>
      </trkpt>
      <trkpt lat="40.6771170" lon="-3.5108600">
        <ele>663.0</ele>
        <time>2020-09-29T17:14:40Z</time>
      </trkpt>
      <trkpt lat="40.6769600" lon="-3.5108580">
        <ele>663.0</ele>
        <time>2020-09-29T17:14:41Z</time>
      </trkpt>
      <trkpt lat="40.6768830" lon="-3.5108570">
        <ele>663.0</ele>
        <time>2020-09-29T17:14:42Z</time>
      </trkpt>
      <trkpt lat="40.6768830" lon="-3.5108570">
        <ele>663.0</ele>
        <time>2020-09-29T17:14:43Z</time>
      </trkpt>
      <trkpt lat="40.6767220" lon="-3.5108530">
        <ele>663.0</ele>
        <time>2020-09-29T17:14:44Z</time>
      </trkpt>
      <trkpt lat="40.6767220" lon="-3.5108530">
        <ele>663.0</ele>
        <time>2020-09-29T17:14:45Z</time>
      </trkpt>
      <trkpt lat="40.6765620" lon="-3.5108570">
        <ele>663.0</ele>
        <time>2020-09-29T17:14:46Z</time>
      </trkpt>
      <trkpt lat="40.6765620" lon="-3.5108570">
        <ele>663.0</ele>
        <time>2020-09-29T17:14:47Z</time>
      </trkpt>
      <trkpt lat="40.6765620" lon="-3.5108570">
        <ele>663.0</ele>
        <time>2020-09-29T17:14:48Z</time>
      </trkpt>
      <trkpt lat="40.6764030" lon="-3.5108580">
        <ele>663.0</ele>
        <time>2020-09-29T17:14:49Z</time>
      </trkpt>
      <trkpt lat="40.6762470" lon="-3.5108580">
        <ele>663.0</ele>
        <time>2020-09-29T17:14:50Z</time>
      </trkpt>
      <trkpt lat="40.6761680" lon="-3.5108580">
        <ele>663.0</ele>
        <time>2020-09-29T17:14:51Z</time>
      </trkpt>
      <trkpt lat="40.6761680" lon="-3.5108580">
        <ele>663.0</ele>
        <time>2020-09-29T17:14:52Z</time>
      </trkpt>
      <trkpt lat="40.6760080" lon="-3.5108580">
        <ele>663.0</ele>
        <time>2020-09-29T17:14:53Z</time>
      </trkpt>
      <trkpt lat="40.6760080" lon="-3.5108580">
        <ele>663.0</ele>
        <time>2020-09-29T17:14:54Z</time>
      </trkpt>
      <trkpt lat="40.6758530" lon="-3.5108580">
        <ele>663.0</ele>
        <time>2020-09-29T17:14:55Z</time>
      </trkpt>
      <trkpt lat="40.6758530" lon="-3.5108580">
        <ele>663.0</ele>
        <time>2020-09-29T17:14:56Z</time>
      </trkpt>
      <trkpt lat="40.6756950" lon="-3.5108600">
        <ele>663.0</ele>
        <time>2020-09-29T17:14:57Z</time>
      </trkpt>
      <trkpt lat="40.6756170" lon="-3.5108620">
        <ele>663.0</ele>
        <time>2020-09-29T17:14:58Z</time>
      </trkpt>
      <trkpt lat="40.6756170" lon="-3.5108620">
        <ele>663.0</ele>
        <time>2020-09-29T17:14:59Z</time>
      </trkpt>
      <trkpt lat="40.6754600" lon="-3.5108630">
        <ele>663.0</ele>
        <time>2020-09-29T17:15:00Z</time>
      </trkpt>
      <trkpt lat="40.6753830" lon="-3.5108630">
        <ele>663.0</ele>
        <time>2020-09-29T17:15:01Z</time>
      </trkpt>
      <trkpt lat="40.6753830" lon="-3.5108630">
        <ele>663.0</ele>
        <time>2020-09-29T17:15:02Z</time>
      </trkpt>
      <trkpt lat="40.6752250" lon="-3.5108680">
        <ele>663.0</ele>
        <time>2020-09-29T17:15:03Z</time>
      </trkpt>
      <trkpt lat="40.6751470" lon="-3.5108730">
        <ele>663.0</ele>
        <time>2020-09-29T17:15:04Z</time>
      </trkpt>
      <trkpt lat="40.6751470" lon="-3.5108730">
        <ele>663.0</ele>
        <time>2020-09-29T17:15:05Z</time>
      </trkpt>
      <trkpt lat="40.6749880" lon="-3.5108830">
        <ele>663.0</ele>
        <time>2020-09-29T17:15:06Z</time>
      </trkpt>
      <trkpt lat="40.6749100" lon="-3.5108880">
        <ele>663.0</ele>
        <time>2020-09-29T17:15:07Z</time>
      </trkpt>
      <trkpt lat="40.6749100" lon="-3.5108880">
        <ele>663.0</ele>
        <time>2020-09-29T17:15:08Z</time>
      </trkpt>
      <trkpt lat="40.6749100" lon="-3.5108880">
        <ele>663.0</ele>
        <time>2020-09-29T17:15:09Z</time>
      </trkpt>
      <trkpt lat="40.6747530" lon="-3.5109050">
        <ele>663.0</ele>
        <time>2020-09-29T17:15:10Z</time>
      </trkpt>
      <trkpt lat="40.6746000" lon="-3.5109320">
        <ele>663.0</ele>
        <time>2020-09-29T17:15:11Z</time>
      </trkpt>
      <trkpt lat="40.6746000" lon="-3.5109320">
        <ele>663.0</ele>
        <time>2020-09-29T17:15:12Z</time>
      </trkpt>
      <trkpt lat="40.6744520" lon="-3.5109720">
        <ele>663.0</ele>
        <time>2020-09-29T17:15:13Z</time>
      </trkpt>
      <trkpt lat="40.6743780" lon="-3.5110070">
        <ele>663.0</ele>
        <time>2020-09-29T17:15:14Z</time>
      </trkpt>
      <trkpt lat="40.6743780" lon="-3.5110070">
        <ele>663.0</ele>
        <time>2020-09-29T17:15:15Z</time>
      </trkpt>
      <trkpt lat="40.6742350" lon="-3.5110980">
        <ele>663.0</ele>
        <time>2020-09-29T17:15:16Z</time>
      </trkpt>
      <trkpt lat="40.6741580" lon="-3.5111220">
        <ele>663.0</ele>
        <time>2020-09-29T17:15:17Z</time>
      </trkpt>
      <trkpt lat="40.6741580" lon="-3.5111220">
        <ele>663.0</ele>
        <time>2020-09-29T17:15:18Z</time>
      </trkpt>
      <trkpt lat="40.6740000" lon="-3.5111080">
        <ele>663.0</ele>
        <time>2020-09-29T17:15:19Z</time>
      </trkpt>
      <trkpt lat="40.6740000" lon="-3.5111080">
        <ele>663.0</ele>
        <time>2020-09-29T17:15:20Z</time>
      </trkpt>
      <trkpt lat="40.6738550" lon="-3.5110250">
        <ele>663.0</ele>
        <time>2020-09-29T17:15:21Z</time>
      </trkpt>
      <trkpt lat="40.6738550" lon="-3.5110250">
        <ele>663.0</ele>
        <time>2020-09-29T17:15:22Z</time>
      </trkpt>
      <trkpt lat="40.6737230" lon="-3.5109280">
        <ele>663.0</ele>
        <time>2020-09-29T17:15:23Z</time>
      </trkpt>
      <trkpt lat="40.6737230" lon="-3.5109280">
        <ele>663.0</ele>
        <time>2020-09-29T17:15:24Z</time>
      </trkpt>
      <trkpt lat="40.6735700" lon="-3.5108970">
        <ele>663.0</ele>
        <time>2020-09-29T17:15:25Z</time>
      </trkpt>
      <trkpt lat="40.6735700" lon="-3.5108970">
        <ele>663.0</ele>
        <time>2020-09-29T17:15:26Z</time>
      </trkpt>
      <trkpt lat="40.6734150" lon="-3.5108970">
        <ele>663.0</ele>
        <time>2020-09-29T17:15:27Z</time>
      </trkpt>
      <trkpt lat="40.6734150" lon="-3.5108970">
        <ele>663.0</ele>
        <time>2020-09-29T17:15:28Z</time>
      </trkpt>
      <trkpt lat="40.6732580" lon="-3.5108970">
        <ele>663.0</ele>
        <time>2020-09-29T17:15:29Z</time>
      </trkpt>
      <trkpt lat="40.6732580" lon="-3.5108970">
        <ele>663.0</ele>
        <time>2020-09-29T17:15:30Z</time>
      </trkpt>
      <trkpt lat="40.6732580" lon="-3.5108970">
        <ele>663.0</ele>
        <time>2020-09-29T17:15:31Z</time>
      </trkpt>
      <trkpt lat="40.6731050" lon="-3.5108950">
        <ele>663.0</ele>
        <time>2020-09-29T17:15:32Z</time>
      </trkpt>
      <trkpt lat="40.6729520" lon="-3.5108920">
        <ele>663.0</ele>
        <time>2020-09-29T17:15:33Z</time>
      </trkpt>
      <trkpt lat="40.6729520" lon="-3.5108920">
        <ele>663.0</ele>
        <time>2020-09-29T17:15:34Z</time>
      </trkpt>
      <trkpt lat="40.6728020" lon="-3.5108870">
        <ele>663.0</ele>
        <time>2020-09-29T17:15:35Z</time>
      </trkpt>
      <trkpt lat="40.6727250" lon="-3.5108830">
        <ele>663.0</ele>
        <time>2020-09-29T17:15:36Z</time>
      </trkpt>
      <trkpt lat="40.6727250" lon="-3.5108830">
        <ele>663.0</ele>
        <time>2020-09-29T17:15:37Z</time>
      </trkpt>
      <trkpt lat="40.6725750" lon="-3.5108800">
        <ele>663.0</ele>
        <time>2020-09-29T17:15:38Z</time>
      </trkpt>
      <trkpt lat="40.6725750" lon="-3.5108800">
        <ele>663.0</ele>
        <time>2020-09-29T17:15:39Z</time>
      </trkpt>
      <trkpt lat="40.6724270" lon="-3.5108820">
        <ele>663.0</ele>
        <time>2020-09-29T17:15:40Z</time>
      </trkpt>
      <trkpt lat="40.6724270" lon="-3.5108820">
        <ele>663.0</ele>
        <time>2020-09-29T17:15:41Z</time>
      </trkpt>
      <trkpt lat="40.6722730" lon="-3.5108830">
        <ele>663.0</ele>
        <time>2020-09-29T17:15:42Z</time>
      </trkpt>
      <trkpt lat="40.6721950" lon="-3.5108850">
        <ele>663.0</ele>
        <time>2020-09-29T17:15:43Z</time>
      </trkpt>
      <trkpt lat="40.6721950" lon="-3.5108850">
        <ele>663.0</ele>
        <time>2020-09-29T17:15:44Z</time>
      </trkpt>
      <trkpt lat="40.6720420" lon="-3.5108850">
        <ele>663.0</ele>
        <time>2020-09-29T17:15:45Z</time>
      </trkpt>
      <trkpt lat="40.6719650" lon="-3.5108870">
        <ele>663.0</ele>
        <time>2020-09-29T17:15:46Z</time>
      </trkpt>
      <trkpt lat="40.6719650" lon="-3.5108870">
        <ele>663.0</ele>
        <time>2020-09-29T17:15:47Z</time>
      </trkpt>
      <trkpt lat="40.6719650" lon="-3.5108870">
        <ele>662.0</ele>
        <time>2020-09-29T17:15:48Z</time>
      </trkpt>
      <trkpt lat="40.6717330" lon="-3.5108880">
        <ele>662.0</ele>
        <time>2020-09-29T17:15:49Z</time>
      </trkpt>
      <trkpt lat="40.6717330" lon="-3.5108880">
        <ele>662.0</ele>
        <time>2020-09-29T17:15:50Z</time>
      </trkpt>
      <trkpt lat="40.6715800" lon="-3.5108900">
        <ele>662.0</ele>
        <time>2020-09-29T17:15:51Z</time>
      </trkpt>
      <trkpt lat="40.6715020" lon="-3.5108900">
        <ele>662.0</ele>
        <time>2020-09-29T17:15:52Z</time>
      </trkpt>
      <trkpt lat="40.6715020" lon="-3.5108900">
        <ele>662.0</ele>
        <time>2020-09-29T17:15:53Z</time>
      </trkpt>
      <trkpt lat="40.6713330" lon="-3.5108880">
        <ele>662.0</ele>
        <time>2020-09-29T17:15:54Z</time>
      </trkpt>
      <trkpt lat="40.6712530" lon="-3.5108880">
        <ele>662.0</ele>
        <time>2020-09-29T17:15:55Z</time>
      </trkpt>
      <trkpt lat="40.6712530" lon="-3.5108880">
        <ele>662.0</ele>
        <time>2020-09-29T17:15:56Z</time>
      </trkpt>
      <trkpt lat="40.6711070" lon="-3.5108880">
        <ele>662.0</ele>
        <time>2020-09-29T17:15:57Z</time>
      </trkpt>
      <trkpt lat="40.6711070" lon="-3.5108880">
        <ele>662.0</ele>
        <time>2020-09-29T17:15:58Z</time>
      </trkpt>
      <trkpt lat="40.6709580" lon="-3.5108900">
        <ele>662.0</ele>
        <time>2020-09-29T17:15:59Z</time>
      </trkpt>
      <trkpt lat="40.6709580" lon="-3.5108900">
        <ele>662.0</ele>
        <time>2020-09-29T17:16:00Z</time>
      </trkpt>
      <trkpt lat="40.6708070" lon="-3.5108920">
        <ele>662.0</ele>
        <time>2020-09-29T17:16:01Z</time>
      </trkpt>
      <trkpt lat="40.6708070" lon="-3.5108920">
        <ele>662.0</ele>
        <time>2020-09-29T17:16:02Z</time>
      </trkpt>
      <trkpt lat="40.6706570" lon="-3.5108930">
        <ele>662.0</ele>
        <time>2020-09-29T17:16:03Z</time>
      </trkpt>
      <trkpt lat="40.6706570" lon="-3.5108930">
        <ele>662.0</ele>
        <time>2020-09-29T17:16:04Z</time>
      </trkpt>
      <trkpt lat="40.6705020" lon="-3.5108930">
        <ele>661.0</ele>
        <time>2020-09-29T17:16:05Z</time>
      </trkpt>
      <trkpt lat="40.6704270" lon="-3.5108930">
        <ele>661.0</ele>
        <time>2020-09-29T17:16:06Z</time>
      </trkpt>
      <trkpt lat="40.6704270" lon="-3.5108930">
        <ele>661.0</ele>
        <time>2020-09-29T17:16:07Z</time>
      </trkpt>
      <trkpt lat="40.6702730" lon="-3.5108920">
        <ele>661.0</ele>
        <time>2020-09-29T17:16:08Z</time>
      </trkpt>
      <trkpt lat="40.6702730" lon="-3.5108920">
        <ele>661.0</ele>
        <time>2020-09-29T17:16:09Z</time>
      </trkpt>
      <trkpt lat="40.6701180" lon="-3.5108930">
        <ele>661.0</ele>
        <time>2020-09-29T17:16:10Z</time>
      </trkpt>
      <trkpt lat="40.6700400" lon="-3.5108950">
        <ele>661.0</ele>
        <time>2020-09-29T17:16:11Z</time>
      </trkpt>
      <trkpt lat="40.6700400" lon="-3.5108950">
        <ele>661.0</ele>
        <time>2020-09-29T17:16:12Z</time>
      </trkpt>
      <trkpt lat="40.6698880" lon="-3.5108950">
        <ele>661.0</ele>
        <time>2020-09-29T17:16:13Z</time>
      </trkpt>
      <trkpt lat="40.6698880" lon="-3.5108950">
        <ele>661.0</ele>
        <time>2020-09-29T17:16:14Z</time>
      </trkpt>
      <trkpt lat="40.6697330" lon="-3.5108970">
        <ele>661.0</ele>
        <time>2020-09-29T17:16:15Z</time>
      </trkpt>
      <trkpt lat="40.6697330" lon="-3.5108970">
        <ele>661.0</ele>
        <time>2020-09-29T17:16:16Z</time>
      </trkpt>
      <trkpt lat="40.6695820" lon="-3.5108970">
        <ele>661.0</ele>
        <time>2020-09-29T17:16:17Z</time>
      </trkpt>
      <trkpt lat="40.6695070" lon="-3.5108970">
        <ele>661.0</ele>
        <time>2020-09-29T17:16:18Z</time>
      </trkpt>
      <trkpt lat="40.6695070" lon="-3.5108970">
        <ele>661.0</ele>
        <time>2020-09-29T17:16:19Z</time>
      </trkpt>
      <trkpt lat="40.6693520" lon="-3.5108950">
        <ele>661.0</ele>
        <time>2020-09-29T17:16:20Z</time>
      </trkpt>
      <trkpt lat="40.6693520" lon="-3.5108950">
        <ele>661.0</ele>
        <time>2020-09-29T17:16:21Z</time>
      </trkpt>
      <trkpt lat="40.6692050" lon="-3.5108970">
        <ele>661.0</ele>
        <time>2020-09-29T17:16:22Z</time>
      </trkpt>
      <trkpt lat="40.6691300" lon="-3.5108970">
        <ele>661.0</ele>
        <time>2020-09-29T17:16:23Z</time>
      </trkpt>
      <trkpt lat="40.6691300" lon="-3.5108970">
        <ele>661.0</ele>
        <time>2020-09-29T17:16:24Z</time>
      </trkpt>
      <trkpt lat="40.6689720" lon="-3.5108950">
        <ele>661.0</ele>
        <time>2020-09-29T17:16:25Z</time>
      </trkpt>
      <trkpt lat="40.6689720" lon="-3.5108950">
        <ele>661.0</ele>
        <time>2020-09-29T17:16:26Z</time>
      </trkpt>
      <trkpt lat="40.6688220" lon="-3.5108970">
        <ele>661.0</ele>
        <time>2020-09-29T17:16:27Z</time>
      </trkpt>
      <trkpt lat="40.6688220" lon="-3.5108970">
        <ele>661.0</ele>
        <time>2020-09-29T17:16:28Z</time>
      </trkpt>
      <trkpt lat="40.6688220" lon="-3.5108970">
        <ele>661.0</ele>
        <time>2020-09-29T17:16:29Z</time>
      </trkpt>
      <trkpt lat="40.6686720" lon="-3.5108970">
        <ele>661.0</ele>
        <time>2020-09-29T17:16:30Z</time>
      </trkpt>
      <trkpt lat="40.6686720" lon="-3.5108970">
        <ele>661.0</ele>
        <time>2020-09-29T17:16:31Z</time>
      </trkpt>
      <trkpt lat="40.6685230" lon="-3.5108970">
        <ele>661.0</ele>
        <time>2020-09-29T17:16:32Z</time>
      </trkpt>
      <trkpt lat="40.6683750" lon="-3.5108950">
        <ele>661.0</ele>
        <time>2020-09-29T17:16:33Z</time>
      </trkpt>
      <trkpt lat="40.6683000" lon="-3.5108950">
        <ele>661.0</ele>
        <time>2020-09-29T17:16:34Z</time>
      </trkpt>
      <trkpt lat="40.6682250" lon="-3.5108970">
        <ele>661.0</ele>
        <time>2020-09-29T17:16:35Z</time>
      </trkpt>
      <trkpt lat="40.6682250" lon="-3.5108970">
        <ele>660.0</ele>
        <time>2020-09-29T17:16:36Z</time>
      </trkpt>
      <trkpt lat="40.6680720" lon="-3.5108980">
        <ele>660.0</ele>
        <time>2020-09-29T17:16:37Z</time>
      </trkpt>
      <trkpt lat="40.6680720" lon="-3.5108980">
        <ele>660.0</ele>
        <time>2020-09-29T17:16:38Z</time>
      </trkpt>
      <trkpt lat="40.6679170" lon="-3.5108980">
        <ele>660.0</ele>
        <time>2020-09-29T17:16:39Z</time>
      </trkpt>
      <trkpt lat="40.6679170" lon="-3.5108980">
        <ele>660.0</ele>
        <time>2020-09-29T17:16:40Z</time>
      </trkpt>
      <trkpt lat="40.6677630" lon="-3.5108950">
        <ele>660.0</ele>
        <time>2020-09-29T17:16:41Z</time>
      </trkpt>
      <trkpt lat="40.6676850" lon="-3.5108950">
        <ele>660.0</ele>
        <time>2020-09-29T17:16:42Z</time>
      </trkpt>
      <trkpt lat="40.6676850" lon="-3.5108950">
        <ele>660.0</ele>
        <time>2020-09-29T17:16:43Z</time>
      </trkpt>
      <trkpt lat="40.6676850" lon="-3.5108950">
        <ele>660.0</ele>
        <time>2020-09-29T17:16:44Z</time>
      </trkpt>
      <trkpt lat="40.6675280" lon="-3.5108980">
        <ele>660.0</ele>
        <time>2020-09-29T17:16:45Z</time>
      </trkpt>
      <trkpt lat="40.6673750" lon="-3.5108980">
        <ele>660.0</ele>
        <time>2020-09-29T17:16:46Z</time>
      </trkpt>
      <trkpt lat="40.6673750" lon="-3.5108980">
        <ele>660.0</ele>
        <time>2020-09-29T17:16:47Z</time>
      </trkpt>
      <trkpt lat="40.6672220" lon="-3.5109020">
        <ele>660.0</ele>
        <time>2020-09-29T17:16:48Z</time>
      </trkpt>
      <trkpt lat="40.6671470" lon="-3.5109000">
        <ele>660.0</ele>
        <time>2020-09-29T17:16:49Z</time>
      </trkpt>
      <trkpt lat="40.6671470" lon="-3.5109000">
        <ele>660.0</ele>
        <time>2020-09-29T17:16:50Z</time>
      </trkpt>
      <trkpt lat="40.6669920" lon="-3.5109020">
        <ele>660.0</ele>
        <time>2020-09-29T17:16:51Z</time>
      </trkpt>
      <trkpt lat="40.6669920" lon="-3.5109020">
        <ele>660.0</ele>
        <time>2020-09-29T17:16:52Z</time>
      </trkpt>
      <trkpt lat="40.6668400" lon="-3.5109000">
        <ele>660.0</ele>
        <time>2020-09-29T17:16:53Z</time>
      </trkpt>
      <trkpt lat="40.6668400" lon="-3.5109000">
        <ele>660.0</ele>
        <time>2020-09-29T17:16:54Z</time>
      </trkpt>
      <trkpt lat="40.6666850" lon="-3.5109030">
        <ele>660.0</ele>
        <time>2020-09-29T17:16:55Z</time>
      </trkpt>
      <trkpt lat="40.6666850" lon="-3.5109030">
        <ele>660.0</ele>
        <time>2020-09-29T17:16:56Z</time>
      </trkpt>
      <trkpt lat="40.6665320" lon="-3.5109020">
        <ele>660.0</ele>
        <time>2020-09-29T17:16:57Z</time>
      </trkpt>
      <trkpt lat="40.6664570" lon="-3.5109020">
        <ele>660.0</ele>
        <time>2020-09-29T17:16:58Z</time>
      </trkpt>
      <trkpt lat="40.6663800" lon="-3.5109020">
        <ele>660.0</ele>
        <time>2020-09-29T17:16:59Z</time>
      </trkpt>
      <trkpt lat="40.6663800" lon="-3.5109020">
        <ele>660.0</ele>
        <time>2020-09-29T17:17:00Z</time>
      </trkpt>
      <trkpt lat="40.6662250" lon="-3.5109030">
        <ele>660.0</ele>
        <time>2020-09-29T17:17:01Z</time>
      </trkpt>
      <trkpt lat="40.6662250" lon="-3.5109030">
        <ele>660.0</ele>
        <time>2020-09-29T17:17:02Z</time>
      </trkpt>
      <trkpt lat="40.6660700" lon="-3.5109030">
        <ele>660.0</ele>
        <time>2020-09-29T17:17:03Z</time>
      </trkpt>
      <trkpt lat="40.6660700" lon="-3.5109030">
        <ele>660.0</ele>
        <time>2020-09-29T17:17:04Z</time>
      </trkpt>
      <trkpt lat="40.6659200" lon="-3.5109000">
        <ele>660.0</ele>
        <time>2020-09-29T17:17:05Z</time>
      </trkpt>
      <trkpt lat="40.6659200" lon="-3.5109000">
        <ele>660.0</ele>
        <time>2020-09-29T17:17:06Z</time>
      </trkpt>
      <trkpt lat="40.6657630" lon="-3.5109000">
        <ele>660.0</ele>
        <time>2020-09-29T17:17:07Z</time>
      </trkpt>
      <trkpt lat="40.6657630" lon="-3.5109000">
        <ele>660.0</ele>
        <time>2020-09-29T17:17:08Z</time>
      </trkpt>
      <trkpt lat="40.6656070" lon="-3.5109030">
        <ele>660.0</ele>
        <time>2020-09-29T17:17:09Z</time>
      </trkpt>
      <trkpt lat="40.6656070" lon="-3.5109030">
        <ele>660.0</ele>
        <time>2020-09-29T17:17:10Z</time>
      </trkpt>
      <trkpt lat="40.6654470" lon="-3.5109030">
        <ele>660.0</ele>
        <time>2020-09-29T17:17:11Z</time>
      </trkpt>
      <trkpt lat="40.6654470" lon="-3.5109030">
        <ele>660.0</ele>
        <time>2020-09-29T17:17:12Z</time>
      </trkpt>
      <trkpt lat="40.6652880" lon="-3.5109050">
        <ele>660.0</ele>
        <time>2020-09-29T17:17:13Z</time>
      </trkpt>
      <trkpt lat="40.6652880" lon="-3.5109050">
        <ele>660.0</ele>
        <time>2020-09-29T17:17:14Z</time>
      </trkpt>
      <trkpt lat="40.6651350" lon="-3.5109050">
        <ele>660.0</ele>
        <time>2020-09-29T17:17:15Z</time>
      </trkpt>
      <trkpt lat="40.6651350" lon="-3.5109050">
        <ele>660.0</ele>
        <time>2020-09-29T17:17:16Z</time>
      </trkpt>
      <trkpt lat="40.6649820" lon="-3.5109070">
        <ele>660.0</ele>
        <time>2020-09-29T17:17:17Z</time>
      </trkpt>
      <trkpt lat="40.6649050" lon="-3.5109080">
        <ele>660.0</ele>
        <time>2020-09-29T17:17:18Z</time>
      </trkpt>
      <trkpt lat="40.6649050" lon="-3.5109080">
        <ele>660.0</ele>
        <time>2020-09-29T17:17:19Z</time>
      </trkpt>
      <trkpt lat="40.6647500" lon="-3.5109080">
        <ele>660.0</ele>
        <time>2020-09-29T17:17:20Z</time>
      </trkpt>
      <trkpt lat="40.6647500" lon="-3.5109080">
        <ele>660.0</ele>
        <time>2020-09-29T17:17:21Z</time>
      </trkpt>
      <trkpt lat="40.6645900" lon="-3.5109070">
        <ele>660.0</ele>
        <time>2020-09-29T17:17:22Z</time>
      </trkpt>
      <trkpt lat="40.6645130" lon="-3.5109080">
        <ele>660.0</ele>
        <time>2020-09-29T17:17:23Z</time>
      </trkpt>
      <trkpt lat="40.6644370" lon="-3.5109100">
        <ele>660.0</ele>
        <time>2020-09-29T17:17:24Z</time>
      </trkpt>
      <trkpt lat="40.6643580" lon="-3.5109100">
        <ele>660.0</ele>
        <time>2020-09-29T17:17:25Z</time>
      </trkpt>
      <trkpt lat="40.6643580" lon="-3.5109100">
        <ele>660.0</ele>
        <time>2020-09-29T17:17:26Z</time>
      </trkpt>
      <trkpt lat="40.6641950" lon="-3.5109070">
        <ele>660.0</ele>
        <time>2020-09-29T17:17:27Z</time>
      </trkpt>
      <trkpt lat="40.6641950" lon="-3.5109070">
        <ele>660.0</ele>
        <time>2020-09-29T17:17:28Z</time>
      </trkpt>
      <trkpt lat="40.6640380" lon="-3.5109080">
        <ele>660.0</ele>
        <time>2020-09-29T17:17:29Z</time>
      </trkpt>
      <trkpt lat="40.6639580" lon="-3.5109100">
        <ele>660.0</ele>
        <time>2020-09-29T17:17:30Z</time>
      </trkpt>
      <trkpt lat="40.6638780" lon="-3.5109100">
        <ele>660.0</ele>
        <time>2020-09-29T17:17:31Z</time>
      </trkpt>
      <trkpt lat="40.6638780" lon="-3.5109100">
        <ele>660.0</ele>
        <time>2020-09-29T17:17:32Z</time>
      </trkpt>
      <trkpt lat="40.6637170" lon="-3.5109120">
        <ele>660.0</ele>
        <time>2020-09-29T17:17:33Z</time>
      </trkpt>
      <trkpt lat="40.6637170" lon="-3.5109120">
        <ele>660.0</ele>
        <time>2020-09-29T17:17:34Z</time>
      </trkpt>
      <trkpt lat="40.6635520" lon="-3.5109100">
        <ele>660.0</ele>
        <time>2020-09-29T17:17:35Z</time>
      </trkpt>
      <trkpt lat="40.6635520" lon="-3.5109100">
        <ele>660.0</ele>
        <time>2020-09-29T17:17:36Z</time>
      </trkpt>
      <trkpt lat="40.6633850" lon="-3.5109100">
        <ele>660.0</ele>
        <time>2020-09-29T17:17:37Z</time>
      </trkpt>
      <trkpt lat="40.6633850" lon="-3.5109100">
        <ele>660.0</ele>
        <time>2020-09-29T17:17:38Z</time>
      </trkpt>
      <trkpt lat="40.6632280" lon="-3.5109130">
        <ele>660.0</ele>
        <time>2020-09-29T17:17:39Z</time>
      </trkpt>
      <trkpt lat="40.6632280" lon="-3.5109130">
        <ele>659.0</ele>
        <time>2020-09-29T17:17:40Z</time>
      </trkpt>
      <trkpt lat="40.6630680" lon="-3.5109150">
        <ele>659.0</ele>
        <time>2020-09-29T17:17:41Z</time>
      </trkpt>
      <trkpt lat="40.6630680" lon="-3.5109150">
        <ele>659.0</ele>
        <time>2020-09-29T17:17:42Z</time>
      </trkpt>
      <trkpt lat="40.6629030" lon="-3.5109130">
        <ele>659.0</ele>
        <time>2020-09-29T17:17:43Z</time>
      </trkpt>
      <trkpt lat="40.6629030" lon="-3.5109130">
        <ele>659.0</ele>
        <time>2020-09-29T17:17:44Z</time>
      </trkpt>
      <trkpt lat="40.6627450" lon="-3.5109120">
        <ele>659.0</ele>
        <time>2020-09-29T17:17:45Z</time>
      </trkpt>
      <trkpt lat="40.6627450" lon="-3.5109120">
        <ele>659.0</ele>
        <time>2020-09-29T17:17:46Z</time>
      </trkpt>
      <trkpt lat="40.6625850" lon="-3.5109100">
        <ele>659.0</ele>
        <time>2020-09-29T17:17:47Z</time>
      </trkpt>
      <trkpt lat="40.6625850" lon="-3.5109100">
        <ele>659.0</ele>
        <time>2020-09-29T17:17:48Z</time>
      </trkpt>
      <trkpt lat="40.6625850" lon="-3.5109100">
        <ele>659.0</ele>
        <time>2020-09-29T17:17:49Z</time>
      </trkpt>
      <trkpt lat="40.6624280" lon="-3.5109120">
        <ele>659.0</ele>
        <time>2020-09-29T17:17:50Z</time>
      </trkpt>
      <trkpt lat="40.6622700" lon="-3.5109120">
        <ele>659.0</ele>
        <time>2020-09-29T17:17:51Z</time>
      </trkpt>
      <trkpt lat="40.6621900" lon="-3.5109120">
        <ele>659.0</ele>
        <time>2020-09-29T17:17:52Z</time>
      </trkpt>
      <trkpt lat="40.6621900" lon="-3.5109120">
        <ele>659.0</ele>
        <time>2020-09-29T17:17:53Z</time>
      </trkpt>
      <trkpt lat="40.6620330" lon="-3.5109100">
        <ele>659.0</ele>
        <time>2020-09-29T17:17:54Z</time>
      </trkpt>
      <trkpt lat="40.6619550" lon="-3.5109100">
        <ele>659.0</ele>
        <time>2020-09-29T17:17:55Z</time>
      </trkpt>
      <trkpt lat="40.6619550" lon="-3.5109100">
        <ele>659.0</ele>
        <time>2020-09-29T17:17:56Z</time>
      </trkpt>
      <trkpt lat="40.6618000" lon="-3.5109120">
        <ele>659.0</ele>
        <time>2020-09-29T17:17:57Z</time>
      </trkpt>
      <trkpt lat="40.6617220" lon="-3.5109130">
        <ele>659.0</ele>
        <time>2020-09-29T17:17:58Z</time>
      </trkpt>
      <trkpt lat="40.6617220" lon="-3.5109130">
        <ele>659.0</ele>
        <time>2020-09-29T17:17:59Z</time>
      </trkpt>
      <trkpt lat="40.6615670" lon="-3.5109170">
        <ele>659.0</ele>
        <time>2020-09-29T17:18:00Z</time>
      </trkpt>
      <trkpt lat="40.6614920" lon="-3.5109170">
        <ele>659.0</ele>
        <time>2020-09-29T17:18:01Z</time>
      </trkpt>
      <trkpt lat="40.6614920" lon="-3.5109170">
        <ele>659.0</ele>
        <time>2020-09-29T17:18:02Z</time>
      </trkpt>
      <trkpt lat="40.6613380" lon="-3.5109150">
        <ele>658.0</ele>
        <time>2020-09-29T17:18:03Z</time>
      </trkpt>
      <trkpt lat="40.6612620" lon="-3.5109150">
        <ele>658.0</ele>
        <time>2020-09-29T17:18:04Z</time>
      </trkpt>
      <trkpt lat="40.6611850" lon="-3.5109130">
        <ele>658.0</ele>
        <time>2020-09-29T17:18:05Z</time>
      </trkpt>
      <trkpt lat="40.6611850" lon="-3.5109130">
        <ele>658.0</ele>
        <time>2020-09-29T17:18:06Z</time>
      </trkpt>
      <trkpt lat="40.6611850" lon="-3.5109130">
        <ele>658.0</ele>
        <time>2020-09-29T17:18:07Z</time>
      </trkpt>
      <trkpt lat="40.6610320" lon="-3.5109130">
        <ele>658.0</ele>
        <time>2020-09-29T17:18:08Z</time>
      </trkpt>
      <trkpt lat="40.6608800" lon="-3.5109150">
        <ele>658.0</ele>
        <time>2020-09-29T17:18:09Z</time>
      </trkpt>
      <trkpt lat="40.6608070" lon="-3.5109150">
        <ele>658.0</ele>
        <time>2020-09-29T17:18:10Z</time>
      </trkpt>
      <trkpt lat="40.6608070" lon="-3.5109150">
        <ele>658.0</ele>
        <time>2020-09-29T17:18:11Z</time>
      </trkpt>
      <trkpt lat="40.6606620" lon="-3.5109150">
        <ele>658.0</ele>
        <time>2020-09-29T17:18:12Z</time>
      </trkpt>
      <trkpt lat="40.6606620" lon="-3.5109150">
        <ele>658.0</ele>
        <time>2020-09-29T17:18:13Z</time>
      </trkpt>
      <trkpt lat="40.6605150" lon="-3.5109170">
        <ele>658.0</ele>
        <time>2020-09-29T17:18:14Z</time>
      </trkpt>
      <trkpt lat="40.6605150" lon="-3.5109170">
        <ele>658.0</ele>
        <time>2020-09-29T17:18:15Z</time>
      </trkpt>
      <trkpt lat="40.6603680" lon="-3.5109180">
        <ele>658.0</ele>
        <time>2020-09-29T17:18:16Z</time>
      </trkpt>
      <trkpt lat="40.6603680" lon="-3.5109180">
        <ele>658.0</ele>
        <time>2020-09-29T17:18:17Z</time>
      </trkpt>
      <trkpt lat="40.6602220" lon="-3.5109220">
        <ele>658.0</ele>
        <time>2020-09-29T17:18:18Z</time>
      </trkpt>
      <trkpt lat="40.6601500" lon="-3.5109230">
        <ele>658.0</ele>
        <time>2020-09-29T17:18:19Z</time>
      </trkpt>
      <trkpt lat="40.6601500" lon="-3.5109230">
        <ele>658.0</ele>
        <time>2020-09-29T17:18:20Z</time>
      </trkpt>
      <trkpt lat="40.6600030" lon="-3.5109220">
        <ele>658.0</ele>
        <time>2020-09-29T17:18:21Z</time>
      </trkpt>
      <trkpt lat="40.6600030" lon="-3.5109220">
        <ele>658.0</ele>
        <time>2020-09-29T17:18:22Z</time>
      </trkpt>
      <trkpt lat="40.6598580" lon="-3.5109220">
        <ele>658.0</ele>
        <time>2020-09-29T17:18:23Z</time>
      </trkpt>
      <trkpt lat="40.6598580" lon="-3.5109220">
        <ele>658.0</ele>
        <time>2020-09-29T17:18:24Z</time>
      </trkpt>
      <trkpt lat="40.6597120" lon="-3.5109230">
        <ele>658.0</ele>
        <time>2020-09-29T17:18:25Z</time>
      </trkpt>
      <trkpt lat="40.6597120" lon="-3.5109230">
        <ele>658.0</ele>
        <time>2020-09-29T17:18:26Z</time>
      </trkpt>
      <trkpt lat="40.6595670" lon="-3.5109230">
        <ele>658.0</ele>
        <time>2020-09-29T17:18:27Z</time>
      </trkpt>
      <trkpt lat="40.6595670" lon="-3.5109230">
        <ele>658.0</ele>
        <time>2020-09-29T17:18:28Z</time>
      </trkpt>
      <trkpt lat="40.6594230" lon="-3.5109230">
        <ele>658.0</ele>
        <time>2020-09-29T17:18:29Z</time>
      </trkpt>
      <trkpt lat="40.6594230" lon="-3.5109230">
        <ele>658.0</ele>
        <time>2020-09-29T17:18:30Z</time>
      </trkpt>
      <trkpt lat="40.6592780" lon="-3.5109220">
        <ele>658.0</ele>
        <time>2020-09-29T17:18:31Z</time>
      </trkpt>
      <trkpt lat="40.6592780" lon="-3.5109220">
        <ele>658.0</ele>
        <time>2020-09-29T17:18:32Z</time>
      </trkpt>
      <trkpt lat="40.6591320" lon="-3.5109220">
        <ele>658.0</ele>
        <time>2020-09-29T17:18:33Z</time>
      </trkpt>
      <trkpt lat="40.6591320" lon="-3.5109220">
        <ele>658.0</ele>
        <time>2020-09-29T17:18:34Z</time>
      </trkpt>
      <trkpt lat="40.6589870" lon="-3.5109220">
        <ele>658.0</ele>
        <time>2020-09-29T17:18:35Z</time>
      </trkpt>
      <trkpt lat="40.6589870" lon="-3.5109220">
        <ele>658.0</ele>
        <time>2020-09-29T17:18:36Z</time>
      </trkpt>
      <trkpt lat="40.6588400" lon="-3.5109230">
        <ele>658.0</ele>
        <time>2020-09-29T17:18:37Z</time>
      </trkpt>
      <trkpt lat="40.6588400" lon="-3.5109230">
        <ele>658.0</ele>
        <time>2020-09-29T17:18:38Z</time>
      </trkpt>
      <trkpt lat="40.6586920" lon="-3.5109230">
        <ele>658.0</ele>
        <time>2020-09-29T17:18:39Z</time>
      </trkpt>
      <trkpt lat="40.6586920" lon="-3.5109230">
        <ele>658.0</ele>
        <time>2020-09-29T17:18:40Z</time>
      </trkpt>
      <trkpt lat="40.6585430" lon="-3.5109230">
        <ele>658.0</ele>
        <time>2020-09-29T17:18:41Z</time>
      </trkpt>
      <trkpt lat="40.6585430" lon="-3.5109230">
        <ele>658.0</ele>
        <time>2020-09-29T17:18:42Z</time>
      </trkpt>
      <trkpt lat="40.6583930" lon="-3.5109200">
        <ele>658.0</ele>
        <time>2020-09-29T17:18:43Z</time>
      </trkpt>
      <trkpt lat="40.6583220" lon="-3.5109220">
        <ele>658.0</ele>
        <time>2020-09-29T17:18:44Z</time>
      </trkpt>
      <trkpt lat="40.6583220" lon="-3.5109220">
        <ele>658.0</ele>
        <time>2020-09-29T17:18:45Z</time>
      </trkpt>
      <trkpt lat="40.6581720" lon="-3.5109230">
        <ele>658.0</ele>
        <time>2020-09-29T17:18:46Z</time>
      </trkpt>
      <trkpt lat="40.6581720" lon="-3.5109230">
        <ele>658.0</ele>
        <time>2020-09-29T17:18:47Z</time>
      </trkpt>
      <trkpt lat="40.6580950" lon="-3.5109230">
        <ele>658.0</ele>
        <time>2020-09-29T17:18:48Z</time>
      </trkpt>
      <trkpt lat="40.6579450" lon="-3.5109220">
        <ele>658.0</ele>
        <time>2020-09-29T17:18:49Z</time>
      </trkpt>
      <trkpt lat="40.6579450" lon="-3.5109220">
        <ele>658.0</ele>
        <time>2020-09-29T17:18:50Z</time>
      </trkpt>
      <trkpt lat="40.6579450" lon="-3.5109220">
        <ele>658.0</ele>
        <time>2020-09-29T17:18:51Z</time>
      </trkpt>
      <trkpt lat="40.6577920" lon="-3.5109200">
        <ele>658.0</ele>
        <time>2020-09-29T17:18:52Z</time>
      </trkpt>
      <trkpt lat="40.6576400" lon="-3.5109200">
        <ele>658.0</ele>
        <time>2020-09-29T17:18:53Z</time>
      </trkpt>
      <trkpt lat="40.6576400" lon="-3.5109200">
        <ele>658.0</ele>
        <time>2020-09-29T17:18:54Z</time>
      </trkpt>
      <trkpt lat="40.6574870" lon="-3.5109200">
        <ele>658.0</ele>
        <time>2020-09-29T17:18:55Z</time>
      </trkpt>
      <trkpt lat="40.6574080" lon="-3.5109220">
        <ele>658.0</ele>
        <time>2020-09-29T17:18:56Z</time>
      </trkpt>
      <trkpt lat="40.6574080" lon="-3.5109220">
        <ele>658.0</ele>
        <time>2020-09-29T17:18:57Z</time>
      </trkpt>
      <trkpt lat="40.6572500" lon="-3.5109200">
        <ele>658.0</ele>
        <time>2020-09-29T17:18:58Z</time>
      </trkpt>
      <trkpt lat="40.6572500" lon="-3.5109200">
        <ele>658.0</ele>
        <time>2020-09-29T17:18:59Z</time>
      </trkpt>
      <trkpt lat="40.6570900" lon="-3.5109200">
        <ele>658.0</ele>
        <time>2020-09-29T17:19:00Z</time>
      </trkpt>
      <trkpt lat="40.6570900" lon="-3.5109200">
        <ele>658.0</ele>
        <time>2020-09-29T17:19:01Z</time>
      </trkpt>
      <trkpt lat="40.6569350" lon="-3.5109220">
        <ele>658.0</ele>
        <time>2020-09-29T17:19:02Z</time>
      </trkpt>
      <trkpt lat="40.6568580" lon="-3.5109230">
        <ele>658.0</ele>
        <time>2020-09-29T17:19:03Z</time>
      </trkpt>
      <trkpt lat="40.6568580" lon="-3.5109230">
        <ele>658.0</ele>
        <time>2020-09-29T17:19:04Z</time>
      </trkpt>
      <trkpt lat="40.6567000" lon="-3.5109230">
        <ele>658.0</ele>
        <time>2020-09-29T17:19:05Z</time>
      </trkpt>
      <trkpt lat="40.6567000" lon="-3.5109230">
        <ele>658.0</ele>
        <time>2020-09-29T17:19:06Z</time>
      </trkpt>
      <trkpt lat="40.6565450" lon="-3.5109250">
        <ele>658.0</ele>
        <time>2020-09-29T17:19:07Z</time>
      </trkpt>
      <trkpt lat="40.6565450" lon="-3.5109250">
        <ele>658.0</ele>
        <time>2020-09-29T17:19:08Z</time>
      </trkpt>
      <trkpt lat="40.6563900" lon="-3.5109250">
        <ele>658.0</ele>
        <time>2020-09-29T17:19:09Z</time>
      </trkpt>
      <trkpt lat="40.6563900" lon="-3.5109250">
        <ele>658.0</ele>
        <time>2020-09-29T17:19:10Z</time>
      </trkpt>
      <trkpt lat="40.6562350" lon="-3.5109270">
        <ele>658.0</ele>
        <time>2020-09-29T17:19:11Z</time>
      </trkpt>
      <trkpt lat="40.6562350" lon="-3.5109270">
        <ele>658.0</ele>
        <time>2020-09-29T17:19:12Z</time>
      </trkpt>
      <trkpt lat="40.6560800" lon="-3.5109280">
        <ele>658.0</ele>
        <time>2020-09-29T17:19:13Z</time>
      </trkpt>
      <trkpt lat="40.6560800" lon="-3.5109280">
        <ele>658.0</ele>
        <time>2020-09-29T17:19:14Z</time>
      </trkpt>
      <trkpt lat="40.6559200" lon="-3.5109270">
        <ele>658.0</ele>
        <time>2020-09-29T17:19:15Z</time>
      </trkpt>
      <trkpt lat="40.6559200" lon="-3.5109270">
        <ele>658.0</ele>
        <time>2020-09-29T17:19:16Z</time>
      </trkpt>
      <trkpt lat="40.6557580" lon="-3.5109270">
        <ele>658.0</ele>
        <time>2020-09-29T17:19:17Z</time>
      </trkpt>
      <trkpt lat="40.6557580" lon="-3.5109270">
        <ele>658.0</ele>
        <time>2020-09-29T17:19:18Z</time>
      </trkpt>
      <trkpt lat="40.6556020" lon="-3.5109280">
        <ele>658.0</ele>
        <time>2020-09-29T17:19:19Z</time>
      </trkpt>
      <trkpt lat="40.6556020" lon="-3.5109280">
        <ele>658.0</ele>
        <time>2020-09-29T17:19:20Z</time>
      </trkpt>
      <trkpt lat="40.6554470" lon="-3.5109270">
        <ele>658.0</ele>
        <time>2020-09-29T17:19:21Z</time>
      </trkpt>
      <trkpt lat="40.6554470" lon="-3.5109270">
        <ele>658.0</ele>
        <time>2020-09-29T17:19:22Z</time>
      </trkpt>
      <trkpt lat="40.6552950" lon="-3.5109270">
        <ele>658.0</ele>
        <time>2020-09-29T17:19:23Z</time>
      </trkpt>
      <trkpt lat="40.6552180" lon="-3.5109280">
        <ele>658.0</ele>
        <time>2020-09-29T17:19:24Z</time>
      </trkpt>
      <trkpt lat="40.6552180" lon="-3.5109280">
        <ele>658.0</ele>
        <time>2020-09-29T17:19:25Z</time>
      </trkpt>
      <trkpt lat="40.6550670" lon="-3.5109280">
        <ele>658.0</ele>
        <time>2020-09-29T17:19:26Z</time>
      </trkpt>
      <trkpt lat="40.6550670" lon="-3.5109280">
        <ele>658.0</ele>
        <time>2020-09-29T17:19:27Z</time>
      </trkpt>
      <trkpt lat="40.6549150" lon="-3.5109300">
        <ele>658.0</ele>
        <time>2020-09-29T17:19:28Z</time>
      </trkpt>
      <trkpt lat="40.6549150" lon="-3.5109300">
        <ele>658.0</ele>
        <time>2020-09-29T17:19:29Z</time>
      </trkpt>
      <trkpt lat="40.6547650" lon="-3.5109300">
        <ele>658.0</ele>
        <time>2020-09-29T17:19:30Z</time>
      </trkpt>
      <trkpt lat="40.6547650" lon="-3.5109300">
        <ele>658.0</ele>
        <time>2020-09-29T17:19:31Z</time>
      </trkpt>
      <trkpt lat="40.6546150" lon="-3.5109320">
        <ele>658.0</ele>
        <time>2020-09-29T17:19:32Z</time>
      </trkpt>
      <trkpt lat="40.6546150" lon="-3.5109320">
        <ele>658.0</ele>
        <time>2020-09-29T17:19:33Z</time>
      </trkpt>
      <trkpt lat="40.6544650" lon="-3.5109330">
        <ele>658.0</ele>
        <time>2020-09-29T17:19:34Z</time>
      </trkpt>
      <trkpt lat="40.6543900" lon="-3.5109320">
        <ele>658.0</ele>
        <time>2020-09-29T17:19:35Z</time>
      </trkpt>
      <trkpt lat="40.6543900" lon="-3.5109320">
        <ele>658.0</ele>
        <time>2020-09-29T17:19:36Z</time>
      </trkpt>
      <trkpt lat="40.6542380" lon="-3.5109320">
        <ele>658.0</ele>
        <time>2020-09-29T17:19:37Z</time>
      </trkpt>
      <trkpt lat="40.6542380" lon="-3.5109320">
        <ele>658.0</ele>
        <time>2020-09-29T17:19:38Z</time>
      </trkpt>
      <trkpt lat="40.6540880" lon="-3.5109320">
        <ele>658.0</ele>
        <time>2020-09-29T17:19:39Z</time>
      </trkpt>
      <trkpt lat="40.6540880" lon="-3.5109320">
        <ele>658.0</ele>
        <time>2020-09-29T17:19:40Z</time>
      </trkpt>
      <trkpt lat="40.6539350" lon="-3.5109320">
        <ele>658.0</ele>
        <time>2020-09-29T17:19:41Z</time>
      </trkpt>
      <trkpt lat="40.6539350" lon="-3.5109320">
        <ele>658.0</ele>
        <time>2020-09-29T17:19:42Z</time>
      </trkpt>
      <trkpt lat="40.6537870" lon="-3.5109350">
        <ele>658.0</ele>
        <time>2020-09-29T17:19:43Z</time>
      </trkpt>
      <trkpt lat="40.6537870" lon="-3.5109350">
        <ele>658.0</ele>
        <time>2020-09-29T17:19:44Z</time>
      </trkpt>
      <trkpt lat="40.6536350" lon="-3.5109350">
        <ele>658.0</ele>
        <time>2020-09-29T17:19:45Z</time>
      </trkpt>
      <trkpt lat="40.6535550" lon="-3.5109370">
        <ele>658.0</ele>
        <time>2020-09-29T17:19:46Z</time>
      </trkpt>
      <trkpt lat="40.6535550" lon="-3.5109370">
        <ele>658.0</ele>
        <time>2020-09-29T17:19:47Z</time>
      </trkpt>
      <trkpt lat="40.6533980" lon="-3.5109350">
        <ele>658.0</ele>
        <time>2020-09-29T17:19:48Z</time>
      </trkpt>
      <trkpt lat="40.6533220" lon="-3.5109330">
        <ele>658.0</ele>
        <time>2020-09-29T17:19:49Z</time>
      </trkpt>
      <trkpt lat="40.6533220" lon="-3.5109330">
        <ele>658.0</ele>
        <time>2020-09-29T17:19:50Z</time>
      </trkpt>
      <trkpt lat="40.6531670" lon="-3.5109280">
        <ele>657.0</ele>
        <time>2020-09-29T17:19:51Z</time>
      </trkpt>
      <trkpt lat="40.6531670" lon="-3.5109280">
        <ele>657.0</ele>
        <time>2020-09-29T17:19:52Z</time>
      </trkpt>
      <trkpt lat="40.6530070" lon="-3.5109330">
        <ele>657.0</ele>
        <time>2020-09-29T17:19:53Z</time>
      </trkpt>
      <trkpt lat="40.6529280" lon="-3.5109350">
        <ele>657.0</ele>
        <time>2020-09-29T17:19:54Z</time>
      </trkpt>
      <trkpt lat="40.6529280" lon="-3.5109350">
        <ele>657.0</ele>
        <time>2020-09-29T17:19:55Z</time>
      </trkpt>
      <trkpt lat="40.6527720" lon="-3.5109350">
        <ele>657.0</ele>
        <time>2020-09-29T17:19:56Z</time>
      </trkpt>
      <trkpt lat="40.6527720" lon="-3.5109350">
        <ele>657.0</ele>
        <time>2020-09-29T17:19:57Z</time>
      </trkpt>
      <trkpt lat="40.6527720" lon="-3.5109350">
        <ele>657.0</ele>
        <time>2020-09-29T17:19:58Z</time>
      </trkpt>
      <trkpt lat="40.6526150" lon="-3.5109350">
        <ele>657.0</ele>
        <time>2020-09-29T17:19:59Z</time>
      </trkpt>
      <trkpt lat="40.6524580" lon="-3.5109350">
        <ele>657.0</ele>
        <time>2020-09-29T17:20:00Z</time>
      </trkpt>
      <trkpt lat="40.6523780" lon="-3.5109350">
        <ele>657.0</ele>
        <time>2020-09-29T17:20:01Z</time>
      </trkpt>
      <trkpt lat="40.6523780" lon="-3.5109350">
        <ele>657.0</ele>
        <time>2020-09-29T17:20:02Z</time>
      </trkpt>
      <trkpt lat="40.6522180" lon="-3.5109350">
        <ele>657.0</ele>
        <time>2020-09-29T17:20:03Z</time>
      </trkpt>
      <trkpt lat="40.6522180" lon="-3.5109350">
        <ele>657.0</ele>
        <time>2020-09-29T17:20:04Z</time>
      </trkpt>
      <trkpt lat="40.6520630" lon="-3.5109380">
        <ele>657.0</ele>
        <time>2020-09-29T17:20:05Z</time>
      </trkpt>
      <trkpt lat="40.6519830" lon="-3.5109400">
        <ele>657.0</ele>
        <time>2020-09-29T17:20:06Z</time>
      </trkpt>
      <trkpt lat="40.6519830" lon="-3.5109400">
        <ele>657.0</ele>
        <time>2020-09-29T17:20:07Z</time>
      </trkpt>
      <trkpt lat="40.6518320" lon="-3.5109370">
        <ele>657.0</ele>
        <time>2020-09-29T17:20:08Z</time>
      </trkpt>
      <trkpt lat="40.6518320" lon="-3.5109370">
        <ele>657.0</ele>
        <time>2020-09-29T17:20:09Z</time>
      </trkpt>
      <trkpt lat="40.6516820" lon="-3.5109370">
        <ele>657.0</ele>
        <time>2020-09-29T17:20:10Z</time>
      </trkpt>
      <trkpt lat="40.6516820" lon="-3.5109370">
        <ele>657.0</ele>
        <time>2020-09-29T17:20:11Z</time>
      </trkpt>
      <trkpt lat="40.6515330" lon="-3.5109420">
        <ele>657.0</ele>
        <time>2020-09-29T17:20:12Z</time>
      </trkpt>
      <trkpt lat="40.6514630" lon="-3.5109480">
        <ele>657.0</ele>
        <time>2020-09-29T17:20:13Z</time>
      </trkpt>
      <trkpt lat="40.6514630" lon="-3.5109480">
        <ele>658.0</ele>
        <time>2020-09-29T17:20:14Z</time>
      </trkpt>
      <trkpt lat="40.6513280" lon="-3.5109730">
        <ele>658.0</ele>
        <time>2020-09-29T17:20:15Z</time>
      </trkpt>
      <trkpt lat="40.6513280" lon="-3.5109730">
        <ele>658.0</ele>
        <time>2020-09-29T17:20:16Z</time>
      </trkpt>
      <trkpt lat="40.6511930" lon="-3.5110270">
        <ele>658.0</ele>
        <time>2020-09-29T17:20:17Z</time>
      </trkpt>
      <trkpt lat="40.6511370" lon="-3.5110820">
        <ele>658.0</ele>
        <time>2020-09-29T17:20:18Z</time>
      </trkpt>
      <trkpt lat="40.6511370" lon="-3.5110820">
        <ele>658.0</ele>
        <time>2020-09-29T17:20:19Z</time>
      </trkpt>
      <trkpt lat="40.6510500" lon="-3.5112250">
        <ele>658.0</ele>
        <time>2020-09-29T17:20:20Z</time>
      </trkpt>
      <trkpt lat="40.6510500" lon="-3.5112250">
        <ele>658.0</ele>
        <time>2020-09-29T17:20:21Z</time>
      </trkpt>
      <trkpt lat="40.6509680" lon="-3.5113780">
        <ele>658.0</ele>
        <time>2020-09-29T17:20:22Z</time>
      </trkpt>
      <trkpt lat="40.6509350" lon="-3.5114680">
        <ele>658.0</ele>
        <time>2020-09-29T17:20:23Z</time>
      </trkpt>
      <trkpt lat="40.6509350" lon="-3.5114680">
        <ele>658.0</ele>
        <time>2020-09-29T17:20:24Z</time>
      </trkpt>
      <trkpt lat="40.6509030" lon="-3.5116680">
        <ele>659.0</ele>
        <time>2020-09-29T17:20:25Z</time>
      </trkpt>
      <trkpt lat="40.6508980" lon="-3.5117670">
        <ele>659.0</ele>
        <time>2020-09-29T17:20:26Z</time>
      </trkpt>
      <trkpt lat="40.6508980" lon="-3.5117670">
        <ele>659.0</ele>
        <time>2020-09-29T17:20:27Z</time>
      </trkpt>
      <trkpt lat="40.6508880" lon="-3.5119770">
        <ele>659.0</ele>
        <time>2020-09-29T17:20:28Z</time>
      </trkpt>
      <trkpt lat="40.6508850" lon="-3.5120830">
        <ele>659.0</ele>
        <time>2020-09-29T17:20:29Z</time>
      </trkpt>
      <trkpt lat="40.6508850" lon="-3.5120830">
        <ele>659.0</ele>
        <time>2020-09-29T17:20:30Z</time>
      </trkpt>
      <trkpt lat="40.6508880" lon="-3.5122920">
        <ele>658.0</ele>
        <time>2020-09-29T17:20:31Z</time>
      </trkpt>
      <trkpt lat="40.6508880" lon="-3.5122920">
        <ele>658.0</ele>
        <time>2020-09-29T17:20:32Z</time>
      </trkpt>
      <trkpt lat="40.6508970" lon="-3.5125000">
        <ele>658.0</ele>
        <time>2020-09-29T17:20:33Z</time>
      </trkpt>
      <trkpt lat="40.6508970" lon="-3.5125000">
        <ele>658.0</ele>
        <time>2020-09-29T17:20:34Z</time>
      </trkpt>
      <trkpt lat="40.6509070" lon="-3.5127080">
        <ele>658.0</ele>
        <time>2020-09-29T17:20:35Z</time>
      </trkpt>
      <trkpt lat="40.6509100" lon="-3.5128130">
        <ele>658.0</ele>
        <time>2020-09-29T17:20:36Z</time>
      </trkpt>
      <trkpt lat="40.6509100" lon="-3.5128130">
        <ele>658.0</ele>
        <time>2020-09-29T17:20:37Z</time>
      </trkpt>
      <trkpt lat="40.6509150" lon="-3.5130230">
        <ele>658.0</ele>
        <time>2020-09-29T17:20:38Z</time>
      </trkpt>
      <trkpt lat="40.6509200" lon="-3.5131270">
        <ele>658.0</ele>
        <time>2020-09-29T17:20:39Z</time>
      </trkpt>
      <trkpt lat="40.6509200" lon="-3.5131270">
        <ele>658.0</ele>
        <time>2020-09-29T17:20:40Z</time>
      </trkpt>
      <trkpt lat="40.6509300" lon="-3.5133330">
        <ele>658.0</ele>
        <time>2020-09-29T17:20:41Z</time>
      </trkpt>
      <trkpt lat="40.6509300" lon="-3.5133330">
        <ele>658.0</ele>
        <time>2020-09-29T17:20:42Z</time>
      </trkpt>
      <trkpt lat="40.6509350" lon="-3.5135400">
        <ele>658.0</ele>
        <time>2020-09-29T17:20:43Z</time>
      </trkpt>
      <trkpt lat="40.6509350" lon="-3.5135400">
        <ele>658.0</ele>
        <time>2020-09-29T17:20:44Z</time>
      </trkpt>
      <trkpt lat="40.6509350" lon="-3.5135400">
        <ele>658.0</ele>
        <time>2020-09-29T17:20:45Z</time>
      </trkpt>
      <trkpt lat="40.6509370" lon="-3.5137450">
        <ele>658.0</ele>
        <time>2020-09-29T17:20:46Z</time>
      </trkpt>
      <trkpt lat="40.6509400" lon="-3.5139480">
        <ele>658.0</ele>
        <time>2020-09-29T17:20:47Z</time>
      </trkpt>
      <trkpt lat="40.6509350" lon="-3.5140500">
        <ele>658.0</ele>
        <time>2020-09-29T17:20:48Z</time>
      </trkpt>
      <trkpt lat="40.6509350" lon="-3.5140500">
        <ele>658.0</ele>
        <time>2020-09-29T17:20:49Z</time>
      </trkpt>
      <trkpt lat="40.6509230" lon="-3.5142580">
        <ele>658.0</ele>
        <time>2020-09-29T17:20:50Z</time>
      </trkpt>
      <trkpt lat="40.6509230" lon="-3.5142580">
        <ele>658.0</ele>
        <time>2020-09-29T17:20:51Z</time>
      </trkpt>
      <trkpt lat="40.6509070" lon="-3.5144620">
        <ele>658.0</ele>
        <time>2020-09-29T17:20:52Z</time>
      </trkpt>
      <trkpt lat="40.6509070" lon="-3.5144620">
        <ele>658.0</ele>
        <time>2020-09-29T17:20:53Z</time>
      </trkpt>
      <trkpt lat="40.6508820" lon="-3.5146680">
        <ele>658.0</ele>
        <time>2020-09-29T17:20:54Z</time>
      </trkpt>
      <trkpt lat="40.6508820" lon="-3.5146680">
        <ele>658.0</ele>
        <time>2020-09-29T17:20:55Z</time>
      </trkpt>
      <trkpt lat="40.6508570" lon="-3.5148620">
        <ele>658.0</ele>
        <time>2020-09-29T17:20:56Z</time>
      </trkpt>
      <trkpt lat="40.6508400" lon="-3.5149620">
        <ele>658.0</ele>
        <time>2020-09-29T17:20:57Z</time>
      </trkpt>
      <trkpt lat="40.6508400" lon="-3.5149620">
        <ele>658.0</ele>
        <time>2020-09-29T17:20:58Z</time>
      </trkpt>
      <trkpt lat="40.6508000" lon="-3.5151570">
        <ele>658.0</ele>
        <time>2020-09-29T17:20:59Z</time>
      </trkpt>
      <trkpt lat="40.6508000" lon="-3.5151570">
        <ele>658.0</ele>
        <time>2020-09-29T17:21:00Z</time>
      </trkpt>
      <trkpt lat="40.6507520" lon="-3.5153500">
        <ele>658.0</ele>
        <time>2020-09-29T17:21:01Z</time>
      </trkpt>
      <trkpt lat="40.6507520" lon="-3.5153500">
        <ele>658.0</ele>
        <time>2020-09-29T17:21:02Z</time>
      </trkpt>
      <trkpt lat="40.6506980" lon="-3.5155420">
        <ele>658.0</ele>
        <time>2020-09-29T17:21:03Z</time>
      </trkpt>
      <trkpt lat="40.6506980" lon="-3.5155420">
        <ele>658.0</ele>
        <time>2020-09-29T17:21:04Z</time>
      </trkpt>
      <trkpt lat="40.6506350" lon="-3.5157320">
        <ele>657.0</ele>
        <time>2020-09-29T17:21:05Z</time>
      </trkpt>
      <trkpt lat="40.6506020" lon="-3.5158250">
        <ele>657.0</ele>
        <time>2020-09-29T17:21:06Z</time>
      </trkpt>
      <trkpt lat="40.6506020" lon="-3.5158250">
        <ele>657.0</ele>
        <time>2020-09-29T17:21:07Z</time>
      </trkpt>
      <trkpt lat="40.6505320" lon="-3.5160070">
        <ele>657.0</ele>
        <time>2020-09-29T17:21:08Z</time>
      </trkpt>
      <trkpt lat="40.6505320" lon="-3.5160070">
        <ele>657.0</ele>
        <time>2020-09-29T17:21:09Z</time>
      </trkpt>
      <trkpt lat="40.6504520" lon="-3.5161820">
        <ele>657.0</ele>
        <time>2020-09-29T17:21:10Z</time>
      </trkpt>
      <trkpt lat="40.6504520" lon="-3.5161820">
        <ele>657.0</ele>
        <time>2020-09-29T17:21:11Z</time>
      </trkpt>
      <trkpt lat="40.6503650" lon="-3.5163570">
        <ele>657.0</ele>
        <time>2020-09-29T17:21:12Z</time>
      </trkpt>
      <trkpt lat="40.6503170" lon="-3.5164400">
        <ele>657.0</ele>
        <time>2020-09-29T17:21:13Z</time>
      </trkpt>
      <trkpt lat="40.6502670" lon="-3.5165230">
        <ele>657.0</ele>
        <time>2020-09-29T17:21:14Z</time>
      </trkpt>
      <trkpt lat="40.6502670" lon="-3.5165230">
        <ele>657.0</ele>
        <time>2020-09-29T17:21:15Z</time>
      </trkpt>
      <trkpt lat="40.6501670" lon="-3.5166830">
        <ele>657.0</ele>
        <time>2020-09-29T17:21:16Z</time>
      </trkpt>
      <trkpt lat="40.6501120" lon="-3.5167630">
        <ele>657.0</ele>
        <time>2020-09-29T17:21:17Z</time>
      </trkpt>
      <trkpt lat="40.6500570" lon="-3.5168400">
        <ele>657.0</ele>
        <time>2020-09-29T17:21:18Z</time>
      </trkpt>
      <trkpt lat="40.6500570" lon="-3.5168400">
        <ele>657.0</ele>
        <time>2020-09-29T17:21:19Z</time>
      </trkpt>
      <trkpt lat="40.6499430" lon="-3.5169880">
        <ele>657.0</ele>
        <time>2020-09-29T17:21:20Z</time>
      </trkpt>
      <trkpt lat="40.6499430" lon="-3.5169880">
        <ele>657.0</ele>
        <time>2020-09-29T17:21:21Z</time>
      </trkpt>
      <trkpt lat="40.6498250" lon="-3.5171300">
        <ele>657.0</ele>
        <time>2020-09-29T17:21:22Z</time>
      </trkpt>
      <trkpt lat="40.6497630" lon="-3.5172000">
        <ele>657.0</ele>
        <time>2020-09-29T17:21:23Z</time>
      </trkpt>
      <trkpt lat="40.6497630" lon="-3.5172000">
        <ele>657.0</ele>
        <time>2020-09-29T17:21:24Z</time>
      </trkpt>
      <trkpt lat="40.6496380" lon="-3.5173280">
        <ele>657.0</ele>
        <time>2020-09-29T17:21:25Z</time>
      </trkpt>
      <trkpt lat="40.6495730" lon="-3.5173900">
        <ele>657.0</ele>
        <time>2020-09-29T17:21:26Z</time>
      </trkpt>
      <trkpt lat="40.6495730" lon="-3.5173900">
        <ele>657.0</ele>
        <time>2020-09-29T17:21:27Z</time>
      </trkpt>
      <trkpt lat="40.6494420" lon="-3.5175050">
        <ele>657.0</ele>
        <time>2020-09-29T17:21:28Z</time>
      </trkpt>
      <trkpt lat="40.6493750" lon="-3.5175580">
        <ele>657.0</ele>
        <time>2020-09-29T17:21:29Z</time>
      </trkpt>
      <trkpt lat="40.6493750" lon="-3.5175580">
        <ele>657.0</ele>
        <time>2020-09-29T17:21:30Z</time>
      </trkpt>
      <trkpt lat="40.6492350" lon="-3.5176520">
        <ele>657.0</ele>
        <time>2020-09-29T17:21:31Z</time>
      </trkpt>
      <trkpt lat="40.6492350" lon="-3.5176520">
        <ele>657.0</ele>
        <time>2020-09-29T17:21:32Z</time>
      </trkpt>
      <trkpt lat="40.6490920" lon="-3.5177400">
        <ele>657.0</ele>
        <time>2020-09-29T17:21:33Z</time>
      </trkpt>
      <trkpt lat="40.6490920" lon="-3.5177400">
        <ele>657.0</ele>
        <time>2020-09-29T17:21:34Z</time>
      </trkpt>
      <trkpt lat="40.6489450" lon="-3.5178350">
        <ele>657.0</ele>
        <time>2020-09-29T17:21:35Z</time>
      </trkpt>
      <trkpt lat="40.6489450" lon="-3.5178350">
        <ele>657.0</ele>
        <time>2020-09-29T17:21:36Z</time>
      </trkpt>
      <trkpt lat="40.6488000" lon="-3.5179220">
        <ele>657.0</ele>
        <time>2020-09-29T17:21:37Z</time>
      </trkpt>
      <trkpt lat="40.6488000" lon="-3.5179220">
        <ele>657.0</ele>
        <time>2020-09-29T17:21:38Z</time>
      </trkpt>
      <trkpt lat="40.6486500" lon="-3.5180020">
        <ele>657.0</ele>
        <time>2020-09-29T17:21:39Z</time>
      </trkpt>
      <trkpt lat="40.6486500" lon="-3.5180020">
        <ele>657.0</ele>
        <time>2020-09-29T17:21:40Z</time>
      </trkpt>
      <trkpt lat="40.6484980" lon="-3.5180820">
        <ele>657.0</ele>
        <time>2020-09-29T17:21:41Z</time>
      </trkpt>
      <trkpt lat="40.6484220" lon="-3.5181250">
        <ele>656.0</ele>
        <time>2020-09-29T17:21:42Z</time>
      </trkpt>
      <trkpt lat="40.6484220" lon="-3.5181250">
        <ele>656.0</ele>
        <time>2020-09-29T17:21:43Z</time>
      </trkpt>
      <trkpt lat="40.6483470" lon="-3.5181680">
        <ele>656.0</ele>
        <time>2020-09-29T17:21:44Z</time>
      </trkpt>
      <trkpt lat="40.6481970" lon="-3.5182500">
        <ele>656.0</ele>
        <time>2020-09-29T17:21:45Z</time>
      </trkpt>
      <trkpt lat="40.6481970" lon="-3.5182500">
        <ele>656.0</ele>
        <time>2020-09-29T17:21:46Z</time>
      </trkpt>
      <trkpt lat="40.6480470" lon="-3.5183320">
        <ele>655.0</ele>
        <time>2020-09-29T17:21:47Z</time>
      </trkpt>
      <trkpt lat="40.6480470" lon="-3.5183320">
        <ele>655.0</ele>
        <time>2020-09-29T17:21:48Z</time>
      </trkpt>
      <trkpt lat="40.6478970" lon="-3.5184130">
        <ele>655.0</ele>
        <time>2020-09-29T17:21:49Z</time>
      </trkpt>
      <trkpt lat="40.6478970" lon="-3.5184130">
        <ele>655.0</ele>
        <time>2020-09-29T17:21:50Z</time>
      </trkpt>
      <trkpt lat="40.6477500" lon="-3.5184930">
        <ele>655.0</ele>
        <time>2020-09-29T17:21:51Z</time>
      </trkpt>
      <trkpt lat="40.6477500" lon="-3.5184930">
        <ele>655.0</ele>
        <time>2020-09-29T17:21:52Z</time>
      </trkpt>
      <trkpt lat="40.6476020" lon="-3.5185730">
        <ele>655.0</ele>
        <time>2020-09-29T17:21:53Z</time>
      </trkpt>
      <trkpt lat="40.6475300" lon="-3.5186130">
        <ele>655.0</ele>
        <time>2020-09-29T17:21:54Z</time>
      </trkpt>
      <trkpt lat="40.6475300" lon="-3.5186130">
        <ele>655.0</ele>
        <time>2020-09-29T17:21:55Z</time>
      </trkpt>
      <trkpt lat="40.6473870" lon="-3.5186930">
        <ele>655.0</ele>
        <time>2020-09-29T17:21:56Z</time>
      </trkpt>
      <trkpt lat="40.6473870" lon="-3.5186930">
        <ele>655.0</ele>
        <time>2020-09-29T17:21:57Z</time>
      </trkpt>
      <trkpt lat="40.6472420" lon="-3.5187730">
        <ele>655.0</ele>
        <time>2020-09-29T17:21:58Z</time>
      </trkpt>
      <trkpt lat="40.6472420" lon="-3.5187730">
        <ele>655.0</ele>
        <time>2020-09-29T17:21:59Z</time>
      </trkpt>
      <trkpt lat="40.6470950" lon="-3.5188570">
        <ele>655.0</ele>
        <time>2020-09-29T17:22:00Z</time>
      </trkpt>
      <trkpt lat="40.6470200" lon="-3.5189000">
        <ele>655.0</ele>
        <time>2020-09-29T17:22:01Z</time>
      </trkpt>
      <trkpt lat="40.6470200" lon="-3.5189000">
        <ele>655.0</ele>
        <time>2020-09-29T17:22:02Z</time>
      </trkpt>
      <trkpt lat="40.6468700" lon="-3.5189870">
        <ele>655.0</ele>
        <time>2020-09-29T17:22:03Z</time>
      </trkpt>
      <trkpt lat="40.6468700" lon="-3.5189870">
        <ele>655.0</ele>
        <time>2020-09-29T17:22:04Z</time>
      </trkpt>
      <trkpt lat="40.6467200" lon="-3.5190680">
        <ele>655.0</ele>
        <time>2020-09-29T17:22:05Z</time>
      </trkpt>
      <trkpt lat="40.6467200" lon="-3.5190680">
        <ele>655.0</ele>
        <time>2020-09-29T17:22:06Z</time>
      </trkpt>
      <trkpt lat="40.6467200" lon="-3.5190680">
        <ele>655.0</ele>
        <time>2020-09-29T17:22:07Z</time>
      </trkpt>
      <trkpt lat="40.6465730" lon="-3.5191530">
        <ele>655.0</ele>
        <time>2020-09-29T17:22:08Z</time>
      </trkpt>
      <trkpt lat="40.6464320" lon="-3.5192300">
        <ele>655.0</ele>
        <time>2020-09-29T17:22:09Z</time>
      </trkpt>
      <trkpt lat="40.6464320" lon="-3.5192300">
        <ele>655.0</ele>
        <time>2020-09-29T17:22:10Z</time>
      </trkpt>
      <trkpt lat="40.6462830" lon="-3.5193100">
        <ele>655.0</ele>
        <time>2020-09-29T17:22:11Z</time>
      </trkpt>
      <trkpt lat="40.6462080" lon="-3.5193520">
        <ele>655.0</ele>
        <time>2020-09-29T17:22:12Z</time>
      </trkpt>
      <trkpt lat="40.6462080" lon="-3.5193520">
        <ele>655.0</ele>
        <time>2020-09-29T17:22:13Z</time>
      </trkpt>
      <trkpt lat="40.6460620" lon="-3.5194330">
        <ele>655.0</ele>
        <time>2020-09-29T17:22:14Z</time>
      </trkpt>
      <trkpt lat="40.6460620" lon="-3.5194330">
        <ele>655.0</ele>
        <time>2020-09-29T17:22:15Z</time>
      </trkpt>
      <trkpt lat="40.6459220" lon="-3.5194980">
        <ele>655.0</ele>
        <time>2020-09-29T17:22:16Z</time>
      </trkpt>
      <trkpt lat="40.6458500" lon="-3.5195350">
        <ele>655.0</ele>
        <time>2020-09-29T17:22:17Z</time>
      </trkpt>
      <trkpt lat="40.6458500" lon="-3.5195350">
        <ele>655.0</ele>
        <time>2020-09-29T17:22:18Z</time>
      </trkpt>
      <trkpt lat="40.6457100" lon="-3.5196130">
        <ele>655.0</ele>
        <time>2020-09-29T17:22:19Z</time>
      </trkpt>
      <trkpt lat="40.6457100" lon="-3.5196130">
        <ele>655.0</ele>
        <time>2020-09-29T17:22:20Z</time>
      </trkpt>
      <trkpt lat="40.6455650" lon="-3.5196930">
        <ele>655.0</ele>
        <time>2020-09-29T17:22:21Z</time>
      </trkpt>
      <trkpt lat="40.6455650" lon="-3.5196930">
        <ele>655.0</ele>
        <time>2020-09-29T17:22:22Z</time>
      </trkpt>
      <trkpt lat="40.6454200" lon="-3.5197730">
        <ele>655.0</ele>
        <time>2020-09-29T17:22:23Z</time>
      </trkpt>
      <trkpt lat="40.6453470" lon="-3.5198150">
        <ele>655.0</ele>
        <time>2020-09-29T17:22:24Z</time>
      </trkpt>
      <trkpt lat="40.6452750" lon="-3.5198570">
        <ele>655.0</ele>
        <time>2020-09-29T17:22:25Z</time>
      </trkpt>
      <trkpt lat="40.6452750" lon="-3.5198570">
        <ele>655.0</ele>
        <time>2020-09-29T17:22:26Z</time>
      </trkpt>
      <trkpt lat="40.6451350" lon="-3.5199380">
        <ele>655.0</ele>
        <time>2020-09-29T17:22:27Z</time>
      </trkpt>
      <trkpt lat="40.6451350" lon="-3.5199380">
        <ele>655.0</ele>
        <time>2020-09-29T17:22:28Z</time>
      </trkpt>
      <trkpt lat="40.6449880" lon="-3.5200200">
        <ele>654.0</ele>
        <time>2020-09-29T17:22:29Z</time>
      </trkpt>
      <trkpt lat="40.6449150" lon="-3.5200600">
        <ele>654.0</ele>
        <time>2020-09-29T17:22:30Z</time>
      </trkpt>
      <trkpt lat="40.6449150" lon="-3.5200600">
        <ele>654.0</ele>
        <time>2020-09-29T17:22:31Z</time>
      </trkpt>
      <trkpt lat="40.6447650" lon="-3.5201380">
        <ele>654.0</ele>
        <time>2020-09-29T17:22:32Z</time>
      </trkpt>
      <trkpt lat="40.6446900" lon="-3.5201800">
        <ele>654.0</ele>
        <time>2020-09-29T17:22:33Z</time>
      </trkpt>
      <trkpt lat="40.6446900" lon="-3.5201800">
        <ele>654.0</ele>
        <time>2020-09-29T17:22:34Z</time>
      </trkpt>
      <trkpt lat="40.6445480" lon="-3.5202580">
        <ele>654.0</ele>
        <time>2020-09-29T17:22:35Z</time>
      </trkpt>
      <trkpt lat="40.6445480" lon="-3.5202580">
        <ele>654.0</ele>
        <time>2020-09-29T17:22:36Z</time>
      </trkpt>
      <trkpt lat="40.6444130" lon="-3.5203350">
        <ele>654.0</ele>
        <time>2020-09-29T17:22:37Z</time>
      </trkpt>
      <trkpt lat="40.6444130" lon="-3.5203350">
        <ele>654.0</ele>
        <time>2020-09-29T17:22:38Z</time>
      </trkpt>
      <trkpt lat="40.6442720" lon="-3.5204120">
        <ele>654.0</ele>
        <time>2020-09-29T17:22:39Z</time>
      </trkpt>
      <trkpt lat="40.6442720" lon="-3.5204120">
        <ele>654.0</ele>
        <time>2020-09-29T17:22:40Z</time>
      </trkpt>
      <trkpt lat="40.6441330" lon="-3.5204880">
        <ele>654.0</ele>
        <time>2020-09-29T17:22:41Z</time>
      </trkpt>
      <trkpt lat="40.6441330" lon="-3.5204880">
        <ele>654.0</ele>
        <time>2020-09-29T17:22:42Z</time>
      </trkpt>
      <trkpt lat="40.6439970" lon="-3.5205670">
        <ele>654.0</ele>
        <time>2020-09-29T17:22:43Z</time>
      </trkpt>
      <trkpt lat="40.6439970" lon="-3.5205670">
        <ele>654.0</ele>
        <time>2020-09-29T17:22:44Z</time>
      </trkpt>
      <trkpt lat="40.6439970" lon="-3.5205670">
        <ele>654.0</ele>
        <time>2020-09-29T17:22:45Z</time>
      </trkpt>
      <trkpt lat="40.6438600" lon="-3.5206430">
        <ele>654.0</ele>
        <time>2020-09-29T17:22:46Z</time>
      </trkpt>
      <trkpt lat="40.6438600" lon="-3.5206430">
        <ele>654.0</ele>
        <time>2020-09-29T17:22:47Z</time>
      </trkpt>
      <trkpt lat="40.6437230" lon="-3.5207170">
        <ele>654.0</ele>
        <time>2020-09-29T17:22:48Z</time>
      </trkpt>
      <trkpt lat="40.6435950" lon="-3.5207850">
        <ele>654.0</ele>
        <time>2020-09-29T17:22:49Z</time>
      </trkpt>
      <trkpt lat="40.6435950" lon="-3.5207850">
        <ele>654.0</ele>
        <time>2020-09-29T17:22:50Z</time>
      </trkpt>
      <trkpt lat="40.6434700" lon="-3.5208550">
        <ele>654.0</ele>
        <time>2020-09-29T17:22:51Z</time>
      </trkpt>
      <trkpt lat="40.6434700" lon="-3.5208550">
        <ele>654.0</ele>
        <time>2020-09-29T17:22:52Z</time>
      </trkpt>
      <trkpt lat="40.6433380" lon="-3.5209270">
        <ele>654.0</ele>
        <time>2020-09-29T17:22:53Z</time>
      </trkpt>
      <trkpt lat="40.6433380" lon="-3.5209270">
        <ele>654.0</ele>
        <time>2020-09-29T17:22:54Z</time>
      </trkpt>
      <trkpt lat="40.6432030" lon="-3.5210020">
        <ele>654.0</ele>
        <time>2020-09-29T17:22:55Z</time>
      </trkpt>
      <trkpt lat="40.6432030" lon="-3.5210020">
        <ele>654.0</ele>
        <time>2020-09-29T17:22:56Z</time>
      </trkpt>
      <trkpt lat="40.6430730" lon="-3.5210720">
        <ele>654.0</ele>
        <time>2020-09-29T17:22:57Z</time>
      </trkpt>
      <trkpt lat="40.6430730" lon="-3.5210720">
        <ele>654.0</ele>
        <time>2020-09-29T17:22:58Z</time>
      </trkpt>
      <trkpt lat="40.6429450" lon="-3.5211470">
        <ele>653.0</ele>
        <time>2020-09-29T17:22:59Z</time>
      </trkpt>
      <trkpt lat="40.6429450" lon="-3.5211470">
        <ele>653.0</ele>
        <time>2020-09-29T17:23:00Z</time>
      </trkpt>
      <trkpt lat="40.6428170" lon="-3.5212170">
        <ele>653.0</ele>
        <time>2020-09-29T17:23:01Z</time>
      </trkpt>
      <trkpt lat="40.6427500" lon="-3.5212520">
        <ele>653.0</ele>
        <time>2020-09-29T17:23:02Z</time>
      </trkpt>
      <trkpt lat="40.6427500" lon="-3.5212520">
        <ele>653.0</ele>
        <time>2020-09-29T17:23:03Z</time>
      </trkpt>
      <trkpt lat="40.6426130" lon="-3.5213200">
        <ele>653.0</ele>
        <time>2020-09-29T17:23:04Z</time>
      </trkpt>
      <trkpt lat="40.6426130" lon="-3.5213200">
        <ele>653.0</ele>
        <time>2020-09-29T17:23:05Z</time>
      </trkpt>
      <trkpt lat="40.6424820" lon="-3.5213930">
        <ele>653.0</ele>
        <time>2020-09-29T17:23:06Z</time>
      </trkpt>
      <trkpt lat="40.6424150" lon="-3.5214280">
        <ele>653.0</ele>
        <time>2020-09-29T17:23:07Z</time>
      </trkpt>
      <trkpt lat="40.6424150" lon="-3.5214280">
        <ele>653.0</ele>
        <time>2020-09-29T17:23:08Z</time>
      </trkpt>
      <trkpt lat="40.6422800" lon="-3.5214970">
        <ele>653.0</ele>
        <time>2020-09-29T17:23:09Z</time>
      </trkpt>
      <trkpt lat="40.6422800" lon="-3.5214970">
        <ele>653.0</ele>
        <time>2020-09-29T17:23:10Z</time>
      </trkpt>
      <trkpt lat="40.6421480" lon="-3.5215700">
        <ele>653.0</ele>
        <time>2020-09-29T17:23:11Z</time>
      </trkpt>
      <trkpt lat="40.6421480" lon="-3.5215700">
        <ele>653.0</ele>
        <time>2020-09-29T17:23:12Z</time>
      </trkpt>
      <trkpt lat="40.6420170" lon="-3.5216470">
        <ele>653.0</ele>
        <time>2020-09-29T17:23:13Z</time>
      </trkpt>
      <trkpt lat="40.6420170" lon="-3.5216470">
        <ele>653.0</ele>
        <time>2020-09-29T17:23:14Z</time>
      </trkpt>
      <trkpt lat="40.6418830" lon="-3.5217220">
        <ele>653.0</ele>
        <time>2020-09-29T17:23:15Z</time>
      </trkpt>
      <trkpt lat="40.6418150" lon="-3.5217600">
        <ele>653.0</ele>
        <time>2020-09-29T17:23:16Z</time>
      </trkpt>
      <trkpt lat="40.6418150" lon="-3.5217600">
        <ele>653.0</ele>
        <time>2020-09-29T17:23:17Z</time>
      </trkpt>
      <trkpt lat="40.6416780" lon="-3.5218370">
        <ele>652.0</ele>
        <time>2020-09-29T17:23:18Z</time>
      </trkpt>
      <trkpt lat="40.6416780" lon="-3.5218370">
        <ele>652.0</ele>
        <time>2020-09-29T17:23:19Z</time>
      </trkpt>
      <trkpt lat="40.6415420" lon="-3.5219150">
        <ele>652.0</ele>
        <time>2020-09-29T17:23:20Z</time>
      </trkpt>
      <trkpt lat="40.6415420" lon="-3.5219150">
        <ele>652.0</ele>
        <time>2020-09-29T17:23:21Z</time>
      </trkpt>
      <trkpt lat="40.6414030" lon="-3.5219930">
        <ele>652.0</ele>
        <time>2020-09-29T17:23:22Z</time>
      </trkpt>
      <trkpt lat="40.6413330" lon="-3.5220320">
        <ele>652.0</ele>
        <time>2020-09-29T17:23:23Z</time>
      </trkpt>
      <trkpt lat="40.6413330" lon="-3.5220320">
        <ele>652.0</ele>
        <time>2020-09-29T17:23:24Z</time>
      </trkpt>
      <trkpt lat="40.6411920" lon="-3.5221080">
        <ele>652.0</ele>
        <time>2020-09-29T17:23:25Z</time>
      </trkpt>
      <trkpt lat="40.6411920" lon="-3.5221080">
        <ele>652.0</ele>
        <time>2020-09-29T17:23:26Z</time>
      </trkpt>
      <trkpt lat="40.6410480" lon="-3.5221870">
        <ele>652.0</ele>
        <time>2020-09-29T17:23:27Z</time>
      </trkpt>
      <trkpt lat="40.6410480" lon="-3.5221870">
        <ele>652.0</ele>
        <time>2020-09-29T17:23:28Z</time>
      </trkpt>
      <trkpt lat="40.6409070" lon="-3.5222630">
        <ele>652.0</ele>
        <time>2020-09-29T17:23:29Z</time>
      </trkpt>
      <trkpt lat="40.6409070" lon="-3.5222630">
        <ele>652.0</ele>
        <time>2020-09-29T17:23:30Z</time>
      </trkpt>
      <trkpt lat="40.6407620" lon="-3.5223430">
        <ele>652.0</ele>
        <time>2020-09-29T17:23:31Z</time>
      </trkpt>
      <trkpt lat="40.6407620" lon="-3.5223430">
        <ele>652.0</ele>
        <time>2020-09-29T17:23:32Z</time>
      </trkpt>
      <trkpt lat="40.6406200" lon="-3.5224230">
        <ele>652.0</ele>
        <time>2020-09-29T17:23:33Z</time>
      </trkpt>
      <trkpt lat="40.6405500" lon="-3.5224630">
        <ele>652.0</ele>
        <time>2020-09-29T17:23:34Z</time>
      </trkpt>
      <trkpt lat="40.6405500" lon="-3.5224630">
        <ele>652.0</ele>
        <time>2020-09-29T17:23:35Z</time>
      </trkpt>
      <trkpt lat="40.6404080" lon="-3.5225450">
        <ele>652.0</ele>
        <time>2020-09-29T17:23:36Z</time>
      </trkpt>
      <trkpt lat="40.6403380" lon="-3.5225870">
        <ele>652.0</ele>
        <time>2020-09-29T17:23:37Z</time>
      </trkpt>
      <trkpt lat="40.6403380" lon="-3.5225870">
        <ele>652.0</ele>
        <time>2020-09-29T17:23:38Z</time>
      </trkpt>
      <trkpt lat="40.6402000" lon="-3.5226680">
        <ele>652.0</ele>
        <time>2020-09-29T17:23:39Z</time>
      </trkpt>
      <trkpt lat="40.6402000" lon="-3.5226680">
        <ele>652.0</ele>
        <time>2020-09-29T17:23:40Z</time>
      </trkpt>
      <trkpt lat="40.6400580" lon="-3.5227520">
        <ele>652.0</ele>
        <time>2020-09-29T17:23:41Z</time>
      </trkpt>
      <trkpt lat="40.6400580" lon="-3.5227520">
        <ele>652.0</ele>
        <time>2020-09-29T17:23:42Z</time>
      </trkpt>
      <trkpt lat="40.6399170" lon="-3.5228320">
        <ele>652.0</ele>
        <time>2020-09-29T17:23:43Z</time>
      </trkpt>
      <trkpt lat="40.6399170" lon="-3.5228320">
        <ele>652.0</ele>
        <time>2020-09-29T17:23:44Z</time>
      </trkpt>
      <trkpt lat="40.6397730" lon="-3.5229150">
        <ele>652.0</ele>
        <time>2020-09-29T17:23:45Z</time>
      </trkpt>
      <trkpt lat="40.6397020" lon="-3.5229570">
        <ele>652.0</ele>
        <time>2020-09-29T17:23:46Z</time>
      </trkpt>
      <trkpt lat="40.6397020" lon="-3.5229570">
        <ele>652.0</ele>
        <time>2020-09-29T17:23:47Z</time>
      </trkpt>
      <trkpt lat="40.6395580" lon="-3.5230470">
        <ele>652.0</ele>
        <time>2020-09-29T17:23:48Z</time>
      </trkpt>
      <trkpt lat="40.6394870" lon="-3.5230900">
        <ele>652.0</ele>
        <time>2020-09-29T17:23:49Z</time>
      </trkpt>
      <trkpt lat="40.6394870" lon="-3.5230900">
        <ele>652.0</ele>
        <time>2020-09-29T17:23:50Z</time>
      </trkpt>
      <trkpt lat="40.6393430" lon="-3.5231780">
        <ele>652.0</ele>
        <time>2020-09-29T17:23:51Z</time>
      </trkpt>
      <trkpt lat="40.6393430" lon="-3.5231780">
        <ele>651.0</ele>
        <time>2020-09-29T17:23:52Z</time>
      </trkpt>
      <trkpt lat="40.6392050" lon="-3.5232720">
        <ele>651.0</ele>
        <time>2020-09-29T17:23:53Z</time>
      </trkpt>
      <trkpt lat="40.6392050" lon="-3.5232720">
        <ele>651.0</ele>
        <time>2020-09-29T17:23:54Z</time>
      </trkpt>
      <trkpt lat="40.6390670" lon="-3.5233700">
        <ele>651.0</ele>
        <time>2020-09-29T17:23:55Z</time>
      </trkpt>
      <trkpt lat="40.6390670" lon="-3.5233700">
        <ele>651.0</ele>
        <time>2020-09-29T17:23:56Z</time>
      </trkpt>
      <trkpt lat="40.6389270" lon="-3.5234650">
        <ele>651.0</ele>
        <time>2020-09-29T17:23:57Z</time>
      </trkpt>
      <trkpt lat="40.6389270" lon="-3.5234650">
        <ele>651.0</ele>
        <time>2020-09-29T17:23:58Z</time>
      </trkpt>
      <trkpt lat="40.6387880" lon="-3.5235700">
        <ele>651.0</ele>
        <time>2020-09-29T17:23:59Z</time>
      </trkpt>
      <trkpt lat="40.6387180" lon="-3.5236220">
        <ele>651.0</ele>
        <time>2020-09-29T17:24:00Z</time>
      </trkpt>
      <trkpt lat="40.6386500" lon="-3.5236750">
        <ele>651.0</ele>
        <time>2020-09-29T17:24:01Z</time>
      </trkpt>
      <trkpt lat="40.6386500" lon="-3.5236750">
        <ele>651.0</ele>
        <time>2020-09-29T17:24:02Z</time>
      </trkpt>
      <trkpt lat="40.6385180" lon="-3.5237800">
        <ele>651.0</ele>
        <time>2020-09-29T17:24:03Z</time>
      </trkpt>
      <trkpt lat="40.6384500" lon="-3.5238300">
        <ele>651.0</ele>
        <time>2020-09-29T17:24:04Z</time>
      </trkpt>
      <trkpt lat="40.6384500" lon="-3.5238300">
        <ele>651.0</ele>
        <time>2020-09-29T17:24:05Z</time>
      </trkpt>
      <trkpt lat="40.6383100" lon="-3.5239370">
        <ele>651.0</ele>
        <time>2020-09-29T17:24:06Z</time>
      </trkpt>
      <trkpt lat="40.6382400" lon="-3.5239880">
        <ele>651.0</ele>
        <time>2020-09-29T17:24:07Z</time>
      </trkpt>
      <trkpt lat="40.6382400" lon="-3.5239880">
        <ele>651.0</ele>
        <time>2020-09-29T17:24:08Z</time>
      </trkpt>
      <trkpt lat="40.6381020" lon="-3.5240970">
        <ele>651.0</ele>
        <time>2020-09-29T17:24:09Z</time>
      </trkpt>
      <trkpt lat="40.6381020" lon="-3.5240970">
        <ele>651.0</ele>
        <time>2020-09-29T17:24:10Z</time>
      </trkpt>
      <trkpt lat="40.6381020" lon="-3.5240970">
        <ele>651.0</ele>
        <time>2020-09-29T17:24:11Z</time>
      </trkpt>
      <trkpt lat="40.6379680" lon="-3.5242070">
        <ele>651.0</ele>
        <time>2020-09-29T17:24:12Z</time>
      </trkpt>
      <trkpt lat="40.6378380" lon="-3.5243230">
        <ele>651.0</ele>
        <time>2020-09-29T17:24:13Z</time>
      </trkpt>
      <trkpt lat="40.6378380" lon="-3.5243230">
        <ele>650.0</ele>
        <time>2020-09-29T17:24:14Z</time>
      </trkpt>
      <trkpt lat="40.6377080" lon="-3.5244430">
        <ele>650.0</ele>
        <time>2020-09-29T17:24:15Z</time>
      </trkpt>
      <trkpt lat="40.6376450" lon="-3.5245070">
        <ele>650.0</ele>
        <time>2020-09-29T17:24:16Z</time>
      </trkpt>
      <trkpt lat="40.6376450" lon="-3.5245070">
        <ele>650.0</ele>
        <time>2020-09-29T17:24:17Z</time>
      </trkpt>
      <trkpt lat="40.6375200" lon="-3.5246320">
        <ele>650.0</ele>
        <time>2020-09-29T17:24:18Z</time>
      </trkpt>
      <trkpt lat="40.6374570" lon="-3.5246950">
        <ele>650.0</ele>
        <time>2020-09-29T17:24:19Z</time>
      </trkpt>
      <trkpt lat="40.6374570" lon="-3.5246950">
        <ele>650.0</ele>
        <time>2020-09-29T17:24:20Z</time>
      </trkpt>
      <trkpt lat="40.6373300" lon="-3.5248280">
        <ele>650.0</ele>
        <time>2020-09-29T17:24:21Z</time>
      </trkpt>
      <trkpt lat="40.6372670" lon="-3.5248930">
        <ele>650.0</ele>
        <time>2020-09-29T17:24:22Z</time>
      </trkpt>
      <trkpt lat="40.6372670" lon="-3.5248930">
        <ele>650.0</ele>
        <time>2020-09-29T17:24:23Z</time>
      </trkpt>
      <trkpt lat="40.6371420" lon="-3.5250320">
        <ele>650.0</ele>
        <time>2020-09-29T17:24:24Z</time>
      </trkpt>
      <trkpt lat="40.6370800" lon="-3.5250980">
        <ele>650.0</ele>
        <time>2020-09-29T17:24:25Z</time>
      </trkpt>
      <trkpt lat="40.6370800" lon="-3.5250980">
        <ele>650.0</ele>
        <time>2020-09-29T17:24:26Z</time>
      </trkpt>
      <trkpt lat="40.6370800" lon="-3.5250980">
        <ele>650.0</ele>
        <time>2020-09-29T17:24:27Z</time>
      </trkpt>
      <trkpt lat="40.6369570" lon="-3.5252370">
        <ele>650.0</ele>
        <time>2020-09-29T17:24:28Z</time>
      </trkpt>
      <trkpt lat="40.6368370" lon="-3.5253780">
        <ele>650.0</ele>
        <time>2020-09-29T17:24:29Z</time>
      </trkpt>
      <trkpt lat="40.6368370" lon="-3.5253780">
        <ele>650.0</ele>
        <time>2020-09-29T17:24:30Z</time>
      </trkpt>
      <trkpt lat="40.6367170" lon="-3.5255220">
        <ele>650.0</ele>
        <time>2020-09-29T17:24:31Z</time>
      </trkpt>
      <trkpt lat="40.6367170" lon="-3.5255220">
        <ele>650.0</ele>
        <time>2020-09-29T17:24:32Z</time>
      </trkpt>
      <trkpt lat="40.6365950" lon="-3.5256670">
        <ele>650.0</ele>
        <time>2020-09-29T17:24:33Z</time>
      </trkpt>
      <trkpt lat="40.6365370" lon="-3.5257400">
        <ele>650.0</ele>
        <time>2020-09-29T17:24:34Z</time>
      </trkpt>
      <trkpt lat="40.6365370" lon="-3.5257400">
        <ele>650.0</ele>
        <time>2020-09-29T17:24:35Z</time>
      </trkpt>
      <trkpt lat="40.6364200" lon="-3.5258880">
        <ele>650.0</ele>
        <time>2020-09-29T17:24:36Z</time>
      </trkpt>
      <trkpt lat="40.6364200" lon="-3.5258880">
        <ele>650.0</ele>
        <time>2020-09-29T17:24:37Z</time>
      </trkpt>
      <trkpt lat="40.6363030" lon="-3.5260370">
        <ele>649.0</ele>
        <time>2020-09-29T17:24:38Z</time>
      </trkpt>
      <trkpt lat="40.6362470" lon="-3.5261120">
        <ele>649.0</ele>
        <time>2020-09-29T17:24:39Z</time>
      </trkpt>
      <trkpt lat="40.6362470" lon="-3.5261120">
        <ele>649.0</ele>
        <time>2020-09-29T17:24:40Z</time>
      </trkpt>
      <trkpt lat="40.6361350" lon="-3.5262680">
        <ele>649.0</ele>
        <time>2020-09-29T17:24:41Z</time>
      </trkpt>
      <trkpt lat="40.6361350" lon="-3.5262680">
        <ele>649.0</ele>
        <time>2020-09-29T17:24:42Z</time>
      </trkpt>
      <trkpt lat="40.6361350" lon="-3.5262680">
        <ele>649.0</ele>
        <time>2020-09-29T17:24:43Z</time>
      </trkpt>
      <trkpt lat="40.6360230" lon="-3.5264230">
        <ele>649.0</ele>
        <time>2020-09-29T17:24:44Z</time>
      </trkpt>
      <trkpt lat="40.6359130" lon="-3.5265820">
        <ele>649.0</ele>
        <time>2020-09-29T17:24:45Z</time>
      </trkpt>
      <trkpt lat="40.6359130" lon="-3.5265820">
        <ele>649.0</ele>
        <time>2020-09-29T17:24:46Z</time>
      </trkpt>
      <trkpt lat="40.6358050" lon="-3.5267400">
        <ele>649.0</ele>
        <time>2020-09-29T17:24:47Z</time>
      </trkpt>
      <trkpt lat="40.6358050" lon="-3.5267400">
        <ele>649.0</ele>
        <time>2020-09-29T17:24:48Z</time>
      </trkpt>
      <trkpt lat="40.6356980" lon="-3.5269020">
        <ele>649.0</ele>
        <time>2020-09-29T17:24:49Z</time>
      </trkpt>
      <trkpt lat="40.6356980" lon="-3.5269020">
        <ele>649.0</ele>
        <time>2020-09-29T17:24:50Z</time>
      </trkpt>
      <trkpt lat="40.6355930" lon="-3.5270630">
        <ele>649.0</ele>
        <time>2020-09-29T17:24:51Z</time>
      </trkpt>
      <trkpt lat="40.6355930" lon="-3.5270630">
        <ele>649.0</ele>
        <time>2020-09-29T17:24:52Z</time>
      </trkpt>
      <trkpt lat="40.6354930" lon="-3.5272270">
        <ele>649.0</ele>
        <time>2020-09-29T17:24:53Z</time>
      </trkpt>
      <trkpt lat="40.6354450" lon="-3.5273070">
        <ele>649.0</ele>
        <time>2020-09-29T17:24:54Z</time>
      </trkpt>
      <trkpt lat="40.6353930" lon="-3.5273880">
        <ele>649.0</ele>
        <time>2020-09-29T17:24:55Z</time>
      </trkpt>
      <trkpt lat="40.6353930" lon="-3.5273880">
        <ele>649.0</ele>
        <time>2020-09-29T17:24:56Z</time>
      </trkpt>
      <trkpt lat="40.6352930" lon="-3.5275550">
        <ele>649.0</ele>
        <time>2020-09-29T17:24:57Z</time>
      </trkpt>
      <trkpt lat="40.6352930" lon="-3.5275550">
        <ele>649.0</ele>
        <time>2020-09-29T17:24:58Z</time>
      </trkpt>
      <trkpt lat="40.6351970" lon="-3.5277180">
        <ele>649.0</ele>
        <time>2020-09-29T17:24:59Z</time>
      </trkpt>
      <trkpt lat="40.6351970" lon="-3.5277180">
        <ele>649.0</ele>
        <time>2020-09-29T17:25:00Z</time>
      </trkpt>
      <trkpt lat="40.6351000" lon="-3.5278830">
        <ele>649.0</ele>
        <time>2020-09-29T17:25:01Z</time>
      </trkpt>
      <trkpt lat="40.6351000" lon="-3.5278830">
        <ele>649.0</ele>
        <time>2020-09-29T17:25:02Z</time>
      </trkpt>
      <trkpt lat="40.6350070" lon="-3.5280550">
        <ele>648.0</ele>
        <time>2020-09-29T17:25:03Z</time>
      </trkpt>
      <trkpt lat="40.6349620" lon="-3.5281380">
        <ele>648.0</ele>
        <time>2020-09-29T17:25:04Z</time>
      </trkpt>
      <trkpt lat="40.6349620" lon="-3.5281380">
        <ele>648.0</ele>
        <time>2020-09-29T17:25:05Z</time>
      </trkpt>
      <trkpt lat="40.6348720" lon="-3.5283080">
        <ele>648.0</ele>
        <time>2020-09-29T17:25:06Z</time>
      </trkpt>
      <trkpt lat="40.6348270" lon="-3.5283970">
        <ele>648.0</ele>
        <time>2020-09-29T17:25:07Z</time>
      </trkpt>
      <trkpt lat="40.6348270" lon="-3.5283970">
        <ele>648.0</ele>
        <time>2020-09-29T17:25:08Z</time>
      </trkpt>
      <trkpt lat="40.6347380" lon="-3.5285750">
        <ele>648.0</ele>
        <time>2020-09-29T17:25:09Z</time>
      </trkpt>
      <trkpt lat="40.6347380" lon="-3.5285750">
        <ele>648.0</ele>
        <time>2020-09-29T17:25:10Z</time>
      </trkpt>
      <trkpt lat="40.6346520" lon="-3.5287530">
        <ele>648.0</ele>
        <time>2020-09-29T17:25:11Z</time>
      </trkpt>
      <trkpt lat="40.6346520" lon="-3.5287530">
        <ele>648.0</ele>
        <time>2020-09-29T17:25:12Z</time>
      </trkpt>
      <trkpt lat="40.6345650" lon="-3.5289350">
        <ele>648.0</ele>
        <time>2020-09-29T17:25:13Z</time>
      </trkpt>
      <trkpt lat="40.6345230" lon="-3.5290270">
        <ele>648.0</ele>
        <time>2020-09-29T17:25:14Z</time>
      </trkpt>
      <trkpt lat="40.6344830" lon="-3.5291170">
        <ele>648.0</ele>
        <time>2020-09-29T17:25:15Z</time>
      </trkpt>
      <trkpt lat="40.6344830" lon="-3.5291170">
        <ele>648.0</ele>
        <time>2020-09-29T17:25:16Z</time>
      </trkpt>
      <trkpt lat="40.6344030" lon="-3.5293000">
        <ele>648.0</ele>
        <time>2020-09-29T17:25:17Z</time>
      </trkpt>
      <trkpt lat="40.6344030" lon="-3.5293000">
        <ele>648.0</ele>
        <time>2020-09-29T17:25:18Z</time>
      </trkpt>
      <trkpt lat="40.6343650" lon="-3.5293920">
        <ele>648.0</ele>
        <time>2020-09-29T17:25:19Z</time>
      </trkpt>
      <trkpt lat="40.6342850" lon="-3.5295800">
        <ele>648.0</ele>
        <time>2020-09-29T17:25:20Z</time>
      </trkpt>
      <trkpt lat="40.6342470" lon="-3.5296750">
        <ele>648.0</ele>
        <time>2020-09-29T17:25:21Z</time>
      </trkpt>
      <trkpt lat="40.6342470" lon="-3.5296750">
        <ele>648.0</ele>
        <time>2020-09-29T17:25:22Z</time>
      </trkpt>
      <trkpt lat="40.6341730" lon="-3.5298650">
        <ele>648.0</ele>
        <time>2020-09-29T17:25:23Z</time>
      </trkpt>
      <trkpt lat="40.6341370" lon="-3.5299620">
        <ele>648.0</ele>
        <time>2020-09-29T17:25:24Z</time>
      </trkpt>
      <trkpt lat="40.6341020" lon="-3.5300600">
        <ele>648.0</ele>
        <time>2020-09-29T17:25:25Z</time>
      </trkpt>
      <trkpt lat="40.6341020" lon="-3.5300600">
        <ele>648.0</ele>
        <time>2020-09-29T17:25:26Z</time>
      </trkpt>
      <trkpt lat="40.6340300" lon="-3.5302580">
        <ele>648.0</ele>
        <time>2020-09-29T17:25:27Z</time>
      </trkpt>
      <trkpt lat="40.6339950" lon="-3.5303580">
        <ele>647.0</ele>
        <time>2020-09-29T17:25:28Z</time>
      </trkpt>
      <trkpt lat="40.6339950" lon="-3.5303580">
        <ele>647.0</ele>
        <time>2020-09-29T17:25:29Z</time>
      </trkpt>
      <trkpt lat="40.6339250" lon="-3.5305630">
        <ele>647.0</ele>
        <time>2020-09-29T17:25:30Z</time>
      </trkpt>
      <trkpt lat="40.6338900" lon="-3.5306670">
        <ele>647.0</ele>
        <time>2020-09-29T17:25:31Z</time>
      </trkpt>
      <trkpt lat="40.6338900" lon="-3.5306670">
        <ele>647.0</ele>
        <time>2020-09-29T17:25:32Z</time>
      </trkpt>
      <trkpt lat="40.6338200" lon="-3.5308780">
        <ele>646.0</ele>
        <time>2020-09-29T17:25:33Z</time>
      </trkpt>
      <trkpt lat="40.6338200" lon="-3.5308780">
        <ele>646.0</ele>
        <time>2020-09-29T17:25:34Z</time>
      </trkpt>
      <trkpt lat="40.6337530" lon="-3.5310930">
        <ele>646.0</ele>
        <time>2020-09-29T17:25:35Z</time>
      </trkpt>
      <trkpt lat="40.6337220" lon="-3.5312030">
        <ele>646.0</ele>
        <time>2020-09-29T17:25:36Z</time>
      </trkpt>
      <trkpt lat="40.6337220" lon="-3.5312030">
        <ele>646.0</ele>
        <time>2020-09-29T17:25:37Z</time>
      </trkpt>
      <trkpt lat="40.6336580" lon="-3.5314300">
        <ele>646.0</ele>
        <time>2020-09-29T17:25:38Z</time>
      </trkpt>
      <trkpt lat="40.6336580" lon="-3.5314300">
        <ele>644.0</ele>
        <time>2020-09-29T17:25:39Z</time>
      </trkpt>
      <trkpt lat="40.6335950" lon="-3.5316630">
        <ele>644.0</ele>
        <time>2020-09-29T17:25:40Z</time>
      </trkpt>
      <trkpt lat="40.6335950" lon="-3.5316630">
        <ele>644.0</ele>
        <time>2020-09-29T17:25:41Z</time>
      </trkpt>
      <trkpt lat="40.6335320" lon="-3.5319020">
        <ele>644.0</ele>
        <time>2020-09-29T17:25:42Z</time>
      </trkpt>
      <trkpt lat="40.6335030" lon="-3.5320230">
        <ele>643.0</ele>
        <time>2020-09-29T17:25:43Z</time>
      </trkpt>
      <trkpt lat="40.6335030" lon="-3.5320230">
        <ele>643.0</ele>
        <time>2020-09-29T17:25:44Z</time>
      </trkpt>
      <trkpt lat="40.6334530" lon="-3.5322720">
        <ele>643.0</ele>
        <time>2020-09-29T17:25:45Z</time>
      </trkpt>
      <trkpt lat="40.6334300" lon="-3.5323980">
        <ele>643.0</ele>
        <time>2020-09-29T17:25:46Z</time>
      </trkpt>
      <trkpt lat="40.6334300" lon="-3.5323980">
        <ele>642.0</ele>
        <time>2020-09-29T17:25:47Z</time>
      </trkpt>
      <trkpt lat="40.6333870" lon="-3.5326530">
        <ele>642.0</ele>
        <time>2020-09-29T17:25:48Z</time>
      </trkpt>
      <trkpt lat="40.6333680" lon="-3.5327800">
        <ele>641.0</ele>
        <time>2020-09-29T17:25:49Z</time>
      </trkpt>
      <trkpt lat="40.6333680" lon="-3.5327800">
        <ele>641.0</ele>
        <time>2020-09-29T17:25:50Z</time>
      </trkpt>
      <trkpt lat="40.6333300" lon="-3.5330350">
        <ele>641.0</ele>
        <time>2020-09-29T17:25:51Z</time>
      </trkpt>
      <trkpt lat="40.6333170" lon="-3.5331620">
        <ele>641.0</ele>
        <time>2020-09-29T17:25:52Z</time>
      </trkpt>
      <trkpt lat="40.6333170" lon="-3.5331620">
        <ele>641.0</ele>
        <time>2020-09-29T17:25:53Z</time>
      </trkpt>
      <trkpt lat="40.6332920" lon="-3.5334150">
        <ele>641.0</ele>
        <time>2020-09-29T17:25:54Z</time>
      </trkpt>
      <trkpt lat="40.6332830" lon="-3.5335400">
        <ele>640.0</ele>
        <time>2020-09-29T17:25:55Z</time>
      </trkpt>
      <trkpt lat="40.6332830" lon="-3.5335400">
        <ele>640.0</ele>
        <time>2020-09-29T17:25:56Z</time>
      </trkpt>
      <trkpt lat="40.6332830" lon="-3.5335400">
        <ele>640.0</ele>
        <time>2020-09-29T17:25:57Z</time>
      </trkpt>
      <trkpt lat="40.6332720" lon="-3.5337900">
        <ele>640.0</ele>
        <time>2020-09-29T17:25:58Z</time>
      </trkpt>
      <trkpt lat="40.6332650" lon="-3.5340430">
        <ele>640.0</ele>
        <time>2020-09-29T17:25:59Z</time>
      </trkpt>
      <trkpt lat="40.6332650" lon="-3.5340430">
        <ele>640.0</ele>
        <time>2020-09-29T17:26:00Z</time>
      </trkpt>
      <trkpt lat="40.6332600" lon="-3.5342880">
        <ele>640.0</ele>
        <time>2020-09-29T17:26:01Z</time>
      </trkpt>
      <trkpt lat="40.6332600" lon="-3.5342880">
        <ele>639.0</ele>
        <time>2020-09-29T17:26:02Z</time>
      </trkpt>
      <trkpt lat="40.6332620" lon="-3.5345280">
        <ele>639.0</ele>
        <time>2020-09-29T17:26:03Z</time>
      </trkpt>
      <trkpt lat="40.6332620" lon="-3.5345280">
        <ele>639.0</ele>
        <time>2020-09-29T17:26:04Z</time>
      </trkpt>
      <trkpt lat="40.6332650" lon="-3.5347620">
        <ele>639.0</ele>
        <time>2020-09-29T17:26:05Z</time>
      </trkpt>
      <trkpt lat="40.6332650" lon="-3.5347620">
        <ele>639.0</ele>
        <time>2020-09-29T17:26:06Z</time>
      </trkpt>
      <trkpt lat="40.6332730" lon="-3.5349950">
        <ele>639.0</ele>
        <time>2020-09-29T17:26:07Z</time>
      </trkpt>
      <trkpt lat="40.6332730" lon="-3.5349950">
        <ele>639.0</ele>
        <time>2020-09-29T17:26:08Z</time>
      </trkpt>
      <trkpt lat="40.6332850" lon="-3.5352230">
        <ele>639.0</ele>
        <time>2020-09-29T17:26:09Z</time>
      </trkpt>
      <trkpt lat="40.6332850" lon="-3.5352230">
        <ele>639.0</ele>
        <time>2020-09-29T17:26:10Z</time>
      </trkpt>
      <trkpt lat="40.6332900" lon="-3.5354500">
        <ele>639.0</ele>
        <time>2020-09-29T17:26:11Z</time>
      </trkpt>
      <trkpt lat="40.6332950" lon="-3.5355630">
        <ele>639.0</ele>
        <time>2020-09-29T17:26:12Z</time>
      </trkpt>
      <trkpt lat="40.6332970" lon="-3.5356770">
        <ele>639.0</ele>
        <time>2020-09-29T17:26:13Z</time>
      </trkpt>
      <trkpt lat="40.6332970" lon="-3.5356770">
        <ele>639.0</ele>
        <time>2020-09-29T17:26:14Z</time>
      </trkpt>
      <trkpt lat="40.6332970" lon="-3.5356770">
        <ele>639.0</ele>
        <time>2020-09-29T17:26:15Z</time>
      </trkpt>
      <trkpt lat="40.6333050" lon="-3.5358980">
        <ele>639.0</ele>
        <time>2020-09-29T17:26:16Z</time>
      </trkpt>
      <trkpt lat="40.6333120" lon="-3.5361300">
        <ele>639.0</ele>
        <time>2020-09-29T17:26:17Z</time>
      </trkpt>
      <trkpt lat="40.6333120" lon="-3.5361300">
        <ele>639.0</ele>
        <time>2020-09-29T17:26:18Z</time>
      </trkpt>
      <trkpt lat="40.6333170" lon="-3.5363670">
        <ele>639.0</ele>
        <time>2020-09-29T17:26:19Z</time>
      </trkpt>
      <trkpt lat="40.6333170" lon="-3.5363670">
        <ele>639.0</ele>
        <time>2020-09-29T17:26:20Z</time>
      </trkpt>
      <trkpt lat="40.6333200" lon="-3.5366070">
        <ele>639.0</ele>
        <time>2020-09-29T17:26:21Z</time>
      </trkpt>
      <trkpt lat="40.6333200" lon="-3.5367230">
        <ele>639.0</ele>
        <time>2020-09-29T17:26:22Z</time>
      </trkpt>
      <trkpt lat="40.6333200" lon="-3.5367230">
        <ele>639.0</ele>
        <time>2020-09-29T17:26:23Z</time>
      </trkpt>
      <trkpt lat="40.6333180" lon="-3.5369580">
        <ele>639.0</ele>
        <time>2020-09-29T17:26:24Z</time>
      </trkpt>
      <trkpt lat="40.6333170" lon="-3.5370750">
        <ele>639.0</ele>
        <time>2020-09-29T17:26:25Z</time>
      </trkpt>
      <trkpt lat="40.6333170" lon="-3.5370750">
        <ele>639.0</ele>
        <time>2020-09-29T17:26:26Z</time>
      </trkpt>
      <trkpt lat="40.6333100" lon="-3.5373070">
        <ele>639.0</ele>
        <time>2020-09-29T17:26:27Z</time>
      </trkpt>
      <trkpt lat="40.6333100" lon="-3.5373070">
        <ele>639.0</ele>
        <time>2020-09-29T17:26:28Z</time>
      </trkpt>
      <trkpt lat="40.6333000" lon="-3.5375380">
        <ele>639.0</ele>
        <time>2020-09-29T17:26:29Z</time>
      </trkpt>
      <trkpt lat="40.6333000" lon="-3.5375380">
        <ele>639.0</ele>
        <time>2020-09-29T17:26:30Z</time>
      </trkpt>
      <trkpt lat="40.6332850" lon="-3.5377680">
        <ele>639.0</ele>
        <time>2020-09-29T17:26:31Z</time>
      </trkpt>
      <trkpt lat="40.6332850" lon="-3.5377680">
        <ele>639.0</ele>
        <time>2020-09-29T17:26:32Z</time>
      </trkpt>
      <trkpt lat="40.6332700" lon="-3.5379970">
        <ele>639.0</ele>
        <time>2020-09-29T17:26:33Z</time>
      </trkpt>
      <trkpt lat="40.6332700" lon="-3.5379970">
        <ele>639.0</ele>
        <time>2020-09-29T17:26:34Z</time>
      </trkpt>
      <trkpt lat="40.6332520" lon="-3.5382280">
        <ele>639.0</ele>
        <time>2020-09-29T17:26:35Z</time>
      </trkpt>
      <trkpt lat="40.6332520" lon="-3.5382280">
        <ele>638.0</ele>
        <time>2020-09-29T17:26:36Z</time>
      </trkpt>
      <trkpt lat="40.6332280" lon="-3.5384570">
        <ele>638.0</ele>
        <time>2020-09-29T17:26:37Z</time>
      </trkpt>
      <trkpt lat="40.6332280" lon="-3.5384570">
        <ele>638.0</ele>
        <time>2020-09-29T17:26:38Z</time>
      </trkpt>
      <trkpt lat="40.6332030" lon="-3.5386830">
        <ele>638.0</ele>
        <time>2020-09-29T17:26:39Z</time>
      </trkpt>
      <trkpt lat="40.6331900" lon="-3.5387950">
        <ele>638.0</ele>
        <time>2020-09-29T17:26:40Z</time>
      </trkpt>
      <trkpt lat="40.6331900" lon="-3.5387950">
        <ele>638.0</ele>
        <time>2020-09-29T17:26:41Z</time>
      </trkpt>
      <trkpt lat="40.6331620" lon="-3.5390230">
        <ele>638.0</ele>
        <time>2020-09-29T17:26:42Z</time>
      </trkpt>
      <trkpt lat="40.6331450" lon="-3.5391370">
        <ele>638.0</ele>
        <time>2020-09-29T17:26:43Z</time>
      </trkpt>
      <trkpt lat="40.6331450" lon="-3.5391370">
        <ele>638.0</ele>
        <time>2020-09-29T17:26:44Z</time>
      </trkpt>
      <trkpt lat="40.6331100" lon="-3.5393650">
        <ele>638.0</ele>
        <time>2020-09-29T17:26:45Z</time>
      </trkpt>
      <trkpt lat="40.6330950" lon="-3.5394780">
        <ele>638.0</ele>
        <time>2020-09-29T17:26:46Z</time>
      </trkpt>
      <trkpt lat="40.6330950" lon="-3.5394780">
        <ele>638.0</ele>
        <time>2020-09-29T17:26:47Z</time>
      </trkpt>
      <trkpt lat="40.6330570" lon="-3.5397050">
        <ele>638.0</ele>
        <time>2020-09-29T17:26:48Z</time>
      </trkpt>
      <trkpt lat="40.6330570" lon="-3.5397050">
        <ele>638.0</ele>
        <time>2020-09-29T17:26:49Z</time>
      </trkpt>
      <trkpt lat="40.6330150" lon="-3.5399300">
        <ele>638.0</ele>
        <time>2020-09-29T17:26:50Z</time>
      </trkpt>
      <trkpt lat="40.6330150" lon="-3.5399300">
        <ele>638.0</ele>
        <time>2020-09-29T17:26:51Z</time>
      </trkpt>
      <trkpt lat="40.6329680" lon="-3.5401570">
        <ele>638.0</ele>
        <time>2020-09-29T17:26:52Z</time>
      </trkpt>
      <trkpt lat="40.6329450" lon="-3.5402700">
        <ele>638.0</ele>
        <time>2020-09-29T17:26:53Z</time>
      </trkpt>
      <trkpt lat="40.6329450" lon="-3.5402700">
        <ele>638.0</ele>
        <time>2020-09-29T17:26:54Z</time>
      </trkpt>
      <trkpt lat="40.6328950" lon="-3.5404930">
        <ele>638.0</ele>
        <time>2020-09-29T17:26:55Z</time>
      </trkpt>
      <trkpt lat="40.6328680" lon="-3.5406050">
        <ele>637.0</ele>
        <time>2020-09-29T17:26:56Z</time>
      </trkpt>
      <trkpt lat="40.6328680" lon="-3.5406050">
        <ele>637.0</ele>
        <time>2020-09-29T17:26:57Z</time>
      </trkpt>
      <trkpt lat="40.6328130" lon="-3.5408270">
        <ele>637.0</ele>
        <time>2020-09-29T17:26:58Z</time>
      </trkpt>
      <trkpt lat="40.6328130" lon="-3.5408270">
        <ele>637.0</ele>
        <time>2020-09-29T17:26:59Z</time>
      </trkpt>
      <trkpt lat="40.6327550" lon="-3.5410480">
        <ele>637.0</ele>
        <time>2020-09-29T17:27:00Z</time>
      </trkpt>
      <trkpt lat="40.6327550" lon="-3.5410480">
        <ele>637.0</ele>
        <time>2020-09-29T17:27:01Z</time>
      </trkpt>
      <trkpt lat="40.6326950" lon="-3.5412680">
        <ele>637.0</ele>
        <time>2020-09-29T17:27:02Z</time>
      </trkpt>
      <trkpt lat="40.6326950" lon="-3.5412680">
        <ele>637.0</ele>
        <time>2020-09-29T17:27:03Z</time>
      </trkpt>
      <trkpt lat="40.6326320" lon="-3.5414870">
        <ele>637.0</ele>
        <time>2020-09-29T17:27:04Z</time>
      </trkpt>
      <trkpt lat="40.6325980" lon="-3.5415970">
        <ele>637.0</ele>
        <time>2020-09-29T17:27:05Z</time>
      </trkpt>
      <trkpt lat="40.6325980" lon="-3.5415970">
        <ele>637.0</ele>
        <time>2020-09-29T17:27:06Z</time>
      </trkpt>
      <trkpt lat="40.6325280" lon="-3.5418120">
        <ele>637.0</ele>
        <time>2020-09-29T17:27:07Z</time>
      </trkpt>
      <trkpt lat="40.6325280" lon="-3.5418120">
        <ele>636.0</ele>
        <time>2020-09-29T17:27:08Z</time>
      </trkpt>
      <trkpt lat="40.6325280" lon="-3.5418120">
        <ele>636.0</ele>
        <time>2020-09-29T17:27:09Z</time>
      </trkpt>
      <trkpt lat="40.6324550" lon="-3.5420270">
        <ele>636.0</ele>
        <time>2020-09-29T17:27:10Z</time>
      </trkpt>
      <trkpt lat="40.6323830" lon="-3.5422420">
        <ele>636.0</ele>
        <time>2020-09-29T17:27:11Z</time>
      </trkpt>
      <trkpt lat="40.6323830" lon="-3.5422420">
        <ele>636.0</ele>
        <time>2020-09-29T17:27:12Z</time>
      </trkpt>
      <trkpt lat="40.6323070" lon="-3.5424530">
        <ele>636.0</ele>
        <time>2020-09-29T17:27:13Z</time>
      </trkpt>
      <trkpt lat="40.6323070" lon="-3.5424530">
        <ele>636.0</ele>
        <time>2020-09-29T17:27:14Z</time>
      </trkpt>
      <trkpt lat="40.6322270" lon="-3.5426600">
        <ele>636.0</ele>
        <time>2020-09-29T17:27:15Z</time>
      </trkpt>
      <trkpt lat="40.6322270" lon="-3.5426600">
        <ele>636.0</ele>
        <time>2020-09-29T17:27:16Z</time>
      </trkpt>
      <trkpt lat="40.6321420" lon="-3.5428630">
        <ele>636.0</ele>
        <time>2020-09-29T17:27:17Z</time>
      </trkpt>
      <trkpt lat="40.6321420" lon="-3.5428630">
        <ele>636.0</ele>
        <time>2020-09-29T17:27:18Z</time>
      </trkpt>
      <trkpt lat="40.6320570" lon="-3.5430670">
        <ele>636.0</ele>
        <time>2020-09-29T17:27:19Z</time>
      </trkpt>
      <trkpt lat="40.6320570" lon="-3.5430670">
        <ele>635.0</ele>
        <time>2020-09-29T17:27:20Z</time>
      </trkpt>
      <trkpt lat="40.6319720" lon="-3.5432630">
        <ele>635.0</ele>
        <time>2020-09-29T17:27:21Z</time>
      </trkpt>
      <trkpt lat="40.6319720" lon="-3.5432630">
        <ele>635.0</ele>
        <time>2020-09-29T17:27:22Z</time>
      </trkpt>
      <trkpt lat="40.6318850" lon="-3.5434600">
        <ele>635.0</ele>
        <time>2020-09-29T17:27:23Z</time>
      </trkpt>
      <trkpt lat="40.6318850" lon="-3.5434600">
        <ele>635.0</ele>
        <time>2020-09-29T17:27:24Z</time>
      </trkpt>
      <trkpt lat="40.6317920" lon="-3.5436550">
        <ele>635.0</ele>
        <time>2020-09-29T17:27:25Z</time>
      </trkpt>
      <trkpt lat="40.6317920" lon="-3.5436550">
        <ele>635.0</ele>
        <time>2020-09-29T17:27:26Z</time>
      </trkpt>
      <trkpt lat="40.6317000" lon="-3.5438450">
        <ele>635.0</ele>
        <time>2020-09-29T17:27:27Z</time>
      </trkpt>
      <trkpt lat="40.6317000" lon="-3.5438450">
        <ele>635.0</ele>
        <time>2020-09-29T17:27:28Z</time>
      </trkpt>
      <trkpt lat="40.6317000" lon="-3.5438450">
        <ele>635.0</ele>
        <time>2020-09-29T17:27:29Z</time>
      </trkpt>
      <trkpt lat="40.6316020" lon="-3.5440280">
        <ele>635.0</ele>
        <time>2020-09-29T17:27:30Z</time>
      </trkpt>
      <trkpt lat="40.6315050" lon="-3.5442080">
        <ele>635.0</ele>
        <time>2020-09-29T17:27:31Z</time>
      </trkpt>
      <trkpt lat="40.6315050" lon="-3.5442080">
        <ele>635.0</ele>
        <time>2020-09-29T17:27:32Z</time>
      </trkpt>
      <trkpt lat="40.6314080" lon="-3.5443870">
        <ele>635.0</ele>
        <time>2020-09-29T17:27:33Z</time>
      </trkpt>
      <trkpt lat="40.6313620" lon="-3.5444750">
        <ele>635.0</ele>
        <time>2020-09-29T17:27:34Z</time>
      </trkpt>
      <trkpt lat="40.6313620" lon="-3.5444750">
        <ele>635.0</ele>
        <time>2020-09-29T17:27:35Z</time>
      </trkpt>
      <trkpt lat="40.6312650" lon="-3.5446450">
        <ele>635.0</ele>
        <time>2020-09-29T17:27:36Z</time>
      </trkpt>
      <trkpt lat="40.6312130" lon="-3.5447280">
        <ele>635.0</ele>
        <time>2020-09-29T17:27:37Z</time>
      </trkpt>
      <trkpt lat="40.6312130" lon="-3.5447280">
        <ele>635.0</ele>
        <time>2020-09-29T17:27:38Z</time>
      </trkpt>
      <trkpt lat="40.6311150" lon="-3.5448930">
        <ele>635.0</ele>
        <time>2020-09-29T17:27:39Z</time>
      </trkpt>
      <trkpt lat="40.6311150" lon="-3.5448930">
        <ele>635.0</ele>
        <time>2020-09-29T17:27:40Z</time>
      </trkpt>
      <trkpt lat="40.6311150" lon="-3.5448930">
        <ele>635.0</ele>
        <time>2020-09-29T17:27:41Z</time>
      </trkpt>
      <trkpt lat="40.6310180" lon="-3.5450520">
        <ele>635.0</ele>
        <time>2020-09-29T17:27:42Z</time>
      </trkpt>
      <trkpt lat="40.6309200" lon="-3.5452070">
        <ele>635.0</ele>
        <time>2020-09-29T17:27:43Z</time>
      </trkpt>
      <trkpt lat="40.6309200" lon="-3.5452070">
        <ele>635.0</ele>
        <time>2020-09-29T17:27:44Z</time>
      </trkpt>
      <trkpt lat="40.6308180" lon="-3.5453630">
        <ele>635.0</ele>
        <time>2020-09-29T17:27:45Z</time>
      </trkpt>
      <trkpt lat="40.6308180" lon="-3.5453630">
        <ele>635.0</ele>
        <time>2020-09-29T17:27:46Z</time>
      </trkpt>
      <trkpt lat="40.6307130" lon="-3.5455180">
        <ele>635.0</ele>
        <time>2020-09-29T17:27:47Z</time>
      </trkpt>
      <trkpt lat="40.6306600" lon="-3.5455970">
        <ele>635.0</ele>
        <time>2020-09-29T17:27:48Z</time>
      </trkpt>
      <trkpt lat="40.6306600" lon="-3.5455970">
        <ele>635.0</ele>
        <time>2020-09-29T17:27:49Z</time>
      </trkpt>
      <trkpt lat="40.6305520" lon="-3.5457480">
        <ele>635.0</ele>
        <time>2020-09-29T17:27:50Z</time>
      </trkpt>
      <trkpt lat="40.6305520" lon="-3.5457480">
        <ele>635.0</ele>
        <time>2020-09-29T17:27:51Z</time>
      </trkpt>
      <trkpt lat="40.6304450" lon="-3.5458980">
        <ele>635.0</ele>
        <time>2020-09-29T17:27:52Z</time>
      </trkpt>
      <trkpt lat="40.6304450" lon="-3.5458980">
        <ele>635.0</ele>
        <time>2020-09-29T17:27:53Z</time>
      </trkpt>
      <trkpt lat="40.6303370" lon="-3.5460470">
        <ele>635.0</ele>
        <time>2020-09-29T17:27:54Z</time>
      </trkpt>
      <trkpt lat="40.6302820" lon="-3.5461150">
        <ele>635.0</ele>
        <time>2020-09-29T17:27:55Z</time>
      </trkpt>
      <trkpt lat="40.6302820" lon="-3.5461150">
        <ele>635.0</ele>
        <time>2020-09-29T17:27:56Z</time>
      </trkpt>
      <trkpt lat="40.6301720" lon="-3.5462550">
        <ele>635.0</ele>
        <time>2020-09-29T17:27:57Z</time>
      </trkpt>
      <trkpt lat="40.6301720" lon="-3.5462550">
        <ele>635.0</ele>
        <time>2020-09-29T17:27:58Z</time>
      </trkpt>
      <trkpt lat="40.6300580" lon="-3.5463950">
        <ele>635.0</ele>
        <time>2020-09-29T17:27:59Z</time>
      </trkpt>
      <trkpt lat="40.6300580" lon="-3.5463950">
        <ele>635.0</ele>
        <time>2020-09-29T17:28:00Z</time>
      </trkpt>
      <trkpt lat="40.6300580" lon="-3.5463950">
        <ele>635.0</ele>
        <time>2020-09-29T17:28:01Z</time>
      </trkpt>
      <trkpt lat="40.6299430" lon="-3.5465320">
        <ele>634.0</ele>
        <time>2020-09-29T17:28:02Z</time>
      </trkpt>
      <trkpt lat="40.6298270" lon="-3.5466650">
        <ele>634.0</ele>
        <time>2020-09-29T17:28:03Z</time>
      </trkpt>
      <trkpt lat="40.6298270" lon="-3.5466650">
        <ele>634.0</ele>
        <time>2020-09-29T17:28:04Z</time>
      </trkpt>
      <trkpt lat="40.6297120" lon="-3.5467970">
        <ele>634.0</ele>
        <time>2020-09-29T17:28:05Z</time>
      </trkpt>
      <trkpt lat="40.6296520" lon="-3.5468620">
        <ele>634.0</ele>
        <time>2020-09-29T17:28:06Z</time>
      </trkpt>
      <trkpt lat="40.6296520" lon="-3.5468620">
        <ele>634.0</ele>
        <time>2020-09-29T17:28:07Z</time>
      </trkpt>
      <trkpt lat="40.6295330" lon="-3.5469870">
        <ele>634.0</ele>
        <time>2020-09-29T17:28:08Z</time>
      </trkpt>
      <trkpt lat="40.6295330" lon="-3.5469870">
        <ele>634.0</ele>
        <time>2020-09-29T17:28:09Z</time>
      </trkpt>
      <trkpt lat="40.6294180" lon="-3.5471120">
        <ele>634.0</ele>
        <time>2020-09-29T17:28:10Z</time>
      </trkpt>
      <trkpt lat="40.6293580" lon="-3.5471720">
        <ele>634.0</ele>
        <time>2020-09-29T17:28:11Z</time>
      </trkpt>
      <trkpt lat="40.6293580" lon="-3.5471720">
        <ele>634.0</ele>
        <time>2020-09-29T17:28:12Z</time>
      </trkpt>
      <trkpt lat="40.6292370" lon="-3.5472920">
        <ele>634.0</ele>
        <time>2020-09-29T17:28:13Z</time>
      </trkpt>
      <trkpt lat="40.6292370" lon="-3.5472920">
        <ele>634.0</ele>
        <time>2020-09-29T17:28:14Z</time>
      </trkpt>
      <trkpt lat="40.6291100" lon="-3.5474100">
        <ele>634.0</ele>
        <time>2020-09-29T17:28:15Z</time>
      </trkpt>
      <trkpt lat="40.6291100" lon="-3.5474100">
        <ele>634.0</ele>
        <time>2020-09-29T17:28:16Z</time>
      </trkpt>
      <trkpt lat="40.6289830" lon="-3.5475300">
        <ele>634.0</ele>
        <time>2020-09-29T17:28:17Z</time>
      </trkpt>
      <trkpt lat="40.6289150" lon="-3.5475900">
        <ele>634.0</ele>
        <time>2020-09-29T17:28:18Z</time>
      </trkpt>
      <trkpt lat="40.6288480" lon="-3.5476500">
        <ele>634.0</ele>
        <time>2020-09-29T17:28:19Z</time>
      </trkpt>
      <trkpt lat="40.6288480" lon="-3.5476500">
        <ele>634.0</ele>
        <time>2020-09-29T17:28:20Z</time>
      </trkpt>
      <trkpt lat="40.6287130" lon="-3.5477620">
        <ele>634.0</ele>
        <time>2020-09-29T17:28:21Z</time>
      </trkpt>
      <trkpt lat="40.6287130" lon="-3.5477620">
        <ele>634.0</ele>
        <time>2020-09-29T17:28:22Z</time>
      </trkpt>
      <trkpt lat="40.6285750" lon="-3.5478770">
        <ele>633.0</ele>
        <time>2020-09-29T17:28:23Z</time>
      </trkpt>
      <trkpt lat="40.6285750" lon="-3.5478770">
        <ele>633.0</ele>
        <time>2020-09-29T17:28:24Z</time>
      </trkpt>
      <trkpt lat="40.6284380" lon="-3.5479870">
        <ele>633.0</ele>
        <time>2020-09-29T17:28:25Z</time>
      </trkpt>
      <trkpt lat="40.6283700" lon="-3.5480400">
        <ele>633.0</ele>
        <time>2020-09-29T17:28:26Z</time>
      </trkpt>
      <trkpt lat="40.6283700" lon="-3.5480400">
        <ele>633.0</ele>
        <time>2020-09-29T17:28:27Z</time>
      </trkpt>
      <trkpt lat="40.6282300" lon="-3.5481470">
        <ele>633.0</ele>
        <time>2020-09-29T17:28:28Z</time>
      </trkpt>
      <trkpt lat="40.6282300" lon="-3.5481470">
        <ele>633.0</ele>
        <time>2020-09-29T17:28:29Z</time>
      </trkpt>
      <trkpt lat="40.6280900" lon="-3.5482470">
        <ele>633.0</ele>
        <time>2020-09-29T17:28:30Z</time>
      </trkpt>
      <trkpt lat="40.6280200" lon="-3.5482980">
        <ele>633.0</ele>
        <time>2020-09-29T17:28:31Z</time>
      </trkpt>
      <trkpt lat="40.6280200" lon="-3.5482980">
        <ele>633.0</ele>
        <time>2020-09-29T17:28:32Z</time>
      </trkpt>
      <trkpt lat="40.6278780" lon="-3.5483980">
        <ele>633.0</ele>
        <time>2020-09-29T17:28:33Z</time>
      </trkpt>
      <trkpt lat="40.6278780" lon="-3.5483980">
        <ele>633.0</ele>
        <time>2020-09-29T17:28:34Z</time>
      </trkpt>
      <trkpt lat="40.6277350" lon="-3.5484970">
        <ele>633.0</ele>
        <time>2020-09-29T17:28:35Z</time>
      </trkpt>
      <trkpt lat="40.6276650" lon="-3.5485420">
        <ele>633.0</ele>
        <time>2020-09-29T17:28:36Z</time>
      </trkpt>
      <trkpt lat="40.6275950" lon="-3.5485880">
        <ele>633.0</ele>
        <time>2020-09-29T17:28:37Z</time>
      </trkpt>
      <trkpt lat="40.6275950" lon="-3.5485880">
        <ele>633.0</ele>
        <time>2020-09-29T17:28:38Z</time>
      </trkpt>
      <trkpt lat="40.6274520" lon="-3.5486750">
        <ele>633.0</ele>
        <time>2020-09-29T17:28:39Z</time>
      </trkpt>
      <trkpt lat="40.6274520" lon="-3.5486750">
        <ele>633.0</ele>
        <time>2020-09-29T17:28:40Z</time>
      </trkpt>
      <trkpt lat="40.6273070" lon="-3.5487580">
        <ele>633.0</ele>
        <time>2020-09-29T17:28:41Z</time>
      </trkpt>
      <trkpt lat="40.6273070" lon="-3.5487580">
        <ele>633.0</ele>
        <time>2020-09-29T17:28:42Z</time>
      </trkpt>
      <trkpt lat="40.6271630" lon="-3.5488400">
        <ele>633.0</ele>
        <time>2020-09-29T17:28:43Z</time>
      </trkpt>
      <trkpt lat="40.6271630" lon="-3.5488400">
        <ele>633.0</ele>
        <time>2020-09-29T17:28:44Z</time>
      </trkpt>
      <trkpt lat="40.6270200" lon="-3.5489200">
        <ele>633.0</ele>
        <time>2020-09-29T17:28:45Z</time>
      </trkpt>
      <trkpt lat="40.6270200" lon="-3.5489200">
        <ele>632.0</ele>
        <time>2020-09-29T17:28:46Z</time>
      </trkpt>
      <trkpt lat="40.6268770" lon="-3.5489970">
        <ele>632.0</ele>
        <time>2020-09-29T17:28:47Z</time>
      </trkpt>
      <trkpt lat="40.6268050" lon="-3.5490320">
        <ele>632.0</ele>
        <time>2020-09-29T17:28:48Z</time>
      </trkpt>
      <trkpt lat="40.6267320" lon="-3.5490680">
        <ele>632.0</ele>
        <time>2020-09-29T17:28:49Z</time>
      </trkpt>
      <trkpt lat="40.6267320" lon="-3.5490680">
        <ele>632.0</ele>
        <time>2020-09-29T17:28:50Z</time>
      </trkpt>
      <trkpt lat="40.6265850" lon="-3.5491370">
        <ele>632.0</ele>
        <time>2020-09-29T17:28:51Z</time>
      </trkpt>
      <trkpt lat="40.6265120" lon="-3.5491700">
        <ele>632.0</ele>
        <time>2020-09-29T17:28:52Z</time>
      </trkpt>
      <trkpt lat="40.6265120" lon="-3.5491700">
        <ele>632.0</ele>
        <time>2020-09-29T17:28:53Z</time>
      </trkpt>
      <trkpt lat="40.6263630" lon="-3.5492370">
        <ele>632.0</ele>
        <time>2020-09-29T17:28:54Z</time>
      </trkpt>
      <trkpt lat="40.6262870" lon="-3.5492700">
        <ele>632.0</ele>
        <time>2020-09-29T17:28:55Z</time>
      </trkpt>
      <trkpt lat="40.6262120" lon="-3.5493000">
        <ele>632.0</ele>
        <time>2020-09-29T17:28:56Z</time>
      </trkpt>
      <trkpt lat="40.6262120" lon="-3.5493000">
        <ele>632.0</ele>
        <time>2020-09-29T17:28:57Z</time>
      </trkpt>
      <trkpt lat="40.6260600" lon="-3.5493620">
        <ele>632.0</ele>
        <time>2020-09-29T17:28:58Z</time>
      </trkpt>
      <trkpt lat="40.6260600" lon="-3.5493620">
        <ele>632.0</ele>
        <time>2020-09-29T17:28:59Z</time>
      </trkpt>
      <trkpt lat="40.6259070" lon="-3.5494170">
        <ele>632.0</ele>
        <time>2020-09-29T17:29:00Z</time>
      </trkpt>
      <trkpt lat="40.6259070" lon="-3.5494170">
        <ele>632.0</ele>
        <time>2020-09-29T17:29:01Z</time>
      </trkpt>
      <trkpt lat="40.6257500" lon="-3.5494650">
        <ele>632.0</ele>
        <time>2020-09-29T17:29:02Z</time>
      </trkpt>
      <trkpt lat="40.6256720" lon="-3.5494880">
        <ele>632.0</ele>
        <time>2020-09-29T17:29:03Z</time>
      </trkpt>
      <trkpt lat="40.6256720" lon="-3.5494880">
        <ele>632.0</ele>
        <time>2020-09-29T17:29:04Z</time>
      </trkpt>
      <trkpt lat="40.6255150" lon="-3.5495330">
        <ele>632.0</ele>
        <time>2020-09-29T17:29:05Z</time>
      </trkpt>
      <trkpt lat="40.6254370" lon="-3.5495570">
        <ele>632.0</ele>
        <time>2020-09-29T17:29:06Z</time>
      </trkpt>
      <trkpt lat="40.6253600" lon="-3.5495780">
        <ele>632.0</ele>
        <time>2020-09-29T17:29:07Z</time>
      </trkpt>
      <trkpt lat="40.6253600" lon="-3.5495780">
        <ele>632.0</ele>
        <time>2020-09-29T17:29:08Z</time>
      </trkpt>
      <trkpt lat="40.6252070" lon="-3.5496200">
        <ele>632.0</ele>
        <time>2020-09-29T17:29:09Z</time>
      </trkpt>
      <trkpt lat="40.6252070" lon="-3.5496200">
        <ele>632.0</ele>
        <time>2020-09-29T17:29:10Z</time>
      </trkpt>
      <trkpt lat="40.6250530" lon="-3.5496530">
        <ele>632.0</ele>
        <time>2020-09-29T17:29:11Z</time>
      </trkpt>
      <trkpt lat="40.6250530" lon="-3.5496530">
        <ele>632.0</ele>
        <time>2020-09-29T17:29:12Z</time>
      </trkpt>
      <trkpt lat="40.6248980" lon="-3.5496870">
        <ele>632.0</ele>
        <time>2020-09-29T17:29:13Z</time>
      </trkpt>
      <trkpt lat="40.6248980" lon="-3.5496870">
        <ele>632.0</ele>
        <time>2020-09-29T17:29:14Z</time>
      </trkpt>
      <trkpt lat="40.6247470" lon="-3.5497200">
        <ele>632.0</ele>
        <time>2020-09-29T17:29:15Z</time>
      </trkpt>
      <trkpt lat="40.6247470" lon="-3.5497200">
        <ele>632.0</ele>
        <time>2020-09-29T17:29:16Z</time>
      </trkpt>
      <trkpt lat="40.6247470" lon="-3.5497200">
        <ele>632.0</ele>
        <time>2020-09-29T17:29:17Z</time>
      </trkpt>
      <trkpt lat="40.6245920" lon="-3.5497520">
        <ele>632.0</ele>
        <time>2020-09-29T17:29:18Z</time>
      </trkpt>
      <trkpt lat="40.6244350" lon="-3.5497750">
        <ele>632.0</ele>
        <time>2020-09-29T17:29:19Z</time>
      </trkpt>
      <trkpt lat="40.6244350" lon="-3.5497750">
        <ele>632.0</ele>
        <time>2020-09-29T17:29:20Z</time>
      </trkpt>
      <trkpt lat="40.6242820" lon="-3.5497970">
        <ele>632.0</ele>
        <time>2020-09-29T17:29:21Z</time>
      </trkpt>
      <trkpt lat="40.6242820" lon="-3.5497970">
        <ele>632.0</ele>
        <time>2020-09-29T17:29:22Z</time>
      </trkpt>
      <trkpt lat="40.6241280" lon="-3.5498130">
        <ele>632.0</ele>
        <time>2020-09-29T17:29:23Z</time>
      </trkpt>
      <trkpt lat="40.6240520" lon="-3.5498200">
        <ele>632.0</ele>
        <time>2020-09-29T17:29:24Z</time>
      </trkpt>
      <trkpt lat="40.6240520" lon="-3.5498200">
        <ele>632.0</ele>
        <time>2020-09-29T17:29:25Z</time>
      </trkpt>
      <trkpt lat="40.6238930" lon="-3.5498320">
        <ele>632.0</ele>
        <time>2020-09-29T17:29:26Z</time>
      </trkpt>
      <trkpt lat="40.6238170" lon="-3.5498370">
        <ele>632.0</ele>
        <time>2020-09-29T17:29:27Z</time>
      </trkpt>
      <trkpt lat="40.6238170" lon="-3.5498370">
        <ele>632.0</ele>
        <time>2020-09-29T17:29:28Z</time>
      </trkpt>
      <trkpt lat="40.6236620" lon="-3.5498430">
        <ele>632.0</ele>
        <time>2020-09-29T17:29:29Z</time>
      </trkpt>
      <trkpt lat="40.6236620" lon="-3.5498430">
        <ele>632.0</ele>
        <time>2020-09-29T17:29:30Z</time>
      </trkpt>
      <trkpt lat="40.6235070" lon="-3.5498500">
        <ele>632.0</ele>
        <time>2020-09-29T17:29:31Z</time>
      </trkpt>
      <trkpt lat="40.6235070" lon="-3.5498500">
        <ele>632.0</ele>
        <time>2020-09-29T17:29:32Z</time>
      </trkpt>
      <trkpt lat="40.6233470" lon="-3.5498570">
        <ele>632.0</ele>
        <time>2020-09-29T17:29:33Z</time>
      </trkpt>
      <trkpt lat="40.6233470" lon="-3.5498570">
        <ele>632.0</ele>
        <time>2020-09-29T17:29:34Z</time>
      </trkpt>
      <trkpt lat="40.6231870" lon="-3.5498570">
        <ele>632.0</ele>
        <time>2020-09-29T17:29:35Z</time>
      </trkpt>
      <trkpt lat="40.6231870" lon="-3.5498570">
        <ele>632.0</ele>
        <time>2020-09-29T17:29:36Z</time>
      </trkpt>
      <trkpt lat="40.6230320" lon="-3.5498530">
        <ele>632.0</ele>
        <time>2020-09-29T17:29:37Z</time>
      </trkpt>
      <trkpt lat="40.6229530" lon="-3.5498520">
        <ele>632.0</ele>
        <time>2020-09-29T17:29:38Z</time>
      </trkpt>
      <trkpt lat="40.6229530" lon="-3.5498520">
        <ele>632.0</ele>
        <time>2020-09-29T17:29:39Z</time>
      </trkpt>
      <trkpt lat="40.6228020" lon="-3.5498430">
        <ele>632.0</ele>
        <time>2020-09-29T17:29:40Z</time>
      </trkpt>
      <trkpt lat="40.6227270" lon="-3.5498350">
        <ele>632.0</ele>
        <time>2020-09-29T17:29:41Z</time>
      </trkpt>
      <trkpt lat="40.6227270" lon="-3.5498350">
        <ele>632.0</ele>
        <time>2020-09-29T17:29:42Z</time>
      </trkpt>
      <trkpt lat="40.6225730" lon="-3.5498230">
        <ele>632.0</ele>
        <time>2020-09-29T17:29:43Z</time>
      </trkpt>
      <trkpt lat="40.6225730" lon="-3.5498230">
        <ele>632.0</ele>
        <time>2020-09-29T17:29:44Z</time>
      </trkpt>
      <trkpt lat="40.6224200" lon="-3.5498070">
        <ele>632.0</ele>
        <time>2020-09-29T17:29:45Z</time>
      </trkpt>
      <trkpt lat="40.6224200" lon="-3.5498070">
        <ele>632.0</ele>
        <time>2020-09-29T17:29:46Z</time>
      </trkpt>
      <trkpt lat="40.6222630" lon="-3.5497850">
        <ele>632.0</ele>
        <time>2020-09-29T17:29:47Z</time>
      </trkpt>
      <trkpt lat="40.6222630" lon="-3.5497850">
        <ele>632.0</ele>
        <time>2020-09-29T17:29:48Z</time>
      </trkpt>
      <trkpt lat="40.6221100" lon="-3.5497600">
        <ele>632.0</ele>
        <time>2020-09-29T17:29:49Z</time>
      </trkpt>
      <trkpt lat="40.6221100" lon="-3.5497600">
        <ele>632.0</ele>
        <time>2020-09-29T17:29:50Z</time>
      </trkpt>
      <trkpt lat="40.6219620" lon="-3.5497350">
        <ele>632.0</ele>
        <time>2020-09-29T17:29:51Z</time>
      </trkpt>
      <trkpt lat="40.6219620" lon="-3.5497350">
        <ele>632.0</ele>
        <time>2020-09-29T17:29:52Z</time>
      </trkpt>
      <trkpt lat="40.6218150" lon="-3.5497080">
        <ele>632.0</ele>
        <time>2020-09-29T17:29:53Z</time>
      </trkpt>
      <trkpt lat="40.6218150" lon="-3.5497080">
        <ele>632.0</ele>
        <time>2020-09-29T17:29:54Z</time>
      </trkpt>
      <trkpt lat="40.6218150" lon="-3.5497080">
        <ele>632.0</ele>
        <time>2020-09-29T17:29:55Z</time>
      </trkpt>
      <trkpt lat="40.6216720" lon="-3.5496800">
        <ele>632.0</ele>
        <time>2020-09-29T17:29:56Z</time>
      </trkpt>
      <trkpt lat="40.6215270" lon="-3.5496500">
        <ele>632.0</ele>
        <time>2020-09-29T17:29:57Z</time>
      </trkpt>
      <trkpt lat="40.6214570" lon="-3.5496350">
        <ele>632.0</ele>
        <time>2020-09-29T17:29:58Z</time>
      </trkpt>
      <trkpt lat="40.6214570" lon="-3.5496350">
        <ele>632.0</ele>
        <time>2020-09-29T17:29:59Z</time>
      </trkpt>
      <trkpt lat="40.6213120" lon="-3.5496030">
        <ele>632.0</ele>
        <time>2020-09-29T17:30:00Z</time>
      </trkpt>
      <trkpt lat="40.6212420" lon="-3.5495880">
        <ele>632.0</ele>
        <time>2020-09-29T17:30:01Z</time>
      </trkpt>
      <trkpt lat="40.6212420" lon="-3.5495880">
        <ele>632.0</ele>
        <time>2020-09-29T17:30:02Z</time>
      </trkpt>
      <trkpt lat="40.6211000" lon="-3.5495570">
        <ele>632.0</ele>
        <time>2020-09-29T17:30:03Z</time>
      </trkpt>
      <trkpt lat="40.6211000" lon="-3.5495570">
        <ele>632.0</ele>
        <time>2020-09-29T17:30:04Z</time>
      </trkpt>
      <trkpt lat="40.6209550" lon="-3.5495230">
        <ele>632.0</ele>
        <time>2020-09-29T17:30:05Z</time>
      </trkpt>
      <trkpt lat="40.6209550" lon="-3.5495230">
        <ele>632.0</ele>
        <time>2020-09-29T17:30:06Z</time>
      </trkpt>
      <trkpt lat="40.6208030" lon="-3.5494900">
        <ele>632.0</ele>
        <time>2020-09-29T17:30:07Z</time>
      </trkpt>
      <trkpt lat="40.6208030" lon="-3.5494900">
        <ele>632.0</ele>
        <time>2020-09-29T17:30:08Z</time>
      </trkpt>
      <trkpt lat="40.6206530" lon="-3.5494570">
        <ele>632.0</ele>
        <time>2020-09-29T17:30:09Z</time>
      </trkpt>
      <trkpt lat="40.6206530" lon="-3.5494570">
        <ele>632.0</ele>
        <time>2020-09-29T17:30:10Z</time>
      </trkpt>
      <trkpt lat="40.6205070" lon="-3.5494220">
        <ele>632.0</ele>
        <time>2020-09-29T17:30:11Z</time>
      </trkpt>
      <trkpt lat="40.6205070" lon="-3.5494220">
        <ele>632.0</ele>
        <time>2020-09-29T17:30:12Z</time>
      </trkpt>
      <trkpt lat="40.6203500" lon="-3.5493800">
        <ele>632.0</ele>
        <time>2020-09-29T17:30:13Z</time>
      </trkpt>
      <trkpt lat="40.6203500" lon="-3.5493800">
        <ele>632.0</ele>
        <time>2020-09-29T17:30:14Z</time>
      </trkpt>
      <trkpt lat="40.6201980" lon="-3.5493320">
        <ele>632.0</ele>
        <time>2020-09-29T17:30:15Z</time>
      </trkpt>
      <trkpt lat="40.6201980" lon="-3.5493320">
        <ele>632.0</ele>
        <time>2020-09-29T17:30:16Z</time>
      </trkpt>
      <trkpt lat="40.6200470" lon="-3.5492930">
        <ele>632.0</ele>
        <time>2020-09-29T17:30:17Z</time>
      </trkpt>
      <trkpt lat="40.6199720" lon="-3.5492730">
        <ele>632.0</ele>
        <time>2020-09-29T17:30:18Z</time>
      </trkpt>
      <trkpt lat="40.6198970" lon="-3.5492530">
        <ele>632.0</ele>
        <time>2020-09-29T17:30:19Z</time>
      </trkpt>
      <trkpt lat="40.6198970" lon="-3.5492530">
        <ele>632.0</ele>
        <time>2020-09-29T17:30:20Z</time>
      </trkpt>
      <trkpt lat="40.6197480" lon="-3.5492180">
        <ele>632.0</ele>
        <time>2020-09-29T17:30:21Z</time>
      </trkpt>
      <trkpt lat="40.6197480" lon="-3.5492180">
        <ele>632.0</ele>
        <time>2020-09-29T17:30:22Z</time>
      </trkpt>
      <trkpt lat="40.6195980" lon="-3.5491870">
        <ele>632.0</ele>
        <time>2020-09-29T17:30:23Z</time>
      </trkpt>
      <trkpt lat="40.6195980" lon="-3.5491870">
        <ele>632.0</ele>
        <time>2020-09-29T17:30:24Z</time>
      </trkpt>
      <trkpt lat="40.6194470" lon="-3.5491520">
        <ele>632.0</ele>
        <time>2020-09-29T17:30:25Z</time>
      </trkpt>
      <trkpt lat="40.6194470" lon="-3.5491520">
        <ele>632.0</ele>
        <time>2020-09-29T17:30:26Z</time>
      </trkpt>
      <trkpt lat="40.6192950" lon="-3.5491180">
        <ele>632.0</ele>
        <time>2020-09-29T17:30:27Z</time>
      </trkpt>
      <trkpt lat="40.6192950" lon="-3.5491180">
        <ele>632.0</ele>
        <time>2020-09-29T17:30:28Z</time>
      </trkpt>
      <trkpt lat="40.6191450" lon="-3.5490870">
        <ele>632.0</ele>
        <time>2020-09-29T17:30:29Z</time>
      </trkpt>
      <trkpt lat="40.6190680" lon="-3.5490680">
        <ele>633.0</ele>
        <time>2020-09-29T17:30:30Z</time>
      </trkpt>
      <trkpt lat="40.6189930" lon="-3.5490520">
        <ele>633.0</ele>
        <time>2020-09-29T17:30:31Z</time>
      </trkpt>
      <trkpt lat="40.6189930" lon="-3.5490520">
        <ele>633.0</ele>
        <time>2020-09-29T17:30:32Z</time>
      </trkpt>
      <trkpt lat="40.6188420" lon="-3.5490170">
        <ele>633.0</ele>
        <time>2020-09-29T17:30:33Z</time>
      </trkpt>
      <trkpt lat="40.6187670" lon="-3.5489980">
        <ele>633.0</ele>
        <time>2020-09-29T17:30:34Z</time>
      </trkpt>
      <trkpt lat="40.6186900" lon="-3.5489800">
        <ele>633.0</ele>
        <time>2020-09-29T17:30:35Z</time>
      </trkpt>
      <trkpt lat="40.6186900" lon="-3.5489800">
        <ele>633.0</ele>
        <time>2020-09-29T17:30:36Z</time>
      </trkpt>
      <trkpt lat="40.6185370" lon="-3.5489430">
        <ele>633.0</ele>
        <time>2020-09-29T17:30:37Z</time>
      </trkpt>
      <trkpt lat="40.6185370" lon="-3.5489430">
        <ele>633.0</ele>
        <time>2020-09-29T17:30:38Z</time>
      </trkpt>
      <trkpt lat="40.6183870" lon="-3.5489070">
        <ele>633.0</ele>
        <time>2020-09-29T17:30:39Z</time>
      </trkpt>
      <trkpt lat="40.6183100" lon="-3.5488880">
        <ele>633.0</ele>
        <time>2020-09-29T17:30:40Z</time>
      </trkpt>
      <trkpt lat="40.6183100" lon="-3.5488880">
        <ele>633.0</ele>
        <time>2020-09-29T17:30:41Z</time>
      </trkpt>
      <trkpt lat="40.6183100" lon="-3.5488880">
        <ele>633.0</ele>
        <time>2020-09-29T17:30:42Z</time>
      </trkpt>
      <trkpt lat="40.6181570" lon="-3.5488500">
        <ele>633.0</ele>
        <time>2020-09-29T17:30:43Z</time>
      </trkpt>
      <trkpt lat="40.6180030" lon="-3.5488150">
        <ele>633.0</ele>
        <time>2020-09-29T17:30:44Z</time>
      </trkpt>
      <trkpt lat="40.6180030" lon="-3.5488150">
        <ele>633.0</ele>
        <time>2020-09-29T17:30:45Z</time>
      </trkpt>
      <trkpt lat="40.6178530" lon="-3.5487780">
        <ele>633.0</ele>
        <time>2020-09-29T17:30:46Z</time>
      </trkpt>
      <trkpt lat="40.6178530" lon="-3.5487780">
        <ele>633.0</ele>
        <time>2020-09-29T17:30:47Z</time>
      </trkpt>
      <trkpt lat="40.6177020" lon="-3.5487420">
        <ele>633.0</ele>
        <time>2020-09-29T17:30:48Z</time>
      </trkpt>
      <trkpt lat="40.6176280" lon="-3.5487230">
        <ele>633.0</ele>
        <time>2020-09-29T17:30:49Z</time>
      </trkpt>
      <trkpt lat="40.6176280" lon="-3.5487230">
        <ele>633.0</ele>
        <time>2020-09-29T17:30:50Z</time>
      </trkpt>
      <trkpt lat="40.6174820" lon="-3.5486900">
        <ele>633.0</ele>
        <time>2020-09-29T17:30:51Z</time>
      </trkpt>
      <trkpt lat="40.6174820" lon="-3.5486900">
        <ele>633.0</ele>
        <time>2020-09-29T17:30:52Z</time>
      </trkpt>
      <trkpt lat="40.6173350" lon="-3.5486570">
        <ele>633.0</ele>
        <time>2020-09-29T17:30:53Z</time>
      </trkpt>
      <trkpt lat="40.6173350" lon="-3.5486570">
        <ele>633.0</ele>
        <time>2020-09-29T17:30:54Z</time>
      </trkpt>
      <trkpt lat="40.6171880" lon="-3.5486220">
        <ele>633.0</ele>
        <time>2020-09-29T17:30:55Z</time>
      </trkpt>
      <trkpt lat="40.6171880" lon="-3.5486220">
        <ele>633.0</ele>
        <time>2020-09-29T17:30:56Z</time>
      </trkpt>
      <trkpt lat="40.6170430" lon="-3.5485880">
        <ele>633.0</ele>
        <time>2020-09-29T17:30:57Z</time>
      </trkpt>
      <trkpt lat="40.6169700" lon="-3.5485720">
        <ele>633.0</ele>
        <time>2020-09-29T17:30:58Z</time>
      </trkpt>
      <trkpt lat="40.6168980" lon="-3.5485550">
        <ele>633.0</ele>
        <time>2020-09-29T17:30:59Z</time>
      </trkpt>
      <trkpt lat="40.6168980" lon="-3.5485550">
        <ele>633.0</ele>
        <time>2020-09-29T17:31:00Z</time>
      </trkpt>
      <trkpt lat="40.6168980" lon="-3.5485550">
        <ele>633.0</ele>
        <time>2020-09-29T17:31:01Z</time>
      </trkpt>
      <trkpt lat="40.6167520" lon="-3.5485220">
        <ele>633.0</ele>
        <time>2020-09-29T17:31:02Z</time>
      </trkpt>
      <trkpt lat="40.6166050" lon="-3.5484900">
        <ele>633.0</ele>
        <time>2020-09-29T17:31:03Z</time>
      </trkpt>
      <trkpt lat="40.6166050" lon="-3.5484900">
        <ele>633.0</ele>
        <time>2020-09-29T17:31:04Z</time>
      </trkpt>
      <trkpt lat="40.6164580" lon="-3.5484570">
        <ele>633.0</ele>
        <time>2020-09-29T17:31:05Z</time>
      </trkpt>
      <trkpt lat="40.6164580" lon="-3.5484570">
        <ele>634.0</ele>
        <time>2020-09-29T17:31:06Z</time>
      </trkpt>
      <trkpt lat="40.6163170" lon="-3.5484250">
        <ele>634.0</ele>
        <time>2020-09-29T17:31:07Z</time>
      </trkpt>
      <trkpt lat="40.6163170" lon="-3.5484250">
        <ele>634.0</ele>
        <time>2020-09-29T17:31:08Z</time>
      </trkpt>
      <trkpt lat="40.6161700" lon="-3.5483880">
        <ele>634.0</ele>
        <time>2020-09-29T17:31:09Z</time>
      </trkpt>
      <trkpt lat="40.6161700" lon="-3.5483880">
        <ele>634.0</ele>
        <time>2020-09-29T17:31:10Z</time>
      </trkpt>
      <trkpt lat="40.6160270" lon="-3.5483550">
        <ele>634.0</ele>
        <time>2020-09-29T17:31:11Z</time>
      </trkpt>
      <trkpt lat="40.6160270" lon="-3.5483550">
        <ele>634.0</ele>
        <time>2020-09-29T17:31:12Z</time>
      </trkpt>
      <trkpt lat="40.6158830" lon="-3.5483180">
        <ele>634.0</ele>
        <time>2020-09-29T17:31:13Z</time>
      </trkpt>
      <trkpt lat="40.6158830" lon="-3.5483180">
        <ele>634.0</ele>
        <time>2020-09-29T17:31:14Z</time>
      </trkpt>
      <trkpt lat="40.6157330" lon="-3.5482830">
        <ele>634.0</ele>
        <time>2020-09-29T17:31:15Z</time>
      </trkpt>
      <trkpt lat="40.6157330" lon="-3.5482830">
        <ele>634.0</ele>
        <time>2020-09-29T17:31:16Z</time>
      </trkpt>
      <trkpt lat="40.6155900" lon="-3.5482530">
        <ele>634.0</ele>
        <time>2020-09-29T17:31:17Z</time>
      </trkpt>
      <trkpt lat="40.6155900" lon="-3.5482530">
        <ele>634.0</ele>
        <time>2020-09-29T17:31:18Z</time>
      </trkpt>
      <trkpt lat="40.6154430" lon="-3.5482220">
        <ele>634.0</ele>
        <time>2020-09-29T17:31:19Z</time>
      </trkpt>
      <trkpt lat="40.6154430" lon="-3.5482220">
        <ele>634.0</ele>
        <time>2020-09-29T17:31:20Z</time>
      </trkpt>
      <trkpt lat="40.6153000" lon="-3.5481850">
        <ele>634.0</ele>
        <time>2020-09-29T17:31:21Z</time>
      </trkpt>
      <trkpt lat="40.6153000" lon="-3.5481850">
        <ele>634.0</ele>
        <time>2020-09-29T17:31:22Z</time>
      </trkpt>
      <trkpt lat="40.6151520" lon="-3.5481500">
        <ele>634.0</ele>
        <time>2020-09-29T17:31:23Z</time>
      </trkpt>
      <trkpt lat="40.6151520" lon="-3.5481500">
        <ele>634.0</ele>
        <time>2020-09-29T17:31:24Z</time>
      </trkpt>
      <trkpt lat="40.6150030" lon="-3.5481150">
        <ele>634.0</ele>
        <time>2020-09-29T17:31:25Z</time>
      </trkpt>
      <trkpt lat="40.6150030" lon="-3.5481150">
        <ele>634.0</ele>
        <time>2020-09-29T17:31:26Z</time>
      </trkpt>
      <trkpt lat="40.6148530" lon="-3.5480820">
        <ele>634.0</ele>
        <time>2020-09-29T17:31:27Z</time>
      </trkpt>
      <trkpt lat="40.6148530" lon="-3.5480820">
        <ele>634.0</ele>
        <time>2020-09-29T17:31:28Z</time>
      </trkpt>
      <trkpt lat="40.6146980" lon="-3.5480430">
        <ele>634.0</ele>
        <time>2020-09-29T17:31:29Z</time>
      </trkpt>
      <trkpt lat="40.6146980" lon="-3.5480430">
        <ele>634.0</ele>
        <time>2020-09-29T17:31:30Z</time>
      </trkpt>
      <trkpt lat="40.6145430" lon="-3.5480050">
        <ele>634.0</ele>
        <time>2020-09-29T17:31:31Z</time>
      </trkpt>
      <trkpt lat="40.6144650" lon="-3.5479850">
        <ele>634.0</ele>
        <time>2020-09-29T17:31:32Z</time>
      </trkpt>
      <trkpt lat="40.6144650" lon="-3.5479850">
        <ele>634.0</ele>
        <time>2020-09-29T17:31:33Z</time>
      </trkpt>
      <trkpt lat="40.6143120" lon="-3.5479470">
        <ele>634.0</ele>
        <time>2020-09-29T17:31:34Z</time>
      </trkpt>
      <trkpt lat="40.6142330" lon="-3.5479280">
        <ele>634.0</ele>
        <time>2020-09-29T17:31:35Z</time>
      </trkpt>
      <trkpt lat="40.6141570" lon="-3.5479080">
        <ele>634.0</ele>
        <time>2020-09-29T17:31:36Z</time>
      </trkpt>
      <trkpt lat="40.6140780" lon="-3.5478900">
        <ele>634.0</ele>
        <time>2020-09-29T17:31:37Z</time>
      </trkpt>
      <trkpt lat="40.6140780" lon="-3.5478900">
        <ele>634.0</ele>
        <time>2020-09-29T17:31:38Z</time>
      </trkpt>
      <trkpt lat="40.6140780" lon="-3.5478900">
        <ele>634.0</ele>
        <time>2020-09-29T17:31:39Z</time>
      </trkpt>
      <trkpt lat="40.6139230" lon="-3.5478520">
        <ele>634.0</ele>
        <time>2020-09-29T17:31:40Z</time>
      </trkpt>
      <trkpt lat="40.6137680" lon="-3.5478130">
        <ele>633.0</ele>
        <time>2020-09-29T17:31:41Z</time>
      </trkpt>
      <trkpt lat="40.6137680" lon="-3.5478130">
        <ele>633.0</ele>
        <time>2020-09-29T17:31:42Z</time>
      </trkpt>
      <trkpt lat="40.6136130" lon="-3.5477750">
        <ele>633.0</ele>
        <time>2020-09-29T17:31:43Z</time>
      </trkpt>
      <trkpt lat="40.6136130" lon="-3.5477750">
        <ele>633.0</ele>
        <time>2020-09-29T17:31:44Z</time>
      </trkpt>
      <trkpt lat="40.6134530" lon="-3.5477370">
        <ele>633.0</ele>
        <time>2020-09-29T17:31:45Z</time>
      </trkpt>
      <trkpt lat="40.6134530" lon="-3.5477370">
        <ele>633.0</ele>
        <time>2020-09-29T17:31:46Z</time>
      </trkpt>
      <trkpt lat="40.6132900" lon="-3.5477030">
        <ele>633.0</ele>
        <time>2020-09-29T17:31:47Z</time>
      </trkpt>
      <trkpt lat="40.6132900" lon="-3.5477030">
        <ele>633.0</ele>
        <time>2020-09-29T17:31:48Z</time>
      </trkpt>
      <trkpt lat="40.6131280" lon="-3.5476700">
        <ele>633.0</ele>
        <time>2020-09-29T17:31:49Z</time>
      </trkpt>
      <trkpt lat="40.6131280" lon="-3.5476700">
        <ele>633.0</ele>
        <time>2020-09-29T17:31:50Z</time>
      </trkpt>
      <trkpt lat="40.6129630" lon="-3.5476380">
        <ele>633.0</ele>
        <time>2020-09-29T17:31:51Z</time>
      </trkpt>
      <trkpt lat="40.6129630" lon="-3.5476380">
        <ele>633.0</ele>
        <time>2020-09-29T17:31:52Z</time>
      </trkpt>
      <trkpt lat="40.6127980" lon="-3.5476070">
        <ele>632.0</ele>
        <time>2020-09-29T17:31:53Z</time>
      </trkpt>
      <trkpt lat="40.6127980" lon="-3.5476070">
        <ele>632.0</ele>
        <time>2020-09-29T17:31:54Z</time>
      </trkpt>
      <trkpt lat="40.6126350" lon="-3.5475800">
        <ele>632.0</ele>
        <time>2020-09-29T17:31:55Z</time>
      </trkpt>
      <trkpt lat="40.6126350" lon="-3.5475800">
        <ele>632.0</ele>
        <time>2020-09-29T17:31:56Z</time>
      </trkpt>
      <trkpt lat="40.6124720" lon="-3.5475570">
        <ele>632.0</ele>
        <time>2020-09-29T17:31:57Z</time>
      </trkpt>
      <trkpt lat="40.6124720" lon="-3.5475570">
        <ele>632.0</ele>
        <time>2020-09-29T17:31:58Z</time>
      </trkpt>
      <trkpt lat="40.6123120" lon="-3.5475370">
        <ele>631.0</ele>
        <time>2020-09-29T17:31:59Z</time>
      </trkpt>
      <trkpt lat="40.6123120" lon="-3.5475370">
        <ele>631.0</ele>
        <time>2020-09-29T17:32:00Z</time>
      </trkpt>
      <trkpt lat="40.6123120" lon="-3.5475370">
        <ele>631.0</ele>
        <time>2020-09-29T17:32:01Z</time>
      </trkpt>
      <trkpt lat="40.6121500" lon="-3.5475220">
        <ele>631.0</ele>
        <time>2020-09-29T17:32:02Z</time>
      </trkpt>
      <trkpt lat="40.6119880" lon="-3.5475120">
        <ele>631.0</ele>
        <time>2020-09-29T17:32:03Z</time>
      </trkpt>
      <trkpt lat="40.6119070" lon="-3.5475070">
        <ele>631.0</ele>
        <time>2020-09-29T17:32:04Z</time>
      </trkpt>
      <trkpt lat="40.6119070" lon="-3.5475070">
        <ele>631.0</ele>
        <time>2020-09-29T17:32:05Z</time>
      </trkpt>
      <trkpt lat="40.6117470" lon="-3.5475030">
        <ele>631.0</ele>
        <time>2020-09-29T17:32:06Z</time>
      </trkpt>
      <trkpt lat="40.6116670" lon="-3.5475030">
        <ele>631.0</ele>
        <time>2020-09-29T17:32:07Z</time>
      </trkpt>
      <trkpt lat="40.6116670" lon="-3.5475030">
        <ele>631.0</ele>
        <time>2020-09-29T17:32:08Z</time>
      </trkpt>
      <trkpt lat="40.6115070" lon="-3.5475030">
        <ele>631.0</ele>
        <time>2020-09-29T17:32:09Z</time>
      </trkpt>
      <trkpt lat="40.6115070" lon="-3.5475030">
        <ele>631.0</ele>
        <time>2020-09-29T17:32:10Z</time>
      </trkpt>
      <trkpt lat="40.6113470" lon="-3.5475100">
        <ele>631.0</ele>
        <time>2020-09-29T17:32:11Z</time>
      </trkpt>
      <trkpt lat="40.6113470" lon="-3.5475100">
        <ele>631.0</ele>
        <time>2020-09-29T17:32:12Z</time>
      </trkpt>
      <trkpt lat="40.6111820" lon="-3.5475180">
        <ele>631.0</ele>
        <time>2020-09-29T17:32:13Z</time>
      </trkpt>
      <trkpt lat="40.6111820" lon="-3.5475180">
        <ele>631.0</ele>
        <time>2020-09-29T17:32:14Z</time>
      </trkpt>
      <trkpt lat="40.6110170" lon="-3.5475330">
        <ele>631.0</ele>
        <time>2020-09-29T17:32:15Z</time>
      </trkpt>
      <trkpt lat="40.6110170" lon="-3.5475330">
        <ele>631.0</ele>
        <time>2020-09-29T17:32:16Z</time>
      </trkpt>
      <trkpt lat="40.6108470" lon="-3.5475500">
        <ele>631.0</ele>
        <time>2020-09-29T17:32:17Z</time>
      </trkpt>
      <trkpt lat="40.6107620" lon="-3.5475600">
        <ele>631.0</ele>
        <time>2020-09-29T17:32:18Z</time>
      </trkpt>
      <trkpt lat="40.6107620" lon="-3.5475600">
        <ele>631.0</ele>
        <time>2020-09-29T17:32:19Z</time>
      </trkpt>
      <trkpt lat="40.6105880" lon="-3.5475770">
        <ele>631.0</ele>
        <time>2020-09-29T17:32:20Z</time>
      </trkpt>
      <trkpt lat="40.6105880" lon="-3.5475770">
        <ele>631.0</ele>
        <time>2020-09-29T17:32:21Z</time>
      </trkpt>
      <trkpt lat="40.6105880" lon="-3.5475770">
        <ele>631.0</ele>
        <time>2020-09-29T17:32:22Z</time>
      </trkpt>
      <trkpt lat="40.6104180" lon="-3.5476080">
        <ele>631.0</ele>
        <time>2020-09-29T17:32:23Z</time>
      </trkpt>
      <trkpt lat="40.6102480" lon="-3.5476420">
        <ele>631.0</ele>
        <time>2020-09-29T17:32:24Z</time>
      </trkpt>
      <trkpt lat="40.6101650" lon="-3.5476580">
        <ele>631.0</ele>
        <time>2020-09-29T17:32:25Z</time>
      </trkpt>
      <trkpt lat="40.6101650" lon="-3.5476580">
        <ele>631.0</ele>
        <time>2020-09-29T17:32:26Z</time>
      </trkpt>
      <trkpt lat="40.6100030" lon="-3.5476980">
        <ele>631.0</ele>
        <time>2020-09-29T17:32:27Z</time>
      </trkpt>
      <trkpt lat="40.6100030" lon="-3.5476980">
        <ele>630.0</ele>
        <time>2020-09-29T17:32:28Z</time>
      </trkpt>
      <trkpt lat="40.6098400" lon="-3.5477420">
        <ele>630.0</ele>
        <time>2020-09-29T17:32:29Z</time>
      </trkpt>
      <trkpt lat="40.6098400" lon="-3.5477420">
        <ele>630.0</ele>
        <time>2020-09-29T17:32:30Z</time>
      </trkpt>
      <trkpt lat="40.6096730" lon="-3.5477920">
        <ele>630.0</ele>
        <time>2020-09-29T17:32:31Z</time>
      </trkpt>
      <trkpt lat="40.6096730" lon="-3.5477920">
        <ele>630.0</ele>
        <time>2020-09-29T17:32:32Z</time>
      </trkpt>
      <trkpt lat="40.6095120" lon="-3.5478430">
        <ele>630.0</ele>
        <time>2020-09-29T17:32:33Z</time>
      </trkpt>
      <trkpt lat="40.6095120" lon="-3.5478430">
        <ele>630.0</ele>
        <time>2020-09-29T17:32:34Z</time>
      </trkpt>
      <trkpt lat="40.6093500" lon="-3.5479000">
        <ele>630.0</ele>
        <time>2020-09-29T17:32:35Z</time>
      </trkpt>
      <trkpt lat="40.6093500" lon="-3.5479000">
        <ele>630.0</ele>
        <time>2020-09-29T17:32:36Z</time>
      </trkpt>
      <trkpt lat="40.6091900" lon="-3.5479580">
        <ele>630.0</ele>
        <time>2020-09-29T17:32:37Z</time>
      </trkpt>
      <trkpt lat="40.6091900" lon="-3.5479580">
        <ele>630.0</ele>
        <time>2020-09-29T17:32:38Z</time>
      </trkpt>
      <trkpt lat="40.6090320" lon="-3.5480220">
        <ele>630.0</ele>
        <time>2020-09-29T17:32:39Z</time>
      </trkpt>
      <trkpt lat="40.6090320" lon="-3.5480220">
        <ele>630.0</ele>
        <time>2020-09-29T17:32:40Z</time>
      </trkpt>
      <trkpt lat="40.6088730" lon="-3.5480880">
        <ele>630.0</ele>
        <time>2020-09-29T17:32:41Z</time>
      </trkpt>
      <trkpt lat="40.6088730" lon="-3.5480880">
        <ele>629.0</ele>
        <time>2020-09-29T17:32:42Z</time>
      </trkpt>
      <trkpt lat="40.6088730" lon="-3.5480880">
        <ele>629.0</ele>
        <time>2020-09-29T17:32:43Z</time>
      </trkpt>
      <trkpt lat="40.6087150" lon="-3.5481600">
        <ele>629.0</ele>
        <time>2020-09-29T17:32:44Z</time>
      </trkpt>
      <trkpt lat="40.6085580" lon="-3.5482350">
        <ele>629.0</ele>
        <time>2020-09-29T17:32:45Z</time>
      </trkpt>
      <trkpt lat="40.6084780" lon="-3.5482720">
        <ele>629.0</ele>
        <time>2020-09-29T17:32:46Z</time>
      </trkpt>
      <trkpt lat="40.6084780" lon="-3.5482720">
        <ele>629.0</ele>
        <time>2020-09-29T17:32:47Z</time>
      </trkpt>
      <trkpt lat="40.6083200" lon="-3.5483520">
        <ele>629.0</ele>
        <time>2020-09-29T17:32:48Z</time>
      </trkpt>
      <trkpt lat="40.6083200" lon="-3.5483520">
        <ele>629.0</ele>
        <time>2020-09-29T17:32:49Z</time>
      </trkpt>
      <trkpt lat="40.6081650" lon="-3.5484370">
        <ele>629.0</ele>
        <time>2020-09-29T17:32:50Z</time>
      </trkpt>
      <trkpt lat="40.6081650" lon="-3.5484370">
        <ele>629.0</ele>
        <time>2020-09-29T17:32:51Z</time>
      </trkpt>
      <trkpt lat="40.6080120" lon="-3.5485250">
        <ele>629.0</ele>
        <time>2020-09-29T17:32:52Z</time>
      </trkpt>
      <trkpt lat="40.6079370" lon="-3.5485700">
        <ele>628.0</ele>
        <time>2020-09-29T17:32:53Z</time>
      </trkpt>
      <trkpt lat="40.6078620" lon="-3.5486170">
        <ele>628.0</ele>
        <time>2020-09-29T17:32:54Z</time>
      </trkpt>
      <trkpt lat="40.6078620" lon="-3.5486170">
        <ele>628.0</ele>
        <time>2020-09-29T17:32:55Z</time>
      </trkpt>
      <trkpt lat="40.6077130" lon="-3.5487120">
        <ele>628.0</ele>
        <time>2020-09-29T17:32:56Z</time>
      </trkpt>
      <trkpt lat="40.6077130" lon="-3.5487120">
        <ele>628.0</ele>
        <time>2020-09-29T17:32:57Z</time>
      </trkpt>
      <trkpt lat="40.6075720" lon="-3.5488070">
        <ele>628.0</ele>
        <time>2020-09-29T17:32:58Z</time>
      </trkpt>
      <trkpt lat="40.6075050" lon="-3.5488520">
        <ele>628.0</ele>
        <time>2020-09-29T17:32:59Z</time>
      </trkpt>
      <trkpt lat="40.6075050" lon="-3.5488520">
        <ele>628.0</ele>
        <time>2020-09-29T17:33:00Z</time>
      </trkpt>
      <trkpt lat="40.6073630" lon="-3.5489500">
        <ele>628.0</ele>
        <time>2020-09-29T17:33:01Z</time>
      </trkpt>
      <trkpt lat="40.6073630" lon="-3.5489500">
        <ele>628.0</ele>
        <time>2020-09-29T17:33:02Z</time>
      </trkpt>
      <trkpt lat="40.6072270" lon="-3.5490550">
        <ele>628.0</ele>
        <time>2020-09-29T17:33:03Z</time>
      </trkpt>
      <trkpt lat="40.6071580" lon="-3.5491080">
        <ele>628.0</ele>
        <time>2020-09-29T17:33:04Z</time>
      </trkpt>
      <trkpt lat="40.6071580" lon="-3.5491080">
        <ele>628.0</ele>
        <time>2020-09-29T17:33:05Z</time>
      </trkpt>
      <trkpt lat="40.6070250" lon="-3.5492150">
        <ele>628.0</ele>
        <time>2020-09-29T17:33:06Z</time>
      </trkpt>
      <trkpt lat="40.6070250" lon="-3.5492150">
        <ele>628.0</ele>
        <time>2020-09-29T17:33:07Z</time>
      </trkpt>
      <trkpt lat="40.6068930" lon="-3.5493220">
        <ele>628.0</ele>
        <time>2020-09-29T17:33:08Z</time>
      </trkpt>
      <trkpt lat="40.6068280" lon="-3.5493750">
        <ele>628.0</ele>
        <time>2020-09-29T17:33:09Z</time>
      </trkpt>
      <trkpt lat="40.6068280" lon="-3.5493750">
        <ele>628.0</ele>
        <time>2020-09-29T17:33:10Z</time>
      </trkpt>
      <trkpt lat="40.6066980" lon="-3.5494880">
        <ele>628.0</ele>
        <time>2020-09-29T17:33:11Z</time>
      </trkpt>
      <trkpt lat="40.6066980" lon="-3.5494880">
        <ele>628.0</ele>
        <time>2020-09-29T17:33:12Z</time>
      </trkpt>
      <trkpt lat="40.6065700" lon="-3.5496030">
        <ele>628.0</ele>
        <time>2020-09-29T17:33:13Z</time>
      </trkpt>
      <trkpt lat="40.6065700" lon="-3.5496030">
        <ele>628.0</ele>
        <time>2020-09-29T17:33:14Z</time>
      </trkpt>
      <trkpt lat="40.6064430" lon="-3.5497270">
        <ele>628.0</ele>
        <time>2020-09-29T17:33:15Z</time>
      </trkpt>
      <trkpt lat="40.6063800" lon="-3.5497880">
        <ele>628.0</ele>
        <time>2020-09-29T17:33:16Z</time>
      </trkpt>
      <trkpt lat="40.6063800" lon="-3.5497880">
        <ele>628.0</ele>
        <time>2020-09-29T17:33:17Z</time>
      </trkpt>
      <trkpt lat="40.6062530" lon="-3.5499100">
        <ele>628.0</ele>
        <time>2020-09-29T17:33:18Z</time>
      </trkpt>
      <trkpt lat="40.6061920" lon="-3.5499730">
        <ele>628.0</ele>
        <time>2020-09-29T17:33:19Z</time>
      </trkpt>
      <trkpt lat="40.6061920" lon="-3.5499730">
        <ele>628.0</ele>
        <time>2020-09-29T17:33:20Z</time>
      </trkpt>
      <trkpt lat="40.6061920" lon="-3.5499730">
        <ele>628.0</ele>
        <time>2020-09-29T17:33:21Z</time>
      </trkpt>
      <trkpt lat="40.6060750" lon="-3.5501000">
        <ele>628.0</ele>
        <time>2020-09-29T17:33:22Z</time>
      </trkpt>
      <trkpt lat="40.6059520" lon="-3.5502250">
        <ele>628.0</ele>
        <time>2020-09-29T17:33:23Z</time>
      </trkpt>
      <trkpt lat="40.6059520" lon="-3.5502250">
        <ele>628.0</ele>
        <time>2020-09-29T17:33:24Z</time>
      </trkpt>
      <trkpt lat="40.6058320" lon="-3.5503500">
        <ele>628.0</ele>
        <time>2020-09-29T17:33:25Z</time>
      </trkpt>
      <trkpt lat="40.6057720" lon="-3.5504150">
        <ele>628.0</ele>
        <time>2020-09-29T17:33:26Z</time>
      </trkpt>
      <trkpt lat="40.6057720" lon="-3.5504150">
        <ele>628.0</ele>
        <time>2020-09-29T17:33:27Z</time>
      </trkpt>
      <trkpt lat="40.6056520" lon="-3.5505480">
        <ele>628.0</ele>
        <time>2020-09-29T17:33:28Z</time>
      </trkpt>
      <trkpt lat="40.6056520" lon="-3.5505480">
        <ele>628.0</ele>
        <time>2020-09-29T17:33:29Z</time>
      </trkpt>
      <trkpt lat="40.6055330" lon="-3.5506830">
        <ele>628.0</ele>
        <time>2020-09-29T17:33:30Z</time>
      </trkpt>
      <trkpt lat="40.6054700" lon="-3.5507500">
        <ele>628.0</ele>
        <time>2020-09-29T17:33:31Z</time>
      </trkpt>
      <trkpt lat="40.6054700" lon="-3.5507500">
        <ele>628.0</ele>
        <time>2020-09-29T17:33:32Z</time>
      </trkpt>
      <trkpt lat="40.6053450" lon="-3.5508800">
        <ele>628.0</ele>
        <time>2020-09-29T17:33:33Z</time>
      </trkpt>
      <trkpt lat="40.6053450" lon="-3.5508800">
        <ele>628.0</ele>
        <time>2020-09-29T17:33:34Z</time>
      </trkpt>
      <trkpt lat="40.6052230" lon="-3.5510130">
        <ele>628.0</ele>
        <time>2020-09-29T17:33:35Z</time>
      </trkpt>
      <trkpt lat="40.6052230" lon="-3.5510130">
        <ele>627.0</ele>
        <time>2020-09-29T17:33:36Z</time>
      </trkpt>
      <trkpt lat="40.6051020" lon="-3.5511430">
        <ele>627.0</ele>
        <time>2020-09-29T17:33:37Z</time>
      </trkpt>
      <trkpt lat="40.6050420" lon="-3.5512100">
        <ele>627.0</ele>
        <time>2020-09-29T17:33:38Z</time>
      </trkpt>
      <trkpt lat="40.6050420" lon="-3.5512100">
        <ele>627.0</ele>
        <time>2020-09-29T17:33:39Z</time>
      </trkpt>
      <trkpt lat="40.6049200" lon="-3.5513380">
        <ele>627.0</ele>
        <time>2020-09-29T17:33:40Z</time>
      </trkpt>
      <trkpt lat="40.6049200" lon="-3.5513380">
        <ele>627.0</ele>
        <time>2020-09-29T17:33:41Z</time>
      </trkpt>
      <trkpt lat="40.6048000" lon="-3.5514680">
        <ele>627.0</ele>
        <time>2020-09-29T17:33:42Z</time>
      </trkpt>
      <trkpt lat="40.6048000" lon="-3.5514680">
        <ele>627.0</ele>
        <time>2020-09-29T17:33:43Z</time>
      </trkpt>
      <trkpt lat="40.6046830" lon="-3.5516020">
        <ele>627.0</ele>
        <time>2020-09-29T17:33:44Z</time>
      </trkpt>
      <trkpt lat="40.6046830" lon="-3.5516020">
        <ele>627.0</ele>
        <time>2020-09-29T17:33:45Z</time>
      </trkpt>
      <trkpt lat="40.6045630" lon="-3.5517320">
        <ele>627.0</ele>
        <time>2020-09-29T17:33:46Z</time>
      </trkpt>
      <trkpt lat="40.6045630" lon="-3.5517320">
        <ele>627.0</ele>
        <time>2020-09-29T17:33:47Z</time>
      </trkpt>
      <trkpt lat="40.6044450" lon="-3.5518620">
        <ele>626.0</ele>
        <time>2020-09-29T17:33:48Z</time>
      </trkpt>
      <trkpt lat="40.6043850" lon="-3.5519270">
        <ele>626.0</ele>
        <time>2020-09-29T17:33:49Z</time>
      </trkpt>
      <trkpt lat="40.6043850" lon="-3.5519270">
        <ele>626.0</ele>
        <time>2020-09-29T17:33:50Z</time>
      </trkpt>
      <trkpt lat="40.6042670" lon="-3.5520570">
        <ele>626.0</ele>
        <time>2020-09-29T17:33:51Z</time>
      </trkpt>
      <trkpt lat="40.6042070" lon="-3.5521200">
        <ele>626.0</ele>
        <time>2020-09-29T17:33:52Z</time>
      </trkpt>
      <trkpt lat="40.6042070" lon="-3.5521200">
        <ele>626.0</ele>
        <time>2020-09-29T17:33:53Z</time>
      </trkpt>
      <trkpt lat="40.6040880" lon="-3.5522470">
        <ele>626.0</ele>
        <time>2020-09-29T17:33:54Z</time>
      </trkpt>
      <trkpt lat="40.6040880" lon="-3.5522470">
        <ele>626.0</ele>
        <time>2020-09-29T17:33:55Z</time>
      </trkpt>
      <trkpt lat="40.6039720" lon="-3.5523750">
        <ele>626.0</ele>
        <time>2020-09-29T17:33:56Z</time>
      </trkpt>
      <trkpt lat="40.6039720" lon="-3.5523750">
        <ele>626.0</ele>
        <time>2020-09-29T17:33:57Z</time>
      </trkpt>
      <trkpt lat="40.6038550" lon="-3.5525050">
        <ele>626.0</ele>
        <time>2020-09-29T17:33:58Z</time>
      </trkpt>
      <trkpt lat="40.6038550" lon="-3.5525050">
        <ele>626.0</ele>
        <time>2020-09-29T17:33:59Z</time>
      </trkpt>
      <trkpt lat="40.6037420" lon="-3.5526330">
        <ele>626.0</ele>
        <time>2020-09-29T17:34:00Z</time>
      </trkpt>
      <trkpt lat="40.6037420" lon="-3.5526330">
        <ele>626.0</ele>
        <time>2020-09-29T17:34:01Z</time>
      </trkpt>
      <trkpt lat="40.6036250" lon="-3.5527530">
        <ele>626.0</ele>
        <time>2020-09-29T17:34:02Z</time>
      </trkpt>
      <trkpt lat="40.6036250" lon="-3.5527530">
        <ele>626.0</ele>
        <time>2020-09-29T17:34:03Z</time>
      </trkpt>
      <trkpt lat="40.6035070" lon="-3.5528830">
        <ele>626.0</ele>
        <time>2020-09-29T17:34:04Z</time>
      </trkpt>
      <trkpt lat="40.6034470" lon="-3.5529480">
        <ele>626.0</ele>
        <time>2020-09-29T17:34:05Z</time>
      </trkpt>
      <trkpt lat="40.6034470" lon="-3.5529480">
        <ele>626.0</ele>
        <time>2020-09-29T17:34:06Z</time>
      </trkpt>
      <trkpt lat="40.6033280" lon="-3.5530770">
        <ele>625.0</ele>
        <time>2020-09-29T17:34:07Z</time>
      </trkpt>
      <trkpt lat="40.6032700" lon="-3.5531420">
        <ele>625.0</ele>
        <time>2020-09-29T17:34:08Z</time>
      </trkpt>
      <trkpt lat="40.6032700" lon="-3.5531420">
        <ele>625.0</ele>
        <time>2020-09-29T17:34:09Z</time>
      </trkpt>
      <trkpt lat="40.6031550" lon="-3.5532680">
        <ele>625.0</ele>
        <time>2020-09-29T17:34:10Z</time>
      </trkpt>
      <trkpt lat="40.6030980" lon="-3.5533350">
        <ele>625.0</ele>
        <time>2020-09-29T17:34:11Z</time>
      </trkpt>
      <trkpt lat="40.6030980" lon="-3.5533350">
        <ele>625.0</ele>
        <time>2020-09-29T17:34:12Z</time>
      </trkpt>
      <trkpt lat="40.6029830" lon="-3.5534600">
        <ele>625.0</ele>
        <time>2020-09-29T17:34:13Z</time>
      </trkpt>
      <trkpt lat="40.6029830" lon="-3.5534600">
        <ele>625.0</ele>
        <time>2020-09-29T17:34:14Z</time>
      </trkpt>
      <trkpt lat="40.6028650" lon="-3.5535900">
        <ele>625.0</ele>
        <time>2020-09-29T17:34:15Z</time>
      </trkpt>
      <trkpt lat="40.6028650" lon="-3.5535900">
        <ele>625.0</ele>
        <time>2020-09-29T17:34:16Z</time>
      </trkpt>
      <trkpt lat="40.6027470" lon="-3.5537200">
        <ele>625.0</ele>
        <time>2020-09-29T17:34:17Z</time>
      </trkpt>
      <trkpt lat="40.6026880" lon="-3.5537870">
        <ele>625.0</ele>
        <time>2020-09-29T17:34:18Z</time>
      </trkpt>
      <trkpt lat="40.6026880" lon="-3.5537870">
        <ele>625.0</ele>
        <time>2020-09-29T17:34:19Z</time>
      </trkpt>
      <trkpt lat="40.6026300" lon="-3.5538520">
        <ele>625.0</ele>
        <time>2020-09-29T17:34:20Z</time>
      </trkpt>
      <trkpt lat="40.6025120" lon="-3.5539800">
        <ele>624.0</ele>
        <time>2020-09-29T17:34:21Z</time>
      </trkpt>
      <trkpt lat="40.6025120" lon="-3.5539800">
        <ele>624.0</ele>
        <time>2020-09-29T17:34:22Z</time>
      </trkpt>
      <trkpt lat="40.6023930" lon="-3.5541070">
        <ele>624.0</ele>
        <time>2020-09-29T17:34:23Z</time>
      </trkpt>
      <trkpt lat="40.6023350" lon="-3.5541720">
        <ele>624.0</ele>
        <time>2020-09-29T17:34:24Z</time>
      </trkpt>
      <trkpt lat="40.6023350" lon="-3.5541720">
        <ele>624.0</ele>
        <time>2020-09-29T17:34:25Z</time>
      </trkpt>
      <trkpt lat="40.6022170" lon="-3.5543000">
        <ele>624.0</ele>
        <time>2020-09-29T17:34:26Z</time>
      </trkpt>
      <trkpt lat="40.6021580" lon="-3.5543650">
        <ele>624.0</ele>
        <time>2020-09-29T17:34:27Z</time>
      </trkpt>
      <trkpt lat="40.6021580" lon="-3.5543650">
        <ele>624.0</ele>
        <time>2020-09-29T17:34:28Z</time>
      </trkpt>
      <trkpt lat="40.6020420" lon="-3.5544950">
        <ele>624.0</ele>
        <time>2020-09-29T17:34:29Z</time>
      </trkpt>
      <trkpt lat="40.6020420" lon="-3.5544950">
        <ele>624.0</ele>
        <time>2020-09-29T17:34:30Z</time>
      </trkpt>
      <trkpt lat="40.6019230" lon="-3.5546250">
        <ele>624.0</ele>
        <time>2020-09-29T17:34:31Z</time>
      </trkpt>
      <trkpt lat="40.6019230" lon="-3.5546250">
        <ele>624.0</ele>
        <time>2020-09-29T17:34:32Z</time>
      </trkpt>
      <trkpt lat="40.6018080" lon="-3.5547500">
        <ele>624.0</ele>
        <time>2020-09-29T17:34:33Z</time>
      </trkpt>
      <trkpt lat="40.6018080" lon="-3.5547500">
        <ele>624.0</ele>
        <time>2020-09-29T17:34:34Z</time>
      </trkpt>
      <trkpt lat="40.6016930" lon="-3.5548800">
        <ele>624.0</ele>
        <time>2020-09-29T17:34:35Z</time>
      </trkpt>
      <trkpt lat="40.6016370" lon="-3.5549450">
        <ele>624.0</ele>
        <time>2020-09-29T17:34:36Z</time>
      </trkpt>
      <trkpt lat="40.6015780" lon="-3.5550100">
        <ele>624.0</ele>
        <time>2020-09-29T17:34:37Z</time>
      </trkpt>
      <trkpt lat="40.6015780" lon="-3.5550100">
        <ele>624.0</ele>
        <time>2020-09-29T17:34:38Z</time>
      </trkpt>
      <trkpt lat="40.6014680" lon="-3.5551350">
        <ele>624.0</ele>
        <time>2020-09-29T17:34:39Z</time>
      </trkpt>
      <trkpt lat="40.6014680" lon="-3.5551350">
        <ele>624.0</ele>
        <time>2020-09-29T17:34:40Z</time>
      </trkpt>
      <trkpt lat="40.6013550" lon="-3.5552600">
        <ele>624.0</ele>
        <time>2020-09-29T17:34:41Z</time>
      </trkpt>
      <trkpt lat="40.6013550" lon="-3.5552600">
        <ele>624.0</ele>
        <time>2020-09-29T17:34:42Z</time>
      </trkpt>
      <trkpt lat="40.6012400" lon="-3.5553850">
        <ele>624.0</ele>
        <time>2020-09-29T17:34:43Z</time>
      </trkpt>
      <trkpt lat="40.6012400" lon="-3.5553850">
        <ele>624.0</ele>
        <time>2020-09-29T17:34:44Z</time>
      </trkpt>
      <trkpt lat="40.6011220" lon="-3.5555120">
        <ele>624.0</ele>
        <time>2020-09-29T17:34:45Z</time>
      </trkpt>
      <trkpt lat="40.6011220" lon="-3.5555120">
        <ele>624.0</ele>
        <time>2020-09-29T17:34:46Z</time>
      </trkpt>
      <trkpt lat="40.6010020" lon="-3.5556370">
        <ele>624.0</ele>
        <time>2020-09-29T17:34:47Z</time>
      </trkpt>
      <trkpt lat="40.6009430" lon="-3.5556980">
        <ele>624.0</ele>
        <time>2020-09-29T17:34:48Z</time>
      </trkpt>
      <trkpt lat="40.6009430" lon="-3.5556980">
        <ele>624.0</ele>
        <time>2020-09-29T17:34:49Z</time>
      </trkpt>
      <trkpt lat="40.6008270" lon="-3.5558300">
        <ele>624.0</ele>
        <time>2020-09-29T17:34:50Z</time>
      </trkpt>
      <trkpt lat="40.6008270" lon="-3.5558300">
        <ele>624.0</ele>
        <time>2020-09-29T17:34:51Z</time>
      </trkpt>
      <trkpt lat="40.6007680" lon="-3.5558960">
        <ele>624.0</ele>
        <time>2020-09-29T17:34:52Z</time>
      </trkpt>
      <trkpt lat="40.6007090" lon="-3.5559620">
        <ele>624.0</ele>
        <time>2020-09-29T17:34:53Z</time>
      </trkpt>
      <trkpt lat="40.6005900" lon="-3.5560930">
        <ele>624.0</ele>
        <time>2020-09-29T17:34:54Z</time>
      </trkpt>
      <trkpt lat="40.6005320" lon="-3.5561580">
        <ele>624.0</ele>
        <time>2020-09-29T17:34:55Z</time>
      </trkpt>
      <trkpt lat="40.6005320" lon="-3.5561580">
        <ele>624.0</ele>
        <time>2020-09-29T17:34:56Z</time>
      </trkpt>
      <trkpt lat="40.6004150" lon="-3.5562850">
        <ele>624.0</ele>
        <time>2020-09-29T17:34:57Z</time>
      </trkpt>
      <trkpt lat="40.6004150" lon="-3.5562850">
        <ele>624.0</ele>
        <time>2020-09-29T17:34:58Z</time>
      </trkpt>
      <trkpt lat="40.6002980" lon="-3.5564150">
        <ele>624.0</ele>
        <time>2020-09-29T17:34:59Z</time>
      </trkpt>
      <trkpt lat="40.6002420" lon="-3.5564800">
        <ele>624.0</ele>
        <time>2020-09-29T17:35:00Z</time>
      </trkpt>
      <trkpt lat="40.6001830" lon="-3.5565450">
        <ele>624.0</ele>
        <time>2020-09-29T17:35:01Z</time>
      </trkpt>
      <trkpt lat="40.6001830" lon="-3.5565450">
        <ele>624.0</ele>
        <time>2020-09-29T17:35:02Z</time>
      </trkpt>
      <trkpt lat="40.6000670" lon="-3.5566750">
        <ele>624.0</ele>
        <time>2020-09-29T17:35:03Z</time>
      </trkpt>
      <trkpt lat="40.6000080" lon="-3.5567380">
        <ele>624.0</ele>
        <time>2020-09-29T17:35:04Z</time>
      </trkpt>
      <trkpt lat="40.5999500" lon="-3.5568020">
        <ele>624.0</ele>
        <time>2020-09-29T17:35:05Z</time>
      </trkpt>
      <trkpt lat="40.5999500" lon="-3.5568020">
        <ele>624.0</ele>
        <time>2020-09-29T17:35:06Z</time>
      </trkpt>
      <trkpt lat="40.5999500" lon="-3.5568020">
        <ele>624.0</ele>
        <time>2020-09-29T17:35:07Z</time>
      </trkpt>
      <trkpt lat="40.5998300" lon="-3.5569320">
        <ele>624.0</ele>
        <time>2020-09-29T17:35:08Z</time>
      </trkpt>
      <trkpt lat="40.5997070" lon="-3.5570650">
        <ele>624.0</ele>
        <time>2020-09-29T17:35:09Z</time>
      </trkpt>
      <trkpt lat="40.5997070" lon="-3.5570650">
        <ele>624.0</ele>
        <time>2020-09-29T17:35:10Z</time>
      </trkpt>
      <trkpt lat="40.5995850" lon="-3.5571970">
        <ele>624.0</ele>
        <time>2020-09-29T17:35:11Z</time>
      </trkpt>
      <trkpt lat="40.5995850" lon="-3.5571970">
        <ele>624.0</ele>
        <time>2020-09-29T17:35:12Z</time>
      </trkpt>
      <trkpt lat="40.5994670" lon="-3.5573270">
        <ele>624.0</ele>
        <time>2020-09-29T17:35:13Z</time>
      </trkpt>
      <trkpt lat="40.5994670" lon="-3.5573270">
        <ele>624.0</ele>
        <time>2020-09-29T17:35:14Z</time>
      </trkpt>
      <trkpt lat="40.5993450" lon="-3.5574580">
        <ele>624.0</ele>
        <time>2020-09-29T17:35:15Z</time>
      </trkpt>
      <trkpt lat="40.5992850" lon="-3.5575230">
        <ele>624.0</ele>
        <time>2020-09-29T17:35:16Z</time>
      </trkpt>
      <trkpt lat="40.5992270" lon="-3.5575880">
        <ele>624.0</ele>
        <time>2020-09-29T17:35:17Z</time>
      </trkpt>
      <trkpt lat="40.5992270" lon="-3.5575880">
        <ele>625.0</ele>
        <time>2020-09-29T17:35:18Z</time>
      </trkpt>
      <trkpt lat="40.5991030" lon="-3.5577150">
        <ele>625.0</ele>
        <time>2020-09-29T17:35:19Z</time>
      </trkpt>
      <trkpt lat="40.5991030" lon="-3.5577150">
        <ele>625.0</ele>
        <time>2020-09-29T17:35:20Z</time>
      </trkpt>
      <trkpt lat="40.5989830" lon="-3.5578430">
        <ele>625.0</ele>
        <time>2020-09-29T17:35:21Z</time>
      </trkpt>
      <trkpt lat="40.5989830" lon="-3.5578430">
        <ele>625.0</ele>
        <time>2020-09-29T17:35:22Z</time>
      </trkpt>
      <trkpt lat="40.5988600" lon="-3.5579700">
        <ele>625.0</ele>
        <time>2020-09-29T17:35:23Z</time>
      </trkpt>
      <trkpt lat="40.5988600" lon="-3.5579700">
        <ele>625.0</ele>
        <time>2020-09-29T17:35:24Z</time>
      </trkpt>
      <trkpt lat="40.5987330" lon="-3.5580930">
        <ele>625.0</ele>
        <time>2020-09-29T17:35:25Z</time>
      </trkpt>
      <trkpt lat="40.5987330" lon="-3.5580930">
        <ele>625.0</ele>
        <time>2020-09-29T17:35:26Z</time>
      </trkpt>
      <trkpt lat="40.5986080" lon="-3.5582200">
        <ele>625.0</ele>
        <time>2020-09-29T17:35:27Z</time>
      </trkpt>
      <trkpt lat="40.5985430" lon="-3.5582800">
        <ele>625.0</ele>
        <time>2020-09-29T17:35:28Z</time>
      </trkpt>
      <trkpt lat="40.5984780" lon="-3.5583400">
        <ele>625.0</ele>
        <time>2020-09-29T17:35:29Z</time>
      </trkpt>
      <trkpt lat="40.5984780" lon="-3.5583400">
        <ele>625.0</ele>
        <time>2020-09-29T17:35:30Z</time>
      </trkpt>
      <trkpt lat="40.5984780" lon="-3.5583400">
        <ele>625.0</ele>
        <time>2020-09-29T17:35:31Z</time>
      </trkpt>
      <trkpt lat="40.5983520" lon="-3.5584580">
        <ele>625.0</ele>
        <time>2020-09-29T17:35:32Z</time>
      </trkpt>
      <trkpt lat="40.5982250" lon="-3.5585730">
        <ele>625.0</ele>
        <time>2020-09-29T17:35:33Z</time>
      </trkpt>
      <trkpt lat="40.5982250" lon="-3.5585730">
        <ele>625.0</ele>
        <time>2020-09-29T17:35:34Z</time>
      </trkpt>
      <trkpt lat="40.5980970" lon="-3.5586830">
        <ele>625.0</ele>
        <time>2020-09-29T17:35:35Z</time>
      </trkpt>
      <trkpt lat="40.5980320" lon="-3.5587380">
        <ele>625.0</ele>
        <time>2020-09-29T17:35:36Z</time>
      </trkpt>
      <trkpt lat="40.5980320" lon="-3.5587380">
        <ele>625.0</ele>
        <time>2020-09-29T17:35:37Z</time>
      </trkpt>
      <trkpt lat="40.5978950" lon="-3.5588470">
        <ele>624.0</ele>
        <time>2020-09-29T17:35:38Z</time>
      </trkpt>
      <trkpt lat="40.5978950" lon="-3.5588470">
        <ele>624.0</ele>
        <time>2020-09-29T17:35:39Z</time>
      </trkpt>
      <trkpt lat="40.5977570" lon="-3.5589520">
        <ele>624.0</ele>
        <time>2020-09-29T17:35:40Z</time>
      </trkpt>
      <trkpt lat="40.5976870" lon="-3.5590050">
        <ele>624.0</ele>
        <time>2020-09-29T17:35:41Z</time>
      </trkpt>
      <trkpt lat="40.5976870" lon="-3.5590050">
        <ele>624.0</ele>
        <time>2020-09-29T17:35:42Z</time>
      </trkpt>
      <trkpt lat="40.5975430" lon="-3.5591100">
        <ele>624.0</ele>
        <time>2020-09-29T17:35:43Z</time>
      </trkpt>
      <trkpt lat="40.5975430" lon="-3.5591100">
        <ele>624.0</ele>
        <time>2020-09-29T17:35:44Z</time>
      </trkpt>
      <trkpt lat="40.5974030" lon="-3.5592070">
        <ele>624.0</ele>
        <time>2020-09-29T17:35:45Z</time>
      </trkpt>
      <trkpt lat="40.5974030" lon="-3.5592070">
        <ele>624.0</ele>
        <time>2020-09-29T17:35:46Z</time>
      </trkpt>
      <trkpt lat="40.5972650" lon="-3.5592930">
        <ele>624.0</ele>
        <time>2020-09-29T17:35:47Z</time>
      </trkpt>
      <trkpt lat="40.5972650" lon="-3.5592930">
        <ele>624.0</ele>
        <time>2020-09-29T17:35:48Z</time>
      </trkpt>
      <trkpt lat="40.5971980" lon="-3.5593330">
        <ele>624.0</ele>
        <time>2020-09-29T17:35:49Z</time>
      </trkpt>
      <trkpt lat="40.5970620" lon="-3.5594200">
        <ele>624.0</ele>
        <time>2020-09-29T17:35:50Z</time>
      </trkpt>
      <trkpt lat="40.5970620" lon="-3.5594200">
        <ele>624.0</ele>
        <time>2020-09-29T17:35:51Z</time>
      </trkpt>
      <trkpt lat="40.5969230" lon="-3.5595070">
        <ele>624.0</ele>
        <time>2020-09-29T17:35:52Z</time>
      </trkpt>
      <trkpt lat="40.5969230" lon="-3.5595070">
        <ele>624.0</ele>
        <time>2020-09-29T17:35:53Z</time>
      </trkpt>
      <trkpt lat="40.5967880" lon="-3.5595930">
        <ele>624.0</ele>
        <time>2020-09-29T17:35:54Z</time>
      </trkpt>
      <trkpt lat="40.5967230" lon="-3.5596330">
        <ele>624.0</ele>
        <time>2020-09-29T17:35:55Z</time>
      </trkpt>
      <trkpt lat="40.5967230" lon="-3.5596330">
        <ele>624.0</ele>
        <time>2020-09-29T17:35:56Z</time>
      </trkpt>
      <trkpt lat="40.5965850" lon="-3.5597120">
        <ele>624.0</ele>
        <time>2020-09-29T17:35:57Z</time>
      </trkpt>
      <trkpt lat="40.5965850" lon="-3.5597120">
        <ele>624.0</ele>
        <time>2020-09-29T17:35:58Z</time>
      </trkpt>
      <trkpt lat="40.5964480" lon="-3.5597930">
        <ele>624.0</ele>
        <time>2020-09-29T17:35:59Z</time>
      </trkpt>
      <trkpt lat="40.5964480" lon="-3.5597930">
        <ele>624.0</ele>
        <time>2020-09-29T17:36:00Z</time>
      </trkpt>
      <trkpt lat="40.5963080" lon="-3.5598670">
        <ele>625.0</ele>
        <time>2020-09-29T17:36:01Z</time>
      </trkpt>
      <trkpt lat="40.5963080" lon="-3.5598670">
        <ele>625.0</ele>
        <time>2020-09-29T17:36:02Z</time>
      </trkpt>
      <trkpt lat="40.5961680" lon="-3.5599380">
        <ele>625.0</ele>
        <time>2020-09-29T17:36:03Z</time>
      </trkpt>
      <trkpt lat="40.5961680" lon="-3.5599380">
        <ele>625.0</ele>
        <time>2020-09-29T17:36:04Z</time>
      </trkpt>
      <trkpt lat="40.5960280" lon="-3.5600020">
        <ele>625.0</ele>
        <time>2020-09-29T17:36:05Z</time>
      </trkpt>
      <trkpt lat="40.5960280" lon="-3.5600020">
        <ele>625.0</ele>
        <time>2020-09-29T17:36:06Z</time>
      </trkpt>
      <trkpt lat="40.5958920" lon="-3.5600570">
        <ele>625.0</ele>
        <time>2020-09-29T17:36:07Z</time>
      </trkpt>
      <trkpt lat="40.5958230" lon="-3.5600830">
        <ele>625.0</ele>
        <time>2020-09-29T17:36:08Z</time>
      </trkpt>
      <trkpt lat="40.5957570" lon="-3.5601120">
        <ele>625.0</ele>
        <time>2020-09-29T17:36:09Z</time>
      </trkpt>
      <trkpt lat="40.5957570" lon="-3.5601120">
        <ele>625.0</ele>
        <time>2020-09-29T17:36:10Z</time>
      </trkpt>
      <trkpt lat="40.5956230" lon="-3.5601700">
        <ele>625.0</ele>
        <time>2020-09-29T17:36:11Z</time>
      </trkpt>
      <trkpt lat="40.5956230" lon="-3.5601700">
        <ele>625.0</ele>
        <time>2020-09-29T17:36:12Z</time>
      </trkpt>
      <trkpt lat="40.5954930" lon="-3.5602270">
        <ele>626.0</ele>
        <time>2020-09-29T17:36:13Z</time>
      </trkpt>
      <trkpt lat="40.5954930" lon="-3.5602270">
        <ele>626.0</ele>
        <time>2020-09-29T17:36:14Z</time>
      </trkpt>
      <trkpt lat="40.5953670" lon="-3.5602830">
        <ele>626.0</ele>
        <time>2020-09-29T17:36:15Z</time>
      </trkpt>
      <trkpt lat="40.5953030" lon="-3.5603120">
        <ele>626.0</ele>
        <time>2020-09-29T17:36:16Z</time>
      </trkpt>
      <trkpt lat="40.5953030" lon="-3.5603120">
        <ele>626.0</ele>
        <time>2020-09-29T17:36:17Z</time>
      </trkpt>
      <trkpt lat="40.5951780" lon="-3.5603680">
        <ele>626.0</ele>
        <time>2020-09-29T17:36:18Z</time>
      </trkpt>
      <trkpt lat="40.5951780" lon="-3.5603680">
        <ele>626.0</ele>
        <time>2020-09-29T17:36:19Z</time>
      </trkpt>
      <trkpt lat="40.5950500" lon="-3.5604250">
        <ele>626.0</ele>
        <time>2020-09-29T17:36:20Z</time>
      </trkpt>
      <trkpt lat="40.5950500" lon="-3.5604250">
        <ele>626.0</ele>
        <time>2020-09-29T17:36:21Z</time>
      </trkpt>
      <trkpt lat="40.5949200" lon="-3.5604800">
        <ele>626.0</ele>
        <time>2020-09-29T17:36:22Z</time>
      </trkpt>
      <trkpt lat="40.5948500" lon="-3.5605100">
        <ele>626.0</ele>
        <time>2020-09-29T17:36:23Z</time>
      </trkpt>
      <trkpt lat="40.5947780" lon="-3.5605420">
        <ele>626.0</ele>
        <time>2020-09-29T17:36:24Z</time>
      </trkpt>
      <trkpt lat="40.5947780" lon="-3.5605420">
        <ele>626.0</ele>
        <time>2020-09-29T17:36:25Z</time>
      </trkpt>
      <trkpt lat="40.5946320" lon="-3.5605980">
        <ele>626.0</ele>
        <time>2020-09-29T17:36:26Z</time>
      </trkpt>
      <trkpt lat="40.5946320" lon="-3.5605980">
        <ele>626.0</ele>
        <time>2020-09-29T17:36:27Z</time>
      </trkpt>
      <trkpt lat="40.5944820" lon="-3.5606470">
        <ele>626.0</ele>
        <time>2020-09-29T17:36:28Z</time>
      </trkpt>
      <trkpt lat="40.5944820" lon="-3.5606470">
        <ele>626.0</ele>
        <time>2020-09-29T17:36:29Z</time>
      </trkpt>
      <trkpt lat="40.5943270" lon="-3.5606980">
        <ele>626.0</ele>
        <time>2020-09-29T17:36:30Z</time>
      </trkpt>
      <trkpt lat="40.5943270" lon="-3.5606980">
        <ele>626.0</ele>
        <time>2020-09-29T17:36:31Z</time>
      </trkpt>
      <trkpt lat="40.5941720" lon="-3.5607470">
        <ele>625.0</ele>
        <time>2020-09-29T17:36:32Z</time>
      </trkpt>
      <trkpt lat="40.5941720" lon="-3.5607470">
        <ele>625.0</ele>
        <time>2020-09-29T17:36:33Z</time>
      </trkpt>
      <trkpt lat="40.5940130" lon="-3.5607930">
        <ele>625.0</ele>
        <time>2020-09-29T17:36:34Z</time>
      </trkpt>
      <trkpt lat="40.5940130" lon="-3.5607930">
        <ele>625.0</ele>
        <time>2020-09-29T17:36:35Z</time>
      </trkpt>
      <trkpt lat="40.5938500" lon="-3.5608330">
        <ele>625.0</ele>
        <time>2020-09-29T17:36:36Z</time>
      </trkpt>
      <trkpt lat="40.5937650" lon="-3.5608520">
        <ele>625.0</ele>
        <time>2020-09-29T17:36:37Z</time>
      </trkpt>
      <trkpt lat="40.5937650" lon="-3.5608520">
        <ele>624.0</ele>
        <time>2020-09-29T17:36:38Z</time>
      </trkpt>
      <trkpt lat="40.5935970" lon="-3.5608870">
        <ele>624.0</ele>
        <time>2020-09-29T17:36:39Z</time>
      </trkpt>
      <trkpt lat="40.5935130" lon="-3.5609030">
        <ele>624.0</ele>
        <time>2020-09-29T17:36:40Z</time>
      </trkpt>
      <trkpt lat="40.5935130" lon="-3.5609030">
        <ele>624.0</ele>
        <time>2020-09-29T17:36:41Z</time>
      </trkpt>
      <trkpt lat="40.5933520" lon="-3.5609330">
        <ele>623.0</ele>
        <time>2020-09-29T17:36:42Z</time>
      </trkpt>
      <trkpt lat="40.5932720" lon="-3.5609470">
        <ele>623.0</ele>
        <time>2020-09-29T17:36:43Z</time>
      </trkpt>
      <trkpt lat="40.5932720" lon="-3.5609470">
        <ele>623.0</ele>
        <time>2020-09-29T17:36:44Z</time>
      </trkpt>
      <trkpt lat="40.5931120" lon="-3.5609770">
        <ele>623.0</ele>
        <time>2020-09-29T17:36:45Z</time>
      </trkpt>
      <trkpt lat="40.5930400" lon="-3.5610020">
        <ele>623.0</ele>
        <time>2020-09-29T17:36:46Z</time>
      </trkpt>
      <trkpt lat="40.5930400" lon="-3.5610020">
        <ele>623.0</ele>
        <time>2020-09-29T17:36:47Z</time>
      </trkpt>
      <trkpt lat="40.5928970" lon="-3.5610670">
        <ele>623.0</ele>
        <time>2020-09-29T17:36:48Z</time>
      </trkpt>
      <trkpt lat="40.5928280" lon="-3.5610970">
        <ele>623.0</ele>
        <time>2020-09-29T17:36:49Z</time>
      </trkpt>
      <trkpt lat="40.5928280" lon="-3.5610970">
        <ele>623.0</ele>
        <time>2020-09-29T17:36:50Z</time>
      </trkpt>
      <trkpt lat="40.5926870" lon="-3.5611300">
        <ele>623.0</ele>
        <time>2020-09-29T17:36:51Z</time>
      </trkpt>
      <trkpt lat="40.5926870" lon="-3.5611300">
        <ele>623.0</ele>
        <time>2020-09-29T17:36:52Z</time>
      </trkpt>
      <trkpt lat="40.5925380" lon="-3.5611170">
        <ele>623.0</ele>
        <time>2020-09-29T17:36:53Z</time>
      </trkpt>
      <trkpt lat="40.5925380" lon="-3.5611170">
        <ele>623.0</ele>
        <time>2020-09-29T17:36:54Z</time>
      </trkpt>
      <trkpt lat="40.5923950" lon="-3.5610530">
        <ele>623.0</ele>
        <time>2020-09-29T17:36:55Z</time>
      </trkpt>
      <trkpt lat="40.5923300" lon="-3.5610070">
        <ele>623.0</ele>
        <time>2020-09-29T17:36:56Z</time>
      </trkpt>
      <trkpt lat="40.5923300" lon="-3.5610070">
        <ele>623.0</ele>
        <time>2020-09-29T17:36:57Z</time>
      </trkpt>
      <trkpt lat="40.5922020" lon="-3.5609000">
        <ele>623.0</ele>
        <time>2020-09-29T17:36:58Z</time>
      </trkpt>
      <trkpt lat="40.5922020" lon="-3.5609000">
        <ele>623.0</ele>
        <time>2020-09-29T17:36:59Z</time>
      </trkpt>
      <trkpt lat="40.5920680" lon="-3.5608050">
        <ele>623.0</ele>
        <time>2020-09-29T17:37:00Z</time>
      </trkpt>
      <trkpt lat="40.5919970" lon="-3.5607650">
        <ele>623.0</ele>
        <time>2020-09-29T17:37:01Z</time>
      </trkpt>
      <trkpt lat="40.5919970" lon="-3.5607650">
        <ele>623.0</ele>
        <time>2020-09-29T17:37:02Z</time>
      </trkpt>
      <trkpt lat="40.5918480" lon="-3.5607180">
        <ele>623.0</ele>
        <time>2020-09-29T17:37:03Z</time>
      </trkpt>
      <trkpt lat="40.5918480" lon="-3.5607180">
        <ele>623.0</ele>
        <time>2020-09-29T17:37:04Z</time>
      </trkpt>
      <trkpt lat="40.5916900" lon="-3.5606750">
        <ele>623.0</ele>
        <time>2020-09-29T17:37:05Z</time>
      </trkpt>
      <trkpt lat="40.5916900" lon="-3.5606750">
        <ele>623.0</ele>
        <time>2020-09-29T17:37:06Z</time>
      </trkpt>
      <trkpt lat="40.5915320" lon="-3.5606320">
        <ele>623.0</ele>
        <time>2020-09-29T17:37:07Z</time>
      </trkpt>
      <trkpt lat="40.5915320" lon="-3.5606320">
        <ele>623.0</ele>
        <time>2020-09-29T17:37:08Z</time>
      </trkpt>
      <trkpt lat="40.5913780" lon="-3.5605900">
        <ele>622.0</ele>
        <time>2020-09-29T17:37:09Z</time>
      </trkpt>
      <trkpt lat="40.5913780" lon="-3.5605900">
        <ele>622.0</ele>
        <time>2020-09-29T17:37:10Z</time>
      </trkpt>
      <trkpt lat="40.5912270" lon="-3.5605430">
        <ele>622.0</ele>
        <time>2020-09-29T17:37:11Z</time>
      </trkpt>
      <trkpt lat="40.5911500" lon="-3.5605220">
        <ele>622.0</ele>
        <time>2020-09-29T17:37:12Z</time>
      </trkpt>
      <trkpt lat="40.5910730" lon="-3.5604980">
        <ele>622.0</ele>
        <time>2020-09-29T17:37:13Z</time>
      </trkpt>
      <trkpt lat="40.5910730" lon="-3.5604980">
        <ele>622.0</ele>
        <time>2020-09-29T17:37:14Z</time>
      </trkpt>
      <trkpt lat="40.5909280" lon="-3.5604500">
        <ele>622.0</ele>
        <time>2020-09-29T17:37:15Z</time>
      </trkpt>
      <trkpt lat="40.5909280" lon="-3.5604500">
        <ele>622.0</ele>
        <time>2020-09-29T17:37:16Z</time>
      </trkpt>
      <trkpt lat="40.5907870" lon="-3.5604050">
        <ele>622.0</ele>
        <time>2020-09-29T17:37:17Z</time>
      </trkpt>
      <trkpt lat="40.5907870" lon="-3.5604050">
        <ele>622.0</ele>
        <time>2020-09-29T17:37:18Z</time>
      </trkpt>
      <trkpt lat="40.5906470" lon="-3.5603650">
        <ele>622.0</ele>
        <time>2020-09-29T17:37:19Z</time>
      </trkpt>
      <trkpt lat="40.5906470" lon="-3.5603650">
        <ele>622.0</ele>
        <time>2020-09-29T17:37:20Z</time>
      </trkpt>
      <trkpt lat="40.5905120" lon="-3.5603220">
        <ele>622.0</ele>
        <time>2020-09-29T17:37:21Z</time>
      </trkpt>
      <trkpt lat="40.5905120" lon="-3.5603220">
        <ele>622.0</ele>
        <time>2020-09-29T17:37:22Z</time>
      </trkpt>
      <trkpt lat="40.5903750" lon="-3.5602750">
        <ele>623.0</ele>
        <time>2020-09-29T17:37:23Z</time>
      </trkpt>
      <trkpt lat="40.5903100" lon="-3.5602520">
        <ele>623.0</ele>
        <time>2020-09-29T17:37:24Z</time>
      </trkpt>
      <trkpt lat="40.5902420" lon="-3.5602270">
        <ele>623.0</ele>
        <time>2020-09-29T17:37:25Z</time>
      </trkpt>
      <trkpt lat="40.5902420" lon="-3.5602270">
        <ele>623.0</ele>
        <time>2020-09-29T17:37:26Z</time>
      </trkpt>
      <trkpt lat="40.5901070" lon="-3.5601800">
        <ele>623.0</ele>
        <time>2020-09-29T17:37:27Z</time>
      </trkpt>
      <trkpt lat="40.5901070" lon="-3.5601800">
        <ele>623.0</ele>
        <time>2020-09-29T17:37:28Z</time>
      </trkpt>
      <trkpt lat="40.5899670" lon="-3.5601330">
        <ele>623.0</ele>
        <time>2020-09-29T17:37:29Z</time>
      </trkpt>
      <trkpt lat="40.5899670" lon="-3.5601330">
        <ele>623.0</ele>
        <time>2020-09-29T17:37:30Z</time>
      </trkpt>
      <trkpt lat="40.5898180" lon="-3.5600880">
        <ele>623.0</ele>
        <time>2020-09-29T17:37:31Z</time>
      </trkpt>
      <trkpt lat="40.5897380" lon="-3.5600600">
        <ele>623.0</ele>
        <time>2020-09-29T17:37:32Z</time>
      </trkpt>
      <trkpt lat="40.5897380" lon="-3.5600600">
        <ele>623.0</ele>
        <time>2020-09-29T17:37:33Z</time>
      </trkpt>
      <trkpt lat="40.5895770" lon="-3.5600200">
        <ele>623.0</ele>
        <time>2020-09-29T17:37:34Z</time>
      </trkpt>
      <trkpt lat="40.5894950" lon="-3.5600000">
        <ele>623.0</ele>
        <time>2020-09-29T17:37:35Z</time>
      </trkpt>
      <trkpt lat="40.5894130" lon="-3.5599830">
        <ele>623.0</ele>
        <time>2020-09-29T17:37:36Z</time>
      </trkpt>
      <trkpt lat="40.5894130" lon="-3.5599830">
        <ele>623.0</ele>
        <time>2020-09-29T17:37:37Z</time>
      </trkpt>
      <trkpt lat="40.5892480" lon="-3.5599520">
        <ele>622.0</ele>
        <time>2020-09-29T17:37:38Z</time>
      </trkpt>
      <trkpt lat="40.5892480" lon="-3.5599520">
        <ele>622.0</ele>
        <time>2020-09-29T17:37:39Z</time>
      </trkpt>
      <trkpt lat="40.5890830" lon="-3.5599280">
        <ele>622.0</ele>
        <time>2020-09-29T17:37:40Z</time>
      </trkpt>
      <trkpt lat="40.5890830" lon="-3.5599280">
        <ele>622.0</ele>
        <time>2020-09-29T17:37:41Z</time>
      </trkpt>
      <trkpt lat="40.5889150" lon="-3.5599170">
        <ele>622.0</ele>
        <time>2020-09-29T17:37:42Z</time>
      </trkpt>
      <trkpt lat="40.5888350" lon="-3.5599130">
        <ele>622.0</ele>
        <time>2020-09-29T17:37:43Z</time>
      </trkpt>
      <trkpt lat="40.5888350" lon="-3.5599130">
        <ele>622.0</ele>
        <time>2020-09-29T17:37:44Z</time>
      </trkpt>
      <trkpt lat="40.5886780" lon="-3.5599100">
        <ele>622.0</ele>
        <time>2020-09-29T17:37:45Z</time>
      </trkpt>
      <trkpt lat="40.5886780" lon="-3.5599100">
        <ele>622.0</ele>
        <time>2020-09-29T17:37:46Z</time>
      </trkpt>
      <trkpt lat="40.5885280" lon="-3.5599130">
        <ele>622.0</ele>
        <time>2020-09-29T17:37:47Z</time>
      </trkpt>
      <trkpt lat="40.5885280" lon="-3.5599130">
        <ele>622.0</ele>
        <time>2020-09-29T17:37:48Z</time>
      </trkpt>
      <trkpt lat="40.5883700" lon="-3.5599130">
        <ele>622.0</ele>
        <time>2020-09-29T17:37:49Z</time>
      </trkpt>
      <trkpt lat="40.5883700" lon="-3.5599130">
        <ele>621.0</ele>
        <time>2020-09-29T17:37:50Z</time>
      </trkpt>
      <trkpt lat="40.5882080" lon="-3.5599150">
        <ele>621.0</ele>
        <time>2020-09-29T17:37:51Z</time>
      </trkpt>
      <trkpt lat="40.5882080" lon="-3.5599150">
        <ele>621.0</ele>
        <time>2020-09-29T17:37:52Z</time>
      </trkpt>
      <trkpt lat="40.5880470" lon="-3.5599170">
        <ele>621.0</ele>
        <time>2020-09-29T17:37:53Z</time>
      </trkpt>
      <trkpt lat="40.5880470" lon="-3.5599170">
        <ele>621.0</ele>
        <time>2020-09-29T17:37:54Z</time>
      </trkpt>
      <trkpt lat="40.5878850" lon="-3.5599170">
        <ele>621.0</ele>
        <time>2020-09-29T17:37:55Z</time>
      </trkpt>
      <trkpt lat="40.5878850" lon="-3.5599170">
        <ele>621.0</ele>
        <time>2020-09-29T17:37:56Z</time>
      </trkpt>
      <trkpt lat="40.5878260" lon="-3.5599190">
        <ele>621.0</ele>
        <time>2020-09-29T17:37:57Z</time>
      </trkpt>
      <trkpt lat="40.5877660" lon="-3.5599200">
        <ele>621.0</ele>
        <time>2020-09-29T17:37:58Z</time>
      </trkpt>
      <trkpt lat="40.5876070" lon="-3.5599230">
        <ele>621.0</ele>
        <time>2020-09-29T17:37:59Z</time>
      </trkpt>
      <trkpt lat="40.5875670" lon="-3.5599230">
        <ele>621.0</ele>
        <time>2020-09-29T17:38:00Z</time>
      </trkpt>
      <trkpt lat="40.5874870" lon="-3.5599230">
        <ele>621.0</ele>
        <time>2020-09-29T17:38:01Z</time>
      </trkpt>
      <trkpt lat="40.5874050" lon="-3.5599230">
        <ele>621.0</ele>
        <time>2020-09-29T17:38:02Z</time>
      </trkpt>
      <trkpt lat="40.5872480" lon="-3.5599270">
        <ele>621.0</ele>
        <time>2020-09-29T17:38:03Z</time>
      </trkpt>
      <trkpt lat="40.5871670" lon="-3.5599280">
        <ele>621.0</ele>
        <time>2020-09-29T17:38:04Z</time>
      </trkpt>
      <trkpt lat="40.5871670" lon="-3.5599280">
        <ele>621.0</ele>
        <time>2020-09-29T17:38:05Z</time>
      </trkpt>
      <trkpt lat="40.5870030" lon="-3.5599300">
        <ele>621.0</ele>
        <time>2020-09-29T17:38:06Z</time>
      </trkpt>
      <trkpt lat="40.5869220" lon="-3.5599330">
        <ele>621.0</ele>
        <time>2020-09-29T17:38:07Z</time>
      </trkpt>
      <trkpt lat="40.5869220" lon="-3.5599330">
        <ele>621.0</ele>
        <time>2020-09-29T17:38:08Z</time>
      </trkpt>
      <trkpt lat="40.5867570" lon="-3.5599380">
        <ele>621.0</ele>
        <time>2020-09-29T17:38:09Z</time>
      </trkpt>
      <trkpt lat="40.5867570" lon="-3.5599380">
        <ele>621.0</ele>
        <time>2020-09-29T17:38:10Z</time>
      </trkpt>
      <trkpt lat="40.5865880" lon="-3.5599380">
        <ele>621.0</ele>
        <time>2020-09-29T17:38:11Z</time>
      </trkpt>
      <trkpt lat="40.5865880" lon="-3.5599380">
        <ele>621.0</ele>
        <time>2020-09-29T17:38:12Z</time>
      </trkpt>
      <trkpt lat="40.5864230" lon="-3.5599380">
        <ele>620.0</ele>
        <time>2020-09-29T17:38:13Z</time>
      </trkpt>
      <trkpt lat="40.5864230" lon="-3.5599380">
        <ele>620.0</ele>
        <time>2020-09-29T17:38:14Z</time>
      </trkpt>
      <trkpt lat="40.5862630" lon="-3.5599400">
        <ele>620.0</ele>
        <time>2020-09-29T17:38:15Z</time>
      </trkpt>
      <trkpt lat="40.5861830" lon="-3.5599380">
        <ele>620.0</ele>
        <time>2020-09-29T17:38:16Z</time>
      </trkpt>
      <trkpt lat="40.5861830" lon="-3.5599380">
        <ele>620.0</ele>
        <time>2020-09-29T17:38:17Z</time>
      </trkpt>
      <trkpt lat="40.5860200" lon="-3.5599320">
        <ele>620.0</ele>
        <time>2020-09-29T17:38:18Z</time>
      </trkpt>
      <trkpt lat="40.5860200" lon="-3.5599320">
        <ele>620.0</ele>
        <time>2020-09-29T17:38:19Z</time>
      </trkpt>
      <trkpt lat="40.5858550" lon="-3.5599180">
        <ele>620.0</ele>
        <time>2020-09-29T17:38:20Z</time>
      </trkpt>
      <trkpt lat="40.5857730" lon="-3.5599080">
        <ele>620.0</ele>
        <time>2020-09-29T17:38:21Z</time>
      </trkpt>
      <trkpt lat="40.5857730" lon="-3.5599080">
        <ele>620.0</ele>
        <time>2020-09-29T17:38:22Z</time>
      </trkpt>
      <trkpt lat="40.5856130" lon="-3.5598830">
        <ele>620.0</ele>
        <time>2020-09-29T17:38:23Z</time>
      </trkpt>
      <trkpt lat="40.5856130" lon="-3.5598830">
        <ele>620.0</ele>
        <time>2020-09-29T17:38:24Z</time>
      </trkpt>
      <trkpt lat="40.5855360" lon="-3.5598910">
        <ele>620.0</ele>
        <time>2020-09-29T17:38:25Z</time>
      </trkpt>
      <trkpt lat="40.5854580" lon="-3.5598990">
        <ele>620.0</ele>
        <time>2020-09-29T17:38:26Z</time>
      </trkpt>
      <trkpt lat="40.5853030" lon="-3.5599150">
        <ele>620.0</ele>
        <time>2020-09-29T17:38:27Z</time>
      </trkpt>
      <trkpt lat="40.5852380" lon="-3.5599730">
        <ele>620.0</ele>
        <time>2020-09-29T17:38:28Z</time>
      </trkpt>
      <trkpt lat="40.5852380" lon="-3.5599730">
        <ele>620.0</ele>
        <time>2020-09-29T17:38:29Z</time>
      </trkpt>
      <trkpt lat="40.5851030" lon="-3.5600930">
        <ele>620.0</ele>
        <time>2020-09-29T17:38:30Z</time>
      </trkpt>
      <trkpt lat="40.5850270" lon="-3.5601280">
        <ele>620.0</ele>
        <time>2020-09-29T17:38:31Z</time>
      </trkpt>
      <trkpt lat="40.5850270" lon="-3.5601280">
        <ele>620.0</ele>
        <time>2020-09-29T17:38:32Z</time>
      </trkpt>
      <trkpt lat="40.5848650" lon="-3.5601450">
        <ele>620.0</ele>
        <time>2020-09-29T17:38:33Z</time>
      </trkpt>
      <trkpt lat="40.5848650" lon="-3.5601450">
        <ele>620.0</ele>
        <time>2020-09-29T17:38:34Z</time>
      </trkpt>
      <trkpt lat="40.5847120" lon="-3.5600930">
        <ele>620.0</ele>
        <time>2020-09-29T17:38:35Z</time>
      </trkpt>
      <trkpt lat="40.5845820" lon="-3.5599820">
        <ele>620.0</ele>
        <time>2020-09-29T17:38:36Z</time>
      </trkpt>
      <trkpt lat="40.5845820" lon="-3.5599820">
        <ele>620.0</ele>
        <time>2020-09-29T17:38:37Z</time>
      </trkpt>
      <trkpt lat="40.5844820" lon="-3.5598220">
        <ele>619.0</ele>
        <time>2020-09-29T17:38:38Z</time>
      </trkpt>
      <trkpt lat="40.5844820" lon="-3.5598220">
        <ele>619.0</ele>
        <time>2020-09-29T17:38:39Z</time>
      </trkpt>
      <trkpt lat="40.5844380" lon="-3.5596200">
        <ele>619.0</ele>
        <time>2020-09-29T17:38:40Z</time>
      </trkpt>
      <trkpt lat="40.5844380" lon="-3.5595170">
        <ele>619.0</ele>
        <time>2020-09-29T17:38:41Z</time>
      </trkpt>
      <trkpt lat="40.5844480" lon="-3.5594150">
        <ele>619.0</ele>
        <time>2020-09-29T17:38:42Z</time>
      </trkpt>
      <trkpt lat="40.5844480" lon="-3.5594150">
        <ele>619.0</ele>
        <time>2020-09-29T17:38:43Z</time>
      </trkpt>
      <trkpt lat="40.5844480" lon="-3.5594150">
        <ele>619.0</ele>
        <time>2020-09-29T17:38:44Z</time>
      </trkpt>
      <trkpt lat="40.5844880" lon="-3.5592120">
        <ele>619.0</ele>
        <time>2020-09-29T17:38:45Z</time>
      </trkpt>
      <trkpt lat="40.5845400" lon="-3.5590150">
        <ele>619.0</ele>
        <time>2020-09-29T17:38:46Z</time>
      </trkpt>
      <trkpt lat="40.5845550" lon="-3.5589150">
        <ele>619.0</ele>
        <time>2020-09-29T17:38:47Z</time>
      </trkpt>
      <trkpt lat="40.5845600" lon="-3.5588150">
        <ele>619.0</ele>
        <time>2020-09-29T17:38:48Z</time>
      </trkpt>
      <trkpt lat="40.5845600" lon="-3.5588150">
        <ele>619.0</ele>
        <time>2020-09-29T17:38:49Z</time>
      </trkpt>
      <trkpt lat="40.5845530" lon="-3.5586230">
        <ele>620.0</ele>
        <time>2020-09-29T17:38:50Z</time>
      </trkpt>
      <trkpt lat="40.5845480" lon="-3.5585320">
        <ele>620.0</ele>
        <time>2020-09-29T17:38:51Z</time>
      </trkpt>
      <trkpt lat="40.5845480" lon="-3.5585320">
        <ele>620.0</ele>
        <time>2020-09-29T17:38:52Z</time>
      </trkpt>
      <trkpt lat="40.5845350" lon="-3.5583530">
        <ele>620.0</ele>
        <time>2020-09-29T17:38:53Z</time>
      </trkpt>
      <trkpt lat="40.5845350" lon="-3.5583530">
        <ele>620.0</ele>
        <time>2020-09-29T17:38:54Z</time>
      </trkpt>
      <trkpt lat="40.5845350" lon="-3.5583530">
        <ele>620.0</ele>
        <time>2020-09-29T17:38:55Z</time>
      </trkpt>
      <trkpt lat="40.5845200" lon="-3.5581820">
        <ele>621.0</ele>
        <time>2020-09-29T17:38:56Z</time>
      </trkpt>
      <trkpt lat="40.5845080" lon="-3.5580220">
        <ele>621.0</ele>
        <time>2020-09-29T17:38:57Z</time>
      </trkpt>
      <trkpt lat="40.5845080" lon="-3.5580220">
        <ele>621.0</ele>
        <time>2020-09-29T17:38:58Z</time>
      </trkpt>
      <trkpt lat="40.5844950" lon="-3.5578730">
        <ele>622.0</ele>
        <time>2020-09-29T17:38:59Z</time>
      </trkpt>
      <trkpt lat="40.5844950" lon="-3.5578730">
        <ele>622.0</ele>
        <time>2020-09-29T17:39:00Z</time>
      </trkpt>
      <trkpt lat="40.5844880" lon="-3.5577320">
        <ele>622.0</ele>
        <time>2020-09-29T17:39:01Z</time>
      </trkpt>
      <trkpt lat="40.5844820" lon="-3.5576620">
        <ele>622.0</ele>
        <time>2020-09-29T17:39:02Z</time>
      </trkpt>
      <trkpt lat="40.5844770" lon="-3.5576000">
        <ele>623.0</ele>
        <time>2020-09-29T17:39:03Z</time>
      </trkpt>
      <trkpt lat="40.5844770" lon="-3.5576000">
        <ele>623.0</ele>
        <time>2020-09-29T17:39:04Z</time>
      </trkpt>
      <trkpt lat="40.5844680" lon="-3.5574730">
        <ele>623.0</ele>
        <time>2020-09-29T17:39:05Z</time>
      </trkpt>
      <trkpt lat="40.5844680" lon="-3.5574730">
        <ele>623.0</ele>
        <time>2020-09-29T17:39:06Z</time>
      </trkpt>
      <trkpt lat="40.5844600" lon="-3.5573500">
        <ele>624.0</ele>
        <time>2020-09-29T17:39:07Z</time>
      </trkpt>
      <trkpt lat="40.5844550" lon="-3.5572900">
        <ele>624.0</ele>
        <time>2020-09-29T17:39:08Z</time>
      </trkpt>
      <trkpt lat="40.5844550" lon="-3.5572900">
        <ele>624.0</ele>
        <time>2020-09-29T17:39:09Z</time>
      </trkpt>
      <trkpt lat="40.5844550" lon="-3.5572900">
        <ele>624.0</ele>
        <time>2020-09-29T17:39:10Z</time>
      </trkpt>
      <trkpt lat="40.5844420" lon="-3.5571200">
        <ele>625.0</ele>
        <time>2020-09-29T17:39:11Z</time>
      </trkpt>
      <trkpt lat="40.5844330" lon="-3.5570700">
        <ele>625.0</ele>
        <time>2020-09-29T17:39:12Z</time>
      </trkpt>
      <trkpt lat="40.5844270" lon="-3.5570170">
        <ele>625.0</ele>
        <time>2020-09-29T17:39:13Z</time>
      </trkpt>
      <trkpt lat="40.5844270" lon="-3.5570170">
        <ele>625.0</ele>
        <time>2020-09-29T17:39:14Z</time>
      </trkpt>
      <trkpt lat="40.5844270" lon="-3.5570170">
        <ele>626.0</ele>
        <time>2020-09-29T17:39:15Z</time>
      </trkpt>
      <trkpt lat="40.5844200" lon="-3.5568980">
        <ele>626.0</ele>
        <time>2020-09-29T17:39:16Z</time>
      </trkpt>
      <trkpt lat="40.5844130" lon="-3.5567880">
        <ele>626.0</ele>
        <time>2020-09-29T17:39:17Z</time>
      </trkpt>
      <trkpt lat="40.5844100" lon="-3.5567320">
        <ele>626.0</ele>
        <time>2020-09-29T17:39:18Z</time>
      </trkpt>
      <trkpt lat="40.5844100" lon="-3.5567320">
        <ele>626.0</ele>
        <time>2020-09-29T17:39:19Z</time>
      </trkpt>
      <trkpt lat="40.5844120" lon="-3.5566130">
        <ele>626.0</ele>
        <time>2020-09-29T17:39:20Z</time>
      </trkpt>
      <trkpt lat="40.5844120" lon="-3.5566130">
        <ele>626.0</ele>
        <time>2020-09-29T17:39:21Z</time>
      </trkpt>
      <trkpt lat="40.5844080" lon="-3.5565020">
        <ele>626.0</ele>
        <time>2020-09-29T17:39:22Z</time>
      </trkpt>
      <trkpt lat="40.5844080" lon="-3.5564450">
        <ele>627.0</ele>
        <time>2020-09-29T17:39:23Z</time>
      </trkpt>
      <trkpt lat="40.5844080" lon="-3.5564450">
        <ele>627.0</ele>
        <time>2020-09-29T17:39:24Z</time>
      </trkpt>
      <trkpt lat="40.5844120" lon="-3.5563270">
        <ele>627.0</ele>
        <time>2020-09-29T17:39:25Z</time>
      </trkpt>
      <trkpt lat="40.5844120" lon="-3.5563270">
        <ele>627.0</ele>
        <time>2020-09-29T17:39:26Z</time>
      </trkpt>
      <trkpt lat="40.5844170" lon="-3.5562080">
        <ele>627.0</ele>
        <time>2020-09-29T17:39:27Z</time>
      </trkpt>
      <trkpt lat="40.5844170" lon="-3.5562080">
        <ele>628.0</ele>
        <time>2020-09-29T17:39:28Z</time>
      </trkpt>
      <trkpt lat="40.5844180" lon="-3.5560920">
        <ele>628.0</ele>
        <time>2020-09-29T17:39:29Z</time>
      </trkpt>
      <trkpt lat="40.5844170" lon="-3.5560330">
        <ele>628.0</ele>
        <time>2020-09-29T17:39:30Z</time>
      </trkpt>
      <trkpt lat="40.5844170" lon="-3.5560330">
        <ele>628.0</ele>
        <time>2020-09-29T17:39:31Z</time>
      </trkpt>
      <trkpt lat="40.5844150" lon="-3.5559150">
        <ele>629.0</ele>
        <time>2020-09-29T17:39:32Z</time>
      </trkpt>
      <trkpt lat="40.5844140" lon="-3.5558510">
        <ele>629.0</ele>
        <time>2020-09-29T17:39:33Z</time>
      </trkpt>
      <trkpt lat="40.5844130" lon="-3.5557880">
        <ele>629.0</ele>
        <time>2020-09-29T17:39:34Z</time>
      </trkpt>
      <trkpt lat="40.5844130" lon="-3.5557880">
        <ele>629.0</ele>
        <time>2020-09-29T17:39:35Z</time>
      </trkpt>
      <trkpt lat="40.5844200" lon="-3.5556680">
        <ele>629.0</ele>
        <time>2020-09-29T17:39:36Z</time>
      </trkpt>
      <trkpt lat="40.5844200" lon="-3.5556680">
        <ele>629.0</ele>
        <time>2020-09-29T17:39:37Z</time>
      </trkpt>
      <trkpt lat="40.5844220" lon="-3.5555370">
        <ele>629.0</ele>
        <time>2020-09-29T17:39:38Z</time>
      </trkpt>
      <trkpt lat="40.5844220" lon="-3.5555370">
        <ele>629.0</ele>
        <time>2020-09-29T17:39:39Z</time>
      </trkpt>
      <trkpt lat="40.5844230" lon="-3.5554020">
        <ele>630.0</ele>
        <time>2020-09-29T17:39:40Z</time>
      </trkpt>
      <trkpt lat="40.5844230" lon="-3.5554020">
        <ele>630.0</ele>
        <time>2020-09-29T17:39:41Z</time>
      </trkpt>
      <trkpt lat="40.5844170" lon="-3.5552720">
        <ele>630.0</ele>
        <time>2020-09-29T17:39:42Z</time>
      </trkpt>
      <trkpt lat="40.5844170" lon="-3.5552720">
        <ele>630.0</ele>
        <time>2020-09-29T17:39:43Z</time>
      </trkpt>
      <trkpt lat="40.5844170" lon="-3.5551420">
        <ele>630.0</ele>
        <time>2020-09-29T17:39:44Z</time>
      </trkpt>
      <trkpt lat="40.5844180" lon="-3.5550730">
        <ele>630.0</ele>
        <time>2020-09-29T17:39:45Z</time>
      </trkpt>
      <trkpt lat="40.5844180" lon="-3.5550730">
        <ele>630.0</ele>
        <time>2020-09-29T17:39:46Z</time>
      </trkpt>
      <trkpt lat="40.5844180" lon="-3.5550730">
        <ele>630.0</ele>
        <time>2020-09-29T17:39:47Z</time>
      </trkpt>
      <trkpt lat="40.5844180" lon="-3.5549330">
        <ele>630.0</ele>
        <time>2020-09-29T17:39:48Z</time>
      </trkpt>
      <trkpt lat="40.5844150" lon="-3.5547970">
        <ele>630.0</ele>
        <time>2020-09-29T17:39:49Z</time>
      </trkpt>
      <trkpt lat="40.5844150" lon="-3.5547970">
        <ele>630.0</ele>
        <time>2020-09-29T17:39:50Z</time>
      </trkpt>
      <trkpt lat="40.5844080" lon="-3.5546580">
        <ele>630.0</ele>
        <time>2020-09-29T17:39:51Z</time>
      </trkpt>
      <trkpt lat="40.5844080" lon="-3.5546580">
        <ele>630.0</ele>
        <time>2020-09-29T17:39:52Z</time>
      </trkpt>
      <trkpt lat="40.5844020" lon="-3.5545200">
        <ele>630.0</ele>
        <time>2020-09-29T17:39:53Z</time>
      </trkpt>
      <trkpt lat="40.5843980" lon="-3.5544530">
        <ele>631.0</ele>
        <time>2020-09-29T17:39:54Z</time>
      </trkpt>
      <trkpt lat="40.5843980" lon="-3.5544530">
        <ele>631.0</ele>
        <time>2020-09-29T17:39:55Z</time>
      </trkpt>
      <trkpt lat="40.5843900" lon="-3.5543170">
        <ele>631.0</ele>
        <time>2020-09-29T17:39:56Z</time>
      </trkpt>
      <trkpt lat="40.5843900" lon="-3.5543170">
        <ele>631.0</ele>
        <time>2020-09-29T17:39:57Z</time>
      </trkpt>
      <trkpt lat="40.5843780" lon="-3.5541820">
        <ele>631.0</ele>
        <time>2020-09-29T17:39:58Z</time>
      </trkpt>
      <trkpt lat="40.5843780" lon="-3.5541820">
        <ele>631.0</ele>
        <time>2020-09-29T17:39:59Z</time>
      </trkpt>
      <trkpt lat="40.5843620" lon="-3.5540480">
        <ele>631.0</ele>
        <time>2020-09-29T17:40:00Z</time>
      </trkpt>
      <trkpt lat="40.5843620" lon="-3.5540480">
        <ele>631.0</ele>
        <time>2020-09-29T17:40:01Z</time>
      </trkpt>
      <trkpt lat="40.5843520" lon="-3.5539080">
        <ele>631.0</ele>
        <time>2020-09-29T17:40:02Z</time>
      </trkpt>
      <trkpt lat="40.5843470" lon="-3.5538380">
        <ele>631.0</ele>
        <time>2020-09-29T17:40:03Z</time>
      </trkpt>
      <trkpt lat="40.5843400" lon="-3.5537700">
        <ele>631.0</ele>
        <time>2020-09-29T17:40:04Z</time>
      </trkpt>
      <trkpt lat="40.5843350" lon="-3.5537000">
        <ele>631.0</ele>
        <time>2020-09-29T17:40:05Z</time>
      </trkpt>
      <trkpt lat="40.5843350" lon="-3.5537000">
        <ele>631.0</ele>
        <time>2020-09-29T17:40:06Z</time>
      </trkpt>
      <trkpt lat="40.5843270" lon="-3.5535600">
        <ele>631.0</ele>
        <time>2020-09-29T17:40:07Z</time>
      </trkpt>
      <trkpt lat="40.5843270" lon="-3.5535600">
        <ele>631.0</ele>
        <time>2020-09-29T17:40:08Z</time>
      </trkpt>
      <trkpt lat="40.5843270" lon="-3.5535600">
        <ele>631.0</ele>
        <time>2020-09-29T17:40:09Z</time>
      </trkpt>
      <trkpt lat="40.5843100" lon="-3.5534220">
        <ele>631.0</ele>
        <time>2020-09-29T17:40:10Z</time>
      </trkpt>
      <trkpt lat="40.5842930" lon="-3.5532850">
        <ele>631.0</ele>
        <time>2020-09-29T17:40:11Z</time>
      </trkpt>
      <trkpt lat="40.5842850" lon="-3.5532150">
        <ele>631.0</ele>
        <time>2020-09-29T17:40:12Z</time>
      </trkpt>
      <trkpt lat="40.5842850" lon="-3.5532150">
        <ele>631.0</ele>
        <time>2020-09-29T17:40:13Z</time>
      </trkpt>
      <trkpt lat="40.5842700" lon="-3.5530770">
        <ele>631.0</ele>
        <time>2020-09-29T17:40:14Z</time>
      </trkpt>
      <trkpt lat="40.5842620" lon="-3.5530070">
        <ele>631.0</ele>
        <time>2020-09-29T17:40:15Z</time>
      </trkpt>
      <trkpt lat="40.5842620" lon="-3.5530070">
        <ele>631.0</ele>
        <time>2020-09-29T17:40:16Z</time>
      </trkpt>
      <trkpt lat="40.5842450" lon="-3.5528700">
        <ele>631.0</ele>
        <time>2020-09-29T17:40:17Z</time>
      </trkpt>
      <trkpt lat="40.5842450" lon="-3.5528700">
        <ele>631.0</ele>
        <time>2020-09-29T17:40:18Z</time>
      </trkpt>
      <trkpt lat="40.5842230" lon="-3.5527350">
        <ele>631.0</ele>
        <time>2020-09-29T17:40:19Z</time>
      </trkpt>
      <trkpt lat="40.5842230" lon="-3.5527350">
        <ele>631.0</ele>
        <time>2020-09-29T17:40:20Z</time>
      </trkpt>
      <trkpt lat="40.5842030" lon="-3.5525930">
        <ele>631.0</ele>
        <time>2020-09-29T17:40:21Z</time>
      </trkpt>
      <trkpt lat="40.5842030" lon="-3.5525930">
        <ele>632.0</ele>
        <time>2020-09-29T17:40:22Z</time>
      </trkpt>
      <trkpt lat="40.5841800" lon="-3.5524570">
        <ele>632.0</ele>
        <time>2020-09-29T17:40:23Z</time>
      </trkpt>
      <trkpt lat="40.5841800" lon="-3.5524570">
        <ele>632.0</ele>
        <time>2020-09-29T17:40:24Z</time>
      </trkpt>
      <trkpt lat="40.5841530" lon="-3.5523200">
        <ele>632.0</ele>
        <time>2020-09-29T17:40:25Z</time>
      </trkpt>
      <trkpt lat="40.5841420" lon="-3.5522520">
        <ele>632.0</ele>
        <time>2020-09-29T17:40:26Z</time>
      </trkpt>
      <trkpt lat="40.5841420" lon="-3.5522520">
        <ele>632.0</ele>
        <time>2020-09-29T17:40:27Z</time>
      </trkpt>
      <trkpt lat="40.5841170" lon="-3.5521180">
        <ele>632.0</ele>
        <time>2020-09-29T17:40:28Z</time>
      </trkpt>
      <trkpt lat="40.5841020" lon="-3.5520500">
        <ele>632.0</ele>
        <time>2020-09-29T17:40:29Z</time>
      </trkpt>
      <trkpt lat="40.5841020" lon="-3.5520500">
        <ele>632.0</ele>
        <time>2020-09-29T17:40:30Z</time>
      </trkpt>
      <trkpt lat="40.5841020" lon="-3.5520500">
        <ele>632.0</ele>
        <time>2020-09-29T17:40:31Z</time>
      </trkpt>
      <trkpt lat="40.5840720" lon="-3.5519130">
        <ele>632.0</ele>
        <time>2020-09-29T17:40:32Z</time>
      </trkpt>
      <trkpt lat="40.5840420" lon="-3.5517770">
        <ele>632.0</ele>
        <time>2020-09-29T17:40:33Z</time>
      </trkpt>
      <trkpt lat="40.5840280" lon="-3.5517130">
        <ele>632.0</ele>
        <time>2020-09-29T17:40:34Z</time>
      </trkpt>
      <trkpt lat="40.5840280" lon="-3.5517130">
        <ele>633.0</ele>
        <time>2020-09-29T17:40:35Z</time>
      </trkpt>
      <trkpt lat="40.5839970" lon="-3.5515850">
        <ele>633.0</ele>
        <time>2020-09-29T17:40:36Z</time>
      </trkpt>
      <trkpt lat="40.5839970" lon="-3.5515850">
        <ele>633.0</ele>
        <time>2020-09-29T17:40:37Z</time>
      </trkpt>
      <trkpt lat="40.5839630" lon="-3.5514580">
        <ele>633.0</ele>
        <time>2020-09-29T17:40:38Z</time>
      </trkpt>
      <trkpt lat="40.5839630" lon="-3.5514580">
        <ele>633.0</ele>
        <time>2020-09-29T17:40:39Z</time>
      </trkpt>
      <trkpt lat="40.5839320" lon="-3.5513280">
        <ele>633.0</ele>
        <time>2020-09-29T17:40:40Z</time>
      </trkpt>
      <trkpt lat="40.5839130" lon="-3.5512620">
        <ele>633.0</ele>
        <time>2020-09-29T17:40:41Z</time>
      </trkpt>
      <trkpt lat="40.5839130" lon="-3.5512620">
        <ele>633.0</ele>
        <time>2020-09-29T17:40:42Z</time>
      </trkpt>
      <trkpt lat="40.5839130" lon="-3.5512620">
        <ele>633.0</ele>
        <time>2020-09-29T17:40:43Z</time>
      </trkpt>
      <trkpt lat="40.5838780" lon="-3.5511370">
        <ele>633.0</ele>
        <time>2020-09-29T17:40:44Z</time>
      </trkpt>
      <trkpt lat="40.5838780" lon="-3.5511370">
        <ele>633.0</ele>
        <time>2020-09-29T17:40:45Z</time>
      </trkpt>
      <trkpt lat="40.5838300" lon="-3.5510150">
        <ele>633.0</ele>
        <time>2020-09-29T17:40:46Z</time>
      </trkpt>
      <trkpt lat="40.5837870" lon="-3.5508880">
        <ele>634.0</ele>
        <time>2020-09-29T17:40:47Z</time>
      </trkpt>
      <trkpt lat="40.5837650" lon="-3.5508300">
        <ele>634.0</ele>
        <time>2020-09-29T17:40:48Z</time>
      </trkpt>
      <trkpt lat="40.5837650" lon="-3.5508300">
        <ele>634.0</ele>
        <time>2020-09-29T17:40:49Z</time>
      </trkpt>
      <trkpt lat="40.5837220" lon="-3.5506980">
        <ele>634.0</ele>
        <time>2020-09-29T17:40:50Z</time>
      </trkpt>
      <trkpt lat="40.5837220" lon="-3.5506980">
        <ele>634.0</ele>
        <time>2020-09-29T17:40:51Z</time>
      </trkpt>
      <trkpt lat="40.5836780" lon="-3.5505680">
        <ele>634.0</ele>
        <time>2020-09-29T17:40:52Z</time>
      </trkpt>
      <trkpt lat="40.5836780" lon="-3.5505680">
        <ele>634.0</ele>
        <time>2020-09-29T17:40:53Z</time>
      </trkpt>
      <trkpt lat="40.5836370" lon="-3.5504450">
        <ele>634.0</ele>
        <time>2020-09-29T17:40:54Z</time>
      </trkpt>
      <trkpt lat="40.5836130" lon="-3.5503830">
        <ele>634.0</ele>
        <time>2020-09-29T17:40:55Z</time>
      </trkpt>
      <trkpt lat="40.5836130" lon="-3.5503830">
        <ele>634.0</ele>
        <time>2020-09-29T17:40:56Z</time>
      </trkpt>
      <trkpt lat="40.5835720" lon="-3.5502530">
        <ele>634.0</ele>
        <time>2020-09-29T17:40:57Z</time>
      </trkpt>
      <trkpt lat="40.5835720" lon="-3.5502530">
        <ele>634.0</ele>
        <time>2020-09-29T17:40:58Z</time>
      </trkpt>
      <trkpt lat="40.5835720" lon="-3.5502530">
        <ele>634.0</ele>
        <time>2020-09-29T17:40:59Z</time>
      </trkpt>
      <trkpt lat="40.5835020" lon="-3.5500580">
        <ele>634.0</ele>
        <time>2020-09-29T17:41:00Z</time>
      </trkpt>
      <trkpt lat="40.5835020" lon="-3.5500580">
        <ele>635.0</ele>
        <time>2020-09-29T17:41:01Z</time>
      </trkpt>
      <trkpt lat="40.5834530" lon="-3.5499270">
        <ele>635.0</ele>
        <time>2020-09-29T17:41:02Z</time>
      </trkpt>
      <trkpt lat="40.5834530" lon="-3.5499270">
        <ele>635.0</ele>
        <time>2020-09-29T17:41:03Z</time>
      </trkpt>
      <trkpt lat="40.5833980" lon="-3.5498030">
        <ele>635.0</ele>
        <time>2020-09-29T17:41:04Z</time>
      </trkpt>
      <trkpt lat="40.5833720" lon="-3.5497380">
        <ele>635.0</ele>
        <time>2020-09-29T17:41:05Z</time>
      </trkpt>
      <trkpt lat="40.5833720" lon="-3.5497380">
        <ele>635.0</ele>
        <time>2020-09-29T17:41:06Z</time>
      </trkpt>
      <trkpt lat="40.5833130" lon="-3.5496070">
        <ele>635.0</ele>
        <time>2020-09-29T17:41:07Z</time>
      </trkpt>
      <trkpt lat="40.5832850" lon="-3.5495380">
        <ele>635.0</ele>
        <time>2020-09-29T17:41:08Z</time>
      </trkpt>
      <trkpt lat="40.5832850" lon="-3.5495380">
        <ele>635.0</ele>
        <time>2020-09-29T17:41:09Z</time>
      </trkpt>
      <trkpt lat="40.5832230" lon="-3.5494070">
        <ele>635.0</ele>
        <time>2020-09-29T17:41:10Z</time>
      </trkpt>
      <trkpt lat="40.5831930" lon="-3.5493380">
        <ele>635.0</ele>
        <time>2020-09-29T17:41:11Z</time>
      </trkpt>
      <trkpt lat="40.5831930" lon="-3.5493380">
        <ele>635.0</ele>
        <time>2020-09-29T17:41:12Z</time>
      </trkpt>
      <trkpt lat="40.5831300" lon="-3.5492070">
        <ele>635.0</ele>
        <time>2020-09-29T17:41:13Z</time>
      </trkpt>
      <trkpt lat="40.5831300" lon="-3.5492070">
        <ele>635.0</ele>
        <time>2020-09-29T17:41:14Z</time>
      </trkpt>
      <trkpt lat="40.5830630" lon="-3.5490800">
        <ele>635.0</ele>
        <time>2020-09-29T17:41:15Z</time>
      </trkpt>
      <trkpt lat="40.5830280" lon="-3.5490130">
        <ele>635.0</ele>
        <time>2020-09-29T17:41:16Z</time>
      </trkpt>
      <trkpt lat="40.5830280" lon="-3.5490130">
        <ele>635.0</ele>
        <time>2020-09-29T17:41:17Z</time>
      </trkpt>
      <trkpt lat="40.5829680" lon="-3.5488880">
        <ele>635.0</ele>
        <time>2020-09-29T17:41:18Z</time>
      </trkpt>
      <trkpt lat="40.5829680" lon="-3.5488880">
        <ele>635.0</ele>
        <time>2020-09-29T17:41:19Z</time>
      </trkpt>
      <trkpt lat="40.5828980" lon="-3.5487630">
        <ele>635.0</ele>
        <time>2020-09-29T17:41:20Z</time>
      </trkpt>
      <trkpt lat="40.5828670" lon="-3.5486950">
        <ele>635.0</ele>
        <time>2020-09-29T17:41:21Z</time>
      </trkpt>
      <trkpt lat="40.5828670" lon="-3.5486950">
        <ele>635.0</ele>
        <time>2020-09-29T17:41:22Z</time>
      </trkpt>
      <trkpt lat="40.5828670" lon="-3.5486950">
        <ele>635.0</ele>
        <time>2020-09-29T17:41:23Z</time>
      </trkpt>
      <trkpt lat="40.5827930" lon="-3.5485680">
        <ele>636.0</ele>
        <time>2020-09-29T17:41:24Z</time>
      </trkpt>
      <trkpt lat="40.5827180" lon="-3.5484380">
        <ele>636.0</ele>
        <time>2020-09-29T17:41:25Z</time>
      </trkpt>
      <trkpt lat="40.5827180" lon="-3.5484380">
        <ele>636.0</ele>
        <time>2020-09-29T17:41:26Z</time>
      </trkpt>
      <trkpt lat="40.5826500" lon="-3.5483080">
        <ele>636.0</ele>
        <time>2020-09-29T17:41:27Z</time>
      </trkpt>
      <trkpt lat="40.5826500" lon="-3.5483080">
        <ele>636.0</ele>
        <time>2020-09-29T17:41:28Z</time>
      </trkpt>
      <trkpt lat="40.5825770" lon="-3.5481850">
        <ele>636.0</ele>
        <time>2020-09-29T17:41:29Z</time>
      </trkpt>
      <trkpt lat="40.5825400" lon="-3.5481250">
        <ele>636.0</ele>
        <time>2020-09-29T17:41:30Z</time>
      </trkpt>
      <trkpt lat="40.5825400" lon="-3.5481250">
        <ele>636.0</ele>
        <time>2020-09-29T17:41:31Z</time>
      </trkpt>
      <trkpt lat="40.5824650" lon="-3.5480030">
        <ele>637.0</ele>
        <time>2020-09-29T17:41:32Z</time>
      </trkpt>
      <trkpt lat="40.5824650" lon="-3.5480030">
        <ele>637.0</ele>
        <time>2020-09-29T17:41:33Z</time>
      </trkpt>
      <trkpt lat="40.5823930" lon="-3.5478850">
        <ele>637.0</ele>
        <time>2020-09-29T17:41:34Z</time>
      </trkpt>
      <trkpt lat="40.5823930" lon="-3.5478850">
        <ele>637.0</ele>
        <time>2020-09-29T17:41:35Z</time>
      </trkpt>
      <trkpt lat="40.5823300" lon="-3.5477730">
        <ele>637.0</ele>
        <time>2020-09-29T17:41:36Z</time>
      </trkpt>
      <trkpt lat="40.5823300" lon="-3.5477730">
        <ele>637.0</ele>
        <time>2020-09-29T17:41:37Z</time>
      </trkpt>
      <trkpt lat="40.5822630" lon="-3.5476670">
        <ele>637.0</ele>
        <time>2020-09-29T17:41:38Z</time>
      </trkpt>
      <trkpt lat="40.5822300" lon="-3.5476130">
        <ele>637.0</ele>
        <time>2020-09-29T17:41:39Z</time>
      </trkpt>
      <trkpt lat="40.5822300" lon="-3.5476130">
        <ele>637.0</ele>
        <time>2020-09-29T17:41:40Z</time>
      </trkpt>
      <trkpt lat="40.5821620" lon="-3.5475050">
        <ele>637.0</ele>
        <time>2020-09-29T17:41:41Z</time>
      </trkpt>
      <trkpt lat="40.5821250" lon="-3.5474550">
        <ele>637.0</ele>
        <time>2020-09-29T17:41:42Z</time>
      </trkpt>
      <trkpt lat="40.5821250" lon="-3.5474550">
        <ele>637.0</ele>
        <time>2020-09-29T17:41:43Z</time>
      </trkpt>
      <trkpt lat="40.5820580" lon="-3.5473600">
        <ele>637.0</ele>
        <time>2020-09-29T17:41:44Z</time>
      </trkpt>
      <trkpt lat="40.5820250" lon="-3.5473170">
        <ele>638.0</ele>
        <time>2020-09-29T17:41:45Z</time>
      </trkpt>
      <trkpt lat="40.5820250" lon="-3.5473170">
        <ele>638.0</ele>
        <time>2020-09-29T17:41:46Z</time>
      </trkpt>
      <trkpt lat="40.5819570" lon="-3.5472250">
        <ele>638.0</ele>
        <time>2020-09-29T17:41:47Z</time>
      </trkpt>
      <trkpt lat="40.5819250" lon="-3.5471780">
        <ele>638.0</ele>
        <time>2020-09-29T17:41:48Z</time>
      </trkpt>
      <trkpt lat="40.5819250" lon="-3.5471780">
        <ele>638.0</ele>
        <time>2020-09-29T17:41:49Z</time>
      </trkpt>
      <trkpt lat="40.5818580" lon="-3.5470920">
        <ele>638.0</ele>
        <time>2020-09-29T17:41:50Z</time>
      </trkpt>
      <trkpt lat="40.5818580" lon="-3.5470920">
        <ele>638.0</ele>
        <time>2020-09-29T17:41:51Z</time>
      </trkpt>
      <trkpt lat="40.5817920" lon="-3.5469980">
        <ele>638.0</ele>
        <time>2020-09-29T17:41:52Z</time>
      </trkpt>
      <trkpt lat="40.5817570" lon="-3.5469550">
        <ele>638.0</ele>
        <time>2020-09-29T17:41:53Z</time>
      </trkpt>
      <trkpt lat="40.5817570" lon="-3.5469550">
        <ele>638.0</ele>
        <time>2020-09-29T17:41:54Z</time>
      </trkpt>
      <trkpt lat="40.5816870" lon="-3.5468630">
        <ele>638.0</ele>
        <time>2020-09-29T17:41:55Z</time>
      </trkpt>
      <trkpt lat="40.5816870" lon="-3.5468630">
        <ele>638.0</ele>
        <time>2020-09-29T17:41:56Z</time>
      </trkpt>
      <trkpt lat="40.5816170" lon="-3.5467730">
        <ele>638.0</ele>
        <time>2020-09-29T17:41:57Z</time>
      </trkpt>
      <trkpt lat="40.5816170" lon="-3.5467730">
        <ele>638.0</ele>
        <time>2020-09-29T17:41:58Z</time>
      </trkpt>
      <trkpt lat="40.5815480" lon="-3.5466820">
        <ele>638.0</ele>
        <time>2020-09-29T17:41:59Z</time>
      </trkpt>
      <trkpt lat="40.5815480" lon="-3.5466820">
        <ele>638.0</ele>
        <time>2020-09-29T17:42:00Z</time>
      </trkpt>
      <trkpt lat="40.5814800" lon="-3.5465950">
        <ele>638.0</ele>
        <time>2020-09-29T17:42:01Z</time>
      </trkpt>
      <trkpt lat="40.5814500" lon="-3.5465520">
        <ele>638.0</ele>
        <time>2020-09-29T17:42:02Z</time>
      </trkpt>
      <trkpt lat="40.5814500" lon="-3.5465520">
        <ele>638.0</ele>
        <time>2020-09-29T17:42:03Z</time>
      </trkpt>
      <trkpt lat="40.5813870" lon="-3.5464700">
        <ele>638.0</ele>
        <time>2020-09-29T17:42:04Z</time>
      </trkpt>
      <trkpt lat="40.5813870" lon="-3.5464700">
        <ele>638.0</ele>
        <time>2020-09-29T17:42:05Z</time>
      </trkpt>
      <trkpt lat="40.5813200" lon="-3.5463850">
        <ele>638.0</ele>
        <time>2020-09-29T17:42:06Z</time>
      </trkpt>
      <trkpt lat="40.5813200" lon="-3.5463850">
        <ele>638.0</ele>
        <time>2020-09-29T17:42:07Z</time>
      </trkpt>
      <trkpt lat="40.5812500" lon="-3.5462980">
        <ele>638.0</ele>
        <time>2020-09-29T17:42:08Z</time>
      </trkpt>
      <trkpt lat="40.5812500" lon="-3.5462980">
        <ele>638.0</ele>
        <time>2020-09-29T17:42:09Z</time>
      </trkpt>
      <trkpt lat="40.5811800" lon="-3.5462050">
        <ele>638.0</ele>
        <time>2020-09-29T17:42:10Z</time>
      </trkpt>
      <trkpt lat="40.5811800" lon="-3.5462050">
        <ele>638.0</ele>
        <time>2020-09-29T17:42:11Z</time>
      </trkpt>
      <trkpt lat="40.5811170" lon="-3.5461150">
        <ele>638.0</ele>
        <time>2020-09-29T17:42:12Z</time>
      </trkpt>
      <trkpt lat="40.5811170" lon="-3.5461150">
        <ele>638.0</ele>
        <time>2020-09-29T17:42:13Z</time>
      </trkpt>
      <trkpt lat="40.5811170" lon="-3.5461150">
        <ele>638.0</ele>
        <time>2020-09-29T17:42:14Z</time>
      </trkpt>
      <trkpt lat="40.5810500" lon="-3.5460250">
        <ele>639.0</ele>
        <time>2020-09-29T17:42:15Z</time>
      </trkpt>
      <trkpt lat="40.5809780" lon="-3.5459280">
        <ele>639.0</ele>
        <time>2020-09-29T17:42:16Z</time>
      </trkpt>
      <trkpt lat="40.5809780" lon="-3.5459280">
        <ele>639.0</ele>
        <time>2020-09-29T17:42:17Z</time>
      </trkpt>
      <trkpt lat="40.5809430" lon="-3.5458800">
        <ele>639.0</ele>
        <time>2020-09-29T17:42:18Z</time>
      </trkpt>
      <trkpt lat="40.5809070" lon="-3.5458320">
        <ele>639.0</ele>
        <time>2020-09-29T17:42:19Z</time>
      </trkpt>
      <trkpt lat="40.5808300" lon="-3.5457370">
        <ele>639.0</ele>
        <time>2020-09-29T17:42:20Z</time>
      </trkpt>
      <trkpt lat="40.5808300" lon="-3.5457370">
        <ele>639.0</ele>
        <time>2020-09-29T17:42:21Z</time>
      </trkpt>
      <trkpt lat="40.5807600" lon="-3.5456380">
        <ele>639.0</ele>
        <time>2020-09-29T17:42:22Z</time>
      </trkpt>
      <trkpt lat="40.5807250" lon="-3.5455900">
        <ele>639.0</ele>
        <time>2020-09-29T17:42:23Z</time>
      </trkpt>
      <trkpt lat="40.5806900" lon="-3.5455420">
        <ele>639.0</ele>
        <time>2020-09-29T17:42:24Z</time>
      </trkpt>
      <trkpt lat="40.5806900" lon="-3.5455420">
        <ele>639.0</ele>
        <time>2020-09-29T17:42:25Z</time>
      </trkpt>
      <trkpt lat="40.5806220" lon="-3.5454420">
        <ele>639.0</ele>
        <time>2020-09-29T17:42:26Z</time>
      </trkpt>
      <trkpt lat="40.5806220" lon="-3.5454420">
        <ele>640.0</ele>
        <time>2020-09-29T17:42:27Z</time>
      </trkpt>
      <trkpt lat="40.5805880" lon="-3.5453930">
        <ele>640.0</ele>
        <time>2020-09-29T17:42:28Z</time>
      </trkpt>
      <trkpt lat="40.5805220" lon="-3.5452930">
        <ele>640.0</ele>
        <time>2020-09-29T17:42:29Z</time>
      </trkpt>
      <trkpt lat="40.5804870" lon="-3.5452450">
        <ele>640.0</ele>
        <time>2020-09-29T17:42:30Z</time>
      </trkpt>
      <trkpt lat="40.5804870" lon="-3.5452450">
        <ele>640.0</ele>
        <time>2020-09-29T17:42:31Z</time>
      </trkpt>
      <trkpt lat="40.5804180" lon="-3.5451500">
        <ele>640.0</ele>
        <time>2020-09-29T17:42:32Z</time>
      </trkpt>
      <trkpt lat="40.5804180" lon="-3.5451500">
        <ele>640.0</ele>
        <time>2020-09-29T17:42:33Z</time>
      </trkpt>
      <trkpt lat="40.5803530" lon="-3.5450530">
        <ele>641.0</ele>
        <time>2020-09-29T17:42:34Z</time>
      </trkpt>
      <trkpt lat="40.5803200" lon="-3.5450030">
        <ele>641.0</ele>
        <time>2020-09-29T17:42:35Z</time>
      </trkpt>
      <trkpt lat="40.5803200" lon="-3.5450030">
        <ele>641.0</ele>
        <time>2020-09-29T17:42:36Z</time>
      </trkpt>
      <trkpt lat="40.5802520" lon="-3.5449120">
        <ele>641.0</ele>
        <time>2020-09-29T17:42:37Z</time>
      </trkpt>
      <trkpt lat="40.5802520" lon="-3.5449120">
        <ele>641.0</ele>
        <time>2020-09-29T17:42:38Z</time>
      </trkpt>
      <trkpt lat="40.5801870" lon="-3.5448170">
        <ele>641.0</ele>
        <time>2020-09-29T17:42:39Z</time>
      </trkpt>
      <trkpt lat="40.5801870" lon="-3.5448170">
        <ele>642.0</ele>
        <time>2020-09-29T17:42:40Z</time>
      </trkpt>
      <trkpt lat="40.5801180" lon="-3.5447170">
        <ele>642.0</ele>
        <time>2020-09-29T17:42:41Z</time>
      </trkpt>
      <trkpt lat="40.5801180" lon="-3.5447170">
        <ele>642.0</ele>
        <time>2020-09-29T17:42:42Z</time>
      </trkpt>
      <trkpt lat="40.5800520" lon="-3.5446200">
        <ele>642.0</ele>
        <time>2020-09-29T17:42:43Z</time>
      </trkpt>
      <trkpt lat="40.5800520" lon="-3.5446200">
        <ele>642.0</ele>
        <time>2020-09-29T17:42:44Z</time>
      </trkpt>
      <trkpt lat="40.5799830" lon="-3.5445200">
        <ele>642.0</ele>
        <time>2020-09-29T17:42:45Z</time>
      </trkpt>
      <trkpt lat="40.5799830" lon="-3.5445200">
        <ele>643.0</ele>
        <time>2020-09-29T17:42:46Z</time>
      </trkpt>
      <trkpt lat="40.5799150" lon="-3.5444230">
        <ele>643.0</ele>
        <time>2020-09-29T17:42:47Z</time>
      </trkpt>
      <trkpt lat="40.5799150" lon="-3.5444230">
        <ele>643.0</ele>
        <time>2020-09-29T17:42:48Z</time>
      </trkpt>
      <trkpt lat="40.5798780" lon="-3.5443750">
        <ele>643.0</ele>
        <time>2020-09-29T17:42:49Z</time>
      </trkpt>
      <trkpt lat="40.5798120" lon="-3.5442720">
        <ele>643.0</ele>
        <time>2020-09-29T17:42:50Z</time>
      </trkpt>
      <trkpt lat="40.5797780" lon="-3.5442220">
        <ele>643.0</ele>
        <time>2020-09-29T17:42:51Z</time>
      </trkpt>
      <trkpt lat="40.5797780" lon="-3.5442220">
        <ele>643.0</ele>
        <time>2020-09-29T17:42:52Z</time>
      </trkpt>
      <trkpt lat="40.5797180" lon="-3.5441170">
        <ele>643.0</ele>
        <time>2020-09-29T17:42:53Z</time>
      </trkpt>
      <trkpt lat="40.5797180" lon="-3.5441170">
        <ele>644.0</ele>
        <time>2020-09-29T17:42:54Z</time>
      </trkpt>
      <trkpt lat="40.5796570" lon="-3.5440130">
        <ele>644.0</ele>
        <time>2020-09-29T17:42:55Z</time>
      </trkpt>
      <trkpt lat="40.5796570" lon="-3.5440130">
        <ele>644.0</ele>
        <time>2020-09-29T17:42:56Z</time>
      </trkpt>
      <trkpt lat="40.5795950" lon="-3.5439100">
        <ele>644.0</ele>
        <time>2020-09-29T17:42:57Z</time>
      </trkpt>
      <trkpt lat="40.5795950" lon="-3.5439100">
        <ele>644.0</ele>
        <time>2020-09-29T17:42:58Z</time>
      </trkpt>
      <trkpt lat="40.5795330" lon="-3.5438020">
        <ele>644.0</ele>
        <time>2020-09-29T17:42:59Z</time>
      </trkpt>
      <trkpt lat="40.5795000" lon="-3.5437480">
        <ele>644.0</ele>
        <time>2020-09-29T17:43:00Z</time>
      </trkpt>
      <trkpt lat="40.5795000" lon="-3.5437480">
        <ele>644.0</ele>
        <time>2020-09-29T17:43:01Z</time>
      </trkpt>
      <trkpt lat="40.5795000" lon="-3.5437480">
        <ele>644.0</ele>
        <time>2020-09-29T17:43:02Z</time>
      </trkpt>
      <trkpt lat="40.5794350" lon="-3.5436430">
        <ele>645.0</ele>
        <time>2020-09-29T17:43:03Z</time>
      </trkpt>
      <trkpt lat="40.5793720" lon="-3.5435350">
        <ele>645.0</ele>
        <time>2020-09-29T17:43:04Z</time>
      </trkpt>
      <trkpt lat="40.5793420" lon="-3.5434830">
        <ele>645.0</ele>
        <time>2020-09-29T17:43:05Z</time>
      </trkpt>
      <trkpt lat="40.5793100" lon="-3.5434320">
        <ele>645.0</ele>
        <time>2020-09-29T17:43:06Z</time>
      </trkpt>
      <trkpt lat="40.5793100" lon="-3.5434320">
        <ele>645.0</ele>
        <time>2020-09-29T17:43:07Z</time>
      </trkpt>
      <trkpt lat="40.5792470" lon="-3.5433220">
        <ele>645.0</ele>
        <time>2020-09-29T17:43:08Z</time>
      </trkpt>
      <trkpt lat="40.5792470" lon="-3.5433220">
        <ele>645.0</ele>
        <time>2020-09-29T17:43:09Z</time>
      </trkpt>
      <trkpt lat="40.5791820" lon="-3.5432180">
        <ele>645.0</ele>
        <time>2020-09-29T17:43:10Z</time>
      </trkpt>
      <trkpt lat="40.5791820" lon="-3.5432180">
        <ele>645.0</ele>
        <time>2020-09-29T17:43:11Z</time>
      </trkpt>
      <trkpt lat="40.5791230" lon="-3.5431120">
        <ele>645.0</ele>
        <time>2020-09-29T17:43:12Z</time>
      </trkpt>
      <trkpt lat="40.5790930" lon="-3.5430580">
        <ele>645.0</ele>
        <time>2020-09-29T17:43:13Z</time>
      </trkpt>
      <trkpt lat="40.5790930" lon="-3.5430580">
        <ele>645.0</ele>
        <time>2020-09-29T17:43:14Z</time>
      </trkpt>
      <trkpt lat="40.5790350" lon="-3.5429500">
        <ele>645.0</ele>
        <time>2020-09-29T17:43:15Z</time>
      </trkpt>
      <trkpt lat="40.5790350" lon="-3.5429500">
        <ele>645.0</ele>
        <time>2020-09-29T17:43:16Z</time>
      </trkpt>
      <trkpt lat="40.5790350" lon="-3.5429500">
        <ele>645.0</ele>
        <time>2020-09-29T17:43:17Z</time>
      </trkpt>
      <trkpt lat="40.5789800" lon="-3.5428400">
        <ele>645.0</ele>
        <time>2020-09-29T17:43:18Z</time>
      </trkpt>
      <trkpt lat="40.5789170" lon="-3.5427280">
        <ele>645.0</ele>
        <time>2020-09-29T17:43:19Z</time>
      </trkpt>
      <trkpt lat="40.5789170" lon="-3.5427280">
        <ele>645.0</ele>
        <time>2020-09-29T17:43:20Z</time>
      </trkpt>
      <trkpt lat="40.5788550" lon="-3.5426200">
        <ele>645.0</ele>
        <time>2020-09-29T17:43:21Z</time>
      </trkpt>
      <trkpt lat="40.5788220" lon="-3.5425670">
        <ele>645.0</ele>
        <time>2020-09-29T17:43:22Z</time>
      </trkpt>
      <trkpt lat="40.5788220" lon="-3.5425670">
        <ele>645.0</ele>
        <time>2020-09-29T17:43:23Z</time>
      </trkpt>
      <trkpt lat="40.5787570" lon="-3.5424570">
        <ele>645.0</ele>
        <time>2020-09-29T17:43:24Z</time>
      </trkpt>
      <trkpt lat="40.5787570" lon="-3.5424570">
        <ele>645.0</ele>
        <time>2020-09-29T17:43:25Z</time>
      </trkpt>
      <trkpt lat="40.5786980" lon="-3.5423430">
        <ele>645.0</ele>
        <time>2020-09-29T17:43:26Z</time>
      </trkpt>
      <trkpt lat="40.5786680" lon="-3.5422920">
        <ele>645.0</ele>
        <time>2020-09-29T17:43:27Z</time>
      </trkpt>
      <trkpt lat="40.5786680" lon="-3.5422920">
        <ele>645.0</ele>
        <time>2020-09-29T17:43:28Z</time>
      </trkpt>
      <trkpt lat="40.5786150" lon="-3.5421930">
        <ele>645.0</ele>
        <time>2020-09-29T17:43:29Z</time>
      </trkpt>
      <trkpt lat="40.5786150" lon="-3.5421930">
        <ele>646.0</ele>
        <time>2020-09-29T17:43:30Z</time>
      </trkpt>
      <trkpt lat="40.5786150" lon="-3.5421930">
        <ele>646.0</ele>
        <time>2020-09-29T17:43:31Z</time>
      </trkpt>
      <trkpt lat="40.5785620" lon="-3.5420920">
        <ele>646.0</ele>
        <time>2020-09-29T17:43:32Z</time>
      </trkpt>
      <trkpt lat="40.5785100" lon="-3.5419830">
        <ele>646.0</ele>
        <time>2020-09-29T17:43:33Z</time>
      </trkpt>
      <trkpt lat="40.5785100" lon="-3.5419830">
        <ele>646.0</ele>
        <time>2020-09-29T17:43:34Z</time>
      </trkpt>
      <trkpt lat="40.5784600" lon="-3.5418880">
        <ele>646.0</ele>
        <time>2020-09-29T17:43:35Z</time>
      </trkpt>
      <trkpt lat="40.5784370" lon="-3.5418420">
        <ele>646.0</ele>
        <time>2020-09-29T17:43:36Z</time>
      </trkpt>
      <trkpt lat="40.5784370" lon="-3.5418420">
        <ele>646.0</ele>
        <time>2020-09-29T17:43:37Z</time>
      </trkpt>
      <trkpt lat="40.5783870" lon="-3.5417420">
        <ele>646.0</ele>
        <time>2020-09-29T17:43:38Z</time>
      </trkpt>
      <trkpt lat="40.5783870" lon="-3.5417420">
        <ele>646.0</ele>
        <time>2020-09-29T17:43:39Z</time>
      </trkpt>
      <trkpt lat="40.5783330" lon="-3.5416350">
        <ele>646.0</ele>
        <time>2020-09-29T17:43:40Z</time>
      </trkpt>
      <trkpt lat="40.5783330" lon="-3.5416350">
        <ele>646.0</ele>
        <time>2020-09-29T17:43:41Z</time>
      </trkpt>
      <trkpt lat="40.5782800" lon="-3.5415230">
        <ele>646.0</ele>
        <time>2020-09-29T17:43:42Z</time>
      </trkpt>
      <trkpt lat="40.5782800" lon="-3.5415230">
        <ele>646.0</ele>
        <time>2020-09-29T17:43:43Z</time>
      </trkpt>
      <trkpt lat="40.5782250" lon="-3.5414070">
        <ele>646.0</ele>
        <time>2020-09-29T17:43:44Z</time>
      </trkpt>
      <trkpt lat="40.5782250" lon="-3.5414070">
        <ele>646.0</ele>
        <time>2020-09-29T17:43:45Z</time>
      </trkpt>
      <trkpt lat="40.5781720" lon="-3.5412880">
        <ele>646.0</ele>
        <time>2020-09-29T17:43:46Z</time>
      </trkpt>
      <trkpt lat="40.5781720" lon="-3.5412880">
        <ele>646.0</ele>
        <time>2020-09-29T17:43:47Z</time>
      </trkpt>
      <trkpt lat="40.5781450" lon="-3.5412280">
        <ele>646.0</ele>
        <time>2020-09-29T17:43:48Z</time>
      </trkpt>
      <trkpt lat="40.5780870" lon="-3.5411100">
        <ele>647.0</ele>
        <time>2020-09-29T17:43:49Z</time>
      </trkpt>
      <trkpt lat="40.5780870" lon="-3.5411100">
        <ele>647.0</ele>
        <time>2020-09-29T17:43:50Z</time>
      </trkpt>
      <trkpt lat="40.5780180" lon="-3.5409900">
        <ele>647.0</ele>
        <time>2020-09-29T17:43:51Z</time>
      </trkpt>
      <trkpt lat="40.5780180" lon="-3.5409900">
        <ele>647.0</ele>
        <time>2020-09-29T17:43:52Z</time>
      </trkpt>
      <trkpt lat="40.5779670" lon="-3.5408700">
        <ele>647.0</ele>
        <time>2020-09-29T17:43:53Z</time>
      </trkpt>
      <trkpt lat="40.5779670" lon="-3.5408700">
        <ele>647.0</ele>
        <time>2020-09-29T17:43:54Z</time>
      </trkpt>
      <trkpt lat="40.5779180" lon="-3.5407500">
        <ele>647.0</ele>
        <time>2020-09-29T17:43:55Z</time>
      </trkpt>
      <trkpt lat="40.5779180" lon="-3.5407500">
        <ele>647.0</ele>
        <time>2020-09-29T17:43:56Z</time>
      </trkpt>
      <trkpt lat="40.5778680" lon="-3.5406270">
        <ele>647.0</ele>
        <time>2020-09-29T17:43:57Z</time>
      </trkpt>
      <trkpt lat="40.5778420" lon="-3.5405670">
        <ele>647.0</ele>
        <time>2020-09-29T17:43:58Z</time>
      </trkpt>
      <trkpt lat="40.5778420" lon="-3.5405670">
        <ele>648.0</ele>
        <time>2020-09-29T17:43:59Z</time>
      </trkpt>
      <trkpt lat="40.5777870" lon="-3.5404500">
        <ele>648.0</ele>
        <time>2020-09-29T17:44:00Z</time>
      </trkpt>
      <trkpt lat="40.5777870" lon="-3.5404500">
        <ele>648.0</ele>
        <time>2020-09-29T17:44:01Z</time>
      </trkpt>
      <trkpt lat="40.5777380" lon="-3.5403320">
        <ele>648.0</ele>
        <time>2020-09-29T17:44:02Z</time>
      </trkpt>
      <trkpt lat="40.5777380" lon="-3.5403320">
        <ele>648.0</ele>
        <time>2020-09-29T17:44:03Z</time>
      </trkpt>
      <trkpt lat="40.5776920" lon="-3.5402170">
        <ele>648.0</ele>
        <time>2020-09-29T17:44:04Z</time>
      </trkpt>
      <trkpt lat="40.5776920" lon="-3.5402170">
        <ele>648.0</ele>
        <time>2020-09-29T17:44:05Z</time>
      </trkpt>
      <trkpt lat="40.5776920" lon="-3.5402170">
        <ele>648.0</ele>
        <time>2020-09-29T17:44:06Z</time>
      </trkpt>
      <trkpt lat="40.5776450" lon="-3.5400970">
        <ele>648.0</ele>
        <time>2020-09-29T17:44:07Z</time>
      </trkpt>
      <trkpt lat="40.5776000" lon="-3.5399750">
        <ele>648.0</ele>
        <time>2020-09-29T17:44:08Z</time>
      </trkpt>
      <trkpt lat="40.5775800" lon="-3.5399120">
        <ele>648.0</ele>
        <time>2020-09-29T17:44:09Z</time>
      </trkpt>
      <trkpt lat="40.5775600" lon="-3.5398500">
        <ele>648.0</ele>
        <time>2020-09-29T17:44:10Z</time>
      </trkpt>
      <trkpt lat="40.5775600" lon="-3.5398500">
        <ele>648.0</ele>
        <time>2020-09-29T17:44:11Z</time>
      </trkpt>
      <trkpt lat="40.5775170" lon="-3.5397230">
        <ele>648.0</ele>
        <time>2020-09-29T17:44:12Z</time>
      </trkpt>
      <trkpt lat="40.5775170" lon="-3.5397230">
        <ele>648.0</ele>
        <time>2020-09-29T17:44:13Z</time>
      </trkpt>
      <trkpt lat="40.5774720" lon="-3.5395950">
        <ele>648.0</ele>
        <time>2020-09-29T17:44:14Z</time>
      </trkpt>
      <trkpt lat="40.5774470" lon="-3.5395370">
        <ele>648.0</ele>
        <time>2020-09-29T17:44:15Z</time>
      </trkpt>
      <trkpt lat="40.5774470" lon="-3.5395370">
        <ele>648.0</ele>
        <time>2020-09-29T17:44:16Z</time>
      </trkpt>
      <trkpt lat="40.5773980" lon="-3.5394170">
        <ele>648.0</ele>
        <time>2020-09-29T17:44:17Z</time>
      </trkpt>
      <trkpt lat="40.5773980" lon="-3.5394170">
        <ele>648.0</ele>
        <time>2020-09-29T17:44:18Z</time>
      </trkpt>
      <trkpt lat="40.5773500" lon="-3.5392950">
        <ele>648.0</ele>
        <time>2020-09-29T17:44:19Z</time>
      </trkpt>
      <trkpt lat="40.5773500" lon="-3.5392950">
        <ele>648.0</ele>
        <time>2020-09-29T17:44:20Z</time>
      </trkpt>
      <trkpt lat="40.5773000" lon="-3.5391720">
        <ele>648.0</ele>
        <time>2020-09-29T17:44:21Z</time>
      </trkpt>
      <trkpt lat="40.5773000" lon="-3.5391720">
        <ele>648.0</ele>
        <time>2020-09-29T17:44:22Z</time>
      </trkpt>
      <trkpt lat="40.5772480" lon="-3.5390480">
        <ele>648.0</ele>
        <time>2020-09-29T17:44:23Z</time>
      </trkpt>
      <trkpt lat="40.5772270" lon="-3.5389870">
        <ele>648.0</ele>
        <time>2020-09-29T17:44:24Z</time>
      </trkpt>
      <trkpt lat="40.5772270" lon="-3.5389870">
        <ele>648.0</ele>
        <time>2020-09-29T17:44:25Z</time>
      </trkpt>
      <trkpt lat="40.5771820" lon="-3.5388620">
        <ele>648.0</ele>
        <time>2020-09-29T17:44:26Z</time>
      </trkpt>
      <trkpt lat="40.5771820" lon="-3.5388620">
        <ele>648.0</ele>
        <time>2020-09-29T17:44:27Z</time>
      </trkpt>
      <trkpt lat="40.5771380" lon="-3.5387370">
        <ele>648.0</ele>
        <time>2020-09-29T17:44:28Z</time>
      </trkpt>
      <trkpt lat="40.5771380" lon="-3.5387370">
        <ele>648.0</ele>
        <time>2020-09-29T17:44:29Z</time>
      </trkpt>
      <trkpt lat="40.5770950" lon="-3.5386050">
        <ele>648.0</ele>
        <time>2020-09-29T17:44:30Z</time>
      </trkpt>
      <trkpt lat="40.5770950" lon="-3.5386050">
        <ele>648.0</ele>
        <time>2020-09-29T17:44:31Z</time>
      </trkpt>
      <trkpt lat="40.5770520" lon="-3.5384730">
        <ele>648.0</ele>
        <time>2020-09-29T17:44:32Z</time>
      </trkpt>
      <trkpt lat="40.5770300" lon="-3.5384050">
        <ele>648.0</ele>
        <time>2020-09-29T17:44:33Z</time>
      </trkpt>
      <trkpt lat="40.5770300" lon="-3.5384050">
        <ele>648.0</ele>
        <time>2020-09-29T17:44:34Z</time>
      </trkpt>
      <trkpt lat="40.5769770" lon="-3.5382750">
        <ele>648.0</ele>
        <time>2020-09-29T17:44:35Z</time>
      </trkpt>
      <trkpt lat="40.5769550" lon="-3.5382120">
        <ele>648.0</ele>
        <time>2020-09-29T17:44:36Z</time>
      </trkpt>
      <trkpt lat="40.5769550" lon="-3.5382120">
        <ele>648.0</ele>
        <time>2020-09-29T17:44:37Z</time>
      </trkpt>
      <trkpt lat="40.5769130" lon="-3.5380830">
        <ele>649.0</ele>
        <time>2020-09-29T17:44:38Z</time>
      </trkpt>
      <trkpt lat="40.5769130" lon="-3.5380830">
        <ele>649.0</ele>
        <time>2020-09-29T17:44:39Z</time>
      </trkpt>
      <trkpt lat="40.5768750" lon="-3.5379570">
        <ele>649.0</ele>
        <time>2020-09-29T17:44:40Z</time>
      </trkpt>
      <trkpt lat="40.5768750" lon="-3.5379570">
        <ele>649.0</ele>
        <time>2020-09-29T17:44:41Z</time>
      </trkpt>
      <trkpt lat="40.5768320" lon="-3.5378320">
        <ele>649.0</ele>
        <time>2020-09-29T17:44:42Z</time>
      </trkpt>
      <trkpt lat="40.5768320" lon="-3.5378320">
        <ele>649.0</ele>
        <time>2020-09-29T17:44:43Z</time>
      </trkpt>
      <trkpt lat="40.5767850" lon="-3.5377080">
        <ele>649.0</ele>
        <time>2020-09-29T17:44:44Z</time>
      </trkpt>
      <trkpt lat="40.5767630" lon="-3.5376470">
        <ele>649.0</ele>
        <time>2020-09-29T17:44:45Z</time>
      </trkpt>
      <trkpt lat="40.5767630" lon="-3.5376470">
        <ele>649.0</ele>
        <time>2020-09-29T17:44:46Z</time>
      </trkpt>
      <trkpt lat="40.5767230" lon="-3.5375220">
        <ele>649.0</ele>
        <time>2020-09-29T17:44:47Z</time>
      </trkpt>
      <trkpt lat="40.5767230" lon="-3.5375220">
        <ele>650.0</ele>
        <time>2020-09-29T17:44:48Z</time>
      </trkpt>
      <trkpt lat="40.5767020" lon="-3.5374570">
        <ele>650.0</ele>
        <time>2020-09-29T17:44:49Z</time>
      </trkpt>
      <trkpt lat="40.5766580" lon="-3.5373300">
        <ele>650.0</ele>
        <time>2020-09-29T17:44:50Z</time>
      </trkpt>
      <trkpt lat="40.5766370" lon="-3.5372650">
        <ele>650.0</ele>
        <time>2020-09-29T17:44:51Z</time>
      </trkpt>
      <trkpt lat="40.5766150" lon="-3.5372020">
        <ele>650.0</ele>
        <time>2020-09-29T17:44:52Z</time>
      </trkpt>
      <trkpt lat="40.5766150" lon="-3.5372020">
        <ele>650.0</ele>
        <time>2020-09-29T17:44:53Z</time>
      </trkpt>
      <trkpt lat="40.5765730" lon="-3.5370700">
        <ele>650.0</ele>
        <time>2020-09-29T17:44:54Z</time>
      </trkpt>
      <trkpt lat="40.5765730" lon="-3.5370700">
        <ele>650.0</ele>
        <time>2020-09-29T17:44:55Z</time>
      </trkpt>
      <trkpt lat="40.5765320" lon="-3.5369420">
        <ele>650.0</ele>
        <time>2020-09-29T17:44:56Z</time>
      </trkpt>
      <trkpt lat="40.5765100" lon="-3.5368770">
        <ele>650.0</ele>
        <time>2020-09-29T17:44:57Z</time>
      </trkpt>
      <trkpt lat="40.5765100" lon="-3.5368770">
        <ele>650.0</ele>
        <time>2020-09-29T17:44:58Z</time>
      </trkpt>
      <trkpt lat="40.5764630" lon="-3.5367530">
        <ele>650.0</ele>
        <time>2020-09-29T17:44:59Z</time>
      </trkpt>
      <trkpt lat="40.5764420" lon="-3.5366920">
        <ele>650.0</ele>
        <time>2020-09-29T17:45:00Z</time>
      </trkpt>
      <trkpt lat="40.5764420" lon="-3.5366920">
        <ele>650.0</ele>
        <time>2020-09-29T17:45:01Z</time>
      </trkpt>
      <trkpt lat="40.5764420" lon="-3.5366920">
        <ele>650.0</ele>
        <time>2020-09-29T17:45:02Z</time>
      </trkpt>
      <trkpt lat="40.5764030" lon="-3.5365620">
        <ele>650.0</ele>
        <time>2020-09-29T17:45:03Z</time>
      </trkpt>
      <trkpt lat="40.5763600" lon="-3.5364370">
        <ele>650.0</ele>
        <time>2020-09-29T17:45:04Z</time>
      </trkpt>
      <trkpt lat="40.5763600" lon="-3.5364370">
        <ele>650.0</ele>
        <time>2020-09-29T17:45:05Z</time>
      </trkpt>
      <trkpt lat="40.5763180" lon="-3.5363130">
        <ele>650.0</ele>
        <time>2020-09-29T17:45:06Z</time>
      </trkpt>
      <trkpt lat="40.5763180" lon="-3.5363130">
        <ele>651.0</ele>
        <time>2020-09-29T17:45:07Z</time>
      </trkpt>
      <trkpt lat="40.5762780" lon="-3.5361880">
        <ele>651.0</ele>
        <time>2020-09-29T17:45:08Z</time>
      </trkpt>
      <trkpt lat="40.5762780" lon="-3.5361880">
        <ele>651.0</ele>
        <time>2020-09-29T17:45:09Z</time>
      </trkpt>
      <trkpt lat="40.5762330" lon="-3.5360650">
        <ele>651.0</ele>
        <time>2020-09-29T17:45:10Z</time>
      </trkpt>
      <trkpt lat="40.5762330" lon="-3.5360650">
        <ele>651.0</ele>
        <time>2020-09-29T17:45:11Z</time>
      </trkpt>
      <trkpt lat="40.5761870" lon="-3.5359450">
        <ele>651.0</ele>
        <time>2020-09-29T17:45:12Z</time>
      </trkpt>
      <trkpt lat="40.5761870" lon="-3.5359450">
        <ele>651.0</ele>
        <time>2020-09-29T17:45:13Z</time>
      </trkpt>
      <trkpt lat="40.5761400" lon="-3.5358250">
        <ele>651.0</ele>
        <time>2020-09-29T17:45:14Z</time>
      </trkpt>
      <trkpt lat="40.5761400" lon="-3.5358250">
        <ele>651.0</ele>
        <time>2020-09-29T17:45:15Z</time>
      </trkpt>
      <trkpt lat="40.5760970" lon="-3.5357050">
        <ele>651.0</ele>
        <time>2020-09-29T17:45:16Z</time>
      </trkpt>
      <trkpt lat="40.5760970" lon="-3.5357050">
        <ele>651.0</ele>
        <time>2020-09-29T17:45:17Z</time>
      </trkpt>
      <trkpt lat="40.5760500" lon="-3.5355820">
        <ele>651.0</ele>
        <time>2020-09-29T17:45:18Z</time>
      </trkpt>
      <trkpt lat="40.5760500" lon="-3.5355820">
        <ele>652.0</ele>
        <time>2020-09-29T17:45:19Z</time>
      </trkpt>
      <trkpt lat="40.5760500" lon="-3.5355820">
        <ele>652.0</ele>
        <time>2020-09-29T17:45:20Z</time>
      </trkpt>
      <trkpt lat="40.5760030" lon="-3.5354570">
        <ele>652.0</ele>
        <time>2020-09-29T17:45:21Z</time>
      </trkpt>
      <trkpt lat="40.5759550" lon="-3.5353420">
        <ele>652.0</ele>
        <time>2020-09-29T17:45:22Z</time>
      </trkpt>
      <trkpt lat="40.5759250" lon="-3.5352870">
        <ele>652.0</ele>
        <time>2020-09-29T17:45:23Z</time>
      </trkpt>
      <trkpt lat="40.5759000" lon="-3.5352280">
        <ele>652.0</ele>
        <time>2020-09-29T17:45:24Z</time>
      </trkpt>
      <trkpt lat="40.5759000" lon="-3.5352280">
        <ele>652.0</ele>
        <time>2020-09-29T17:45:25Z</time>
      </trkpt>
      <trkpt lat="40.5758570" lon="-3.5351150">
        <ele>652.0</ele>
        <time>2020-09-29T17:45:26Z</time>
      </trkpt>
      <trkpt lat="40.5758370" lon="-3.5350580">
        <ele>652.0</ele>
        <time>2020-09-29T17:45:27Z</time>
      </trkpt>
      <trkpt lat="40.5758120" lon="-3.5350030">
        <ele>653.0</ele>
        <time>2020-09-29T17:45:28Z</time>
      </trkpt>
      <trkpt lat="40.5758120" lon="-3.5350030">
        <ele>653.0</ele>
        <time>2020-09-29T17:45:29Z</time>
      </trkpt>
      <trkpt lat="40.5757650" lon="-3.5348920">
        <ele>653.0</ele>
        <time>2020-09-29T17:45:30Z</time>
      </trkpt>
      <trkpt lat="40.5757650" lon="-3.5348920">
        <ele>654.0</ele>
        <time>2020-09-29T17:45:31Z</time>
      </trkpt>
      <trkpt lat="40.5757180" lon="-3.5347820">
        <ele>654.0</ele>
        <time>2020-09-29T17:45:32Z</time>
      </trkpt>
      <trkpt lat="40.5757180" lon="-3.5347820">
        <ele>654.0</ele>
        <time>2020-09-29T17:45:33Z</time>
      </trkpt>
      <trkpt lat="40.5756700" lon="-3.5346720">
        <ele>654.0</ele>
        <time>2020-09-29T17:45:34Z</time>
      </trkpt>
      <trkpt lat="40.5756470" lon="-3.5346130">
        <ele>654.0</ele>
        <time>2020-09-29T17:45:35Z</time>
      </trkpt>
      <trkpt lat="40.5756470" lon="-3.5346130">
        <ele>654.0</ele>
        <time>2020-09-29T17:45:36Z</time>
      </trkpt>
      <trkpt lat="40.5755970" lon="-3.5345000">
        <ele>654.0</ele>
        <time>2020-09-29T17:45:37Z</time>
      </trkpt>
      <trkpt lat="40.5755970" lon="-3.5345000">
        <ele>654.0</ele>
        <time>2020-09-29T17:45:38Z</time>
      </trkpt>
      <trkpt lat="40.5755450" lon="-3.5343920">
        <ele>654.0</ele>
        <time>2020-09-29T17:45:39Z</time>
      </trkpt>
      <trkpt lat="40.5755450" lon="-3.5343920">
        <ele>654.0</ele>
        <time>2020-09-29T17:45:40Z</time>
      </trkpt>
      <trkpt lat="40.5754900" lon="-3.5342830">
        <ele>654.0</ele>
        <time>2020-09-29T17:45:41Z</time>
      </trkpt>
      <trkpt lat="40.5754630" lon="-3.5342270">
        <ele>654.0</ele>
        <time>2020-09-29T17:45:42Z</time>
      </trkpt>
      <trkpt lat="40.5754630" lon="-3.5342270">
        <ele>654.0</ele>
        <time>2020-09-29T17:45:43Z</time>
      </trkpt>
      <trkpt lat="40.5754100" lon="-3.5341150">
        <ele>654.0</ele>
        <time>2020-09-29T17:45:44Z</time>
      </trkpt>
      <trkpt lat="40.5754100" lon="-3.5341150">
        <ele>654.0</ele>
        <time>2020-09-29T17:45:45Z</time>
      </trkpt>
      <trkpt lat="40.5753580" lon="-3.5340050">
        <ele>654.0</ele>
        <time>2020-09-29T17:45:46Z</time>
      </trkpt>
      <trkpt lat="40.5753580" lon="-3.5340050">
        <ele>654.0</ele>
        <time>2020-09-29T17:45:47Z</time>
      </trkpt>
      <trkpt lat="40.5752980" lon="-3.5338980">
        <ele>654.0</ele>
        <time>2020-09-29T17:45:48Z</time>
      </trkpt>
      <trkpt lat="40.5752980" lon="-3.5338980">
        <ele>655.0</ele>
        <time>2020-09-29T17:45:49Z</time>
      </trkpt>
      <trkpt lat="40.5752450" lon="-3.5337880">
        <ele>655.0</ele>
        <time>2020-09-29T17:45:50Z</time>
      </trkpt>
      <trkpt lat="40.5752450" lon="-3.5337880">
        <ele>655.0</ele>
        <time>2020-09-29T17:45:51Z</time>
      </trkpt>
      <trkpt lat="40.5752210" lon="-3.5337340">
        <ele>655.0</ele>
        <time>2020-09-29T17:45:52Z</time>
      </trkpt>
      <trkpt lat="40.5751970" lon="-3.5336800">
        <ele>655.0</ele>
        <time>2020-09-29T17:45:53Z</time>
      </trkpt>
      <trkpt lat="40.5751430" lon="-3.5335730">
        <ele>655.0</ele>
        <time>2020-09-29T17:45:54Z</time>
      </trkpt>
      <trkpt lat="40.5751430" lon="-3.5335730">
        <ele>656.0</ele>
        <time>2020-09-29T17:45:55Z</time>
      </trkpt>
      <trkpt lat="40.5750880" lon="-3.5334680">
        <ele>656.0</ele>
        <time>2020-09-29T17:45:56Z</time>
      </trkpt>
      <trkpt lat="40.5750600" lon="-3.5334170">
        <ele>656.0</ele>
        <time>2020-09-29T17:45:57Z</time>
      </trkpt>
      <trkpt lat="40.5750600" lon="-3.5334170">
        <ele>656.0</ele>
        <time>2020-09-29T17:45:58Z</time>
      </trkpt>
      <trkpt lat="40.5750030" lon="-3.5333080">
        <ele>656.0</ele>
        <time>2020-09-29T17:45:59Z</time>
      </trkpt>
      <trkpt lat="40.5750030" lon="-3.5333080">
        <ele>656.0</ele>
        <time>2020-09-29T17:46:00Z</time>
      </trkpt>
      <trkpt lat="40.5749480" lon="-3.5331980">
        <ele>657.0</ele>
        <time>2020-09-29T17:46:01Z</time>
      </trkpt>
      <trkpt lat="40.5749230" lon="-3.5331450">
        <ele>657.0</ele>
        <time>2020-09-29T17:46:02Z</time>
      </trkpt>
      <trkpt lat="40.5749230" lon="-3.5331450">
        <ele>657.0</ele>
        <time>2020-09-29T17:46:03Z</time>
      </trkpt>
      <trkpt lat="40.5748720" lon="-3.5330400">
        <ele>657.0</ele>
        <time>2020-09-29T17:46:04Z</time>
      </trkpt>
      <trkpt lat="40.5748720" lon="-3.5330400">
        <ele>657.0</ele>
        <time>2020-09-29T17:46:05Z</time>
      </trkpt>
      <trkpt lat="40.5748220" lon="-3.5329350">
        <ele>657.0</ele>
        <time>2020-09-29T17:46:06Z</time>
      </trkpt>
      <trkpt lat="40.5747950" lon="-3.5328820">
        <ele>657.0</ele>
        <time>2020-09-29T17:46:07Z</time>
      </trkpt>
      <trkpt lat="40.5747950" lon="-3.5328820">
        <ele>658.0</ele>
        <time>2020-09-29T17:46:08Z</time>
      </trkpt>
      <trkpt lat="40.5747950" lon="-3.5328820">
        <ele>658.0</ele>
        <time>2020-09-29T17:46:09Z</time>
      </trkpt>
      <trkpt lat="40.5747380" lon="-3.5327770">
        <ele>658.0</ele>
        <time>2020-09-29T17:46:10Z</time>
      </trkpt>
      <trkpt lat="40.5746830" lon="-3.5326720">
        <ele>658.0</ele>
        <time>2020-09-29T17:46:11Z</time>
      </trkpt>
      <trkpt lat="40.5746570" lon="-3.5326200">
        <ele>658.0</ele>
        <time>2020-09-29T17:46:12Z</time>
      </trkpt>
      <trkpt lat="40.5746570" lon="-3.5326200">
        <ele>658.0</ele>
        <time>2020-09-29T17:46:13Z</time>
      </trkpt>
      <trkpt lat="40.5746030" lon="-3.5325170">
        <ele>658.0</ele>
        <time>2020-09-29T17:46:14Z</time>
      </trkpt>
      <trkpt lat="40.5746030" lon="-3.5325170">
        <ele>658.0</ele>
        <time>2020-09-29T17:46:15Z</time>
      </trkpt>
      <trkpt lat="40.5745500" lon="-3.5324100">
        <ele>659.0</ele>
        <time>2020-09-29T17:46:16Z</time>
      </trkpt>
      <trkpt lat="40.5745500" lon="-3.5324100">
        <ele>659.0</ele>
        <time>2020-09-29T17:46:17Z</time>
      </trkpt>
      <trkpt lat="40.5744980" lon="-3.5323030">
        <ele>659.0</ele>
        <time>2020-09-29T17:46:18Z</time>
      </trkpt>
      <trkpt lat="40.5744980" lon="-3.5323030">
        <ele>659.0</ele>
        <time>2020-09-29T17:46:19Z</time>
      </trkpt>
      <trkpt lat="40.5744470" lon="-3.5321970">
        <ele>659.0</ele>
        <time>2020-09-29T17:46:20Z</time>
      </trkpt>
      <trkpt lat="40.5744470" lon="-3.5321970">
        <ele>659.0</ele>
        <time>2020-09-29T17:46:21Z</time>
      </trkpt>
      <trkpt lat="40.5744000" lon="-3.5320900">
        <ele>659.0</ele>
        <time>2020-09-29T17:46:22Z</time>
      </trkpt>
      <trkpt lat="40.5744000" lon="-3.5320900">
        <ele>659.0</ele>
        <time>2020-09-29T17:46:23Z</time>
      </trkpt>
      <trkpt lat="40.5743570" lon="-3.5319800">
        <ele>659.0</ele>
        <time>2020-09-29T17:46:24Z</time>
      </trkpt>
      <trkpt lat="40.5743570" lon="-3.5319800">
        <ele>659.0</ele>
        <time>2020-09-29T17:46:25Z</time>
      </trkpt>
      <trkpt lat="40.5742970" lon="-3.5318730">
        <ele>659.0</ele>
        <time>2020-09-29T17:46:26Z</time>
      </trkpt>
      <trkpt lat="40.5742680" lon="-3.5318180">
        <ele>659.0</ele>
        <time>2020-09-29T17:46:27Z</time>
      </trkpt>
      <trkpt lat="40.5742680" lon="-3.5318180">
        <ele>659.0</ele>
        <time>2020-09-29T17:46:28Z</time>
      </trkpt>
      <trkpt lat="40.5742180" lon="-3.5317030">
        <ele>659.0</ele>
        <time>2020-09-29T17:46:29Z</time>
      </trkpt>
      <trkpt lat="40.5741930" lon="-3.5316480">
        <ele>659.0</ele>
        <time>2020-09-29T17:46:30Z</time>
      </trkpt>
      <trkpt lat="40.5741930" lon="-3.5316480">
        <ele>659.0</ele>
        <time>2020-09-29T17:46:31Z</time>
      </trkpt>
      <trkpt lat="40.5741400" lon="-3.5315350">
        <ele>660.0</ele>
        <time>2020-09-29T17:46:32Z</time>
      </trkpt>
      <trkpt lat="40.5741400" lon="-3.5315350">
        <ele>660.0</ele>
        <time>2020-09-29T17:46:33Z</time>
      </trkpt>
      <trkpt lat="40.5740880" lon="-3.5314230">
        <ele>660.0</ele>
        <time>2020-09-29T17:46:34Z</time>
      </trkpt>
      <trkpt lat="40.5740880" lon="-3.5314230">
        <ele>660.0</ele>
        <time>2020-09-29T17:46:35Z</time>
      </trkpt>
      <trkpt lat="40.5740330" lon="-3.5313120">
        <ele>660.0</ele>
        <time>2020-09-29T17:46:36Z</time>
      </trkpt>
      <trkpt lat="40.5740330" lon="-3.5313120">
        <ele>660.0</ele>
        <time>2020-09-29T17:46:37Z</time>
      </trkpt>
      <trkpt lat="40.5739780" lon="-3.5311950">
        <ele>660.0</ele>
        <time>2020-09-29T17:46:38Z</time>
      </trkpt>
      <trkpt lat="40.5739520" lon="-3.5311370">
        <ele>660.0</ele>
        <time>2020-09-29T17:46:39Z</time>
      </trkpt>
      <trkpt lat="40.5739520" lon="-3.5311370">
        <ele>661.0</ele>
        <time>2020-09-29T17:46:40Z</time>
      </trkpt>
      <trkpt lat="40.5738980" lon="-3.5310220">
        <ele>661.0</ele>
        <time>2020-09-29T17:46:41Z</time>
      </trkpt>
      <trkpt lat="40.5738980" lon="-3.5310220">
        <ele>661.0</ele>
        <time>2020-09-29T17:46:42Z</time>
      </trkpt>
      <trkpt lat="40.5738450" lon="-3.5309070">
        <ele>661.0</ele>
        <time>2020-09-29T17:46:43Z</time>
      </trkpt>
      <trkpt lat="40.5738450" lon="-3.5309070">
        <ele>661.0</ele>
        <time>2020-09-29T17:46:44Z</time>
      </trkpt>
      <trkpt lat="40.5737930" lon="-3.5307930">
        <ele>661.0</ele>
        <time>2020-09-29T17:46:45Z</time>
      </trkpt>
      <trkpt lat="40.5737930" lon="-3.5307930">
        <ele>661.0</ele>
        <time>2020-09-29T17:46:46Z</time>
      </trkpt>
      <trkpt lat="40.5737470" lon="-3.5306770">
        <ele>662.0</ele>
        <time>2020-09-29T17:46:47Z</time>
      </trkpt>
      <trkpt lat="40.5737230" lon="-3.5306180">
        <ele>662.0</ele>
        <time>2020-09-29T17:46:48Z</time>
      </trkpt>
      <trkpt lat="40.5737230" lon="-3.5306180">
        <ele>662.0</ele>
        <time>2020-09-29T17:46:49Z</time>
      </trkpt>
      <trkpt lat="40.5736770" lon="-3.5305020">
        <ele>662.0</ele>
        <time>2020-09-29T17:46:50Z</time>
      </trkpt>
      <trkpt lat="40.5736770" lon="-3.5305020">
        <ele>662.0</ele>
        <time>2020-09-29T17:46:51Z</time>
      </trkpt>
      <trkpt lat="40.5736330" lon="-3.5303870">
        <ele>662.0</ele>
        <time>2020-09-29T17:46:52Z</time>
      </trkpt>
      <trkpt lat="40.5736330" lon="-3.5303870">
        <ele>662.0</ele>
        <time>2020-09-29T17:46:53Z</time>
      </trkpt>
      <trkpt lat="40.5735880" lon="-3.5302670">
        <ele>662.0</ele>
        <time>2020-09-29T17:46:54Z</time>
      </trkpt>
      <trkpt lat="40.5735880" lon="-3.5302670">
        <ele>663.0</ele>
        <time>2020-09-29T17:46:55Z</time>
      </trkpt>
      <trkpt lat="40.5735230" lon="-3.5301530">
        <ele>663.0</ele>
        <time>2020-09-29T17:46:56Z</time>
      </trkpt>
      <trkpt lat="40.5734970" lon="-3.5300970">
        <ele>663.0</ele>
        <time>2020-09-29T17:46:57Z</time>
      </trkpt>
      <trkpt lat="40.5734970" lon="-3.5300970">
        <ele>663.0</ele>
        <time>2020-09-29T17:46:58Z</time>
      </trkpt>
      <trkpt lat="40.5734720" lon="-3.5299680">
        <ele>663.0</ele>
        <time>2020-09-29T17:46:59Z</time>
      </trkpt>
      <trkpt lat="40.5734530" lon="-3.5299030">
        <ele>663.0</ele>
        <time>2020-09-29T17:47:00Z</time>
      </trkpt>
      <trkpt lat="40.5734530" lon="-3.5299030">
        <ele>663.0</ele>
        <time>2020-09-29T17:47:01Z</time>
      </trkpt>
      <trkpt lat="40.5734170" lon="-3.5297750">
        <ele>664.0</ele>
        <time>2020-09-29T17:47:02Z</time>
      </trkpt>
      <trkpt lat="40.5734170" lon="-3.5297750">
        <ele>664.0</ele>
        <time>2020-09-29T17:47:03Z</time>
      </trkpt>
      <trkpt lat="40.5733770" lon="-3.5296500">
        <ele>664.0</ele>
        <time>2020-09-29T17:47:04Z</time>
      </trkpt>
      <trkpt lat="40.5733550" lon="-3.5295850">
        <ele>664.0</ele>
        <time>2020-09-29T17:47:05Z</time>
      </trkpt>
      <trkpt lat="40.5733320" lon="-3.5295220">
        <ele>664.0</ele>
        <time>2020-09-29T17:47:06Z</time>
      </trkpt>
      <trkpt lat="40.5733320" lon="-3.5295220">
        <ele>664.0</ele>
        <time>2020-09-29T17:47:07Z</time>
      </trkpt>
      <trkpt lat="40.5732850" lon="-3.5293970">
        <ele>664.0</ele>
        <time>2020-09-29T17:47:08Z</time>
      </trkpt>
      <trkpt lat="40.5732850" lon="-3.5293970">
        <ele>664.0</ele>
        <time>2020-09-29T17:47:09Z</time>
      </trkpt>
      <trkpt lat="40.5732430" lon="-3.5292770">
        <ele>665.0</ele>
        <time>2020-09-29T17:47:10Z</time>
      </trkpt>
      <trkpt lat="40.5732430" lon="-3.5292770">
        <ele>665.0</ele>
        <time>2020-09-29T17:47:11Z</time>
      </trkpt>
      <trkpt lat="40.5732030" lon="-3.5291530">
        <ele>665.0</ele>
        <time>2020-09-29T17:47:12Z</time>
      </trkpt>
      <trkpt lat="40.5732030" lon="-3.5291530">
        <ele>665.0</ele>
        <time>2020-09-29T17:47:13Z</time>
      </trkpt>
      <trkpt lat="40.5731620" lon="-3.5290330">
        <ele>665.0</ele>
        <time>2020-09-29T17:47:14Z</time>
      </trkpt>
      <trkpt lat="40.5731620" lon="-3.5290330">
        <ele>665.0</ele>
        <time>2020-09-29T17:47:15Z</time>
      </trkpt>
      <trkpt lat="40.5731230" lon="-3.5289120">
        <ele>666.0</ele>
        <time>2020-09-29T17:47:16Z</time>
      </trkpt>
      <trkpt lat="40.5731230" lon="-3.5289120">
        <ele>666.0</ele>
        <time>2020-09-29T17:47:17Z</time>
      </trkpt>
      <trkpt lat="40.5730830" lon="-3.5287920">
        <ele>666.0</ele>
        <time>2020-09-29T17:47:18Z</time>
      </trkpt>
      <trkpt lat="40.5730830" lon="-3.5287920">
        <ele>666.0</ele>
        <time>2020-09-29T17:47:19Z</time>
      </trkpt>
      <trkpt lat="40.5730430" lon="-3.5286720">
        <ele>666.0</ele>
        <time>2020-09-29T17:47:20Z</time>
      </trkpt>
      <trkpt lat="40.5730230" lon="-3.5286130">
        <ele>666.0</ele>
        <time>2020-09-29T17:47:21Z</time>
      </trkpt>
      <trkpt lat="40.5730230" lon="-3.5286130">
        <ele>666.0</ele>
        <time>2020-09-29T17:47:22Z</time>
      </trkpt>
      <trkpt lat="40.5729900" lon="-3.5284950">
        <ele>667.0</ele>
        <time>2020-09-29T17:47:23Z</time>
      </trkpt>
      <trkpt lat="40.5729720" lon="-3.5284370">
        <ele>667.0</ele>
        <time>2020-09-29T17:47:24Z</time>
      </trkpt>
      <trkpt lat="40.5729720" lon="-3.5284370">
        <ele>667.0</ele>
        <time>2020-09-29T17:47:25Z</time>
      </trkpt>
      <trkpt lat="40.5729330" lon="-3.5283200">
        <ele>667.0</ele>
        <time>2020-09-29T17:47:26Z</time>
      </trkpt>
      <trkpt lat="40.5729330" lon="-3.5283200">
        <ele>667.0</ele>
        <time>2020-09-29T17:47:27Z</time>
      </trkpt>
      <trkpt lat="40.5728920" lon="-3.5282080">
        <ele>667.0</ele>
        <time>2020-09-29T17:47:28Z</time>
      </trkpt>
      <trkpt lat="40.5728750" lon="-3.5281520">
        <ele>667.0</ele>
        <time>2020-09-29T17:47:29Z</time>
      </trkpt>
      <trkpt lat="40.5728750" lon="-3.5281520">
        <ele>667.0</ele>
        <time>2020-09-29T17:47:30Z</time>
      </trkpt>
      <trkpt lat="40.5728470" lon="-3.5280320">
        <ele>667.0</ele>
        <time>2020-09-29T17:47:31Z</time>
      </trkpt>
      <trkpt lat="40.5728470" lon="-3.5280320">
        <ele>667.0</ele>
        <time>2020-09-29T17:47:32Z</time>
      </trkpt>
      <trkpt lat="40.5728100" lon="-3.5279170">
        <ele>667.0</ele>
        <time>2020-09-29T17:47:33Z</time>
      </trkpt>
      <trkpt lat="40.5728100" lon="-3.5279170">
        <ele>667.0</ele>
        <time>2020-09-29T17:47:34Z</time>
      </trkpt>
      <trkpt lat="40.5727730" lon="-3.5277950">
        <ele>667.0</ele>
        <time>2020-09-29T17:47:35Z</time>
      </trkpt>
      <trkpt lat="40.5727570" lon="-3.5277330">
        <ele>667.0</ele>
        <time>2020-09-29T17:47:36Z</time>
      </trkpt>
      <trkpt lat="40.5727570" lon="-3.5277330">
        <ele>667.0</ele>
        <time>2020-09-29T17:47:37Z</time>
      </trkpt>
      <trkpt lat="40.5727180" lon="-3.5276050">
        <ele>668.0</ele>
        <time>2020-09-29T17:47:38Z</time>
      </trkpt>
      <trkpt lat="40.5727180" lon="-3.5276050">
        <ele>668.0</ele>
        <time>2020-09-29T17:47:39Z</time>
      </trkpt>
      <trkpt lat="40.5726850" lon="-3.5274800">
        <ele>668.0</ele>
        <time>2020-09-29T17:47:40Z</time>
      </trkpt>
      <trkpt lat="40.5726850" lon="-3.5274800">
        <ele>668.0</ele>
        <time>2020-09-29T17:47:41Z</time>
      </trkpt>
      <trkpt lat="40.5726480" lon="-3.5273530">
        <ele>668.0</ele>
        <time>2020-09-29T17:47:42Z</time>
      </trkpt>
      <trkpt lat="40.5726480" lon="-3.5273530">
        <ele>668.0</ele>
        <time>2020-09-29T17:47:43Z</time>
      </trkpt>
      <trkpt lat="40.5726130" lon="-3.5272270">
        <ele>668.0</ele>
        <time>2020-09-29T17:47:44Z</time>
      </trkpt>
      <trkpt lat="40.5725930" lon="-3.5271650">
        <ele>669.0</ele>
        <time>2020-09-29T17:47:45Z</time>
      </trkpt>
      <trkpt lat="40.5725930" lon="-3.5271650">
        <ele>669.0</ele>
        <time>2020-09-29T17:47:46Z</time>
      </trkpt>
      <trkpt lat="40.5725600" lon="-3.5270400">
        <ele>669.0</ele>
        <time>2020-09-29T17:47:47Z</time>
      </trkpt>
      <trkpt lat="40.5725420" lon="-3.5269770">
        <ele>669.0</ele>
        <time>2020-09-29T17:47:48Z</time>
      </trkpt>
      <trkpt lat="40.5725420" lon="-3.5269770">
        <ele>669.0</ele>
        <time>2020-09-29T17:47:49Z</time>
      </trkpt>
      <trkpt lat="40.5725070" lon="-3.5268470">
        <ele>669.0</ele>
        <time>2020-09-29T17:47:50Z</time>
      </trkpt>
      <trkpt lat="40.5725070" lon="-3.5268470">
        <ele>670.0</ele>
        <time>2020-09-29T17:47:51Z</time>
      </trkpt>
      <trkpt lat="40.5724880" lon="-3.5267830">
        <ele>670.0</ele>
        <time>2020-09-29T17:47:52Z</time>
      </trkpt>
      <trkpt lat="40.5724530" lon="-3.5266530">
        <ele>670.0</ele>
        <time>2020-09-29T17:47:53Z</time>
      </trkpt>
      <trkpt lat="40.5724350" lon="-3.5265920">
        <ele>670.0</ele>
        <time>2020-09-29T17:47:54Z</time>
      </trkpt>
      <trkpt lat="40.5724350" lon="-3.5265920">
        <ele>670.0</ele>
        <time>2020-09-29T17:47:55Z</time>
      </trkpt>
      <trkpt lat="40.5723980" lon="-3.5264700">
        <ele>670.0</ele>
        <time>2020-09-29T17:47:56Z</time>
      </trkpt>
      <trkpt lat="40.5723980" lon="-3.5264700">
        <ele>671.0</ele>
        <time>2020-09-29T17:47:57Z</time>
      </trkpt>
      <trkpt lat="40.5723680" lon="-3.5263500">
        <ele>671.0</ele>
        <time>2020-09-29T17:47:58Z</time>
      </trkpt>
      <trkpt lat="40.5723680" lon="-3.5263500">
        <ele>671.0</ele>
        <time>2020-09-29T17:47:59Z</time>
      </trkpt>
      <trkpt lat="40.5723370" lon="-3.5262280">
        <ele>671.0</ele>
        <time>2020-09-29T17:48:00Z</time>
      </trkpt>
      <trkpt lat="40.5723370" lon="-3.5262280">
        <ele>671.0</ele>
        <time>2020-09-29T17:48:01Z</time>
      </trkpt>
      <trkpt lat="40.5723000" lon="-3.5261070">
        <ele>671.0</ele>
        <time>2020-09-29T17:48:02Z</time>
      </trkpt>
      <trkpt lat="40.5722850" lon="-3.5260450">
        <ele>671.0</ele>
        <time>2020-09-29T17:48:03Z</time>
      </trkpt>
      <trkpt lat="40.5722850" lon="-3.5260450">
        <ele>671.0</ele>
        <time>2020-09-29T17:48:04Z</time>
      </trkpt>
      <trkpt lat="40.5722500" lon="-3.5259220">
        <ele>671.0</ele>
        <time>2020-09-29T17:48:05Z</time>
      </trkpt>
      <trkpt lat="40.5722320" lon="-3.5258580">
        <ele>671.0</ele>
        <time>2020-09-29T17:48:06Z</time>
      </trkpt>
      <trkpt lat="40.5722320" lon="-3.5258580">
        <ele>671.0</ele>
        <time>2020-09-29T17:48:07Z</time>
      </trkpt>
      <trkpt lat="40.5721980" lon="-3.5257350">
        <ele>671.0</ele>
        <time>2020-09-29T17:48:08Z</time>
      </trkpt>
      <trkpt lat="40.5721980" lon="-3.5257350">
        <ele>671.0</ele>
        <time>2020-09-29T17:48:09Z</time>
      </trkpt>
      <trkpt lat="40.5721650" lon="-3.5256150">
        <ele>671.0</ele>
        <time>2020-09-29T17:48:10Z</time>
      </trkpt>
      <trkpt lat="40.5721650" lon="-3.5256150">
        <ele>672.0</ele>
        <time>2020-09-29T17:48:11Z</time>
      </trkpt>
      <trkpt lat="40.5721270" lon="-3.5254950">
        <ele>672.0</ele>
        <time>2020-09-29T17:48:12Z</time>
      </trkpt>
      <trkpt lat="40.5721270" lon="-3.5254950">
        <ele>672.0</ele>
        <time>2020-09-29T17:48:13Z</time>
      </trkpt>
      <trkpt lat="40.5720870" lon="-3.5253770">
        <ele>672.0</ele>
        <time>2020-09-29T17:48:14Z</time>
      </trkpt>
      <trkpt lat="40.5720870" lon="-3.5253770">
        <ele>672.0</ele>
        <time>2020-09-29T17:48:15Z</time>
      </trkpt>
      <trkpt lat="40.5720430" lon="-3.5252600">
        <ele>672.0</ele>
        <time>2020-09-29T17:48:16Z</time>
      </trkpt>
      <trkpt lat="40.5720250" lon="-3.5252000">
        <ele>673.0</ele>
        <time>2020-09-29T17:48:17Z</time>
      </trkpt>
      <trkpt lat="40.5720250" lon="-3.5252000">
        <ele>673.0</ele>
        <time>2020-09-29T17:48:18Z</time>
      </trkpt>
      <trkpt lat="40.5719830" lon="-3.5250850">
        <ele>673.0</ele>
        <time>2020-09-29T17:48:19Z</time>
      </trkpt>
      <trkpt lat="40.5719830" lon="-3.5250850">
        <ele>673.0</ele>
        <time>2020-09-29T17:48:20Z</time>
      </trkpt>
      <trkpt lat="40.5719430" lon="-3.5249680">
        <ele>673.0</ele>
        <time>2020-09-29T17:48:21Z</time>
      </trkpt>
      <trkpt lat="40.5719220" lon="-3.5249120">
        <ele>673.0</ele>
        <time>2020-09-29T17:48:22Z</time>
      </trkpt>
      <trkpt lat="40.5718970" lon="-3.5248520">
        <ele>673.0</ele>
        <time>2020-09-29T17:48:23Z</time>
      </trkpt>
      <trkpt lat="40.5718720" lon="-3.5247930">
        <ele>673.0</ele>
        <time>2020-09-29T17:48:24Z</time>
      </trkpt>
      <trkpt lat="40.5718720" lon="-3.5247930">
        <ele>674.0</ele>
        <time>2020-09-29T17:48:25Z</time>
      </trkpt>
      <trkpt lat="40.5718230" lon="-3.5246770">
        <ele>674.0</ele>
        <time>2020-09-29T17:48:26Z</time>
      </trkpt>
      <trkpt lat="40.5718230" lon="-3.5246770">
        <ele>674.0</ele>
        <time>2020-09-29T17:48:27Z</time>
      </trkpt>
      <trkpt lat="40.5717770" lon="-3.5245620">
        <ele>674.0</ele>
        <time>2020-09-29T17:48:28Z</time>
      </trkpt>
      <trkpt lat="40.5717770" lon="-3.5245620">
        <ele>674.0</ele>
        <time>2020-09-29T17:48:29Z</time>
      </trkpt>
      <trkpt lat="40.5717270" lon="-3.5244470">
        <ele>674.0</ele>
        <time>2020-09-29T17:48:30Z</time>
      </trkpt>
      <trkpt lat="40.5717270" lon="-3.5244470">
        <ele>675.0</ele>
        <time>2020-09-29T17:48:31Z</time>
      </trkpt>
      <trkpt lat="40.5716800" lon="-3.5243280">
        <ele>675.0</ele>
        <time>2020-09-29T17:48:32Z</time>
      </trkpt>
      <trkpt lat="40.5716530" lon="-3.5242700">
        <ele>675.0</ele>
        <time>2020-09-29T17:48:33Z</time>
      </trkpt>
      <trkpt lat="40.5716530" lon="-3.5242700">
        <ele>675.0</ele>
        <time>2020-09-29T17:48:34Z</time>
      </trkpt>
      <trkpt lat="40.5715980" lon="-3.5241530">
        <ele>675.0</ele>
        <time>2020-09-29T17:48:35Z</time>
      </trkpt>
      <trkpt lat="40.5715980" lon="-3.5241530">
        <ele>675.0</ele>
        <time>2020-09-29T17:48:36Z</time>
      </trkpt>
      <trkpt lat="40.5715430" lon="-3.5240350">
        <ele>675.0</ele>
        <time>2020-09-29T17:48:37Z</time>
      </trkpt>
      <trkpt lat="40.5715430" lon="-3.5240350">
        <ele>675.0</ele>
        <time>2020-09-29T17:48:38Z</time>
      </trkpt>
      <trkpt lat="40.5714850" lon="-3.5239150">
        <ele>676.0</ele>
        <time>2020-09-29T17:48:39Z</time>
      </trkpt>
      <trkpt lat="40.5714850" lon="-3.5239150">
        <ele>676.0</ele>
        <time>2020-09-29T17:48:40Z</time>
      </trkpt>
      <trkpt lat="40.5714300" lon="-3.5237930">
        <ele>676.0</ele>
        <time>2020-09-29T17:48:41Z</time>
      </trkpt>
      <trkpt lat="40.5714000" lon="-3.5237320">
        <ele>676.0</ele>
        <time>2020-09-29T17:48:42Z</time>
      </trkpt>
      <trkpt lat="40.5714000" lon="-3.5237320">
        <ele>676.0</ele>
        <time>2020-09-29T17:48:43Z</time>
      </trkpt>
      <trkpt lat="40.5713400" lon="-3.5236080">
        <ele>676.0</ele>
        <time>2020-09-29T17:48:44Z</time>
      </trkpt>
      <trkpt lat="40.5713400" lon="-3.5236080">
        <ele>676.0</ele>
        <time>2020-09-29T17:48:45Z</time>
      </trkpt>
      <trkpt lat="40.5712750" lon="-3.5234830">
        <ele>676.0</ele>
        <time>2020-09-29T17:48:46Z</time>
      </trkpt>
      <trkpt lat="40.5712750" lon="-3.5234830">
        <ele>676.0</ele>
        <time>2020-09-29T17:48:47Z</time>
      </trkpt>
      <trkpt lat="40.5712120" lon="-3.5233550">
        <ele>676.0</ele>
        <time>2020-09-29T17:48:48Z</time>
      </trkpt>
      <trkpt lat="40.5712120" lon="-3.5233550">
        <ele>676.0</ele>
        <time>2020-09-29T17:48:49Z</time>
      </trkpt>
      <trkpt lat="40.5711450" lon="-3.5232280">
        <ele>676.0</ele>
        <time>2020-09-29T17:48:50Z</time>
      </trkpt>
      <trkpt lat="40.5711080" lon="-3.5231650">
        <ele>676.0</ele>
        <time>2020-09-29T17:48:51Z</time>
      </trkpt>
      <trkpt lat="40.5711080" lon="-3.5231650">
        <ele>676.0</ele>
        <time>2020-09-29T17:48:52Z</time>
      </trkpt>
      <trkpt lat="40.5710380" lon="-3.5230400">
        <ele>676.0</ele>
        <time>2020-09-29T17:48:53Z</time>
      </trkpt>
      <trkpt lat="40.5710020" lon="-3.5229770">
        <ele>676.0</ele>
        <time>2020-09-29T17:48:54Z</time>
      </trkpt>
      <trkpt lat="40.5709680" lon="-3.5229130">
        <ele>676.0</ele>
        <time>2020-09-29T17:48:55Z</time>
      </trkpt>
      <trkpt lat="40.5709680" lon="-3.5229130">
        <ele>676.0</ele>
        <time>2020-09-29T17:48:56Z</time>
      </trkpt>
      <trkpt lat="40.5708970" lon="-3.5227870">
        <ele>677.0</ele>
        <time>2020-09-29T17:48:57Z</time>
      </trkpt>
      <trkpt lat="40.5708600" lon="-3.5227250">
        <ele>677.0</ele>
        <time>2020-09-29T17:48:58Z</time>
      </trkpt>
      <trkpt lat="40.5708600" lon="-3.5227250">
        <ele>677.0</ele>
        <time>2020-09-29T17:48:59Z</time>
      </trkpt>
      <trkpt lat="40.5707800" lon="-3.5226050">
        <ele>677.0</ele>
        <time>2020-09-29T17:49:00Z</time>
      </trkpt>
      <trkpt lat="40.5707800" lon="-3.5226050">
        <ele>677.0</ele>
        <time>2020-09-29T17:49:01Z</time>
      </trkpt>
      <trkpt lat="40.5706970" lon="-3.5224850">
        <ele>677.0</ele>
        <time>2020-09-29T17:49:02Z</time>
      </trkpt>
      <trkpt lat="40.5706970" lon="-3.5224850">
        <ele>677.0</ele>
        <time>2020-09-29T17:49:03Z</time>
      </trkpt>
      <trkpt lat="40.5706130" lon="-3.5223580">
        <ele>677.0</ele>
        <time>2020-09-29T17:49:04Z</time>
      </trkpt>
      <trkpt lat="40.5706130" lon="-3.5223580">
        <ele>677.0</ele>
        <time>2020-09-29T17:49:05Z</time>
      </trkpt>
      <trkpt lat="40.5705270" lon="-3.5222320">
        <ele>677.0</ele>
        <time>2020-09-29T17:49:06Z</time>
      </trkpt>
      <trkpt lat="40.5705270" lon="-3.5222320">
        <ele>677.0</ele>
        <time>2020-09-29T17:49:07Z</time>
      </trkpt>
      <trkpt lat="40.5704420" lon="-3.5221020">
        <ele>677.0</ele>
        <time>2020-09-29T17:49:08Z</time>
      </trkpt>
      <trkpt lat="40.5703980" lon="-3.5220370">
        <ele>677.0</ele>
        <time>2020-09-29T17:49:09Z</time>
      </trkpt>
      <trkpt lat="40.5703980" lon="-3.5220370">
        <ele>677.0</ele>
        <time>2020-09-29T17:49:10Z</time>
      </trkpt>
      <trkpt lat="40.5703100" lon="-3.5219020">
        <ele>677.0</ele>
        <time>2020-09-29T17:49:11Z</time>
      </trkpt>
      <trkpt lat="40.5702680" lon="-3.5218330">
        <ele>677.0</ele>
        <time>2020-09-29T17:49:12Z</time>
      </trkpt>
      <trkpt lat="40.5702680" lon="-3.5218330">
        <ele>677.0</ele>
        <time>2020-09-29T17:49:13Z</time>
      </trkpt>
      <trkpt lat="40.5701830" lon="-3.5216880">
        <ele>676.0</ele>
        <time>2020-09-29T17:49:14Z</time>
      </trkpt>
      <trkpt lat="40.5701830" lon="-3.5216880">
        <ele>676.0</ele>
        <time>2020-09-29T17:49:15Z</time>
      </trkpt>
      <trkpt lat="40.5700920" lon="-3.5215450">
        <ele>676.0</ele>
        <time>2020-09-29T17:49:16Z</time>
      </trkpt>
      <trkpt lat="40.5700920" lon="-3.5215450">
        <ele>676.0</ele>
        <time>2020-09-29T17:49:17Z</time>
      </trkpt>
      <trkpt lat="40.5699970" lon="-3.5214000">
        <ele>676.0</ele>
        <time>2020-09-29T17:49:18Z</time>
      </trkpt>
      <trkpt lat="40.5699970" lon="-3.5214000">
        <ele>676.0</ele>
        <time>2020-09-29T17:49:19Z</time>
      </trkpt>
      <trkpt lat="40.5698970" lon="-3.5212630">
        <ele>676.0</ele>
        <time>2020-09-29T17:49:20Z</time>
      </trkpt>
      <trkpt lat="40.5698970" lon="-3.5212630">
        <ele>676.0</ele>
        <time>2020-09-29T17:49:21Z</time>
      </trkpt>
      <trkpt lat="40.5697930" lon="-3.5211230">
        <ele>675.0</ele>
        <time>2020-09-29T17:49:22Z</time>
      </trkpt>
      <trkpt lat="40.5697400" lon="-3.5210550">
        <ele>675.0</ele>
        <time>2020-09-29T17:49:23Z</time>
      </trkpt>
      <trkpt lat="40.5696870" lon="-3.5209880">
        <ele>675.0</ele>
        <time>2020-09-29T17:49:24Z</time>
      </trkpt>
      <trkpt lat="40.5696870" lon="-3.5209880">
        <ele>675.0</ele>
        <time>2020-09-29T17:49:25Z</time>
      </trkpt>
      <trkpt lat="40.5695770" lon="-3.5208530">
        <ele>675.0</ele>
        <time>2020-09-29T17:49:26Z</time>
      </trkpt>
      <trkpt lat="40.5695770" lon="-3.5208530">
        <ele>675.0</ele>
        <time>2020-09-29T17:49:27Z</time>
      </trkpt>
      <trkpt lat="40.5694630" lon="-3.5207220">
        <ele>675.0</ele>
        <time>2020-09-29T17:49:28Z</time>
      </trkpt>
      <trkpt lat="40.5694630" lon="-3.5207220">
        <ele>675.0</ele>
        <time>2020-09-29T17:49:29Z</time>
      </trkpt>
      <trkpt lat="40.5693480" lon="-3.5205920">
        <ele>674.0</ele>
        <time>2020-09-29T17:49:30Z</time>
      </trkpt>
      <trkpt lat="40.5693480" lon="-3.5205920">
        <ele>674.0</ele>
        <time>2020-09-29T17:49:31Z</time>
      </trkpt>
      <trkpt lat="40.5692270" lon="-3.5204670">
        <ele>674.0</ele>
        <time>2020-09-29T17:49:32Z</time>
      </trkpt>
      <trkpt lat="40.5692270" lon="-3.5204670">
        <ele>674.0</ele>
        <time>2020-09-29T17:49:33Z</time>
      </trkpt>
      <trkpt lat="40.5691100" lon="-3.5203330">
        <ele>674.0</ele>
        <time>2020-09-29T17:49:34Z</time>
      </trkpt>
      <trkpt lat="40.5691100" lon="-3.5203330">
        <ele>674.0</ele>
        <time>2020-09-29T17:49:35Z</time>
      </trkpt>
      <trkpt lat="40.5689920" lon="-3.5202070">
        <ele>674.0</ele>
        <time>2020-09-29T17:49:36Z</time>
      </trkpt>
      <trkpt lat="40.5689320" lon="-3.5201420">
        <ele>673.0</ele>
        <time>2020-09-29T17:49:37Z</time>
      </trkpt>
      <trkpt lat="40.5688700" lon="-3.5200780">
        <ele>673.0</ele>
        <time>2020-09-29T17:49:38Z</time>
      </trkpt>
      <trkpt lat="40.5688700" lon="-3.5200780">
        <ele>673.0</ele>
        <time>2020-09-29T17:49:39Z</time>
      </trkpt>
      <trkpt lat="40.5687480" lon="-3.5199500">
        <ele>673.0</ele>
        <time>2020-09-29T17:49:40Z</time>
      </trkpt>
      <trkpt lat="40.5687480" lon="-3.5199500">
        <ele>673.0</ele>
        <time>2020-09-29T17:49:41Z</time>
      </trkpt>
      <trkpt lat="40.5686250" lon="-3.5198250">
        <ele>673.0</ele>
        <time>2020-09-29T17:49:42Z</time>
      </trkpt>
      <trkpt lat="40.5686250" lon="-3.5198250">
        <ele>673.0</ele>
        <time>2020-09-29T17:49:43Z</time>
      </trkpt>
      <trkpt lat="40.5684970" lon="-3.5197100">
        <ele>673.0</ele>
        <time>2020-09-29T17:49:44Z</time>
      </trkpt>
      <trkpt lat="40.5684970" lon="-3.5197100">
        <ele>673.0</ele>
        <time>2020-09-29T17:49:45Z</time>
      </trkpt>
      <trkpt lat="40.5683700" lon="-3.5195900">
        <ele>673.0</ele>
        <time>2020-09-29T17:49:46Z</time>
      </trkpt>
      <trkpt lat="40.5683700" lon="-3.5195900">
        <ele>672.0</ele>
        <time>2020-09-29T17:49:47Z</time>
      </trkpt>
      <trkpt lat="40.5682430" lon="-3.5194720">
        <ele>672.0</ele>
        <time>2020-09-29T17:49:48Z</time>
      </trkpt>
      <trkpt lat="40.5682430" lon="-3.5194720">
        <ele>672.0</ele>
        <time>2020-09-29T17:49:49Z</time>
      </trkpt>
      <trkpt lat="40.5681130" lon="-3.5193530">
        <ele>672.0</ele>
        <time>2020-09-29T17:49:50Z</time>
      </trkpt>
      <trkpt lat="40.5681130" lon="-3.5193530">
        <ele>672.0</ele>
        <time>2020-09-29T17:49:51Z</time>
      </trkpt>
      <trkpt lat="40.5679750" lon="-3.5192450">
        <ele>672.0</ele>
        <time>2020-09-29T17:49:52Z</time>
      </trkpt>
      <trkpt lat="40.5679750" lon="-3.5192450">
        <ele>672.0</ele>
        <time>2020-09-29T17:49:53Z</time>
      </trkpt>
      <trkpt lat="40.5679030" lon="-3.5191950">
        <ele>672.0</ele>
        <time>2020-09-29T17:49:54Z</time>
      </trkpt>
      <trkpt lat="40.5677600" lon="-3.5190900">
        <ele>672.0</ele>
        <time>2020-09-29T17:49:55Z</time>
      </trkpt>
      <trkpt lat="40.5676880" lon="-3.5190380">
        <ele>672.0</ele>
        <time>2020-09-29T17:49:56Z</time>
      </trkpt>
      <trkpt lat="40.5676880" lon="-3.5190380">
        <ele>672.0</ele>
        <time>2020-09-29T17:49:57Z</time>
      </trkpt>
      <trkpt lat="40.5675470" lon="-3.5189330">
        <ele>672.0</ele>
        <time>2020-09-29T17:49:58Z</time>
      </trkpt>
      <trkpt lat="40.5675470" lon="-3.5189330">
        <ele>672.0</ele>
        <time>2020-09-29T17:49:59Z</time>
      </trkpt>
      <trkpt lat="40.5674000" lon="-3.5188320">
        <ele>672.0</ele>
        <time>2020-09-29T17:50:00Z</time>
      </trkpt>
      <trkpt lat="40.5674000" lon="-3.5188320">
        <ele>672.0</ele>
        <time>2020-09-29T17:50:01Z</time>
      </trkpt>
      <trkpt lat="40.5672530" lon="-3.5187280">
        <ele>672.0</ele>
        <time>2020-09-29T17:50:02Z</time>
      </trkpt>
      <trkpt lat="40.5672530" lon="-3.5187280">
        <ele>672.0</ele>
        <time>2020-09-29T17:50:03Z</time>
      </trkpt>
      <trkpt lat="40.5671070" lon="-3.5186280">
        <ele>672.0</ele>
        <time>2020-09-29T17:50:04Z</time>
      </trkpt>
      <trkpt lat="40.5671070" lon="-3.5186280">
        <ele>671.0</ele>
        <time>2020-09-29T17:50:05Z</time>
      </trkpt>
      <trkpt lat="40.5669600" lon="-3.5185300">
        <ele>671.0</ele>
        <time>2020-09-29T17:50:06Z</time>
      </trkpt>
      <trkpt lat="40.5669600" lon="-3.5185300">
        <ele>671.0</ele>
        <time>2020-09-29T17:50:07Z</time>
      </trkpt>
      <trkpt lat="40.5668120" lon="-3.5184370">
        <ele>671.0</ele>
        <time>2020-09-29T17:50:08Z</time>
      </trkpt>
      <trkpt lat="40.5668120" lon="-3.5184370">
        <ele>671.0</ele>
        <time>2020-09-29T17:50:09Z</time>
      </trkpt>
      <trkpt lat="40.5666630" lon="-3.5183480">
        <ele>671.0</ele>
        <time>2020-09-29T17:50:10Z</time>
      </trkpt>
      <trkpt lat="40.5665900" lon="-3.5183030">
        <ele>671.0</ele>
        <time>2020-09-29T17:50:11Z</time>
      </trkpt>
      <trkpt lat="40.5665180" lon="-3.5182620">
        <ele>671.0</ele>
        <time>2020-09-29T17:50:12Z</time>
      </trkpt>
      <trkpt lat="40.5665180" lon="-3.5182620">
        <ele>671.0</ele>
        <time>2020-09-29T17:50:13Z</time>
      </trkpt>
      <trkpt lat="40.5663770" lon="-3.5181820">
        <ele>671.0</ele>
        <time>2020-09-29T17:50:14Z</time>
      </trkpt>
      <trkpt lat="40.5663770" lon="-3.5181820">
        <ele>671.0</ele>
        <time>2020-09-29T17:50:15Z</time>
      </trkpt>
      <trkpt lat="40.5662420" lon="-3.5181030">
        <ele>671.0</ele>
        <time>2020-09-29T17:50:16Z</time>
      </trkpt>
      <trkpt lat="40.5662420" lon="-3.5181030">
        <ele>671.0</ele>
        <time>2020-09-29T17:50:17Z</time>
      </trkpt>
      <trkpt lat="40.5661080" lon="-3.5180220">
        <ele>671.0</ele>
        <time>2020-09-29T17:50:18Z</time>
      </trkpt>
      <trkpt lat="40.5660420" lon="-3.5179830">
        <ele>671.0</ele>
        <time>2020-09-29T17:50:19Z</time>
      </trkpt>
      <trkpt lat="40.5660420" lon="-3.5179830">
        <ele>671.0</ele>
        <time>2020-09-29T17:50:20Z</time>
      </trkpt>
      <trkpt lat="40.5659050" lon="-3.5179070">
        <ele>671.0</ele>
        <time>2020-09-29T17:50:21Z</time>
      </trkpt>
      <trkpt lat="40.5658370" lon="-3.5178720">
        <ele>671.0</ele>
        <time>2020-09-29T17:50:22Z</time>
      </trkpt>
      <trkpt lat="40.5658370" lon="-3.5178720">
        <ele>671.0</ele>
        <time>2020-09-29T17:50:23Z</time>
      </trkpt>
      <trkpt lat="40.5657020" lon="-3.5178070">
        <ele>671.0</ele>
        <time>2020-09-29T17:50:24Z</time>
      </trkpt>
      <trkpt lat="40.5657020" lon="-3.5178070">
        <ele>671.0</ele>
        <time>2020-09-29T17:50:25Z</time>
      </trkpt>
      <trkpt lat="40.5655680" lon="-3.5177450">
        <ele>671.0</ele>
        <time>2020-09-29T17:50:26Z</time>
      </trkpt>
      <trkpt lat="40.5655020" lon="-3.5177150">
        <ele>671.0</ele>
        <time>2020-09-29T17:50:27Z</time>
      </trkpt>
      <trkpt lat="40.5655020" lon="-3.5177150">
        <ele>671.0</ele>
        <time>2020-09-29T17:50:28Z</time>
      </trkpt>
      <trkpt lat="40.5653720" lon="-3.5176550">
        <ele>671.0</ele>
        <time>2020-09-29T17:50:29Z</time>
      </trkpt>
      <trkpt lat="40.5653720" lon="-3.5176550">
        <ele>671.0</ele>
        <time>2020-09-29T17:50:30Z</time>
      </trkpt>
      <trkpt lat="40.5652430" lon="-3.5175980">
        <ele>671.0</ele>
        <time>2020-09-29T17:50:31Z</time>
      </trkpt>
      <trkpt lat="40.5652430" lon="-3.5175980">
        <ele>671.0</ele>
        <time>2020-09-29T17:50:32Z</time>
      </trkpt>
      <trkpt lat="40.5651150" lon="-3.5175470">
        <ele>671.0</ele>
        <time>2020-09-29T17:50:33Z</time>
      </trkpt>
      <trkpt lat="40.5651150" lon="-3.5175470">
        <ele>672.0</ele>
        <time>2020-09-29T17:50:34Z</time>
      </trkpt>
      <trkpt lat="40.5649900" lon="-3.5174970">
        <ele>672.0</ele>
        <time>2020-09-29T17:50:35Z</time>
      </trkpt>
      <trkpt lat="40.5649280" lon="-3.5174730">
        <ele>672.0</ele>
        <time>2020-09-29T17:50:36Z</time>
      </trkpt>
      <trkpt lat="40.5649280" lon="-3.5174730">
        <ele>672.0</ele>
        <time>2020-09-29T17:50:37Z</time>
      </trkpt>
      <trkpt lat="40.5648050" lon="-3.5174280">
        <ele>672.0</ele>
        <time>2020-09-29T17:50:38Z</time>
      </trkpt>
      <trkpt lat="40.5648050" lon="-3.5174280">
        <ele>672.0</ele>
        <time>2020-09-29T17:50:39Z</time>
      </trkpt>
      <trkpt lat="40.5646870" lon="-3.5173950">
        <ele>672.0</ele>
        <time>2020-09-29T17:50:40Z</time>
      </trkpt>
      <trkpt lat="40.5646870" lon="-3.5173950">
        <ele>672.0</ele>
        <time>2020-09-29T17:50:41Z</time>
      </trkpt>
      <trkpt lat="40.5645650" lon="-3.5173580">
        <ele>672.0</ele>
        <time>2020-09-29T17:50:42Z</time>
      </trkpt>
      <trkpt lat="40.5645070" lon="-3.5173380">
        <ele>672.0</ele>
        <time>2020-09-29T17:50:43Z</time>
      </trkpt>
      <trkpt lat="40.5644480" lon="-3.5173220">
        <ele>673.0</ele>
        <time>2020-09-29T17:50:44Z</time>
      </trkpt>
      <trkpt lat="40.5644480" lon="-3.5173220">
        <ele>673.0</ele>
        <time>2020-09-29T17:50:45Z</time>
      </trkpt>
      <trkpt lat="40.5643330" lon="-3.5172880">
        <ele>673.0</ele>
        <time>2020-09-29T17:50:46Z</time>
      </trkpt>
      <trkpt lat="40.5643330" lon="-3.5172880">
        <ele>673.0</ele>
        <time>2020-09-29T17:50:47Z</time>
      </trkpt>
      <trkpt lat="40.5642220" lon="-3.5172580">
        <ele>673.0</ele>
        <time>2020-09-29T17:50:48Z</time>
      </trkpt>
      <trkpt lat="40.5642220" lon="-3.5172580">
        <ele>673.0</ele>
        <time>2020-09-29T17:50:49Z</time>
      </trkpt>
      <trkpt lat="40.5641120" lon="-3.5172300">
        <ele>673.0</ele>
        <time>2020-09-29T17:50:50Z</time>
      </trkpt>
      <trkpt lat="40.5641120" lon="-3.5172300">
        <ele>673.0</ele>
        <time>2020-09-29T17:50:51Z</time>
      </trkpt>
      <trkpt lat="40.5640050" lon="-3.5172030">
        <ele>673.0</ele>
        <time>2020-09-29T17:50:52Z</time>
      </trkpt>
      <trkpt lat="40.5640050" lon="-3.5172030">
        <ele>673.0</ele>
        <time>2020-09-29T17:50:53Z</time>
      </trkpt>
      <trkpt lat="40.5639020" lon="-3.5171830">
        <ele>673.0</ele>
        <time>2020-09-29T17:50:54Z</time>
      </trkpt>
      <trkpt lat="40.5639020" lon="-3.5171830">
        <ele>673.0</ele>
        <time>2020-09-29T17:50:55Z</time>
      </trkpt>
      <trkpt lat="40.5638000" lon="-3.5171620">
        <ele>674.0</ele>
        <time>2020-09-29T17:50:56Z</time>
      </trkpt>
      <trkpt lat="40.5638000" lon="-3.5171620">
        <ele>674.0</ele>
        <time>2020-09-29T17:50:57Z</time>
      </trkpt>
      <trkpt lat="40.5637000" lon="-3.5171370">
        <ele>674.0</ele>
        <time>2020-09-29T17:50:58Z</time>
      </trkpt>
      <trkpt lat="40.5636520" lon="-3.5171250">
        <ele>674.0</ele>
        <time>2020-09-29T17:50:59Z</time>
      </trkpt>
      <trkpt lat="40.5636520" lon="-3.5171250">
        <ele>675.0</ele>
        <time>2020-09-29T17:51:00Z</time>
      </trkpt>
      <trkpt lat="40.5635570" lon="-3.5171050">
        <ele>675.0</ele>
        <time>2020-09-29T17:51:01Z</time>
      </trkpt>
      <trkpt lat="40.5635080" lon="-3.5170970">
        <ele>675.0</ele>
        <time>2020-09-29T17:51:02Z</time>
      </trkpt>
      <trkpt lat="40.5634620" lon="-3.5170880">
        <ele>676.0</ele>
        <time>2020-09-29T17:51:03Z</time>
      </trkpt>
      <trkpt lat="40.5634620" lon="-3.5170880">
        <ele>676.0</ele>
        <time>2020-09-29T17:51:04Z</time>
      </trkpt>
      <trkpt lat="40.5633700" lon="-3.5170730">
        <ele>676.0</ele>
        <time>2020-09-29T17:51:05Z</time>
      </trkpt>
      <trkpt lat="40.5633700" lon="-3.5170730">
        <ele>676.0</ele>
        <time>2020-09-29T17:51:06Z</time>
      </trkpt>
      <trkpt lat="40.5632780" lon="-3.5170600">
        <ele>676.0</ele>
        <time>2020-09-29T17:51:07Z</time>
      </trkpt>
      <trkpt lat="40.5632780" lon="-3.5170600">
        <ele>676.0</ele>
        <time>2020-09-29T17:51:08Z</time>
      </trkpt>
      <trkpt lat="40.5631900" lon="-3.5170450">
        <ele>677.0</ele>
        <time>2020-09-29T17:51:09Z</time>
      </trkpt>
      <trkpt lat="40.5631900" lon="-3.5170450">
        <ele>677.0</ele>
        <time>2020-09-29T17:51:10Z</time>
      </trkpt>
      <trkpt lat="40.5631020" lon="-3.5170280">
        <ele>677.0</ele>
        <time>2020-09-29T17:51:11Z</time>
      </trkpt>
      <trkpt lat="40.5631020" lon="-3.5170280">
        <ele>677.0</ele>
        <time>2020-09-29T17:51:12Z</time>
      </trkpt>
      <trkpt lat="40.5630580" lon="-3.5170200">
        <ele>677.0</ele>
        <time>2020-09-29T17:51:13Z</time>
      </trkpt>
      <trkpt lat="40.5629700" lon="-3.5170070">
        <ele>677.0</ele>
        <time>2020-09-29T17:51:14Z</time>
      </trkpt>
      <trkpt lat="40.5629280" lon="-3.5170020">
        <ele>677.0</ele>
        <time>2020-09-29T17:51:15Z</time>
      </trkpt>
      <trkpt lat="40.5629280" lon="-3.5170020">
        <ele>677.0</ele>
        <time>2020-09-29T17:51:16Z</time>
      </trkpt>
      <trkpt lat="40.5628420" lon="-3.5169920">
        <ele>677.0</ele>
        <time>2020-09-29T17:51:17Z</time>
      </trkpt>
      <trkpt lat="40.5628000" lon="-3.5169850">
        <ele>677.0</ele>
        <time>2020-09-29T17:51:18Z</time>
      </trkpt>
      <trkpt lat="40.5628000" lon="-3.5169850">
        <ele>677.0</ele>
        <time>2020-09-29T17:51:19Z</time>
      </trkpt>
      <trkpt lat="40.5627150" lon="-3.5169750">
        <ele>677.0</ele>
        <time>2020-09-29T17:51:20Z</time>
      </trkpt>
      <trkpt lat="40.5627150" lon="-3.5169750">
        <ele>678.0</ele>
        <time>2020-09-29T17:51:21Z</time>
      </trkpt>
      <trkpt lat="40.5626280" lon="-3.5169650">
        <ele>678.0</ele>
        <time>2020-09-29T17:51:22Z</time>
      </trkpt>
      <trkpt lat="40.5626280" lon="-3.5169650">
        <ele>678.0</ele>
        <time>2020-09-29T17:51:23Z</time>
      </trkpt>
      <trkpt lat="40.5625430" lon="-3.5169550">
        <ele>678.0</ele>
        <time>2020-09-29T17:51:24Z</time>
      </trkpt>
      <trkpt lat="40.5625430" lon="-3.5169550">
        <ele>678.0</ele>
        <time>2020-09-29T17:51:25Z</time>
      </trkpt>
      <trkpt lat="40.5624580" lon="-3.5169430">
        <ele>678.0</ele>
        <time>2020-09-29T17:51:26Z</time>
      </trkpt>
      <trkpt lat="40.5624150" lon="-3.5169370">
        <ele>679.0</ele>
        <time>2020-09-29T17:51:27Z</time>
      </trkpt>
      <trkpt lat="40.5623730" lon="-3.5169320">
        <ele>679.0</ele>
        <time>2020-09-29T17:51:28Z</time>
      </trkpt>
      <trkpt lat="40.5623730" lon="-3.5169320">
        <ele>679.0</ele>
        <time>2020-09-29T17:51:29Z</time>
      </trkpt>
      <trkpt lat="40.5622920" lon="-3.5169170">
        <ele>679.0</ele>
        <time>2020-09-29T17:51:30Z</time>
      </trkpt>
      <trkpt lat="40.5622920" lon="-3.5169170">
        <ele>679.0</ele>
        <time>2020-09-29T17:51:31Z</time>
      </trkpt>
      <trkpt lat="40.5622130" lon="-3.5169080">
        <ele>679.0</ele>
        <time>2020-09-29T17:51:32Z</time>
      </trkpt>
      <trkpt lat="40.5622130" lon="-3.5169080">
        <ele>679.0</ele>
        <time>2020-09-29T17:51:33Z</time>
      </trkpt>
      <trkpt lat="40.5621730" lon="-3.5168970">
        <ele>680.0</ele>
        <time>2020-09-29T17:51:34Z</time>
      </trkpt>
      <trkpt lat="40.5620900" lon="-3.5168750">
        <ele>680.0</ele>
        <time>2020-09-29T17:51:35Z</time>
      </trkpt>
      <trkpt lat="40.5620900" lon="-3.5168750">
        <ele>680.0</ele>
        <time>2020-09-29T17:51:36Z</time>
      </trkpt>
      <trkpt lat="40.5620050" lon="-3.5168600">
        <ele>680.0</ele>
        <time>2020-09-29T17:51:37Z</time>
      </trkpt>
      <trkpt lat="40.5620050" lon="-3.5168600">
        <ele>680.0</ele>
        <time>2020-09-29T17:51:38Z</time>
      </trkpt>
      <trkpt lat="40.5619200" lon="-3.5168480">
        <ele>681.0</ele>
        <time>2020-09-29T17:51:39Z</time>
      </trkpt>
      <trkpt lat="40.5618770" lon="-3.5168380">
        <ele>681.0</ele>
        <time>2020-09-29T17:51:40Z</time>
      </trkpt>
      <trkpt lat="40.5618770" lon="-3.5168380">
        <ele>681.0</ele>
        <time>2020-09-29T17:51:41Z</time>
      </trkpt>
      <trkpt lat="40.5617900" lon="-3.5168230">
        <ele>681.0</ele>
        <time>2020-09-29T17:51:42Z</time>
      </trkpt>
      <trkpt lat="40.5617900" lon="-3.5168230">
        <ele>681.0</ele>
        <time>2020-09-29T17:51:43Z</time>
      </trkpt>
      <trkpt lat="40.5617030" lon="-3.5168070">
        <ele>681.0</ele>
        <time>2020-09-29T17:51:44Z</time>
      </trkpt>
      <trkpt lat="40.5617030" lon="-3.5168070">
        <ele>682.0</ele>
        <time>2020-09-29T17:51:45Z</time>
      </trkpt>
      <trkpt lat="40.5616120" lon="-3.5167950">
        <ele>682.0</ele>
        <time>2020-09-29T17:51:46Z</time>
      </trkpt>
      <trkpt lat="40.5616120" lon="-3.5167950">
        <ele>682.0</ele>
        <time>2020-09-29T17:51:47Z</time>
      </trkpt>
      <trkpt lat="40.5615230" lon="-3.5167750">
        <ele>682.0</ele>
        <time>2020-09-29T17:51:48Z</time>
      </trkpt>
      <trkpt lat="40.5615230" lon="-3.5167750">
        <ele>682.0</ele>
        <time>2020-09-29T17:51:49Z</time>
      </trkpt>
      <trkpt lat="40.5614350" lon="-3.5167570">
        <ele>682.0</ele>
        <time>2020-09-29T17:51:50Z</time>
      </trkpt>
      <trkpt lat="40.5614350" lon="-3.5167570">
        <ele>683.0</ele>
        <time>2020-09-29T17:51:51Z</time>
      </trkpt>
      <trkpt lat="40.5613470" lon="-3.5167370">
        <ele>683.0</ele>
        <time>2020-09-29T17:51:52Z</time>
      </trkpt>
      <trkpt lat="40.5613470" lon="-3.5167370">
        <ele>683.0</ele>
        <time>2020-09-29T17:51:53Z</time>
      </trkpt>
      <trkpt lat="40.5612620" lon="-3.5167170">
        <ele>683.0</ele>
        <time>2020-09-29T17:51:54Z</time>
      </trkpt>
      <trkpt lat="40.5612620" lon="-3.5167170">
        <ele>683.0</ele>
        <time>2020-09-29T17:51:55Z</time>
      </trkpt>
      <trkpt lat="40.5611780" lon="-3.5166880">
        <ele>683.0</ele>
        <time>2020-09-29T17:51:56Z</time>
      </trkpt>
      <trkpt lat="40.5611780" lon="-3.5166880">
        <ele>683.0</ele>
        <time>2020-09-29T17:51:57Z</time>
      </trkpt>
      <trkpt lat="40.5610950" lon="-3.5166620">
        <ele>684.0</ele>
        <time>2020-09-29T17:51:58Z</time>
      </trkpt>
      <trkpt lat="40.5610950" lon="-3.5166620">
        <ele>684.0</ele>
        <time>2020-09-29T17:51:59Z</time>
      </trkpt>
      <trkpt lat="40.5610100" lon="-3.5166300">
        <ele>684.0</ele>
        <time>2020-09-29T17:52:00Z</time>
      </trkpt>
      <trkpt lat="40.5610100" lon="-3.5166300">
        <ele>684.0</ele>
        <time>2020-09-29T17:52:01Z</time>
      </trkpt>
      <trkpt lat="40.5609230" lon="-3.5165980">
        <ele>684.0</ele>
        <time>2020-09-29T17:52:02Z</time>
      </trkpt>
      <trkpt lat="40.5609230" lon="-3.5165980">
        <ele>684.0</ele>
        <time>2020-09-29T17:52:03Z</time>
      </trkpt>
      <trkpt lat="40.5608380" lon="-3.5165630">
        <ele>684.0</ele>
        <time>2020-09-29T17:52:04Z</time>
      </trkpt>
      <trkpt lat="40.5608380" lon="-3.5165630">
        <ele>684.0</ele>
        <time>2020-09-29T17:52:05Z</time>
      </trkpt>
      <trkpt lat="40.5607530" lon="-3.5165280">
        <ele>685.0</ele>
        <time>2020-09-29T17:52:06Z</time>
      </trkpt>
      <trkpt lat="40.5607530" lon="-3.5165280">
        <ele>685.0</ele>
        <time>2020-09-29T17:52:07Z</time>
      </trkpt>
      <trkpt lat="40.5606680" lon="-3.5164900">
        <ele>685.0</ele>
        <time>2020-09-29T17:52:08Z</time>
      </trkpt>
      <trkpt lat="40.5606280" lon="-3.5164720">
        <ele>685.0</ele>
        <time>2020-09-29T17:52:09Z</time>
      </trkpt>
      <trkpt lat="40.5606280" lon="-3.5164720">
        <ele>685.0</ele>
        <time>2020-09-29T17:52:10Z</time>
      </trkpt>
      <trkpt lat="40.5605470" lon="-3.5164330">
        <ele>685.0</ele>
        <time>2020-09-29T17:52:11Z</time>
      </trkpt>
      <trkpt lat="40.5605070" lon="-3.5164150">
        <ele>686.0</ele>
        <time>2020-09-29T17:52:12Z</time>
      </trkpt>
      <trkpt lat="40.5605070" lon="-3.5164150">
        <ele>686.0</ele>
        <time>2020-09-29T17:52:13Z</time>
      </trkpt>
      <trkpt lat="40.5605070" lon="-3.5164150">
        <ele>686.0</ele>
        <time>2020-09-29T17:52:14Z</time>
      </trkpt>
      <trkpt lat="40.5604230" lon="-3.5163770">
        <ele>686.0</ele>
        <time>2020-09-29T17:52:15Z</time>
      </trkpt>
      <trkpt lat="40.5603420" lon="-3.5163320">
        <ele>686.0</ele>
        <time>2020-09-29T17:52:16Z</time>
      </trkpt>
      <trkpt lat="40.5603420" lon="-3.5163320">
        <ele>686.0</ele>
        <time>2020-09-29T17:52:17Z</time>
      </trkpt>
      <trkpt lat="40.5602600" lon="-3.5162880">
        <ele>686.0</ele>
        <time>2020-09-29T17:52:18Z</time>
      </trkpt>
      <trkpt lat="40.5602600" lon="-3.5162880">
        <ele>686.0</ele>
        <time>2020-09-29T17:52:19Z</time>
      </trkpt>
      <trkpt lat="40.5601800" lon="-3.5162450">
        <ele>686.0</ele>
        <time>2020-09-29T17:52:20Z</time>
      </trkpt>
      <trkpt lat="40.5601800" lon="-3.5162450">
        <ele>686.0</ele>
        <time>2020-09-29T17:52:21Z</time>
      </trkpt>
      <trkpt lat="40.5601020" lon="-3.5161970">
        <ele>687.0</ele>
        <time>2020-09-29T17:52:22Z</time>
      </trkpt>
      <trkpt lat="40.5601020" lon="-3.5161970">
        <ele>687.0</ele>
        <time>2020-09-29T17:52:23Z</time>
      </trkpt>
      <trkpt lat="40.5600250" lon="-3.5161470">
        <ele>687.0</ele>
        <time>2020-09-29T17:52:24Z</time>
      </trkpt>
      <trkpt lat="40.5600250" lon="-3.5161470">
        <ele>687.0</ele>
        <time>2020-09-29T17:52:25Z</time>
      </trkpt>
      <trkpt lat="40.5599470" lon="-3.5160970">
        <ele>688.0</ele>
        <time>2020-09-29T17:52:26Z</time>
      </trkpt>
      <trkpt lat="40.5599470" lon="-3.5160970">
        <ele>688.0</ele>
        <time>2020-09-29T17:52:27Z</time>
      </trkpt>
      <trkpt lat="40.5598680" lon="-3.5160430">
        <ele>688.0</ele>
        <time>2020-09-29T17:52:28Z</time>
      </trkpt>
      <trkpt lat="40.5598680" lon="-3.5160430">
        <ele>688.0</ele>
        <time>2020-09-29T17:52:29Z</time>
      </trkpt>
      <trkpt lat="40.5597870" lon="-3.5159900">
        <ele>688.0</ele>
        <time>2020-09-29T17:52:30Z</time>
      </trkpt>
      <trkpt lat="40.5597870" lon="-3.5159900">
        <ele>688.0</ele>
        <time>2020-09-29T17:52:31Z</time>
      </trkpt>
      <trkpt lat="40.5596970" lon="-3.5159480">
        <ele>688.0</ele>
        <time>2020-09-29T17:52:32Z</time>
      </trkpt>
      <trkpt lat="40.5596570" lon="-3.5159250">
        <ele>688.0</ele>
        <time>2020-09-29T17:52:33Z</time>
      </trkpt>
      <trkpt lat="40.5596570" lon="-3.5159250">
        <ele>689.0</ele>
        <time>2020-09-29T17:52:34Z</time>
      </trkpt>
      <trkpt lat="40.5595820" lon="-3.5158670">
        <ele>689.0</ele>
        <time>2020-09-29T17:52:35Z</time>
      </trkpt>
      <trkpt lat="40.5595820" lon="-3.5158670">
        <ele>689.0</ele>
        <time>2020-09-29T17:52:36Z</time>
      </trkpt>
      <trkpt lat="40.5595050" lon="-3.5158050">
        <ele>689.0</ele>
        <time>2020-09-29T17:52:37Z</time>
      </trkpt>
      <trkpt lat="40.5594670" lon="-3.5157720">
        <ele>690.0</ele>
        <time>2020-09-29T17:52:38Z</time>
      </trkpt>
      <trkpt lat="40.5594670" lon="-3.5157720">
        <ele>690.0</ele>
        <time>2020-09-29T17:52:39Z</time>
      </trkpt>
      <trkpt lat="40.5593880" lon="-3.5157150">
        <ele>690.0</ele>
        <time>2020-09-29T17:52:40Z</time>
      </trkpt>
      <trkpt lat="40.5593880" lon="-3.5157150">
        <ele>690.0</ele>
        <time>2020-09-29T17:52:41Z</time>
      </trkpt>
      <trkpt lat="40.5593150" lon="-3.5156500">
        <ele>691.0</ele>
        <time>2020-09-29T17:52:42Z</time>
      </trkpt>
      <trkpt lat="40.5593150" lon="-3.5156500">
        <ele>691.0</ele>
        <time>2020-09-29T17:52:43Z</time>
      </trkpt>
      <trkpt lat="40.5593150" lon="-3.5156500">
        <ele>691.0</ele>
        <time>2020-09-29T17:52:44Z</time>
      </trkpt>
      <trkpt lat="40.5592470" lon="-3.5155830">
        <ele>691.0</ele>
        <time>2020-09-29T17:52:45Z</time>
      </trkpt>
      <trkpt lat="40.5591720" lon="-3.5155180">
        <ele>691.0</ele>
        <time>2020-09-29T17:52:46Z</time>
      </trkpt>
      <trkpt lat="40.5591720" lon="-3.5155180">
        <ele>691.0</ele>
        <time>2020-09-29T17:52:47Z</time>
      </trkpt>
      <trkpt lat="40.5590950" lon="-3.5154550">
        <ele>691.0</ele>
        <time>2020-09-29T17:52:48Z</time>
      </trkpt>
      <trkpt lat="40.5590950" lon="-3.5154550">
        <ele>691.0</ele>
        <time>2020-09-29T17:52:49Z</time>
      </trkpt>
      <trkpt lat="40.5590200" lon="-3.5153900">
        <ele>691.0</ele>
        <time>2020-09-29T17:52:50Z</time>
      </trkpt>
      <trkpt lat="40.5590200" lon="-3.5153900">
        <ele>691.0</ele>
        <time>2020-09-29T17:52:51Z</time>
      </trkpt>
      <trkpt lat="40.5589480" lon="-3.5153180">
        <ele>691.0</ele>
        <time>2020-09-29T17:52:52Z</time>
      </trkpt>
      <trkpt lat="40.5589480" lon="-3.5153180">
        <ele>691.0</ele>
        <time>2020-09-29T17:52:53Z</time>
      </trkpt>
      <trkpt lat="40.5588780" lon="-3.5152470">
        <ele>692.0</ele>
        <time>2020-09-29T17:52:54Z</time>
      </trkpt>
      <trkpt lat="40.5588780" lon="-3.5152470">
        <ele>692.0</ele>
        <time>2020-09-29T17:52:55Z</time>
      </trkpt>
      <trkpt lat="40.5588070" lon="-3.5151680">
        <ele>692.0</ele>
        <time>2020-09-29T17:52:56Z</time>
      </trkpt>
      <trkpt lat="40.5588070" lon="-3.5151680">
        <ele>692.0</ele>
        <time>2020-09-29T17:52:57Z</time>
      </trkpt>
      <trkpt lat="40.5587370" lon="-3.5150970">
        <ele>692.0</ele>
        <time>2020-09-29T17:52:58Z</time>
      </trkpt>
      <trkpt lat="40.5587370" lon="-3.5150970">
        <ele>692.0</ele>
        <time>2020-09-29T17:52:59Z</time>
      </trkpt>
      <trkpt lat="40.5586670" lon="-3.5150180">
        <ele>692.0</ele>
        <time>2020-09-29T17:53:00Z</time>
      </trkpt>
      <trkpt lat="40.5586670" lon="-3.5150180">
        <ele>692.0</ele>
        <time>2020-09-29T17:53:01Z</time>
      </trkpt>
      <trkpt lat="40.5585970" lon="-3.5149400">
        <ele>693.0</ele>
        <time>2020-09-29T17:53:02Z</time>
      </trkpt>
      <trkpt lat="40.5585630" lon="-3.5149020">
        <ele>693.0</ele>
        <time>2020-09-29T17:53:03Z</time>
      </trkpt>
      <trkpt lat="40.5585630" lon="-3.5149020">
        <ele>693.0</ele>
        <time>2020-09-29T17:53:04Z</time>
      </trkpt>
      <trkpt lat="40.5584970" lon="-3.5148230">
        <ele>693.0</ele>
        <time>2020-09-29T17:53:05Z</time>
      </trkpt>
      <trkpt lat="40.5584630" lon="-3.5147850">
        <ele>693.0</ele>
        <time>2020-09-29T17:53:06Z</time>
      </trkpt>
      <trkpt lat="40.5584630" lon="-3.5147850">
        <ele>693.0</ele>
        <time>2020-09-29T17:53:07Z</time>
      </trkpt>
      <trkpt lat="40.5583980" lon="-3.5147050">
        <ele>693.0</ele>
        <time>2020-09-29T17:53:08Z</time>
      </trkpt>
      <trkpt lat="40.5583980" lon="-3.5147050">
        <ele>693.0</ele>
        <time>2020-09-29T17:53:09Z</time>
      </trkpt>
      <trkpt lat="40.5583670" lon="-3.5146650">
        <ele>695.0</ele>
        <time>2020-09-29T17:53:10Z</time>
      </trkpt>
      <trkpt lat="40.5583020" lon="-3.5145870">
        <ele>695.0</ele>
        <time>2020-09-29T17:53:11Z</time>
      </trkpt>
      <trkpt lat="40.5582720" lon="-3.5145450">
        <ele>695.0</ele>
        <time>2020-09-29T17:53:12Z</time>
      </trkpt>
      <trkpt lat="40.5582720" lon="-3.5145450">
        <ele>695.0</ele>
        <time>2020-09-29T17:53:13Z</time>
      </trkpt>
      <trkpt lat="40.5582180" lon="-3.5144570">
        <ele>695.0</ele>
        <time>2020-09-29T17:53:14Z</time>
      </trkpt>
      <trkpt lat="40.5582180" lon="-3.5144570">
        <ele>695.0</ele>
        <time>2020-09-29T17:53:15Z</time>
      </trkpt>
      <trkpt lat="40.5581770" lon="-3.5143630">
        <ele>696.0</ele>
        <time>2020-09-29T17:53:16Z</time>
      </trkpt>
      <trkpt lat="40.5581770" lon="-3.5143630">
        <ele>696.0</ele>
        <time>2020-09-29T17:53:17Z</time>
      </trkpt>
      <trkpt lat="40.5581250" lon="-3.5142780">
        <ele>696.0</ele>
        <time>2020-09-29T17:53:18Z</time>
      </trkpt>
      <trkpt lat="40.5581250" lon="-3.5142780">
        <ele>696.0</ele>
        <time>2020-09-29T17:53:19Z</time>
      </trkpt>
      <trkpt lat="40.5580730" lon="-3.5141950">
        <ele>696.0</ele>
        <time>2020-09-29T17:53:20Z</time>
      </trkpt>
      <trkpt lat="40.5580730" lon="-3.5141950">
        <ele>696.0</ele>
        <time>2020-09-29T17:53:21Z</time>
      </trkpt>
      <trkpt lat="40.5580230" lon="-3.5141070">
        <ele>696.0</ele>
        <time>2020-09-29T17:53:22Z</time>
      </trkpt>
      <trkpt lat="40.5580230" lon="-3.5141070">
        <ele>696.0</ele>
        <time>2020-09-29T17:53:23Z</time>
      </trkpt>
      <trkpt lat="40.5579780" lon="-3.5140230">
        <ele>696.0</ele>
        <time>2020-09-29T17:53:24Z</time>
      </trkpt>
      <trkpt lat="40.5579780" lon="-3.5140230">
        <ele>696.0</ele>
        <time>2020-09-29T17:53:25Z</time>
      </trkpt>
      <trkpt lat="40.5579270" lon="-3.5139370">
        <ele>698.0</ele>
        <time>2020-09-29T17:53:26Z</time>
      </trkpt>
      <trkpt lat="40.5579270" lon="-3.5139370">
        <ele>698.0</ele>
        <time>2020-09-29T17:53:27Z</time>
      </trkpt>
      <trkpt lat="40.5578750" lon="-3.5138500">
        <ele>698.0</ele>
        <time>2020-09-29T17:53:28Z</time>
      </trkpt>
      <trkpt lat="40.5578480" lon="-3.5138050">
        <ele>698.0</ele>
        <time>2020-09-29T17:53:29Z</time>
      </trkpt>
      <trkpt lat="40.5578250" lon="-3.5137600">
        <ele>698.0</ele>
        <time>2020-09-29T17:53:30Z</time>
      </trkpt>
      <trkpt lat="40.5578250" lon="-3.5137600">
        <ele>698.0</ele>
        <time>2020-09-29T17:53:31Z</time>
      </trkpt>
      <trkpt lat="40.5577800" lon="-3.5136770">
        <ele>698.0</ele>
        <time>2020-09-29T17:53:32Z</time>
      </trkpt>
      <trkpt lat="40.5577800" lon="-3.5136770">
        <ele>699.0</ele>
        <time>2020-09-29T17:53:33Z</time>
      </trkpt>
      <trkpt lat="40.5577330" lon="-3.5135880">
        <ele>699.0</ele>
        <time>2020-09-29T17:53:34Z</time>
      </trkpt>
      <trkpt lat="40.5577080" lon="-3.5135450">
        <ele>699.0</ele>
        <time>2020-09-29T17:53:35Z</time>
      </trkpt>
      <trkpt lat="40.5576850" lon="-3.5135020">
        <ele>699.0</ele>
        <time>2020-09-29T17:53:36Z</time>
      </trkpt>
      <trkpt lat="40.5576630" lon="-3.5134570">
        <ele>699.0</ele>
        <time>2020-09-29T17:53:37Z</time>
      </trkpt>
      <trkpt lat="40.5576630" lon="-3.5134570">
        <ele>699.0</ele>
        <time>2020-09-29T17:53:38Z</time>
      </trkpt>
      <trkpt lat="40.5576280" lon="-3.5133700">
        <ele>700.0</ele>
        <time>2020-09-29T17:53:39Z</time>
      </trkpt>
      <trkpt lat="40.5576280" lon="-3.5133700">
        <ele>700.0</ele>
        <time>2020-09-29T17:53:40Z</time>
      </trkpt>
      <trkpt lat="40.5575870" lon="-3.5132820">
        <ele>700.0</ele>
        <time>2020-09-29T17:53:41Z</time>
      </trkpt>
      <trkpt lat="40.5575870" lon="-3.5132820">
        <ele>700.0</ele>
        <time>2020-09-29T17:53:42Z</time>
      </trkpt>
      <trkpt lat="40.5575370" lon="-3.5132020">
        <ele>700.0</ele>
        <time>2020-09-29T17:53:43Z</time>
      </trkpt>
      <trkpt lat="40.5575370" lon="-3.5132020">
        <ele>701.0</ele>
        <time>2020-09-29T17:53:44Z</time>
      </trkpt>
      <trkpt lat="40.5574930" lon="-3.5131150">
        <ele>701.0</ele>
        <time>2020-09-29T17:53:45Z</time>
      </trkpt>
      <trkpt lat="40.5574930" lon="-3.5131150">
        <ele>701.0</ele>
        <time>2020-09-29T17:53:46Z</time>
      </trkpt>
      <trkpt lat="40.5574520" lon="-3.5130270">
        <ele>701.0</ele>
        <time>2020-09-29T17:53:47Z</time>
      </trkpt>
      <trkpt lat="40.5574320" lon="-3.5129820">
        <ele>702.0</ele>
        <time>2020-09-29T17:53:48Z</time>
      </trkpt>
      <trkpt lat="40.5574320" lon="-3.5129820">
        <ele>702.0</ele>
        <time>2020-09-29T17:53:49Z</time>
      </trkpt>
      <trkpt lat="40.5573950" lon="-3.5128930">
        <ele>702.0</ele>
        <time>2020-09-29T17:53:50Z</time>
      </trkpt>
      <trkpt lat="40.5573950" lon="-3.5128930">
        <ele>702.0</ele>
        <time>2020-09-29T17:53:51Z</time>
      </trkpt>
      <trkpt lat="40.5573580" lon="-3.5128020">
        <ele>702.0</ele>
        <time>2020-09-29T17:53:52Z</time>
      </trkpt>
      <trkpt lat="40.5573380" lon="-3.5127520">
        <ele>702.0</ele>
        <time>2020-09-29T17:53:53Z</time>
      </trkpt>
      <trkpt lat="40.5573180" lon="-3.5127000">
        <ele>703.0</ele>
        <time>2020-09-29T17:53:54Z</time>
      </trkpt>
      <trkpt lat="40.5573180" lon="-3.5127000">
        <ele>703.0</ele>
        <time>2020-09-29T17:53:55Z</time>
      </trkpt>
      <trkpt lat="40.5572750" lon="-3.5125970">
        <ele>703.0</ele>
        <time>2020-09-29T17:53:56Z</time>
      </trkpt>
      <trkpt lat="40.5572550" lon="-3.5125480">
        <ele>703.0</ele>
        <time>2020-09-29T17:53:57Z</time>
      </trkpt>
      <trkpt lat="40.5572550" lon="-3.5125480">
        <ele>703.0</ele>
        <time>2020-09-29T17:53:58Z</time>
      </trkpt>
      <trkpt lat="40.5572220" lon="-3.5124530">
        <ele>703.0</ele>
        <time>2020-09-29T17:53:59Z</time>
      </trkpt>
      <trkpt lat="40.5572220" lon="-3.5124530">
        <ele>703.0</ele>
        <time>2020-09-29T17:54:00Z</time>
      </trkpt>
      <trkpt lat="40.5571870" lon="-3.5123570">
        <ele>703.0</ele>
        <time>2020-09-29T17:54:01Z</time>
      </trkpt>
      <trkpt lat="40.5571680" lon="-3.5123100">
        <ele>705.0</ele>
        <time>2020-09-29T17:54:02Z</time>
      </trkpt>
      <trkpt lat="40.5571680" lon="-3.5123100">
        <ele>705.0</ele>
        <time>2020-09-29T17:54:03Z</time>
      </trkpt>
      <trkpt lat="40.5571320" lon="-3.5122080">
        <ele>705.0</ele>
        <time>2020-09-29T17:54:04Z</time>
      </trkpt>
      <trkpt lat="40.5571120" lon="-3.5121570">
        <ele>705.0</ele>
        <time>2020-09-29T17:54:05Z</time>
      </trkpt>
      <trkpt lat="40.5570930" lon="-3.5121080">
        <ele>705.0</ele>
        <time>2020-09-29T17:54:06Z</time>
      </trkpt>
      <trkpt lat="40.5570930" lon="-3.5121080">
        <ele>705.0</ele>
        <time>2020-09-29T17:54:07Z</time>
      </trkpt>
      <trkpt lat="40.5570630" lon="-3.5120080">
        <ele>705.0</ele>
        <time>2020-09-29T17:54:08Z</time>
      </trkpt>
      <trkpt lat="40.5570480" lon="-3.5119570">
        <ele>706.0</ele>
        <time>2020-09-29T17:54:09Z</time>
      </trkpt>
      <trkpt lat="40.5570480" lon="-3.5119570">
        <ele>706.0</ele>
        <time>2020-09-29T17:54:10Z</time>
      </trkpt>
      <trkpt lat="40.5570150" lon="-3.5118570">
        <ele>706.0</ele>
        <time>2020-09-29T17:54:11Z</time>
      </trkpt>
      <trkpt lat="40.5570050" lon="-3.5118080">
        <ele>706.0</ele>
        <time>2020-09-29T17:54:12Z</time>
      </trkpt>
      <trkpt lat="40.5570050" lon="-3.5118080">
        <ele>707.0</ele>
        <time>2020-09-29T17:54:13Z</time>
      </trkpt>
      <trkpt lat="40.5569820" lon="-3.5117220">
        <ele>707.0</ele>
        <time>2020-09-29T17:54:14Z</time>
      </trkpt>
      <trkpt lat="40.5569700" lon="-3.5116720">
        <ele>707.0</ele>
        <time>2020-09-29T17:54:15Z</time>
      </trkpt>
      <trkpt lat="40.5569570" lon="-3.5116250">
        <ele>707.0</ele>
        <time>2020-09-29T17:54:16Z</time>
      </trkpt>
      <trkpt lat="40.5569570" lon="-3.5116250">
        <ele>708.0</ele>
        <time>2020-09-29T17:54:17Z</time>
      </trkpt>
      <trkpt lat="40.5569350" lon="-3.5115320">
        <ele>708.0</ele>
        <time>2020-09-29T17:54:18Z</time>
      </trkpt>
      <trkpt lat="40.5569350" lon="-3.5115320">
        <ele>708.0</ele>
        <time>2020-09-29T17:54:19Z</time>
      </trkpt>
      <trkpt lat="40.5569120" lon="-3.5114370">
        <ele>708.0</ele>
        <time>2020-09-29T17:54:20Z</time>
      </trkpt>
      <trkpt lat="40.5569120" lon="-3.5114370">
        <ele>709.0</ele>
        <time>2020-09-29T17:54:21Z</time>
      </trkpt>
      <trkpt lat="40.5568900" lon="-3.5113380">
        <ele>709.0</ele>
        <time>2020-09-29T17:54:22Z</time>
      </trkpt>
      <trkpt lat="40.5568900" lon="-3.5113380">
        <ele>709.0</ele>
        <time>2020-09-29T17:54:23Z</time>
      </trkpt>
      <trkpt lat="40.5568720" lon="-3.5112370">
        <ele>709.0</ele>
        <time>2020-09-29T17:54:24Z</time>
      </trkpt>
      <trkpt lat="40.5568720" lon="-3.5112370">
        <ele>709.0</ele>
        <time>2020-09-29T17:54:25Z</time>
      </trkpt>
      <trkpt lat="40.5568530" lon="-3.5111330">
        <ele>709.0</ele>
        <time>2020-09-29T17:54:26Z</time>
      </trkpt>
      <trkpt lat="40.5568430" lon="-3.5110850">
        <ele>709.0</ele>
        <time>2020-09-29T17:54:27Z</time>
      </trkpt>
      <trkpt lat="40.5568430" lon="-3.5110850">
        <ele>709.0</ele>
        <time>2020-09-29T17:54:28Z</time>
      </trkpt>
      <trkpt lat="40.5568220" lon="-3.5109800">
        <ele>710.0</ele>
        <time>2020-09-29T17:54:29Z</time>
      </trkpt>
      <trkpt lat="40.5568130" lon="-3.5109280">
        <ele>710.0</ele>
        <time>2020-09-29T17:54:30Z</time>
      </trkpt>
      <trkpt lat="40.5568130" lon="-3.5109280">
        <ele>710.0</ele>
        <time>2020-09-29T17:54:31Z</time>
      </trkpt>
      <trkpt lat="40.5567950" lon="-3.5108300">
        <ele>710.0</ele>
        <time>2020-09-29T17:54:32Z</time>
      </trkpt>
      <trkpt lat="40.5567950" lon="-3.5108300">
        <ele>710.0</ele>
        <time>2020-09-29T17:54:33Z</time>
      </trkpt>
      <trkpt lat="40.5567780" lon="-3.5107280">
        <ele>711.0</ele>
        <time>2020-09-29T17:54:34Z</time>
      </trkpt>
      <trkpt lat="40.5567780" lon="-3.5107280">
        <ele>711.0</ele>
        <time>2020-09-29T17:54:35Z</time>
      </trkpt>
      <trkpt lat="40.5567630" lon="-3.5106250">
        <ele>711.0</ele>
        <time>2020-09-29T17:54:36Z</time>
      </trkpt>
      <trkpt lat="40.5567630" lon="-3.5106250">
        <ele>711.0</ele>
        <time>2020-09-29T17:54:37Z</time>
      </trkpt>
      <trkpt lat="40.5567520" lon="-3.5105200">
        <ele>711.0</ele>
        <time>2020-09-29T17:54:38Z</time>
      </trkpt>
      <trkpt lat="40.5567520" lon="-3.5105200">
        <ele>711.0</ele>
        <time>2020-09-29T17:54:39Z</time>
      </trkpt>
      <trkpt lat="40.5567380" lon="-3.5104130">
        <ele>712.0</ele>
        <time>2020-09-29T17:54:40Z</time>
      </trkpt>
      <trkpt lat="40.5567380" lon="-3.5104130">
        <ele>712.0</ele>
        <time>2020-09-29T17:54:41Z</time>
      </trkpt>
      <trkpt lat="40.5567220" lon="-3.5103070">
        <ele>712.0</ele>
        <time>2020-09-29T17:54:42Z</time>
      </trkpt>
      <trkpt lat="40.5567220" lon="-3.5103070">
        <ele>712.0</ele>
        <time>2020-09-29T17:54:43Z</time>
      </trkpt>
      <trkpt lat="40.5567000" lon="-3.5102070">
        <ele>713.0</ele>
        <time>2020-09-29T17:54:44Z</time>
      </trkpt>
      <trkpt lat="40.5566880" lon="-3.5101550">
        <ele>713.0</ele>
        <time>2020-09-29T17:54:45Z</time>
      </trkpt>
      <trkpt lat="40.5566880" lon="-3.5101550">
        <ele>713.0</ele>
        <time>2020-09-29T17:54:46Z</time>
      </trkpt>
      <trkpt lat="40.5566670" lon="-3.5100530">
        <ele>713.0</ele>
        <time>2020-09-29T17:54:47Z</time>
      </trkpt>
      <trkpt lat="40.5566670" lon="-3.5100530">
        <ele>714.0</ele>
        <time>2020-09-29T17:54:48Z</time>
      </trkpt>
      <trkpt lat="40.5566520" lon="-3.5099500">
        <ele>714.0</ele>
        <time>2020-09-29T17:54:49Z</time>
      </trkpt>
      <trkpt lat="40.5566520" lon="-3.5099500">
        <ele>714.0</ele>
        <time>2020-09-29T17:54:50Z</time>
      </trkpt>
      <trkpt lat="40.5566420" lon="-3.5098380">
        <ele>714.0</ele>
        <time>2020-09-29T17:54:51Z</time>
      </trkpt>
      <trkpt lat="40.5566370" lon="-3.5097820">
        <ele>715.0</ele>
        <time>2020-09-29T17:54:52Z</time>
      </trkpt>
      <trkpt lat="40.5566370" lon="-3.5097820">
        <ele>715.0</ele>
        <time>2020-09-29T17:54:53Z</time>
      </trkpt>
      <trkpt lat="40.5566280" lon="-3.5096750">
        <ele>715.0</ele>
        <time>2020-09-29T17:54:54Z</time>
      </trkpt>
      <trkpt lat="40.5566280" lon="-3.5096750">
        <ele>715.0</ele>
        <time>2020-09-29T17:54:55Z</time>
      </trkpt>
      <trkpt lat="40.5566180" lon="-3.5095670">
        <ele>715.0</ele>
        <time>2020-09-29T17:54:56Z</time>
      </trkpt>
      <trkpt lat="40.5566180" lon="-3.5095670">
        <ele>715.0</ele>
        <time>2020-09-29T17:54:57Z</time>
      </trkpt>
      <trkpt lat="40.5566100" lon="-3.5094600">
        <ele>715.0</ele>
        <time>2020-09-29T17:54:58Z</time>
      </trkpt>
      <trkpt lat="40.5566100" lon="-3.5094600">
        <ele>715.0</ele>
        <time>2020-09-29T17:54:59Z</time>
      </trkpt>
      <trkpt lat="40.5566080" lon="-3.5093480">
        <ele>716.0</ele>
        <time>2020-09-29T17:55:00Z</time>
      </trkpt>
      <trkpt lat="40.5566080" lon="-3.5093480">
        <ele>716.0</ele>
        <time>2020-09-29T17:55:01Z</time>
      </trkpt>
      <trkpt lat="40.5566050" lon="-3.5092370">
        <ele>716.0</ele>
        <time>2020-09-29T17:55:02Z</time>
      </trkpt>
      <trkpt lat="40.5566030" lon="-3.5091830">
        <ele>716.0</ele>
        <time>2020-09-29T17:55:03Z</time>
      </trkpt>
      <trkpt lat="40.5566030" lon="-3.5091830">
        <ele>716.0</ele>
        <time>2020-09-29T17:55:04Z</time>
      </trkpt>
      <trkpt lat="40.5566020" lon="-3.5090700">
        <ele>718.0</ele>
        <time>2020-09-29T17:55:05Z</time>
      </trkpt>
      <trkpt lat="40.5566000" lon="-3.5090150">
        <ele>718.0</ele>
        <time>2020-09-29T17:55:06Z</time>
      </trkpt>
      <trkpt lat="40.5566000" lon="-3.5090150">
        <ele>718.0</ele>
        <time>2020-09-29T17:55:07Z</time>
      </trkpt>
      <trkpt lat="40.5565950" lon="-3.5089050">
        <ele>718.0</ele>
        <time>2020-09-29T17:55:08Z</time>
      </trkpt>
      <trkpt lat="40.5565950" lon="-3.5089050">
        <ele>718.0</ele>
        <time>2020-09-29T17:55:09Z</time>
      </trkpt>
      <trkpt lat="40.5566000" lon="-3.5087930">
        <ele>718.0</ele>
        <time>2020-09-29T17:55:10Z</time>
      </trkpt>
      <trkpt lat="40.5566000" lon="-3.5087930">
        <ele>718.0</ele>
        <time>2020-09-29T17:55:11Z</time>
      </trkpt>
      <trkpt lat="40.5566000" lon="-3.5086820">
        <ele>718.0</ele>
        <time>2020-09-29T17:55:12Z</time>
      </trkpt>
      <trkpt lat="40.5565980" lon="-3.5086270">
        <ele>719.0</ele>
        <time>2020-09-29T17:55:13Z</time>
      </trkpt>
      <trkpt lat="40.5565980" lon="-3.5086270">
        <ele>719.0</ele>
        <time>2020-09-29T17:55:14Z</time>
      </trkpt>
      <trkpt lat="40.5565980" lon="-3.5086270">
        <ele>719.0</ele>
        <time>2020-09-29T17:55:15Z</time>
      </trkpt>
      <trkpt lat="40.5565870" lon="-3.5084650">
        <ele>719.0</ele>
        <time>2020-09-29T17:55:16Z</time>
      </trkpt>
      <trkpt lat="40.5565870" lon="-3.5084650">
        <ele>720.0</ele>
        <time>2020-09-29T17:55:17Z</time>
      </trkpt>
      <trkpt lat="40.5565950" lon="-3.5083530">
        <ele>720.0</ele>
        <time>2020-09-29T17:55:18Z</time>
      </trkpt>
      <trkpt lat="40.5565950" lon="-3.5083530">
        <ele>720.0</ele>
        <time>2020-09-29T17:55:19Z</time>
      </trkpt>
      <trkpt lat="40.5566000" lon="-3.5082420">
        <ele>720.0</ele>
        <time>2020-09-29T17:55:20Z</time>
      </trkpt>
      <trkpt lat="40.5566000" lon="-3.5082420">
        <ele>720.0</ele>
        <time>2020-09-29T17:55:21Z</time>
      </trkpt>
      <trkpt lat="40.5566080" lon="-3.5081330">
        <ele>721.0</ele>
        <time>2020-09-29T17:55:22Z</time>
      </trkpt>
      <trkpt lat="40.5566120" lon="-3.5080770">
        <ele>721.0</ele>
        <time>2020-09-29T17:55:23Z</time>
      </trkpt>
      <trkpt lat="40.5566170" lon="-3.5080220">
        <ele>721.0</ele>
        <time>2020-09-29T17:55:24Z</time>
      </trkpt>
      <trkpt lat="40.5566170" lon="-3.5080220">
        <ele>721.0</ele>
        <time>2020-09-29T17:55:25Z</time>
      </trkpt>
      <trkpt lat="40.5566220" lon="-3.5079150">
        <ele>722.0</ele>
        <time>2020-09-29T17:55:26Z</time>
      </trkpt>
      <trkpt lat="40.5566220" lon="-3.5078650">
        <ele>722.0</ele>
        <time>2020-09-29T17:55:27Z</time>
      </trkpt>
      <trkpt lat="40.5566220" lon="-3.5078130">
        <ele>722.0</ele>
        <time>2020-09-29T17:55:28Z</time>
      </trkpt>
      <trkpt lat="40.5566220" lon="-3.5078130">
        <ele>722.0</ele>
        <time>2020-09-29T17:55:29Z</time>
      </trkpt>
      <trkpt lat="40.5566220" lon="-3.5077130">
        <ele>722.0</ele>
        <time>2020-09-29T17:55:30Z</time>
      </trkpt>
      <trkpt lat="40.5566220" lon="-3.5077130">
        <ele>722.0</ele>
        <time>2020-09-29T17:55:31Z</time>
      </trkpt>
      <trkpt lat="40.5566220" lon="-3.5076170">
        <ele>723.0</ele>
        <time>2020-09-29T17:55:32Z</time>
      </trkpt>
      <trkpt lat="40.5566220" lon="-3.5076170">
        <ele>723.0</ele>
        <time>2020-09-29T17:55:33Z</time>
      </trkpt>
      <trkpt lat="40.5566230" lon="-3.5075180">
        <ele>723.0</ele>
        <time>2020-09-29T17:55:34Z</time>
      </trkpt>
      <trkpt lat="40.5566230" lon="-3.5075180">
        <ele>723.0</ele>
        <time>2020-09-29T17:55:35Z</time>
      </trkpt>
      <trkpt lat="40.5566250" lon="-3.5074200">
        <ele>723.0</ele>
        <time>2020-09-29T17:55:36Z</time>
      </trkpt>
      <trkpt lat="40.5566250" lon="-3.5074200">
        <ele>723.0</ele>
        <time>2020-09-29T17:55:37Z</time>
      </trkpt>
      <trkpt lat="40.5566250" lon="-3.5073270">
        <ele>724.0</ele>
        <time>2020-09-29T17:55:38Z</time>
      </trkpt>
      <trkpt lat="40.5566230" lon="-3.5072800">
        <ele>724.0</ele>
        <time>2020-09-29T17:55:39Z</time>
      </trkpt>
      <trkpt lat="40.5566230" lon="-3.5072800">
        <ele>724.0</ele>
        <time>2020-09-29T17:55:40Z</time>
      </trkpt>
      <trkpt lat="40.5566220" lon="-3.5071850">
        <ele>724.0</ele>
        <time>2020-09-29T17:55:41Z</time>
      </trkpt>
      <trkpt lat="40.5566200" lon="-3.5071350">
        <ele>724.0</ele>
        <time>2020-09-29T17:55:42Z</time>
      </trkpt>
      <trkpt lat="40.5566200" lon="-3.5071350">
        <ele>724.0</ele>
        <time>2020-09-29T17:55:43Z</time>
      </trkpt>
      <trkpt lat="40.5566200" lon="-3.5071350">
        <ele>724.0</ele>
        <time>2020-09-29T17:55:44Z</time>
      </trkpt>
      <trkpt lat="40.5566180" lon="-3.5070330">
        <ele>724.0</ele>
        <time>2020-09-29T17:55:45Z</time>
      </trkpt>
      <trkpt lat="40.5566080" lon="-3.5069370">
        <ele>724.0</ele>
        <time>2020-09-29T17:55:46Z</time>
      </trkpt>
      <trkpt lat="40.5566020" lon="-3.5068900">
        <ele>724.0</ele>
        <time>2020-09-29T17:55:47Z</time>
      </trkpt>
      <trkpt lat="40.5566020" lon="-3.5068900">
        <ele>725.0</ele>
        <time>2020-09-29T17:55:48Z</time>
      </trkpt>
      <trkpt lat="40.5565950" lon="-3.5067930">
        <ele>725.0</ele>
        <time>2020-09-29T17:55:49Z</time>
      </trkpt>
      <trkpt lat="40.5565930" lon="-3.5067430">
        <ele>725.0</ele>
        <time>2020-09-29T17:55:50Z</time>
      </trkpt>
      <trkpt lat="40.5565930" lon="-3.5067430">
        <ele>725.0</ele>
        <time>2020-09-29T17:55:51Z</time>
      </trkpt>
      <trkpt lat="40.5565900" lon="-3.5066450">
        <ele>726.0</ele>
        <time>2020-09-29T17:55:52Z</time>
      </trkpt>
      <trkpt lat="40.5565900" lon="-3.5066450">
        <ele>726.0</ele>
        <time>2020-09-29T17:55:53Z</time>
      </trkpt>
      <trkpt lat="40.5565850" lon="-3.5065450">
        <ele>726.0</ele>
        <time>2020-09-29T17:55:54Z</time>
      </trkpt>
      <trkpt lat="40.5565850" lon="-3.5065450">
        <ele>726.0</ele>
        <time>2020-09-29T17:55:55Z</time>
      </trkpt>
      <trkpt lat="40.5565830" lon="-3.5064430">
        <ele>727.0</ele>
        <time>2020-09-29T17:55:56Z</time>
      </trkpt>
      <trkpt lat="40.5565830" lon="-3.5064430">
        <ele>727.0</ele>
        <time>2020-09-29T17:55:57Z</time>
      </trkpt>
      <trkpt lat="40.5565820" lon="-3.5063380">
        <ele>727.0</ele>
        <time>2020-09-29T17:55:58Z</time>
      </trkpt>
      <trkpt lat="40.5565800" lon="-3.5062880">
        <ele>727.0</ele>
        <time>2020-09-29T17:55:59Z</time>
      </trkpt>
      <trkpt lat="40.5565770" lon="-3.5062380">
        <ele>728.0</ele>
        <time>2020-09-29T17:56:00Z</time>
      </trkpt>
      <trkpt lat="40.5565770" lon="-3.5062380">
        <ele>728.0</ele>
        <time>2020-09-29T17:56:01Z</time>
      </trkpt>
      <trkpt lat="40.5565730" lon="-3.5061350">
        <ele>728.0</ele>
        <time>2020-09-29T17:56:02Z</time>
      </trkpt>
      <trkpt lat="40.5565730" lon="-3.5061350">
        <ele>728.0</ele>
        <time>2020-09-29T17:56:03Z</time>
      </trkpt>
      <trkpt lat="40.5565670" lon="-3.5060320">
        <ele>729.0</ele>
        <time>2020-09-29T17:56:04Z</time>
      </trkpt>
      <trkpt lat="40.5565670" lon="-3.5060320">
        <ele>729.0</ele>
        <time>2020-09-29T17:56:05Z</time>
      </trkpt>
      <trkpt lat="40.5565670" lon="-3.5060320">
        <ele>729.0</ele>
        <time>2020-09-29T17:56:06Z</time>
      </trkpt>
      <trkpt lat="40.5565550" lon="-3.5059300">
        <ele>729.0</ele>
        <time>2020-09-29T17:56:07Z</time>
      </trkpt>
      <trkpt lat="40.5565420" lon="-3.5058300">
        <ele>730.0</ele>
        <time>2020-09-29T17:56:08Z</time>
      </trkpt>
      <trkpt lat="40.5565420" lon="-3.5058300">
        <ele>730.0</ele>
        <time>2020-09-29T17:56:09Z</time>
      </trkpt>
      <trkpt lat="40.5565270" lon="-3.5057300">
        <ele>730.0</ele>
        <time>2020-09-29T17:56:10Z</time>
      </trkpt>
      <trkpt lat="40.5565270" lon="-3.5057300">
        <ele>730.0</ele>
        <time>2020-09-29T17:56:11Z</time>
      </trkpt>
      <trkpt lat="40.5565150" lon="-3.5056300">
        <ele>730.0</ele>
        <time>2020-09-29T17:56:12Z</time>
      </trkpt>
      <trkpt lat="40.5565150" lon="-3.5056300">
        <ele>730.0</ele>
        <time>2020-09-29T17:56:13Z</time>
      </trkpt>
      <trkpt lat="40.5564970" lon="-3.5055280">
        <ele>730.0</ele>
        <time>2020-09-29T17:56:14Z</time>
      </trkpt>
      <trkpt lat="40.5564970" lon="-3.5055280">
        <ele>730.0</ele>
        <time>2020-09-29T17:56:15Z</time>
      </trkpt>
      <trkpt lat="40.5564820" lon="-3.5054300">
        <ele>730.0</ele>
        <time>2020-09-29T17:56:16Z</time>
      </trkpt>
      <trkpt lat="40.5564820" lon="-3.5054300">
        <ele>730.0</ele>
        <time>2020-09-29T17:56:17Z</time>
      </trkpt>
      <trkpt lat="40.5564550" lon="-3.5053430">
        <ele>732.0</ele>
        <time>2020-09-29T17:56:18Z</time>
      </trkpt>
      <trkpt lat="40.5564550" lon="-3.5053430">
        <ele>732.0</ele>
        <time>2020-09-29T17:56:19Z</time>
      </trkpt>
      <trkpt lat="40.5564320" lon="-3.5052430">
        <ele>732.0</ele>
        <time>2020-09-29T17:56:20Z</time>
      </trkpt>
      <trkpt lat="40.5564320" lon="-3.5052430">
        <ele>732.0</ele>
        <time>2020-09-29T17:56:21Z</time>
      </trkpt>
      <trkpt lat="40.5564150" lon="-3.5051430">
        <ele>733.0</ele>
        <time>2020-09-29T17:56:22Z</time>
      </trkpt>
      <trkpt lat="40.5564150" lon="-3.5051430">
        <ele>733.0</ele>
        <time>2020-09-29T17:56:23Z</time>
      </trkpt>
      <trkpt lat="40.5563930" lon="-3.5050450">
        <ele>733.0</ele>
        <time>2020-09-29T17:56:24Z</time>
      </trkpt>
      <trkpt lat="40.5563930" lon="-3.5050450">
        <ele>733.0</ele>
        <time>2020-09-29T17:56:25Z</time>
      </trkpt>
      <trkpt lat="40.5563720" lon="-3.5049430">
        <ele>734.0</ele>
        <time>2020-09-29T17:56:26Z</time>
      </trkpt>
      <trkpt lat="40.5563600" lon="-3.5048930">
        <ele>734.0</ele>
        <time>2020-09-29T17:56:27Z</time>
      </trkpt>
      <trkpt lat="40.5563600" lon="-3.5048930">
        <ele>734.0</ele>
        <time>2020-09-29T17:56:28Z</time>
      </trkpt>
      <trkpt lat="40.5563350" lon="-3.5047950">
        <ele>734.0</ele>
        <time>2020-09-29T17:56:29Z</time>
      </trkpt>
      <trkpt lat="40.5563230" lon="-3.5047470">
        <ele>734.0</ele>
        <time>2020-09-29T17:56:30Z</time>
      </trkpt>
      <trkpt lat="40.5563230" lon="-3.5047470">
        <ele>734.0</ele>
        <time>2020-09-29T17:56:31Z</time>
      </trkpt>
      <trkpt lat="40.5563230" lon="-3.5047470">
        <ele>734.0</ele>
        <time>2020-09-29T17:56:32Z</time>
      </trkpt>
      <trkpt lat="40.5562850" lon="-3.5046000">
        <ele>734.0</ele>
        <time>2020-09-29T17:56:33Z</time>
      </trkpt>
      <trkpt lat="40.5562850" lon="-3.5046000">
        <ele>734.0</ele>
        <time>2020-09-29T17:56:34Z</time>
      </trkpt>
      <trkpt lat="40.5562620" lon="-3.5045000">
        <ele>734.0</ele>
        <time>2020-09-29T17:56:35Z</time>
      </trkpt>
      <trkpt lat="40.5562620" lon="-3.5045000">
        <ele>736.0</ele>
        <time>2020-09-29T17:56:36Z</time>
      </trkpt>
      <trkpt lat="40.5562400" lon="-3.5044000">
        <ele>736.0</ele>
        <time>2020-09-29T17:56:37Z</time>
      </trkpt>
      <trkpt lat="40.5562300" lon="-3.5043500">
        <ele>736.0</ele>
        <time>2020-09-29T17:56:38Z</time>
      </trkpt>
      <trkpt lat="40.5562300" lon="-3.5043500">
        <ele>736.0</ele>
        <time>2020-09-29T17:56:39Z</time>
      </trkpt>
      <trkpt lat="40.5562050" lon="-3.5042530">
        <ele>736.0</ele>
        <time>2020-09-29T17:56:40Z</time>
      </trkpt>
      <trkpt lat="40.5562050" lon="-3.5042530">
        <ele>736.0</ele>
        <time>2020-09-29T17:56:41Z</time>
      </trkpt>
      <trkpt lat="40.5561780" lon="-3.5041570">
        <ele>736.0</ele>
        <time>2020-09-29T17:56:42Z</time>
      </trkpt>
      <trkpt lat="40.5561780" lon="-3.5041570">
        <ele>736.0</ele>
        <time>2020-09-29T17:56:43Z</time>
      </trkpt>
      <trkpt lat="40.5561450" lon="-3.5040600">
        <ele>736.0</ele>
        <time>2020-09-29T17:56:44Z</time>
      </trkpt>
      <trkpt lat="40.5561300" lon="-3.5040120">
        <ele>736.0</ele>
        <time>2020-09-29T17:56:45Z</time>
      </trkpt>
      <trkpt lat="40.5561300" lon="-3.5040120">
        <ele>736.0</ele>
        <time>2020-09-29T17:56:46Z</time>
      </trkpt>
      <trkpt lat="40.5561000" lon="-3.5039130">
        <ele>736.0</ele>
        <time>2020-09-29T17:56:47Z</time>
      </trkpt>
      <trkpt lat="40.5560680" lon="-3.5038620">
        <ele>737.0</ele>
        <time>2020-09-29T17:56:48Z</time>
      </trkpt>
      <trkpt lat="40.5560680" lon="-3.5038620">
        <ele>737.0</ele>
        <time>2020-09-29T17:56:49Z</time>
      </trkpt>
      <trkpt lat="40.5560370" lon="-3.5037670">
        <ele>737.0</ele>
        <time>2020-09-29T17:56:50Z</time>
      </trkpt>
      <trkpt lat="40.5560370" lon="-3.5037670">
        <ele>737.0</ele>
        <time>2020-09-29T17:56:51Z</time>
      </trkpt>
      <trkpt lat="40.5560070" lon="-3.5036720">
        <ele>738.0</ele>
        <time>2020-09-29T17:56:52Z</time>
      </trkpt>
      <trkpt lat="40.5559900" lon="-3.5036230">
        <ele>738.0</ele>
        <time>2020-09-29T17:56:53Z</time>
      </trkpt>
      <trkpt lat="40.5559900" lon="-3.5036230">
        <ele>738.0</ele>
        <time>2020-09-29T17:56:54Z</time>
      </trkpt>
      <trkpt lat="40.5559550" lon="-3.5035270">
        <ele>738.0</ele>
        <time>2020-09-29T17:56:55Z</time>
      </trkpt>
      <trkpt lat="40.5559380" lon="-3.5034780">
        <ele>738.0</ele>
        <time>2020-09-29T17:56:56Z</time>
      </trkpt>
      <trkpt lat="40.5559380" lon="-3.5034780">
        <ele>738.0</ele>
        <time>2020-09-29T17:56:57Z</time>
      </trkpt>
      <trkpt lat="40.5559070" lon="-3.5033880">
        <ele>739.0</ele>
        <time>2020-09-29T17:56:58Z</time>
      </trkpt>
      <trkpt lat="40.5559070" lon="-3.5033880">
        <ele>739.0</ele>
        <time>2020-09-29T17:56:59Z</time>
      </trkpt>
      <trkpt lat="40.5558800" lon="-3.5033030">
        <ele>739.0</ele>
        <time>2020-09-29T17:57:00Z</time>
      </trkpt>
      <trkpt lat="40.5558800" lon="-3.5033030">
        <ele>739.0</ele>
        <time>2020-09-29T17:57:01Z</time>
      </trkpt>
      <trkpt lat="40.5558470" lon="-3.5032100">
        <ele>740.0</ele>
        <time>2020-09-29T17:57:02Z</time>
      </trkpt>
      <trkpt lat="40.5558470" lon="-3.5032100">
        <ele>740.0</ele>
        <time>2020-09-29T17:57:03Z</time>
      </trkpt>
      <trkpt lat="40.5558120" lon="-3.5031200">
        <ele>740.0</ele>
        <time>2020-09-29T17:57:04Z</time>
      </trkpt>
      <trkpt lat="40.5558120" lon="-3.5031200">
        <ele>740.0</ele>
        <time>2020-09-29T17:57:05Z</time>
      </trkpt>
      <trkpt lat="40.5557730" lon="-3.5030300">
        <ele>741.0</ele>
        <time>2020-09-29T17:57:06Z</time>
      </trkpt>
      <trkpt lat="40.5557550" lon="-3.5029820">
        <ele>741.0</ele>
        <time>2020-09-29T17:57:07Z</time>
      </trkpt>
      <trkpt lat="40.5557550" lon="-3.5029820">
        <ele>741.0</ele>
        <time>2020-09-29T17:57:08Z</time>
      </trkpt>
      <trkpt lat="40.5557150" lon="-3.5028930">
        <ele>741.0</ele>
        <time>2020-09-29T17:57:09Z</time>
      </trkpt>
      <trkpt lat="40.5557150" lon="-3.5028930">
        <ele>742.0</ele>
        <time>2020-09-29T17:57:10Z</time>
      </trkpt>
      <trkpt lat="40.5556780" lon="-3.5028050">
        <ele>742.0</ele>
        <time>2020-09-29T17:57:11Z</time>
      </trkpt>
      <trkpt lat="40.5556620" lon="-3.5027630">
        <ele>742.0</ele>
        <time>2020-09-29T17:57:12Z</time>
      </trkpt>
      <trkpt lat="40.5556620" lon="-3.5027630">
        <ele>743.0</ele>
        <time>2020-09-29T17:57:13Z</time>
      </trkpt>
      <trkpt lat="40.5556200" lon="-3.5026700">
        <ele>743.0</ele>
        <time>2020-09-29T17:57:14Z</time>
      </trkpt>
      <trkpt lat="40.5556200" lon="-3.5026700">
        <ele>743.0</ele>
        <time>2020-09-29T17:57:15Z</time>
      </trkpt>
      <trkpt lat="40.5555750" lon="-3.5025800">
        <ele>743.0</ele>
        <time>2020-09-29T17:57:16Z</time>
      </trkpt>
      <trkpt lat="40.5555750" lon="-3.5025800">
        <ele>744.0</ele>
        <time>2020-09-29T17:57:17Z</time>
      </trkpt>
      <trkpt lat="40.5555280" lon="-3.5024880">
        <ele>744.0</ele>
        <time>2020-09-29T17:57:18Z</time>
      </trkpt>
      <trkpt lat="40.5555280" lon="-3.5024880">
        <ele>744.0</ele>
        <time>2020-09-29T17:57:19Z</time>
      </trkpt>
      <trkpt lat="40.5554670" lon="-3.5024030">
        <ele>744.0</ele>
        <time>2020-09-29T17:57:20Z</time>
      </trkpt>
      <trkpt lat="40.5554670" lon="-3.5024030">
        <ele>745.0</ele>
        <time>2020-09-29T17:57:21Z</time>
      </trkpt>
      <trkpt lat="40.5554200" lon="-3.5023130">
        <ele>745.0</ele>
        <time>2020-09-29T17:57:22Z</time>
      </trkpt>
      <trkpt lat="40.5554200" lon="-3.5023130">
        <ele>745.0</ele>
        <time>2020-09-29T17:57:23Z</time>
      </trkpt>
      <trkpt lat="40.5553730" lon="-3.5022270">
        <ele>745.0</ele>
        <time>2020-09-29T17:57:24Z</time>
      </trkpt>
      <trkpt lat="40.5553730" lon="-3.5022270">
        <ele>746.0</ele>
        <time>2020-09-29T17:57:25Z</time>
      </trkpt>
      <trkpt lat="40.5553250" lon="-3.5021420">
        <ele>746.0</ele>
        <time>2020-09-29T17:57:26Z</time>
      </trkpt>
      <trkpt lat="40.5553020" lon="-3.5021000">
        <ele>746.0</ele>
        <time>2020-09-29T17:57:27Z</time>
      </trkpt>
      <trkpt lat="40.5553020" lon="-3.5021000">
        <ele>746.0</ele>
        <time>2020-09-29T17:57:28Z</time>
      </trkpt>
      <trkpt lat="40.5552570" lon="-3.5020170">
        <ele>746.0</ele>
        <time>2020-09-29T17:57:29Z</time>
      </trkpt>
      <trkpt lat="40.5552570" lon="-3.5020170">
        <ele>746.0</ele>
        <time>2020-09-29T17:57:30Z</time>
      </trkpt>
      <trkpt lat="40.5552080" lon="-3.5019330">
        <ele>746.0</ele>
        <time>2020-09-29T17:57:31Z</time>
      </trkpt>
      <trkpt lat="40.5551870" lon="-3.5018950">
        <ele>746.0</ele>
        <time>2020-09-29T17:57:32Z</time>
      </trkpt>
      <trkpt lat="40.5551870" lon="-3.5018950">
        <ele>748.0</ele>
        <time>2020-09-29T17:57:33Z</time>
      </trkpt>
      <trkpt lat="40.5551430" lon="-3.5018080">
        <ele>748.0</ele>
        <time>2020-09-29T17:57:34Z</time>
      </trkpt>
      <trkpt lat="40.5551200" lon="-3.5017620">
        <ele>748.0</ele>
        <time>2020-09-29T17:57:35Z</time>
      </trkpt>
      <trkpt lat="40.5551200" lon="-3.5017620">
        <ele>748.0</ele>
        <time>2020-09-29T17:57:36Z</time>
      </trkpt>
      <trkpt lat="40.5550780" lon="-3.5016800">
        <ele>748.0</ele>
        <time>2020-09-29T17:57:37Z</time>
      </trkpt>
      <trkpt lat="40.5550780" lon="-3.5016800">
        <ele>748.0</ele>
        <time>2020-09-29T17:57:38Z</time>
      </trkpt>
      <trkpt lat="40.5550370" lon="-3.5015980">
        <ele>749.0</ele>
        <time>2020-09-29T17:57:39Z</time>
      </trkpt>
      <trkpt lat="40.5550370" lon="-3.5015980">
        <ele>749.0</ele>
        <time>2020-09-29T17:57:40Z</time>
      </trkpt>
      <trkpt lat="40.5549930" lon="-3.5015150">
        <ele>749.0</ele>
        <time>2020-09-29T17:57:41Z</time>
      </trkpt>
      <trkpt lat="40.5549930" lon="-3.5015150">
        <ele>749.0</ele>
        <time>2020-09-29T17:57:42Z</time>
      </trkpt>
      <trkpt lat="40.5549500" lon="-3.5014350">
        <ele>749.0</ele>
        <time>2020-09-29T17:57:43Z</time>
      </trkpt>
      <trkpt lat="40.5549280" lon="-3.5013900">
        <ele>749.0</ele>
        <time>2020-09-29T17:57:44Z</time>
      </trkpt>
      <trkpt lat="40.5549280" lon="-3.5013900">
        <ele>749.0</ele>
        <time>2020-09-29T17:57:45Z</time>
      </trkpt>
      <trkpt lat="40.5548830" lon="-3.5013000">
        <ele>750.0</ele>
        <time>2020-09-29T17:57:46Z</time>
      </trkpt>
      <trkpt lat="40.5548620" lon="-3.5012570">
        <ele>750.0</ele>
        <time>2020-09-29T17:57:47Z</time>
      </trkpt>
      <trkpt lat="40.5548380" lon="-3.5012120">
        <ele>750.0</ele>
        <time>2020-09-29T17:57:48Z</time>
      </trkpt>
      <trkpt lat="40.5548380" lon="-3.5012120">
        <ele>750.0</ele>
        <time>2020-09-29T17:57:49Z</time>
      </trkpt>
      <trkpt lat="40.5547920" lon="-3.5011250">
        <ele>751.0</ele>
        <time>2020-09-29T17:57:50Z</time>
      </trkpt>
      <trkpt lat="40.5547920" lon="-3.5011250">
        <ele>751.0</ele>
        <time>2020-09-29T17:57:51Z</time>
      </trkpt>
      <trkpt lat="40.5547530" lon="-3.5010350">
        <ele>751.0</ele>
        <time>2020-09-29T17:57:52Z</time>
      </trkpt>
      <trkpt lat="40.5547300" lon="-3.5009830">
        <ele>751.0</ele>
        <time>2020-09-29T17:57:53Z</time>
      </trkpt>
      <trkpt lat="40.5547080" lon="-3.5009370">
        <ele>752.0</ele>
        <time>2020-09-29T17:57:54Z</time>
      </trkpt>
      <trkpt lat="40.5547080" lon="-3.5009370">
        <ele>752.0</ele>
        <time>2020-09-29T17:57:55Z</time>
      </trkpt>
      <trkpt lat="40.5546680" lon="-3.5008430">
        <ele>752.0</ele>
        <time>2020-09-29T17:57:56Z</time>
      </trkpt>
      <trkpt lat="40.5546680" lon="-3.5008430">
        <ele>752.0</ele>
        <time>2020-09-29T17:57:57Z</time>
      </trkpt>
      <trkpt lat="40.5546300" lon="-3.5007400">
        <ele>752.0</ele>
        <time>2020-09-29T17:57:58Z</time>
      </trkpt>
      <trkpt lat="40.5546300" lon="-3.5007400">
        <ele>753.0</ele>
        <time>2020-09-29T17:57:59Z</time>
      </trkpt>
      <trkpt lat="40.5545980" lon="-3.5006350">
        <ele>753.0</ele>
        <time>2020-09-29T17:58:00Z</time>
      </trkpt>
      <trkpt lat="40.5545980" lon="-3.5006350">
        <ele>753.0</ele>
        <time>2020-09-29T17:58:01Z</time>
      </trkpt>
      <trkpt lat="40.5545700" lon="-3.5005300">
        <ele>753.0</ele>
        <time>2020-09-29T17:58:02Z</time>
      </trkpt>
      <trkpt lat="40.5545700" lon="-3.5005300">
        <ele>753.0</ele>
        <time>2020-09-29T17:58:03Z</time>
      </trkpt>
      <trkpt lat="40.5545470" lon="-3.5004270">
        <ele>753.0</ele>
        <time>2020-09-29T17:58:04Z</time>
      </trkpt>
      <trkpt lat="40.5545470" lon="-3.5004270">
        <ele>753.0</ele>
        <time>2020-09-29T17:58:05Z</time>
      </trkpt>
      <trkpt lat="40.5545200" lon="-3.5003270">
        <ele>753.0</ele>
        <time>2020-09-29T17:58:06Z</time>
      </trkpt>
      <trkpt lat="40.5545200" lon="-3.5003270">
        <ele>753.0</ele>
        <time>2020-09-29T17:58:07Z</time>
      </trkpt>
      <trkpt lat="40.5544980" lon="-3.5002150">
        <ele>753.0</ele>
        <time>2020-09-29T17:58:08Z</time>
      </trkpt>
      <trkpt lat="40.5544980" lon="-3.5002150">
        <ele>753.0</ele>
        <time>2020-09-29T17:58:09Z</time>
      </trkpt>
      <trkpt lat="40.5544770" lon="-3.5001030">
        <ele>755.0</ele>
        <time>2020-09-29T17:58:10Z</time>
      </trkpt>
      <trkpt lat="40.5544670" lon="-3.5000480">
        <ele>755.0</ele>
        <time>2020-09-29T17:58:11Z</time>
      </trkpt>
      <trkpt lat="40.5544600" lon="-3.4999900">
        <ele>755.0</ele>
        <time>2020-09-29T17:58:12Z</time>
      </trkpt>
      <trkpt lat="40.5544600" lon="-3.4999900">
        <ele>755.0</ele>
        <time>2020-09-29T17:58:13Z</time>
      </trkpt>
      <trkpt lat="40.5544450" lon="-3.4998770">
        <ele>755.0</ele>
        <time>2020-09-29T17:58:14Z</time>
      </trkpt>
      <trkpt lat="40.5544380" lon="-3.4998180">
        <ele>755.0</ele>
        <time>2020-09-29T17:58:15Z</time>
      </trkpt>
      <trkpt lat="40.5544280" lon="-3.4997650">
        <ele>755.0</ele>
        <time>2020-09-29T17:58:16Z</time>
      </trkpt>
      <trkpt lat="40.5544280" lon="-3.4997650">
        <ele>755.0</ele>
        <time>2020-09-29T17:58:17Z</time>
      </trkpt>
      <trkpt lat="40.5544070" lon="-3.4996500">
        <ele>755.0</ele>
        <time>2020-09-29T17:58:18Z</time>
      </trkpt>
      <trkpt lat="40.5544070" lon="-3.4996500">
        <ele>755.0</ele>
        <time>2020-09-29T17:58:19Z</time>
      </trkpt>
      <trkpt lat="40.5543850" lon="-3.4995330">
        <ele>756.0</ele>
        <time>2020-09-29T17:58:20Z</time>
      </trkpt>
      <trkpt lat="40.5543850" lon="-3.4995330">
        <ele>756.0</ele>
        <time>2020-09-29T17:58:21Z</time>
      </trkpt>
      <trkpt lat="40.5543670" lon="-3.4994130">
        <ele>756.0</ele>
        <time>2020-09-29T17:58:22Z</time>
      </trkpt>
      <trkpt lat="40.5543670" lon="-3.4994130">
        <ele>756.0</ele>
        <time>2020-09-29T17:58:23Z</time>
      </trkpt>
      <trkpt lat="40.5543430" lon="-3.4992920">
        <ele>756.0</ele>
        <time>2020-09-29T17:58:24Z</time>
      </trkpt>
      <trkpt lat="40.5543430" lon="-3.4992920">
        <ele>756.0</ele>
        <time>2020-09-29T17:58:25Z</time>
      </trkpt>
      <trkpt lat="40.5543220" lon="-3.4991630">
        <ele>756.0</ele>
        <time>2020-09-29T17:58:26Z</time>
      </trkpt>
      <trkpt lat="40.5543220" lon="-3.4991630">
        <ele>756.0</ele>
        <time>2020-09-29T17:58:27Z</time>
      </trkpt>
      <trkpt lat="40.5543120" lon="-3.4990970">
        <ele>756.0</ele>
        <time>2020-09-29T17:58:28Z</time>
      </trkpt>
      <trkpt lat="40.5542900" lon="-3.4989620">
        <ele>757.0</ele>
        <time>2020-09-29T17:58:29Z</time>
      </trkpt>
      <trkpt lat="40.5542900" lon="-3.4989620">
        <ele>757.0</ele>
        <time>2020-09-29T17:58:30Z</time>
      </trkpt>
      <trkpt lat="40.5542700" lon="-3.4988250">
        <ele>757.0</ele>
        <time>2020-09-29T17:58:31Z</time>
      </trkpt>
      <trkpt lat="40.5542600" lon="-3.4987530">
        <ele>757.0</ele>
        <time>2020-09-29T17:58:32Z</time>
      </trkpt>
      <trkpt lat="40.5542600" lon="-3.4987530">
        <ele>757.0</ele>
        <time>2020-09-29T17:58:33Z</time>
      </trkpt>
      <trkpt lat="40.5542400" lon="-3.4986070">
        <ele>757.0</ele>
        <time>2020-09-29T17:58:34Z</time>
      </trkpt>
      <trkpt lat="40.5542280" lon="-3.4985370">
        <ele>757.0</ele>
        <time>2020-09-29T17:58:35Z</time>
      </trkpt>
      <trkpt lat="40.5542170" lon="-3.4984630">
        <ele>757.0</ele>
        <time>2020-09-29T17:58:36Z</time>
      </trkpt>
      <trkpt lat="40.5542170" lon="-3.4984630">
        <ele>757.0</ele>
        <time>2020-09-29T17:58:37Z</time>
      </trkpt>
      <trkpt lat="40.5541980" lon="-3.4983130">
        <ele>757.0</ele>
        <time>2020-09-29T17:58:38Z</time>
      </trkpt>
      <trkpt lat="40.5541980" lon="-3.4983130">
        <ele>757.0</ele>
        <time>2020-09-29T17:58:39Z</time>
      </trkpt>
      <trkpt lat="40.5541820" lon="-3.4981570">
        <ele>757.0</ele>
        <time>2020-09-29T17:58:40Z</time>
      </trkpt>
      <trkpt lat="40.5541820" lon="-3.4981570">
        <ele>757.0</ele>
        <time>2020-09-29T17:58:41Z</time>
      </trkpt>
      <trkpt lat="40.5541670" lon="-3.4979920">
        <ele>757.0</ele>
        <time>2020-09-29T17:58:42Z</time>
      </trkpt>
      <trkpt lat="40.5541670" lon="-3.4979920">
        <ele>757.0</ele>
        <time>2020-09-29T17:58:43Z</time>
      </trkpt>
      <trkpt lat="40.5541570" lon="-3.4978280">
        <ele>757.0</ele>
        <time>2020-09-29T17:58:44Z</time>
      </trkpt>
      <trkpt lat="40.5541570" lon="-3.4978280">
        <ele>757.0</ele>
        <time>2020-09-29T17:58:45Z</time>
      </trkpt>
      <trkpt lat="40.5541570" lon="-3.4978280">
        <ele>757.0</ele>
        <time>2020-09-29T17:58:46Z</time>
      </trkpt>
      <trkpt lat="40.5541500" lon="-3.4976620">
        <ele>757.0</ele>
        <time>2020-09-29T17:58:47Z</time>
      </trkpt>
      <trkpt lat="40.5541470" lon="-3.4974920">
        <ele>757.0</ele>
        <time>2020-09-29T17:58:48Z</time>
      </trkpt>
      <trkpt lat="40.5541470" lon="-3.4974920">
        <ele>757.0</ele>
        <time>2020-09-29T17:58:49Z</time>
      </trkpt>
      <trkpt lat="40.5541470" lon="-3.4973220">
        <ele>757.0</ele>
        <time>2020-09-29T17:58:50Z</time>
      </trkpt>
      <trkpt lat="40.5541450" lon="-3.4972380">
        <ele>757.0</ele>
        <time>2020-09-29T17:58:51Z</time>
      </trkpt>
      <trkpt lat="40.5541420" lon="-3.4971520">
        <ele>757.0</ele>
        <time>2020-09-29T17:58:52Z</time>
      </trkpt>
      <trkpt lat="40.5541430" lon="-3.4970650">
        <ele>757.0</ele>
        <time>2020-09-29T17:58:53Z</time>
      </trkpt>
      <trkpt lat="40.5541450" lon="-3.4969770">
        <ele>757.0</ele>
        <time>2020-09-29T17:58:54Z</time>
      </trkpt>
      <trkpt lat="40.5541450" lon="-3.4969770">
        <ele>757.0</ele>
        <time>2020-09-29T17:58:55Z</time>
      </trkpt>
      <trkpt lat="40.5541480" lon="-3.4967970">
        <ele>757.0</ele>
        <time>2020-09-29T17:58:56Z</time>
      </trkpt>
      <trkpt lat="40.5541480" lon="-3.4967970">
        <ele>757.0</ele>
        <time>2020-09-29T17:58:57Z</time>
      </trkpt>
      <trkpt lat="40.5541580" lon="-3.4966150">
        <ele>757.0</ele>
        <time>2020-09-29T17:58:58Z</time>
      </trkpt>
      <trkpt lat="40.5541580" lon="-3.4966150">
        <ele>757.0</ele>
        <time>2020-09-29T17:58:59Z</time>
      </trkpt>
      <trkpt lat="40.5541700" lon="-3.4964350">
        <ele>756.0</ele>
        <time>2020-09-29T17:59:00Z</time>
      </trkpt>
      <trkpt lat="40.5541700" lon="-3.4964350">
        <ele>756.0</ele>
        <time>2020-09-29T17:59:01Z</time>
      </trkpt>
      <trkpt lat="40.5541900" lon="-3.4962550">
        <ele>756.0</ele>
        <time>2020-09-29T17:59:02Z</time>
      </trkpt>
      <trkpt lat="40.5541900" lon="-3.4962550">
        <ele>756.0</ele>
        <time>2020-09-29T17:59:03Z</time>
      </trkpt>
      <trkpt lat="40.5542130" lon="-3.4960750">
        <ele>756.0</ele>
        <time>2020-09-29T17:59:04Z</time>
      </trkpt>
      <trkpt lat="40.5542130" lon="-3.4960750">
        <ele>756.0</ele>
        <time>2020-09-29T17:59:05Z</time>
      </trkpt>
      <trkpt lat="40.5542380" lon="-3.4958970">
        <ele>756.0</ele>
        <time>2020-09-29T17:59:06Z</time>
      </trkpt>
      <trkpt lat="40.5542380" lon="-3.4958970">
        <ele>756.0</ele>
        <time>2020-09-29T17:59:07Z</time>
      </trkpt>
      <trkpt lat="40.5542600" lon="-3.4957200">
        <ele>756.0</ele>
        <time>2020-09-29T17:59:08Z</time>
      </trkpt>
      <trkpt lat="40.5542600" lon="-3.4957200">
        <ele>756.0</ele>
        <time>2020-09-29T17:59:09Z</time>
      </trkpt>
      <trkpt lat="40.5542600" lon="-3.4957200">
        <ele>755.0</ele>
        <time>2020-09-29T17:59:10Z</time>
      </trkpt>
      <trkpt lat="40.5542900" lon="-3.4955420">
        <ele>755.0</ele>
        <time>2020-09-29T17:59:11Z</time>
      </trkpt>
      <trkpt lat="40.5543230" lon="-3.4953650">
        <ele>755.0</ele>
        <time>2020-09-29T17:59:12Z</time>
      </trkpt>
      <trkpt lat="40.5543430" lon="-3.4952780">
        <ele>755.0</ele>
        <time>2020-09-29T17:59:13Z</time>
      </trkpt>
      <trkpt lat="40.5543430" lon="-3.4952780">
        <ele>755.0</ele>
        <time>2020-09-29T17:59:14Z</time>
      </trkpt>
      <trkpt lat="40.5543820" lon="-3.4951070">
        <ele>755.0</ele>
        <time>2020-09-29T17:59:15Z</time>
      </trkpt>
      <trkpt lat="40.5543820" lon="-3.4951070">
        <ele>755.0</ele>
        <time>2020-09-29T17:59:16Z</time>
      </trkpt>
      <trkpt lat="40.5544250" lon="-3.4949400">
        <ele>755.0</ele>
        <time>2020-09-29T17:59:17Z</time>
      </trkpt>
      <trkpt lat="40.5544470" lon="-3.4948570">
        <ele>755.0</ele>
        <time>2020-09-29T17:59:18Z</time>
      </trkpt>
      <trkpt lat="40.5544470" lon="-3.4948570">
        <ele>755.0</ele>
        <time>2020-09-29T17:59:19Z</time>
      </trkpt>
      <trkpt lat="40.5544920" lon="-3.4946950">
        <ele>754.0</ele>
        <time>2020-09-29T17:59:20Z</time>
      </trkpt>
      <trkpt lat="40.5544920" lon="-3.4946950">
        <ele>754.0</ele>
        <time>2020-09-29T17:59:21Z</time>
      </trkpt>
      <trkpt lat="40.5545400" lon="-3.4945370">
        <ele>754.0</ele>
        <time>2020-09-29T17:59:22Z</time>
      </trkpt>
      <trkpt lat="40.5545400" lon="-3.4945370">
        <ele>754.0</ele>
        <time>2020-09-29T17:59:23Z</time>
      </trkpt>
      <trkpt lat="40.5545920" lon="-3.4943770">
        <ele>754.0</ele>
        <time>2020-09-29T17:59:24Z</time>
      </trkpt>
      <trkpt lat="40.5545920" lon="-3.4943770">
        <ele>754.0</ele>
        <time>2020-09-29T17:59:25Z</time>
      </trkpt>
      <trkpt lat="40.5546520" lon="-3.4942150">
        <ele>754.0</ele>
        <time>2020-09-29T17:59:26Z</time>
      </trkpt>
      <trkpt lat="40.5546520" lon="-3.4942150">
        <ele>754.0</ele>
        <time>2020-09-29T17:59:27Z</time>
      </trkpt>
      <trkpt lat="40.5547120" lon="-3.4940530">
        <ele>754.0</ele>
        <time>2020-09-29T17:59:28Z</time>
      </trkpt>
      <trkpt lat="40.5547430" lon="-3.4939730">
        <ele>754.0</ele>
        <time>2020-09-29T17:59:29Z</time>
      </trkpt>
      <trkpt lat="40.5547750" lon="-3.4938950">
        <ele>754.0</ele>
        <time>2020-09-29T17:59:30Z</time>
      </trkpt>
      <trkpt lat="40.5547750" lon="-3.4938950">
        <ele>754.0</ele>
        <time>2020-09-29T17:59:31Z</time>
      </trkpt>
      <trkpt lat="40.5548400" lon="-3.4937400">
        <ele>754.0</ele>
        <time>2020-09-29T17:59:32Z</time>
      </trkpt>
      <trkpt lat="40.5548720" lon="-3.4936600">
        <ele>754.0</ele>
        <time>2020-09-29T17:59:33Z</time>
      </trkpt>
      <trkpt lat="40.5548720" lon="-3.4936600">
        <ele>754.0</ele>
        <time>2020-09-29T17:59:34Z</time>
      </trkpt>
      <trkpt lat="40.5549320" lon="-3.4935020">
        <ele>754.0</ele>
        <time>2020-09-29T17:59:35Z</time>
      </trkpt>
      <trkpt lat="40.5549630" lon="-3.4934220">
        <ele>753.0</ele>
        <time>2020-09-29T17:59:36Z</time>
      </trkpt>
      <trkpt lat="40.5549630" lon="-3.4934220">
        <ele>753.0</ele>
        <time>2020-09-29T17:59:37Z</time>
      </trkpt>
      <trkpt lat="40.5550300" lon="-3.4932580">
        <ele>753.0</ele>
        <time>2020-09-29T17:59:38Z</time>
      </trkpt>
      <trkpt lat="40.5550300" lon="-3.4932580">
        <ele>753.0</ele>
        <time>2020-09-29T17:59:39Z</time>
      </trkpt>
      <trkpt lat="40.5550980" lon="-3.4930970">
        <ele>753.0</ele>
        <time>2020-09-29T17:59:40Z</time>
      </trkpt>
      <trkpt lat="40.5550980" lon="-3.4930970">
        <ele>753.0</ele>
        <time>2020-09-29T17:59:41Z</time>
      </trkpt>
      <trkpt lat="40.5551620" lon="-3.4929350">
        <ele>753.0</ele>
        <time>2020-09-29T17:59:42Z</time>
      </trkpt>
      <trkpt lat="40.5551620" lon="-3.4929350">
        <ele>753.0</ele>
        <time>2020-09-29T17:59:43Z</time>
      </trkpt>
      <trkpt lat="40.5552270" lon="-3.4927680">
        <ele>753.0</ele>
        <time>2020-09-29T17:59:44Z</time>
      </trkpt>
      <trkpt lat="40.5552270" lon="-3.4927680">
        <ele>753.0</ele>
        <time>2020-09-29T17:59:45Z</time>
      </trkpt>
      <trkpt lat="40.5552850" lon="-3.4926020">
        <ele>753.0</ele>
        <time>2020-09-29T17:59:46Z</time>
      </trkpt>
      <trkpt lat="40.5553150" lon="-3.4925170">
        <ele>752.0</ele>
        <time>2020-09-29T17:59:47Z</time>
      </trkpt>
      <trkpt lat="40.5553430" lon="-3.4924330">
        <ele>752.0</ele>
        <time>2020-09-29T17:59:48Z</time>
      </trkpt>
      <trkpt lat="40.5553430" lon="-3.4924330">
        <ele>752.0</ele>
        <time>2020-09-29T17:59:49Z</time>
      </trkpt>
      <trkpt lat="40.5554030" lon="-3.4922630">
        <ele>752.0</ele>
        <time>2020-09-29T17:59:50Z</time>
      </trkpt>
      <trkpt lat="40.5554030" lon="-3.4922630">
        <ele>752.0</ele>
        <time>2020-09-29T17:59:51Z</time>
      </trkpt>
      <trkpt lat="40.5554520" lon="-3.4920870">
        <ele>752.0</ele>
        <time>2020-09-29T17:59:52Z</time>
      </trkpt>
      <trkpt lat="40.5554520" lon="-3.4920870">
        <ele>752.0</ele>
        <time>2020-09-29T17:59:53Z</time>
      </trkpt>
      <trkpt lat="40.5555030" lon="-3.4919120">
        <ele>752.0</ele>
        <time>2020-09-29T17:59:54Z</time>
      </trkpt>
      <trkpt lat="40.5555030" lon="-3.4919120">
        <ele>752.0</ele>
        <time>2020-09-29T17:59:55Z</time>
      </trkpt>
      <trkpt lat="40.5555480" lon="-3.4917370">
        <ele>752.0</ele>
        <time>2020-09-29T17:59:56Z</time>
      </trkpt>
      <trkpt lat="40.5555480" lon="-3.4917370">
        <ele>752.0</ele>
        <time>2020-09-29T17:59:57Z</time>
      </trkpt>
      <trkpt lat="40.5555900" lon="-3.4915630">
        <ele>752.0</ele>
        <time>2020-09-29T17:59:58Z</time>
      </trkpt>
      <trkpt lat="40.5555900" lon="-3.4915630">
        <ele>751.0</ele>
        <time>2020-09-29T17:59:59Z</time>
      </trkpt>
      <trkpt lat="40.5556350" lon="-3.4913970">
        <ele>751.0</ele>
        <time>2020-09-29T18:00:00Z</time>
      </trkpt>
      <trkpt lat="40.5556350" lon="-3.4913970">
        <ele>751.0</ele>
        <time>2020-09-29T18:00:01Z</time>
      </trkpt>
      <trkpt lat="40.5556620" lon="-3.4912330">
        <ele>751.0</ele>
        <time>2020-09-29T18:00:02Z</time>
      </trkpt>
      <trkpt lat="40.5556750" lon="-3.4911480">
        <ele>751.0</ele>
        <time>2020-09-29T18:00:03Z</time>
      </trkpt>
      <trkpt lat="40.5556750" lon="-3.4911480">
        <ele>751.0</ele>
        <time>2020-09-29T18:00:04Z</time>
      </trkpt>
      <trkpt lat="40.5557020" lon="-3.4909720">
        <ele>751.0</ele>
        <time>2020-09-29T18:00:05Z</time>
      </trkpt>
      <trkpt lat="40.5557080" lon="-3.4908800">
        <ele>751.0</ele>
        <time>2020-09-29T18:00:06Z</time>
      </trkpt>
      <trkpt lat="40.5557080" lon="-3.4908800">
        <ele>751.0</ele>
        <time>2020-09-29T18:00:07Z</time>
      </trkpt>
      <trkpt lat="40.5557180" lon="-3.4906920">
        <ele>751.0</ele>
        <time>2020-09-29T18:00:08Z</time>
      </trkpt>
      <trkpt lat="40.5557180" lon="-3.4906920">
        <ele>750.0</ele>
        <time>2020-09-29T18:00:09Z</time>
      </trkpt>
      <trkpt lat="40.5557470" lon="-3.4905020">
        <ele>750.0</ele>
        <time>2020-09-29T18:00:10Z</time>
      </trkpt>
      <trkpt lat="40.5557580" lon="-3.4904080">
        <ele>750.0</ele>
        <time>2020-09-29T18:00:11Z</time>
      </trkpt>
      <trkpt lat="40.5557650" lon="-3.4903150">
        <ele>750.0</ele>
        <time>2020-09-29T18:00:12Z</time>
      </trkpt>
      <trkpt lat="40.5557650" lon="-3.4903150">
        <ele>750.0</ele>
        <time>2020-09-29T18:00:13Z</time>
      </trkpt>
      <trkpt lat="40.5557820" lon="-3.4901250">
        <ele>750.0</ele>
        <time>2020-09-29T18:00:14Z</time>
      </trkpt>
      <trkpt lat="40.5557820" lon="-3.4901250">
        <ele>750.0</ele>
        <time>2020-09-29T18:00:15Z</time>
      </trkpt>
      <trkpt lat="40.5557970" lon="-3.4899300">
        <ele>750.0</ele>
        <time>2020-09-29T18:00:16Z</time>
      </trkpt>
      <trkpt lat="40.5558020" lon="-3.4898330">
        <ele>750.0</ele>
        <time>2020-09-29T18:00:17Z</time>
      </trkpt>
      <trkpt lat="40.5558020" lon="-3.4898330">
        <ele>750.0</ele>
        <time>2020-09-29T18:00:18Z</time>
      </trkpt>
      <trkpt lat="40.5558070" lon="-3.4896420">
        <ele>750.0</ele>
        <time>2020-09-29T18:00:19Z</time>
      </trkpt>
      <trkpt lat="40.5558070" lon="-3.4896420">
        <ele>750.0</ele>
        <time>2020-09-29T18:00:20Z</time>
      </trkpt>
      <trkpt lat="40.5558180" lon="-3.4894530">
        <ele>750.0</ele>
        <time>2020-09-29T18:00:21Z</time>
      </trkpt>
      <trkpt lat="40.5558180" lon="-3.4894530">
        <ele>750.0</ele>
        <time>2020-09-29T18:00:22Z</time>
      </trkpt>
      <trkpt lat="40.5558220" lon="-3.4892650">
        <ele>750.0</ele>
        <time>2020-09-29T18:00:23Z</time>
      </trkpt>
      <trkpt lat="40.5558200" lon="-3.4891720">
        <ele>750.0</ele>
        <time>2020-09-29T18:00:24Z</time>
      </trkpt>
      <trkpt lat="40.5558200" lon="-3.4891720">
        <ele>750.0</ele>
        <time>2020-09-29T18:00:25Z</time>
      </trkpt>
      <trkpt lat="40.5558200" lon="-3.4889800">
        <ele>750.0</ele>
        <time>2020-09-29T18:00:26Z</time>
      </trkpt>
      <trkpt lat="40.5558200" lon="-3.4889800">
        <ele>750.0</ele>
        <time>2020-09-29T18:00:27Z</time>
      </trkpt>
      <trkpt lat="40.5558150" lon="-3.4887880">
        <ele>749.0</ele>
        <time>2020-09-29T18:00:28Z</time>
      </trkpt>
      <trkpt lat="40.5558150" lon="-3.4887880">
        <ele>749.0</ele>
        <time>2020-09-29T18:00:29Z</time>
      </trkpt>
      <trkpt lat="40.5558050" lon="-3.4885970">
        <ele>749.0</ele>
        <time>2020-09-29T18:00:30Z</time>
      </trkpt>
      <trkpt lat="40.5558050" lon="-3.4885970">
        <ele>749.0</ele>
        <time>2020-09-29T18:00:31Z</time>
      </trkpt>
      <trkpt lat="40.5557970" lon="-3.4884070">
        <ele>749.0</ele>
        <time>2020-09-29T18:00:32Z</time>
      </trkpt>
      <trkpt lat="40.5557920" lon="-3.4883120">
        <ele>749.0</ele>
        <time>2020-09-29T18:00:33Z</time>
      </trkpt>
      <trkpt lat="40.5557920" lon="-3.4883120">
        <ele>748.0</ele>
        <time>2020-09-29T18:00:34Z</time>
      </trkpt>
      <trkpt lat="40.5557800" lon="-3.4881270">
        <ele>748.0</ele>
        <time>2020-09-29T18:00:35Z</time>
      </trkpt>
      <trkpt lat="40.5557800" lon="-3.4881270">
        <ele>748.0</ele>
        <time>2020-09-29T18:00:36Z</time>
      </trkpt>
      <trkpt lat="40.5557670" lon="-3.4879400">
        <ele>748.0</ele>
        <time>2020-09-29T18:00:37Z</time>
      </trkpt>
      <trkpt lat="40.5557620" lon="-3.4878470">
        <ele>748.0</ele>
        <time>2020-09-29T18:00:38Z</time>
      </trkpt>
      <trkpt lat="40.5557570" lon="-3.4877500">
        <ele>748.0</ele>
        <time>2020-09-29T18:00:39Z</time>
      </trkpt>
      <trkpt lat="40.5557570" lon="-3.4877500">
        <ele>748.0</ele>
        <time>2020-09-29T18:00:40Z</time>
      </trkpt>
      <trkpt lat="40.5557470" lon="-3.4875600">
        <ele>748.0</ele>
        <time>2020-09-29T18:00:41Z</time>
      </trkpt>
      <trkpt lat="40.5557380" lon="-3.4874650">
        <ele>748.0</ele>
        <time>2020-09-29T18:00:42Z</time>
      </trkpt>
      <trkpt lat="40.5557380" lon="-3.4874650">
        <ele>748.0</ele>
        <time>2020-09-29T18:00:43Z</time>
      </trkpt>
      <trkpt lat="40.5557150" lon="-3.4872750">
        <ele>747.0</ele>
        <time>2020-09-29T18:00:44Z</time>
      </trkpt>
      <trkpt lat="40.5557150" lon="-3.4872750">
        <ele>747.0</ele>
        <time>2020-09-29T18:00:45Z</time>
      </trkpt>
      <trkpt lat="40.5556920" lon="-3.4870850">
        <ele>747.0</ele>
        <time>2020-09-29T18:00:46Z</time>
      </trkpt>
      <trkpt lat="40.5556920" lon="-3.4870850">
        <ele>747.0</ele>
        <time>2020-09-29T18:00:47Z</time>
      </trkpt>
      <trkpt lat="40.5556630" lon="-3.4868950">
        <ele>747.0</ele>
        <time>2020-09-29T18:00:48Z</time>
      </trkpt>
      <trkpt lat="40.5556630" lon="-3.4868950">
        <ele>747.0</ele>
        <time>2020-09-29T18:00:49Z</time>
      </trkpt>
      <trkpt lat="40.5556370" lon="-3.4867000">
        <ele>747.0</ele>
        <time>2020-09-29T18:00:50Z</time>
      </trkpt>
      <trkpt lat="40.5556370" lon="-3.4867000">
        <ele>747.0</ele>
        <time>2020-09-29T18:00:51Z</time>
      </trkpt>
      <trkpt lat="40.5556050" lon="-3.4865080">
        <ele>746.0</ele>
        <time>2020-09-29T18:00:52Z</time>
      </trkpt>
      <trkpt lat="40.5555880" lon="-3.4864130">
        <ele>746.0</ele>
        <time>2020-09-29T18:00:53Z</time>
      </trkpt>
      <trkpt lat="40.5555880" lon="-3.4864130">
        <ele>746.0</ele>
        <time>2020-09-29T18:00:54Z</time>
      </trkpt>
      <trkpt lat="40.5555580" lon="-3.4862230">
        <ele>746.0</ele>
        <time>2020-09-29T18:00:55Z</time>
      </trkpt>
      <trkpt lat="40.5555420" lon="-3.4861270">
        <ele>746.0</ele>
        <time>2020-09-29T18:00:56Z</time>
      </trkpt>
      <trkpt lat="40.5555420" lon="-3.4861270">
        <ele>746.0</ele>
        <time>2020-09-29T18:00:57Z</time>
      </trkpt>
      <trkpt lat="40.5555050" lon="-3.4859350">
        <ele>746.0</ele>
        <time>2020-09-29T18:00:58Z</time>
      </trkpt>
      <trkpt lat="40.5555050" lon="-3.4859350">
        <ele>746.0</ele>
        <time>2020-09-29T18:00:59Z</time>
      </trkpt>
      <trkpt lat="40.5554670" lon="-3.4857500">
        <ele>746.0</ele>
        <time>2020-09-29T18:01:00Z</time>
      </trkpt>
      <trkpt lat="40.5554670" lon="-3.4857500">
        <ele>746.0</ele>
        <time>2020-09-29T18:01:01Z</time>
      </trkpt>
      <trkpt lat="40.5554280" lon="-3.4855630">
        <ele>746.0</ele>
        <time>2020-09-29T18:01:02Z</time>
      </trkpt>
      <trkpt lat="40.5554280" lon="-3.4855630">
        <ele>746.0</ele>
        <time>2020-09-29T18:01:03Z</time>
      </trkpt>
      <trkpt lat="40.5553900" lon="-3.4853780">
        <ele>746.0</ele>
        <time>2020-09-29T18:01:04Z</time>
      </trkpt>
      <trkpt lat="40.5553900" lon="-3.4853780">
        <ele>746.0</ele>
        <time>2020-09-29T18:01:05Z</time>
      </trkpt>
      <trkpt lat="40.5553520" lon="-3.4851920">
        <ele>746.0</ele>
        <time>2020-09-29T18:01:06Z</time>
      </trkpt>
      <trkpt lat="40.5553520" lon="-3.4851920">
        <ele>746.0</ele>
        <time>2020-09-29T18:01:07Z</time>
      </trkpt>
      <trkpt lat="40.5552970" lon="-3.4850030">
        <ele>746.0</ele>
        <time>2020-09-29T18:01:08Z</time>
      </trkpt>
      <trkpt lat="40.5552970" lon="-3.4850030">
        <ele>746.0</ele>
        <time>2020-09-29T18:01:09Z</time>
      </trkpt>
      <trkpt lat="40.5552400" lon="-3.4848170">
        <ele>746.0</ele>
        <time>2020-09-29T18:01:10Z</time>
      </trkpt>
      <trkpt lat="40.5552400" lon="-3.4848170">
        <ele>745.0</ele>
        <time>2020-09-29T18:01:11Z</time>
      </trkpt>
      <trkpt lat="40.5552130" lon="-3.4846180">
        <ele>745.0</ele>
        <time>2020-09-29T18:01:12Z</time>
      </trkpt>
      <trkpt lat="40.5552130" lon="-3.4846180">
        <ele>745.0</ele>
        <time>2020-09-29T18:01:13Z</time>
      </trkpt>
      <trkpt lat="40.5551680" lon="-3.4844220">
        <ele>745.0</ele>
        <time>2020-09-29T18:01:14Z</time>
      </trkpt>
      <trkpt lat="40.5551680" lon="-3.4844220">
        <ele>745.0</ele>
        <time>2020-09-29T18:01:15Z</time>
      </trkpt>
      <trkpt lat="40.5551170" lon="-3.4842320">
        <ele>745.0</ele>
        <time>2020-09-29T18:01:16Z</time>
      </trkpt>
      <trkpt lat="40.5550920" lon="-3.4841370">
        <ele>745.0</ele>
        <time>2020-09-29T18:01:17Z</time>
      </trkpt>
      <trkpt lat="40.5550920" lon="-3.4841370">
        <ele>745.0</ele>
        <time>2020-09-29T18:01:18Z</time>
      </trkpt>
      <trkpt lat="40.5550380" lon="-3.4839480">
        <ele>745.0</ele>
        <time>2020-09-29T18:01:19Z</time>
      </trkpt>
      <trkpt lat="40.5550380" lon="-3.4839480">
        <ele>745.0</ele>
        <time>2020-09-29T18:01:20Z</time>
      </trkpt>
      <trkpt lat="40.5549820" lon="-3.4837600">
        <ele>745.0</ele>
        <time>2020-09-29T18:01:21Z</time>
      </trkpt>
      <trkpt lat="40.5549550" lon="-3.4836680">
        <ele>745.0</ele>
        <time>2020-09-29T18:01:22Z</time>
      </trkpt>
      <trkpt lat="40.5549550" lon="-3.4836680">
        <ele>744.0</ele>
        <time>2020-09-29T18:01:23Z</time>
      </trkpt>
      <trkpt lat="40.5548970" lon="-3.4834830">
        <ele>744.0</ele>
        <time>2020-09-29T18:01:24Z</time>
      </trkpt>
      <trkpt lat="40.5548670" lon="-3.4833900">
        <ele>744.0</ele>
        <time>2020-09-29T18:01:25Z</time>
      </trkpt>
      <trkpt lat="40.5548670" lon="-3.4833900">
        <ele>744.0</ele>
        <time>2020-09-29T18:01:26Z</time>
      </trkpt>
      <trkpt lat="40.5548020" lon="-3.4832050">
        <ele>744.0</ele>
        <time>2020-09-29T18:01:27Z</time>
      </trkpt>
      <trkpt lat="40.5547670" lon="-3.4831130">
        <ele>744.0</ele>
        <time>2020-09-29T18:01:28Z</time>
      </trkpt>
      <trkpt lat="40.5547670" lon="-3.4831130">
        <ele>744.0</ele>
        <time>2020-09-29T18:01:29Z</time>
      </trkpt>
      <trkpt lat="40.5547030" lon="-3.4829230">
        <ele>744.0</ele>
        <time>2020-09-29T18:01:30Z</time>
      </trkpt>
      <trkpt lat="40.5547030" lon="-3.4829230">
        <ele>744.0</ele>
        <time>2020-09-29T18:01:31Z</time>
      </trkpt>
      <trkpt lat="40.5546370" lon="-3.4827370">
        <ele>744.0</ele>
        <time>2020-09-29T18:01:32Z</time>
      </trkpt>
      <trkpt lat="40.5546370" lon="-3.4827370">
        <ele>744.0</ele>
        <time>2020-09-29T18:01:33Z</time>
      </trkpt>
      <trkpt lat="40.5545700" lon="-3.4825500">
        <ele>744.0</ele>
        <time>2020-09-29T18:01:34Z</time>
      </trkpt>
      <trkpt lat="40.5545700" lon="-3.4825500">
        <ele>744.0</ele>
        <time>2020-09-29T18:01:35Z</time>
      </trkpt>
      <trkpt lat="40.5545000" lon="-3.4823650">
        <ele>743.0</ele>
        <time>2020-09-29T18:01:36Z</time>
      </trkpt>
      <trkpt lat="40.5545000" lon="-3.4823650">
        <ele>743.0</ele>
        <time>2020-09-29T18:01:37Z</time>
      </trkpt>
      <trkpt lat="40.5544250" lon="-3.4821800">
        <ele>743.0</ele>
        <time>2020-09-29T18:01:38Z</time>
      </trkpt>
      <trkpt lat="40.5543830" lon="-3.4820820">
        <ele>743.0</ele>
        <time>2020-09-29T18:01:39Z</time>
      </trkpt>
      <trkpt lat="40.5543830" lon="-3.4820820">
        <ele>743.0</ele>
        <time>2020-09-29T18:01:40Z</time>
      </trkpt>
      <trkpt lat="40.5542950" lon="-3.4818870">
        <ele>743.0</ele>
        <time>2020-09-29T18:01:41Z</time>
      </trkpt>
      <trkpt lat="40.5542950" lon="-3.4818870">
        <ele>743.0</ele>
        <time>2020-09-29T18:01:42Z</time>
      </trkpt>
      <trkpt lat="40.5542150" lon="-3.4816920">
        <ele>743.0</ele>
        <time>2020-09-29T18:01:43Z</time>
      </trkpt>
      <trkpt lat="40.5542150" lon="-3.4816920">
        <ele>743.0</ele>
        <time>2020-09-29T18:01:44Z</time>
      </trkpt>
      <trkpt lat="40.5541270" lon="-3.4815020">
        <ele>742.0</ele>
        <time>2020-09-29T18:01:45Z</time>
      </trkpt>
      <trkpt lat="40.5541270" lon="-3.4815020">
        <ele>742.0</ele>
        <time>2020-09-29T18:01:46Z</time>
      </trkpt>
      <trkpt lat="40.5540380" lon="-3.4813170">
        <ele>742.0</ele>
        <time>2020-09-29T18:01:47Z</time>
      </trkpt>
      <trkpt lat="40.5539950" lon="-3.4812230">
        <ele>742.0</ele>
        <time>2020-09-29T18:01:48Z</time>
      </trkpt>
      <trkpt lat="40.5539950" lon="-3.4812230">
        <ele>742.0</ele>
        <time>2020-09-29T18:01:49Z</time>
      </trkpt>
      <trkpt lat="40.5539050" lon="-3.4810380">
        <ele>742.0</ele>
        <time>2020-09-29T18:01:50Z</time>
      </trkpt>
      <trkpt lat="40.5539050" lon="-3.4810380">
        <ele>742.0</ele>
        <time>2020-09-29T18:01:51Z</time>
      </trkpt>
      <trkpt lat="40.5538100" lon="-3.4808580">
        <ele>742.0</ele>
        <time>2020-09-29T18:01:52Z</time>
      </trkpt>
      <trkpt lat="40.5537630" lon="-3.4807670">
        <ele>741.0</ele>
        <time>2020-09-29T18:01:53Z</time>
      </trkpt>
      <trkpt lat="40.5537630" lon="-3.4807670">
        <ele>741.0</ele>
        <time>2020-09-29T18:01:54Z</time>
      </trkpt>
      <trkpt lat="40.5536720" lon="-3.4805830">
        <ele>741.0</ele>
        <time>2020-09-29T18:01:55Z</time>
      </trkpt>
      <trkpt lat="40.5536720" lon="-3.4805830">
        <ele>741.0</ele>
        <time>2020-09-29T18:01:56Z</time>
      </trkpt>
      <trkpt lat="40.5535700" lon="-3.4804050">
        <ele>740.0</ele>
        <time>2020-09-29T18:01:57Z</time>
      </trkpt>
      <trkpt lat="40.5535700" lon="-3.4804050">
        <ele>740.0</ele>
        <time>2020-09-29T18:01:58Z</time>
      </trkpt>
      <trkpt lat="40.5534680" lon="-3.4802150">
        <ele>740.0</ele>
        <time>2020-09-29T18:01:59Z</time>
      </trkpt>
      <trkpt lat="40.5534150" lon="-3.4801230">
        <ele>740.0</ele>
        <time>2020-09-29T18:02:00Z</time>
      </trkpt>
      <trkpt lat="40.5533600" lon="-3.4800330">
        <ele>740.0</ele>
        <time>2020-09-29T18:02:01Z</time>
      </trkpt>
      <trkpt lat="40.5533600" lon="-3.4800330">
        <ele>740.0</ele>
        <time>2020-09-29T18:02:02Z</time>
      </trkpt>
      <trkpt lat="40.5532530" lon="-3.4798470">
        <ele>739.0</ele>
        <time>2020-09-29T18:02:03Z</time>
      </trkpt>
      <trkpt lat="40.5532530" lon="-3.4798470">
        <ele>739.0</ele>
        <time>2020-09-29T18:02:04Z</time>
      </trkpt>
      <trkpt lat="40.5531980" lon="-3.4797530">
        <ele>739.0</ele>
        <time>2020-09-29T18:02:05Z</time>
      </trkpt>
      <trkpt lat="40.5530850" lon="-3.4795680">
        <ele>738.0</ele>
        <time>2020-09-29T18:02:06Z</time>
      </trkpt>
      <trkpt lat="40.5530850" lon="-3.4795680">
        <ele>738.0</ele>
        <time>2020-09-29T18:02:07Z</time>
      </trkpt>
      <trkpt lat="40.5529680" lon="-3.4793850">
        <ele>738.0</ele>
        <time>2020-09-29T18:02:08Z</time>
      </trkpt>
      <trkpt lat="40.5529070" lon="-3.4792950">
        <ele>738.0</ele>
        <time>2020-09-29T18:02:09Z</time>
      </trkpt>
      <trkpt lat="40.5529070" lon="-3.4792950">
        <ele>737.0</ele>
        <time>2020-09-29T18:02:10Z</time>
      </trkpt>
      <trkpt lat="40.5527850" lon="-3.4791130">
        <ele>737.0</ele>
        <time>2020-09-29T18:02:11Z</time>
      </trkpt>
      <trkpt lat="40.5527250" lon="-3.4790220">
        <ele>737.0</ele>
        <time>2020-09-29T18:02:12Z</time>
      </trkpt>
      <trkpt lat="40.5527250" lon="-3.4790220">
        <ele>737.0</ele>
        <time>2020-09-29T18:02:13Z</time>
      </trkpt>
      <trkpt lat="40.5526000" lon="-3.4788400">
        <ele>736.0</ele>
        <time>2020-09-29T18:02:14Z</time>
      </trkpt>
      <trkpt lat="40.5526000" lon="-3.4788400">
        <ele>736.0</ele>
        <time>2020-09-29T18:02:15Z</time>
      </trkpt>
      <trkpt lat="40.5524700" lon="-3.4786580">
        <ele>736.0</ele>
        <time>2020-09-29T18:02:16Z</time>
      </trkpt>
      <trkpt lat="40.5524070" lon="-3.4785680">
        <ele>736.0</ele>
        <time>2020-09-29T18:02:17Z</time>
      </trkpt>
      <trkpt lat="40.5524070" lon="-3.4785680">
        <ele>735.0</ele>
        <time>2020-09-29T18:02:18Z</time>
      </trkpt>
      <trkpt lat="40.5522780" lon="-3.4783830">
        <ele>735.0</ele>
        <time>2020-09-29T18:02:19Z</time>
      </trkpt>
      <trkpt lat="40.5522780" lon="-3.4783830">
        <ele>735.0</ele>
        <time>2020-09-29T18:02:20Z</time>
      </trkpt>
      <trkpt lat="40.5521450" lon="-3.4782000">
        <ele>735.0</ele>
        <time>2020-09-29T18:02:21Z</time>
      </trkpt>
      <trkpt lat="40.5521450" lon="-3.4782000">
        <ele>734.0</ele>
        <time>2020-09-29T18:02:22Z</time>
      </trkpt>
      <trkpt lat="40.5520020" lon="-3.4780170">
        <ele>734.0</ele>
        <time>2020-09-29T18:02:23Z</time>
      </trkpt>
      <trkpt lat="40.5519250" lon="-3.4779270">
        <ele>734.0</ele>
        <time>2020-09-29T18:02:24Z</time>
      </trkpt>
      <trkpt lat="40.5519250" lon="-3.4779270">
        <ele>734.0</ele>
        <time>2020-09-29T18:02:25Z</time>
      </trkpt>
      <trkpt lat="40.5517780" lon="-3.4777350">
        <ele>733.0</ele>
        <time>2020-09-29T18:02:26Z</time>
      </trkpt>
      <trkpt lat="40.5517780" lon="-3.4777350">
        <ele>733.0</ele>
        <time>2020-09-29T18:02:27Z</time>
      </trkpt>
      <trkpt lat="40.5516320" lon="-3.4775430">
        <ele>733.0</ele>
        <time>2020-09-29T18:02:28Z</time>
      </trkpt>
      <trkpt lat="40.5516320" lon="-3.4775430">
        <ele>733.0</ele>
        <time>2020-09-29T18:02:29Z</time>
      </trkpt>
      <trkpt lat="40.5514770" lon="-3.4773530">
        <ele>731.0</ele>
        <time>2020-09-29T18:02:30Z</time>
      </trkpt>
      <trkpt lat="40.5514770" lon="-3.4773530">
        <ele>731.0</ele>
        <time>2020-09-29T18:02:31Z</time>
      </trkpt>
      <trkpt lat="40.5513150" lon="-3.4771670">
        <ele>731.0</ele>
        <time>2020-09-29T18:02:32Z</time>
      </trkpt>
      <trkpt lat="40.5513150" lon="-3.4771670">
        <ele>731.0</ele>
        <time>2020-09-29T18:02:33Z</time>
      </trkpt>
      <trkpt lat="40.5511500" lon="-3.4769870">
        <ele>731.0</ele>
        <time>2020-09-29T18:02:34Z</time>
      </trkpt>
      <trkpt lat="40.5511500" lon="-3.4769870">
        <ele>730.0</ele>
        <time>2020-09-29T18:02:35Z</time>
      </trkpt>
      <trkpt lat="40.5509800" lon="-3.4768080">
        <ele>730.0</ele>
        <time>2020-09-29T18:02:36Z</time>
      </trkpt>
      <trkpt lat="40.5509800" lon="-3.4768080">
        <ele>729.0</ele>
        <time>2020-09-29T18:02:37Z</time>
      </trkpt>
      <trkpt lat="40.5508120" lon="-3.4766330">
        <ele>729.0</ele>
        <time>2020-09-29T18:02:38Z</time>
      </trkpt>
      <trkpt lat="40.5508120" lon="-3.4766330">
        <ele>728.0</ele>
        <time>2020-09-29T18:02:39Z</time>
      </trkpt>
      <trkpt lat="40.5506370" lon="-3.4764670">
        <ele>728.0</ele>
        <time>2020-09-29T18:02:40Z</time>
      </trkpt>
      <trkpt lat="40.5505480" lon="-3.4763870">
        <ele>727.0</ele>
        <time>2020-09-29T18:02:41Z</time>
      </trkpt>
      <trkpt lat="40.5504620" lon="-3.4763050">
        <ele>727.0</ele>
        <time>2020-09-29T18:02:42Z</time>
      </trkpt>
      <trkpt lat="40.5504620" lon="-3.4763050">
        <ele>727.0</ele>
        <time>2020-09-29T18:02:43Z</time>
      </trkpt>
      <trkpt lat="40.5502850" lon="-3.4761480">
        <ele>727.0</ele>
        <time>2020-09-29T18:02:44Z</time>
      </trkpt>
      <trkpt lat="40.5502850" lon="-3.4761480">
        <ele>726.0</ele>
        <time>2020-09-29T18:02:45Z</time>
      </trkpt>
      <trkpt lat="40.5502850" lon="-3.4761480">
        <ele>726.0</ele>
        <time>2020-09-29T18:02:46Z</time>
      </trkpt>
      <trkpt lat="40.5501080" lon="-3.4759950">
        <ele>725.0</ele>
        <time>2020-09-29T18:02:47Z</time>
      </trkpt>
      <trkpt lat="40.5499280" lon="-3.4758450">
        <ele>724.0</ele>
        <time>2020-09-29T18:02:48Z</time>
      </trkpt>
      <trkpt lat="40.5499280" lon="-3.4758450">
        <ele>724.0</ele>
        <time>2020-09-29T18:02:49Z</time>
      </trkpt>
      <trkpt lat="40.5497450" lon="-3.4757000">
        <ele>724.0</ele>
        <time>2020-09-29T18:02:50Z</time>
      </trkpt>
      <trkpt lat="40.5497450" lon="-3.4757000">
        <ele>724.0</ele>
        <time>2020-09-29T18:02:51Z</time>
      </trkpt>
      <trkpt lat="40.5495620" lon="-3.4755600">
        <ele>723.0</ele>
        <time>2020-09-29T18:02:52Z</time>
      </trkpt>
      <trkpt lat="40.5494700" lon="-3.4754900">
        <ele>723.0</ele>
        <time>2020-09-29T18:02:53Z</time>
      </trkpt>
      <trkpt lat="40.5494700" lon="-3.4754900">
        <ele>722.0</ele>
        <time>2020-09-29T18:02:54Z</time>
      </trkpt>
      <trkpt lat="40.5492850" lon="-3.4753580">
        <ele>722.0</ele>
        <time>2020-09-29T18:02:55Z</time>
      </trkpt>
      <trkpt lat="40.5492850" lon="-3.4753580">
        <ele>721.0</ele>
        <time>2020-09-29T18:02:56Z</time>
      </trkpt>
      <trkpt lat="40.5491000" lon="-3.4752280">
        <ele>721.0</ele>
        <time>2020-09-29T18:02:57Z</time>
      </trkpt>
      <trkpt lat="40.5491000" lon="-3.4752280">
        <ele>721.0</ele>
        <time>2020-09-29T18:02:58Z</time>
      </trkpt>
      <trkpt lat="40.5489130" lon="-3.4751030">
        <ele>721.0</ele>
        <time>2020-09-29T18:02:59Z</time>
      </trkpt>
      <trkpt lat="40.5489130" lon="-3.4751030">
        <ele>720.0</ele>
        <time>2020-09-29T18:03:00Z</time>
      </trkpt>
      <trkpt lat="40.5487230" lon="-3.4749800">
        <ele>720.0</ele>
        <time>2020-09-29T18:03:01Z</time>
      </trkpt>
      <trkpt lat="40.5487230" lon="-3.4749800">
        <ele>720.0</ele>
        <time>2020-09-29T18:03:02Z</time>
      </trkpt>
      <trkpt lat="40.5485280" lon="-3.4748580">
        <ele>720.0</ele>
        <time>2020-09-29T18:03:03Z</time>
      </trkpt>
      <trkpt lat="40.5484280" lon="-3.4747980">
        <ele>719.0</ele>
        <time>2020-09-29T18:03:04Z</time>
      </trkpt>
      <trkpt lat="40.5483300" lon="-3.4747400">
        <ele>719.0</ele>
        <time>2020-09-29T18:03:05Z</time>
      </trkpt>
      <trkpt lat="40.5483300" lon="-3.4747400">
        <ele>718.0</ele>
        <time>2020-09-29T18:03:06Z</time>
      </trkpt>
      <trkpt lat="40.5482280" lon="-3.4746830">
        <ele>718.0</ele>
        <time>2020-09-29T18:03:07Z</time>
      </trkpt>
      <trkpt lat="40.5480250" lon="-3.4745700">
        <ele>718.0</ele>
        <time>2020-09-29T18:03:08Z</time>
      </trkpt>
      <trkpt lat="40.5480250" lon="-3.4745700">
        <ele>718.0</ele>
        <time>2020-09-29T18:03:09Z</time>
      </trkpt>
      <trkpt lat="40.5478170" lon="-3.4744620">
        <ele>716.0</ele>
        <time>2020-09-29T18:03:10Z</time>
      </trkpt>
      <trkpt lat="40.5478170" lon="-3.4744620">
        <ele>716.0</ele>
        <time>2020-09-29T18:03:11Z</time>
      </trkpt>
      <trkpt lat="40.5476080" lon="-3.4743580">
        <ele>715.0</ele>
        <time>2020-09-29T18:03:12Z</time>
      </trkpt>
      <trkpt lat="40.5476080" lon="-3.4743580">
        <ele>715.0</ele>
        <time>2020-09-29T18:03:13Z</time>
      </trkpt>
      <trkpt lat="40.5473980" lon="-3.4742600">
        <ele>715.0</ele>
        <time>2020-09-29T18:03:14Z</time>
      </trkpt>
      <trkpt lat="40.5473980" lon="-3.4742600">
        <ele>715.0</ele>
        <time>2020-09-29T18:03:15Z</time>
      </trkpt>
      <trkpt lat="40.5471850" lon="-3.4741670">
        <ele>714.0</ele>
        <time>2020-09-29T18:03:16Z</time>
      </trkpt>
      <trkpt lat="40.5470780" lon="-3.4741220">
        <ele>714.0</ele>
        <time>2020-09-29T18:03:17Z</time>
      </trkpt>
      <trkpt lat="40.5469730" lon="-3.4740780">
        <ele>714.0</ele>
        <time>2020-09-29T18:03:18Z</time>
      </trkpt>
      <trkpt lat="40.5469730" lon="-3.4740780">
        <ele>713.0</ele>
        <time>2020-09-29T18:03:19Z</time>
      </trkpt>
      <trkpt lat="40.5467580" lon="-3.4739920">
        <ele>713.0</ele>
        <time>2020-09-29T18:03:20Z</time>
      </trkpt>
      <trkpt lat="40.5467580" lon="-3.4739920">
        <ele>712.0</ele>
        <time>2020-09-29T18:03:21Z</time>
      </trkpt>
      <trkpt lat="40.5465450" lon="-3.4739120">
        <ele>711.0</ele>
        <time>2020-09-29T18:03:22Z</time>
      </trkpt>
      <trkpt lat="40.5465450" lon="-3.4739120">
        <ele>711.0</ele>
        <time>2020-09-29T18:03:23Z</time>
      </trkpt>
      <trkpt lat="40.5463300" lon="-3.4738320">
        <ele>711.0</ele>
        <time>2020-09-29T18:03:24Z</time>
      </trkpt>
      <trkpt lat="40.5463300" lon="-3.4738320">
        <ele>711.0</ele>
        <time>2020-09-29T18:03:25Z</time>
      </trkpt>
      <trkpt lat="40.5461150" lon="-3.4737570">
        <ele>710.0</ele>
        <time>2020-09-29T18:03:26Z</time>
      </trkpt>
      <trkpt lat="40.5460100" lon="-3.4737220">
        <ele>710.0</ele>
        <time>2020-09-29T18:03:27Z</time>
      </trkpt>
      <trkpt lat="40.5460100" lon="-3.4737220">
        <ele>709.0</ele>
        <time>2020-09-29T18:03:28Z</time>
      </trkpt>
      <trkpt lat="40.5460100" lon="-3.4737220">
        <ele>709.0</ele>
        <time>2020-09-29T18:03:29Z</time>
      </trkpt>
      <trkpt lat="40.5457980" lon="-3.4736520">
        <ele>709.0</ele>
        <time>2020-09-29T18:03:30Z</time>
      </trkpt>
      <trkpt lat="40.5455880" lon="-3.4735820">
        <ele>709.0</ele>
        <time>2020-09-29T18:03:31Z</time>
      </trkpt>
      <trkpt lat="40.5455880" lon="-3.4735820">
        <ele>708.0</ele>
        <time>2020-09-29T18:03:32Z</time>
      </trkpt>
      <trkpt lat="40.5453770" lon="-3.4735120">
        <ele>708.0</ele>
        <time>2020-09-29T18:03:33Z</time>
      </trkpt>
      <trkpt lat="40.5453770" lon="-3.4735120">
        <ele>707.0</ele>
        <time>2020-09-29T18:03:34Z</time>
      </trkpt>
      <trkpt lat="40.5451630" lon="-3.4734400">
        <ele>707.0</ele>
        <time>2020-09-29T18:03:35Z</time>
      </trkpt>
      <trkpt lat="40.5450570" lon="-3.4734070">
        <ele>706.0</ele>
        <time>2020-09-29T18:03:36Z</time>
      </trkpt>
      <trkpt lat="40.5450570" lon="-3.4734070">
        <ele>706.0</ele>
        <time>2020-09-29T18:03:37Z</time>
      </trkpt>
      <trkpt lat="40.5448430" lon="-3.4733370">
        <ele>706.0</ele>
        <time>2020-09-29T18:03:38Z</time>
      </trkpt>
      <trkpt lat="40.5448430" lon="-3.4733370">
        <ele>706.0</ele>
        <time>2020-09-29T18:03:39Z</time>
      </trkpt>
      <trkpt lat="40.5446300" lon="-3.4732680">
        <ele>705.0</ele>
        <time>2020-09-29T18:03:40Z</time>
      </trkpt>
      <trkpt lat="40.5446300" lon="-3.4732680">
        <ele>705.0</ele>
        <time>2020-09-29T18:03:41Z</time>
      </trkpt>
      <trkpt lat="40.5444180" lon="-3.4732020">
        <ele>705.0</ele>
        <time>2020-09-29T18:03:42Z</time>
      </trkpt>
      <trkpt lat="40.5444180" lon="-3.4732020">
        <ele>705.0</ele>
        <time>2020-09-29T18:03:43Z</time>
      </trkpt>
      <trkpt lat="40.5442100" lon="-3.4731370">
        <ele>703.0</ele>
        <time>2020-09-29T18:03:44Z</time>
      </trkpt>
      <trkpt lat="40.5442100" lon="-3.4731370">
        <ele>703.0</ele>
        <time>2020-09-29T18:03:45Z</time>
      </trkpt>
      <trkpt lat="40.5440030" lon="-3.4730680">
        <ele>702.0</ele>
        <time>2020-09-29T18:03:46Z</time>
      </trkpt>
      <trkpt lat="40.5440030" lon="-3.4730680">
        <ele>702.0</ele>
        <time>2020-09-29T18:03:47Z</time>
      </trkpt>
      <trkpt lat="40.5438000" lon="-3.4730000">
        <ele>702.0</ele>
        <time>2020-09-29T18:03:48Z</time>
      </trkpt>
      <trkpt lat="40.5438000" lon="-3.4730000">
        <ele>702.0</ele>
        <time>2020-09-29T18:03:49Z</time>
      </trkpt>
      <trkpt lat="40.5435950" lon="-3.4729320">
        <ele>701.0</ele>
        <time>2020-09-29T18:03:50Z</time>
      </trkpt>
      <trkpt lat="40.5434920" lon="-3.4729000">
        <ele>701.0</ele>
        <time>2020-09-29T18:03:51Z</time>
      </trkpt>
      <trkpt lat="40.5434920" lon="-3.4729000">
        <ele>701.0</ele>
        <time>2020-09-29T18:03:52Z</time>
      </trkpt>
      <trkpt lat="40.5432800" lon="-3.4728420">
        <ele>701.0</ele>
        <time>2020-09-29T18:03:53Z</time>
      </trkpt>
      <trkpt lat="40.5431750" lon="-3.4728120">
        <ele>699.0</ele>
        <time>2020-09-29T18:03:54Z</time>
      </trkpt>
      <trkpt lat="40.5431750" lon="-3.4728120">
        <ele>699.0</ele>
        <time>2020-09-29T18:03:55Z</time>
      </trkpt>
      <trkpt lat="40.5429630" lon="-3.4727520">
        <ele>699.0</ele>
        <time>2020-09-29T18:03:56Z</time>
      </trkpt>
      <trkpt lat="40.5428580" lon="-3.4727220">
        <ele>699.0</ele>
        <time>2020-09-29T18:03:57Z</time>
      </trkpt>
      <trkpt lat="40.5428580" lon="-3.4727220">
        <ele>699.0</ele>
        <time>2020-09-29T18:03:58Z</time>
      </trkpt>
      <trkpt lat="40.5426450" lon="-3.4726580">
        <ele>699.0</ele>
        <time>2020-09-29T18:03:59Z</time>
      </trkpt>
      <trkpt lat="40.5425400" lon="-3.4726270">
        <ele>697.0</ele>
        <time>2020-09-29T18:04:00Z</time>
      </trkpt>
      <trkpt lat="40.5425400" lon="-3.4726270">
        <ele>697.0</ele>
        <time>2020-09-29T18:04:01Z</time>
      </trkpt>
      <trkpt lat="40.5423280" lon="-3.4725630">
        <ele>697.0</ele>
        <time>2020-09-29T18:04:02Z</time>
      </trkpt>
      <trkpt lat="40.5423280" lon="-3.4725630">
        <ele>696.0</ele>
        <time>2020-09-29T18:04:03Z</time>
      </trkpt>
      <trkpt lat="40.5421150" lon="-3.4725030">
        <ele>696.0</ele>
        <time>2020-09-29T18:04:04Z</time>
      </trkpt>
      <trkpt lat="40.5421150" lon="-3.4725030">
        <ele>696.0</ele>
        <time>2020-09-29T18:04:05Z</time>
      </trkpt>
      <trkpt lat="40.5418950" lon="-3.4724650">
        <ele>696.0</ele>
        <time>2020-09-29T18:04:06Z</time>
      </trkpt>
      <trkpt lat="40.5417850" lon="-3.4724520">
        <ele>695.0</ele>
        <time>2020-09-29T18:04:07Z</time>
      </trkpt>
      <trkpt lat="40.5417850" lon="-3.4724520">
        <ele>695.0</ele>
        <time>2020-09-29T18:04:08Z</time>
      </trkpt>
      <trkpt lat="40.5415630" lon="-3.4724230">
        <ele>695.0</ele>
        <time>2020-09-29T18:04:09Z</time>
      </trkpt>
      <trkpt lat="40.5414530" lon="-3.4724030">
        <ele>695.0</ele>
        <time>2020-09-29T18:04:10Z</time>
      </trkpt>
      <trkpt lat="40.5414530" lon="-3.4724030">
        <ele>694.0</ele>
        <time>2020-09-29T18:04:11Z</time>
      </trkpt>
      <trkpt lat="40.5412350" lon="-3.4723480">
        <ele>694.0</ele>
        <time>2020-09-29T18:04:12Z</time>
      </trkpt>
      <trkpt lat="40.5412350" lon="-3.4723480">
        <ele>694.0</ele>
        <time>2020-09-29T18:04:13Z</time>
      </trkpt>
      <trkpt lat="40.5410220" lon="-3.4722920">
        <ele>694.0</ele>
        <time>2020-09-29T18:04:14Z</time>
      </trkpt>
      <trkpt lat="40.5410220" lon="-3.4722920">
        <ele>693.0</ele>
        <time>2020-09-29T18:04:15Z</time>
      </trkpt>
      <trkpt lat="40.5408050" lon="-3.4722500">
        <ele>693.0</ele>
        <time>2020-09-29T18:04:16Z</time>
      </trkpt>
      <trkpt lat="40.5406950" lon="-3.4722300">
        <ele>693.0</ele>
        <time>2020-09-29T18:04:17Z</time>
      </trkpt>
      <trkpt lat="40.5406950" lon="-3.4722300">
        <ele>693.0</ele>
        <time>2020-09-29T18:04:18Z</time>
      </trkpt>
      <trkpt lat="40.5404770" lon="-3.4721880">
        <ele>692.0</ele>
        <time>2020-09-29T18:04:19Z</time>
      </trkpt>
      <trkpt lat="40.5404770" lon="-3.4721880">
        <ele>692.0</ele>
        <time>2020-09-29T18:04:20Z</time>
      </trkpt>
      <trkpt lat="40.5402700" lon="-3.4721470">
        <ele>692.0</ele>
        <time>2020-09-29T18:04:21Z</time>
      </trkpt>
      <trkpt lat="40.5402700" lon="-3.4721470">
        <ele>692.0</ele>
        <time>2020-09-29T18:04:22Z</time>
      </trkpt>
      <trkpt lat="40.5400750" lon="-3.4721050">
        <ele>692.0</ele>
        <time>2020-09-29T18:04:23Z</time>
      </trkpt>
      <trkpt lat="40.5399800" lon="-3.4720830">
        <ele>692.0</ele>
        <time>2020-09-29T18:04:24Z</time>
      </trkpt>
      <trkpt lat="40.5399800" lon="-3.4720830">
        <ele>692.0</ele>
        <time>2020-09-29T18:04:25Z</time>
      </trkpt>
      <trkpt lat="40.5399800" lon="-3.4720830">
        <ele>692.0</ele>
        <time>2020-09-29T18:04:26Z</time>
      </trkpt>
      <trkpt lat="40.5398050" lon="-3.4720470">
        <ele>692.0</ele>
        <time>2020-09-29T18:04:27Z</time>
      </trkpt>
      <trkpt lat="40.5396450" lon="-3.4720120">
        <ele>692.0</ele>
        <time>2020-09-29T18:04:28Z</time>
      </trkpt>
      <trkpt lat="40.5395700" lon="-3.4719970">
        <ele>692.0</ele>
        <time>2020-09-29T18:04:29Z</time>
      </trkpt>
      <trkpt lat="40.5395700" lon="-3.4719970">
        <ele>692.0</ele>
        <time>2020-09-29T18:04:30Z</time>
      </trkpt>
      <trkpt lat="40.5394300" lon="-3.4719700">
        <ele>692.0</ele>
        <time>2020-09-29T18:04:31Z</time>
      </trkpt>
      <trkpt lat="40.5394300" lon="-3.4719700">
        <ele>693.0</ele>
        <time>2020-09-29T18:04:32Z</time>
      </trkpt>
      <trkpt lat="40.5393000" lon="-3.4719420">
        <ele>693.0</ele>
        <time>2020-09-29T18:04:33Z</time>
      </trkpt>
      <trkpt lat="40.5393000" lon="-3.4719420">
        <ele>693.0</ele>
        <time>2020-09-29T18:04:34Z</time>
      </trkpt>
      <trkpt lat="40.5391770" lon="-3.4719200">
        <ele>693.0</ele>
        <time>2020-09-29T18:04:35Z</time>
      </trkpt>
      <trkpt lat="40.5391770" lon="-3.4719200">
        <ele>693.0</ele>
        <time>2020-09-29T18:04:36Z</time>
      </trkpt>
      <trkpt lat="40.5390580" lon="-3.4719150">
        <ele>694.0</ele>
        <time>2020-09-29T18:04:37Z</time>
      </trkpt>
      <trkpt lat="40.5390580" lon="-3.4719150">
        <ele>694.0</ele>
        <time>2020-09-29T18:04:38Z</time>
      </trkpt>
      <trkpt lat="40.5389480" lon="-3.4719620">
        <ele>694.0</ele>
        <time>2020-09-29T18:04:39Z</time>
      </trkpt>
      <trkpt lat="40.5389480" lon="-3.4719620">
        <ele>694.0</ele>
        <time>2020-09-29T18:04:40Z</time>
      </trkpt>
      <trkpt lat="40.5388380" lon="-3.4720580">
        <ele>694.0</ele>
        <time>2020-09-29T18:04:41Z</time>
      </trkpt>
      <trkpt lat="40.5387900" lon="-3.4721200">
        <ele>694.0</ele>
        <time>2020-09-29T18:04:42Z</time>
      </trkpt>
      <trkpt lat="40.5387900" lon="-3.4721200">
        <ele>694.0</ele>
        <time>2020-09-29T18:04:43Z</time>
      </trkpt>
      <trkpt lat="40.5387130" lon="-3.4722680">
        <ele>694.0</ele>
        <time>2020-09-29T18:04:44Z</time>
      </trkpt>
      <trkpt lat="40.5386820" lon="-3.4723520">
        <ele>694.0</ele>
        <time>2020-09-29T18:04:45Z</time>
      </trkpt>
      <trkpt lat="40.5386820" lon="-3.4723520">
        <ele>694.0</ele>
        <time>2020-09-29T18:04:46Z</time>
      </trkpt>
      <trkpt lat="40.5386130" lon="-3.4725200">
        <ele>694.0</ele>
        <time>2020-09-29T18:04:47Z</time>
      </trkpt>
      <trkpt lat="40.5386130" lon="-3.4725200">
        <ele>694.0</ele>
        <time>2020-09-29T18:04:48Z</time>
      </trkpt>
      <trkpt lat="40.5385450" lon="-3.4726880">
        <ele>694.0</ele>
        <time>2020-09-29T18:04:49Z</time>
      </trkpt>
      <trkpt lat="40.5385450" lon="-3.4726880">
        <ele>694.0</ele>
        <time>2020-09-29T18:04:50Z</time>
      </trkpt>
      <trkpt lat="40.5384870" lon="-3.4728520">
        <ele>694.0</ele>
        <time>2020-09-29T18:04:51Z</time>
      </trkpt>
      <trkpt lat="40.5384870" lon="-3.4728520">
        <ele>694.0</ele>
        <time>2020-09-29T18:04:52Z</time>
      </trkpt>
      <trkpt lat="40.5384270" lon="-3.4730200">
        <ele>694.0</ele>
        <time>2020-09-29T18:04:53Z</time>
      </trkpt>
      <trkpt lat="40.5383980" lon="-3.4731050">
        <ele>694.0</ele>
        <time>2020-09-29T18:04:54Z</time>
      </trkpt>
      <trkpt lat="40.5383700" lon="-3.4731920">
        <ele>694.0</ele>
        <time>2020-09-29T18:04:55Z</time>
      </trkpt>
      <trkpt lat="40.5383700" lon="-3.4731920">
        <ele>694.0</ele>
        <time>2020-09-29T18:04:56Z</time>
      </trkpt>
      <trkpt lat="40.5383180" lon="-3.4733600">
        <ele>694.0</ele>
        <time>2020-09-29T18:04:57Z</time>
      </trkpt>
      <trkpt lat="40.5382950" lon="-3.4734370">
        <ele>694.0</ele>
        <time>2020-09-29T18:04:58Z</time>
      </trkpt>
      <trkpt lat="40.5382950" lon="-3.4734370">
        <ele>694.0</ele>
        <time>2020-09-29T18:04:59Z</time>
      </trkpt>
      <trkpt lat="40.5382530" lon="-3.4736000">
        <ele>694.0</ele>
        <time>2020-09-29T18:05:00Z</time>
      </trkpt>
      <trkpt lat="40.5382530" lon="-3.4736000">
        <ele>694.0</ele>
        <time>2020-09-29T18:05:01Z</time>
      </trkpt>
      <trkpt lat="40.5382270" lon="-3.4737670">
        <ele>694.0</ele>
        <time>2020-09-29T18:05:02Z</time>
      </trkpt>
      <trkpt lat="40.5382270" lon="-3.4737670">
        <ele>694.0</ele>
        <time>2020-09-29T18:05:03Z</time>
      </trkpt>
      <trkpt lat="40.5382270" lon="-3.4739450">
        <ele>694.0</ele>
        <time>2020-09-29T18:05:04Z</time>
      </trkpt>
      <trkpt lat="40.5382400" lon="-3.4740280">
        <ele>694.0</ele>
        <time>2020-09-29T18:05:05Z</time>
      </trkpt>
      <trkpt lat="40.5382400" lon="-3.4740280">
        <ele>694.0</ele>
        <time>2020-09-29T18:05:06Z</time>
      </trkpt>
      <trkpt lat="40.5382420" lon="-3.4741970">
        <ele>694.0</ele>
        <time>2020-09-29T18:05:07Z</time>
      </trkpt>
      <trkpt lat="40.5382300" lon="-3.4742780">
        <ele>694.0</ele>
        <time>2020-09-29T18:05:08Z</time>
      </trkpt>
      <trkpt lat="40.5382300" lon="-3.4742780">
        <ele>695.0</ele>
        <time>2020-09-29T18:05:09Z</time>
      </trkpt>
      <trkpt lat="40.5381730" lon="-3.4744180">
        <ele>695.0</ele>
        <time>2020-09-29T18:05:10Z</time>
      </trkpt>
      <trkpt lat="40.5381730" lon="-3.4744180">
        <ele>695.0</ele>
        <time>2020-09-29T18:05:11Z</time>
      </trkpt>
      <trkpt lat="40.5380950" lon="-3.4745170">
        <ele>696.0</ele>
        <time>2020-09-29T18:05:12Z</time>
      </trkpt>
      <trkpt lat="40.5380950" lon="-3.4745170">
        <ele>696.0</ele>
        <time>2020-09-29T18:05:13Z</time>
      </trkpt>
      <trkpt lat="40.5379800" lon="-3.4745670">
        <ele>696.0</ele>
        <time>2020-09-29T18:05:14Z</time>
      </trkpt>
      <trkpt lat="40.5379180" lon="-3.4745720">
        <ele>696.0</ele>
        <time>2020-09-29T18:05:15Z</time>
      </trkpt>
      <trkpt lat="40.5379180" lon="-3.4745720">
        <ele>696.0</ele>
        <time>2020-09-29T18:05:16Z</time>
      </trkpt>
      <trkpt lat="40.5377880" lon="-3.4745450">
        <ele>696.0</ele>
        <time>2020-09-29T18:05:17Z</time>
      </trkpt>
      <trkpt lat="40.5377880" lon="-3.4745450">
        <ele>697.0</ele>
        <time>2020-09-29T18:05:18Z</time>
      </trkpt>
      <trkpt lat="40.5376780" lon="-3.4744650">
        <ele>697.0</ele>
        <time>2020-09-29T18:05:19Z</time>
      </trkpt>
      <trkpt lat="40.5376780" lon="-3.4744650">
        <ele>697.0</ele>
        <time>2020-09-29T18:05:20Z</time>
      </trkpt>
      <trkpt lat="40.5375800" lon="-3.4743500">
        <ele>697.0</ele>
        <time>2020-09-29T18:05:21Z</time>
      </trkpt>
      <trkpt lat="40.5375220" lon="-3.4743000">
        <ele>697.0</ele>
        <time>2020-09-29T18:05:22Z</time>
      </trkpt>
      <trkpt lat="40.5375220" lon="-3.4743000">
        <ele>697.0</ele>
        <time>2020-09-29T18:05:23Z</time>
      </trkpt>
      <trkpt lat="40.5373830" lon="-3.4742320">
        <ele>697.0</ele>
        <time>2020-09-29T18:05:24Z</time>
      </trkpt>
      <trkpt lat="40.5373830" lon="-3.4742320">
        <ele>697.0</ele>
        <time>2020-09-29T18:05:25Z</time>
      </trkpt>
      <trkpt lat="40.5372350" lon="-3.4742020">
        <ele>697.0</ele>
        <time>2020-09-29T18:05:26Z</time>
      </trkpt>
      <trkpt lat="40.5372350" lon="-3.4742020">
        <ele>697.0</ele>
        <time>2020-09-29T18:05:27Z</time>
      </trkpt>
      <trkpt lat="40.5370850" lon="-3.4741780">
        <ele>697.0</ele>
        <time>2020-09-29T18:05:28Z</time>
      </trkpt>
      <trkpt lat="40.5370850" lon="-3.4741780">
        <ele>697.0</ele>
        <time>2020-09-29T18:05:29Z</time>
      </trkpt>
      <trkpt lat="40.5369350" lon="-3.4741580">
        <ele>696.0</ele>
        <time>2020-09-29T18:05:30Z</time>
      </trkpt>
      <trkpt lat="40.5369350" lon="-3.4741580">
        <ele>696.0</ele>
        <time>2020-09-29T18:05:31Z</time>
      </trkpt>
      <trkpt lat="40.5367830" lon="-3.4741470">
        <ele>696.0</ele>
        <time>2020-09-29T18:05:32Z</time>
      </trkpt>
      <trkpt lat="40.5367830" lon="-3.4741470">
        <ele>696.0</ele>
        <time>2020-09-29T18:05:33Z</time>
      </trkpt>
      <trkpt lat="40.5366380" lon="-3.4741320">
        <ele>696.0</ele>
        <time>2020-09-29T18:05:34Z</time>
      </trkpt>
      <trkpt lat="40.5365620" lon="-3.4741300">
        <ele>696.0</ele>
        <time>2020-09-29T18:05:35Z</time>
      </trkpt>
      <trkpt lat="40.5364830" lon="-3.4741280">
        <ele>695.0</ele>
        <time>2020-09-29T18:05:36Z</time>
      </trkpt>
      <trkpt lat="40.5364830" lon="-3.4741280">
        <ele>695.0</ele>
        <time>2020-09-29T18:05:37Z</time>
      </trkpt>
      <trkpt lat="40.5363350" lon="-3.4741180">
        <ele>695.0</ele>
        <time>2020-09-29T18:05:38Z</time>
      </trkpt>
      <trkpt lat="40.5363350" lon="-3.4741180">
        <ele>695.0</ele>
        <time>2020-09-29T18:05:39Z</time>
      </trkpt>
      <trkpt lat="40.5361750" lon="-3.4741100">
        <ele>694.0</ele>
        <time>2020-09-29T18:05:40Z</time>
      </trkpt>
      <trkpt lat="40.5361750" lon="-3.4741100">
        <ele>694.0</ele>
        <time>2020-09-29T18:05:41Z</time>
      </trkpt>
      <trkpt lat="40.5360050" lon="-3.4740980">
        <ele>694.0</ele>
        <time>2020-09-29T18:05:42Z</time>
      </trkpt>
      <trkpt lat="40.5360050" lon="-3.4740980">
        <ele>694.0</ele>
        <time>2020-09-29T18:05:43Z</time>
      </trkpt>
      <trkpt lat="40.5358370" lon="-3.4740930">
        <ele>693.0</ele>
        <time>2020-09-29T18:05:44Z</time>
      </trkpt>
      <trkpt lat="40.5358370" lon="-3.4740930">
        <ele>693.0</ele>
        <time>2020-09-29T18:05:45Z</time>
      </trkpt>
      <trkpt lat="40.5356670" lon="-3.4740900">
        <ele>693.0</ele>
        <time>2020-09-29T18:05:46Z</time>
      </trkpt>
      <trkpt lat="40.5356670" lon="-3.4740900">
        <ele>693.0</ele>
        <time>2020-09-29T18:05:47Z</time>
      </trkpt>
      <trkpt lat="40.5354970" lon="-3.4740850">
        <ele>693.0</ele>
        <time>2020-09-29T18:05:48Z</time>
      </trkpt>
      <trkpt lat="40.5354100" lon="-3.4740820">
        <ele>693.0</ele>
        <time>2020-09-29T18:05:49Z</time>
      </trkpt>
      <trkpt lat="40.5354100" lon="-3.4740820">
        <ele>693.0</ele>
        <time>2020-09-29T18:05:50Z</time>
      </trkpt>
      <trkpt lat="40.5352330" lon="-3.4740820">
        <ele>693.0</ele>
        <time>2020-09-29T18:05:51Z</time>
      </trkpt>
      <trkpt lat="40.5351450" lon="-3.4740850">
        <ele>693.0</ele>
        <time>2020-09-29T18:05:52Z</time>
      </trkpt>
      <trkpt lat="40.5351450" lon="-3.4740850">
        <ele>693.0</ele>
        <time>2020-09-29T18:05:53Z</time>
      </trkpt>
      <trkpt lat="40.5349680" lon="-3.4741000">
        <ele>693.0</ele>
        <time>2020-09-29T18:05:54Z</time>
      </trkpt>
      <trkpt lat="40.5349680" lon="-3.4741000">
        <ele>692.0</ele>
        <time>2020-09-29T18:05:55Z</time>
      </trkpt>
      <trkpt lat="40.5347900" lon="-3.4741230">
        <ele>692.0</ele>
        <time>2020-09-29T18:05:56Z</time>
      </trkpt>
      <trkpt lat="40.5347900" lon="-3.4741230">
        <ele>692.0</ele>
        <time>2020-09-29T18:05:57Z</time>
      </trkpt>
      <trkpt lat="40.5346100" lon="-3.4741670">
        <ele>692.0</ele>
        <time>2020-09-29T18:05:58Z</time>
      </trkpt>
      <trkpt lat="40.5345200" lon="-3.4741950">
        <ele>691.0</ele>
        <time>2020-09-29T18:05:59Z</time>
      </trkpt>
      <trkpt lat="40.5345200" lon="-3.4741950">
        <ele>691.0</ele>
        <time>2020-09-29T18:06:00Z</time>
      </trkpt>
      <trkpt lat="40.5343330" lon="-3.4742650">
        <ele>691.0</ele>
        <time>2020-09-29T18:06:01Z</time>
      </trkpt>
      <trkpt lat="40.5342420" lon="-3.4743070">
        <ele>691.0</ele>
        <time>2020-09-29T18:06:02Z</time>
      </trkpt>
      <trkpt lat="40.5341470" lon="-3.4743530">
        <ele>690.0</ele>
        <time>2020-09-29T18:06:03Z</time>
      </trkpt>
      <trkpt lat="40.5341470" lon="-3.4743530">
        <ele>690.0</ele>
        <time>2020-09-29T18:06:04Z</time>
      </trkpt>
      <trkpt lat="40.5339550" lon="-3.4744620">
        <ele>690.0</ele>
        <time>2020-09-29T18:06:05Z</time>
      </trkpt>
      <trkpt lat="40.5338600" lon="-3.4745250">
        <ele>690.0</ele>
        <time>2020-09-29T18:06:06Z</time>
      </trkpt>
      <trkpt lat="40.5338600" lon="-3.4745250">
        <ele>689.0</ele>
        <time>2020-09-29T18:06:07Z</time>
      </trkpt>
      <trkpt lat="40.5336650" lon="-3.4746620">
        <ele>689.0</ele>
        <time>2020-09-29T18:06:08Z</time>
      </trkpt>
      <trkpt lat="40.5335670" lon="-3.4747330">
        <ele>688.0</ele>
        <time>2020-09-29T18:06:09Z</time>
      </trkpt>
      <trkpt lat="40.5335670" lon="-3.4747330">
        <ele>688.0</ele>
        <time>2020-09-29T18:06:10Z</time>
      </trkpt>
      <trkpt lat="40.5333700" lon="-3.4748800">
        <ele>687.0</ele>
        <time>2020-09-29T18:06:11Z</time>
      </trkpt>
      <trkpt lat="40.5332700" lon="-3.4749550">
        <ele>687.0</ele>
        <time>2020-09-29T18:06:12Z</time>
      </trkpt>
      <trkpt lat="40.5332700" lon="-3.4749550">
        <ele>686.0</ele>
        <time>2020-09-29T18:06:13Z</time>
      </trkpt>
      <trkpt lat="40.5330650" lon="-3.4751050">
        <ele>686.0</ele>
        <time>2020-09-29T18:06:14Z</time>
      </trkpt>
      <trkpt lat="40.5329620" lon="-3.4751770">
        <ele>685.0</ele>
        <time>2020-09-29T18:06:15Z</time>
      </trkpt>
      <trkpt lat="40.5329620" lon="-3.4751770">
        <ele>685.0</ele>
        <time>2020-09-29T18:06:16Z</time>
      </trkpt>
      <trkpt lat="40.5329620" lon="-3.4751770">
        <ele>684.0</ele>
        <time>2020-09-29T18:06:17Z</time>
      </trkpt>
      <trkpt lat="40.5326450" lon="-3.4753770">
        <ele>684.0</ele>
        <time>2020-09-29T18:06:18Z</time>
      </trkpt>
      <trkpt lat="40.5326450" lon="-3.4753770">
        <ele>684.0</ele>
        <time>2020-09-29T18:06:19Z</time>
      </trkpt>
      <trkpt lat="40.5324280" lon="-3.4754920">
        <ele>684.0</ele>
        <time>2020-09-29T18:06:20Z</time>
      </trkpt>
      <trkpt lat="40.5323180" lon="-3.4755430">
        <ele>684.0</ele>
        <time>2020-09-29T18:06:21Z</time>
      </trkpt>
      <trkpt lat="40.5323180" lon="-3.4755430">
        <ele>682.0</ele>
        <time>2020-09-29T18:06:22Z</time>
      </trkpt>
      <trkpt lat="40.5321000" lon="-3.4756420">
        <ele>682.0</ele>
        <time>2020-09-29T18:06:23Z</time>
      </trkpt>
      <trkpt lat="40.5319870" lon="-3.4756830">
        <ele>681.0</ele>
        <time>2020-09-29T18:06:24Z</time>
      </trkpt>
      <trkpt lat="40.5319870" lon="-3.4756830">
        <ele>681.0</ele>
        <time>2020-09-29T18:06:25Z</time>
      </trkpt>
      <trkpt lat="40.5317630" lon="-3.4757600">
        <ele>681.0</ele>
        <time>2020-09-29T18:06:26Z</time>
      </trkpt>
      <trkpt lat="40.5317630" lon="-3.4757600">
        <ele>680.0</ele>
        <time>2020-09-29T18:06:27Z</time>
      </trkpt>
      <trkpt lat="40.5315380" lon="-3.4758270">
        <ele>680.0</ele>
        <time>2020-09-29T18:06:28Z</time>
      </trkpt>
      <trkpt lat="40.5315380" lon="-3.4758270">
        <ele>679.0</ele>
        <time>2020-09-29T18:06:29Z</time>
      </trkpt>
      <trkpt lat="40.5313150" lon="-3.4758800">
        <ele>679.0</ele>
        <time>2020-09-29T18:06:30Z</time>
      </trkpt>
      <trkpt lat="40.5313150" lon="-3.4758800">
        <ele>679.0</ele>
        <time>2020-09-29T18:06:31Z</time>
      </trkpt>
      <trkpt lat="40.5310950" lon="-3.4759200">
        <ele>679.0</ele>
        <time>2020-09-29T18:06:32Z</time>
      </trkpt>
      <trkpt lat="40.5309850" lon="-3.4759370">
        <ele>678.0</ele>
        <time>2020-09-29T18:06:33Z</time>
      </trkpt>
      <trkpt lat="40.5309850" lon="-3.4759370">
        <ele>678.0</ele>
        <time>2020-09-29T18:06:34Z</time>
      </trkpt>
      <trkpt lat="40.5307680" lon="-3.4759620">
        <ele>678.0</ele>
        <time>2020-09-29T18:06:35Z</time>
      </trkpt>
      <trkpt lat="40.5306620" lon="-3.4759730">
        <ele>678.0</ele>
        <time>2020-09-29T18:06:36Z</time>
      </trkpt>
      <trkpt lat="40.5306620" lon="-3.4759730">
        <ele>677.0</ele>
        <time>2020-09-29T18:06:37Z</time>
      </trkpt>
      <trkpt lat="40.5304480" lon="-3.4759930">
        <ele>677.0</ele>
        <time>2020-09-29T18:06:38Z</time>
      </trkpt>
      <trkpt lat="40.5303430" lon="-3.4760030">
        <ele>677.0</ele>
        <time>2020-09-29T18:06:39Z</time>
      </trkpt>
      <trkpt lat="40.5303430" lon="-3.4760030">
        <ele>677.0</ele>
        <time>2020-09-29T18:06:40Z</time>
      </trkpt>
      <trkpt lat="40.5301350" lon="-3.4760200">
        <ele>677.0</ele>
        <time>2020-09-29T18:06:41Z</time>
      </trkpt>
      <trkpt lat="40.5300320" lon="-3.4760280">
        <ele>677.0</ele>
        <time>2020-09-29T18:06:42Z</time>
      </trkpt>
      <trkpt lat="40.5300320" lon="-3.4760280">
        <ele>676.0</ele>
        <time>2020-09-29T18:06:43Z</time>
      </trkpt>
      <trkpt lat="40.5298300" lon="-3.4760520">
        <ele>676.0</ele>
        <time>2020-09-29T18:06:44Z</time>
      </trkpt>
      <trkpt lat="40.5298300" lon="-3.4760520">
        <ele>676.0</ele>
        <time>2020-09-29T18:06:45Z</time>
      </trkpt>
      <trkpt lat="40.5296270" lon="-3.4760770">
        <ele>676.0</ele>
        <time>2020-09-29T18:06:46Z</time>
      </trkpt>
      <trkpt lat="40.5296270" lon="-3.4760770">
        <ele>675.0</ele>
        <time>2020-09-29T18:06:47Z</time>
      </trkpt>
      <trkpt lat="40.5294230" lon="-3.4761070">
        <ele>675.0</ele>
        <time>2020-09-29T18:06:48Z</time>
      </trkpt>
      <trkpt lat="40.5294230" lon="-3.4761070">
        <ele>675.0</ele>
        <time>2020-09-29T18:06:49Z</time>
      </trkpt>
      <trkpt lat="40.5292230" lon="-3.4761450">
        <ele>675.0</ele>
        <time>2020-09-29T18:06:50Z</time>
      </trkpt>
      <trkpt lat="40.5292230" lon="-3.4761450">
        <ele>674.0</ele>
        <time>2020-09-29T18:06:51Z</time>
      </trkpt>
      <trkpt lat="40.5290270" lon="-3.4761920">
        <ele>674.0</ele>
        <time>2020-09-29T18:06:52Z</time>
      </trkpt>
      <trkpt lat="40.5290270" lon="-3.4761920">
        <ele>674.0</ele>
        <time>2020-09-29T18:06:53Z</time>
      </trkpt>
      <trkpt lat="40.5288320" lon="-3.4762450">
        <ele>674.0</ele>
        <time>2020-09-29T18:06:54Z</time>
      </trkpt>
      <trkpt lat="40.5288320" lon="-3.4762450">
        <ele>674.0</ele>
        <time>2020-09-29T18:06:55Z</time>
      </trkpt>
      <trkpt lat="40.5286430" lon="-3.4763050">
        <ele>674.0</ele>
        <time>2020-09-29T18:06:56Z</time>
      </trkpt>
      <trkpt lat="40.5286430" lon="-3.4763050">
        <ele>674.0</ele>
        <time>2020-09-29T18:06:57Z</time>
      </trkpt>
      <trkpt lat="40.5284580" lon="-3.4763680">
        <ele>674.0</ele>
        <time>2020-09-29T18:06:58Z</time>
      </trkpt>
      <trkpt lat="40.5284580" lon="-3.4763680">
        <ele>673.0</ele>
        <time>2020-09-29T18:06:59Z</time>
      </trkpt>
      <trkpt lat="40.5282850" lon="-3.4764380">
        <ele>673.0</ele>
        <time>2020-09-29T18:07:00Z</time>
      </trkpt>
      <trkpt lat="40.5282850" lon="-3.4764380">
        <ele>673.0</ele>
        <time>2020-09-29T18:07:01Z</time>
      </trkpt>
      <trkpt lat="40.5281200" lon="-3.4765180">
        <ele>673.0</ele>
        <time>2020-09-29T18:07:02Z</time>
      </trkpt>
      <trkpt lat="40.5280400" lon="-3.4765580">
        <ele>673.0</ele>
        <time>2020-09-29T18:07:03Z</time>
      </trkpt>
      <trkpt lat="40.5280400" lon="-3.4765580">
        <ele>673.0</ele>
        <time>2020-09-29T18:07:04Z</time>
      </trkpt>
      <trkpt lat="40.5278870" lon="-3.4766380">
        <ele>673.0</ele>
        <time>2020-09-29T18:07:05Z</time>
      </trkpt>
      <trkpt lat="40.5278130" lon="-3.4766800">
        <ele>674.0</ele>
        <time>2020-09-29T18:07:06Z</time>
      </trkpt>
      <trkpt lat="40.5278130" lon="-3.4766800">
        <ele>674.0</ele>
        <time>2020-09-29T18:07:07Z</time>
      </trkpt>
      <trkpt lat="40.5276700" lon="-3.4767630">
        <ele>674.0</ele>
        <time>2020-09-29T18:07:08Z</time>
      </trkpt>
      <trkpt lat="40.5276700" lon="-3.4767630">
        <ele>674.0</ele>
        <time>2020-09-29T18:07:09Z</time>
      </trkpt>
      <trkpt lat="40.5275330" lon="-3.4768470">
        <ele>674.0</ele>
        <time>2020-09-29T18:07:10Z</time>
      </trkpt>
      <trkpt lat="40.5275330" lon="-3.4768470">
        <ele>674.0</ele>
        <time>2020-09-29T18:07:11Z</time>
      </trkpt>
      <trkpt lat="40.5274050" lon="-3.4769280">
        <ele>675.0</ele>
        <time>2020-09-29T18:07:12Z</time>
      </trkpt>
      <trkpt lat="40.5274050" lon="-3.4769280">
        <ele>675.0</ele>
        <time>2020-09-29T18:07:13Z</time>
      </trkpt>
      <trkpt lat="40.5272830" lon="-3.4770100">
        <ele>675.0</ele>
        <time>2020-09-29T18:07:14Z</time>
      </trkpt>
      <trkpt lat="40.5272250" lon="-3.4770530">
        <ele>675.0</ele>
        <time>2020-09-29T18:07:15Z</time>
      </trkpt>
      <trkpt lat="40.5271650" lon="-3.4770950">
        <ele>676.0</ele>
        <time>2020-09-29T18:07:16Z</time>
      </trkpt>
      <trkpt lat="40.5271650" lon="-3.4770950">
        <ele>676.0</ele>
        <time>2020-09-29T18:07:17Z</time>
      </trkpt>
      <trkpt lat="40.5270520" lon="-3.4771750">
        <ele>676.0</ele>
        <time>2020-09-29T18:07:18Z</time>
      </trkpt>
      <trkpt lat="40.5270520" lon="-3.4771750">
        <ele>676.0</ele>
        <time>2020-09-29T18:07:19Z</time>
      </trkpt>
      <trkpt lat="40.5269430" lon="-3.4772600">
        <ele>677.0</ele>
        <time>2020-09-29T18:07:20Z</time>
      </trkpt>
      <trkpt lat="40.5269430" lon="-3.4772600">
        <ele>677.0</ele>
        <time>2020-09-29T18:07:21Z</time>
      </trkpt>
      <trkpt lat="40.5268400" lon="-3.4773420">
        <ele>677.0</ele>
        <time>2020-09-29T18:07:22Z</time>
      </trkpt>
      <trkpt lat="40.5268400" lon="-3.4773420">
        <ele>677.0</ele>
        <time>2020-09-29T18:07:23Z</time>
      </trkpt>
      <trkpt lat="40.5267450" lon="-3.4774180">
        <ele>678.0</ele>
        <time>2020-09-29T18:07:24Z</time>
      </trkpt>
      <trkpt lat="40.5267450" lon="-3.4774180">
        <ele>678.0</ele>
        <time>2020-09-29T18:07:25Z</time>
      </trkpt>
      <trkpt lat="40.5266500" lon="-3.4774970">
        <ele>678.0</ele>
        <time>2020-09-29T18:07:26Z</time>
      </trkpt>
      <trkpt lat="40.5266020" lon="-3.4775370">
        <ele>678.0</ele>
        <time>2020-09-29T18:07:27Z</time>
      </trkpt>
      <trkpt lat="40.5266020" lon="-3.4775370">
        <ele>679.0</ele>
        <time>2020-09-29T18:07:28Z</time>
      </trkpt>
      <trkpt lat="40.5265070" lon="-3.4776170">
        <ele>679.0</ele>
        <time>2020-09-29T18:07:29Z</time>
      </trkpt>
      <trkpt lat="40.5264580" lon="-3.4776580">
        <ele>679.0</ele>
        <time>2020-09-29T18:07:30Z</time>
      </trkpt>
      <trkpt lat="40.5264580" lon="-3.4776580">
        <ele>679.0</ele>
        <time>2020-09-29T18:07:31Z</time>
      </trkpt>
      <trkpt lat="40.5263650" lon="-3.4777330">
        <ele>680.0</ele>
        <time>2020-09-29T18:07:32Z</time>
      </trkpt>
      <trkpt lat="40.5263650" lon="-3.4777330">
        <ele>680.0</ele>
        <time>2020-09-29T18:07:33Z</time>
      </trkpt>
      <trkpt lat="40.5262770" lon="-3.4778030">
        <ele>680.0</ele>
        <time>2020-09-29T18:07:34Z</time>
      </trkpt>
      <trkpt lat="40.5262770" lon="-3.4778030">
        <ele>680.0</ele>
        <time>2020-09-29T18:07:35Z</time>
      </trkpt>
      <trkpt lat="40.5261870" lon="-3.4778730">
        <ele>681.0</ele>
        <time>2020-09-29T18:07:36Z</time>
      </trkpt>
      <trkpt lat="40.5261870" lon="-3.4778730">
        <ele>681.0</ele>
        <time>2020-09-29T18:07:37Z</time>
      </trkpt>
      <trkpt lat="40.5260950" lon="-3.4779420">
        <ele>681.0</ele>
        <time>2020-09-29T18:07:38Z</time>
      </trkpt>
      <trkpt lat="40.5260950" lon="-3.4779420">
        <ele>682.0</ele>
        <time>2020-09-29T18:07:39Z</time>
      </trkpt>
      <trkpt lat="40.5260070" lon="-3.4780120">
        <ele>682.0</ele>
        <time>2020-09-29T18:07:40Z</time>
      </trkpt>
      <trkpt lat="40.5259620" lon="-3.4780450">
        <ele>682.0</ele>
        <time>2020-09-29T18:07:41Z</time>
      </trkpt>
      <trkpt lat="40.5259620" lon="-3.4780450">
        <ele>682.0</ele>
        <time>2020-09-29T18:07:42Z</time>
      </trkpt>
      <trkpt lat="40.5258700" lon="-3.4781080">
        <ele>682.0</ele>
        <time>2020-09-29T18:07:43Z</time>
      </trkpt>
      <trkpt lat="40.5258700" lon="-3.4781080">
        <ele>682.0</ele>
        <time>2020-09-29T18:07:44Z</time>
      </trkpt>
      <trkpt lat="40.5257750" lon="-3.4781670">
        <ele>682.0</ele>
        <time>2020-09-29T18:07:45Z</time>
      </trkpt>
      <trkpt lat="40.5257750" lon="-3.4781670">
        <ele>682.0</ele>
        <time>2020-09-29T18:07:46Z</time>
      </trkpt>
      <trkpt lat="40.5256800" lon="-3.4782220">
        <ele>682.0</ele>
        <time>2020-09-29T18:07:47Z</time>
      </trkpt>
      <trkpt lat="40.5256320" lon="-3.4782480">
        <ele>682.0</ele>
        <time>2020-09-29T18:07:48Z</time>
      </trkpt>
      <trkpt lat="40.5256320" lon="-3.4782480">
        <ele>683.0</ele>
        <time>2020-09-29T18:07:49Z</time>
      </trkpt>
      <trkpt lat="40.5255320" lon="-3.4783020">
        <ele>683.0</ele>
        <time>2020-09-29T18:07:50Z</time>
      </trkpt>
      <trkpt lat="40.5255320" lon="-3.4783020">
        <ele>683.0</ele>
        <time>2020-09-29T18:07:51Z</time>
      </trkpt>
      <trkpt lat="40.5254300" lon="-3.4783520">
        <ele>683.0</ele>
        <time>2020-09-29T18:07:52Z</time>
      </trkpt>
      <trkpt lat="40.5254300" lon="-3.4783520">
        <ele>683.0</ele>
        <time>2020-09-29T18:07:53Z</time>
      </trkpt>
      <trkpt lat="40.5253250" lon="-3.4783970">
        <ele>683.0</ele>
        <time>2020-09-29T18:07:54Z</time>
      </trkpt>
      <trkpt lat="40.5253250" lon="-3.4783970">
        <ele>683.0</ele>
        <time>2020-09-29T18:07:55Z</time>
      </trkpt>
      <trkpt lat="40.5252130" lon="-3.4784400">
        <ele>683.0</ele>
        <time>2020-09-29T18:07:56Z</time>
      </trkpt>
      <trkpt lat="40.5252130" lon="-3.4784400">
        <ele>683.0</ele>
        <time>2020-09-29T18:07:57Z</time>
      </trkpt>
      <trkpt lat="40.5251000" lon="-3.4784780">
        <ele>683.0</ele>
        <time>2020-09-29T18:07:58Z</time>
      </trkpt>
      <trkpt lat="40.5251000" lon="-3.4784780">
        <ele>683.0</ele>
        <time>2020-09-29T18:07:59Z</time>
      </trkpt>
      <trkpt lat="40.5249850" lon="-3.4785150">
        <ele>683.0</ele>
        <time>2020-09-29T18:08:00Z</time>
      </trkpt>
      <trkpt lat="40.5249270" lon="-3.4785300">
        <ele>683.0</ele>
        <time>2020-09-29T18:08:01Z</time>
      </trkpt>
      <trkpt lat="40.5249270" lon="-3.4785300">
        <ele>683.0</ele>
        <time>2020-09-29T18:08:02Z</time>
      </trkpt>
      <trkpt lat="40.5248050" lon="-3.4785570">
        <ele>683.0</ele>
        <time>2020-09-29T18:08:03Z</time>
      </trkpt>
      <trkpt lat="40.5248050" lon="-3.4785570">
        <ele>683.0</ele>
        <time>2020-09-29T18:08:04Z</time>
      </trkpt>
      <trkpt lat="40.5246780" lon="-3.4785780">
        <ele>683.0</ele>
        <time>2020-09-29T18:08:05Z</time>
      </trkpt>
      <trkpt lat="40.5246150" lon="-3.4785880">
        <ele>683.0</ele>
        <time>2020-09-29T18:08:06Z</time>
      </trkpt>
      <trkpt lat="40.5246150" lon="-3.4785880">
        <ele>683.0</ele>
        <time>2020-09-29T18:08:07Z</time>
      </trkpt>
      <trkpt lat="40.5246150" lon="-3.4785880">
        <ele>683.0</ele>
        <time>2020-09-29T18:08:08Z</time>
      </trkpt>
      <trkpt lat="40.5244820" lon="-3.4786050">
        <ele>683.0</ele>
        <time>2020-09-29T18:08:09Z</time>
      </trkpt>
      <trkpt lat="40.5243480" lon="-3.4786150">
        <ele>683.0</ele>
        <time>2020-09-29T18:08:10Z</time>
      </trkpt>
      <trkpt lat="40.5243480" lon="-3.4786150">
        <ele>682.0</ele>
        <time>2020-09-29T18:08:11Z</time>
      </trkpt>
      <trkpt lat="40.5242070" lon="-3.4786170">
        <ele>682.0</ele>
        <time>2020-09-29T18:08:12Z</time>
      </trkpt>
      <trkpt lat="40.5242070" lon="-3.4786170">
        <ele>682.0</ele>
        <time>2020-09-29T18:08:13Z</time>
      </trkpt>
      <trkpt lat="40.5240670" lon="-3.4786120">
        <ele>682.0</ele>
        <time>2020-09-29T18:08:14Z</time>
      </trkpt>
      <trkpt lat="40.5240670" lon="-3.4786120">
        <ele>682.0</ele>
        <time>2020-09-29T18:08:15Z</time>
      </trkpt>
      <trkpt lat="40.5239200" lon="-3.4785970">
        <ele>682.0</ele>
        <time>2020-09-29T18:08:16Z</time>
      </trkpt>
      <trkpt lat="40.5238430" lon="-3.4785870">
        <ele>682.0</ele>
        <time>2020-09-29T18:08:17Z</time>
      </trkpt>
      <trkpt lat="40.5237650" lon="-3.4785750">
        <ele>681.0</ele>
        <time>2020-09-29T18:08:18Z</time>
      </trkpt>
      <trkpt lat="40.5237650" lon="-3.4785750">
        <ele>681.0</ele>
        <time>2020-09-29T18:08:19Z</time>
      </trkpt>
      <trkpt lat="40.5236030" lon="-3.4785470">
        <ele>680.0</ele>
        <time>2020-09-29T18:08:20Z</time>
      </trkpt>
      <trkpt lat="40.5235200" lon="-3.4785320">
        <ele>680.0</ele>
        <time>2020-09-29T18:08:21Z</time>
      </trkpt>
      <trkpt lat="40.5234350" lon="-3.4785170">
        <ele>679.0</ele>
        <time>2020-09-29T18:08:22Z</time>
      </trkpt>
      <trkpt lat="40.5234350" lon="-3.4785170">
        <ele>679.0</ele>
        <time>2020-09-29T18:08:23Z</time>
      </trkpt>
      <trkpt lat="40.5232650" lon="-3.4784870">
        <ele>678.0</ele>
        <time>2020-09-29T18:08:24Z</time>
      </trkpt>
      <trkpt lat="40.5232650" lon="-3.4784870">
        <ele>678.0</ele>
        <time>2020-09-29T18:08:25Z</time>
      </trkpt>
      <trkpt lat="40.5230950" lon="-3.4784620">
        <ele>678.0</ele>
        <time>2020-09-29T18:08:26Z</time>
      </trkpt>
      <trkpt lat="40.5230950" lon="-3.4784620">
        <ele>678.0</ele>
        <time>2020-09-29T18:08:27Z</time>
      </trkpt>
      <trkpt lat="40.5229250" lon="-3.4784430">
        <ele>677.0</ele>
        <time>2020-09-29T18:08:28Z</time>
      </trkpt>
      <trkpt lat="40.5229250" lon="-3.4784430">
        <ele>677.0</ele>
        <time>2020-09-29T18:08:29Z</time>
      </trkpt>
      <trkpt lat="40.5227530" lon="-3.4784380">
        <ele>677.0</ele>
        <time>2020-09-29T18:08:30Z</time>
      </trkpt>
      <trkpt lat="40.5227530" lon="-3.4784380">
        <ele>677.0</ele>
        <time>2020-09-29T18:08:31Z</time>
      </trkpt>
      <trkpt lat="40.5225830" lon="-3.4784530">
        <ele>677.0</ele>
        <time>2020-09-29T18:08:32Z</time>
      </trkpt>
      <trkpt lat="40.5225000" lon="-3.4784650">
        <ele>677.0</ele>
        <time>2020-09-29T18:08:33Z</time>
      </trkpt>
      <trkpt lat="40.5224150" lon="-3.4784820">
        <ele>676.0</ele>
        <time>2020-09-29T18:08:34Z</time>
      </trkpt>
      <trkpt lat="40.5224150" lon="-3.4784820">
        <ele>676.0</ele>
        <time>2020-09-29T18:08:35Z</time>
      </trkpt>
      <trkpt lat="40.5222550" lon="-3.4785300">
        <ele>676.0</ele>
        <time>2020-09-29T18:08:36Z</time>
      </trkpt>
      <trkpt lat="40.5222550" lon="-3.4785300">
        <ele>676.0</ele>
        <time>2020-09-29T18:08:37Z</time>
      </trkpt>
      <trkpt lat="40.5221020" lon="-3.4785930">
        <ele>676.0</ele>
        <time>2020-09-29T18:08:38Z</time>
      </trkpt>
      <trkpt lat="40.5221020" lon="-3.4785930">
        <ele>676.0</ele>
        <time>2020-09-29T18:08:39Z</time>
      </trkpt>
      <trkpt lat="40.5219530" lon="-3.4786700">
        <ele>676.0</ele>
        <time>2020-09-29T18:08:40Z</time>
      </trkpt>
      <trkpt lat="40.5219530" lon="-3.4786700">
        <ele>676.0</ele>
        <time>2020-09-29T18:08:41Z</time>
      </trkpt>
      <trkpt lat="40.5218120" lon="-3.4787530">
        <ele>675.0</ele>
        <time>2020-09-29T18:08:42Z</time>
      </trkpt>
      <trkpt lat="40.5218120" lon="-3.4787530">
        <ele>675.0</ele>
        <time>2020-09-29T18:08:43Z</time>
      </trkpt>
      <trkpt lat="40.5216800" lon="-3.4788480">
        <ele>675.0</ele>
        <time>2020-09-29T18:08:44Z</time>
      </trkpt>
      <trkpt lat="40.5216170" lon="-3.4788980">
        <ele>675.0</ele>
        <time>2020-09-29T18:08:45Z</time>
      </trkpt>
      <trkpt lat="40.5216170" lon="-3.4788980">
        <ele>675.0</ele>
        <time>2020-09-29T18:08:46Z</time>
      </trkpt>
      <trkpt lat="40.5215020" lon="-3.4790050">
        <ele>675.0</ele>
        <time>2020-09-29T18:08:47Z</time>
      </trkpt>
      <trkpt lat="40.5214470" lon="-3.4790580">
        <ele>675.0</ele>
        <time>2020-09-29T18:08:48Z</time>
      </trkpt>
      <trkpt lat="40.5214470" lon="-3.4790580">
        <ele>675.0</ele>
        <time>2020-09-29T18:08:49Z</time>
      </trkpt>
      <trkpt lat="40.5213400" lon="-3.4791720">
        <ele>675.0</ele>
        <time>2020-09-29T18:08:50Z</time>
      </trkpt>
      <trkpt lat="40.5212900" lon="-3.4792280">
        <ele>675.0</ele>
        <time>2020-09-29T18:08:51Z</time>
      </trkpt>
      <trkpt lat="40.5212900" lon="-3.4792280">
        <ele>676.0</ele>
        <time>2020-09-29T18:08:52Z</time>
      </trkpt>
      <trkpt lat="40.5211920" lon="-3.4793450">
        <ele>676.0</ele>
        <time>2020-09-29T18:08:53Z</time>
      </trkpt>
      <trkpt lat="40.5211920" lon="-3.4793450">
        <ele>676.0</ele>
        <time>2020-09-29T18:08:54Z</time>
      </trkpt>
      <trkpt lat="40.5211000" lon="-3.4794600">
        <ele>676.0</ele>
        <time>2020-09-29T18:08:55Z</time>
      </trkpt>
      <trkpt lat="40.5210580" lon="-3.4795150">
        <ele>676.0</ele>
        <time>2020-09-29T18:08:56Z</time>
      </trkpt>
      <trkpt lat="40.5210380" lon="-3.4795420">
        <ele>676.0</ele>
        <time>2020-09-29T18:08:57Z</time>
      </trkpt>
      <trkpt lat="40.5210170" lon="-3.4795690">
        <ele>677.0</ele>
        <time>2020-09-29T18:08:58Z</time>
      </trkpt>
      <trkpt lat="40.5209750" lon="-3.4796220">
        <ele>677.0</ele>
        <time>2020-09-29T18:08:59Z</time>
      </trkpt>
      <trkpt lat="40.5208930" lon="-3.4797250">
        <ele>677.0</ele>
        <time>2020-09-29T18:09:00Z</time>
      </trkpt>
      <trkpt lat="40.5208930" lon="-3.4797250">
        <ele>677.0</ele>
        <time>2020-09-29T18:09:01Z</time>
      </trkpt>
      <trkpt lat="40.5208170" lon="-3.4798280">
        <ele>677.0</ele>
        <time>2020-09-29T18:09:02Z</time>
      </trkpt>
      <trkpt lat="40.5208170" lon="-3.4798280">
        <ele>677.0</ele>
        <time>2020-09-29T18:09:03Z</time>
      </trkpt>
      <trkpt lat="40.5207380" lon="-3.4799300">
        <ele>677.0</ele>
        <time>2020-09-29T18:09:04Z</time>
      </trkpt>
      <trkpt lat="40.5207380" lon="-3.4799300">
        <ele>677.0</ele>
        <time>2020-09-29T18:09:05Z</time>
      </trkpt>
      <trkpt lat="40.5206630" lon="-3.4800320">
        <ele>677.0</ele>
        <time>2020-09-29T18:09:06Z</time>
      </trkpt>
      <trkpt lat="40.5206630" lon="-3.4800320">
        <ele>678.0</ele>
        <time>2020-09-29T18:09:07Z</time>
      </trkpt>
      <trkpt lat="40.5205980" lon="-3.4801350">
        <ele>678.0</ele>
        <time>2020-09-29T18:09:08Z</time>
      </trkpt>
      <trkpt lat="40.5205980" lon="-3.4801350">
        <ele>678.0</ele>
        <time>2020-09-29T18:09:09Z</time>
      </trkpt>
      <trkpt lat="40.5205350" lon="-3.4802450">
        <ele>678.0</ele>
        <time>2020-09-29T18:09:10Z</time>
      </trkpt>
      <trkpt lat="40.5205350" lon="-3.4802450">
        <ele>678.0</ele>
        <time>2020-09-29T18:09:11Z</time>
      </trkpt>
      <trkpt lat="40.5204720" lon="-3.4803550">
        <ele>678.0</ele>
        <time>2020-09-29T18:09:12Z</time>
      </trkpt>
      <trkpt lat="40.5204720" lon="-3.4803550">
        <ele>679.0</ele>
        <time>2020-09-29T18:09:13Z</time>
      </trkpt>
      <trkpt lat="40.5204330" lon="-3.4804920">
        <ele>679.0</ele>
        <time>2020-09-29T18:09:14Z</time>
      </trkpt>
      <trkpt lat="40.5204330" lon="-3.4804920">
        <ele>679.0</ele>
        <time>2020-09-29T18:09:15Z</time>
      </trkpt>
      <trkpt lat="40.5204050" lon="-3.4806320">
        <ele>679.0</ele>
        <time>2020-09-29T18:09:16Z</time>
      </trkpt>
      <trkpt lat="40.5203820" lon="-3.4807020">
        <ele>679.0</ele>
        <time>2020-09-29T18:09:17Z</time>
      </trkpt>
      <trkpt lat="40.5203520" lon="-3.4807650">
        <ele>679.0</ele>
        <time>2020-09-29T18:09:18Z</time>
      </trkpt>
      <trkpt lat="40.5203520" lon="-3.4807650">
        <ele>679.0</ele>
        <time>2020-09-29T18:09:19Z</time>
      </trkpt>
      <trkpt lat="40.5202650" lon="-3.4808620">
        <ele>679.0</ele>
        <time>2020-09-29T18:09:20Z</time>
      </trkpt>
      <trkpt lat="40.5202650" lon="-3.4808620">
        <ele>679.0</ele>
        <time>2020-09-29T18:09:21Z</time>
      </trkpt>
      <trkpt lat="40.5201550" lon="-3.4809230">
        <ele>679.0</ele>
        <time>2020-09-29T18:09:22Z</time>
      </trkpt>
      <trkpt lat="40.5200980" lon="-3.4809420">
        <ele>679.0</ele>
        <time>2020-09-29T18:09:23Z</time>
      </trkpt>
      <trkpt lat="40.5200400" lon="-3.4809500">
        <ele>679.0</ele>
        <time>2020-09-29T18:09:24Z</time>
      </trkpt>
      <trkpt lat="40.5200400" lon="-3.4809500">
        <ele>679.0</ele>
        <time>2020-09-29T18:09:25Z</time>
      </trkpt>
      <trkpt lat="40.5199180" lon="-3.4809620">
        <ele>679.0</ele>
        <time>2020-09-29T18:09:26Z</time>
      </trkpt>
      <trkpt lat="40.5198600" lon="-3.4809650">
        <ele>679.0</ele>
        <time>2020-09-29T18:09:27Z</time>
      </trkpt>
      <trkpt lat="40.5198020" lon="-3.4809700">
        <ele>679.0</ele>
        <time>2020-09-29T18:09:28Z</time>
      </trkpt>
      <trkpt lat="40.5198020" lon="-3.4809700">
        <ele>679.0</ele>
        <time>2020-09-29T18:09:29Z</time>
      </trkpt>
      <trkpt lat="40.5198020" lon="-3.4809700">
        <ele>679.0</ele>
        <time>2020-09-29T18:09:30Z</time>
      </trkpt>
      <trkpt lat="40.5196900" lon="-3.4809780">
        <ele>679.0</ele>
        <time>2020-09-29T18:09:31Z</time>
      </trkpt>
      <trkpt lat="40.5195870" lon="-3.4809950">
        <ele>679.0</ele>
        <time>2020-09-29T18:09:32Z</time>
      </trkpt>
      <trkpt lat="40.5195380" lon="-3.4810050">
        <ele>679.0</ele>
        <time>2020-09-29T18:09:33Z</time>
      </trkpt>
      <trkpt lat="40.5194880" lon="-3.4810170">
        <ele>679.0</ele>
        <time>2020-09-29T18:09:34Z</time>
      </trkpt>
      <trkpt lat="40.5194400" lon="-3.4810250">
        <ele>679.0</ele>
        <time>2020-09-29T18:09:35Z</time>
      </trkpt>
      <trkpt lat="40.5194400" lon="-3.4810250">
        <ele>680.0</ele>
        <time>2020-09-29T18:09:36Z</time>
      </trkpt>
      <trkpt lat="40.5193450" lon="-3.4810400">
        <ele>680.0</ele>
        <time>2020-09-29T18:09:37Z</time>
      </trkpt>
      <trkpt lat="40.5192970" lon="-3.4810480">
        <ele>680.0</ele>
        <time>2020-09-29T18:09:38Z</time>
      </trkpt>
      <trkpt lat="40.5192970" lon="-3.4810480">
        <ele>680.0</ele>
        <time>2020-09-29T18:09:39Z</time>
      </trkpt>
      <trkpt lat="40.5192000" lon="-3.4810680">
        <ele>681.0</ele>
        <time>2020-09-29T18:09:40Z</time>
      </trkpt>
      <trkpt lat="40.5191530" lon="-3.4810780">
        <ele>681.0</ele>
        <time>2020-09-29T18:09:41Z</time>
      </trkpt>
      <trkpt lat="40.5191070" lon="-3.4810880">
        <ele>681.0</ele>
        <time>2020-09-29T18:09:42Z</time>
      </trkpt>
      <trkpt lat="40.5191070" lon="-3.4810880">
        <ele>681.0</ele>
        <time>2020-09-29T18:09:43Z</time>
      </trkpt>
      <trkpt lat="40.5190150" lon="-3.4811050">
        <ele>682.0</ele>
        <time>2020-09-29T18:09:44Z</time>
      </trkpt>
      <trkpt lat="40.5190150" lon="-3.4811050">
        <ele>682.0</ele>
        <time>2020-09-29T18:09:45Z</time>
      </trkpt>
      <trkpt lat="40.5189250" lon="-3.4811200">
        <ele>682.0</ele>
        <time>2020-09-29T18:09:46Z</time>
      </trkpt>
      <trkpt lat="40.5188800" lon="-3.4811250">
        <ele>682.0</ele>
        <time>2020-09-29T18:09:47Z</time>
      </trkpt>
      <trkpt lat="40.5188350" lon="-3.4811320">
        <ele>683.0</ele>
        <time>2020-09-29T18:09:48Z</time>
      </trkpt>
      <trkpt lat="40.5188350" lon="-3.4811320">
        <ele>683.0</ele>
        <time>2020-09-29T18:09:49Z</time>
      </trkpt>
      <trkpt lat="40.5187430" lon="-3.4811470">
        <ele>683.0</ele>
        <time>2020-09-29T18:09:50Z</time>
      </trkpt>
      <trkpt lat="40.5187430" lon="-3.4811470">
        <ele>683.0</ele>
        <time>2020-09-29T18:09:51Z</time>
      </trkpt>
      <trkpt lat="40.5187430" lon="-3.4811470">
        <ele>684.0</ele>
        <time>2020-09-29T18:09:52Z</time>
      </trkpt>
      <trkpt lat="40.5186500" lon="-3.4811580">
        <ele>684.0</ele>
        <time>2020-09-29T18:09:53Z</time>
      </trkpt>
      <trkpt lat="40.5185550" lon="-3.4811600">
        <ele>684.0</ele>
        <time>2020-09-29T18:09:54Z</time>
      </trkpt>
      <trkpt lat="40.5185550" lon="-3.4811600">
        <ele>684.0</ele>
        <time>2020-09-29T18:09:55Z</time>
      </trkpt>
      <trkpt lat="40.5184600" lon="-3.4811550">
        <ele>685.0</ele>
        <time>2020-09-29T18:09:56Z</time>
      </trkpt>
      <trkpt lat="40.5184100" lon="-3.4811550">
        <ele>685.0</ele>
        <time>2020-09-29T18:09:57Z</time>
      </trkpt>
      <trkpt lat="40.5184100" lon="-3.4811550">
        <ele>685.0</ele>
        <time>2020-09-29T18:09:58Z</time>
      </trkpt>
      <trkpt lat="40.5183080" lon="-3.4811530">
        <ele>685.0</ele>
        <time>2020-09-29T18:09:59Z</time>
      </trkpt>
      <trkpt lat="40.5182580" lon="-3.4811530">
        <ele>686.0</ele>
        <time>2020-09-29T18:10:00Z</time>
      </trkpt>
      <trkpt lat="40.5182580" lon="-3.4811530">
        <ele>686.0</ele>
        <time>2020-09-29T18:10:01Z</time>
      </trkpt>
      <trkpt lat="40.5181600" lon="-3.4811520">
        <ele>686.0</ele>
        <time>2020-09-29T18:10:02Z</time>
      </trkpt>
      <trkpt lat="40.5181600" lon="-3.4811520">
        <ele>686.0</ele>
        <time>2020-09-29T18:10:03Z</time>
      </trkpt>
      <trkpt lat="40.5180630" lon="-3.4811520">
        <ele>687.0</ele>
        <time>2020-09-29T18:10:04Z</time>
      </trkpt>
      <trkpt lat="40.5180630" lon="-3.4811520">
        <ele>687.0</ele>
        <time>2020-09-29T18:10:05Z</time>
      </trkpt>
      <trkpt lat="40.5179720" lon="-3.4811470">
        <ele>687.0</ele>
        <time>2020-09-29T18:10:06Z</time>
      </trkpt>
      <trkpt lat="40.5179250" lon="-3.4811420">
        <ele>688.0</ele>
        <time>2020-09-29T18:10:07Z</time>
      </trkpt>
      <trkpt lat="40.5179250" lon="-3.4811420">
        <ele>688.0</ele>
        <time>2020-09-29T18:10:08Z</time>
      </trkpt>
      <trkpt lat="40.5178320" lon="-3.4811400">
        <ele>688.0</ele>
        <time>2020-09-29T18:10:09Z</time>
      </trkpt>
      <trkpt lat="40.5178320" lon="-3.4811400">
        <ele>688.0</ele>
        <time>2020-09-29T18:10:10Z</time>
      </trkpt>
      <trkpt lat="40.5177330" lon="-3.4811420">
        <ele>688.0</ele>
        <time>2020-09-29T18:10:11Z</time>
      </trkpt>
      <trkpt lat="40.5176850" lon="-3.4811420">
        <ele>688.0</ele>
        <time>2020-09-29T18:10:12Z</time>
      </trkpt>
      <trkpt lat="40.5176850" lon="-3.4811420">
        <ele>689.0</ele>
        <time>2020-09-29T18:10:13Z</time>
      </trkpt>
      <trkpt lat="40.5175820" lon="-3.4811370">
        <ele>689.0</ele>
        <time>2020-09-29T18:10:14Z</time>
      </trkpt>
      <trkpt lat="40.5175300" lon="-3.4811350">
        <ele>689.0</ele>
        <time>2020-09-29T18:10:15Z</time>
      </trkpt>
      <trkpt lat="40.5174770" lon="-3.4811330">
        <ele>689.0</ele>
        <time>2020-09-29T18:10:16Z</time>
      </trkpt>
      <trkpt lat="40.5174770" lon="-3.4811330">
        <ele>689.0</ele>
        <time>2020-09-29T18:10:17Z</time>
      </trkpt>
      <trkpt lat="40.5173700" lon="-3.4811280">
        <ele>689.0</ele>
        <time>2020-09-29T18:10:18Z</time>
      </trkpt>
      <trkpt lat="40.5173700" lon="-3.4811280">
        <ele>689.0</ele>
        <time>2020-09-29T18:10:19Z</time>
      </trkpt>
      <trkpt lat="40.5172630" lon="-3.4811250">
        <ele>689.0</ele>
        <time>2020-09-29T18:10:20Z</time>
      </trkpt>
      <trkpt lat="40.5172080" lon="-3.4811220">
        <ele>689.0</ele>
        <time>2020-09-29T18:10:21Z</time>
      </trkpt>
      <trkpt lat="40.5172080" lon="-3.4811220">
        <ele>689.0</ele>
        <time>2020-09-29T18:10:22Z</time>
      </trkpt>
      <trkpt lat="40.5170980" lon="-3.4811130">
        <ele>690.0</ele>
        <time>2020-09-29T18:10:23Z</time>
      </trkpt>
      <trkpt lat="40.5170430" lon="-3.4811100">
        <ele>690.0</ele>
        <time>2020-09-29T18:10:24Z</time>
      </trkpt>
      <trkpt lat="40.5170430" lon="-3.4811100">
        <ele>690.0</ele>
        <time>2020-09-29T18:10:25Z</time>
      </trkpt>
      <trkpt lat="40.5169270" lon="-3.4811030">
        <ele>690.0</ele>
        <time>2020-09-29T18:10:26Z</time>
      </trkpt>
      <trkpt lat="40.5168680" lon="-3.4811020">
        <ele>690.0</ele>
        <time>2020-09-29T18:10:27Z</time>
      </trkpt>
      <trkpt lat="40.5168680" lon="-3.4811020">
        <ele>690.0</ele>
        <time>2020-09-29T18:10:28Z</time>
      </trkpt>
      <trkpt lat="40.5167470" lon="-3.4810920">
        <ele>690.0</ele>
        <time>2020-09-29T18:10:29Z</time>
      </trkpt>
      <trkpt lat="40.5167470" lon="-3.4810920">
        <ele>690.0</ele>
        <time>2020-09-29T18:10:30Z</time>
      </trkpt>
      <trkpt lat="40.5166200" lon="-3.4810830">
        <ele>690.0</ele>
        <time>2020-09-29T18:10:31Z</time>
      </trkpt>
      <trkpt lat="40.5166200" lon="-3.4810830">
        <ele>690.0</ele>
        <time>2020-09-29T18:10:32Z</time>
      </trkpt>
      <trkpt lat="40.5164920" lon="-3.4810700">
        <ele>690.0</ele>
        <time>2020-09-29T18:10:33Z</time>
      </trkpt>
      <trkpt lat="40.5164250" lon="-3.4810630">
        <ele>689.0</ele>
        <time>2020-09-29T18:10:34Z</time>
      </trkpt>
      <trkpt lat="40.5164250" lon="-3.4810630">
        <ele>689.0</ele>
        <time>2020-09-29T18:10:35Z</time>
      </trkpt>
      <trkpt lat="40.5162900" lon="-3.4810430">
        <ele>689.0</ele>
        <time>2020-09-29T18:10:36Z</time>
      </trkpt>
      <trkpt lat="40.5162900" lon="-3.4810430">
        <ele>689.0</ele>
        <time>2020-09-29T18:10:37Z</time>
      </trkpt>
      <trkpt lat="40.5161380" lon="-3.4810320">
        <ele>688.0</ele>
        <time>2020-09-29T18:10:38Z</time>
      </trkpt>
      <trkpt lat="40.5160580" lon="-3.4810250">
        <ele>688.0</ele>
        <time>2020-09-29T18:10:39Z</time>
      </trkpt>
      <trkpt lat="40.5160580" lon="-3.4810250">
        <ele>688.0</ele>
        <time>2020-09-29T18:10:40Z</time>
      </trkpt>
      <trkpt lat="40.5160580" lon="-3.4810250">
        <ele>688.0</ele>
        <time>2020-09-29T18:10:41Z</time>
      </trkpt>
      <trkpt lat="40.5158200" lon="-3.4809970">
        <ele>687.0</ele>
        <time>2020-09-29T18:10:42Z</time>
      </trkpt>
      <trkpt lat="40.5158200" lon="-3.4809970">
        <ele>687.0</ele>
        <time>2020-09-29T18:10:43Z</time>
      </trkpt>
      <trkpt lat="40.5156500" lon="-3.4809820">
        <ele>687.0</ele>
        <time>2020-09-29T18:10:44Z</time>
      </trkpt>
      <trkpt lat="40.5156500" lon="-3.4809820">
        <ele>686.0</ele>
        <time>2020-09-29T18:10:45Z</time>
      </trkpt>
      <trkpt lat="40.5154720" lon="-3.4809700">
        <ele>686.0</ele>
        <time>2020-09-29T18:10:46Z</time>
      </trkpt>
      <trkpt lat="40.5154720" lon="-3.4809700">
        <ele>686.0</ele>
        <time>2020-09-29T18:10:47Z</time>
      </trkpt>
      <trkpt lat="40.5152980" lon="-3.4809480">
        <ele>685.0</ele>
        <time>2020-09-29T18:10:48Z</time>
      </trkpt>
      <trkpt lat="40.5152980" lon="-3.4809480">
        <ele>685.0</ele>
        <time>2020-09-29T18:10:49Z</time>
      </trkpt>
      <trkpt lat="40.5151180" lon="-3.4809320">
        <ele>684.0</ele>
        <time>2020-09-29T18:10:50Z</time>
      </trkpt>
      <trkpt lat="40.5151180" lon="-3.4809320">
        <ele>684.0</ele>
        <time>2020-09-29T18:10:51Z</time>
      </trkpt>
      <trkpt lat="40.5149450" lon="-3.4809130">
        <ele>684.0</ele>
        <time>2020-09-29T18:10:52Z</time>
      </trkpt>
      <trkpt lat="40.5149450" lon="-3.4809130">
        <ele>683.0</ele>
        <time>2020-09-29T18:10:53Z</time>
      </trkpt>
      <trkpt lat="40.5147770" lon="-3.4808950">
        <ele>683.0</ele>
        <time>2020-09-29T18:10:54Z</time>
      </trkpt>
      <trkpt lat="40.5147770" lon="-3.4808950">
        <ele>683.0</ele>
        <time>2020-09-29T18:10:55Z</time>
      </trkpt>
      <trkpt lat="40.5146170" lon="-3.4808780">
        <ele>683.0</ele>
        <time>2020-09-29T18:10:56Z</time>
      </trkpt>
      <trkpt lat="40.5146170" lon="-3.4808780">
        <ele>683.0</ele>
        <time>2020-09-29T18:10:57Z</time>
      </trkpt>
      <trkpt lat="40.5146170" lon="-3.4808780">
        <ele>683.0</ele>
        <time>2020-09-29T18:10:58Z</time>
      </trkpt>
      <trkpt lat="40.5144600" lon="-3.4808670">
        <ele>683.0</ele>
        <time>2020-09-29T18:10:59Z</time>
      </trkpt>
      <trkpt lat="40.5143250" lon="-3.4808530">
        <ele>683.0</ele>
        <time>2020-09-29T18:11:00Z</time>
      </trkpt>
      <trkpt lat="40.5143250" lon="-3.4808530">
        <ele>683.0</ele>
        <time>2020-09-29T18:11:01Z</time>
      </trkpt>
      <trkpt lat="40.5141870" lon="-3.4808400">
        <ele>683.0</ele>
        <time>2020-09-29T18:11:02Z</time>
      </trkpt>
      <trkpt lat="40.5141870" lon="-3.4808400">
        <ele>683.0</ele>
        <time>2020-09-29T18:11:03Z</time>
      </trkpt>
      <trkpt lat="40.5140480" lon="-3.4808300">
        <ele>683.0</ele>
        <time>2020-09-29T18:11:04Z</time>
      </trkpt>
      <trkpt lat="40.5140480" lon="-3.4808300">
        <ele>683.0</ele>
        <time>2020-09-29T18:11:05Z</time>
      </trkpt>
      <trkpt lat="40.5139100" lon="-3.4808230">
        <ele>683.0</ele>
        <time>2020-09-29T18:11:06Z</time>
      </trkpt>
      <trkpt lat="40.5139100" lon="-3.4808230">
        <ele>683.0</ele>
        <time>2020-09-29T18:11:07Z</time>
      </trkpt>
      <trkpt lat="40.5137670" lon="-3.4808080">
        <ele>683.0</ele>
        <time>2020-09-29T18:11:08Z</time>
      </trkpt>
      <trkpt lat="40.5137670" lon="-3.4808080">
        <ele>683.0</ele>
        <time>2020-09-29T18:11:09Z</time>
      </trkpt>
      <trkpt lat="40.5136280" lon="-3.4807980">
        <ele>683.0</ele>
        <time>2020-09-29T18:11:10Z</time>
      </trkpt>
      <trkpt lat="40.5135580" lon="-3.4807930">
        <ele>683.0</ele>
        <time>2020-09-29T18:11:11Z</time>
      </trkpt>
      <trkpt lat="40.5135580" lon="-3.4807930">
        <ele>683.0</ele>
        <time>2020-09-29T18:11:12Z</time>
      </trkpt>
      <trkpt lat="40.5134150" lon="-3.4807750">
        <ele>683.0</ele>
        <time>2020-09-29T18:11:13Z</time>
      </trkpt>
      <trkpt lat="40.5134150" lon="-3.4807750">
        <ele>683.0</ele>
        <time>2020-09-29T18:11:14Z</time>
      </trkpt>
      <trkpt lat="40.5132750" lon="-3.4807620">
        <ele>683.0</ele>
        <time>2020-09-29T18:11:15Z</time>
      </trkpt>
      <trkpt lat="40.5132750" lon="-3.4807620">
        <ele>683.0</ele>
        <time>2020-09-29T18:11:16Z</time>
      </trkpt>
      <trkpt lat="40.5131350" lon="-3.4807470">
        <ele>683.0</ele>
        <time>2020-09-29T18:11:17Z</time>
      </trkpt>
      <trkpt lat="40.5131350" lon="-3.4807470">
        <ele>683.0</ele>
        <time>2020-09-29T18:11:18Z</time>
      </trkpt>
      <trkpt lat="40.5129930" lon="-3.4807320">
        <ele>683.0</ele>
        <time>2020-09-29T18:11:19Z</time>
      </trkpt>
      <trkpt lat="40.5129220" lon="-3.4807220">
        <ele>683.0</ele>
        <time>2020-09-29T18:11:20Z</time>
      </trkpt>
      <trkpt lat="40.5129220" lon="-3.4807220">
        <ele>683.0</ele>
        <time>2020-09-29T18:11:21Z</time>
      </trkpt>
      <trkpt lat="40.5127800" lon="-3.4807100">
        <ele>683.0</ele>
        <time>2020-09-29T18:11:22Z</time>
      </trkpt>
      <trkpt lat="40.5127800" lon="-3.4807100">
        <ele>683.0</ele>
        <time>2020-09-29T18:11:23Z</time>
      </trkpt>
      <trkpt lat="40.5126330" lon="-3.4806950">
        <ele>683.0</ele>
        <time>2020-09-29T18:11:24Z</time>
      </trkpt>
      <trkpt lat="40.5126330" lon="-3.4806950">
        <ele>683.0</ele>
        <time>2020-09-29T18:11:25Z</time>
      </trkpt>
      <trkpt lat="40.5124850" lon="-3.4806800">
        <ele>683.0</ele>
        <time>2020-09-29T18:11:26Z</time>
      </trkpt>
      <trkpt lat="40.5124850" lon="-3.4806800">
        <ele>683.0</ele>
        <time>2020-09-29T18:11:27Z</time>
      </trkpt>
      <trkpt lat="40.5124850" lon="-3.4806800">
        <ele>683.0</ele>
        <time>2020-09-29T18:11:28Z</time>
      </trkpt>
      <trkpt lat="40.5123370" lon="-3.4806680">
        <ele>683.0</ele>
        <time>2020-09-29T18:11:29Z</time>
      </trkpt>
      <trkpt lat="40.5121900" lon="-3.4806470">
        <ele>683.0</ele>
        <time>2020-09-29T18:11:30Z</time>
      </trkpt>
      <trkpt lat="40.5121900" lon="-3.4806470">
        <ele>683.0</ele>
        <time>2020-09-29T18:11:31Z</time>
      </trkpt>
      <trkpt lat="40.5120350" lon="-3.4806300">
        <ele>682.0</ele>
        <time>2020-09-29T18:11:32Z</time>
      </trkpt>
      <trkpt lat="40.5120350" lon="-3.4806300">
        <ele>682.0</ele>
        <time>2020-09-29T18:11:33Z</time>
      </trkpt>
      <trkpt lat="40.5118800" lon="-3.4806130">
        <ele>682.0</ele>
        <time>2020-09-29T18:11:34Z</time>
      </trkpt>
      <trkpt lat="40.5118800" lon="-3.4806130">
        <ele>682.0</ele>
        <time>2020-09-29T18:11:35Z</time>
      </trkpt>
      <trkpt lat="40.5117220" lon="-3.4806070">
        <ele>682.0</ele>
        <time>2020-09-29T18:11:36Z</time>
      </trkpt>
      <trkpt lat="40.5117220" lon="-3.4806070">
        <ele>682.0</ele>
        <time>2020-09-29T18:11:37Z</time>
      </trkpt>
      <trkpt lat="40.5115630" lon="-3.4805900">
        <ele>681.0</ele>
        <time>2020-09-29T18:11:38Z</time>
      </trkpt>
      <trkpt lat="40.5114850" lon="-3.4805800">
        <ele>681.0</ele>
        <time>2020-09-29T18:11:39Z</time>
      </trkpt>
      <trkpt lat="40.5114850" lon="-3.4805800">
        <ele>681.0</ele>
        <time>2020-09-29T18:11:40Z</time>
      </trkpt>
      <trkpt lat="40.5113280" lon="-3.4805650">
        <ele>681.0</ele>
        <time>2020-09-29T18:11:41Z</time>
      </trkpt>
      <trkpt lat="40.5112500" lon="-3.4805580">
        <ele>681.0</ele>
        <time>2020-09-29T18:11:42Z</time>
      </trkpt>
      <trkpt lat="40.5112500" lon="-3.4805580">
        <ele>681.0</ele>
        <time>2020-09-29T18:11:43Z</time>
      </trkpt>
      <trkpt lat="40.5110920" lon="-3.4805430">
        <ele>681.0</ele>
        <time>2020-09-29T18:11:44Z</time>
      </trkpt>
      <trkpt lat="40.5110130" lon="-3.4805350">
        <ele>681.0</ele>
        <time>2020-09-29T18:11:45Z</time>
      </trkpt>
      <trkpt lat="40.5110130" lon="-3.4805350">
        <ele>681.0</ele>
        <time>2020-09-29T18:11:46Z</time>
      </trkpt>
      <trkpt lat="40.5108480" lon="-3.4805230">
        <ele>681.0</ele>
        <time>2020-09-29T18:11:47Z</time>
      </trkpt>
      <trkpt lat="40.5107630" lon="-3.4805130">
        <ele>681.0</ele>
        <time>2020-09-29T18:11:48Z</time>
      </trkpt>
      <trkpt lat="40.5107630" lon="-3.4805130">
        <ele>681.0</ele>
        <time>2020-09-29T18:11:49Z</time>
      </trkpt>
      <trkpt lat="40.5105900" lon="-3.4804930">
        <ele>681.0</ele>
        <time>2020-09-29T18:11:50Z</time>
      </trkpt>
      <trkpt lat="40.5105070" lon="-3.4804830">
        <ele>681.0</ele>
        <time>2020-09-29T18:11:51Z</time>
      </trkpt>
      <trkpt lat="40.5104230" lon="-3.4804750">
        <ele>681.0</ele>
        <time>2020-09-29T18:11:52Z</time>
      </trkpt>
      <trkpt lat="40.5104230" lon="-3.4804750">
        <ele>681.0</ele>
        <time>2020-09-29T18:11:53Z</time>
      </trkpt>
      <trkpt lat="40.5102570" lon="-3.4804650">
        <ele>681.0</ele>
        <time>2020-09-29T18:11:54Z</time>
      </trkpt>
      <trkpt lat="40.5102570" lon="-3.4804650">
        <ele>681.0</ele>
        <time>2020-09-29T18:11:55Z</time>
      </trkpt>
      <trkpt lat="40.5100830" lon="-3.4804480">
        <ele>681.0</ele>
        <time>2020-09-29T18:11:56Z</time>
      </trkpt>
      <trkpt lat="40.5100830" lon="-3.4804480">
        <ele>680.0</ele>
        <time>2020-09-29T18:11:57Z</time>
      </trkpt>
      <trkpt lat="40.5099070" lon="-3.4804380">
        <ele>680.0</ele>
        <time>2020-09-29T18:11:58Z</time>
      </trkpt>
      <trkpt lat="40.5099070" lon="-3.4804380">
        <ele>680.0</ele>
        <time>2020-09-29T18:11:59Z</time>
      </trkpt>
      <trkpt lat="40.5097280" lon="-3.4804200">
        <ele>679.0</ele>
        <time>2020-09-29T18:12:00Z</time>
      </trkpt>
      <trkpt lat="40.5097280" lon="-3.4804200">
        <ele>679.0</ele>
        <time>2020-09-29T18:12:01Z</time>
      </trkpt>
      <trkpt lat="40.5095450" lon="-3.4804000">
        <ele>678.0</ele>
        <time>2020-09-29T18:12:02Z</time>
      </trkpt>
      <trkpt lat="40.5095450" lon="-3.4804000">
        <ele>678.0</ele>
        <time>2020-09-29T18:12:03Z</time>
      </trkpt>
      <trkpt lat="40.5093600" lon="-3.4803870">
        <ele>678.0</ele>
        <time>2020-09-29T18:12:04Z</time>
      </trkpt>
      <trkpt lat="40.5093600" lon="-3.4803870">
        <ele>677.0</ele>
        <time>2020-09-29T18:12:05Z</time>
      </trkpt>
      <trkpt lat="40.5091730" lon="-3.4803720">
        <ele>677.0</ele>
        <time>2020-09-29T18:12:06Z</time>
      </trkpt>
      <trkpt lat="40.5091730" lon="-3.4803720">
        <ele>677.0</ele>
        <time>2020-09-29T18:12:07Z</time>
      </trkpt>
      <trkpt lat="40.5089850" lon="-3.4803480">
        <ele>677.0</ele>
        <time>2020-09-29T18:12:08Z</time>
      </trkpt>
      <trkpt lat="40.5088920" lon="-3.4803350">
        <ele>677.0</ele>
        <time>2020-09-29T18:12:09Z</time>
      </trkpt>
      <trkpt lat="40.5088920" lon="-3.4803350">
        <ele>676.0</ele>
        <time>2020-09-29T18:12:10Z</time>
      </trkpt>
      <trkpt lat="40.5087050" lon="-3.4803200">
        <ele>676.0</ele>
        <time>2020-09-29T18:12:11Z</time>
      </trkpt>
      <trkpt lat="40.5087050" lon="-3.4803200">
        <ele>675.0</ele>
        <time>2020-09-29T18:12:12Z</time>
      </trkpt>
      <trkpt lat="40.5085180" lon="-3.4803030">
        <ele>675.0</ele>
        <time>2020-09-29T18:12:13Z</time>
      </trkpt>
      <trkpt lat="40.5085180" lon="-3.4803030">
        <ele>675.0</ele>
        <time>2020-09-29T18:12:14Z</time>
      </trkpt>
      <trkpt lat="40.5083330" lon="-3.4802920">
        <ele>675.0</ele>
        <time>2020-09-29T18:12:15Z</time>
      </trkpt>
      <trkpt lat="40.5082420" lon="-3.4802830">
        <ele>674.0</ele>
        <time>2020-09-29T18:12:16Z</time>
      </trkpt>
      <trkpt lat="40.5082420" lon="-3.4802830">
        <ele>674.0</ele>
        <time>2020-09-29T18:12:17Z</time>
      </trkpt>
      <trkpt lat="40.5080580" lon="-3.4802770">
        <ele>673.0</ele>
        <time>2020-09-29T18:12:18Z</time>
      </trkpt>
      <trkpt lat="40.5080580" lon="-3.4802770">
        <ele>673.0</ele>
        <time>2020-09-29T18:12:19Z</time>
      </trkpt>
      <trkpt lat="40.5078680" lon="-3.4802550">
        <ele>673.0</ele>
        <time>2020-09-29T18:12:20Z</time>
      </trkpt>
      <trkpt lat="40.5077720" lon="-3.4802430">
        <ele>673.0</ele>
        <time>2020-09-29T18:12:21Z</time>
      </trkpt>
      <trkpt lat="40.5077720" lon="-3.4802430">
        <ele>673.0</ele>
        <time>2020-09-29T18:12:22Z</time>
      </trkpt>
      <trkpt lat="40.5075880" lon="-3.4802350">
        <ele>673.0</ele>
        <time>2020-09-29T18:12:23Z</time>
      </trkpt>
      <trkpt lat="40.5074970" lon="-3.4802280">
        <ele>673.0</ele>
        <time>2020-09-29T18:12:24Z</time>
      </trkpt>
      <trkpt lat="40.5074970" lon="-3.4802280">
        <ele>673.0</ele>
        <time>2020-09-29T18:12:25Z</time>
      </trkpt>
      <trkpt lat="40.5073020" lon="-3.4802030">
        <ele>671.0</ele>
        <time>2020-09-29T18:12:26Z</time>
      </trkpt>
      <trkpt lat="40.5073020" lon="-3.4802030">
        <ele>671.0</ele>
        <time>2020-09-29T18:12:27Z</time>
      </trkpt>
      <trkpt lat="40.5071080" lon="-3.4801880">
        <ele>671.0</ele>
        <time>2020-09-29T18:12:28Z</time>
      </trkpt>
      <trkpt lat="40.5071080" lon="-3.4801880">
        <ele>671.0</ele>
        <time>2020-09-29T18:12:29Z</time>
      </trkpt>
      <trkpt lat="40.5069150" lon="-3.4801700">
        <ele>671.0</ele>
        <time>2020-09-29T18:12:30Z</time>
      </trkpt>
      <trkpt lat="40.5069150" lon="-3.4801700">
        <ele>671.0</ele>
        <time>2020-09-29T18:12:31Z</time>
      </trkpt>
      <trkpt lat="40.5067150" lon="-3.4801550">
        <ele>669.0</ele>
        <time>2020-09-29T18:12:32Z</time>
      </trkpt>
      <trkpt lat="40.5066170" lon="-3.4801470">
        <ele>669.0</ele>
        <time>2020-09-29T18:12:33Z</time>
      </trkpt>
      <trkpt lat="40.5065170" lon="-3.4801380">
        <ele>668.0</ele>
        <time>2020-09-29T18:12:34Z</time>
      </trkpt>
      <trkpt lat="40.5064170" lon="-3.4801320">
        <ele>668.0</ele>
        <time>2020-09-29T18:12:35Z</time>
      </trkpt>
      <trkpt lat="40.5064170" lon="-3.4801320">
        <ele>668.0</ele>
        <time>2020-09-29T18:12:36Z</time>
      </trkpt>
      <trkpt lat="40.5062170" lon="-3.4801150">
        <ele>668.0</ele>
        <time>2020-09-29T18:12:37Z</time>
      </trkpt>
      <trkpt lat="40.5062170" lon="-3.4801150">
        <ele>668.0</ele>
        <time>2020-09-29T18:12:38Z</time>
      </trkpt>
      <trkpt lat="40.5060170" lon="-3.4800850">
        <ele>666.0</ele>
        <time>2020-09-29T18:12:39Z</time>
      </trkpt>
      <trkpt lat="40.5060170" lon="-3.4800850">
        <ele>666.0</ele>
        <time>2020-09-29T18:12:40Z</time>
      </trkpt>
      <trkpt lat="40.5058200" lon="-3.4800620">
        <ele>665.0</ele>
        <time>2020-09-29T18:12:41Z</time>
      </trkpt>
      <trkpt lat="40.5057220" lon="-3.4800530">
        <ele>665.0</ele>
        <time>2020-09-29T18:12:42Z</time>
      </trkpt>
      <trkpt lat="40.5057220" lon="-3.4800530">
        <ele>665.0</ele>
        <time>2020-09-29T18:12:43Z</time>
      </trkpt>
      <trkpt lat="40.5055180" lon="-3.4800380">
        <ele>665.0</ele>
        <time>2020-09-29T18:12:44Z</time>
      </trkpt>
      <trkpt lat="40.5055180" lon="-3.4800380">
        <ele>664.0</ele>
        <time>2020-09-29T18:12:45Z</time>
      </trkpt>
      <trkpt lat="40.5053170" lon="-3.4800220">
        <ele>664.0</ele>
        <time>2020-09-29T18:12:46Z</time>
      </trkpt>
      <trkpt lat="40.5053170" lon="-3.4800220">
        <ele>663.0</ele>
        <time>2020-09-29T18:12:47Z</time>
      </trkpt>
      <trkpt lat="40.5051170" lon="-3.4799980">
        <ele>663.0</ele>
        <time>2020-09-29T18:12:48Z</time>
      </trkpt>
      <trkpt lat="40.5051170" lon="-3.4799980">
        <ele>663.0</ele>
        <time>2020-09-29T18:12:49Z</time>
      </trkpt>
      <trkpt lat="40.5049170" lon="-3.4799770">
        <ele>663.0</ele>
        <time>2020-09-29T18:12:50Z</time>
      </trkpt>
      <trkpt lat="40.5049170" lon="-3.4799770">
        <ele>662.0</ele>
        <time>2020-09-29T18:12:51Z</time>
      </trkpt>
      <trkpt lat="40.5047150" lon="-3.4799520">
        <ele>662.0</ele>
        <time>2020-09-29T18:12:52Z</time>
      </trkpt>
      <trkpt lat="40.5047150" lon="-3.4799520">
        <ele>661.0</ele>
        <time>2020-09-29T18:12:53Z</time>
      </trkpt>
      <trkpt lat="40.5045130" lon="-3.4799250">
        <ele>661.0</ele>
        <time>2020-09-29T18:12:54Z</time>
      </trkpt>
      <trkpt lat="40.5045130" lon="-3.4799250">
        <ele>660.0</ele>
        <time>2020-09-29T18:12:55Z</time>
      </trkpt>
      <trkpt lat="40.5043120" lon="-3.4798980">
        <ele>660.0</ele>
        <time>2020-09-29T18:12:56Z</time>
      </trkpt>
      <trkpt lat="40.5042170" lon="-3.4798850">
        <ele>660.0</ele>
        <time>2020-09-29T18:12:57Z</time>
      </trkpt>
      <trkpt lat="40.5042170" lon="-3.4798850">
        <ele>660.0</ele>
        <time>2020-09-29T18:12:58Z</time>
      </trkpt>
      <trkpt lat="40.5040220" lon="-3.4798650">
        <ele>659.0</ele>
        <time>2020-09-29T18:12:59Z</time>
      </trkpt>
      <trkpt lat="40.5040220" lon="-3.4798650">
        <ele>659.0</ele>
        <time>2020-09-29T18:13:00Z</time>
      </trkpt>
      <trkpt lat="40.5038230" lon="-3.4798570">
        <ele>658.0</ele>
        <time>2020-09-29T18:13:01Z</time>
      </trkpt>
      <trkpt lat="40.5037250" lon="-3.4798650">
        <ele>658.0</ele>
        <time>2020-09-29T18:13:02Z</time>
      </trkpt>
      <trkpt lat="40.5037250" lon="-3.4798650">
        <ele>658.0</ele>
        <time>2020-09-29T18:13:03Z</time>
      </trkpt>
      <trkpt lat="40.5037250" lon="-3.4798650">
        <ele>658.0</ele>
        <time>2020-09-29T18:13:04Z</time>
      </trkpt>
      <trkpt lat="40.5035330" lon="-3.4799050">
        <ele>657.0</ele>
        <time>2020-09-29T18:13:05Z</time>
      </trkpt>
      <trkpt lat="40.5033450" lon="-3.4798970">
        <ele>657.0</ele>
        <time>2020-09-29T18:13:06Z</time>
      </trkpt>
      <trkpt lat="40.5032580" lon="-3.4798470">
        <ele>656.0</ele>
        <time>2020-09-29T18:13:07Z</time>
      </trkpt>
      <trkpt lat="40.5032580" lon="-3.4798470">
        <ele>656.0</ele>
        <time>2020-09-29T18:13:08Z</time>
      </trkpt>
      <trkpt lat="40.5030970" lon="-3.4797230">
        <ele>656.0</ele>
        <time>2020-09-29T18:13:09Z</time>
      </trkpt>
      <trkpt lat="40.5030970" lon="-3.4797230">
        <ele>656.0</ele>
        <time>2020-09-29T18:13:10Z</time>
      </trkpt>
      <trkpt lat="40.5029130" lon="-3.4796800">
        <ele>655.0</ele>
        <time>2020-09-29T18:13:11Z</time>
      </trkpt>
      <trkpt lat="40.5028200" lon="-3.4796680">
        <ele>655.0</ele>
        <time>2020-09-29T18:13:12Z</time>
      </trkpt>
      <trkpt lat="40.5028200" lon="-3.4796680">
        <ele>655.0</ele>
        <time>2020-09-29T18:13:13Z</time>
      </trkpt>
      <trkpt lat="40.5026330" lon="-3.4796520">
        <ele>655.0</ele>
        <time>2020-09-29T18:13:14Z</time>
      </trkpt>
      <trkpt lat="40.5025400" lon="-3.4796450">
        <ele>655.0</ele>
        <time>2020-09-29T18:13:15Z</time>
      </trkpt>
      <trkpt lat="40.5025400" lon="-3.4796450">
        <ele>655.0</ele>
        <time>2020-09-29T18:13:16Z</time>
      </trkpt>
      <trkpt lat="40.5023520" lon="-3.4796300">
        <ele>654.0</ele>
        <time>2020-09-29T18:13:17Z</time>
      </trkpt>
      <trkpt lat="40.5023520" lon="-3.4796300">
        <ele>654.0</ele>
        <time>2020-09-29T18:13:18Z</time>
      </trkpt>
      <trkpt lat="40.5022580" lon="-3.4796230">
        <ele>654.0</ele>
        <time>2020-09-29T18:13:19Z</time>
      </trkpt>
      <trkpt lat="40.5020700" lon="-3.4796100">
        <ele>654.0</ele>
        <time>2020-09-29T18:13:20Z</time>
      </trkpt>
      <trkpt lat="40.5020700" lon="-3.4796100">
        <ele>654.0</ele>
        <time>2020-09-29T18:13:21Z</time>
      </trkpt>
      <trkpt lat="40.5018800" lon="-3.4795900">
        <ele>654.0</ele>
        <time>2020-09-29T18:13:22Z</time>
      </trkpt>
      <trkpt lat="40.5018800" lon="-3.4795900">
        <ele>654.0</ele>
        <time>2020-09-29T18:13:23Z</time>
      </trkpt>
      <trkpt lat="40.5016920" lon="-3.4795750">
        <ele>654.0</ele>
        <time>2020-09-29T18:13:24Z</time>
      </trkpt>
      <trkpt lat="40.5016920" lon="-3.4795750">
        <ele>654.0</ele>
        <time>2020-09-29T18:13:25Z</time>
      </trkpt>
      <trkpt lat="40.5015030" lon="-3.4795550">
        <ele>653.0</ele>
        <time>2020-09-29T18:13:26Z</time>
      </trkpt>
      <trkpt lat="40.5015030" lon="-3.4795550">
        <ele>653.0</ele>
        <time>2020-09-29T18:13:27Z</time>
      </trkpt>
      <trkpt lat="40.5013150" lon="-3.4795370">
        <ele>653.0</ele>
        <time>2020-09-29T18:13:28Z</time>
      </trkpt>
      <trkpt lat="40.5012230" lon="-3.4795270">
        <ele>653.0</ele>
        <time>2020-09-29T18:13:29Z</time>
      </trkpt>
      <trkpt lat="40.5011280" lon="-3.4795170">
        <ele>653.0</ele>
        <time>2020-09-29T18:13:30Z</time>
      </trkpt>
      <trkpt lat="40.5011280" lon="-3.4795170">
        <ele>653.0</ele>
        <time>2020-09-29T18:13:31Z</time>
      </trkpt>
      <trkpt lat="40.5009420" lon="-3.4795000">
        <ele>653.0</ele>
        <time>2020-09-29T18:13:32Z</time>
      </trkpt>
      <trkpt lat="40.5008470" lon="-3.4794900">
        <ele>653.0</ele>
        <time>2020-09-29T18:13:33Z</time>
      </trkpt>
      <trkpt lat="40.5008470" lon="-3.4794900">
        <ele>652.0</ele>
        <time>2020-09-29T18:13:34Z</time>
      </trkpt>
      <trkpt lat="40.5006570" lon="-3.4794730">
        <ele>652.0</ele>
        <time>2020-09-29T18:13:35Z</time>
      </trkpt>
      <trkpt lat="40.5005620" lon="-3.4794650">
        <ele>652.0</ele>
        <time>2020-09-29T18:13:36Z</time>
      </trkpt>
      <trkpt lat="40.5005620" lon="-3.4794650">
        <ele>652.0</ele>
        <time>2020-09-29T18:13:37Z</time>
      </trkpt>
      <trkpt lat="40.5003670" lon="-3.4794480">
        <ele>651.0</ele>
        <time>2020-09-29T18:13:38Z</time>
      </trkpt>
      <trkpt lat="40.5003670" lon="-3.4794480">
        <ele>651.0</ele>
        <time>2020-09-29T18:13:39Z</time>
      </trkpt>
      <trkpt lat="40.5002670" lon="-3.4794420">
        <ele>651.0</ele>
        <time>2020-09-29T18:13:40Z</time>
      </trkpt>
      <trkpt lat="40.5000630" lon="-3.4794250">
        <ele>651.0</ele>
        <time>2020-09-29T18:13:41Z</time>
      </trkpt>
      <trkpt lat="40.4999620" lon="-3.4794170">
        <ele>650.0</ele>
        <time>2020-09-29T18:13:42Z</time>
      </trkpt>
      <trkpt lat="40.4999620" lon="-3.4794170">
        <ele>650.0</ele>
        <time>2020-09-29T18:13:43Z</time>
      </trkpt>
      <trkpt lat="40.4997530" lon="-3.4794000">
        <ele>650.0</ele>
        <time>2020-09-29T18:13:44Z</time>
      </trkpt>
      <trkpt lat="40.4997530" lon="-3.4794000">
        <ele>650.0</ele>
        <time>2020-09-29T18:13:45Z</time>
      </trkpt>
      <trkpt lat="40.4995420" lon="-3.4793800">
        <ele>648.0</ele>
        <time>2020-09-29T18:13:46Z</time>
      </trkpt>
      <trkpt lat="40.4995420" lon="-3.4793800">
        <ele>648.0</ele>
        <time>2020-09-29T18:13:47Z</time>
      </trkpt>
      <trkpt lat="40.4993220" lon="-3.4793600">
        <ele>648.0</ele>
        <time>2020-09-29T18:13:48Z</time>
      </trkpt>
      <trkpt lat="40.4993220" lon="-3.4793600">
        <ele>648.0</ele>
        <time>2020-09-29T18:13:49Z</time>
      </trkpt>
      <trkpt lat="40.4990980" lon="-3.4793400">
        <ele>647.0</ele>
        <time>2020-09-29T18:13:50Z</time>
      </trkpt>
      <trkpt lat="40.4989830" lon="-3.4793280">
        <ele>645.0</ele>
        <time>2020-09-29T18:13:51Z</time>
      </trkpt>
      <trkpt lat="40.4989830" lon="-3.4793280">
        <ele>645.0</ele>
        <time>2020-09-29T18:13:52Z</time>
      </trkpt>
      <trkpt lat="40.4987500" lon="-3.4793020">
        <ele>644.0</ele>
        <time>2020-09-29T18:13:53Z</time>
      </trkpt>
      <trkpt lat="40.4986330" lon="-3.4792880">
        <ele>644.0</ele>
        <time>2020-09-29T18:13:54Z</time>
      </trkpt>
      <trkpt lat="40.4986330" lon="-3.4792880">
        <ele>643.0</ele>
        <time>2020-09-29T18:13:55Z</time>
      </trkpt>
      <trkpt lat="40.4983980" lon="-3.4792650">
        <ele>643.0</ele>
        <time>2020-09-29T18:13:56Z</time>
      </trkpt>
      <trkpt lat="40.4982820" lon="-3.4792570">
        <ele>642.0</ele>
        <time>2020-09-29T18:13:57Z</time>
      </trkpt>
      <trkpt lat="40.4982820" lon="-3.4792570">
        <ele>642.0</ele>
        <time>2020-09-29T18:13:58Z</time>
      </trkpt>
      <trkpt lat="40.4980480" lon="-3.4792370">
        <ele>641.0</ele>
        <time>2020-09-29T18:13:59Z</time>
      </trkpt>
      <trkpt lat="40.4980480" lon="-3.4792370">
        <ele>641.0</ele>
        <time>2020-09-29T18:14:00Z</time>
      </trkpt>
      <trkpt lat="40.4979300" lon="-3.4792230">
        <ele>641.0</ele>
        <time>2020-09-29T18:14:01Z</time>
      </trkpt>
      <trkpt lat="40.4976980" lon="-3.4792000">
        <ele>641.0</ele>
        <time>2020-09-29T18:14:02Z</time>
      </trkpt>
      <trkpt lat="40.4976980" lon="-3.4792000">
        <ele>639.0</ele>
        <time>2020-09-29T18:14:03Z</time>
      </trkpt>
      <trkpt lat="40.4974680" lon="-3.4791770">
        <ele>639.0</ele>
        <time>2020-09-29T18:14:04Z</time>
      </trkpt>
      <trkpt lat="40.4974680" lon="-3.4791770">
        <ele>639.0</ele>
        <time>2020-09-29T18:14:05Z</time>
      </trkpt>
      <trkpt lat="40.4972350" lon="-3.4791550">
        <ele>639.0</ele>
        <time>2020-09-29T18:14:06Z</time>
      </trkpt>
      <trkpt lat="40.4972350" lon="-3.4791550">
        <ele>638.0</ele>
        <time>2020-09-29T18:14:07Z</time>
      </trkpt>
      <trkpt lat="40.4970080" lon="-3.4791320">
        <ele>638.0</ele>
        <time>2020-09-29T18:14:08Z</time>
      </trkpt>
      <trkpt lat="40.4970080" lon="-3.4791320">
        <ele>638.0</ele>
        <time>2020-09-29T18:14:09Z</time>
      </trkpt>
      <trkpt lat="40.4967880" lon="-3.4791080">
        <ele>638.0</ele>
        <time>2020-09-29T18:14:10Z</time>
      </trkpt>
      <trkpt lat="40.4966770" lon="-3.4790970">
        <ele>638.0</ele>
        <time>2020-09-29T18:14:11Z</time>
      </trkpt>
      <trkpt lat="40.4966770" lon="-3.4790970">
        <ele>638.0</ele>
        <time>2020-09-29T18:14:12Z</time>
      </trkpt>
      <trkpt lat="40.4964620" lon="-3.4790730">
        <ele>637.0</ele>
        <time>2020-09-29T18:14:13Z</time>
      </trkpt>
      <trkpt lat="40.4964620" lon="-3.4790730">
        <ele>637.0</ele>
        <time>2020-09-29T18:14:14Z</time>
      </trkpt>
      <trkpt lat="40.4962550" lon="-3.4790530">
        <ele>637.0</ele>
        <time>2020-09-29T18:14:15Z</time>
      </trkpt>
      <trkpt lat="40.4962550" lon="-3.4790530">
        <ele>637.0</ele>
        <time>2020-09-29T18:14:16Z</time>
      </trkpt>
      <trkpt lat="40.4960520" lon="-3.4790370">
        <ele>637.0</ele>
        <time>2020-09-29T18:14:17Z</time>
      </trkpt>
      <trkpt lat="40.4959450" lon="-3.4790280">
        <ele>637.0</ele>
        <time>2020-09-29T18:14:18Z</time>
      </trkpt>
      <trkpt lat="40.4959450" lon="-3.4790280">
        <ele>637.0</ele>
        <time>2020-09-29T18:14:19Z</time>
      </trkpt>
      <trkpt lat="40.4957470" lon="-3.4790200">
        <ele>637.0</ele>
        <time>2020-09-29T18:14:20Z</time>
      </trkpt>
      <trkpt lat="40.4957470" lon="-3.4790200">
        <ele>637.0</ele>
        <time>2020-09-29T18:14:21Z</time>
      </trkpt>
      <trkpt lat="40.4957470" lon="-3.4790200">
        <ele>637.0</ele>
        <time>2020-09-29T18:14:22Z</time>
      </trkpt>
      <trkpt lat="40.4955470" lon="-3.4790130">
        <ele>637.0</ele>
        <time>2020-09-29T18:14:23Z</time>
      </trkpt>
      <trkpt lat="40.4953450" lon="-3.4790100">
        <ele>636.0</ele>
        <time>2020-09-29T18:14:24Z</time>
      </trkpt>
      <trkpt lat="40.4953450" lon="-3.4790100">
        <ele>636.0</ele>
        <time>2020-09-29T18:14:25Z</time>
      </trkpt>
      <trkpt lat="40.4951430" lon="-3.4790050">
        <ele>636.0</ele>
        <time>2020-09-29T18:14:26Z</time>
      </trkpt>
      <trkpt lat="40.4950420" lon="-3.4790020">
        <ele>636.0</ele>
        <time>2020-09-29T18:14:27Z</time>
      </trkpt>
      <trkpt lat="40.4950420" lon="-3.4790020">
        <ele>636.0</ele>
        <time>2020-09-29T18:14:28Z</time>
      </trkpt>
      <trkpt lat="40.4948370" lon="-3.4789980">
        <ele>636.0</ele>
        <time>2020-09-29T18:14:29Z</time>
      </trkpt>
      <trkpt lat="40.4947330" lon="-3.4789930">
        <ele>636.0</ele>
        <time>2020-09-29T18:14:30Z</time>
      </trkpt>
      <trkpt lat="40.4947330" lon="-3.4789930">
        <ele>635.0</ele>
        <time>2020-09-29T18:14:31Z</time>
      </trkpt>
      <trkpt lat="40.4945270" lon="-3.4789830">
        <ele>635.0</ele>
        <time>2020-09-29T18:14:32Z</time>
      </trkpt>
      <trkpt lat="40.4944250" lon="-3.4789770">
        <ele>635.0</ele>
        <time>2020-09-29T18:14:33Z</time>
      </trkpt>
      <trkpt lat="40.4943250" lon="-3.4789680">
        <ele>635.0</ele>
        <time>2020-09-29T18:14:34Z</time>
      </trkpt>
      <trkpt lat="40.4943250" lon="-3.4789680">
        <ele>634.0</ele>
        <time>2020-09-29T18:14:35Z</time>
      </trkpt>
      <trkpt lat="40.4941170" lon="-3.4789570">
        <ele>634.0</ele>
        <time>2020-09-29T18:14:36Z</time>
      </trkpt>
      <trkpt lat="40.4941170" lon="-3.4789570">
        <ele>634.0</ele>
        <time>2020-09-29T18:14:37Z</time>
      </trkpt>
      <trkpt lat="40.4939120" lon="-3.4789350">
        <ele>634.0</ele>
        <time>2020-09-29T18:14:38Z</time>
      </trkpt>
      <trkpt lat="40.4938080" lon="-3.4789230">
        <ele>634.0</ele>
        <time>2020-09-29T18:14:39Z</time>
      </trkpt>
      <trkpt lat="40.4938080" lon="-3.4789230">
        <ele>633.0</ele>
        <time>2020-09-29T18:14:40Z</time>
      </trkpt>
      <trkpt lat="40.4936070" lon="-3.4789020">
        <ele>633.0</ele>
        <time>2020-09-29T18:14:41Z</time>
      </trkpt>
      <trkpt lat="40.4936070" lon="-3.4789020">
        <ele>632.0</ele>
        <time>2020-09-29T18:14:42Z</time>
      </trkpt>
      <trkpt lat="40.4935080" lon="-3.4788950">
        <ele>632.0</ele>
        <time>2020-09-29T18:14:43Z</time>
      </trkpt>
      <trkpt lat="40.4933100" lon="-3.4788930">
        <ele>632.0</ele>
        <time>2020-09-29T18:14:44Z</time>
      </trkpt>
      <trkpt lat="40.4932120" lon="-3.4788850">
        <ele>632.0</ele>
        <time>2020-09-29T18:14:45Z</time>
      </trkpt>
      <trkpt lat="40.4932120" lon="-3.4788850">
        <ele>631.0</ele>
        <time>2020-09-29T18:14:46Z</time>
      </trkpt>
      <trkpt lat="40.4930270" lon="-3.4788670">
        <ele>631.0</ele>
        <time>2020-09-29T18:14:47Z</time>
      </trkpt>
      <trkpt lat="40.4930270" lon="-3.4788670">
        <ele>631.0</ele>
        <time>2020-09-29T18:14:48Z</time>
      </trkpt>
      <trkpt lat="40.4928470" lon="-3.4788520">
        <ele>631.0</ele>
        <time>2020-09-29T18:14:49Z</time>
      </trkpt>
      <trkpt lat="40.4927570" lon="-3.4788480">
        <ele>630.0</ele>
        <time>2020-09-29T18:14:50Z</time>
      </trkpt>
      <trkpt lat="40.4927570" lon="-3.4788480">
        <ele>630.0</ele>
        <time>2020-09-29T18:14:51Z</time>
      </trkpt>
      <trkpt lat="40.4925780" lon="-3.4788600">
        <ele>630.0</ele>
        <time>2020-09-29T18:14:52Z</time>
      </trkpt>
      <trkpt lat="40.4924900" lon="-3.4788770">
        <ele>630.0</ele>
        <time>2020-09-29T18:14:53Z</time>
      </trkpt>
      <trkpt lat="40.4924030" lon="-3.4789000">
        <ele>630.0</ele>
        <time>2020-09-29T18:14:54Z</time>
      </trkpt>
      <trkpt lat="40.4924030" lon="-3.4789000">
        <ele>630.0</ele>
        <time>2020-09-29T18:14:55Z</time>
      </trkpt>
      <trkpt lat="40.4922270" lon="-3.4789450">
        <ele>630.0</ele>
        <time>2020-09-29T18:14:56Z</time>
      </trkpt>
      <trkpt lat="40.4922270" lon="-3.4789450">
        <ele>630.0</ele>
        <time>2020-09-29T18:14:57Z</time>
      </trkpt>
      <trkpt lat="40.4920480" lon="-3.4789350">
        <ele>630.0</ele>
        <time>2020-09-29T18:14:58Z</time>
      </trkpt>
      <trkpt lat="40.4920480" lon="-3.4789350">
        <ele>630.0</ele>
        <time>2020-09-29T18:14:59Z</time>
      </trkpt>
      <trkpt lat="40.4918730" lon="-3.4788700">
        <ele>629.0</ele>
        <time>2020-09-29T18:15:00Z</time>
      </trkpt>
      <trkpt lat="40.4918730" lon="-3.4788700">
        <ele>629.0</ele>
        <time>2020-09-29T18:15:01Z</time>
      </trkpt>
      <trkpt lat="40.4918730" lon="-3.4788700">
        <ele>629.0</ele>
        <time>2020-09-29T18:15:02Z</time>
      </trkpt>
      <trkpt lat="40.4916970" lon="-3.4788080">
        <ele>629.0</ele>
        <time>2020-09-29T18:15:03Z</time>
      </trkpt>
      <trkpt lat="40.4915180" lon="-3.4787630">
        <ele>629.0</ele>
        <time>2020-09-29T18:15:04Z</time>
      </trkpt>
      <trkpt lat="40.4915180" lon="-3.4787630">
        <ele>629.0</ele>
        <time>2020-09-29T18:15:05Z</time>
      </trkpt>
      <trkpt lat="40.4913350" lon="-3.4787400">
        <ele>629.0</ele>
        <time>2020-09-29T18:15:06Z</time>
      </trkpt>
      <trkpt lat="40.4913350" lon="-3.4787400">
        <ele>629.0</ele>
        <time>2020-09-29T18:15:07Z</time>
      </trkpt>
      <trkpt lat="40.4911520" lon="-3.4787220">
        <ele>629.0</ele>
        <time>2020-09-29T18:15:08Z</time>
      </trkpt>
      <trkpt lat="40.4911520" lon="-3.4787220">
        <ele>629.0</ele>
        <time>2020-09-29T18:15:09Z</time>
      </trkpt>
      <trkpt lat="40.4909670" lon="-3.4787020">
        <ele>629.0</ele>
        <time>2020-09-29T18:15:10Z</time>
      </trkpt>
      <trkpt lat="40.4909670" lon="-3.4787020">
        <ele>629.0</ele>
        <time>2020-09-29T18:15:11Z</time>
      </trkpt>
      <trkpt lat="40.4907830" lon="-3.4786780">
        <ele>629.0</ele>
        <time>2020-09-29T18:15:12Z</time>
      </trkpt>
      <trkpt lat="40.4907830" lon="-3.4786780">
        <ele>629.0</ele>
        <time>2020-09-29T18:15:13Z</time>
      </trkpt>
      <trkpt lat="40.4905980" lon="-3.4786470">
        <ele>629.0</ele>
        <time>2020-09-29T18:15:14Z</time>
      </trkpt>
      <trkpt lat="40.4905080" lon="-3.4786330">
        <ele>629.0</ele>
        <time>2020-09-29T18:15:15Z</time>
      </trkpt>
      <trkpt lat="40.4905080" lon="-3.4786330">
        <ele>629.0</ele>
        <time>2020-09-29T18:15:16Z</time>
      </trkpt>
      <trkpt lat="40.4903250" lon="-3.4786230">
        <ele>628.0</ele>
        <time>2020-09-29T18:15:17Z</time>
      </trkpt>
      <trkpt lat="40.4903250" lon="-3.4786230">
        <ele>628.0</ele>
        <time>2020-09-29T18:15:18Z</time>
      </trkpt>
      <trkpt lat="40.4901380" lon="-3.4786170">
        <ele>628.0</ele>
        <time>2020-09-29T18:15:19Z</time>
      </trkpt>
      <trkpt lat="40.4900450" lon="-3.4786100">
        <ele>628.0</ele>
        <time>2020-09-29T18:15:20Z</time>
      </trkpt>
      <trkpt lat="40.4900450" lon="-3.4786100">
        <ele>628.0</ele>
        <time>2020-09-29T18:15:21Z</time>
      </trkpt>
      <trkpt lat="40.4898630" lon="-3.4785920">
        <ele>628.0</ele>
        <time>2020-09-29T18:15:22Z</time>
      </trkpt>
      <trkpt lat="40.4898630" lon="-3.4785920">
        <ele>628.0</ele>
        <time>2020-09-29T18:15:23Z</time>
      </trkpt>
      <trkpt lat="40.4896830" lon="-3.4785730">
        <ele>628.0</ele>
        <time>2020-09-29T18:15:24Z</time>
      </trkpt>
      <trkpt lat="40.4896830" lon="-3.4785730">
        <ele>628.0</ele>
        <time>2020-09-29T18:15:25Z</time>
      </trkpt>
      <trkpt lat="40.4895000" lon="-3.4785570">
        <ele>628.0</ele>
        <time>2020-09-29T18:15:26Z</time>
      </trkpt>
      <trkpt lat="40.4894080" lon="-3.4785470">
        <ele>627.0</ele>
        <time>2020-09-29T18:15:27Z</time>
      </trkpt>
      <trkpt lat="40.4894080" lon="-3.4785470">
        <ele>627.0</ele>
        <time>2020-09-29T18:15:28Z</time>
      </trkpt>
      <trkpt lat="40.4892270" lon="-3.4785250">
        <ele>627.0</ele>
        <time>2020-09-29T18:15:29Z</time>
      </trkpt>
      <trkpt lat="40.4891370" lon="-3.4785150">
        <ele>627.0</ele>
        <time>2020-09-29T18:15:30Z</time>
      </trkpt>
      <trkpt lat="40.4891370" lon="-3.4785150">
        <ele>627.0</ele>
        <time>2020-09-29T18:15:31Z</time>
      </trkpt>
      <trkpt lat="40.4889550" lon="-3.4784930">
        <ele>627.0</ele>
        <time>2020-09-29T18:15:32Z</time>
      </trkpt>
      <trkpt lat="40.4889550" lon="-3.4784930">
        <ele>627.0</ele>
        <time>2020-09-29T18:15:33Z</time>
      </trkpt>
      <trkpt lat="40.4888630" lon="-3.4784850">
        <ele>627.0</ele>
        <time>2020-09-29T18:15:34Z</time>
      </trkpt>
      <trkpt lat="40.4886780" lon="-3.4784680">
        <ele>626.0</ele>
        <time>2020-09-29T18:15:35Z</time>
      </trkpt>
      <trkpt lat="40.4885870" lon="-3.4784580">
        <ele>626.0</ele>
        <time>2020-09-29T18:15:36Z</time>
      </trkpt>
      <trkpt lat="40.4884950" lon="-3.4784500">
        <ele>626.0</ele>
        <time>2020-09-29T18:15:37Z</time>
      </trkpt>
      <trkpt lat="40.4884950" lon="-3.4784500">
        <ele>626.0</ele>
        <time>2020-09-29T18:15:38Z</time>
      </trkpt>
      <trkpt lat="40.4883120" lon="-3.4784300">
        <ele>626.0</ele>
        <time>2020-09-29T18:15:39Z</time>
      </trkpt>
      <trkpt lat="40.4883120" lon="-3.4784300">
        <ele>626.0</ele>
        <time>2020-09-29T18:15:40Z</time>
      </trkpt>
      <trkpt lat="40.4881330" lon="-3.4784170">
        <ele>626.0</ele>
        <time>2020-09-29T18:15:41Z</time>
      </trkpt>
      <trkpt lat="40.4880450" lon="-3.4784100">
        <ele>626.0</ele>
        <time>2020-09-29T18:15:42Z</time>
      </trkpt>
      <trkpt lat="40.4880450" lon="-3.4784100">
        <ele>625.0</ele>
        <time>2020-09-29T18:15:43Z</time>
      </trkpt>
      <trkpt lat="40.4878730" lon="-3.4784000">
        <ele>625.0</ele>
        <time>2020-09-29T18:15:44Z</time>
      </trkpt>
      <trkpt lat="40.4877880" lon="-3.4784000">
        <ele>625.0</ele>
        <time>2020-09-29T18:15:45Z</time>
      </trkpt>
      <trkpt lat="40.4877880" lon="-3.4784000">
        <ele>625.0</ele>
        <time>2020-09-29T18:15:46Z</time>
      </trkpt>
      <trkpt lat="40.4876250" lon="-3.4784120">
        <ele>625.0</ele>
        <time>2020-09-29T18:15:47Z</time>
      </trkpt>
      <trkpt lat="40.4875450" lon="-3.4784230">
        <ele>624.0</ele>
        <time>2020-09-29T18:15:48Z</time>
      </trkpt>
      <trkpt lat="40.4875450" lon="-3.4784230">
        <ele>624.0</ele>
        <time>2020-09-29T18:15:49Z</time>
      </trkpt>
      <trkpt lat="40.4873870" lon="-3.4784680">
        <ele>624.0</ele>
        <time>2020-09-29T18:15:50Z</time>
      </trkpt>
      <trkpt lat="40.4873100" lon="-3.4785100">
        <ele>624.0</ele>
        <time>2020-09-29T18:15:51Z</time>
      </trkpt>
      <trkpt lat="40.4873100" lon="-3.4785100">
        <ele>624.0</ele>
        <time>2020-09-29T18:15:52Z</time>
      </trkpt>
      <trkpt lat="40.4871470" lon="-3.4785730">
        <ele>624.0</ele>
        <time>2020-09-29T18:15:53Z</time>
      </trkpt>
      <trkpt lat="40.4870620" lon="-3.4785700">
        <ele>624.0</ele>
        <time>2020-09-29T18:15:54Z</time>
      </trkpt>
      <trkpt lat="40.4870620" lon="-3.4785700">
        <ele>624.0</ele>
        <time>2020-09-29T18:15:55Z</time>
      </trkpt>
      <trkpt lat="40.4868950" lon="-3.4784870">
        <ele>624.0</ele>
        <time>2020-09-29T18:15:56Z</time>
      </trkpt>
      <trkpt lat="40.4868950" lon="-3.4784870">
        <ele>624.0</ele>
        <time>2020-09-29T18:15:57Z</time>
      </trkpt>
      <trkpt lat="40.4867420" lon="-3.4783580">
        <ele>624.0</ele>
        <time>2020-09-29T18:15:58Z</time>
      </trkpt>
      <trkpt lat="40.4866530" lon="-3.4783130">
        <ele>624.0</ele>
        <time>2020-09-29T18:15:59Z</time>
      </trkpt>
      <trkpt lat="40.4865600" lon="-3.4782870">
        <ele>623.0</ele>
        <time>2020-09-29T18:16:00Z</time>
      </trkpt>
      <trkpt lat="40.4865600" lon="-3.4782870">
        <ele>623.0</ele>
        <time>2020-09-29T18:16:01Z</time>
      </trkpt>
      <trkpt lat="40.4863680" lon="-3.4782620">
        <ele>623.0</ele>
        <time>2020-09-29T18:16:02Z</time>
      </trkpt>
      <trkpt lat="40.4863680" lon="-3.4782620">
        <ele>623.0</ele>
        <time>2020-09-29T18:16:03Z</time>
      </trkpt>
      <trkpt lat="40.4861750" lon="-3.4782420">
        <ele>623.0</ele>
        <time>2020-09-29T18:16:04Z</time>
      </trkpt>
      <trkpt lat="40.4861750" lon="-3.4782420">
        <ele>623.0</ele>
        <time>2020-09-29T18:16:05Z</time>
      </trkpt>
      <trkpt lat="40.4859800" lon="-3.4782180">
        <ele>623.0</ele>
        <time>2020-09-29T18:16:06Z</time>
      </trkpt>
      <trkpt lat="40.4859800" lon="-3.4782180">
        <ele>623.0</ele>
        <time>2020-09-29T18:16:07Z</time>
      </trkpt>
      <trkpt lat="40.4857880" lon="-3.4781870">
        <ele>623.0</ele>
        <time>2020-09-29T18:16:08Z</time>
      </trkpt>
      <trkpt lat="40.4857880" lon="-3.4781870">
        <ele>623.0</ele>
        <time>2020-09-29T18:16:09Z</time>
      </trkpt>
      <trkpt lat="40.4855920" lon="-3.4781630">
        <ele>623.0</ele>
        <time>2020-09-29T18:16:10Z</time>
      </trkpt>
      <trkpt lat="40.4855920" lon="-3.4781630">
        <ele>623.0</ele>
        <time>2020-09-29T18:16:11Z</time>
      </trkpt>
      <trkpt lat="40.4853930" lon="-3.4781400">
        <ele>622.0</ele>
        <time>2020-09-29T18:16:12Z</time>
      </trkpt>
      <trkpt lat="40.4853930" lon="-3.4781400">
        <ele>622.0</ele>
        <time>2020-09-29T18:16:13Z</time>
      </trkpt>
      <trkpt lat="40.4853930" lon="-3.4781400">
        <ele>622.0</ele>
        <time>2020-09-29T18:16:14Z</time>
      </trkpt>
      <trkpt lat="40.4851930" lon="-3.4781170">
        <ele>622.0</ele>
        <time>2020-09-29T18:16:15Z</time>
      </trkpt>
      <trkpt lat="40.4849930" lon="-3.4780970">
        <ele>622.0</ele>
        <time>2020-09-29T18:16:16Z</time>
      </trkpt>
      <trkpt lat="40.4849930" lon="-3.4780970">
        <ele>622.0</ele>
        <time>2020-09-29T18:16:17Z</time>
      </trkpt>
      <trkpt lat="40.4847920" lon="-3.4780800">
        <ele>621.0</ele>
        <time>2020-09-29T18:16:18Z</time>
      </trkpt>
      <trkpt lat="40.4847920" lon="-3.4780800">
        <ele>621.0</ele>
        <time>2020-09-29T18:16:19Z</time>
      </trkpt>
      <trkpt lat="40.4845880" lon="-3.4780630">
        <ele>621.0</ele>
        <time>2020-09-29T18:16:20Z</time>
      </trkpt>
      <trkpt lat="40.4844870" lon="-3.4780550">
        <ele>621.0</ele>
        <time>2020-09-29T18:16:21Z</time>
      </trkpt>
      <trkpt lat="40.4844870" lon="-3.4780550">
        <ele>621.0</ele>
        <time>2020-09-29T18:16:22Z</time>
      </trkpt>
      <trkpt lat="40.4842850" lon="-3.4780370">
        <ele>620.0</ele>
        <time>2020-09-29T18:16:23Z</time>
      </trkpt>
      <trkpt lat="40.4841850" lon="-3.4780280">
        <ele>620.0</ele>
        <time>2020-09-29T18:16:24Z</time>
      </trkpt>
      <trkpt lat="40.4841850" lon="-3.4780280">
        <ele>620.0</ele>
        <time>2020-09-29T18:16:25Z</time>
      </trkpt>
      <trkpt lat="40.4839830" lon="-3.4780120">
        <ele>620.0</ele>
        <time>2020-09-29T18:16:26Z</time>
      </trkpt>
      <trkpt lat="40.4839830" lon="-3.4780120">
        <ele>620.0</ele>
        <time>2020-09-29T18:16:27Z</time>
      </trkpt>
      <trkpt lat="40.4837830" lon="-3.4779950">
        <ele>620.0</ele>
        <time>2020-09-29T18:16:28Z</time>
      </trkpt>
      <trkpt lat="40.4837830" lon="-3.4779950">
        <ele>619.0</ele>
        <time>2020-09-29T18:16:29Z</time>
      </trkpt>
      <trkpt lat="40.4835830" lon="-3.4779770">
        <ele>619.0</ele>
        <time>2020-09-29T18:16:30Z</time>
      </trkpt>
      <trkpt lat="40.4835830" lon="-3.4779770">
        <ele>619.0</ele>
        <time>2020-09-29T18:16:31Z</time>
      </trkpt>
      <trkpt lat="40.4833830" lon="-3.4779580">
        <ele>619.0</ele>
        <time>2020-09-29T18:16:32Z</time>
      </trkpt>
      <trkpt lat="40.4833830" lon="-3.4779580">
        <ele>619.0</ele>
        <time>2020-09-29T18:16:33Z</time>
      </trkpt>
      <trkpt lat="40.4831820" lon="-3.4779400">
        <ele>619.0</ele>
        <time>2020-09-29T18:16:34Z</time>
      </trkpt>
      <trkpt lat="40.4830800" lon="-3.4779300">
        <ele>619.0</ele>
        <time>2020-09-29T18:16:35Z</time>
      </trkpt>
      <trkpt lat="40.4829820" lon="-3.4779220">
        <ele>619.0</ele>
        <time>2020-09-29T18:16:36Z</time>
      </trkpt>
      <trkpt lat="40.4828820" lon="-3.4779100">
        <ele>619.0</ele>
        <time>2020-09-29T18:16:37Z</time>
      </trkpt>
      <trkpt lat="40.4828820" lon="-3.4779100">
        <ele>619.0</ele>
        <time>2020-09-29T18:16:38Z</time>
      </trkpt>
      <trkpt lat="40.4826800" lon="-3.4778870">
        <ele>619.0</ele>
        <time>2020-09-29T18:16:39Z</time>
      </trkpt>
      <trkpt lat="40.4826800" lon="-3.4778870">
        <ele>619.0</ele>
        <time>2020-09-29T18:16:40Z</time>
      </trkpt>
      <trkpt lat="40.4824780" lon="-3.4778680">
        <ele>619.0</ele>
        <time>2020-09-29T18:16:41Z</time>
      </trkpt>
      <trkpt lat="40.4824780" lon="-3.4778680">
        <ele>619.0</ele>
        <time>2020-09-29T18:16:42Z</time>
      </trkpt>
      <trkpt lat="40.4822770" lon="-3.4778480">
        <ele>618.0</ele>
        <time>2020-09-29T18:16:43Z</time>
      </trkpt>
      <trkpt lat="40.4821730" lon="-3.4778370">
        <ele>618.0</ele>
        <time>2020-09-29T18:16:44Z</time>
      </trkpt>
      <trkpt lat="40.4821730" lon="-3.4778370">
        <ele>618.0</ele>
        <time>2020-09-29T18:16:45Z</time>
      </trkpt>
      <trkpt lat="40.4819730" lon="-3.4778170">
        <ele>618.0</ele>
        <time>2020-09-29T18:16:46Z</time>
      </trkpt>
      <trkpt lat="40.4818750" lon="-3.4778070">
        <ele>618.0</ele>
        <time>2020-09-29T18:16:47Z</time>
      </trkpt>
      <trkpt lat="40.4818750" lon="-3.4778070">
        <ele>618.0</ele>
        <time>2020-09-29T18:16:48Z</time>
      </trkpt>
      <trkpt lat="40.4817760" lon="-3.4777970">
        <ele>618.0</ele>
        <time>2020-09-29T18:16:49Z</time>
      </trkpt>
      <trkpt lat="40.4816770" lon="-3.4777870">
        <ele>618.0</ele>
        <time>2020-09-29T18:16:50Z</time>
      </trkpt>
      <trkpt lat="40.4814780" lon="-3.4777680">
        <ele>617.0</ele>
        <time>2020-09-29T18:16:51Z</time>
      </trkpt>
      <trkpt lat="40.4814780" lon="-3.4777680">
        <ele>617.0</ele>
        <time>2020-09-29T18:16:52Z</time>
      </trkpt>
      <trkpt lat="40.4812780" lon="-3.4777580">
        <ele>617.0</ele>
        <time>2020-09-29T18:16:53Z</time>
      </trkpt>
      <trkpt lat="40.4811800" lon="-3.4777600">
        <ele>617.0</ele>
        <time>2020-09-29T18:16:54Z</time>
      </trkpt>
      <trkpt lat="40.4811800" lon="-3.4777600">
        <ele>617.0</ele>
        <time>2020-09-29T18:16:55Z</time>
      </trkpt>
      <trkpt lat="40.4809780" lon="-3.4777820">
        <ele>617.0</ele>
        <time>2020-09-29T18:16:56Z</time>
      </trkpt>
      <trkpt lat="40.4809780" lon="-3.4777820">
        <ele>617.0</ele>
        <time>2020-09-29T18:16:57Z</time>
      </trkpt>
      <trkpt lat="40.4807780" lon="-3.4778150">
        <ele>616.0</ele>
        <time>2020-09-29T18:16:58Z</time>
      </trkpt>
      <trkpt lat="40.4807780" lon="-3.4778150">
        <ele>616.0</ele>
        <time>2020-09-29T18:16:59Z</time>
      </trkpt>
      <trkpt lat="40.4805750" lon="-3.4778520">
        <ele>616.0</ele>
        <time>2020-09-29T18:17:00Z</time>
      </trkpt>
      <trkpt lat="40.4805750" lon="-3.4778520">
        <ele>616.0</ele>
        <time>2020-09-29T18:17:01Z</time>
      </trkpt>
      <trkpt lat="40.4803730" lon="-3.4778930">
        <ele>616.0</ele>
        <time>2020-09-29T18:17:02Z</time>
      </trkpt>
      <trkpt lat="40.4803730" lon="-3.4778930">
        <ele>616.0</ele>
        <time>2020-09-29T18:17:03Z</time>
      </trkpt>
      <trkpt lat="40.4801700" lon="-3.4779470">
        <ele>615.0</ele>
        <time>2020-09-29T18:17:04Z</time>
      </trkpt>
      <trkpt lat="40.4801700" lon="-3.4779470">
        <ele>615.0</ele>
        <time>2020-09-29T18:17:05Z</time>
      </trkpt>
      <trkpt lat="40.4799780" lon="-3.4780380">
        <ele>615.0</ele>
        <time>2020-09-29T18:17:06Z</time>
      </trkpt>
      <trkpt lat="40.4799780" lon="-3.4780380">
        <ele>615.0</ele>
        <time>2020-09-29T18:17:07Z</time>
      </trkpt>
      <trkpt lat="40.4797870" lon="-3.4781380">
        <ele>615.0</ele>
        <time>2020-09-29T18:17:08Z</time>
      </trkpt>
      <trkpt lat="40.4796850" lon="-3.4781530">
        <ele>615.0</ele>
        <time>2020-09-29T18:17:09Z</time>
      </trkpt>
      <trkpt lat="40.4796850" lon="-3.4781530">
        <ele>615.0</ele>
        <time>2020-09-29T18:17:10Z</time>
      </trkpt>
      <trkpt lat="40.4795000" lon="-3.4780930">
        <ele>615.0</ele>
        <time>2020-09-29T18:17:11Z</time>
      </trkpt>
      <trkpt lat="40.4795000" lon="-3.4780930">
        <ele>615.0</ele>
        <time>2020-09-29T18:17:12Z</time>
      </trkpt>
      <trkpt lat="40.4794250" lon="-3.4780180">
        <ele>615.0</ele>
        <time>2020-09-29T18:17:13Z</time>
      </trkpt>
      <trkpt lat="40.4792620" lon="-3.4778830">
        <ele>615.0</ele>
        <time>2020-09-29T18:17:14Z</time>
      </trkpt>
      <trkpt lat="40.4792620" lon="-3.4778830">
        <ele>615.0</ele>
        <time>2020-09-29T18:17:15Z</time>
      </trkpt>
      <trkpt lat="40.4790820" lon="-3.4778050">
        <ele>615.0</ele>
        <time>2020-09-29T18:17:16Z</time>
      </trkpt>
      <trkpt lat="40.4790820" lon="-3.4778050">
        <ele>615.0</ele>
        <time>2020-09-29T18:17:17Z</time>
      </trkpt>
      <trkpt lat="40.4788970" lon="-3.4777420">
        <ele>615.0</ele>
        <time>2020-09-29T18:17:18Z</time>
      </trkpt>
      <trkpt lat="40.4788970" lon="-3.4777420">
        <ele>615.0</ele>
        <time>2020-09-29T18:17:19Z</time>
      </trkpt>
      <trkpt lat="40.4787130" lon="-3.4776730">
        <ele>615.0</ele>
        <time>2020-09-29T18:17:20Z</time>
      </trkpt>
      <trkpt lat="40.4786220" lon="-3.4776370">
        <ele>615.0</ele>
        <time>2020-09-29T18:17:21Z</time>
      </trkpt>
      <trkpt lat="40.4785300" lon="-3.4776030">
        <ele>615.0</ele>
        <time>2020-09-29T18:17:22Z</time>
      </trkpt>
      <trkpt lat="40.4785300" lon="-3.4776030">
        <ele>615.0</ele>
        <time>2020-09-29T18:17:23Z</time>
      </trkpt>
      <trkpt lat="40.4783450" lon="-3.4775470">
        <ele>615.0</ele>
        <time>2020-09-29T18:17:24Z</time>
      </trkpt>
      <trkpt lat="40.4783450" lon="-3.4775470">
        <ele>615.0</ele>
        <time>2020-09-29T18:17:25Z</time>
      </trkpt>
      <trkpt lat="40.4781580" lon="-3.4775000">
        <ele>615.0</ele>
        <time>2020-09-29T18:17:26Z</time>
      </trkpt>
      <trkpt lat="40.4781580" lon="-3.4775000">
        <ele>615.0</ele>
        <time>2020-09-29T18:17:27Z</time>
      </trkpt>
      <trkpt lat="40.4779720" lon="-3.4774620">
        <ele>615.0</ele>
        <time>2020-09-29T18:17:28Z</time>
      </trkpt>
      <trkpt lat="40.4779720" lon="-3.4774620">
        <ele>615.0</ele>
        <time>2020-09-29T18:17:29Z</time>
      </trkpt>
      <trkpt lat="40.4777880" lon="-3.4774270">
        <ele>615.0</ele>
        <time>2020-09-29T18:17:30Z</time>
      </trkpt>
      <trkpt lat="40.4777880" lon="-3.4774270">
        <ele>615.0</ele>
        <time>2020-09-29T18:17:31Z</time>
      </trkpt>
      <trkpt lat="40.4776070" lon="-3.4774050">
        <ele>615.0</ele>
        <time>2020-09-29T18:17:32Z</time>
      </trkpt>
      <trkpt lat="40.4775150" lon="-3.4773970">
        <ele>615.0</ele>
        <time>2020-09-29T18:17:33Z</time>
      </trkpt>
      <trkpt lat="40.4775150" lon="-3.4773970">
        <ele>615.0</ele>
        <time>2020-09-29T18:17:34Z</time>
      </trkpt>
      <trkpt lat="40.4773300" lon="-3.4773780">
        <ele>614.0</ele>
        <time>2020-09-29T18:17:35Z</time>
      </trkpt>
      <trkpt lat="40.4773300" lon="-3.4773780">
        <ele>614.0</ele>
        <time>2020-09-29T18:17:36Z</time>
      </trkpt>
      <trkpt lat="40.4771480" lon="-3.4773600">
        <ele>614.0</ele>
        <time>2020-09-29T18:17:37Z</time>
      </trkpt>
      <trkpt lat="40.4771480" lon="-3.4773600">
        <ele>614.0</ele>
        <time>2020-09-29T18:17:38Z</time>
      </trkpt>
      <trkpt lat="40.4769620" lon="-3.4773430">
        <ele>614.0</ele>
        <time>2020-09-29T18:17:39Z</time>
      </trkpt>
      <trkpt lat="40.4769620" lon="-3.4773430">
        <ele>614.0</ele>
        <time>2020-09-29T18:17:40Z</time>
      </trkpt>
      <trkpt lat="40.4767750" lon="-3.4773280">
        <ele>614.0</ele>
        <time>2020-09-29T18:17:41Z</time>
      </trkpt>
      <trkpt lat="40.4767750" lon="-3.4773280">
        <ele>614.0</ele>
        <time>2020-09-29T18:17:42Z</time>
      </trkpt>
      <trkpt lat="40.4765900" lon="-3.4773150">
        <ele>614.0</ele>
        <time>2020-09-29T18:17:43Z</time>
      </trkpt>
      <trkpt lat="40.4765900" lon="-3.4773150">
        <ele>614.0</ele>
        <time>2020-09-29T18:17:44Z</time>
      </trkpt>
      <trkpt lat="40.4764960" lon="-3.4773070">
        <ele>614.0</ele>
        <time>2020-09-29T18:17:45Z</time>
      </trkpt>
      <trkpt lat="40.4764010" lon="-3.4772990">
        <ele>613.0</ele>
        <time>2020-09-29T18:17:46Z</time>
      </trkpt>
      <trkpt lat="40.4762120" lon="-3.4772830">
        <ele>613.0</ele>
        <time>2020-09-29T18:17:47Z</time>
      </trkpt>
      <trkpt lat="40.4762120" lon="-3.4772830">
        <ele>613.0</ele>
        <time>2020-09-29T18:17:48Z</time>
      </trkpt>
      <trkpt lat="40.4760220" lon="-3.4772780">
        <ele>613.0</ele>
        <time>2020-09-29T18:17:49Z</time>
      </trkpt>
      <trkpt lat="40.4760220" lon="-3.4772780">
        <ele>612.0</ele>
        <time>2020-09-29T18:17:50Z</time>
      </trkpt>
      <trkpt lat="40.4760220" lon="-3.4772780">
        <ele>612.0</ele>
        <time>2020-09-29T18:17:51Z</time>
      </trkpt>
      <trkpt lat="40.4758280" lon="-3.4772800">
        <ele>612.0</ele>
        <time>2020-09-29T18:17:52Z</time>
      </trkpt>
      <trkpt lat="40.4756350" lon="-3.4773020">
        <ele>612.0</ele>
        <time>2020-09-29T18:17:53Z</time>
      </trkpt>
      <trkpt lat="40.4756350" lon="-3.4773020">
        <ele>612.0</ele>
        <time>2020-09-29T18:17:54Z</time>
      </trkpt>
      <trkpt lat="40.4754450" lon="-3.4773450">
        <ele>612.0</ele>
        <time>2020-09-29T18:17:55Z</time>
      </trkpt>
      <trkpt lat="40.4754450" lon="-3.4773450">
        <ele>612.0</ele>
        <time>2020-09-29T18:17:56Z</time>
      </trkpt>
      <trkpt lat="40.4752620" lon="-3.4774080">
        <ele>612.0</ele>
        <time>2020-09-29T18:17:57Z</time>
      </trkpt>
      <trkpt lat="40.4752620" lon="-3.4774080">
        <ele>612.0</ele>
        <time>2020-09-29T18:17:58Z</time>
      </trkpt>
      <trkpt lat="40.4750850" lon="-3.4774920">
        <ele>612.0</ele>
        <time>2020-09-29T18:17:59Z</time>
      </trkpt>
      <trkpt lat="40.4750000" lon="-3.4775400">
        <ele>612.0</ele>
        <time>2020-09-29T18:18:00Z</time>
      </trkpt>
      <trkpt lat="40.4750000" lon="-3.4775400">
        <ele>612.0</ele>
        <time>2020-09-29T18:18:01Z</time>
      </trkpt>
      <trkpt lat="40.4748350" lon="-3.4776480">
        <ele>612.0</ele>
        <time>2020-09-29T18:18:02Z</time>
      </trkpt>
      <trkpt lat="40.4747570" lon="-3.4777120">
        <ele>612.0</ele>
        <time>2020-09-29T18:18:03Z</time>
      </trkpt>
      <trkpt lat="40.4747570" lon="-3.4777120">
        <ele>612.0</ele>
        <time>2020-09-29T18:18:04Z</time>
      </trkpt>
      <trkpt lat="40.4746070" lon="-3.4778430">
        <ele>612.0</ele>
        <time>2020-09-29T18:18:05Z</time>
      </trkpt>
      <trkpt lat="40.4746070" lon="-3.4778430">
        <ele>612.0</ele>
        <time>2020-09-29T18:18:06Z</time>
      </trkpt>
      <trkpt lat="40.4744650" lon="-3.4779920">
        <ele>612.0</ele>
        <time>2020-09-29T18:18:07Z</time>
      </trkpt>
      <trkpt lat="40.4744650" lon="-3.4779920">
        <ele>612.0</ele>
        <time>2020-09-29T18:18:08Z</time>
      </trkpt>
      <trkpt lat="40.4743330" lon="-3.4781550">
        <ele>612.0</ele>
        <time>2020-09-29T18:18:09Z</time>
      </trkpt>
      <trkpt lat="40.4743330" lon="-3.4781550">
        <ele>612.0</ele>
        <time>2020-09-29T18:18:10Z</time>
      </trkpt>
      <trkpt lat="40.4743330" lon="-3.4781550">
        <ele>612.0</ele>
        <time>2020-09-29T18:18:11Z</time>
      </trkpt>
      <trkpt lat="40.4741770" lon="-3.4784370">
        <ele>612.0</ele>
        <time>2020-09-29T18:18:12Z</time>
      </trkpt>
      <trkpt lat="40.4741770" lon="-3.4784370">
        <ele>612.0</ele>
        <time>2020-09-29T18:18:13Z</time>
      </trkpt>
      <trkpt lat="40.4740870" lon="-3.4786280">
        <ele>612.0</ele>
        <time>2020-09-29T18:18:14Z</time>
      </trkpt>
      <trkpt lat="40.4740450" lon="-3.4787280">
        <ele>612.0</ele>
        <time>2020-09-29T18:18:15Z</time>
      </trkpt>
      <trkpt lat="40.4740450" lon="-3.4787280">
        <ele>612.0</ele>
        <time>2020-09-29T18:18:16Z</time>
      </trkpt>
      <trkpt lat="40.4739680" lon="-3.4789130">
        <ele>612.0</ele>
        <time>2020-09-29T18:18:17Z</time>
      </trkpt>
      <trkpt lat="40.4739400" lon="-3.4789920">
        <ele>612.0</ele>
        <time>2020-09-29T18:18:18Z</time>
      </trkpt>
      <trkpt lat="40.4739400" lon="-3.4789920">
        <ele>612.0</ele>
        <time>2020-09-29T18:18:19Z</time>
      </trkpt>
      <trkpt lat="40.4739080" lon="-3.4790930">
        <ele>612.0</ele>
        <time>2020-09-29T18:18:20Z</time>
      </trkpt>
      <trkpt lat="40.4739080" lon="-3.4790930">
        <ele>612.0</ele>
        <time>2020-09-29T18:18:21Z</time>
      </trkpt>
      <trkpt lat="40.4738880" lon="-3.4791950">
        <ele>612.0</ele>
        <time>2020-09-29T18:18:22Z</time>
      </trkpt>
      <trkpt lat="40.4738800" lon="-3.4792550">
        <ele>612.0</ele>
        <time>2020-09-29T18:18:23Z</time>
      </trkpt>
      <trkpt lat="40.4738730" lon="-3.4793220">
        <ele>612.0</ele>
        <time>2020-09-29T18:18:24Z</time>
      </trkpt>
      <trkpt lat="40.4738730" lon="-3.4793220">
        <ele>612.0</ele>
        <time>2020-09-29T18:18:25Z</time>
      </trkpt>
      <trkpt lat="40.4738320" lon="-3.4794630">
        <ele>612.0</ele>
        <time>2020-09-29T18:18:26Z</time>
      </trkpt>
      <trkpt lat="40.4737950" lon="-3.4795280">
        <ele>612.0</ele>
        <time>2020-09-29T18:18:27Z</time>
      </trkpt>
      <trkpt lat="40.4737950" lon="-3.4795280">
        <ele>612.0</ele>
        <time>2020-09-29T18:18:28Z</time>
      </trkpt>
      <trkpt lat="40.4736880" lon="-3.4796320">
        <ele>612.0</ele>
        <time>2020-09-29T18:18:29Z</time>
      </trkpt>
      <trkpt lat="40.4736270" lon="-3.4796670">
        <ele>612.0</ele>
        <time>2020-09-29T18:18:30Z</time>
      </trkpt>
      <trkpt lat="40.4736270" lon="-3.4796670">
        <ele>612.0</ele>
        <time>2020-09-29T18:18:31Z</time>
      </trkpt>
      <trkpt lat="40.4734980" lon="-3.4797230">
        <ele>612.0</ele>
        <time>2020-09-29T18:18:32Z</time>
      </trkpt>
      <trkpt lat="40.4734980" lon="-3.4797230">
        <ele>612.0</ele>
        <time>2020-09-29T18:18:33Z</time>
      </trkpt>
      <trkpt lat="40.4733730" lon="-3.4798150">
        <ele>612.0</ele>
        <time>2020-09-29T18:18:34Z</time>
      </trkpt>
      <trkpt lat="40.4733730" lon="-3.4798150">
        <ele>612.0</ele>
        <time>2020-09-29T18:18:35Z</time>
      </trkpt>
      <trkpt lat="40.4732580" lon="-3.4799350">
        <ele>612.0</ele>
        <time>2020-09-29T18:18:36Z</time>
      </trkpt>
      <trkpt lat="40.4732580" lon="-3.4799350">
        <ele>612.0</ele>
        <time>2020-09-29T18:18:37Z</time>
      </trkpt>
      <trkpt lat="40.4731430" lon="-3.4800550">
        <ele>612.0</ele>
        <time>2020-09-29T18:18:38Z</time>
      </trkpt>
      <trkpt lat="40.4731430" lon="-3.4800550">
        <ele>612.0</ele>
        <time>2020-09-29T18:18:39Z</time>
      </trkpt>
      <trkpt lat="40.4730220" lon="-3.4801780">
        <ele>612.0</ele>
        <time>2020-09-29T18:18:40Z</time>
      </trkpt>
      <trkpt lat="40.4730220" lon="-3.4801780">
        <ele>612.0</ele>
        <time>2020-09-29T18:18:41Z</time>
      </trkpt>
      <trkpt lat="40.4729050" lon="-3.4803050">
        <ele>612.0</ele>
        <time>2020-09-29T18:18:42Z</time>
      </trkpt>
      <trkpt lat="40.4729050" lon="-3.4803050">
        <ele>612.0</ele>
        <time>2020-09-29T18:18:43Z</time>
      </trkpt>
      <trkpt lat="40.4727850" lon="-3.4804330">
        <ele>612.0</ele>
        <time>2020-09-29T18:18:44Z</time>
      </trkpt>
      <trkpt lat="40.4727250" lon="-3.4804980">
        <ele>612.0</ele>
        <time>2020-09-29T18:18:45Z</time>
      </trkpt>
      <trkpt lat="40.4727250" lon="-3.4804980">
        <ele>612.0</ele>
        <time>2020-09-29T18:18:46Z</time>
      </trkpt>
      <trkpt lat="40.4726070" lon="-3.4806300">
        <ele>612.0</ele>
        <time>2020-09-29T18:18:47Z</time>
      </trkpt>
      <trkpt lat="40.4725480" lon="-3.4806970">
        <ele>612.0</ele>
        <time>2020-09-29T18:18:48Z</time>
      </trkpt>
      <trkpt lat="40.4725480" lon="-3.4806970">
        <ele>612.0</ele>
        <time>2020-09-29T18:18:49Z</time>
      </trkpt>
      <trkpt lat="40.4724370" lon="-3.4808400">
        <ele>612.0</ele>
        <time>2020-09-29T18:18:50Z</time>
      </trkpt>
      <trkpt lat="40.4724370" lon="-3.4808400">
        <ele>612.0</ele>
        <time>2020-09-29T18:18:51Z</time>
      </trkpt>
      <trkpt lat="40.4723320" lon="-3.4809950">
        <ele>612.0</ele>
        <time>2020-09-29T18:18:52Z</time>
      </trkpt>
      <trkpt lat="40.4723320" lon="-3.4809950">
        <ele>612.0</ele>
        <time>2020-09-29T18:18:53Z</time>
      </trkpt>
      <trkpt lat="40.4722420" lon="-3.4811530">
        <ele>612.0</ele>
        <time>2020-09-29T18:18:54Z</time>
      </trkpt>
      <trkpt lat="40.4722420" lon="-3.4811530">
        <ele>612.0</ele>
        <time>2020-09-29T18:18:55Z</time>
      </trkpt>
      <trkpt lat="40.4721430" lon="-3.4813130">
        <ele>612.0</ele>
        <time>2020-09-29T18:18:56Z</time>
      </trkpt>
      <trkpt lat="40.4720930" lon="-3.4813950">
        <ele>612.0</ele>
        <time>2020-09-29T18:18:57Z</time>
      </trkpt>
      <trkpt lat="40.4720930" lon="-3.4813950">
        <ele>612.0</ele>
        <time>2020-09-29T18:18:58Z</time>
      </trkpt>
      <trkpt lat="40.4719900" lon="-3.4815500">
        <ele>612.0</ele>
        <time>2020-09-29T18:18:59Z</time>
      </trkpt>
      <trkpt lat="40.4719380" lon="-3.4816270">
        <ele>612.0</ele>
        <time>2020-09-29T18:19:00Z</time>
      </trkpt>
      <trkpt lat="40.4719380" lon="-3.4816270">
        <ele>612.0</ele>
        <time>2020-09-29T18:19:01Z</time>
      </trkpt>
      <trkpt lat="40.4718370" lon="-3.4817870">
        <ele>612.0</ele>
        <time>2020-09-29T18:19:02Z</time>
      </trkpt>
      <trkpt lat="40.4718370" lon="-3.4817870">
        <ele>612.0</ele>
        <time>2020-09-29T18:19:03Z</time>
      </trkpt>
      <trkpt lat="40.4717380" lon="-3.4819500">
        <ele>612.0</ele>
        <time>2020-09-29T18:19:04Z</time>
      </trkpt>
      <trkpt lat="40.4717380" lon="-3.4819500">
        <ele>612.0</ele>
        <time>2020-09-29T18:19:05Z</time>
      </trkpt>
      <trkpt lat="40.4716380" lon="-3.4821120">
        <ele>612.0</ele>
        <time>2020-09-29T18:19:06Z</time>
      </trkpt>
      <trkpt lat="40.4716380" lon="-3.4821120">
        <ele>611.0</ele>
        <time>2020-09-29T18:19:07Z</time>
      </trkpt>
      <trkpt lat="40.4715370" lon="-3.4822770">
        <ele>611.0</ele>
        <time>2020-09-29T18:19:08Z</time>
      </trkpt>
      <trkpt lat="40.4715370" lon="-3.4822770">
        <ele>611.0</ele>
        <time>2020-09-29T18:19:09Z</time>
      </trkpt>
      <trkpt lat="40.4714330" lon="-3.4824400">
        <ele>611.0</ele>
        <time>2020-09-29T18:19:10Z</time>
      </trkpt>
      <trkpt lat="40.4714330" lon="-3.4824400">
        <ele>611.0</ele>
        <time>2020-09-29T18:19:11Z</time>
      </trkpt>
      <trkpt lat="40.4713320" lon="-3.4826030">
        <ele>611.0</ele>
        <time>2020-09-29T18:19:12Z</time>
      </trkpt>
      <trkpt lat="40.4713320" lon="-3.4826030">
        <ele>611.0</ele>
        <time>2020-09-29T18:19:13Z</time>
      </trkpt>
      <trkpt lat="40.4712300" lon="-3.4827670">
        <ele>611.0</ele>
        <time>2020-09-29T18:19:14Z</time>
      </trkpt>
      <trkpt lat="40.4711800" lon="-3.4828480">
        <ele>611.0</ele>
        <time>2020-09-29T18:19:15Z</time>
      </trkpt>
      <trkpt lat="40.4711800" lon="-3.4828480">
        <ele>611.0</ele>
        <time>2020-09-29T18:19:16Z</time>
      </trkpt>
      <trkpt lat="40.4710780" lon="-3.4830130">
        <ele>611.0</ele>
        <time>2020-09-29T18:19:17Z</time>
      </trkpt>
      <trkpt lat="40.4710780" lon="-3.4830130">
        <ele>611.0</ele>
        <time>2020-09-29T18:19:18Z</time>
      </trkpt>
      <trkpt lat="40.4709730" lon="-3.4831730">
        <ele>611.0</ele>
        <time>2020-09-29T18:19:19Z</time>
      </trkpt>
      <trkpt lat="40.4709730" lon="-3.4831730">
        <ele>611.0</ele>
        <time>2020-09-29T18:19:20Z</time>
      </trkpt>
      <trkpt lat="40.4708750" lon="-3.4833350">
        <ele>611.0</ele>
        <time>2020-09-29T18:19:21Z</time>
      </trkpt>
      <trkpt lat="40.4708250" lon="-3.4834170">
        <ele>611.0</ele>
        <time>2020-09-29T18:19:22Z</time>
      </trkpt>
      <trkpt lat="40.4708250" lon="-3.4834170">
        <ele>611.0</ele>
        <time>2020-09-29T18:19:23Z</time>
      </trkpt>
      <trkpt lat="40.4707200" lon="-3.4835800">
        <ele>611.0</ele>
        <time>2020-09-29T18:19:24Z</time>
      </trkpt>
      <trkpt lat="40.4707200" lon="-3.4835800">
        <ele>611.0</ele>
        <time>2020-09-29T18:19:25Z</time>
      </trkpt>
      <trkpt lat="40.4706180" lon="-3.4837450">
        <ele>611.0</ele>
        <time>2020-09-29T18:19:26Z</time>
      </trkpt>
      <trkpt lat="40.4706180" lon="-3.4837450">
        <ele>611.0</ele>
        <time>2020-09-29T18:19:27Z</time>
      </trkpt>
      <trkpt lat="40.4706180" lon="-3.4837450">
        <ele>611.0</ele>
        <time>2020-09-29T18:19:28Z</time>
      </trkpt>
      <trkpt lat="40.4705180" lon="-3.4839050">
        <ele>611.0</ele>
        <time>2020-09-29T18:19:29Z</time>
      </trkpt>
      <trkpt lat="40.4704130" lon="-3.4840620">
        <ele>611.0</ele>
        <time>2020-09-29T18:19:30Z</time>
      </trkpt>
      <trkpt lat="40.4704130" lon="-3.4840620">
        <ele>611.0</ele>
        <time>2020-09-29T18:19:31Z</time>
      </trkpt>
      <trkpt lat="40.4703130" lon="-3.4842150">
        <ele>611.0</ele>
        <time>2020-09-29T18:19:32Z</time>
      </trkpt>
      <trkpt lat="40.4703130" lon="-3.4842150">
        <ele>611.0</ele>
        <time>2020-09-29T18:19:33Z</time>
      </trkpt>
      <trkpt lat="40.4702050" lon="-3.4843580">
        <ele>611.0</ele>
        <time>2020-09-29T18:19:34Z</time>
      </trkpt>
      <trkpt lat="40.4702050" lon="-3.4843580">
        <ele>611.0</ele>
        <time>2020-09-29T18:19:35Z</time>
      </trkpt>
      <trkpt lat="40.4700900" lon="-3.4844970">
        <ele>611.0</ele>
        <time>2020-09-29T18:19:36Z</time>
      </trkpt>
      <trkpt lat="40.4700900" lon="-3.4844970">
        <ele>611.0</ele>
        <time>2020-09-29T18:19:37Z</time>
      </trkpt>
      <trkpt lat="40.4699700" lon="-3.4846230">
        <ele>611.0</ele>
        <time>2020-09-29T18:19:38Z</time>
      </trkpt>
      <trkpt lat="40.4699700" lon="-3.4846230">
        <ele>611.0</ele>
        <time>2020-09-29T18:19:39Z</time>
      </trkpt>
      <trkpt lat="40.4698430" lon="-3.4847370">
        <ele>611.0</ele>
        <time>2020-09-29T18:19:40Z</time>
      </trkpt>
      <trkpt lat="40.4698430" lon="-3.4847370">
        <ele>611.0</ele>
        <time>2020-09-29T18:19:41Z</time>
      </trkpt>
      <trkpt lat="40.4697100" lon="-3.4848350">
        <ele>611.0</ele>
        <time>2020-09-29T18:19:42Z</time>
      </trkpt>
      <trkpt lat="40.4697100" lon="-3.4848350">
        <ele>611.0</ele>
        <time>2020-09-29T18:19:43Z</time>
      </trkpt>
      <trkpt lat="40.4695720" lon="-3.4849280">
        <ele>611.0</ele>
        <time>2020-09-29T18:19:44Z</time>
      </trkpt>
      <trkpt lat="40.4695720" lon="-3.4849280">
        <ele>611.0</ele>
        <time>2020-09-29T18:19:45Z</time>
      </trkpt>
      <trkpt lat="40.4695000" lon="-3.4849700">
        <ele>611.0</ele>
        <time>2020-09-29T18:19:46Z</time>
      </trkpt>
      <trkpt lat="40.4693550" lon="-3.4850420">
        <ele>611.0</ele>
        <time>2020-09-29T18:19:47Z</time>
      </trkpt>
      <trkpt lat="40.4692800" lon="-3.4850730">
        <ele>611.0</ele>
        <time>2020-09-29T18:19:48Z</time>
      </trkpt>
      <trkpt lat="40.4692800" lon="-3.4850730">
        <ele>611.0</ele>
        <time>2020-09-29T18:19:49Z</time>
      </trkpt>
      <trkpt lat="40.4691250" lon="-3.4851300">
        <ele>611.0</ele>
        <time>2020-09-29T18:19:50Z</time>
      </trkpt>
      <trkpt lat="40.4690480" lon="-3.4851530">
        <ele>611.0</ele>
        <time>2020-09-29T18:19:51Z</time>
      </trkpt>
      <trkpt lat="40.4690480" lon="-3.4851530">
        <ele>611.0</ele>
        <time>2020-09-29T18:19:52Z</time>
      </trkpt>
      <trkpt lat="40.4688900" lon="-3.4851900">
        <ele>611.0</ele>
        <time>2020-09-29T18:19:53Z</time>
      </trkpt>
      <trkpt lat="40.4688100" lon="-3.4852030">
        <ele>611.0</ele>
        <time>2020-09-29T18:19:54Z</time>
      </trkpt>
      <trkpt lat="40.4688100" lon="-3.4852030">
        <ele>611.0</ele>
        <time>2020-09-29T18:19:55Z</time>
      </trkpt>
      <trkpt lat="40.4686470" lon="-3.4852150">
        <ele>611.0</ele>
        <time>2020-09-29T18:19:56Z</time>
      </trkpt>
      <trkpt lat="40.4686470" lon="-3.4852150">
        <ele>611.0</ele>
        <time>2020-09-29T18:19:57Z</time>
      </trkpt>
      <trkpt lat="40.4684850" lon="-3.4852180">
        <ele>611.0</ele>
        <time>2020-09-29T18:19:58Z</time>
      </trkpt>
      <trkpt lat="40.4684850" lon="-3.4852180">
        <ele>611.0</ele>
        <time>2020-09-29T18:19:59Z</time>
      </trkpt>
      <trkpt lat="40.4683200" lon="-3.4852020">
        <ele>610.0</ele>
        <time>2020-09-29T18:20:00Z</time>
      </trkpt>
      <trkpt lat="40.4683200" lon="-3.4852020">
        <ele>610.0</ele>
        <time>2020-09-29T18:20:01Z</time>
      </trkpt>
      <trkpt lat="40.4681650" lon="-3.4851730">
        <ele>610.0</ele>
        <time>2020-09-29T18:20:02Z</time>
      </trkpt>
      <trkpt lat="40.4681650" lon="-3.4851730">
        <ele>610.0</ele>
        <time>2020-09-29T18:20:03Z</time>
      </trkpt>
      <trkpt lat="40.4680030" lon="-3.4851380">
        <ele>610.0</ele>
        <time>2020-09-29T18:20:04Z</time>
      </trkpt>
      <trkpt lat="40.4680030" lon="-3.4851380">
        <ele>610.0</ele>
        <time>2020-09-29T18:20:05Z</time>
      </trkpt>
      <trkpt lat="40.4678450" lon="-3.4850950">
        <ele>610.0</ele>
        <time>2020-09-29T18:20:06Z</time>
      </trkpt>
      <trkpt lat="40.4678450" lon="-3.4850950">
        <ele>610.0</ele>
        <time>2020-09-29T18:20:07Z</time>
      </trkpt>
      <trkpt lat="40.4676820" lon="-3.4850530">
        <ele>610.0</ele>
        <time>2020-09-29T18:20:08Z</time>
      </trkpt>
      <trkpt lat="40.4676820" lon="-3.4850530">
        <ele>610.0</ele>
        <time>2020-09-29T18:20:09Z</time>
      </trkpt>
      <trkpt lat="40.4675180" lon="-3.4850120">
        <ele>610.0</ele>
        <time>2020-09-29T18:20:10Z</time>
      </trkpt>
      <trkpt lat="40.4675180" lon="-3.4850120">
        <ele>610.0</ele>
        <time>2020-09-29T18:20:11Z</time>
      </trkpt>
      <trkpt lat="40.4673520" lon="-3.4849930">
        <ele>610.0</ele>
        <time>2020-09-29T18:20:12Z</time>
      </trkpt>
      <trkpt lat="40.4673520" lon="-3.4849930">
        <ele>610.0</ele>
        <time>2020-09-29T18:20:13Z</time>
      </trkpt>
      <trkpt lat="40.4671820" lon="-3.4850020">
        <ele>610.0</ele>
        <time>2020-09-29T18:20:14Z</time>
      </trkpt>
      <trkpt lat="40.4671820" lon="-3.4850020">
        <ele>610.0</ele>
        <time>2020-09-29T18:20:15Z</time>
      </trkpt>
      <trkpt lat="40.4670150" lon="-3.4850330">
        <ele>610.0</ele>
        <time>2020-09-29T18:20:16Z</time>
      </trkpt>
      <trkpt lat="40.4670150" lon="-3.4850330">
        <ele>610.0</ele>
        <time>2020-09-29T18:20:17Z</time>
      </trkpt>
      <trkpt lat="40.4668520" lon="-3.4850950">
        <ele>610.0</ele>
        <time>2020-09-29T18:20:18Z</time>
      </trkpt>
      <trkpt lat="40.4668520" lon="-3.4850950">
        <ele>610.0</ele>
        <time>2020-09-29T18:20:19Z</time>
      </trkpt>
      <trkpt lat="40.4666980" lon="-3.4851820">
        <ele>610.0</ele>
        <time>2020-09-29T18:20:20Z</time>
      </trkpt>
      <trkpt lat="40.4666980" lon="-3.4851820">
        <ele>610.0</ele>
        <time>2020-09-29T18:20:21Z</time>
      </trkpt>
      <trkpt lat="40.4665570" lon="-3.4852950">
        <ele>610.0</ele>
        <time>2020-09-29T18:20:22Z</time>
      </trkpt>
      <trkpt lat="40.4664930" lon="-3.4853630">
        <ele>610.0</ele>
        <time>2020-09-29T18:20:23Z</time>
      </trkpt>
      <trkpt lat="40.4664320" lon="-3.4854380">
        <ele>610.0</ele>
        <time>2020-09-29T18:20:24Z</time>
      </trkpt>
      <trkpt lat="40.4664320" lon="-3.4854380">
        <ele>610.0</ele>
        <time>2020-09-29T18:20:25Z</time>
      </trkpt>
      <trkpt lat="40.4663170" lon="-3.4855980">
        <ele>610.0</ele>
        <time>2020-09-29T18:20:26Z</time>
      </trkpt>
      <trkpt lat="40.4662600" lon="-3.4856820">
        <ele>610.0</ele>
        <time>2020-09-29T18:20:27Z</time>
      </trkpt>
      <trkpt lat="40.4662600" lon="-3.4856820">
        <ele>610.0</ele>
        <time>2020-09-29T18:20:28Z</time>
      </trkpt>
      <trkpt lat="40.4661520" lon="-3.4858480">
        <ele>610.0</ele>
        <time>2020-09-29T18:20:29Z</time>
      </trkpt>
      <trkpt lat="40.4660980" lon="-3.4859330">
        <ele>611.0</ele>
        <time>2020-09-29T18:20:30Z</time>
      </trkpt>
      <trkpt lat="40.4660980" lon="-3.4859330">
        <ele>611.0</ele>
        <time>2020-09-29T18:20:31Z</time>
      </trkpt>
      <trkpt lat="40.4659900" lon="-3.4861030">
        <ele>611.0</ele>
        <time>2020-09-29T18:20:32Z</time>
      </trkpt>
      <trkpt lat="40.4659900" lon="-3.4861030">
        <ele>611.0</ele>
        <time>2020-09-29T18:20:33Z</time>
      </trkpt>
      <trkpt lat="40.4658800" lon="-3.4862730">
        <ele>611.0</ele>
        <time>2020-09-29T18:20:34Z</time>
      </trkpt>
      <trkpt lat="40.4658800" lon="-3.4862730">
        <ele>611.0</ele>
        <time>2020-09-29T18:20:35Z</time>
      </trkpt>
      <trkpt lat="40.4657680" lon="-3.4864450">
        <ele>611.0</ele>
        <time>2020-09-29T18:20:36Z</time>
      </trkpt>
      <trkpt lat="40.4657680" lon="-3.4864450">
        <ele>611.0</ele>
        <time>2020-09-29T18:20:37Z</time>
      </trkpt>
      <trkpt lat="40.4656550" lon="-3.4866180">
        <ele>611.0</ele>
        <time>2020-09-29T18:20:38Z</time>
      </trkpt>
      <trkpt lat="40.4656550" lon="-3.4866180">
        <ele>611.0</ele>
        <time>2020-09-29T18:20:39Z</time>
      </trkpt>
      <trkpt lat="40.4655420" lon="-3.4867920">
        <ele>611.0</ele>
        <time>2020-09-29T18:20:40Z</time>
      </trkpt>
      <trkpt lat="40.4655420" lon="-3.4867920">
        <ele>611.0</ele>
        <time>2020-09-29T18:20:41Z</time>
      </trkpt>
      <trkpt lat="40.4655420" lon="-3.4867920">
        <ele>611.0</ele>
        <time>2020-09-29T18:20:42Z</time>
      </trkpt>
      <trkpt lat="40.4654280" lon="-3.4869670">
        <ele>611.0</ele>
        <time>2020-09-29T18:20:43Z</time>
      </trkpt>
      <trkpt lat="40.4653150" lon="-3.4871420">
        <ele>611.0</ele>
        <time>2020-09-29T18:20:44Z</time>
      </trkpt>
      <trkpt lat="40.4652570" lon="-3.4872300">
        <ele>611.0</ele>
        <time>2020-09-29T18:20:45Z</time>
      </trkpt>
      <trkpt lat="40.4652570" lon="-3.4872300">
        <ele>611.0</ele>
        <time>2020-09-29T18:20:46Z</time>
      </trkpt>
      <trkpt lat="40.4651420" lon="-3.4874070">
        <ele>611.0</ele>
        <time>2020-09-29T18:20:47Z</time>
      </trkpt>
      <trkpt lat="40.4650830" lon="-3.4874920">
        <ele>611.0</ele>
        <time>2020-09-29T18:20:48Z</time>
      </trkpt>
      <trkpt lat="40.4650830" lon="-3.4874920">
        <ele>611.0</ele>
        <time>2020-09-29T18:20:49Z</time>
      </trkpt>
      <trkpt lat="40.4649670" lon="-3.4876520">
        <ele>611.0</ele>
        <time>2020-09-29T18:20:50Z</time>
      </trkpt>
      <trkpt lat="40.4649050" lon="-3.4877250">
        <ele>611.0</ele>
        <time>2020-09-29T18:20:51Z</time>
      </trkpt>
      <trkpt lat="40.4649050" lon="-3.4877250">
        <ele>611.0</ele>
        <time>2020-09-29T18:20:52Z</time>
      </trkpt>
      <trkpt lat="40.4647670" lon="-3.4878420">
        <ele>611.0</ele>
        <time>2020-09-29T18:20:53Z</time>
      </trkpt>
      <trkpt lat="40.4646950" lon="-3.4878880">
        <ele>612.0</ele>
        <time>2020-09-29T18:20:54Z</time>
      </trkpt>
      <trkpt lat="40.4646950" lon="-3.4878880">
        <ele>612.0</ele>
        <time>2020-09-29T18:20:55Z</time>
      </trkpt>
      <trkpt lat="40.4645570" lon="-3.4879600">
        <ele>613.0</ele>
        <time>2020-09-29T18:20:56Z</time>
      </trkpt>
      <trkpt lat="40.4644850" lon="-3.4879870">
        <ele>613.0</ele>
        <time>2020-09-29T18:20:57Z</time>
      </trkpt>
      <trkpt lat="40.4644850" lon="-3.4879870">
        <ele>614.0</ele>
        <time>2020-09-29T18:20:58Z</time>
      </trkpt>
      <trkpt lat="40.4643420" lon="-3.4880100">
        <ele>614.0</ele>
        <time>2020-09-29T18:20:59Z</time>
      </trkpt>
      <trkpt lat="40.4642730" lon="-3.4880070">
        <ele>615.0</ele>
        <time>2020-09-29T18:21:00Z</time>
      </trkpt>
      <trkpt lat="40.4642730" lon="-3.4880070">
        <ele>615.0</ele>
        <time>2020-09-29T18:21:01Z</time>
      </trkpt>
      <trkpt lat="40.4641400" lon="-3.4879780">
        <ele>615.0</ele>
        <time>2020-09-29T18:21:02Z</time>
      </trkpt>
      <trkpt lat="40.4641400" lon="-3.4879780">
        <ele>615.0</ele>
        <time>2020-09-29T18:21:03Z</time>
      </trkpt>
      <trkpt lat="40.4640100" lon="-3.4879300">
        <ele>616.0</ele>
        <time>2020-09-29T18:21:04Z</time>
      </trkpt>
      <trkpt lat="40.4640100" lon="-3.4879300">
        <ele>616.0</ele>
        <time>2020-09-29T18:21:05Z</time>
      </trkpt>
      <trkpt lat="40.4638920" lon="-3.4878480">
        <ele>616.0</ele>
        <time>2020-09-29T18:21:06Z</time>
      </trkpt>
      <trkpt lat="40.4638920" lon="-3.4878480">
        <ele>616.0</ele>
        <time>2020-09-29T18:21:07Z</time>
      </trkpt>
      <trkpt lat="40.4637820" lon="-3.4877450">
        <ele>617.0</ele>
        <time>2020-09-29T18:21:08Z</time>
      </trkpt>
      <trkpt lat="40.4637820" lon="-3.4877450">
        <ele>617.0</ele>
        <time>2020-09-29T18:21:09Z</time>
      </trkpt>
      <trkpt lat="40.4636870" lon="-3.4876180">
        <ele>617.0</ele>
        <time>2020-09-29T18:21:10Z</time>
      </trkpt>
      <trkpt lat="40.4636870" lon="-3.4876180">
        <ele>617.0</ele>
        <time>2020-09-29T18:21:11Z</time>
      </trkpt>
      <trkpt lat="40.4636080" lon="-3.4874670">
        <ele>617.0</ele>
        <time>2020-09-29T18:21:12Z</time>
      </trkpt>
      <trkpt lat="40.4635750" lon="-3.4873830">
        <ele>617.0</ele>
        <time>2020-09-29T18:21:13Z</time>
      </trkpt>
      <trkpt lat="40.4635750" lon="-3.4873830">
        <ele>617.0</ele>
        <time>2020-09-29T18:21:14Z</time>
      </trkpt>
      <trkpt lat="40.4635270" lon="-3.4872030">
        <ele>617.0</ele>
        <time>2020-09-29T18:21:15Z</time>
      </trkpt>
      <trkpt lat="40.4635270" lon="-3.4872030">
        <ele>617.0</ele>
        <time>2020-09-29T18:21:16Z</time>
      </trkpt>
      <trkpt lat="40.4634970" lon="-3.4870080">
        <ele>617.0</ele>
        <time>2020-09-29T18:21:17Z</time>
      </trkpt>
      <trkpt lat="40.4634900" lon="-3.4869080">
        <ele>617.0</ele>
        <time>2020-09-29T18:21:18Z</time>
      </trkpt>
      <trkpt lat="40.4634900" lon="-3.4869080">
        <ele>617.0</ele>
        <time>2020-09-29T18:21:19Z</time>
      </trkpt>
      <trkpt lat="40.4634950" lon="-3.4867030">
        <ele>617.0</ele>
        <time>2020-09-29T18:21:20Z</time>
      </trkpt>
      <trkpt lat="40.4635050" lon="-3.4866000">
        <ele>617.0</ele>
        <time>2020-09-29T18:21:21Z</time>
      </trkpt>
      <trkpt lat="40.4635050" lon="-3.4866000">
        <ele>617.0</ele>
        <time>2020-09-29T18:21:22Z</time>
      </trkpt>
      <trkpt lat="40.4635050" lon="-3.4866000">
        <ele>617.0</ele>
        <time>2020-09-29T18:21:23Z</time>
      </trkpt>
      <trkpt lat="40.4635320" lon="-3.4863980">
        <ele>617.0</ele>
        <time>2020-09-29T18:21:24Z</time>
      </trkpt>
      <trkpt lat="40.4635670" lon="-3.4861930">
        <ele>617.0</ele>
        <time>2020-09-29T18:21:25Z</time>
      </trkpt>
      <trkpt lat="40.4635670" lon="-3.4861930">
        <ele>617.0</ele>
        <time>2020-09-29T18:21:26Z</time>
      </trkpt>
      <trkpt lat="40.4636070" lon="-3.4859800">
        <ele>617.0</ele>
        <time>2020-09-29T18:21:27Z</time>
      </trkpt>
      <trkpt lat="40.4636070" lon="-3.4859800">
        <ele>617.0</ele>
        <time>2020-09-29T18:21:28Z</time>
      </trkpt>
      <trkpt lat="40.4636470" lon="-3.4857580">
        <ele>617.0</ele>
        <time>2020-09-29T18:21:29Z</time>
      </trkpt>
      <trkpt lat="40.4636700" lon="-3.4856470">
        <ele>617.0</ele>
        <time>2020-09-29T18:21:30Z</time>
      </trkpt>
      <trkpt lat="40.4636930" lon="-3.4855370">
        <ele>617.0</ele>
        <time>2020-09-29T18:21:31Z</time>
      </trkpt>
      <trkpt lat="40.4636930" lon="-3.4855370">
        <ele>617.0</ele>
        <time>2020-09-29T18:21:32Z</time>
      </trkpt>
      <trkpt lat="40.4637420" lon="-3.4853150">
        <ele>617.0</ele>
        <time>2020-09-29T18:21:33Z</time>
      </trkpt>
      <trkpt lat="40.4637420" lon="-3.4853150">
        <ele>616.0</ele>
        <time>2020-09-29T18:21:34Z</time>
      </trkpt>
      <trkpt lat="40.4637900" lon="-3.4850870">
        <ele>616.0</ele>
        <time>2020-09-29T18:21:35Z</time>
      </trkpt>
      <trkpt lat="40.4637900" lon="-3.4850870">
        <ele>616.0</ele>
        <time>2020-09-29T18:21:36Z</time>
      </trkpt>
      <trkpt lat="40.4638330" lon="-3.4848630">
        <ele>616.0</ele>
        <time>2020-09-29T18:21:37Z</time>
      </trkpt>
      <trkpt lat="40.4638330" lon="-3.4848630">
        <ele>616.0</ele>
        <time>2020-09-29T18:21:38Z</time>
      </trkpt>
      <trkpt lat="40.4638430" lon="-3.4846480">
        <ele>616.0</ele>
        <time>2020-09-29T18:21:39Z</time>
      </trkpt>
      <trkpt lat="40.4638430" lon="-3.4846480">
        <ele>616.0</ele>
        <time>2020-09-29T18:21:40Z</time>
      </trkpt>
      <trkpt lat="40.4637600" lon="-3.4844750">
        <ele>616.0</ele>
        <time>2020-09-29T18:21:41Z</time>
      </trkpt>
      <trkpt lat="40.4637600" lon="-3.4844750">
        <ele>616.0</ele>
        <time>2020-09-29T18:21:42Z</time>
      </trkpt>
      <trkpt lat="40.4636170" lon="-3.4843970">
        <ele>616.0</ele>
        <time>2020-09-29T18:21:43Z</time>
      </trkpt>
      <trkpt lat="40.4636170" lon="-3.4843970">
        <ele>616.0</ele>
        <time>2020-09-29T18:21:44Z</time>
      </trkpt>
      <trkpt lat="40.4634550" lon="-3.4843730">
        <ele>616.0</ele>
        <time>2020-09-29T18:21:45Z</time>
      </trkpt>
      <trkpt lat="40.4634550" lon="-3.4843730">
        <ele>616.0</ele>
        <time>2020-09-29T18:21:46Z</time>
      </trkpt>
      <trkpt lat="40.4632850" lon="-3.4843530">
        <ele>616.0</ele>
        <time>2020-09-29T18:21:47Z</time>
      </trkpt>
      <trkpt lat="40.4632000" lon="-3.4843380">
        <ele>616.0</ele>
        <time>2020-09-29T18:21:48Z</time>
      </trkpt>
      <trkpt lat="40.4632000" lon="-3.4843380">
        <ele>616.0</ele>
        <time>2020-09-29T18:21:49Z</time>
      </trkpt>
      <trkpt lat="40.4630230" lon="-3.4843150">
        <ele>616.0</ele>
        <time>2020-09-29T18:21:50Z</time>
      </trkpt>
      <trkpt lat="40.4630230" lon="-3.4843150">
        <ele>615.0</ele>
        <time>2020-09-29T18:21:51Z</time>
      </trkpt>
      <trkpt lat="40.4630230" lon="-3.4843150">
        <ele>615.0</ele>
        <time>2020-09-29T18:21:52Z</time>
      </trkpt>
      <trkpt lat="40.4628430" lon="-3.4842870">
        <ele>615.0</ele>
        <time>2020-09-29T18:21:53Z</time>
      </trkpt>
      <trkpt lat="40.4626550" lon="-3.4842580">
        <ele>615.0</ele>
        <time>2020-09-29T18:21:54Z</time>
      </trkpt>
      <trkpt lat="40.4626550" lon="-3.4842580">
        <ele>614.0</ele>
        <time>2020-09-29T18:21:55Z</time>
      </trkpt>
      <trkpt lat="40.4624600" lon="-3.4842300">
        <ele>614.0</ele>
        <time>2020-09-29T18:21:56Z</time>
      </trkpt>
      <trkpt lat="40.4624600" lon="-3.4842300">
        <ele>613.0</ele>
        <time>2020-09-29T18:21:57Z</time>
      </trkpt>
      <trkpt lat="40.4622570" lon="-3.4841950">
        <ele>613.0</ele>
        <time>2020-09-29T18:21:58Z</time>
      </trkpt>
      <trkpt lat="40.4622570" lon="-3.4841950">
        <ele>613.0</ele>
        <time>2020-09-29T18:21:59Z</time>
      </trkpt>
      <trkpt lat="40.4620520" lon="-3.4841650">
        <ele>613.0</ele>
        <time>2020-09-29T18:22:00Z</time>
      </trkpt>
      <trkpt lat="40.4620520" lon="-3.4841650">
        <ele>611.0</ele>
        <time>2020-09-29T18:22:01Z</time>
      </trkpt>
      <trkpt lat="40.4618430" lon="-3.4841230">
        <ele>610.0</ele>
        <time>2020-09-29T18:22:02Z</time>
      </trkpt>
      <trkpt lat="40.4618430" lon="-3.4841230">
        <ele>610.0</ele>
        <time>2020-09-29T18:22:03Z</time>
      </trkpt>
      <trkpt lat="40.4616300" lon="-3.4840850">
        <ele>610.0</ele>
        <time>2020-09-29T18:22:04Z</time>
      </trkpt>
      <trkpt lat="40.4616300" lon="-3.4840850">
        <ele>609.0</ele>
        <time>2020-09-29T18:22:05Z</time>
      </trkpt>
      <trkpt lat="40.4614150" lon="-3.4840470">
        <ele>609.0</ele>
        <time>2020-09-29T18:22:06Z</time>
      </trkpt>
      <trkpt lat="40.4614150" lon="-3.4840470">
        <ele>609.0</ele>
        <time>2020-09-29T18:22:07Z</time>
      </trkpt>
      <trkpt lat="40.4612030" lon="-3.4840050">
        <ele>608.0</ele>
        <time>2020-09-29T18:22:08Z</time>
      </trkpt>
      <trkpt lat="40.4611050" lon="-3.4839850">
        <ele>608.0</ele>
        <time>2020-09-29T18:22:09Z</time>
      </trkpt>
      <trkpt lat="40.4611050" lon="-3.4839850">
        <ele>608.0</ele>
        <time>2020-09-29T18:22:10Z</time>
      </trkpt>
      <trkpt lat="40.4609130" lon="-3.4839350">
        <ele>608.0</ele>
        <time>2020-09-29T18:22:11Z</time>
      </trkpt>
      <trkpt lat="40.4608180" lon="-3.4839120">
        <ele>608.0</ele>
        <time>2020-09-29T18:22:12Z</time>
      </trkpt>
      <trkpt lat="40.4608180" lon="-3.4839120">
        <ele>608.0</ele>
        <time>2020-09-29T18:22:13Z</time>
      </trkpt>
      <trkpt lat="40.4606300" lon="-3.4838730">
        <ele>607.0</ele>
        <time>2020-09-29T18:22:14Z</time>
      </trkpt>
      <trkpt lat="40.4605370" lon="-3.4838550">
        <ele>607.0</ele>
        <time>2020-09-29T18:22:15Z</time>
      </trkpt>
      <trkpt lat="40.4605370" lon="-3.4838550">
        <ele>607.0</ele>
        <time>2020-09-29T18:22:16Z</time>
      </trkpt>
      <trkpt lat="40.4603530" lon="-3.4838170">
        <ele>607.0</ele>
        <time>2020-09-29T18:22:17Z</time>
      </trkpt>
      <trkpt lat="40.4602650" lon="-3.4838070">
        <ele>607.0</ele>
        <time>2020-09-29T18:22:18Z</time>
      </trkpt>
      <trkpt lat="40.4602650" lon="-3.4838070">
        <ele>607.0</ele>
        <time>2020-09-29T18:22:19Z</time>
      </trkpt>
      <trkpt lat="40.4600920" lon="-3.4837700">
        <ele>606.0</ele>
        <time>2020-09-29T18:22:20Z</time>
      </trkpt>
      <trkpt lat="40.4600020" lon="-3.4837480">
        <ele>606.0</ele>
        <time>2020-09-29T18:22:21Z</time>
      </trkpt>
      <trkpt lat="40.4600020" lon="-3.4837480">
        <ele>606.0</ele>
        <time>2020-09-29T18:22:22Z</time>
      </trkpt>
      <trkpt lat="40.4598300" lon="-3.4837150">
        <ele>606.0</ele>
        <time>2020-09-29T18:22:23Z</time>
      </trkpt>
      <trkpt lat="40.4598300" lon="-3.4837150">
        <ele>606.0</ele>
        <time>2020-09-29T18:22:24Z</time>
      </trkpt>
      <trkpt lat="40.4596620" lon="-3.4836880">
        <ele>606.0</ele>
        <time>2020-09-29T18:22:25Z</time>
      </trkpt>
      <trkpt lat="40.4596620" lon="-3.4836880">
        <ele>606.0</ele>
        <time>2020-09-29T18:22:26Z</time>
      </trkpt>
      <trkpt lat="40.4594970" lon="-3.4836620">
        <ele>606.0</ele>
        <time>2020-09-29T18:22:27Z</time>
      </trkpt>
      <trkpt lat="40.4594200" lon="-3.4836520">
        <ele>606.0</ele>
        <time>2020-09-29T18:22:28Z</time>
      </trkpt>
      <trkpt lat="40.4594200" lon="-3.4836520">
        <ele>606.0</ele>
        <time>2020-09-29T18:22:29Z</time>
      </trkpt>
      <trkpt lat="40.4592950" lon="-3.4836200">
        <ele>606.0</ele>
        <time>2020-09-29T18:22:30Z</time>
      </trkpt>
      <trkpt lat="40.4592950" lon="-3.4836200">
        <ele>606.0</ele>
        <time>2020-09-29T18:22:31Z</time>
      </trkpt>
      <trkpt lat="40.4591620" lon="-3.4836180">
        <ele>606.0</ele>
        <time>2020-09-29T18:22:32Z</time>
      </trkpt>
      <trkpt lat="40.4591620" lon="-3.4836180">
        <ele>606.0</ele>
        <time>2020-09-29T18:22:33Z</time>
      </trkpt>
      <trkpt lat="40.4590270" lon="-3.4836050">
        <ele>605.0</ele>
        <time>2020-09-29T18:22:34Z</time>
      </trkpt>
      <trkpt lat="40.4590270" lon="-3.4836050">
        <ele>605.0</ele>
        <time>2020-09-29T18:22:35Z</time>
      </trkpt>
      <trkpt lat="40.4588980" lon="-3.4835950">
        <ele>605.0</ele>
        <time>2020-09-29T18:22:36Z</time>
      </trkpt>
      <trkpt lat="40.4588980" lon="-3.4835950">
        <ele>605.0</ele>
        <time>2020-09-29T18:22:37Z</time>
      </trkpt>
      <trkpt lat="40.4587720" lon="-3.4835750">
        <ele>605.0</ele>
        <time>2020-09-29T18:22:38Z</time>
      </trkpt>
      <trkpt lat="40.4587720" lon="-3.4835750">
        <ele>605.0</ele>
        <time>2020-09-29T18:22:39Z</time>
      </trkpt>
      <trkpt lat="40.4587720" lon="-3.4835750">
        <ele>605.0</ele>
        <time>2020-09-29T18:22:40Z</time>
      </trkpt>
      <trkpt lat="40.4586230" lon="-3.4835450">
        <ele>605.0</ele>
        <time>2020-09-29T18:22:41Z</time>
      </trkpt>
      <trkpt lat="40.4586230" lon="-3.4835450">
        <ele>605.0</ele>
        <time>2020-09-29T18:22:42Z</time>
      </trkpt>
      <trkpt lat="40.4585300" lon="-3.4835300">
        <ele>605.0</ele>
        <time>2020-09-29T18:22:43Z</time>
      </trkpt>
      <trkpt lat="40.4585300" lon="-3.4835300">
        <ele>605.0</ele>
        <time>2020-09-29T18:22:44Z</time>
      </trkpt>
      <trkpt lat="40.4584370" lon="-3.4835150">
        <ele>605.0</ele>
        <time>2020-09-29T18:22:45Z</time>
      </trkpt>
      <trkpt lat="40.4584370" lon="-3.4835150">
        <ele>605.0</ele>
        <time>2020-09-29T18:22:46Z</time>
      </trkpt>
      <trkpt lat="40.4583680" lon="-3.4835080">
        <ele>605.0</ele>
        <time>2020-09-29T18:22:47Z</time>
      </trkpt>
      <trkpt lat="40.4583680" lon="-3.4835080">
        <ele>605.0</ele>
        <time>2020-09-29T18:22:48Z</time>
      </trkpt>
      <trkpt lat="40.4583380" lon="-3.4835070">
        <ele>605.0</ele>
        <time>2020-09-29T18:22:49Z</time>
      </trkpt>
      <trkpt lat="40.4583380" lon="-3.4835070">
        <ele>605.0</ele>
        <time>2020-09-29T18:22:50Z</time>
      </trkpt>
      <trkpt lat="40.4583300" lon="-3.4835050">
        <ele>605.0</ele>
        <time>2020-09-29T18:22:51Z</time>
      </trkpt>
      <trkpt lat="40.4583300" lon="-3.4835050">
        <ele>605.0</ele>
        <time>2020-09-29T18:22:52Z</time>
      </trkpt>
      <trkpt lat="40.4583250" lon="-3.4835080">
        <ele>604.0</ele>
        <time>2020-09-29T18:22:53Z</time>
      </trkpt>
      <trkpt lat="40.4582170" lon="-3.4834630">
        <ele>604.0</ele>
        <time>2020-09-29T18:22:54Z</time>
      </trkpt>
      <trkpt lat="40.4582170" lon="-3.4834630">
        <ele>604.0</ele>
        <time>2020-09-29T18:23:07Z</time>
      </trkpt>
      <trkpt lat="40.4581130" lon="-3.4834120">
        <ele>604.0</ele>
        <time>2020-09-29T18:23:08Z</time>
      </trkpt>
      <trkpt lat="40.4581130" lon="-3.4834120">
        <ele>604.0</ele>
        <time>2020-09-29T18:23:09Z</time>
      </trkpt>
      <trkpt lat="40.4580280" lon="-3.4833970">
        <ele>604.0</ele>
        <time>2020-09-29T18:23:10Z</time>
      </trkpt>
      <trkpt lat="40.4580280" lon="-3.4833970">
        <ele>604.0</ele>
        <time>2020-09-29T18:23:11Z</time>
      </trkpt>
      <trkpt lat="40.4579280" lon="-3.4834030">
        <ele>604.0</ele>
        <time>2020-09-29T18:23:12Z</time>
      </trkpt>
      <trkpt lat="40.4579280" lon="-3.4834030">
        <ele>604.0</ele>
        <time>2020-09-29T18:23:13Z</time>
      </trkpt>
      <trkpt lat="40.4578100" lon="-3.4833830">
        <ele>604.0</ele>
        <time>2020-09-29T18:23:14Z</time>
      </trkpt>
      <trkpt lat="40.4577430" lon="-3.4833750">
        <ele>604.0</ele>
        <time>2020-09-29T18:23:15Z</time>
      </trkpt>
      <trkpt lat="40.4577430" lon="-3.4833750">
        <ele>604.0</ele>
        <time>2020-09-29T18:23:16Z</time>
      </trkpt>
      <trkpt lat="40.4576050" lon="-3.4833600">
        <ele>604.0</ele>
        <time>2020-09-29T18:23:17Z</time>
      </trkpt>
      <trkpt lat="40.4575370" lon="-3.4833530">
        <ele>604.0</ele>
        <time>2020-09-29T18:23:18Z</time>
      </trkpt>
      <trkpt lat="40.4575370" lon="-3.4833530">
        <ele>604.0</ele>
        <time>2020-09-29T18:23:19Z</time>
      </trkpt>
      <trkpt lat="40.4573870" lon="-3.4833400">
        <ele>604.0</ele>
        <time>2020-09-29T18:23:20Z</time>
      </trkpt>
      <trkpt lat="40.4573870" lon="-3.4833400">
        <ele>604.0</ele>
        <time>2020-09-29T18:23:21Z</time>
      </trkpt>
      <trkpt lat="40.4572320" lon="-3.4833130">
        <ele>604.0</ele>
        <time>2020-09-29T18:23:22Z</time>
      </trkpt>
      <trkpt lat="40.4571500" lon="-3.4833000">
        <ele>604.0</ele>
        <time>2020-09-29T18:23:23Z</time>
      </trkpt>
      <trkpt lat="40.4571500" lon="-3.4833000">
        <ele>604.0</ele>
        <time>2020-09-29T18:23:24Z</time>
      </trkpt>
      <trkpt lat="40.4569900" lon="-3.4832730">
        <ele>604.0</ele>
        <time>2020-09-29T18:23:25Z</time>
      </trkpt>
      <trkpt lat="40.4569900" lon="-3.4832730">
        <ele>604.0</ele>
        <time>2020-09-29T18:23:26Z</time>
      </trkpt>
      <trkpt lat="40.4568330" lon="-3.4832500">
        <ele>604.0</ele>
        <time>2020-09-29T18:23:27Z</time>
      </trkpt>
      <trkpt lat="40.4568330" lon="-3.4832500">
        <ele>604.0</ele>
        <time>2020-09-29T18:23:28Z</time>
      </trkpt>
      <trkpt lat="40.4566770" lon="-3.4832250">
        <ele>604.0</ele>
        <time>2020-09-29T18:23:29Z</time>
      </trkpt>
      <trkpt lat="40.4565950" lon="-3.4832130">
        <ele>603.0</ele>
        <time>2020-09-29T18:23:30Z</time>
      </trkpt>
      <trkpt lat="40.4565950" lon="-3.4832130">
        <ele>603.0</ele>
        <time>2020-09-29T18:23:31Z</time>
      </trkpt>
      <trkpt lat="40.4564300" lon="-3.4831920">
        <ele>603.0</ele>
        <time>2020-09-29T18:23:32Z</time>
      </trkpt>
      <trkpt lat="40.4564300" lon="-3.4831920">
        <ele>603.0</ele>
        <time>2020-09-29T18:23:33Z</time>
      </trkpt>
      <trkpt lat="40.4562630" lon="-3.4831800">
        <ele>603.0</ele>
        <time>2020-09-29T18:23:34Z</time>
      </trkpt>
      <trkpt lat="40.4562630" lon="-3.4831800">
        <ele>603.0</ele>
        <time>2020-09-29T18:23:35Z</time>
      </trkpt>
      <trkpt lat="40.4561020" lon="-3.4832230">
        <ele>603.0</ele>
        <time>2020-09-29T18:23:36Z</time>
      </trkpt>
      <trkpt lat="40.4561020" lon="-3.4832230">
        <ele>603.0</ele>
        <time>2020-09-29T18:23:37Z</time>
      </trkpt>
      <trkpt lat="40.4561020" lon="-3.4832230">
        <ele>603.0</ele>
        <time>2020-09-29T18:23:38Z</time>
      </trkpt>
      <trkpt lat="40.4559520" lon="-3.4833120">
        <ele>603.0</ele>
        <time>2020-09-29T18:23:39Z</time>
      </trkpt>
      <trkpt lat="40.4558130" lon="-3.4834130">
        <ele>603.0</ele>
        <time>2020-09-29T18:23:40Z</time>
      </trkpt>
      <trkpt lat="40.4557420" lon="-3.4834580">
        <ele>603.0</ele>
        <time>2020-09-29T18:23:41Z</time>
      </trkpt>
      <trkpt lat="40.4557420" lon="-3.4834580">
        <ele>603.0</ele>
        <time>2020-09-29T18:23:42Z</time>
      </trkpt>
      <trkpt lat="40.4556120" lon="-3.4835620">
        <ele>603.0</ele>
        <time>2020-09-29T18:23:43Z</time>
      </trkpt>
      <trkpt lat="40.4556120" lon="-3.4835620">
        <ele>603.0</ele>
        <time>2020-09-29T18:23:44Z</time>
      </trkpt>
      <trkpt lat="40.4554950" lon="-3.4837130">
        <ele>603.0</ele>
        <time>2020-09-29T18:23:45Z</time>
      </trkpt>
      <trkpt lat="40.4554330" lon="-3.4837920">
        <ele>603.0</ele>
        <time>2020-09-29T18:23:46Z</time>
      </trkpt>
      <trkpt lat="40.4553600" lon="-3.4838520">
        <ele>603.0</ele>
        <time>2020-09-29T18:23:47Z</time>
      </trkpt>
      <trkpt lat="40.4552880" lon="-3.4838800">
        <ele>603.0</ele>
        <time>2020-09-29T18:23:48Z</time>
      </trkpt>
      <trkpt lat="40.4552880" lon="-3.4838800">
        <ele>603.0</ele>
        <time>2020-09-29T18:23:49Z</time>
      </trkpt>
      <trkpt lat="40.4551450" lon="-3.4838920">
        <ele>602.0</ele>
        <time>2020-09-29T18:23:50Z</time>
      </trkpt>
      <trkpt lat="40.4551450" lon="-3.4838920">
        <ele>602.0</ele>
        <time>2020-09-29T18:23:51Z</time>
      </trkpt>
      <trkpt lat="40.4550050" lon="-3.4839250">
        <ele>602.0</ele>
        <time>2020-09-29T18:23:52Z</time>
      </trkpt>
      <trkpt lat="40.4549380" lon="-3.4839580">
        <ele>602.0</ele>
        <time>2020-09-29T18:23:53Z</time>
      </trkpt>
      <trkpt lat="40.4548720" lon="-3.4839930">
        <ele>602.0</ele>
        <time>2020-09-29T18:23:54Z</time>
      </trkpt>
      <trkpt lat="40.4548720" lon="-3.4839930">
        <ele>602.0</ele>
        <time>2020-09-29T18:23:55Z</time>
      </trkpt>
      <trkpt lat="40.4547450" lon="-3.4840680">
        <ele>602.0</ele>
        <time>2020-09-29T18:23:56Z</time>
      </trkpt>
      <trkpt lat="40.4546830" lon="-3.4841020">
        <ele>602.0</ele>
        <time>2020-09-29T18:23:57Z</time>
      </trkpt>
      <trkpt lat="40.4546830" lon="-3.4841020">
        <ele>602.0</ele>
        <time>2020-09-29T18:23:58Z</time>
      </trkpt>
      <trkpt lat="40.4545630" lon="-3.4841620">
        <ele>602.0</ele>
        <time>2020-09-29T18:23:59Z</time>
      </trkpt>
      <trkpt lat="40.4545630" lon="-3.4841620">
        <ele>603.0</ele>
        <time>2020-09-29T18:24:00Z</time>
      </trkpt>
      <trkpt lat="40.4544550" lon="-3.4842170">
        <ele>603.0</ele>
        <time>2020-09-29T18:24:01Z</time>
      </trkpt>
      <trkpt lat="40.4544550" lon="-3.4842170">
        <ele>603.0</ele>
        <time>2020-09-29T18:24:02Z</time>
      </trkpt>
      <trkpt lat="40.4543430" lon="-3.4842630">
        <ele>603.0</ele>
        <time>2020-09-29T18:24:03Z</time>
      </trkpt>
      <trkpt lat="40.4543430" lon="-3.4842630">
        <ele>605.0</ele>
        <time>2020-09-29T18:24:04Z</time>
      </trkpt>
      <trkpt lat="40.4542350" lon="-3.4843020">
        <ele>605.0</ele>
        <time>2020-09-29T18:24:05Z</time>
      </trkpt>
      <trkpt lat="40.4541820" lon="-3.4843220">
        <ele>606.0</ele>
        <time>2020-09-29T18:24:06Z</time>
      </trkpt>
      <trkpt lat="40.4541560" lon="-3.4843300">
        <ele>606.0</ele>
        <time>2020-09-29T18:24:07Z</time>
      </trkpt>
      <trkpt lat="40.4541290" lon="-3.4843370">
        <ele>607.0</ele>
        <time>2020-09-29T18:24:08Z</time>
      </trkpt>
      <trkpt lat="40.4540750" lon="-3.4843520">
        <ele>607.0</ele>
        <time>2020-09-29T18:24:09Z</time>
      </trkpt>
      <trkpt lat="40.4539650" lon="-3.4843700">
        <ele>607.0</ele>
        <time>2020-09-29T18:24:10Z</time>
      </trkpt>
      <trkpt lat="40.4539650" lon="-3.4843700">
        <ele>607.0</ele>
        <time>2020-09-29T18:24:11Z</time>
      </trkpt>
      <trkpt lat="40.4538580" lon="-3.4843720">
        <ele>608.0</ele>
        <time>2020-09-29T18:24:12Z</time>
      </trkpt>
      <trkpt lat="40.4538580" lon="-3.4843720">
        <ele>608.0</ele>
        <time>2020-09-29T18:24:13Z</time>
      </trkpt>
      <trkpt lat="40.4537500" lon="-3.4843780">
        <ele>608.0</ele>
        <time>2020-09-29T18:24:14Z</time>
      </trkpt>
      <trkpt lat="40.4537500" lon="-3.4843780">
        <ele>608.0</ele>
        <time>2020-09-29T18:24:15Z</time>
      </trkpt>
      <trkpt lat="40.4536450" lon="-3.4843880">
        <ele>609.0</ele>
        <time>2020-09-29T18:24:16Z</time>
      </trkpt>
      <trkpt lat="40.4536450" lon="-3.4843880">
        <ele>609.0</ele>
        <time>2020-09-29T18:24:17Z</time>
      </trkpt>
      <trkpt lat="40.4535370" lon="-3.4843880">
        <ele>609.0</ele>
        <time>2020-09-29T18:24:18Z</time>
      </trkpt>
      <trkpt lat="40.4535370" lon="-3.4843880">
        <ele>609.0</ele>
        <time>2020-09-29T18:24:19Z</time>
      </trkpt>
      <trkpt lat="40.4534300" lon="-3.4843770">
        <ele>610.0</ele>
        <time>2020-09-29T18:24:20Z</time>
      </trkpt>
      <trkpt lat="40.4534300" lon="-3.4843770">
        <ele>610.0</ele>
        <time>2020-09-29T18:24:21Z</time>
      </trkpt>
      <trkpt lat="40.4533200" lon="-3.4843480">
        <ele>610.0</ele>
        <time>2020-09-29T18:24:22Z</time>
      </trkpt>
      <trkpt lat="40.4533200" lon="-3.4843480">
        <ele>610.0</ele>
        <time>2020-09-29T18:24:23Z</time>
      </trkpt>
      <trkpt lat="40.4532050" lon="-3.4843100">
        <ele>610.0</ele>
        <time>2020-09-29T18:24:24Z</time>
      </trkpt>
      <trkpt lat="40.4532050" lon="-3.4843100">
        <ele>610.0</ele>
        <time>2020-09-29T18:24:25Z</time>
      </trkpt>
      <trkpt lat="40.4530850" lon="-3.4842620">
        <ele>610.0</ele>
        <time>2020-09-29T18:24:26Z</time>
      </trkpt>
      <trkpt lat="40.4530850" lon="-3.4842620">
        <ele>610.0</ele>
        <time>2020-09-29T18:24:27Z</time>
      </trkpt>
      <trkpt lat="40.4529620" lon="-3.4842030">
        <ele>610.0</ele>
        <time>2020-09-29T18:24:28Z</time>
      </trkpt>
      <trkpt lat="40.4529620" lon="-3.4842030">
        <ele>610.0</ele>
        <time>2020-09-29T18:24:29Z</time>
      </trkpt>
      <trkpt lat="40.4528280" lon="-3.4841430">
        <ele>610.0</ele>
        <time>2020-09-29T18:24:30Z</time>
      </trkpt>
      <trkpt lat="40.4528280" lon="-3.4841430">
        <ele>610.0</ele>
        <time>2020-09-29T18:24:31Z</time>
      </trkpt>
      <trkpt lat="40.4526870" lon="-3.4840780">
        <ele>610.0</ele>
        <time>2020-09-29T18:24:32Z</time>
      </trkpt>
      <trkpt lat="40.4526870" lon="-3.4840780">
        <ele>610.0</ele>
        <time>2020-09-29T18:24:33Z</time>
      </trkpt>
      <trkpt lat="40.4525350" lon="-3.4840070">
        <ele>609.0</ele>
        <time>2020-09-29T18:24:34Z</time>
      </trkpt>
      <trkpt lat="40.4524530" lon="-3.4839700">
        <ele>609.0</ele>
        <time>2020-09-29T18:24:35Z</time>
      </trkpt>
      <trkpt lat="40.4523720" lon="-3.4839300">
        <ele>609.0</ele>
        <time>2020-09-29T18:24:36Z</time>
      </trkpt>
      <trkpt lat="40.4523720" lon="-3.4839300">
        <ele>608.0</ele>
        <time>2020-09-29T18:24:37Z</time>
      </trkpt>
      <trkpt lat="40.4521970" lon="-3.4838470">
        <ele>608.0</ele>
        <time>2020-09-29T18:24:38Z</time>
      </trkpt>
      <trkpt lat="40.4521970" lon="-3.4838470">
        <ele>608.0</ele>
        <time>2020-09-29T18:24:39Z</time>
      </trkpt>
      <trkpt lat="40.4520120" lon="-3.4837580">
        <ele>607.0</ele>
        <time>2020-09-29T18:24:40Z</time>
      </trkpt>
      <trkpt lat="40.4520120" lon="-3.4837580">
        <ele>607.0</ele>
        <time>2020-09-29T18:24:41Z</time>
      </trkpt>
      <trkpt lat="40.4518180" lon="-3.4836680">
        <ele>606.0</ele>
        <time>2020-09-29T18:24:42Z</time>
      </trkpt>
      <trkpt lat="40.4518180" lon="-3.4836680">
        <ele>606.0</ele>
        <time>2020-09-29T18:24:43Z</time>
      </trkpt>
      <trkpt lat="40.4516150" lon="-3.4835770">
        <ele>604.0</ele>
        <time>2020-09-29T18:24:44Z</time>
      </trkpt>
      <trkpt lat="40.4515100" lon="-3.4835280">
        <ele>604.0</ele>
        <time>2020-09-29T18:24:45Z</time>
      </trkpt>
      <trkpt lat="40.4515100" lon="-3.4835280">
        <ele>603.0</ele>
        <time>2020-09-29T18:24:46Z</time>
      </trkpt>
      <trkpt lat="40.4513000" lon="-3.4834280">
        <ele>603.0</ele>
        <time>2020-09-29T18:24:47Z</time>
      </trkpt>
      <trkpt lat="40.4511930" lon="-3.4833780">
        <ele>602.0</ele>
        <time>2020-09-29T18:24:48Z</time>
      </trkpt>
      <trkpt lat="40.4511930" lon="-3.4833780">
        <ele>602.0</ele>
        <time>2020-09-29T18:24:49Z</time>
      </trkpt>
      <trkpt lat="40.4509880" lon="-3.4832820">
        <ele>602.0</ele>
        <time>2020-09-29T18:24:50Z</time>
      </trkpt>
      <trkpt lat="40.4509880" lon="-3.4832820">
        <ele>602.0</ele>
        <time>2020-09-29T18:24:51Z</time>
      </trkpt>
      <trkpt lat="40.4509880" lon="-3.4832820">
        <ele>601.0</ele>
        <time>2020-09-29T18:24:52Z</time>
      </trkpt>
      <trkpt lat="40.4507850" lon="-3.4831870">
        <ele>601.0</ele>
        <time>2020-09-29T18:24:53Z</time>
      </trkpt>
      <trkpt lat="40.4505820" lon="-3.4830970">
        <ele>601.0</ele>
        <time>2020-09-29T18:24:54Z</time>
      </trkpt>
      <trkpt lat="40.4505820" lon="-3.4830970">
        <ele>601.0</ele>
        <time>2020-09-29T18:24:55Z</time>
      </trkpt>
      <trkpt lat="40.4503800" lon="-3.4830070">
        <ele>600.0</ele>
        <time>2020-09-29T18:24:56Z</time>
      </trkpt>
      <trkpt lat="40.4503800" lon="-3.4830070">
        <ele>600.0</ele>
        <time>2020-09-29T18:24:57Z</time>
      </trkpt>
      <trkpt lat="40.4501820" lon="-3.4829220">
        <ele>600.0</ele>
        <time>2020-09-29T18:24:58Z</time>
      </trkpt>
      <trkpt lat="40.4501820" lon="-3.4829220">
        <ele>600.0</ele>
        <time>2020-09-29T18:24:59Z</time>
      </trkpt>
      <trkpt lat="40.4499830" lon="-3.4828430">
        <ele>600.0</ele>
        <time>2020-09-29T18:25:00Z</time>
      </trkpt>
      <trkpt lat="40.4499830" lon="-3.4828430">
        <ele>600.0</ele>
        <time>2020-09-29T18:25:01Z</time>
      </trkpt>
      <trkpt lat="40.4497900" lon="-3.4827700">
        <ele>600.0</ele>
        <time>2020-09-29T18:25:02Z</time>
      </trkpt>
      <trkpt lat="40.4497900" lon="-3.4827700">
        <ele>600.0</ele>
        <time>2020-09-29T18:25:03Z</time>
      </trkpt>
      <trkpt lat="40.4495980" lon="-3.4827050">
        <ele>600.0</ele>
        <time>2020-09-29T18:25:04Z</time>
      </trkpt>
      <trkpt lat="40.4495980" lon="-3.4827050">
        <ele>600.0</ele>
        <time>2020-09-29T18:25:05Z</time>
      </trkpt>
      <trkpt lat="40.4494080" lon="-3.4826480">
        <ele>599.0</ele>
        <time>2020-09-29T18:25:06Z</time>
      </trkpt>
      <trkpt lat="40.4494080" lon="-3.4826480">
        <ele>599.0</ele>
        <time>2020-09-29T18:25:07Z</time>
      </trkpt>
      <trkpt lat="40.4492230" lon="-3.4825920">
        <ele>599.0</ele>
        <time>2020-09-29T18:25:08Z</time>
      </trkpt>
      <trkpt lat="40.4491320" lon="-3.4825650">
        <ele>599.0</ele>
        <time>2020-09-29T18:25:09Z</time>
      </trkpt>
      <trkpt lat="40.4490420" lon="-3.4825370">
        <ele>599.0</ele>
        <time>2020-09-29T18:25:10Z</time>
      </trkpt>
      <trkpt lat="40.4490420" lon="-3.4825370">
        <ele>599.0</ele>
        <time>2020-09-29T18:25:11Z</time>
      </trkpt>
      <trkpt lat="40.4488600" lon="-3.4824820">
        <ele>599.0</ele>
        <time>2020-09-29T18:25:12Z</time>
      </trkpt>
      <trkpt lat="40.4488600" lon="-3.4824820">
        <ele>599.0</ele>
        <time>2020-09-29T18:25:13Z</time>
      </trkpt>
      <trkpt lat="40.4486780" lon="-3.4824280">
        <ele>599.0</ele>
        <time>2020-09-29T18:25:14Z</time>
      </trkpt>
      <trkpt lat="40.4486780" lon="-3.4824280">
        <ele>599.0</ele>
        <time>2020-09-29T18:25:15Z</time>
      </trkpt>
      <trkpt lat="40.4484970" lon="-3.4823730">
        <ele>599.0</ele>
        <time>2020-09-29T18:25:16Z</time>
      </trkpt>
      <trkpt lat="40.4484970" lon="-3.4823730">
        <ele>599.0</ele>
        <time>2020-09-29T18:25:17Z</time>
      </trkpt>
      <trkpt lat="40.4483170" lon="-3.4823170">
        <ele>599.0</ele>
        <time>2020-09-29T18:25:18Z</time>
      </trkpt>
      <trkpt lat="40.4483170" lon="-3.4823170">
        <ele>599.0</ele>
        <time>2020-09-29T18:25:19Z</time>
      </trkpt>
      <trkpt lat="40.4481400" lon="-3.4822580">
        <ele>599.0</ele>
        <time>2020-09-29T18:25:20Z</time>
      </trkpt>
      <trkpt lat="40.4481400" lon="-3.4822580">
        <ele>599.0</ele>
        <time>2020-09-29T18:25:21Z</time>
      </trkpt>
      <trkpt lat="40.4479630" lon="-3.4822050">
        <ele>599.0</ele>
        <time>2020-09-29T18:25:22Z</time>
      </trkpt>
      <trkpt lat="40.4479630" lon="-3.4822050">
        <ele>599.0</ele>
        <time>2020-09-29T18:25:23Z</time>
      </trkpt>
      <trkpt lat="40.4477880" lon="-3.4821470">
        <ele>599.0</ele>
        <time>2020-09-29T18:25:24Z</time>
      </trkpt>
      <trkpt lat="40.4477880" lon="-3.4821470">
        <ele>599.0</ele>
        <time>2020-09-29T18:25:25Z</time>
      </trkpt>
      <trkpt lat="40.4476120" lon="-3.4820900">
        <ele>599.0</ele>
        <time>2020-09-29T18:25:26Z</time>
      </trkpt>
      <trkpt lat="40.4476120" lon="-3.4820900">
        <ele>599.0</ele>
        <time>2020-09-29T18:25:27Z</time>
      </trkpt>
      <trkpt lat="40.4474380" lon="-3.4820380">
        <ele>599.0</ele>
        <time>2020-09-29T18:25:28Z</time>
      </trkpt>
      <trkpt lat="40.4474380" lon="-3.4820380">
        <ele>599.0</ele>
        <time>2020-09-29T18:25:29Z</time>
      </trkpt>
      <trkpt lat="40.4472630" lon="-3.4819870">
        <ele>599.0</ele>
        <time>2020-09-29T18:25:30Z</time>
      </trkpt>
      <trkpt lat="40.4472630" lon="-3.4819870">
        <ele>599.0</ele>
        <time>2020-09-29T18:25:31Z</time>
      </trkpt>
      <trkpt lat="40.4470920" lon="-3.4819330">
        <ele>599.0</ele>
        <time>2020-09-29T18:25:32Z</time>
      </trkpt>
      <trkpt lat="40.4470050" lon="-3.4819080">
        <ele>599.0</ele>
        <time>2020-09-29T18:25:33Z</time>
      </trkpt>
      <trkpt lat="40.4470050" lon="-3.4819080">
        <ele>599.0</ele>
        <time>2020-09-29T18:25:34Z</time>
      </trkpt>
      <trkpt lat="40.4468350" lon="-3.4818550">
        <ele>599.0</ele>
        <time>2020-09-29T18:25:35Z</time>
      </trkpt>
      <trkpt lat="40.4467480" lon="-3.4818470">
        <ele>599.0</ele>
        <time>2020-09-29T18:25:36Z</time>
      </trkpt>
      <trkpt lat="40.4467480" lon="-3.4818470">
        <ele>599.0</ele>
        <time>2020-09-29T18:25:37Z</time>
      </trkpt>
      <trkpt lat="40.4465830" lon="-3.4819030">
        <ele>599.0</ele>
        <time>2020-09-29T18:25:38Z</time>
      </trkpt>
      <trkpt lat="40.4465070" lon="-3.4819480">
        <ele>599.0</ele>
        <time>2020-09-29T18:25:39Z</time>
      </trkpt>
      <trkpt lat="40.4465070" lon="-3.4819480">
        <ele>599.0</ele>
        <time>2020-09-29T18:25:40Z</time>
      </trkpt>
      <trkpt lat="40.4463430" lon="-3.4820100">
        <ele>599.0</ele>
        <time>2020-09-29T18:25:41Z</time>
      </trkpt>
      <trkpt lat="40.4462550" lon="-3.4820200">
        <ele>599.0</ele>
        <time>2020-09-29T18:25:42Z</time>
      </trkpt>
      <trkpt lat="40.4462550" lon="-3.4820200">
        <ele>599.0</ele>
        <time>2020-09-29T18:25:43Z</time>
      </trkpt>
      <trkpt lat="40.4460880" lon="-3.4819820">
        <ele>599.0</ele>
        <time>2020-09-29T18:25:44Z</time>
      </trkpt>
      <trkpt lat="40.4460880" lon="-3.4819820">
        <ele>599.0</ele>
        <time>2020-09-29T18:25:45Z</time>
      </trkpt>
      <trkpt lat="40.4459430" lon="-3.4818630">
        <ele>599.0</ele>
        <time>2020-09-29T18:25:46Z</time>
      </trkpt>
      <trkpt lat="40.4459430" lon="-3.4818630">
        <ele>599.0</ele>
        <time>2020-09-29T18:25:47Z</time>
      </trkpt>
      <trkpt lat="40.4458170" lon="-3.4817150">
        <ele>599.0</ele>
        <time>2020-09-29T18:25:48Z</time>
      </trkpt>
      <trkpt lat="40.4458170" lon="-3.4817150">
        <ele>599.0</ele>
        <time>2020-09-29T18:25:49Z</time>
      </trkpt>
      <trkpt lat="40.4456600" lon="-3.4816370">
        <ele>599.0</ele>
        <time>2020-09-29T18:25:50Z</time>
      </trkpt>
      <trkpt lat="40.4456600" lon="-3.4816370">
        <ele>599.0</ele>
        <time>2020-09-29T18:25:51Z</time>
      </trkpt>
      <trkpt lat="40.4454880" lon="-3.4816270">
        <ele>599.0</ele>
        <time>2020-09-29T18:25:52Z</time>
      </trkpt>
      <trkpt lat="40.4454880" lon="-3.4816270">
        <ele>599.0</ele>
        <time>2020-09-29T18:25:53Z</time>
      </trkpt>
      <trkpt lat="40.4453150" lon="-3.4816180">
        <ele>599.0</ele>
        <time>2020-09-29T18:25:54Z</time>
      </trkpt>
      <trkpt lat="40.4453150" lon="-3.4816180">
        <ele>599.0</ele>
        <time>2020-09-29T18:25:55Z</time>
      </trkpt>
      <trkpt lat="40.4451420" lon="-3.4816180">
        <ele>599.0</ele>
        <time>2020-09-29T18:25:56Z</time>
      </trkpt>
      <trkpt lat="40.4450550" lon="-3.4816220">
        <ele>599.0</ele>
        <time>2020-09-29T18:25:57Z</time>
      </trkpt>
      <trkpt lat="40.4450550" lon="-3.4816220">
        <ele>599.0</ele>
        <time>2020-09-29T18:25:58Z</time>
      </trkpt>
      <trkpt lat="40.4448820" lon="-3.4816400">
        <ele>599.0</ele>
        <time>2020-09-29T18:25:59Z</time>
      </trkpt>
      <trkpt lat="40.4447930" lon="-3.4816530">
        <ele>599.0</ele>
        <time>2020-09-29T18:26:00Z</time>
      </trkpt>
      <trkpt lat="40.4447930" lon="-3.4816530">
        <ele>599.0</ele>
        <time>2020-09-29T18:26:01Z</time>
      </trkpt>
      <trkpt lat="40.4446220" lon="-3.4816950">
        <ele>599.0</ele>
        <time>2020-09-29T18:26:02Z</time>
      </trkpt>
      <trkpt lat="40.4445370" lon="-3.4817270">
        <ele>599.0</ele>
        <time>2020-09-29T18:26:03Z</time>
      </trkpt>
      <trkpt lat="40.4445370" lon="-3.4817270">
        <ele>599.0</ele>
        <time>2020-09-29T18:26:04Z</time>
      </trkpt>
      <trkpt lat="40.4443720" lon="-3.4818020">
        <ele>599.0</ele>
        <time>2020-09-29T18:26:05Z</time>
      </trkpt>
      <trkpt lat="40.4442920" lon="-3.4818450">
        <ele>599.0</ele>
        <time>2020-09-29T18:26:06Z</time>
      </trkpt>
      <trkpt lat="40.4442920" lon="-3.4818450">
        <ele>599.0</ele>
        <time>2020-09-29T18:26:07Z</time>
      </trkpt>
      <trkpt lat="40.4441370" lon="-3.4819500">
        <ele>599.0</ele>
        <time>2020-09-29T18:26:08Z</time>
      </trkpt>
      <trkpt lat="40.4441370" lon="-3.4819500">
        <ele>599.0</ele>
        <time>2020-09-29T18:26:09Z</time>
      </trkpt>
      <trkpt lat="40.4439920" lon="-3.4820780">
        <ele>599.0</ele>
        <time>2020-09-29T18:26:10Z</time>
      </trkpt>
      <trkpt lat="40.4439920" lon="-3.4820780">
        <ele>599.0</ele>
        <time>2020-09-29T18:26:11Z</time>
      </trkpt>
      <trkpt lat="40.4438550" lon="-3.4822220">
        <ele>599.0</ele>
        <time>2020-09-29T18:26:12Z</time>
      </trkpt>
      <trkpt lat="40.4438550" lon="-3.4822220">
        <ele>599.0</ele>
        <time>2020-09-29T18:26:13Z</time>
      </trkpt>
      <trkpt lat="40.4437270" lon="-3.4823800">
        <ele>599.0</ele>
        <time>2020-09-29T18:26:14Z</time>
      </trkpt>
      <trkpt lat="40.4437270" lon="-3.4823800">
        <ele>599.0</ele>
        <time>2020-09-29T18:26:15Z</time>
      </trkpt>
      <trkpt lat="40.4436080" lon="-3.4825480">
        <ele>599.0</ele>
        <time>2020-09-29T18:26:16Z</time>
      </trkpt>
      <trkpt lat="40.4435570" lon="-3.4826430">
        <ele>599.0</ele>
        <time>2020-09-29T18:26:17Z</time>
      </trkpt>
      <trkpt lat="40.4435570" lon="-3.4826430">
        <ele>599.0</ele>
        <time>2020-09-29T18:26:18Z</time>
      </trkpt>
      <trkpt lat="40.4434630" lon="-3.4828380">
        <ele>599.0</ele>
        <time>2020-09-29T18:26:19Z</time>
      </trkpt>
      <trkpt lat="40.4434630" lon="-3.4828380">
        <ele>599.0</ele>
        <time>2020-09-29T18:26:20Z</time>
      </trkpt>
      <trkpt lat="40.4433800" lon="-3.4830450">
        <ele>599.0</ele>
        <time>2020-09-29T18:26:21Z</time>
      </trkpt>
      <trkpt lat="40.4433800" lon="-3.4830450">
        <ele>599.0</ele>
        <time>2020-09-29T18:26:22Z</time>
      </trkpt>
      <trkpt lat="40.4433100" lon="-3.4832550">
        <ele>599.0</ele>
        <time>2020-09-29T18:26:23Z</time>
      </trkpt>
      <trkpt lat="40.4432820" lon="-3.4833630">
        <ele>599.0</ele>
        <time>2020-09-29T18:26:24Z</time>
      </trkpt>
      <trkpt lat="40.4432820" lon="-3.4833630">
        <ele>599.0</ele>
        <time>2020-09-29T18:26:25Z</time>
      </trkpt>
      <trkpt lat="40.4432250" lon="-3.4835750">
        <ele>599.0</ele>
        <time>2020-09-29T18:26:26Z</time>
      </trkpt>
      <trkpt lat="40.4432250" lon="-3.4835750">
        <ele>599.0</ele>
        <time>2020-09-29T18:26:27Z</time>
      </trkpt>
      <trkpt lat="40.4431720" lon="-3.4837870">
        <ele>599.0</ele>
        <time>2020-09-29T18:26:28Z</time>
      </trkpt>
      <trkpt lat="40.4431450" lon="-3.4838950">
        <ele>599.0</ele>
        <time>2020-09-29T18:26:29Z</time>
      </trkpt>
      <trkpt lat="40.4431450" lon="-3.4838950">
        <ele>599.0</ele>
        <time>2020-09-29T18:26:30Z</time>
      </trkpt>
      <trkpt lat="40.4431180" lon="-3.4840020">
        <ele>599.0</ele>
        <time>2020-09-29T18:26:31Z</time>
      </trkpt>
      <trkpt lat="40.4430720" lon="-3.4842170">
        <ele>599.0</ele>
        <time>2020-09-29T18:26:32Z</time>
      </trkpt>
      <trkpt lat="40.4430720" lon="-3.4842170">
        <ele>599.0</ele>
        <time>2020-09-29T18:26:33Z</time>
      </trkpt>
      <trkpt lat="40.4430220" lon="-3.4844350">
        <ele>599.0</ele>
        <time>2020-09-29T18:26:34Z</time>
      </trkpt>
      <trkpt lat="40.4430220" lon="-3.4844350">
        <ele>599.0</ele>
        <time>2020-09-29T18:26:35Z</time>
      </trkpt>
      <trkpt lat="40.4429680" lon="-3.4846480">
        <ele>599.0</ele>
        <time>2020-09-29T18:26:36Z</time>
      </trkpt>
      <trkpt lat="40.4429680" lon="-3.4846480">
        <ele>599.0</ele>
        <time>2020-09-29T18:26:37Z</time>
      </trkpt>
      <trkpt lat="40.4429170" lon="-3.4848670">
        <ele>599.0</ele>
        <time>2020-09-29T18:26:38Z</time>
      </trkpt>
      <trkpt lat="40.4428920" lon="-3.4849770">
        <ele>599.0</ele>
        <time>2020-09-29T18:26:39Z</time>
      </trkpt>
      <trkpt lat="40.4428920" lon="-3.4849770">
        <ele>599.0</ele>
        <time>2020-09-29T18:26:40Z</time>
      </trkpt>
      <trkpt lat="40.4428420" lon="-3.4851980">
        <ele>599.0</ele>
        <time>2020-09-29T18:26:41Z</time>
      </trkpt>
      <trkpt lat="40.4428150" lon="-3.4853080">
        <ele>599.0</ele>
        <time>2020-09-29T18:26:42Z</time>
      </trkpt>
      <trkpt lat="40.4427900" lon="-3.4854180">
        <ele>599.0</ele>
        <time>2020-09-29T18:26:43Z</time>
      </trkpt>
      <trkpt lat="40.4427900" lon="-3.4854180">
        <ele>599.0</ele>
        <time>2020-09-29T18:26:44Z</time>
      </trkpt>
      <trkpt lat="40.4427380" lon="-3.4856400">
        <ele>599.0</ele>
        <time>2020-09-29T18:26:45Z</time>
      </trkpt>
      <trkpt lat="40.4427120" lon="-3.4857500">
        <ele>599.0</ele>
        <time>2020-09-29T18:26:46Z</time>
      </trkpt>
      <trkpt lat="40.4426820" lon="-3.4858600">
        <ele>598.0</ele>
        <time>2020-09-29T18:26:47Z</time>
      </trkpt>
      <trkpt lat="40.4426530" lon="-3.4859700">
        <ele>598.0</ele>
        <time>2020-09-29T18:26:48Z</time>
      </trkpt>
      <trkpt lat="40.4426530" lon="-3.4859700">
        <ele>598.0</ele>
        <time>2020-09-29T18:26:49Z</time>
      </trkpt>
      <trkpt lat="40.4426000" lon="-3.4861900">
        <ele>598.0</ele>
        <time>2020-09-29T18:26:50Z</time>
      </trkpt>
      <trkpt lat="40.4426000" lon="-3.4861900">
        <ele>598.0</ele>
        <time>2020-09-29T18:26:51Z</time>
      </trkpt>
      <trkpt lat="40.4425470" lon="-3.4864080">
        <ele>598.0</ele>
        <time>2020-09-29T18:26:52Z</time>
      </trkpt>
      <trkpt lat="40.4425200" lon="-3.4865200">
        <ele>598.0</ele>
        <time>2020-09-29T18:26:53Z</time>
      </trkpt>
      <trkpt lat="40.4425200" lon="-3.4865200">
        <ele>598.0</ele>
        <time>2020-09-29T18:26:54Z</time>
      </trkpt>
      <trkpt lat="40.4424670" lon="-3.4867400">
        <ele>598.0</ele>
        <time>2020-09-29T18:26:55Z</time>
      </trkpt>
      <trkpt lat="40.4424670" lon="-3.4867400">
        <ele>598.0</ele>
        <time>2020-09-29T18:26:56Z</time>
      </trkpt>
      <trkpt lat="40.4424130" lon="-3.4869580">
        <ele>598.0</ele>
        <time>2020-09-29T18:26:57Z</time>
      </trkpt>
      <trkpt lat="40.4424130" lon="-3.4869580">
        <ele>598.0</ele>
        <time>2020-09-29T18:26:58Z</time>
      </trkpt>
      <trkpt lat="40.4423580" lon="-3.4871780">
        <ele>598.0</ele>
        <time>2020-09-29T18:26:59Z</time>
      </trkpt>
      <trkpt lat="40.4423300" lon="-3.4872880">
        <ele>598.0</ele>
        <time>2020-09-29T18:27:00Z</time>
      </trkpt>
      <trkpt lat="40.4423300" lon="-3.4872880">
        <ele>598.0</ele>
        <time>2020-09-29T18:27:01Z</time>
      </trkpt>
      <trkpt lat="40.4422730" lon="-3.4875050">
        <ele>598.0</ele>
        <time>2020-09-29T18:27:02Z</time>
      </trkpt>
      <trkpt lat="40.4422730" lon="-3.4875050">
        <ele>598.0</ele>
        <time>2020-09-29T18:27:03Z</time>
      </trkpt>
      <trkpt lat="40.4422180" lon="-3.4877250">
        <ele>597.0</ele>
        <time>2020-09-29T18:27:04Z</time>
      </trkpt>
      <trkpt lat="40.4422180" lon="-3.4877250">
        <ele>597.0</ele>
        <time>2020-09-29T18:27:05Z</time>
      </trkpt>
      <trkpt lat="40.4422180" lon="-3.4877250">
        <ele>597.0</ele>
        <time>2020-09-29T18:27:06Z</time>
      </trkpt>
      <trkpt lat="40.4421620" lon="-3.4879470">
        <ele>597.0</ele>
        <time>2020-09-29T18:27:07Z</time>
      </trkpt>
      <trkpt lat="40.4421080" lon="-3.4881700">
        <ele>597.0</ele>
        <time>2020-09-29T18:27:08Z</time>
      </trkpt>
      <trkpt lat="40.4421080" lon="-3.4881700">
        <ele>597.0</ele>
        <time>2020-09-29T18:27:09Z</time>
      </trkpt>
      <trkpt lat="40.4420530" lon="-3.4883930">
        <ele>597.0</ele>
        <time>2020-09-29T18:27:10Z</time>
      </trkpt>
      <trkpt lat="40.4420530" lon="-3.4883930">
        <ele>597.0</ele>
        <time>2020-09-29T18:27:11Z</time>
      </trkpt>
      <trkpt lat="40.4420000" lon="-3.4886100">
        <ele>597.0</ele>
        <time>2020-09-29T18:27:12Z</time>
      </trkpt>
      <trkpt lat="40.4420000" lon="-3.4886100">
        <ele>597.0</ele>
        <time>2020-09-29T18:27:13Z</time>
      </trkpt>
      <trkpt lat="40.4419450" lon="-3.4888220">
        <ele>597.0</ele>
        <time>2020-09-29T18:27:14Z</time>
      </trkpt>
      <trkpt lat="40.4419200" lon="-3.4889330">
        <ele>597.0</ele>
        <time>2020-09-29T18:27:15Z</time>
      </trkpt>
      <trkpt lat="40.4419200" lon="-3.4889330">
        <ele>597.0</ele>
        <time>2020-09-29T18:27:16Z</time>
      </trkpt>
      <trkpt lat="40.4418700" lon="-3.4891620">
        <ele>597.0</ele>
        <time>2020-09-29T18:27:17Z</time>
      </trkpt>
      <trkpt lat="40.4418450" lon="-3.4892750">
        <ele>596.0</ele>
        <time>2020-09-29T18:27:18Z</time>
      </trkpt>
      <trkpt lat="40.4418450" lon="-3.4892750">
        <ele>596.0</ele>
        <time>2020-09-29T18:27:19Z</time>
      </trkpt>
      <trkpt lat="40.4418280" lon="-3.4895070">
        <ele>596.0</ele>
        <time>2020-09-29T18:27:20Z</time>
      </trkpt>
      <trkpt lat="40.4418280" lon="-3.4895070">
        <ele>596.0</ele>
        <time>2020-09-29T18:27:21Z</time>
      </trkpt>
      <trkpt lat="40.4418800" lon="-3.4897220">
        <ele>596.0</ele>
        <time>2020-09-29T18:27:22Z</time>
      </trkpt>
      <trkpt lat="40.4419080" lon="-3.4898300">
        <ele>596.0</ele>
        <time>2020-09-29T18:27:23Z</time>
      </trkpt>
      <trkpt lat="40.4419230" lon="-3.4899400">
        <ele>597.0</ele>
        <time>2020-09-29T18:27:24Z</time>
      </trkpt>
      <trkpt lat="40.4419230" lon="-3.4899400">
        <ele>597.0</ele>
        <time>2020-09-29T18:27:25Z</time>
      </trkpt>
      <trkpt lat="40.4419020" lon="-3.4901570">
        <ele>597.0</ele>
        <time>2020-09-29T18:27:26Z</time>
      </trkpt>
      <trkpt lat="40.4419020" lon="-3.4901570">
        <ele>597.0</ele>
        <time>2020-09-29T18:27:27Z</time>
      </trkpt>
      <trkpt lat="40.4418580" lon="-3.4902520">
        <ele>597.0</ele>
        <time>2020-09-29T18:27:28Z</time>
      </trkpt>
      <trkpt lat="40.4417250" lon="-3.4903870">
        <ele>597.0</ele>
        <time>2020-09-29T18:27:29Z</time>
      </trkpt>
      <trkpt lat="40.4417250" lon="-3.4903870">
        <ele>597.0</ele>
        <time>2020-09-29T18:27:30Z</time>
      </trkpt>
      <trkpt lat="40.4415930" lon="-3.4905430">
        <ele>597.0</ele>
        <time>2020-09-29T18:27:31Z</time>
      </trkpt>
      <trkpt lat="40.4415930" lon="-3.4905430">
        <ele>597.0</ele>
        <time>2020-09-29T18:27:32Z</time>
      </trkpt>
      <trkpt lat="40.4415130" lon="-3.4907530">
        <ele>597.0</ele>
        <time>2020-09-29T18:27:33Z</time>
      </trkpt>
      <trkpt lat="40.4415130" lon="-3.4907530">
        <ele>597.0</ele>
        <time>2020-09-29T18:27:34Z</time>
      </trkpt>
      <trkpt lat="40.4414600" lon="-3.4909750">
        <ele>597.0</ele>
        <time>2020-09-29T18:27:35Z</time>
      </trkpt>
      <trkpt lat="40.4414600" lon="-3.4909750">
        <ele>597.0</ele>
        <time>2020-09-29T18:27:36Z</time>
      </trkpt>
      <trkpt lat="40.4414070" lon="-3.4911970">
        <ele>597.0</ele>
        <time>2020-09-29T18:27:37Z</time>
      </trkpt>
      <trkpt lat="40.4414070" lon="-3.4911970">
        <ele>597.0</ele>
        <time>2020-09-29T18:27:38Z</time>
      </trkpt>
      <trkpt lat="40.4413550" lon="-3.4914220">
        <ele>597.0</ele>
        <time>2020-09-29T18:27:39Z</time>
      </trkpt>
      <trkpt lat="40.4413550" lon="-3.4914220">
        <ele>596.0</ele>
        <time>2020-09-29T18:27:40Z</time>
      </trkpt>
      <trkpt lat="40.4413020" lon="-3.4916530">
        <ele>596.0</ele>
        <time>2020-09-29T18:27:41Z</time>
      </trkpt>
      <trkpt lat="40.4412730" lon="-3.4917670">
        <ele>596.0</ele>
        <time>2020-09-29T18:27:42Z</time>
      </trkpt>
      <trkpt lat="40.4412730" lon="-3.4917670">
        <ele>596.0</ele>
        <time>2020-09-29T18:27:43Z</time>
      </trkpt>
      <trkpt lat="40.4412120" lon="-3.4919950">
        <ele>596.0</ele>
        <time>2020-09-29T18:27:44Z</time>
      </trkpt>
      <trkpt lat="40.4412120" lon="-3.4919950">
        <ele>596.0</ele>
        <time>2020-09-29T18:27:45Z</time>
      </trkpt>
      <trkpt lat="40.4411530" lon="-3.4922300">
        <ele>596.0</ele>
        <time>2020-09-29T18:27:46Z</time>
      </trkpt>
      <trkpt lat="40.4411530" lon="-3.4922300">
        <ele>596.0</ele>
        <time>2020-09-29T18:27:47Z</time>
      </trkpt>
      <trkpt lat="40.4410950" lon="-3.4924620">
        <ele>596.0</ele>
        <time>2020-09-29T18:27:48Z</time>
      </trkpt>
      <trkpt lat="40.4410950" lon="-3.4924620">
        <ele>596.0</ele>
        <time>2020-09-29T18:27:49Z</time>
      </trkpt>
      <trkpt lat="40.4410380" lon="-3.4926950">
        <ele>596.0</ele>
        <time>2020-09-29T18:27:50Z</time>
      </trkpt>
      <trkpt lat="40.4410100" lon="-3.4928120">
        <ele>596.0</ele>
        <time>2020-09-29T18:27:51Z</time>
      </trkpt>
      <trkpt lat="40.4410100" lon="-3.4928120">
        <ele>596.0</ele>
        <time>2020-09-29T18:27:52Z</time>
      </trkpt>
      <trkpt lat="40.4409550" lon="-3.4930430">
        <ele>596.0</ele>
        <time>2020-09-29T18:27:53Z</time>
      </trkpt>
      <trkpt lat="40.4409270" lon="-3.4931580">
        <ele>596.0</ele>
        <time>2020-09-29T18:27:54Z</time>
      </trkpt>
      <trkpt lat="40.4409270" lon="-3.4931580">
        <ele>596.0</ele>
        <time>2020-09-29T18:27:55Z</time>
      </trkpt>
      <trkpt lat="40.4409270" lon="-3.4931580">
        <ele>596.0</ele>
        <time>2020-09-29T18:27:56Z</time>
      </trkpt>
      <trkpt lat="40.4408720" lon="-3.4933870">
        <ele>595.0</ele>
        <time>2020-09-29T18:27:57Z</time>
      </trkpt>
      <trkpt lat="40.4408120" lon="-3.4936130">
        <ele>595.0</ele>
        <time>2020-09-29T18:27:58Z</time>
      </trkpt>
      <trkpt lat="40.4407850" lon="-3.4937280">
        <ele>595.0</ele>
        <time>2020-09-29T18:27:59Z</time>
      </trkpt>
      <trkpt lat="40.4407850" lon="-3.4937280">
        <ele>595.0</ele>
        <time>2020-09-29T18:28:00Z</time>
      </trkpt>
      <trkpt lat="40.4407270" lon="-3.4939570">
        <ele>595.0</ele>
        <time>2020-09-29T18:28:01Z</time>
      </trkpt>
      <trkpt lat="40.4407270" lon="-3.4939570">
        <ele>595.0</ele>
        <time>2020-09-29T18:28:02Z</time>
      </trkpt>
      <trkpt lat="40.4406680" lon="-3.4941880">
        <ele>595.0</ele>
        <time>2020-09-29T18:28:03Z</time>
      </trkpt>
      <trkpt lat="40.4406680" lon="-3.4941880">
        <ele>595.0</ele>
        <time>2020-09-29T18:28:04Z</time>
      </trkpt>
      <trkpt lat="40.4406120" lon="-3.4944130">
        <ele>595.0</ele>
        <time>2020-09-29T18:28:05Z</time>
      </trkpt>
      <trkpt lat="40.4406120" lon="-3.4944130">
        <ele>595.0</ele>
        <time>2020-09-29T18:28:06Z</time>
      </trkpt>
      <trkpt lat="40.4405570" lon="-3.4946400">
        <ele>595.0</ele>
        <time>2020-09-29T18:28:07Z</time>
      </trkpt>
      <trkpt lat="40.4405570" lon="-3.4946400">
        <ele>595.0</ele>
        <time>2020-09-29T18:28:08Z</time>
      </trkpt>
      <trkpt lat="40.4405000" lon="-3.4948670">
        <ele>595.0</ele>
        <time>2020-09-29T18:28:09Z</time>
      </trkpt>
      <trkpt lat="40.4404720" lon="-3.4949800">
        <ele>595.0</ele>
        <time>2020-09-29T18:28:10Z</time>
      </trkpt>
      <trkpt lat="40.4404720" lon="-3.4949800">
        <ele>595.0</ele>
        <time>2020-09-29T18:28:11Z</time>
      </trkpt>
      <trkpt lat="40.4404170" lon="-3.4952080">
        <ele>595.0</ele>
        <time>2020-09-29T18:28:12Z</time>
      </trkpt>
      <trkpt lat="40.4404170" lon="-3.4952080">
        <ele>595.0</ele>
        <time>2020-09-29T18:28:13Z</time>
      </trkpt>
      <trkpt lat="40.4403630" lon="-3.4954370">
        <ele>595.0</ele>
        <time>2020-09-29T18:28:14Z</time>
      </trkpt>
      <trkpt lat="40.4403630" lon="-3.4954370">
        <ele>595.0</ele>
        <time>2020-09-29T18:28:15Z</time>
      </trkpt>
      <trkpt lat="40.4403080" lon="-3.4956630">
        <ele>595.0</ele>
        <time>2020-09-29T18:28:16Z</time>
      </trkpt>
      <trkpt lat="40.4402820" lon="-3.4957800">
        <ele>594.0</ele>
        <time>2020-09-29T18:28:17Z</time>
      </trkpt>
      <trkpt lat="40.4402550" lon="-3.4958970">
        <ele>594.0</ele>
        <time>2020-09-29T18:28:18Z</time>
      </trkpt>
      <trkpt lat="40.4402550" lon="-3.4958970">
        <ele>594.0</ele>
        <time>2020-09-29T18:28:19Z</time>
      </trkpt>
      <trkpt lat="40.4401950" lon="-3.4961320">
        <ele>594.0</ele>
        <time>2020-09-29T18:28:20Z</time>
      </trkpt>
      <trkpt lat="40.4401950" lon="-3.4961320">
        <ele>594.0</ele>
        <time>2020-09-29T18:28:21Z</time>
      </trkpt>
      <trkpt lat="40.4401370" lon="-3.4963680">
        <ele>594.0</ele>
        <time>2020-09-29T18:28:22Z</time>
      </trkpt>
      <trkpt lat="40.4401100" lon="-3.4964880">
        <ele>593.0</ele>
        <time>2020-09-29T18:28:23Z</time>
      </trkpt>
      <trkpt lat="40.4400800" lon="-3.4966070">
        <ele>593.0</ele>
        <time>2020-09-29T18:28:24Z</time>
      </trkpt>
      <trkpt lat="40.4400800" lon="-3.4966070">
        <ele>593.0</ele>
        <time>2020-09-29T18:28:25Z</time>
      </trkpt>
      <trkpt lat="40.4400230" lon="-3.4968430">
        <ele>593.0</ele>
        <time>2020-09-29T18:28:26Z</time>
      </trkpt>
      <trkpt lat="40.4400230" lon="-3.4968430">
        <ele>593.0</ele>
        <time>2020-09-29T18:28:27Z</time>
      </trkpt>
      <trkpt lat="40.4399730" lon="-3.4970770">
        <ele>593.0</ele>
        <time>2020-09-29T18:28:28Z</time>
      </trkpt>
      <trkpt lat="40.4399730" lon="-3.4970770">
        <ele>592.0</ele>
        <time>2020-09-29T18:28:29Z</time>
      </trkpt>
      <trkpt lat="40.4399200" lon="-3.4973030">
        <ele>592.0</ele>
        <time>2020-09-29T18:28:30Z</time>
      </trkpt>
      <trkpt lat="40.4399200" lon="-3.4973030">
        <ele>592.0</ele>
        <time>2020-09-29T18:28:31Z</time>
      </trkpt>
      <trkpt lat="40.4398730" lon="-3.4975280">
        <ele>592.0</ele>
        <time>2020-09-29T18:28:32Z</time>
      </trkpt>
      <trkpt lat="40.4398730" lon="-3.4975280">
        <ele>592.0</ele>
        <time>2020-09-29T18:28:33Z</time>
      </trkpt>
      <trkpt lat="40.4398370" lon="-3.4977550">
        <ele>592.0</ele>
        <time>2020-09-29T18:28:34Z</time>
      </trkpt>
      <trkpt lat="40.4398350" lon="-3.4978720">
        <ele>592.0</ele>
        <time>2020-09-29T18:28:35Z</time>
      </trkpt>
      <trkpt lat="40.4398350" lon="-3.4978720">
        <ele>592.0</ele>
        <time>2020-09-29T18:28:36Z</time>
      </trkpt>
      <trkpt lat="40.4398770" lon="-3.4981030">
        <ele>592.0</ele>
        <time>2020-09-29T18:28:37Z</time>
      </trkpt>
      <trkpt lat="40.4398770" lon="-3.4981030">
        <ele>592.0</ele>
        <time>2020-09-29T18:28:38Z</time>
      </trkpt>
      <trkpt lat="40.4398970" lon="-3.4983300">
        <ele>592.0</ele>
        <time>2020-09-29T18:28:39Z</time>
      </trkpt>
      <trkpt lat="40.4398970" lon="-3.4983300">
        <ele>592.0</ele>
        <time>2020-09-29T18:28:40Z</time>
      </trkpt>
      <trkpt lat="40.4398380" lon="-3.4985580">
        <ele>592.0</ele>
        <time>2020-09-29T18:28:41Z</time>
      </trkpt>
      <trkpt lat="40.4398380" lon="-3.4985580">
        <ele>592.0</ele>
        <time>2020-09-29T18:28:42Z</time>
      </trkpt>
      <trkpt lat="40.4397130" lon="-3.4987370">
        <ele>592.0</ele>
        <time>2020-09-29T18:28:43Z</time>
      </trkpt>
      <trkpt lat="40.4397130" lon="-3.4987370">
        <ele>592.0</ele>
        <time>2020-09-29T18:28:44Z</time>
      </trkpt>
      <trkpt lat="40.4395680" lon="-3.4989080">
        <ele>592.0</ele>
        <time>2020-09-29T18:28:45Z</time>
      </trkpt>
      <trkpt lat="40.4395100" lon="-3.4990180">
        <ele>592.0</ele>
        <time>2020-09-29T18:28:46Z</time>
      </trkpt>
      <trkpt lat="40.4395100" lon="-3.4990180">
        <ele>592.0</ele>
        <time>2020-09-29T18:28:47Z</time>
      </trkpt>
      <trkpt lat="40.4394380" lon="-3.4992580">
        <ele>592.0</ele>
        <time>2020-09-29T18:28:48Z</time>
      </trkpt>
      <trkpt lat="40.4394380" lon="-3.4992580">
        <ele>591.0</ele>
        <time>2020-09-29T18:28:49Z</time>
      </trkpt>
      <trkpt lat="40.4393800" lon="-3.4995050">
        <ele>591.0</ele>
        <time>2020-09-29T18:28:50Z</time>
      </trkpt>
      <trkpt lat="40.4393800" lon="-3.4995050">
        <ele>591.0</ele>
        <time>2020-09-29T18:28:51Z</time>
      </trkpt>
      <trkpt lat="40.4393230" lon="-3.4997500">
        <ele>591.0</ele>
        <time>2020-09-29T18:28:52Z</time>
      </trkpt>
      <trkpt lat="40.4393230" lon="-3.4997500">
        <ele>590.0</ele>
        <time>2020-09-29T18:28:53Z</time>
      </trkpt>
      <trkpt lat="40.4392630" lon="-3.4999950">
        <ele>590.0</ele>
        <time>2020-09-29T18:28:54Z</time>
      </trkpt>
      <trkpt lat="40.4392630" lon="-3.4999950">
        <ele>590.0</ele>
        <time>2020-09-29T18:28:55Z</time>
      </trkpt>
      <trkpt lat="40.4392030" lon="-3.5002370">
        <ele>590.0</ele>
        <time>2020-09-29T18:28:56Z</time>
      </trkpt>
      <trkpt lat="40.4392030" lon="-3.5002370">
        <ele>590.0</ele>
        <time>2020-09-29T18:28:57Z</time>
      </trkpt>
      <trkpt lat="40.4391350" lon="-3.5004780">
        <ele>589.0</ele>
        <time>2020-09-29T18:28:58Z</time>
      </trkpt>
      <trkpt lat="40.4391350" lon="-3.5004780">
        <ele>589.0</ele>
        <time>2020-09-29T18:28:59Z</time>
      </trkpt>
      <trkpt lat="40.4390670" lon="-3.5007100">
        <ele>589.0</ele>
        <time>2020-09-29T18:29:00Z</time>
      </trkpt>
      <trkpt lat="40.4390670" lon="-3.5007100">
        <ele>589.0</ele>
        <time>2020-09-29T18:29:01Z</time>
      </trkpt>
      <trkpt lat="40.4389870" lon="-3.5009370">
        <ele>589.0</ele>
        <time>2020-09-29T18:29:02Z</time>
      </trkpt>
      <trkpt lat="40.4389870" lon="-3.5009370">
        <ele>589.0</ele>
        <time>2020-09-29T18:29:03Z</time>
      </trkpt>
      <trkpt lat="40.4388950" lon="-3.5011580">
        <ele>589.0</ele>
        <time>2020-09-29T18:29:04Z</time>
      </trkpt>
      <trkpt lat="40.4388950" lon="-3.5011580">
        <ele>589.0</ele>
        <time>2020-09-29T18:29:05Z</time>
      </trkpt>
      <trkpt lat="40.4387900" lon="-3.5013730">
        <ele>589.0</ele>
        <time>2020-09-29T18:29:06Z</time>
      </trkpt>
      <trkpt lat="40.4387900" lon="-3.5013730">
        <ele>589.0</ele>
        <time>2020-09-29T18:29:07Z</time>
      </trkpt>
      <trkpt lat="40.4386770" lon="-3.5015800">
        <ele>589.0</ele>
        <time>2020-09-29T18:29:08Z</time>
      </trkpt>
      <trkpt lat="40.4386130" lon="-3.5016770">
        <ele>588.0</ele>
        <time>2020-09-29T18:29:09Z</time>
      </trkpt>
      <trkpt lat="40.4386130" lon="-3.5016770">
        <ele>588.0</ele>
        <time>2020-09-29T18:29:10Z</time>
      </trkpt>
      <trkpt lat="40.4384800" lon="-3.5018650">
        <ele>588.0</ele>
        <time>2020-09-29T18:29:11Z</time>
      </trkpt>
      <trkpt lat="40.4384080" lon="-3.5019520">
        <ele>588.0</ele>
        <time>2020-09-29T18:29:12Z</time>
      </trkpt>
      <trkpt lat="40.4384080" lon="-3.5019520">
        <ele>588.0</ele>
        <time>2020-09-29T18:29:13Z</time>
      </trkpt>
      <trkpt lat="40.4382580" lon="-3.5021250">
        <ele>588.0</ele>
        <time>2020-09-29T18:29:14Z</time>
      </trkpt>
      <trkpt lat="40.4382580" lon="-3.5021250">
        <ele>588.0</ele>
        <time>2020-09-29T18:29:15Z</time>
      </trkpt>
      <trkpt lat="40.4381000" lon="-3.5022850">
        <ele>588.0</ele>
        <time>2020-09-29T18:29:16Z</time>
      </trkpt>
      <trkpt lat="40.4381000" lon="-3.5022850">
        <ele>588.0</ele>
        <time>2020-09-29T18:29:17Z</time>
      </trkpt>
      <trkpt lat="40.4379330" lon="-3.5024370">
        <ele>588.0</ele>
        <time>2020-09-29T18:29:18Z</time>
      </trkpt>
      <trkpt lat="40.4379330" lon="-3.5024370">
        <ele>587.0</ele>
        <time>2020-09-29T18:29:19Z</time>
      </trkpt>
      <trkpt lat="40.4377630" lon="-3.5025800">
        <ele>587.0</ele>
        <time>2020-09-29T18:29:20Z</time>
      </trkpt>
      <trkpt lat="40.4377630" lon="-3.5025800">
        <ele>587.0</ele>
        <time>2020-09-29T18:29:21Z</time>
      </trkpt>
      <trkpt lat="40.4375900" lon="-3.5027180">
        <ele>587.0</ele>
        <time>2020-09-29T18:29:22Z</time>
      </trkpt>
      <trkpt lat="40.4375900" lon="-3.5027180">
        <ele>587.0</ele>
        <time>2020-09-29T18:29:23Z</time>
      </trkpt>
      <trkpt lat="40.4374150" lon="-3.5028520">
        <ele>587.0</ele>
        <time>2020-09-29T18:29:24Z</time>
      </trkpt>
      <trkpt lat="40.4374150" lon="-3.5028520">
        <ele>587.0</ele>
        <time>2020-09-29T18:29:25Z</time>
      </trkpt>
      <trkpt lat="40.4372430" lon="-3.5029870">
        <ele>587.0</ele>
        <time>2020-09-29T18:29:26Z</time>
      </trkpt>
      <trkpt lat="40.4372430" lon="-3.5029870">
        <ele>586.0</ele>
        <time>2020-09-29T18:29:27Z</time>
      </trkpt>
      <trkpt lat="40.4370750" lon="-3.5031300">
        <ele>586.0</ele>
        <time>2020-09-29T18:29:28Z</time>
      </trkpt>
      <trkpt lat="40.4370750" lon="-3.5031300">
        <ele>586.0</ele>
        <time>2020-09-29T18:29:29Z</time>
      </trkpt>
      <trkpt lat="40.4369150" lon="-3.5032870">
        <ele>586.0</ele>
        <time>2020-09-29T18:29:30Z</time>
      </trkpt>
      <trkpt lat="40.4369150" lon="-3.5032870">
        <ele>585.0</ele>
        <time>2020-09-29T18:29:31Z</time>
      </trkpt>
      <trkpt lat="40.4367670" lon="-3.5034550">
        <ele>585.0</ele>
        <time>2020-09-29T18:29:32Z</time>
      </trkpt>
      <trkpt lat="40.4367670" lon="-3.5034550">
        <ele>585.0</ele>
        <time>2020-09-29T18:29:33Z</time>
      </trkpt>
      <trkpt lat="40.4366370" lon="-3.5036370">
        <ele>585.0</ele>
        <time>2020-09-29T18:29:34Z</time>
      </trkpt>
      <trkpt lat="40.4366370" lon="-3.5036370">
        <ele>585.0</ele>
        <time>2020-09-29T18:29:35Z</time>
      </trkpt>
      <trkpt lat="40.4365150" lon="-3.5038220">
        <ele>585.0</ele>
        <time>2020-09-29T18:29:36Z</time>
      </trkpt>
      <trkpt lat="40.4365150" lon="-3.5038220">
        <ele>585.0</ele>
        <time>2020-09-29T18:29:37Z</time>
      </trkpt>
      <trkpt lat="40.4363980" lon="-3.5040100">
        <ele>585.0</ele>
        <time>2020-09-29T18:29:38Z</time>
      </trkpt>
      <trkpt lat="40.4363980" lon="-3.5040100">
        <ele>585.0</ele>
        <time>2020-09-29T18:29:39Z</time>
      </trkpt>
      <trkpt lat="40.4362850" lon="-3.5041970">
        <ele>585.0</ele>
        <time>2020-09-29T18:29:40Z</time>
      </trkpt>
      <trkpt lat="40.4362850" lon="-3.5041970">
        <ele>585.0</ele>
        <time>2020-09-29T18:29:41Z</time>
      </trkpt>
      <trkpt lat="40.4361700" lon="-3.5043820">
        <ele>585.0</ele>
        <time>2020-09-29T18:29:42Z</time>
      </trkpt>
      <trkpt lat="40.4361700" lon="-3.5043820">
        <ele>585.0</ele>
        <time>2020-09-29T18:29:43Z</time>
      </trkpt>
      <trkpt lat="40.4360570" lon="-3.5045670">
        <ele>585.0</ele>
        <time>2020-09-29T18:29:44Z</time>
      </trkpt>
      <trkpt lat="40.4360570" lon="-3.5045670">
        <ele>585.0</ele>
        <time>2020-09-29T18:29:45Z</time>
      </trkpt>
      <trkpt lat="40.4359530" lon="-3.5047600">
        <ele>585.0</ele>
        <time>2020-09-29T18:29:46Z</time>
      </trkpt>
      <trkpt lat="40.4359530" lon="-3.5047600">
        <ele>585.0</ele>
        <time>2020-09-29T18:29:47Z</time>
      </trkpt>
      <trkpt lat="40.4358980" lon="-3.5049850">
        <ele>585.0</ele>
        <time>2020-09-29T18:29:48Z</time>
      </trkpt>
      <trkpt lat="40.4358980" lon="-3.5049850">
        <ele>585.0</ele>
        <time>2020-09-29T18:29:49Z</time>
      </trkpt>
      <trkpt lat="40.4358850" lon="-3.5052200">
        <ele>585.0</ele>
        <time>2020-09-29T18:29:50Z</time>
      </trkpt>
      <trkpt lat="40.4358630" lon="-3.5053350">
        <ele>585.0</ele>
        <time>2020-09-29T18:29:51Z</time>
      </trkpt>
      <trkpt lat="40.4358630" lon="-3.5053350">
        <ele>585.0</ele>
        <time>2020-09-29T18:29:52Z</time>
      </trkpt>
      <trkpt lat="40.4357670" lon="-3.5055220">
        <ele>585.0</ele>
        <time>2020-09-29T18:29:53Z</time>
      </trkpt>
      <trkpt lat="40.4357670" lon="-3.5055220">
        <ele>585.0</ele>
        <time>2020-09-29T18:29:54Z</time>
      </trkpt>
      <trkpt lat="40.4356120" lon="-3.5056270">
        <ele>585.0</ele>
        <time>2020-09-29T18:29:55Z</time>
      </trkpt>
      <trkpt lat="40.4356120" lon="-3.5056270">
        <ele>585.0</ele>
        <time>2020-09-29T18:29:56Z</time>
      </trkpt>
      <trkpt lat="40.4354370" lon="-3.5056980">
        <ele>585.0</ele>
        <time>2020-09-29T18:29:57Z</time>
      </trkpt>
      <trkpt lat="40.4353550" lon="-3.5057620">
        <ele>585.0</ele>
        <time>2020-09-29T18:29:58Z</time>
      </trkpt>
      <trkpt lat="40.4352850" lon="-3.5058430">
        <ele>585.0</ele>
        <time>2020-09-29T18:29:59Z</time>
      </trkpt>
      <trkpt lat="40.4352270" lon="-3.5059350">
        <ele>585.0</ele>
        <time>2020-09-29T18:30:00Z</time>
      </trkpt>
      <trkpt lat="40.4352270" lon="-3.5059350">
        <ele>585.0</ele>
        <time>2020-09-29T18:30:01Z</time>
      </trkpt>
      <trkpt lat="40.4351150" lon="-3.5061220">
        <ele>585.0</ele>
        <time>2020-09-29T18:30:02Z</time>
      </trkpt>
      <trkpt lat="40.4350580" lon="-3.5062130">
        <ele>585.0</ele>
        <time>2020-09-29T18:30:03Z</time>
      </trkpt>
      <trkpt lat="40.4350030" lon="-3.5063050">
        <ele>585.0</ele>
        <time>2020-09-29T18:30:04Z</time>
      </trkpt>
      <trkpt lat="40.4350030" lon="-3.5063050">
        <ele>585.0</ele>
        <time>2020-09-29T18:30:05Z</time>
      </trkpt>
      <trkpt lat="40.4348920" lon="-3.5064920">
        <ele>585.0</ele>
        <time>2020-09-29T18:30:06Z</time>
      </trkpt>
      <trkpt lat="40.4348920" lon="-3.5064920">
        <ele>585.0</ele>
        <time>2020-09-29T18:30:07Z</time>
      </trkpt>
      <trkpt lat="40.4347880" lon="-3.5066800">
        <ele>585.0</ele>
        <time>2020-09-29T18:30:08Z</time>
      </trkpt>
      <trkpt lat="40.4347880" lon="-3.5066800">
        <ele>585.0</ele>
        <time>2020-09-29T18:30:09Z</time>
      </trkpt>
      <trkpt lat="40.4347320" lon="-3.5068900">
        <ele>585.0</ele>
        <time>2020-09-29T18:30:10Z</time>
      </trkpt>
      <trkpt lat="40.4347320" lon="-3.5068900">
        <ele>585.0</ele>
        <time>2020-09-29T18:30:11Z</time>
      </trkpt>
      <trkpt lat="40.4347250" lon="-3.5071120">
        <ele>585.0</ele>
        <time>2020-09-29T18:30:12Z</time>
      </trkpt>
      <trkpt lat="40.4347250" lon="-3.5071120">
        <ele>585.0</ele>
        <time>2020-09-29T18:30:13Z</time>
      </trkpt>
      <trkpt lat="40.4346900" lon="-3.5073230">
        <ele>585.0</ele>
        <time>2020-09-29T18:30:14Z</time>
      </trkpt>
      <trkpt lat="40.4346900" lon="-3.5073230">
        <ele>585.0</ele>
        <time>2020-09-29T18:30:15Z</time>
      </trkpt>
      <trkpt lat="40.4345800" lon="-3.5074950">
        <ele>585.0</ele>
        <time>2020-09-29T18:30:16Z</time>
      </trkpt>
      <trkpt lat="40.4345800" lon="-3.5074950">
        <ele>585.0</ele>
        <time>2020-09-29T18:30:17Z</time>
      </trkpt>
      <trkpt lat="40.4344100" lon="-3.5075730">
        <ele>585.0</ele>
        <time>2020-09-29T18:30:18Z</time>
      </trkpt>
      <trkpt lat="40.4344100" lon="-3.5075730">
        <ele>585.0</ele>
        <time>2020-09-29T18:30:19Z</time>
      </trkpt>
      <trkpt lat="40.4342320" lon="-3.5076370">
        <ele>585.0</ele>
        <time>2020-09-29T18:30:20Z</time>
      </trkpt>
      <trkpt lat="40.4341530" lon="-3.5077000">
        <ele>585.0</ele>
        <time>2020-09-29T18:30:21Z</time>
      </trkpt>
      <trkpt lat="40.4341530" lon="-3.5077000">
        <ele>585.0</ele>
        <time>2020-09-29T18:30:22Z</time>
      </trkpt>
      <trkpt lat="40.4340330" lon="-3.5078780">
        <ele>585.0</ele>
        <time>2020-09-29T18:30:23Z</time>
      </trkpt>
      <trkpt lat="40.4339830" lon="-3.5079770">
        <ele>585.0</ele>
        <time>2020-09-29T18:30:24Z</time>
      </trkpt>
      <trkpt lat="40.4339320" lon="-3.5080730">
        <ele>585.0</ele>
        <time>2020-09-29T18:30:25Z</time>
      </trkpt>
      <trkpt lat="40.4339320" lon="-3.5080730">
        <ele>585.0</ele>
        <time>2020-09-29T18:30:26Z</time>
      </trkpt>
      <trkpt lat="40.4338250" lon="-3.5082650">
        <ele>585.0</ele>
        <time>2020-09-29T18:30:27Z</time>
      </trkpt>
      <trkpt lat="40.4338250" lon="-3.5082650">
        <ele>585.0</ele>
        <time>2020-09-29T18:30:28Z</time>
      </trkpt>
      <trkpt lat="40.4337200" lon="-3.5084620">
        <ele>585.0</ele>
        <time>2020-09-29T18:30:29Z</time>
      </trkpt>
      <trkpt lat="40.4336700" lon="-3.5085630">
        <ele>585.0</ele>
        <time>2020-09-29T18:30:30Z</time>
      </trkpt>
      <trkpt lat="40.4336700" lon="-3.5085630">
        <ele>585.0</ele>
        <time>2020-09-29T18:30:31Z</time>
      </trkpt>
      <trkpt lat="40.4336700" lon="-3.5085630">
        <ele>585.0</ele>
        <time>2020-09-29T18:30:32Z</time>
      </trkpt>
      <trkpt lat="40.4335730" lon="-3.5087670">
        <ele>585.0</ele>
        <time>2020-09-29T18:30:33Z</time>
      </trkpt>
      <trkpt lat="40.4334870" lon="-3.5089820">
        <ele>585.0</ele>
        <time>2020-09-29T18:30:34Z</time>
      </trkpt>
      <trkpt lat="40.4334870" lon="-3.5089820">
        <ele>584.0</ele>
        <time>2020-09-29T18:30:35Z</time>
      </trkpt>
      <trkpt lat="40.4334120" lon="-3.5092030">
        <ele>584.0</ele>
        <time>2020-09-29T18:30:36Z</time>
      </trkpt>
      <trkpt lat="40.4334120" lon="-3.5092030">
        <ele>584.0</ele>
        <time>2020-09-29T18:30:37Z</time>
      </trkpt>
      <trkpt lat="40.4333500" lon="-3.5094320">
        <ele>584.0</ele>
        <time>2020-09-29T18:30:38Z</time>
      </trkpt>
      <trkpt lat="40.4333500" lon="-3.5094320">
        <ele>584.0</ele>
        <time>2020-09-29T18:30:39Z</time>
      </trkpt>
      <trkpt lat="40.4332900" lon="-3.5096570">
        <ele>584.0</ele>
        <time>2020-09-29T18:30:40Z</time>
      </trkpt>
      <trkpt lat="40.4332900" lon="-3.5096570">
        <ele>584.0</ele>
        <time>2020-09-29T18:30:41Z</time>
      </trkpt>
      <trkpt lat="40.4332330" lon="-3.5098850">
        <ele>584.0</ele>
        <time>2020-09-29T18:30:42Z</time>
      </trkpt>
      <trkpt lat="40.4332070" lon="-3.5099970">
        <ele>583.0</ele>
        <time>2020-09-29T18:30:43Z</time>
      </trkpt>
      <trkpt lat="40.4332070" lon="-3.5099970">
        <ele>583.0</ele>
        <time>2020-09-29T18:30:44Z</time>
      </trkpt>
      <trkpt lat="40.4331450" lon="-3.5102150">
        <ele>583.0</ele>
        <time>2020-09-29T18:30:45Z</time>
      </trkpt>
      <trkpt lat="40.4331450" lon="-3.5102150">
        <ele>583.0</ele>
        <time>2020-09-29T18:30:46Z</time>
      </trkpt>
      <trkpt lat="40.4330770" lon="-3.5104320">
        <ele>583.0</ele>
        <time>2020-09-29T18:30:47Z</time>
      </trkpt>
      <trkpt lat="40.4330420" lon="-3.5105400">
        <ele>583.0</ele>
        <time>2020-09-29T18:30:48Z</time>
      </trkpt>
      <trkpt lat="40.4330420" lon="-3.5105400">
        <ele>583.0</ele>
        <time>2020-09-29T18:30:49Z</time>
      </trkpt>
      <trkpt lat="40.4329630" lon="-3.5107530">
        <ele>582.0</ele>
        <time>2020-09-29T18:30:50Z</time>
      </trkpt>
      <trkpt lat="40.4329630" lon="-3.5107530">
        <ele>582.0</ele>
        <time>2020-09-29T18:30:51Z</time>
      </trkpt>
      <trkpt lat="40.4328700" lon="-3.5109600">
        <ele>582.0</ele>
        <time>2020-09-29T18:30:52Z</time>
      </trkpt>
      <trkpt lat="40.4328700" lon="-3.5109600">
        <ele>582.0</ele>
        <time>2020-09-29T18:30:53Z</time>
      </trkpt>
      <trkpt lat="40.4327680" lon="-3.5111620">
        <ele>582.0</ele>
        <time>2020-09-29T18:30:54Z</time>
      </trkpt>
      <trkpt lat="40.4327680" lon="-3.5111620">
        <ele>582.0</ele>
        <time>2020-09-29T18:30:55Z</time>
      </trkpt>
      <trkpt lat="40.4326620" lon="-3.5113570">
        <ele>582.0</ele>
        <time>2020-09-29T18:30:56Z</time>
      </trkpt>
      <trkpt lat="40.4326030" lon="-3.5114500">
        <ele>582.0</ele>
        <time>2020-09-29T18:30:57Z</time>
      </trkpt>
      <trkpt lat="40.4326030" lon="-3.5114500">
        <ele>582.0</ele>
        <time>2020-09-29T18:30:58Z</time>
      </trkpt>
      <trkpt lat="40.4324750" lon="-3.5116280">
        <ele>582.0</ele>
        <time>2020-09-29T18:30:59Z</time>
      </trkpt>
      <trkpt lat="40.4324750" lon="-3.5116280">
        <ele>582.0</ele>
        <time>2020-09-29T18:31:00Z</time>
      </trkpt>
      <trkpt lat="40.4323380" lon="-3.5118000">
        <ele>582.0</ele>
        <time>2020-09-29T18:31:01Z</time>
      </trkpt>
      <trkpt lat="40.4323380" lon="-3.5118000">
        <ele>582.0</ele>
        <time>2020-09-29T18:31:02Z</time>
      </trkpt>
      <trkpt lat="40.4321920" lon="-3.5119600">
        <ele>582.0</ele>
        <time>2020-09-29T18:31:03Z</time>
      </trkpt>
      <trkpt lat="40.4321920" lon="-3.5119600">
        <ele>582.0</ele>
        <time>2020-09-29T18:31:04Z</time>
      </trkpt>
      <trkpt lat="40.4320370" lon="-3.5121120">
        <ele>582.0</ele>
        <time>2020-09-29T18:31:05Z</time>
      </trkpt>
      <trkpt lat="40.4320370" lon="-3.5121120">
        <ele>581.0</ele>
        <time>2020-09-29T18:31:06Z</time>
      </trkpt>
      <trkpt lat="40.4319550" lon="-3.5121830">
        <ele>581.0</ele>
        <time>2020-09-29T18:31:07Z</time>
      </trkpt>
      <trkpt lat="40.4317900" lon="-3.5123250">
        <ele>581.0</ele>
        <time>2020-09-29T18:31:08Z</time>
      </trkpt>
      <trkpt lat="40.4317900" lon="-3.5123250">
        <ele>581.0</ele>
        <time>2020-09-29T18:31:09Z</time>
      </trkpt>
      <trkpt lat="40.4316230" lon="-3.5124720">
        <ele>580.0</ele>
        <time>2020-09-29T18:31:10Z</time>
      </trkpt>
      <trkpt lat="40.4316230" lon="-3.5124720">
        <ele>580.0</ele>
        <time>2020-09-29T18:31:11Z</time>
      </trkpt>
      <trkpt lat="40.4314580" lon="-3.5126270">
        <ele>580.0</ele>
        <time>2020-09-29T18:31:12Z</time>
      </trkpt>
      <trkpt lat="40.4313780" lon="-3.5127080">
        <ele>580.0</ele>
        <time>2020-09-29T18:31:13Z</time>
      </trkpt>
      <trkpt lat="40.4313780" lon="-3.5127080">
        <ele>579.0</ele>
        <time>2020-09-29T18:31:14Z</time>
      </trkpt>
      <trkpt lat="40.4312300" lon="-3.5128780">
        <ele>579.0</ele>
        <time>2020-09-29T18:31:15Z</time>
      </trkpt>
      <trkpt lat="40.4312300" lon="-3.5128780">
        <ele>579.0</ele>
        <time>2020-09-29T18:31:16Z</time>
      </trkpt>
      <trkpt lat="40.4310850" lon="-3.5130620">
        <ele>579.0</ele>
        <time>2020-09-29T18:31:17Z</time>
      </trkpt>
      <trkpt lat="40.4310200" lon="-3.5131580">
        <ele>579.0</ele>
        <time>2020-09-29T18:31:18Z</time>
      </trkpt>
      <trkpt lat="40.4310200" lon="-3.5131580">
        <ele>579.0</ele>
        <time>2020-09-29T18:31:19Z</time>
      </trkpt>
      <trkpt lat="40.4309020" lon="-3.5133620">
        <ele>579.0</ele>
        <time>2020-09-29T18:31:20Z</time>
      </trkpt>
      <trkpt lat="40.4309020" lon="-3.5133620">
        <ele>579.0</ele>
        <time>2020-09-29T18:31:21Z</time>
      </trkpt>
      <trkpt lat="40.4307920" lon="-3.5135650">
        <ele>578.0</ele>
        <time>2020-09-29T18:31:22Z</time>
      </trkpt>
      <trkpt lat="40.4307920" lon="-3.5135650">
        <ele>578.0</ele>
        <time>2020-09-29T18:31:23Z</time>
      </trkpt>
      <trkpt lat="40.4306900" lon="-3.5137670">
        <ele>578.0</ele>
        <time>2020-09-29T18:31:24Z</time>
      </trkpt>
      <trkpt lat="40.4306900" lon="-3.5137670">
        <ele>578.0</ele>
        <time>2020-09-29T18:31:25Z</time>
      </trkpt>
      <trkpt lat="40.4305930" lon="-3.5139680">
        <ele>578.0</ele>
        <time>2020-09-29T18:31:26Z</time>
      </trkpt>
      <trkpt lat="40.4305930" lon="-3.5139680">
        <ele>578.0</ele>
        <time>2020-09-29T18:31:27Z</time>
      </trkpt>
      <trkpt lat="40.4304950" lon="-3.5141630">
        <ele>578.0</ele>
        <time>2020-09-29T18:31:28Z</time>
      </trkpt>
      <trkpt lat="40.4304480" lon="-3.5142580">
        <ele>578.0</ele>
        <time>2020-09-29T18:31:29Z</time>
      </trkpt>
      <trkpt lat="40.4304480" lon="-3.5142580">
        <ele>578.0</ele>
        <time>2020-09-29T18:31:30Z</time>
      </trkpt>
      <trkpt lat="40.4303530" lon="-3.5144500">
        <ele>578.0</ele>
        <time>2020-09-29T18:31:31Z</time>
      </trkpt>
      <trkpt lat="40.4303530" lon="-3.5144500">
        <ele>578.0</ele>
        <time>2020-09-29T18:31:32Z</time>
      </trkpt>
      <trkpt lat="40.4302600" lon="-3.5146400">
        <ele>578.0</ele>
        <time>2020-09-29T18:31:33Z</time>
      </trkpt>
      <trkpt lat="40.4302600" lon="-3.5146400">
        <ele>578.0</ele>
        <time>2020-09-29T18:31:34Z</time>
      </trkpt>
      <trkpt lat="40.4301680" lon="-3.5148300">
        <ele>578.0</ele>
        <time>2020-09-29T18:31:35Z</time>
      </trkpt>
      <trkpt lat="40.4301680" lon="-3.5148300">
        <ele>578.0</ele>
        <time>2020-09-29T18:31:36Z</time>
      </trkpt>
      <trkpt lat="40.4300750" lon="-3.5150150">
        <ele>578.0</ele>
        <time>2020-09-29T18:31:37Z</time>
      </trkpt>
      <trkpt lat="40.4300750" lon="-3.5150150">
        <ele>578.0</ele>
        <time>2020-09-29T18:31:38Z</time>
      </trkpt>
      <trkpt lat="40.4299870" lon="-3.5151950">
        <ele>578.0</ele>
        <time>2020-09-29T18:31:39Z</time>
      </trkpt>
      <trkpt lat="40.4299870" lon="-3.5151950">
        <ele>578.0</ele>
        <time>2020-09-29T18:31:40Z</time>
      </trkpt>
      <trkpt lat="40.4299000" lon="-3.5153730">
        <ele>578.0</ele>
        <time>2020-09-29T18:31:41Z</time>
      </trkpt>
      <trkpt lat="40.4299000" lon="-3.5153730">
        <ele>578.0</ele>
        <time>2020-09-29T18:31:42Z</time>
      </trkpt>
      <trkpt lat="40.4298120" lon="-3.5155530">
        <ele>578.0</ele>
        <time>2020-09-29T18:31:43Z</time>
      </trkpt>
      <trkpt lat="40.4298120" lon="-3.5155530">
        <ele>578.0</ele>
        <time>2020-09-29T18:31:44Z</time>
      </trkpt>
      <trkpt lat="40.4297220" lon="-3.5157330">
        <ele>578.0</ele>
        <time>2020-09-29T18:31:45Z</time>
      </trkpt>
      <trkpt lat="40.4297220" lon="-3.5157330">
        <ele>578.0</ele>
        <time>2020-09-29T18:31:46Z</time>
      </trkpt>
      <trkpt lat="40.4296320" lon="-3.5159170">
        <ele>579.0</ele>
        <time>2020-09-29T18:31:47Z</time>
      </trkpt>
      <trkpt lat="40.4296320" lon="-3.5159170">
        <ele>579.0</ele>
        <time>2020-09-29T18:31:48Z</time>
      </trkpt>
      <trkpt lat="40.4295420" lon="-3.5160950">
        <ele>579.0</ele>
        <time>2020-09-29T18:31:49Z</time>
      </trkpt>
      <trkpt lat="40.4294920" lon="-3.5161820">
        <ele>579.0</ele>
        <time>2020-09-29T18:31:50Z</time>
      </trkpt>
      <trkpt lat="40.4294920" lon="-3.5161820">
        <ele>579.0</ele>
        <time>2020-09-29T18:31:51Z</time>
      </trkpt>
      <trkpt lat="40.4293900" lon="-3.5163500">
        <ele>579.0</ele>
        <time>2020-09-29T18:31:52Z</time>
      </trkpt>
      <trkpt lat="40.4293900" lon="-3.5163500">
        <ele>579.0</ele>
        <time>2020-09-29T18:31:53Z</time>
      </trkpt>
      <trkpt lat="40.4292800" lon="-3.5165120">
        <ele>579.0</ele>
        <time>2020-09-29T18:31:54Z</time>
      </trkpt>
      <trkpt lat="40.4292800" lon="-3.5165120">
        <ele>579.0</ele>
        <time>2020-09-29T18:31:55Z</time>
      </trkpt>
      <trkpt lat="40.4291680" lon="-3.5166650">
        <ele>579.0</ele>
        <time>2020-09-29T18:31:56Z</time>
      </trkpt>
      <trkpt lat="40.4291680" lon="-3.5166650">
        <ele>579.0</ele>
        <time>2020-09-29T18:31:57Z</time>
      </trkpt>
      <trkpt lat="40.4290470" lon="-3.5168130">
        <ele>579.0</ele>
        <time>2020-09-29T18:31:58Z</time>
      </trkpt>
      <trkpt lat="40.4290470" lon="-3.5168130">
        <ele>579.0</ele>
        <time>2020-09-29T18:31:59Z</time>
      </trkpt>
      <trkpt lat="40.4289180" lon="-3.5169480">
        <ele>579.0</ele>
        <time>2020-09-29T18:32:00Z</time>
      </trkpt>
      <trkpt lat="40.4289180" lon="-3.5169480">
        <ele>579.0</ele>
        <time>2020-09-29T18:32:01Z</time>
      </trkpt>
      <trkpt lat="40.4287850" lon="-3.5170780">
        <ele>579.0</ele>
        <time>2020-09-29T18:32:02Z</time>
      </trkpt>
      <trkpt lat="40.4287850" lon="-3.5170780">
        <ele>579.0</ele>
        <time>2020-09-29T18:32:03Z</time>
      </trkpt>
      <trkpt lat="40.4286480" lon="-3.5171930">
        <ele>579.0</ele>
        <time>2020-09-29T18:32:04Z</time>
      </trkpt>
      <trkpt lat="40.4286480" lon="-3.5171930">
        <ele>579.0</ele>
        <time>2020-09-29T18:32:05Z</time>
      </trkpt>
      <trkpt lat="40.4285070" lon="-3.5173020">
        <ele>579.0</ele>
        <time>2020-09-29T18:32:06Z</time>
      </trkpt>
      <trkpt lat="40.4285070" lon="-3.5173020">
        <ele>579.0</ele>
        <time>2020-09-29T18:32:07Z</time>
      </trkpt>
      <trkpt lat="40.4283580" lon="-3.5173950">
        <ele>579.0</ele>
        <time>2020-09-29T18:32:08Z</time>
      </trkpt>
      <trkpt lat="40.4283580" lon="-3.5173950">
        <ele>579.0</ele>
        <time>2020-09-29T18:32:09Z</time>
      </trkpt>
      <trkpt lat="40.4282100" lon="-3.5174820">
        <ele>579.0</ele>
        <time>2020-09-29T18:32:10Z</time>
      </trkpt>
      <trkpt lat="40.4282100" lon="-3.5174820">
        <ele>579.0</ele>
        <time>2020-09-29T18:32:11Z</time>
      </trkpt>
      <trkpt lat="40.4280520" lon="-3.5175570">
        <ele>579.0</ele>
        <time>2020-09-29T18:32:12Z</time>
      </trkpt>
      <trkpt lat="40.4280520" lon="-3.5175570">
        <ele>579.0</ele>
        <time>2020-09-29T18:32:13Z</time>
      </trkpt>
      <trkpt lat="40.4278950" lon="-3.5176270">
        <ele>579.0</ele>
        <time>2020-09-29T18:32:14Z</time>
      </trkpt>
      <trkpt lat="40.4278950" lon="-3.5176270">
        <ele>579.0</ele>
        <time>2020-09-29T18:32:15Z</time>
      </trkpt>
      <trkpt lat="40.4277280" lon="-3.5176800">
        <ele>579.0</ele>
        <time>2020-09-29T18:32:16Z</time>
      </trkpt>
      <trkpt lat="40.4277280" lon="-3.5176800">
        <ele>579.0</ele>
        <time>2020-09-29T18:32:17Z</time>
      </trkpt>
      <trkpt lat="40.4275620" lon="-3.5177200">
        <ele>579.0</ele>
        <time>2020-09-29T18:32:18Z</time>
      </trkpt>
      <trkpt lat="40.4275620" lon="-3.5177200">
        <ele>579.0</ele>
        <time>2020-09-29T18:32:19Z</time>
      </trkpt>
      <trkpt lat="40.4273920" lon="-3.5177500">
        <ele>579.0</ele>
        <time>2020-09-29T18:32:20Z</time>
      </trkpt>
      <trkpt lat="40.4273920" lon="-3.5177500">
        <ele>579.0</ele>
        <time>2020-09-29T18:32:21Z</time>
      </trkpt>
      <trkpt lat="40.4272180" lon="-3.5177730">
        <ele>579.0</ele>
        <time>2020-09-29T18:32:22Z</time>
      </trkpt>
      <trkpt lat="40.4272180" lon="-3.5177730">
        <ele>579.0</ele>
        <time>2020-09-29T18:32:23Z</time>
      </trkpt>
      <trkpt lat="40.4270420" lon="-3.5177820">
        <ele>579.0</ele>
        <time>2020-09-29T18:32:24Z</time>
      </trkpt>
      <trkpt lat="40.4270420" lon="-3.5177820">
        <ele>579.0</ele>
        <time>2020-09-29T18:32:25Z</time>
      </trkpt>
      <trkpt lat="40.4268650" lon="-3.5177800">
        <ele>579.0</ele>
        <time>2020-09-29T18:32:26Z</time>
      </trkpt>
      <trkpt lat="40.4268650" lon="-3.5177800">
        <ele>579.0</ele>
        <time>2020-09-29T18:32:27Z</time>
      </trkpt>
      <trkpt lat="40.4266880" lon="-3.5177770">
        <ele>579.0</ele>
        <time>2020-09-29T18:32:28Z</time>
      </trkpt>
      <trkpt lat="40.4266880" lon="-3.5177770">
        <ele>579.0</ele>
        <time>2020-09-29T18:32:29Z</time>
      </trkpt>
      <trkpt lat="40.4265080" lon="-3.5177780">
        <ele>578.0</ele>
        <time>2020-09-29T18:32:30Z</time>
      </trkpt>
      <trkpt lat="40.4265080" lon="-3.5177780">
        <ele>578.0</ele>
        <time>2020-09-29T18:32:31Z</time>
      </trkpt>
      <trkpt lat="40.4263320" lon="-3.5177870">
        <ele>578.0</ele>
        <time>2020-09-29T18:32:32Z</time>
      </trkpt>
      <trkpt lat="40.4263320" lon="-3.5177870">
        <ele>578.0</ele>
        <time>2020-09-29T18:32:33Z</time>
      </trkpt>
      <trkpt lat="40.4261530" lon="-3.5178030">
        <ele>578.0</ele>
        <time>2020-09-29T18:32:34Z</time>
      </trkpt>
      <trkpt lat="40.4261530" lon="-3.5178030">
        <ele>577.0</ele>
        <time>2020-09-29T18:32:35Z</time>
      </trkpt>
      <trkpt lat="40.4259750" lon="-3.5178300">
        <ele>577.0</ele>
        <time>2020-09-29T18:32:36Z</time>
      </trkpt>
      <trkpt lat="40.4259750" lon="-3.5178300">
        <ele>577.0</ele>
        <time>2020-09-29T18:32:37Z</time>
      </trkpt>
      <trkpt lat="40.4258020" lon="-3.5178730">
        <ele>577.0</ele>
        <time>2020-09-29T18:32:38Z</time>
      </trkpt>
      <trkpt lat="40.4258020" lon="-3.5178730">
        <ele>577.0</ele>
        <time>2020-09-29T18:32:39Z</time>
      </trkpt>
      <trkpt lat="40.4256330" lon="-3.5179280">
        <ele>577.0</ele>
        <time>2020-09-29T18:32:40Z</time>
      </trkpt>
      <trkpt lat="40.4256330" lon="-3.5179280">
        <ele>577.0</ele>
        <time>2020-09-29T18:32:41Z</time>
      </trkpt>
      <trkpt lat="40.4254730" lon="-3.5179980">
        <ele>577.0</ele>
        <time>2020-09-29T18:32:42Z</time>
      </trkpt>
      <trkpt lat="40.4254730" lon="-3.5179980">
        <ele>577.0</ele>
        <time>2020-09-29T18:32:43Z</time>
      </trkpt>
      <trkpt lat="40.4253150" lon="-3.5180800">
        <ele>577.0</ele>
        <time>2020-09-29T18:32:44Z</time>
      </trkpt>
      <trkpt lat="40.4252380" lon="-3.5181230">
        <ele>577.0</ele>
        <time>2020-09-29T18:32:45Z</time>
      </trkpt>
      <trkpt lat="40.4252380" lon="-3.5181230">
        <ele>577.0</ele>
        <time>2020-09-29T18:32:46Z</time>
      </trkpt>
      <trkpt lat="40.4250900" lon="-3.5182200">
        <ele>576.0</ele>
        <time>2020-09-29T18:32:47Z</time>
      </trkpt>
      <trkpt lat="40.4250900" lon="-3.5182200">
        <ele>576.0</ele>
        <time>2020-09-29T18:32:48Z</time>
      </trkpt>
      <trkpt lat="40.4249470" lon="-3.5183220">
        <ele>576.0</ele>
        <time>2020-09-29T18:32:49Z</time>
      </trkpt>
      <trkpt lat="40.4249470" lon="-3.5183220">
        <ele>576.0</ele>
        <time>2020-09-29T18:32:50Z</time>
      </trkpt>
      <trkpt lat="40.4248120" lon="-3.5184400">
        <ele>576.0</ele>
        <time>2020-09-29T18:32:51Z</time>
      </trkpt>
      <trkpt lat="40.4248120" lon="-3.5184400">
        <ele>576.0</ele>
        <time>2020-09-29T18:32:52Z</time>
      </trkpt>
      <trkpt lat="40.4246830" lon="-3.5185680">
        <ele>576.0</ele>
        <time>2020-09-29T18:32:53Z</time>
      </trkpt>
      <trkpt lat="40.4246220" lon="-3.5186380">
        <ele>576.0</ele>
        <time>2020-09-29T18:32:54Z</time>
      </trkpt>
      <trkpt lat="40.4246220" lon="-3.5186380">
        <ele>576.0</ele>
        <time>2020-09-29T18:32:55Z</time>
      </trkpt>
      <trkpt lat="40.4238110" lon="-3.5201060">
        <ele>559.7</ele>
        <time>2020-09-29T18:33:14Z</time>
      </trkpt>
      <trkpt lat="40.4237770" lon="-3.5201790">
        <ele>559.8</ele>
        <time>2020-09-29T18:33:15Z</time>
      </trkpt>
      <trkpt lat="40.4237420" lon="-3.5202670">
        <ele>559.9</ele>
        <time>2020-09-29T18:33:16Z</time>
      </trkpt>
      <trkpt lat="40.4237140" lon="-3.5203340">
        <ele>560.0</ele>
        <time>2020-09-29T18:33:17Z</time>
      </trkpt>
      <trkpt lat="40.4236750" lon="-3.5204030">
        <ele>560.2</ele>
        <time>2020-09-29T18:33:18Z</time>
      </trkpt>
      <trkpt lat="40.4236470" lon="-3.5204660">
        <ele>560.3</ele>
        <time>2020-09-29T18:33:19Z</time>
      </trkpt>
      <trkpt lat="40.4236120" lon="-3.5205500">
        <ele>560.5</ele>
        <time>2020-09-29T18:33:20Z</time>
      </trkpt>
      <trkpt lat="40.4236250" lon="-3.5206290">
        <ele>560.7</ele>
        <time>2020-09-29T18:33:21Z</time>
      </trkpt>
      <trkpt lat="40.4236450" lon="-3.5207030">
        <ele>560.9</ele>
        <time>2020-09-29T18:33:22Z</time>
      </trkpt>
      <trkpt lat="40.4236680" lon="-3.5207630">
        <ele>561.0</ele>
        <time>2020-09-29T18:33:23Z</time>
      </trkpt>
      <trkpt lat="40.4237010" lon="-3.5208250">
        <ele>561.1</ele>
        <time>2020-09-29T18:33:24Z</time>
      </trkpt>
      <trkpt lat="40.4237160" lon="-3.5209020">
        <ele>561.2</ele>
        <time>2020-09-29T18:33:25Z</time>
      </trkpt>
      <trkpt lat="40.4237330" lon="-3.5209660">
        <ele>561.3</ele>
        <time>2020-09-29T18:33:26Z</time>
      </trkpt>
      <trkpt lat="40.4237290" lon="-3.5210410">
        <ele>561.5</ele>
        <time>2020-09-29T18:33:27Z</time>
      </trkpt>
      <trkpt lat="40.4237300" lon="-3.5211150">
        <ele>561.7</ele>
        <time>2020-09-29T18:33:28Z</time>
      </trkpt>
      <trkpt lat="40.4237260" lon="-3.5211870">
        <ele>561.9</ele>
        <time>2020-09-29T18:33:29Z</time>
      </trkpt>
      <trkpt lat="40.4236910" lon="-3.5212650">
        <ele>562.1</ele>
        <time>2020-09-29T18:33:30Z</time>
      </trkpt>
      <trkpt lat="40.4236130" lon="-3.5213060">
        <ele>562.3</ele>
        <time>2020-09-29T18:33:31Z</time>
      </trkpt>
      <trkpt lat="40.4235890" lon="-3.5213480">
        <ele>562.4</ele>
        <time>2020-09-29T18:33:32Z</time>
      </trkpt>
      <trkpt lat="40.4235440" lon="-3.5213890">
        <ele>562.6</ele>
        <time>2020-09-29T18:33:33Z</time>
      </trkpt>
      <trkpt lat="40.4234660" lon="-3.5214040">
        <ele>562.8</ele>
        <time>2020-09-29T18:33:34Z</time>
      </trkpt>
      <trkpt lat="40.4233950" lon="-3.5214190">
        <ele>563.1</ele>
        <time>2020-09-29T18:33:35Z</time>
      </trkpt>
      <trkpt lat="40.4233360" lon="-3.5214240">
        <ele>563.1</ele>
        <time>2020-09-29T18:33:36Z</time>
      </trkpt>
      <trkpt lat="40.4232720" lon="-3.5214030">
        <ele>563.1</ele>
        <time>2020-09-29T18:33:37Z</time>
      </trkpt>
      <trkpt lat="40.4232230" lon="-3.5213690">
        <ele>563.2</ele>
        <time>2020-09-29T18:33:38Z</time>
      </trkpt>
      <trkpt lat="40.4231800" lon="-3.5213350">
        <ele>563.2</ele>
        <time>2020-09-29T18:33:39Z</time>
      </trkpt>
      <trkpt lat="40.4231570" lon="-3.5212780">
        <ele>563.2</ele>
        <time>2020-09-29T18:33:40Z</time>
      </trkpt>
      <trkpt lat="40.4231430" lon="-3.5212150">
        <ele>563.1</ele>
        <time>2020-09-29T18:33:41Z</time>
      </trkpt>
      <trkpt lat="40.4231220" lon="-3.5211500">
        <ele>563.0</ele>
        <time>2020-09-29T18:33:42Z</time>
      </trkpt>
      <trkpt lat="40.4231040" lon="-3.5210940">
        <ele>562.9</ele>
        <time>2020-09-29T18:33:43Z</time>
      </trkpt>
      <trkpt lat="40.4230800" lon="-3.5210400">
        <ele>562.9</ele>
        <time>2020-09-29T18:33:44Z</time>
      </trkpt>
      <trkpt lat="40.4230620" lon="-3.5209920">
        <ele>562.8</ele>
        <time>2020-09-29T18:33:45Z</time>
      </trkpt>
      <trkpt lat="40.4230080" lon="-3.5209590">
        <ele>562.8</ele>
        <time>2020-09-29T18:33:46Z</time>
      </trkpt>
      <trkpt lat="40.4229590" lon="-3.5209150">
        <ele>562.7</ele>
        <time>2020-09-29T18:33:47Z</time>
      </trkpt>
      <trkpt lat="40.4229150" lon="-3.5208660">
        <ele>562.4</ele>
        <time>2020-09-29T18:33:48Z</time>
      </trkpt>
      <trkpt lat="40.4228590" lon="-3.5208200">
        <ele>562.2</ele>
        <time>2020-09-29T18:33:49Z</time>
      </trkpt>
      <trkpt lat="40.4227270" lon="-3.5209000">
        <ele>561.9</ele>
        <time>2020-09-29T18:33:50Z</time>
      </trkpt>
      <trkpt lat="40.4226300" lon="-3.5209080">
        <ele>561.7</ele>
        <time>2020-09-29T18:33:51Z</time>
      </trkpt>
      <trkpt lat="40.4225470" lon="-3.5208790">
        <ele>561.5</ele>
        <time>2020-09-29T18:33:52Z</time>
      </trkpt>
      <trkpt lat="40.4224730" lon="-3.5208490">
        <ele>561.4</ele>
        <time>2020-09-29T18:33:53Z</time>
      </trkpt>
      <trkpt lat="40.4223680" lon="-3.5208570">
        <ele>561.2</ele>
        <time>2020-09-29T18:33:54Z</time>
      </trkpt>
      <trkpt lat="40.4222580" lon="-3.5208850">
        <ele>561.1</ele>
        <time>2020-09-29T18:33:55Z</time>
      </trkpt>
      <trkpt lat="40.4221610" lon="-3.5208740">
        <ele>560.9</ele>
        <time>2020-09-29T18:33:56Z</time>
      </trkpt>
      <trkpt lat="40.4220660" lon="-3.5208780">
        <ele>560.8</ele>
        <time>2020-09-29T18:33:57Z</time>
      </trkpt>
      <trkpt lat="40.4219550" lon="-3.5208900">
        <ele>560.7</ele>
        <time>2020-09-29T18:33:58Z</time>
      </trkpt>
      <trkpt lat="40.4218640" lon="-3.5209040">
        <ele>560.6</ele>
        <time>2020-09-29T18:33:59Z</time>
      </trkpt>
      <trkpt lat="40.4217720" lon="-3.5209230">
        <ele>560.5</ele>
        <time>2020-09-29T18:34:00Z</time>
      </trkpt>
      <trkpt lat="40.4216880" lon="-3.5209510">
        <ele>560.4</ele>
        <time>2020-09-29T18:34:01Z</time>
      </trkpt>
      <trkpt lat="40.4215850" lon="-3.5209570">
        <ele>560.4</ele>
        <time>2020-09-29T18:34:02Z</time>
      </trkpt>
      <trkpt lat="40.4214950" lon="-3.5209540">
        <ele>560.4</ele>
        <time>2020-09-29T18:34:03Z</time>
      </trkpt>
      <trkpt lat="40.4214190" lon="-3.5209330">
        <ele>560.5</ele>
        <time>2020-09-29T18:34:04Z</time>
      </trkpt>
      <trkpt lat="40.4213380" lon="-3.5209370">
        <ele>560.5</ele>
        <time>2020-09-29T18:34:05Z</time>
      </trkpt>
      <trkpt lat="40.4212290" lon="-3.5209420">
        <ele>560.5</ele>
        <time>2020-09-29T18:34:06Z</time>
      </trkpt>
      <trkpt lat="40.4211350" lon="-3.5209390">
        <ele>560.5</ele>
        <time>2020-09-29T18:34:07Z</time>
      </trkpt>
      <trkpt lat="40.4210540" lon="-3.5209460">
        <ele>560.4</ele>
        <time>2020-09-29T18:34:08Z</time>
      </trkpt>
      <trkpt lat="40.4209550" lon="-3.5209550">
        <ele>560.4</ele>
        <time>2020-09-29T18:34:09Z</time>
      </trkpt>
      <trkpt lat="40.4208680" lon="-3.5210250">
        <ele>560.3</ele>
        <time>2020-09-29T18:34:10Z</time>
      </trkpt>
      <trkpt lat="40.4207770" lon="-3.5210500">
        <ele>560.3</ele>
        <time>2020-09-29T18:34:11Z</time>
      </trkpt>
      <trkpt lat="40.4207020" lon="-3.5210420">
        <ele>560.2</ele>
        <time>2020-09-29T18:34:12Z</time>
      </trkpt>
      <trkpt lat="40.4206040" lon="-3.5210740">
        <ele>560.1</ele>
        <time>2020-09-29T18:34:13Z</time>
      </trkpt>
      <trkpt lat="40.4205210" lon="-3.5210790">
        <ele>560.1</ele>
        <time>2020-09-29T18:34:14Z</time>
      </trkpt>
      <trkpt lat="40.4204480" lon="-3.5210560">
        <ele>560.0</ele>
        <time>2020-09-29T18:34:15Z</time>
      </trkpt>
      <trkpt lat="40.4203650" lon="-3.5210600">
        <ele>560.0</ele>
        <time>2020-09-29T18:34:16Z</time>
      </trkpt>
      <trkpt lat="40.4202750" lon="-3.5210550">
        <ele>559.9</ele>
        <time>2020-09-29T18:34:17Z</time>
      </trkpt>
      <trkpt lat="40.4202130" lon="-3.5210490">
        <ele>559.9</ele>
        <time>2020-09-29T18:34:18Z</time>
      </trkpt>
      <trkpt lat="40.4201290" lon="-3.5210430">
        <ele>560.0</ele>
        <time>2020-09-29T18:34:19Z</time>
      </trkpt>
      <trkpt lat="40.4200420" lon="-3.5210460">
        <ele>560.0</ele>
        <time>2020-09-29T18:34:20Z</time>
      </trkpt>
      <trkpt lat="40.4199410" lon="-3.5210590">
        <ele>560.2</ele>
        <time>2020-09-29T18:34:21Z</time>
      </trkpt>
      <trkpt lat="40.4198540" lon="-3.5210520">
        <ele>560.5</ele>
        <time>2020-09-29T18:34:22Z</time>
      </trkpt>
      <trkpt lat="40.4197680" lon="-3.5210680">
        <ele>560.7</ele>
        <time>2020-09-29T18:34:23Z</time>
      </trkpt>
      <trkpt lat="40.4196740" lon="-3.5210800">
        <ele>561.0</ele>
        <time>2020-09-29T18:34:24Z</time>
      </trkpt>
      <trkpt lat="40.4195910" lon="-3.5210890">
        <ele>561.3</ele>
        <time>2020-09-29T18:34:25Z</time>
      </trkpt>
      <trkpt lat="40.4195290" lon="-3.5210940">
        <ele>561.5</ele>
        <time>2020-09-29T18:34:26Z</time>
      </trkpt>
      <trkpt lat="40.4194610" lon="-3.5211170">
        <ele>561.8</ele>
        <time>2020-09-29T18:34:27Z</time>
      </trkpt>
      <trkpt lat="40.4193560" lon="-3.5211480">
        <ele>562.2</ele>
        <time>2020-09-29T18:34:28Z</time>
      </trkpt>
      <trkpt lat="40.4192920" lon="-3.5211520">
        <ele>562.5</ele>
        <time>2020-09-29T18:34:29Z</time>
      </trkpt>
      <trkpt lat="40.4191980" lon="-3.5211830">
        <ele>562.9</ele>
        <time>2020-09-29T18:34:30Z</time>
      </trkpt>
      <trkpt lat="40.4191230" lon="-3.5211930">
        <ele>563.0</ele>
        <time>2020-09-29T18:34:31Z</time>
      </trkpt>
      <trkpt lat="40.4190580" lon="-3.5212230">
        <ele>563.2</ele>
        <time>2020-09-29T18:34:32Z</time>
      </trkpt>
      <trkpt lat="40.4189780" lon="-3.5212410">
        <ele>563.5</ele>
        <time>2020-09-29T18:34:33Z</time>
      </trkpt>
      <trkpt lat="40.4188910" lon="-3.5212240">
        <ele>563.6</ele>
        <time>2020-09-29T18:34:34Z</time>
      </trkpt>
      <trkpt lat="40.4188150" lon="-3.5211920">
        <ele>563.6</ele>
        <time>2020-09-29T18:34:35Z</time>
      </trkpt>
      <trkpt lat="40.4187440" lon="-3.5211610">
        <ele>564.0</ele>
        <time>2020-09-29T18:34:36Z</time>
      </trkpt>
      <trkpt lat="40.4186750" lon="-3.5211200">
        <ele>563.3</ele>
        <time>2020-09-29T18:34:37Z</time>
      </trkpt>
      <trkpt lat="40.4186120" lon="-3.5211010">
        <ele>561.2</ele>
        <time>2020-09-29T18:34:38Z</time>
      </trkpt>
      <trkpt lat="40.4185390" lon="-3.5210700">
        <ele>560.9</ele>
        <time>2020-09-29T18:34:39Z</time>
      </trkpt>
      <trkpt lat="40.4184490" lon="-3.5210880">
        <ele>560.6</ele>
        <time>2020-09-29T18:34:40Z</time>
      </trkpt>
      <trkpt lat="40.4183780" lon="-3.5210460">
        <ele>560.3</ele>
        <time>2020-09-29T18:34:41Z</time>
      </trkpt>
      <trkpt lat="40.4182880" lon="-3.5210310">
        <ele>560.1</ele>
        <time>2020-09-29T18:34:42Z</time>
      </trkpt>
      <trkpt lat="40.4181840" lon="-3.5210190">
        <ele>559.9</ele>
        <time>2020-09-29T18:34:43Z</time>
      </trkpt>
      <trkpt lat="40.4181040" lon="-3.5209740">
        <ele>559.7</ele>
        <time>2020-09-29T18:34:44Z</time>
      </trkpt>
      <trkpt lat="40.4180150" lon="-3.5209440">
        <ele>559.6</ele>
        <time>2020-09-29T18:34:45Z</time>
      </trkpt>
      <trkpt lat="40.4179620" lon="-3.5208350">
        <ele>559.4</ele>
        <time>2020-09-29T18:34:46Z</time>
      </trkpt>
      <trkpt lat="40.4178600" lon="-3.5208120">
        <ele>559.2</ele>
        <time>2020-09-29T18:34:47Z</time>
      </trkpt>
      <trkpt lat="40.4177830" lon="-3.5207540">
        <ele>559.1</ele>
        <time>2020-09-29T18:34:48Z</time>
      </trkpt>
      <trkpt lat="40.4177180" lon="-3.5206680">
        <ele>558.9</ele>
        <time>2020-09-29T18:34:49Z</time>
      </trkpt>
      <trkpt lat="40.4176370" lon="-3.5205970">
        <ele>558.8</ele>
        <time>2020-09-29T18:34:50Z</time>
      </trkpt>
      <trkpt lat="40.4175150" lon="-3.5206090">
        <ele>558.7</ele>
        <time>2020-09-29T18:34:51Z</time>
      </trkpt>
      <trkpt lat="40.4175160" lon="-3.5204430">
        <ele>558.5</ele>
        <time>2020-09-29T18:34:52Z</time>
      </trkpt>
      <trkpt lat="40.4174330" lon="-3.5203910">
        <ele>558.4</ele>
        <time>2020-09-29T18:34:53Z</time>
      </trkpt>
      <trkpt lat="40.4173470" lon="-3.5203220">
        <ele>558.3</ele>
        <time>2020-09-29T18:34:54Z</time>
      </trkpt>
      <trkpt lat="40.4172820" lon="-3.5202420">
        <ele>558.3</ele>
        <time>2020-09-29T18:34:55Z</time>
      </trkpt>
      <trkpt lat="40.4171920" lon="-3.5201810">
        <ele>558.2</ele>
        <time>2020-09-29T18:34:56Z</time>
      </trkpt>
      <trkpt lat="40.4171260" lon="-3.5200960">
        <ele>558.2</ele>
        <time>2020-09-29T18:34:57Z</time>
      </trkpt>
      <trkpt lat="40.4170380" lon="-3.5200950">
        <ele>558.2</ele>
        <time>2020-09-29T18:34:58Z</time>
      </trkpt>
      <trkpt lat="40.4169400" lon="-3.5200770">
        <ele>558.2</ele>
        <time>2020-09-29T18:34:59Z</time>
      </trkpt>
      <trkpt lat="40.4168580" lon="-3.5199850">
        <ele>558.2</ele>
        <time>2020-09-29T18:35:00Z</time>
      </trkpt>
      <trkpt lat="40.4167820" lon="-3.5199270">
        <ele>558.2</ele>
        <time>2020-09-29T18:35:01Z</time>
      </trkpt>
      <trkpt lat="40.4167160" lon="-3.5198420">
        <ele>558.2</ele>
        <time>2020-09-29T18:35:02Z</time>
      </trkpt>
      <trkpt lat="40.4166150" lon="-3.5197880">
        <ele>558.2</ele>
        <time>2020-09-29T18:35:03Z</time>
      </trkpt>
      <trkpt lat="40.4165580" lon="-3.5197770">
        <ele>558.2</ele>
        <time>2020-09-29T18:35:04Z</time>
      </trkpt>
      <trkpt lat="40.4164910" lon="-3.5197510">
        <ele>558.2</ele>
        <time>2020-09-29T18:35:05Z</time>
      </trkpt>
      <trkpt lat="40.4164330" lon="-3.5196710">
        <ele>558.2</ele>
        <time>2020-09-29T18:35:06Z</time>
      </trkpt>
      <trkpt lat="40.4163470" lon="-3.5196210">
        <ele>558.3</ele>
        <time>2020-09-29T18:35:07Z</time>
      </trkpt>
      <trkpt lat="40.4162810" lon="-3.5195410">
        <ele>558.4</ele>
        <time>2020-09-29T18:35:08Z</time>
      </trkpt>
      <trkpt lat="40.4161930" lon="-3.5195120">
        <ele>558.5</ele>
        <time>2020-09-29T18:35:09Z</time>
      </trkpt>
      <trkpt lat="40.4161360" lon="-3.5194870">
        <ele>558.6</ele>
        <time>2020-09-29T18:35:10Z</time>
      </trkpt>
      <trkpt lat="40.4160660" lon="-3.5194590">
        <ele>558.7</ele>
        <time>2020-09-29T18:35:11Z</time>
      </trkpt>
      <trkpt lat="40.4160080" lon="-3.5194100">
        <ele>558.9</ele>
        <time>2020-09-29T18:35:12Z</time>
      </trkpt>
      <trkpt lat="40.4159310" lon="-3.5193820">
        <ele>559.0</ele>
        <time>2020-09-29T18:35:13Z</time>
      </trkpt>
      <trkpt lat="40.4158500" lon="-3.5193680">
        <ele>559.2</ele>
        <time>2020-09-29T18:35:14Z</time>
      </trkpt>
      <trkpt lat="40.4157590" lon="-3.5193270">
        <ele>559.4</ele>
        <time>2020-09-29T18:35:15Z</time>
      </trkpt>
      <trkpt lat="40.4156820" lon="-3.5192910">
        <ele>559.6</ele>
        <time>2020-09-29T18:35:16Z</time>
      </trkpt>
      <trkpt lat="40.4156060" lon="-3.5192300">
        <ele>559.8</ele>
        <time>2020-09-29T18:35:17Z</time>
      </trkpt>
      <trkpt lat="40.4155420" lon="-3.5192050">
        <ele>560.0</ele>
        <time>2020-09-29T18:35:18Z</time>
      </trkpt>
      <trkpt lat="40.4154540" lon="-3.5191730">
        <ele>560.3</ele>
        <time>2020-09-29T18:35:19Z</time>
      </trkpt>
      <trkpt lat="40.4154090" lon="-3.5191460">
        <ele>560.4</ele>
        <time>2020-09-29T18:35:20Z</time>
      </trkpt>
      <trkpt lat="40.4152920" lon="-3.5191060">
        <ele>560.9</ele>
        <time>2020-09-29T18:35:21Z</time>
      </trkpt>
      <trkpt lat="40.4152380" lon="-3.5190890">
        <ele>561.1</ele>
        <time>2020-09-29T18:35:22Z</time>
      </trkpt>
      <trkpt lat="40.4151500" lon="-3.5190650">
        <ele>561.5</ele>
        <time>2020-09-29T18:35:23Z</time>
      </trkpt>
      <trkpt lat="40.4150930" lon="-3.5190320">
        <ele>561.7</ele>
        <time>2020-09-29T18:35:24Z</time>
      </trkpt>
      <trkpt lat="40.4150230" lon="-3.5190110">
        <ele>562.0</ele>
        <time>2020-09-29T18:35:25Z</time>
      </trkpt>
      <trkpt lat="40.4149550" lon="-3.5189840">
        <ele>562.4</ele>
        <time>2020-09-29T18:35:26Z</time>
      </trkpt>
      <trkpt lat="40.4148890" lon="-3.5189430">
        <ele>562.7</ele>
        <time>2020-09-29T18:35:27Z</time>
      </trkpt>
      <trkpt lat="40.4148170" lon="-3.5189230">
        <ele>563.0</ele>
        <time>2020-09-29T18:35:28Z</time>
      </trkpt>
      <trkpt lat="40.4147590" lon="-3.5189090">
        <ele>563.2</ele>
        <time>2020-09-29T18:35:29Z</time>
      </trkpt>
      <trkpt lat="40.4146970" lon="-3.5189030">
        <ele>563.3</ele>
        <time>2020-09-29T18:35:30Z</time>
      </trkpt>
      <trkpt lat="40.4146340" lon="-3.5188870">
        <ele>563.5</ele>
        <time>2020-09-29T18:35:31Z</time>
      </trkpt>
      <trkpt lat="40.4145660" lon="-3.5188690">
        <ele>563.6</ele>
        <time>2020-09-29T18:35:32Z</time>
      </trkpt>
      <trkpt lat="40.4145110" lon="-3.5188500">
        <ele>563.7</ele>
        <time>2020-09-29T18:35:33Z</time>
      </trkpt>
      <trkpt lat="40.4144440" lon="-3.5188400">
        <ele>563.7</ele>
        <time>2020-09-29T18:35:34Z</time>
      </trkpt>
      <trkpt lat="40.4143870" lon="-3.5188250">
        <ele>563.7</ele>
        <time>2020-09-29T18:35:35Z</time>
      </trkpt>
      <trkpt lat="40.4143280" lon="-3.5188170">
        <ele>563.6</ele>
        <time>2020-09-29T18:35:36Z</time>
      </trkpt>
      <trkpt lat="40.4142620" lon="-3.5188150">
        <ele>563.6</ele>
        <time>2020-09-29T18:35:37Z</time>
      </trkpt>
      <trkpt lat="40.4142010" lon="-3.5188040">
        <ele>563.6</ele>
        <time>2020-09-29T18:35:38Z</time>
      </trkpt>
      <trkpt lat="40.4141300" lon="-3.5187960">
        <ele>563.5</ele>
        <time>2020-09-29T18:35:39Z</time>
      </trkpt>
      <trkpt lat="40.4140600" lon="-3.5187800">
        <ele>563.5</ele>
        <time>2020-09-29T18:35:40Z</time>
      </trkpt>
      <trkpt lat="40.4139910" lon="-3.5187780">
        <ele>563.5</ele>
        <time>2020-09-29T18:35:41Z</time>
      </trkpt>
      <trkpt lat="40.4139150" lon="-3.5187740">
        <ele>563.5</ele>
        <time>2020-09-29T18:35:42Z</time>
      </trkpt>
      <trkpt lat="40.4138400" lon="-3.5187700">
        <ele>563.5</ele>
        <time>2020-09-29T18:35:43Z</time>
      </trkpt>
      <trkpt lat="40.4137610" lon="-3.5187670">
        <ele>563.5</ele>
        <time>2020-09-29T18:35:44Z</time>
      </trkpt>
      <trkpt lat="40.4136850" lon="-3.5187730">
        <ele>563.6</ele>
        <time>2020-09-29T18:35:45Z</time>
      </trkpt>
      <trkpt lat="40.4136170" lon="-3.5187730">
        <ele>563.6</ele>
        <time>2020-09-29T18:35:46Z</time>
      </trkpt>
      <trkpt lat="40.4135540" lon="-3.5187590">
        <ele>563.7</ele>
        <time>2020-09-29T18:35:47Z</time>
      </trkpt>
      <trkpt lat="40.4134830" lon="-3.5187690">
        <ele>563.7</ele>
        <time>2020-09-29T18:35:48Z</time>
      </trkpt>
      <trkpt lat="40.4134190" lon="-3.5187670">
        <ele>563.8</ele>
        <time>2020-09-29T18:35:49Z</time>
      </trkpt>
      <trkpt lat="40.4133450" lon="-3.5187750">
        <ele>563.9</ele>
        <time>2020-09-29T18:35:50Z</time>
      </trkpt>
      <trkpt lat="40.4132800" lon="-3.5187870">
        <ele>563.9</ele>
        <time>2020-09-29T18:35:51Z</time>
      </trkpt>
      <trkpt lat="40.4132140" lon="-3.5187850">
        <ele>564.2</ele>
        <time>2020-09-29T18:35:52Z</time>
      </trkpt>
      <trkpt lat="40.4131360" lon="-3.5188130">
        <ele>564.2</ele>
        <time>2020-09-29T18:35:53Z</time>
      </trkpt>
      <trkpt lat="40.4130660" lon="-3.5188530">
        <ele>564.1</ele>
        <time>2020-09-29T18:35:54Z</time>
      </trkpt>
      <trkpt lat="40.4130020" lon="-3.5188880">
        <ele>564.2</ele>
        <time>2020-09-29T18:35:55Z</time>
      </trkpt>
      <trkpt lat="40.4129360" lon="-3.5189050">
        <ele>564.3</ele>
        <time>2020-09-29T18:35:56Z</time>
      </trkpt>
      <trkpt lat="40.4128690" lon="-3.5188970">
        <ele>564.3</ele>
        <time>2020-09-29T18:35:57Z</time>
      </trkpt>
      <trkpt lat="40.4127970" lon="-3.5188680">
        <ele>564.3</ele>
        <time>2020-09-29T18:35:58Z</time>
      </trkpt>
      <trkpt lat="40.4127340" lon="-3.5188190">
        <ele>564.2</ele>
        <time>2020-09-29T18:35:59Z</time>
      </trkpt>
      <trkpt lat="40.4126710" lon="-3.5187810">
        <ele>564.0</ele>
        <time>2020-09-29T18:36:00Z</time>
      </trkpt>
      <trkpt lat="40.4126010" lon="-3.5187360">
        <ele>563.9</ele>
        <time>2020-09-29T18:36:01Z</time>
      </trkpt>
      <trkpt lat="40.4125340" lon="-3.5187150">
        <ele>563.9</ele>
        <time>2020-09-29T18:36:02Z</time>
      </trkpt>
      <trkpt lat="40.4124610" lon="-3.5186940">
        <ele>563.9</ele>
        <time>2020-09-29T18:36:03Z</time>
      </trkpt>
      <trkpt lat="40.4123920" lon="-3.5186770">
        <ele>563.9</ele>
        <time>2020-09-29T18:36:04Z</time>
      </trkpt>
      <trkpt lat="40.4123150" lon="-3.5186770">
        <ele>563.9</ele>
        <time>2020-09-29T18:36:05Z</time>
      </trkpt>
      <trkpt lat="40.4122400" lon="-3.5186790">
        <ele>563.9</ele>
        <time>2020-09-29T18:36:06Z</time>
      </trkpt>
      <trkpt lat="40.4121660" lon="-3.5186760">
        <ele>563.9</ele>
        <time>2020-09-29T18:36:07Z</time>
      </trkpt>
      <trkpt lat="40.4121050" lon="-3.5186480">
        <ele>563.9</ele>
        <time>2020-09-29T18:36:08Z</time>
      </trkpt>
      <trkpt lat="40.4120270" lon="-3.5186380">
        <ele>563.9</ele>
        <time>2020-09-29T18:36:09Z</time>
      </trkpt>
      <trkpt lat="40.4119640" lon="-3.5186270">
        <ele>564.0</ele>
        <time>2020-09-29T18:36:10Z</time>
      </trkpt>
      <trkpt lat="40.4118890" lon="-3.5186210">
        <ele>564.0</ele>
        <time>2020-09-29T18:36:11Z</time>
      </trkpt>
      <trkpt lat="40.4118130" lon="-3.5185970">
        <ele>564.0</ele>
        <time>2020-09-29T18:36:12Z</time>
      </trkpt>
      <trkpt lat="40.4117430" lon="-3.5185740">
        <ele>564.0</ele>
        <time>2020-09-29T18:36:13Z</time>
      </trkpt>
      <trkpt lat="40.4116730" lon="-3.5185620">
        <ele>564.1</ele>
        <time>2020-09-29T18:36:14Z</time>
      </trkpt>
      <trkpt lat="40.4116080" lon="-3.5185510">
        <ele>564.1</ele>
        <time>2020-09-29T18:36:15Z</time>
      </trkpt>
      <trkpt lat="40.4115320" lon="-3.5185400">
        <ele>564.2</ele>
        <time>2020-09-29T18:36:16Z</time>
      </trkpt>
      <trkpt lat="40.4114580" lon="-3.5185290">
        <ele>564.2</ele>
        <time>2020-09-29T18:36:17Z</time>
      </trkpt>
      <trkpt lat="40.4113890" lon="-3.5185180">
        <ele>564.3</ele>
        <time>2020-09-29T18:36:18Z</time>
      </trkpt>
      <trkpt lat="40.4113230" lon="-3.5185040">
        <ele>564.4</ele>
        <time>2020-09-29T18:36:19Z</time>
      </trkpt>
      <trkpt lat="40.4112530" lon="-3.5184890">
        <ele>564.4</ele>
        <time>2020-09-29T18:36:20Z</time>
      </trkpt>
      <trkpt lat="40.4111800" lon="-3.5184790">
        <ele>564.5</ele>
        <time>2020-09-29T18:36:21Z</time>
      </trkpt>
      <trkpt lat="40.4111210" lon="-3.5184610">
        <ele>564.6</ele>
        <time>2020-09-29T18:36:22Z</time>
      </trkpt>
      <trkpt lat="40.4110540" lon="-3.5184450">
        <ele>564.7</ele>
        <time>2020-09-29T18:36:23Z</time>
      </trkpt>
      <trkpt lat="40.4109870" lon="-3.5184300">
        <ele>564.7</ele>
        <time>2020-09-29T18:36:24Z</time>
      </trkpt>
      <trkpt lat="40.4109250" lon="-3.5184210">
        <ele>564.8</ele>
        <time>2020-09-29T18:36:25Z</time>
      </trkpt>
      <trkpt lat="40.4108630" lon="-3.5184070">
        <ele>564.9</ele>
        <time>2020-09-29T18:36:26Z</time>
      </trkpt>
      <trkpt lat="40.4107980" lon="-3.5183990">
        <ele>564.9</ele>
        <time>2020-09-29T18:36:27Z</time>
      </trkpt>
      <trkpt lat="40.4107360" lon="-3.5183860">
        <ele>565.0</ele>
        <time>2020-09-29T18:36:28Z</time>
      </trkpt>
      <trkpt lat="40.4106710" lon="-3.5183740">
        <ele>565.0</ele>
        <time>2020-09-29T18:36:29Z</time>
      </trkpt>
      <trkpt lat="40.4106030" lon="-3.5183610">
        <ele>565.1</ele>
        <time>2020-09-29T18:36:30Z</time>
      </trkpt>
      <trkpt lat="40.4105300" lon="-3.5183440">
        <ele>565.1</ele>
        <time>2020-09-29T18:36:31Z</time>
      </trkpt>
      <trkpt lat="40.4104630" lon="-3.5183240">
        <ele>565.1</ele>
        <time>2020-09-29T18:36:32Z</time>
      </trkpt>
      <trkpt lat="40.4103920" lon="-3.5183160">
        <ele>565.1</ele>
        <time>2020-09-29T18:36:33Z</time>
      </trkpt>
      <trkpt lat="40.4103250" lon="-3.5182950">
        <ele>565.1</ele>
        <time>2020-09-29T18:36:34Z</time>
      </trkpt>
      <trkpt lat="40.4102590" lon="-3.5182860">
        <ele>565.1</ele>
        <time>2020-09-29T18:36:35Z</time>
      </trkpt>
      <trkpt lat="40.4102010" lon="-3.5182810">
        <ele>565.2</ele>
        <time>2020-09-29T18:36:36Z</time>
      </trkpt>
      <trkpt lat="40.4100940" lon="-3.5182630">
        <ele>565.3</ele>
        <time>2020-09-29T18:36:37Z</time>
      </trkpt>
      <trkpt lat="40.4100450" lon="-3.5182570">
        <ele>565.4</ele>
        <time>2020-09-29T18:36:38Z</time>
      </trkpt>
      <trkpt lat="40.4099890" lon="-3.5182510">
        <ele>565.5</ele>
        <time>2020-09-29T18:36:39Z</time>
      </trkpt>
      <trkpt lat="40.4099170" lon="-3.5182310">
        <ele>565.6</ele>
        <time>2020-09-29T18:36:40Z</time>
      </trkpt>
      <trkpt lat="40.4098260" lon="-3.5182290">
        <ele>565.8</ele>
        <time>2020-09-29T18:36:41Z</time>
      </trkpt>
      <trkpt lat="40.4097690" lon="-3.5182410">
        <ele>565.9</ele>
        <time>2020-09-29T18:36:42Z</time>
      </trkpt>
      <trkpt lat="40.4097110" lon="-3.5182740">
        <ele>566.1</ele>
        <time>2020-09-29T18:36:43Z</time>
      </trkpt>
      <trkpt lat="40.4096250" lon="-3.5183420">
        <ele>566.4</ele>
        <time>2020-09-29T18:36:44Z</time>
      </trkpt>
      <trkpt lat="40.4095650" lon="-3.5183760">
        <ele>566.7</ele>
        <time>2020-09-29T18:36:45Z</time>
      </trkpt>
      <trkpt lat="40.4095230" lon="-3.5184160">
        <ele>566.9</ele>
        <time>2020-09-29T18:36:46Z</time>
      </trkpt>
      <trkpt lat="40.4094590" lon="-3.5184650">
        <ele>567.2</ele>
        <time>2020-09-29T18:36:47Z</time>
      </trkpt>
      <trkpt lat="40.4094170" lon="-3.5184990">
        <ele>567.5</ele>
        <time>2020-09-29T18:36:48Z</time>
      </trkpt>
      <trkpt lat="40.4093570" lon="-3.5185510">
        <ele>567.8</ele>
        <time>2020-09-29T18:36:49Z</time>
      </trkpt>
      <trkpt lat="40.4093070" lon="-3.5186210">
        <ele>568.1</ele>
        <time>2020-09-29T18:36:50Z</time>
      </trkpt>
      <trkpt lat="40.4092690" lon="-3.5186930">
        <ele>568.4</ele>
        <time>2020-09-29T18:36:51Z</time>
      </trkpt>
      <trkpt lat="40.4092440" lon="-3.5187630">
        <ele>568.7</ele>
        <time>2020-09-29T18:36:52Z</time>
      </trkpt>
      <trkpt lat="40.4092170" lon="-3.5188290">
        <ele>568.8</ele>
        <time>2020-09-29T18:36:53Z</time>
      </trkpt>
      <trkpt lat="40.4091870" lon="-3.5188930">
        <ele>569.0</ele>
        <time>2020-09-29T18:36:54Z</time>
      </trkpt>
      <trkpt lat="40.4091680" lon="-3.5189570">
        <ele>569.2</ele>
        <time>2020-09-29T18:36:55Z</time>
      </trkpt>
      <trkpt lat="40.4090760" lon="-3.5190010">
        <ele>569.4</ele>
        <time>2020-09-29T18:36:56Z</time>
      </trkpt>
      <trkpt lat="40.4090200" lon="-3.5190280">
        <ele>569.6</ele>
        <time>2020-09-29T18:36:57Z</time>
      </trkpt>
      <trkpt lat="40.4089590" lon="-3.5190380">
        <ele>569.7</ele>
        <time>2020-09-29T18:36:58Z</time>
      </trkpt>
      <trkpt lat="40.4088920" lon="-3.5190350">
        <ele>569.7</ele>
        <time>2020-09-29T18:36:59Z</time>
      </trkpt>
      <trkpt lat="40.4088320" lon="-3.5190160">
        <ele>569.7</ele>
        <time>2020-09-29T18:37:00Z</time>
      </trkpt>
      <trkpt lat="40.4087760" lon="-3.5189850">
        <ele>569.7</ele>
        <time>2020-09-29T18:37:01Z</time>
      </trkpt>
      <trkpt lat="40.4087070" lon="-3.5189850">
        <ele>569.9</ele>
        <time>2020-09-29T18:37:02Z</time>
      </trkpt>
      <trkpt lat="40.4086460" lon="-3.5189930">
        <ele>570.0</ele>
        <time>2020-09-29T18:37:03Z</time>
      </trkpt>
      <trkpt lat="40.4085820" lon="-3.5189980">
        <ele>570.1</ele>
        <time>2020-09-29T18:37:04Z</time>
      </trkpt>
      <trkpt lat="40.4085170" lon="-3.5190070">
        <ele>570.2</ele>
        <time>2020-09-29T18:37:05Z</time>
      </trkpt>
      <trkpt lat="40.4084520" lon="-3.5190120">
        <ele>570.3</ele>
        <time>2020-09-29T18:37:06Z</time>
      </trkpt>
      <trkpt lat="40.4083910" lon="-3.5190120">
        <ele>570.3</ele>
        <time>2020-09-29T18:37:07Z</time>
      </trkpt>
      <trkpt lat="40.4083270" lon="-3.5190280">
        <ele>570.4</ele>
        <time>2020-09-29T18:37:08Z</time>
      </trkpt>
      <trkpt lat="40.4082590" lon="-3.5190490">
        <ele>570.5</ele>
        <time>2020-09-29T18:37:09Z</time>
      </trkpt>
      <trkpt lat="40.4081920" lon="-3.5190630">
        <ele>570.5</ele>
        <time>2020-09-29T18:37:10Z</time>
      </trkpt>
      <trkpt lat="40.4081310" lon="-3.5190600">
        <ele>570.6</ele>
        <time>2020-09-29T18:37:11Z</time>
      </trkpt>
      <trkpt lat="40.4080690" lon="-3.5190780">
        <ele>570.6</ele>
        <time>2020-09-29T18:37:12Z</time>
      </trkpt>
      <trkpt lat="40.4080020" lon="-3.5190960">
        <ele>570.7</ele>
        <time>2020-09-29T18:37:13Z</time>
      </trkpt>
      <trkpt lat="40.4079390" lon="-3.5191070">
        <ele>570.8</ele>
        <time>2020-09-29T18:37:14Z</time>
      </trkpt>
      <trkpt lat="40.4078690" lon="-3.5191160">
        <ele>570.9</ele>
        <time>2020-09-29T18:37:15Z</time>
      </trkpt>
      <trkpt lat="40.4078130" lon="-3.5191200">
        <ele>571.0</ele>
        <time>2020-09-29T18:37:16Z</time>
      </trkpt>
      <trkpt lat="40.4077480" lon="-3.5191300">
        <ele>571.1</ele>
        <time>2020-09-29T18:37:17Z</time>
      </trkpt>
      <trkpt lat="40.4076850" lon="-3.5191390">
        <ele>571.1</ele>
        <time>2020-09-29T18:37:18Z</time>
      </trkpt>
      <trkpt lat="40.4076220" lon="-3.5191480">
        <ele>571.3</ele>
        <time>2020-09-29T18:37:19Z</time>
      </trkpt>
      <trkpt lat="40.4075570" lon="-3.5191610">
        <ele>571.4</ele>
        <time>2020-09-29T18:37:20Z</time>
      </trkpt>
      <trkpt lat="40.4074900" lon="-3.5191700">
        <ele>571.7</ele>
        <time>2020-09-29T18:37:21Z</time>
      </trkpt>
      <trkpt lat="40.4074320" lon="-3.5191790">
        <ele>571.9</ele>
        <time>2020-09-29T18:37:22Z</time>
      </trkpt>
      <trkpt lat="40.4073810" lon="-3.5191780">
        <ele>572.0</ele>
        <time>2020-09-29T18:37:23Z</time>
      </trkpt>
      <trkpt lat="40.4073230" lon="-3.5191860">
        <ele>572.2</ele>
        <time>2020-09-29T18:37:24Z</time>
      </trkpt>
      <trkpt lat="40.4072650" lon="-3.5191940">
        <ele>572.4</ele>
        <time>2020-09-29T18:37:25Z</time>
      </trkpt>
      <trkpt lat="40.4072080" lon="-3.5191960">
        <ele>572.6</ele>
        <time>2020-09-29T18:37:26Z</time>
      </trkpt>
      <trkpt lat="40.4071500" lon="-3.5192020">
        <ele>572.8</ele>
        <time>2020-09-29T18:37:27Z</time>
      </trkpt>
      <trkpt lat="40.4070950" lon="-3.5192040">
        <ele>573.0</ele>
        <time>2020-09-29T18:37:28Z</time>
      </trkpt>
      <trkpt lat="40.4070340" lon="-3.5192110">
        <ele>573.2</ele>
        <time>2020-09-29T18:37:29Z</time>
      </trkpt>
      <trkpt lat="40.4069790" lon="-3.5192110">
        <ele>573.5</ele>
        <time>2020-09-29T18:37:30Z</time>
      </trkpt>
      <trkpt lat="40.4069230" lon="-3.5192090">
        <ele>573.7</ele>
        <time>2020-09-29T18:37:31Z</time>
      </trkpt>
      <trkpt lat="40.4068680" lon="-3.5192140">
        <ele>573.9</ele>
        <time>2020-09-29T18:37:32Z</time>
      </trkpt>
      <trkpt lat="40.4068070" lon="-3.5192110">
        <ele>574.2</ele>
        <time>2020-09-29T18:37:33Z</time>
      </trkpt>
      <trkpt lat="40.4067480" lon="-3.5192040">
        <ele>574.5</ele>
        <time>2020-09-29T18:37:34Z</time>
      </trkpt>
      <trkpt lat="40.4066920" lon="-3.5192030">
        <ele>574.7</ele>
        <time>2020-09-29T18:37:35Z</time>
      </trkpt>
      <trkpt lat="40.4066390" lon="-3.5191930">
        <ele>574.9</ele>
        <time>2020-09-29T18:37:36Z</time>
      </trkpt>
      <trkpt lat="40.4065830" lon="-3.5191840">
        <ele>575.0</ele>
        <time>2020-09-29T18:37:37Z</time>
      </trkpt>
      <trkpt lat="40.4065250" lon="-3.5191800">
        <ele>575.2</ele>
        <time>2020-09-29T18:37:38Z</time>
      </trkpt>
      <trkpt lat="40.4064630" lon="-3.5191780">
        <ele>575.4</ele>
        <time>2020-09-29T18:37:39Z</time>
      </trkpt>
      <trkpt lat="40.4064020" lon="-3.5191760">
        <ele>575.5</ele>
        <time>2020-09-29T18:37:40Z</time>
      </trkpt>
      <trkpt lat="40.4063400" lon="-3.5191690">
        <ele>575.6</ele>
        <time>2020-09-29T18:37:41Z</time>
      </trkpt>
      <trkpt lat="40.4062810" lon="-3.5191610">
        <ele>575.7</ele>
        <time>2020-09-29T18:37:42Z</time>
      </trkpt>
      <trkpt lat="40.4062190" lon="-3.5191520">
        <ele>575.8</ele>
        <time>2020-09-29T18:37:43Z</time>
      </trkpt>
      <trkpt lat="40.4061600" lon="-3.5191510">
        <ele>575.9</ele>
        <time>2020-09-29T18:37:44Z</time>
      </trkpt>
      <trkpt lat="40.4060970" lon="-3.5191480">
        <ele>575.9</ele>
        <time>2020-09-29T18:37:45Z</time>
      </trkpt>
      <trkpt lat="40.4060370" lon="-3.5191410">
        <ele>576.0</ele>
        <time>2020-09-29T18:37:46Z</time>
      </trkpt>
      <trkpt lat="40.4059760" lon="-3.5191410">
        <ele>576.1</ele>
        <time>2020-09-29T18:37:47Z</time>
      </trkpt>
      <trkpt lat="40.4059140" lon="-3.5191290">
        <ele>576.1</ele>
        <time>2020-09-29T18:37:48Z</time>
      </trkpt>
      <trkpt lat="40.4058600" lon="-3.5191170">
        <ele>576.2</ele>
        <time>2020-09-29T18:37:49Z</time>
      </trkpt>
      <trkpt lat="40.4058070" lon="-3.5191100">
        <ele>576.2</ele>
        <time>2020-09-29T18:37:50Z</time>
      </trkpt>
      <trkpt lat="40.4057460" lon="-3.5190980">
        <ele>576.2</ele>
        <time>2020-09-29T18:37:51Z</time>
      </trkpt>
      <trkpt lat="40.4056660" lon="-3.5190910">
        <ele>576.2</ele>
        <time>2020-09-29T18:37:52Z</time>
      </trkpt>
      <trkpt lat="40.4055950" lon="-3.5190870">
        <ele>576.1</ele>
        <time>2020-09-29T18:37:53Z</time>
      </trkpt>
      <trkpt lat="40.4055290" lon="-3.5190800">
        <ele>576.0</ele>
        <time>2020-09-29T18:37:54Z</time>
      </trkpt>
      <trkpt lat="40.4054630" lon="-3.5190660">
        <ele>575.9</ele>
        <time>2020-09-29T18:37:55Z</time>
      </trkpt>
      <trkpt lat="40.4053930" lon="-3.5190530">
        <ele>575.8</ele>
        <time>2020-09-29T18:37:56Z</time>
      </trkpt>
      <trkpt lat="40.4053320" lon="-3.5190470">
        <ele>575.7</ele>
        <time>2020-09-29T18:37:57Z</time>
      </trkpt>
      <trkpt lat="40.4052610" lon="-3.5190340">
        <ele>575.6</ele>
        <time>2020-09-29T18:37:58Z</time>
      </trkpt>
      <trkpt lat="40.4052000" lon="-3.5190190">
        <ele>575.4</ele>
        <time>2020-09-29T18:37:59Z</time>
      </trkpt>
      <trkpt lat="40.4051390" lon="-3.5189830">
        <ele>575.3</ele>
        <time>2020-09-29T18:38:00Z</time>
      </trkpt>
      <trkpt lat="40.4050730" lon="-3.5189420">
        <ele>575.2</ele>
        <time>2020-09-29T18:38:01Z</time>
      </trkpt>
      <trkpt lat="40.4050060" lon="-3.5189460">
        <ele>575.0</ele>
        <time>2020-09-29T18:38:02Z</time>
      </trkpt>
      <trkpt lat="40.4049390" lon="-3.5189220">
        <ele>574.8</ele>
        <time>2020-09-29T18:38:03Z</time>
      </trkpt>
      <trkpt lat="40.4048600" lon="-3.5189150">
        <ele>574.6</ele>
        <time>2020-09-29T18:38:04Z</time>
      </trkpt>
      <trkpt lat="40.4047780" lon="-3.5188880">
        <ele>574.3</ele>
        <time>2020-09-29T18:38:05Z</time>
      </trkpt>
      <trkpt lat="40.4046930" lon="-3.5188680">
        <ele>574.2</ele>
        <time>2020-09-29T18:38:06Z</time>
      </trkpt>
      <trkpt lat="40.4046270" lon="-3.5188250">
        <ele>574.1</ele>
        <time>2020-09-29T18:38:07Z</time>
      </trkpt>
      <trkpt lat="40.4045480" lon="-3.5187980">
        <ele>574.0</ele>
        <time>2020-09-29T18:38:08Z</time>
      </trkpt>
      <trkpt lat="40.4044660" lon="-3.5187680">
        <ele>573.7</ele>
        <time>2020-09-29T18:38:09Z</time>
      </trkpt>
      <trkpt lat="40.4043880" lon="-3.5187320">
        <ele>573.4</ele>
        <time>2020-09-29T18:38:10Z</time>
      </trkpt>
      <trkpt lat="40.4043120" lon="-3.5186950">
        <ele>573.1</ele>
        <time>2020-09-29T18:38:11Z</time>
      </trkpt>
      <trkpt lat="40.4042280" lon="-3.5186610">
        <ele>572.8</ele>
        <time>2020-09-29T18:38:12Z</time>
      </trkpt>
      <trkpt lat="40.4041510" lon="-3.5186240">
        <ele>572.3</ele>
        <time>2020-09-29T18:38:13Z</time>
      </trkpt>
      <trkpt lat="40.4040730" lon="-3.5185790">
        <ele>571.9</ele>
        <time>2020-09-29T18:38:14Z</time>
      </trkpt>
      <trkpt lat="40.4039900" lon="-3.5185450">
        <ele>571.5</ele>
        <time>2020-09-29T18:38:15Z</time>
      </trkpt>
      <trkpt lat="40.4039110" lon="-3.5185140">
        <ele>571.2</ele>
        <time>2020-09-29T18:38:16Z</time>
      </trkpt>
      <trkpt lat="40.4038370" lon="-3.5184520">
        <ele>570.9</ele>
        <time>2020-09-29T18:38:17Z</time>
      </trkpt>
      <trkpt lat="40.4037550" lon="-3.5184020">
        <ele>570.6</ele>
        <time>2020-09-29T18:38:18Z</time>
      </trkpt>
      <trkpt lat="40.4036720" lon="-3.5183520">
        <ele>570.4</ele>
        <time>2020-09-29T18:38:19Z</time>
      </trkpt>
      <trkpt lat="40.4035930" lon="-3.5182760">
        <ele>570.1</ele>
        <time>2020-09-29T18:38:20Z</time>
      </trkpt>
      <trkpt lat="40.4035120" lon="-3.5182130">
        <ele>569.9</ele>
        <time>2020-09-29T18:38:21Z</time>
      </trkpt>
      <trkpt lat="40.4034240" lon="-3.5181630">
        <ele>569.7</ele>
        <time>2020-09-29T18:38:22Z</time>
      </trkpt>
      <trkpt lat="40.4033280" lon="-3.5181440">
        <ele>569.5</ele>
        <time>2020-09-29T18:38:23Z</time>
      </trkpt>
      <trkpt lat="40.4032650" lon="-3.5180370">
        <ele>569.3</ele>
        <time>2020-09-29T18:38:24Z</time>
      </trkpt>
      <trkpt lat="40.4031740" lon="-3.5180440">
        <ele>569.3</ele>
        <time>2020-09-29T18:38:25Z</time>
      </trkpt>
      <trkpt lat="40.4030890" lon="-3.5180160">
        <ele>569.3</ele>
        <time>2020-09-29T18:38:26Z</time>
      </trkpt>
      <trkpt lat="40.4029860" lon="-3.5180160">
        <ele>569.3</ele>
        <time>2020-09-29T18:38:27Z</time>
      </trkpt>
      <trkpt lat="40.4029100" lon="-3.5179840">
        <ele>569.3</ele>
        <time>2020-09-29T18:38:28Z</time>
      </trkpt>
      <trkpt lat="40.4028180" lon="-3.5179790">
        <ele>569.3</ele>
        <time>2020-09-29T18:38:29Z</time>
      </trkpt>
      <trkpt lat="40.4027300" lon="-3.5179640">
        <ele>569.3</ele>
        <time>2020-09-29T18:38:30Z</time>
      </trkpt>
      <trkpt lat="40.4026340" lon="-3.5179800">
        <ele>569.4</ele>
        <time>2020-09-29T18:38:31Z</time>
      </trkpt>
      <trkpt lat="40.4025490" lon="-3.5179760">
        <ele>569.4</ele>
        <time>2020-09-29T18:38:32Z</time>
      </trkpt>
      <trkpt lat="40.4024660" lon="-3.5179740">
        <ele>569.4</ele>
        <time>2020-09-29T18:38:33Z</time>
      </trkpt>
      <trkpt lat="40.4023720" lon="-3.5180010">
        <ele>569.5</ele>
        <time>2020-09-29T18:38:34Z</time>
      </trkpt>
      <trkpt lat="40.4022850" lon="-3.5180200">
        <ele>569.5</ele>
        <time>2020-09-29T18:38:35Z</time>
      </trkpt>
      <trkpt lat="40.4022000" lon="-3.5180320">
        <ele>569.5</ele>
        <time>2020-09-29T18:38:36Z</time>
      </trkpt>
      <trkpt lat="40.4021170" lon="-3.5180390">
        <ele>569.5</ele>
        <time>2020-09-29T18:38:37Z</time>
      </trkpt>
      <trkpt lat="40.4020300" lon="-3.5180490">
        <ele>569.5</ele>
        <time>2020-09-29T18:38:38Z</time>
      </trkpt>
      <trkpt lat="40.4019480" lon="-3.5180430">
        <ele>569.5</ele>
        <time>2020-09-29T18:38:39Z</time>
      </trkpt>
      <trkpt lat="40.4018650" lon="-3.5180500">
        <ele>569.5</ele>
        <time>2020-09-29T18:38:40Z</time>
      </trkpt>
      <trkpt lat="40.4017810" lon="-3.5180710">
        <ele>569.6</ele>
        <time>2020-09-29T18:38:41Z</time>
      </trkpt>
      <trkpt lat="40.4016980" lon="-3.5180690">
        <ele>569.7</ele>
        <time>2020-09-29T18:38:42Z</time>
      </trkpt>
      <trkpt lat="40.4016200" lon="-3.5180820">
        <ele>569.7</ele>
        <time>2020-09-29T18:38:43Z</time>
      </trkpt>
      <trkpt lat="40.4015460" lon="-3.5180880">
        <ele>569.8</ele>
        <time>2020-09-29T18:38:44Z</time>
      </trkpt>
      <trkpt lat="40.4014620" lon="-3.5181170">
        <ele>569.8</ele>
        <time>2020-09-29T18:38:45Z</time>
      </trkpt>
      <trkpt lat="40.4013790" lon="-3.5181420">
        <ele>569.9</ele>
        <time>2020-09-29T18:38:46Z</time>
      </trkpt>
      <trkpt lat="40.4013020" lon="-3.5181600">
        <ele>570.0</ele>
        <time>2020-09-29T18:38:47Z</time>
      </trkpt>
      <trkpt lat="40.4012320" lon="-3.5181590">
        <ele>570.0</ele>
        <time>2020-09-29T18:38:48Z</time>
      </trkpt>
      <trkpt lat="40.4011530" lon="-3.5181740">
        <ele>570.1</ele>
        <time>2020-09-29T18:38:49Z</time>
      </trkpt>
      <trkpt lat="40.4010800" lon="-3.5181880">
        <ele>570.1</ele>
        <time>2020-09-29T18:38:50Z</time>
      </trkpt>
      <trkpt lat="40.4010070" lon="-3.5182080">
        <ele>570.2</ele>
        <time>2020-09-29T18:38:51Z</time>
      </trkpt>
      <trkpt lat="40.4009250" lon="-3.5182220">
        <ele>570.2</ele>
        <time>2020-09-29T18:38:52Z</time>
      </trkpt>
      <trkpt lat="40.4008540" lon="-3.5182500">
        <ele>570.2</ele>
        <time>2020-09-29T18:38:53Z</time>
      </trkpt>
      <trkpt lat="40.4007770" lon="-3.5182580">
        <ele>570.3</ele>
        <time>2020-09-29T18:38:54Z</time>
      </trkpt>
      <trkpt lat="40.4007030" lon="-3.5182600">
        <ele>570.3</ele>
        <time>2020-09-29T18:38:55Z</time>
      </trkpt>
      <trkpt lat="40.4006230" lon="-3.5182800">
        <ele>570.3</ele>
        <time>2020-09-29T18:38:56Z</time>
      </trkpt>
      <trkpt lat="40.4005450" lon="-3.5182960">
        <ele>570.3</ele>
        <time>2020-09-29T18:38:57Z</time>
      </trkpt>
      <trkpt lat="40.4004770" lon="-3.5183000">
        <ele>570.4</ele>
        <time>2020-09-29T18:38:58Z</time>
      </trkpt>
      <trkpt lat="40.4003970" lon="-3.5183250">
        <ele>570.5</ele>
        <time>2020-09-29T18:38:59Z</time>
      </trkpt>
      <trkpt lat="40.4003210" lon="-3.5183550">
        <ele>570.5</ele>
        <time>2020-09-29T18:39:00Z</time>
      </trkpt>
      <trkpt lat="40.4002420" lon="-3.5183720">
        <ele>570.6</ele>
        <time>2020-09-29T18:39:01Z</time>
      </trkpt>
      <trkpt lat="40.4001620" lon="-3.5183970">
        <ele>570.6</ele>
        <time>2020-09-29T18:39:02Z</time>
      </trkpt>
      <trkpt lat="40.4000810" lon="-3.5184090">
        <ele>570.7</ele>
        <time>2020-09-29T18:39:03Z</time>
      </trkpt>
      <trkpt lat="40.4000020" lon="-3.5184490">
        <ele>570.7</ele>
        <time>2020-09-29T18:39:04Z</time>
      </trkpt>
      <trkpt lat="40.3999280" lon="-3.5184730">
        <ele>570.7</ele>
        <time>2020-09-29T18:39:05Z</time>
      </trkpt>
      <trkpt lat="40.3998470" lon="-3.5185150">
        <ele>570.8</ele>
        <time>2020-09-29T18:39:06Z</time>
      </trkpt>
      <trkpt lat="40.3997720" lon="-3.5185580">
        <ele>570.9</ele>
        <time>2020-09-29T18:39:07Z</time>
      </trkpt>
      <trkpt lat="40.3996940" lon="-3.5186050">
        <ele>571.0</ele>
        <time>2020-09-29T18:39:08Z</time>
      </trkpt>
      <trkpt lat="40.3996210" lon="-3.5186410">
        <ele>571.0</ele>
        <time>2020-09-29T18:39:09Z</time>
      </trkpt>
      <trkpt lat="40.3995460" lon="-3.5186610">
        <ele>571.1</ele>
        <time>2020-09-29T18:39:10Z</time>
      </trkpt>
      <trkpt lat="40.3994750" lon="-3.5186970">
        <ele>571.1</ele>
        <time>2020-09-29T18:39:11Z</time>
      </trkpt>
      <trkpt lat="40.3993990" lon="-3.5187500">
        <ele>571.2</ele>
        <time>2020-09-29T18:39:12Z</time>
      </trkpt>
      <trkpt lat="40.3993290" lon="-3.5187910">
        <ele>571.2</ele>
        <time>2020-09-29T18:39:13Z</time>
      </trkpt>
      <trkpt lat="40.3992540" lon="-3.5188390">
        <ele>571.2</ele>
        <time>2020-09-29T18:39:14Z</time>
      </trkpt>
      <trkpt lat="40.3991790" lon="-3.5188820">
        <ele>571.3</ele>
        <time>2020-09-29T18:39:15Z</time>
      </trkpt>
      <trkpt lat="40.3991020" lon="-3.5189250">
        <ele>571.3</ele>
        <time>2020-09-29T18:39:16Z</time>
      </trkpt>
      <trkpt lat="40.3990190" lon="-3.5189790">
        <ele>571.3</ele>
        <time>2020-09-29T18:39:17Z</time>
      </trkpt>
      <trkpt lat="40.3989530" lon="-3.5190010">
        <ele>571.4</ele>
        <time>2020-09-29T18:39:18Z</time>
      </trkpt>
      <trkpt lat="40.3988830" lon="-3.5190200">
        <ele>571.4</ele>
        <time>2020-09-29T18:39:19Z</time>
      </trkpt>
      <trkpt lat="40.3988010" lon="-3.5190520">
        <ele>571.5</ele>
        <time>2020-09-29T18:39:20Z</time>
      </trkpt>
      <trkpt lat="40.3987350" lon="-3.5190720">
        <ele>571.6</ele>
        <time>2020-09-29T18:39:21Z</time>
      </trkpt>
      <trkpt lat="40.3986640" lon="-3.5190960">
        <ele>571.8</ele>
        <time>2020-09-29T18:39:22Z</time>
      </trkpt>
      <trkpt lat="40.3985990" lon="-3.5191130">
        <ele>571.9</ele>
        <time>2020-09-29T18:39:23Z</time>
      </trkpt>
      <trkpt lat="40.3985330" lon="-3.5191320">
        <ele>571.9</ele>
        <time>2020-09-29T18:39:24Z</time>
      </trkpt>
      <trkpt lat="40.3984610" lon="-3.5191600">
        <ele>571.9</ele>
        <time>2020-09-29T18:39:25Z</time>
      </trkpt>
      <trkpt lat="40.3983840" lon="-3.5191800">
        <ele>571.8</ele>
        <time>2020-09-29T18:39:26Z</time>
      </trkpt>
      <trkpt lat="40.3983080" lon="-3.5191970">
        <ele>571.8</ele>
        <time>2020-09-29T18:39:27Z</time>
      </trkpt>
      <trkpt lat="40.3982250" lon="-3.5192150">
        <ele>571.7</ele>
        <time>2020-09-29T18:39:28Z</time>
      </trkpt>
      <trkpt lat="40.3981480" lon="-3.5192300">
        <ele>571.7</ele>
        <time>2020-09-29T18:39:29Z</time>
      </trkpt>
      <trkpt lat="40.3980740" lon="-3.5192500">
        <ele>571.6</ele>
        <time>2020-09-29T18:39:30Z</time>
      </trkpt>
      <trkpt lat="40.3979980" lon="-3.5192560">
        <ele>571.6</ele>
        <time>2020-09-29T18:39:31Z</time>
      </trkpt>
      <trkpt lat="40.3979180" lon="-3.5192660">
        <ele>571.6</ele>
        <time>2020-09-29T18:39:32Z</time>
      </trkpt>
      <trkpt lat="40.3978360" lon="-3.5192690">
        <ele>571.6</ele>
        <time>2020-09-29T18:39:33Z</time>
      </trkpt>
      <trkpt lat="40.3977610" lon="-3.5192780">
        <ele>571.5</ele>
        <time>2020-09-29T18:39:34Z</time>
      </trkpt>
      <trkpt lat="40.3976860" lon="-3.5192550">
        <ele>571.5</ele>
        <time>2020-09-29T18:39:35Z</time>
      </trkpt>
      <trkpt lat="40.3976120" lon="-3.5192600">
        <ele>571.4</ele>
        <time>2020-09-29T18:39:36Z</time>
      </trkpt>
      <trkpt lat="40.3975360" lon="-3.5192890">
        <ele>571.4</ele>
        <time>2020-09-29T18:39:37Z</time>
      </trkpt>
      <trkpt lat="40.3974620" lon="-3.5192840">
        <ele>571.3</ele>
        <time>2020-09-29T18:39:38Z</time>
      </trkpt>
      <trkpt lat="40.3973910" lon="-3.5192590">
        <ele>571.3</ele>
        <time>2020-09-29T18:39:39Z</time>
      </trkpt>
      <trkpt lat="40.3973120" lon="-3.5192510">
        <ele>571.2</ele>
        <time>2020-09-29T18:39:40Z</time>
      </trkpt>
      <trkpt lat="40.3972350" lon="-3.5192470">
        <ele>571.1</ele>
        <time>2020-09-29T18:39:41Z</time>
      </trkpt>
      <trkpt lat="40.3971610" lon="-3.5192080">
        <ele>571.0</ele>
        <time>2020-09-29T18:39:42Z</time>
      </trkpt>
      <trkpt lat="40.3970940" lon="-3.5192000">
        <ele>570.8</ele>
        <time>2020-09-29T18:39:43Z</time>
      </trkpt>
      <trkpt lat="40.3970190" lon="-3.5191840">
        <ele>570.7</ele>
        <time>2020-09-29T18:39:44Z</time>
      </trkpt>
      <trkpt lat="40.3969430" lon="-3.5191640">
        <ele>570.5</ele>
        <time>2020-09-29T18:39:45Z</time>
      </trkpt>
      <trkpt lat="40.3968650" lon="-3.5191430">
        <ele>570.3</ele>
        <time>2020-09-29T18:39:46Z</time>
      </trkpt>
      <trkpt lat="40.3967880" lon="-3.5191100">
        <ele>570.0</ele>
        <time>2020-09-29T18:39:47Z</time>
      </trkpt>
      <trkpt lat="40.3967130" lon="-3.5190680">
        <ele>569.8</ele>
        <time>2020-09-29T18:39:48Z</time>
      </trkpt>
      <trkpt lat="40.3966390" lon="-3.5190200">
        <ele>569.5</ele>
        <time>2020-09-29T18:39:49Z</time>
      </trkpt>
      <trkpt lat="40.3965670" lon="-3.5189750">
        <ele>569.3</ele>
        <time>2020-09-29T18:39:50Z</time>
      </trkpt>
      <trkpt lat="40.3964920" lon="-3.5189210">
        <ele>569.1</ele>
        <time>2020-09-29T18:39:51Z</time>
      </trkpt>
      <trkpt lat="40.3964240" lon="-3.5188850">
        <ele>568.8</ele>
        <time>2020-09-29T18:39:52Z</time>
      </trkpt>
      <trkpt lat="40.3963440" lon="-3.5188480">
        <ele>568.5</ele>
        <time>2020-09-29T18:39:53Z</time>
      </trkpt>
      <trkpt lat="40.3962680" lon="-3.5188000">
        <ele>568.3</ele>
        <time>2020-09-29T18:39:54Z</time>
      </trkpt>
      <trkpt lat="40.3961990" lon="-3.5187450">
        <ele>568.0</ele>
        <time>2020-09-29T18:39:55Z</time>
      </trkpt>
      <trkpt lat="40.3961190" lon="-3.5186830">
        <ele>567.7</ele>
        <time>2020-09-29T18:39:56Z</time>
      </trkpt>
      <trkpt lat="40.3960460" lon="-3.5186410">
        <ele>567.4</ele>
        <time>2020-09-29T18:39:57Z</time>
      </trkpt>
      <trkpt lat="40.3959650" lon="-3.5185750">
        <ele>567.0</ele>
        <time>2020-09-29T18:39:58Z</time>
      </trkpt>
      <trkpt lat="40.3958900" lon="-3.5185150">
        <ele>566.6</ele>
        <time>2020-09-29T18:39:59Z</time>
      </trkpt>
      <trkpt lat="40.3958290" lon="-3.5184630">
        <ele>566.3</ele>
        <time>2020-09-29T18:40:00Z</time>
      </trkpt>
      <trkpt lat="40.3957580" lon="-3.5184010">
        <ele>565.9</ele>
        <time>2020-09-29T18:40:01Z</time>
      </trkpt>
      <trkpt lat="40.3956940" lon="-3.5183460">
        <ele>565.6</ele>
        <time>2020-09-29T18:40:02Z</time>
      </trkpt>
      <trkpt lat="40.3956260" lon="-3.5182810">
        <ele>565.3</ele>
        <time>2020-09-29T18:40:03Z</time>
      </trkpt>
      <trkpt lat="40.3955470" lon="-3.5182240">
        <ele>564.9</ele>
        <time>2020-09-29T18:40:04Z</time>
      </trkpt>
      <trkpt lat="40.3954760" lon="-3.5181650">
        <ele>564.6</ele>
        <time>2020-09-29T18:40:05Z</time>
      </trkpt>
      <trkpt lat="40.3954090" lon="-3.5181050">
        <ele>564.4</ele>
        <time>2020-09-29T18:40:06Z</time>
      </trkpt>
      <trkpt lat="40.3953300" lon="-3.5180430">
        <ele>564.2</ele>
        <time>2020-09-29T18:40:07Z</time>
      </trkpt>
      <trkpt lat="40.3952560" lon="-3.5179890">
        <ele>564.1</ele>
        <time>2020-09-29T18:40:08Z</time>
      </trkpt>
      <trkpt lat="40.3951820" lon="-3.5179250">
        <ele>564.1</ele>
        <time>2020-09-29T18:40:09Z</time>
      </trkpt>
      <trkpt lat="40.3951120" lon="-3.5178780">
        <ele>564.1</ele>
        <time>2020-09-29T18:40:10Z</time>
      </trkpt>
      <trkpt lat="40.3950390" lon="-3.5178210">
        <ele>564.1</ele>
        <time>2020-09-29T18:40:11Z</time>
      </trkpt>
      <trkpt lat="40.3949540" lon="-3.5177900">
        <ele>564.1</ele>
        <time>2020-09-29T18:40:12Z</time>
      </trkpt>
      <trkpt lat="40.3948460" lon="-3.5177850">
        <ele>564.8</ele>
        <time>2020-09-29T18:40:13Z</time>
      </trkpt>
      <trkpt lat="40.3947580" lon="-3.5178480">
        <ele>565.5</ele>
        <time>2020-09-29T18:40:14Z</time>
      </trkpt>
      <trkpt lat="40.3946920" lon="-3.5179070">
        <ele>566.1</ele>
        <time>2020-09-29T18:40:15Z</time>
      </trkpt>
      <trkpt lat="40.3946040" lon="-3.5179450">
        <ele>566.6</ele>
        <time>2020-09-29T18:40:16Z</time>
      </trkpt>
      <trkpt lat="40.3945390" lon="-3.5180010">
        <ele>566.6</ele>
        <time>2020-09-29T18:40:17Z</time>
      </trkpt>
      <trkpt lat="40.3944490" lon="-3.5180450">
        <ele>566.5</ele>
        <time>2020-09-29T18:40:18Z</time>
      </trkpt>
      <trkpt lat="40.3943620" lon="-3.5180500">
        <ele>566.3</ele>
        <time>2020-09-29T18:40:19Z</time>
      </trkpt>
      <trkpt lat="40.3942870" lon="-3.5180580">
        <ele>566.2</ele>
        <time>2020-09-29T18:40:20Z</time>
      </trkpt>
      <trkpt lat="40.3942090" lon="-3.5180500">
        <ele>566.1</ele>
        <time>2020-09-29T18:40:21Z</time>
      </trkpt>
      <trkpt lat="40.3941300" lon="-3.5180050">
        <ele>566.1</ele>
        <time>2020-09-29T18:40:22Z</time>
      </trkpt>
      <trkpt lat="40.3940490" lon="-3.5179680">
        <ele>566.0</ele>
        <time>2020-09-29T18:40:23Z</time>
      </trkpt>
      <trkpt lat="40.3939650" lon="-3.5179750">
        <ele>566.1</ele>
        <time>2020-09-29T18:40:24Z</time>
      </trkpt>
      <trkpt lat="40.3938830" lon="-3.5179940">
        <ele>566.1</ele>
        <time>2020-09-29T18:40:25Z</time>
      </trkpt>
      <trkpt lat="40.3938070" lon="-3.5180230">
        <ele>566.2</ele>
        <time>2020-09-29T18:40:26Z</time>
      </trkpt>
      <trkpt lat="40.3937330" lon="-3.5180600">
        <ele>566.4</ele>
        <time>2020-09-29T18:40:27Z</time>
      </trkpt>
      <trkpt lat="40.3936630" lon="-3.5180890">
        <ele>566.6</ele>
        <time>2020-09-29T18:40:28Z</time>
      </trkpt>
      <trkpt lat="40.3935900" lon="-3.5181270">
        <ele>566.8</ele>
        <time>2020-09-29T18:40:29Z</time>
      </trkpt>
      <trkpt lat="40.3935260" lon="-3.5181620">
        <ele>567.1</ele>
        <time>2020-09-29T18:40:30Z</time>
      </trkpt>
      <trkpt lat="40.3934650" lon="-3.5181750">
        <ele>567.3</ele>
        <time>2020-09-29T18:40:31Z</time>
      </trkpt>
      <trkpt lat="40.3934010" lon="-3.5182110">
        <ele>567.6</ele>
        <time>2020-09-29T18:40:32Z</time>
      </trkpt>
      <trkpt lat="40.3933340" lon="-3.5182420">
        <ele>567.8</ele>
        <time>2020-09-29T18:40:33Z</time>
      </trkpt>
      <trkpt lat="40.3932710" lon="-3.5182530">
        <ele>568.0</ele>
        <time>2020-09-29T18:40:34Z</time>
      </trkpt>
      <trkpt lat="40.3932040" lon="-3.5182670">
        <ele>568.2</ele>
        <time>2020-09-29T18:40:35Z</time>
      </trkpt>
      <trkpt lat="40.3931370" lon="-3.5182750">
        <ele>568.4</ele>
        <time>2020-09-29T18:40:36Z</time>
      </trkpt>
      <trkpt lat="40.3930700" lon="-3.5182900">
        <ele>568.6</ele>
        <time>2020-09-29T18:40:37Z</time>
      </trkpt>
      <trkpt lat="40.3930000" lon="-3.5183100">
        <ele>568.7</ele>
        <time>2020-09-29T18:40:38Z</time>
      </trkpt>
      <trkpt lat="40.3929420" lon="-3.5183090">
        <ele>568.9</ele>
        <time>2020-09-29T18:40:39Z</time>
      </trkpt>
      <trkpt lat="40.3928770" lon="-3.5183190">
        <ele>569.0</ele>
        <time>2020-09-29T18:40:40Z</time>
      </trkpt>
      <trkpt lat="40.3928060" lon="-3.5183210">
        <ele>569.2</ele>
        <time>2020-09-29T18:40:41Z</time>
      </trkpt>
      <trkpt lat="40.3927350" lon="-3.5183120">
        <ele>569.3</ele>
        <time>2020-09-29T18:40:42Z</time>
      </trkpt>
      <trkpt lat="40.3926690" lon="-3.5183060">
        <ele>569.4</ele>
        <time>2020-09-29T18:40:43Z</time>
      </trkpt>
      <trkpt lat="40.3926090" lon="-3.5183090">
        <ele>569.4</ele>
        <time>2020-09-29T18:40:44Z</time>
      </trkpt>
      <trkpt lat="40.3925510" lon="-3.5183140">
        <ele>569.5</ele>
        <time>2020-09-29T18:40:45Z</time>
      </trkpt>
      <trkpt lat="40.3924870" lon="-3.5183120">
        <ele>569.6</ele>
        <time>2020-09-29T18:40:46Z</time>
      </trkpt>
      <trkpt lat="40.3924200" lon="-3.5183130">
        <ele>569.7</ele>
        <time>2020-09-29T18:40:47Z</time>
      </trkpt>
      <trkpt lat="40.3923470" lon="-3.5183190">
        <ele>569.8</ele>
        <time>2020-09-29T18:40:48Z</time>
      </trkpt>
      <trkpt lat="40.3922710" lon="-3.5183280">
        <ele>569.8</ele>
        <time>2020-09-29T18:40:49Z</time>
      </trkpt>
      <trkpt lat="40.3922020" lon="-3.5183370">
        <ele>569.9</ele>
        <time>2020-09-29T18:40:50Z</time>
      </trkpt>
      <trkpt lat="40.3921300" lon="-3.5183390">
        <ele>569.9</ele>
        <time>2020-09-29T18:40:51Z</time>
      </trkpt>
      <trkpt lat="40.3920640" lon="-3.5183400">
        <ele>569.9</ele>
        <time>2020-09-29T18:40:52Z</time>
      </trkpt>
      <trkpt lat="40.3919970" lon="-3.5183410">
        <ele>570.0</ele>
        <time>2020-09-29T18:40:53Z</time>
      </trkpt>
      <trkpt lat="40.3919350" lon="-3.5183390">
        <ele>570.0</ele>
        <time>2020-09-29T18:40:54Z</time>
      </trkpt>
      <trkpt lat="40.3918750" lon="-3.5183340">
        <ele>570.0</ele>
        <time>2020-09-29T18:40:55Z</time>
      </trkpt>
      <trkpt lat="40.3918050" lon="-3.5183270">
        <ele>570.1</ele>
        <time>2020-09-29T18:40:56Z</time>
      </trkpt>
      <trkpt lat="40.3917400" lon="-3.5183170">
        <ele>570.1</ele>
        <time>2020-09-29T18:40:57Z</time>
      </trkpt>
      <trkpt lat="40.3916620" lon="-3.5183130">
        <ele>570.2</ele>
        <time>2020-09-29T18:40:58Z</time>
      </trkpt>
      <trkpt lat="40.3915880" lon="-3.5183130">
        <ele>570.2</ele>
        <time>2020-09-29T18:40:59Z</time>
      </trkpt>
      <trkpt lat="40.3915130" lon="-3.5183110">
        <ele>570.3</ele>
        <time>2020-09-29T18:41:00Z</time>
      </trkpt>
      <trkpt lat="40.3914460" lon="-3.5183100">
        <ele>570.3</ele>
        <time>2020-09-29T18:41:01Z</time>
      </trkpt>
      <trkpt lat="40.3913880" lon="-3.5183040">
        <ele>570.4</ele>
        <time>2020-09-29T18:41:02Z</time>
      </trkpt>
      <trkpt lat="40.3913180" lon="-3.5183000">
        <ele>570.4</ele>
        <time>2020-09-29T18:41:03Z</time>
      </trkpt>
      <trkpt lat="40.3912490" lon="-3.5182990">
        <ele>570.4</ele>
        <time>2020-09-29T18:41:04Z</time>
      </trkpt>
      <trkpt lat="40.3911850" lon="-3.5182970">
        <ele>570.5</ele>
        <time>2020-09-29T18:41:05Z</time>
      </trkpt>
      <trkpt lat="40.3911170" lon="-3.5182940">
        <ele>570.5</ele>
        <time>2020-09-29T18:41:06Z</time>
      </trkpt>
      <trkpt lat="40.3910510" lon="-3.5182960">
        <ele>570.5</ele>
        <time>2020-09-29T18:41:07Z</time>
      </trkpt>
      <trkpt lat="40.3909870" lon="-3.5183010">
        <ele>570.5</ele>
        <time>2020-09-29T18:41:08Z</time>
      </trkpt>
      <trkpt lat="40.3909150" lon="-3.5182820">
        <ele>570.4</ele>
        <time>2020-09-29T18:41:09Z</time>
      </trkpt>
      <trkpt lat="40.3908450" lon="-3.5182760">
        <ele>570.4</ele>
        <time>2020-09-29T18:41:10Z</time>
      </trkpt>
      <trkpt lat="40.3907750" lon="-3.5182690">
        <ele>570.4</ele>
        <time>2020-09-29T18:41:11Z</time>
      </trkpt>
      <trkpt lat="40.3906970" lon="-3.5182330">
        <ele>570.3</ele>
        <time>2020-09-29T18:41:12Z</time>
      </trkpt>
      <trkpt lat="40.3906110" lon="-3.5181990">
        <ele>570.3</ele>
        <time>2020-09-29T18:41:13Z</time>
      </trkpt>
      <trkpt lat="40.3905560" lon="-3.5181820">
        <ele>570.3</ele>
        <time>2020-09-29T18:41:14Z</time>
      </trkpt>
      <trkpt lat="40.3905190" lon="-3.5181650">
        <ele>570.3</ele>
        <time>2020-09-29T18:41:15Z</time>
      </trkpt>
      <trkpt lat="40.3904810" lon="-3.5181580">
        <ele>570.3</ele>
        <time>2020-09-29T18:41:16Z</time>
      </trkpt>
      <trkpt lat="40.3903660" lon="-3.5181090">
        <ele>570.3</ele>
        <time>2020-09-29T18:41:17Z</time>
      </trkpt>
      <trkpt lat="40.3902910" lon="-3.5179710">
        <ele>570.2</ele>
        <time>2020-09-29T18:41:18Z</time>
      </trkpt>
      <trkpt lat="40.3901830" lon="-3.5180140">
        <ele>570.2</ele>
        <time>2020-09-29T18:41:19Z</time>
      </trkpt>
      <trkpt lat="40.3901230" lon="-3.5180380">
        <ele>570.2</ele>
        <time>2020-09-29T18:41:20Z</time>
      </trkpt>
      <trkpt lat="40.3900420" lon="-3.5180500">
        <ele>570.2</ele>
        <time>2020-09-29T18:41:21Z</time>
      </trkpt>
      <trkpt lat="40.3899490" lon="-3.5180710">
        <ele>570.2</ele>
        <time>2020-09-29T18:41:22Z</time>
      </trkpt>
      <trkpt lat="40.3898840" lon="-3.5180470">
        <ele>570.2</ele>
        <time>2020-09-29T18:41:23Z</time>
      </trkpt>
      <trkpt lat="40.3897950" lon="-3.5180520">
        <ele>570.1</ele>
        <time>2020-09-29T18:41:24Z</time>
      </trkpt>
      <trkpt lat="40.3897400" lon="-3.5180290">
        <ele>570.1</ele>
        <time>2020-09-29T18:41:25Z</time>
      </trkpt>
      <trkpt lat="40.3896820" lon="-3.5180500">
        <ele>570.0</ele>
        <time>2020-09-29T18:41:26Z</time>
      </trkpt>
      <trkpt lat="40.3896240" lon="-3.5180300">
        <ele>570.0</ele>
        <time>2020-09-29T18:41:27Z</time>
      </trkpt>
      <trkpt lat="40.3895690" lon="-3.5180450">
        <ele>570.0</ele>
        <time>2020-09-29T18:41:28Z</time>
      </trkpt>
      <trkpt lat="40.3895070" lon="-3.5180770">
        <ele>569.9</ele>
        <time>2020-09-29T18:41:29Z</time>
      </trkpt>
      <trkpt lat="40.3894150" lon="-3.5180880">
        <ele>569.9</ele>
        <time>2020-09-29T18:41:30Z</time>
      </trkpt>
      <trkpt lat="40.3893480" lon="-3.5180830">
        <ele>569.8</ele>
        <time>2020-09-29T18:41:31Z</time>
      </trkpt>
      <trkpt lat="40.3892890" lon="-3.5180420">
        <ele>569.8</ele>
        <time>2020-09-29T18:41:32Z</time>
      </trkpt>
      <trkpt lat="40.3892170" lon="-3.5180250">
        <ele>569.8</ele>
        <time>2020-09-29T18:41:33Z</time>
      </trkpt>
      <trkpt lat="40.3891480" lon="-3.5180240">
        <ele>569.7</ele>
        <time>2020-09-29T18:41:34Z</time>
      </trkpt>
      <trkpt lat="40.3890830" lon="-3.5179980">
        <ele>569.7</ele>
        <time>2020-09-29T18:41:35Z</time>
      </trkpt>
      <trkpt lat="40.3890110" lon="-3.5180030">
        <ele>569.7</ele>
        <time>2020-09-29T18:41:36Z</time>
      </trkpt>
      <trkpt lat="40.3889400" lon="-3.5180240">
        <ele>569.6</ele>
        <time>2020-09-29T18:41:37Z</time>
      </trkpt>
      <trkpt lat="40.3888810" lon="-3.5179910">
        <ele>569.6</ele>
        <time>2020-09-29T18:41:38Z</time>
      </trkpt>
      <trkpt lat="40.3888080" lon="-3.5179950">
        <ele>569.5</ele>
        <time>2020-09-29T18:41:39Z</time>
      </trkpt>
      <trkpt lat="40.3887270" lon="-3.5180070">
        <ele>569.5</ele>
        <time>2020-09-29T18:41:40Z</time>
      </trkpt>
      <trkpt lat="40.3886640" lon="-3.5179860">
        <ele>569.5</ele>
        <time>2020-09-29T18:41:41Z</time>
      </trkpt>
      <trkpt lat="40.3885910" lon="-3.5179910">
        <ele>569.4</ele>
        <time>2020-09-29T18:41:42Z</time>
      </trkpt>
      <trkpt lat="40.3885290" lon="-3.5179720">
        <ele>569.4</ele>
        <time>2020-09-29T18:41:43Z</time>
      </trkpt>
      <trkpt lat="40.3884580" lon="-3.5179670">
        <ele>569.4</ele>
        <time>2020-09-29T18:41:44Z</time>
      </trkpt>
      <trkpt lat="40.3883840" lon="-3.5179690">
        <ele>569.4</ele>
        <time>2020-09-29T18:41:45Z</time>
      </trkpt>
      <trkpt lat="40.3883100" lon="-3.5179690">
        <ele>569.4</ele>
        <time>2020-09-29T18:41:46Z</time>
      </trkpt>
      <trkpt lat="40.3882330" lon="-3.5179840">
        <ele>569.4</ele>
        <time>2020-09-29T18:41:47Z</time>
      </trkpt>
      <trkpt lat="40.3881690" lon="-3.5179710">
        <ele>569.4</ele>
        <time>2020-09-29T18:41:48Z</time>
      </trkpt>
      <trkpt lat="40.3881080" lon="-3.5179610">
        <ele>569.4</ele>
        <time>2020-09-29T18:41:49Z</time>
      </trkpt>
      <trkpt lat="40.3880470" lon="-3.5179620">
        <ele>569.3</ele>
        <time>2020-09-29T18:41:50Z</time>
      </trkpt>
      <trkpt lat="40.3879770" lon="-3.5179640">
        <ele>569.2</ele>
        <time>2020-09-29T18:41:51Z</time>
      </trkpt>
      <trkpt lat="40.3879140" lon="-3.5179590">
        <ele>569.1</ele>
        <time>2020-09-29T18:41:52Z</time>
      </trkpt>
      <trkpt lat="40.3878400" lon="-3.5179650">
        <ele>569.0</ele>
        <time>2020-09-29T18:41:53Z</time>
      </trkpt>
      <trkpt lat="40.3877410" lon="-3.5179770">
        <ele>568.9</ele>
        <time>2020-09-29T18:41:54Z</time>
      </trkpt>
      <trkpt lat="40.3876790" lon="-3.5179750">
        <ele>568.8</ele>
        <time>2020-09-29T18:41:55Z</time>
      </trkpt>
      <trkpt lat="40.3875660" lon="-3.5180410">
        <ele>568.7</ele>
        <time>2020-09-29T18:41:56Z</time>
      </trkpt>
      <trkpt lat="40.3874950" lon="-3.5180450">
        <ele>568.6</ele>
        <time>2020-09-29T18:41:57Z</time>
      </trkpt>
      <trkpt lat="40.3874150" lon="-3.5180460">
        <ele>568.6</ele>
        <time>2020-09-29T18:41:58Z</time>
      </trkpt>
      <trkpt lat="40.3873560" lon="-3.5180120">
        <ele>568.6</ele>
        <time>2020-09-29T18:41:59Z</time>
      </trkpt>
      <trkpt lat="40.3872820" lon="-3.5180220">
        <ele>568.5</ele>
        <time>2020-09-29T18:42:00Z</time>
      </trkpt>
      <trkpt lat="40.3872060" lon="-3.5180300">
        <ele>568.4</ele>
        <time>2020-09-29T18:42:01Z</time>
      </trkpt>
      <trkpt lat="40.3871160" lon="-3.5180350">
        <ele>568.3</ele>
        <time>2020-09-29T18:42:02Z</time>
      </trkpt>
      <trkpt lat="40.3870310" lon="-3.5180460">
        <ele>568.3</ele>
        <time>2020-09-29T18:42:03Z</time>
      </trkpt>
      <trkpt lat="40.3869440" lon="-3.5180680">
        <ele>568.2</ele>
        <time>2020-09-29T18:42:04Z</time>
      </trkpt>
      <trkpt lat="40.3868780" lon="-3.5180690">
        <ele>568.1</ele>
        <time>2020-09-29T18:42:05Z</time>
      </trkpt>
      <trkpt lat="40.3868010" lon="-3.5180910">
        <ele>568.0</ele>
        <time>2020-09-29T18:42:06Z</time>
      </trkpt>
      <trkpt lat="40.3867110" lon="-3.5180910">
        <ele>567.9</ele>
        <time>2020-09-29T18:42:07Z</time>
      </trkpt>
      <trkpt lat="40.3866330" lon="-3.5180890">
        <ele>567.9</ele>
        <time>2020-09-29T18:42:08Z</time>
      </trkpt>
      <trkpt lat="40.3865690" lon="-3.5181030">
        <ele>567.9</ele>
        <time>2020-09-29T18:42:09Z</time>
      </trkpt>
      <trkpt lat="40.3864990" lon="-3.5181070">
        <ele>567.9</ele>
        <time>2020-09-29T18:42:10Z</time>
      </trkpt>
      <trkpt lat="40.3864240" lon="-3.5181330">
        <ele>567.9</ele>
        <time>2020-09-29T18:42:11Z</time>
      </trkpt>
      <trkpt lat="40.3863620" lon="-3.5181580">
        <ele>567.9</ele>
        <time>2020-09-29T18:42:12Z</time>
      </trkpt>
      <trkpt lat="40.3863080" lon="-3.5181710">
        <ele>567.9</ele>
        <time>2020-09-29T18:42:13Z</time>
      </trkpt>
      <trkpt lat="40.3862590" lon="-3.5181500">
        <ele>567.9</ele>
        <time>2020-09-29T18:42:14Z</time>
      </trkpt>
      <trkpt lat="40.3862000" lon="-3.5181800">
        <ele>567.9</ele>
        <time>2020-09-29T18:42:15Z</time>
      </trkpt>
      <trkpt lat="40.3861450" lon="-3.5182010">
        <ele>568.0</ele>
        <time>2020-09-29T18:42:16Z</time>
      </trkpt>
      <trkpt lat="40.3860580" lon="-3.5182330">
        <ele>568.1</ele>
        <time>2020-09-29T18:42:17Z</time>
      </trkpt>
      <trkpt lat="40.3859940" lon="-3.5182510">
        <ele>568.3</ele>
        <time>2020-09-29T18:42:18Z</time>
      </trkpt>
      <trkpt lat="40.3859320" lon="-3.5182850">
        <ele>568.5</ele>
        <time>2020-09-29T18:42:19Z</time>
      </trkpt>
      <trkpt lat="40.3858420" lon="-3.5183190">
        <ele>568.8</ele>
        <time>2020-09-29T18:42:20Z</time>
      </trkpt>
      <trkpt lat="40.3857910" lon="-3.5183400">
        <ele>569.1</ele>
        <time>2020-09-29T18:42:21Z</time>
      </trkpt>
      <trkpt lat="40.3857330" lon="-3.5183770">
        <ele>569.4</ele>
        <time>2020-09-29T18:42:22Z</time>
      </trkpt>
      <trkpt lat="40.3856650" lon="-3.5184300">
        <ele>569.9</ele>
        <time>2020-09-29T18:42:23Z</time>
      </trkpt>
      <trkpt lat="40.3856130" lon="-3.5184550">
        <ele>570.2</ele>
        <time>2020-09-29T18:42:24Z</time>
      </trkpt>
      <trkpt lat="40.3855660" lon="-3.5184630">
        <ele>570.5</ele>
        <time>2020-09-29T18:42:25Z</time>
      </trkpt>
      <trkpt lat="40.3855150" lon="-3.5184850">
        <ele>570.8</ele>
        <time>2020-09-29T18:42:26Z</time>
      </trkpt>
      <trkpt lat="40.3854520" lon="-3.5184880">
        <ele>571.2</ele>
        <time>2020-09-29T18:42:27Z</time>
      </trkpt>
      <trkpt lat="40.3853860" lon="-3.5185010">
        <ele>571.6</ele>
        <time>2020-09-29T18:42:28Z</time>
      </trkpt>
      <trkpt lat="40.3853440" lon="-3.5185140">
        <ele>571.9</ele>
        <time>2020-09-29T18:42:29Z</time>
      </trkpt>
      <trkpt lat="40.3852950" lon="-3.5185220">
        <ele>572.2</ele>
        <time>2020-09-29T18:42:30Z</time>
      </trkpt>
      <trkpt lat="40.3852640" lon="-3.5185170">
        <ele>572.4</ele>
        <time>2020-09-29T18:42:31Z</time>
      </trkpt>
      <trkpt lat="40.3852140" lon="-3.5185010">
        <ele>572.8</ele>
        <time>2020-09-29T18:42:32Z</time>
      </trkpt>
      <trkpt lat="40.3851820" lon="-3.5184960">
        <ele>573.1</ele>
        <time>2020-09-29T18:42:33Z</time>
      </trkpt>
      <trkpt lat="40.3851220" lon="-3.5184950">
        <ele>573.6</ele>
        <time>2020-09-29T18:42:34Z</time>
      </trkpt>
      <trkpt lat="40.3850770" lon="-3.5184940">
        <ele>573.9</ele>
        <time>2020-09-29T18:42:35Z</time>
      </trkpt>
      <trkpt lat="40.3850240" lon="-3.5184990">
        <ele>574.3</ele>
        <time>2020-09-29T18:42:36Z</time>
      </trkpt>
      <trkpt lat="40.3849820" lon="-3.5185050">
        <ele>574.7</ele>
        <time>2020-09-29T18:42:37Z</time>
      </trkpt>
      <trkpt lat="40.3849410" lon="-3.5185100">
        <ele>575.0</ele>
        <time>2020-09-29T18:42:38Z</time>
      </trkpt>
      <trkpt lat="40.3848910" lon="-3.5185130">
        <ele>575.4</ele>
        <time>2020-09-29T18:42:39Z</time>
      </trkpt>
      <trkpt lat="40.3848420" lon="-3.5185190">
        <ele>575.8</ele>
        <time>2020-09-29T18:42:40Z</time>
      </trkpt>
      <trkpt lat="40.3847860" lon="-3.5185230">
        <ele>576.2</ele>
        <time>2020-09-29T18:42:41Z</time>
      </trkpt>
      <trkpt lat="40.3847490" lon="-3.5185220">
        <ele>576.5</ele>
        <time>2020-09-29T18:42:42Z</time>
      </trkpt>
      <trkpt lat="40.3847000" lon="-3.5185220">
        <ele>576.9</ele>
        <time>2020-09-29T18:42:43Z</time>
      </trkpt>
      <trkpt lat="40.3846360" lon="-3.5185220">
        <ele>577.5</ele>
        <time>2020-09-29T18:42:44Z</time>
      </trkpt>
      <trkpt lat="40.3845880" lon="-3.5185260">
        <ele>577.8</ele>
        <time>2020-09-29T18:42:45Z</time>
      </trkpt>
      <trkpt lat="40.3845420" lon="-3.5185310">
        <ele>578.2</ele>
        <time>2020-09-29T18:42:46Z</time>
      </trkpt>
      <trkpt lat="40.3844900" lon="-3.5185360">
        <ele>578.6</ele>
        <time>2020-09-29T18:42:47Z</time>
      </trkpt>
      <trkpt lat="40.3844390" lon="-3.5185410">
        <ele>579.0</ele>
        <time>2020-09-29T18:42:48Z</time>
      </trkpt>
      <trkpt lat="40.3843900" lon="-3.5185440">
        <ele>579.4</ele>
        <time>2020-09-29T18:42:49Z</time>
      </trkpt>
      <trkpt lat="40.3843430" lon="-3.5185450">
        <ele>579.8</ele>
        <time>2020-09-29T18:42:50Z</time>
      </trkpt>
      <trkpt lat="40.3843030" lon="-3.5185470">
        <ele>580.1</ele>
        <time>2020-09-29T18:42:51Z</time>
      </trkpt>
      <trkpt lat="40.3842670" lon="-3.5185460">
        <ele>580.4</ele>
        <time>2020-09-29T18:42:52Z</time>
      </trkpt>
      <trkpt lat="40.3842220" lon="-3.5185470">
        <ele>580.8</ele>
        <time>2020-09-29T18:42:53Z</time>
      </trkpt>
      <trkpt lat="40.3841660" lon="-3.5185620">
        <ele>581.2</ele>
        <time>2020-09-29T18:42:54Z</time>
      </trkpt>
      <trkpt lat="40.3841190" lon="-3.5185720">
        <ele>581.6</ele>
        <time>2020-09-29T18:42:55Z</time>
      </trkpt>
      <trkpt lat="40.3840730" lon="-3.5185830">
        <ele>582.0</ele>
        <time>2020-09-29T18:42:56Z</time>
      </trkpt>
      <trkpt lat="40.3840330" lon="-3.5185890">
        <ele>582.3</ele>
        <time>2020-09-29T18:42:57Z</time>
      </trkpt>
      <trkpt lat="40.3839900" lon="-3.5185910">
        <ele>582.7</ele>
        <time>2020-09-29T18:42:58Z</time>
      </trkpt>
      <trkpt lat="40.3839390" lon="-3.5185780">
        <ele>583.0</ele>
        <time>2020-09-29T18:42:59Z</time>
      </trkpt>
      <trkpt lat="40.3839050" lon="-3.5185730">
        <ele>583.2</ele>
        <time>2020-09-29T18:43:00Z</time>
      </trkpt>
      <trkpt lat="40.3838560" lon="-3.5185620">
        <ele>583.5</ele>
        <time>2020-09-29T18:43:01Z</time>
      </trkpt>
      <trkpt lat="40.3838330" lon="-3.5185580">
        <ele>583.7</ele>
        <time>2020-09-29T18:43:02Z</time>
      </trkpt>
      <trkpt lat="40.3838050" lon="-3.5185410">
        <ele>583.8</ele>
        <time>2020-09-29T18:43:03Z</time>
      </trkpt>
      <trkpt lat="40.3837540" lon="-3.5185350">
        <ele>584.1</ele>
        <time>2020-09-29T18:43:04Z</time>
      </trkpt>
      <trkpt lat="40.3836890" lon="-3.5185230">
        <ele>584.5</ele>
        <time>2020-09-29T18:43:05Z</time>
      </trkpt>
      <trkpt lat="40.3836570" lon="-3.5185190">
        <ele>584.7</ele>
        <time>2020-09-29T18:43:06Z</time>
      </trkpt>
      <trkpt lat="40.3836170" lon="-3.5185160">
        <ele>584.9</ele>
        <time>2020-09-29T18:43:07Z</time>
      </trkpt>
      <trkpt lat="40.3835760" lon="-3.5185160">
        <ele>585.1</ele>
        <time>2020-09-29T18:43:08Z</time>
      </trkpt>
      <trkpt lat="40.3835460" lon="-3.5185090">
        <ele>585.3</ele>
        <time>2020-09-29T18:43:09Z</time>
      </trkpt>
      <trkpt lat="40.3835090" lon="-3.5185020">
        <ele>585.5</ele>
        <time>2020-09-29T18:43:10Z</time>
      </trkpt>
      <trkpt lat="40.3834770" lon="-3.5184810">
        <ele>585.6</ele>
        <time>2020-09-29T18:43:11Z</time>
      </trkpt>
      <trkpt lat="40.3834590" lon="-3.5184750">
        <ele>585.7</ele>
        <time>2020-09-29T18:43:12Z</time>
      </trkpt>
      <trkpt lat="40.3834210" lon="-3.5184500">
        <ele>585.9</ele>
        <time>2020-09-29T18:43:13Z</time>
      </trkpt>
      <trkpt lat="40.3833550" lon="-3.5184410">
        <ele>586.1</ele>
        <time>2020-09-29T18:43:14Z</time>
      </trkpt>
      <trkpt lat="40.3833240" lon="-3.5184170">
        <ele>586.3</ele>
        <time>2020-09-29T18:43:15Z</time>
      </trkpt>
      <trkpt lat="40.3832790" lon="-3.5184110">
        <ele>586.5</ele>
        <time>2020-09-29T18:43:16Z</time>
      </trkpt>
      <trkpt lat="40.3832200" lon="-3.5184250">
        <ele>586.8</ele>
        <time>2020-09-29T18:43:17Z</time>
      </trkpt>
      <trkpt lat="40.3831660" lon="-3.5184140">
        <ele>587.0</ele>
        <time>2020-09-29T18:43:18Z</time>
      </trkpt>
      <trkpt lat="40.3831140" lon="-3.5184180">
        <ele>587.3</ele>
        <time>2020-09-29T18:43:19Z</time>
      </trkpt>
      <trkpt lat="40.3830710" lon="-3.5183890">
        <ele>587.5</ele>
        <time>2020-09-29T18:43:20Z</time>
      </trkpt>
      <trkpt lat="40.3830310" lon="-3.5183690">
        <ele>587.7</ele>
        <time>2020-09-29T18:43:21Z</time>
      </trkpt>
      <trkpt lat="40.3829850" lon="-3.5183630">
        <ele>587.9</ele>
        <time>2020-09-29T18:43:22Z</time>
      </trkpt>
      <trkpt lat="40.3829580" lon="-3.5183400">
        <ele>588.0</ele>
        <time>2020-09-29T18:43:23Z</time>
      </trkpt>
      <trkpt lat="40.3829110" lon="-3.5183190">
        <ele>588.2</ele>
        <time>2020-09-29T18:43:24Z</time>
      </trkpt>
      <trkpt lat="40.3828480" lon="-3.5183240">
        <ele>588.5</ele>
        <time>2020-09-29T18:43:25Z</time>
      </trkpt>
      <trkpt lat="40.3828190" lon="-3.5183140">
        <ele>588.6</ele>
        <time>2020-09-29T18:43:26Z</time>
      </trkpt>
      <trkpt lat="40.3827670" lon="-3.5183030">
        <ele>588.8</ele>
        <time>2020-09-29T18:43:27Z</time>
      </trkpt>
      <trkpt lat="40.3827120" lon="-3.5182790">
        <ele>589.1</ele>
        <time>2020-09-29T18:43:28Z</time>
      </trkpt>
      <trkpt lat="40.3825530" lon="-3.5182430">
        <ele>589.9</ele>
        <time>2020-09-29T18:43:31Z</time>
      </trkpt>
      <trkpt lat="40.3825150" lon="-3.5182100">
        <ele>590.1</ele>
        <time>2020-09-29T18:43:32Z</time>
      </trkpt>
      <trkpt lat="40.3824700" lon="-3.5182080">
        <ele>590.3</ele>
        <time>2020-09-29T18:43:33Z</time>
      </trkpt>
      <trkpt lat="40.3823980" lon="-3.5182070">
        <ele>590.6</ele>
        <time>2020-09-29T18:43:34Z</time>
      </trkpt>
      <trkpt lat="40.3823370" lon="-3.5181920">
        <ele>590.9</ele>
        <time>2020-09-29T18:43:35Z</time>
      </trkpt>
      <trkpt lat="40.3822720" lon="-3.5181720">
        <ele>591.2</ele>
        <time>2020-09-29T18:43:36Z</time>
      </trkpt>
      <trkpt lat="40.3822360" lon="-3.5181640">
        <ele>591.4</ele>
        <time>2020-09-29T18:43:37Z</time>
      </trkpt>
      <trkpt lat="40.3821970" lon="-3.5181390">
        <ele>591.6</ele>
        <time>2020-09-29T18:43:38Z</time>
      </trkpt>
      <trkpt lat="40.3821780" lon="-3.5181220">
        <ele>591.6</ele>
        <time>2020-09-29T18:43:39Z</time>
      </trkpt>
      <trkpt lat="40.3821260" lon="-3.5180940">
        <ele>591.8</ele>
        <time>2020-09-29T18:43:40Z</time>
      </trkpt>
      <trkpt lat="40.3820970" lon="-3.5180690">
        <ele>591.9</ele>
        <time>2020-09-29T18:43:41Z</time>
      </trkpt>
      <trkpt lat="40.3820440" lon="-3.5180560">
        <ele>592.0</ele>
        <time>2020-09-29T18:43:42Z</time>
      </trkpt>
      <trkpt lat="40.3820010" lon="-3.5180420">
        <ele>592.1</ele>
        <time>2020-09-29T18:43:43Z</time>
      </trkpt>
      <trkpt lat="40.3819630" lon="-3.5180390">
        <ele>592.2</ele>
        <time>2020-09-29T18:43:44Z</time>
      </trkpt>
      <trkpt lat="40.3819220" lon="-3.5180250">
        <ele>592.3</ele>
        <time>2020-09-29T18:43:45Z</time>
      </trkpt>
      <trkpt lat="40.3818770" lon="-3.5180030">
        <ele>592.3</ele>
        <time>2020-09-29T18:43:46Z</time>
      </trkpt>
      <trkpt lat="40.3818300" lon="-3.5180080">
        <ele>592.4</ele>
        <time>2020-09-29T18:43:47Z</time>
      </trkpt>
      <trkpt lat="40.3817290" lon="-3.5180060">
        <ele>592.6</ele>
        <time>2020-09-29T18:43:48Z</time>
      </trkpt>
      <trkpt lat="40.3816920" lon="-3.5179940">
        <ele>592.7</ele>
        <time>2020-09-29T18:43:49Z</time>
      </trkpt>
      <trkpt lat="40.3816360" lon="-3.5179650">
        <ele>592.8</ele>
        <time>2020-09-29T18:43:50Z</time>
      </trkpt>
      <trkpt lat="40.3815750" lon="-3.5179410">
        <ele>592.9</ele>
        <time>2020-09-29T18:43:51Z</time>
      </trkpt>
      <trkpt lat="40.3815220" lon="-3.5179280">
        <ele>593.0</ele>
        <time>2020-09-29T18:43:52Z</time>
      </trkpt>
      <trkpt lat="40.3814690" lon="-3.5179290">
        <ele>593.0</ele>
        <time>2020-09-29T18:43:53Z</time>
      </trkpt>
      <trkpt lat="40.3814190" lon="-3.5179810">
        <ele>593.1</ele>
        <time>2020-09-29T18:43:54Z</time>
      </trkpt>
      <trkpt lat="40.3813880" lon="-3.5180600">
        <ele>593.2</ele>
        <time>2020-09-29T18:43:55Z</time>
      </trkpt>
      <trkpt lat="40.3813550" lon="-3.5181060">
        <ele>593.2</ele>
        <time>2020-09-29T18:43:56Z</time>
      </trkpt>
      <trkpt lat="40.3813250" lon="-3.5181490">
        <ele>593.2</ele>
        <time>2020-09-29T18:43:57Z</time>
      </trkpt>
      <trkpt lat="40.3812880" lon="-3.5181930">
        <ele>593.2</ele>
        <time>2020-09-29T18:43:58Z</time>
      </trkpt>
      <trkpt lat="40.3812600" lon="-3.5182650">
        <ele>593.2</ele>
        <time>2020-09-29T18:43:59Z</time>
      </trkpt>
      <trkpt lat="40.3812510" lon="-3.5183230">
        <ele>593.3</ele>
        <time>2020-09-29T18:44:00Z</time>
      </trkpt>
      <trkpt lat="40.3812570" lon="-3.5184110">
        <ele>593.3</ele>
        <time>2020-09-29T18:44:01Z</time>
      </trkpt>
      <trkpt lat="40.3812600" lon="-3.5184620">
        <ele>593.3</ele>
        <time>2020-09-29T18:44:02Z</time>
      </trkpt>
      <trkpt lat="40.3812550" lon="-3.5185280">
        <ele>593.4</ele>
        <time>2020-09-29T18:44:03Z</time>
      </trkpt>
      <trkpt lat="40.3812570" lon="-3.5185770">
        <ele>593.4</ele>
        <time>2020-09-29T18:44:04Z</time>
      </trkpt>
      <trkpt lat="40.3812630" lon="-3.5186370">
        <ele>593.4</ele>
        <time>2020-09-29T18:44:05Z</time>
      </trkpt>
      <trkpt lat="40.3812680" lon="-3.5186680">
        <ele>593.4</ele>
        <time>2020-09-29T18:44:06Z</time>
      </trkpt>
      <trkpt lat="40.3812880" lon="-3.5187150">
        <ele>593.4</ele>
        <time>2020-09-29T18:44:07Z</time>
      </trkpt>
      <trkpt lat="40.3813190" lon="-3.5187990">
        <ele>593.5</ele>
        <time>2020-09-29T18:44:08Z</time>
      </trkpt>
      <trkpt lat="40.3813370" lon="-3.5188630">
        <ele>593.5</ele>
        <time>2020-09-29T18:44:09Z</time>
      </trkpt>
      <trkpt lat="40.3813710" lon="-3.5189150">
        <ele>593.5</ele>
        <time>2020-09-29T18:44:10Z</time>
      </trkpt>
      <trkpt lat="40.3814060" lon="-3.5189780">
        <ele>593.5</ele>
        <time>2020-09-29T18:44:11Z</time>
      </trkpt>
      <trkpt lat="40.3814540" lon="-3.5190370">
        <ele>593.5</ele>
        <time>2020-09-29T18:44:12Z</time>
      </trkpt>
      <trkpt lat="40.3814760" lon="-3.5190980">
        <ele>593.5</ele>
        <time>2020-09-29T18:44:13Z</time>
      </trkpt>
      <trkpt lat="40.3815040" lon="-3.5191660">
        <ele>593.6</ele>
        <time>2020-09-29T18:44:14Z</time>
      </trkpt>
      <trkpt lat="40.3815270" lon="-3.5192320">
        <ele>593.6</ele>
        <time>2020-09-29T18:44:15Z</time>
      </trkpt>
      <trkpt lat="40.3815470" lon="-3.5193010">
        <ele>593.7</ele>
        <time>2020-09-29T18:44:16Z</time>
      </trkpt>
      <trkpt lat="40.3815480" lon="-3.5193720">
        <ele>593.8</ele>
        <time>2020-09-29T18:44:17Z</time>
      </trkpt>
      <trkpt lat="40.3815500" lon="-3.5194370">
        <ele>593.9</ele>
        <time>2020-09-29T18:44:18Z</time>
      </trkpt>
      <trkpt lat="40.3815460" lon="-3.5195220">
        <ele>594.1</ele>
        <time>2020-09-29T18:44:19Z</time>
      </trkpt>
      <trkpt lat="40.3815220" lon="-3.5195740">
        <ele>594.2</ele>
        <time>2020-09-29T18:44:20Z</time>
      </trkpt>
      <trkpt lat="40.3814970" lon="-3.5196290">
        <ele>594.4</ele>
        <time>2020-09-29T18:44:21Z</time>
      </trkpt>
      <trkpt lat="40.3814620" lon="-3.5196830">
        <ele>594.6</ele>
        <time>2020-09-29T18:44:22Z</time>
      </trkpt>
      <trkpt lat="40.3814210" lon="-3.5197300">
        <ele>594.7</ele>
        <time>2020-09-29T18:44:23Z</time>
      </trkpt>
      <trkpt lat="40.3813850" lon="-3.5197880">
        <ele>595.0</ele>
        <time>2020-09-29T18:44:24Z</time>
      </trkpt>
      <trkpt lat="40.3813330" lon="-3.5198330">
        <ele>595.3</ele>
        <time>2020-09-29T18:44:25Z</time>
      </trkpt>
      <trkpt lat="40.3812940" lon="-3.5198930">
        <ele>595.6</ele>
        <time>2020-09-29T18:44:26Z</time>
      </trkpt>
      <trkpt lat="40.3812650" lon="-3.5199450">
        <ele>595.8</ele>
        <time>2020-09-29T18:44:27Z</time>
      </trkpt>
      <trkpt lat="40.3812310" lon="-3.5200060">
        <ele>596.2</ele>
        <time>2020-09-29T18:44:28Z</time>
      </trkpt>
      <trkpt lat="40.3812080" lon="-3.5200630">
        <ele>596.5</ele>
        <time>2020-09-29T18:44:29Z</time>
      </trkpt>
      <trkpt lat="40.3811880" lon="-3.5201240">
        <ele>596.8</ele>
        <time>2020-09-29T18:44:30Z</time>
      </trkpt>
      <trkpt lat="40.3811870" lon="-3.5201860">
        <ele>597.1</ele>
        <time>2020-09-29T18:44:31Z</time>
      </trkpt>
      <trkpt lat="40.3811880" lon="-3.5202620">
        <ele>597.5</ele>
        <time>2020-09-29T18:44:32Z</time>
      </trkpt>
      <trkpt lat="40.3811780" lon="-3.5203200">
        <ele>597.9</ele>
        <time>2020-09-29T18:44:33Z</time>
      </trkpt>
      <trkpt lat="40.3812020" lon="-3.5203660">
        <ele>598.2</ele>
        <time>2020-09-29T18:44:34Z</time>
      </trkpt>
      <trkpt lat="40.3812340" lon="-3.5204180">
        <ele>598.6</ele>
        <time>2020-09-29T18:44:35Z</time>
      </trkpt>
      <trkpt lat="40.3812510" lon="-3.5204690">
        <ele>598.9</ele>
        <time>2020-09-29T18:44:36Z</time>
      </trkpt>
      <trkpt lat="40.3812760" lon="-3.5205270">
        <ele>599.3</ele>
        <time>2020-09-29T18:44:37Z</time>
      </trkpt>
      <trkpt lat="40.3812820" lon="-3.5205740">
        <ele>599.6</ele>
        <time>2020-09-29T18:44:38Z</time>
      </trkpt>
      <trkpt lat="40.3812880" lon="-3.5206190">
        <ele>599.8</ele>
        <time>2020-09-29T18:44:39Z</time>
      </trkpt>
      <trkpt lat="40.3812920" lon="-3.5206810">
        <ele>600.2</ele>
        <time>2020-09-29T18:44:40Z</time>
      </trkpt>
      <trkpt lat="40.3813060" lon="-3.5207170">
        <ele>600.4</ele>
        <time>2020-09-29T18:44:41Z</time>
      </trkpt>
      <trkpt lat="40.3813250" lon="-3.5207770">
        <ele>600.8</ele>
        <time>2020-09-29T18:44:42Z</time>
      </trkpt>
      <trkpt lat="40.3813530" lon="-3.5208330">
        <ele>601.1</ele>
        <time>2020-09-29T18:44:43Z</time>
      </trkpt>
      <trkpt lat="40.3813640" lon="-3.5208920">
        <ele>601.5</ele>
        <time>2020-09-29T18:44:44Z</time>
      </trkpt>
      <trkpt lat="40.3813600" lon="-3.5209440">
        <ele>601.8</ele>
        <time>2020-09-29T18:44:45Z</time>
      </trkpt>
      <trkpt lat="40.3813700" lon="-3.5209810">
        <ele>602.0</ele>
        <time>2020-09-29T18:44:46Z</time>
      </trkpt>
      <trkpt lat="40.3813690" lon="-3.5210290">
        <ele>602.2</ele>
        <time>2020-09-29T18:44:47Z</time>
      </trkpt>
      <trkpt lat="40.3813730" lon="-3.5210790">
        <ele>602.5</ele>
        <time>2020-09-29T18:44:48Z</time>
      </trkpt>
      <trkpt lat="40.3813780" lon="-3.5211300">
        <ele>602.8</ele>
        <time>2020-09-29T18:44:49Z</time>
      </trkpt>
      <trkpt lat="40.3813820" lon="-3.5211810">
        <ele>603.1</ele>
        <time>2020-09-29T18:44:50Z</time>
      </trkpt>
      <trkpt lat="40.3813850" lon="-3.5212350">
        <ele>603.3</ele>
        <time>2020-09-29T18:44:51Z</time>
      </trkpt>
      <trkpt lat="40.3813920" lon="-3.5212890">
        <ele>603.6</ele>
        <time>2020-09-29T18:44:52Z</time>
      </trkpt>
      <trkpt lat="40.3814010" lon="-3.5213430">
        <ele>603.9</ele>
        <time>2020-09-29T18:44:53Z</time>
      </trkpt>
      <trkpt lat="40.3814070" lon="-3.5213990">
        <ele>604.2</ele>
        <time>2020-09-29T18:44:54Z</time>
      </trkpt>
      <trkpt lat="40.3814110" lon="-3.5214500">
        <ele>604.5</ele>
        <time>2020-09-29T18:44:55Z</time>
      </trkpt>
      <trkpt lat="40.3814160" lon="-3.5215010">
        <ele>604.7</ele>
        <time>2020-09-29T18:44:56Z</time>
      </trkpt>
      <trkpt lat="40.3814230" lon="-3.5215530">
        <ele>605.0</ele>
        <time>2020-09-29T18:44:57Z</time>
      </trkpt>
      <trkpt lat="40.3814320" lon="-3.5216080">
        <ele>605.3</ele>
        <time>2020-09-29T18:44:58Z</time>
      </trkpt>
      <trkpt lat="40.3814380" lon="-3.5216590">
        <ele>605.5</ele>
        <time>2020-09-29T18:44:59Z</time>
      </trkpt>
      <trkpt lat="40.3814450" lon="-3.5217040">
        <ele>605.8</ele>
        <time>2020-09-29T18:45:00Z</time>
      </trkpt>
      <trkpt lat="40.3814530" lon="-3.5217490">
        <ele>606.0</ele>
        <time>2020-09-29T18:45:01Z</time>
      </trkpt>
      <trkpt lat="40.3814610" lon="-3.5217930">
        <ele>606.2</ele>
        <time>2020-09-29T18:45:02Z</time>
      </trkpt>
      <trkpt lat="40.3814710" lon="-3.5218370">
        <ele>606.4</ele>
        <time>2020-09-29T18:45:03Z</time>
      </trkpt>
      <trkpt lat="40.3814790" lon="-3.5218870">
        <ele>606.6</ele>
        <time>2020-09-29T18:45:04Z</time>
      </trkpt>
      <trkpt lat="40.3814850" lon="-3.5219400">
        <ele>606.7</ele>
        <time>2020-09-29T18:45:05Z</time>
      </trkpt>
      <trkpt lat="40.3814830" lon="-3.5219960">
        <ele>606.8</ele>
        <time>2020-09-29T18:45:06Z</time>
      </trkpt>
      <trkpt lat="40.3814740" lon="-3.5220470">
        <ele>606.9</ele>
        <time>2020-09-29T18:45:07Z</time>
      </trkpt>
      <trkpt lat="40.3814650" lon="-3.5220970">
        <ele>607.1</ele>
        <time>2020-09-29T18:45:08Z</time>
      </trkpt>
      <trkpt lat="40.3814590" lon="-3.5221440">
        <ele>607.4</ele>
        <time>2020-09-29T18:45:09Z</time>
      </trkpt>
      <trkpt lat="40.3814560" lon="-3.5221910">
        <ele>607.7</ele>
        <time>2020-09-29T18:45:10Z</time>
      </trkpt>
      <trkpt lat="40.3814540" lon="-3.5222410">
        <ele>608.0</ele>
        <time>2020-09-29T18:45:11Z</time>
      </trkpt>
      <trkpt lat="40.3814550" lon="-3.5222910">
        <ele>608.3</ele>
        <time>2020-09-29T18:45:12Z</time>
      </trkpt>
      <trkpt lat="40.3814630" lon="-3.5223390">
        <ele>608.6</ele>
        <time>2020-09-29T18:45:13Z</time>
      </trkpt>
      <trkpt lat="40.3814830" lon="-3.5223880">
        <ele>609.0</ele>
        <time>2020-09-29T18:45:14Z</time>
      </trkpt>
      <trkpt lat="40.3815070" lon="-3.5224340">
        <ele>609.4</ele>
        <time>2020-09-29T18:45:15Z</time>
      </trkpt>
      <trkpt lat="40.3815310" lon="-3.5224750">
        <ele>609.8</ele>
        <time>2020-09-29T18:45:16Z</time>
      </trkpt>
      <trkpt lat="40.3815540" lon="-3.5225090">
        <ele>610.1</ele>
        <time>2020-09-29T18:45:17Z</time>
      </trkpt>
      <trkpt lat="40.3815750" lon="-3.5225480">
        <ele>610.5</ele>
        <time>2020-09-29T18:45:18Z</time>
      </trkpt>
      <trkpt lat="40.3816000" lon="-3.5225840">
        <ele>610.8</ele>
        <time>2020-09-29T18:45:19Z</time>
      </trkpt>
      <trkpt lat="40.3816330" lon="-3.5226160">
        <ele>611.1</ele>
        <time>2020-09-29T18:45:20Z</time>
      </trkpt>
      <trkpt lat="40.3816700" lon="-3.5226460">
        <ele>611.5</ele>
        <time>2020-09-29T18:45:21Z</time>
      </trkpt>
      <trkpt lat="40.3817080" lon="-3.5226740">
        <ele>611.6</ele>
        <time>2020-09-29T18:45:22Z</time>
      </trkpt>
      <trkpt lat="40.3817430" lon="-3.5227010">
        <ele>611.7</ele>
        <time>2020-09-29T18:45:23Z</time>
      </trkpt>
      <trkpt lat="40.3817730" lon="-3.5227290">
        <ele>611.8</ele>
        <time>2020-09-29T18:45:24Z</time>
      </trkpt>
      <trkpt lat="40.3817960" lon="-3.5227550">
        <ele>611.9</ele>
        <time>2020-09-29T18:45:25Z</time>
      </trkpt>
      <trkpt lat="40.3818200" lon="-3.5227820">
        <ele>612.0</ele>
        <time>2020-09-29T18:45:26Z</time>
      </trkpt>
      <trkpt lat="40.3818380" lon="-3.5228200">
        <ele>612.0</ele>
        <time>2020-09-29T18:45:27Z</time>
      </trkpt>
      <trkpt lat="40.3818500" lon="-3.5228640">
        <ele>612.1</ele>
        <time>2020-09-29T18:45:28Z</time>
      </trkpt>
      <trkpt lat="40.3818580" lon="-3.5229150">
        <ele>612.1</ele>
        <time>2020-09-29T18:45:29Z</time>
      </trkpt>
      <trkpt lat="40.3818640" lon="-3.5229700">
        <ele>612.2</ele>
        <time>2020-09-29T18:45:30Z</time>
      </trkpt>
      <trkpt lat="40.3818700" lon="-3.5230230">
        <ele>612.3</ele>
        <time>2020-09-29T18:45:31Z</time>
      </trkpt>
      <trkpt lat="40.3818730" lon="-3.5230730">
        <ele>612.4</ele>
        <time>2020-09-29T18:45:32Z</time>
      </trkpt>
      <trkpt lat="40.3818810" lon="-3.5231240">
        <ele>612.4</ele>
        <time>2020-09-29T18:45:33Z</time>
      </trkpt>
      <trkpt lat="40.3818920" lon="-3.5231730">
        <ele>612.5</ele>
        <time>2020-09-29T18:45:34Z</time>
      </trkpt>
      <trkpt lat="40.3819060" lon="-3.5232160">
        <ele>612.6</ele>
        <time>2020-09-29T18:45:35Z</time>
      </trkpt>
      <trkpt lat="40.3819220" lon="-3.5232510">
        <ele>612.7</ele>
        <time>2020-09-29T18:45:36Z</time>
      </trkpt>
      <trkpt lat="40.3819380" lon="-3.5232830">
        <ele>612.8</ele>
        <time>2020-09-29T18:45:37Z</time>
      </trkpt>
      <trkpt lat="40.3819570" lon="-3.5233150">
        <ele>612.9</ele>
        <time>2020-09-29T18:45:38Z</time>
      </trkpt>
      <trkpt lat="40.3819760" lon="-3.5233490">
        <ele>613.0</ele>
        <time>2020-09-29T18:45:39Z</time>
      </trkpt>
      <trkpt lat="40.3819980" lon="-3.5233820">
        <ele>613.0</ele>
        <time>2020-09-29T18:45:40Z</time>
      </trkpt>
      <trkpt lat="40.3820220" lon="-3.5234140">
        <ele>613.1</ele>
        <time>2020-09-29T18:45:41Z</time>
      </trkpt>
      <trkpt lat="40.3820450" lon="-3.5234440">
        <ele>613.2</ele>
        <time>2020-09-29T18:45:42Z</time>
      </trkpt>
      <trkpt lat="40.3820680" lon="-3.5234780">
        <ele>613.3</ele>
        <time>2020-09-29T18:45:43Z</time>
      </trkpt>
      <trkpt lat="40.3820870" lon="-3.5235180">
        <ele>613.4</ele>
        <time>2020-09-29T18:45:44Z</time>
      </trkpt>
      <trkpt lat="40.3821040" lon="-3.5235660">
        <ele>613.5</ele>
        <time>2020-09-29T18:45:45Z</time>
      </trkpt>
      <trkpt lat="40.3821140" lon="-3.5236190">
        <ele>613.6</ele>
        <time>2020-09-29T18:45:46Z</time>
      </trkpt>
      <trkpt lat="40.3821240" lon="-3.5236740">
        <ele>613.7</ele>
        <time>2020-09-29T18:45:47Z</time>
      </trkpt>
      <trkpt lat="40.3821330" lon="-3.5237280">
        <ele>613.8</ele>
        <time>2020-09-29T18:45:48Z</time>
      </trkpt>
      <trkpt lat="40.3821400" lon="-3.5237810">
        <ele>613.9</ele>
        <time>2020-09-29T18:45:49Z</time>
      </trkpt>
      <trkpt lat="40.3821430" lon="-3.5238330">
        <ele>614.0</ele>
        <time>2020-09-29T18:45:50Z</time>
      </trkpt>
      <trkpt lat="40.3821440" lon="-3.5238860">
        <ele>614.1</ele>
        <time>2020-09-29T18:45:51Z</time>
      </trkpt>
      <trkpt lat="40.3821430" lon="-3.5239420">
        <ele>614.3</ele>
        <time>2020-09-29T18:45:52Z</time>
      </trkpt>
      <trkpt lat="40.3821370" lon="-3.5240010">
        <ele>614.4</ele>
        <time>2020-09-29T18:45:53Z</time>
      </trkpt>
      <trkpt lat="40.3821350" lon="-3.5240560">
        <ele>614.6</ele>
        <time>2020-09-29T18:45:54Z</time>
      </trkpt>
      <trkpt lat="40.3821340" lon="-3.5241110">
        <ele>614.7</ele>
        <time>2020-09-29T18:45:55Z</time>
      </trkpt>
      <trkpt lat="40.3821310" lon="-3.5241710">
        <ele>614.9</ele>
        <time>2020-09-29T18:45:56Z</time>
      </trkpt>
      <trkpt lat="40.3821400" lon="-3.5242280">
        <ele>615.0</ele>
        <time>2020-09-29T18:45:57Z</time>
      </trkpt>
      <trkpt lat="40.3821470" lon="-3.5242830">
        <ele>615.2</ele>
        <time>2020-09-29T18:45:58Z</time>
      </trkpt>
      <trkpt lat="40.3821520" lon="-3.5243350">
        <ele>615.3</ele>
        <time>2020-09-29T18:45:59Z</time>
      </trkpt>
      <trkpt lat="40.3821540" lon="-3.5243880">
        <ele>615.4</ele>
        <time>2020-09-29T18:46:00Z</time>
      </trkpt>
      <trkpt lat="40.3821670" lon="-3.5244400">
        <ele>615.5</ele>
        <time>2020-09-29T18:46:01Z</time>
      </trkpt>
      <trkpt lat="40.3821780" lon="-3.5244970">
        <ele>615.6</ele>
        <time>2020-09-29T18:46:02Z</time>
      </trkpt>
      <trkpt lat="40.3822700" lon="-3.5245640">
        <ele>615.9</ele>
        <time>2020-09-29T18:46:03Z</time>
      </trkpt>
      <trkpt lat="40.3822790" lon="-3.5246130">
        <ele>616.0</ele>
        <time>2020-09-29T18:46:04Z</time>
      </trkpt>
      <trkpt lat="40.3822660" lon="-3.5246740">
        <ele>616.1</ele>
        <time>2020-09-29T18:46:05Z</time>
      </trkpt>
      <trkpt lat="40.3822920" lon="-3.5247350">
        <ele>616.3</ele>
        <time>2020-09-29T18:46:06Z</time>
      </trkpt>
      <trkpt lat="40.3823330" lon="-3.5247940">
        <ele>616.4</ele>
        <time>2020-09-29T18:46:07Z</time>
      </trkpt>
      <trkpt lat="40.3823110" lon="-3.5248650">
        <ele>616.6</ele>
        <time>2020-09-29T18:46:08Z</time>
      </trkpt>
      <trkpt lat="40.3822370" lon="-3.5249300">
        <ele>616.8</ele>
        <time>2020-09-29T18:46:09Z</time>
      </trkpt>
      <trkpt lat="40.3822470" lon="-3.5249870">
        <ele>616.9</ele>
        <time>2020-09-29T18:46:10Z</time>
      </trkpt>
      <trkpt lat="40.3822440" lon="-3.5250580">
        <ele>617.1</ele>
        <time>2020-09-29T18:46:11Z</time>
      </trkpt>
      <trkpt lat="40.3822600" lon="-3.5250990">
        <ele>617.2</ele>
        <time>2020-09-29T18:46:12Z</time>
      </trkpt>
      <trkpt lat="40.3822610" lon="-3.5251560">
        <ele>617.2</ele>
        <time>2020-09-29T18:46:13Z</time>
      </trkpt>
      <trkpt lat="40.3822530" lon="-3.5252160">
        <ele>617.4</ele>
        <time>2020-09-29T18:46:14Z</time>
      </trkpt>
      <trkpt lat="40.3822780" lon="-3.5252680">
        <ele>617.5</ele>
        <time>2020-09-29T18:46:15Z</time>
      </trkpt>
      <trkpt lat="40.3822720" lon="-3.5253390">
        <ele>617.6</ele>
        <time>2020-09-29T18:46:16Z</time>
      </trkpt>
      <trkpt lat="40.3822860" lon="-3.5253880">
        <ele>617.7</ele>
        <time>2020-09-29T18:46:17Z</time>
      </trkpt>
      <trkpt lat="40.3822790" lon="-3.5254420">
        <ele>617.8</ele>
        <time>2020-09-29T18:46:18Z</time>
      </trkpt>
      <trkpt lat="40.3822800" lon="-3.5254980">
        <ele>617.9</ele>
        <time>2020-09-29T18:46:19Z</time>
      </trkpt>
      <trkpt lat="40.3822710" lon="-3.5255520">
        <ele>618.0</ele>
        <time>2020-09-29T18:46:20Z</time>
      </trkpt>
      <trkpt lat="40.3822660" lon="-3.5256030">
        <ele>618.1</ele>
        <time>2020-09-29T18:46:21Z</time>
      </trkpt>
      <trkpt lat="40.3822520" lon="-3.5256560">
        <ele>618.2</ele>
        <time>2020-09-29T18:46:22Z</time>
      </trkpt>
      <trkpt lat="40.3822390" lon="-3.5257090">
        <ele>618.3</ele>
        <time>2020-09-29T18:46:23Z</time>
      </trkpt>
      <trkpt lat="40.3822250" lon="-3.5257580">
        <ele>618.4</ele>
        <time>2020-09-29T18:46:24Z</time>
      </trkpt>
      <trkpt lat="40.3822100" lon="-3.5258050">
        <ele>618.5</ele>
        <time>2020-09-29T18:46:25Z</time>
      </trkpt>
      <trkpt lat="40.3821940" lon="-3.5258540">
        <ele>618.6</ele>
        <time>2020-09-29T18:46:26Z</time>
      </trkpt>
      <trkpt lat="40.3821760" lon="-3.5258980">
        <ele>618.7</ele>
        <time>2020-09-29T18:46:27Z</time>
      </trkpt>
      <trkpt lat="40.3821580" lon="-3.5259410">
        <ele>618.8</ele>
        <time>2020-09-29T18:46:28Z</time>
      </trkpt>
      <trkpt lat="40.3821430" lon="-3.5259820">
        <ele>618.9</ele>
        <time>2020-09-29T18:46:29Z</time>
      </trkpt>
      <trkpt lat="40.3821260" lon="-3.5260240">
        <ele>619.0</ele>
        <time>2020-09-29T18:46:30Z</time>
      </trkpt>
      <trkpt lat="40.3820950" lon="-3.5260660">
        <ele>619.2</ele>
        <time>2020-09-29T18:46:31Z</time>
      </trkpt>
      <trkpt lat="40.3820630" lon="-3.5261050">
        <ele>619.3</ele>
        <time>2020-09-29T18:46:32Z</time>
      </trkpt>
      <trkpt lat="40.3820290" lon="-3.5261420">
        <ele>619.4</ele>
        <time>2020-09-29T18:46:33Z</time>
      </trkpt>
      <trkpt lat="40.3820030" lon="-3.5261770">
        <ele>619.4</ele>
        <time>2020-09-29T18:46:34Z</time>
      </trkpt>
      <trkpt lat="40.3819680" lon="-3.5262150">
        <ele>619.6</ele>
        <time>2020-09-29T18:46:35Z</time>
      </trkpt>
      <trkpt lat="40.3819360" lon="-3.5262560">
        <ele>619.7</ele>
        <time>2020-09-29T18:46:36Z</time>
      </trkpt>
      <trkpt lat="40.3819090" lon="-3.5262980">
        <ele>619.8</ele>
        <time>2020-09-29T18:46:37Z</time>
      </trkpt>
      <trkpt lat="40.3818800" lon="-3.5263380">
        <ele>619.9</ele>
        <time>2020-09-29T18:46:38Z</time>
      </trkpt>
      <trkpt lat="40.3818530" lon="-3.5263760">
        <ele>620.0</ele>
        <time>2020-09-29T18:46:39Z</time>
      </trkpt>
      <trkpt lat="40.3818270" lon="-3.5264130">
        <ele>620.1</ele>
        <time>2020-09-29T18:46:40Z</time>
      </trkpt>
      <trkpt lat="40.3817840" lon="-3.5264530">
        <ele>620.3</ele>
        <time>2020-09-29T18:46:41Z</time>
      </trkpt>
      <trkpt lat="40.3817500" lon="-3.5264920">
        <ele>620.4</ele>
        <time>2020-09-29T18:46:42Z</time>
      </trkpt>
      <trkpt lat="40.3817170" lon="-3.5265240">
        <ele>620.6</ele>
        <time>2020-09-29T18:46:43Z</time>
      </trkpt>
      <trkpt lat="40.3816810" lon="-3.5265580">
        <ele>620.8</ele>
        <time>2020-09-29T18:46:44Z</time>
      </trkpt>
      <trkpt lat="40.3816460" lon="-3.5265890">
        <ele>620.9</ele>
        <time>2020-09-29T18:46:45Z</time>
      </trkpt>
      <trkpt lat="40.3816150" lon="-3.5266190">
        <ele>621.1</ele>
        <time>2020-09-29T18:46:46Z</time>
      </trkpt>
      <trkpt lat="40.3815940" lon="-3.5266490">
        <ele>621.3</ele>
        <time>2020-09-29T18:46:47Z</time>
      </trkpt>
      <trkpt lat="40.3815710" lon="-3.5266830">
        <ele>621.5</ele>
        <time>2020-09-29T18:46:48Z</time>
      </trkpt>
      <trkpt lat="40.3815510" lon="-3.5267200">
        <ele>621.6</ele>
        <time>2020-09-29T18:46:49Z</time>
      </trkpt>
      <trkpt lat="40.3815460" lon="-3.5267640">
        <ele>621.8</ele>
        <time>2020-09-29T18:46:50Z</time>
      </trkpt>
      <trkpt lat="40.3815550" lon="-3.5268110">
        <ele>622.0</ele>
        <time>2020-09-29T18:46:51Z</time>
      </trkpt>
      <trkpt lat="40.3815700" lon="-3.5268570">
        <ele>622.2</ele>
        <time>2020-09-29T18:46:52Z</time>
      </trkpt>
      <trkpt lat="40.3815950" lon="-3.5269020">
        <ele>622.5</ele>
        <time>2020-09-29T18:46:53Z</time>
      </trkpt>
      <trkpt lat="40.3816180" lon="-3.5269460">
        <ele>622.7</ele>
        <time>2020-09-29T18:46:54Z</time>
      </trkpt>
      <trkpt lat="40.3816440" lon="-3.5269920">
        <ele>622.9</ele>
        <time>2020-09-29T18:46:55Z</time>
      </trkpt>
      <trkpt lat="40.3816700" lon="-3.5270330">
        <ele>623.2</ele>
        <time>2020-09-29T18:46:56Z</time>
      </trkpt>
      <trkpt lat="40.3817020" lon="-3.5270720">
        <ele>623.4</ele>
        <time>2020-09-29T18:46:57Z</time>
      </trkpt>
      <trkpt lat="40.3817360" lon="-3.5271050">
        <ele>623.7</ele>
        <time>2020-09-29T18:46:58Z</time>
      </trkpt>
      <trkpt lat="40.3817700" lon="-3.5271340">
        <ele>623.9</ele>
        <time>2020-09-29T18:46:59Z</time>
      </trkpt>
      <trkpt lat="40.3817980" lon="-3.5271650">
        <ele>624.1</ele>
        <time>2020-09-29T18:47:00Z</time>
      </trkpt>
      <trkpt lat="40.3818240" lon="-3.5272010">
        <ele>624.4</ele>
        <time>2020-09-29T18:47:01Z</time>
      </trkpt>
      <trkpt lat="40.3818470" lon="-3.5272500">
        <ele>624.6</ele>
        <time>2020-09-29T18:47:02Z</time>
      </trkpt>
      <trkpt lat="40.3818700" lon="-3.5273010">
        <ele>624.9</ele>
        <time>2020-09-29T18:47:03Z</time>
      </trkpt>
      <trkpt lat="40.3818900" lon="-3.5273500">
        <ele>625.2</ele>
        <time>2020-09-29T18:47:04Z</time>
      </trkpt>
      <trkpt lat="40.3819090" lon="-3.5273980">
        <ele>625.5</ele>
        <time>2020-09-29T18:47:05Z</time>
      </trkpt>
      <trkpt lat="40.3819260" lon="-3.5274460">
        <ele>625.7</ele>
        <time>2020-09-29T18:47:06Z</time>
      </trkpt>
      <trkpt lat="40.3819410" lon="-3.5274870">
        <ele>626.0</ele>
        <time>2020-09-29T18:47:07Z</time>
      </trkpt>
      <trkpt lat="40.3819560" lon="-3.5275320">
        <ele>626.2</ele>
        <time>2020-09-29T18:47:08Z</time>
      </trkpt>
      <trkpt lat="40.3819730" lon="-3.5275820">
        <ele>626.5</ele>
        <time>2020-09-29T18:47:09Z</time>
      </trkpt>
      <trkpt lat="40.3819920" lon="-3.5276330">
        <ele>626.7</ele>
        <time>2020-09-29T18:47:10Z</time>
      </trkpt>
      <trkpt lat="40.3820110" lon="-3.5276820">
        <ele>627.0</ele>
        <time>2020-09-29T18:47:11Z</time>
      </trkpt>
      <trkpt lat="40.3820290" lon="-3.5277310">
        <ele>627.3</ele>
        <time>2020-09-29T18:47:12Z</time>
      </trkpt>
      <trkpt lat="40.3820480" lon="-3.5277800">
        <ele>627.5</ele>
        <time>2020-09-29T18:47:13Z</time>
      </trkpt>
      <trkpt lat="40.3820690" lon="-3.5278270">
        <ele>627.7</ele>
        <time>2020-09-29T18:47:14Z</time>
      </trkpt>
      <trkpt lat="40.3820920" lon="-3.5278720">
        <ele>627.9</ele>
        <time>2020-09-29T18:47:15Z</time>
      </trkpt>
      <trkpt lat="40.3821150" lon="-3.5279150">
        <ele>628.2</ele>
        <time>2020-09-29T18:47:16Z</time>
      </trkpt>
      <trkpt lat="40.3821390" lon="-3.5279560">
        <ele>628.4</ele>
        <time>2020-09-29T18:47:17Z</time>
      </trkpt>
      <trkpt lat="40.3821660" lon="-3.5279970">
        <ele>628.6</ele>
        <time>2020-09-29T18:47:18Z</time>
      </trkpt>
      <trkpt lat="40.3821940" lon="-3.5280360">
        <ele>628.8</ele>
        <time>2020-09-29T18:47:19Z</time>
      </trkpt>
      <trkpt lat="40.3822210" lon="-3.5280750">
        <ele>629.1</ele>
        <time>2020-09-29T18:47:20Z</time>
      </trkpt>
      <trkpt lat="40.3822490" lon="-3.5281120">
        <ele>629.3</ele>
        <time>2020-09-29T18:47:21Z</time>
      </trkpt>
      <trkpt lat="40.3822760" lon="-3.5281480">
        <ele>629.5</ele>
        <time>2020-09-29T18:47:22Z</time>
      </trkpt>
      <trkpt lat="40.3823020" lon="-3.5281830">
        <ele>629.8</ele>
        <time>2020-09-29T18:47:23Z</time>
      </trkpt>
      <trkpt lat="40.3823270" lon="-3.5282130">
        <ele>630.0</ele>
        <time>2020-09-29T18:47:24Z</time>
      </trkpt>
      <trkpt lat="40.3823520" lon="-3.5282410">
        <ele>630.2</ele>
        <time>2020-09-29T18:47:25Z</time>
      </trkpt>
      <trkpt lat="40.3823780" lon="-3.5282680">
        <ele>630.4</ele>
        <time>2020-09-29T18:47:26Z</time>
      </trkpt>
      <trkpt lat="40.3824040" lon="-3.5282950">
        <ele>630.6</ele>
        <time>2020-09-29T18:47:27Z</time>
      </trkpt>
      <trkpt lat="40.3824290" lon="-3.5283220">
        <ele>630.8</ele>
        <time>2020-09-29T18:47:28Z</time>
      </trkpt>
      <trkpt lat="40.3824550" lon="-3.5283540">
        <ele>631.0</ele>
        <time>2020-09-29T18:47:29Z</time>
      </trkpt>
      <trkpt lat="40.3824770" lon="-3.5283870">
        <ele>631.2</ele>
        <time>2020-09-29T18:47:30Z</time>
      </trkpt>
      <trkpt lat="40.3824980" lon="-3.5284220">
        <ele>631.4</ele>
        <time>2020-09-29T18:47:31Z</time>
      </trkpt>
      <trkpt lat="40.3825210" lon="-3.5284680">
        <ele>631.6</ele>
        <time>2020-09-29T18:47:32Z</time>
      </trkpt>
      <trkpt lat="40.3825430" lon="-3.5285120">
        <ele>631.9</ele>
        <time>2020-09-29T18:47:33Z</time>
      </trkpt>
      <trkpt lat="40.3825640" lon="-3.5285520">
        <ele>632.1</ele>
        <time>2020-09-29T18:47:34Z</time>
      </trkpt>
      <trkpt lat="40.3825850" lon="-3.5285910">
        <ele>632.3</ele>
        <time>2020-09-29T18:47:35Z</time>
      </trkpt>
      <trkpt lat="40.3826110" lon="-3.5286280">
        <ele>632.5</ele>
        <time>2020-09-29T18:47:36Z</time>
      </trkpt>
      <trkpt lat="40.3826360" lon="-3.5286630">
        <ele>632.7</ele>
        <time>2020-09-29T18:47:37Z</time>
      </trkpt>
      <trkpt lat="40.3826600" lon="-3.5286980">
        <ele>632.9</ele>
        <time>2020-09-29T18:47:38Z</time>
      </trkpt>
      <trkpt lat="40.3826860" lon="-3.5287320">
        <ele>633.2</ele>
        <time>2020-09-29T18:47:39Z</time>
      </trkpt>
      <trkpt lat="40.3827120" lon="-3.5287670">
        <ele>633.4</ele>
        <time>2020-09-29T18:47:40Z</time>
      </trkpt>
      <trkpt lat="40.3827380" lon="-3.5288040">
        <ele>633.6</ele>
        <time>2020-09-29T18:47:41Z</time>
      </trkpt>
      <trkpt lat="40.3827650" lon="-3.5288430">
        <ele>633.8</ele>
        <time>2020-09-29T18:47:42Z</time>
      </trkpt>
      <trkpt lat="40.3827940" lon="-3.5288820">
        <ele>634.1</ele>
        <time>2020-09-29T18:47:43Z</time>
      </trkpt>
      <trkpt lat="40.3828200" lon="-3.5289180">
        <ele>634.3</ele>
        <time>2020-09-29T18:47:44Z</time>
      </trkpt>
      <trkpt lat="40.3828470" lon="-3.5289520">
        <ele>634.5</ele>
        <time>2020-09-29T18:47:45Z</time>
      </trkpt>
      <trkpt lat="40.3828700" lon="-3.5289820">
        <ele>634.7</ele>
        <time>2020-09-29T18:47:46Z</time>
      </trkpt>
      <trkpt lat="40.3828930" lon="-3.5290090">
        <ele>634.9</ele>
        <time>2020-09-29T18:47:47Z</time>
      </trkpt>
      <trkpt lat="40.3829150" lon="-3.5290420">
        <ele>635.1</ele>
        <time>2020-09-29T18:47:48Z</time>
      </trkpt>
      <trkpt lat="40.3829360" lon="-3.5290730">
        <ele>635.3</ele>
        <time>2020-09-29T18:47:49Z</time>
      </trkpt>
      <trkpt lat="40.3829550" lon="-3.5291080">
        <ele>635.4</ele>
        <time>2020-09-29T18:47:50Z</time>
      </trkpt>
      <trkpt lat="40.3829760" lon="-3.5291460">
        <ele>636.1</ele>
        <time>2020-09-29T18:47:51Z</time>
      </trkpt>
      <trkpt lat="40.3829970" lon="-3.5291840">
        <ele>636.4</ele>
        <time>2020-09-29T18:47:52Z</time>
      </trkpt>
      <trkpt lat="40.3830190" lon="-3.5292250">
        <ele>637.0</ele>
        <time>2020-09-29T18:47:53Z</time>
      </trkpt>
      <trkpt lat="40.3830450" lon="-3.5292660">
        <ele>637.6</ele>
        <time>2020-09-29T18:47:54Z</time>
      </trkpt>
      <trkpt lat="40.3830670" lon="-3.5293050">
        <ele>638.0</ele>
        <time>2020-09-29T18:47:55Z</time>
      </trkpt>
      <trkpt lat="40.3830920" lon="-3.5293410">
        <ele>638.4</ele>
        <time>2020-09-29T18:47:56Z</time>
      </trkpt>
      <trkpt lat="40.3831180" lon="-3.5293770">
        <ele>638.8</ele>
        <time>2020-09-29T18:47:57Z</time>
      </trkpt>
      <trkpt lat="40.3831380" lon="-3.5294110">
        <ele>639.1</ele>
        <time>2020-09-29T18:47:58Z</time>
      </trkpt>
      <trkpt lat="40.3831590" lon="-3.5294490">
        <ele>639.3</ele>
        <time>2020-09-29T18:47:59Z</time>
      </trkpt>
      <trkpt lat="40.3831800" lon="-3.5294910">
        <ele>639.5</ele>
        <time>2020-09-29T18:48:00Z</time>
      </trkpt>
      <trkpt lat="40.3831980" lon="-3.5295410">
        <ele>639.7</ele>
        <time>2020-09-29T18:48:01Z</time>
      </trkpt>
      <trkpt lat="40.3832150" lon="-3.5295900">
        <ele>640.0</ele>
        <time>2020-09-29T18:48:02Z</time>
      </trkpt>
      <trkpt lat="40.3832310" lon="-3.5296360">
        <ele>640.2</ele>
        <time>2020-09-29T18:48:03Z</time>
      </trkpt>
      <trkpt lat="40.3832480" lon="-3.5296850">
        <ele>640.5</ele>
        <time>2020-09-29T18:48:04Z</time>
      </trkpt>
      <trkpt lat="40.3832760" lon="-3.5297390">
        <ele>640.7</ele>
        <time>2020-09-29T18:48:05Z</time>
      </trkpt>
      <trkpt lat="40.3833010" lon="-3.5297840">
        <ele>641.0</ele>
        <time>2020-09-29T18:48:06Z</time>
      </trkpt>
      <trkpt lat="40.3833250" lon="-3.5298350">
        <ele>641.2</ele>
        <time>2020-09-29T18:48:07Z</time>
      </trkpt>
      <trkpt lat="40.3833570" lon="-3.5298750">
        <ele>641.4</ele>
        <time>2020-09-29T18:48:08Z</time>
      </trkpt>
      <trkpt lat="40.3834070" lon="-3.5299190">
        <ele>641.7</ele>
        <time>2020-09-29T18:48:09Z</time>
      </trkpt>
      <trkpt lat="40.3834460" lon="-3.5299760">
        <ele>641.9</ele>
        <time>2020-09-29T18:48:10Z</time>
      </trkpt>
      <trkpt lat="40.3834740" lon="-3.5300350">
        <ele>642.2</ele>
        <time>2020-09-29T18:48:11Z</time>
      </trkpt>
      <trkpt lat="40.3834980" lon="-3.5300860">
        <ele>642.4</ele>
        <time>2020-09-29T18:48:12Z</time>
      </trkpt>
      <trkpt lat="40.3835330" lon="-3.5301420">
        <ele>642.6</ele>
        <time>2020-09-29T18:48:13Z</time>
      </trkpt>
      <trkpt lat="40.3835580" lon="-3.5301940">
        <ele>642.8</ele>
        <time>2020-09-29T18:48:14Z</time>
      </trkpt>
      <trkpt lat="40.3835910" lon="-3.5302390">
        <ele>643.0</ele>
        <time>2020-09-29T18:48:15Z</time>
      </trkpt>
      <trkpt lat="40.3836190" lon="-3.5302860">
        <ele>643.2</ele>
        <time>2020-09-29T18:48:16Z</time>
      </trkpt>
      <trkpt lat="40.3836460" lon="-3.5303410">
        <ele>643.5</ele>
        <time>2020-09-29T18:48:17Z</time>
      </trkpt>
      <trkpt lat="40.3836770" lon="-3.5303860">
        <ele>643.7</ele>
        <time>2020-09-29T18:48:18Z</time>
      </trkpt>
      <trkpt lat="40.3837230" lon="-3.5304260">
        <ele>643.7</ele>
        <time>2020-09-29T18:48:19Z</time>
      </trkpt>
      <trkpt lat="40.3837550" lon="-3.5304440">
        <ele>643.8</ele>
        <time>2020-09-29T18:48:20Z</time>
      </trkpt>
      <trkpt lat="40.3837990" lon="-3.5304670">
        <ele>643.8</ele>
        <time>2020-09-29T18:48:21Z</time>
      </trkpt>
      <trkpt lat="40.3838550" lon="-3.5304950">
        <ele>643.8</ele>
        <time>2020-09-29T18:48:22Z</time>
      </trkpt>
      <trkpt lat="40.3838990" lon="-3.5305300">
        <ele>644.1</ele>
        <time>2020-09-29T18:48:23Z</time>
      </trkpt>
      <trkpt lat="40.3839540" lon="-3.5305790">
        <ele>644.5</ele>
        <time>2020-09-29T18:48:24Z</time>
      </trkpt>
      <trkpt lat="40.3840020" lon="-3.5306250">
        <ele>644.8</ele>
        <time>2020-09-29T18:48:25Z</time>
      </trkpt>
      <trkpt lat="40.3840110" lon="-3.5307060">
        <ele>644.7</ele>
        <time>2020-09-29T18:48:26Z</time>
      </trkpt>
      <trkpt lat="40.3840250" lon="-3.5307660">
        <ele>644.5</ele>
        <time>2020-09-29T18:48:27Z</time>
      </trkpt>
      <trkpt lat="40.3840110" lon="-3.5308380">
        <ele>644.5</ele>
        <time>2020-09-29T18:48:28Z</time>
      </trkpt>
      <trkpt lat="40.3839980" lon="-3.5309070">
        <ele>644.4</ele>
        <time>2020-09-29T18:48:29Z</time>
      </trkpt>
      <trkpt lat="40.3839550" lon="-3.5309720">
        <ele>644.3</ele>
        <time>2020-09-29T18:48:30Z</time>
      </trkpt>
      <trkpt lat="40.3838870" lon="-3.5310350">
        <ele>644.2</ele>
        <time>2020-09-29T18:48:31Z</time>
      </trkpt>
      <trkpt lat="40.3838340" lon="-3.5310810">
        <ele>644.1</ele>
        <time>2020-09-29T18:48:32Z</time>
      </trkpt>
      <trkpt lat="40.3837950" lon="-3.5311230">
        <ele>644.1</ele>
        <time>2020-09-29T18:48:33Z</time>
      </trkpt>
      <trkpt lat="40.3837330" lon="-3.5311720">
        <ele>644.0</ele>
        <time>2020-09-29T18:48:34Z</time>
      </trkpt>
      <trkpt lat="40.3836500" lon="-3.5311880">
        <ele>643.9</ele>
        <time>2020-09-29T18:48:35Z</time>
      </trkpt>
      <trkpt lat="40.3835770" lon="-3.5312020">
        <ele>643.6</ele>
        <time>2020-09-29T18:48:36Z</time>
      </trkpt>
      <trkpt lat="40.3834970" lon="-3.5312070">
        <ele>643.3</ele>
        <time>2020-09-29T18:48:37Z</time>
      </trkpt>
      <trkpt lat="40.3834410" lon="-3.5312460">
        <ele>643.2</ele>
        <time>2020-09-29T18:48:38Z</time>
      </trkpt>
      <trkpt lat="40.3833820" lon="-3.5312740">
        <ele>643.0</ele>
        <time>2020-09-29T18:48:39Z</time>
      </trkpt>
      <trkpt lat="40.3833180" lon="-3.5313370">
        <ele>642.8</ele>
        <time>2020-09-29T18:48:40Z</time>
      </trkpt>
      <trkpt lat="40.3832910" lon="-3.5313930">
        <ele>642.7</ele>
        <time>2020-09-29T18:48:41Z</time>
      </trkpt>
      <trkpt lat="40.3832510" lon="-3.5314520">
        <ele>642.7</ele>
        <time>2020-09-29T18:48:42Z</time>
      </trkpt>
      <trkpt lat="40.3832060" lon="-3.5315420">
        <ele>642.6</ele>
        <time>2020-09-29T18:48:43Z</time>
      </trkpt>
      <trkpt lat="40.3831500" lon="-3.5316060">
        <ele>642.5</ele>
        <time>2020-09-29T18:48:44Z</time>
      </trkpt>
      <trkpt lat="40.3830640" lon="-3.5316720">
        <ele>642.3</ele>
        <time>2020-09-29T18:48:45Z</time>
      </trkpt>
      <trkpt lat="40.3829940" lon="-3.5316640">
        <ele>642.2</ele>
        <time>2020-09-29T18:48:46Z</time>
      </trkpt>
      <trkpt lat="40.3829530" lon="-3.5317400">
        <ele>642.1</ele>
        <time>2020-09-29T18:48:47Z</time>
      </trkpt>
      <trkpt lat="40.3829080" lon="-3.5318080">
        <ele>642.0</ele>
        <time>2020-09-29T18:48:48Z</time>
      </trkpt>
      <trkpt lat="40.3828890" lon="-3.5319070">
        <ele>641.9</ele>
        <time>2020-09-29T18:48:49Z</time>
      </trkpt>
      <trkpt lat="40.3828430" lon="-3.5319520">
        <ele>641.8</ele>
        <time>2020-09-29T18:48:50Z</time>
      </trkpt>
      <trkpt lat="40.3827500" lon="-3.5319780">
        <ele>641.7</ele>
        <time>2020-09-29T18:48:51Z</time>
      </trkpt>
      <trkpt lat="40.3826870" lon="-3.5320260">
        <ele>641.6</ele>
        <time>2020-09-29T18:48:52Z</time>
      </trkpt>
      <trkpt lat="40.3826180" lon="-3.5320620">
        <ele>641.5</ele>
        <time>2020-09-29T18:48:53Z</time>
      </trkpt>
      <trkpt lat="40.3825480" lon="-3.5321120">
        <ele>641.5</ele>
        <time>2020-09-29T18:48:54Z</time>
      </trkpt>
      <trkpt lat="40.3824630" lon="-3.5321650">
        <ele>641.4</ele>
        <time>2020-09-29T18:48:55Z</time>
      </trkpt>
      <trkpt lat="40.3824190" lon="-3.5322480">
        <ele>641.4</ele>
        <time>2020-09-29T18:48:56Z</time>
      </trkpt>
      <trkpt lat="40.3823920" lon="-3.5323300">
        <ele>641.3</ele>
        <time>2020-09-29T18:48:57Z</time>
      </trkpt>
      <trkpt lat="40.3823530" lon="-3.5323740">
        <ele>641.2</ele>
        <time>2020-09-29T18:48:58Z</time>
      </trkpt>
      <trkpt lat="40.3823200" lon="-3.5324380">
        <ele>641.2</ele>
        <time>2020-09-29T18:48:59Z</time>
      </trkpt>
      <trkpt lat="40.3822950" lon="-3.5325100">
        <ele>641.1</ele>
        <time>2020-09-29T18:49:00Z</time>
      </trkpt>
      <trkpt lat="40.3822720" lon="-3.5325460">
        <ele>641.0</ele>
        <time>2020-09-29T18:49:01Z</time>
      </trkpt>
      <trkpt lat="40.3822350" lon="-3.5325950">
        <ele>641.0</ele>
        <time>2020-09-29T18:49:02Z</time>
      </trkpt>
      <trkpt lat="40.3822000" lon="-3.5326420">
        <ele>641.0</ele>
        <time>2020-09-29T18:49:03Z</time>
      </trkpt>
      <trkpt lat="40.3821680" lon="-3.5327140">
        <ele>640.9</ele>
        <time>2020-09-29T18:49:04Z</time>
      </trkpt>
      <trkpt lat="40.3822270" lon="-3.5327910">
        <ele>640.8</ele>
        <time>2020-09-29T18:49:05Z</time>
      </trkpt>
      <trkpt lat="40.3822550" lon="-3.5328740">
        <ele>640.8</ele>
        <time>2020-09-29T18:49:06Z</time>
      </trkpt>
      <trkpt lat="40.3823020" lon="-3.5329240">
        <ele>640.7</ele>
        <time>2020-09-29T18:49:07Z</time>
      </trkpt>
      <trkpt lat="40.3823150" lon="-3.5329740">
        <ele>640.7</ele>
        <time>2020-09-29T18:49:08Z</time>
      </trkpt>
      <trkpt lat="40.3823570" lon="-3.5330360">
        <ele>640.6</ele>
        <time>2020-09-29T18:49:09Z</time>
      </trkpt>
      <trkpt lat="40.3823910" lon="-3.5330970">
        <ele>640.6</ele>
        <time>2020-09-29T18:49:10Z</time>
      </trkpt>
      <trkpt lat="40.3824400" lon="-3.5331610">
        <ele>640.5</ele>
        <time>2020-09-29T18:49:11Z</time>
      </trkpt>
      <trkpt lat="40.3824910" lon="-3.5332230">
        <ele>640.5</ele>
        <time>2020-09-29T18:49:12Z</time>
      </trkpt>
      <trkpt lat="40.3825380" lon="-3.5332920">
        <ele>640.5</ele>
        <time>2020-09-29T18:49:13Z</time>
      </trkpt>
      <trkpt lat="40.3825680" lon="-3.5333530">
        <ele>640.5</ele>
        <time>2020-09-29T18:49:14Z</time>
      </trkpt>
      <trkpt lat="40.3826160" lon="-3.5334310">
        <ele>640.5</ele>
        <time>2020-09-29T18:49:15Z</time>
      </trkpt>
      <trkpt lat="40.3826430" lon="-3.5335020">
        <ele>640.6</ele>
        <time>2020-09-29T18:49:16Z</time>
      </trkpt>
      <trkpt lat="40.3826700" lon="-3.5335700">
        <ele>640.6</ele>
        <time>2020-09-29T18:49:17Z</time>
      </trkpt>
      <trkpt lat="40.3827180" lon="-3.5336270">
        <ele>640.6</ele>
        <time>2020-09-29T18:49:18Z</time>
      </trkpt>
      <trkpt lat="40.3827630" lon="-3.5336990">
        <ele>640.7</ele>
        <time>2020-09-29T18:49:19Z</time>
      </trkpt>
      <trkpt lat="40.3828020" lon="-3.5337740">
        <ele>640.7</ele>
        <time>2020-09-29T18:49:20Z</time>
      </trkpt>
      <trkpt lat="40.3828500" lon="-3.5338330">
        <ele>640.7</ele>
        <time>2020-09-29T18:49:21Z</time>
      </trkpt>
      <trkpt lat="40.3828930" lon="-3.5339060">
        <ele>640.8</ele>
        <time>2020-09-29T18:49:22Z</time>
      </trkpt>
      <trkpt lat="40.3829310" lon="-3.5339720">
        <ele>640.9</ele>
        <time>2020-09-29T18:49:23Z</time>
      </trkpt>
      <trkpt lat="40.3829730" lon="-3.5340320">
        <ele>641.0</ele>
        <time>2020-09-29T18:49:24Z</time>
      </trkpt>
      <trkpt lat="40.3830110" lon="-3.5340920">
        <ele>641.0</ele>
        <time>2020-09-29T18:49:25Z</time>
      </trkpt>
      <trkpt lat="40.3830480" lon="-3.5341530">
        <ele>641.1</ele>
        <time>2020-09-29T18:49:26Z</time>
      </trkpt>
      <trkpt lat="40.3830950" lon="-3.5342140">
        <ele>641.2</ele>
        <time>2020-09-29T18:49:27Z</time>
      </trkpt>
      <trkpt lat="40.3831400" lon="-3.5342810">
        <ele>641.2</ele>
        <time>2020-09-29T18:49:28Z</time>
      </trkpt>
      <trkpt lat="40.3831780" lon="-3.5343440">
        <ele>641.2</ele>
        <time>2020-09-29T18:49:29Z</time>
      </trkpt>
      <trkpt lat="40.3832240" lon="-3.5344220">
        <ele>641.2</ele>
        <time>2020-09-29T18:49:30Z</time>
      </trkpt>
      <trkpt lat="40.3832630" lon="-3.5344790">
        <ele>641.2</ele>
        <time>2020-09-29T18:49:31Z</time>
      </trkpt>
      <trkpt lat="40.3833020" lon="-3.5345390">
        <ele>641.3</ele>
        <time>2020-09-29T18:49:32Z</time>
      </trkpt>
      <trkpt lat="40.3833600" lon="-3.5346080">
        <ele>641.3</ele>
        <time>2020-09-29T18:49:33Z</time>
      </trkpt>
      <trkpt lat="40.3833890" lon="-3.5346650">
        <ele>641.3</ele>
        <time>2020-09-29T18:49:34Z</time>
      </trkpt>
      <trkpt lat="40.3834320" lon="-3.5347230">
        <ele>641.3</ele>
        <time>2020-09-29T18:49:35Z</time>
      </trkpt>
      <trkpt lat="40.3834680" lon="-3.5347930">
        <ele>641.3</ele>
        <time>2020-09-29T18:49:36Z</time>
      </trkpt>
      <trkpt lat="40.3835130" lon="-3.5348600">
        <ele>641.3</ele>
        <time>2020-09-29T18:49:37Z</time>
      </trkpt>
      <trkpt lat="40.3835530" lon="-3.5349190">
        <ele>641.3</ele>
        <time>2020-09-29T18:49:38Z</time>
      </trkpt>
      <trkpt lat="40.3835920" lon="-3.5349750">
        <ele>641.3</ele>
        <time>2020-09-29T18:49:39Z</time>
      </trkpt>
      <trkpt lat="40.3836310" lon="-3.5350500">
        <ele>641.2</ele>
        <time>2020-09-29T18:49:40Z</time>
      </trkpt>
      <trkpt lat="40.3836510" lon="-3.5350950">
        <ele>641.2</ele>
        <time>2020-09-29T18:49:41Z</time>
      </trkpt>
      <trkpt lat="40.3836880" lon="-3.5351510">
        <ele>641.2</ele>
        <time>2020-09-29T18:49:42Z</time>
      </trkpt>
      <trkpt lat="40.3837350" lon="-3.5352050">
        <ele>641.1</ele>
        <time>2020-09-29T18:49:43Z</time>
      </trkpt>
      <trkpt lat="40.3838020" lon="-3.5352630">
        <ele>641.1</ele>
        <time>2020-09-29T18:49:44Z</time>
      </trkpt>
      <trkpt lat="40.3838380" lon="-3.5352930">
        <ele>641.0</ele>
        <time>2020-09-29T18:49:45Z</time>
      </trkpt>
      <trkpt lat="40.3839590" lon="-3.5353110">
        <ele>640.9</ele>
        <time>2020-09-29T18:49:46Z</time>
      </trkpt>
      <trkpt lat="40.3840500" lon="-3.5353620">
        <ele>640.8</ele>
        <time>2020-09-29T18:49:47Z</time>
      </trkpt>
      <trkpt lat="40.3840540" lon="-3.5354230">
        <ele>640.8</ele>
        <time>2020-09-29T18:49:48Z</time>
      </trkpt>
      <trkpt lat="40.3840630" lon="-3.5355050">
        <ele>640.7</ele>
        <time>2020-09-29T18:49:49Z</time>
      </trkpt>
      <trkpt lat="40.3840590" lon="-3.5355560">
        <ele>640.7</ele>
        <time>2020-09-29T18:49:50Z</time>
      </trkpt>
      <trkpt lat="40.3840680" lon="-3.5356160">
        <ele>640.6</ele>
        <time>2020-09-29T18:49:51Z</time>
      </trkpt>
      <trkpt lat="40.3841030" lon="-3.5356580">
        <ele>640.6</ele>
        <time>2020-09-29T18:49:52Z</time>
      </trkpt>
      <trkpt lat="40.3841320" lon="-3.5356890">
        <ele>640.6</ele>
        <time>2020-09-29T18:49:53Z</time>
      </trkpt>
      <trkpt lat="40.3841220" lon="-3.5357290">
        <ele>640.5</ele>
        <time>2020-09-29T18:49:54Z</time>
      </trkpt>
      <trkpt lat="40.3841610" lon="-3.5357690">
        <ele>640.5</ele>
        <time>2020-09-29T18:49:55Z</time>
      </trkpt>
      <trkpt lat="40.3841900" lon="-3.5358180">
        <ele>640.4</ele>
        <time>2020-09-29T18:49:56Z</time>
      </trkpt>
      <trkpt lat="40.3842020" lon="-3.5358670">
        <ele>640.4</ele>
        <time>2020-09-29T18:49:57Z</time>
      </trkpt>
      <trkpt lat="40.3842140" lon="-3.5359150">
        <ele>640.4</ele>
        <time>2020-09-29T18:49:58Z</time>
      </trkpt>
      <trkpt lat="40.3842330" lon="-3.5359450">
        <ele>640.4</ele>
        <time>2020-09-29T18:49:59Z</time>
      </trkpt>
      <trkpt lat="40.3842630" lon="-3.5359660">
        <ele>640.4</ele>
        <time>2020-09-29T18:50:00Z</time>
      </trkpt>
      <trkpt lat="40.3842730" lon="-3.5359730">
        <ele>640.4</ele>
        <time>2020-09-29T18:50:01Z</time>
      </trkpt>
      <trkpt lat="40.3842680" lon="-3.5359980">
        <ele>640.4</ele>
        <time>2020-09-29T18:50:02Z</time>
      </trkpt>
      <trkpt lat="40.3842620" lon="-3.5360070">
        <ele>640.4</ele>
        <time>2020-09-29T18:50:03Z</time>
      </trkpt>
      <trkpt lat="40.3842250" lon="-3.5360510">
        <ele>640.4</ele>
        <time>2020-09-29T18:50:04Z</time>
      </trkpt>
      <trkpt lat="40.3841990" lon="-3.5360820">
        <ele>640.4</ele>
        <time>2020-09-29T18:50:05Z</time>
      </trkpt>
      <trkpt lat="40.3842360" lon="-3.5360680">
        <ele>640.3</ele>
        <time>2020-09-29T18:50:06Z</time>
      </trkpt>
      <trkpt lat="40.3842490" lon="-3.5360620">
        <ele>640.3</ele>
        <time>2020-09-29T18:50:07Z</time>
      </trkpt>
      <trkpt lat="40.3842510" lon="-3.5360640">
        <ele>640.3</ele>
        <time>2020-09-29T18:50:08Z</time>
      </trkpt>
      <trkpt lat="40.3842490" lon="-3.5360740">
        <ele>640.3</ele>
        <time>2020-09-29T18:50:09Z</time>
      </trkpt>
      <trkpt lat="40.3842430" lon="-3.5360660">
        <ele>640.3</ele>
        <time>2020-09-29T18:50:10Z</time>
      </trkpt>
      <trkpt lat="40.3842470" lon="-3.5360540">
        <ele>640.3</ele>
        <time>2020-09-29T18:50:11Z</time>
      </trkpt>
      <trkpt lat="40.3842500" lon="-3.5360370">
        <ele>640.3</ele>
        <time>2020-09-29T18:50:12Z</time>
      </trkpt>
      <trkpt lat="40.3842430" lon="-3.5360300">
        <ele>640.3</ele>
        <time>2020-09-29T18:50:13Z</time>
      </trkpt>
      <trkpt lat="40.3842360" lon="-3.5360200">
        <ele>640.3</ele>
        <time>2020-09-29T18:50:14Z</time>
      </trkpt>
      <trkpt lat="40.3842320" lon="-3.5359980">
        <ele>640.3</ele>
        <time>2020-09-29T18:50:15Z</time>
      </trkpt>
      <trkpt lat="40.3842410" lon="-3.5359950">
        <ele>640.3</ele>
        <time>2020-09-29T18:50:16Z</time>
      </trkpt>
      <trkpt lat="40.3842470" lon="-3.5359990">
        <ele>640.3</ele>
        <time>2020-09-29T18:50:17Z</time>
      </trkpt>
      <trkpt lat="40.3842550" lon="-3.5360010">
        <ele>640.3</ele>
        <time>2020-09-29T18:50:18Z</time>
      </trkpt>
      <trkpt lat="40.3842610" lon="-3.5360050">
        <ele>640.3</ele>
        <time>2020-09-29T18:50:19Z</time>
      </trkpt>
      <trkpt lat="40.3842610" lon="-3.5360090">
        <ele>640.3</ele>
        <time>2020-09-29T18:50:20Z</time>
      </trkpt>
      <trkpt lat="40.3842580" lon="-3.5360140">
        <ele>640.3</ele>
        <time>2020-09-29T18:50:21Z</time>
      </trkpt>
      <trkpt lat="40.3842540" lon="-3.5360160">
        <ele>640.3</ele>
        <time>2020-09-29T18:50:22Z</time>
      </trkpt>
      <trkpt lat="40.3842740" lon="-3.5360090">
        <ele>640.3</ele>
        <time>2020-09-29T18:50:23Z</time>
      </trkpt>
      <trkpt lat="40.3842890" lon="-3.5360020">
        <ele>640.3</ele>
        <time>2020-09-29T18:50:24Z</time>
      </trkpt>
      <trkpt lat="40.3842920" lon="-3.5359930">
        <ele>640.3</ele>
        <time>2020-09-29T18:50:25Z</time>
      </trkpt>
    </trkseg>
  </trk>
</gpx>
